<?xml version="1.0" encoding="UTF-8" standalone="no" ?>
<gpx xmlns="http://www.topografix.com/GPX/1/1" xmlns:xsi="http://www.w3.org/2001/XMLSchema-instance" xsi:schemaLocation="http://www.topografix.com/GPX/1/1 http://www.topografix.com/GPX/1/1/gpx.xsd" version="1.1" creator="VisuGPX - https://www.visugpx.com">
  <metadata>
    <name>Abries SDR</name>
  </metadata>
  <wpt lat="44.7956" lon="6.92592">
    <ele>1571</ele>
  </wpt>
  <wpt lat="44.80157" lon="6.91439">
    <ele>1954</ele>
  </wpt>
  <wpt lat="44.83212" lon="6.90528">
    <ele>2662</ele>
  </wpt>
  <wpt lat="44.82511" lon="6.94159">
    <ele>1781</ele>
  </wpt>
  <wpt lat="44.82948" lon="6.94087">
    <ele>1813</ele>
  </wpt>
  <wpt lat="44.84948" lon="6.94649">
    <ele>2429</ele>
  </wpt>
  <wpt lat="44.85525" lon="6.93276">
    <ele>2686</ele>
  </wpt>
  <wpt lat="44.86127" lon="6.93145">
    <ele>3092</ele>
  </wpt>
  <wpt lat="44.82511" lon="6.94159">
    <ele>1781</ele>
  </wpt>
  <wpt lat="44.82891" lon="6.9414">
    <ele>1830</ele>
  </wpt>
  <wpt lat="44.83196" lon="7.00679">
    <ele>2614</ele>
  </wpt>
  <wpt lat="44.82511" lon="6.94159">
    <ele>1781</ele>
  </wpt>
  <wpt lat="44.82891" lon="6.9414">
    <ele>1830</ele>
  </wpt>
  <wpt lat="44.83547" lon="6.99793">
    <ele>2522</ele>
  </wpt>
  <wpt lat="44.8385" lon="7.00435">
    <ele>2803</ele>
  </wpt>
  <wpt lat="44.82511" lon="6.94159">
    <ele>1781</ele>
  </wpt>
  <wpt lat="44.82891" lon="6.9414">
    <ele>1830</ele>
  </wpt>
  <wpt lat="44.83547" lon="6.99793">
    <ele>2522</ele>
  </wpt>
  <wpt lat="44.84093" lon="6.99998">
    <ele>2874</ele>
  </wpt>
  <wpt lat="44.7956" lon="6.92592">
    <ele>1571</ele>
  </wpt>
  <wpt lat="44.80157" lon="6.91439">
    <ele>1954</ele>
  </wpt>
  <wpt lat="44.82414" lon="6.89209">
    <ele>2344</ele>
  </wpt>
  <wpt lat="44.8303" lon="6.89297">
    <ele>2399</ele>
  </wpt>
  <wpt lat="44.84389" lon="6.90492">
    <ele>2877</ele>
  </wpt>
  <wpt lat="44.81581" lon="6.9467">
    <ele>1710</ele>
  </wpt>
  <wpt lat="44.81329" lon="6.9528">
    <ele>1751</ele>
  </wpt>
  <wpt lat="44.81245" lon="6.95835">
    <ele>1809</ele>
  </wpt>
  <wpt lat="44.81389" lon="6.98449">
    <ele>1950</ele>
  </wpt>
  <wpt lat="44.82375" lon="7.0068">
    <ele>2520</ele>
  </wpt>
  <wpt lat="44.83084" lon="7.01088">
    <ele>2566</ele>
  </wpt>
  <wpt lat="44.82583" lon="7.01892">
    <ele>2661</ele>
  </wpt>
  <wpt lat="44.76756" lon="6.94934">
    <ele>1736</ele>
  </wpt>
  <wpt lat="44.75506" lon="6.93974">
    <ele>1924</ele>
  </wpt>
  <wpt lat="44.75201" lon="6.94055">
    <ele>1962</ele>
  </wpt>
  <wpt lat="44.73659" lon="6.94388">
    <ele>2190</ele>
  </wpt>
  <wpt lat="44.73624" lon="6.96532">
    <ele>2767</ele>
  </wpt>
  <wpt lat="44.7697" lon="6.95353">
    <ele>1725</ele>
  </wpt>
  <wpt lat="44.74148" lon="6.96408">
    <ele>2781</ele>
  </wpt>
  <wpt lat="44.76756" lon="6.94934">
    <ele>1736</ele>
  </wpt>
  <wpt lat="44.75506" lon="6.93974">
    <ele>1924</ele>
  </wpt>
  <wpt lat="44.75201" lon="6.94055">
    <ele>1962</ele>
  </wpt>
  <wpt lat="44.73659" lon="6.94388">
    <ele>2190</ele>
  </wpt>
  <wpt lat="44.72698" lon="6.95272">
    <ele>2313</ele>
  </wpt>
  <wpt lat="44.7211" lon="6.96043">
    <ele>2520</ele>
  </wpt>
  <wpt lat="44.71625" lon="6.96239">
    <ele>2702</ele>
  </wpt>
  <wpt lat="44.71473" lon="6.96795">
    <ele>2765</ele>
  </wpt>
  <wpt lat="44.71082" lon="6.96665">
    <ele>2885</ele>
  </wpt>
  <trk>
    <name><![CDATA[Col d'Urine AR]]></name>
    <extensions>
      <line xmlns="http://www.topografix.com/GPX/gpx_style/0/2">
        <color>FF0000</color>
        <width>4</width>
          <extensions>
            <sens>1</sens>
          </extensions>
      </line>
    </extensions>
    <trkseg>
      <trkpt lat="44.81909" lon="6.94336">
        <ele>1731.2</ele>
        <time>2022-02-25T09:32:13Z</time>
      </trkpt>
      <trkpt lat="44.81909" lon="6.94337">
        <ele>1731.5</ele>
        <time>2022-02-25T09:32:16Z</time>
      </trkpt>
      <trkpt lat="44.81909" lon="6.94339">
        <ele>1732</ele>
        <time>2022-02-25T09:32:17Z</time>
      </trkpt>
      <trkpt lat="44.81909" lon="6.94341">
        <ele>1732.4</ele>
        <time>2022-02-25T09:32:20Z</time>
      </trkpt>
      <trkpt lat="44.81909" lon="6.94343">
        <ele>1732.9</ele>
        <time>2022-02-25T09:32:21Z</time>
      </trkpt>
      <trkpt lat="44.81909" lon="6.94344">
        <ele>1733.1</ele>
        <time>2022-02-25T09:32:22Z</time>
      </trkpt>
      <trkpt lat="44.81909" lon="6.94344">
        <ele>1733.1</ele>
        <time>2022-02-25T09:32:23Z</time>
      </trkpt>
      <trkpt lat="44.81907" lon="6.94346">
        <ele>1733.3</ele>
        <time>2022-02-25T09:32:24Z</time>
      </trkpt>
      <trkpt lat="44.81907" lon="6.94346">
        <ele>1733.3</ele>
        <time>2022-02-25T09:32:25Z</time>
      </trkpt>
      <trkpt lat="44.81905" lon="6.94347">
        <ele>1733.3</ele>
        <time>2022-02-25T09:32:26Z</time>
      </trkpt>
      <trkpt lat="44.81905" lon="6.94347">
        <ele>1733.3</ele>
        <time>2022-02-25T09:32:27Z</time>
      </trkpt>
      <trkpt lat="44.81903" lon="6.94349">
        <ele>1733.5</ele>
        <time>2022-02-25T09:32:28Z</time>
      </trkpt>
      <trkpt lat="44.81903" lon="6.94349">
        <ele>1733.5</ele>
        <time>2022-02-25T09:32:29Z</time>
      </trkpt>
      <trkpt lat="44.81901" lon="6.94351">
        <ele>1733.7</ele>
        <time>2022-02-25T09:32:30Z</time>
      </trkpt>
      <trkpt lat="44.81901" lon="6.94351">
        <ele>1733.7</ele>
        <time>2022-02-25T09:32:31Z</time>
      </trkpt>
      <trkpt lat="44.81899" lon="6.94353">
        <ele>1734</ele>
        <time>2022-02-25T09:32:32Z</time>
      </trkpt>
      <trkpt lat="44.81897" lon="6.94354">
        <ele>1734</ele>
        <time>2022-02-25T09:32:33Z</time>
      </trkpt>
      <trkpt lat="44.81897" lon="6.94354">
        <ele>1734</ele>
        <time>2022-02-25T09:32:34Z</time>
      </trkpt>
      <trkpt lat="44.81895" lon="6.94356">
        <ele>1734.3</ele>
        <time>2022-02-25T09:32:35Z</time>
      </trkpt>
      <trkpt lat="44.81895" lon="6.94356">
        <ele>1734.3</ele>
        <time>2022-02-25T09:32:36Z</time>
      </trkpt>
      <trkpt lat="44.81895" lon="6.94356">
        <ele>1734.3</ele>
        <time>2022-02-25T09:32:37Z</time>
      </trkpt>
      <trkpt lat="44.81893" lon="6.94358">
        <ele>1734.6</ele>
        <time>2022-02-25T09:32:38Z</time>
      </trkpt>
      <trkpt lat="44.81893" lon="6.94358">
        <ele>1734.6</ele>
        <time>2022-02-25T09:32:39Z</time>
      </trkpt>
      <trkpt lat="44.81893" lon="6.94358">
        <ele>1734.6</ele>
        <time>2022-02-25T09:32:40Z</time>
      </trkpt>
      <trkpt lat="44.81891" lon="6.9436">
        <ele>1734.9</ele>
        <time>2022-02-25T09:32:41Z</time>
      </trkpt>
      <trkpt lat="44.81891" lon="6.9436">
        <ele>1734.9</ele>
        <time>2022-02-25T09:32:42Z</time>
      </trkpt>
      <trkpt lat="44.81889" lon="6.94362">
        <ele>1735.1</ele>
        <time>2022-02-25T09:32:43Z</time>
      </trkpt>
      <trkpt lat="44.81889" lon="6.94362">
        <ele>1735.1</ele>
        <time>2022-02-25T09:32:44Z</time>
      </trkpt>
      <trkpt lat="44.81887" lon="6.94363">
        <ele>1734.9</ele>
        <time>2022-02-25T09:32:45Z</time>
      </trkpt>
      <trkpt lat="44.81887" lon="6.94363">
        <ele>1734.9</ele>
        <time>2022-02-25T09:32:46Z</time>
      </trkpt>
      <trkpt lat="44.81887" lon="6.94363">
        <ele>1734.9</ele>
        <time>2022-02-25T09:32:47Z</time>
      </trkpt>
      <trkpt lat="44.81885" lon="6.94365">
        <ele>1734.8</ele>
        <time>2022-02-25T09:32:48Z</time>
      </trkpt>
      <trkpt lat="44.81885" lon="6.94365">
        <ele>1734.8</ele>
        <time>2022-02-25T09:32:49Z</time>
      </trkpt>
      <trkpt lat="44.81884" lon="6.94367">
        <ele>1734.9</ele>
        <time>2022-02-25T09:32:50Z</time>
      </trkpt>
      <trkpt lat="44.81884" lon="6.94367">
        <ele>1734.9</ele>
        <time>2022-02-25T09:32:51Z</time>
      </trkpt>
      <trkpt lat="44.81882" lon="6.94369">
        <ele>1734.8</ele>
        <time>2022-02-25T09:32:52Z</time>
      </trkpt>
      <trkpt lat="44.81882" lon="6.94369">
        <ele>1734.8</ele>
        <time>2022-02-25T09:32:53Z</time>
      </trkpt>
      <trkpt lat="44.8188" lon="6.94371">
        <ele>1734.7</ele>
        <time>2022-02-25T09:32:54Z</time>
      </trkpt>
      <trkpt lat="44.8188" lon="6.94371">
        <ele>1734.7</ele>
        <time>2022-02-25T09:32:55Z</time>
      </trkpt>
      <trkpt lat="44.81879" lon="6.94373">
        <ele>1734.9</ele>
        <time>2022-02-25T09:32:56Z</time>
      </trkpt>
      <trkpt lat="44.81879" lon="6.94373">
        <ele>1734.9</ele>
        <time>2022-02-25T09:32:57Z</time>
      </trkpt>
      <trkpt lat="44.81877" lon="6.94375">
        <ele>1734.9</ele>
        <time>2022-02-25T09:32:58Z</time>
      </trkpt>
      <trkpt lat="44.81877" lon="6.94375">
        <ele>1734.9</ele>
        <time>2022-02-25T09:32:59Z</time>
      </trkpt>
      <trkpt lat="44.81876" lon="6.94377">
        <ele>1735</ele>
        <time>2022-02-25T09:33:00Z</time>
      </trkpt>
      <trkpt lat="44.81876" lon="6.94377">
        <ele>1735</ele>
        <time>2022-02-25T09:33:01Z</time>
      </trkpt>
      <trkpt lat="44.81876" lon="6.94377">
        <ele>1735</ele>
        <time>2022-02-25T09:33:02Z</time>
      </trkpt>
      <trkpt lat="44.81874" lon="6.94379">
        <ele>1735.1</ele>
        <time>2022-02-25T09:33:03Z</time>
      </trkpt>
      <trkpt lat="44.81874" lon="6.94379">
        <ele>1735.1</ele>
        <time>2022-02-25T09:33:04Z</time>
      </trkpt>
      <trkpt lat="44.81873" lon="6.94381">
        <ele>1735.3</ele>
        <time>2022-02-25T09:33:05Z</time>
      </trkpt>
      <trkpt lat="44.81873" lon="6.94381">
        <ele>1735.3</ele>
        <time>2022-02-25T09:33:06Z</time>
      </trkpt>
      <trkpt lat="44.81871" lon="6.94383">
        <ele>1735.3</ele>
        <time>2022-02-25T09:33:07Z</time>
      </trkpt>
      <trkpt lat="44.81871" lon="6.94383">
        <ele>1735.3</ele>
        <time>2022-02-25T09:33:08Z</time>
      </trkpt>
      <trkpt lat="44.81869" lon="6.94385">
        <ele>1735.4</ele>
        <time>2022-02-25T09:33:09Z</time>
      </trkpt>
      <trkpt lat="44.81869" lon="6.94385">
        <ele>1735.4</ele>
        <time>2022-02-25T09:33:10Z</time>
      </trkpt>
      <trkpt lat="44.81867" lon="6.94386">
        <ele>1735.3</ele>
        <time>2022-02-25T09:33:11Z</time>
      </trkpt>
      <trkpt lat="44.81867" lon="6.94386">
        <ele>1735.3</ele>
        <time>2022-02-25T09:33:12Z</time>
      </trkpt>
      <trkpt lat="44.81865" lon="6.94386">
        <ele>1735</ele>
        <time>2022-02-25T09:33:13Z</time>
      </trkpt>
      <trkpt lat="44.81865" lon="6.94386">
        <ele>1735</ele>
        <time>2022-02-25T09:33:14Z</time>
      </trkpt>
      <trkpt lat="44.81863" lon="6.94387">
        <ele>1734.9</ele>
        <time>2022-02-25T09:33:15Z</time>
      </trkpt>
      <trkpt lat="44.81863" lon="6.94387">
        <ele>1734.9</ele>
        <time>2022-02-25T09:33:16Z</time>
      </trkpt>
      <trkpt lat="44.81863" lon="6.94387">
        <ele>1734.9</ele>
        <time>2022-02-25T09:33:17Z</time>
      </trkpt>
      <trkpt lat="44.8186" lon="6.94389">
        <ele>1734.9</ele>
        <time>2022-02-25T09:33:18Z</time>
      </trkpt>
      <trkpt lat="44.8186" lon="6.94389">
        <ele>1734.9</ele>
        <time>2022-02-25T09:33:19Z</time>
      </trkpt>
      <trkpt lat="44.8186" lon="6.94389">
        <ele>1734.9</ele>
        <time>2022-02-25T09:33:20Z</time>
      </trkpt>
      <trkpt lat="44.81858" lon="6.94391">
        <ele>1735.1</ele>
        <time>2022-02-25T09:33:21Z</time>
      </trkpt>
      <trkpt lat="44.81858" lon="6.94391">
        <ele>1735.1</ele>
        <time>2022-02-25T09:33:22Z</time>
      </trkpt>
      <trkpt lat="44.81856" lon="6.94393">
        <ele>1735.3</ele>
        <time>2022-02-25T09:33:23Z</time>
      </trkpt>
      <trkpt lat="44.81856" lon="6.94393">
        <ele>1735.3</ele>
        <time>2022-02-25T09:33:24Z</time>
      </trkpt>
      <trkpt lat="44.81856" lon="6.94393">
        <ele>1735.3</ele>
        <time>2022-02-25T09:33:25Z</time>
      </trkpt>
      <trkpt lat="44.81854" lon="6.94394">
        <ele>1735.3</ele>
        <time>2022-02-25T09:33:26Z</time>
      </trkpt>
      <trkpt lat="44.81854" lon="6.94394">
        <ele>1735.3</ele>
        <time>2022-02-25T09:33:27Z</time>
      </trkpt>
      <trkpt lat="44.81854" lon="6.94394">
        <ele>1735.3</ele>
        <time>2022-02-25T09:33:28Z</time>
      </trkpt>
      <trkpt lat="44.81852" lon="6.94396">
        <ele>1735.5</ele>
        <time>2022-02-25T09:33:29Z</time>
      </trkpt>
      <trkpt lat="44.81852" lon="6.94396">
        <ele>1735.5</ele>
        <time>2022-02-25T09:33:30Z</time>
      </trkpt>
      <trkpt lat="44.8185" lon="6.94397">
        <ele>1735.4</ele>
        <time>2022-02-25T09:33:31Z</time>
      </trkpt>
      <trkpt lat="44.8185" lon="6.94397">
        <ele>1735.4</ele>
        <time>2022-02-25T09:33:32Z</time>
      </trkpt>
      <trkpt lat="44.8185" lon="6.94397">
        <ele>1735.4</ele>
        <time>2022-02-25T09:33:33Z</time>
      </trkpt>
      <trkpt lat="44.81847" lon="6.94399">
        <ele>1735.5</ele>
        <time>2022-02-25T09:33:34Z</time>
      </trkpt>
      <trkpt lat="44.81847" lon="6.94399">
        <ele>1735.5</ele>
        <time>2022-02-25T09:33:35Z</time>
      </trkpt>
      <trkpt lat="44.81847" lon="6.94399">
        <ele>1735.5</ele>
        <time>2022-02-25T09:33:36Z</time>
      </trkpt>
      <trkpt lat="44.81845" lon="6.944">
        <ele>1735.4</ele>
        <time>2022-02-25T09:33:37Z</time>
      </trkpt>
      <trkpt lat="44.81845" lon="6.944">
        <ele>1735.4</ele>
        <time>2022-02-25T09:33:38Z</time>
      </trkpt>
      <trkpt lat="44.81843" lon="6.94401">
        <ele>1735.4</ele>
        <time>2022-02-25T09:33:39Z</time>
      </trkpt>
      <trkpt lat="44.81843" lon="6.94401">
        <ele>1735.4</ele>
        <time>2022-02-25T09:33:40Z</time>
      </trkpt>
      <trkpt lat="44.81843" lon="6.94401">
        <ele>1735.4</ele>
        <time>2022-02-25T09:33:41Z</time>
      </trkpt>
      <trkpt lat="44.81841" lon="6.94403">
        <ele>1735.5</ele>
        <time>2022-02-25T09:33:42Z</time>
      </trkpt>
      <trkpt lat="44.81841" lon="6.94403">
        <ele>1735.5</ele>
        <time>2022-02-25T09:33:43Z</time>
      </trkpt>
      <trkpt lat="44.81839" lon="6.94404">
        <ele>1735.4</ele>
        <time>2022-02-25T09:33:44Z</time>
      </trkpt>
      <trkpt lat="44.81839" lon="6.94404">
        <ele>1735.4</ele>
        <time>2022-02-25T09:33:45Z</time>
      </trkpt>
      <trkpt lat="44.81839" lon="6.94404">
        <ele>1735.4</ele>
        <time>2022-02-25T09:33:46Z</time>
      </trkpt>
      <trkpt lat="44.81837" lon="6.94405">
        <ele>1735.4</ele>
        <time>2022-02-25T09:33:47Z</time>
      </trkpt>
      <trkpt lat="44.81837" lon="6.94405">
        <ele>1735.4</ele>
        <time>2022-02-25T09:33:48Z</time>
      </trkpt>
      <trkpt lat="44.81835" lon="6.94407">
        <ele>1735.5</ele>
        <time>2022-02-25T09:33:49Z</time>
      </trkpt>
      <trkpt lat="44.81835" lon="6.94407">
        <ele>1735.5</ele>
        <time>2022-02-25T09:33:50Z</time>
      </trkpt>
      <trkpt lat="44.81834" lon="6.94408">
        <ele>1735.5</ele>
        <time>2022-02-25T09:33:51Z</time>
      </trkpt>
      <trkpt lat="44.81834" lon="6.94408">
        <ele>1735.5</ele>
        <time>2022-02-25T09:33:52Z</time>
      </trkpt>
      <trkpt lat="44.81832" lon="6.9441">
        <ele>1735.4</ele>
        <time>2022-02-25T09:33:53Z</time>
      </trkpt>
      <trkpt lat="44.81832" lon="6.9441">
        <ele>1735.4</ele>
        <time>2022-02-25T09:33:54Z</time>
      </trkpt>
      <trkpt lat="44.81832" lon="6.9441">
        <ele>1735.4</ele>
        <time>2022-02-25T09:33:55Z</time>
      </trkpt>
      <trkpt lat="44.8183" lon="6.94412">
        <ele>1735.1</ele>
        <time>2022-02-25T09:33:56Z</time>
      </trkpt>
      <trkpt lat="44.8183" lon="6.94412">
        <ele>1735.1</ele>
        <time>2022-02-25T09:33:57Z</time>
      </trkpt>
      <trkpt lat="44.81828" lon="6.94413">
        <ele>1734.6</ele>
        <time>2022-02-25T09:33:58Z</time>
      </trkpt>
      <trkpt lat="44.81828" lon="6.94413">
        <ele>1734.6</ele>
        <time>2022-02-25T09:33:59Z</time>
      </trkpt>
      <trkpt lat="44.81827" lon="6.94415">
        <ele>1734.7</ele>
        <time>2022-02-25T09:34:00Z</time>
      </trkpt>
      <trkpt lat="44.81827" lon="6.94415">
        <ele>1734.7</ele>
        <time>2022-02-25T09:34:01Z</time>
      </trkpt>
      <trkpt lat="44.81825" lon="6.94417">
        <ele>1734.4</ele>
        <time>2022-02-25T09:34:02Z</time>
      </trkpt>
      <trkpt lat="44.81825" lon="6.94417">
        <ele>1734.4</ele>
        <time>2022-02-25T09:34:03Z</time>
      </trkpt>
      <trkpt lat="44.81825" lon="6.94417">
        <ele>1734.4</ele>
        <time>2022-02-25T09:34:04Z</time>
      </trkpt>
      <trkpt lat="44.81825" lon="6.94421">
        <ele>1735.2</ele>
        <time>2022-02-25T09:34:05Z</time>
      </trkpt>
      <trkpt lat="44.81825" lon="6.94421">
        <ele>1735.2</ele>
        <time>2022-02-25T09:34:06Z</time>
      </trkpt>
      <trkpt lat="44.81824" lon="6.94423">
        <ele>1735.3</ele>
        <time>2022-02-25T09:34:07Z</time>
      </trkpt>
      <trkpt lat="44.81824" lon="6.94423">
        <ele>1735.3</ele>
        <time>2022-02-25T09:34:08Z</time>
      </trkpt>
      <trkpt lat="44.81823" lon="6.94425">
        <ele>1735.4</ele>
        <time>2022-02-25T09:34:09Z</time>
      </trkpt>
      <trkpt lat="44.81823" lon="6.94425">
        <ele>1735.4</ele>
        <time>2022-02-25T09:34:10Z</time>
      </trkpt>
      <trkpt lat="44.81823" lon="6.94425">
        <ele>1735.4</ele>
        <time>2022-02-25T09:34:11Z</time>
      </trkpt>
      <trkpt lat="44.81823" lon="6.94429">
        <ele>1736.2</ele>
        <time>2022-02-25T09:34:12Z</time>
      </trkpt>
      <trkpt lat="44.81823" lon="6.94429">
        <ele>1736.2</ele>
        <time>2022-02-25T09:34:13Z</time>
      </trkpt>
      <trkpt lat="44.81823" lon="6.94432">
        <ele>1736.8</ele>
        <time>2022-02-25T09:34:14Z</time>
      </trkpt>
      <trkpt lat="44.81823" lon="6.94432">
        <ele>1736.8</ele>
        <time>2022-02-25T09:34:15Z</time>
      </trkpt>
      <trkpt lat="44.81823" lon="6.94435">
        <ele>1737.4</ele>
        <time>2022-02-25T09:34:16Z</time>
      </trkpt>
      <trkpt lat="44.81823" lon="6.94435">
        <ele>1737.4</ele>
        <time>2022-02-25T09:34:17Z</time>
      </trkpt>
      <trkpt lat="44.81823" lon="6.94435">
        <ele>1737.4</ele>
        <time>2022-02-25T09:34:18Z</time>
      </trkpt>
      <trkpt lat="44.81824" lon="6.94438">
        <ele>1738.3</ele>
        <time>2022-02-25T09:34:19Z</time>
      </trkpt>
      <trkpt lat="44.81824" lon="6.94438">
        <ele>1738.3</ele>
        <time>2022-02-25T09:34:20Z</time>
      </trkpt>
      <trkpt lat="44.81824" lon="6.94438">
        <ele>1738.3</ele>
        <time>2022-02-25T09:34:21Z</time>
      </trkpt>
      <trkpt lat="44.81824" lon="6.94441">
        <ele>1738.9</ele>
        <time>2022-02-25T09:34:22Z</time>
      </trkpt>
      <trkpt lat="44.81824" lon="6.94441">
        <ele>1738.9</ele>
        <time>2022-02-25T09:34:23Z</time>
      </trkpt>
      <trkpt lat="44.81825" lon="6.94444">
        <ele>1739.8</ele>
        <time>2022-02-25T09:34:24Z</time>
      </trkpt>
      <trkpt lat="44.81825" lon="6.94444">
        <ele>1739.8</ele>
        <time>2022-02-25T09:34:25Z</time>
      </trkpt>
      <trkpt lat="44.81824" lon="6.94447">
        <ele>1740.4</ele>
        <time>2022-02-25T09:34:26Z</time>
      </trkpt>
      <trkpt lat="44.81824" lon="6.94447">
        <ele>1740.4</ele>
        <time>2022-02-25T09:34:27Z</time>
      </trkpt>
      <trkpt lat="44.81823" lon="6.9445">
        <ele>1740.9</ele>
        <time>2022-02-25T09:34:28Z</time>
      </trkpt>
      <trkpt lat="44.81823" lon="6.9445">
        <ele>1740.9</ele>
        <time>2022-02-25T09:34:29Z</time>
      </trkpt>
      <trkpt lat="44.81822" lon="6.94453">
        <ele>1741.6</ele>
        <time>2022-02-25T09:34:30Z</time>
      </trkpt>
      <trkpt lat="44.81822" lon="6.94453">
        <ele>1741.6</ele>
        <time>2022-02-25T09:34:31Z</time>
      </trkpt>
      <trkpt lat="44.81821" lon="6.94456">
        <ele>1742.2</ele>
        <time>2022-02-25T09:34:32Z</time>
      </trkpt>
      <trkpt lat="44.81821" lon="6.94456">
        <ele>1742.2</ele>
        <time>2022-02-25T09:34:33Z</time>
      </trkpt>
      <trkpt lat="44.81819" lon="6.94458">
        <ele>1742.3</ele>
        <time>2022-02-25T09:34:34Z</time>
      </trkpt>
      <trkpt lat="44.81819" lon="6.94458">
        <ele>1742.3</ele>
        <time>2022-02-25T09:34:35Z</time>
      </trkpt>
      <trkpt lat="44.81817" lon="6.9446">
        <ele>1742.5</ele>
        <time>2022-02-25T09:34:36Z</time>
      </trkpt>
      <trkpt lat="44.81817" lon="6.9446">
        <ele>1742.5</ele>
        <time>2022-02-25T09:34:37Z</time>
      </trkpt>
      <trkpt lat="44.81817" lon="6.9446">
        <ele>1742.5</ele>
        <time>2022-02-25T09:34:38Z</time>
      </trkpt>
      <trkpt lat="44.81815" lon="6.94462">
        <ele>1742.6</ele>
        <time>2022-02-25T09:34:39Z</time>
      </trkpt>
      <trkpt lat="44.81815" lon="6.94462">
        <ele>1742.6</ele>
        <time>2022-02-25T09:34:40Z</time>
      </trkpt>
      <trkpt lat="44.81813" lon="6.94463">
        <ele>1742.5</ele>
        <time>2022-02-25T09:34:41Z</time>
      </trkpt>
      <trkpt lat="44.81813" lon="6.94463">
        <ele>1742.5</ele>
        <time>2022-02-25T09:34:42Z</time>
      </trkpt>
      <trkpt lat="44.81812" lon="6.94464">
        <ele>1742.6</ele>
        <time>2022-02-25T09:34:43Z</time>
      </trkpt>
      <trkpt lat="44.81812" lon="6.94464">
        <ele>1742.6</ele>
        <time>2022-02-25T09:34:44Z</time>
      </trkpt>
      <trkpt lat="44.8181" lon="6.94466">
        <ele>1742.9</ele>
        <time>2022-02-25T09:34:45Z</time>
      </trkpt>
      <trkpt lat="44.8181" lon="6.94466">
        <ele>1742.9</ele>
        <time>2022-02-25T09:34:46Z</time>
      </trkpt>
      <trkpt lat="44.81808" lon="6.94467">
        <ele>1742.8</ele>
        <time>2022-02-25T09:34:47Z</time>
      </trkpt>
      <trkpt lat="44.81808" lon="6.94467">
        <ele>1742.8</ele>
        <time>2022-02-25T09:34:48Z</time>
      </trkpt>
      <trkpt lat="44.81808" lon="6.94467">
        <ele>1742.8</ele>
        <time>2022-02-25T09:34:49Z</time>
      </trkpt>
      <trkpt lat="44.81806" lon="6.94468">
        <ele>1742.7</ele>
        <time>2022-02-25T09:34:50Z</time>
      </trkpt>
      <trkpt lat="44.81806" lon="6.94468">
        <ele>1742.7</ele>
        <time>2022-02-25T09:34:51Z</time>
      </trkpt>
      <trkpt lat="44.81804" lon="6.94469">
        <ele>1742.6</ele>
        <time>2022-02-25T09:34:52Z</time>
      </trkpt>
      <trkpt lat="44.81804" lon="6.94469">
        <ele>1742.6</ele>
        <time>2022-02-25T09:34:53Z</time>
      </trkpt>
      <trkpt lat="44.81804" lon="6.94469">
        <ele>1742.6</ele>
        <time>2022-02-25T09:34:54Z</time>
      </trkpt>
      <trkpt lat="44.81802" lon="6.94471">
        <ele>1742.8</ele>
        <time>2022-02-25T09:34:55Z</time>
      </trkpt>
      <trkpt lat="44.81802" lon="6.94471">
        <ele>1742.8</ele>
        <time>2022-02-25T09:34:56Z</time>
      </trkpt>
      <trkpt lat="44.818" lon="6.94472">
        <ele>1742.7</ele>
        <time>2022-02-25T09:34:57Z</time>
      </trkpt>
      <trkpt lat="44.818" lon="6.94472">
        <ele>1742.7</ele>
        <time>2022-02-25T09:34:58Z</time>
      </trkpt>
      <trkpt lat="44.81798" lon="6.94473">
        <ele>1742.6</ele>
        <time>2022-02-25T09:34:59Z</time>
      </trkpt>
      <trkpt lat="44.81798" lon="6.94473">
        <ele>1742.6</ele>
        <time>2022-02-25T09:35:00Z</time>
      </trkpt>
      <trkpt lat="44.81798" lon="6.94473">
        <ele>1742.6</ele>
        <time>2022-02-25T09:35:01Z</time>
      </trkpt>
      <trkpt lat="44.81796" lon="6.94474">
        <ele>1742.5</ele>
        <time>2022-02-25T09:35:02Z</time>
      </trkpt>
      <trkpt lat="44.81796" lon="6.94474">
        <ele>1742.5</ele>
        <time>2022-02-25T09:35:03Z</time>
      </trkpt>
      <trkpt lat="44.81794" lon="6.94476">
        <ele>1742.6</ele>
        <time>2022-02-25T09:35:04Z</time>
      </trkpt>
      <trkpt lat="44.81794" lon="6.94476">
        <ele>1742.6</ele>
        <time>2022-02-25T09:35:05Z</time>
      </trkpt>
      <trkpt lat="44.81794" lon="6.94476">
        <ele>1742.6</ele>
        <time>2022-02-25T09:35:06Z</time>
      </trkpt>
      <trkpt lat="44.81793" lon="6.94478">
        <ele>1743</ele>
        <time>2022-02-25T09:35:07Z</time>
      </trkpt>
      <trkpt lat="44.81793" lon="6.94478">
        <ele>1743</ele>
        <time>2022-02-25T09:35:08Z</time>
      </trkpt>
      <trkpt lat="44.81793" lon="6.94478">
        <ele>1743</ele>
        <time>2022-02-25T09:35:09Z</time>
      </trkpt>
      <trkpt lat="44.81791" lon="6.94479">
        <ele>1742.8</ele>
        <time>2022-02-25T09:35:10Z</time>
      </trkpt>
      <trkpt lat="44.81791" lon="6.94479">
        <ele>1742.8</ele>
        <time>2022-02-25T09:35:11Z</time>
      </trkpt>
      <trkpt lat="44.81789" lon="6.94481">
        <ele>1742.9</ele>
        <time>2022-02-25T09:35:12Z</time>
      </trkpt>
      <trkpt lat="44.81789" lon="6.94481">
        <ele>1742.9</ele>
        <time>2022-02-25T09:35:13Z</time>
      </trkpt>
      <trkpt lat="44.81788" lon="6.94482">
        <ele>1742.9</ele>
        <time>2022-02-25T09:35:14Z</time>
      </trkpt>
      <trkpt lat="44.81788" lon="6.94482">
        <ele>1742.9</ele>
        <time>2022-02-25T09:35:15Z</time>
      </trkpt>
      <trkpt lat="44.81786" lon="6.94484">
        <ele>1743</ele>
        <time>2022-02-25T09:35:16Z</time>
      </trkpt>
      <trkpt lat="44.81786" lon="6.94484">
        <ele>1743</ele>
        <time>2022-02-25T09:35:17Z</time>
      </trkpt>
      <trkpt lat="44.81784" lon="6.94485">
        <ele>1742.8</ele>
        <time>2022-02-25T09:35:18Z</time>
      </trkpt>
      <trkpt lat="44.81784" lon="6.94485">
        <ele>1742.8</ele>
        <time>2022-02-25T09:35:19Z</time>
      </trkpt>
      <trkpt lat="44.81782" lon="6.94487">
        <ele>1742.8</ele>
        <time>2022-02-25T09:35:20Z</time>
      </trkpt>
      <trkpt lat="44.81782" lon="6.94487">
        <ele>1742.8</ele>
        <time>2022-02-25T09:35:21Z</time>
      </trkpt>
      <trkpt lat="44.81782" lon="6.94487">
        <ele>1742.8</ele>
        <time>2022-02-25T09:35:22Z</time>
      </trkpt>
      <trkpt lat="44.8178" lon="6.94489">
        <ele>1742.8</ele>
        <time>2022-02-25T09:35:23Z</time>
      </trkpt>
      <trkpt lat="44.8178" lon="6.94489">
        <ele>1742.8</ele>
        <time>2022-02-25T09:35:24Z</time>
      </trkpt>
      <trkpt lat="44.81778" lon="6.9449">
        <ele>1742.5</ele>
        <time>2022-02-25T09:35:25Z</time>
      </trkpt>
      <trkpt lat="44.81778" lon="6.9449">
        <ele>1742.5</ele>
        <time>2022-02-25T09:35:26Z</time>
      </trkpt>
      <trkpt lat="44.81778" lon="6.9449">
        <ele>1742.5</ele>
        <time>2022-02-25T09:35:27Z</time>
      </trkpt>
      <trkpt lat="44.81776" lon="6.94493">
        <ele>1742.6</ele>
        <time>2022-02-25T09:35:28Z</time>
      </trkpt>
      <trkpt lat="44.81776" lon="6.94493">
        <ele>1742.6</ele>
        <time>2022-02-25T09:35:29Z</time>
      </trkpt>
      <trkpt lat="44.81775" lon="6.94495">
        <ele>1742.8</ele>
        <time>2022-02-25T09:35:30Z</time>
      </trkpt>
      <trkpt lat="44.81775" lon="6.94495">
        <ele>1742.8</ele>
        <time>2022-02-25T09:35:31Z</time>
      </trkpt>
      <trkpt lat="44.81773" lon="6.94497">
        <ele>1742.6</ele>
        <time>2022-02-25T09:35:32Z</time>
      </trkpt>
      <trkpt lat="44.81773" lon="6.94497">
        <ele>1742.6</ele>
        <time>2022-02-25T09:35:33Z</time>
      </trkpt>
      <trkpt lat="44.81772" lon="6.94499">
        <ele>1742.7</ele>
        <time>2022-02-25T09:35:34Z</time>
      </trkpt>
      <trkpt lat="44.81772" lon="6.94499">
        <ele>1742.7</ele>
        <time>2022-02-25T09:35:35Z</time>
      </trkpt>
      <trkpt lat="44.81771" lon="6.94502">
        <ele>1742.9</ele>
        <time>2022-02-25T09:35:36Z</time>
      </trkpt>
      <trkpt lat="44.81771" lon="6.94502">
        <ele>1742.9</ele>
        <time>2022-02-25T09:35:37Z</time>
      </trkpt>
      <trkpt lat="44.8177" lon="6.94504">
        <ele>1742.9</ele>
        <time>2022-02-25T09:35:38Z</time>
      </trkpt>
      <trkpt lat="44.8177" lon="6.94504">
        <ele>1742.9</ele>
        <time>2022-02-25T09:35:39Z</time>
      </trkpt>
      <trkpt lat="44.81769" lon="6.94507">
        <ele>1743</ele>
        <time>2022-02-25T09:35:40Z</time>
      </trkpt>
      <trkpt lat="44.81769" lon="6.94507">
        <ele>1743</ele>
        <time>2022-02-25T09:35:41Z</time>
      </trkpt>
      <trkpt lat="44.81768" lon="6.9451">
        <ele>1743.2</ele>
        <time>2022-02-25T09:35:42Z</time>
      </trkpt>
      <trkpt lat="44.81768" lon="6.9451">
        <ele>1743.2</ele>
        <time>2022-02-25T09:35:43Z</time>
      </trkpt>
      <trkpt lat="44.81767" lon="6.94512">
        <ele>1743.1</ele>
        <time>2022-02-25T09:35:44Z</time>
      </trkpt>
      <trkpt lat="44.81767" lon="6.94512">
        <ele>1743.1</ele>
        <time>2022-02-25T09:35:45Z</time>
      </trkpt>
      <trkpt lat="44.81766" lon="6.94515">
        <ele>1743.2</ele>
        <time>2022-02-25T09:35:46Z</time>
      </trkpt>
      <trkpt lat="44.81766" lon="6.94515">
        <ele>1743.2</ele>
        <time>2022-02-25T09:35:47Z</time>
      </trkpt>
      <trkpt lat="44.81766" lon="6.94518">
        <ele>1743.7</ele>
        <time>2022-02-25T09:35:48Z</time>
      </trkpt>
      <trkpt lat="44.81766" lon="6.94518">
        <ele>1743.7</ele>
        <time>2022-02-25T09:35:49Z</time>
      </trkpt>
      <trkpt lat="44.81765" lon="6.94521">
        <ele>1743.8</ele>
        <time>2022-02-25T09:35:50Z</time>
      </trkpt>
      <trkpt lat="44.81765" lon="6.94521">
        <ele>1743.8</ele>
        <time>2022-02-25T09:35:51Z</time>
      </trkpt>
      <trkpt lat="44.81764" lon="6.94523">
        <ele>1743.8</ele>
        <time>2022-02-25T09:35:52Z</time>
      </trkpt>
      <trkpt lat="44.81764" lon="6.94523">
        <ele>1743.8</ele>
        <time>2022-02-25T09:35:53Z</time>
      </trkpt>
      <trkpt lat="44.81764" lon="6.94523">
        <ele>1743.8</ele>
        <time>2022-02-25T09:35:54Z</time>
      </trkpt>
      <trkpt lat="44.81762" lon="6.94527">
        <ele>1743.6</ele>
        <time>2022-02-25T09:35:55Z</time>
      </trkpt>
      <trkpt lat="44.81762" lon="6.94527">
        <ele>1743.6</ele>
        <time>2022-02-25T09:35:56Z</time>
      </trkpt>
      <trkpt lat="44.81762" lon="6.94527">
        <ele>1743.6</ele>
        <time>2022-02-25T09:35:57Z</time>
      </trkpt>
      <trkpt lat="44.81762" lon="6.9453">
        <ele>1744.2</ele>
        <time>2022-02-25T09:35:58Z</time>
      </trkpt>
      <trkpt lat="44.81762" lon="6.9453">
        <ele>1744.2</ele>
        <time>2022-02-25T09:35:59Z</time>
      </trkpt>
      <trkpt lat="44.8176" lon="6.94532">
        <ele>1743.8</ele>
        <time>2022-02-25T09:36:00Z</time>
      </trkpt>
      <trkpt lat="44.8176" lon="6.94532">
        <ele>1743.8</ele>
        <time>2022-02-25T09:36:01Z</time>
      </trkpt>
      <trkpt lat="44.81759" lon="6.94535">
        <ele>1743.9</ele>
        <time>2022-02-25T09:36:02Z</time>
      </trkpt>
      <trkpt lat="44.81759" lon="6.94535">
        <ele>1743.9</ele>
        <time>2022-02-25T09:36:03Z</time>
      </trkpt>
      <trkpt lat="44.81758" lon="6.94537">
        <ele>1743.9</ele>
        <time>2022-02-25T09:36:04Z</time>
      </trkpt>
      <trkpt lat="44.81758" lon="6.94537">
        <ele>1743.9</ele>
        <time>2022-02-25T09:36:05Z</time>
      </trkpt>
      <trkpt lat="44.81757" lon="6.94539">
        <ele>1743.9</ele>
        <time>2022-02-25T09:36:06Z</time>
      </trkpt>
      <trkpt lat="44.81757" lon="6.94539">
        <ele>1743.9</ele>
        <time>2022-02-25T09:36:07Z</time>
      </trkpt>
      <trkpt lat="44.81755" lon="6.94542">
        <ele>1743.6</ele>
        <time>2022-02-25T09:36:08Z</time>
      </trkpt>
      <trkpt lat="44.81755" lon="6.94542">
        <ele>1743.6</ele>
        <time>2022-02-25T09:36:09Z</time>
      </trkpt>
      <trkpt lat="44.81755" lon="6.94542">
        <ele>1743.6</ele>
        <time>2022-02-25T09:36:10Z</time>
      </trkpt>
      <trkpt lat="44.81755" lon="6.94542">
        <ele>1743.6</ele>
        <time>2022-02-25T09:36:11Z</time>
      </trkpt>
      <trkpt lat="44.81755" lon="6.94542">
        <ele>1743.6</ele>
        <time>2022-02-25T09:36:12Z</time>
      </trkpt>
      <trkpt lat="44.81755" lon="6.94542">
        <ele>1743.6</ele>
        <time>2022-02-25T09:36:13Z</time>
      </trkpt>
      <trkpt lat="44.81755" lon="6.94542">
        <ele>1743.6</ele>
        <time>2022-02-25T09:36:14Z</time>
      </trkpt>
      <trkpt lat="44.81755" lon="6.94542">
        <ele>1743.6</ele>
        <time>2022-02-25T09:36:15Z</time>
      </trkpt>
      <trkpt lat="44.81755" lon="6.94542">
        <ele>1743.6</ele>
        <time>2022-02-25T09:36:16Z</time>
      </trkpt>
      <trkpt lat="44.81755" lon="6.94542">
        <ele>1743.6</ele>
        <time>2022-02-25T09:36:17Z</time>
      </trkpt>
      <trkpt lat="44.81755" lon="6.94542">
        <ele>1743.6</ele>
        <time>2022-02-25T09:36:18Z</time>
      </trkpt>
      <trkpt lat="44.81755" lon="6.94542">
        <ele>1743.6</ele>
        <time>2022-02-25T09:36:19Z</time>
      </trkpt>
      <trkpt lat="44.81755" lon="6.94542">
        <ele>1743.6</ele>
        <time>2022-02-25T09:36:20Z</time>
      </trkpt>
      <trkpt lat="44.81754" lon="6.94544">
        <ele>1743.6</ele>
        <time>2022-02-25T09:36:21Z</time>
      </trkpt>
      <trkpt lat="44.81754" lon="6.94544">
        <ele>1743.6</ele>
        <time>2022-02-25T09:36:22Z</time>
      </trkpt>
      <trkpt lat="44.81754" lon="6.94544">
        <ele>1743.6</ele>
        <time>2022-02-25T09:36:23Z</time>
      </trkpt>
      <trkpt lat="44.81754" lon="6.94544">
        <ele>1743.6</ele>
        <time>2022-02-25T09:36:24Z</time>
      </trkpt>
      <trkpt lat="44.81752" lon="6.94546">
        <ele>1743.1</ele>
        <time>2022-02-25T09:36:25Z</time>
      </trkpt>
      <trkpt lat="44.81752" lon="6.94546">
        <ele>1743.1</ele>
        <time>2022-02-25T09:36:26Z</time>
      </trkpt>
      <trkpt lat="44.8175" lon="6.94547">
        <ele>1742.5</ele>
        <time>2022-02-25T09:36:27Z</time>
      </trkpt>
      <trkpt lat="44.8175" lon="6.94547">
        <ele>1742.5</ele>
        <time>2022-02-25T09:36:28Z</time>
      </trkpt>
      <trkpt lat="44.8175" lon="6.94547">
        <ele>1742.5</ele>
        <time>2022-02-25T09:36:29Z</time>
      </trkpt>
      <trkpt lat="44.81749" lon="6.9455">
        <ele>1742.9</ele>
        <time>2022-02-25T09:36:30Z</time>
      </trkpt>
      <trkpt lat="44.81749" lon="6.9455">
        <ele>1742.9</ele>
        <time>2022-02-25T09:36:31Z</time>
      </trkpt>
      <trkpt lat="44.81748" lon="6.94552">
        <ele>1743.1</ele>
        <time>2022-02-25T09:36:32Z</time>
      </trkpt>
      <trkpt lat="44.81748" lon="6.94552">
        <ele>1743.1</ele>
        <time>2022-02-25T09:36:33Z</time>
      </trkpt>
      <trkpt lat="44.81746" lon="6.94554">
        <ele>1743.1</ele>
        <time>2022-02-25T09:36:34Z</time>
      </trkpt>
      <trkpt lat="44.81746" lon="6.94554">
        <ele>1743.1</ele>
        <time>2022-02-25T09:36:35Z</time>
      </trkpt>
      <trkpt lat="44.81744" lon="6.94555">
        <ele>1743</ele>
        <time>2022-02-25T09:36:36Z</time>
      </trkpt>
      <trkpt lat="44.81744" lon="6.94555">
        <ele>1743</ele>
        <time>2022-02-25T09:36:37Z</time>
      </trkpt>
      <trkpt lat="44.81742" lon="6.94557">
        <ele>1743.2</ele>
        <time>2022-02-25T09:36:38Z</time>
      </trkpt>
      <trkpt lat="44.81742" lon="6.94557">
        <ele>1743.2</ele>
        <time>2022-02-25T09:36:39Z</time>
      </trkpt>
      <trkpt lat="44.81741" lon="6.94559">
        <ele>1743.5</ele>
        <time>2022-02-25T09:36:40Z</time>
      </trkpt>
      <trkpt lat="44.81741" lon="6.94559">
        <ele>1743.5</ele>
        <time>2022-02-25T09:36:41Z</time>
      </trkpt>
      <trkpt lat="44.81741" lon="6.94559">
        <ele>1743.5</ele>
        <time>2022-02-25T09:36:42Z</time>
      </trkpt>
      <trkpt lat="44.81739" lon="6.9456">
        <ele>1743.4</ele>
        <time>2022-02-25T09:36:43Z</time>
      </trkpt>
      <trkpt lat="44.81739" lon="6.9456">
        <ele>1743.4</ele>
        <time>2022-02-25T09:36:44Z</time>
      </trkpt>
      <trkpt lat="44.81737" lon="6.9456">
        <ele>1743.1</ele>
        <time>2022-02-25T09:36:45Z</time>
      </trkpt>
      <trkpt lat="44.81737" lon="6.9456">
        <ele>1743.1</ele>
        <time>2022-02-25T09:36:46Z</time>
      </trkpt>
      <trkpt lat="44.81735" lon="6.94561">
        <ele>1743</ele>
        <time>2022-02-25T09:36:47Z</time>
      </trkpt>
      <trkpt lat="44.81735" lon="6.94561">
        <ele>1743</ele>
        <time>2022-02-25T09:36:48Z</time>
      </trkpt>
      <trkpt lat="44.81733" lon="6.94561">
        <ele>1742.7</ele>
        <time>2022-02-25T09:36:49Z</time>
      </trkpt>
      <trkpt lat="44.81733" lon="6.94561">
        <ele>1742.7</ele>
        <time>2022-02-25T09:36:50Z</time>
      </trkpt>
      <trkpt lat="44.81733" lon="6.94561">
        <ele>1742.7</ele>
        <time>2022-02-25T09:36:51Z</time>
      </trkpt>
      <trkpt lat="44.81731" lon="6.94562">
        <ele>1742.6</ele>
        <time>2022-02-25T09:36:52Z</time>
      </trkpt>
      <trkpt lat="44.81731" lon="6.94562">
        <ele>1742.6</ele>
        <time>2022-02-25T09:36:53Z</time>
      </trkpt>
      <trkpt lat="44.81729" lon="6.94562">
        <ele>1742.2</ele>
        <time>2022-02-25T09:36:54Z</time>
      </trkpt>
      <trkpt lat="44.81729" lon="6.94562">
        <ele>1742.2</ele>
        <time>2022-02-25T09:36:55Z</time>
      </trkpt>
      <trkpt lat="44.81727" lon="6.94563">
        <ele>1742.1</ele>
        <time>2022-02-25T09:36:56Z</time>
      </trkpt>
      <trkpt lat="44.81727" lon="6.94563">
        <ele>1742.1</ele>
        <time>2022-02-25T09:36:57Z</time>
      </trkpt>
      <trkpt lat="44.81725" lon="6.94562">
        <ele>1741.6</ele>
        <time>2022-02-25T09:36:58Z</time>
      </trkpt>
      <trkpt lat="44.81725" lon="6.94562">
        <ele>1741.6</ele>
        <time>2022-02-25T09:36:59Z</time>
      </trkpt>
      <trkpt lat="44.81725" lon="6.94562">
        <ele>1741.6</ele>
        <time>2022-02-25T09:37:00Z</time>
      </trkpt>
      <trkpt lat="44.81722" lon="6.94561">
        <ele>1740.9</ele>
        <time>2022-02-25T09:37:01Z</time>
      </trkpt>
      <trkpt lat="44.81722" lon="6.94561">
        <ele>1740.9</ele>
        <time>2022-02-25T09:37:02Z</time>
      </trkpt>
      <trkpt lat="44.81722" lon="6.94561">
        <ele>1740.9</ele>
        <time>2022-02-25T09:37:03Z</time>
      </trkpt>
      <trkpt lat="44.81719" lon="6.9456">
        <ele>1740.1</ele>
        <time>2022-02-25T09:37:04Z</time>
      </trkpt>
      <trkpt lat="44.81719" lon="6.9456">
        <ele>1740.1</ele>
        <time>2022-02-25T09:37:05Z</time>
      </trkpt>
      <trkpt lat="44.81717" lon="6.9456">
        <ele>1739.6</ele>
        <time>2022-02-25T09:37:06Z</time>
      </trkpt>
      <trkpt lat="44.81717" lon="6.9456">
        <ele>1739.6</ele>
        <time>2022-02-25T09:37:07Z</time>
      </trkpt>
      <trkpt lat="44.81715" lon="6.94559">
        <ele>1739</ele>
        <time>2022-02-25T09:37:08Z</time>
      </trkpt>
      <trkpt lat="44.81715" lon="6.94559">
        <ele>1739</ele>
        <time>2022-02-25T09:37:09Z</time>
      </trkpt>
      <trkpt lat="44.81713" lon="6.94559">
        <ele>1738.5</ele>
        <time>2022-02-25T09:37:10Z</time>
      </trkpt>
      <trkpt lat="44.81713" lon="6.94559">
        <ele>1738.5</ele>
        <time>2022-02-25T09:37:11Z</time>
      </trkpt>
      <trkpt lat="44.81711" lon="6.94559">
        <ele>1738</ele>
        <time>2022-02-25T09:37:12Z</time>
      </trkpt>
      <trkpt lat="44.81711" lon="6.94559">
        <ele>1738</ele>
        <time>2022-02-25T09:37:13Z</time>
      </trkpt>
      <trkpt lat="44.81709" lon="6.94559">
        <ele>1737.6</ele>
        <time>2022-02-25T09:37:14Z</time>
      </trkpt>
      <trkpt lat="44.81709" lon="6.94559">
        <ele>1737.6</ele>
        <time>2022-02-25T09:37:15Z</time>
      </trkpt>
      <trkpt lat="44.81707" lon="6.94559">
        <ele>1737.1</ele>
        <time>2022-02-25T09:37:16Z</time>
      </trkpt>
      <trkpt lat="44.81707" lon="6.94559">
        <ele>1737.1</ele>
        <time>2022-02-25T09:37:17Z</time>
      </trkpt>
      <trkpt lat="44.81707" lon="6.94559">
        <ele>1737.1</ele>
        <time>2022-02-25T09:37:18Z</time>
      </trkpt>
      <trkpt lat="44.81704" lon="6.9456">
        <ele>1736.7</ele>
        <time>2022-02-25T09:37:19Z</time>
      </trkpt>
      <trkpt lat="44.81704" lon="6.9456">
        <ele>1736.7</ele>
        <time>2022-02-25T09:37:20Z</time>
      </trkpt>
      <trkpt lat="44.81704" lon="6.9456">
        <ele>1736.7</ele>
        <time>2022-02-25T09:37:21Z</time>
      </trkpt>
      <trkpt lat="44.81702" lon="6.94562">
        <ele>1736.9</ele>
        <time>2022-02-25T09:37:22Z</time>
      </trkpt>
      <trkpt lat="44.81702" lon="6.94562">
        <ele>1736.9</ele>
        <time>2022-02-25T09:37:23Z</time>
      </trkpt>
      <trkpt lat="44.81702" lon="6.94562">
        <ele>1736.9</ele>
        <time>2022-02-25T09:37:24Z</time>
      </trkpt>
      <trkpt lat="44.817" lon="6.94564">
        <ele>1737.1</ele>
        <time>2022-02-25T09:37:25Z</time>
      </trkpt>
      <trkpt lat="44.817" lon="6.94564">
        <ele>1737.1</ele>
        <time>2022-02-25T09:37:26Z</time>
      </trkpt>
      <trkpt lat="44.81699" lon="6.94566">
        <ele>1737.6</ele>
        <time>2022-02-25T09:37:27Z</time>
      </trkpt>
      <trkpt lat="44.81699" lon="6.94566">
        <ele>1737.6</ele>
        <time>2022-02-25T09:37:28Z</time>
      </trkpt>
      <trkpt lat="44.81698" lon="6.94568">
        <ele>1738.1</ele>
        <time>2022-02-25T09:37:29Z</time>
      </trkpt>
      <trkpt lat="44.81698" lon="6.94568">
        <ele>1738.1</ele>
        <time>2022-02-25T09:37:30Z</time>
      </trkpt>
      <trkpt lat="44.81698" lon="6.94568">
        <ele>1738.1</ele>
        <time>2022-02-25T09:37:31Z</time>
      </trkpt>
      <trkpt lat="44.81696" lon="6.9457">
        <ele>1738.4</ele>
        <time>2022-02-25T09:37:32Z</time>
      </trkpt>
      <trkpt lat="44.81696" lon="6.9457">
        <ele>1738.4</ele>
        <time>2022-02-25T09:37:33Z</time>
      </trkpt>
      <trkpt lat="44.81695" lon="6.94572">
        <ele>1739</ele>
        <time>2022-02-25T09:37:34Z</time>
      </trkpt>
      <trkpt lat="44.81695" lon="6.94572">
        <ele>1739</ele>
        <time>2022-02-25T09:37:35Z</time>
      </trkpt>
      <trkpt lat="44.81693" lon="6.94574">
        <ele>1738.8</ele>
        <time>2022-02-25T09:37:36Z</time>
      </trkpt>
      <trkpt lat="44.81693" lon="6.94574">
        <ele>1738.8</ele>
        <time>2022-02-25T09:37:37Z</time>
      </trkpt>
      <trkpt lat="44.81691" lon="6.94575">
        <ele>1738.1</ele>
        <time>2022-02-25T09:37:38Z</time>
      </trkpt>
      <trkpt lat="44.81691" lon="6.94575">
        <ele>1738.1</ele>
        <time>2022-02-25T09:37:39Z</time>
      </trkpt>
      <trkpt lat="44.81689" lon="6.94576">
        <ele>1737.4</ele>
        <time>2022-02-25T09:37:40Z</time>
      </trkpt>
      <trkpt lat="44.81689" lon="6.94576">
        <ele>1737.4</ele>
        <time>2022-02-25T09:37:41Z</time>
      </trkpt>
      <trkpt lat="44.81687" lon="6.94577">
        <ele>1736.7</ele>
        <time>2022-02-25T09:37:42Z</time>
      </trkpt>
      <trkpt lat="44.81687" lon="6.94577">
        <ele>1736.7</ele>
        <time>2022-02-25T09:37:43Z</time>
      </trkpt>
      <trkpt lat="44.81687" lon="6.94577">
        <ele>1736.7</ele>
        <time>2022-02-25T09:37:44Z</time>
      </trkpt>
      <trkpt lat="44.81685" lon="6.94578">
        <ele>1736.1</ele>
        <time>2022-02-25T09:37:45Z</time>
      </trkpt>
      <trkpt lat="44.81685" lon="6.94578">
        <ele>1736.1</ele>
        <time>2022-02-25T09:37:46Z</time>
      </trkpt>
      <trkpt lat="44.81685" lon="6.94578">
        <ele>1736.1</ele>
        <time>2022-02-25T09:37:47Z</time>
      </trkpt>
      <trkpt lat="44.81683" lon="6.94579">
        <ele>1735.4</ele>
        <time>2022-02-25T09:37:48Z</time>
      </trkpt>
      <trkpt lat="44.81683" lon="6.94579">
        <ele>1735.4</ele>
        <time>2022-02-25T09:37:49Z</time>
      </trkpt>
      <trkpt lat="44.81681" lon="6.9458">
        <ele>1734.8</ele>
        <time>2022-02-25T09:37:50Z</time>
      </trkpt>
      <trkpt lat="44.81681" lon="6.9458">
        <ele>1734.8</ele>
        <time>2022-02-25T09:37:51Z</time>
      </trkpt>
      <trkpt lat="44.81681" lon="6.9458">
        <ele>1734.8</ele>
        <time>2022-02-25T09:37:52Z</time>
      </trkpt>
      <trkpt lat="44.81679" lon="6.94583">
        <ele>1735.1</ele>
        <time>2022-02-25T09:37:53Z</time>
      </trkpt>
      <trkpt lat="44.81679" lon="6.94583">
        <ele>1735.1</ele>
        <time>2022-02-25T09:37:54Z</time>
      </trkpt>
      <trkpt lat="44.81677" lon="6.94585">
        <ele>1734.8</ele>
        <time>2022-02-25T09:37:55Z</time>
      </trkpt>
      <trkpt lat="44.81677" lon="6.94585">
        <ele>1734.8</ele>
        <time>2022-02-25T09:37:56Z</time>
      </trkpt>
      <trkpt lat="44.81675" lon="6.94586">
        <ele>1734.2</ele>
        <time>2022-02-25T09:37:57Z</time>
      </trkpt>
      <trkpt lat="44.81675" lon="6.94586">
        <ele>1734.2</ele>
        <time>2022-02-25T09:37:58Z</time>
      </trkpt>
      <trkpt lat="44.81673" lon="6.94587">
        <ele>1733.7</ele>
        <time>2022-02-25T09:37:59Z</time>
      </trkpt>
      <trkpt lat="44.81673" lon="6.94587">
        <ele>1733.7</ele>
        <time>2022-02-25T09:38:00Z</time>
      </trkpt>
      <trkpt lat="44.81671" lon="6.94589">
        <ele>1733.5</ele>
        <time>2022-02-25T09:38:01Z</time>
      </trkpt>
      <trkpt lat="44.81671" lon="6.94589">
        <ele>1733.5</ele>
        <time>2022-02-25T09:38:02Z</time>
      </trkpt>
      <trkpt lat="44.81671" lon="6.94589">
        <ele>1733.5</ele>
        <time>2022-02-25T09:38:03Z</time>
      </trkpt>
      <trkpt lat="44.81671" lon="6.94589">
        <ele>1733.5</ele>
        <time>2022-02-25T09:38:04Z</time>
      </trkpt>
      <trkpt lat="44.81672" lon="6.94592">
        <ele>1735.2</ele>
        <time>2022-02-25T09:38:05Z</time>
      </trkpt>
      <trkpt lat="44.81672" lon="6.94592">
        <ele>1735.2</ele>
        <time>2022-02-25T09:38:06Z</time>
      </trkpt>
      <trkpt lat="44.81672" lon="6.94592">
        <ele>1735.2</ele>
        <time>2022-02-25T09:38:07Z</time>
      </trkpt>
      <trkpt lat="44.81672" lon="6.94592">
        <ele>1735.2</ele>
        <time>2022-02-25T09:38:08Z</time>
      </trkpt>
      <trkpt lat="44.8167" lon="6.94594">
        <ele>1735.1</ele>
        <time>2022-02-25T09:38:09Z</time>
      </trkpt>
      <trkpt lat="44.8167" lon="6.94594">
        <ele>1735.1</ele>
        <time>2022-02-25T09:38:10Z</time>
      </trkpt>
      <trkpt lat="44.8167" lon="6.94594">
        <ele>1735.1</ele>
        <time>2022-02-25T09:38:11Z</time>
      </trkpt>
      <trkpt lat="44.81669" lon="6.94595">
        <ele>1735.1</ele>
        <time>2022-02-25T09:38:12Z</time>
      </trkpt>
      <trkpt lat="44.81669" lon="6.94595">
        <ele>1735.1</ele>
        <time>2022-02-25T09:38:13Z</time>
      </trkpt>
      <trkpt lat="44.81669" lon="6.94595">
        <ele>1735.1</ele>
        <time>2022-02-25T09:38:14Z</time>
      </trkpt>
      <trkpt lat="44.81667" lon="6.94597">
        <ele>1735</ele>
        <time>2022-02-25T09:38:15Z</time>
      </trkpt>
      <trkpt lat="44.81667" lon="6.94597">
        <ele>1735</ele>
        <time>2022-02-25T09:38:16Z</time>
      </trkpt>
      <trkpt lat="44.81667" lon="6.94597">
        <ele>1735</ele>
        <time>2022-02-25T09:38:17Z</time>
      </trkpt>
      <trkpt lat="44.81667" lon="6.94597">
        <ele>1735</ele>
        <time>2022-02-25T09:38:18Z</time>
      </trkpt>
      <trkpt lat="44.81665" lon="6.94598">
        <ele>1734.1</ele>
        <time>2022-02-25T09:38:19Z</time>
      </trkpt>
      <trkpt lat="44.81665" lon="6.94598">
        <ele>1734.1</ele>
        <time>2022-02-25T09:38:20Z</time>
      </trkpt>
      <trkpt lat="44.81663" lon="6.946">
        <ele>1733.6</ele>
        <time>2022-02-25T09:38:21Z</time>
      </trkpt>
      <trkpt lat="44.81663" lon="6.946">
        <ele>1733.6</ele>
        <time>2022-02-25T09:38:22Z</time>
      </trkpt>
      <trkpt lat="44.81661" lon="6.94601">
        <ele>1732.6</ele>
        <time>2022-02-25T09:38:23Z</time>
      </trkpt>
      <trkpt lat="44.81661" lon="6.94601">
        <ele>1732.6</ele>
        <time>2022-02-25T09:38:24Z</time>
      </trkpt>
      <trkpt lat="44.81659" lon="6.94603">
        <ele>1732.1</ele>
        <time>2022-02-25T09:38:25Z</time>
      </trkpt>
      <trkpt lat="44.81659" lon="6.94603">
        <ele>1732.1</ele>
        <time>2022-02-25T09:38:26Z</time>
      </trkpt>
      <trkpt lat="44.81658" lon="6.94606">
        <ele>1732.7</ele>
        <time>2022-02-25T09:38:27Z</time>
      </trkpt>
      <trkpt lat="44.81658" lon="6.94606">
        <ele>1732.7</ele>
        <time>2022-02-25T09:38:28Z</time>
      </trkpt>
      <trkpt lat="44.81656" lon="6.94607">
        <ele>1731.8</ele>
        <time>2022-02-25T09:38:29Z</time>
      </trkpt>
      <trkpt lat="44.81656" lon="6.94607">
        <ele>1731.8</ele>
        <time>2022-02-25T09:38:30Z</time>
      </trkpt>
      <trkpt lat="44.81654" lon="6.94609">
        <ele>1731.4</ele>
        <time>2022-02-25T09:38:31Z</time>
      </trkpt>
      <trkpt lat="44.81654" lon="6.94609">
        <ele>1731.4</ele>
        <time>2022-02-25T09:38:32Z</time>
      </trkpt>
      <trkpt lat="44.81653" lon="6.94612">
        <ele>1732.1</ele>
        <time>2022-02-25T09:38:33Z</time>
      </trkpt>
      <trkpt lat="44.81653" lon="6.94612">
        <ele>1732.1</ele>
        <time>2022-02-25T09:38:34Z</time>
      </trkpt>
      <trkpt lat="44.81653" lon="6.94612">
        <ele>1732.1</ele>
        <time>2022-02-25T09:38:35Z</time>
      </trkpt>
      <trkpt lat="44.81652" lon="6.94615">
        <ele>1733</ele>
        <time>2022-02-25T09:38:36Z</time>
      </trkpt>
      <trkpt lat="44.81652" lon="6.94615">
        <ele>1733</ele>
        <time>2022-02-25T09:38:37Z</time>
      </trkpt>
      <trkpt lat="44.8165" lon="6.94617">
        <ele>1732.7</ele>
        <time>2022-02-25T09:38:38Z</time>
      </trkpt>
      <trkpt lat="44.8165" lon="6.94617">
        <ele>1732.7</ele>
        <time>2022-02-25T09:38:39Z</time>
      </trkpt>
      <trkpt lat="44.8165" lon="6.94617">
        <ele>1732.7</ele>
        <time>2022-02-25T09:38:40Z</time>
      </trkpt>
      <trkpt lat="44.81648" lon="6.94619">
        <ele>1732.5</ele>
        <time>2022-02-25T09:38:41Z</time>
      </trkpt>
      <trkpt lat="44.81648" lon="6.94619">
        <ele>1732.5</ele>
        <time>2022-02-25T09:38:42Z</time>
      </trkpt>
      <trkpt lat="44.81648" lon="6.94619">
        <ele>1732.5</ele>
        <time>2022-02-25T09:38:43Z</time>
      </trkpt>
      <trkpt lat="44.81646" lon="6.9462">
        <ele>1731.8</ele>
        <time>2022-02-25T09:38:44Z</time>
      </trkpt>
      <trkpt lat="44.81646" lon="6.9462">
        <ele>1731.8</ele>
        <time>2022-02-25T09:38:45Z</time>
      </trkpt>
      <trkpt lat="44.81646" lon="6.9462">
        <ele>1731.8</ele>
        <time>2022-02-25T09:38:46Z</time>
      </trkpt>
      <trkpt lat="44.81646" lon="6.9462">
        <ele>1731.8</ele>
        <time>2022-02-25T09:38:47Z</time>
      </trkpt>
      <trkpt lat="44.81646" lon="6.9462">
        <ele>1731.8</ele>
        <time>2022-02-25T09:38:48Z</time>
      </trkpt>
      <trkpt lat="44.81645" lon="6.94622">
        <ele>1732.3</ele>
        <time>2022-02-25T09:38:49Z</time>
      </trkpt>
      <trkpt lat="44.81645" lon="6.94622">
        <ele>1732.3</ele>
        <time>2022-02-25T09:38:50Z</time>
      </trkpt>
      <trkpt lat="44.81645" lon="6.94622">
        <ele>1732.3</ele>
        <time>2022-02-25T09:38:51Z</time>
      </trkpt>
      <trkpt lat="44.81645" lon="6.94625">
        <ele>1734</ele>
        <time>2022-02-25T09:38:52Z</time>
      </trkpt>
      <trkpt lat="44.81645" lon="6.94625">
        <ele>1734</ele>
        <time>2022-02-25T09:38:53Z</time>
      </trkpt>
      <trkpt lat="44.81645" lon="6.94625">
        <ele>1734</ele>
        <time>2022-02-25T09:38:54Z</time>
      </trkpt>
      <trkpt lat="44.81643" lon="6.94626">
        <ele>1733.4</ele>
        <time>2022-02-25T09:38:55Z</time>
      </trkpt>
      <trkpt lat="44.81643" lon="6.94626">
        <ele>1733.4</ele>
        <time>2022-02-25T09:38:56Z</time>
      </trkpt>
      <trkpt lat="44.81643" lon="6.94626">
        <ele>1733.4</ele>
        <time>2022-02-25T09:38:57Z</time>
      </trkpt>
      <trkpt lat="44.8164" lon="6.94628">
        <ele>1733</ele>
        <time>2022-02-25T09:38:58Z</time>
      </trkpt>
      <trkpt lat="44.8164" lon="6.94628">
        <ele>1733</ele>
        <time>2022-02-25T09:38:59Z</time>
      </trkpt>
      <trkpt lat="44.8164" lon="6.94628">
        <ele>1733</ele>
        <time>2022-02-25T09:39:00Z</time>
      </trkpt>
      <trkpt lat="44.81639" lon="6.9463">
        <ele>1733.6</ele>
        <time>2022-02-25T09:39:01Z</time>
      </trkpt>
      <trkpt lat="44.81639" lon="6.9463">
        <ele>1733.6</ele>
        <time>2022-02-25T09:39:02Z</time>
      </trkpt>
      <trkpt lat="44.81639" lon="6.9463">
        <ele>1733.6</ele>
        <time>2022-02-25T09:39:03Z</time>
      </trkpt>
      <trkpt lat="44.81637" lon="6.94631">
        <ele>1732.7</ele>
        <time>2022-02-25T09:39:04Z</time>
      </trkpt>
      <trkpt lat="44.81637" lon="6.94631">
        <ele>1732.7</ele>
        <time>2022-02-25T09:39:05Z</time>
      </trkpt>
      <trkpt lat="44.81637" lon="6.94631">
        <ele>1732.7</ele>
        <time>2022-02-25T09:39:06Z</time>
      </trkpt>
      <trkpt lat="44.81637" lon="6.94631">
        <ele>1732.7</ele>
        <time>2022-02-25T09:39:07Z</time>
      </trkpt>
      <trkpt lat="44.81635" lon="6.94632">
        <ele>1731.7</ele>
        <time>2022-02-25T09:39:08Z</time>
      </trkpt>
      <trkpt lat="44.81635" lon="6.94632">
        <ele>1731.7</ele>
        <time>2022-02-25T09:39:09Z</time>
      </trkpt>
      <trkpt lat="44.81635" lon="6.94632">
        <ele>1731.7</ele>
        <time>2022-02-25T09:39:10Z</time>
      </trkpt>
      <trkpt lat="44.81635" lon="6.94632">
        <ele>1731.7</ele>
        <time>2022-02-25T09:39:11Z</time>
      </trkpt>
      <trkpt lat="44.81635" lon="6.94632">
        <ele>1731.7</ele>
        <time>2022-02-25T09:39:12Z</time>
      </trkpt>
      <trkpt lat="44.81635" lon="6.94632">
        <ele>1731.7</ele>
        <time>2022-02-25T09:39:13Z</time>
      </trkpt>
      <trkpt lat="44.81633" lon="6.94633">
        <ele>1730.6</ele>
        <time>2022-02-25T09:39:14Z</time>
      </trkpt>
      <trkpt lat="44.81633" lon="6.94633">
        <ele>1730.6</ele>
        <time>2022-02-25T09:39:15Z</time>
      </trkpt>
      <trkpt lat="44.81633" lon="6.94633">
        <ele>1730.6</ele>
        <time>2022-02-25T09:39:16Z</time>
      </trkpt>
      <trkpt lat="44.81633" lon="6.94633">
        <ele>1730.6</ele>
        <time>2022-02-25T09:39:17Z</time>
      </trkpt>
      <trkpt lat="44.81633" lon="6.94633">
        <ele>1730.6</ele>
        <time>2022-02-25T09:39:18Z</time>
      </trkpt>
      <trkpt lat="44.81633" lon="6.94633">
        <ele>1730.6</ele>
        <time>2022-02-25T09:39:19Z</time>
      </trkpt>
      <trkpt lat="44.81631" lon="6.94634">
        <ele>1729.5</ele>
        <time>2022-02-25T09:39:20Z</time>
      </trkpt>
      <trkpt lat="44.81631" lon="6.94634">
        <ele>1729.5</ele>
        <time>2022-02-25T09:39:21Z</time>
      </trkpt>
      <trkpt lat="44.81631" lon="6.94634">
        <ele>1729.5</ele>
        <time>2022-02-25T09:39:22Z</time>
      </trkpt>
      <trkpt lat="44.81629" lon="6.94634">
        <ele>1727.9</ele>
        <time>2022-02-25T09:39:23Z</time>
      </trkpt>
      <trkpt lat="44.81629" lon="6.94634">
        <ele>1727.9</ele>
        <time>2022-02-25T09:39:24Z</time>
      </trkpt>
      <trkpt lat="44.81629" lon="6.94634">
        <ele>1727.9</ele>
        <time>2022-02-25T09:39:25Z</time>
      </trkpt>
      <trkpt lat="44.81629" lon="6.94634">
        <ele>1727.9</ele>
        <time>2022-02-25T09:39:26Z</time>
      </trkpt>
      <trkpt lat="44.81629" lon="6.94634">
        <ele>1727.9</ele>
        <time>2022-02-25T09:39:27Z</time>
      </trkpt>
      <trkpt lat="44.81629" lon="6.94634">
        <ele>1727.9</ele>
        <time>2022-02-25T09:39:28Z</time>
      </trkpt>
      <trkpt lat="44.81628" lon="6.94637">
        <ele>1728.4</ele>
        <time>2022-02-25T09:39:29Z</time>
      </trkpt>
      <trkpt lat="44.81628" lon="6.94637">
        <ele>1728.4</ele>
        <time>2022-02-25T09:39:30Z</time>
      </trkpt>
      <trkpt lat="44.81628" lon="6.94637">
        <ele>1728.4</ele>
        <time>2022-02-25T09:39:31Z</time>
      </trkpt>
      <trkpt lat="44.81625" lon="6.94636">
        <ele>1725.4</ele>
        <time>2022-02-25T09:39:32Z</time>
      </trkpt>
      <trkpt lat="44.81625" lon="6.94636">
        <ele>1725.4</ele>
        <time>2022-02-25T09:39:33Z</time>
      </trkpt>
      <trkpt lat="44.81625" lon="6.94636">
        <ele>1725.4</ele>
        <time>2022-02-25T09:39:34Z</time>
      </trkpt>
      <trkpt lat="44.81623" lon="6.94638">
        <ele>1724.4</ele>
        <time>2022-02-25T09:39:35Z</time>
      </trkpt>
      <trkpt lat="44.81621" lon="6.94638">
        <ele>1722.6</ele>
        <time>2022-02-25T09:39:36Z</time>
      </trkpt>
      <trkpt lat="44.81621" lon="6.94638">
        <ele>1722.6</ele>
        <time>2022-02-25T09:39:37Z</time>
      </trkpt>
      <trkpt lat="44.81621" lon="6.94638">
        <ele>1722.6</ele>
        <time>2022-02-25T09:39:38Z</time>
      </trkpt>
      <trkpt lat="44.8162" lon="6.9464">
        <ele>1722.8</ele>
        <time>2022-02-25T09:39:39Z</time>
      </trkpt>
      <trkpt lat="44.8162" lon="6.9464">
        <ele>1722.8</ele>
        <time>2022-02-25T09:39:40Z</time>
      </trkpt>
      <trkpt lat="44.8162" lon="6.9464">
        <ele>1722.8</ele>
        <time>2022-02-25T09:39:41Z</time>
      </trkpt>
      <trkpt lat="44.81617" lon="6.94642">
        <ele>1721.6</ele>
        <time>2022-02-25T09:39:42Z</time>
      </trkpt>
      <trkpt lat="44.81617" lon="6.94642">
        <ele>1721.6</ele>
        <time>2022-02-25T09:39:43Z</time>
      </trkpt>
      <trkpt lat="44.81615" lon="6.94643">
        <ele>1720.6</ele>
        <time>2022-02-25T09:39:44Z</time>
      </trkpt>
      <trkpt lat="44.81615" lon="6.94643">
        <ele>1720.6</ele>
        <time>2022-02-25T09:39:45Z</time>
      </trkpt>
      <trkpt lat="44.81615" lon="6.94643">
        <ele>1720.6</ele>
        <time>2022-02-25T09:39:46Z</time>
      </trkpt>
      <trkpt lat="44.81613" lon="6.94645">
        <ele>1720.4</ele>
        <time>2022-02-25T09:39:47Z</time>
      </trkpt>
      <trkpt lat="44.81613" lon="6.94645">
        <ele>1720.4</ele>
        <time>2022-02-25T09:39:48Z</time>
      </trkpt>
      <trkpt lat="44.81613" lon="6.94645">
        <ele>1720.4</ele>
        <time>2022-02-25T09:39:49Z</time>
      </trkpt>
      <trkpt lat="44.81613" lon="6.94648">
        <ele>1722.8</ele>
        <time>2022-02-25T09:39:50Z</time>
      </trkpt>
      <trkpt lat="44.81613" lon="6.94648">
        <ele>1722.8</ele>
        <time>2022-02-25T09:39:51Z</time>
      </trkpt>
      <trkpt lat="44.81613" lon="6.94648">
        <ele>1722.8</ele>
        <time>2022-02-25T09:39:52Z</time>
      </trkpt>
      <trkpt lat="44.81611" lon="6.94651">
        <ele>1723.5</ele>
        <time>2022-02-25T09:39:53Z</time>
      </trkpt>
      <trkpt lat="44.81611" lon="6.94651">
        <ele>1723.5</ele>
        <time>2022-02-25T09:39:54Z</time>
      </trkpt>
      <trkpt lat="44.81609" lon="6.94653">
        <ele>1724.1</ele>
        <time>2022-02-25T09:39:55Z</time>
      </trkpt>
      <trkpt lat="44.81609" lon="6.94653">
        <ele>1724.1</ele>
        <time>2022-02-25T09:39:56Z</time>
      </trkpt>
      <trkpt lat="44.81608" lon="6.94655">
        <ele>1725.1</ele>
        <time>2022-02-25T09:39:57Z</time>
      </trkpt>
      <trkpt lat="44.81608" lon="6.94655">
        <ele>1725.1</ele>
        <time>2022-02-25T09:39:58Z</time>
      </trkpt>
      <trkpt lat="44.81608" lon="6.94655">
        <ele>1725.1</ele>
        <time>2022-02-25T09:39:59Z</time>
      </trkpt>
      <trkpt lat="44.81608" lon="6.94655">
        <ele>1725.1</ele>
        <time>2022-02-25T09:40:00Z</time>
      </trkpt>
      <trkpt lat="44.81608" lon="6.94655">
        <ele>1725.1</ele>
        <time>2022-02-25T09:40:01Z</time>
      </trkpt>
      <trkpt lat="44.81608" lon="6.94655">
        <ele>1725.1</ele>
        <time>2022-02-25T09:40:02Z</time>
      </trkpt>
      <trkpt lat="44.81608" lon="6.94655">
        <ele>1725.1</ele>
        <time>2022-02-25T09:40:03Z</time>
      </trkpt>
      <trkpt lat="44.81608" lon="6.94655">
        <ele>1725.1</ele>
        <time>2022-02-25T09:40:04Z</time>
      </trkpt>
      <trkpt lat="44.81608" lon="6.94655">
        <ele>1725.1</ele>
        <time>2022-02-25T09:40:05Z</time>
      </trkpt>
      <trkpt lat="44.81608" lon="6.94655">
        <ele>1725.1</ele>
        <time>2022-02-25T09:40:06Z</time>
      </trkpt>
      <trkpt lat="44.81606" lon="6.94657">
        <ele>1725.3</ele>
        <time>2022-02-25T09:40:07Z</time>
      </trkpt>
      <trkpt lat="44.81606" lon="6.94657">
        <ele>1725.3</ele>
        <time>2022-02-25T09:40:08Z</time>
      </trkpt>
      <trkpt lat="44.81606" lon="6.94657">
        <ele>1725.3</ele>
        <time>2022-02-25T09:40:09Z</time>
      </trkpt>
      <trkpt lat="44.81605" lon="6.94659">
        <ele>1725.9</ele>
        <time>2022-02-25T09:40:10Z</time>
      </trkpt>
      <trkpt lat="44.81605" lon="6.94659">
        <ele>1725.9</ele>
        <time>2022-02-25T09:40:11Z</time>
      </trkpt>
      <trkpt lat="44.81605" lon="6.94659">
        <ele>1725.9</ele>
        <time>2022-02-25T09:40:12Z</time>
      </trkpt>
      <trkpt lat="44.81604" lon="6.94662">
        <ele>1727.1</ele>
        <time>2022-02-25T09:40:13Z</time>
      </trkpt>
      <trkpt lat="44.81604" lon="6.94662">
        <ele>1727.1</ele>
        <time>2022-02-25T09:40:14Z</time>
      </trkpt>
      <trkpt lat="44.81604" lon="6.94662">
        <ele>1727.1</ele>
        <time>2022-02-25T09:40:15Z</time>
      </trkpt>
      <trkpt lat="44.81603" lon="6.94665">
        <ele>1728</ele>
        <time>2022-02-25T09:40:16Z</time>
      </trkpt>
      <trkpt lat="44.81603" lon="6.94665">
        <ele>1728</ele>
        <time>2022-02-25T09:40:17Z</time>
      </trkpt>
      <trkpt lat="44.81603" lon="6.94665">
        <ele>1728</ele>
        <time>2022-02-25T09:40:18Z</time>
      </trkpt>
      <trkpt lat="44.81601" lon="6.94667">
        <ele>1727.3</ele>
        <time>2022-02-25T09:40:19Z</time>
      </trkpt>
      <trkpt lat="44.81601" lon="6.94667">
        <ele>1727.3</ele>
        <time>2022-02-25T09:40:20Z</time>
      </trkpt>
      <trkpt lat="44.81601" lon="6.94667">
        <ele>1727.3</ele>
        <time>2022-02-25T09:40:21Z</time>
      </trkpt>
      <trkpt lat="44.81601" lon="6.9467">
        <ele>1727.9</ele>
        <time>2022-02-25T09:40:22Z</time>
      </trkpt>
      <trkpt lat="44.81601" lon="6.9467">
        <ele>1727.9</ele>
        <time>2022-02-25T09:40:23Z</time>
      </trkpt>
      <trkpt lat="44.81601" lon="6.9467">
        <ele>1727.9</ele>
        <time>2022-02-25T09:40:24Z</time>
      </trkpt>
      <trkpt lat="44.81599" lon="6.94673">
        <ele>1726.7</ele>
        <time>2022-02-25T09:40:25Z</time>
      </trkpt>
      <trkpt lat="44.81599" lon="6.94673">
        <ele>1726.7</ele>
        <time>2022-02-25T09:40:26Z</time>
      </trkpt>
      <trkpt lat="44.81599" lon="6.94673">
        <ele>1726.7</ele>
        <time>2022-02-25T09:40:27Z</time>
      </trkpt>
      <trkpt lat="44.81598" lon="6.94676">
        <ele>1726.4</ele>
        <time>2022-02-25T09:40:28Z</time>
      </trkpt>
      <trkpt lat="44.81598" lon="6.94676">
        <ele>1726.4</ele>
        <time>2022-02-25T09:40:29Z</time>
      </trkpt>
      <trkpt lat="44.81598" lon="6.94676">
        <ele>1726.4</ele>
        <time>2022-02-25T09:40:30Z</time>
      </trkpt>
      <trkpt lat="44.81598" lon="6.94676">
        <ele>1726.4</ele>
        <time>2022-02-25T09:40:31Z</time>
      </trkpt>
      <trkpt lat="44.81598" lon="6.94676">
        <ele>1726.4</ele>
        <time>2022-02-25T09:40:32Z</time>
      </trkpt>
      <trkpt lat="44.81598" lon="6.94676">
        <ele>1726.4</ele>
        <time>2022-02-25T09:40:33Z</time>
      </trkpt>
      <trkpt lat="44.81598" lon="6.94676">
        <ele>1726.4</ele>
        <time>2022-02-25T09:40:34Z</time>
      </trkpt>
      <trkpt lat="44.81598" lon="6.94676">
        <ele>1726.4</ele>
        <time>2022-02-25T09:40:35Z</time>
      </trkpt>
      <trkpt lat="44.81598" lon="6.94676">
        <ele>1726.4</ele>
        <time>2022-02-25T09:40:36Z</time>
      </trkpt>
      <trkpt lat="44.81598" lon="6.94676">
        <ele>1726.4</ele>
        <time>2022-02-25T09:40:37Z</time>
      </trkpt>
      <trkpt lat="44.81598" lon="6.94676">
        <ele>1726.4</ele>
        <time>2022-02-25T09:40:38Z</time>
      </trkpt>
      <trkpt lat="44.81598" lon="6.94676">
        <ele>1726.4</ele>
        <time>2022-02-25T09:40:39Z</time>
      </trkpt>
      <trkpt lat="44.81598" lon="6.94676">
        <ele>1726.4</ele>
        <time>2022-02-25T09:40:40Z</time>
      </trkpt>
      <trkpt lat="44.81598" lon="6.94676">
        <ele>1726.4</ele>
        <time>2022-02-25T09:40:41Z</time>
      </trkpt>
      <trkpt lat="44.81598" lon="6.94676">
        <ele>1726.4</ele>
        <time>2022-02-25T09:40:42Z</time>
      </trkpt>
      <trkpt lat="44.81598" lon="6.94676">
        <ele>1726.4</ele>
        <time>2022-02-25T09:40:43Z</time>
      </trkpt>
      <trkpt lat="44.81598" lon="6.94676">
        <ele>1726.4</ele>
        <time>2022-02-25T09:40:44Z</time>
      </trkpt>
      <trkpt lat="44.81598" lon="6.94676">
        <ele>1726.4</ele>
        <time>2022-02-25T09:40:45Z</time>
      </trkpt>
      <trkpt lat="44.81598" lon="6.94676">
        <ele>1726.4</ele>
        <time>2022-02-25T09:40:46Z</time>
      </trkpt>
      <trkpt lat="44.81598" lon="6.94676">
        <ele>1726.4</ele>
        <time>2022-02-25T09:40:47Z</time>
      </trkpt>
      <trkpt lat="44.81598" lon="6.94676">
        <ele>1726.4</ele>
        <time>2022-02-25T09:40:48Z</time>
      </trkpt>
      <trkpt lat="44.81598" lon="6.94676">
        <ele>1726.4</ele>
        <time>2022-02-25T09:40:49Z</time>
      </trkpt>
      <trkpt lat="44.81598" lon="6.94676">
        <ele>1726.4</ele>
        <time>2022-02-25T09:40:50Z</time>
      </trkpt>
      <trkpt lat="44.81598" lon="6.94676">
        <ele>1726.4</ele>
        <time>2022-02-25T09:40:51Z</time>
      </trkpt>
      <trkpt lat="44.81598" lon="6.94676">
        <ele>1726.4</ele>
        <time>2022-02-25T09:40:52Z</time>
      </trkpt>
      <trkpt lat="44.81598" lon="6.94676">
        <ele>1726.4</ele>
        <time>2022-02-25T09:40:53Z</time>
      </trkpt>
      <trkpt lat="44.81598" lon="6.94676">
        <ele>1726.4</ele>
        <time>2022-02-25T09:40:54Z</time>
      </trkpt>
      <trkpt lat="44.81598" lon="6.94676">
        <ele>1726.4</ele>
        <time>2022-02-25T09:40:55Z</time>
      </trkpt>
      <trkpt lat="44.81598" lon="6.94676">
        <ele>1726.4</ele>
        <time>2022-02-25T09:40:56Z</time>
      </trkpt>
      <trkpt lat="44.81598" lon="6.94676">
        <ele>1726.4</ele>
        <time>2022-02-25T09:40:57Z</time>
      </trkpt>
      <trkpt lat="44.81598" lon="6.94676">
        <ele>1726.4</ele>
        <time>2022-02-25T09:40:58Z</time>
      </trkpt>
      <trkpt lat="44.81598" lon="6.94676">
        <ele>1726.4</ele>
        <time>2022-02-25T09:40:59Z</time>
      </trkpt>
      <trkpt lat="44.81598" lon="6.94676">
        <ele>1726.4</ele>
        <time>2022-02-25T09:41:00Z</time>
      </trkpt>
      <trkpt lat="44.81598" lon="6.94676">
        <ele>1726.4</ele>
        <time>2022-02-25T09:41:01Z</time>
      </trkpt>
      <trkpt lat="44.81598" lon="6.94676">
        <ele>1726.4</ele>
        <time>2022-02-25T09:41:02Z</time>
      </trkpt>
      <trkpt lat="44.81598" lon="6.94676">
        <ele>1726.4</ele>
        <time>2022-02-25T09:41:03Z</time>
      </trkpt>
      <trkpt lat="44.81598" lon="6.94676">
        <ele>1726.4</ele>
        <time>2022-02-25T09:41:04Z</time>
      </trkpt>
      <trkpt lat="44.81598" lon="6.94676">
        <ele>1726.4</ele>
        <time>2022-02-25T09:41:05Z</time>
      </trkpt>
      <trkpt lat="44.81598" lon="6.94676">
        <ele>1726.4</ele>
        <time>2022-02-25T09:41:06Z</time>
      </trkpt>
      <trkpt lat="44.81598" lon="6.94676">
        <ele>1726.4</ele>
        <time>2022-02-25T09:41:07Z</time>
      </trkpt>
      <trkpt lat="44.81598" lon="6.94676">
        <ele>1726.4</ele>
        <time>2022-02-25T09:41:08Z</time>
      </trkpt>
      <trkpt lat="44.81598" lon="6.94676">
        <ele>1726.4</ele>
        <time>2022-02-25T09:41:09Z</time>
      </trkpt>
      <trkpt lat="44.81598" lon="6.94676">
        <ele>1726.4</ele>
        <time>2022-02-25T09:41:10Z</time>
      </trkpt>
      <trkpt lat="44.81598" lon="6.94676">
        <ele>1726.4</ele>
        <time>2022-02-25T09:41:11Z</time>
      </trkpt>
      <trkpt lat="44.81598" lon="6.94676">
        <ele>1726.4</ele>
        <time>2022-02-25T09:41:12Z</time>
      </trkpt>
      <trkpt lat="44.81598" lon="6.94676">
        <ele>1726.4</ele>
        <time>2022-02-25T09:41:13Z</time>
      </trkpt>
      <trkpt lat="44.81598" lon="6.94676">
        <ele>1726.4</ele>
        <time>2022-02-25T09:41:14Z</time>
      </trkpt>
      <trkpt lat="44.81598" lon="6.94676">
        <ele>1726.4</ele>
        <time>2022-02-25T09:41:15Z</time>
      </trkpt>
      <trkpt lat="44.81598" lon="6.94676">
        <ele>1726.4</ele>
        <time>2022-02-25T09:41:16Z</time>
      </trkpt>
      <trkpt lat="44.81598" lon="6.94676">
        <ele>1726.4</ele>
        <time>2022-02-25T09:41:17Z</time>
      </trkpt>
      <trkpt lat="44.81598" lon="6.94676">
        <ele>1726.4</ele>
        <time>2022-02-25T09:41:18Z</time>
      </trkpt>
      <trkpt lat="44.81598" lon="6.94676">
        <ele>1726.4</ele>
        <time>2022-02-25T09:41:19Z</time>
      </trkpt>
      <trkpt lat="44.81598" lon="6.94676">
        <ele>1726.4</ele>
        <time>2022-02-25T09:41:20Z</time>
      </trkpt>
      <trkpt lat="44.81598" lon="6.94676">
        <ele>1726.4</ele>
        <time>2022-02-25T09:41:21Z</time>
      </trkpt>
      <trkpt lat="44.81598" lon="6.94676">
        <ele>1726.4</ele>
        <time>2022-02-25T09:41:22Z</time>
      </trkpt>
      <trkpt lat="44.81598" lon="6.94676">
        <ele>1726.4</ele>
        <time>2022-02-25T09:41:23Z</time>
      </trkpt>
      <trkpt lat="44.81598" lon="6.94676">
        <ele>1726.4</ele>
        <time>2022-02-25T09:41:24Z</time>
      </trkpt>
      <trkpt lat="44.81598" lon="6.94676">
        <ele>1726.4</ele>
        <time>2022-02-25T09:41:25Z</time>
      </trkpt>
      <trkpt lat="44.81597" lon="6.94673">
        <ele>1724.9</ele>
        <time>2022-02-25T09:41:26Z</time>
      </trkpt>
      <trkpt lat="44.81596" lon="6.94671">
        <ele>1723.7</ele>
        <time>2022-02-25T09:41:27Z</time>
      </trkpt>
      <trkpt lat="44.81596" lon="6.94671">
        <ele>1723.7</ele>
        <time>2022-02-25T09:41:28Z</time>
      </trkpt>
      <trkpt lat="44.81596" lon="6.94667">
        <ele>1723</ele>
        <time>2022-02-25T09:41:29Z</time>
      </trkpt>
      <trkpt lat="44.81596" lon="6.94667">
        <ele>1723</ele>
        <time>2022-02-25T09:41:30Z</time>
      </trkpt>
      <trkpt lat="44.81596" lon="6.94667">
        <ele>1723</ele>
        <time>2022-02-25T09:41:31Z</time>
      </trkpt>
      <trkpt lat="44.81596" lon="6.94667">
        <ele>1723</ele>
        <time>2022-02-25T09:41:32Z</time>
      </trkpt>
      <trkpt lat="44.81596" lon="6.94667">
        <ele>1723</ele>
        <time>2022-02-25T09:41:33Z</time>
      </trkpt>
      <trkpt lat="44.81596" lon="6.94667">
        <ele>1723</ele>
        <time>2022-02-25T09:41:34Z</time>
      </trkpt>
      <trkpt lat="44.81596" lon="6.94667">
        <ele>1723</ele>
        <time>2022-02-25T09:41:35Z</time>
      </trkpt>
      <trkpt lat="44.81596" lon="6.94667">
        <ele>1723</ele>
        <time>2022-02-25T09:41:36Z</time>
      </trkpt>
      <trkpt lat="44.81596" lon="6.94667">
        <ele>1723</ele>
        <time>2022-02-25T09:41:37Z</time>
      </trkpt>
      <trkpt lat="44.81596" lon="6.94667">
        <ele>1723</ele>
        <time>2022-02-25T09:41:38Z</time>
      </trkpt>
      <trkpt lat="44.81596" lon="6.94667">
        <ele>1723</ele>
        <time>2022-02-25T09:41:39Z</time>
      </trkpt>
      <trkpt lat="44.81596" lon="6.94667">
        <ele>1723</ele>
        <time>2022-02-25T09:41:40Z</time>
      </trkpt>
      <trkpt lat="44.81596" lon="6.94667">
        <ele>1723</ele>
        <time>2022-02-25T09:41:41Z</time>
      </trkpt>
      <trkpt lat="44.81596" lon="6.94667">
        <ele>1723</ele>
        <time>2022-02-25T09:41:42Z</time>
      </trkpt>
      <trkpt lat="44.81596" lon="6.94667">
        <ele>1723</ele>
        <time>2022-02-25T09:41:43Z</time>
      </trkpt>
      <trkpt lat="44.81596" lon="6.94667">
        <ele>1723</ele>
        <time>2022-02-25T09:41:44Z</time>
      </trkpt>
      <trkpt lat="44.81596" lon="6.94667">
        <ele>1723</ele>
        <time>2022-02-25T09:41:45Z</time>
      </trkpt>
      <trkpt lat="44.81596" lon="6.94667">
        <ele>1723</ele>
        <time>2022-02-25T09:41:46Z</time>
      </trkpt>
      <trkpt lat="44.81596" lon="6.94667">
        <ele>1723</ele>
        <time>2022-02-25T09:41:47Z</time>
      </trkpt>
      <trkpt lat="44.81596" lon="6.94667">
        <ele>1723</ele>
        <time>2022-02-25T09:41:48Z</time>
      </trkpt>
      <trkpt lat="44.81596" lon="6.94667">
        <ele>1723</ele>
        <time>2022-02-25T09:41:49Z</time>
      </trkpt>
      <trkpt lat="44.81596" lon="6.94667">
        <ele>1723</ele>
        <time>2022-02-25T09:41:50Z</time>
      </trkpt>
      <trkpt lat="44.81596" lon="6.94667">
        <ele>1723</ele>
        <time>2022-02-25T09:41:51Z</time>
      </trkpt>
      <trkpt lat="44.81596" lon="6.94667">
        <ele>1723</ele>
        <time>2022-02-25T09:41:52Z</time>
      </trkpt>
      <trkpt lat="44.81596" lon="6.94667">
        <ele>1723</ele>
        <time>2022-02-25T09:41:53Z</time>
      </trkpt>
      <trkpt lat="44.81596" lon="6.94667">
        <ele>1723</ele>
        <time>2022-02-25T09:41:54Z</time>
      </trkpt>
      <trkpt lat="44.81596" lon="6.94667">
        <ele>1723</ele>
        <time>2022-02-25T09:41:55Z</time>
      </trkpt>
      <trkpt lat="44.81596" lon="6.94667">
        <ele>1723</ele>
        <time>2022-02-25T09:41:56Z</time>
      </trkpt>
      <trkpt lat="44.81596" lon="6.94667">
        <ele>1723</ele>
        <time>2022-02-25T09:41:57Z</time>
      </trkpt>
      <trkpt lat="44.81596" lon="6.94667">
        <ele>1723</ele>
        <time>2022-02-25T09:41:58Z</time>
      </trkpt>
      <trkpt lat="44.81596" lon="6.94667">
        <ele>1723</ele>
        <time>2022-02-25T09:41:59Z</time>
      </trkpt>
      <trkpt lat="44.81596" lon="6.94667">
        <ele>1723</ele>
        <time>2022-02-25T09:42:00Z</time>
      </trkpt>
      <trkpt lat="44.81596" lon="6.94667">
        <ele>1723</ele>
        <time>2022-02-25T09:42:01Z</time>
      </trkpt>
      <trkpt lat="44.81596" lon="6.94667">
        <ele>1723</ele>
        <time>2022-02-25T09:42:02Z</time>
      </trkpt>
      <trkpt lat="44.81596" lon="6.94667">
        <ele>1723</ele>
        <time>2022-02-25T09:42:03Z</time>
      </trkpt>
      <trkpt lat="44.81596" lon="6.94667">
        <ele>1723</ele>
        <time>2022-02-25T09:42:04Z</time>
      </trkpt>
      <trkpt lat="44.81596" lon="6.94667">
        <ele>1723</ele>
        <time>2022-02-25T09:42:05Z</time>
      </trkpt>
      <trkpt lat="44.81596" lon="6.94667">
        <ele>1723</ele>
        <time>2022-02-25T09:42:06Z</time>
      </trkpt>
      <trkpt lat="44.81596" lon="6.94667">
        <ele>1723</ele>
        <time>2022-02-25T09:42:07Z</time>
      </trkpt>
      <trkpt lat="44.81596" lon="6.94667">
        <ele>1723</ele>
        <time>2022-02-25T09:42:08Z</time>
      </trkpt>
      <trkpt lat="44.81596" lon="6.94667">
        <ele>1723</ele>
        <time>2022-02-25T09:42:09Z</time>
      </trkpt>
      <trkpt lat="44.81596" lon="6.94667">
        <ele>1723</ele>
        <time>2022-02-25T09:42:10Z</time>
      </trkpt>
      <trkpt lat="44.81596" lon="6.94667">
        <ele>1723</ele>
        <time>2022-02-25T09:42:11Z</time>
      </trkpt>
      <trkpt lat="44.81596" lon="6.94667">
        <ele>1723</ele>
        <time>2022-02-25T09:42:12Z</time>
      </trkpt>
      <trkpt lat="44.81596" lon="6.94667">
        <ele>1723</ele>
        <time>2022-02-25T09:42:13Z</time>
      </trkpt>
      <trkpt lat="44.81596" lon="6.94667">
        <ele>1723</ele>
        <time>2022-02-25T09:42:14Z</time>
      </trkpt>
      <trkpt lat="44.81596" lon="6.94667">
        <ele>1723</ele>
        <time>2022-02-25T09:42:15Z</time>
      </trkpt>
      <trkpt lat="44.81596" lon="6.94667">
        <ele>1723</ele>
        <time>2022-02-25T09:42:16Z</time>
      </trkpt>
      <trkpt lat="44.81596" lon="6.94667">
        <ele>1723</ele>
        <time>2022-02-25T09:42:17Z</time>
      </trkpt>
      <trkpt lat="44.81596" lon="6.94667">
        <ele>1723</ele>
        <time>2022-02-25T09:42:18Z</time>
      </trkpt>
      <trkpt lat="44.81596" lon="6.94667">
        <ele>1723</ele>
        <time>2022-02-25T09:42:19Z</time>
      </trkpt>
      <trkpt lat="44.81596" lon="6.94667">
        <ele>1723</ele>
        <time>2022-02-25T09:42:20Z</time>
      </trkpt>
      <trkpt lat="44.81596" lon="6.94667">
        <ele>1723</ele>
        <time>2022-02-25T09:42:21Z</time>
      </trkpt>
      <trkpt lat="44.81596" lon="6.94667">
        <ele>1723</ele>
        <time>2022-02-25T09:42:22Z</time>
      </trkpt>
      <trkpt lat="44.81596" lon="6.94667">
        <ele>1723</ele>
        <time>2022-02-25T09:42:23Z</time>
      </trkpt>
      <trkpt lat="44.81596" lon="6.94667">
        <ele>1723</ele>
        <time>2022-02-25T09:42:24Z</time>
      </trkpt>
      <trkpt lat="44.81596" lon="6.94667">
        <ele>1723</ele>
        <time>2022-02-25T09:42:25Z</time>
      </trkpt>
      <trkpt lat="44.81596" lon="6.94667">
        <ele>1723</ele>
        <time>2022-02-25T09:42:26Z</time>
      </trkpt>
      <trkpt lat="44.81596" lon="6.94667">
        <ele>1723</ele>
        <time>2022-02-25T09:42:27Z</time>
      </trkpt>
      <trkpt lat="44.81596" lon="6.94667">
        <ele>1723</ele>
        <time>2022-02-25T09:42:28Z</time>
      </trkpt>
      <trkpt lat="44.81596" lon="6.94667">
        <ele>1723</ele>
        <time>2022-02-25T09:42:29Z</time>
      </trkpt>
      <trkpt lat="44.81596" lon="6.94667">
        <ele>1723</ele>
        <time>2022-02-25T09:42:30Z</time>
      </trkpt>
      <trkpt lat="44.81596" lon="6.94667">
        <ele>1723</ele>
        <time>2022-02-25T09:42:31Z</time>
      </trkpt>
      <trkpt lat="44.81596" lon="6.94667">
        <ele>1723</ele>
        <time>2022-02-25T09:42:32Z</time>
      </trkpt>
      <trkpt lat="44.81596" lon="6.94667">
        <ele>1723</ele>
        <time>2022-02-25T09:42:33Z</time>
      </trkpt>
      <trkpt lat="44.81596" lon="6.94667">
        <ele>1723</ele>
        <time>2022-02-25T09:42:34Z</time>
      </trkpt>
      <trkpt lat="44.81596" lon="6.94667">
        <ele>1723</ele>
        <time>2022-02-25T09:42:35Z</time>
      </trkpt>
      <trkpt lat="44.81596" lon="6.94667">
        <ele>1723</ele>
        <time>2022-02-25T09:42:36Z</time>
      </trkpt>
      <trkpt lat="44.81596" lon="6.94667">
        <ele>1723</ele>
        <time>2022-02-25T09:42:37Z</time>
      </trkpt>
      <trkpt lat="44.81596" lon="6.94667">
        <ele>1723</ele>
        <time>2022-02-25T09:42:38Z</time>
      </trkpt>
      <trkpt lat="44.81596" lon="6.94667">
        <ele>1723</ele>
        <time>2022-02-25T09:42:39Z</time>
      </trkpt>
      <trkpt lat="44.81596" lon="6.94664">
        <ele>1721.9</ele>
        <time>2022-02-25T09:42:40Z</time>
      </trkpt>
      <trkpt lat="44.81596" lon="6.94664">
        <ele>1721.9</ele>
        <time>2022-02-25T09:42:41Z</time>
      </trkpt>
      <trkpt lat="44.81597" lon="6.94669">
        <ele>1724.2</ele>
        <time>2022-02-25T09:42:42Z</time>
      </trkpt>
      <trkpt lat="44.81597" lon="6.94669">
        <ele>1724.2</ele>
        <time>2022-02-25T09:42:43Z</time>
      </trkpt>
      <trkpt lat="44.81597" lon="6.94673">
        <ele>1724.9</ele>
        <time>2022-02-25T09:42:44Z</time>
      </trkpt>
      <trkpt lat="44.81597" lon="6.94673">
        <ele>1724.9</ele>
        <time>2022-02-25T09:42:45Z</time>
      </trkpt>
      <trkpt lat="44.81597" lon="6.94678">
        <ele>1725.8</ele>
        <time>2022-02-25T09:42:46Z</time>
      </trkpt>
      <trkpt lat="44.81597" lon="6.94678">
        <ele>1725.8</ele>
        <time>2022-02-25T09:42:47Z</time>
      </trkpt>
      <trkpt lat="44.81596" lon="6.94682">
        <ele>1725.6</ele>
        <time>2022-02-25T09:42:48Z</time>
      </trkpt>
      <trkpt lat="44.81596" lon="6.94682">
        <ele>1725.6</ele>
        <time>2022-02-25T09:42:49Z</time>
      </trkpt>
      <trkpt lat="44.81596" lon="6.94686">
        <ele>1726.3</ele>
        <time>2022-02-25T09:42:50Z</time>
      </trkpt>
      <trkpt lat="44.81596" lon="6.94686">
        <ele>1726.3</ele>
        <time>2022-02-25T09:42:51Z</time>
      </trkpt>
      <trkpt lat="44.81596" lon="6.94688">
        <ele>1726.6</ele>
        <time>2022-02-25T09:42:52Z</time>
      </trkpt>
      <trkpt lat="44.81596" lon="6.94688">
        <ele>1726.6</ele>
        <time>2022-02-25T09:42:53Z</time>
      </trkpt>
      <trkpt lat="44.81596" lon="6.94691">
        <ele>1727.2</ele>
        <time>2022-02-25T09:42:54Z</time>
      </trkpt>
      <trkpt lat="44.81596" lon="6.94691">
        <ele>1727.2</ele>
        <time>2022-02-25T09:42:55Z</time>
      </trkpt>
      <trkpt lat="44.81596" lon="6.94691">
        <ele>1727.2</ele>
        <time>2022-02-25T09:42:56Z</time>
      </trkpt>
      <trkpt lat="44.81596" lon="6.94694">
        <ele>1727.7</ele>
        <time>2022-02-25T09:42:57Z</time>
      </trkpt>
      <trkpt lat="44.81596" lon="6.94694">
        <ele>1727.7</ele>
        <time>2022-02-25T09:42:58Z</time>
      </trkpt>
      <trkpt lat="44.81596" lon="6.94694">
        <ele>1727.7</ele>
        <time>2022-02-25T09:42:59Z</time>
      </trkpt>
      <trkpt lat="44.81596" lon="6.94694">
        <ele>1727.7</ele>
        <time>2022-02-25T09:43:00Z</time>
      </trkpt>
      <trkpt lat="44.81596" lon="6.94697">
        <ele>1728.4</ele>
        <time>2022-02-25T09:43:01Z</time>
      </trkpt>
      <trkpt lat="44.81596" lon="6.94697">
        <ele>1728.4</ele>
        <time>2022-02-25T09:43:02Z</time>
      </trkpt>
      <trkpt lat="44.81596" lon="6.94697">
        <ele>1728.4</ele>
        <time>2022-02-25T09:43:03Z</time>
      </trkpt>
      <trkpt lat="44.81596" lon="6.94697">
        <ele>1728.4</ele>
        <time>2022-02-25T09:43:04Z</time>
      </trkpt>
      <trkpt lat="44.81596" lon="6.94697">
        <ele>1728.4</ele>
        <time>2022-02-25T09:43:05Z</time>
      </trkpt>
      <trkpt lat="44.81596" lon="6.94697">
        <ele>1728.4</ele>
        <time>2022-02-25T09:43:06Z</time>
      </trkpt>
      <trkpt lat="44.81596" lon="6.94697">
        <ele>1728.4</ele>
        <time>2022-02-25T09:43:07Z</time>
      </trkpt>
      <trkpt lat="44.81596" lon="6.94697">
        <ele>1728.4</ele>
        <time>2022-02-25T09:43:08Z</time>
      </trkpt>
      <trkpt lat="44.81596" lon="6.94697">
        <ele>1728.4</ele>
        <time>2022-02-25T09:43:09Z</time>
      </trkpt>
      <trkpt lat="44.81596" lon="6.94697">
        <ele>1728.4</ele>
        <time>2022-02-25T09:43:10Z</time>
      </trkpt>
      <trkpt lat="44.81596" lon="6.94697">
        <ele>1728.4</ele>
        <time>2022-02-25T09:43:11Z</time>
      </trkpt>
      <trkpt lat="44.81596" lon="6.94697">
        <ele>1728.4</ele>
        <time>2022-02-25T09:43:12Z</time>
      </trkpt>
      <trkpt lat="44.81596" lon="6.94697">
        <ele>1728.4</ele>
        <time>2022-02-25T09:43:13Z</time>
      </trkpt>
      <trkpt lat="44.81596" lon="6.94697">
        <ele>1728.4</ele>
        <time>2022-02-25T09:43:14Z</time>
      </trkpt>
      <trkpt lat="44.81596" lon="6.94697">
        <ele>1728.4</ele>
        <time>2022-02-25T09:43:15Z</time>
      </trkpt>
      <trkpt lat="44.81596" lon="6.94697">
        <ele>1728.4</ele>
        <time>2022-02-25T09:43:16Z</time>
      </trkpt>
      <trkpt lat="44.81596" lon="6.94697">
        <ele>1728.4</ele>
        <time>2022-02-25T09:43:17Z</time>
      </trkpt>
      <trkpt lat="44.81596" lon="6.94697">
        <ele>1728.4</ele>
        <time>2022-02-25T09:43:18Z</time>
      </trkpt>
      <trkpt lat="44.81596" lon="6.94697">
        <ele>1728.4</ele>
        <time>2022-02-25T09:43:19Z</time>
      </trkpt>
      <trkpt lat="44.81596" lon="6.94697">
        <ele>1728.4</ele>
        <time>2022-02-25T09:43:20Z</time>
      </trkpt>
      <trkpt lat="44.81596" lon="6.94697">
        <ele>1728.4</ele>
        <time>2022-02-25T09:43:21Z</time>
      </trkpt>
      <trkpt lat="44.81596" lon="6.94697">
        <ele>1728.4</ele>
        <time>2022-02-25T09:43:22Z</time>
      </trkpt>
      <trkpt lat="44.81596" lon="6.94697">
        <ele>1728.4</ele>
        <time>2022-02-25T09:43:23Z</time>
      </trkpt>
      <trkpt lat="44.81596" lon="6.94697">
        <ele>1728.4</ele>
        <time>2022-02-25T09:43:24Z</time>
      </trkpt>
      <trkpt lat="44.81596" lon="6.94697">
        <ele>1728.4</ele>
        <time>2022-02-25T09:43:25Z</time>
      </trkpt>
      <trkpt lat="44.81596" lon="6.94697">
        <ele>1728.4</ele>
        <time>2022-02-25T09:43:26Z</time>
      </trkpt>
      <trkpt lat="44.81596" lon="6.94697">
        <ele>1728.4</ele>
        <time>2022-02-25T09:43:27Z</time>
      </trkpt>
      <trkpt lat="44.81596" lon="6.94697">
        <ele>1728.4</ele>
        <time>2022-02-25T09:43:28Z</time>
      </trkpt>
      <trkpt lat="44.81596" lon="6.94697">
        <ele>1728.4</ele>
        <time>2022-02-25T09:43:29Z</time>
      </trkpt>
      <trkpt lat="44.81596" lon="6.94697">
        <ele>1728.4</ele>
        <time>2022-02-25T09:43:30Z</time>
      </trkpt>
      <trkpt lat="44.81596" lon="6.94697">
        <ele>1728.4</ele>
        <time>2022-02-25T09:43:31Z</time>
      </trkpt>
      <trkpt lat="44.81596" lon="6.94697">
        <ele>1728.4</ele>
        <time>2022-02-25T09:43:32Z</time>
      </trkpt>
      <trkpt lat="44.81596" lon="6.94697">
        <ele>1728.4</ele>
        <time>2022-02-25T09:43:33Z</time>
      </trkpt>
      <trkpt lat="44.81596" lon="6.94697">
        <ele>1728.4</ele>
        <time>2022-02-25T09:43:34Z</time>
      </trkpt>
      <trkpt lat="44.81596" lon="6.94697">
        <ele>1728.4</ele>
        <time>2022-02-25T09:43:35Z</time>
      </trkpt>
      <trkpt lat="44.81596" lon="6.94697">
        <ele>1728.4</ele>
        <time>2022-02-25T09:43:36Z</time>
      </trkpt>
      <trkpt lat="44.81596" lon="6.94697">
        <ele>1728.4</ele>
        <time>2022-02-25T09:43:37Z</time>
      </trkpt>
      <trkpt lat="44.81595" lon="6.94701">
        <ele>1728.4</ele>
        <time>2022-02-25T09:43:38Z</time>
      </trkpt>
      <trkpt lat="44.81595" lon="6.94701">
        <ele>1728.4</ele>
        <time>2022-02-25T09:43:39Z</time>
      </trkpt>
      <trkpt lat="44.81594" lon="6.94703">
        <ele>1728</ele>
        <time>2022-02-25T09:43:40Z</time>
      </trkpt>
      <trkpt lat="44.81594" lon="6.94703">
        <ele>1728</ele>
        <time>2022-02-25T09:43:41Z</time>
      </trkpt>
      <trkpt lat="44.81593" lon="6.94705">
        <ele>1727.5</ele>
        <time>2022-02-25T09:43:42Z</time>
      </trkpt>
      <trkpt lat="44.81593" lon="6.94705">
        <ele>1727.5</ele>
        <time>2022-02-25T09:43:43Z</time>
      </trkpt>
      <trkpt lat="44.81592" lon="6.94708">
        <ele>1727.3</ele>
        <time>2022-02-25T09:43:44Z</time>
      </trkpt>
      <trkpt lat="44.81592" lon="6.94708">
        <ele>1727.3</ele>
        <time>2022-02-25T09:43:45Z</time>
      </trkpt>
      <trkpt lat="44.81589" lon="6.9471">
        <ele>1725</ele>
        <time>2022-02-25T09:43:46Z</time>
      </trkpt>
      <trkpt lat="44.81589" lon="6.9471">
        <ele>1725</ele>
        <time>2022-02-25T09:43:47Z</time>
      </trkpt>
      <trkpt lat="44.81588" lon="6.94711">
        <ele>1724.3</ele>
        <time>2022-02-25T09:43:48Z</time>
      </trkpt>
      <trkpt lat="44.81588" lon="6.94711">
        <ele>1724.3</ele>
        <time>2022-02-25T09:43:49Z</time>
      </trkpt>
      <trkpt lat="44.81588" lon="6.94711">
        <ele>1724.3</ele>
        <time>2022-02-25T09:43:50Z</time>
      </trkpt>
      <trkpt lat="44.81586" lon="6.94713">
        <ele>1722.9</ele>
        <time>2022-02-25T09:43:51Z</time>
      </trkpt>
      <trkpt lat="44.81586" lon="6.94713">
        <ele>1722.9</ele>
        <time>2022-02-25T09:43:52Z</time>
      </trkpt>
      <trkpt lat="44.81586" lon="6.94713">
        <ele>1722.9</ele>
        <time>2022-02-25T09:43:53Z</time>
      </trkpt>
      <trkpt lat="44.81585" lon="6.94715">
        <ele>1722.5</ele>
        <time>2022-02-25T09:43:54Z</time>
      </trkpt>
      <trkpt lat="44.81585" lon="6.94715">
        <ele>1722.5</ele>
        <time>2022-02-25T09:43:55Z</time>
      </trkpt>
      <trkpt lat="44.81585" lon="6.94715">
        <ele>1722.5</ele>
        <time>2022-02-25T09:43:56Z</time>
      </trkpt>
      <trkpt lat="44.81585" lon="6.94715">
        <ele>1722.5</ele>
        <time>2022-02-25T09:43:57Z</time>
      </trkpt>
      <trkpt lat="44.81585" lon="6.94715">
        <ele>1722.5</ele>
        <time>2022-02-25T09:43:58Z</time>
      </trkpt>
      <trkpt lat="44.81583" lon="6.94718">
        <ele>1721.7</ele>
        <time>2022-02-25T09:43:59Z</time>
      </trkpt>
      <trkpt lat="44.81583" lon="6.94718">
        <ele>1721.7</ele>
        <time>2022-02-25T09:44:00Z</time>
      </trkpt>
      <trkpt lat="44.81583" lon="6.94718">
        <ele>1721.7</ele>
        <time>2022-02-25T09:44:01Z</time>
      </trkpt>
      <trkpt lat="44.81582" lon="6.9472">
        <ele>1721.9</ele>
        <time>2022-02-25T09:44:02Z</time>
      </trkpt>
      <trkpt lat="44.81582" lon="6.9472">
        <ele>1721.9</ele>
        <time>2022-02-25T09:44:03Z</time>
      </trkpt>
      <trkpt lat="44.81582" lon="6.9472">
        <ele>1721.9</ele>
        <time>2022-02-25T09:44:04Z</time>
      </trkpt>
      <trkpt lat="44.81582" lon="6.9472">
        <ele>1721.9</ele>
        <time>2022-02-25T09:44:05Z</time>
      </trkpt>
      <trkpt lat="44.81582" lon="6.94723">
        <ele>1722.9</ele>
        <time>2022-02-25T09:44:06Z</time>
      </trkpt>
      <trkpt lat="44.81582" lon="6.94723">
        <ele>1722.9</ele>
        <time>2022-02-25T09:44:07Z</time>
      </trkpt>
      <trkpt lat="44.81582" lon="6.94723">
        <ele>1722.9</ele>
        <time>2022-02-25T09:44:08Z</time>
      </trkpt>
      <trkpt lat="44.81581" lon="6.94726">
        <ele>1724</ele>
        <time>2022-02-25T09:44:09Z</time>
      </trkpt>
      <trkpt lat="44.81581" lon="6.94726">
        <ele>1724</ele>
        <time>2022-02-25T09:44:10Z</time>
      </trkpt>
      <trkpt lat="44.81581" lon="6.94726">
        <ele>1724</ele>
        <time>2022-02-25T09:44:11Z</time>
      </trkpt>
      <trkpt lat="44.81579" lon="6.94726">
        <ele>1723.2</ele>
        <time>2022-02-25T09:44:12Z</time>
      </trkpt>
      <trkpt lat="44.81579" lon="6.94726">
        <ele>1723.2</ele>
        <time>2022-02-25T09:44:13Z</time>
      </trkpt>
      <trkpt lat="44.81579" lon="6.94726">
        <ele>1723.2</ele>
        <time>2022-02-25T09:44:14Z</time>
      </trkpt>
      <trkpt lat="44.81579" lon="6.94726">
        <ele>1723.2</ele>
        <time>2022-02-25T09:44:15Z</time>
      </trkpt>
      <trkpt lat="44.81579" lon="6.94726">
        <ele>1723.2</ele>
        <time>2022-02-25T09:44:16Z</time>
      </trkpt>
      <trkpt lat="44.81578" lon="6.94727">
        <ele>1723.2</ele>
        <time>2022-02-25T09:44:17Z</time>
      </trkpt>
      <trkpt lat="44.81578" lon="6.94727">
        <ele>1723.2</ele>
        <time>2022-02-25T09:44:18Z</time>
      </trkpt>
      <trkpt lat="44.81578" lon="6.94727">
        <ele>1723.2</ele>
        <time>2022-02-25T09:44:19Z</time>
      </trkpt>
      <trkpt lat="44.81578" lon="6.94727">
        <ele>1723.2</ele>
        <time>2022-02-25T09:44:20Z</time>
      </trkpt>
      <trkpt lat="44.81578" lon="6.94727">
        <ele>1723.2</ele>
        <time>2022-02-25T09:44:21Z</time>
      </trkpt>
      <trkpt lat="44.81576" lon="6.94728">
        <ele>1722.8</ele>
        <time>2022-02-25T09:44:22Z</time>
      </trkpt>
      <trkpt lat="44.81576" lon="6.94728">
        <ele>1722.8</ele>
        <time>2022-02-25T09:44:23Z</time>
      </trkpt>
      <trkpt lat="44.81576" lon="6.94728">
        <ele>1722.8</ele>
        <time>2022-02-25T09:44:24Z</time>
      </trkpt>
      <trkpt lat="44.81576" lon="6.94728">
        <ele>1722.8</ele>
        <time>2022-02-25T09:44:25Z</time>
      </trkpt>
      <trkpt lat="44.81576" lon="6.94728">
        <ele>1722.8</ele>
        <time>2022-02-25T09:44:26Z</time>
      </trkpt>
      <trkpt lat="44.81574" lon="6.94727">
        <ele>1721.5</ele>
        <time>2022-02-25T09:44:27Z</time>
      </trkpt>
      <trkpt lat="44.81574" lon="6.94727">
        <ele>1721.5</ele>
        <time>2022-02-25T09:44:28Z</time>
      </trkpt>
      <trkpt lat="44.81574" lon="6.94727">
        <ele>1721.5</ele>
        <time>2022-02-25T09:44:29Z</time>
      </trkpt>
      <trkpt lat="44.81574" lon="6.94727">
        <ele>1721.5</ele>
        <time>2022-02-25T09:44:30Z</time>
      </trkpt>
      <trkpt lat="44.81574" lon="6.94727">
        <ele>1721.5</ele>
        <time>2022-02-25T09:44:31Z</time>
      </trkpt>
      <trkpt lat="44.81572" lon="6.94727">
        <ele>1720.7</ele>
        <time>2022-02-25T09:44:32Z</time>
      </trkpt>
      <trkpt lat="44.81572" lon="6.94727">
        <ele>1720.7</ele>
        <time>2022-02-25T09:44:33Z</time>
      </trkpt>
      <trkpt lat="44.81572" lon="6.94727">
        <ele>1720.7</ele>
        <time>2022-02-25T09:44:34Z</time>
      </trkpt>
      <trkpt lat="44.81572" lon="6.94727">
        <ele>1720.7</ele>
        <time>2022-02-25T09:44:35Z</time>
      </trkpt>
      <trkpt lat="44.81572" lon="6.94727">
        <ele>1720.7</ele>
        <time>2022-02-25T09:44:36Z</time>
      </trkpt>
      <trkpt lat="44.81572" lon="6.94727">
        <ele>1720.7</ele>
        <time>2022-02-25T09:44:37Z</time>
      </trkpt>
      <trkpt lat="44.81572" lon="6.94727">
        <ele>1720.7</ele>
        <time>2022-02-25T09:44:38Z</time>
      </trkpt>
      <trkpt lat="44.81572" lon="6.94727">
        <ele>1720.7</ele>
        <time>2022-02-25T09:44:39Z</time>
      </trkpt>
      <trkpt lat="44.81572" lon="6.94727">
        <ele>1720.7</ele>
        <time>2022-02-25T09:44:40Z</time>
      </trkpt>
      <trkpt lat="44.81573" lon="6.9473">
        <ele>1722.3</ele>
        <time>2022-02-25T09:44:41Z</time>
      </trkpt>
      <trkpt lat="44.81573" lon="6.9473">
        <ele>1722.3</ele>
        <time>2022-02-25T09:44:42Z</time>
      </trkpt>
      <trkpt lat="44.81573" lon="6.9473">
        <ele>1722.3</ele>
        <time>2022-02-25T09:44:43Z</time>
      </trkpt>
      <trkpt lat="44.81573" lon="6.9473">
        <ele>1722.3</ele>
        <time>2022-02-25T09:44:44Z</time>
      </trkpt>
      <trkpt lat="44.81573" lon="6.9473">
        <ele>1722.3</ele>
        <time>2022-02-25T09:44:45Z</time>
      </trkpt>
      <trkpt lat="44.81573" lon="6.9473">
        <ele>1722.3</ele>
        <time>2022-02-25T09:44:46Z</time>
      </trkpt>
      <trkpt lat="44.81573" lon="6.9473">
        <ele>1722.3</ele>
        <time>2022-02-25T09:44:47Z</time>
      </trkpt>
      <trkpt lat="44.81573" lon="6.9473">
        <ele>1722.3</ele>
        <time>2022-02-25T09:44:48Z</time>
      </trkpt>
      <trkpt lat="44.81573" lon="6.9473">
        <ele>1722.3</ele>
        <time>2022-02-25T09:44:49Z</time>
      </trkpt>
      <trkpt lat="44.81573" lon="6.9473">
        <ele>1722.3</ele>
        <time>2022-02-25T09:44:50Z</time>
      </trkpt>
      <trkpt lat="44.81573" lon="6.9473">
        <ele>1722.3</ele>
        <time>2022-02-25T09:44:51Z</time>
      </trkpt>
      <trkpt lat="44.81573" lon="6.9473">
        <ele>1722.3</ele>
        <time>2022-02-25T09:44:52Z</time>
      </trkpt>
      <trkpt lat="44.81573" lon="6.9473">
        <ele>1722.3</ele>
        <time>2022-02-25T09:44:53Z</time>
      </trkpt>
      <trkpt lat="44.81573" lon="6.9473">
        <ele>1722.3</ele>
        <time>2022-02-25T09:44:54Z</time>
      </trkpt>
      <trkpt lat="44.81573" lon="6.9473">
        <ele>1722.3</ele>
        <time>2022-02-25T09:44:55Z</time>
      </trkpt>
      <trkpt lat="44.81573" lon="6.9473">
        <ele>1722.3</ele>
        <time>2022-02-25T09:44:56Z</time>
      </trkpt>
      <trkpt lat="44.81573" lon="6.9473">
        <ele>1722.3</ele>
        <time>2022-02-25T09:44:57Z</time>
      </trkpt>
      <trkpt lat="44.81573" lon="6.9473">
        <ele>1722.3</ele>
        <time>2022-02-25T09:44:58Z</time>
      </trkpt>
      <trkpt lat="44.81573" lon="6.9473">
        <ele>1722.3</ele>
        <time>2022-02-25T09:44:59Z</time>
      </trkpt>
      <trkpt lat="44.81573" lon="6.9473">
        <ele>1722.3</ele>
        <time>2022-02-25T09:45:00Z</time>
      </trkpt>
      <trkpt lat="44.81573" lon="6.9473">
        <ele>1722.3</ele>
        <time>2022-02-25T09:45:01Z</time>
      </trkpt>
      <trkpt lat="44.81573" lon="6.9473">
        <ele>1722.3</ele>
        <time>2022-02-25T09:45:02Z</time>
      </trkpt>
      <trkpt lat="44.81571" lon="6.94732">
        <ele>1722.1</ele>
        <time>2022-02-25T09:45:03Z</time>
      </trkpt>
      <trkpt lat="44.81571" lon="6.94732">
        <ele>1722.1</ele>
        <time>2022-02-25T09:45:04Z</time>
      </trkpt>
      <trkpt lat="44.81571" lon="6.94732">
        <ele>1722.1</ele>
        <time>2022-02-25T09:45:05Z</time>
      </trkpt>
      <trkpt lat="44.81571" lon="6.94732">
        <ele>1722.1</ele>
        <time>2022-02-25T09:45:06Z</time>
      </trkpt>
      <trkpt lat="44.81571" lon="6.94732">
        <ele>1722.1</ele>
        <time>2022-02-25T09:45:07Z</time>
      </trkpt>
      <trkpt lat="44.81571" lon="6.94732">
        <ele>1722.1</ele>
        <time>2022-02-25T09:45:08Z</time>
      </trkpt>
      <trkpt lat="44.81571" lon="6.94732">
        <ele>1722.1</ele>
        <time>2022-02-25T09:45:09Z</time>
      </trkpt>
      <trkpt lat="44.81571" lon="6.94732">
        <ele>1722.1</ele>
        <time>2022-02-25T09:45:10Z</time>
      </trkpt>
      <trkpt lat="44.81571" lon="6.94732">
        <ele>1722.1</ele>
        <time>2022-02-25T09:45:11Z</time>
      </trkpt>
      <trkpt lat="44.81571" lon="6.94732">
        <ele>1722.1</ele>
        <time>2022-02-25T09:45:12Z</time>
      </trkpt>
      <trkpt lat="44.81571" lon="6.94732">
        <ele>1722.1</ele>
        <time>2022-02-25T09:45:13Z</time>
      </trkpt>
      <trkpt lat="44.81571" lon="6.94732">
        <ele>1722.1</ele>
        <time>2022-02-25T09:45:14Z</time>
      </trkpt>
      <trkpt lat="44.81571" lon="6.94732">
        <ele>1722.1</ele>
        <time>2022-02-25T09:45:15Z</time>
      </trkpt>
      <trkpt lat="44.81571" lon="6.94732">
        <ele>1722.1</ele>
        <time>2022-02-25T09:45:16Z</time>
      </trkpt>
      <trkpt lat="44.81571" lon="6.94732">
        <ele>1722.1</ele>
        <time>2022-02-25T09:45:17Z</time>
      </trkpt>
      <trkpt lat="44.81571" lon="6.94732">
        <ele>1722.1</ele>
        <time>2022-02-25T09:45:18Z</time>
      </trkpt>
      <trkpt lat="44.81571" lon="6.94732">
        <ele>1722.1</ele>
        <time>2022-02-25T09:45:19Z</time>
      </trkpt>
      <trkpt lat="44.81571" lon="6.94732">
        <ele>1722.1</ele>
        <time>2022-02-25T09:45:20Z</time>
      </trkpt>
      <trkpt lat="44.81571" lon="6.94732">
        <ele>1722.1</ele>
        <time>2022-02-25T09:45:21Z</time>
      </trkpt>
      <trkpt lat="44.81571" lon="6.94732">
        <ele>1722.1</ele>
        <time>2022-02-25T09:45:22Z</time>
      </trkpt>
      <trkpt lat="44.81571" lon="6.94732">
        <ele>1722.1</ele>
        <time>2022-02-25T09:45:23Z</time>
      </trkpt>
      <trkpt lat="44.81571" lon="6.94732">
        <ele>1722.1</ele>
        <time>2022-02-25T09:45:24Z</time>
      </trkpt>
      <trkpt lat="44.81571" lon="6.94732">
        <ele>1722.1</ele>
        <time>2022-02-25T09:45:25Z</time>
      </trkpt>
      <trkpt lat="44.81571" lon="6.94732">
        <ele>1722.1</ele>
        <time>2022-02-25T09:45:26Z</time>
      </trkpt>
      <trkpt lat="44.81571" lon="6.94732">
        <ele>1722.1</ele>
        <time>2022-02-25T09:45:27Z</time>
      </trkpt>
      <trkpt lat="44.81571" lon="6.94732">
        <ele>1722.1</ele>
        <time>2022-02-25T09:45:28Z</time>
      </trkpt>
      <trkpt lat="44.81571" lon="6.94732">
        <ele>1722.1</ele>
        <time>2022-02-25T09:45:29Z</time>
      </trkpt>
      <trkpt lat="44.81571" lon="6.94732">
        <ele>1722.1</ele>
        <time>2022-02-25T09:45:30Z</time>
      </trkpt>
      <trkpt lat="44.81571" lon="6.94732">
        <ele>1722.1</ele>
        <time>2022-02-25T09:45:31Z</time>
      </trkpt>
      <trkpt lat="44.81571" lon="6.94732">
        <ele>1722.1</ele>
        <time>2022-02-25T09:45:32Z</time>
      </trkpt>
      <trkpt lat="44.81571" lon="6.94732">
        <ele>1722.1</ele>
        <time>2022-02-25T09:45:33Z</time>
      </trkpt>
      <trkpt lat="44.81571" lon="6.94732">
        <ele>1722.1</ele>
        <time>2022-02-25T09:45:34Z</time>
      </trkpt>
      <trkpt lat="44.81571" lon="6.94732">
        <ele>1722.1</ele>
        <time>2022-02-25T09:45:35Z</time>
      </trkpt>
      <trkpt lat="44.81571" lon="6.94732">
        <ele>1722.1</ele>
        <time>2022-02-25T09:45:36Z</time>
      </trkpt>
      <trkpt lat="44.81571" lon="6.94732">
        <ele>1722.1</ele>
        <time>2022-02-25T09:45:37Z</time>
      </trkpt>
      <trkpt lat="44.81571" lon="6.94732">
        <ele>1722.1</ele>
        <time>2022-02-25T09:45:38Z</time>
      </trkpt>
      <trkpt lat="44.81571" lon="6.94732">
        <ele>1722.1</ele>
        <time>2022-02-25T09:45:39Z</time>
      </trkpt>
      <trkpt lat="44.81571" lon="6.94732">
        <ele>1722.1</ele>
        <time>2022-02-25T09:45:40Z</time>
      </trkpt>
      <trkpt lat="44.81571" lon="6.94732">
        <ele>1722.1</ele>
        <time>2022-02-25T09:45:41Z</time>
      </trkpt>
      <trkpt lat="44.81571" lon="6.94732">
        <ele>1722.1</ele>
        <time>2022-02-25T09:45:42Z</time>
      </trkpt>
      <trkpt lat="44.81571" lon="6.94732">
        <ele>1722.1</ele>
        <time>2022-02-25T09:45:43Z</time>
      </trkpt>
      <trkpt lat="44.81571" lon="6.94732">
        <ele>1722.1</ele>
        <time>2022-02-25T09:45:44Z</time>
      </trkpt>
      <trkpt lat="44.81571" lon="6.94732">
        <ele>1722.1</ele>
        <time>2022-02-25T09:45:45Z</time>
      </trkpt>
      <trkpt lat="44.81571" lon="6.94732">
        <ele>1722.1</ele>
        <time>2022-02-25T09:45:46Z</time>
      </trkpt>
      <trkpt lat="44.81571" lon="6.94732">
        <ele>1722.1</ele>
        <time>2022-02-25T09:45:47Z</time>
      </trkpt>
      <trkpt lat="44.81571" lon="6.94732">
        <ele>1722.1</ele>
        <time>2022-02-25T09:45:48Z</time>
      </trkpt>
      <trkpt lat="44.81571" lon="6.94732">
        <ele>1722.1</ele>
        <time>2022-02-25T09:45:49Z</time>
      </trkpt>
      <trkpt lat="44.81571" lon="6.94732">
        <ele>1722.1</ele>
        <time>2022-02-25T09:45:50Z</time>
      </trkpt>
      <trkpt lat="44.81571" lon="6.94732">
        <ele>1722.1</ele>
        <time>2022-02-25T09:45:51Z</time>
      </trkpt>
      <trkpt lat="44.81571" lon="6.94732">
        <ele>1722.1</ele>
        <time>2022-02-25T09:45:52Z</time>
      </trkpt>
      <trkpt lat="44.81571" lon="6.94732">
        <ele>1722.1</ele>
        <time>2022-02-25T09:45:53Z</time>
      </trkpt>
      <trkpt lat="44.81571" lon="6.94732">
        <ele>1722.1</ele>
        <time>2022-02-25T09:45:54Z</time>
      </trkpt>
      <trkpt lat="44.81571" lon="6.94732">
        <ele>1722.1</ele>
        <time>2022-02-25T09:45:55Z</time>
      </trkpt>
      <trkpt lat="44.81571" lon="6.94732">
        <ele>1722.1</ele>
        <time>2022-02-25T09:45:56Z</time>
      </trkpt>
      <trkpt lat="44.81571" lon="6.94732">
        <ele>1722.1</ele>
        <time>2022-02-25T09:45:57Z</time>
      </trkpt>
      <trkpt lat="44.81571" lon="6.94732">
        <ele>1722.1</ele>
        <time>2022-02-25T09:45:58Z</time>
      </trkpt>
      <trkpt lat="44.81571" lon="6.94732">
        <ele>1722.1</ele>
        <time>2022-02-25T09:45:59Z</time>
      </trkpt>
      <trkpt lat="44.81571" lon="6.94732">
        <ele>1722.1</ele>
        <time>2022-02-25T09:46:00Z</time>
      </trkpt>
      <trkpt lat="44.81571" lon="6.94732">
        <ele>1722.1</ele>
        <time>2022-02-25T09:46:01Z</time>
      </trkpt>
      <trkpt lat="44.81571" lon="6.94732">
        <ele>1722.1</ele>
        <time>2022-02-25T09:46:02Z</time>
      </trkpt>
      <trkpt lat="44.81571" lon="6.94732">
        <ele>1722.1</ele>
        <time>2022-02-25T09:46:03Z</time>
      </trkpt>
      <trkpt lat="44.81571" lon="6.94732">
        <ele>1722.1</ele>
        <time>2022-02-25T09:46:04Z</time>
      </trkpt>
      <trkpt lat="44.81571" lon="6.94732">
        <ele>1722.1</ele>
        <time>2022-02-25T09:46:05Z</time>
      </trkpt>
      <trkpt lat="44.81571" lon="6.94732">
        <ele>1722.1</ele>
        <time>2022-02-25T09:46:06Z</time>
      </trkpt>
      <trkpt lat="44.81571" lon="6.94732">
        <ele>1722.1</ele>
        <time>2022-02-25T09:46:07Z</time>
      </trkpt>
      <trkpt lat="44.81571" lon="6.94732">
        <ele>1722.1</ele>
        <time>2022-02-25T09:46:08Z</time>
      </trkpt>
      <trkpt lat="44.81571" lon="6.94732">
        <ele>1722.1</ele>
        <time>2022-02-25T09:46:09Z</time>
      </trkpt>
      <trkpt lat="44.81571" lon="6.94732">
        <ele>1722.1</ele>
        <time>2022-02-25T09:46:10Z</time>
      </trkpt>
      <trkpt lat="44.81571" lon="6.94732">
        <ele>1722.1</ele>
        <time>2022-02-25T09:46:11Z</time>
      </trkpt>
      <trkpt lat="44.81571" lon="6.94732">
        <ele>1722.1</ele>
        <time>2022-02-25T09:46:12Z</time>
      </trkpt>
      <trkpt lat="44.81571" lon="6.94732">
        <ele>1722.1</ele>
        <time>2022-02-25T09:46:13Z</time>
      </trkpt>
      <trkpt lat="44.81571" lon="6.94732">
        <ele>1722.1</ele>
        <time>2022-02-25T09:46:14Z</time>
      </trkpt>
      <trkpt lat="44.81571" lon="6.94732">
        <ele>1722.1</ele>
        <time>2022-02-25T09:46:15Z</time>
      </trkpt>
      <trkpt lat="44.81571" lon="6.94732">
        <ele>1722.1</ele>
        <time>2022-02-25T09:46:16Z</time>
      </trkpt>
      <trkpt lat="44.81571" lon="6.94732">
        <ele>1722.1</ele>
        <time>2022-02-25T09:46:17Z</time>
      </trkpt>
      <trkpt lat="44.81571" lon="6.94732">
        <ele>1722.1</ele>
        <time>2022-02-25T09:46:18Z</time>
      </trkpt>
      <trkpt lat="44.81571" lon="6.94732">
        <ele>1722.1</ele>
        <time>2022-02-25T09:46:19Z</time>
      </trkpt>
      <trkpt lat="44.81571" lon="6.94732">
        <ele>1722.1</ele>
        <time>2022-02-25T09:46:20Z</time>
      </trkpt>
      <trkpt lat="44.8157" lon="6.94737">
        <ele>1723.3</ele>
        <time>2022-02-25T09:46:21Z</time>
      </trkpt>
      <trkpt lat="44.8157" lon="6.94737">
        <ele>1723.3</ele>
        <time>2022-02-25T09:46:22Z</time>
      </trkpt>
      <trkpt lat="44.8157" lon="6.94737">
        <ele>1723.3</ele>
        <time>2022-02-25T09:46:23Z</time>
      </trkpt>
      <trkpt lat="44.8157" lon="6.94737">
        <ele>1723.3</ele>
        <time>2022-02-25T09:46:24Z</time>
      </trkpt>
      <trkpt lat="44.81568" lon="6.94735">
        <ele>1721.6</ele>
        <time>2022-02-25T09:46:25Z</time>
      </trkpt>
      <trkpt lat="44.81568" lon="6.94735">
        <ele>1721.6</ele>
        <time>2022-02-25T09:46:26Z</time>
      </trkpt>
      <trkpt lat="44.81568" lon="6.94735">
        <ele>1721.6</ele>
        <time>2022-02-25T09:46:27Z</time>
      </trkpt>
      <trkpt lat="44.81568" lon="6.94735">
        <ele>1721.6</ele>
        <time>2022-02-25T09:46:28Z</time>
      </trkpt>
      <trkpt lat="44.81566" lon="6.94735">
        <ele>1720.6</ele>
        <time>2022-02-25T09:46:29Z</time>
      </trkpt>
      <trkpt lat="44.81566" lon="6.94735">
        <ele>1720.6</ele>
        <time>2022-02-25T09:46:30Z</time>
      </trkpt>
      <trkpt lat="44.81566" lon="6.94735">
        <ele>1720.6</ele>
        <time>2022-02-25T09:46:31Z</time>
      </trkpt>
      <trkpt lat="44.81566" lon="6.94735">
        <ele>1720.6</ele>
        <time>2022-02-25T09:46:32Z</time>
      </trkpt>
      <trkpt lat="44.81566" lon="6.94735">
        <ele>1720.6</ele>
        <time>2022-02-25T09:46:33Z</time>
      </trkpt>
      <trkpt lat="44.81566" lon="6.94735">
        <ele>1720.6</ele>
        <time>2022-02-25T09:46:34Z</time>
      </trkpt>
      <trkpt lat="44.81566" lon="6.94735">
        <ele>1720.6</ele>
        <time>2022-02-25T09:46:35Z</time>
      </trkpt>
      <trkpt lat="44.81566" lon="6.94735">
        <ele>1720.6</ele>
        <time>2022-02-25T09:46:36Z</time>
      </trkpt>
      <trkpt lat="44.81566" lon="6.94735">
        <ele>1720.6</ele>
        <time>2022-02-25T09:46:37Z</time>
      </trkpt>
      <trkpt lat="44.81566" lon="6.94735">
        <ele>1720.6</ele>
        <time>2022-02-25T09:46:38Z</time>
      </trkpt>
      <trkpt lat="44.81566" lon="6.94735">
        <ele>1720.6</ele>
        <time>2022-02-25T09:46:39Z</time>
      </trkpt>
      <trkpt lat="44.81566" lon="6.94735">
        <ele>1720.6</ele>
        <time>2022-02-25T09:46:40Z</time>
      </trkpt>
      <trkpt lat="44.81566" lon="6.94735">
        <ele>1720.6</ele>
        <time>2022-02-25T09:46:41Z</time>
      </trkpt>
      <trkpt lat="44.81566" lon="6.94735">
        <ele>1720.6</ele>
        <time>2022-02-25T09:46:42Z</time>
      </trkpt>
      <trkpt lat="44.81566" lon="6.94735">
        <ele>1720.6</ele>
        <time>2022-02-25T09:46:43Z</time>
      </trkpt>
      <trkpt lat="44.81566" lon="6.94735">
        <ele>1720.6</ele>
        <time>2022-02-25T09:46:44Z</time>
      </trkpt>
      <trkpt lat="44.81566" lon="6.94735">
        <ele>1720.6</ele>
        <time>2022-02-25T09:46:45Z</time>
      </trkpt>
      <trkpt lat="44.81566" lon="6.94735">
        <ele>1720.6</ele>
        <time>2022-02-25T09:46:46Z</time>
      </trkpt>
      <trkpt lat="44.81566" lon="6.94735">
        <ele>1720.6</ele>
        <time>2022-02-25T09:46:47Z</time>
      </trkpt>
      <trkpt lat="44.81566" lon="6.94735">
        <ele>1720.6</ele>
        <time>2022-02-25T09:46:48Z</time>
      </trkpt>
      <trkpt lat="44.81566" lon="6.94735">
        <ele>1720.6</ele>
        <time>2022-02-25T09:46:49Z</time>
      </trkpt>
      <trkpt lat="44.81566" lon="6.94735">
        <ele>1720.6</ele>
        <time>2022-02-25T09:46:50Z</time>
      </trkpt>
      <trkpt lat="44.81566" lon="6.94735">
        <ele>1720.6</ele>
        <time>2022-02-25T09:46:51Z</time>
      </trkpt>
      <trkpt lat="44.81566" lon="6.94735">
        <ele>1720.6</ele>
        <time>2022-02-25T09:46:52Z</time>
      </trkpt>
      <trkpt lat="44.81566" lon="6.94735">
        <ele>1720.6</ele>
        <time>2022-02-25T09:46:53Z</time>
      </trkpt>
      <trkpt lat="44.81566" lon="6.94735">
        <ele>1720.6</ele>
        <time>2022-02-25T09:46:54Z</time>
      </trkpt>
      <trkpt lat="44.81566" lon="6.94735">
        <ele>1720.6</ele>
        <time>2022-02-25T09:46:55Z</time>
      </trkpt>
      <trkpt lat="44.81566" lon="6.94735">
        <ele>1720.6</ele>
        <time>2022-02-25T09:46:56Z</time>
      </trkpt>
      <trkpt lat="44.81566" lon="6.94735">
        <ele>1720.6</ele>
        <time>2022-02-25T09:46:57Z</time>
      </trkpt>
      <trkpt lat="44.81566" lon="6.94735">
        <ele>1720.6</ele>
        <time>2022-02-25T09:46:58Z</time>
      </trkpt>
      <trkpt lat="44.81566" lon="6.94735">
        <ele>1720.6</ele>
        <time>2022-02-25T09:46:59Z</time>
      </trkpt>
      <trkpt lat="44.81566" lon="6.94735">
        <ele>1720.6</ele>
        <time>2022-02-25T09:47:00Z</time>
      </trkpt>
      <trkpt lat="44.81566" lon="6.94735">
        <ele>1720.6</ele>
        <time>2022-02-25T09:47:01Z</time>
      </trkpt>
      <trkpt lat="44.81566" lon="6.94735">
        <ele>1720.6</ele>
        <time>2022-02-25T09:47:02Z</time>
      </trkpt>
      <trkpt lat="44.81566" lon="6.94735">
        <ele>1720.6</ele>
        <time>2022-02-25T09:47:03Z</time>
      </trkpt>
      <trkpt lat="44.81566" lon="6.94735">
        <ele>1720.6</ele>
        <time>2022-02-25T09:47:04Z</time>
      </trkpt>
      <trkpt lat="44.81566" lon="6.94735">
        <ele>1720.6</ele>
        <time>2022-02-25T09:47:05Z</time>
      </trkpt>
      <trkpt lat="44.81566" lon="6.94735">
        <ele>1720.6</ele>
        <time>2022-02-25T09:47:06Z</time>
      </trkpt>
      <trkpt lat="44.81566" lon="6.94735">
        <ele>1720.6</ele>
        <time>2022-02-25T09:47:07Z</time>
      </trkpt>
      <trkpt lat="44.81566" lon="6.94735">
        <ele>1720.6</ele>
        <time>2022-02-25T09:47:08Z</time>
      </trkpt>
      <trkpt lat="44.81566" lon="6.94735">
        <ele>1720.6</ele>
        <time>2022-02-25T09:47:09Z</time>
      </trkpt>
      <trkpt lat="44.81566" lon="6.94735">
        <ele>1720.6</ele>
        <time>2022-02-25T09:47:10Z</time>
      </trkpt>
      <trkpt lat="44.81566" lon="6.94735">
        <ele>1720.6</ele>
        <time>2022-02-25T09:47:11Z</time>
      </trkpt>
      <trkpt lat="44.81566" lon="6.94735">
        <ele>1720.6</ele>
        <time>2022-02-25T09:47:12Z</time>
      </trkpt>
      <trkpt lat="44.81566" lon="6.94735">
        <ele>1720.6</ele>
        <time>2022-02-25T09:47:13Z</time>
      </trkpt>
      <trkpt lat="44.81566" lon="6.94735">
        <ele>1720.6</ele>
        <time>2022-02-25T09:47:14Z</time>
      </trkpt>
      <trkpt lat="44.81566" lon="6.94735">
        <ele>1720.6</ele>
        <time>2022-02-25T09:47:15Z</time>
      </trkpt>
      <trkpt lat="44.81566" lon="6.94735">
        <ele>1720.6</ele>
        <time>2022-02-25T09:47:16Z</time>
      </trkpt>
      <trkpt lat="44.81566" lon="6.94735">
        <ele>1720.6</ele>
        <time>2022-02-25T09:47:17Z</time>
      </trkpt>
      <trkpt lat="44.81566" lon="6.94735">
        <ele>1720.6</ele>
        <time>2022-02-25T09:47:18Z</time>
      </trkpt>
      <trkpt lat="44.81566" lon="6.94735">
        <ele>1720.6</ele>
        <time>2022-02-25T09:47:19Z</time>
      </trkpt>
      <trkpt lat="44.81566" lon="6.94735">
        <ele>1720.6</ele>
        <time>2022-02-25T09:47:20Z</time>
      </trkpt>
      <trkpt lat="44.81566" lon="6.94735">
        <ele>1720.6</ele>
        <time>2022-02-25T09:47:21Z</time>
      </trkpt>
      <trkpt lat="44.81566" lon="6.94735">
        <ele>1720.6</ele>
        <time>2022-02-25T09:47:22Z</time>
      </trkpt>
      <trkpt lat="44.81566" lon="6.94735">
        <ele>1720.6</ele>
        <time>2022-02-25T09:47:23Z</time>
      </trkpt>
      <trkpt lat="44.81566" lon="6.94735">
        <ele>1720.6</ele>
        <time>2022-02-25T09:47:24Z</time>
      </trkpt>
      <trkpt lat="44.81566" lon="6.94735">
        <ele>1720.6</ele>
        <time>2022-02-25T09:47:25Z</time>
      </trkpt>
      <trkpt lat="44.81566" lon="6.94735">
        <ele>1720.6</ele>
        <time>2022-02-25T09:47:26Z</time>
      </trkpt>
      <trkpt lat="44.81566" lon="6.94735">
        <ele>1720.6</ele>
        <time>2022-02-25T09:47:27Z</time>
      </trkpt>
      <trkpt lat="44.81566" lon="6.94735">
        <ele>1720.6</ele>
        <time>2022-02-25T09:47:28Z</time>
      </trkpt>
      <trkpt lat="44.81566" lon="6.94735">
        <ele>1720.6</ele>
        <time>2022-02-25T09:47:29Z</time>
      </trkpt>
      <trkpt lat="44.81566" lon="6.94735">
        <ele>1720.6</ele>
        <time>2022-02-25T09:47:30Z</time>
      </trkpt>
      <trkpt lat="44.81566" lon="6.94735">
        <ele>1720.6</ele>
        <time>2022-02-25T09:47:31Z</time>
      </trkpt>
      <trkpt lat="44.81566" lon="6.94735">
        <ele>1720.6</ele>
        <time>2022-02-25T09:47:32Z</time>
      </trkpt>
      <trkpt lat="44.81562" lon="6.94736">
        <ele>1718.8</ele>
        <time>2022-02-25T09:47:33Z</time>
      </trkpt>
      <trkpt lat="44.81562" lon="6.94736">
        <ele>1718.8</ele>
        <time>2022-02-25T09:47:34Z</time>
      </trkpt>
      <trkpt lat="44.81561" lon="6.94739">
        <ele>1719</ele>
        <time>2022-02-25T09:47:35Z</time>
      </trkpt>
      <trkpt lat="44.81561" lon="6.94739">
        <ele>1719</ele>
        <time>2022-02-25T09:47:36Z</time>
      </trkpt>
      <trkpt lat="44.81559" lon="6.94742">
        <ele>1718.6</ele>
        <time>2022-02-25T09:47:37Z</time>
      </trkpt>
      <trkpt lat="44.81558" lon="6.94743">
        <ele>1718.2</ele>
        <time>2022-02-25T09:47:38Z</time>
      </trkpt>
      <trkpt lat="44.81558" lon="6.94743">
        <ele>1718.2</ele>
        <time>2022-02-25T09:47:39Z</time>
      </trkpt>
      <trkpt lat="44.81557" lon="6.94746">
        <ele>1718.2</ele>
        <time>2022-02-25T09:47:40Z</time>
      </trkpt>
      <trkpt lat="44.81557" lon="6.94746">
        <ele>1718.2</ele>
        <time>2022-02-25T09:47:41Z</time>
      </trkpt>
      <trkpt lat="44.81554" lon="6.94749">
        <ele>1717.7</ele>
        <time>2022-02-25T09:47:42Z</time>
      </trkpt>
      <trkpt lat="44.81554" lon="6.94749">
        <ele>1717.7</ele>
        <time>2022-02-25T09:47:43Z</time>
      </trkpt>
      <trkpt lat="44.81554" lon="6.94749">
        <ele>1717.7</ele>
        <time>2022-02-25T09:47:44Z</time>
      </trkpt>
      <trkpt lat="44.81553" lon="6.94752">
        <ele>1719.1</ele>
        <time>2022-02-25T09:47:45Z</time>
      </trkpt>
      <trkpt lat="44.81553" lon="6.94752">
        <ele>1719.1</ele>
        <time>2022-02-25T09:47:46Z</time>
      </trkpt>
      <trkpt lat="44.81553" lon="6.94752">
        <ele>1719.1</ele>
        <time>2022-02-25T09:47:47Z</time>
      </trkpt>
      <trkpt lat="44.81552" lon="6.94755">
        <ele>1720.8</ele>
        <time>2022-02-25T09:47:48Z</time>
      </trkpt>
      <trkpt lat="44.81552" lon="6.94755">
        <ele>1720.8</ele>
        <time>2022-02-25T09:47:49Z</time>
      </trkpt>
      <trkpt lat="44.81551" lon="6.94757">
        <ele>1721.8</ele>
        <time>2022-02-25T09:47:50Z</time>
      </trkpt>
      <trkpt lat="44.81551" lon="6.94757">
        <ele>1721.8</ele>
        <time>2022-02-25T09:47:51Z</time>
      </trkpt>
      <trkpt lat="44.81551" lon="6.94757">
        <ele>1721.8</ele>
        <time>2022-02-25T09:47:52Z</time>
      </trkpt>
      <trkpt lat="44.8155" lon="6.9476">
        <ele>1723.4</ele>
        <time>2022-02-25T09:47:53Z</time>
      </trkpt>
      <trkpt lat="44.8155" lon="6.9476">
        <ele>1723.4</ele>
        <time>2022-02-25T09:47:54Z</time>
      </trkpt>
      <trkpt lat="44.8155" lon="6.9476">
        <ele>1723.4</ele>
        <time>2022-02-25T09:47:55Z</time>
      </trkpt>
      <trkpt lat="44.81548" lon="6.94761">
        <ele>1723.3</ele>
        <time>2022-02-25T09:47:56Z</time>
      </trkpt>
      <trkpt lat="44.81548" lon="6.94761">
        <ele>1723.3</ele>
        <time>2022-02-25T09:47:57Z</time>
      </trkpt>
      <trkpt lat="44.81548" lon="6.94761">
        <ele>1723.3</ele>
        <time>2022-02-25T09:47:58Z</time>
      </trkpt>
      <trkpt lat="44.81548" lon="6.94764">
        <ele>1724.9</ele>
        <time>2022-02-25T09:47:59Z</time>
      </trkpt>
      <trkpt lat="44.81548" lon="6.94764">
        <ele>1724.9</ele>
        <time>2022-02-25T09:48:00Z</time>
      </trkpt>
      <trkpt lat="44.81548" lon="6.94764">
        <ele>1724.9</ele>
        <time>2022-02-25T09:48:01Z</time>
      </trkpt>
      <trkpt lat="44.81546" lon="6.94766">
        <ele>1725.1</ele>
        <time>2022-02-25T09:48:02Z</time>
      </trkpt>
      <trkpt lat="44.81546" lon="6.94766">
        <ele>1725.1</ele>
        <time>2022-02-25T09:48:03Z</time>
      </trkpt>
      <trkpt lat="44.81546" lon="6.94766">
        <ele>1725.1</ele>
        <time>2022-02-25T09:48:04Z</time>
      </trkpt>
      <trkpt lat="44.81544" lon="6.94768">
        <ele>1725.1</ele>
        <time>2022-02-25T09:48:05Z</time>
      </trkpt>
      <trkpt lat="44.81544" lon="6.94768">
        <ele>1725.1</ele>
        <time>2022-02-25T09:48:06Z</time>
      </trkpt>
      <trkpt lat="44.81541" lon="6.94769">
        <ele>1724</ele>
        <time>2022-02-25T09:48:07Z</time>
      </trkpt>
      <trkpt lat="44.81541" lon="6.94769">
        <ele>1724</ele>
        <time>2022-02-25T09:48:08Z</time>
      </trkpt>
      <trkpt lat="44.81541" lon="6.94769">
        <ele>1724</ele>
        <time>2022-02-25T09:48:09Z</time>
      </trkpt>
      <trkpt lat="44.81539" lon="6.94772">
        <ele>1724</ele>
        <time>2022-02-25T09:48:10Z</time>
      </trkpt>
      <trkpt lat="44.81539" lon="6.94772">
        <ele>1724</ele>
        <time>2022-02-25T09:48:11Z</time>
      </trkpt>
      <trkpt lat="44.81538" lon="6.94774">
        <ele>1724.1</ele>
        <time>2022-02-25T09:48:12Z</time>
      </trkpt>
      <trkpt lat="44.81538" lon="6.94774">
        <ele>1724.1</ele>
        <time>2022-02-25T09:48:13Z</time>
      </trkpt>
      <trkpt lat="44.81538" lon="6.94774">
        <ele>1724.1</ele>
        <time>2022-02-25T09:48:14Z</time>
      </trkpt>
      <trkpt lat="44.81538" lon="6.94777">
        <ele>1725.1</ele>
        <time>2022-02-25T09:48:15Z</time>
      </trkpt>
      <trkpt lat="44.81538" lon="6.94777">
        <ele>1725.1</ele>
        <time>2022-02-25T09:48:16Z</time>
      </trkpt>
      <trkpt lat="44.81536" lon="6.94779">
        <ele>1724.4</ele>
        <time>2022-02-25T09:48:17Z</time>
      </trkpt>
      <trkpt lat="44.81536" lon="6.94779">
        <ele>1724.4</ele>
        <time>2022-02-25T09:48:18Z</time>
      </trkpt>
      <trkpt lat="44.81535" lon="6.94782">
        <ele>1724.8</ele>
        <time>2022-02-25T09:48:19Z</time>
      </trkpt>
      <trkpt lat="44.81535" lon="6.94782">
        <ele>1724.8</ele>
        <time>2022-02-25T09:48:20Z</time>
      </trkpt>
      <trkpt lat="44.81534" lon="6.94784">
        <ele>1724.8</ele>
        <time>2022-02-25T09:48:21Z</time>
      </trkpt>
      <trkpt lat="44.81534" lon="6.94784">
        <ele>1724.8</ele>
        <time>2022-02-25T09:48:22Z</time>
      </trkpt>
      <trkpt lat="44.81534" lon="6.94784">
        <ele>1724.8</ele>
        <time>2022-02-25T09:48:23Z</time>
      </trkpt>
      <trkpt lat="44.81532" lon="6.94787">
        <ele>1724.3</ele>
        <time>2022-02-25T09:48:24Z</time>
      </trkpt>
      <trkpt lat="44.81532" lon="6.94787">
        <ele>1724.3</ele>
        <time>2022-02-25T09:48:25Z</time>
      </trkpt>
      <trkpt lat="44.81531" lon="6.94789">
        <ele>1724.2</ele>
        <time>2022-02-25T09:48:26Z</time>
      </trkpt>
      <trkpt lat="44.81531" lon="6.94789">
        <ele>1724.2</ele>
        <time>2022-02-25T09:48:27Z</time>
      </trkpt>
      <trkpt lat="44.81529" lon="6.94791">
        <ele>1723.3</ele>
        <time>2022-02-25T09:48:28Z</time>
      </trkpt>
      <trkpt lat="44.81529" lon="6.94791">
        <ele>1723.3</ele>
        <time>2022-02-25T09:48:29Z</time>
      </trkpt>
      <trkpt lat="44.81528" lon="6.94794">
        <ele>1723.4</ele>
        <time>2022-02-25T09:48:30Z</time>
      </trkpt>
      <trkpt lat="44.81528" lon="6.94794">
        <ele>1723.4</ele>
        <time>2022-02-25T09:48:31Z</time>
      </trkpt>
      <trkpt lat="44.81526" lon="6.94796">
        <ele>1723.5</ele>
        <time>2022-02-25T09:48:32Z</time>
      </trkpt>
      <trkpt lat="44.81526" lon="6.94796">
        <ele>1723.5</ele>
        <time>2022-02-25T09:48:33Z</time>
      </trkpt>
      <trkpt lat="44.81524" lon="6.94799">
        <ele>1723.9</ele>
        <time>2022-02-25T09:48:34Z</time>
      </trkpt>
      <trkpt lat="44.81524" lon="6.94799">
        <ele>1723.9</ele>
        <time>2022-02-25T09:48:35Z</time>
      </trkpt>
      <trkpt lat="44.81523" lon="6.94801">
        <ele>1724.2</ele>
        <time>2022-02-25T09:48:36Z</time>
      </trkpt>
      <trkpt lat="44.81523" lon="6.94801">
        <ele>1724.2</ele>
        <time>2022-02-25T09:48:37Z</time>
      </trkpt>
      <trkpt lat="44.81522" lon="6.94804">
        <ele>1724.7</ele>
        <time>2022-02-25T09:48:38Z</time>
      </trkpt>
      <trkpt lat="44.81522" lon="6.94804">
        <ele>1724.7</ele>
        <time>2022-02-25T09:48:39Z</time>
      </trkpt>
      <trkpt lat="44.81522" lon="6.94804">
        <ele>1724.7</ele>
        <time>2022-02-25T09:48:40Z</time>
      </trkpt>
      <trkpt lat="44.8152" lon="6.94807">
        <ele>1724.7</ele>
        <time>2022-02-25T09:48:41Z</time>
      </trkpt>
      <trkpt lat="44.8152" lon="6.94807">
        <ele>1724.7</ele>
        <time>2022-02-25T09:48:42Z</time>
      </trkpt>
      <trkpt lat="44.81519" lon="6.9481">
        <ele>1724.9</ele>
        <time>2022-02-25T09:48:43Z</time>
      </trkpt>
      <trkpt lat="44.81519" lon="6.9481">
        <ele>1724.9</ele>
        <time>2022-02-25T09:48:44Z</time>
      </trkpt>
      <trkpt lat="44.81518" lon="6.94813">
        <ele>1725</ele>
        <time>2022-02-25T09:48:45Z</time>
      </trkpt>
      <trkpt lat="44.81518" lon="6.94813">
        <ele>1725</ele>
        <time>2022-02-25T09:48:46Z</time>
      </trkpt>
      <trkpt lat="44.81518" lon="6.94813">
        <ele>1725</ele>
        <time>2022-02-25T09:48:47Z</time>
      </trkpt>
      <trkpt lat="44.81517" lon="6.94816">
        <ele>1725</ele>
        <time>2022-02-25T09:48:48Z</time>
      </trkpt>
      <trkpt lat="44.81517" lon="6.94816">
        <ele>1725</ele>
        <time>2022-02-25T09:48:49Z</time>
      </trkpt>
      <trkpt lat="44.81517" lon="6.94816">
        <ele>1725</ele>
        <time>2022-02-25T09:48:50Z</time>
      </trkpt>
      <trkpt lat="44.81516" lon="6.94819">
        <ele>1725.1</ele>
        <time>2022-02-25T09:48:51Z</time>
      </trkpt>
      <trkpt lat="44.81516" lon="6.94819">
        <ele>1725.1</ele>
        <time>2022-02-25T09:48:52Z</time>
      </trkpt>
      <trkpt lat="44.81516" lon="6.94819">
        <ele>1725.1</ele>
        <time>2022-02-25T09:48:53Z</time>
      </trkpt>
      <trkpt lat="44.81514" lon="6.94822">
        <ele>1724.6</ele>
        <time>2022-02-25T09:48:54Z</time>
      </trkpt>
      <trkpt lat="44.81514" lon="6.94822">
        <ele>1724.6</ele>
        <time>2022-02-25T09:48:55Z</time>
      </trkpt>
      <trkpt lat="44.81514" lon="6.94825">
        <ele>1725</ele>
        <time>2022-02-25T09:48:56Z</time>
      </trkpt>
      <trkpt lat="44.81514" lon="6.94825">
        <ele>1725</ele>
        <time>2022-02-25T09:48:57Z</time>
      </trkpt>
      <trkpt lat="44.81514" lon="6.94825">
        <ele>1725</ele>
        <time>2022-02-25T09:48:58Z</time>
      </trkpt>
      <trkpt lat="44.81514" lon="6.94828">
        <ele>1725.4</ele>
        <time>2022-02-25T09:48:59Z</time>
      </trkpt>
      <trkpt lat="44.81514" lon="6.94828">
        <ele>1725.4</ele>
        <time>2022-02-25T09:49:00Z</time>
      </trkpt>
      <trkpt lat="44.81514" lon="6.94828">
        <ele>1725.4</ele>
        <time>2022-02-25T09:49:01Z</time>
      </trkpt>
      <trkpt lat="44.81512" lon="6.94832">
        <ele>1724.9</ele>
        <time>2022-02-25T09:49:02Z</time>
      </trkpt>
      <trkpt lat="44.81512" lon="6.94832">
        <ele>1724.9</ele>
        <time>2022-02-25T09:49:03Z</time>
      </trkpt>
      <trkpt lat="44.81512" lon="6.94834">
        <ele>1725.1</ele>
        <time>2022-02-25T09:49:04Z</time>
      </trkpt>
      <trkpt lat="44.81512" lon="6.94834">
        <ele>1725.1</ele>
        <time>2022-02-25T09:49:05Z</time>
      </trkpt>
      <trkpt lat="44.81512" lon="6.94834">
        <ele>1725.1</ele>
        <time>2022-02-25T09:49:06Z</time>
      </trkpt>
      <trkpt lat="44.81512" lon="6.94838">
        <ele>1725.7</ele>
        <time>2022-02-25T09:49:07Z</time>
      </trkpt>
      <trkpt lat="44.81512" lon="6.94838">
        <ele>1725.7</ele>
        <time>2022-02-25T09:49:08Z</time>
      </trkpt>
      <trkpt lat="44.81512" lon="6.94838">
        <ele>1725.7</ele>
        <time>2022-02-25T09:49:09Z</time>
      </trkpt>
      <trkpt lat="44.81511" lon="6.94841">
        <ele>1725.6</ele>
        <time>2022-02-25T09:49:10Z</time>
      </trkpt>
      <trkpt lat="44.81511" lon="6.94841">
        <ele>1725.6</ele>
        <time>2022-02-25T09:49:11Z</time>
      </trkpt>
      <trkpt lat="44.81511" lon="6.94844">
        <ele>1726</ele>
        <time>2022-02-25T09:49:12Z</time>
      </trkpt>
      <trkpt lat="44.81511" lon="6.94844">
        <ele>1726</ele>
        <time>2022-02-25T09:49:13Z</time>
      </trkpt>
      <trkpt lat="44.81511" lon="6.94847">
        <ele>1726.4</ele>
        <time>2022-02-25T09:49:14Z</time>
      </trkpt>
      <trkpt lat="44.81511" lon="6.94847">
        <ele>1726.4</ele>
        <time>2022-02-25T09:49:15Z</time>
      </trkpt>
      <trkpt lat="44.8151" lon="6.9485">
        <ele>1726.3</ele>
        <time>2022-02-25T09:49:16Z</time>
      </trkpt>
      <trkpt lat="44.8151" lon="6.9485">
        <ele>1726.3</ele>
        <time>2022-02-25T09:49:17Z</time>
      </trkpt>
      <trkpt lat="44.8151" lon="6.94853">
        <ele>1726.7</ele>
        <time>2022-02-25T09:49:18Z</time>
      </trkpt>
      <trkpt lat="44.8151" lon="6.94853">
        <ele>1726.7</ele>
        <time>2022-02-25T09:49:19Z</time>
      </trkpt>
      <trkpt lat="44.8151" lon="6.94856">
        <ele>1727.1</ele>
        <time>2022-02-25T09:49:20Z</time>
      </trkpt>
      <trkpt lat="44.8151" lon="6.94856">
        <ele>1727.1</ele>
        <time>2022-02-25T09:49:21Z</time>
      </trkpt>
      <trkpt lat="44.8151" lon="6.94858">
        <ele>1727.3</ele>
        <time>2022-02-25T09:49:22Z</time>
      </trkpt>
      <trkpt lat="44.8151" lon="6.94858">
        <ele>1727.3</ele>
        <time>2022-02-25T09:49:23Z</time>
      </trkpt>
      <trkpt lat="44.8151" lon="6.94858">
        <ele>1727.3</ele>
        <time>2022-02-25T09:49:24Z</time>
      </trkpt>
      <trkpt lat="44.8151" lon="6.94862">
        <ele>1727.8</ele>
        <time>2022-02-25T09:49:25Z</time>
      </trkpt>
      <trkpt lat="44.8151" lon="6.94862">
        <ele>1727.8</ele>
        <time>2022-02-25T09:49:26Z</time>
      </trkpt>
      <trkpt lat="44.8151" lon="6.94865">
        <ele>1728.1</ele>
        <time>2022-02-25T09:49:27Z</time>
      </trkpt>
      <trkpt lat="44.8151" lon="6.94865">
        <ele>1728.1</ele>
        <time>2022-02-25T09:49:28Z</time>
      </trkpt>
      <trkpt lat="44.8151" lon="6.94865">
        <ele>1728.1</ele>
        <time>2022-02-25T09:49:29Z</time>
      </trkpt>
      <trkpt lat="44.8151" lon="6.94868">
        <ele>1728.4</ele>
        <time>2022-02-25T09:49:30Z</time>
      </trkpt>
      <trkpt lat="44.8151" lon="6.94868">
        <ele>1728.4</ele>
        <time>2022-02-25T09:49:31Z</time>
      </trkpt>
      <trkpt lat="44.8151" lon="6.94868">
        <ele>1728.4</ele>
        <time>2022-02-25T09:49:32Z</time>
      </trkpt>
      <trkpt lat="44.8151" lon="6.94871">
        <ele>1728.7</ele>
        <time>2022-02-25T09:49:33Z</time>
      </trkpt>
      <trkpt lat="44.8151" lon="6.94871">
        <ele>1728.7</ele>
        <time>2022-02-25T09:49:34Z</time>
      </trkpt>
      <trkpt lat="44.8151" lon="6.94874">
        <ele>1729</ele>
        <time>2022-02-25T09:49:35Z</time>
      </trkpt>
      <trkpt lat="44.8151" lon="6.94874">
        <ele>1729</ele>
        <time>2022-02-25T09:49:36Z</time>
      </trkpt>
      <trkpt lat="44.81511" lon="6.94877">
        <ele>1729.9</ele>
        <time>2022-02-25T09:49:37Z</time>
      </trkpt>
      <trkpt lat="44.81511" lon="6.94877">
        <ele>1729.9</ele>
        <time>2022-02-25T09:49:38Z</time>
      </trkpt>
      <trkpt lat="44.81511" lon="6.94877">
        <ele>1729.9</ele>
        <time>2022-02-25T09:49:39Z</time>
      </trkpt>
      <trkpt lat="44.81511" lon="6.9488">
        <ele>1730.2</ele>
        <time>2022-02-25T09:49:40Z</time>
      </trkpt>
      <trkpt lat="44.81511" lon="6.9488">
        <ele>1730.2</ele>
        <time>2022-02-25T09:49:41Z</time>
      </trkpt>
      <trkpt lat="44.8151" lon="6.94883">
        <ele>1729.9</ele>
        <time>2022-02-25T09:49:42Z</time>
      </trkpt>
      <trkpt lat="44.8151" lon="6.94883">
        <ele>1729.9</ele>
        <time>2022-02-25T09:49:43Z</time>
      </trkpt>
      <trkpt lat="44.8151" lon="6.94883">
        <ele>1729.9</ele>
        <time>2022-02-25T09:49:44Z</time>
      </trkpt>
      <trkpt lat="44.81509" lon="6.94886">
        <ele>1729.6</ele>
        <time>2022-02-25T09:49:45Z</time>
      </trkpt>
      <trkpt lat="44.81509" lon="6.94886">
        <ele>1729.6</ele>
        <time>2022-02-25T09:49:46Z</time>
      </trkpt>
      <trkpt lat="44.81509" lon="6.94886">
        <ele>1729.6</ele>
        <time>2022-02-25T09:49:47Z</time>
      </trkpt>
      <trkpt lat="44.81508" lon="6.94889">
        <ele>1729.2</ele>
        <time>2022-02-25T09:49:48Z</time>
      </trkpt>
      <trkpt lat="44.81508" lon="6.94889">
        <ele>1729.2</ele>
        <time>2022-02-25T09:49:49Z</time>
      </trkpt>
      <trkpt lat="44.81508" lon="6.94892">
        <ele>1729.8</ele>
        <time>2022-02-25T09:49:50Z</time>
      </trkpt>
      <trkpt lat="44.81508" lon="6.94892">
        <ele>1729.8</ele>
        <time>2022-02-25T09:49:51Z</time>
      </trkpt>
      <trkpt lat="44.81507" lon="6.94895">
        <ele>1729.7</ele>
        <time>2022-02-25T09:49:52Z</time>
      </trkpt>
      <trkpt lat="44.81507" lon="6.94895">
        <ele>1729.7</ele>
        <time>2022-02-25T09:49:53Z</time>
      </trkpt>
      <trkpt lat="44.81507" lon="6.94898">
        <ele>1730.3</ele>
        <time>2022-02-25T09:49:54Z</time>
      </trkpt>
      <trkpt lat="44.81507" lon="6.94898">
        <ele>1730.3</ele>
        <time>2022-02-25T09:49:55Z</time>
      </trkpt>
      <trkpt lat="44.81506" lon="6.949">
        <ele>1730.1</ele>
        <time>2022-02-25T09:49:56Z</time>
      </trkpt>
      <trkpt lat="44.81506" lon="6.949">
        <ele>1730.1</ele>
        <time>2022-02-25T09:49:57Z</time>
      </trkpt>
      <trkpt lat="44.81504" lon="6.94903">
        <ele>1729.3</ele>
        <time>2022-02-25T09:49:58Z</time>
      </trkpt>
      <trkpt lat="44.81504" lon="6.94903">
        <ele>1729.3</ele>
        <time>2022-02-25T09:49:59Z</time>
      </trkpt>
      <trkpt lat="44.81503" lon="6.94906">
        <ele>1729.2</ele>
        <time>2022-02-25T09:50:00Z</time>
      </trkpt>
      <trkpt lat="44.81503" lon="6.94906">
        <ele>1729.2</ele>
        <time>2022-02-25T09:50:01Z</time>
      </trkpt>
      <trkpt lat="44.81502" lon="6.94909">
        <ele>1729</ele>
        <time>2022-02-25T09:50:02Z</time>
      </trkpt>
      <trkpt lat="44.81502" lon="6.94909">
        <ele>1729</ele>
        <time>2022-02-25T09:50:03Z</time>
      </trkpt>
      <trkpt lat="44.81502" lon="6.94909">
        <ele>1729</ele>
        <time>2022-02-25T09:50:04Z</time>
      </trkpt>
      <trkpt lat="44.81501" lon="6.94913">
        <ele>1729.1</ele>
        <time>2022-02-25T09:50:05Z</time>
      </trkpt>
      <trkpt lat="44.81501" lon="6.94913">
        <ele>1729.1</ele>
        <time>2022-02-25T09:50:06Z</time>
      </trkpt>
      <trkpt lat="44.815" lon="6.94916">
        <ele>1728.9</ele>
        <time>2022-02-25T09:50:07Z</time>
      </trkpt>
      <trkpt lat="44.815" lon="6.94916">
        <ele>1728.9</ele>
        <time>2022-02-25T09:50:08Z</time>
      </trkpt>
      <trkpt lat="44.815" lon="6.94916">
        <ele>1728.9</ele>
        <time>2022-02-25T09:50:09Z</time>
      </trkpt>
      <trkpt lat="44.81498" lon="6.94919">
        <ele>1729.3</ele>
        <time>2022-02-25T09:50:10Z</time>
      </trkpt>
      <trkpt lat="44.81498" lon="6.94919">
        <ele>1729.3</ele>
        <time>2022-02-25T09:50:11Z</time>
      </trkpt>
      <trkpt lat="44.81497" lon="6.94921">
        <ele>1729.6</ele>
        <time>2022-02-25T09:50:12Z</time>
      </trkpt>
      <trkpt lat="44.81497" lon="6.94921">
        <ele>1729.6</ele>
        <time>2022-02-25T09:50:13Z</time>
      </trkpt>
      <trkpt lat="44.81496" lon="6.94924">
        <ele>1730.1</ele>
        <time>2022-02-25T09:50:14Z</time>
      </trkpt>
      <trkpt lat="44.81496" lon="6.94924">
        <ele>1730.1</ele>
        <time>2022-02-25T09:50:15Z</time>
      </trkpt>
      <trkpt lat="44.81494" lon="6.94927">
        <ele>1730.4</ele>
        <time>2022-02-25T09:50:16Z</time>
      </trkpt>
      <trkpt lat="44.81494" lon="6.94927">
        <ele>1730.4</ele>
        <time>2022-02-25T09:50:17Z</time>
      </trkpt>
      <trkpt lat="44.81493" lon="6.94929">
        <ele>1730.7</ele>
        <time>2022-02-25T09:50:18Z</time>
      </trkpt>
      <trkpt lat="44.81493" lon="6.94929">
        <ele>1730.7</ele>
        <time>2022-02-25T09:50:19Z</time>
      </trkpt>
      <trkpt lat="44.81492" lon="6.94932">
        <ele>1731.1</ele>
        <time>2022-02-25T09:50:20Z</time>
      </trkpt>
      <trkpt lat="44.81492" lon="6.94932">
        <ele>1731.1</ele>
        <time>2022-02-25T09:50:21Z</time>
      </trkpt>
      <trkpt lat="44.8149" lon="6.94934">
        <ele>1731</ele>
        <time>2022-02-25T09:50:22Z</time>
      </trkpt>
      <trkpt lat="44.8149" lon="6.94934">
        <ele>1731</ele>
        <time>2022-02-25T09:50:23Z</time>
      </trkpt>
      <trkpt lat="44.8149" lon="6.94934">
        <ele>1731</ele>
        <time>2022-02-25T09:50:24Z</time>
      </trkpt>
      <trkpt lat="44.81489" lon="6.94937">
        <ele>1731.4</ele>
        <time>2022-02-25T09:50:25Z</time>
      </trkpt>
      <trkpt lat="44.81489" lon="6.94937">
        <ele>1731.4</ele>
        <time>2022-02-25T09:50:26Z</time>
      </trkpt>
      <trkpt lat="44.81487" lon="6.9494">
        <ele>1731.4</ele>
        <time>2022-02-25T09:50:27Z</time>
      </trkpt>
      <trkpt lat="44.81487" lon="6.9494">
        <ele>1731.4</ele>
        <time>2022-02-25T09:50:28Z</time>
      </trkpt>
      <trkpt lat="44.81485" lon="6.94942">
        <ele>1731.3</ele>
        <time>2022-02-25T09:50:29Z</time>
      </trkpt>
      <trkpt lat="44.81485" lon="6.94942">
        <ele>1731.3</ele>
        <time>2022-02-25T09:50:30Z</time>
      </trkpt>
      <trkpt lat="44.81485" lon="6.94945">
        <ele>1731.8</ele>
        <time>2022-02-25T09:50:31Z</time>
      </trkpt>
      <trkpt lat="44.81485" lon="6.94945">
        <ele>1731.8</ele>
        <time>2022-02-25T09:50:32Z</time>
      </trkpt>
      <trkpt lat="44.81485" lon="6.94945">
        <ele>1731.8</ele>
        <time>2022-02-25T09:50:33Z</time>
      </trkpt>
      <trkpt lat="44.81484" lon="6.94948">
        <ele>1731.9</ele>
        <time>2022-02-25T09:50:34Z</time>
      </trkpt>
      <trkpt lat="44.81484" lon="6.94948">
        <ele>1731.9</ele>
        <time>2022-02-25T09:50:35Z</time>
      </trkpt>
      <trkpt lat="44.81483" lon="6.9495">
        <ele>1731.8</ele>
        <time>2022-02-25T09:50:36Z</time>
      </trkpt>
      <trkpt lat="44.81483" lon="6.9495">
        <ele>1731.8</ele>
        <time>2022-02-25T09:50:37Z</time>
      </trkpt>
      <trkpt lat="44.81483" lon="6.9495">
        <ele>1731.8</ele>
        <time>2022-02-25T09:50:38Z</time>
      </trkpt>
      <trkpt lat="44.81482" lon="6.94954">
        <ele>1732</ele>
        <time>2022-02-25T09:50:39Z</time>
      </trkpt>
      <trkpt lat="44.81482" lon="6.94954">
        <ele>1732</ele>
        <time>2022-02-25T09:50:40Z</time>
      </trkpt>
      <trkpt lat="44.81482" lon="6.94954">
        <ele>1732</ele>
        <time>2022-02-25T09:50:41Z</time>
      </trkpt>
      <trkpt lat="44.8148" lon="6.94957">
        <ele>1731.7</ele>
        <time>2022-02-25T09:50:42Z</time>
      </trkpt>
      <trkpt lat="44.8148" lon="6.94957">
        <ele>1731.7</ele>
        <time>2022-02-25T09:50:43Z</time>
      </trkpt>
      <trkpt lat="44.8148" lon="6.94957">
        <ele>1731.7</ele>
        <time>2022-02-25T09:50:44Z</time>
      </trkpt>
      <trkpt lat="44.81478" lon="6.9496">
        <ele>1731.2</ele>
        <time>2022-02-25T09:50:45Z</time>
      </trkpt>
      <trkpt lat="44.81478" lon="6.9496">
        <ele>1731.2</ele>
        <time>2022-02-25T09:50:46Z</time>
      </trkpt>
      <trkpt lat="44.81477" lon="6.94962">
        <ele>1731.1</ele>
        <time>2022-02-25T09:50:47Z</time>
      </trkpt>
      <trkpt lat="44.81477" lon="6.94962">
        <ele>1731.1</ele>
        <time>2022-02-25T09:50:48Z</time>
      </trkpt>
      <trkpt lat="44.81477" lon="6.94962">
        <ele>1731.1</ele>
        <time>2022-02-25T09:50:49Z</time>
      </trkpt>
      <trkpt lat="44.81476" lon="6.94964">
        <ele>1730.9</ele>
        <time>2022-02-25T09:50:50Z</time>
      </trkpt>
      <trkpt lat="44.81476" lon="6.94964">
        <ele>1730.9</ele>
        <time>2022-02-25T09:50:51Z</time>
      </trkpt>
      <trkpt lat="44.81476" lon="6.94964">
        <ele>1730.9</ele>
        <time>2022-02-25T09:50:52Z</time>
      </trkpt>
      <trkpt lat="44.81476" lon="6.94964">
        <ele>1730.9</ele>
        <time>2022-02-25T09:50:53Z</time>
      </trkpt>
      <trkpt lat="44.81476" lon="6.94964">
        <ele>1730.9</ele>
        <time>2022-02-25T09:50:54Z</time>
      </trkpt>
      <trkpt lat="44.81476" lon="6.94964">
        <ele>1730.9</ele>
        <time>2022-02-25T09:50:55Z</time>
      </trkpt>
      <trkpt lat="44.81476" lon="6.94964">
        <ele>1730.9</ele>
        <time>2022-02-25T09:50:56Z</time>
      </trkpt>
      <trkpt lat="44.81476" lon="6.94964">
        <ele>1730.9</ele>
        <time>2022-02-25T09:50:57Z</time>
      </trkpt>
      <trkpt lat="44.81476" lon="6.94964">
        <ele>1730.9</ele>
        <time>2022-02-25T09:50:58Z</time>
      </trkpt>
      <trkpt lat="44.81476" lon="6.94964">
        <ele>1730.9</ele>
        <time>2022-02-25T09:50:59Z</time>
      </trkpt>
      <trkpt lat="44.81476" lon="6.94964">
        <ele>1730.9</ele>
        <time>2022-02-25T09:51:00Z</time>
      </trkpt>
      <trkpt lat="44.81475" lon="6.94966">
        <ele>1730.7</ele>
        <time>2022-02-25T09:51:01Z</time>
      </trkpt>
      <trkpt lat="44.81475" lon="6.94966">
        <ele>1730.7</ele>
        <time>2022-02-25T09:51:02Z</time>
      </trkpt>
      <trkpt lat="44.81475" lon="6.94966">
        <ele>1730.7</ele>
        <time>2022-02-25T09:51:03Z</time>
      </trkpt>
      <trkpt lat="44.81473" lon="6.94969">
        <ele>1730.1</ele>
        <time>2022-02-25T09:51:04Z</time>
      </trkpt>
      <trkpt lat="44.81473" lon="6.94969">
        <ele>1730.1</ele>
        <time>2022-02-25T09:51:05Z</time>
      </trkpt>
      <trkpt lat="44.81472" lon="6.94971">
        <ele>1729.9</ele>
        <time>2022-02-25T09:51:06Z</time>
      </trkpt>
      <trkpt lat="44.81472" lon="6.94971">
        <ele>1729.9</ele>
        <time>2022-02-25T09:51:07Z</time>
      </trkpt>
      <trkpt lat="44.81471" lon="6.94973">
        <ele>1730.1</ele>
        <time>2022-02-25T09:51:08Z</time>
      </trkpt>
      <trkpt lat="44.81471" lon="6.94973">
        <ele>1730.1</ele>
        <time>2022-02-25T09:51:09Z</time>
      </trkpt>
      <trkpt lat="44.8147" lon="6.94976">
        <ele>1730.4</ele>
        <time>2022-02-25T09:51:10Z</time>
      </trkpt>
      <trkpt lat="44.8147" lon="6.94976">
        <ele>1730.4</ele>
        <time>2022-02-25T09:51:11Z</time>
      </trkpt>
      <trkpt lat="44.81468" lon="6.94977">
        <ele>1730.5</ele>
        <time>2022-02-25T09:51:12Z</time>
      </trkpt>
      <trkpt lat="44.81468" lon="6.94977">
        <ele>1730.5</ele>
        <time>2022-02-25T09:51:13Z</time>
      </trkpt>
      <trkpt lat="44.81467" lon="6.94979">
        <ele>1730.7</ele>
        <time>2022-02-25T09:51:14Z</time>
      </trkpt>
      <trkpt lat="44.81467" lon="6.94979">
        <ele>1730.7</ele>
        <time>2022-02-25T09:51:15Z</time>
      </trkpt>
      <trkpt lat="44.81467" lon="6.94979">
        <ele>1730.7</ele>
        <time>2022-02-25T09:51:16Z</time>
      </trkpt>
      <trkpt lat="44.81465" lon="6.94982">
        <ele>1731</ele>
        <time>2022-02-25T09:51:17Z</time>
      </trkpt>
      <trkpt lat="44.81465" lon="6.94982">
        <ele>1731</ele>
        <time>2022-02-25T09:51:18Z</time>
      </trkpt>
      <trkpt lat="44.81464" lon="6.94984">
        <ele>1731.1</ele>
        <time>2022-02-25T09:51:19Z</time>
      </trkpt>
      <trkpt lat="44.81464" lon="6.94984">
        <ele>1731.1</ele>
        <time>2022-02-25T09:51:20Z</time>
      </trkpt>
      <trkpt lat="44.81463" lon="6.94987">
        <ele>1731.4</ele>
        <time>2022-02-25T09:51:21Z</time>
      </trkpt>
      <trkpt lat="44.81463" lon="6.94987">
        <ele>1731.4</ele>
        <time>2022-02-25T09:51:22Z</time>
      </trkpt>
      <trkpt lat="44.81462" lon="6.9499">
        <ele>1731.7</ele>
        <time>2022-02-25T09:51:23Z</time>
      </trkpt>
      <trkpt lat="44.81462" lon="6.9499">
        <ele>1731.7</ele>
        <time>2022-02-25T09:51:24Z</time>
      </trkpt>
      <trkpt lat="44.81461" lon="6.94992">
        <ele>1731.8</ele>
        <time>2022-02-25T09:51:25Z</time>
      </trkpt>
      <trkpt lat="44.81461" lon="6.94992">
        <ele>1731.8</ele>
        <time>2022-02-25T09:51:26Z</time>
      </trkpt>
      <trkpt lat="44.81461" lon="6.94992">
        <ele>1731.8</ele>
        <time>2022-02-25T09:51:27Z</time>
      </trkpt>
      <trkpt lat="44.8146" lon="6.94995">
        <ele>1732.1</ele>
        <time>2022-02-25T09:51:28Z</time>
      </trkpt>
      <trkpt lat="44.8146" lon="6.94995">
        <ele>1732.1</ele>
        <time>2022-02-25T09:51:29Z</time>
      </trkpt>
      <trkpt lat="44.81459" lon="6.94997">
        <ele>1732.3</ele>
        <time>2022-02-25T09:51:30Z</time>
      </trkpt>
      <trkpt lat="44.81459" lon="6.94997">
        <ele>1732.3</ele>
        <time>2022-02-25T09:51:31Z</time>
      </trkpt>
      <trkpt lat="44.81459" lon="6.94997">
        <ele>1732.3</ele>
        <time>2022-02-25T09:51:32Z</time>
      </trkpt>
      <trkpt lat="44.81458" lon="6.95">
        <ele>1732.5</ele>
        <time>2022-02-25T09:51:33Z</time>
      </trkpt>
      <trkpt lat="44.81458" lon="6.95">
        <ele>1732.5</ele>
        <time>2022-02-25T09:51:34Z</time>
      </trkpt>
      <trkpt lat="44.81456" lon="6.95002">
        <ele>1732.7</ele>
        <time>2022-02-25T09:51:35Z</time>
      </trkpt>
      <trkpt lat="44.81456" lon="6.95002">
        <ele>1732.7</ele>
        <time>2022-02-25T09:51:36Z</time>
      </trkpt>
      <trkpt lat="44.81455" lon="6.95005">
        <ele>1733.1</ele>
        <time>2022-02-25T09:51:37Z</time>
      </trkpt>
      <trkpt lat="44.81455" lon="6.95005">
        <ele>1733.1</ele>
        <time>2022-02-25T09:51:38Z</time>
      </trkpt>
      <trkpt lat="44.81454" lon="6.95008">
        <ele>1733.4</ele>
        <time>2022-02-25T09:51:39Z</time>
      </trkpt>
      <trkpt lat="44.81454" lon="6.95008">
        <ele>1733.4</ele>
        <time>2022-02-25T09:51:40Z</time>
      </trkpt>
      <trkpt lat="44.81454" lon="6.95008">
        <ele>1733.4</ele>
        <time>2022-02-25T09:51:41Z</time>
      </trkpt>
      <trkpt lat="44.81454" lon="6.95011">
        <ele>1733.8</ele>
        <time>2022-02-25T09:51:42Z</time>
      </trkpt>
      <trkpt lat="44.81454" lon="6.95011">
        <ele>1733.8</ele>
        <time>2022-02-25T09:51:43Z</time>
      </trkpt>
      <trkpt lat="44.81453" lon="6.95014">
        <ele>1734.1</ele>
        <time>2022-02-25T09:51:44Z</time>
      </trkpt>
      <trkpt lat="44.81453" lon="6.95014">
        <ele>1734.1</ele>
        <time>2022-02-25T09:51:45Z</time>
      </trkpt>
      <trkpt lat="44.81451" lon="6.95016">
        <ele>1734.1</ele>
        <time>2022-02-25T09:51:46Z</time>
      </trkpt>
      <trkpt lat="44.81451" lon="6.95016">
        <ele>1734.1</ele>
        <time>2022-02-25T09:51:47Z</time>
      </trkpt>
      <trkpt lat="44.81451" lon="6.95016">
        <ele>1734.1</ele>
        <time>2022-02-25T09:51:48Z</time>
      </trkpt>
      <trkpt lat="44.8145" lon="6.95019">
        <ele>1734.3</ele>
        <time>2022-02-25T09:51:49Z</time>
      </trkpt>
      <trkpt lat="44.8145" lon="6.95019">
        <ele>1734.3</ele>
        <time>2022-02-25T09:51:50Z</time>
      </trkpt>
      <trkpt lat="44.81449" lon="6.95022">
        <ele>1734.4</ele>
        <time>2022-02-25T09:51:51Z</time>
      </trkpt>
      <trkpt lat="44.81449" lon="6.95022">
        <ele>1734.4</ele>
        <time>2022-02-25T09:51:52Z</time>
      </trkpt>
      <trkpt lat="44.81449" lon="6.95022">
        <ele>1734.4</ele>
        <time>2022-02-25T09:51:53Z</time>
      </trkpt>
      <trkpt lat="44.81448" lon="6.95024">
        <ele>1734.4</ele>
        <time>2022-02-25T09:51:54Z</time>
      </trkpt>
      <trkpt lat="44.81448" lon="6.95024">
        <ele>1734.4</ele>
        <time>2022-02-25T09:51:55Z</time>
      </trkpt>
      <trkpt lat="44.81448" lon="6.95024">
        <ele>1734.4</ele>
        <time>2022-02-25T09:51:56Z</time>
      </trkpt>
      <trkpt lat="44.81448" lon="6.95028">
        <ele>1734.8</ele>
        <time>2022-02-25T09:51:57Z</time>
      </trkpt>
      <trkpt lat="44.81448" lon="6.95028">
        <ele>1734.8</ele>
        <time>2022-02-25T09:51:58Z</time>
      </trkpt>
      <trkpt lat="44.81446" lon="6.9503">
        <ele>1734.7</ele>
        <time>2022-02-25T09:51:59Z</time>
      </trkpt>
      <trkpt lat="44.81446" lon="6.9503">
        <ele>1734.7</ele>
        <time>2022-02-25T09:52:00Z</time>
      </trkpt>
      <trkpt lat="44.81446" lon="6.9503">
        <ele>1734.7</ele>
        <time>2022-02-25T09:52:01Z</time>
      </trkpt>
      <trkpt lat="44.81446" lon="6.9503">
        <ele>1734.7</ele>
        <time>2022-02-25T09:52:02Z</time>
      </trkpt>
      <trkpt lat="44.81446" lon="6.9503">
        <ele>1734.7</ele>
        <time>2022-02-25T09:52:03Z</time>
      </trkpt>
      <trkpt lat="44.81446" lon="6.9503">
        <ele>1734.7</ele>
        <time>2022-02-25T09:52:04Z</time>
      </trkpt>
      <trkpt lat="44.81446" lon="6.95033">
        <ele>1735.1</ele>
        <time>2022-02-25T09:52:05Z</time>
      </trkpt>
      <trkpt lat="44.81446" lon="6.95033">
        <ele>1735.1</ele>
        <time>2022-02-25T09:52:06Z</time>
      </trkpt>
      <trkpt lat="44.81446" lon="6.95033">
        <ele>1735.1</ele>
        <time>2022-02-25T09:52:07Z</time>
      </trkpt>
      <trkpt lat="44.81446" lon="6.95033">
        <ele>1735.1</ele>
        <time>2022-02-25T09:52:08Z</time>
      </trkpt>
      <trkpt lat="44.81445" lon="6.95035">
        <ele>1735.2</ele>
        <time>2022-02-25T09:52:09Z</time>
      </trkpt>
      <trkpt lat="44.81445" lon="6.95035">
        <ele>1735.2</ele>
        <time>2022-02-25T09:52:10Z</time>
      </trkpt>
      <trkpt lat="44.81445" lon="6.95035">
        <ele>1735.2</ele>
        <time>2022-02-25T09:52:11Z</time>
      </trkpt>
      <trkpt lat="44.81444" lon="6.95038">
        <ele>1735.5</ele>
        <time>2022-02-25T09:52:12Z</time>
      </trkpt>
      <trkpt lat="44.81444" lon="6.95038">
        <ele>1735.5</ele>
        <time>2022-02-25T09:52:13Z</time>
      </trkpt>
      <trkpt lat="44.81444" lon="6.95038">
        <ele>1735.5</ele>
        <time>2022-02-25T09:52:14Z</time>
      </trkpt>
      <trkpt lat="44.81443" lon="6.95041">
        <ele>1735.9</ele>
        <time>2022-02-25T09:52:15Z</time>
      </trkpt>
      <trkpt lat="44.81443" lon="6.95041">
        <ele>1735.9</ele>
        <time>2022-02-25T09:52:16Z</time>
      </trkpt>
      <trkpt lat="44.81443" lon="6.95041">
        <ele>1735.9</ele>
        <time>2022-02-25T09:52:17Z</time>
      </trkpt>
      <trkpt lat="44.81442" lon="6.95044">
        <ele>1736.2</ele>
        <time>2022-02-25T09:52:18Z</time>
      </trkpt>
      <trkpt lat="44.81442" lon="6.95044">
        <ele>1736.2</ele>
        <time>2022-02-25T09:52:19Z</time>
      </trkpt>
      <trkpt lat="44.81442" lon="6.95044">
        <ele>1736.2</ele>
        <time>2022-02-25T09:52:20Z</time>
      </trkpt>
      <trkpt lat="44.81441" lon="6.95047">
        <ele>1736.6</ele>
        <time>2022-02-25T09:52:21Z</time>
      </trkpt>
      <trkpt lat="44.81441" lon="6.95047">
        <ele>1736.6</ele>
        <time>2022-02-25T09:52:22Z</time>
      </trkpt>
      <trkpt lat="44.81441" lon="6.95047">
        <ele>1736.6</ele>
        <time>2022-02-25T09:52:23Z</time>
      </trkpt>
      <trkpt lat="44.8144" lon="6.9505">
        <ele>1736.9</ele>
        <time>2022-02-25T09:52:24Z</time>
      </trkpt>
      <trkpt lat="44.8144" lon="6.9505">
        <ele>1736.9</ele>
        <time>2022-02-25T09:52:25Z</time>
      </trkpt>
      <trkpt lat="44.81439" lon="6.95053">
        <ele>1737.3</ele>
        <time>2022-02-25T09:52:26Z</time>
      </trkpt>
      <trkpt lat="44.81439" lon="6.95053">
        <ele>1737.3</ele>
        <time>2022-02-25T09:52:27Z</time>
      </trkpt>
      <trkpt lat="44.81438" lon="6.95056">
        <ele>1737.6</ele>
        <time>2022-02-25T09:52:28Z</time>
      </trkpt>
      <trkpt lat="44.81438" lon="6.95056">
        <ele>1737.6</ele>
        <time>2022-02-25T09:52:29Z</time>
      </trkpt>
      <trkpt lat="44.81438" lon="6.95058">
        <ele>1737.9</ele>
        <time>2022-02-25T09:52:30Z</time>
      </trkpt>
      <trkpt lat="44.81438" lon="6.95058">
        <ele>1737.9</ele>
        <time>2022-02-25T09:52:31Z</time>
      </trkpt>
      <trkpt lat="44.81438" lon="6.95058">
        <ele>1737.9</ele>
        <time>2022-02-25T09:52:32Z</time>
      </trkpt>
      <trkpt lat="44.81437" lon="6.95061">
        <ele>1738.3</ele>
        <time>2022-02-25T09:52:33Z</time>
      </trkpt>
      <trkpt lat="44.81437" lon="6.95061">
        <ele>1738.3</ele>
        <time>2022-02-25T09:52:34Z</time>
      </trkpt>
      <trkpt lat="44.81437" lon="6.95063">
        <ele>1738.7</ele>
        <time>2022-02-25T09:52:35Z</time>
      </trkpt>
      <trkpt lat="44.81437" lon="6.95063">
        <ele>1738.7</ele>
        <time>2022-02-25T09:52:36Z</time>
      </trkpt>
      <trkpt lat="44.81437" lon="6.95063">
        <ele>1738.7</ele>
        <time>2022-02-25T09:52:37Z</time>
      </trkpt>
      <trkpt lat="44.81437" lon="6.95067">
        <ele>1739.3</ele>
        <time>2022-02-25T09:52:38Z</time>
      </trkpt>
      <trkpt lat="44.81437" lon="6.95067">
        <ele>1739.3</ele>
        <time>2022-02-25T09:52:39Z</time>
      </trkpt>
      <trkpt lat="44.81436" lon="6.95069">
        <ele>1739.5</ele>
        <time>2022-02-25T09:52:40Z</time>
      </trkpt>
      <trkpt lat="44.81436" lon="6.95069">
        <ele>1739.5</ele>
        <time>2022-02-25T09:52:41Z</time>
      </trkpt>
      <trkpt lat="44.81436" lon="6.95069">
        <ele>1739.5</ele>
        <time>2022-02-25T09:52:42Z</time>
      </trkpt>
      <trkpt lat="44.81435" lon="6.95072">
        <ele>1739.9</ele>
        <time>2022-02-25T09:52:43Z</time>
      </trkpt>
      <trkpt lat="44.81435" lon="6.95072">
        <ele>1739.9</ele>
        <time>2022-02-25T09:52:44Z</time>
      </trkpt>
      <trkpt lat="44.81435" lon="6.95072">
        <ele>1739.9</ele>
        <time>2022-02-25T09:52:45Z</time>
      </trkpt>
      <trkpt lat="44.81433" lon="6.95075">
        <ele>1740.1</ele>
        <time>2022-02-25T09:52:46Z</time>
      </trkpt>
      <trkpt lat="44.81433" lon="6.95075">
        <ele>1740.1</ele>
        <time>2022-02-25T09:52:47Z</time>
      </trkpt>
      <trkpt lat="44.81433" lon="6.95075">
        <ele>1740.1</ele>
        <time>2022-02-25T09:52:48Z</time>
      </trkpt>
      <trkpt lat="44.81432" lon="6.95078">
        <ele>1740.4</ele>
        <time>2022-02-25T09:52:49Z</time>
      </trkpt>
      <trkpt lat="44.81432" lon="6.95078">
        <ele>1740.4</ele>
        <time>2022-02-25T09:52:50Z</time>
      </trkpt>
      <trkpt lat="44.81431" lon="6.9508">
        <ele>1740.6</ele>
        <time>2022-02-25T09:52:51Z</time>
      </trkpt>
      <trkpt lat="44.81431" lon="6.9508">
        <ele>1740.6</ele>
        <time>2022-02-25T09:52:52Z</time>
      </trkpt>
      <trkpt lat="44.8143" lon="6.95083">
        <ele>1740.9</ele>
        <time>2022-02-25T09:52:53Z</time>
      </trkpt>
      <trkpt lat="44.8143" lon="6.95083">
        <ele>1740.9</ele>
        <time>2022-02-25T09:52:54Z</time>
      </trkpt>
      <trkpt lat="44.8143" lon="6.95083">
        <ele>1740.9</ele>
        <time>2022-02-25T09:52:55Z</time>
      </trkpt>
      <trkpt lat="44.81429" lon="6.95086">
        <ele>1741.1</ele>
        <time>2022-02-25T09:52:56Z</time>
      </trkpt>
      <trkpt lat="44.81429" lon="6.95086">
        <ele>1741.1</ele>
        <time>2022-02-25T09:52:57Z</time>
      </trkpt>
      <trkpt lat="44.81429" lon="6.95088">
        <ele>1741.4</ele>
        <time>2022-02-25T09:52:58Z</time>
      </trkpt>
      <trkpt lat="44.81429" lon="6.95088">
        <ele>1741.4</ele>
        <time>2022-02-25T09:52:59Z</time>
      </trkpt>
      <trkpt lat="44.81429" lon="6.95088">
        <ele>1741.4</ele>
        <time>2022-02-25T09:53:00Z</time>
      </trkpt>
      <trkpt lat="44.81428" lon="6.95091">
        <ele>1741.6</ele>
        <time>2022-02-25T09:53:01Z</time>
      </trkpt>
      <trkpt lat="44.81428" lon="6.95091">
        <ele>1741.6</ele>
        <time>2022-02-25T09:53:02Z</time>
      </trkpt>
      <trkpt lat="44.81427" lon="6.95093">
        <ele>1741.7</ele>
        <time>2022-02-25T09:53:03Z</time>
      </trkpt>
      <trkpt lat="44.81427" lon="6.95093">
        <ele>1741.7</ele>
        <time>2022-02-25T09:53:04Z</time>
      </trkpt>
      <trkpt lat="44.81427" lon="6.95093">
        <ele>1741.7</ele>
        <time>2022-02-25T09:53:05Z</time>
      </trkpt>
      <trkpt lat="44.81426" lon="6.95097">
        <ele>1742</ele>
        <time>2022-02-25T09:53:06Z</time>
      </trkpt>
      <trkpt lat="44.81426" lon="6.95097">
        <ele>1742</ele>
        <time>2022-02-25T09:53:07Z</time>
      </trkpt>
      <trkpt lat="44.81425" lon="6.95099">
        <ele>1742</ele>
        <time>2022-02-25T09:53:08Z</time>
      </trkpt>
      <trkpt lat="44.81425" lon="6.95099">
        <ele>1742</ele>
        <time>2022-02-25T09:53:09Z</time>
      </trkpt>
      <trkpt lat="44.81424" lon="6.95101">
        <ele>1742</ele>
        <time>2022-02-25T09:53:10Z</time>
      </trkpt>
      <trkpt lat="44.81424" lon="6.95101">
        <ele>1742</ele>
        <time>2022-02-25T09:53:11Z</time>
      </trkpt>
      <trkpt lat="44.81422" lon="6.95103">
        <ele>1741.7</ele>
        <time>2022-02-25T09:53:12Z</time>
      </trkpt>
      <trkpt lat="44.81422" lon="6.95103">
        <ele>1741.7</ele>
        <time>2022-02-25T09:53:13Z</time>
      </trkpt>
      <trkpt lat="44.81422" lon="6.95106">
        <ele>1742</ele>
        <time>2022-02-25T09:53:14Z</time>
      </trkpt>
      <trkpt lat="44.81422" lon="6.95106">
        <ele>1742</ele>
        <time>2022-02-25T09:53:15Z</time>
      </trkpt>
      <trkpt lat="44.81422" lon="6.95106">
        <ele>1742</ele>
        <time>2022-02-25T09:53:16Z</time>
      </trkpt>
      <trkpt lat="44.81421" lon="6.95109">
        <ele>1742</ele>
        <time>2022-02-25T09:53:17Z</time>
      </trkpt>
      <trkpt lat="44.81421" lon="6.95109">
        <ele>1742</ele>
        <time>2022-02-25T09:53:18Z</time>
      </trkpt>
      <trkpt lat="44.81421" lon="6.95112">
        <ele>1742.5</ele>
        <time>2022-02-25T09:53:19Z</time>
      </trkpt>
      <trkpt lat="44.81421" lon="6.95112">
        <ele>1742.5</ele>
        <time>2022-02-25T09:53:20Z</time>
      </trkpt>
      <trkpt lat="44.81421" lon="6.95112">
        <ele>1742.5</ele>
        <time>2022-02-25T09:53:21Z</time>
      </trkpt>
      <trkpt lat="44.8142" lon="6.95116">
        <ele>1743.1</ele>
        <time>2022-02-25T09:53:22Z</time>
      </trkpt>
      <trkpt lat="44.8142" lon="6.95116">
        <ele>1743.1</ele>
        <time>2022-02-25T09:53:23Z</time>
      </trkpt>
      <trkpt lat="44.81418" lon="6.95118">
        <ele>1742.9</ele>
        <time>2022-02-25T09:53:24Z</time>
      </trkpt>
      <trkpt lat="44.81418" lon="6.95118">
        <ele>1742.9</ele>
        <time>2022-02-25T09:53:25Z</time>
      </trkpt>
      <trkpt lat="44.81418" lon="6.95121">
        <ele>1743.6</ele>
        <time>2022-02-25T09:53:26Z</time>
      </trkpt>
      <trkpt lat="44.81418" lon="6.95121">
        <ele>1743.6</ele>
        <time>2022-02-25T09:53:27Z</time>
      </trkpt>
      <trkpt lat="44.81417" lon="6.95123">
        <ele>1743.7</ele>
        <time>2022-02-25T09:53:28Z</time>
      </trkpt>
      <trkpt lat="44.81417" lon="6.95123">
        <ele>1743.7</ele>
        <time>2022-02-25T09:53:29Z</time>
      </trkpt>
      <trkpt lat="44.81417" lon="6.95123">
        <ele>1743.7</ele>
        <time>2022-02-25T09:53:30Z</time>
      </trkpt>
      <trkpt lat="44.81416" lon="6.95127">
        <ele>1744.4</ele>
        <time>2022-02-25T09:53:31Z</time>
      </trkpt>
      <trkpt lat="44.81416" lon="6.95127">
        <ele>1744.4</ele>
        <time>2022-02-25T09:53:32Z</time>
      </trkpt>
      <trkpt lat="44.81416" lon="6.95129">
        <ele>1744.8</ele>
        <time>2022-02-25T09:53:33Z</time>
      </trkpt>
      <trkpt lat="44.81416" lon="6.95129">
        <ele>1744.8</ele>
        <time>2022-02-25T09:53:34Z</time>
      </trkpt>
      <trkpt lat="44.81414" lon="6.95131">
        <ele>1744.9</ele>
        <time>2022-02-25T09:53:35Z</time>
      </trkpt>
      <trkpt lat="44.81414" lon="6.95131">
        <ele>1744.9</ele>
        <time>2022-02-25T09:53:36Z</time>
      </trkpt>
      <trkpt lat="44.81413" lon="6.95133">
        <ele>1745.2</ele>
        <time>2022-02-25T09:53:37Z</time>
      </trkpt>
      <trkpt lat="44.81413" lon="6.95133">
        <ele>1745.2</ele>
        <time>2022-02-25T09:53:38Z</time>
      </trkpt>
      <trkpt lat="44.81413" lon="6.95133">
        <ele>1745.2</ele>
        <time>2022-02-25T09:53:39Z</time>
      </trkpt>
      <trkpt lat="44.81412" lon="6.95136">
        <ele>1745.6</ele>
        <time>2022-02-25T09:53:40Z</time>
      </trkpt>
      <trkpt lat="44.81412" lon="6.95136">
        <ele>1745.6</ele>
        <time>2022-02-25T09:53:41Z</time>
      </trkpt>
      <trkpt lat="44.81412" lon="6.95136">
        <ele>1745.6</ele>
        <time>2022-02-25T09:53:42Z</time>
      </trkpt>
      <trkpt lat="44.81411" lon="6.95139">
        <ele>1746</ele>
        <time>2022-02-25T09:53:43Z</time>
      </trkpt>
      <trkpt lat="44.81411" lon="6.95139">
        <ele>1746</ele>
        <time>2022-02-25T09:53:44Z</time>
      </trkpt>
      <trkpt lat="44.8141" lon="6.95141">
        <ele>1746.2</ele>
        <time>2022-02-25T09:53:45Z</time>
      </trkpt>
      <trkpt lat="44.8141" lon="6.95141">
        <ele>1746.2</ele>
        <time>2022-02-25T09:53:46Z</time>
      </trkpt>
      <trkpt lat="44.8141" lon="6.95141">
        <ele>1746.2</ele>
        <time>2022-02-25T09:53:47Z</time>
      </trkpt>
      <trkpt lat="44.81409" lon="6.95144">
        <ele>1746.5</ele>
        <time>2022-02-25T09:53:48Z</time>
      </trkpt>
      <trkpt lat="44.81409" lon="6.95144">
        <ele>1746.5</ele>
        <time>2022-02-25T09:53:49Z</time>
      </trkpt>
      <trkpt lat="44.81407" lon="6.95146">
        <ele>1746.4</ele>
        <time>2022-02-25T09:53:50Z</time>
      </trkpt>
      <trkpt lat="44.81407" lon="6.95146">
        <ele>1746.4</ele>
        <time>2022-02-25T09:53:51Z</time>
      </trkpt>
      <trkpt lat="44.81407" lon="6.95146">
        <ele>1746.4</ele>
        <time>2022-02-25T09:53:52Z</time>
      </trkpt>
      <trkpt lat="44.81406" lon="6.95149">
        <ele>1746.7</ele>
        <time>2022-02-25T09:53:53Z</time>
      </trkpt>
      <trkpt lat="44.81406" lon="6.95149">
        <ele>1746.7</ele>
        <time>2022-02-25T09:53:54Z</time>
      </trkpt>
      <trkpt lat="44.81404" lon="6.95151">
        <ele>1746.5</ele>
        <time>2022-02-25T09:53:55Z</time>
      </trkpt>
      <trkpt lat="44.81404" lon="6.95151">
        <ele>1746.5</ele>
        <time>2022-02-25T09:53:56Z</time>
      </trkpt>
      <trkpt lat="44.81404" lon="6.95151">
        <ele>1746.5</ele>
        <time>2022-02-25T09:53:57Z</time>
      </trkpt>
      <trkpt lat="44.81404" lon="6.95151">
        <ele>1746.5</ele>
        <time>2022-02-25T09:53:58Z</time>
      </trkpt>
      <trkpt lat="44.81404" lon="6.95151">
        <ele>1746.5</ele>
        <time>2022-02-25T09:53:59Z</time>
      </trkpt>
      <trkpt lat="44.81402" lon="6.95154">
        <ele>1746.5</ele>
        <time>2022-02-25T09:54:00Z</time>
      </trkpt>
      <trkpt lat="44.81402" lon="6.95154">
        <ele>1746.5</ele>
        <time>2022-02-25T09:54:01Z</time>
      </trkpt>
      <trkpt lat="44.81401" lon="6.95156">
        <ele>1746.5</ele>
        <time>2022-02-25T09:54:02Z</time>
      </trkpt>
      <trkpt lat="44.81401" lon="6.95156">
        <ele>1746.5</ele>
        <time>2022-02-25T09:54:03Z</time>
      </trkpt>
      <trkpt lat="44.814" lon="6.95158">
        <ele>1746.5</ele>
        <time>2022-02-25T09:54:04Z</time>
      </trkpt>
      <trkpt lat="44.814" lon="6.95158">
        <ele>1746.5</ele>
        <time>2022-02-25T09:54:05Z</time>
      </trkpt>
      <trkpt lat="44.814" lon="6.95158">
        <ele>1746.5</ele>
        <time>2022-02-25T09:54:06Z</time>
      </trkpt>
      <trkpt lat="44.81398" lon="6.95161">
        <ele>1746.3</ele>
        <time>2022-02-25T09:54:07Z</time>
      </trkpt>
      <trkpt lat="44.81398" lon="6.95161">
        <ele>1746.3</ele>
        <time>2022-02-25T09:54:08Z</time>
      </trkpt>
      <trkpt lat="44.81398" lon="6.95161">
        <ele>1746.3</ele>
        <time>2022-02-25T09:54:09Z</time>
      </trkpt>
      <trkpt lat="44.81397" lon="6.95165">
        <ele>1746.4</ele>
        <time>2022-02-25T09:54:10Z</time>
      </trkpt>
      <trkpt lat="44.81397" lon="6.95165">
        <ele>1746.4</ele>
        <time>2022-02-25T09:54:11Z</time>
      </trkpt>
      <trkpt lat="44.81396" lon="6.95167">
        <ele>1746.3</ele>
        <time>2022-02-25T09:54:12Z</time>
      </trkpt>
      <trkpt lat="44.81396" lon="6.95167">
        <ele>1746.3</ele>
        <time>2022-02-25T09:54:13Z</time>
      </trkpt>
      <trkpt lat="44.81395" lon="6.95169">
        <ele>1746.3</ele>
        <time>2022-02-25T09:54:14Z</time>
      </trkpt>
      <trkpt lat="44.81395" lon="6.95169">
        <ele>1746.3</ele>
        <time>2022-02-25T09:54:15Z</time>
      </trkpt>
      <trkpt lat="44.81394" lon="6.95171">
        <ele>1746.2</ele>
        <time>2022-02-25T09:54:16Z</time>
      </trkpt>
      <trkpt lat="44.81394" lon="6.95171">
        <ele>1746.2</ele>
        <time>2022-02-25T09:54:17Z</time>
      </trkpt>
      <trkpt lat="44.81392" lon="6.95173">
        <ele>1745.7</ele>
        <time>2022-02-25T09:54:18Z</time>
      </trkpt>
      <trkpt lat="44.81392" lon="6.95173">
        <ele>1745.7</ele>
        <time>2022-02-25T09:54:19Z</time>
      </trkpt>
      <trkpt lat="44.81392" lon="6.95173">
        <ele>1745.7</ele>
        <time>2022-02-25T09:54:20Z</time>
      </trkpt>
      <trkpt lat="44.81392" lon="6.95176">
        <ele>1746.1</ele>
        <time>2022-02-25T09:54:21Z</time>
      </trkpt>
      <trkpt lat="44.81392" lon="6.95176">
        <ele>1746.1</ele>
        <time>2022-02-25T09:54:22Z</time>
      </trkpt>
      <trkpt lat="44.8139" lon="6.95178">
        <ele>1745.6</ele>
        <time>2022-02-25T09:54:23Z</time>
      </trkpt>
      <trkpt lat="44.8139" lon="6.95178">
        <ele>1745.6</ele>
        <time>2022-02-25T09:54:24Z</time>
      </trkpt>
      <trkpt lat="44.81389" lon="6.9518">
        <ele>1745.5</ele>
        <time>2022-02-25T09:54:25Z</time>
      </trkpt>
      <trkpt lat="44.81389" lon="6.9518">
        <ele>1745.5</ele>
        <time>2022-02-25T09:54:26Z</time>
      </trkpt>
      <trkpt lat="44.81389" lon="6.9518">
        <ele>1745.5</ele>
        <time>2022-02-25T09:54:27Z</time>
      </trkpt>
      <trkpt lat="44.81387" lon="6.95183">
        <ele>1745.8</ele>
        <time>2022-02-25T09:54:28Z</time>
      </trkpt>
      <trkpt lat="44.81387" lon="6.95183">
        <ele>1745.8</ele>
        <time>2022-02-25T09:54:29Z</time>
      </trkpt>
      <trkpt lat="44.81385" lon="6.95185">
        <ele>1746</ele>
        <time>2022-02-25T09:54:30Z</time>
      </trkpt>
      <trkpt lat="44.81385" lon="6.95185">
        <ele>1746</ele>
        <time>2022-02-25T09:54:31Z</time>
      </trkpt>
      <trkpt lat="44.81384" lon="6.95188">
        <ele>1746.3</ele>
        <time>2022-02-25T09:54:32Z</time>
      </trkpt>
      <trkpt lat="44.81384" lon="6.95188">
        <ele>1746.3</ele>
        <time>2022-02-25T09:54:33Z</time>
      </trkpt>
      <trkpt lat="44.81383" lon="6.9519">
        <ele>1746.6</ele>
        <time>2022-02-25T09:54:34Z</time>
      </trkpt>
      <trkpt lat="44.81383" lon="6.9519">
        <ele>1746.6</ele>
        <time>2022-02-25T09:54:35Z</time>
      </trkpt>
      <trkpt lat="44.81382" lon="6.95192">
        <ele>1746.8</ele>
        <time>2022-02-25T09:54:36Z</time>
      </trkpt>
      <trkpt lat="44.81382" lon="6.95192">
        <ele>1746.8</ele>
        <time>2022-02-25T09:54:37Z</time>
      </trkpt>
      <trkpt lat="44.81382" lon="6.95192">
        <ele>1746.8</ele>
        <time>2022-02-25T09:54:38Z</time>
      </trkpt>
      <trkpt lat="44.81381" lon="6.95195">
        <ele>1747.1</ele>
        <time>2022-02-25T09:54:39Z</time>
      </trkpt>
      <trkpt lat="44.81381" lon="6.95195">
        <ele>1747.1</ele>
        <time>2022-02-25T09:54:40Z</time>
      </trkpt>
      <trkpt lat="44.81381" lon="6.95195">
        <ele>1747.1</ele>
        <time>2022-02-25T09:54:41Z</time>
      </trkpt>
      <trkpt lat="44.81379" lon="6.95198">
        <ele>1747.5</ele>
        <time>2022-02-25T09:54:42Z</time>
      </trkpt>
      <trkpt lat="44.81379" lon="6.95198">
        <ele>1747.5</ele>
        <time>2022-02-25T09:54:43Z</time>
      </trkpt>
      <trkpt lat="44.81379" lon="6.95198">
        <ele>1747.5</ele>
        <time>2022-02-25T09:54:44Z</time>
      </trkpt>
      <trkpt lat="44.81378" lon="6.95201">
        <ele>1747.8</ele>
        <time>2022-02-25T09:54:45Z</time>
      </trkpt>
      <trkpt lat="44.81378" lon="6.95201">
        <ele>1747.8</ele>
        <time>2022-02-25T09:54:46Z</time>
      </trkpt>
      <trkpt lat="44.81378" lon="6.95201">
        <ele>1747.8</ele>
        <time>2022-02-25T09:54:47Z</time>
      </trkpt>
      <trkpt lat="44.81376" lon="6.95203">
        <ele>1748</ele>
        <time>2022-02-25T09:54:48Z</time>
      </trkpt>
      <trkpt lat="44.81376" lon="6.95203">
        <ele>1748</ele>
        <time>2022-02-25T09:54:49Z</time>
      </trkpt>
      <trkpt lat="44.81375" lon="6.95206">
        <ele>1748.2</ele>
        <time>2022-02-25T09:54:50Z</time>
      </trkpt>
      <trkpt lat="44.81375" lon="6.95206">
        <ele>1748.2</ele>
        <time>2022-02-25T09:54:51Z</time>
      </trkpt>
      <trkpt lat="44.81373" lon="6.95208">
        <ele>1748.3</ele>
        <time>2022-02-25T09:54:52Z</time>
      </trkpt>
      <trkpt lat="44.81373" lon="6.95208">
        <ele>1748.3</ele>
        <time>2022-02-25T09:54:53Z</time>
      </trkpt>
      <trkpt lat="44.81373" lon="6.95208">
        <ele>1748.3</ele>
        <time>2022-02-25T09:54:54Z</time>
      </trkpt>
      <trkpt lat="44.81372" lon="6.9521">
        <ele>1748.4</ele>
        <time>2022-02-25T09:54:55Z</time>
      </trkpt>
      <trkpt lat="44.81372" lon="6.9521">
        <ele>1748.4</ele>
        <time>2022-02-25T09:54:56Z</time>
      </trkpt>
      <trkpt lat="44.8137" lon="6.95211">
        <ele>1748.4</ele>
        <time>2022-02-25T09:54:57Z</time>
      </trkpt>
      <trkpt lat="44.8137" lon="6.95211">
        <ele>1748.4</ele>
        <time>2022-02-25T09:54:58Z</time>
      </trkpt>
      <trkpt lat="44.81369" lon="6.95213">
        <ele>1748.4</ele>
        <time>2022-02-25T09:54:59Z</time>
      </trkpt>
      <trkpt lat="44.81369" lon="6.95213">
        <ele>1748.4</ele>
        <time>2022-02-25T09:55:00Z</time>
      </trkpt>
      <trkpt lat="44.81367" lon="6.95215">
        <ele>1748.4</ele>
        <time>2022-02-25T09:55:01Z</time>
      </trkpt>
      <trkpt lat="44.81367" lon="6.95215">
        <ele>1748.4</ele>
        <time>2022-02-25T09:55:02Z</time>
      </trkpt>
      <trkpt lat="44.81367" lon="6.95218">
        <ele>1748.6</ele>
        <time>2022-02-25T09:55:03Z</time>
      </trkpt>
      <trkpt lat="44.81367" lon="6.95218">
        <ele>1748.6</ele>
        <time>2022-02-25T09:55:04Z</time>
      </trkpt>
      <trkpt lat="44.81367" lon="6.95218">
        <ele>1748.6</ele>
        <time>2022-02-25T09:55:05Z</time>
      </trkpt>
      <trkpt lat="44.81365" lon="6.9522">
        <ele>1748.4</ele>
        <time>2022-02-25T09:55:06Z</time>
      </trkpt>
      <trkpt lat="44.81365" lon="6.9522">
        <ele>1748.4</ele>
        <time>2022-02-25T09:55:07Z</time>
      </trkpt>
      <trkpt lat="44.81365" lon="6.9522">
        <ele>1748.4</ele>
        <time>2022-02-25T09:55:08Z</time>
      </trkpt>
      <trkpt lat="44.81364" lon="6.95223">
        <ele>1748.5</ele>
        <time>2022-02-25T09:55:09Z</time>
      </trkpt>
      <trkpt lat="44.81364" lon="6.95223">
        <ele>1748.5</ele>
        <time>2022-02-25T09:55:10Z</time>
      </trkpt>
      <trkpt lat="44.81362" lon="6.95225">
        <ele>1748.3</ele>
        <time>2022-02-25T09:55:11Z</time>
      </trkpt>
      <trkpt lat="44.81362" lon="6.95225">
        <ele>1748.3</ele>
        <time>2022-02-25T09:55:12Z</time>
      </trkpt>
      <trkpt lat="44.81362" lon="6.95225">
        <ele>1748.3</ele>
        <time>2022-02-25T09:55:13Z</time>
      </trkpt>
      <trkpt lat="44.81361" lon="6.95227">
        <ele>1748.4</ele>
        <time>2022-02-25T09:55:14Z</time>
      </trkpt>
      <trkpt lat="44.81361" lon="6.95227">
        <ele>1748.4</ele>
        <time>2022-02-25T09:55:15Z</time>
      </trkpt>
      <trkpt lat="44.81359" lon="6.95229">
        <ele>1748.6</ele>
        <time>2022-02-25T09:55:16Z</time>
      </trkpt>
      <trkpt lat="44.81359" lon="6.95229">
        <ele>1748.6</ele>
        <time>2022-02-25T09:55:17Z</time>
      </trkpt>
      <trkpt lat="44.81359" lon="6.95229">
        <ele>1748.6</ele>
        <time>2022-02-25T09:55:18Z</time>
      </trkpt>
      <trkpt lat="44.81358" lon="6.95232">
        <ele>1748.9</ele>
        <time>2022-02-25T09:55:19Z</time>
      </trkpt>
      <trkpt lat="44.81358" lon="6.95232">
        <ele>1748.9</ele>
        <time>2022-02-25T09:55:20Z</time>
      </trkpt>
      <trkpt lat="44.81357" lon="6.95234">
        <ele>1749.1</ele>
        <time>2022-02-25T09:55:21Z</time>
      </trkpt>
      <trkpt lat="44.81357" lon="6.95234">
        <ele>1749.1</ele>
        <time>2022-02-25T09:55:22Z</time>
      </trkpt>
      <trkpt lat="44.81356" lon="6.95236">
        <ele>1749.3</ele>
        <time>2022-02-25T09:55:23Z</time>
      </trkpt>
      <trkpt lat="44.81356" lon="6.95236">
        <ele>1749.3</ele>
        <time>2022-02-25T09:55:24Z</time>
      </trkpt>
      <trkpt lat="44.81356" lon="6.95236">
        <ele>1749.3</ele>
        <time>2022-02-25T09:55:25Z</time>
      </trkpt>
      <trkpt lat="44.81355" lon="6.95238">
        <ele>1749.5</ele>
        <time>2022-02-25T09:55:26Z</time>
      </trkpt>
      <trkpt lat="44.81355" lon="6.95238">
        <ele>1749.5</ele>
        <time>2022-02-25T09:55:27Z</time>
      </trkpt>
      <trkpt lat="44.81353" lon="6.9524">
        <ele>1749.7</ele>
        <time>2022-02-25T09:55:28Z</time>
      </trkpt>
      <trkpt lat="44.81353" lon="6.9524">
        <ele>1749.7</ele>
        <time>2022-02-25T09:55:29Z</time>
      </trkpt>
      <trkpt lat="44.81353" lon="6.9524">
        <ele>1749.7</ele>
        <time>2022-02-25T09:55:30Z</time>
      </trkpt>
      <trkpt lat="44.81352" lon="6.95243">
        <ele>1749.9</ele>
        <time>2022-02-25T09:55:31Z</time>
      </trkpt>
      <trkpt lat="44.81352" lon="6.95243">
        <ele>1749.9</ele>
        <time>2022-02-25T09:55:32Z</time>
      </trkpt>
      <trkpt lat="44.81352" lon="6.95243">
        <ele>1749.9</ele>
        <time>2022-02-25T09:55:33Z</time>
      </trkpt>
      <trkpt lat="44.8135" lon="6.95246">
        <ele>1750.2</ele>
        <time>2022-02-25T09:55:34Z</time>
      </trkpt>
      <trkpt lat="44.8135" lon="6.95246">
        <ele>1750.2</ele>
        <time>2022-02-25T09:55:35Z</time>
      </trkpt>
      <trkpt lat="44.81349" lon="6.95249">
        <ele>1750.4</ele>
        <time>2022-02-25T09:55:36Z</time>
      </trkpt>
      <trkpt lat="44.81349" lon="6.95249">
        <ele>1750.4</ele>
        <time>2022-02-25T09:55:37Z</time>
      </trkpt>
      <trkpt lat="44.81348" lon="6.95251">
        <ele>1750.7</ele>
        <time>2022-02-25T09:55:38Z</time>
      </trkpt>
      <trkpt lat="44.81348" lon="6.95251">
        <ele>1750.7</ele>
        <time>2022-02-25T09:55:39Z</time>
      </trkpt>
      <trkpt lat="44.81348" lon="6.95251">
        <ele>1750.7</ele>
        <time>2022-02-25T09:55:40Z</time>
      </trkpt>
      <trkpt lat="44.81346" lon="6.95255">
        <ele>1751.8</ele>
        <time>2022-02-25T09:55:41Z</time>
      </trkpt>
      <trkpt lat="44.81346" lon="6.95255">
        <ele>1751.8</ele>
        <time>2022-02-25T09:55:42Z</time>
      </trkpt>
      <trkpt lat="44.81344" lon="6.95257">
        <ele>1752.3</ele>
        <time>2022-02-25T09:55:43Z</time>
      </trkpt>
      <trkpt lat="44.81344" lon="6.95257">
        <ele>1752.3</ele>
        <time>2022-02-25T09:55:44Z</time>
      </trkpt>
      <trkpt lat="44.81344" lon="6.95257">
        <ele>1752.3</ele>
        <time>2022-02-25T09:55:45Z</time>
      </trkpt>
      <trkpt lat="44.81343" lon="6.95259">
        <ele>1752.7</ele>
        <time>2022-02-25T09:55:46Z</time>
      </trkpt>
      <trkpt lat="44.81343" lon="6.95259">
        <ele>1752.7</ele>
        <time>2022-02-25T09:55:47Z</time>
      </trkpt>
      <trkpt lat="44.81343" lon="6.95259">
        <ele>1752.7</ele>
        <time>2022-02-25T09:55:48Z</time>
      </trkpt>
      <trkpt lat="44.81342" lon="6.95262">
        <ele>1753.4</ele>
        <time>2022-02-25T09:55:49Z</time>
      </trkpt>
      <trkpt lat="44.81342" lon="6.95262">
        <ele>1753.4</ele>
        <time>2022-02-25T09:55:50Z</time>
      </trkpt>
      <trkpt lat="44.81341" lon="6.95264">
        <ele>1753.7</ele>
        <time>2022-02-25T09:55:51Z</time>
      </trkpt>
      <trkpt lat="44.81341" lon="6.95264">
        <ele>1753.7</ele>
        <time>2022-02-25T09:55:52Z</time>
      </trkpt>
      <trkpt lat="44.81341" lon="6.95264">
        <ele>1753.7</ele>
        <time>2022-02-25T09:55:53Z</time>
      </trkpt>
      <trkpt lat="44.81339" lon="6.95267">
        <ele>1754.1</ele>
        <time>2022-02-25T09:55:54Z</time>
      </trkpt>
      <trkpt lat="44.81339" lon="6.95267">
        <ele>1754.1</ele>
        <time>2022-02-25T09:55:55Z</time>
      </trkpt>
      <trkpt lat="44.81339" lon="6.95267">
        <ele>1754.1</ele>
        <time>2022-02-25T09:55:56Z</time>
      </trkpt>
      <trkpt lat="44.81338" lon="6.95269">
        <ele>1754.4</ele>
        <time>2022-02-25T09:55:57Z</time>
      </trkpt>
      <trkpt lat="44.81338" lon="6.95269">
        <ele>1754.4</ele>
        <time>2022-02-25T09:55:58Z</time>
      </trkpt>
      <trkpt lat="44.81338" lon="6.95269">
        <ele>1754.4</ele>
        <time>2022-02-25T09:55:59Z</time>
      </trkpt>
      <trkpt lat="44.81337" lon="6.95272">
        <ele>1754.8</ele>
        <time>2022-02-25T09:56:00Z</time>
      </trkpt>
      <trkpt lat="44.81337" lon="6.95272">
        <ele>1754.8</ele>
        <time>2022-02-25T09:56:01Z</time>
      </trkpt>
      <trkpt lat="44.81337" lon="6.95272">
        <ele>1754.8</ele>
        <time>2022-02-25T09:56:02Z</time>
      </trkpt>
      <trkpt lat="44.81335" lon="6.95275">
        <ele>1754.9</ele>
        <time>2022-02-25T09:56:03Z</time>
      </trkpt>
      <trkpt lat="44.81335" lon="6.95275">
        <ele>1754.9</ele>
        <time>2022-02-25T09:56:04Z</time>
      </trkpt>
      <trkpt lat="44.81335" lon="6.95275">
        <ele>1754.9</ele>
        <time>2022-02-25T09:56:05Z</time>
      </trkpt>
      <trkpt lat="44.81334" lon="6.95278">
        <ele>1755.2</ele>
        <time>2022-02-25T09:56:06Z</time>
      </trkpt>
      <trkpt lat="44.81334" lon="6.95278">
        <ele>1755.2</ele>
        <time>2022-02-25T09:56:07Z</time>
      </trkpt>
      <trkpt lat="44.81334" lon="6.95278">
        <ele>1755.2</ele>
        <time>2022-02-25T09:56:08Z</time>
      </trkpt>
      <trkpt lat="44.81333" lon="6.95281">
        <ele>1756.2</ele>
        <time>2022-02-25T09:56:09Z</time>
      </trkpt>
      <trkpt lat="44.81333" lon="6.95281">
        <ele>1756.2</ele>
        <time>2022-02-25T09:56:10Z</time>
      </trkpt>
      <trkpt lat="44.81333" lon="6.95281">
        <ele>1756.2</ele>
        <time>2022-02-25T09:56:11Z</time>
      </trkpt>
      <trkpt lat="44.81333" lon="6.95283">
        <ele>1756.9</ele>
        <time>2022-02-25T09:56:12Z</time>
      </trkpt>
      <trkpt lat="44.81333" lon="6.95283">
        <ele>1756.9</ele>
        <time>2022-02-25T09:56:13Z</time>
      </trkpt>
      <trkpt lat="44.81333" lon="6.95286">
        <ele>1758</ele>
        <time>2022-02-25T09:56:14Z</time>
      </trkpt>
      <trkpt lat="44.81333" lon="6.95286">
        <ele>1758</ele>
        <time>2022-02-25T09:56:15Z</time>
      </trkpt>
      <trkpt lat="44.81331" lon="6.95288">
        <ele>1758.6</ele>
        <time>2022-02-25T09:56:16Z</time>
      </trkpt>
      <trkpt lat="44.81331" lon="6.95288">
        <ele>1758.6</ele>
        <time>2022-02-25T09:56:17Z</time>
      </trkpt>
      <trkpt lat="44.8133" lon="6.9529">
        <ele>1759.1</ele>
        <time>2022-02-25T09:56:18Z</time>
      </trkpt>
      <trkpt lat="44.8133" lon="6.9529">
        <ele>1759.1</ele>
        <time>2022-02-25T09:56:19Z</time>
      </trkpt>
      <trkpt lat="44.8133" lon="6.9529">
        <ele>1759.1</ele>
        <time>2022-02-25T09:56:20Z</time>
      </trkpt>
      <trkpt lat="44.81329" lon="6.95292">
        <ele>1759.6</ele>
        <time>2022-02-25T09:56:21Z</time>
      </trkpt>
      <trkpt lat="44.81329" lon="6.95292">
        <ele>1759.6</ele>
        <time>2022-02-25T09:56:22Z</time>
      </trkpt>
      <trkpt lat="44.81329" lon="6.95292">
        <ele>1759.6</ele>
        <time>2022-02-25T09:56:23Z</time>
      </trkpt>
      <trkpt lat="44.81327" lon="6.95295">
        <ele>1760.2</ele>
        <time>2022-02-25T09:56:24Z</time>
      </trkpt>
      <trkpt lat="44.81327" lon="6.95295">
        <ele>1760.2</ele>
        <time>2022-02-25T09:56:25Z</time>
      </trkpt>
      <trkpt lat="44.81327" lon="6.95295">
        <ele>1760.2</ele>
        <time>2022-02-25T09:56:26Z</time>
      </trkpt>
      <trkpt lat="44.81325" lon="6.95297">
        <ele>1760.3</ele>
        <time>2022-02-25T09:56:27Z</time>
      </trkpt>
      <trkpt lat="44.81325" lon="6.95297">
        <ele>1760.3</ele>
        <time>2022-02-25T09:56:28Z</time>
      </trkpt>
      <trkpt lat="44.81324" lon="6.95299">
        <ele>1760.6</ele>
        <time>2022-02-25T09:56:29Z</time>
      </trkpt>
      <trkpt lat="44.81324" lon="6.95299">
        <ele>1760.6</ele>
        <time>2022-02-25T09:56:30Z</time>
      </trkpt>
      <trkpt lat="44.81324" lon="6.95299">
        <ele>1760.6</ele>
        <time>2022-02-25T09:56:31Z</time>
      </trkpt>
      <trkpt lat="44.81323" lon="6.95302">
        <ele>1760.9</ele>
        <time>2022-02-25T09:56:32Z</time>
      </trkpt>
      <trkpt lat="44.81323" lon="6.95302">
        <ele>1760.9</ele>
        <time>2022-02-25T09:56:33Z</time>
      </trkpt>
      <trkpt lat="44.81323" lon="6.95302">
        <ele>1760.9</ele>
        <time>2022-02-25T09:56:34Z</time>
      </trkpt>
      <trkpt lat="44.81322" lon="6.95304">
        <ele>1761</ele>
        <time>2022-02-25T09:56:35Z</time>
      </trkpt>
      <trkpt lat="44.81322" lon="6.95304">
        <ele>1761</ele>
        <time>2022-02-25T09:56:36Z</time>
      </trkpt>
      <trkpt lat="44.81322" lon="6.95304">
        <ele>1761</ele>
        <time>2022-02-25T09:56:37Z</time>
      </trkpt>
      <trkpt lat="44.81321" lon="6.95307">
        <ele>1761.5</ele>
        <time>2022-02-25T09:56:38Z</time>
      </trkpt>
      <trkpt lat="44.81321" lon="6.95307">
        <ele>1761.5</ele>
        <time>2022-02-25T09:56:39Z</time>
      </trkpt>
      <trkpt lat="44.81319" lon="6.95309">
        <ele>1761.5</ele>
        <time>2022-02-25T09:56:40Z</time>
      </trkpt>
      <trkpt lat="44.81319" lon="6.95309">
        <ele>1761.5</ele>
        <time>2022-02-25T09:56:41Z</time>
      </trkpt>
      <trkpt lat="44.81317" lon="6.9531">
        <ele>1761.1</ele>
        <time>2022-02-25T09:56:42Z</time>
      </trkpt>
      <trkpt lat="44.81317" lon="6.9531">
        <ele>1761.1</ele>
        <time>2022-02-25T09:56:43Z</time>
      </trkpt>
      <trkpt lat="44.81317" lon="6.9531">
        <ele>1761.1</ele>
        <time>2022-02-25T09:56:44Z</time>
      </trkpt>
      <trkpt lat="44.81317" lon="6.95313">
        <ele>1762.1</ele>
        <time>2022-02-25T09:56:45Z</time>
      </trkpt>
      <trkpt lat="44.81317" lon="6.95313">
        <ele>1762.1</ele>
        <time>2022-02-25T09:56:46Z</time>
      </trkpt>
      <trkpt lat="44.81316" lon="6.95315">
        <ele>1762.4</ele>
        <time>2022-02-25T09:56:47Z</time>
      </trkpt>
      <trkpt lat="44.81316" lon="6.95315">
        <ele>1762.4</ele>
        <time>2022-02-25T09:56:48Z</time>
      </trkpt>
      <trkpt lat="44.81316" lon="6.95315">
        <ele>1762.4</ele>
        <time>2022-02-25T09:56:49Z</time>
      </trkpt>
      <trkpt lat="44.81315" lon="6.95318">
        <ele>1762.9</ele>
        <time>2022-02-25T09:56:50Z</time>
      </trkpt>
      <trkpt lat="44.81315" lon="6.95318">
        <ele>1762.9</ele>
        <time>2022-02-25T09:56:51Z</time>
      </trkpt>
      <trkpt lat="44.81315" lon="6.95318">
        <ele>1762.9</ele>
        <time>2022-02-25T09:56:52Z</time>
      </trkpt>
      <trkpt lat="44.81315" lon="6.95321">
        <ele>1763.9</ele>
        <time>2022-02-25T09:56:53Z</time>
      </trkpt>
      <trkpt lat="44.81315" lon="6.95321">
        <ele>1763.9</ele>
        <time>2022-02-25T09:56:54Z</time>
      </trkpt>
      <trkpt lat="44.81313" lon="6.95323">
        <ele>1763.8</ele>
        <time>2022-02-25T09:56:55Z</time>
      </trkpt>
      <trkpt lat="44.81313" lon="6.95323">
        <ele>1763.8</ele>
        <time>2022-02-25T09:56:56Z</time>
      </trkpt>
      <trkpt lat="44.81313" lon="6.95323">
        <ele>1763.8</ele>
        <time>2022-02-25T09:56:57Z</time>
      </trkpt>
      <trkpt lat="44.81312" lon="6.95326">
        <ele>1764.3</ele>
        <time>2022-02-25T09:56:58Z</time>
      </trkpt>
      <trkpt lat="44.81312" lon="6.95326">
        <ele>1764.3</ele>
        <time>2022-02-25T09:56:59Z</time>
      </trkpt>
      <trkpt lat="44.81312" lon="6.95326">
        <ele>1764.3</ele>
        <time>2022-02-25T09:57:00Z</time>
      </trkpt>
      <trkpt lat="44.81311" lon="6.95328">
        <ele>1764.5</ele>
        <time>2022-02-25T09:57:01Z</time>
      </trkpt>
      <trkpt lat="44.81311" lon="6.95328">
        <ele>1764.5</ele>
        <time>2022-02-25T09:57:02Z</time>
      </trkpt>
      <trkpt lat="44.81311" lon="6.95328">
        <ele>1764.5</ele>
        <time>2022-02-25T09:57:03Z</time>
      </trkpt>
      <trkpt lat="44.8131" lon="6.95331">
        <ele>1765.1</ele>
        <time>2022-02-25T09:57:04Z</time>
      </trkpt>
      <trkpt lat="44.8131" lon="6.95331">
        <ele>1765.1</ele>
        <time>2022-02-25T09:57:05Z</time>
      </trkpt>
      <trkpt lat="44.8131" lon="6.95331">
        <ele>1765.1</ele>
        <time>2022-02-25T09:57:06Z</time>
      </trkpt>
      <trkpt lat="44.81309" lon="6.95334">
        <ele>1765.6</ele>
        <time>2022-02-25T09:57:07Z</time>
      </trkpt>
      <trkpt lat="44.81309" lon="6.95334">
        <ele>1765.6</ele>
        <time>2022-02-25T09:57:08Z</time>
      </trkpt>
      <trkpt lat="44.81309" lon="6.95334">
        <ele>1765.6</ele>
        <time>2022-02-25T09:57:09Z</time>
      </trkpt>
      <trkpt lat="44.81308" lon="6.95336">
        <ele>1765.8</ele>
        <time>2022-02-25T09:57:10Z</time>
      </trkpt>
      <trkpt lat="44.81308" lon="6.95336">
        <ele>1765.8</ele>
        <time>2022-02-25T09:57:11Z</time>
      </trkpt>
      <trkpt lat="44.81308" lon="6.95336">
        <ele>1765.8</ele>
        <time>2022-02-25T09:57:12Z</time>
      </trkpt>
      <trkpt lat="44.81306" lon="6.95339">
        <ele>1766</ele>
        <time>2022-02-25T09:57:13Z</time>
      </trkpt>
      <trkpt lat="44.81306" lon="6.95339">
        <ele>1766</ele>
        <time>2022-02-25T09:57:14Z</time>
      </trkpt>
      <trkpt lat="44.81306" lon="6.95339">
        <ele>1766</ele>
        <time>2022-02-25T09:57:15Z</time>
      </trkpt>
      <trkpt lat="44.81305" lon="6.95341">
        <ele>1766.4</ele>
        <time>2022-02-25T09:57:16Z</time>
      </trkpt>
      <trkpt lat="44.81305" lon="6.95341">
        <ele>1766.4</ele>
        <time>2022-02-25T09:57:17Z</time>
      </trkpt>
      <trkpt lat="44.81305" lon="6.95341">
        <ele>1766.4</ele>
        <time>2022-02-25T09:57:18Z</time>
      </trkpt>
      <trkpt lat="44.81303" lon="6.95344">
        <ele>1766.9</ele>
        <time>2022-02-25T09:57:19Z</time>
      </trkpt>
      <trkpt lat="44.81303" lon="6.95344">
        <ele>1766.9</ele>
        <time>2022-02-25T09:57:20Z</time>
      </trkpt>
      <trkpt lat="44.81303" lon="6.95344">
        <ele>1766.9</ele>
        <time>2022-02-25T09:57:21Z</time>
      </trkpt>
      <trkpt lat="44.81303" lon="6.95346">
        <ele>1767.5</ele>
        <time>2022-02-25T09:57:22Z</time>
      </trkpt>
      <trkpt lat="44.81303" lon="6.95346">
        <ele>1767.5</ele>
        <time>2022-02-25T09:57:23Z</time>
      </trkpt>
      <trkpt lat="44.81303" lon="6.95346">
        <ele>1767.5</ele>
        <time>2022-02-25T09:57:24Z</time>
      </trkpt>
      <trkpt lat="44.81301" lon="6.95349">
        <ele>1767.8</ele>
        <time>2022-02-25T09:57:25Z</time>
      </trkpt>
      <trkpt lat="44.81301" lon="6.95349">
        <ele>1767.8</ele>
        <time>2022-02-25T09:57:26Z</time>
      </trkpt>
      <trkpt lat="44.81301" lon="6.95349">
        <ele>1767.8</ele>
        <time>2022-02-25T09:57:27Z</time>
      </trkpt>
      <trkpt lat="44.81301" lon="6.95349">
        <ele>1767.8</ele>
        <time>2022-02-25T09:57:28Z</time>
      </trkpt>
      <trkpt lat="44.81301" lon="6.95349">
        <ele>1767.8</ele>
        <time>2022-02-25T09:57:29Z</time>
      </trkpt>
      <trkpt lat="44.81301" lon="6.95349">
        <ele>1767.8</ele>
        <time>2022-02-25T09:57:30Z</time>
      </trkpt>
      <trkpt lat="44.81301" lon="6.95349">
        <ele>1767.8</ele>
        <time>2022-02-25T09:57:31Z</time>
      </trkpt>
      <trkpt lat="44.81301" lon="6.95351">
        <ele>1768.4</ele>
        <time>2022-02-25T09:57:32Z</time>
      </trkpt>
      <trkpt lat="44.81301" lon="6.95351">
        <ele>1768.4</ele>
        <time>2022-02-25T09:57:33Z</time>
      </trkpt>
      <trkpt lat="44.81301" lon="6.95351">
        <ele>1768.4</ele>
        <time>2022-02-25T09:57:34Z</time>
      </trkpt>
      <trkpt lat="44.81299" lon="6.95353">
        <ele>1768.3</ele>
        <time>2022-02-25T09:57:35Z</time>
      </trkpt>
      <trkpt lat="44.81299" lon="6.95353">
        <ele>1768.3</ele>
        <time>2022-02-25T09:57:36Z</time>
      </trkpt>
      <trkpt lat="44.81299" lon="6.95353">
        <ele>1768.3</ele>
        <time>2022-02-25T09:57:37Z</time>
      </trkpt>
      <trkpt lat="44.81298" lon="6.95355">
        <ele>1768.5</ele>
        <time>2022-02-25T09:57:38Z</time>
      </trkpt>
      <trkpt lat="44.81298" lon="6.95355">
        <ele>1768.5</ele>
        <time>2022-02-25T09:57:39Z</time>
      </trkpt>
      <trkpt lat="44.81298" lon="6.95355">
        <ele>1768.5</ele>
        <time>2022-02-25T09:57:40Z</time>
      </trkpt>
      <trkpt lat="44.81297" lon="6.95358">
        <ele>1768.9</ele>
        <time>2022-02-25T09:57:41Z</time>
      </trkpt>
      <trkpt lat="44.81297" lon="6.95358">
        <ele>1768.9</ele>
        <time>2022-02-25T09:57:42Z</time>
      </trkpt>
      <trkpt lat="44.81297" lon="6.95358">
        <ele>1768.9</ele>
        <time>2022-02-25T09:57:43Z</time>
      </trkpt>
      <trkpt lat="44.81297" lon="6.95358">
        <ele>1768.9</ele>
        <time>2022-02-25T09:57:44Z</time>
      </trkpt>
      <trkpt lat="44.81295" lon="6.9536">
        <ele>1768.6</ele>
        <time>2022-02-25T09:57:45Z</time>
      </trkpt>
      <trkpt lat="44.81295" lon="6.9536">
        <ele>1768.6</ele>
        <time>2022-02-25T09:57:46Z</time>
      </trkpt>
      <trkpt lat="44.81295" lon="6.9536">
        <ele>1768.6</ele>
        <time>2022-02-25T09:57:47Z</time>
      </trkpt>
      <trkpt lat="44.81293" lon="6.95362">
        <ele>1768.3</ele>
        <time>2022-02-25T09:57:48Z</time>
      </trkpt>
      <trkpt lat="44.81293" lon="6.95362">
        <ele>1768.3</ele>
        <time>2022-02-25T09:57:49Z</time>
      </trkpt>
      <trkpt lat="44.81293" lon="6.95362">
        <ele>1768.3</ele>
        <time>2022-02-25T09:57:50Z</time>
      </trkpt>
      <trkpt lat="44.81292" lon="6.95364">
        <ele>1768.5</ele>
        <time>2022-02-25T09:57:51Z</time>
      </trkpt>
      <trkpt lat="44.81292" lon="6.95364">
        <ele>1768.5</ele>
        <time>2022-02-25T09:57:52Z</time>
      </trkpt>
      <trkpt lat="44.81292" lon="6.95364">
        <ele>1768.5</ele>
        <time>2022-02-25T09:57:53Z</time>
      </trkpt>
      <trkpt lat="44.81291" lon="6.95367">
        <ele>1769</ele>
        <time>2022-02-25T09:57:54Z</time>
      </trkpt>
      <trkpt lat="44.81291" lon="6.95367">
        <ele>1769</ele>
        <time>2022-02-25T09:57:55Z</time>
      </trkpt>
      <trkpt lat="44.81291" lon="6.95367">
        <ele>1769</ele>
        <time>2022-02-25T09:57:56Z</time>
      </trkpt>
      <trkpt lat="44.8129" lon="6.9537">
        <ele>1769.5</ele>
        <time>2022-02-25T09:57:57Z</time>
      </trkpt>
      <trkpt lat="44.8129" lon="6.9537">
        <ele>1769.5</ele>
        <time>2022-02-25T09:57:58Z</time>
      </trkpt>
      <trkpt lat="44.8129" lon="6.9537">
        <ele>1769.5</ele>
        <time>2022-02-25T09:57:59Z</time>
      </trkpt>
      <trkpt lat="44.81288" lon="6.95372">
        <ele>1769.2</ele>
        <time>2022-02-25T09:58:00Z</time>
      </trkpt>
      <trkpt lat="44.81288" lon="6.95372">
        <ele>1769.2</ele>
        <time>2022-02-25T09:58:01Z</time>
      </trkpt>
      <trkpt lat="44.81288" lon="6.95372">
        <ele>1769.2</ele>
        <time>2022-02-25T09:58:02Z</time>
      </trkpt>
      <trkpt lat="44.81287" lon="6.95375">
        <ele>1769.6</ele>
        <time>2022-02-25T09:58:03Z</time>
      </trkpt>
      <trkpt lat="44.81287" lon="6.95375">
        <ele>1769.6</ele>
        <time>2022-02-25T09:58:04Z</time>
      </trkpt>
      <trkpt lat="44.81286" lon="6.95377">
        <ele>1769.8</ele>
        <time>2022-02-25T09:58:05Z</time>
      </trkpt>
      <trkpt lat="44.81286" lon="6.95377">
        <ele>1769.8</ele>
        <time>2022-02-25T09:58:06Z</time>
      </trkpt>
      <trkpt lat="44.81286" lon="6.95377">
        <ele>1769.8</ele>
        <time>2022-02-25T09:58:07Z</time>
      </trkpt>
      <trkpt lat="44.81285" lon="6.95379">
        <ele>1769.9</ele>
        <time>2022-02-25T09:58:08Z</time>
      </trkpt>
      <trkpt lat="44.81285" lon="6.95379">
        <ele>1769.9</ele>
        <time>2022-02-25T09:58:09Z</time>
      </trkpt>
      <trkpt lat="44.81285" lon="6.95379">
        <ele>1769.9</ele>
        <time>2022-02-25T09:58:10Z</time>
      </trkpt>
      <trkpt lat="44.81283" lon="6.95381">
        <ele>1769.5</ele>
        <time>2022-02-25T09:58:11Z</time>
      </trkpt>
      <trkpt lat="44.81283" lon="6.95381">
        <ele>1769.5</ele>
        <time>2022-02-25T09:58:12Z</time>
      </trkpt>
      <trkpt lat="44.81283" lon="6.95381">
        <ele>1769.5</ele>
        <time>2022-02-25T09:58:13Z</time>
      </trkpt>
      <trkpt lat="44.81281" lon="6.95384">
        <ele>1769.3</ele>
        <time>2022-02-25T09:58:14Z</time>
      </trkpt>
      <trkpt lat="44.81281" lon="6.95384">
        <ele>1769.3</ele>
        <time>2022-02-25T09:58:15Z</time>
      </trkpt>
      <trkpt lat="44.8128" lon="6.95386">
        <ele>1769.4</ele>
        <time>2022-02-25T09:58:16Z</time>
      </trkpt>
      <trkpt lat="44.8128" lon="6.95386">
        <ele>1769.4</ele>
        <time>2022-02-25T09:58:17Z</time>
      </trkpt>
      <trkpt lat="44.8128" lon="6.95386">
        <ele>1769.4</ele>
        <time>2022-02-25T09:58:18Z</time>
      </trkpt>
      <trkpt lat="44.81278" lon="6.95388">
        <ele>1768.9</ele>
        <time>2022-02-25T09:58:19Z</time>
      </trkpt>
      <trkpt lat="44.81278" lon="6.95388">
        <ele>1768.9</ele>
        <time>2022-02-25T09:58:20Z</time>
      </trkpt>
      <trkpt lat="44.81277" lon="6.9539">
        <ele>1769.2</ele>
        <time>2022-02-25T09:58:21Z</time>
      </trkpt>
      <trkpt lat="44.81277" lon="6.9539">
        <ele>1769.2</ele>
        <time>2022-02-25T09:58:22Z</time>
      </trkpt>
      <trkpt lat="44.81276" lon="6.95393">
        <ele>1769.7</ele>
        <time>2022-02-25T09:58:23Z</time>
      </trkpt>
      <trkpt lat="44.81276" lon="6.95393">
        <ele>1769.7</ele>
        <time>2022-02-25T09:58:24Z</time>
      </trkpt>
      <trkpt lat="44.81274" lon="6.95396">
        <ele>1770</ele>
        <time>2022-02-25T09:58:25Z</time>
      </trkpt>
      <trkpt lat="44.81274" lon="6.95396">
        <ele>1770</ele>
        <time>2022-02-25T09:58:26Z</time>
      </trkpt>
      <trkpt lat="44.81273" lon="6.95398">
        <ele>1770.2</ele>
        <time>2022-02-25T09:58:27Z</time>
      </trkpt>
      <trkpt lat="44.81273" lon="6.95398">
        <ele>1770.2</ele>
        <time>2022-02-25T09:58:28Z</time>
      </trkpt>
      <trkpt lat="44.81273" lon="6.95398">
        <ele>1770.2</ele>
        <time>2022-02-25T09:58:29Z</time>
      </trkpt>
      <trkpt lat="44.81271" lon="6.954">
        <ele>1770.1</ele>
        <time>2022-02-25T09:58:30Z</time>
      </trkpt>
      <trkpt lat="44.81271" lon="6.954">
        <ele>1770.1</ele>
        <time>2022-02-25T09:58:31Z</time>
      </trkpt>
      <trkpt lat="44.81271" lon="6.954">
        <ele>1770.1</ele>
        <time>2022-02-25T09:58:32Z</time>
      </trkpt>
      <trkpt lat="44.8127" lon="6.95403">
        <ele>1770.3</ele>
        <time>2022-02-25T09:58:33Z</time>
      </trkpt>
      <trkpt lat="44.8127" lon="6.95403">
        <ele>1770.3</ele>
        <time>2022-02-25T09:58:34Z</time>
      </trkpt>
      <trkpt lat="44.8127" lon="6.95403">
        <ele>1770.3</ele>
        <time>2022-02-25T09:58:35Z</time>
      </trkpt>
      <trkpt lat="44.8127" lon="6.95406">
        <ele>1770.7</ele>
        <time>2022-02-25T09:58:36Z</time>
      </trkpt>
      <trkpt lat="44.8127" lon="6.95406">
        <ele>1770.7</ele>
        <time>2022-02-25T09:58:37Z</time>
      </trkpt>
      <trkpt lat="44.8127" lon="6.95406">
        <ele>1770.7</ele>
        <time>2022-02-25T09:58:38Z</time>
      </trkpt>
      <trkpt lat="44.8127" lon="6.95409">
        <ele>1771.2</ele>
        <time>2022-02-25T09:58:39Z</time>
      </trkpt>
      <trkpt lat="44.8127" lon="6.95409">
        <ele>1771.2</ele>
        <time>2022-02-25T09:58:40Z</time>
      </trkpt>
      <trkpt lat="44.8127" lon="6.95409">
        <ele>1771.2</ele>
        <time>2022-02-25T09:58:41Z</time>
      </trkpt>
      <trkpt lat="44.81269" lon="6.95413">
        <ele>1771.4</ele>
        <time>2022-02-25T09:58:42Z</time>
      </trkpt>
      <trkpt lat="44.81269" lon="6.95413">
        <ele>1771.4</ele>
        <time>2022-02-25T09:58:43Z</time>
      </trkpt>
      <trkpt lat="44.81268" lon="6.95415">
        <ele>1771.2</ele>
        <time>2022-02-25T09:58:44Z</time>
      </trkpt>
      <trkpt lat="44.81268" lon="6.95415">
        <ele>1771.2</ele>
        <time>2022-02-25T09:58:45Z</time>
      </trkpt>
      <trkpt lat="44.81267" lon="6.95419">
        <ele>1771.2</ele>
        <time>2022-02-25T09:58:46Z</time>
      </trkpt>
      <trkpt lat="44.81267" lon="6.95419">
        <ele>1771.2</ele>
        <time>2022-02-25T09:58:47Z</time>
      </trkpt>
      <trkpt lat="44.81266" lon="6.95421">
        <ele>1771</ele>
        <time>2022-02-25T09:58:48Z</time>
      </trkpt>
      <trkpt lat="44.81266" lon="6.95421">
        <ele>1771</ele>
        <time>2022-02-25T09:58:49Z</time>
      </trkpt>
      <trkpt lat="44.81266" lon="6.95421">
        <ele>1771</ele>
        <time>2022-02-25T09:58:50Z</time>
      </trkpt>
      <trkpt lat="44.81265" lon="6.95424">
        <ele>1770.9</ele>
        <time>2022-02-25T09:58:51Z</time>
      </trkpt>
      <trkpt lat="44.81265" lon="6.95424">
        <ele>1770.9</ele>
        <time>2022-02-25T09:58:52Z</time>
      </trkpt>
      <trkpt lat="44.81265" lon="6.95424">
        <ele>1770.9</ele>
        <time>2022-02-25T09:58:53Z</time>
      </trkpt>
      <trkpt lat="44.81265" lon="6.95427">
        <ele>1771.2</ele>
        <time>2022-02-25T09:58:54Z</time>
      </trkpt>
      <trkpt lat="44.81265" lon="6.95427">
        <ele>1771.2</ele>
        <time>2022-02-25T09:58:55Z</time>
      </trkpt>
      <trkpt lat="44.81264" lon="6.9543">
        <ele>1771</ele>
        <time>2022-02-25T09:58:56Z</time>
      </trkpt>
      <trkpt lat="44.81264" lon="6.9543">
        <ele>1771</ele>
        <time>2022-02-25T09:58:57Z</time>
      </trkpt>
      <trkpt lat="44.81264" lon="6.9543">
        <ele>1771</ele>
        <time>2022-02-25T09:58:58Z</time>
      </trkpt>
      <trkpt lat="44.81264" lon="6.95433">
        <ele>1771.3</ele>
        <time>2022-02-25T09:58:59Z</time>
      </trkpt>
      <trkpt lat="44.81264" lon="6.95433">
        <ele>1771.3</ele>
        <time>2022-02-25T09:59:00Z</time>
      </trkpt>
      <trkpt lat="44.81264" lon="6.95433">
        <ele>1771.3</ele>
        <time>2022-02-25T09:59:01Z</time>
      </trkpt>
      <trkpt lat="44.81264" lon="6.95437">
        <ele>1771.8</ele>
        <time>2022-02-25T09:59:02Z</time>
      </trkpt>
      <trkpt lat="44.81264" lon="6.95437">
        <ele>1771.8</ele>
        <time>2022-02-25T09:59:03Z</time>
      </trkpt>
      <trkpt lat="44.81264" lon="6.9544">
        <ele>1772.1</ele>
        <time>2022-02-25T09:59:04Z</time>
      </trkpt>
      <trkpt lat="44.81264" lon="6.9544">
        <ele>1772.1</ele>
        <time>2022-02-25T09:59:05Z</time>
      </trkpt>
      <trkpt lat="44.81264" lon="6.9544">
        <ele>1772.1</ele>
        <time>2022-02-25T09:59:06Z</time>
      </trkpt>
      <trkpt lat="44.81263" lon="6.95443">
        <ele>1771.8</ele>
        <time>2022-02-25T09:59:07Z</time>
      </trkpt>
      <trkpt lat="44.81263" lon="6.95443">
        <ele>1771.8</ele>
        <time>2022-02-25T09:59:08Z</time>
      </trkpt>
      <trkpt lat="44.81262" lon="6.95446">
        <ele>1771.6</ele>
        <time>2022-02-25T09:59:09Z</time>
      </trkpt>
      <trkpt lat="44.81262" lon="6.95446">
        <ele>1771.6</ele>
        <time>2022-02-25T09:59:10Z</time>
      </trkpt>
      <trkpt lat="44.81262" lon="6.95446">
        <ele>1771.6</ele>
        <time>2022-02-25T09:59:11Z</time>
      </trkpt>
      <trkpt lat="44.81263" lon="6.95449">
        <ele>1772.8</ele>
        <time>2022-02-25T09:59:12Z</time>
      </trkpt>
      <trkpt lat="44.81263" lon="6.95449">
        <ele>1772.8</ele>
        <time>2022-02-25T09:59:13Z</time>
      </trkpt>
      <trkpt lat="44.81263" lon="6.95449">
        <ele>1772.8</ele>
        <time>2022-02-25T09:59:14Z</time>
      </trkpt>
      <trkpt lat="44.81263" lon="6.95452">
        <ele>1773.3</ele>
        <time>2022-02-25T09:59:15Z</time>
      </trkpt>
      <trkpt lat="44.81263" lon="6.95452">
        <ele>1773.3</ele>
        <time>2022-02-25T09:59:16Z</time>
      </trkpt>
      <trkpt lat="44.81263" lon="6.95455">
        <ele>1773.9</ele>
        <time>2022-02-25T09:59:17Z</time>
      </trkpt>
      <trkpt lat="44.81263" lon="6.95455">
        <ele>1773.9</ele>
        <time>2022-02-25T09:59:18Z</time>
      </trkpt>
      <trkpt lat="44.81263" lon="6.95455">
        <ele>1773.9</ele>
        <time>2022-02-25T09:59:19Z</time>
      </trkpt>
      <trkpt lat="44.81263" lon="6.95458">
        <ele>1774.4</ele>
        <time>2022-02-25T09:59:20Z</time>
      </trkpt>
      <trkpt lat="44.81263" lon="6.95458">
        <ele>1774.4</ele>
        <time>2022-02-25T09:59:21Z</time>
      </trkpt>
      <trkpt lat="44.81263" lon="6.95458">
        <ele>1774.4</ele>
        <time>2022-02-25T09:59:22Z</time>
      </trkpt>
      <trkpt lat="44.81263" lon="6.95461">
        <ele>1775</ele>
        <time>2022-02-25T09:59:23Z</time>
      </trkpt>
      <trkpt lat="44.81263" lon="6.95461">
        <ele>1775</ele>
        <time>2022-02-25T09:59:24Z</time>
      </trkpt>
      <trkpt lat="44.81263" lon="6.95461">
        <ele>1775</ele>
        <time>2022-02-25T09:59:25Z</time>
      </trkpt>
      <trkpt lat="44.81263" lon="6.95464">
        <ele>1775.5</ele>
        <time>2022-02-25T09:59:26Z</time>
      </trkpt>
      <trkpt lat="44.81263" lon="6.95464">
        <ele>1775.5</ele>
        <time>2022-02-25T09:59:27Z</time>
      </trkpt>
      <trkpt lat="44.81263" lon="6.95464">
        <ele>1775.5</ele>
        <time>2022-02-25T09:59:28Z</time>
      </trkpt>
      <trkpt lat="44.81263" lon="6.95464">
        <ele>1775.5</ele>
        <time>2022-02-25T09:59:29Z</time>
      </trkpt>
      <trkpt lat="44.81263" lon="6.95467">
        <ele>1776.1</ele>
        <time>2022-02-25T09:59:30Z</time>
      </trkpt>
      <trkpt lat="44.81263" lon="6.95467">
        <ele>1776.1</ele>
        <time>2022-02-25T09:59:31Z</time>
      </trkpt>
      <trkpt lat="44.81263" lon="6.95467">
        <ele>1776.1</ele>
        <time>2022-02-25T09:59:32Z</time>
      </trkpt>
      <trkpt lat="44.81263" lon="6.95467">
        <ele>1776.1</ele>
        <time>2022-02-25T09:59:33Z</time>
      </trkpt>
      <trkpt lat="44.81263" lon="6.95467">
        <ele>1776.1</ele>
        <time>2022-02-25T09:59:34Z</time>
      </trkpt>
      <trkpt lat="44.81263" lon="6.95467">
        <ele>1776.1</ele>
        <time>2022-02-25T09:59:35Z</time>
      </trkpt>
      <trkpt lat="44.81264" lon="6.95469">
        <ele>1777</ele>
        <time>2022-02-25T09:59:36Z</time>
      </trkpt>
      <trkpt lat="44.81264" lon="6.95469">
        <ele>1777</ele>
        <time>2022-02-25T09:59:37Z</time>
      </trkpt>
      <trkpt lat="44.81264" lon="6.95469">
        <ele>1777</ele>
        <time>2022-02-25T09:59:38Z</time>
      </trkpt>
      <trkpt lat="44.81264" lon="6.95469">
        <ele>1777</ele>
        <time>2022-02-25T09:59:39Z</time>
      </trkpt>
      <trkpt lat="44.81263" lon="6.95472">
        <ele>1777</ele>
        <time>2022-02-25T09:59:40Z</time>
      </trkpt>
      <trkpt lat="44.81263" lon="6.95472">
        <ele>1777</ele>
        <time>2022-02-25T09:59:41Z</time>
      </trkpt>
      <trkpt lat="44.81263" lon="6.95475">
        <ele>1777.5</ele>
        <time>2022-02-25T09:59:42Z</time>
      </trkpt>
      <trkpt lat="44.81263" lon="6.95475">
        <ele>1777.5</ele>
        <time>2022-02-25T09:59:43Z</time>
      </trkpt>
      <trkpt lat="44.81261" lon="6.95477">
        <ele>1776.8</ele>
        <time>2022-02-25T09:59:44Z</time>
      </trkpt>
      <trkpt lat="44.81261" lon="6.95477">
        <ele>1776.8</ele>
        <time>2022-02-25T09:59:45Z</time>
      </trkpt>
      <trkpt lat="44.81261" lon="6.95477">
        <ele>1776.8</ele>
        <time>2022-02-25T09:59:46Z</time>
      </trkpt>
      <trkpt lat="44.81261" lon="6.9548">
        <ele>1777.4</ele>
        <time>2022-02-25T09:59:47Z</time>
      </trkpt>
      <trkpt lat="44.81261" lon="6.9548">
        <ele>1777.4</ele>
        <time>2022-02-25T09:59:48Z</time>
      </trkpt>
      <trkpt lat="44.81261" lon="6.9548">
        <ele>1777.4</ele>
        <time>2022-02-25T09:59:49Z</time>
      </trkpt>
      <trkpt lat="44.81261" lon="6.95483">
        <ele>1778</ele>
        <time>2022-02-25T09:59:50Z</time>
      </trkpt>
      <trkpt lat="44.81261" lon="6.95483">
        <ele>1778</ele>
        <time>2022-02-25T09:59:51Z</time>
      </trkpt>
      <trkpt lat="44.81261" lon="6.95483">
        <ele>1778</ele>
        <time>2022-02-25T09:59:52Z</time>
      </trkpt>
      <trkpt lat="44.8126" lon="6.95486">
        <ele>1778</ele>
        <time>2022-02-25T09:59:53Z</time>
      </trkpt>
      <trkpt lat="44.8126" lon="6.95486">
        <ele>1778</ele>
        <time>2022-02-25T09:59:54Z</time>
      </trkpt>
      <trkpt lat="44.8126" lon="6.95486">
        <ele>1778</ele>
        <time>2022-02-25T09:59:55Z</time>
      </trkpt>
      <trkpt lat="44.81259" lon="6.95489">
        <ele>1778.1</ele>
        <time>2022-02-25T09:59:56Z</time>
      </trkpt>
      <trkpt lat="44.81259" lon="6.95489">
        <ele>1778.1</ele>
        <time>2022-02-25T09:59:57Z</time>
      </trkpt>
      <trkpt lat="44.81259" lon="6.95489">
        <ele>1778.1</ele>
        <time>2022-02-25T09:59:58Z</time>
      </trkpt>
      <trkpt lat="44.81259" lon="6.95492">
        <ele>1778.7</ele>
        <time>2022-02-25T09:59:59Z</time>
      </trkpt>
      <trkpt lat="44.81259" lon="6.95492">
        <ele>1778.7</ele>
        <time>2022-02-25T10:00:00Z</time>
      </trkpt>
      <trkpt lat="44.81259" lon="6.95492">
        <ele>1778.7</ele>
        <time>2022-02-25T10:00:01Z</time>
      </trkpt>
      <trkpt lat="44.81259" lon="6.95492">
        <ele>1778.7</ele>
        <time>2022-02-25T10:00:02Z</time>
      </trkpt>
      <trkpt lat="44.81259" lon="6.95492">
        <ele>1778.7</ele>
        <time>2022-02-25T10:00:03Z</time>
      </trkpt>
      <trkpt lat="44.81258" lon="6.95495">
        <ele>1778.8</ele>
        <time>2022-02-25T10:00:04Z</time>
      </trkpt>
      <trkpt lat="44.81258" lon="6.95495">
        <ele>1778.8</ele>
        <time>2022-02-25T10:00:05Z</time>
      </trkpt>
      <trkpt lat="44.81258" lon="6.95495">
        <ele>1778.8</ele>
        <time>2022-02-25T10:00:06Z</time>
      </trkpt>
      <trkpt lat="44.81259" lon="6.95498">
        <ele>1779.8</ele>
        <time>2022-02-25T10:00:07Z</time>
      </trkpt>
      <trkpt lat="44.81259" lon="6.95498">
        <ele>1779.8</ele>
        <time>2022-02-25T10:00:08Z</time>
      </trkpt>
      <trkpt lat="44.81259" lon="6.95498">
        <ele>1779.8</ele>
        <time>2022-02-25T10:00:09Z</time>
      </trkpt>
      <trkpt lat="44.81259" lon="6.95498">
        <ele>1779.8</ele>
        <time>2022-02-25T10:00:10Z</time>
      </trkpt>
      <trkpt lat="44.81258" lon="6.95501">
        <ele>1780</ele>
        <time>2022-02-25T10:00:11Z</time>
      </trkpt>
      <trkpt lat="44.81258" lon="6.95501">
        <ele>1780</ele>
        <time>2022-02-25T10:00:12Z</time>
      </trkpt>
      <trkpt lat="44.81258" lon="6.95501">
        <ele>1780</ele>
        <time>2022-02-25T10:00:13Z</time>
      </trkpt>
      <trkpt lat="44.81258" lon="6.95501">
        <ele>1780</ele>
        <time>2022-02-25T10:00:14Z</time>
      </trkpt>
      <trkpt lat="44.81258" lon="6.95504">
        <ele>1780.6</ele>
        <time>2022-02-25T10:00:15Z</time>
      </trkpt>
      <trkpt lat="44.81258" lon="6.95504">
        <ele>1780.6</ele>
        <time>2022-02-25T10:00:16Z</time>
      </trkpt>
      <trkpt lat="44.81258" lon="6.95504">
        <ele>1780.6</ele>
        <time>2022-02-25T10:00:17Z</time>
      </trkpt>
      <trkpt lat="44.81258" lon="6.95504">
        <ele>1780.6</ele>
        <time>2022-02-25T10:00:18Z</time>
      </trkpt>
      <trkpt lat="44.81258" lon="6.95507">
        <ele>1781.3</ele>
        <time>2022-02-25T10:00:19Z</time>
      </trkpt>
      <trkpt lat="44.81258" lon="6.95507">
        <ele>1781.3</ele>
        <time>2022-02-25T10:00:20Z</time>
      </trkpt>
      <trkpt lat="44.81258" lon="6.95507">
        <ele>1781.3</ele>
        <time>2022-02-25T10:00:21Z</time>
      </trkpt>
      <trkpt lat="44.81258" lon="6.95507">
        <ele>1781.3</ele>
        <time>2022-02-25T10:00:22Z</time>
      </trkpt>
      <trkpt lat="44.81258" lon="6.9551">
        <ele>1782</ele>
        <time>2022-02-25T10:00:23Z</time>
      </trkpt>
      <trkpt lat="44.81258" lon="6.9551">
        <ele>1782</ele>
        <time>2022-02-25T10:00:24Z</time>
      </trkpt>
      <trkpt lat="44.81258" lon="6.9551">
        <ele>1782</ele>
        <time>2022-02-25T10:00:25Z</time>
      </trkpt>
      <trkpt lat="44.81258" lon="6.95513">
        <ele>1782.6</ele>
        <time>2022-02-25T10:00:26Z</time>
      </trkpt>
      <trkpt lat="44.81258" lon="6.95513">
        <ele>1782.6</ele>
        <time>2022-02-25T10:00:27Z</time>
      </trkpt>
      <trkpt lat="44.81258" lon="6.95513">
        <ele>1782.6</ele>
        <time>2022-02-25T10:00:28Z</time>
      </trkpt>
      <trkpt lat="44.81257" lon="6.95515">
        <ele>1782.6</ele>
        <time>2022-02-25T10:00:29Z</time>
      </trkpt>
      <trkpt lat="44.81257" lon="6.95515">
        <ele>1782.6</ele>
        <time>2022-02-25T10:00:30Z</time>
      </trkpt>
      <trkpt lat="44.81257" lon="6.95515">
        <ele>1782.6</ele>
        <time>2022-02-25T10:00:31Z</time>
      </trkpt>
      <trkpt lat="44.81256" lon="6.95518">
        <ele>1782.9</ele>
        <time>2022-02-25T10:00:32Z</time>
      </trkpt>
      <trkpt lat="44.81256" lon="6.95518">
        <ele>1782.9</ele>
        <time>2022-02-25T10:00:33Z</time>
      </trkpt>
      <trkpt lat="44.81256" lon="6.95518">
        <ele>1782.9</ele>
        <time>2022-02-25T10:00:34Z</time>
      </trkpt>
      <trkpt lat="44.81255" lon="6.95521">
        <ele>1783.2</ele>
        <time>2022-02-25T10:00:35Z</time>
      </trkpt>
      <trkpt lat="44.81255" lon="6.95521">
        <ele>1783.2</ele>
        <time>2022-02-25T10:00:36Z</time>
      </trkpt>
      <trkpt lat="44.81255" lon="6.95521">
        <ele>1783.2</ele>
        <time>2022-02-25T10:00:37Z</time>
      </trkpt>
      <trkpt lat="44.81254" lon="6.95523">
        <ele>1783.3</ele>
        <time>2022-02-25T10:00:38Z</time>
      </trkpt>
      <trkpt lat="44.81254" lon="6.95523">
        <ele>1783.3</ele>
        <time>2022-02-25T10:00:39Z</time>
      </trkpt>
      <trkpt lat="44.81254" lon="6.95523">
        <ele>1783.3</ele>
        <time>2022-02-25T10:00:40Z</time>
      </trkpt>
      <trkpt lat="44.81254" lon="6.95523">
        <ele>1783.3</ele>
        <time>2022-02-25T10:00:41Z</time>
      </trkpt>
      <trkpt lat="44.81253" lon="6.95526">
        <ele>1783.7</ele>
        <time>2022-02-25T10:00:42Z</time>
      </trkpt>
      <trkpt lat="44.81253" lon="6.95526">
        <ele>1783.7</ele>
        <time>2022-02-25T10:00:43Z</time>
      </trkpt>
      <trkpt lat="44.81253" lon="6.95526">
        <ele>1783.7</ele>
        <time>2022-02-25T10:00:44Z</time>
      </trkpt>
      <trkpt lat="44.81253" lon="6.95529">
        <ele>1784.3</ele>
        <time>2022-02-25T10:00:45Z</time>
      </trkpt>
      <trkpt lat="44.81253" lon="6.95529">
        <ele>1784.3</ele>
        <time>2022-02-25T10:00:46Z</time>
      </trkpt>
      <trkpt lat="44.81253" lon="6.95529">
        <ele>1784.3</ele>
        <time>2022-02-25T10:00:47Z</time>
      </trkpt>
      <trkpt lat="44.81252" lon="6.95532">
        <ele>1784.6</ele>
        <time>2022-02-25T10:00:48Z</time>
      </trkpt>
      <trkpt lat="44.81252" lon="6.95532">
        <ele>1784.6</ele>
        <time>2022-02-25T10:00:49Z</time>
      </trkpt>
      <trkpt lat="44.81252" lon="6.95532">
        <ele>1784.6</ele>
        <time>2022-02-25T10:00:50Z</time>
      </trkpt>
      <trkpt lat="44.81252" lon="6.95532">
        <ele>1784.6</ele>
        <time>2022-02-25T10:00:51Z</time>
      </trkpt>
      <trkpt lat="44.81252" lon="6.95535">
        <ele>1785.3</ele>
        <time>2022-02-25T10:00:52Z</time>
      </trkpt>
      <trkpt lat="44.81252" lon="6.95535">
        <ele>1785.3</ele>
        <time>2022-02-25T10:00:53Z</time>
      </trkpt>
      <trkpt lat="44.81252" lon="6.95535">
        <ele>1785.3</ele>
        <time>2022-02-25T10:00:54Z</time>
      </trkpt>
      <trkpt lat="44.81252" lon="6.95538">
        <ele>1786</ele>
        <time>2022-02-25T10:00:55Z</time>
      </trkpt>
      <trkpt lat="44.81252" lon="6.95538">
        <ele>1786</ele>
        <time>2022-02-25T10:00:56Z</time>
      </trkpt>
      <trkpt lat="44.81252" lon="6.95538">
        <ele>1786</ele>
        <time>2022-02-25T10:00:57Z</time>
      </trkpt>
      <trkpt lat="44.81253" lon="6.95541">
        <ele>1787</ele>
        <time>2022-02-25T10:00:58Z</time>
      </trkpt>
      <trkpt lat="44.81253" lon="6.95541">
        <ele>1787</ele>
        <time>2022-02-25T10:00:59Z</time>
      </trkpt>
      <trkpt lat="44.81253" lon="6.95541">
        <ele>1787</ele>
        <time>2022-02-25T10:01:00Z</time>
      </trkpt>
      <trkpt lat="44.81252" lon="6.95543">
        <ele>1787</ele>
        <time>2022-02-25T10:01:01Z</time>
      </trkpt>
      <trkpt lat="44.81252" lon="6.95543">
        <ele>1787</ele>
        <time>2022-02-25T10:01:02Z</time>
      </trkpt>
      <trkpt lat="44.81252" lon="6.95543">
        <ele>1787</ele>
        <time>2022-02-25T10:01:03Z</time>
      </trkpt>
      <trkpt lat="44.81252" lon="6.95543">
        <ele>1787</ele>
        <time>2022-02-25T10:01:04Z</time>
      </trkpt>
      <trkpt lat="44.81252" lon="6.95547">
        <ele>1787.9</ele>
        <time>2022-02-25T10:01:05Z</time>
      </trkpt>
      <trkpt lat="44.81252" lon="6.95547">
        <ele>1787.9</ele>
        <time>2022-02-25T10:01:06Z</time>
      </trkpt>
      <trkpt lat="44.81252" lon="6.95547">
        <ele>1787.9</ele>
        <time>2022-02-25T10:01:07Z</time>
      </trkpt>
      <trkpt lat="44.81252" lon="6.95547">
        <ele>1787.9</ele>
        <time>2022-02-25T10:01:08Z</time>
      </trkpt>
      <trkpt lat="44.81252" lon="6.9555">
        <ele>1788.6</ele>
        <time>2022-02-25T10:01:09Z</time>
      </trkpt>
      <trkpt lat="44.81252" lon="6.9555">
        <ele>1788.6</ele>
        <time>2022-02-25T10:01:10Z</time>
      </trkpt>
      <trkpt lat="44.81252" lon="6.9555">
        <ele>1788.6</ele>
        <time>2022-02-25T10:01:11Z</time>
      </trkpt>
      <trkpt lat="44.81252" lon="6.95553">
        <ele>1789.2</ele>
        <time>2022-02-25T10:01:12Z</time>
      </trkpt>
      <trkpt lat="44.81252" lon="6.95553">
        <ele>1789.2</ele>
        <time>2022-02-25T10:01:13Z</time>
      </trkpt>
      <trkpt lat="44.81252" lon="6.95553">
        <ele>1789.2</ele>
        <time>2022-02-25T10:01:14Z</time>
      </trkpt>
      <trkpt lat="44.81253" lon="6.95555">
        <ele>1790.1</ele>
        <time>2022-02-25T10:01:15Z</time>
      </trkpt>
      <trkpt lat="44.81253" lon="6.95555">
        <ele>1790.1</ele>
        <time>2022-02-25T10:01:16Z</time>
      </trkpt>
      <trkpt lat="44.81253" lon="6.95555">
        <ele>1790.1</ele>
        <time>2022-02-25T10:01:17Z</time>
      </trkpt>
      <trkpt lat="44.81253" lon="6.95555">
        <ele>1790.1</ele>
        <time>2022-02-25T10:01:18Z</time>
      </trkpt>
      <trkpt lat="44.81253" lon="6.95559">
        <ele>1790.8</ele>
        <time>2022-02-25T10:01:19Z</time>
      </trkpt>
      <trkpt lat="44.81253" lon="6.95559">
        <ele>1790.8</ele>
        <time>2022-02-25T10:01:20Z</time>
      </trkpt>
      <trkpt lat="44.81253" lon="6.95559">
        <ele>1790.8</ele>
        <time>2022-02-25T10:01:21Z</time>
      </trkpt>
      <trkpt lat="44.81253" lon="6.95559">
        <ele>1790.8</ele>
        <time>2022-02-25T10:01:22Z</time>
      </trkpt>
      <trkpt lat="44.81253" lon="6.95562">
        <ele>1791.4</ele>
        <time>2022-02-25T10:01:23Z</time>
      </trkpt>
      <trkpt lat="44.81253" lon="6.95562">
        <ele>1791.4</ele>
        <time>2022-02-25T10:01:24Z</time>
      </trkpt>
      <trkpt lat="44.81253" lon="6.95562">
        <ele>1791.4</ele>
        <time>2022-02-25T10:01:25Z</time>
      </trkpt>
      <trkpt lat="44.81253" lon="6.95565">
        <ele>1791.9</ele>
        <time>2022-02-25T10:01:26Z</time>
      </trkpt>
      <trkpt lat="44.81253" lon="6.95565">
        <ele>1791.9</ele>
        <time>2022-02-25T10:01:27Z</time>
      </trkpt>
      <trkpt lat="44.81253" lon="6.95565">
        <ele>1791.9</ele>
        <time>2022-02-25T10:01:28Z</time>
      </trkpt>
      <trkpt lat="44.81253" lon="6.95565">
        <ele>1791.9</ele>
        <time>2022-02-25T10:01:29Z</time>
      </trkpt>
      <trkpt lat="44.81253" lon="6.95568">
        <ele>1792.5</ele>
        <time>2022-02-25T10:01:30Z</time>
      </trkpt>
      <trkpt lat="44.81253" lon="6.95568">
        <ele>1792.5</ele>
        <time>2022-02-25T10:01:31Z</time>
      </trkpt>
      <trkpt lat="44.81253" lon="6.95568">
        <ele>1792.5</ele>
        <time>2022-02-25T10:01:32Z</time>
      </trkpt>
      <trkpt lat="44.81253" lon="6.95571">
        <ele>1793</ele>
        <time>2022-02-25T10:01:33Z</time>
      </trkpt>
      <trkpt lat="44.81253" lon="6.95571">
        <ele>1793</ele>
        <time>2022-02-25T10:01:34Z</time>
      </trkpt>
      <trkpt lat="44.81253" lon="6.95571">
        <ele>1793</ele>
        <time>2022-02-25T10:01:35Z</time>
      </trkpt>
      <trkpt lat="44.81253" lon="6.95571">
        <ele>1793</ele>
        <time>2022-02-25T10:01:36Z</time>
      </trkpt>
      <trkpt lat="44.81253" lon="6.95574">
        <ele>1793.6</ele>
        <time>2022-02-25T10:01:37Z</time>
      </trkpt>
      <trkpt lat="44.81253" lon="6.95574">
        <ele>1793.6</ele>
        <time>2022-02-25T10:01:38Z</time>
      </trkpt>
      <trkpt lat="44.81253" lon="6.95574">
        <ele>1793.6</ele>
        <time>2022-02-25T10:01:39Z</time>
      </trkpt>
      <trkpt lat="44.81253" lon="6.95576">
        <ele>1793.9</ele>
        <time>2022-02-25T10:01:40Z</time>
      </trkpt>
      <trkpt lat="44.81253" lon="6.95576">
        <ele>1793.9</ele>
        <time>2022-02-25T10:01:41Z</time>
      </trkpt>
      <trkpt lat="44.81253" lon="6.95576">
        <ele>1793.9</ele>
        <time>2022-02-25T10:01:42Z</time>
      </trkpt>
      <trkpt lat="44.81253" lon="6.95579">
        <ele>1794.5</ele>
        <time>2022-02-25T10:01:43Z</time>
      </trkpt>
      <trkpt lat="44.81253" lon="6.95579">
        <ele>1794.5</ele>
        <time>2022-02-25T10:01:44Z</time>
      </trkpt>
      <trkpt lat="44.81253" lon="6.95579">
        <ele>1794.5</ele>
        <time>2022-02-25T10:01:45Z</time>
      </trkpt>
      <trkpt lat="44.81253" lon="6.95579">
        <ele>1794.5</ele>
        <time>2022-02-25T10:01:46Z</time>
      </trkpt>
      <trkpt lat="44.81253" lon="6.95582">
        <ele>1795.1</ele>
        <time>2022-02-25T10:01:47Z</time>
      </trkpt>
      <trkpt lat="44.81253" lon="6.95582">
        <ele>1795.1</ele>
        <time>2022-02-25T10:01:48Z</time>
      </trkpt>
      <trkpt lat="44.81253" lon="6.95582">
        <ele>1795.1</ele>
        <time>2022-02-25T10:01:49Z</time>
      </trkpt>
      <trkpt lat="44.81253" lon="6.95585">
        <ele>1795.7</ele>
        <time>2022-02-25T10:01:50Z</time>
      </trkpt>
      <trkpt lat="44.81253" lon="6.95585">
        <ele>1795.7</ele>
        <time>2022-02-25T10:01:51Z</time>
      </trkpt>
      <trkpt lat="44.81253" lon="6.95585">
        <ele>1795.7</ele>
        <time>2022-02-25T10:01:52Z</time>
      </trkpt>
      <trkpt lat="44.81253" lon="6.95588">
        <ele>1796.3</ele>
        <time>2022-02-25T10:01:53Z</time>
      </trkpt>
      <trkpt lat="44.81253" lon="6.95588">
        <ele>1796.3</ele>
        <time>2022-02-25T10:01:54Z</time>
      </trkpt>
      <trkpt lat="44.81253" lon="6.95588">
        <ele>1796.3</ele>
        <time>2022-02-25T10:01:55Z</time>
      </trkpt>
      <trkpt lat="44.81253" lon="6.95588">
        <ele>1796.3</ele>
        <time>2022-02-25T10:01:56Z</time>
      </trkpt>
      <trkpt lat="44.81254" lon="6.95591">
        <ele>1797.4</ele>
        <time>2022-02-25T10:01:57Z</time>
      </trkpt>
      <trkpt lat="44.81254" lon="6.95591">
        <ele>1797.4</ele>
        <time>2022-02-25T10:01:58Z</time>
      </trkpt>
      <trkpt lat="44.81254" lon="6.95591">
        <ele>1797.4</ele>
        <time>2022-02-25T10:01:59Z</time>
      </trkpt>
      <trkpt lat="44.81255" lon="6.95593">
        <ele>1798.2</ele>
        <time>2022-02-25T10:02:00Z</time>
      </trkpt>
      <trkpt lat="44.81255" lon="6.95593">
        <ele>1798.2</ele>
        <time>2022-02-25T10:02:01Z</time>
      </trkpt>
      <trkpt lat="44.81257" lon="6.95595">
        <ele>1799.5</ele>
        <time>2022-02-25T10:02:02Z</time>
      </trkpt>
      <trkpt lat="44.81257" lon="6.95595">
        <ele>1799.5</ele>
        <time>2022-02-25T10:02:03Z</time>
      </trkpt>
      <trkpt lat="44.81257" lon="6.95595">
        <ele>1799.5</ele>
        <time>2022-02-25T10:02:04Z</time>
      </trkpt>
      <trkpt lat="44.81256" lon="6.95598">
        <ele>1799.8</ele>
        <time>2022-02-25T10:02:05Z</time>
      </trkpt>
      <trkpt lat="44.81256" lon="6.95598">
        <ele>1799.8</ele>
        <time>2022-02-25T10:02:06Z</time>
      </trkpt>
      <trkpt lat="44.81256" lon="6.95598">
        <ele>1799.8</ele>
        <time>2022-02-25T10:02:07Z</time>
      </trkpt>
      <trkpt lat="44.81256" lon="6.95601">
        <ele>1800.4</ele>
        <time>2022-02-25T10:02:08Z</time>
      </trkpt>
      <trkpt lat="44.81256" lon="6.95601">
        <ele>1800.4</ele>
        <time>2022-02-25T10:02:09Z</time>
      </trkpt>
      <trkpt lat="44.81256" lon="6.95601">
        <ele>1800.4</ele>
        <time>2022-02-25T10:02:10Z</time>
      </trkpt>
      <trkpt lat="44.81256" lon="6.95604">
        <ele>1801.1</ele>
        <time>2022-02-25T10:02:11Z</time>
      </trkpt>
      <trkpt lat="44.81256" lon="6.95604">
        <ele>1801.1</ele>
        <time>2022-02-25T10:02:12Z</time>
      </trkpt>
      <trkpt lat="44.81256" lon="6.95604">
        <ele>1801.1</ele>
        <time>2022-02-25T10:02:13Z</time>
      </trkpt>
      <trkpt lat="44.81255" lon="6.95607">
        <ele>1801.3</ele>
        <time>2022-02-25T10:02:14Z</time>
      </trkpt>
      <trkpt lat="44.81255" lon="6.95607">
        <ele>1801.3</ele>
        <time>2022-02-25T10:02:15Z</time>
      </trkpt>
      <trkpt lat="44.81255" lon="6.95607">
        <ele>1801.3</ele>
        <time>2022-02-25T10:02:16Z</time>
      </trkpt>
      <trkpt lat="44.81255" lon="6.95607">
        <ele>1801.3</ele>
        <time>2022-02-25T10:02:17Z</time>
      </trkpt>
      <trkpt lat="44.81255" lon="6.9561">
        <ele>1801.9</ele>
        <time>2022-02-25T10:02:18Z</time>
      </trkpt>
      <trkpt lat="44.81255" lon="6.9561">
        <ele>1801.9</ele>
        <time>2022-02-25T10:02:19Z</time>
      </trkpt>
      <trkpt lat="44.81255" lon="6.9561">
        <ele>1801.9</ele>
        <time>2022-02-25T10:02:20Z</time>
      </trkpt>
      <trkpt lat="44.81253" lon="6.95613">
        <ele>1801.5</ele>
        <time>2022-02-25T10:02:21Z</time>
      </trkpt>
      <trkpt lat="44.81253" lon="6.95613">
        <ele>1801.5</ele>
        <time>2022-02-25T10:02:22Z</time>
      </trkpt>
      <trkpt lat="44.81253" lon="6.95613">
        <ele>1801.5</ele>
        <time>2022-02-25T10:02:23Z</time>
      </trkpt>
      <trkpt lat="44.81252" lon="6.95616">
        <ele>1801.4</ele>
        <time>2022-02-25T10:02:24Z</time>
      </trkpt>
      <trkpt lat="44.81252" lon="6.95616">
        <ele>1801.4</ele>
        <time>2022-02-25T10:02:25Z</time>
      </trkpt>
      <trkpt lat="44.81252" lon="6.95616">
        <ele>1801.4</ele>
        <time>2022-02-25T10:02:26Z</time>
      </trkpt>
      <trkpt lat="44.81251" lon="6.95618">
        <ele>1801.2</ele>
        <time>2022-02-25T10:02:27Z</time>
      </trkpt>
      <trkpt lat="44.81251" lon="6.95618">
        <ele>1801.2</ele>
        <time>2022-02-25T10:02:28Z</time>
      </trkpt>
      <trkpt lat="44.81251" lon="6.95618">
        <ele>1801.2</ele>
        <time>2022-02-25T10:02:29Z</time>
      </trkpt>
      <trkpt lat="44.81251" lon="6.95622">
        <ele>1801.6</ele>
        <time>2022-02-25T10:02:30Z</time>
      </trkpt>
      <trkpt lat="44.81251" lon="6.95622">
        <ele>1801.6</ele>
        <time>2022-02-25T10:02:31Z</time>
      </trkpt>
      <trkpt lat="44.81251" lon="6.95622">
        <ele>1801.6</ele>
        <time>2022-02-25T10:02:32Z</time>
      </trkpt>
      <trkpt lat="44.81251" lon="6.95622">
        <ele>1801.6</ele>
        <time>2022-02-25T10:02:33Z</time>
      </trkpt>
      <trkpt lat="44.81251" lon="6.95624">
        <ele>1801.8</ele>
        <time>2022-02-25T10:02:34Z</time>
      </trkpt>
      <trkpt lat="44.81251" lon="6.95624">
        <ele>1801.8</ele>
        <time>2022-02-25T10:02:35Z</time>
      </trkpt>
      <trkpt lat="44.81251" lon="6.95624">
        <ele>1801.8</ele>
        <time>2022-02-25T10:02:36Z</time>
      </trkpt>
      <trkpt lat="44.81251" lon="6.95624">
        <ele>1801.8</ele>
        <time>2022-02-25T10:02:37Z</time>
      </trkpt>
      <trkpt lat="44.81251" lon="6.95624">
        <ele>1801.8</ele>
        <time>2022-02-25T10:02:38Z</time>
      </trkpt>
      <trkpt lat="44.81251" lon="6.95624">
        <ele>1801.8</ele>
        <time>2022-02-25T10:02:39Z</time>
      </trkpt>
      <trkpt lat="44.81252" lon="6.95627">
        <ele>1802.6</ele>
        <time>2022-02-25T10:02:40Z</time>
      </trkpt>
      <trkpt lat="44.81252" lon="6.95627">
        <ele>1802.6</ele>
        <time>2022-02-25T10:02:41Z</time>
      </trkpt>
      <trkpt lat="44.81252" lon="6.95627">
        <ele>1802.6</ele>
        <time>2022-02-25T10:02:42Z</time>
      </trkpt>
      <trkpt lat="44.81252" lon="6.95627">
        <ele>1802.6</ele>
        <time>2022-02-25T10:02:43Z</time>
      </trkpt>
      <trkpt lat="44.81252" lon="6.95627">
        <ele>1802.6</ele>
        <time>2022-02-25T10:02:44Z</time>
      </trkpt>
      <trkpt lat="44.81252" lon="6.95627">
        <ele>1802.6</ele>
        <time>2022-02-25T10:02:45Z</time>
      </trkpt>
      <trkpt lat="44.81252" lon="6.95627">
        <ele>1802.6</ele>
        <time>2022-02-25T10:02:46Z</time>
      </trkpt>
      <trkpt lat="44.81252" lon="6.95627">
        <ele>1802.6</ele>
        <time>2022-02-25T10:02:47Z</time>
      </trkpt>
      <trkpt lat="44.81252" lon="6.95627">
        <ele>1802.6</ele>
        <time>2022-02-25T10:02:48Z</time>
      </trkpt>
      <trkpt lat="44.81252" lon="6.95627">
        <ele>1802.6</ele>
        <time>2022-02-25T10:02:49Z</time>
      </trkpt>
      <trkpt lat="44.81252" lon="6.95627">
        <ele>1802.6</ele>
        <time>2022-02-25T10:02:50Z</time>
      </trkpt>
      <trkpt lat="44.81252" lon="6.95627">
        <ele>1802.6</ele>
        <time>2022-02-25T10:02:51Z</time>
      </trkpt>
      <trkpt lat="44.81252" lon="6.95627">
        <ele>1802.6</ele>
        <time>2022-02-25T10:02:52Z</time>
      </trkpt>
      <trkpt lat="44.81252" lon="6.95627">
        <ele>1802.6</ele>
        <time>2022-02-25T10:02:53Z</time>
      </trkpt>
      <trkpt lat="44.81252" lon="6.95627">
        <ele>1802.6</ele>
        <time>2022-02-25T10:02:54Z</time>
      </trkpt>
      <trkpt lat="44.81252" lon="6.95627">
        <ele>1802.6</ele>
        <time>2022-02-25T10:02:55Z</time>
      </trkpt>
      <trkpt lat="44.81252" lon="6.95627">
        <ele>1802.6</ele>
        <time>2022-02-25T10:02:56Z</time>
      </trkpt>
      <trkpt lat="44.81252" lon="6.95627">
        <ele>1802.6</ele>
        <time>2022-02-25T10:02:57Z</time>
      </trkpt>
      <trkpt lat="44.81252" lon="6.95627">
        <ele>1802.6</ele>
        <time>2022-02-25T10:02:58Z</time>
      </trkpt>
      <trkpt lat="44.81252" lon="6.95627">
        <ele>1802.6</ele>
        <time>2022-02-25T10:02:59Z</time>
      </trkpt>
      <trkpt lat="44.81252" lon="6.95627">
        <ele>1802.6</ele>
        <time>2022-02-25T10:03:00Z</time>
      </trkpt>
      <trkpt lat="44.81252" lon="6.95627">
        <ele>1802.6</ele>
        <time>2022-02-25T10:03:01Z</time>
      </trkpt>
      <trkpt lat="44.81252" lon="6.95627">
        <ele>1802.6</ele>
        <time>2022-02-25T10:03:02Z</time>
      </trkpt>
      <trkpt lat="44.81252" lon="6.95627">
        <ele>1802.6</ele>
        <time>2022-02-25T10:03:03Z</time>
      </trkpt>
      <trkpt lat="44.81252" lon="6.95627">
        <ele>1802.6</ele>
        <time>2022-02-25T10:03:04Z</time>
      </trkpt>
      <trkpt lat="44.81252" lon="6.95627">
        <ele>1802.6</ele>
        <time>2022-02-25T10:03:05Z</time>
      </trkpt>
      <trkpt lat="44.81252" lon="6.95627">
        <ele>1802.6</ele>
        <time>2022-02-25T10:03:06Z</time>
      </trkpt>
      <trkpt lat="44.81252" lon="6.95627">
        <ele>1802.6</ele>
        <time>2022-02-25T10:03:07Z</time>
      </trkpt>
      <trkpt lat="44.81252" lon="6.95627">
        <ele>1802.6</ele>
        <time>2022-02-25T10:03:08Z</time>
      </trkpt>
      <trkpt lat="44.81252" lon="6.95627">
        <ele>1802.6</ele>
        <time>2022-02-25T10:03:09Z</time>
      </trkpt>
      <trkpt lat="44.81252" lon="6.95627">
        <ele>1802.6</ele>
        <time>2022-02-25T10:03:10Z</time>
      </trkpt>
      <trkpt lat="44.81251" lon="6.9563">
        <ele>1802.5</ele>
        <time>2022-02-25T10:03:11Z</time>
      </trkpt>
      <trkpt lat="44.81251" lon="6.9563">
        <ele>1802.5</ele>
        <time>2022-02-25T10:03:12Z</time>
      </trkpt>
      <trkpt lat="44.81251" lon="6.95633">
        <ele>1802.8</ele>
        <time>2022-02-25T10:03:13Z</time>
      </trkpt>
      <trkpt lat="44.81251" lon="6.95633">
        <ele>1802.8</ele>
        <time>2022-02-25T10:03:14Z</time>
      </trkpt>
      <trkpt lat="44.8125" lon="6.95636">
        <ele>1802.7</ele>
        <time>2022-02-25T10:03:15Z</time>
      </trkpt>
      <trkpt lat="44.8125" lon="6.95636">
        <ele>1802.7</ele>
        <time>2022-02-25T10:03:16Z</time>
      </trkpt>
      <trkpt lat="44.81248" lon="6.95639">
        <ele>1802.1</ele>
        <time>2022-02-25T10:03:17Z</time>
      </trkpt>
      <trkpt lat="44.81248" lon="6.95639">
        <ele>1802.1</ele>
        <time>2022-02-25T10:03:18Z</time>
      </trkpt>
      <trkpt lat="44.81248" lon="6.95642">
        <ele>1802.2</ele>
        <time>2022-02-25T10:03:19Z</time>
      </trkpt>
      <trkpt lat="44.81248" lon="6.95642">
        <ele>1802.2</ele>
        <time>2022-02-25T10:03:20Z</time>
      </trkpt>
      <trkpt lat="44.81248" lon="6.95642">
        <ele>1802.2</ele>
        <time>2022-02-25T10:03:21Z</time>
      </trkpt>
      <trkpt lat="44.81248" lon="6.95642">
        <ele>1802.2</ele>
        <time>2022-02-25T10:03:22Z</time>
      </trkpt>
      <trkpt lat="44.81248" lon="6.95642">
        <ele>1802.2</ele>
        <time>2022-02-25T10:03:23Z</time>
      </trkpt>
      <trkpt lat="44.81248" lon="6.95642">
        <ele>1802.2</ele>
        <time>2022-02-25T10:03:24Z</time>
      </trkpt>
      <trkpt lat="44.81248" lon="6.95642">
        <ele>1802.2</ele>
        <time>2022-02-25T10:03:25Z</time>
      </trkpt>
      <trkpt lat="44.81248" lon="6.95642">
        <ele>1802.2</ele>
        <time>2022-02-25T10:03:26Z</time>
      </trkpt>
      <trkpt lat="44.81248" lon="6.95642">
        <ele>1802.2</ele>
        <time>2022-02-25T10:03:27Z</time>
      </trkpt>
      <trkpt lat="44.81248" lon="6.95642">
        <ele>1802.2</ele>
        <time>2022-02-25T10:03:28Z</time>
      </trkpt>
      <trkpt lat="44.81248" lon="6.95642">
        <ele>1802.2</ele>
        <time>2022-02-25T10:03:29Z</time>
      </trkpt>
      <trkpt lat="44.81248" lon="6.95642">
        <ele>1802.2</ele>
        <time>2022-02-25T10:03:30Z</time>
      </trkpt>
      <trkpt lat="44.81248" lon="6.95642">
        <ele>1802.2</ele>
        <time>2022-02-25T10:03:31Z</time>
      </trkpt>
      <trkpt lat="44.81248" lon="6.95642">
        <ele>1802.2</ele>
        <time>2022-02-25T10:03:32Z</time>
      </trkpt>
      <trkpt lat="44.81248" lon="6.95642">
        <ele>1802.2</ele>
        <time>2022-02-25T10:03:33Z</time>
      </trkpt>
      <trkpt lat="44.81248" lon="6.95642">
        <ele>1802.2</ele>
        <time>2022-02-25T10:03:34Z</time>
      </trkpt>
      <trkpt lat="44.81248" lon="6.95642">
        <ele>1802.2</ele>
        <time>2022-02-25T10:03:35Z</time>
      </trkpt>
      <trkpt lat="44.81248" lon="6.95642">
        <ele>1802.2</ele>
        <time>2022-02-25T10:03:36Z</time>
      </trkpt>
      <trkpt lat="44.81248" lon="6.9564">
        <ele>1802.1</ele>
        <time>2022-02-25T10:03:37Z</time>
      </trkpt>
      <trkpt lat="44.81248" lon="6.9564">
        <ele>1802.1</ele>
        <time>2022-02-25T10:03:38Z</time>
      </trkpt>
      <trkpt lat="44.81248" lon="6.9564">
        <ele>1802.1</ele>
        <time>2022-02-25T10:03:39Z</time>
      </trkpt>
      <trkpt lat="44.81248" lon="6.9564">
        <ele>1802.1</ele>
        <time>2022-02-25T10:03:40Z</time>
      </trkpt>
      <trkpt lat="44.81248" lon="6.9564">
        <ele>1802.1</ele>
        <time>2022-02-25T10:03:41Z</time>
      </trkpt>
      <trkpt lat="44.81248" lon="6.9564">
        <ele>1802.1</ele>
        <time>2022-02-25T10:03:42Z</time>
      </trkpt>
      <trkpt lat="44.81248" lon="6.9564">
        <ele>1802.1</ele>
        <time>2022-02-25T10:03:43Z</time>
      </trkpt>
      <trkpt lat="44.81248" lon="6.9564">
        <ele>1802.1</ele>
        <time>2022-02-25T10:03:44Z</time>
      </trkpt>
      <trkpt lat="44.81248" lon="6.9564">
        <ele>1802.1</ele>
        <time>2022-02-25T10:03:45Z</time>
      </trkpt>
      <trkpt lat="44.81248" lon="6.9564">
        <ele>1802.1</ele>
        <time>2022-02-25T10:03:46Z</time>
      </trkpt>
      <trkpt lat="44.81248" lon="6.9564">
        <ele>1802.1</ele>
        <time>2022-02-25T10:03:47Z</time>
      </trkpt>
      <trkpt lat="44.81248" lon="6.9564">
        <ele>1802.1</ele>
        <time>2022-02-25T10:03:48Z</time>
      </trkpt>
      <trkpt lat="44.81248" lon="6.9564">
        <ele>1802.1</ele>
        <time>2022-02-25T10:03:49Z</time>
      </trkpt>
      <trkpt lat="44.81248" lon="6.9564">
        <ele>1802.1</ele>
        <time>2022-02-25T10:03:50Z</time>
      </trkpt>
      <trkpt lat="44.81248" lon="6.9564">
        <ele>1802.1</ele>
        <time>2022-02-25T10:03:51Z</time>
      </trkpt>
      <trkpt lat="44.81248" lon="6.9564">
        <ele>1802.1</ele>
        <time>2022-02-25T10:03:52Z</time>
      </trkpt>
      <trkpt lat="44.81248" lon="6.9564">
        <ele>1802.1</ele>
        <time>2022-02-25T10:03:53Z</time>
      </trkpt>
      <trkpt lat="44.81248" lon="6.9564">
        <ele>1802.1</ele>
        <time>2022-02-25T10:03:54Z</time>
      </trkpt>
      <trkpt lat="44.81248" lon="6.9564">
        <ele>1802.1</ele>
        <time>2022-02-25T10:03:55Z</time>
      </trkpt>
      <trkpt lat="44.81248" lon="6.9564">
        <ele>1802.1</ele>
        <time>2022-02-25T10:03:56Z</time>
      </trkpt>
      <trkpt lat="44.81248" lon="6.9564">
        <ele>1802.1</ele>
        <time>2022-02-25T10:03:57Z</time>
      </trkpt>
      <trkpt lat="44.81248" lon="6.9564">
        <ele>1802.1</ele>
        <time>2022-02-25T10:03:58Z</time>
      </trkpt>
      <trkpt lat="44.81248" lon="6.9564">
        <ele>1802.1</ele>
        <time>2022-02-25T10:03:59Z</time>
      </trkpt>
      <trkpt lat="44.81248" lon="6.9564">
        <ele>1802.1</ele>
        <time>2022-02-25T10:04:00Z</time>
      </trkpt>
      <trkpt lat="44.81248" lon="6.9564">
        <ele>1802.1</ele>
        <time>2022-02-25T10:04:01Z</time>
      </trkpt>
      <trkpt lat="44.81248" lon="6.9564">
        <ele>1802.1</ele>
        <time>2022-02-25T10:04:02Z</time>
      </trkpt>
      <trkpt lat="44.81248" lon="6.9564">
        <ele>1802.1</ele>
        <time>2022-02-25T10:04:03Z</time>
      </trkpt>
      <trkpt lat="44.81248" lon="6.9564">
        <ele>1802.1</ele>
        <time>2022-02-25T10:04:04Z</time>
      </trkpt>
      <trkpt lat="44.81248" lon="6.9564">
        <ele>1802.1</ele>
        <time>2022-02-25T10:04:05Z</time>
      </trkpt>
      <trkpt lat="44.81248" lon="6.9564">
        <ele>1802.1</ele>
        <time>2022-02-25T10:04:06Z</time>
      </trkpt>
      <trkpt lat="44.81248" lon="6.9564">
        <ele>1802.1</ele>
        <time>2022-02-25T10:04:07Z</time>
      </trkpt>
      <trkpt lat="44.81248" lon="6.9564">
        <ele>1802.1</ele>
        <time>2022-02-25T10:04:08Z</time>
      </trkpt>
      <trkpt lat="44.81248" lon="6.9564">
        <ele>1802.1</ele>
        <time>2022-02-25T10:04:09Z</time>
      </trkpt>
      <trkpt lat="44.81248" lon="6.9564">
        <ele>1802.1</ele>
        <time>2022-02-25T10:04:10Z</time>
      </trkpt>
      <trkpt lat="44.81248" lon="6.9564">
        <ele>1802.1</ele>
        <time>2022-02-25T10:04:11Z</time>
      </trkpt>
      <trkpt lat="44.81248" lon="6.9564">
        <ele>1802.1</ele>
        <time>2022-02-25T10:04:12Z</time>
      </trkpt>
      <trkpt lat="44.81248" lon="6.9564">
        <ele>1802.1</ele>
        <time>2022-02-25T10:04:13Z</time>
      </trkpt>
      <trkpt lat="44.81248" lon="6.9564">
        <ele>1802.1</ele>
        <time>2022-02-25T10:04:14Z</time>
      </trkpt>
      <trkpt lat="44.81248" lon="6.9564">
        <ele>1802.1</ele>
        <time>2022-02-25T10:04:15Z</time>
      </trkpt>
      <trkpt lat="44.81248" lon="6.9564">
        <ele>1802.1</ele>
        <time>2022-02-25T10:04:16Z</time>
      </trkpt>
      <trkpt lat="44.81248" lon="6.9564">
        <ele>1802.1</ele>
        <time>2022-02-25T10:04:17Z</time>
      </trkpt>
      <trkpt lat="44.81248" lon="6.9564">
        <ele>1802.1</ele>
        <time>2022-02-25T10:04:18Z</time>
      </trkpt>
      <trkpt lat="44.81248" lon="6.9564">
        <ele>1802.1</ele>
        <time>2022-02-25T10:04:19Z</time>
      </trkpt>
      <trkpt lat="44.81248" lon="6.9564">
        <ele>1802.1</ele>
        <time>2022-02-25T10:04:20Z</time>
      </trkpt>
      <trkpt lat="44.81248" lon="6.9564">
        <ele>1802.1</ele>
        <time>2022-02-25T10:04:21Z</time>
      </trkpt>
      <trkpt lat="44.81248" lon="6.9564">
        <ele>1802.1</ele>
        <time>2022-02-25T10:04:22Z</time>
      </trkpt>
      <trkpt lat="44.81248" lon="6.9564">
        <ele>1802.1</ele>
        <time>2022-02-25T10:04:23Z</time>
      </trkpt>
      <trkpt lat="44.81248" lon="6.9564">
        <ele>1802.1</ele>
        <time>2022-02-25T10:04:24Z</time>
      </trkpt>
      <trkpt lat="44.81248" lon="6.9564">
        <ele>1802.1</ele>
        <time>2022-02-25T10:04:25Z</time>
      </trkpt>
      <trkpt lat="44.81248" lon="6.9564">
        <ele>1802.1</ele>
        <time>2022-02-25T10:04:26Z</time>
      </trkpt>
      <trkpt lat="44.81248" lon="6.9564">
        <ele>1802.1</ele>
        <time>2022-02-25T10:04:27Z</time>
      </trkpt>
      <trkpt lat="44.81248" lon="6.9564">
        <ele>1802.1</ele>
        <time>2022-02-25T10:04:28Z</time>
      </trkpt>
      <trkpt lat="44.81248" lon="6.9564">
        <ele>1802.1</ele>
        <time>2022-02-25T10:04:29Z</time>
      </trkpt>
      <trkpt lat="44.81248" lon="6.9564">
        <ele>1802.1</ele>
        <time>2022-02-25T10:04:30Z</time>
      </trkpt>
      <trkpt lat="44.81248" lon="6.9564">
        <ele>1802.1</ele>
        <time>2022-02-25T10:04:31Z</time>
      </trkpt>
      <trkpt lat="44.81248" lon="6.9564">
        <ele>1802.1</ele>
        <time>2022-02-25T10:04:32Z</time>
      </trkpt>
      <trkpt lat="44.81248" lon="6.9564">
        <ele>1802.1</ele>
        <time>2022-02-25T10:04:33Z</time>
      </trkpt>
      <trkpt lat="44.81248" lon="6.9564">
        <ele>1802.1</ele>
        <time>2022-02-25T10:04:34Z</time>
      </trkpt>
      <trkpt lat="44.81248" lon="6.9564">
        <ele>1802.1</ele>
        <time>2022-02-25T10:04:35Z</time>
      </trkpt>
      <trkpt lat="44.81248" lon="6.9564">
        <ele>1802.1</ele>
        <time>2022-02-25T10:04:36Z</time>
      </trkpt>
      <trkpt lat="44.81248" lon="6.9564">
        <ele>1802.1</ele>
        <time>2022-02-25T10:04:37Z</time>
      </trkpt>
      <trkpt lat="44.81248" lon="6.9564">
        <ele>1802.1</ele>
        <time>2022-02-25T10:04:38Z</time>
      </trkpt>
      <trkpt lat="44.81248" lon="6.9564">
        <ele>1802.1</ele>
        <time>2022-02-25T10:04:39Z</time>
      </trkpt>
      <trkpt lat="44.81248" lon="6.9564">
        <ele>1802.1</ele>
        <time>2022-02-25T10:04:40Z</time>
      </trkpt>
      <trkpt lat="44.81248" lon="6.9564">
        <ele>1802.1</ele>
        <time>2022-02-25T10:04:41Z</time>
      </trkpt>
      <trkpt lat="44.81248" lon="6.9564">
        <ele>1802.1</ele>
        <time>2022-02-25T10:04:42Z</time>
      </trkpt>
      <trkpt lat="44.81248" lon="6.9564">
        <ele>1802.1</ele>
        <time>2022-02-25T10:04:43Z</time>
      </trkpt>
      <trkpt lat="44.81248" lon="6.9564">
        <ele>1802.1</ele>
        <time>2022-02-25T10:04:44Z</time>
      </trkpt>
      <trkpt lat="44.81248" lon="6.9564">
        <ele>1802.1</ele>
        <time>2022-02-25T10:04:45Z</time>
      </trkpt>
      <trkpt lat="44.81248" lon="6.9564">
        <ele>1802.1</ele>
        <time>2022-02-25T10:04:46Z</time>
      </trkpt>
      <trkpt lat="44.81248" lon="6.9564">
        <ele>1802.1</ele>
        <time>2022-02-25T10:04:47Z</time>
      </trkpt>
      <trkpt lat="44.81248" lon="6.9564">
        <ele>1802.1</ele>
        <time>2022-02-25T10:04:48Z</time>
      </trkpt>
      <trkpt lat="44.81248" lon="6.9564">
        <ele>1802.1</ele>
        <time>2022-02-25T10:04:49Z</time>
      </trkpt>
      <trkpt lat="44.81248" lon="6.9564">
        <ele>1802.1</ele>
        <time>2022-02-25T10:04:50Z</time>
      </trkpt>
      <trkpt lat="44.81248" lon="6.9564">
        <ele>1802.1</ele>
        <time>2022-02-25T10:04:51Z</time>
      </trkpt>
      <trkpt lat="44.81248" lon="6.9564">
        <ele>1802.1</ele>
        <time>2022-02-25T10:04:52Z</time>
      </trkpt>
      <trkpt lat="44.81248" lon="6.9564">
        <ele>1802.1</ele>
        <time>2022-02-25T10:04:53Z</time>
      </trkpt>
      <trkpt lat="44.81248" lon="6.9564">
        <ele>1802.1</ele>
        <time>2022-02-25T10:04:54Z</time>
      </trkpt>
      <trkpt lat="44.81248" lon="6.9564">
        <ele>1802.1</ele>
        <time>2022-02-25T10:04:55Z</time>
      </trkpt>
      <trkpt lat="44.81248" lon="6.9564">
        <ele>1802.1</ele>
        <time>2022-02-25T10:04:56Z</time>
      </trkpt>
      <trkpt lat="44.81248" lon="6.9564">
        <ele>1802.1</ele>
        <time>2022-02-25T10:04:57Z</time>
      </trkpt>
      <trkpt lat="44.81248" lon="6.9564">
        <ele>1802.1</ele>
        <time>2022-02-25T10:04:58Z</time>
      </trkpt>
      <trkpt lat="44.81248" lon="6.9564">
        <ele>1802.1</ele>
        <time>2022-02-25T10:04:59Z</time>
      </trkpt>
      <trkpt lat="44.81248" lon="6.9564">
        <ele>1802.1</ele>
        <time>2022-02-25T10:05:00Z</time>
      </trkpt>
      <trkpt lat="44.81248" lon="6.9564">
        <ele>1802.1</ele>
        <time>2022-02-25T10:05:01Z</time>
      </trkpt>
      <trkpt lat="44.81248" lon="6.9564">
        <ele>1802.1</ele>
        <time>2022-02-25T10:05:02Z</time>
      </trkpt>
      <trkpt lat="44.81248" lon="6.9564">
        <ele>1802.1</ele>
        <time>2022-02-25T10:05:03Z</time>
      </trkpt>
      <trkpt lat="44.81248" lon="6.9564">
        <ele>1802.1</ele>
        <time>2022-02-25T10:05:04Z</time>
      </trkpt>
      <trkpt lat="44.81248" lon="6.9564">
        <ele>1802.1</ele>
        <time>2022-02-25T10:05:05Z</time>
      </trkpt>
      <trkpt lat="44.81248" lon="6.9564">
        <ele>1802.1</ele>
        <time>2022-02-25T10:05:06Z</time>
      </trkpt>
      <trkpt lat="44.81248" lon="6.9564">
        <ele>1802.1</ele>
        <time>2022-02-25T10:05:07Z</time>
      </trkpt>
      <trkpt lat="44.81248" lon="6.9564">
        <ele>1802.1</ele>
        <time>2022-02-25T10:05:08Z</time>
      </trkpt>
      <trkpt lat="44.81248" lon="6.9564">
        <ele>1802.1</ele>
        <time>2022-02-25T10:05:09Z</time>
      </trkpt>
      <trkpt lat="44.81248" lon="6.9564">
        <ele>1802.1</ele>
        <time>2022-02-25T10:05:10Z</time>
      </trkpt>
      <trkpt lat="44.81248" lon="6.9564">
        <ele>1802.1</ele>
        <time>2022-02-25T10:05:11Z</time>
      </trkpt>
      <trkpt lat="44.81248" lon="6.9564">
        <ele>1802.1</ele>
        <time>2022-02-25T10:05:12Z</time>
      </trkpt>
      <trkpt lat="44.81248" lon="6.9564">
        <ele>1802.1</ele>
        <time>2022-02-25T10:05:13Z</time>
      </trkpt>
      <trkpt lat="44.81248" lon="6.9564">
        <ele>1802.1</ele>
        <time>2022-02-25T10:05:14Z</time>
      </trkpt>
      <trkpt lat="44.81248" lon="6.9564">
        <ele>1802.1</ele>
        <time>2022-02-25T10:05:15Z</time>
      </trkpt>
      <trkpt lat="44.81248" lon="6.9564">
        <ele>1802.1</ele>
        <time>2022-02-25T10:05:16Z</time>
      </trkpt>
      <trkpt lat="44.81248" lon="6.9564">
        <ele>1802.1</ele>
        <time>2022-02-25T10:05:17Z</time>
      </trkpt>
      <trkpt lat="44.81248" lon="6.9564">
        <ele>1802.1</ele>
        <time>2022-02-25T10:05:18Z</time>
      </trkpt>
      <trkpt lat="44.81248" lon="6.9564">
        <ele>1802.1</ele>
        <time>2022-02-25T10:05:19Z</time>
      </trkpt>
      <trkpt lat="44.81248" lon="6.9564">
        <ele>1802.1</ele>
        <time>2022-02-25T10:05:20Z</time>
      </trkpt>
      <trkpt lat="44.81248" lon="6.9564">
        <ele>1802.1</ele>
        <time>2022-02-25T10:05:21Z</time>
      </trkpt>
      <trkpt lat="44.81248" lon="6.9564">
        <ele>1802.1</ele>
        <time>2022-02-25T10:05:22Z</time>
      </trkpt>
      <trkpt lat="44.81248" lon="6.9564">
        <ele>1802.1</ele>
        <time>2022-02-25T10:05:23Z</time>
      </trkpt>
      <trkpt lat="44.81248" lon="6.9564">
        <ele>1802.1</ele>
        <time>2022-02-25T10:05:24Z</time>
      </trkpt>
      <trkpt lat="44.81248" lon="6.9564">
        <ele>1802.1</ele>
        <time>2022-02-25T10:05:25Z</time>
      </trkpt>
      <trkpt lat="44.81248" lon="6.9564">
        <ele>1802.1</ele>
        <time>2022-02-25T10:05:26Z</time>
      </trkpt>
      <trkpt lat="44.81248" lon="6.9564">
        <ele>1802.1</ele>
        <time>2022-02-25T10:05:27Z</time>
      </trkpt>
      <trkpt lat="44.81248" lon="6.9564">
        <ele>1802.1</ele>
        <time>2022-02-25T10:05:28Z</time>
      </trkpt>
      <trkpt lat="44.81248" lon="6.9564">
        <ele>1802.1</ele>
        <time>2022-02-25T10:05:29Z</time>
      </trkpt>
      <trkpt lat="44.81248" lon="6.95642">
        <ele>1802.2</ele>
        <time>2022-02-25T10:05:30Z</time>
      </trkpt>
      <trkpt lat="44.81248" lon="6.95642">
        <ele>1802.2</ele>
        <time>2022-02-25T10:05:31Z</time>
      </trkpt>
      <trkpt lat="44.81249" lon="6.95646">
        <ele>1802.6</ele>
        <time>2022-02-25T10:05:32Z</time>
      </trkpt>
      <trkpt lat="44.81249" lon="6.95646">
        <ele>1802.6</ele>
        <time>2022-02-25T10:05:33Z</time>
      </trkpt>
      <trkpt lat="44.81249" lon="6.9565">
        <ele>1802.6</ele>
        <time>2022-02-25T10:05:34Z</time>
      </trkpt>
      <trkpt lat="44.81249" lon="6.9565">
        <ele>1802.6</ele>
        <time>2022-02-25T10:05:35Z</time>
      </trkpt>
      <trkpt lat="44.81249" lon="6.95655">
        <ele>1802.6</ele>
        <time>2022-02-25T10:05:36Z</time>
      </trkpt>
      <trkpt lat="44.81249" lon="6.95655">
        <ele>1802.6</ele>
        <time>2022-02-25T10:05:37Z</time>
      </trkpt>
      <trkpt lat="44.81249" lon="6.95659">
        <ele>1802.6</ele>
        <time>2022-02-25T10:05:38Z</time>
      </trkpt>
      <trkpt lat="44.81249" lon="6.95659">
        <ele>1802.6</ele>
        <time>2022-02-25T10:05:39Z</time>
      </trkpt>
      <trkpt lat="44.81249" lon="6.95663">
        <ele>1802.6</ele>
        <time>2022-02-25T10:05:40Z</time>
      </trkpt>
      <trkpt lat="44.81249" lon="6.95663">
        <ele>1802.6</ele>
        <time>2022-02-25T10:05:41Z</time>
      </trkpt>
      <trkpt lat="44.8125" lon="6.95666">
        <ele>1803</ele>
        <time>2022-02-25T10:05:42Z</time>
      </trkpt>
      <trkpt lat="44.8125" lon="6.95666">
        <ele>1803</ele>
        <time>2022-02-25T10:05:43Z</time>
      </trkpt>
      <trkpt lat="44.8125" lon="6.95669">
        <ele>1803.1</ele>
        <time>2022-02-25T10:05:44Z</time>
      </trkpt>
      <trkpt lat="44.8125" lon="6.95669">
        <ele>1803.1</ele>
        <time>2022-02-25T10:05:45Z</time>
      </trkpt>
      <trkpt lat="44.8125" lon="6.95672">
        <ele>1803.2</ele>
        <time>2022-02-25T10:05:46Z</time>
      </trkpt>
      <trkpt lat="44.8125" lon="6.95672">
        <ele>1803.2</ele>
        <time>2022-02-25T10:05:47Z</time>
      </trkpt>
      <trkpt lat="44.8125" lon="6.95674">
        <ele>1803.3</ele>
        <time>2022-02-25T10:05:48Z</time>
      </trkpt>
      <trkpt lat="44.8125" lon="6.95674">
        <ele>1803.3</ele>
        <time>2022-02-25T10:05:49Z</time>
      </trkpt>
      <trkpt lat="44.8125" lon="6.95677">
        <ele>1803.4</ele>
        <time>2022-02-25T10:05:50Z</time>
      </trkpt>
      <trkpt lat="44.8125" lon="6.95677">
        <ele>1803.4</ele>
        <time>2022-02-25T10:05:51Z</time>
      </trkpt>
      <trkpt lat="44.81251" lon="6.9568">
        <ele>1804</ele>
        <time>2022-02-25T10:05:52Z</time>
      </trkpt>
      <trkpt lat="44.81251" lon="6.9568">
        <ele>1804</ele>
        <time>2022-02-25T10:05:53Z</time>
      </trkpt>
      <trkpt lat="44.81252" lon="6.95683">
        <ele>1804.6</ele>
        <time>2022-02-25T10:05:54Z</time>
      </trkpt>
      <trkpt lat="44.81252" lon="6.95683">
        <ele>1804.6</ele>
        <time>2022-02-25T10:05:55Z</time>
      </trkpt>
      <trkpt lat="44.81252" lon="6.95686">
        <ele>1804.8</ele>
        <time>2022-02-25T10:05:56Z</time>
      </trkpt>
      <trkpt lat="44.81252" lon="6.95686">
        <ele>1804.8</ele>
        <time>2022-02-25T10:05:57Z</time>
      </trkpt>
      <trkpt lat="44.81253" lon="6.95689">
        <ele>1805.4</ele>
        <time>2022-02-25T10:05:58Z</time>
      </trkpt>
      <trkpt lat="44.81253" lon="6.95689">
        <ele>1805.4</ele>
        <time>2022-02-25T10:05:59Z</time>
      </trkpt>
      <trkpt lat="44.81254" lon="6.95692">
        <ele>1806.1</ele>
        <time>2022-02-25T10:06:00Z</time>
      </trkpt>
      <trkpt lat="44.81254" lon="6.95692">
        <ele>1806.1</ele>
        <time>2022-02-25T10:06:01Z</time>
      </trkpt>
      <trkpt lat="44.81254" lon="6.95695">
        <ele>1806.2</ele>
        <time>2022-02-25T10:06:02Z</time>
      </trkpt>
      <trkpt lat="44.81254" lon="6.95695">
        <ele>1806.2</ele>
        <time>2022-02-25T10:06:03Z</time>
      </trkpt>
      <trkpt lat="44.81254" lon="6.95698">
        <ele>1806.3</ele>
        <time>2022-02-25T10:06:04Z</time>
      </trkpt>
      <trkpt lat="44.81254" lon="6.95698">
        <ele>1806.3</ele>
        <time>2022-02-25T10:06:05Z</time>
      </trkpt>
      <trkpt lat="44.81255" lon="6.95701">
        <ele>1806.9</ele>
        <time>2022-02-25T10:06:06Z</time>
      </trkpt>
      <trkpt lat="44.81255" lon="6.95701">
        <ele>1806.9</ele>
        <time>2022-02-25T10:06:07Z</time>
      </trkpt>
      <trkpt lat="44.81255" lon="6.95704">
        <ele>1807</ele>
        <time>2022-02-25T10:06:08Z</time>
      </trkpt>
      <trkpt lat="44.81255" lon="6.95704">
        <ele>1807</ele>
        <time>2022-02-25T10:06:09Z</time>
      </trkpt>
      <trkpt lat="44.81257" lon="6.95707">
        <ele>1808.2</ele>
        <time>2022-02-25T10:06:10Z</time>
      </trkpt>
      <trkpt lat="44.81257" lon="6.95707">
        <ele>1808.2</ele>
        <time>2022-02-25T10:06:11Z</time>
      </trkpt>
      <trkpt lat="44.81257" lon="6.9571">
        <ele>1808.3</ele>
        <time>2022-02-25T10:06:12Z</time>
      </trkpt>
      <trkpt lat="44.81257" lon="6.9571">
        <ele>1808.3</ele>
        <time>2022-02-25T10:06:13Z</time>
      </trkpt>
      <trkpt lat="44.81257" lon="6.9571">
        <ele>1808.3</ele>
        <time>2022-02-25T10:06:14Z</time>
      </trkpt>
      <trkpt lat="44.81257" lon="6.95714">
        <ele>1808.5</ele>
        <time>2022-02-25T10:06:15Z</time>
      </trkpt>
      <trkpt lat="44.81257" lon="6.95714">
        <ele>1808.5</ele>
        <time>2022-02-25T10:06:16Z</time>
      </trkpt>
      <trkpt lat="44.81257" lon="6.95714">
        <ele>1808.5</ele>
        <time>2022-02-25T10:06:17Z</time>
      </trkpt>
      <trkpt lat="44.81258" lon="6.95717">
        <ele>1809.1</ele>
        <time>2022-02-25T10:06:18Z</time>
      </trkpt>
      <trkpt lat="44.81258" lon="6.95717">
        <ele>1809.1</ele>
        <time>2022-02-25T10:06:19Z</time>
      </trkpt>
      <trkpt lat="44.81258" lon="6.9572">
        <ele>1809.2</ele>
        <time>2022-02-25T10:06:20Z</time>
      </trkpt>
      <trkpt lat="44.81258" lon="6.9572">
        <ele>1809.2</ele>
        <time>2022-02-25T10:06:21Z</time>
      </trkpt>
      <trkpt lat="44.81258" lon="6.95723">
        <ele>1809.4</ele>
        <time>2022-02-25T10:06:22Z</time>
      </trkpt>
      <trkpt lat="44.81258" lon="6.95723">
        <ele>1809.4</ele>
        <time>2022-02-25T10:06:23Z</time>
      </trkpt>
      <trkpt lat="44.81258" lon="6.95723">
        <ele>1809.4</ele>
        <time>2022-02-25T10:06:24Z</time>
      </trkpt>
      <trkpt lat="44.81258" lon="6.95726">
        <ele>1809.6</ele>
        <time>2022-02-25T10:06:25Z</time>
      </trkpt>
      <trkpt lat="44.81258" lon="6.95726">
        <ele>1809.6</ele>
        <time>2022-02-25T10:06:26Z</time>
      </trkpt>
      <trkpt lat="44.81258" lon="6.95729">
        <ele>1809.7</ele>
        <time>2022-02-25T10:06:27Z</time>
      </trkpt>
      <trkpt lat="44.81258" lon="6.95729">
        <ele>1809.7</ele>
        <time>2022-02-25T10:06:28Z</time>
      </trkpt>
      <trkpt lat="44.81258" lon="6.95732">
        <ele>1809.9</ele>
        <time>2022-02-25T10:06:29Z</time>
      </trkpt>
      <trkpt lat="44.81258" lon="6.95732">
        <ele>1809.9</ele>
        <time>2022-02-25T10:06:30Z</time>
      </trkpt>
      <trkpt lat="44.81258" lon="6.95735">
        <ele>1810.1</ele>
        <time>2022-02-25T10:06:31Z</time>
      </trkpt>
      <trkpt lat="44.81258" lon="6.95735">
        <ele>1810.1</ele>
        <time>2022-02-25T10:06:32Z</time>
      </trkpt>
      <trkpt lat="44.81258" lon="6.95737">
        <ele>1810.2</ele>
        <time>2022-02-25T10:06:33Z</time>
      </trkpt>
      <trkpt lat="44.81258" lon="6.95737">
        <ele>1810.2</ele>
        <time>2022-02-25T10:06:34Z</time>
      </trkpt>
      <trkpt lat="44.81259" lon="6.9574">
        <ele>1810.9</ele>
        <time>2022-02-25T10:06:35Z</time>
      </trkpt>
      <trkpt lat="44.81259" lon="6.9574">
        <ele>1810.9</ele>
        <time>2022-02-25T10:06:36Z</time>
      </trkpt>
      <trkpt lat="44.81259" lon="6.9574">
        <ele>1810.9</ele>
        <time>2022-02-25T10:06:37Z</time>
      </trkpt>
      <trkpt lat="44.81259" lon="6.95743">
        <ele>1811.1</ele>
        <time>2022-02-25T10:06:38Z</time>
      </trkpt>
      <trkpt lat="44.81259" lon="6.95743">
        <ele>1811.1</ele>
        <time>2022-02-25T10:06:39Z</time>
      </trkpt>
      <trkpt lat="44.8126" lon="6.95746">
        <ele>1811.8</ele>
        <time>2022-02-25T10:06:40Z</time>
      </trkpt>
      <trkpt lat="44.8126" lon="6.95746">
        <ele>1811.8</ele>
        <time>2022-02-25T10:06:41Z</time>
      </trkpt>
      <trkpt lat="44.8126" lon="6.95749">
        <ele>1812</ele>
        <time>2022-02-25T10:06:42Z</time>
      </trkpt>
      <trkpt lat="44.8126" lon="6.95749">
        <ele>1812</ele>
        <time>2022-02-25T10:06:43Z</time>
      </trkpt>
      <trkpt lat="44.8126" lon="6.95751">
        <ele>1812.1</ele>
        <time>2022-02-25T10:06:44Z</time>
      </trkpt>
      <trkpt lat="44.8126" lon="6.95751">
        <ele>1812.1</ele>
        <time>2022-02-25T10:06:45Z</time>
      </trkpt>
      <trkpt lat="44.8126" lon="6.95755">
        <ele>1812.5</ele>
        <time>2022-02-25T10:06:46Z</time>
      </trkpt>
      <trkpt lat="44.8126" lon="6.95755">
        <ele>1812.5</ele>
        <time>2022-02-25T10:06:47Z</time>
      </trkpt>
      <trkpt lat="44.8126" lon="6.95757">
        <ele>1812.6</ele>
        <time>2022-02-25T10:06:48Z</time>
      </trkpt>
      <trkpt lat="44.8126" lon="6.95757">
        <ele>1812.6</ele>
        <time>2022-02-25T10:06:49Z</time>
      </trkpt>
      <trkpt lat="44.81259" lon="6.9576">
        <ele>1812.4</ele>
        <time>2022-02-25T10:06:50Z</time>
      </trkpt>
      <trkpt lat="44.81259" lon="6.9576">
        <ele>1812.4</ele>
        <time>2022-02-25T10:06:51Z</time>
      </trkpt>
      <trkpt lat="44.8126" lon="6.95763">
        <ele>1813.1</ele>
        <time>2022-02-25T10:06:52Z</time>
      </trkpt>
      <trkpt lat="44.8126" lon="6.95763">
        <ele>1813.1</ele>
        <time>2022-02-25T10:06:53Z</time>
      </trkpt>
      <trkpt lat="44.8126" lon="6.95766">
        <ele>1813.4</ele>
        <time>2022-02-25T10:06:54Z</time>
      </trkpt>
      <trkpt lat="44.8126" lon="6.95766">
        <ele>1813.4</ele>
        <time>2022-02-25T10:06:55Z</time>
      </trkpt>
      <trkpt lat="44.8126" lon="6.95766">
        <ele>1813.4</ele>
        <time>2022-02-25T10:06:56Z</time>
      </trkpt>
      <trkpt lat="44.81259" lon="6.9577">
        <ele>1813.2</ele>
        <time>2022-02-25T10:06:57Z</time>
      </trkpt>
      <trkpt lat="44.81259" lon="6.9577">
        <ele>1813.2</ele>
        <time>2022-02-25T10:06:58Z</time>
      </trkpt>
      <trkpt lat="44.81259" lon="6.9577">
        <ele>1813.2</ele>
        <time>2022-02-25T10:06:59Z</time>
      </trkpt>
      <trkpt lat="44.8126" lon="6.95774">
        <ele>1814.1</ele>
        <time>2022-02-25T10:07:00Z</time>
      </trkpt>
      <trkpt lat="44.8126" lon="6.95774">
        <ele>1814.1</ele>
        <time>2022-02-25T10:07:01Z</time>
      </trkpt>
      <trkpt lat="44.8126" lon="6.95777">
        <ele>1814.3</ele>
        <time>2022-02-25T10:07:02Z</time>
      </trkpt>
      <trkpt lat="44.8126" lon="6.95777">
        <ele>1814.3</ele>
        <time>2022-02-25T10:07:03Z</time>
      </trkpt>
      <trkpt lat="44.8126" lon="6.95779">
        <ele>1814.5</ele>
        <time>2022-02-25T10:07:04Z</time>
      </trkpt>
      <trkpt lat="44.8126" lon="6.95779">
        <ele>1814.5</ele>
        <time>2022-02-25T10:07:05Z</time>
      </trkpt>
      <trkpt lat="44.8126" lon="6.95779">
        <ele>1814.5</ele>
        <time>2022-02-25T10:07:06Z</time>
      </trkpt>
      <trkpt lat="44.81259" lon="6.95782">
        <ele>1814.3</ele>
        <time>2022-02-25T10:07:07Z</time>
      </trkpt>
      <trkpt lat="44.81259" lon="6.95782">
        <ele>1814.3</ele>
        <time>2022-02-25T10:07:08Z</time>
      </trkpt>
      <trkpt lat="44.81259" lon="6.95782">
        <ele>1814.3</ele>
        <time>2022-02-25T10:07:09Z</time>
      </trkpt>
      <trkpt lat="44.81259" lon="6.95782">
        <ele>1814.3</ele>
        <time>2022-02-25T10:07:10Z</time>
      </trkpt>
      <trkpt lat="44.81259" lon="6.95782">
        <ele>1814.3</ele>
        <time>2022-02-25T10:07:11Z</time>
      </trkpt>
      <trkpt lat="44.81259" lon="6.95782">
        <ele>1814.3</ele>
        <time>2022-02-25T10:07:12Z</time>
      </trkpt>
      <trkpt lat="44.81259" lon="6.95782">
        <ele>1814.3</ele>
        <time>2022-02-25T10:07:13Z</time>
      </trkpt>
      <trkpt lat="44.81259" lon="6.95782">
        <ele>1814.3</ele>
        <time>2022-02-25T10:07:14Z</time>
      </trkpt>
      <trkpt lat="44.81259" lon="6.95782">
        <ele>1814.3</ele>
        <time>2022-02-25T10:07:15Z</time>
      </trkpt>
      <trkpt lat="44.81259" lon="6.95782">
        <ele>1814.3</ele>
        <time>2022-02-25T10:07:16Z</time>
      </trkpt>
      <trkpt lat="44.81259" lon="6.95782">
        <ele>1814.3</ele>
        <time>2022-02-25T10:07:17Z</time>
      </trkpt>
      <trkpt lat="44.81259" lon="6.95782">
        <ele>1814.3</ele>
        <time>2022-02-25T10:07:18Z</time>
      </trkpt>
      <trkpt lat="44.81259" lon="6.95782">
        <ele>1814.3</ele>
        <time>2022-02-25T10:07:19Z</time>
      </trkpt>
      <trkpt lat="44.81259" lon="6.95782">
        <ele>1814.3</ele>
        <time>2022-02-25T10:07:20Z</time>
      </trkpt>
      <trkpt lat="44.81259" lon="6.95782">
        <ele>1814.3</ele>
        <time>2022-02-25T10:07:21Z</time>
      </trkpt>
      <trkpt lat="44.81259" lon="6.95782">
        <ele>1814.3</ele>
        <time>2022-02-25T10:07:22Z</time>
      </trkpt>
      <trkpt lat="44.81259" lon="6.95782">
        <ele>1814.3</ele>
        <time>2022-02-25T10:07:23Z</time>
      </trkpt>
      <trkpt lat="44.81259" lon="6.95782">
        <ele>1814.3</ele>
        <time>2022-02-25T10:07:24Z</time>
      </trkpt>
      <trkpt lat="44.81259" lon="6.95782">
        <ele>1814.3</ele>
        <time>2022-02-25T10:07:25Z</time>
      </trkpt>
      <trkpt lat="44.81259" lon="6.95782">
        <ele>1814.3</ele>
        <time>2022-02-25T10:07:26Z</time>
      </trkpt>
      <trkpt lat="44.81259" lon="6.95782">
        <ele>1814.3</ele>
        <time>2022-02-25T10:07:27Z</time>
      </trkpt>
      <trkpt lat="44.81259" lon="6.95782">
        <ele>1814.3</ele>
        <time>2022-02-25T10:07:28Z</time>
      </trkpt>
      <trkpt lat="44.81259" lon="6.95782">
        <ele>1814.3</ele>
        <time>2022-02-25T10:07:29Z</time>
      </trkpt>
      <trkpt lat="44.81259" lon="6.95782">
        <ele>1814.3</ele>
        <time>2022-02-25T10:07:30Z</time>
      </trkpt>
      <trkpt lat="44.81259" lon="6.95782">
        <ele>1814.3</ele>
        <time>2022-02-25T10:07:31Z</time>
      </trkpt>
      <trkpt lat="44.81259" lon="6.95782">
        <ele>1814.3</ele>
        <time>2022-02-25T10:07:32Z</time>
      </trkpt>
      <trkpt lat="44.81259" lon="6.95782">
        <ele>1814.3</ele>
        <time>2022-02-25T10:07:33Z</time>
      </trkpt>
      <trkpt lat="44.81259" lon="6.95782">
        <ele>1814.3</ele>
        <time>2022-02-25T10:07:34Z</time>
      </trkpt>
      <trkpt lat="44.81259" lon="6.95785">
        <ele>1814.6</ele>
        <time>2022-02-25T10:07:35Z</time>
      </trkpt>
      <trkpt lat="44.81259" lon="6.95785">
        <ele>1814.6</ele>
        <time>2022-02-25T10:07:36Z</time>
      </trkpt>
      <trkpt lat="44.81258" lon="6.9579">
        <ele>1814.6</ele>
        <time>2022-02-25T10:07:37Z</time>
      </trkpt>
      <trkpt lat="44.81258" lon="6.9579">
        <ele>1814.6</ele>
        <time>2022-02-25T10:07:38Z</time>
      </trkpt>
      <trkpt lat="44.81258" lon="6.95794">
        <ele>1815.1</ele>
        <time>2022-02-25T10:07:39Z</time>
      </trkpt>
      <trkpt lat="44.81258" lon="6.95794">
        <ele>1815.1</ele>
        <time>2022-02-25T10:07:40Z</time>
      </trkpt>
      <trkpt lat="44.81257" lon="6.95797">
        <ele>1814.9</ele>
        <time>2022-02-25T10:07:41Z</time>
      </trkpt>
      <trkpt lat="44.81257" lon="6.95797">
        <ele>1814.9</ele>
        <time>2022-02-25T10:07:42Z</time>
      </trkpt>
      <trkpt lat="44.81257" lon="6.95801">
        <ele>1815.3</ele>
        <time>2022-02-25T10:07:43Z</time>
      </trkpt>
      <trkpt lat="44.81257" lon="6.95801">
        <ele>1815.3</ele>
        <time>2022-02-25T10:07:44Z</time>
      </trkpt>
      <trkpt lat="44.81256" lon="6.95803">
        <ele>1815</ele>
        <time>2022-02-25T10:07:45Z</time>
      </trkpt>
      <trkpt lat="44.81256" lon="6.95803">
        <ele>1815</ele>
        <time>2022-02-25T10:07:46Z</time>
      </trkpt>
      <trkpt lat="44.81255" lon="6.95806">
        <ele>1814.7</ele>
        <time>2022-02-25T10:07:47Z</time>
      </trkpt>
      <trkpt lat="44.81255" lon="6.95806">
        <ele>1814.7</ele>
        <time>2022-02-25T10:07:48Z</time>
      </trkpt>
      <trkpt lat="44.81254" lon="6.95809">
        <ele>1814.5</ele>
        <time>2022-02-25T10:07:49Z</time>
      </trkpt>
      <trkpt lat="44.81254" lon="6.95809">
        <ele>1814.5</ele>
        <time>2022-02-25T10:07:50Z</time>
      </trkpt>
      <trkpt lat="44.81254" lon="6.95812">
        <ele>1814.8</ele>
        <time>2022-02-25T10:07:51Z</time>
      </trkpt>
      <trkpt lat="44.81254" lon="6.95812">
        <ele>1814.8</ele>
        <time>2022-02-25T10:07:52Z</time>
      </trkpt>
      <trkpt lat="44.81253" lon="6.95815">
        <ele>1814.6</ele>
        <time>2022-02-25T10:07:53Z</time>
      </trkpt>
      <trkpt lat="44.81253" lon="6.95815">
        <ele>1814.6</ele>
        <time>2022-02-25T10:07:54Z</time>
      </trkpt>
      <trkpt lat="44.81252" lon="6.95819">
        <ele>1814.5</ele>
        <time>2022-02-25T10:07:55Z</time>
      </trkpt>
      <trkpt lat="44.81252" lon="6.95819">
        <ele>1814.5</ele>
        <time>2022-02-25T10:07:56Z</time>
      </trkpt>
      <trkpt lat="44.81252" lon="6.95822">
        <ele>1814.8</ele>
        <time>2022-02-25T10:07:57Z</time>
      </trkpt>
      <trkpt lat="44.81252" lon="6.95822">
        <ele>1814.8</ele>
        <time>2022-02-25T10:07:58Z</time>
      </trkpt>
      <trkpt lat="44.81251" lon="6.95825">
        <ele>1814.6</ele>
        <time>2022-02-25T10:07:59Z</time>
      </trkpt>
      <trkpt lat="44.81251" lon="6.95825">
        <ele>1814.6</ele>
        <time>2022-02-25T10:08:00Z</time>
      </trkpt>
      <trkpt lat="44.81251" lon="6.95828">
        <ele>1814.9</ele>
        <time>2022-02-25T10:08:01Z</time>
      </trkpt>
      <trkpt lat="44.81251" lon="6.95828">
        <ele>1814.9</ele>
        <time>2022-02-25T10:08:02Z</time>
      </trkpt>
      <trkpt lat="44.81249" lon="6.95831">
        <ele>1814.4</ele>
        <time>2022-02-25T10:08:03Z</time>
      </trkpt>
      <trkpt lat="44.81249" lon="6.95831">
        <ele>1814.4</ele>
        <time>2022-02-25T10:08:04Z</time>
      </trkpt>
      <trkpt lat="44.81248" lon="6.95834">
        <ele>1814.4</ele>
        <time>2022-02-25T10:08:05Z</time>
      </trkpt>
      <trkpt lat="44.81248" lon="6.95834">
        <ele>1814.4</ele>
        <time>2022-02-25T10:08:06Z</time>
      </trkpt>
      <trkpt lat="44.81248" lon="6.95836">
        <ele>1814.6</ele>
        <time>2022-02-25T10:08:07Z</time>
      </trkpt>
      <trkpt lat="44.81248" lon="6.95836">
        <ele>1814.6</ele>
        <time>2022-02-25T10:08:08Z</time>
      </trkpt>
      <trkpt lat="44.81247" lon="6.95839">
        <ele>1814.5</ele>
        <time>2022-02-25T10:08:09Z</time>
      </trkpt>
      <trkpt lat="44.81247" lon="6.95839">
        <ele>1814.5</ele>
        <time>2022-02-25T10:08:10Z</time>
      </trkpt>
      <trkpt lat="44.81247" lon="6.95839">
        <ele>1814.5</ele>
        <time>2022-02-25T10:08:11Z</time>
      </trkpt>
      <trkpt lat="44.81246" lon="6.95843">
        <ele>1814.6</ele>
        <time>2022-02-25T10:08:12Z</time>
      </trkpt>
      <trkpt lat="44.81246" lon="6.95843">
        <ele>1814.6</ele>
        <time>2022-02-25T10:08:13Z</time>
      </trkpt>
      <trkpt lat="44.81246" lon="6.95846">
        <ele>1814.9</ele>
        <time>2022-02-25T10:08:14Z</time>
      </trkpt>
      <trkpt lat="44.81246" lon="6.95846">
        <ele>1814.9</ele>
        <time>2022-02-25T10:08:15Z</time>
      </trkpt>
      <trkpt lat="44.81246" lon="6.95849">
        <ele>1815.2</ele>
        <time>2022-02-25T10:08:16Z</time>
      </trkpt>
      <trkpt lat="44.81246" lon="6.95849">
        <ele>1815.2</ele>
        <time>2022-02-25T10:08:17Z</time>
      </trkpt>
      <trkpt lat="44.81245" lon="6.95851">
        <ele>1815</ele>
        <time>2022-02-25T10:08:18Z</time>
      </trkpt>
      <trkpt lat="44.81245" lon="6.95851">
        <ele>1815</ele>
        <time>2022-02-25T10:08:19Z</time>
      </trkpt>
      <trkpt lat="44.81245" lon="6.95851">
        <ele>1815</ele>
        <time>2022-02-25T10:08:20Z</time>
      </trkpt>
      <trkpt lat="44.81245" lon="6.95854">
        <ele>1815.3</ele>
        <time>2022-02-25T10:08:21Z</time>
      </trkpt>
      <trkpt lat="44.81245" lon="6.95854">
        <ele>1815.3</ele>
        <time>2022-02-25T10:08:22Z</time>
      </trkpt>
      <trkpt lat="44.81245" lon="6.95854">
        <ele>1815.3</ele>
        <time>2022-02-25T10:08:23Z</time>
      </trkpt>
      <trkpt lat="44.81245" lon="6.95857">
        <ele>1815.6</ele>
        <time>2022-02-25T10:08:24Z</time>
      </trkpt>
      <trkpt lat="44.81245" lon="6.95857">
        <ele>1815.6</ele>
        <time>2022-02-25T10:08:25Z</time>
      </trkpt>
      <trkpt lat="44.81245" lon="6.95857">
        <ele>1815.6</ele>
        <time>2022-02-25T10:08:26Z</time>
      </trkpt>
      <trkpt lat="44.81245" lon="6.9586">
        <ele>1815.9</ele>
        <time>2022-02-25T10:08:27Z</time>
      </trkpt>
      <trkpt lat="44.81245" lon="6.9586">
        <ele>1815.9</ele>
        <time>2022-02-25T10:08:28Z</time>
      </trkpt>
      <trkpt lat="44.81244" lon="6.95863">
        <ele>1815.9</ele>
        <time>2022-02-25T10:08:29Z</time>
      </trkpt>
      <trkpt lat="44.81244" lon="6.95863">
        <ele>1815.9</ele>
        <time>2022-02-25T10:08:30Z</time>
      </trkpt>
      <trkpt lat="44.81244" lon="6.95863">
        <ele>1815.9</ele>
        <time>2022-02-25T10:08:31Z</time>
      </trkpt>
      <trkpt lat="44.81244" lon="6.95866">
        <ele>1816.3</ele>
        <time>2022-02-25T10:08:32Z</time>
      </trkpt>
      <trkpt lat="44.81244" lon="6.95866">
        <ele>1816.3</ele>
        <time>2022-02-25T10:08:33Z</time>
      </trkpt>
      <trkpt lat="44.81244" lon="6.95866">
        <ele>1816.3</ele>
        <time>2022-02-25T10:08:34Z</time>
      </trkpt>
      <trkpt lat="44.81244" lon="6.9587">
        <ele>1816.8</ele>
        <time>2022-02-25T10:08:35Z</time>
      </trkpt>
      <trkpt lat="44.81244" lon="6.9587">
        <ele>1816.8</ele>
        <time>2022-02-25T10:08:36Z</time>
      </trkpt>
      <trkpt lat="44.81244" lon="6.95873">
        <ele>1817.2</ele>
        <time>2022-02-25T10:08:37Z</time>
      </trkpt>
      <trkpt lat="44.81244" lon="6.95873">
        <ele>1817.2</ele>
        <time>2022-02-25T10:08:38Z</time>
      </trkpt>
      <trkpt lat="44.81244" lon="6.95876">
        <ele>1817.5</ele>
        <time>2022-02-25T10:08:39Z</time>
      </trkpt>
      <trkpt lat="44.81244" lon="6.95876">
        <ele>1817.5</ele>
        <time>2022-02-25T10:08:40Z</time>
      </trkpt>
      <trkpt lat="44.81245" lon="6.95879">
        <ele>1818.4</ele>
        <time>2022-02-25T10:08:41Z</time>
      </trkpt>
      <trkpt lat="44.81245" lon="6.95879">
        <ele>1818.4</ele>
        <time>2022-02-25T10:08:42Z</time>
      </trkpt>
      <trkpt lat="44.81246" lon="6.95882">
        <ele>1819.2</ele>
        <time>2022-02-25T10:08:43Z</time>
      </trkpt>
      <trkpt lat="44.81246" lon="6.95882">
        <ele>1819.2</ele>
        <time>2022-02-25T10:08:44Z</time>
      </trkpt>
      <trkpt lat="44.81245" lon="6.95885">
        <ele>1819.2</ele>
        <time>2022-02-25T10:08:45Z</time>
      </trkpt>
      <trkpt lat="44.81245" lon="6.95885">
        <ele>1819.2</ele>
        <time>2022-02-25T10:08:46Z</time>
      </trkpt>
      <trkpt lat="44.81245" lon="6.95885">
        <ele>1819.2</ele>
        <time>2022-02-25T10:08:47Z</time>
      </trkpt>
      <trkpt lat="44.81245" lon="6.95888">
        <ele>1819.5</ele>
        <time>2022-02-25T10:08:48Z</time>
      </trkpt>
      <trkpt lat="44.81245" lon="6.95888">
        <ele>1819.5</ele>
        <time>2022-02-25T10:08:49Z</time>
      </trkpt>
      <trkpt lat="44.81244" lon="6.95891">
        <ele>1819.5</ele>
        <time>2022-02-25T10:08:50Z</time>
      </trkpt>
      <trkpt lat="44.81244" lon="6.95891">
        <ele>1819.5</ele>
        <time>2022-02-25T10:08:51Z</time>
      </trkpt>
      <trkpt lat="44.81244" lon="6.95893">
        <ele>1819.8</ele>
        <time>2022-02-25T10:08:52Z</time>
      </trkpt>
      <trkpt lat="44.81244" lon="6.95893">
        <ele>1819.8</ele>
        <time>2022-02-25T10:08:53Z</time>
      </trkpt>
      <trkpt lat="44.81244" lon="6.95893">
        <ele>1819.8</ele>
        <time>2022-02-25T10:08:54Z</time>
      </trkpt>
      <trkpt lat="44.81243" lon="6.95897">
        <ele>1820</ele>
        <time>2022-02-25T10:08:55Z</time>
      </trkpt>
      <trkpt lat="44.81243" lon="6.95897">
        <ele>1820</ele>
        <time>2022-02-25T10:08:56Z</time>
      </trkpt>
      <trkpt lat="44.81244" lon="6.959">
        <ele>1820.9</ele>
        <time>2022-02-25T10:08:57Z</time>
      </trkpt>
      <trkpt lat="44.81244" lon="6.959">
        <ele>1820.9</ele>
        <time>2022-02-25T10:08:58Z</time>
      </trkpt>
      <trkpt lat="44.81244" lon="6.95903">
        <ele>1821.3</ele>
        <time>2022-02-25T10:08:59Z</time>
      </trkpt>
      <trkpt lat="44.81244" lon="6.95903">
        <ele>1821.3</ele>
        <time>2022-02-25T10:09:00Z</time>
      </trkpt>
      <trkpt lat="44.81244" lon="6.95905">
        <ele>1821.6</ele>
        <time>2022-02-25T10:09:01Z</time>
      </trkpt>
      <trkpt lat="44.81244" lon="6.95905">
        <ele>1821.6</ele>
        <time>2022-02-25T10:09:02Z</time>
      </trkpt>
      <trkpt lat="44.81243" lon="6.95908">
        <ele>1821.6</ele>
        <time>2022-02-25T10:09:03Z</time>
      </trkpt>
      <trkpt lat="44.81243" lon="6.95908">
        <ele>1821.6</ele>
        <time>2022-02-25T10:09:04Z</time>
      </trkpt>
      <trkpt lat="44.81242" lon="6.95911">
        <ele>1821.7</ele>
        <time>2022-02-25T10:09:05Z</time>
      </trkpt>
      <trkpt lat="44.81242" lon="6.95911">
        <ele>1821.7</ele>
        <time>2022-02-25T10:09:06Z</time>
      </trkpt>
      <trkpt lat="44.81242" lon="6.95911">
        <ele>1821.7</ele>
        <time>2022-02-25T10:09:07Z</time>
      </trkpt>
      <trkpt lat="44.81242" lon="6.95914">
        <ele>1822.1</ele>
        <time>2022-02-25T10:09:08Z</time>
      </trkpt>
      <trkpt lat="44.81242" lon="6.95914">
        <ele>1822.1</ele>
        <time>2022-02-25T10:09:09Z</time>
      </trkpt>
      <trkpt lat="44.81242" lon="6.95914">
        <ele>1822.1</ele>
        <time>2022-02-25T10:09:10Z</time>
      </trkpt>
      <trkpt lat="44.81242" lon="6.95918">
        <ele>1822.8</ele>
        <time>2022-02-25T10:09:11Z</time>
      </trkpt>
      <trkpt lat="44.81242" lon="6.95918">
        <ele>1822.8</ele>
        <time>2022-02-25T10:09:12Z</time>
      </trkpt>
      <trkpt lat="44.81242" lon="6.95921">
        <ele>1823.4</ele>
        <time>2022-02-25T10:09:13Z</time>
      </trkpt>
      <trkpt lat="44.81242" lon="6.95921">
        <ele>1823.4</ele>
        <time>2022-02-25T10:09:14Z</time>
      </trkpt>
      <trkpt lat="44.81242" lon="6.95924">
        <ele>1823.9</ele>
        <time>2022-02-25T10:09:15Z</time>
      </trkpt>
      <trkpt lat="44.81242" lon="6.95924">
        <ele>1823.9</ele>
        <time>2022-02-25T10:09:16Z</time>
      </trkpt>
      <trkpt lat="44.81242" lon="6.95924">
        <ele>1823.9</ele>
        <time>2022-02-25T10:09:17Z</time>
      </trkpt>
      <trkpt lat="44.81241" lon="6.95927">
        <ele>1824.1</ele>
        <time>2022-02-25T10:09:18Z</time>
      </trkpt>
      <trkpt lat="44.81241" lon="6.95927">
        <ele>1824.1</ele>
        <time>2022-02-25T10:09:19Z</time>
      </trkpt>
      <trkpt lat="44.8124" lon="6.9593">
        <ele>1824.3</ele>
        <time>2022-02-25T10:09:20Z</time>
      </trkpt>
      <trkpt lat="44.8124" lon="6.9593">
        <ele>1824.3</ele>
        <time>2022-02-25T10:09:21Z</time>
      </trkpt>
      <trkpt lat="44.81239" lon="6.95933">
        <ele>1824.4</ele>
        <time>2022-02-25T10:09:22Z</time>
      </trkpt>
      <trkpt lat="44.81239" lon="6.95933">
        <ele>1824.4</ele>
        <time>2022-02-25T10:09:23Z</time>
      </trkpt>
      <trkpt lat="44.81238" lon="6.95935">
        <ele>1824.4</ele>
        <time>2022-02-25T10:09:24Z</time>
      </trkpt>
      <trkpt lat="44.81238" lon="6.95935">
        <ele>1824.4</ele>
        <time>2022-02-25T10:09:25Z</time>
      </trkpt>
      <trkpt lat="44.81238" lon="6.95935">
        <ele>1824.4</ele>
        <time>2022-02-25T10:09:26Z</time>
      </trkpt>
      <trkpt lat="44.81238" lon="6.95939">
        <ele>1825.2</ele>
        <time>2022-02-25T10:09:27Z</time>
      </trkpt>
      <trkpt lat="44.81238" lon="6.95939">
        <ele>1825.2</ele>
        <time>2022-02-25T10:09:28Z</time>
      </trkpt>
      <trkpt lat="44.81237" lon="6.95941">
        <ele>1825.2</ele>
        <time>2022-02-25T10:09:29Z</time>
      </trkpt>
      <trkpt lat="44.81237" lon="6.95941">
        <ele>1825.2</ele>
        <time>2022-02-25T10:09:30Z</time>
      </trkpt>
      <trkpt lat="44.81236" lon="6.95943">
        <ele>1825.2</ele>
        <time>2022-02-25T10:09:31Z</time>
      </trkpt>
      <trkpt lat="44.81236" lon="6.95943">
        <ele>1825.2</ele>
        <time>2022-02-25T10:09:32Z</time>
      </trkpt>
      <trkpt lat="44.81236" lon="6.95943">
        <ele>1825.2</ele>
        <time>2022-02-25T10:09:33Z</time>
      </trkpt>
      <trkpt lat="44.81234" lon="6.95946">
        <ele>1825</ele>
        <time>2022-02-25T10:09:34Z</time>
      </trkpt>
      <trkpt lat="44.81234" lon="6.95946">
        <ele>1825</ele>
        <time>2022-02-25T10:09:35Z</time>
      </trkpt>
      <trkpt lat="44.81234" lon="6.95946">
        <ele>1825</ele>
        <time>2022-02-25T10:09:36Z</time>
      </trkpt>
      <trkpt lat="44.81234" lon="6.95949">
        <ele>1825.6</ele>
        <time>2022-02-25T10:09:37Z</time>
      </trkpt>
      <trkpt lat="44.81234" lon="6.95949">
        <ele>1825.6</ele>
        <time>2022-02-25T10:09:38Z</time>
      </trkpt>
      <trkpt lat="44.81233" lon="6.95952">
        <ele>1825.7</ele>
        <time>2022-02-25T10:09:39Z</time>
      </trkpt>
      <trkpt lat="44.81233" lon="6.95952">
        <ele>1825.7</ele>
        <time>2022-02-25T10:09:40Z</time>
      </trkpt>
      <trkpt lat="44.81232" lon="6.95955">
        <ele>1825.9</ele>
        <time>2022-02-25T10:09:41Z</time>
      </trkpt>
      <trkpt lat="44.81232" lon="6.95955">
        <ele>1825.9</ele>
        <time>2022-02-25T10:09:42Z</time>
      </trkpt>
      <trkpt lat="44.81231" lon="6.95958">
        <ele>1826.1</ele>
        <time>2022-02-25T10:09:43Z</time>
      </trkpt>
      <trkpt lat="44.81231" lon="6.95958">
        <ele>1826.1</ele>
        <time>2022-02-25T10:09:44Z</time>
      </trkpt>
      <trkpt lat="44.8123" lon="6.9596">
        <ele>1826</ele>
        <time>2022-02-25T10:09:45Z</time>
      </trkpt>
      <trkpt lat="44.8123" lon="6.9596">
        <ele>1826</ele>
        <time>2022-02-25T10:09:46Z</time>
      </trkpt>
      <trkpt lat="44.8123" lon="6.9596">
        <ele>1826</ele>
        <time>2022-02-25T10:09:47Z</time>
      </trkpt>
      <trkpt lat="44.81229" lon="6.95962">
        <ele>1826</ele>
        <time>2022-02-25T10:09:48Z</time>
      </trkpt>
      <trkpt lat="44.81229" lon="6.95962">
        <ele>1826</ele>
        <time>2022-02-25T10:09:49Z</time>
      </trkpt>
      <trkpt lat="44.81229" lon="6.95962">
        <ele>1826</ele>
        <time>2022-02-25T10:09:50Z</time>
      </trkpt>
      <trkpt lat="44.81228" lon="6.95965">
        <ele>1826.1</ele>
        <time>2022-02-25T10:09:51Z</time>
      </trkpt>
      <trkpt lat="44.81228" lon="6.95965">
        <ele>1826.1</ele>
        <time>2022-02-25T10:09:52Z</time>
      </trkpt>
      <trkpt lat="44.81228" lon="6.95965">
        <ele>1826.1</ele>
        <time>2022-02-25T10:09:53Z</time>
      </trkpt>
      <trkpt lat="44.81226" lon="6.95967">
        <ele>1825.7</ele>
        <time>2022-02-25T10:09:54Z</time>
      </trkpt>
      <trkpt lat="44.81226" lon="6.95967">
        <ele>1825.7</ele>
        <time>2022-02-25T10:09:55Z</time>
      </trkpt>
      <trkpt lat="44.81226" lon="6.95967">
        <ele>1825.7</ele>
        <time>2022-02-25T10:09:56Z</time>
      </trkpt>
      <trkpt lat="44.81226" lon="6.95967">
        <ele>1825.7</ele>
        <time>2022-02-25T10:09:57Z</time>
      </trkpt>
      <trkpt lat="44.81226" lon="6.95967">
        <ele>1825.7</ele>
        <time>2022-02-25T10:09:58Z</time>
      </trkpt>
      <trkpt lat="44.81225" lon="6.9597">
        <ele>1825.8</ele>
        <time>2022-02-25T10:09:59Z</time>
      </trkpt>
      <trkpt lat="44.81225" lon="6.9597">
        <ele>1825.8</ele>
        <time>2022-02-25T10:10:00Z</time>
      </trkpt>
      <trkpt lat="44.81225" lon="6.9597">
        <ele>1825.8</ele>
        <time>2022-02-25T10:10:01Z</time>
      </trkpt>
      <trkpt lat="44.81225" lon="6.9597">
        <ele>1825.8</ele>
        <time>2022-02-25T10:10:02Z</time>
      </trkpt>
      <trkpt lat="44.81225" lon="6.9597">
        <ele>1825.8</ele>
        <time>2022-02-25T10:10:03Z</time>
      </trkpt>
      <trkpt lat="44.81225" lon="6.9597">
        <ele>1825.8</ele>
        <time>2022-02-25T10:10:04Z</time>
      </trkpt>
      <trkpt lat="44.81225" lon="6.9597">
        <ele>1825.8</ele>
        <time>2022-02-25T10:10:05Z</time>
      </trkpt>
      <trkpt lat="44.81225" lon="6.9597">
        <ele>1825.8</ele>
        <time>2022-02-25T10:10:06Z</time>
      </trkpt>
      <trkpt lat="44.81225" lon="6.9597">
        <ele>1825.8</ele>
        <time>2022-02-25T10:10:07Z</time>
      </trkpt>
      <trkpt lat="44.81225" lon="6.9597">
        <ele>1825.8</ele>
        <time>2022-02-25T10:10:08Z</time>
      </trkpt>
      <trkpt lat="44.81225" lon="6.9597">
        <ele>1825.8</ele>
        <time>2022-02-25T10:10:09Z</time>
      </trkpt>
      <trkpt lat="44.81225" lon="6.9597">
        <ele>1825.8</ele>
        <time>2022-02-25T10:10:10Z</time>
      </trkpt>
      <trkpt lat="44.81225" lon="6.9597">
        <ele>1825.8</ele>
        <time>2022-02-25T10:10:11Z</time>
      </trkpt>
      <trkpt lat="44.81225" lon="6.9597">
        <ele>1825.8</ele>
        <time>2022-02-25T10:10:12Z</time>
      </trkpt>
      <trkpt lat="44.81225" lon="6.9597">
        <ele>1825.8</ele>
        <time>2022-02-25T10:10:13Z</time>
      </trkpt>
      <trkpt lat="44.81225" lon="6.9597">
        <ele>1825.8</ele>
        <time>2022-02-25T10:10:14Z</time>
      </trkpt>
      <trkpt lat="44.81225" lon="6.9597">
        <ele>1825.8</ele>
        <time>2022-02-25T10:10:15Z</time>
      </trkpt>
      <trkpt lat="44.81225" lon="6.9597">
        <ele>1825.8</ele>
        <time>2022-02-25T10:10:16Z</time>
      </trkpt>
      <trkpt lat="44.81225" lon="6.9597">
        <ele>1825.8</ele>
        <time>2022-02-25T10:10:17Z</time>
      </trkpt>
      <trkpt lat="44.81225" lon="6.9597">
        <ele>1825.8</ele>
        <time>2022-02-25T10:10:18Z</time>
      </trkpt>
      <trkpt lat="44.81225" lon="6.9597">
        <ele>1825.8</ele>
        <time>2022-02-25T10:10:19Z</time>
      </trkpt>
      <trkpt lat="44.81225" lon="6.9597">
        <ele>1825.8</ele>
        <time>2022-02-25T10:10:20Z</time>
      </trkpt>
      <trkpt lat="44.81225" lon="6.9597">
        <ele>1825.8</ele>
        <time>2022-02-25T10:10:21Z</time>
      </trkpt>
      <trkpt lat="44.81225" lon="6.9597">
        <ele>1825.8</ele>
        <time>2022-02-25T10:10:22Z</time>
      </trkpt>
      <trkpt lat="44.81225" lon="6.9597">
        <ele>1825.8</ele>
        <time>2022-02-25T10:10:23Z</time>
      </trkpt>
      <trkpt lat="44.81225" lon="6.9597">
        <ele>1825.8</ele>
        <time>2022-02-25T10:10:24Z</time>
      </trkpt>
      <trkpt lat="44.81225" lon="6.9597">
        <ele>1825.8</ele>
        <time>2022-02-25T10:10:25Z</time>
      </trkpt>
      <trkpt lat="44.81225" lon="6.9597">
        <ele>1825.8</ele>
        <time>2022-02-25T10:10:26Z</time>
      </trkpt>
      <trkpt lat="44.81225" lon="6.9597">
        <ele>1825.8</ele>
        <time>2022-02-25T10:10:27Z</time>
      </trkpt>
      <trkpt lat="44.81225" lon="6.9597">
        <ele>1825.8</ele>
        <time>2022-02-25T10:10:28Z</time>
      </trkpt>
      <trkpt lat="44.81225" lon="6.9597">
        <ele>1825.8</ele>
        <time>2022-02-25T10:10:29Z</time>
      </trkpt>
      <trkpt lat="44.81225" lon="6.9597">
        <ele>1825.8</ele>
        <time>2022-02-25T10:10:30Z</time>
      </trkpt>
      <trkpt lat="44.81224" lon="6.95974">
        <ele>1826.2</ele>
        <time>2022-02-25T10:10:31Z</time>
      </trkpt>
      <trkpt lat="44.81224" lon="6.95974">
        <ele>1826.2</ele>
        <time>2022-02-25T10:10:32Z</time>
      </trkpt>
      <trkpt lat="44.81222" lon="6.95977">
        <ele>1826.1</ele>
        <time>2022-02-25T10:10:33Z</time>
      </trkpt>
      <trkpt lat="44.81222" lon="6.95977">
        <ele>1826.1</ele>
        <time>2022-02-25T10:10:34Z</time>
      </trkpt>
      <trkpt lat="44.81221" lon="6.95981">
        <ele>1826.8</ele>
        <time>2022-02-25T10:10:35Z</time>
      </trkpt>
      <trkpt lat="44.81221" lon="6.95981">
        <ele>1826.8</ele>
        <time>2022-02-25T10:10:36Z</time>
      </trkpt>
      <trkpt lat="44.8122" lon="6.95985">
        <ele>1827.5</ele>
        <time>2022-02-25T10:10:37Z</time>
      </trkpt>
      <trkpt lat="44.8122" lon="6.95985">
        <ele>1827.5</ele>
        <time>2022-02-25T10:10:38Z</time>
      </trkpt>
      <trkpt lat="44.81218" lon="6.95988">
        <ele>1827.5</ele>
        <time>2022-02-25T10:10:39Z</time>
      </trkpt>
      <trkpt lat="44.81218" lon="6.95988">
        <ele>1827.5</ele>
        <time>2022-02-25T10:10:40Z</time>
      </trkpt>
      <trkpt lat="44.81217" lon="6.95991">
        <ele>1827.8</ele>
        <time>2022-02-25T10:10:41Z</time>
      </trkpt>
      <trkpt lat="44.81217" lon="6.95991">
        <ele>1827.8</ele>
        <time>2022-02-25T10:10:42Z</time>
      </trkpt>
      <trkpt lat="44.81216" lon="6.95993">
        <ele>1827.9</ele>
        <time>2022-02-25T10:10:43Z</time>
      </trkpt>
      <trkpt lat="44.81216" lon="6.95993">
        <ele>1827.9</ele>
        <time>2022-02-25T10:10:44Z</time>
      </trkpt>
      <trkpt lat="44.81214" lon="6.95995">
        <ele>1827.6</ele>
        <time>2022-02-25T10:10:45Z</time>
      </trkpt>
      <trkpt lat="44.81214" lon="6.95995">
        <ele>1827.6</ele>
        <time>2022-02-25T10:10:46Z</time>
      </trkpt>
      <trkpt lat="44.81213" lon="6.95998">
        <ele>1827.9</ele>
        <time>2022-02-25T10:10:47Z</time>
      </trkpt>
      <trkpt lat="44.81213" lon="6.95998">
        <ele>1827.9</ele>
        <time>2022-02-25T10:10:48Z</time>
      </trkpt>
      <trkpt lat="44.81212" lon="6.96">
        <ele>1828</ele>
        <time>2022-02-25T10:10:49Z</time>
      </trkpt>
      <trkpt lat="44.81212" lon="6.96">
        <ele>1828</ele>
        <time>2022-02-25T10:10:50Z</time>
      </trkpt>
      <trkpt lat="44.8121" lon="6.96003">
        <ele>1828</ele>
        <time>2022-02-25T10:10:51Z</time>
      </trkpt>
      <trkpt lat="44.8121" lon="6.96003">
        <ele>1828</ele>
        <time>2022-02-25T10:10:52Z</time>
      </trkpt>
      <trkpt lat="44.81209" lon="6.96005">
        <ele>1828.2</ele>
        <time>2022-02-25T10:10:53Z</time>
      </trkpt>
      <trkpt lat="44.81209" lon="6.96005">
        <ele>1828.2</ele>
        <time>2022-02-25T10:10:54Z</time>
      </trkpt>
      <trkpt lat="44.81207" lon="6.96007">
        <ele>1827.9</ele>
        <time>2022-02-25T10:10:55Z</time>
      </trkpt>
      <trkpt lat="44.81207" lon="6.96007">
        <ele>1827.9</ele>
        <time>2022-02-25T10:10:56Z</time>
      </trkpt>
      <trkpt lat="44.81206" lon="6.96009">
        <ele>1828.1</ele>
        <time>2022-02-25T10:10:57Z</time>
      </trkpt>
      <trkpt lat="44.81206" lon="6.96009">
        <ele>1828.1</ele>
        <time>2022-02-25T10:10:58Z</time>
      </trkpt>
      <trkpt lat="44.81205" lon="6.96012">
        <ele>1828.4</ele>
        <time>2022-02-25T10:10:59Z</time>
      </trkpt>
      <trkpt lat="44.81205" lon="6.96012">
        <ele>1828.4</ele>
        <time>2022-02-25T10:11:00Z</time>
      </trkpt>
      <trkpt lat="44.81204" lon="6.96015">
        <ele>1828.8</ele>
        <time>2022-02-25T10:11:01Z</time>
      </trkpt>
      <trkpt lat="44.81204" lon="6.96015">
        <ele>1828.8</ele>
        <time>2022-02-25T10:11:02Z</time>
      </trkpt>
      <trkpt lat="44.81203" lon="6.96017">
        <ele>1828.8</ele>
        <time>2022-02-25T10:11:03Z</time>
      </trkpt>
      <trkpt lat="44.81203" lon="6.96017">
        <ele>1828.8</ele>
        <time>2022-02-25T10:11:04Z</time>
      </trkpt>
      <trkpt lat="44.81202" lon="6.9602">
        <ele>1829.1</ele>
        <time>2022-02-25T10:11:05Z</time>
      </trkpt>
      <trkpt lat="44.81202" lon="6.9602">
        <ele>1829.1</ele>
        <time>2022-02-25T10:11:06Z</time>
      </trkpt>
      <trkpt lat="44.81201" lon="6.96022">
        <ele>1829.1</ele>
        <time>2022-02-25T10:11:07Z</time>
      </trkpt>
      <trkpt lat="44.81201" lon="6.96022">
        <ele>1829.1</ele>
        <time>2022-02-25T10:11:08Z</time>
      </trkpt>
      <trkpt lat="44.812" lon="6.96025">
        <ele>1829.3</ele>
        <time>2022-02-25T10:11:09Z</time>
      </trkpt>
      <trkpt lat="44.812" lon="6.96025">
        <ele>1829.3</ele>
        <time>2022-02-25T10:11:10Z</time>
      </trkpt>
      <trkpt lat="44.81198" lon="6.96027">
        <ele>1828.7</ele>
        <time>2022-02-25T10:11:11Z</time>
      </trkpt>
      <trkpt lat="44.81198" lon="6.96027">
        <ele>1828.7</ele>
        <time>2022-02-25T10:11:12Z</time>
      </trkpt>
      <trkpt lat="44.81198" lon="6.96027">
        <ele>1828.7</ele>
        <time>2022-02-25T10:11:13Z</time>
      </trkpt>
      <trkpt lat="44.81197" lon="6.9603">
        <ele>1829.2</ele>
        <time>2022-02-25T10:11:14Z</time>
      </trkpt>
      <trkpt lat="44.81197" lon="6.9603">
        <ele>1829.2</ele>
        <time>2022-02-25T10:11:15Z</time>
      </trkpt>
      <trkpt lat="44.81196" lon="6.96032">
        <ele>1829.4</ele>
        <time>2022-02-25T10:11:16Z</time>
      </trkpt>
      <trkpt lat="44.81196" lon="6.96032">
        <ele>1829.4</ele>
        <time>2022-02-25T10:11:17Z</time>
      </trkpt>
      <trkpt lat="44.81196" lon="6.96032">
        <ele>1829.4</ele>
        <time>2022-02-25T10:11:18Z</time>
      </trkpt>
      <trkpt lat="44.81195" lon="6.96036">
        <ele>1830.3</ele>
        <time>2022-02-25T10:11:19Z</time>
      </trkpt>
      <trkpt lat="44.81195" lon="6.96036">
        <ele>1830.3</ele>
        <time>2022-02-25T10:11:20Z</time>
      </trkpt>
      <trkpt lat="44.81195" lon="6.96036">
        <ele>1830.3</ele>
        <time>2022-02-25T10:11:21Z</time>
      </trkpt>
      <trkpt lat="44.81194" lon="6.96038">
        <ele>1830.6</ele>
        <time>2022-02-25T10:11:22Z</time>
      </trkpt>
      <trkpt lat="44.81194" lon="6.96038">
        <ele>1830.6</ele>
        <time>2022-02-25T10:11:23Z</time>
      </trkpt>
      <trkpt lat="44.81193" lon="6.9604">
        <ele>1831</ele>
        <time>2022-02-25T10:11:24Z</time>
      </trkpt>
      <trkpt lat="44.81193" lon="6.9604">
        <ele>1831</ele>
        <time>2022-02-25T10:11:25Z</time>
      </trkpt>
      <trkpt lat="44.81192" lon="6.96043">
        <ele>1831.8</ele>
        <time>2022-02-25T10:11:26Z</time>
      </trkpt>
      <trkpt lat="44.81192" lon="6.96043">
        <ele>1831.8</ele>
        <time>2022-02-25T10:11:27Z</time>
      </trkpt>
      <trkpt lat="44.81192" lon="6.96043">
        <ele>1831.8</ele>
        <time>2022-02-25T10:11:28Z</time>
      </trkpt>
      <trkpt lat="44.8119" lon="6.96046">
        <ele>1832.1</ele>
        <time>2022-02-25T10:11:29Z</time>
      </trkpt>
      <trkpt lat="44.8119" lon="6.96046">
        <ele>1832.1</ele>
        <time>2022-02-25T10:11:30Z</time>
      </trkpt>
      <trkpt lat="44.8119" lon="6.96046">
        <ele>1832.1</ele>
        <time>2022-02-25T10:11:31Z</time>
      </trkpt>
      <trkpt lat="44.81189" lon="6.96049">
        <ele>1832.7</ele>
        <time>2022-02-25T10:11:32Z</time>
      </trkpt>
      <trkpt lat="44.81189" lon="6.96049">
        <ele>1832.7</ele>
        <time>2022-02-25T10:11:33Z</time>
      </trkpt>
      <trkpt lat="44.81188" lon="6.96052">
        <ele>1833.2</ele>
        <time>2022-02-25T10:11:34Z</time>
      </trkpt>
      <trkpt lat="44.81188" lon="6.96052">
        <ele>1833.2</ele>
        <time>2022-02-25T10:11:35Z</time>
      </trkpt>
      <trkpt lat="44.81188" lon="6.96052">
        <ele>1833.2</ele>
        <time>2022-02-25T10:11:36Z</time>
      </trkpt>
      <trkpt lat="44.81187" lon="6.96054">
        <ele>1833.4</ele>
        <time>2022-02-25T10:11:37Z</time>
      </trkpt>
      <trkpt lat="44.81187" lon="6.96054">
        <ele>1833.4</ele>
        <time>2022-02-25T10:11:38Z</time>
      </trkpt>
      <trkpt lat="44.81187" lon="6.96054">
        <ele>1833.4</ele>
        <time>2022-02-25T10:11:39Z</time>
      </trkpt>
      <trkpt lat="44.81185" lon="6.96057">
        <ele>1833.2</ele>
        <time>2022-02-25T10:11:40Z</time>
      </trkpt>
      <trkpt lat="44.81185" lon="6.96057">
        <ele>1833.2</ele>
        <time>2022-02-25T10:11:41Z</time>
      </trkpt>
      <trkpt lat="44.81185" lon="6.96057">
        <ele>1833.2</ele>
        <time>2022-02-25T10:11:42Z</time>
      </trkpt>
      <trkpt lat="44.81184" lon="6.96061">
        <ele>1833.4</ele>
        <time>2022-02-25T10:11:43Z</time>
      </trkpt>
      <trkpt lat="44.81184" lon="6.96061">
        <ele>1833.4</ele>
        <time>2022-02-25T10:11:44Z</time>
      </trkpt>
      <trkpt lat="44.81183" lon="6.96063">
        <ele>1833.2</ele>
        <time>2022-02-25T10:11:45Z</time>
      </trkpt>
      <trkpt lat="44.81183" lon="6.96063">
        <ele>1833.2</ele>
        <time>2022-02-25T10:11:46Z</time>
      </trkpt>
      <trkpt lat="44.81183" lon="6.96063">
        <ele>1833.2</ele>
        <time>2022-02-25T10:11:47Z</time>
      </trkpt>
      <trkpt lat="44.81182" lon="6.96066">
        <ele>1833.2</ele>
        <time>2022-02-25T10:11:48Z</time>
      </trkpt>
      <trkpt lat="44.81182" lon="6.96066">
        <ele>1833.2</ele>
        <time>2022-02-25T10:11:49Z</time>
      </trkpt>
      <trkpt lat="44.81181" lon="6.96069">
        <ele>1833.2</ele>
        <time>2022-02-25T10:11:50Z</time>
      </trkpt>
      <trkpt lat="44.81181" lon="6.96069">
        <ele>1833.2</ele>
        <time>2022-02-25T10:11:51Z</time>
      </trkpt>
      <trkpt lat="44.81181" lon="6.96072">
        <ele>1833.6</ele>
        <time>2022-02-25T10:11:52Z</time>
      </trkpt>
      <trkpt lat="44.81181" lon="6.96072">
        <ele>1833.6</ele>
        <time>2022-02-25T10:11:53Z</time>
      </trkpt>
      <trkpt lat="44.81181" lon="6.96075">
        <ele>1834</ele>
        <time>2022-02-25T10:11:54Z</time>
      </trkpt>
      <trkpt lat="44.81181" lon="6.96075">
        <ele>1834</ele>
        <time>2022-02-25T10:11:55Z</time>
      </trkpt>
      <trkpt lat="44.81181" lon="6.96078">
        <ele>1834.5</ele>
        <time>2022-02-25T10:11:56Z</time>
      </trkpt>
      <trkpt lat="44.81181" lon="6.96078">
        <ele>1834.5</ele>
        <time>2022-02-25T10:11:57Z</time>
      </trkpt>
      <trkpt lat="44.8118" lon="6.96081">
        <ele>1834.4</ele>
        <time>2022-02-25T10:11:58Z</time>
      </trkpt>
      <trkpt lat="44.8118" lon="6.96081">
        <ele>1834.4</ele>
        <time>2022-02-25T10:11:59Z</time>
      </trkpt>
      <trkpt lat="44.8118" lon="6.96084">
        <ele>1834.7</ele>
        <time>2022-02-25T10:12:00Z</time>
      </trkpt>
      <trkpt lat="44.8118" lon="6.96084">
        <ele>1834.7</ele>
        <time>2022-02-25T10:12:01Z</time>
      </trkpt>
      <trkpt lat="44.8118" lon="6.96084">
        <ele>1834.7</ele>
        <time>2022-02-25T10:12:02Z</time>
      </trkpt>
      <trkpt lat="44.81181" lon="6.96088">
        <ele>1835.3</ele>
        <time>2022-02-25T10:12:03Z</time>
      </trkpt>
      <trkpt lat="44.81181" lon="6.96088">
        <ele>1835.3</ele>
        <time>2022-02-25T10:12:04Z</time>
      </trkpt>
      <trkpt lat="44.81181" lon="6.9609">
        <ele>1835.2</ele>
        <time>2022-02-25T10:12:05Z</time>
      </trkpt>
      <trkpt lat="44.81181" lon="6.9609">
        <ele>1835.2</ele>
        <time>2022-02-25T10:12:06Z</time>
      </trkpt>
      <trkpt lat="44.81181" lon="6.96093">
        <ele>1835.2</ele>
        <time>2022-02-25T10:12:07Z</time>
      </trkpt>
      <trkpt lat="44.81181" lon="6.96093">
        <ele>1835.2</ele>
        <time>2022-02-25T10:12:08Z</time>
      </trkpt>
      <trkpt lat="44.81181" lon="6.96093">
        <ele>1835.2</ele>
        <time>2022-02-25T10:12:09Z</time>
      </trkpt>
      <trkpt lat="44.81182" lon="6.96096">
        <ele>1835.8</ele>
        <time>2022-02-25T10:12:10Z</time>
      </trkpt>
      <trkpt lat="44.81182" lon="6.96096">
        <ele>1835.8</ele>
        <time>2022-02-25T10:12:11Z</time>
      </trkpt>
      <trkpt lat="44.81182" lon="6.96099">
        <ele>1835.8</ele>
        <time>2022-02-25T10:12:12Z</time>
      </trkpt>
      <trkpt lat="44.81182" lon="6.96099">
        <ele>1835.8</ele>
        <time>2022-02-25T10:12:13Z</time>
      </trkpt>
      <trkpt lat="44.81182" lon="6.96102">
        <ele>1835.8</ele>
        <time>2022-02-25T10:12:14Z</time>
      </trkpt>
      <trkpt lat="44.81182" lon="6.96102">
        <ele>1835.8</ele>
        <time>2022-02-25T10:12:15Z</time>
      </trkpt>
      <trkpt lat="44.81184" lon="6.96104">
        <ele>1836.8</ele>
        <time>2022-02-25T10:12:16Z</time>
      </trkpt>
      <trkpt lat="44.81184" lon="6.96104">
        <ele>1836.8</ele>
        <time>2022-02-25T10:12:17Z</time>
      </trkpt>
      <trkpt lat="44.81185" lon="6.96107">
        <ele>1837.3</ele>
        <time>2022-02-25T10:12:18Z</time>
      </trkpt>
      <trkpt lat="44.81185" lon="6.96107">
        <ele>1837.3</ele>
        <time>2022-02-25T10:12:19Z</time>
      </trkpt>
      <trkpt lat="44.81186" lon="6.96109">
        <ele>1837.8</ele>
        <time>2022-02-25T10:12:20Z</time>
      </trkpt>
      <trkpt lat="44.81186" lon="6.96109">
        <ele>1837.8</ele>
        <time>2022-02-25T10:12:21Z</time>
      </trkpt>
      <trkpt lat="44.81187" lon="6.96112">
        <ele>1838.2</ele>
        <time>2022-02-25T10:12:22Z</time>
      </trkpt>
      <trkpt lat="44.81187" lon="6.96112">
        <ele>1838.2</ele>
        <time>2022-02-25T10:12:23Z</time>
      </trkpt>
      <trkpt lat="44.81187" lon="6.96114">
        <ele>1838</ele>
        <time>2022-02-25T10:12:24Z</time>
      </trkpt>
      <trkpt lat="44.81187" lon="6.96114">
        <ele>1838</ele>
        <time>2022-02-25T10:12:25Z</time>
      </trkpt>
      <trkpt lat="44.81188" lon="6.96117">
        <ele>1838.2</ele>
        <time>2022-02-25T10:12:26Z</time>
      </trkpt>
      <trkpt lat="44.81188" lon="6.96117">
        <ele>1838.2</ele>
        <time>2022-02-25T10:12:27Z</time>
      </trkpt>
      <trkpt lat="44.81189" lon="6.9612">
        <ele>1838.3</ele>
        <time>2022-02-25T10:12:28Z</time>
      </trkpt>
      <trkpt lat="44.81189" lon="6.9612">
        <ele>1838.3</ele>
        <time>2022-02-25T10:12:29Z</time>
      </trkpt>
      <trkpt lat="44.81189" lon="6.96122">
        <ele>1838.1</ele>
        <time>2022-02-25T10:12:30Z</time>
      </trkpt>
      <trkpt lat="44.81189" lon="6.96122">
        <ele>1838.1</ele>
        <time>2022-02-25T10:12:31Z</time>
      </trkpt>
      <trkpt lat="44.8119" lon="6.96125">
        <ele>1838.1</ele>
        <time>2022-02-25T10:12:32Z</time>
      </trkpt>
      <trkpt lat="44.8119" lon="6.96125">
        <ele>1838.1</ele>
        <time>2022-02-25T10:12:33Z</time>
      </trkpt>
      <trkpt lat="44.8119" lon="6.96128">
        <ele>1837.7</ele>
        <time>2022-02-25T10:12:34Z</time>
      </trkpt>
      <trkpt lat="44.8119" lon="6.96128">
        <ele>1837.7</ele>
        <time>2022-02-25T10:12:35Z</time>
      </trkpt>
      <trkpt lat="44.81191" lon="6.96131">
        <ele>1837.6</ele>
        <time>2022-02-25T10:12:36Z</time>
      </trkpt>
      <trkpt lat="44.81191" lon="6.96131">
        <ele>1837.6</ele>
        <time>2022-02-25T10:12:37Z</time>
      </trkpt>
      <trkpt lat="44.81192" lon="6.96134">
        <ele>1837.4</ele>
        <time>2022-02-25T10:12:38Z</time>
      </trkpt>
      <trkpt lat="44.81192" lon="6.96134">
        <ele>1837.4</ele>
        <time>2022-02-25T10:12:39Z</time>
      </trkpt>
      <trkpt lat="44.81192" lon="6.96137">
        <ele>1836.9</ele>
        <time>2022-02-25T10:12:40Z</time>
      </trkpt>
      <trkpt lat="44.81192" lon="6.96137">
        <ele>1836.9</ele>
        <time>2022-02-25T10:12:41Z</time>
      </trkpt>
      <trkpt lat="44.81193" lon="6.9614">
        <ele>1836.8</ele>
        <time>2022-02-25T10:12:42Z</time>
      </trkpt>
      <trkpt lat="44.81193" lon="6.9614">
        <ele>1836.8</ele>
        <time>2022-02-25T10:12:43Z</time>
      </trkpt>
      <trkpt lat="44.81193" lon="6.9614">
        <ele>1836.8</ele>
        <time>2022-02-25T10:12:44Z</time>
      </trkpt>
      <trkpt lat="44.81194" lon="6.96143">
        <ele>1837</ele>
        <time>2022-02-25T10:12:45Z</time>
      </trkpt>
      <trkpt lat="44.81194" lon="6.96143">
        <ele>1837</ele>
        <time>2022-02-25T10:12:46Z</time>
      </trkpt>
      <trkpt lat="44.81194" lon="6.96146">
        <ele>1837</ele>
        <time>2022-02-25T10:12:47Z</time>
      </trkpt>
      <trkpt lat="44.81194" lon="6.96146">
        <ele>1837</ele>
        <time>2022-02-25T10:12:48Z</time>
      </trkpt>
      <trkpt lat="44.81195" lon="6.96148">
        <ele>1837.5</ele>
        <time>2022-02-25T10:12:49Z</time>
      </trkpt>
      <trkpt lat="44.81195" lon="6.96148">
        <ele>1837.5</ele>
        <time>2022-02-25T10:12:50Z</time>
      </trkpt>
      <trkpt lat="44.81195" lon="6.96148">
        <ele>1837.5</ele>
        <time>2022-02-25T10:12:51Z</time>
      </trkpt>
      <trkpt lat="44.81197" lon="6.96151">
        <ele>1839.2</ele>
        <time>2022-02-25T10:12:52Z</time>
      </trkpt>
      <trkpt lat="44.81197" lon="6.96151">
        <ele>1839.2</ele>
        <time>2022-02-25T10:12:53Z</time>
      </trkpt>
      <trkpt lat="44.81197" lon="6.96154">
        <ele>1839.2</ele>
        <time>2022-02-25T10:12:54Z</time>
      </trkpt>
      <trkpt lat="44.81197" lon="6.96154">
        <ele>1839.2</ele>
        <time>2022-02-25T10:12:55Z</time>
      </trkpt>
      <trkpt lat="44.81198" lon="6.96157">
        <ele>1840.1</ele>
        <time>2022-02-25T10:12:56Z</time>
      </trkpt>
      <trkpt lat="44.81198" lon="6.96157">
        <ele>1840.1</ele>
        <time>2022-02-25T10:12:57Z</time>
      </trkpt>
      <trkpt lat="44.81198" lon="6.9616">
        <ele>1840.1</ele>
        <time>2022-02-25T10:12:58Z</time>
      </trkpt>
      <trkpt lat="44.81198" lon="6.9616">
        <ele>1840.1</ele>
        <time>2022-02-25T10:12:59Z</time>
      </trkpt>
      <trkpt lat="44.81199" lon="6.96163">
        <ele>1840.9</ele>
        <time>2022-02-25T10:13:00Z</time>
      </trkpt>
      <trkpt lat="44.81199" lon="6.96163">
        <ele>1840.9</ele>
        <time>2022-02-25T10:13:01Z</time>
      </trkpt>
      <trkpt lat="44.812" lon="6.96166">
        <ele>1841.8</ele>
        <time>2022-02-25T10:13:02Z</time>
      </trkpt>
      <trkpt lat="44.812" lon="6.96166">
        <ele>1841.8</ele>
        <time>2022-02-25T10:13:03Z</time>
      </trkpt>
      <trkpt lat="44.812" lon="6.96169">
        <ele>1842.1</ele>
        <time>2022-02-25T10:13:04Z</time>
      </trkpt>
      <trkpt lat="44.812" lon="6.96169">
        <ele>1842.1</ele>
        <time>2022-02-25T10:13:05Z</time>
      </trkpt>
      <trkpt lat="44.81198" lon="6.96171">
        <ele>1840.7</ele>
        <time>2022-02-25T10:13:06Z</time>
      </trkpt>
      <trkpt lat="44.81198" lon="6.96171">
        <ele>1840.7</ele>
        <time>2022-02-25T10:13:07Z</time>
      </trkpt>
      <trkpt lat="44.81199" lon="6.96175">
        <ele>1842</ele>
        <time>2022-02-25T10:13:08Z</time>
      </trkpt>
      <trkpt lat="44.81199" lon="6.96175">
        <ele>1842</ele>
        <time>2022-02-25T10:13:09Z</time>
      </trkpt>
      <trkpt lat="44.81199" lon="6.96178">
        <ele>1842.4</ele>
        <time>2022-02-25T10:13:10Z</time>
      </trkpt>
      <trkpt lat="44.81199" lon="6.96178">
        <ele>1842.4</ele>
        <time>2022-02-25T10:13:11Z</time>
      </trkpt>
      <trkpt lat="44.81198" lon="6.96181">
        <ele>1842</ele>
        <time>2022-02-25T10:13:12Z</time>
      </trkpt>
      <trkpt lat="44.81198" lon="6.96181">
        <ele>1842</ele>
        <time>2022-02-25T10:13:13Z</time>
      </trkpt>
      <trkpt lat="44.81198" lon="6.96184">
        <ele>1842.4</ele>
        <time>2022-02-25T10:13:14Z</time>
      </trkpt>
      <trkpt lat="44.81198" lon="6.96184">
        <ele>1842.4</ele>
        <time>2022-02-25T10:13:15Z</time>
      </trkpt>
      <trkpt lat="44.81197" lon="6.96186">
        <ele>1841.9</ele>
        <time>2022-02-25T10:13:16Z</time>
      </trkpt>
      <trkpt lat="44.81197" lon="6.96186">
        <ele>1841.9</ele>
        <time>2022-02-25T10:13:17Z</time>
      </trkpt>
      <trkpt lat="44.81196" lon="6.96189">
        <ele>1841.5</ele>
        <time>2022-02-25T10:13:18Z</time>
      </trkpt>
      <trkpt lat="44.81196" lon="6.96189">
        <ele>1841.5</ele>
        <time>2022-02-25T10:13:19Z</time>
      </trkpt>
      <trkpt lat="44.81195" lon="6.96192">
        <ele>1841.1</ele>
        <time>2022-02-25T10:13:20Z</time>
      </trkpt>
      <trkpt lat="44.81195" lon="6.96192">
        <ele>1841.1</ele>
        <time>2022-02-25T10:13:21Z</time>
      </trkpt>
      <trkpt lat="44.81194" lon="6.96195">
        <ele>1841.1</ele>
        <time>2022-02-25T10:13:22Z</time>
      </trkpt>
      <trkpt lat="44.81194" lon="6.96195">
        <ele>1841.1</ele>
        <time>2022-02-25T10:13:23Z</time>
      </trkpt>
      <trkpt lat="44.81194" lon="6.96198">
        <ele>1841.7</ele>
        <time>2022-02-25T10:13:24Z</time>
      </trkpt>
      <trkpt lat="44.81194" lon="6.96198">
        <ele>1841.7</ele>
        <time>2022-02-25T10:13:25Z</time>
      </trkpt>
      <trkpt lat="44.81193" lon="6.962">
        <ele>1841.9</ele>
        <time>2022-02-25T10:13:26Z</time>
      </trkpt>
      <trkpt lat="44.81193" lon="6.962">
        <ele>1841.9</ele>
        <time>2022-02-25T10:13:27Z</time>
      </trkpt>
      <trkpt lat="44.81193" lon="6.96203">
        <ele>1842.5</ele>
        <time>2022-02-25T10:13:28Z</time>
      </trkpt>
      <trkpt lat="44.81193" lon="6.96203">
        <ele>1842.5</ele>
        <time>2022-02-25T10:13:29Z</time>
      </trkpt>
      <trkpt lat="44.81192" lon="6.96205">
        <ele>1842.7</ele>
        <time>2022-02-25T10:13:30Z</time>
      </trkpt>
      <trkpt lat="44.81192" lon="6.96205">
        <ele>1842.7</ele>
        <time>2022-02-25T10:13:31Z</time>
      </trkpt>
      <trkpt lat="44.81191" lon="6.96208">
        <ele>1842.9</ele>
        <time>2022-02-25T10:13:32Z</time>
      </trkpt>
      <trkpt lat="44.81191" lon="6.96208">
        <ele>1842.9</ele>
        <time>2022-02-25T10:13:33Z</time>
      </trkpt>
      <trkpt lat="44.8119" lon="6.96211">
        <ele>1843.2</ele>
        <time>2022-02-25T10:13:34Z</time>
      </trkpt>
      <trkpt lat="44.8119" lon="6.96211">
        <ele>1843.2</ele>
        <time>2022-02-25T10:13:35Z</time>
      </trkpt>
      <trkpt lat="44.81188" lon="6.96214">
        <ele>1843</ele>
        <time>2022-02-25T10:13:36Z</time>
      </trkpt>
      <trkpt lat="44.81188" lon="6.96214">
        <ele>1843</ele>
        <time>2022-02-25T10:13:37Z</time>
      </trkpt>
      <trkpt lat="44.81187" lon="6.96217">
        <ele>1843.1</ele>
        <time>2022-02-25T10:13:38Z</time>
      </trkpt>
      <trkpt lat="44.81187" lon="6.96217">
        <ele>1843.1</ele>
        <time>2022-02-25T10:13:39Z</time>
      </trkpt>
      <trkpt lat="44.81186" lon="6.9622">
        <ele>1843.1</ele>
        <time>2022-02-25T10:13:40Z</time>
      </trkpt>
      <trkpt lat="44.81186" lon="6.9622">
        <ele>1843.1</ele>
        <time>2022-02-25T10:13:41Z</time>
      </trkpt>
      <trkpt lat="44.81185" lon="6.96223">
        <ele>1843</ele>
        <time>2022-02-25T10:13:42Z</time>
      </trkpt>
      <trkpt lat="44.81185" lon="6.96223">
        <ele>1843</ele>
        <time>2022-02-25T10:13:43Z</time>
      </trkpt>
      <trkpt lat="44.81184" lon="6.96226">
        <ele>1843</ele>
        <time>2022-02-25T10:13:44Z</time>
      </trkpt>
      <trkpt lat="44.81184" lon="6.96226">
        <ele>1843</ele>
        <time>2022-02-25T10:13:45Z</time>
      </trkpt>
      <trkpt lat="44.81183" lon="6.96229">
        <ele>1843</ele>
        <time>2022-02-25T10:13:46Z</time>
      </trkpt>
      <trkpt lat="44.81183" lon="6.96229">
        <ele>1843</ele>
        <time>2022-02-25T10:13:47Z</time>
      </trkpt>
      <trkpt lat="44.81182" lon="6.96232">
        <ele>1842.9</ele>
        <time>2022-02-25T10:13:48Z</time>
      </trkpt>
      <trkpt lat="44.81182" lon="6.96232">
        <ele>1842.9</ele>
        <time>2022-02-25T10:13:49Z</time>
      </trkpt>
      <trkpt lat="44.81181" lon="6.96234">
        <ele>1842.7</ele>
        <time>2022-02-25T10:13:50Z</time>
      </trkpt>
      <trkpt lat="44.81181" lon="6.96234">
        <ele>1842.7</ele>
        <time>2022-02-25T10:13:51Z</time>
      </trkpt>
      <trkpt lat="44.81181" lon="6.96234">
        <ele>1842.7</ele>
        <time>2022-02-25T10:13:52Z</time>
      </trkpt>
      <trkpt lat="44.81179" lon="6.96237">
        <ele>1842</ele>
        <time>2022-02-25T10:13:53Z</time>
      </trkpt>
      <trkpt lat="44.81179" lon="6.96237">
        <ele>1842</ele>
        <time>2022-02-25T10:13:54Z</time>
      </trkpt>
      <trkpt lat="44.81178" lon="6.96239">
        <ele>1841.7</ele>
        <time>2022-02-25T10:13:55Z</time>
      </trkpt>
      <trkpt lat="44.81178" lon="6.96239">
        <ele>1841.7</ele>
        <time>2022-02-25T10:13:56Z</time>
      </trkpt>
      <trkpt lat="44.81176" lon="6.96242">
        <ele>1840.9</ele>
        <time>2022-02-25T10:13:57Z</time>
      </trkpt>
      <trkpt lat="44.81176" lon="6.96242">
        <ele>1840.9</ele>
        <time>2022-02-25T10:13:58Z</time>
      </trkpt>
      <trkpt lat="44.81174" lon="6.96244">
        <ele>1840</ele>
        <time>2022-02-25T10:13:59Z</time>
      </trkpt>
      <trkpt lat="44.81174" lon="6.96244">
        <ele>1840</ele>
        <time>2022-02-25T10:14:00Z</time>
      </trkpt>
      <trkpt lat="44.81173" lon="6.96247">
        <ele>1839.6</ele>
        <time>2022-02-25T10:14:01Z</time>
      </trkpt>
      <trkpt lat="44.81173" lon="6.96247">
        <ele>1839.6</ele>
        <time>2022-02-25T10:14:02Z</time>
      </trkpt>
      <trkpt lat="44.81172" lon="6.96249">
        <ele>1839.2</ele>
        <time>2022-02-25T10:14:03Z</time>
      </trkpt>
      <trkpt lat="44.81172" lon="6.96249">
        <ele>1839.2</ele>
        <time>2022-02-25T10:14:04Z</time>
      </trkpt>
      <trkpt lat="44.81172" lon="6.96252">
        <ele>1839.7</ele>
        <time>2022-02-25T10:14:05Z</time>
      </trkpt>
      <trkpt lat="44.81172" lon="6.96252">
        <ele>1839.7</ele>
        <time>2022-02-25T10:14:06Z</time>
      </trkpt>
      <trkpt lat="44.8117" lon="6.96255">
        <ele>1839.1</ele>
        <time>2022-02-25T10:14:07Z</time>
      </trkpt>
      <trkpt lat="44.8117" lon="6.96255">
        <ele>1839.1</ele>
        <time>2022-02-25T10:14:08Z</time>
      </trkpt>
      <trkpt lat="44.8117" lon="6.96255">
        <ele>1839.1</ele>
        <time>2022-02-25T10:14:09Z</time>
      </trkpt>
      <trkpt lat="44.81169" lon="6.96258">
        <ele>1839.2</ele>
        <time>2022-02-25T10:14:10Z</time>
      </trkpt>
      <trkpt lat="44.81169" lon="6.96258">
        <ele>1839.2</ele>
        <time>2022-02-25T10:14:11Z</time>
      </trkpt>
      <trkpt lat="44.81168" lon="6.96261">
        <ele>1839.2</ele>
        <time>2022-02-25T10:14:12Z</time>
      </trkpt>
      <trkpt lat="44.81168" lon="6.96261">
        <ele>1839.2</ele>
        <time>2022-02-25T10:14:13Z</time>
      </trkpt>
      <trkpt lat="44.81167" lon="6.96263">
        <ele>1839</ele>
        <time>2022-02-25T10:14:14Z</time>
      </trkpt>
      <trkpt lat="44.81167" lon="6.96263">
        <ele>1839</ele>
        <time>2022-02-25T10:14:15Z</time>
      </trkpt>
      <trkpt lat="44.81166" lon="6.96265">
        <ele>1839.3</ele>
        <time>2022-02-25T10:14:16Z</time>
      </trkpt>
      <trkpt lat="44.81166" lon="6.96265">
        <ele>1839.3</ele>
        <time>2022-02-25T10:14:17Z</time>
      </trkpt>
      <trkpt lat="44.81165" lon="6.96268">
        <ele>1840</ele>
        <time>2022-02-25T10:14:18Z</time>
      </trkpt>
      <trkpt lat="44.81165" lon="6.96268">
        <ele>1840</ele>
        <time>2022-02-25T10:14:19Z</time>
      </trkpt>
      <trkpt lat="44.81164" lon="6.96271">
        <ele>1840.6</ele>
        <time>2022-02-25T10:14:20Z</time>
      </trkpt>
      <trkpt lat="44.81164" lon="6.96271">
        <ele>1840.6</ele>
        <time>2022-02-25T10:14:21Z</time>
      </trkpt>
      <trkpt lat="44.81162" lon="6.96274">
        <ele>1841.2</ele>
        <time>2022-02-25T10:14:22Z</time>
      </trkpt>
      <trkpt lat="44.81162" lon="6.96274">
        <ele>1841.2</ele>
        <time>2022-02-25T10:14:23Z</time>
      </trkpt>
      <trkpt lat="44.81161" lon="6.96276">
        <ele>1841.5</ele>
        <time>2022-02-25T10:14:24Z</time>
      </trkpt>
      <trkpt lat="44.81161" lon="6.96276">
        <ele>1841.5</ele>
        <time>2022-02-25T10:14:25Z</time>
      </trkpt>
      <trkpt lat="44.8116" lon="6.96279">
        <ele>1841.9</ele>
        <time>2022-02-25T10:14:26Z</time>
      </trkpt>
      <trkpt lat="44.8116" lon="6.96279">
        <ele>1841.9</ele>
        <time>2022-02-25T10:14:27Z</time>
      </trkpt>
      <trkpt lat="44.81159" lon="6.96283">
        <ele>1842.4</ele>
        <time>2022-02-25T10:14:28Z</time>
      </trkpt>
      <trkpt lat="44.81159" lon="6.96283">
        <ele>1842.4</ele>
        <time>2022-02-25T10:14:29Z</time>
      </trkpt>
      <trkpt lat="44.81158" lon="6.96286">
        <ele>1842.7</ele>
        <time>2022-02-25T10:14:30Z</time>
      </trkpt>
      <trkpt lat="44.81158" lon="6.96286">
        <ele>1842.7</ele>
        <time>2022-02-25T10:14:31Z</time>
      </trkpt>
      <trkpt lat="44.81157" lon="6.96289">
        <ele>1843</ele>
        <time>2022-02-25T10:14:32Z</time>
      </trkpt>
      <trkpt lat="44.81157" lon="6.96289">
        <ele>1843</ele>
        <time>2022-02-25T10:14:33Z</time>
      </trkpt>
      <trkpt lat="44.81157" lon="6.96292">
        <ele>1843.3</ele>
        <time>2022-02-25T10:14:34Z</time>
      </trkpt>
      <trkpt lat="44.81157" lon="6.96292">
        <ele>1843.3</ele>
        <time>2022-02-25T10:14:35Z</time>
      </trkpt>
      <trkpt lat="44.81156" lon="6.96295">
        <ele>1843.4</ele>
        <time>2022-02-25T10:14:36Z</time>
      </trkpt>
      <trkpt lat="44.81156" lon="6.96295">
        <ele>1843.4</ele>
        <time>2022-02-25T10:14:37Z</time>
      </trkpt>
      <trkpt lat="44.81155" lon="6.96298">
        <ele>1843.5</ele>
        <time>2022-02-25T10:14:38Z</time>
      </trkpt>
      <trkpt lat="44.81155" lon="6.96298">
        <ele>1843.5</ele>
        <time>2022-02-25T10:14:39Z</time>
      </trkpt>
      <trkpt lat="44.81155" lon="6.96298">
        <ele>1843.5</ele>
        <time>2022-02-25T10:14:40Z</time>
      </trkpt>
      <trkpt lat="44.81155" lon="6.96302">
        <ele>1843.9</ele>
        <time>2022-02-25T10:14:41Z</time>
      </trkpt>
      <trkpt lat="44.81155" lon="6.96302">
        <ele>1843.9</ele>
        <time>2022-02-25T10:14:42Z</time>
      </trkpt>
      <trkpt lat="44.81156" lon="6.96305">
        <ele>1844.5</ele>
        <time>2022-02-25T10:14:43Z</time>
      </trkpt>
      <trkpt lat="44.81156" lon="6.96305">
        <ele>1844.5</ele>
        <time>2022-02-25T10:14:44Z</time>
      </trkpt>
      <trkpt lat="44.81156" lon="6.96309">
        <ele>1844.6</ele>
        <time>2022-02-25T10:14:45Z</time>
      </trkpt>
      <trkpt lat="44.81156" lon="6.96309">
        <ele>1844.6</ele>
        <time>2022-02-25T10:14:46Z</time>
      </trkpt>
      <trkpt lat="44.81155" lon="6.96312">
        <ele>1844.4</ele>
        <time>2022-02-25T10:14:47Z</time>
      </trkpt>
      <trkpt lat="44.81155" lon="6.96312">
        <ele>1844.4</ele>
        <time>2022-02-25T10:14:48Z</time>
      </trkpt>
      <trkpt lat="44.81155" lon="6.96315">
        <ele>1844.4</ele>
        <time>2022-02-25T10:14:49Z</time>
      </trkpt>
      <trkpt lat="44.81155" lon="6.96315">
        <ele>1844.4</ele>
        <time>2022-02-25T10:14:50Z</time>
      </trkpt>
      <trkpt lat="44.81155" lon="6.96317">
        <ele>1844.5</ele>
        <time>2022-02-25T10:14:51Z</time>
      </trkpt>
      <trkpt lat="44.81155" lon="6.96317">
        <ele>1844.5</ele>
        <time>2022-02-25T10:14:52Z</time>
      </trkpt>
      <trkpt lat="44.81155" lon="6.9632">
        <ele>1844.5</ele>
        <time>2022-02-25T10:14:53Z</time>
      </trkpt>
      <trkpt lat="44.81155" lon="6.9632">
        <ele>1844.5</ele>
        <time>2022-02-25T10:14:54Z</time>
      </trkpt>
      <trkpt lat="44.81155" lon="6.96323">
        <ele>1844.6</ele>
        <time>2022-02-25T10:14:55Z</time>
      </trkpt>
      <trkpt lat="44.81155" lon="6.96323">
        <ele>1844.6</ele>
        <time>2022-02-25T10:14:56Z</time>
      </trkpt>
      <trkpt lat="44.81155" lon="6.96326">
        <ele>1844.6</ele>
        <time>2022-02-25T10:14:57Z</time>
      </trkpt>
      <trkpt lat="44.81155" lon="6.96326">
        <ele>1844.6</ele>
        <time>2022-02-25T10:14:58Z</time>
      </trkpt>
      <trkpt lat="44.81155" lon="6.96329">
        <ele>1844.7</ele>
        <time>2022-02-25T10:14:59Z</time>
      </trkpt>
      <trkpt lat="44.81155" lon="6.96329">
        <ele>1844.7</ele>
        <time>2022-02-25T10:15:00Z</time>
      </trkpt>
      <trkpt lat="44.81155" lon="6.96332">
        <ele>1844.8</ele>
        <time>2022-02-25T10:15:01Z</time>
      </trkpt>
      <trkpt lat="44.81155" lon="6.96332">
        <ele>1844.8</ele>
        <time>2022-02-25T10:15:02Z</time>
      </trkpt>
      <trkpt lat="44.81155" lon="6.96335">
        <ele>1844.9</ele>
        <time>2022-02-25T10:15:03Z</time>
      </trkpt>
      <trkpt lat="44.81155" lon="6.96335">
        <ele>1844.9</ele>
        <time>2022-02-25T10:15:04Z</time>
      </trkpt>
      <trkpt lat="44.81156" lon="6.96338">
        <ele>1845.3</ele>
        <time>2022-02-25T10:15:05Z</time>
      </trkpt>
      <trkpt lat="44.81156" lon="6.96338">
        <ele>1845.3</ele>
        <time>2022-02-25T10:15:06Z</time>
      </trkpt>
      <trkpt lat="44.81156" lon="6.96341">
        <ele>1845.4</ele>
        <time>2022-02-25T10:15:07Z</time>
      </trkpt>
      <trkpt lat="44.81156" lon="6.96341">
        <ele>1845.4</ele>
        <time>2022-02-25T10:15:08Z</time>
      </trkpt>
      <trkpt lat="44.81156" lon="6.96344">
        <ele>1845.5</ele>
        <time>2022-02-25T10:15:09Z</time>
      </trkpt>
      <trkpt lat="44.81156" lon="6.96344">
        <ele>1845.5</ele>
        <time>2022-02-25T10:15:10Z</time>
      </trkpt>
      <trkpt lat="44.81156" lon="6.96347">
        <ele>1845.7</ele>
        <time>2022-02-25T10:15:11Z</time>
      </trkpt>
      <trkpt lat="44.81156" lon="6.96347">
        <ele>1845.7</ele>
        <time>2022-02-25T10:15:12Z</time>
      </trkpt>
      <trkpt lat="44.81156" lon="6.9635">
        <ele>1845.8</ele>
        <time>2022-02-25T10:15:13Z</time>
      </trkpt>
      <trkpt lat="44.81156" lon="6.9635">
        <ele>1845.8</ele>
        <time>2022-02-25T10:15:14Z</time>
      </trkpt>
      <trkpt lat="44.81157" lon="6.96353">
        <ele>1846.2</ele>
        <time>2022-02-25T10:15:15Z</time>
      </trkpt>
      <trkpt lat="44.81157" lon="6.96353">
        <ele>1846.2</ele>
        <time>2022-02-25T10:15:16Z</time>
      </trkpt>
      <trkpt lat="44.81157" lon="6.96356">
        <ele>1846.3</ele>
        <time>2022-02-25T10:15:17Z</time>
      </trkpt>
      <trkpt lat="44.81157" lon="6.96356">
        <ele>1846.3</ele>
        <time>2022-02-25T10:15:18Z</time>
      </trkpt>
      <trkpt lat="44.81157" lon="6.96359">
        <ele>1846.4</ele>
        <time>2022-02-25T10:15:19Z</time>
      </trkpt>
      <trkpt lat="44.81157" lon="6.96359">
        <ele>1846.4</ele>
        <time>2022-02-25T10:15:20Z</time>
      </trkpt>
      <trkpt lat="44.81157" lon="6.96362">
        <ele>1846.5</ele>
        <time>2022-02-25T10:15:21Z</time>
      </trkpt>
      <trkpt lat="44.81157" lon="6.96362">
        <ele>1846.5</ele>
        <time>2022-02-25T10:15:22Z</time>
      </trkpt>
      <trkpt lat="44.81157" lon="6.96365">
        <ele>1846.5</ele>
        <time>2022-02-25T10:15:23Z</time>
      </trkpt>
      <trkpt lat="44.81157" lon="6.96365">
        <ele>1846.5</ele>
        <time>2022-02-25T10:15:24Z</time>
      </trkpt>
      <trkpt lat="44.81157" lon="6.96368">
        <ele>1846.4</ele>
        <time>2022-02-25T10:15:25Z</time>
      </trkpt>
      <trkpt lat="44.81157" lon="6.96368">
        <ele>1846.4</ele>
        <time>2022-02-25T10:15:26Z</time>
      </trkpt>
      <trkpt lat="44.81157" lon="6.96368">
        <ele>1846.4</ele>
        <time>2022-02-25T10:15:27Z</time>
      </trkpt>
      <trkpt lat="44.81157" lon="6.96372">
        <ele>1846.4</ele>
        <time>2022-02-25T10:15:28Z</time>
      </trkpt>
      <trkpt lat="44.81157" lon="6.96372">
        <ele>1846.4</ele>
        <time>2022-02-25T10:15:29Z</time>
      </trkpt>
      <trkpt lat="44.81158" lon="6.96374">
        <ele>1846.7</ele>
        <time>2022-02-25T10:15:30Z</time>
      </trkpt>
      <trkpt lat="44.81158" lon="6.96374">
        <ele>1846.7</ele>
        <time>2022-02-25T10:15:31Z</time>
      </trkpt>
      <trkpt lat="44.81158" lon="6.96377">
        <ele>1846.7</ele>
        <time>2022-02-25T10:15:32Z</time>
      </trkpt>
      <trkpt lat="44.81158" lon="6.96377">
        <ele>1846.7</ele>
        <time>2022-02-25T10:15:33Z</time>
      </trkpt>
      <trkpt lat="44.81158" lon="6.96377">
        <ele>1846.7</ele>
        <time>2022-02-25T10:15:34Z</time>
      </trkpt>
      <trkpt lat="44.81159" lon="6.96381">
        <ele>1846.9</ele>
        <time>2022-02-25T10:15:35Z</time>
      </trkpt>
      <trkpt lat="44.81159" lon="6.96381">
        <ele>1846.9</ele>
        <time>2022-02-25T10:15:36Z</time>
      </trkpt>
      <trkpt lat="44.8116" lon="6.96383">
        <ele>1847.2</ele>
        <time>2022-02-25T10:15:37Z</time>
      </trkpt>
      <trkpt lat="44.8116" lon="6.96383">
        <ele>1847.2</ele>
        <time>2022-02-25T10:15:38Z</time>
      </trkpt>
      <trkpt lat="44.8116" lon="6.96386">
        <ele>1847.1</ele>
        <time>2022-02-25T10:15:39Z</time>
      </trkpt>
      <trkpt lat="44.8116" lon="6.96386">
        <ele>1847.1</ele>
        <time>2022-02-25T10:15:40Z</time>
      </trkpt>
      <trkpt lat="44.8116" lon="6.96386">
        <ele>1847.1</ele>
        <time>2022-02-25T10:15:41Z</time>
      </trkpt>
      <trkpt lat="44.8116" lon="6.96389">
        <ele>1847.1</ele>
        <time>2022-02-25T10:15:42Z</time>
      </trkpt>
      <trkpt lat="44.8116" lon="6.96389">
        <ele>1847.1</ele>
        <time>2022-02-25T10:15:43Z</time>
      </trkpt>
      <trkpt lat="44.8116" lon="6.96392">
        <ele>1847.1</ele>
        <time>2022-02-25T10:15:44Z</time>
      </trkpt>
      <trkpt lat="44.8116" lon="6.96392">
        <ele>1847.1</ele>
        <time>2022-02-25T10:15:45Z</time>
      </trkpt>
      <trkpt lat="44.8116" lon="6.96392">
        <ele>1847.1</ele>
        <time>2022-02-25T10:15:46Z</time>
      </trkpt>
      <trkpt lat="44.81161" lon="6.96396">
        <ele>1847.4</ele>
        <time>2022-02-25T10:15:47Z</time>
      </trkpt>
      <trkpt lat="44.81161" lon="6.96396">
        <ele>1847.4</ele>
        <time>2022-02-25T10:15:48Z</time>
      </trkpt>
      <trkpt lat="44.81161" lon="6.96399">
        <ele>1847.4</ele>
        <time>2022-02-25T10:15:49Z</time>
      </trkpt>
      <trkpt lat="44.81161" lon="6.96399">
        <ele>1847.4</ele>
        <time>2022-02-25T10:15:50Z</time>
      </trkpt>
      <trkpt lat="44.81162" lon="6.96401">
        <ele>1847.7</ele>
        <time>2022-02-25T10:15:51Z</time>
      </trkpt>
      <trkpt lat="44.81162" lon="6.96401">
        <ele>1847.7</ele>
        <time>2022-02-25T10:15:52Z</time>
      </trkpt>
      <trkpt lat="44.81162" lon="6.96405">
        <ele>1847.7</ele>
        <time>2022-02-25T10:15:53Z</time>
      </trkpt>
      <trkpt lat="44.81162" lon="6.96405">
        <ele>1847.7</ele>
        <time>2022-02-25T10:15:54Z</time>
      </trkpt>
      <trkpt lat="44.81162" lon="6.96407">
        <ele>1847.7</ele>
        <time>2022-02-25T10:15:55Z</time>
      </trkpt>
      <trkpt lat="44.81162" lon="6.96407">
        <ele>1847.7</ele>
        <time>2022-02-25T10:15:56Z</time>
      </trkpt>
      <trkpt lat="44.81162" lon="6.9641">
        <ele>1847.7</ele>
        <time>2022-02-25T10:15:57Z</time>
      </trkpt>
      <trkpt lat="44.81162" lon="6.9641">
        <ele>1847.7</ele>
        <time>2022-02-25T10:15:58Z</time>
      </trkpt>
      <trkpt lat="44.81161" lon="6.96413">
        <ele>1847.4</ele>
        <time>2022-02-25T10:15:59Z</time>
      </trkpt>
      <trkpt lat="44.81161" lon="6.96413">
        <ele>1847.4</ele>
        <time>2022-02-25T10:16:00Z</time>
      </trkpt>
      <trkpt lat="44.8116" lon="6.96417">
        <ele>1847.1</ele>
        <time>2022-02-25T10:16:01Z</time>
      </trkpt>
      <trkpt lat="44.8116" lon="6.96417">
        <ele>1847.1</ele>
        <time>2022-02-25T10:16:02Z</time>
      </trkpt>
      <trkpt lat="44.8116" lon="6.9642">
        <ele>1847.1</ele>
        <time>2022-02-25T10:16:03Z</time>
      </trkpt>
      <trkpt lat="44.8116" lon="6.9642">
        <ele>1847.1</ele>
        <time>2022-02-25T10:16:04Z</time>
      </trkpt>
      <trkpt lat="44.8116" lon="6.96423">
        <ele>1847.1</ele>
        <time>2022-02-25T10:16:05Z</time>
      </trkpt>
      <trkpt lat="44.8116" lon="6.96423">
        <ele>1847.1</ele>
        <time>2022-02-25T10:16:06Z</time>
      </trkpt>
      <trkpt lat="44.8116" lon="6.96425">
        <ele>1847.1</ele>
        <time>2022-02-25T10:16:07Z</time>
      </trkpt>
      <trkpt lat="44.8116" lon="6.96425">
        <ele>1847.1</ele>
        <time>2022-02-25T10:16:08Z</time>
      </trkpt>
      <trkpt lat="44.8116" lon="6.96428">
        <ele>1847.1</ele>
        <time>2022-02-25T10:16:09Z</time>
      </trkpt>
      <trkpt lat="44.8116" lon="6.96428">
        <ele>1847.1</ele>
        <time>2022-02-25T10:16:10Z</time>
      </trkpt>
      <trkpt lat="44.8116" lon="6.96431">
        <ele>1847.1</ele>
        <time>2022-02-25T10:16:11Z</time>
      </trkpt>
      <trkpt lat="44.8116" lon="6.96431">
        <ele>1847.1</ele>
        <time>2022-02-25T10:16:12Z</time>
      </trkpt>
      <trkpt lat="44.8116" lon="6.96431">
        <ele>1847.1</ele>
        <time>2022-02-25T10:16:13Z</time>
      </trkpt>
      <trkpt lat="44.8116" lon="6.96435">
        <ele>1847.1</ele>
        <time>2022-02-25T10:16:14Z</time>
      </trkpt>
      <trkpt lat="44.8116" lon="6.96435">
        <ele>1847.1</ele>
        <time>2022-02-25T10:16:15Z</time>
      </trkpt>
      <trkpt lat="44.8116" lon="6.96438">
        <ele>1847.1</ele>
        <time>2022-02-25T10:16:16Z</time>
      </trkpt>
      <trkpt lat="44.8116" lon="6.96438">
        <ele>1847.1</ele>
        <time>2022-02-25T10:16:17Z</time>
      </trkpt>
      <trkpt lat="44.8116" lon="6.96441">
        <ele>1847.1</ele>
        <time>2022-02-25T10:16:18Z</time>
      </trkpt>
      <trkpt lat="44.8116" lon="6.96441">
        <ele>1847.1</ele>
        <time>2022-02-25T10:16:19Z</time>
      </trkpt>
      <trkpt lat="44.8116" lon="6.96441">
        <ele>1847.1</ele>
        <time>2022-02-25T10:16:20Z</time>
      </trkpt>
      <trkpt lat="44.81161" lon="6.96445">
        <ele>1847.4</ele>
        <time>2022-02-25T10:16:21Z</time>
      </trkpt>
      <trkpt lat="44.81161" lon="6.96445">
        <ele>1847.4</ele>
        <time>2022-02-25T10:16:22Z</time>
      </trkpt>
      <trkpt lat="44.81161" lon="6.96448">
        <ele>1847.4</ele>
        <time>2022-02-25T10:16:23Z</time>
      </trkpt>
      <trkpt lat="44.81161" lon="6.96448">
        <ele>1847.4</ele>
        <time>2022-02-25T10:16:24Z</time>
      </trkpt>
      <trkpt lat="44.81162" lon="6.9645">
        <ele>1847.7</ele>
        <time>2022-02-25T10:16:25Z</time>
      </trkpt>
      <trkpt lat="44.81162" lon="6.9645">
        <ele>1847.7</ele>
        <time>2022-02-25T10:16:26Z</time>
      </trkpt>
      <trkpt lat="44.81162" lon="6.96453">
        <ele>1847.7</ele>
        <time>2022-02-25T10:16:27Z</time>
      </trkpt>
      <trkpt lat="44.81162" lon="6.96453">
        <ele>1847.7</ele>
        <time>2022-02-25T10:16:28Z</time>
      </trkpt>
      <trkpt lat="44.81162" lon="6.96456">
        <ele>1847.7</ele>
        <time>2022-02-25T10:16:29Z</time>
      </trkpt>
      <trkpt lat="44.81162" lon="6.96456">
        <ele>1847.7</ele>
        <time>2022-02-25T10:16:30Z</time>
      </trkpt>
      <trkpt lat="44.81162" lon="6.96459">
        <ele>1847.7</ele>
        <time>2022-02-25T10:16:31Z</time>
      </trkpt>
      <trkpt lat="44.81162" lon="6.96459">
        <ele>1847.7</ele>
        <time>2022-02-25T10:16:32Z</time>
      </trkpt>
      <trkpt lat="44.81163" lon="6.96462">
        <ele>1848</ele>
        <time>2022-02-25T10:16:33Z</time>
      </trkpt>
      <trkpt lat="44.81163" lon="6.96462">
        <ele>1848</ele>
        <time>2022-02-25T10:16:34Z</time>
      </trkpt>
      <trkpt lat="44.81163" lon="6.96464">
        <ele>1848</ele>
        <time>2022-02-25T10:16:35Z</time>
      </trkpt>
      <trkpt lat="44.81163" lon="6.96464">
        <ele>1848</ele>
        <time>2022-02-25T10:16:36Z</time>
      </trkpt>
      <trkpt lat="44.81163" lon="6.96467">
        <ele>1848.1</ele>
        <time>2022-02-25T10:16:37Z</time>
      </trkpt>
      <trkpt lat="44.81163" lon="6.96467">
        <ele>1848.1</ele>
        <time>2022-02-25T10:16:38Z</time>
      </trkpt>
      <trkpt lat="44.81163" lon="6.9647">
        <ele>1848.1</ele>
        <time>2022-02-25T10:16:39Z</time>
      </trkpt>
      <trkpt lat="44.81163" lon="6.9647">
        <ele>1848.1</ele>
        <time>2022-02-25T10:16:40Z</time>
      </trkpt>
      <trkpt lat="44.81163" lon="6.96473">
        <ele>1848.1</ele>
        <time>2022-02-25T10:16:41Z</time>
      </trkpt>
      <trkpt lat="44.81163" lon="6.96473">
        <ele>1848.1</ele>
        <time>2022-02-25T10:16:42Z</time>
      </trkpt>
      <trkpt lat="44.81164" lon="6.96476">
        <ele>1848.2</ele>
        <time>2022-02-25T10:16:43Z</time>
      </trkpt>
      <trkpt lat="44.81164" lon="6.96476">
        <ele>1848.2</ele>
        <time>2022-02-25T10:16:44Z</time>
      </trkpt>
      <trkpt lat="44.81164" lon="6.96479">
        <ele>1848.1</ele>
        <time>2022-02-25T10:16:45Z</time>
      </trkpt>
      <trkpt lat="44.81164" lon="6.96479">
        <ele>1848.1</ele>
        <time>2022-02-25T10:16:46Z</time>
      </trkpt>
      <trkpt lat="44.81164" lon="6.96482">
        <ele>1848</ele>
        <time>2022-02-25T10:16:47Z</time>
      </trkpt>
      <trkpt lat="44.81164" lon="6.96482">
        <ele>1848</ele>
        <time>2022-02-25T10:16:48Z</time>
      </trkpt>
      <trkpt lat="44.81165" lon="6.96484">
        <ele>1848.2</ele>
        <time>2022-02-25T10:16:49Z</time>
      </trkpt>
      <trkpt lat="44.81165" lon="6.96484">
        <ele>1848.2</ele>
        <time>2022-02-25T10:16:50Z</time>
      </trkpt>
      <trkpt lat="44.81165" lon="6.96487">
        <ele>1848.1</ele>
        <time>2022-02-25T10:16:51Z</time>
      </trkpt>
      <trkpt lat="44.81165" lon="6.96487">
        <ele>1848.1</ele>
        <time>2022-02-25T10:16:52Z</time>
      </trkpt>
      <trkpt lat="44.81165" lon="6.96491">
        <ele>1848</ele>
        <time>2022-02-25T10:16:53Z</time>
      </trkpt>
      <trkpt lat="44.81165" lon="6.96491">
        <ele>1848</ele>
        <time>2022-02-25T10:16:54Z</time>
      </trkpt>
      <trkpt lat="44.81165" lon="6.96494">
        <ele>1847.9</ele>
        <time>2022-02-25T10:16:55Z</time>
      </trkpt>
      <trkpt lat="44.81165" lon="6.96494">
        <ele>1847.9</ele>
        <time>2022-02-25T10:16:56Z</time>
      </trkpt>
      <trkpt lat="44.81165" lon="6.96497">
        <ele>1847.8</ele>
        <time>2022-02-25T10:16:57Z</time>
      </trkpt>
      <trkpt lat="44.81165" lon="6.96497">
        <ele>1847.8</ele>
        <time>2022-02-25T10:16:58Z</time>
      </trkpt>
      <trkpt lat="44.81165" lon="6.965">
        <ele>1847.7</ele>
        <time>2022-02-25T10:16:59Z</time>
      </trkpt>
      <trkpt lat="44.81165" lon="6.965">
        <ele>1847.7</ele>
        <time>2022-02-25T10:17:00Z</time>
      </trkpt>
      <trkpt lat="44.81165" lon="6.96502">
        <ele>1847.6</ele>
        <time>2022-02-25T10:17:01Z</time>
      </trkpt>
      <trkpt lat="44.81165" lon="6.96502">
        <ele>1847.6</ele>
        <time>2022-02-25T10:17:02Z</time>
      </trkpt>
      <trkpt lat="44.81165" lon="6.96505">
        <ele>1847.5</ele>
        <time>2022-02-25T10:17:03Z</time>
      </trkpt>
      <trkpt lat="44.81165" lon="6.96505">
        <ele>1847.5</ele>
        <time>2022-02-25T10:17:04Z</time>
      </trkpt>
      <trkpt lat="44.81165" lon="6.96508">
        <ele>1847.4</ele>
        <time>2022-02-25T10:17:05Z</time>
      </trkpt>
      <trkpt lat="44.81165" lon="6.96508">
        <ele>1847.4</ele>
        <time>2022-02-25T10:17:06Z</time>
      </trkpt>
      <trkpt lat="44.81166" lon="6.96511">
        <ele>1847.5</ele>
        <time>2022-02-25T10:17:07Z</time>
      </trkpt>
      <trkpt lat="44.81166" lon="6.96511">
        <ele>1847.5</ele>
        <time>2022-02-25T10:17:08Z</time>
      </trkpt>
      <trkpt lat="44.81166" lon="6.96514">
        <ele>1847.4</ele>
        <time>2022-02-25T10:17:09Z</time>
      </trkpt>
      <trkpt lat="44.81166" lon="6.96514">
        <ele>1847.4</ele>
        <time>2022-02-25T10:17:10Z</time>
      </trkpt>
      <trkpt lat="44.81166" lon="6.96517">
        <ele>1847.3</ele>
        <time>2022-02-25T10:17:11Z</time>
      </trkpt>
      <trkpt lat="44.81166" lon="6.96517">
        <ele>1847.3</ele>
        <time>2022-02-25T10:17:12Z</time>
      </trkpt>
      <trkpt lat="44.81167" lon="6.9652">
        <ele>1847.4</ele>
        <time>2022-02-25T10:17:13Z</time>
      </trkpt>
      <trkpt lat="44.81167" lon="6.9652">
        <ele>1847.4</ele>
        <time>2022-02-25T10:17:14Z</time>
      </trkpt>
      <trkpt lat="44.81168" lon="6.96523">
        <ele>1847.7</ele>
        <time>2022-02-25T10:17:15Z</time>
      </trkpt>
      <trkpt lat="44.81168" lon="6.96523">
        <ele>1847.7</ele>
        <time>2022-02-25T10:17:16Z</time>
      </trkpt>
      <trkpt lat="44.81168" lon="6.96525">
        <ele>1847.6</ele>
        <time>2022-02-25T10:17:17Z</time>
      </trkpt>
      <trkpt lat="44.81168" lon="6.96525">
        <ele>1847.6</ele>
        <time>2022-02-25T10:17:18Z</time>
      </trkpt>
      <trkpt lat="44.81168" lon="6.96528">
        <ele>1847.5</ele>
        <time>2022-02-25T10:17:19Z</time>
      </trkpt>
      <trkpt lat="44.81168" lon="6.96528">
        <ele>1847.5</ele>
        <time>2022-02-25T10:17:20Z</time>
      </trkpt>
      <trkpt lat="44.81168" lon="6.96531">
        <ele>1847.4</ele>
        <time>2022-02-25T10:17:21Z</time>
      </trkpt>
      <trkpt lat="44.81168" lon="6.96531">
        <ele>1847.4</ele>
        <time>2022-02-25T10:17:22Z</time>
      </trkpt>
      <trkpt lat="44.81169" lon="6.96534">
        <ele>1847.7</ele>
        <time>2022-02-25T10:17:23Z</time>
      </trkpt>
      <trkpt lat="44.81169" lon="6.96534">
        <ele>1847.7</ele>
        <time>2022-02-25T10:17:24Z</time>
      </trkpt>
      <trkpt lat="44.81169" lon="6.96537">
        <ele>1847.6</ele>
        <time>2022-02-25T10:17:25Z</time>
      </trkpt>
      <trkpt lat="44.81169" lon="6.96537">
        <ele>1847.6</ele>
        <time>2022-02-25T10:17:26Z</time>
      </trkpt>
      <trkpt lat="44.81169" lon="6.96537">
        <ele>1847.6</ele>
        <time>2022-02-25T10:17:27Z</time>
      </trkpt>
      <trkpt lat="44.8117" lon="6.96541">
        <ele>1847.8</ele>
        <time>2022-02-25T10:17:28Z</time>
      </trkpt>
      <trkpt lat="44.8117" lon="6.96541">
        <ele>1847.8</ele>
        <time>2022-02-25T10:17:29Z</time>
      </trkpt>
      <trkpt lat="44.8117" lon="6.96543">
        <ele>1847.8</ele>
        <time>2022-02-25T10:17:30Z</time>
      </trkpt>
      <trkpt lat="44.8117" lon="6.96543">
        <ele>1847.8</ele>
        <time>2022-02-25T10:17:31Z</time>
      </trkpt>
      <trkpt lat="44.81171" lon="6.96546">
        <ele>1848.1</ele>
        <time>2022-02-25T10:17:32Z</time>
      </trkpt>
      <trkpt lat="44.81171" lon="6.96546">
        <ele>1848.1</ele>
        <time>2022-02-25T10:17:33Z</time>
      </trkpt>
      <trkpt lat="44.81172" lon="6.96549">
        <ele>1848.3</ele>
        <time>2022-02-25T10:17:34Z</time>
      </trkpt>
      <trkpt lat="44.81172" lon="6.96549">
        <ele>1848.3</ele>
        <time>2022-02-25T10:17:35Z</time>
      </trkpt>
      <trkpt lat="44.81172" lon="6.96552">
        <ele>1848.2</ele>
        <time>2022-02-25T10:17:36Z</time>
      </trkpt>
      <trkpt lat="44.81172" lon="6.96552">
        <ele>1848.2</ele>
        <time>2022-02-25T10:17:37Z</time>
      </trkpt>
      <trkpt lat="44.81173" lon="6.96554">
        <ele>1848.6</ele>
        <time>2022-02-25T10:17:38Z</time>
      </trkpt>
      <trkpt lat="44.81173" lon="6.96554">
        <ele>1848.6</ele>
        <time>2022-02-25T10:17:39Z</time>
      </trkpt>
      <trkpt lat="44.81173" lon="6.96557">
        <ele>1848.5</ele>
        <time>2022-02-25T10:17:40Z</time>
      </trkpt>
      <trkpt lat="44.81173" lon="6.96557">
        <ele>1848.5</ele>
        <time>2022-02-25T10:17:41Z</time>
      </trkpt>
      <trkpt lat="44.81173" lon="6.96557">
        <ele>1848.5</ele>
        <time>2022-02-25T10:17:42Z</time>
      </trkpt>
      <trkpt lat="44.81174" lon="6.96561">
        <ele>1848.8</ele>
        <time>2022-02-25T10:17:43Z</time>
      </trkpt>
      <trkpt lat="44.81174" lon="6.96561">
        <ele>1848.8</ele>
        <time>2022-02-25T10:17:44Z</time>
      </trkpt>
      <trkpt lat="44.81174" lon="6.96563">
        <ele>1848.8</ele>
        <time>2022-02-25T10:17:45Z</time>
      </trkpt>
      <trkpt lat="44.81174" lon="6.96563">
        <ele>1848.8</ele>
        <time>2022-02-25T10:17:46Z</time>
      </trkpt>
      <trkpt lat="44.81174" lon="6.96563">
        <ele>1848.8</ele>
        <time>2022-02-25T10:17:47Z</time>
      </trkpt>
      <trkpt lat="44.81175" lon="6.96567">
        <ele>1849.1</ele>
        <time>2022-02-25T10:17:48Z</time>
      </trkpt>
      <trkpt lat="44.81175" lon="6.96567">
        <ele>1849.1</ele>
        <time>2022-02-25T10:17:49Z</time>
      </trkpt>
      <trkpt lat="44.81176" lon="6.9657">
        <ele>1849.3</ele>
        <time>2022-02-25T10:17:50Z</time>
      </trkpt>
      <trkpt lat="44.81176" lon="6.9657">
        <ele>1849.3</ele>
        <time>2022-02-25T10:17:51Z</time>
      </trkpt>
      <trkpt lat="44.81176" lon="6.96572">
        <ele>1849.3</ele>
        <time>2022-02-25T10:17:52Z</time>
      </trkpt>
      <trkpt lat="44.81176" lon="6.96572">
        <ele>1849.3</ele>
        <time>2022-02-25T10:17:53Z</time>
      </trkpt>
      <trkpt lat="44.81177" lon="6.96575">
        <ele>1849.6</ele>
        <time>2022-02-25T10:17:54Z</time>
      </trkpt>
      <trkpt lat="44.81177" lon="6.96575">
        <ele>1849.6</ele>
        <time>2022-02-25T10:17:55Z</time>
      </trkpt>
      <trkpt lat="44.81178" lon="6.96578">
        <ele>1849.8</ele>
        <time>2022-02-25T10:17:56Z</time>
      </trkpt>
      <trkpt lat="44.81178" lon="6.96578">
        <ele>1849.8</ele>
        <time>2022-02-25T10:17:57Z</time>
      </trkpt>
      <trkpt lat="44.81179" lon="6.9658">
        <ele>1850.1</ele>
        <time>2022-02-25T10:17:58Z</time>
      </trkpt>
      <trkpt lat="44.81179" lon="6.9658">
        <ele>1850.1</ele>
        <time>2022-02-25T10:17:59Z</time>
      </trkpt>
      <trkpt lat="44.8118" lon="6.96583">
        <ele>1850.3</ele>
        <time>2022-02-25T10:18:00Z</time>
      </trkpt>
      <trkpt lat="44.8118" lon="6.96583">
        <ele>1850.3</ele>
        <time>2022-02-25T10:18:01Z</time>
      </trkpt>
      <trkpt lat="44.81181" lon="6.96586">
        <ele>1850.5</ele>
        <time>2022-02-25T10:18:02Z</time>
      </trkpt>
      <trkpt lat="44.81181" lon="6.96586">
        <ele>1850.5</ele>
        <time>2022-02-25T10:18:03Z</time>
      </trkpt>
      <trkpt lat="44.81181" lon="6.96589">
        <ele>1850.4</ele>
        <time>2022-02-25T10:18:04Z</time>
      </trkpt>
      <trkpt lat="44.81181" lon="6.96589">
        <ele>1850.4</ele>
        <time>2022-02-25T10:18:05Z</time>
      </trkpt>
      <trkpt lat="44.81182" lon="6.96592">
        <ele>1850.6</ele>
        <time>2022-02-25T10:18:06Z</time>
      </trkpt>
      <trkpt lat="44.81182" lon="6.96592">
        <ele>1850.6</ele>
        <time>2022-02-25T10:18:07Z</time>
      </trkpt>
      <trkpt lat="44.81182" lon="6.96594">
        <ele>1850.5</ele>
        <time>2022-02-25T10:18:08Z</time>
      </trkpt>
      <trkpt lat="44.81182" lon="6.96594">
        <ele>1850.5</ele>
        <time>2022-02-25T10:18:09Z</time>
      </trkpt>
      <trkpt lat="44.81183" lon="6.96597">
        <ele>1850.7</ele>
        <time>2022-02-25T10:18:10Z</time>
      </trkpt>
      <trkpt lat="44.81183" lon="6.96597">
        <ele>1850.7</ele>
        <time>2022-02-25T10:18:11Z</time>
      </trkpt>
      <trkpt lat="44.81184" lon="6.966">
        <ele>1850.9</ele>
        <time>2022-02-25T10:18:12Z</time>
      </trkpt>
      <trkpt lat="44.81184" lon="6.966">
        <ele>1850.9</ele>
        <time>2022-02-25T10:18:13Z</time>
      </trkpt>
      <trkpt lat="44.81184" lon="6.96602">
        <ele>1850.8</ele>
        <time>2022-02-25T10:18:14Z</time>
      </trkpt>
      <trkpt lat="44.81184" lon="6.96602">
        <ele>1850.8</ele>
        <time>2022-02-25T10:18:15Z</time>
      </trkpt>
      <trkpt lat="44.81185" lon="6.96605">
        <ele>1850.9</ele>
        <time>2022-02-25T10:18:16Z</time>
      </trkpt>
      <trkpt lat="44.81185" lon="6.96605">
        <ele>1850.9</ele>
        <time>2022-02-25T10:18:17Z</time>
      </trkpt>
      <trkpt lat="44.81186" lon="6.96608">
        <ele>1851</ele>
        <time>2022-02-25T10:18:18Z</time>
      </trkpt>
      <trkpt lat="44.81186" lon="6.96608">
        <ele>1851</ele>
        <time>2022-02-25T10:18:19Z</time>
      </trkpt>
      <trkpt lat="44.81186" lon="6.96608">
        <ele>1851</ele>
        <time>2022-02-25T10:18:20Z</time>
      </trkpt>
      <trkpt lat="44.81187" lon="6.96611">
        <ele>1851.1</ele>
        <time>2022-02-25T10:18:21Z</time>
      </trkpt>
      <trkpt lat="44.81187" lon="6.96611">
        <ele>1851.1</ele>
        <time>2022-02-25T10:18:22Z</time>
      </trkpt>
      <trkpt lat="44.81187" lon="6.96611">
        <ele>1851.1</ele>
        <time>2022-02-25T10:18:23Z</time>
      </trkpt>
      <trkpt lat="44.81188" lon="6.96614">
        <ele>1851.2</ele>
        <time>2022-02-25T10:18:24Z</time>
      </trkpt>
      <trkpt lat="44.81188" lon="6.96614">
        <ele>1851.2</ele>
        <time>2022-02-25T10:18:25Z</time>
      </trkpt>
      <trkpt lat="44.81189" lon="6.96616">
        <ele>1851.4</ele>
        <time>2022-02-25T10:18:26Z</time>
      </trkpt>
      <trkpt lat="44.81189" lon="6.96616">
        <ele>1851.4</ele>
        <time>2022-02-25T10:18:27Z</time>
      </trkpt>
      <trkpt lat="44.81189" lon="6.96616">
        <ele>1851.4</ele>
        <time>2022-02-25T10:18:28Z</time>
      </trkpt>
      <trkpt lat="44.8119" lon="6.96619">
        <ele>1851.4</ele>
        <time>2022-02-25T10:18:29Z</time>
      </trkpt>
      <trkpt lat="44.8119" lon="6.96619">
        <ele>1851.4</ele>
        <time>2022-02-25T10:18:30Z</time>
      </trkpt>
      <trkpt lat="44.8119" lon="6.96622">
        <ele>1851.3</ele>
        <time>2022-02-25T10:18:31Z</time>
      </trkpt>
      <trkpt lat="44.8119" lon="6.96622">
        <ele>1851.3</ele>
        <time>2022-02-25T10:18:32Z</time>
      </trkpt>
      <trkpt lat="44.8119" lon="6.96625">
        <ele>1851.1</ele>
        <time>2022-02-25T10:18:33Z</time>
      </trkpt>
      <trkpt lat="44.8119" lon="6.96625">
        <ele>1851.1</ele>
        <time>2022-02-25T10:18:34Z</time>
      </trkpt>
      <trkpt lat="44.81191" lon="6.96627">
        <ele>1851.2</ele>
        <time>2022-02-25T10:18:35Z</time>
      </trkpt>
      <trkpt lat="44.81191" lon="6.96627">
        <ele>1851.2</ele>
        <time>2022-02-25T10:18:36Z</time>
      </trkpt>
      <trkpt lat="44.81192" lon="6.9663">
        <ele>1851.2</ele>
        <time>2022-02-25T10:18:37Z</time>
      </trkpt>
      <trkpt lat="44.81192" lon="6.9663">
        <ele>1851.2</ele>
        <time>2022-02-25T10:18:38Z</time>
      </trkpt>
      <trkpt lat="44.81193" lon="6.96632">
        <ele>1851.2</ele>
        <time>2022-02-25T10:18:39Z</time>
      </trkpt>
      <trkpt lat="44.81193" lon="6.96632">
        <ele>1851.2</ele>
        <time>2022-02-25T10:18:40Z</time>
      </trkpt>
      <trkpt lat="44.81194" lon="6.96635">
        <ele>1851.2</ele>
        <time>2022-02-25T10:18:41Z</time>
      </trkpt>
      <trkpt lat="44.81194" lon="6.96635">
        <ele>1851.2</ele>
        <time>2022-02-25T10:18:42Z</time>
      </trkpt>
      <trkpt lat="44.81194" lon="6.96635">
        <ele>1851.2</ele>
        <time>2022-02-25T10:18:43Z</time>
      </trkpt>
      <trkpt lat="44.81195" lon="6.96638">
        <ele>1851.3</ele>
        <time>2022-02-25T10:18:44Z</time>
      </trkpt>
      <trkpt lat="44.81195" lon="6.96638">
        <ele>1851.3</ele>
        <time>2022-02-25T10:18:45Z</time>
      </trkpt>
      <trkpt lat="44.81196" lon="6.96641">
        <ele>1851.6</ele>
        <time>2022-02-25T10:18:46Z</time>
      </trkpt>
      <trkpt lat="44.81196" lon="6.96641">
        <ele>1851.6</ele>
        <time>2022-02-25T10:18:47Z</time>
      </trkpt>
      <trkpt lat="44.81196" lon="6.96644">
        <ele>1851.5</ele>
        <time>2022-02-25T10:18:48Z</time>
      </trkpt>
      <trkpt lat="44.81196" lon="6.96644">
        <ele>1851.5</ele>
        <time>2022-02-25T10:18:49Z</time>
      </trkpt>
      <trkpt lat="44.81197" lon="6.96647">
        <ele>1851.8</ele>
        <time>2022-02-25T10:18:50Z</time>
      </trkpt>
      <trkpt lat="44.81197" lon="6.96647">
        <ele>1851.8</ele>
        <time>2022-02-25T10:18:51Z</time>
      </trkpt>
      <trkpt lat="44.81198" lon="6.96649">
        <ele>1852.2</ele>
        <time>2022-02-25T10:18:52Z</time>
      </trkpt>
      <trkpt lat="44.81198" lon="6.96649">
        <ele>1852.2</ele>
        <time>2022-02-25T10:18:53Z</time>
      </trkpt>
      <trkpt lat="44.81199" lon="6.96651">
        <ele>1852.5</ele>
        <time>2022-02-25T10:18:54Z</time>
      </trkpt>
      <trkpt lat="44.81199" lon="6.96651">
        <ele>1852.5</ele>
        <time>2022-02-25T10:18:55Z</time>
      </trkpt>
      <trkpt lat="44.812" lon="6.96653">
        <ele>1852.8</ele>
        <time>2022-02-25T10:18:56Z</time>
      </trkpt>
      <trkpt lat="44.812" lon="6.96653">
        <ele>1852.8</ele>
        <time>2022-02-25T10:18:57Z</time>
      </trkpt>
      <trkpt lat="44.812" lon="6.96653">
        <ele>1852.8</ele>
        <time>2022-02-25T10:18:58Z</time>
      </trkpt>
      <trkpt lat="44.812" lon="6.96657">
        <ele>1852.6</ele>
        <time>2022-02-25T10:18:59Z</time>
      </trkpt>
      <trkpt lat="44.812" lon="6.96657">
        <ele>1852.6</ele>
        <time>2022-02-25T10:19:00Z</time>
      </trkpt>
      <trkpt lat="44.812" lon="6.96657">
        <ele>1852.6</ele>
        <time>2022-02-25T10:19:01Z</time>
      </trkpt>
      <trkpt lat="44.812" lon="6.9666">
        <ele>1852.4</ele>
        <time>2022-02-25T10:19:02Z</time>
      </trkpt>
      <trkpt lat="44.812" lon="6.9666">
        <ele>1852.4</ele>
        <time>2022-02-25T10:19:03Z</time>
      </trkpt>
      <trkpt lat="44.812" lon="6.9666">
        <ele>1852.4</ele>
        <time>2022-02-25T10:19:04Z</time>
      </trkpt>
      <trkpt lat="44.812" lon="6.9666">
        <ele>1852.4</ele>
        <time>2022-02-25T10:19:05Z</time>
      </trkpt>
      <trkpt lat="44.812" lon="6.9666">
        <ele>1852.4</ele>
        <time>2022-02-25T10:19:06Z</time>
      </trkpt>
      <trkpt lat="44.812" lon="6.9666">
        <ele>1852.4</ele>
        <time>2022-02-25T10:19:07Z</time>
      </trkpt>
      <trkpt lat="44.812" lon="6.9666">
        <ele>1852.4</ele>
        <time>2022-02-25T10:19:08Z</time>
      </trkpt>
      <trkpt lat="44.81201" lon="6.96663">
        <ele>1852.6</ele>
        <time>2022-02-25T10:19:09Z</time>
      </trkpt>
      <trkpt lat="44.81201" lon="6.96663">
        <ele>1852.6</ele>
        <time>2022-02-25T10:19:10Z</time>
      </trkpt>
      <trkpt lat="44.81201" lon="6.96663">
        <ele>1852.6</ele>
        <time>2022-02-25T10:19:11Z</time>
      </trkpt>
      <trkpt lat="44.81201" lon="6.96663">
        <ele>1852.6</ele>
        <time>2022-02-25T10:19:12Z</time>
      </trkpt>
      <trkpt lat="44.81201" lon="6.96663">
        <ele>1852.6</ele>
        <time>2022-02-25T10:19:13Z</time>
      </trkpt>
      <trkpt lat="44.81201" lon="6.96663">
        <ele>1852.6</ele>
        <time>2022-02-25T10:19:14Z</time>
      </trkpt>
      <trkpt lat="44.81201" lon="6.96663">
        <ele>1852.6</ele>
        <time>2022-02-25T10:19:15Z</time>
      </trkpt>
      <trkpt lat="44.81201" lon="6.96663">
        <ele>1852.6</ele>
        <time>2022-02-25T10:19:16Z</time>
      </trkpt>
      <trkpt lat="44.81201" lon="6.96663">
        <ele>1852.6</ele>
        <time>2022-02-25T10:19:17Z</time>
      </trkpt>
      <trkpt lat="44.81201" lon="6.96663">
        <ele>1852.6</ele>
        <time>2022-02-25T10:19:18Z</time>
      </trkpt>
      <trkpt lat="44.81201" lon="6.96663">
        <ele>1852.6</ele>
        <time>2022-02-25T10:19:19Z</time>
      </trkpt>
      <trkpt lat="44.81201" lon="6.96663">
        <ele>1852.6</ele>
        <time>2022-02-25T10:19:20Z</time>
      </trkpt>
      <trkpt lat="44.81201" lon="6.96663">
        <ele>1852.6</ele>
        <time>2022-02-25T10:19:21Z</time>
      </trkpt>
      <trkpt lat="44.81201" lon="6.96663">
        <ele>1852.6</ele>
        <time>2022-02-25T10:19:22Z</time>
      </trkpt>
      <trkpt lat="44.81201" lon="6.96663">
        <ele>1852.6</ele>
        <time>2022-02-25T10:19:23Z</time>
      </trkpt>
      <trkpt lat="44.81201" lon="6.96663">
        <ele>1852.6</ele>
        <time>2022-02-25T10:19:24Z</time>
      </trkpt>
      <trkpt lat="44.81201" lon="6.96663">
        <ele>1852.6</ele>
        <time>2022-02-25T10:19:25Z</time>
      </trkpt>
      <trkpt lat="44.81201" lon="6.96663">
        <ele>1852.6</ele>
        <time>2022-02-25T10:19:26Z</time>
      </trkpt>
      <trkpt lat="44.81201" lon="6.96663">
        <ele>1852.6</ele>
        <time>2022-02-25T10:19:27Z</time>
      </trkpt>
      <trkpt lat="44.81201" lon="6.96663">
        <ele>1852.6</ele>
        <time>2022-02-25T10:19:28Z</time>
      </trkpt>
      <trkpt lat="44.81201" lon="6.96663">
        <ele>1852.6</ele>
        <time>2022-02-25T10:19:29Z</time>
      </trkpt>
      <trkpt lat="44.81201" lon="6.96663">
        <ele>1852.6</ele>
        <time>2022-02-25T10:19:30Z</time>
      </trkpt>
      <trkpt lat="44.81201" lon="6.96663">
        <ele>1852.6</ele>
        <time>2022-02-25T10:19:31Z</time>
      </trkpt>
      <trkpt lat="44.81201" lon="6.96663">
        <ele>1852.6</ele>
        <time>2022-02-25T10:19:32Z</time>
      </trkpt>
      <trkpt lat="44.81201" lon="6.96663">
        <ele>1852.6</ele>
        <time>2022-02-25T10:19:33Z</time>
      </trkpt>
      <trkpt lat="44.81201" lon="6.96663">
        <ele>1852.6</ele>
        <time>2022-02-25T10:19:34Z</time>
      </trkpt>
      <trkpt lat="44.81201" lon="6.96663">
        <ele>1852.6</ele>
        <time>2022-02-25T10:19:35Z</time>
      </trkpt>
      <trkpt lat="44.81201" lon="6.96663">
        <ele>1852.6</ele>
        <time>2022-02-25T10:19:36Z</time>
      </trkpt>
      <trkpt lat="44.81201" lon="6.96663">
        <ele>1852.6</ele>
        <time>2022-02-25T10:19:37Z</time>
      </trkpt>
      <trkpt lat="44.81201" lon="6.96663">
        <ele>1852.6</ele>
        <time>2022-02-25T10:19:38Z</time>
      </trkpt>
      <trkpt lat="44.81201" lon="6.96663">
        <ele>1852.6</ele>
        <time>2022-02-25T10:19:39Z</time>
      </trkpt>
      <trkpt lat="44.81201" lon="6.96663">
        <ele>1852.6</ele>
        <time>2022-02-25T10:19:40Z</time>
      </trkpt>
      <trkpt lat="44.81201" lon="6.96663">
        <ele>1852.6</ele>
        <time>2022-02-25T10:19:41Z</time>
      </trkpt>
      <trkpt lat="44.81201" lon="6.96663">
        <ele>1852.6</ele>
        <time>2022-02-25T10:19:42Z</time>
      </trkpt>
      <trkpt lat="44.81201" lon="6.96663">
        <ele>1852.6</ele>
        <time>2022-02-25T10:19:43Z</time>
      </trkpt>
      <trkpt lat="44.81201" lon="6.96663">
        <ele>1852.6</ele>
        <time>2022-02-25T10:19:44Z</time>
      </trkpt>
      <trkpt lat="44.81201" lon="6.96663">
        <ele>1852.6</ele>
        <time>2022-02-25T10:19:45Z</time>
      </trkpt>
      <trkpt lat="44.81201" lon="6.96663">
        <ele>1852.6</ele>
        <time>2022-02-25T10:19:46Z</time>
      </trkpt>
      <trkpt lat="44.81201" lon="6.96663">
        <ele>1852.6</ele>
        <time>2022-02-25T10:19:47Z</time>
      </trkpt>
      <trkpt lat="44.81201" lon="6.96663">
        <ele>1852.6</ele>
        <time>2022-02-25T10:19:48Z</time>
      </trkpt>
      <trkpt lat="44.81201" lon="6.96663">
        <ele>1852.6</ele>
        <time>2022-02-25T10:19:49Z</time>
      </trkpt>
      <trkpt lat="44.81201" lon="6.96663">
        <ele>1852.6</ele>
        <time>2022-02-25T10:19:50Z</time>
      </trkpt>
      <trkpt lat="44.81201" lon="6.96663">
        <ele>1852.6</ele>
        <time>2022-02-25T10:19:51Z</time>
      </trkpt>
      <trkpt lat="44.81201" lon="6.96663">
        <ele>1852.6</ele>
        <time>2022-02-25T10:19:52Z</time>
      </trkpt>
      <trkpt lat="44.81201" lon="6.96663">
        <ele>1852.6</ele>
        <time>2022-02-25T10:19:53Z</time>
      </trkpt>
      <trkpt lat="44.81201" lon="6.96663">
        <ele>1852.6</ele>
        <time>2022-02-25T10:19:54Z</time>
      </trkpt>
      <trkpt lat="44.81201" lon="6.96663">
        <ele>1852.6</ele>
        <time>2022-02-25T10:19:55Z</time>
      </trkpt>
      <trkpt lat="44.81201" lon="6.96663">
        <ele>1852.6</ele>
        <time>2022-02-25T10:19:56Z</time>
      </trkpt>
      <trkpt lat="44.81201" lon="6.96663">
        <ele>1852.6</ele>
        <time>2022-02-25T10:19:57Z</time>
      </trkpt>
      <trkpt lat="44.81201" lon="6.96663">
        <ele>1852.6</ele>
        <time>2022-02-25T10:19:58Z</time>
      </trkpt>
      <trkpt lat="44.81201" lon="6.96663">
        <ele>1852.6</ele>
        <time>2022-02-25T10:19:59Z</time>
      </trkpt>
      <trkpt lat="44.81201" lon="6.96663">
        <ele>1852.6</ele>
        <time>2022-02-25T10:20:00Z</time>
      </trkpt>
      <trkpt lat="44.81201" lon="6.96663">
        <ele>1852.6</ele>
        <time>2022-02-25T10:20:01Z</time>
      </trkpt>
      <trkpt lat="44.81201" lon="6.96663">
        <ele>1852.6</ele>
        <time>2022-02-25T10:20:02Z</time>
      </trkpt>
      <trkpt lat="44.81201" lon="6.96663">
        <ele>1852.6</ele>
        <time>2022-02-25T10:20:03Z</time>
      </trkpt>
      <trkpt lat="44.81201" lon="6.96663">
        <ele>1852.6</ele>
        <time>2022-02-25T10:20:04Z</time>
      </trkpt>
      <trkpt lat="44.81201" lon="6.96663">
        <ele>1852.6</ele>
        <time>2022-02-25T10:20:05Z</time>
      </trkpt>
      <trkpt lat="44.81201" lon="6.96663">
        <ele>1852.6</ele>
        <time>2022-02-25T10:20:06Z</time>
      </trkpt>
      <trkpt lat="44.81201" lon="6.96663">
        <ele>1852.6</ele>
        <time>2022-02-25T10:20:07Z</time>
      </trkpt>
      <trkpt lat="44.81201" lon="6.96663">
        <ele>1852.6</ele>
        <time>2022-02-25T10:20:08Z</time>
      </trkpt>
      <trkpt lat="44.81201" lon="6.96663">
        <ele>1852.6</ele>
        <time>2022-02-25T10:20:09Z</time>
      </trkpt>
      <trkpt lat="44.81201" lon="6.96663">
        <ele>1852.6</ele>
        <time>2022-02-25T10:20:10Z</time>
      </trkpt>
      <trkpt lat="44.81201" lon="6.96663">
        <ele>1852.6</ele>
        <time>2022-02-25T10:20:11Z</time>
      </trkpt>
      <trkpt lat="44.81201" lon="6.96663">
        <ele>1852.6</ele>
        <time>2022-02-25T10:20:12Z</time>
      </trkpt>
      <trkpt lat="44.81201" lon="6.96663">
        <ele>1852.6</ele>
        <time>2022-02-25T10:20:13Z</time>
      </trkpt>
      <trkpt lat="44.81201" lon="6.96663">
        <ele>1852.6</ele>
        <time>2022-02-25T10:20:14Z</time>
      </trkpt>
      <trkpt lat="44.81201" lon="6.96663">
        <ele>1852.6</ele>
        <time>2022-02-25T10:20:15Z</time>
      </trkpt>
      <trkpt lat="44.81201" lon="6.96663">
        <ele>1852.6</ele>
        <time>2022-02-25T10:20:16Z</time>
      </trkpt>
      <trkpt lat="44.81201" lon="6.96663">
        <ele>1852.6</ele>
        <time>2022-02-25T10:20:17Z</time>
      </trkpt>
      <trkpt lat="44.81201" lon="6.96663">
        <ele>1852.6</ele>
        <time>2022-02-25T10:20:18Z</time>
      </trkpt>
      <trkpt lat="44.81201" lon="6.96663">
        <ele>1852.6</ele>
        <time>2022-02-25T10:20:19Z</time>
      </trkpt>
      <trkpt lat="44.81201" lon="6.96663">
        <ele>1852.6</ele>
        <time>2022-02-25T10:20:20Z</time>
      </trkpt>
      <trkpt lat="44.81201" lon="6.96663">
        <ele>1852.6</ele>
        <time>2022-02-25T10:20:21Z</time>
      </trkpt>
      <trkpt lat="44.81201" lon="6.96663">
        <ele>1852.6</ele>
        <time>2022-02-25T10:20:22Z</time>
      </trkpt>
      <trkpt lat="44.81201" lon="6.96663">
        <ele>1852.6</ele>
        <time>2022-02-25T10:20:23Z</time>
      </trkpt>
      <trkpt lat="44.81201" lon="6.96663">
        <ele>1852.6</ele>
        <time>2022-02-25T10:20:24Z</time>
      </trkpt>
      <trkpt lat="44.81201" lon="6.96663">
        <ele>1852.6</ele>
        <time>2022-02-25T10:20:25Z</time>
      </trkpt>
      <trkpt lat="44.81201" lon="6.96663">
        <ele>1852.6</ele>
        <time>2022-02-25T10:20:26Z</time>
      </trkpt>
      <trkpt lat="44.81201" lon="6.96663">
        <ele>1852.6</ele>
        <time>2022-02-25T10:20:27Z</time>
      </trkpt>
      <trkpt lat="44.81201" lon="6.96663">
        <ele>1852.6</ele>
        <time>2022-02-25T10:20:28Z</time>
      </trkpt>
      <trkpt lat="44.81201" lon="6.96663">
        <ele>1852.6</ele>
        <time>2022-02-25T10:20:29Z</time>
      </trkpt>
      <trkpt lat="44.81201" lon="6.96663">
        <ele>1852.6</ele>
        <time>2022-02-25T10:20:30Z</time>
      </trkpt>
      <trkpt lat="44.81201" lon="6.96663">
        <ele>1852.6</ele>
        <time>2022-02-25T10:20:31Z</time>
      </trkpt>
      <trkpt lat="44.81201" lon="6.96663">
        <ele>1852.6</ele>
        <time>2022-02-25T10:20:32Z</time>
      </trkpt>
      <trkpt lat="44.81201" lon="6.96663">
        <ele>1852.6</ele>
        <time>2022-02-25T10:20:33Z</time>
      </trkpt>
      <trkpt lat="44.81201" lon="6.96663">
        <ele>1852.6</ele>
        <time>2022-02-25T10:20:34Z</time>
      </trkpt>
      <trkpt lat="44.81201" lon="6.96663">
        <ele>1852.6</ele>
        <time>2022-02-25T10:20:35Z</time>
      </trkpt>
      <trkpt lat="44.81201" lon="6.96663">
        <ele>1852.6</ele>
        <time>2022-02-25T10:20:36Z</time>
      </trkpt>
      <trkpt lat="44.81201" lon="6.96663">
        <ele>1852.6</ele>
        <time>2022-02-25T10:20:37Z</time>
      </trkpt>
      <trkpt lat="44.81201" lon="6.96663">
        <ele>1852.6</ele>
        <time>2022-02-25T10:20:38Z</time>
      </trkpt>
      <trkpt lat="44.81201" lon="6.96663">
        <ele>1852.6</ele>
        <time>2022-02-25T10:20:39Z</time>
      </trkpt>
      <trkpt lat="44.81201" lon="6.96663">
        <ele>1852.6</ele>
        <time>2022-02-25T10:20:40Z</time>
      </trkpt>
      <trkpt lat="44.81201" lon="6.96663">
        <ele>1852.6</ele>
        <time>2022-02-25T10:20:41Z</time>
      </trkpt>
      <trkpt lat="44.81201" lon="6.96663">
        <ele>1852.6</ele>
        <time>2022-02-25T10:20:42Z</time>
      </trkpt>
      <trkpt lat="44.81201" lon="6.96663">
        <ele>1852.6</ele>
        <time>2022-02-25T10:20:43Z</time>
      </trkpt>
      <trkpt lat="44.81201" lon="6.96663">
        <ele>1852.6</ele>
        <time>2022-02-25T10:20:44Z</time>
      </trkpt>
      <trkpt lat="44.81201" lon="6.96663">
        <ele>1852.6</ele>
        <time>2022-02-25T10:20:45Z</time>
      </trkpt>
      <trkpt lat="44.81201" lon="6.96663">
        <ele>1852.6</ele>
        <time>2022-02-25T10:20:46Z</time>
      </trkpt>
      <trkpt lat="44.81201" lon="6.96663">
        <ele>1852.6</ele>
        <time>2022-02-25T10:20:47Z</time>
      </trkpt>
      <trkpt lat="44.81201" lon="6.96663">
        <ele>1852.6</ele>
        <time>2022-02-25T10:20:48Z</time>
      </trkpt>
      <trkpt lat="44.81201" lon="6.96663">
        <ele>1852.6</ele>
        <time>2022-02-25T10:20:49Z</time>
      </trkpt>
      <trkpt lat="44.81201" lon="6.96663">
        <ele>1852.6</ele>
        <time>2022-02-25T10:20:50Z</time>
      </trkpt>
      <trkpt lat="44.81201" lon="6.96663">
        <ele>1852.6</ele>
        <time>2022-02-25T10:20:51Z</time>
      </trkpt>
      <trkpt lat="44.81201" lon="6.96663">
        <ele>1852.6</ele>
        <time>2022-02-25T10:20:52Z</time>
      </trkpt>
      <trkpt lat="44.81201" lon="6.96663">
        <ele>1852.6</ele>
        <time>2022-02-25T10:20:53Z</time>
      </trkpt>
      <trkpt lat="44.81201" lon="6.96663">
        <ele>1852.6</ele>
        <time>2022-02-25T10:20:54Z</time>
      </trkpt>
      <trkpt lat="44.81201" lon="6.96663">
        <ele>1852.6</ele>
        <time>2022-02-25T10:20:55Z</time>
      </trkpt>
      <trkpt lat="44.81201" lon="6.96663">
        <ele>1852.6</ele>
        <time>2022-02-25T10:20:56Z</time>
      </trkpt>
      <trkpt lat="44.81201" lon="6.96663">
        <ele>1852.6</ele>
        <time>2022-02-25T10:20:57Z</time>
      </trkpt>
      <trkpt lat="44.81201" lon="6.96663">
        <ele>1852.6</ele>
        <time>2022-02-25T10:20:58Z</time>
      </trkpt>
      <trkpt lat="44.81201" lon="6.96663">
        <ele>1852.6</ele>
        <time>2022-02-25T10:20:59Z</time>
      </trkpt>
      <trkpt lat="44.81201" lon="6.96663">
        <ele>1852.6</ele>
        <time>2022-02-25T10:21:00Z</time>
      </trkpt>
      <trkpt lat="44.81201" lon="6.96663">
        <ele>1852.6</ele>
        <time>2022-02-25T10:21:01Z</time>
      </trkpt>
      <trkpt lat="44.81201" lon="6.96663">
        <ele>1852.6</ele>
        <time>2022-02-25T10:21:02Z</time>
      </trkpt>
      <trkpt lat="44.81201" lon="6.96663">
        <ele>1852.6</ele>
        <time>2022-02-25T10:21:03Z</time>
      </trkpt>
      <trkpt lat="44.81201" lon="6.96663">
        <ele>1852.6</ele>
        <time>2022-02-25T10:21:04Z</time>
      </trkpt>
      <trkpt lat="44.81201" lon="6.96663">
        <ele>1852.6</ele>
        <time>2022-02-25T10:21:05Z</time>
      </trkpt>
      <trkpt lat="44.81201" lon="6.96663">
        <ele>1852.6</ele>
        <time>2022-02-25T10:21:06Z</time>
      </trkpt>
      <trkpt lat="44.81201" lon="6.96663">
        <ele>1852.6</ele>
        <time>2022-02-25T10:21:07Z</time>
      </trkpt>
      <trkpt lat="44.81201" lon="6.96663">
        <ele>1852.6</ele>
        <time>2022-02-25T10:21:08Z</time>
      </trkpt>
      <trkpt lat="44.81201" lon="6.96663">
        <ele>1852.6</ele>
        <time>2022-02-25T10:21:09Z</time>
      </trkpt>
      <trkpt lat="44.81201" lon="6.96663">
        <ele>1852.6</ele>
        <time>2022-02-25T10:21:10Z</time>
      </trkpt>
      <trkpt lat="44.81201" lon="6.96663">
        <ele>1852.6</ele>
        <time>2022-02-25T10:21:11Z</time>
      </trkpt>
      <trkpt lat="44.81201" lon="6.96663">
        <ele>1852.6</ele>
        <time>2022-02-25T10:21:12Z</time>
      </trkpt>
      <trkpt lat="44.81201" lon="6.96663">
        <ele>1852.6</ele>
        <time>2022-02-25T10:21:13Z</time>
      </trkpt>
      <trkpt lat="44.81201" lon="6.96663">
        <ele>1852.6</ele>
        <time>2022-02-25T10:21:14Z</time>
      </trkpt>
      <trkpt lat="44.81199" lon="6.96666">
        <ele>1851.7</ele>
        <time>2022-02-25T10:21:15Z</time>
      </trkpt>
      <trkpt lat="44.81199" lon="6.96666">
        <ele>1851.7</ele>
        <time>2022-02-25T10:21:16Z</time>
      </trkpt>
      <trkpt lat="44.81199" lon="6.96666">
        <ele>1851.7</ele>
        <time>2022-02-25T10:21:17Z</time>
      </trkpt>
      <trkpt lat="44.812" lon="6.96668">
        <ele>1851.9</ele>
        <time>2022-02-25T10:21:18Z</time>
      </trkpt>
      <trkpt lat="44.812" lon="6.96668">
        <ele>1851.9</ele>
        <time>2022-02-25T10:21:19Z</time>
      </trkpt>
      <trkpt lat="44.812" lon="6.96668">
        <ele>1851.9</ele>
        <time>2022-02-25T10:21:20Z</time>
      </trkpt>
      <trkpt lat="44.81202" lon="6.96671">
        <ele>1852.5</ele>
        <time>2022-02-25T10:21:21Z</time>
      </trkpt>
      <trkpt lat="44.81202" lon="6.96671">
        <ele>1852.5</ele>
        <time>2022-02-25T10:21:22Z</time>
      </trkpt>
      <trkpt lat="44.81202" lon="6.96671">
        <ele>1852.5</ele>
        <time>2022-02-25T10:21:23Z</time>
      </trkpt>
      <trkpt lat="44.81202" lon="6.96671">
        <ele>1852.5</ele>
        <time>2022-02-25T10:21:24Z</time>
      </trkpt>
      <trkpt lat="44.81202" lon="6.96671">
        <ele>1852.5</ele>
        <time>2022-02-25T10:21:25Z</time>
      </trkpt>
      <trkpt lat="44.81202" lon="6.96671">
        <ele>1852.5</ele>
        <time>2022-02-25T10:21:26Z</time>
      </trkpt>
      <trkpt lat="44.81202" lon="6.96671">
        <ele>1852.5</ele>
        <time>2022-02-25T10:21:27Z</time>
      </trkpt>
      <trkpt lat="44.81202" lon="6.96671">
        <ele>1852.5</ele>
        <time>2022-02-25T10:21:28Z</time>
      </trkpt>
      <trkpt lat="44.81202" lon="6.96671">
        <ele>1852.5</ele>
        <time>2022-02-25T10:21:29Z</time>
      </trkpt>
      <trkpt lat="44.81202" lon="6.96671">
        <ele>1852.5</ele>
        <time>2022-02-25T10:21:30Z</time>
      </trkpt>
      <trkpt lat="44.81202" lon="6.96671">
        <ele>1852.5</ele>
        <time>2022-02-25T10:21:31Z</time>
      </trkpt>
      <trkpt lat="44.81202" lon="6.96671">
        <ele>1852.5</ele>
        <time>2022-02-25T10:21:32Z</time>
      </trkpt>
      <trkpt lat="44.81202" lon="6.96671">
        <ele>1852.5</ele>
        <time>2022-02-25T10:21:33Z</time>
      </trkpt>
      <trkpt lat="44.81202" lon="6.96671">
        <ele>1852.5</ele>
        <time>2022-02-25T10:21:34Z</time>
      </trkpt>
      <trkpt lat="44.81202" lon="6.96671">
        <ele>1852.5</ele>
        <time>2022-02-25T10:21:35Z</time>
      </trkpt>
      <trkpt lat="44.81202" lon="6.96671">
        <ele>1852.5</ele>
        <time>2022-02-25T10:21:36Z</time>
      </trkpt>
      <trkpt lat="44.81202" lon="6.96671">
        <ele>1852.5</ele>
        <time>2022-02-25T10:21:37Z</time>
      </trkpt>
      <trkpt lat="44.81202" lon="6.96671">
        <ele>1852.5</ele>
        <time>2022-02-25T10:21:38Z</time>
      </trkpt>
      <trkpt lat="44.81202" lon="6.96671">
        <ele>1852.5</ele>
        <time>2022-02-25T10:21:39Z</time>
      </trkpt>
      <trkpt lat="44.81202" lon="6.96671">
        <ele>1852.5</ele>
        <time>2022-02-25T10:21:40Z</time>
      </trkpt>
      <trkpt lat="44.81202" lon="6.96671">
        <ele>1852.5</ele>
        <time>2022-02-25T10:21:41Z</time>
      </trkpt>
      <trkpt lat="44.81202" lon="6.96671">
        <ele>1852.5</ele>
        <time>2022-02-25T10:21:42Z</time>
      </trkpt>
      <trkpt lat="44.81202" lon="6.96671">
        <ele>1852.5</ele>
        <time>2022-02-25T10:21:43Z</time>
      </trkpt>
      <trkpt lat="44.81202" lon="6.96671">
        <ele>1852.5</ele>
        <time>2022-02-25T10:21:44Z</time>
      </trkpt>
      <trkpt lat="44.81202" lon="6.96671">
        <ele>1852.5</ele>
        <time>2022-02-25T10:21:45Z</time>
      </trkpt>
      <trkpt lat="44.81202" lon="6.96671">
        <ele>1852.5</ele>
        <time>2022-02-25T10:21:46Z</time>
      </trkpt>
      <trkpt lat="44.81202" lon="6.96671">
        <ele>1852.5</ele>
        <time>2022-02-25T10:21:47Z</time>
      </trkpt>
      <trkpt lat="44.81202" lon="6.96671">
        <ele>1852.5</ele>
        <time>2022-02-25T10:21:48Z</time>
      </trkpt>
      <trkpt lat="44.81202" lon="6.96671">
        <ele>1852.5</ele>
        <time>2022-02-25T10:21:49Z</time>
      </trkpt>
      <trkpt lat="44.81202" lon="6.96671">
        <ele>1852.5</ele>
        <time>2022-02-25T10:21:50Z</time>
      </trkpt>
      <trkpt lat="44.81202" lon="6.96671">
        <ele>1852.5</ele>
        <time>2022-02-25T10:21:51Z</time>
      </trkpt>
      <trkpt lat="44.81202" lon="6.96671">
        <ele>1852.5</ele>
        <time>2022-02-25T10:21:52Z</time>
      </trkpt>
      <trkpt lat="44.81202" lon="6.96671">
        <ele>1852.5</ele>
        <time>2022-02-25T10:21:53Z</time>
      </trkpt>
      <trkpt lat="44.81202" lon="6.96671">
        <ele>1852.5</ele>
        <time>2022-02-25T10:21:54Z</time>
      </trkpt>
      <trkpt lat="44.81202" lon="6.96671">
        <ele>1852.5</ele>
        <time>2022-02-25T10:21:55Z</time>
      </trkpt>
      <trkpt lat="44.81202" lon="6.96671">
        <ele>1852.5</ele>
        <time>2022-02-25T10:21:56Z</time>
      </trkpt>
      <trkpt lat="44.81202" lon="6.96671">
        <ele>1852.5</ele>
        <time>2022-02-25T10:21:57Z</time>
      </trkpt>
      <trkpt lat="44.81202" lon="6.96671">
        <ele>1852.5</ele>
        <time>2022-02-25T10:21:58Z</time>
      </trkpt>
      <trkpt lat="44.81202" lon="6.96671">
        <ele>1852.5</ele>
        <time>2022-02-25T10:21:59Z</time>
      </trkpt>
      <trkpt lat="44.81202" lon="6.96671">
        <ele>1852.5</ele>
        <time>2022-02-25T10:22:00Z</time>
      </trkpt>
      <trkpt lat="44.81202" lon="6.96671">
        <ele>1852.5</ele>
        <time>2022-02-25T10:22:01Z</time>
      </trkpt>
      <trkpt lat="44.81202" lon="6.96671">
        <ele>1852.5</ele>
        <time>2022-02-25T10:22:02Z</time>
      </trkpt>
      <trkpt lat="44.81202" lon="6.96671">
        <ele>1852.5</ele>
        <time>2022-02-25T10:22:03Z</time>
      </trkpt>
      <trkpt lat="44.81202" lon="6.96671">
        <ele>1852.5</ele>
        <time>2022-02-25T10:22:04Z</time>
      </trkpt>
      <trkpt lat="44.81202" lon="6.96671">
        <ele>1852.5</ele>
        <time>2022-02-25T10:22:05Z</time>
      </trkpt>
      <trkpt lat="44.81202" lon="6.96671">
        <ele>1852.5</ele>
        <time>2022-02-25T10:22:06Z</time>
      </trkpt>
      <trkpt lat="44.81202" lon="6.96671">
        <ele>1852.5</ele>
        <time>2022-02-25T10:22:07Z</time>
      </trkpt>
      <trkpt lat="44.81202" lon="6.96671">
        <ele>1852.5</ele>
        <time>2022-02-25T10:22:08Z</time>
      </trkpt>
      <trkpt lat="44.81202" lon="6.96671">
        <ele>1852.5</ele>
        <time>2022-02-25T10:22:09Z</time>
      </trkpt>
      <trkpt lat="44.81202" lon="6.96671">
        <ele>1852.5</ele>
        <time>2022-02-25T10:22:10Z</time>
      </trkpt>
      <trkpt lat="44.81202" lon="6.96671">
        <ele>1852.5</ele>
        <time>2022-02-25T10:22:11Z</time>
      </trkpt>
      <trkpt lat="44.81202" lon="6.96671">
        <ele>1852.5</ele>
        <time>2022-02-25T10:22:12Z</time>
      </trkpt>
      <trkpt lat="44.81202" lon="6.96671">
        <ele>1852.5</ele>
        <time>2022-02-25T10:22:13Z</time>
      </trkpt>
      <trkpt lat="44.81202" lon="6.96671">
        <ele>1852.5</ele>
        <time>2022-02-25T10:22:14Z</time>
      </trkpt>
      <trkpt lat="44.81202" lon="6.96671">
        <ele>1852.5</ele>
        <time>2022-02-25T10:22:15Z</time>
      </trkpt>
      <trkpt lat="44.81202" lon="6.96671">
        <ele>1852.5</ele>
        <time>2022-02-25T10:22:16Z</time>
      </trkpt>
      <trkpt lat="44.81202" lon="6.96671">
        <ele>1852.5</ele>
        <time>2022-02-25T10:22:17Z</time>
      </trkpt>
      <trkpt lat="44.81202" lon="6.96671">
        <ele>1852.5</ele>
        <time>2022-02-25T10:22:18Z</time>
      </trkpt>
      <trkpt lat="44.81202" lon="6.96671">
        <ele>1852.5</ele>
        <time>2022-02-25T10:22:19Z</time>
      </trkpt>
      <trkpt lat="44.81202" lon="6.96671">
        <ele>1852.5</ele>
        <time>2022-02-25T10:22:20Z</time>
      </trkpt>
      <trkpt lat="44.81202" lon="6.96671">
        <ele>1852.5</ele>
        <time>2022-02-25T10:22:21Z</time>
      </trkpt>
      <trkpt lat="44.81202" lon="6.96671">
        <ele>1852.5</ele>
        <time>2022-02-25T10:22:22Z</time>
      </trkpt>
      <trkpt lat="44.81202" lon="6.96671">
        <ele>1852.5</ele>
        <time>2022-02-25T10:22:23Z</time>
      </trkpt>
      <trkpt lat="44.81202" lon="6.96671">
        <ele>1852.5</ele>
        <time>2022-02-25T10:22:24Z</time>
      </trkpt>
      <trkpt lat="44.81202" lon="6.96671">
        <ele>1852.5</ele>
        <time>2022-02-25T10:22:25Z</time>
      </trkpt>
      <trkpt lat="44.81202" lon="6.96671">
        <ele>1852.5</ele>
        <time>2022-02-25T10:22:26Z</time>
      </trkpt>
      <trkpt lat="44.81202" lon="6.96671">
        <ele>1852.5</ele>
        <time>2022-02-25T10:22:27Z</time>
      </trkpt>
      <trkpt lat="44.81202" lon="6.96671">
        <ele>1852.5</ele>
        <time>2022-02-25T10:22:28Z</time>
      </trkpt>
      <trkpt lat="44.81202" lon="6.96671">
        <ele>1852.5</ele>
        <time>2022-02-25T10:22:29Z</time>
      </trkpt>
      <trkpt lat="44.81202" lon="6.96671">
        <ele>1852.5</ele>
        <time>2022-02-25T10:22:30Z</time>
      </trkpt>
      <trkpt lat="44.81202" lon="6.96671">
        <ele>1852.5</ele>
        <time>2022-02-25T10:22:31Z</time>
      </trkpt>
      <trkpt lat="44.81202" lon="6.96671">
        <ele>1852.5</ele>
        <time>2022-02-25T10:22:32Z</time>
      </trkpt>
      <trkpt lat="44.81202" lon="6.96671">
        <ele>1852.5</ele>
        <time>2022-02-25T10:22:33Z</time>
      </trkpt>
      <trkpt lat="44.81202" lon="6.96671">
        <ele>1852.5</ele>
        <time>2022-02-25T10:22:34Z</time>
      </trkpt>
      <trkpt lat="44.81202" lon="6.96671">
        <ele>1852.5</ele>
        <time>2022-02-25T10:22:35Z</time>
      </trkpt>
      <trkpt lat="44.81202" lon="6.96671">
        <ele>1852.5</ele>
        <time>2022-02-25T10:22:36Z</time>
      </trkpt>
      <trkpt lat="44.81202" lon="6.96671">
        <ele>1852.5</ele>
        <time>2022-02-25T10:22:37Z</time>
      </trkpt>
      <trkpt lat="44.81202" lon="6.96671">
        <ele>1852.5</ele>
        <time>2022-02-25T10:22:38Z</time>
      </trkpt>
      <trkpt lat="44.81202" lon="6.96671">
        <ele>1852.5</ele>
        <time>2022-02-25T10:22:39Z</time>
      </trkpt>
      <trkpt lat="44.81202" lon="6.96671">
        <ele>1852.5</ele>
        <time>2022-02-25T10:22:40Z</time>
      </trkpt>
      <trkpt lat="44.81202" lon="6.96671">
        <ele>1852.5</ele>
        <time>2022-02-25T10:22:41Z</time>
      </trkpt>
      <trkpt lat="44.81202" lon="6.96671">
        <ele>1852.5</ele>
        <time>2022-02-25T10:22:42Z</time>
      </trkpt>
      <trkpt lat="44.81202" lon="6.96671">
        <ele>1852.5</ele>
        <time>2022-02-25T10:22:43Z</time>
      </trkpt>
      <trkpt lat="44.81202" lon="6.96671">
        <ele>1852.5</ele>
        <time>2022-02-25T10:22:44Z</time>
      </trkpt>
      <trkpt lat="44.81202" lon="6.96671">
        <ele>1852.5</ele>
        <time>2022-02-25T10:22:45Z</time>
      </trkpt>
      <trkpt lat="44.81202" lon="6.96671">
        <ele>1852.5</ele>
        <time>2022-02-25T10:22:46Z</time>
      </trkpt>
      <trkpt lat="44.81202" lon="6.96671">
        <ele>1852.5</ele>
        <time>2022-02-25T10:22:47Z</time>
      </trkpt>
      <trkpt lat="44.81202" lon="6.96671">
        <ele>1852.5</ele>
        <time>2022-02-25T10:22:48Z</time>
      </trkpt>
      <trkpt lat="44.81202" lon="6.96671">
        <ele>1852.5</ele>
        <time>2022-02-25T10:22:49Z</time>
      </trkpt>
      <trkpt lat="44.81202" lon="6.96671">
        <ele>1852.5</ele>
        <time>2022-02-25T10:22:50Z</time>
      </trkpt>
      <trkpt lat="44.81202" lon="6.96671">
        <ele>1852.5</ele>
        <time>2022-02-25T10:22:51Z</time>
      </trkpt>
      <trkpt lat="44.81202" lon="6.96671">
        <ele>1852.5</ele>
        <time>2022-02-25T10:22:52Z</time>
      </trkpt>
      <trkpt lat="44.81202" lon="6.96671">
        <ele>1852.5</ele>
        <time>2022-02-25T10:22:53Z</time>
      </trkpt>
      <trkpt lat="44.81202" lon="6.96671">
        <ele>1852.5</ele>
        <time>2022-02-25T10:22:54Z</time>
      </trkpt>
      <trkpt lat="44.81202" lon="6.96671">
        <ele>1852.5</ele>
        <time>2022-02-25T10:22:55Z</time>
      </trkpt>
      <trkpt lat="44.81202" lon="6.96671">
        <ele>1852.5</ele>
        <time>2022-02-25T10:22:56Z</time>
      </trkpt>
      <trkpt lat="44.81202" lon="6.96671">
        <ele>1852.5</ele>
        <time>2022-02-25T10:22:57Z</time>
      </trkpt>
      <trkpt lat="44.81202" lon="6.96671">
        <ele>1852.5</ele>
        <time>2022-02-25T10:22:58Z</time>
      </trkpt>
      <trkpt lat="44.81202" lon="6.96671">
        <ele>1852.5</ele>
        <time>2022-02-25T10:22:59Z</time>
      </trkpt>
      <trkpt lat="44.81202" lon="6.96671">
        <ele>1852.5</ele>
        <time>2022-02-25T10:23:00Z</time>
      </trkpt>
      <trkpt lat="44.81202" lon="6.96671">
        <ele>1852.5</ele>
        <time>2022-02-25T10:23:01Z</time>
      </trkpt>
      <trkpt lat="44.81202" lon="6.96671">
        <ele>1852.5</ele>
        <time>2022-02-25T10:23:02Z</time>
      </trkpt>
      <trkpt lat="44.81202" lon="6.96671">
        <ele>1852.5</ele>
        <time>2022-02-25T10:23:03Z</time>
      </trkpt>
      <trkpt lat="44.81202" lon="6.96671">
        <ele>1852.5</ele>
        <time>2022-02-25T10:23:04Z</time>
      </trkpt>
      <trkpt lat="44.81202" lon="6.96671">
        <ele>1852.5</ele>
        <time>2022-02-25T10:23:05Z</time>
      </trkpt>
      <trkpt lat="44.81202" lon="6.96671">
        <ele>1852.5</ele>
        <time>2022-02-25T10:23:06Z</time>
      </trkpt>
      <trkpt lat="44.81202" lon="6.96671">
        <ele>1852.5</ele>
        <time>2022-02-25T10:23:07Z</time>
      </trkpt>
      <trkpt lat="44.81202" lon="6.96671">
        <ele>1852.5</ele>
        <time>2022-02-25T10:23:08Z</time>
      </trkpt>
      <trkpt lat="44.81202" lon="6.96671">
        <ele>1852.5</ele>
        <time>2022-02-25T10:23:09Z</time>
      </trkpt>
      <trkpt lat="44.81202" lon="6.96671">
        <ele>1852.5</ele>
        <time>2022-02-25T10:23:10Z</time>
      </trkpt>
      <trkpt lat="44.81202" lon="6.96671">
        <ele>1852.5</ele>
        <time>2022-02-25T10:23:11Z</time>
      </trkpt>
      <trkpt lat="44.81202" lon="6.96671">
        <ele>1852.5</ele>
        <time>2022-02-25T10:23:12Z</time>
      </trkpt>
      <trkpt lat="44.81202" lon="6.96671">
        <ele>1852.5</ele>
        <time>2022-02-25T10:23:13Z</time>
      </trkpt>
      <trkpt lat="44.81202" lon="6.96671">
        <ele>1852.5</ele>
        <time>2022-02-25T10:23:14Z</time>
      </trkpt>
      <trkpt lat="44.81202" lon="6.96671">
        <ele>1852.5</ele>
        <time>2022-02-25T10:23:15Z</time>
      </trkpt>
      <trkpt lat="44.81202" lon="6.96671">
        <ele>1852.5</ele>
        <time>2022-02-25T10:23:16Z</time>
      </trkpt>
      <trkpt lat="44.81202" lon="6.96671">
        <ele>1852.5</ele>
        <time>2022-02-25T10:23:17Z</time>
      </trkpt>
      <trkpt lat="44.81202" lon="6.96671">
        <ele>1852.5</ele>
        <time>2022-02-25T10:23:18Z</time>
      </trkpt>
      <trkpt lat="44.81202" lon="6.96671">
        <ele>1852.5</ele>
        <time>2022-02-25T10:23:19Z</time>
      </trkpt>
      <trkpt lat="44.81202" lon="6.96671">
        <ele>1852.5</ele>
        <time>2022-02-25T10:23:20Z</time>
      </trkpt>
      <trkpt lat="44.81202" lon="6.96671">
        <ele>1852.5</ele>
        <time>2022-02-25T10:23:21Z</time>
      </trkpt>
      <trkpt lat="44.81202" lon="6.96671">
        <ele>1852.5</ele>
        <time>2022-02-25T10:23:22Z</time>
      </trkpt>
      <trkpt lat="44.81202" lon="6.96671">
        <ele>1852.5</ele>
        <time>2022-02-25T10:23:23Z</time>
      </trkpt>
      <trkpt lat="44.81202" lon="6.96671">
        <ele>1852.5</ele>
        <time>2022-02-25T10:23:24Z</time>
      </trkpt>
      <trkpt lat="44.81202" lon="6.96671">
        <ele>1852.5</ele>
        <time>2022-02-25T10:23:25Z</time>
      </trkpt>
      <trkpt lat="44.81202" lon="6.96671">
        <ele>1852.5</ele>
        <time>2022-02-25T10:23:26Z</time>
      </trkpt>
      <trkpt lat="44.81202" lon="6.96671">
        <ele>1852.5</ele>
        <time>2022-02-25T10:23:27Z</time>
      </trkpt>
      <trkpt lat="44.81202" lon="6.96671">
        <ele>1852.5</ele>
        <time>2022-02-25T10:23:28Z</time>
      </trkpt>
      <trkpt lat="44.81202" lon="6.96671">
        <ele>1852.5</ele>
        <time>2022-02-25T10:23:29Z</time>
      </trkpt>
      <trkpt lat="44.81202" lon="6.96671">
        <ele>1852.5</ele>
        <time>2022-02-25T10:23:30Z</time>
      </trkpt>
      <trkpt lat="44.81202" lon="6.96671">
        <ele>1852.5</ele>
        <time>2022-02-25T10:23:31Z</time>
      </trkpt>
      <trkpt lat="44.81202" lon="6.96671">
        <ele>1852.5</ele>
        <time>2022-02-25T10:23:32Z</time>
      </trkpt>
      <trkpt lat="44.81202" lon="6.96671">
        <ele>1852.5</ele>
        <time>2022-02-25T10:23:33Z</time>
      </trkpt>
      <trkpt lat="44.81202" lon="6.96671">
        <ele>1852.5</ele>
        <time>2022-02-25T10:23:34Z</time>
      </trkpt>
      <trkpt lat="44.81202" lon="6.96671">
        <ele>1852.5</ele>
        <time>2022-02-25T10:23:35Z</time>
      </trkpt>
      <trkpt lat="44.81202" lon="6.96671">
        <ele>1852.5</ele>
        <time>2022-02-25T10:23:36Z</time>
      </trkpt>
      <trkpt lat="44.81202" lon="6.96671">
        <ele>1852.5</ele>
        <time>2022-02-25T10:23:37Z</time>
      </trkpt>
      <trkpt lat="44.81202" lon="6.96671">
        <ele>1852.5</ele>
        <time>2022-02-25T10:23:38Z</time>
      </trkpt>
      <trkpt lat="44.81202" lon="6.96671">
        <ele>1852.5</ele>
        <time>2022-02-25T10:23:39Z</time>
      </trkpt>
      <trkpt lat="44.81202" lon="6.96671">
        <ele>1852.5</ele>
        <time>2022-02-25T10:23:40Z</time>
      </trkpt>
      <trkpt lat="44.81202" lon="6.96671">
        <ele>1852.5</ele>
        <time>2022-02-25T10:23:41Z</time>
      </trkpt>
      <trkpt lat="44.81202" lon="6.96671">
        <ele>1852.5</ele>
        <time>2022-02-25T10:23:42Z</time>
      </trkpt>
      <trkpt lat="44.81202" lon="6.96671">
        <ele>1852.5</ele>
        <time>2022-02-25T10:23:43Z</time>
      </trkpt>
      <trkpt lat="44.81202" lon="6.96671">
        <ele>1852.5</ele>
        <time>2022-02-25T10:23:44Z</time>
      </trkpt>
      <trkpt lat="44.81202" lon="6.96671">
        <ele>1852.5</ele>
        <time>2022-02-25T10:23:45Z</time>
      </trkpt>
      <trkpt lat="44.81202" lon="6.96671">
        <ele>1852.5</ele>
        <time>2022-02-25T10:23:46Z</time>
      </trkpt>
      <trkpt lat="44.81202" lon="6.96671">
        <ele>1852.5</ele>
        <time>2022-02-25T10:23:47Z</time>
      </trkpt>
      <trkpt lat="44.81202" lon="6.96671">
        <ele>1852.5</ele>
        <time>2022-02-25T10:23:48Z</time>
      </trkpt>
      <trkpt lat="44.81202" lon="6.96671">
        <ele>1852.5</ele>
        <time>2022-02-25T10:23:49Z</time>
      </trkpt>
      <trkpt lat="44.81202" lon="6.96671">
        <ele>1852.5</ele>
        <time>2022-02-25T10:23:50Z</time>
      </trkpt>
      <trkpt lat="44.81202" lon="6.96671">
        <ele>1852.5</ele>
        <time>2022-02-25T10:23:51Z</time>
      </trkpt>
      <trkpt lat="44.81202" lon="6.96671">
        <ele>1852.5</ele>
        <time>2022-02-25T10:23:52Z</time>
      </trkpt>
      <trkpt lat="44.81202" lon="6.96671">
        <ele>1852.5</ele>
        <time>2022-02-25T10:23:53Z</time>
      </trkpt>
      <trkpt lat="44.81202" lon="6.96671">
        <ele>1852.5</ele>
        <time>2022-02-25T10:23:54Z</time>
      </trkpt>
      <trkpt lat="44.81202" lon="6.96671">
        <ele>1852.5</ele>
        <time>2022-02-25T10:23:55Z</time>
      </trkpt>
      <trkpt lat="44.81202" lon="6.96671">
        <ele>1852.5</ele>
        <time>2022-02-25T10:23:56Z</time>
      </trkpt>
      <trkpt lat="44.81202" lon="6.96671">
        <ele>1852.5</ele>
        <time>2022-02-25T10:23:57Z</time>
      </trkpt>
      <trkpt lat="44.81202" lon="6.96671">
        <ele>1852.5</ele>
        <time>2022-02-25T10:23:58Z</time>
      </trkpt>
      <trkpt lat="44.81202" lon="6.96671">
        <ele>1852.5</ele>
        <time>2022-02-25T10:23:59Z</time>
      </trkpt>
      <trkpt lat="44.81202" lon="6.96671">
        <ele>1852.5</ele>
        <time>2022-02-25T10:24:00Z</time>
      </trkpt>
      <trkpt lat="44.81202" lon="6.96671">
        <ele>1852.5</ele>
        <time>2022-02-25T10:24:01Z</time>
      </trkpt>
      <trkpt lat="44.81202" lon="6.96671">
        <ele>1852.5</ele>
        <time>2022-02-25T10:24:02Z</time>
      </trkpt>
      <trkpt lat="44.81202" lon="6.96671">
        <ele>1852.5</ele>
        <time>2022-02-25T10:24:03Z</time>
      </trkpt>
      <trkpt lat="44.81202" lon="6.96671">
        <ele>1852.5</ele>
        <time>2022-02-25T10:24:04Z</time>
      </trkpt>
      <trkpt lat="44.81202" lon="6.96671">
        <ele>1852.5</ele>
        <time>2022-02-25T10:24:05Z</time>
      </trkpt>
      <trkpt lat="44.81202" lon="6.96671">
        <ele>1852.5</ele>
        <time>2022-02-25T10:24:06Z</time>
      </trkpt>
      <trkpt lat="44.81202" lon="6.96671">
        <ele>1852.5</ele>
        <time>2022-02-25T10:24:07Z</time>
      </trkpt>
      <trkpt lat="44.81202" lon="6.96671">
        <ele>1852.5</ele>
        <time>2022-02-25T10:24:08Z</time>
      </trkpt>
      <trkpt lat="44.81202" lon="6.96671">
        <ele>1852.5</ele>
        <time>2022-02-25T10:24:09Z</time>
      </trkpt>
      <trkpt lat="44.81202" lon="6.96671">
        <ele>1852.5</ele>
        <time>2022-02-25T10:24:10Z</time>
      </trkpt>
      <trkpt lat="44.81202" lon="6.96671">
        <ele>1852.5</ele>
        <time>2022-02-25T10:24:11Z</time>
      </trkpt>
      <trkpt lat="44.81202" lon="6.96671">
        <ele>1852.5</ele>
        <time>2022-02-25T10:24:12Z</time>
      </trkpt>
      <trkpt lat="44.81202" lon="6.96671">
        <ele>1852.5</ele>
        <time>2022-02-25T10:24:13Z</time>
      </trkpt>
      <trkpt lat="44.81202" lon="6.96671">
        <ele>1852.5</ele>
        <time>2022-02-25T10:24:14Z</time>
      </trkpt>
      <trkpt lat="44.81202" lon="6.96671">
        <ele>1852.5</ele>
        <time>2022-02-25T10:24:15Z</time>
      </trkpt>
      <trkpt lat="44.81202" lon="6.96671">
        <ele>1852.5</ele>
        <time>2022-02-25T10:24:16Z</time>
      </trkpt>
      <trkpt lat="44.81202" lon="6.96671">
        <ele>1852.5</ele>
        <time>2022-02-25T10:24:17Z</time>
      </trkpt>
      <trkpt lat="44.81202" lon="6.96671">
        <ele>1852.5</ele>
        <time>2022-02-25T10:24:18Z</time>
      </trkpt>
      <trkpt lat="44.81202" lon="6.96671">
        <ele>1852.5</ele>
        <time>2022-02-25T10:24:19Z</time>
      </trkpt>
      <trkpt lat="44.81202" lon="6.96671">
        <ele>1852.5</ele>
        <time>2022-02-25T10:24:20Z</time>
      </trkpt>
      <trkpt lat="44.81202" lon="6.96671">
        <ele>1852.5</ele>
        <time>2022-02-25T10:24:21Z</time>
      </trkpt>
      <trkpt lat="44.81202" lon="6.96671">
        <ele>1852.5</ele>
        <time>2022-02-25T10:24:22Z</time>
      </trkpt>
      <trkpt lat="44.81202" lon="6.96671">
        <ele>1852.5</ele>
        <time>2022-02-25T10:24:23Z</time>
      </trkpt>
      <trkpt lat="44.81202" lon="6.96671">
        <ele>1852.5</ele>
        <time>2022-02-25T10:24:24Z</time>
      </trkpt>
      <trkpt lat="44.81202" lon="6.96671">
        <ele>1852.5</ele>
        <time>2022-02-25T10:24:25Z</time>
      </trkpt>
      <trkpt lat="44.81202" lon="6.96671">
        <ele>1852.5</ele>
        <time>2022-02-25T10:24:26Z</time>
      </trkpt>
      <trkpt lat="44.81202" lon="6.96671">
        <ele>1852.5</ele>
        <time>2022-02-25T10:24:27Z</time>
      </trkpt>
      <trkpt lat="44.81202" lon="6.96671">
        <ele>1852.5</ele>
        <time>2022-02-25T10:24:28Z</time>
      </trkpt>
      <trkpt lat="44.81202" lon="6.96671">
        <ele>1852.5</ele>
        <time>2022-02-25T10:24:29Z</time>
      </trkpt>
      <trkpt lat="44.81202" lon="6.96671">
        <ele>1852.5</ele>
        <time>2022-02-25T10:24:30Z</time>
      </trkpt>
      <trkpt lat="44.81202" lon="6.96671">
        <ele>1852.5</ele>
        <time>2022-02-25T10:24:31Z</time>
      </trkpt>
      <trkpt lat="44.81202" lon="6.96671">
        <ele>1852.5</ele>
        <time>2022-02-25T10:24:32Z</time>
      </trkpt>
      <trkpt lat="44.81202" lon="6.96671">
        <ele>1852.5</ele>
        <time>2022-02-25T10:24:33Z</time>
      </trkpt>
      <trkpt lat="44.81202" lon="6.96671">
        <ele>1852.5</ele>
        <time>2022-02-25T10:24:34Z</time>
      </trkpt>
      <trkpt lat="44.81202" lon="6.96671">
        <ele>1852.5</ele>
        <time>2022-02-25T10:24:35Z</time>
      </trkpt>
      <trkpt lat="44.81202" lon="6.96671">
        <ele>1852.5</ele>
        <time>2022-02-25T10:24:36Z</time>
      </trkpt>
      <trkpt lat="44.81202" lon="6.96671">
        <ele>1852.5</ele>
        <time>2022-02-25T10:24:37Z</time>
      </trkpt>
      <trkpt lat="44.81202" lon="6.96671">
        <ele>1852.5</ele>
        <time>2022-02-25T10:24:38Z</time>
      </trkpt>
      <trkpt lat="44.81202" lon="6.96671">
        <ele>1852.5</ele>
        <time>2022-02-25T10:24:39Z</time>
      </trkpt>
      <trkpt lat="44.81202" lon="6.96671">
        <ele>1852.5</ele>
        <time>2022-02-25T10:24:40Z</time>
      </trkpt>
      <trkpt lat="44.81202" lon="6.96671">
        <ele>1852.5</ele>
        <time>2022-02-25T10:24:41Z</time>
      </trkpt>
      <trkpt lat="44.81202" lon="6.96671">
        <ele>1852.5</ele>
        <time>2022-02-25T10:24:42Z</time>
      </trkpt>
      <trkpt lat="44.81202" lon="6.96671">
        <ele>1852.5</ele>
        <time>2022-02-25T10:24:43Z</time>
      </trkpt>
      <trkpt lat="44.81202" lon="6.96671">
        <ele>1852.5</ele>
        <time>2022-02-25T10:24:44Z</time>
      </trkpt>
      <trkpt lat="44.81202" lon="6.96671">
        <ele>1852.5</ele>
        <time>2022-02-25T10:24:45Z</time>
      </trkpt>
      <trkpt lat="44.81202" lon="6.96671">
        <ele>1852.5</ele>
        <time>2022-02-25T10:24:46Z</time>
      </trkpt>
      <trkpt lat="44.81202" lon="6.96671">
        <ele>1852.5</ele>
        <time>2022-02-25T10:24:47Z</time>
      </trkpt>
      <trkpt lat="44.81202" lon="6.96671">
        <ele>1852.5</ele>
        <time>2022-02-25T10:24:48Z</time>
      </trkpt>
      <trkpt lat="44.81202" lon="6.96671">
        <ele>1852.5</ele>
        <time>2022-02-25T10:24:49Z</time>
      </trkpt>
      <trkpt lat="44.81202" lon="6.96671">
        <ele>1852.5</ele>
        <time>2022-02-25T10:24:50Z</time>
      </trkpt>
      <trkpt lat="44.81202" lon="6.96671">
        <ele>1852.5</ele>
        <time>2022-02-25T10:24:51Z</time>
      </trkpt>
      <trkpt lat="44.81202" lon="6.96671">
        <ele>1852.5</ele>
        <time>2022-02-25T10:24:52Z</time>
      </trkpt>
      <trkpt lat="44.81202" lon="6.96671">
        <ele>1852.5</ele>
        <time>2022-02-25T10:24:53Z</time>
      </trkpt>
      <trkpt lat="44.812" lon="6.96674">
        <ele>1851.6</ele>
        <time>2022-02-25T10:24:54Z</time>
      </trkpt>
      <trkpt lat="44.812" lon="6.96674">
        <ele>1851.6</ele>
        <time>2022-02-25T10:24:55Z</time>
      </trkpt>
      <trkpt lat="44.81197" lon="6.96678">
        <ele>1850.4</ele>
        <time>2022-02-25T10:24:56Z</time>
      </trkpt>
      <trkpt lat="44.81196" lon="6.9668">
        <ele>1850</ele>
        <time>2022-02-25T10:24:57Z</time>
      </trkpt>
      <trkpt lat="44.81195" lon="6.96682">
        <ele>1849.6</ele>
        <time>2022-02-25T10:24:58Z</time>
      </trkpt>
      <trkpt lat="44.81195" lon="6.96682">
        <ele>1849.6</ele>
        <time>2022-02-25T10:24:59Z</time>
      </trkpt>
      <trkpt lat="44.81192" lon="6.96684">
        <ele>1849.2</ele>
        <time>2022-02-25T10:25:00Z</time>
      </trkpt>
      <trkpt lat="44.8119" lon="6.96686">
        <ele>1849</ele>
        <time>2022-02-25T10:25:01Z</time>
      </trkpt>
      <trkpt lat="44.81188" lon="6.96687">
        <ele>1848.9</ele>
        <time>2022-02-25T10:25:02Z</time>
      </trkpt>
      <trkpt lat="44.81187" lon="6.96688">
        <ele>1848.8</ele>
        <time>2022-02-25T10:25:03Z</time>
      </trkpt>
      <trkpt lat="44.81187" lon="6.96688">
        <ele>1848.8</ele>
        <time>2022-02-25T10:25:04Z</time>
      </trkpt>
      <trkpt lat="44.81184" lon="6.96689">
        <ele>1848.7</ele>
        <time>2022-02-25T10:25:05Z</time>
      </trkpt>
      <trkpt lat="44.81184" lon="6.96689">
        <ele>1848.7</ele>
        <time>2022-02-25T10:25:06Z</time>
      </trkpt>
      <trkpt lat="44.81182" lon="6.9669">
        <ele>1848.6</ele>
        <time>2022-02-25T10:25:07Z</time>
      </trkpt>
      <trkpt lat="44.81182" lon="6.9669">
        <ele>1848.6</ele>
        <time>2022-02-25T10:25:08Z</time>
      </trkpt>
      <trkpt lat="44.8118" lon="6.96691">
        <ele>1848.5</ele>
        <time>2022-02-25T10:25:09Z</time>
      </trkpt>
      <trkpt lat="44.8118" lon="6.96691">
        <ele>1848.5</ele>
        <time>2022-02-25T10:25:10Z</time>
      </trkpt>
      <trkpt lat="44.81178" lon="6.96692">
        <ele>1848.4</ele>
        <time>2022-02-25T10:25:11Z</time>
      </trkpt>
      <trkpt lat="44.81178" lon="6.96692">
        <ele>1848.4</ele>
        <time>2022-02-25T10:25:12Z</time>
      </trkpt>
      <trkpt lat="44.81176" lon="6.96692">
        <ele>1848.3</ele>
        <time>2022-02-25T10:25:13Z</time>
      </trkpt>
      <trkpt lat="44.81176" lon="6.96692">
        <ele>1848.3</ele>
        <time>2022-02-25T10:25:14Z</time>
      </trkpt>
      <trkpt lat="44.81174" lon="6.96693">
        <ele>1848.2</ele>
        <time>2022-02-25T10:25:15Z</time>
      </trkpt>
      <trkpt lat="44.81174" lon="6.96693">
        <ele>1848.2</ele>
        <time>2022-02-25T10:25:16Z</time>
      </trkpt>
      <trkpt lat="44.81172" lon="6.96695">
        <ele>1848.2</ele>
        <time>2022-02-25T10:25:17Z</time>
      </trkpt>
      <trkpt lat="44.81172" lon="6.96695">
        <ele>1848.2</ele>
        <time>2022-02-25T10:25:18Z</time>
      </trkpt>
      <trkpt lat="44.8117" lon="6.96696">
        <ele>1848.2</ele>
        <time>2022-02-25T10:25:19Z</time>
      </trkpt>
      <trkpt lat="44.8117" lon="6.96696">
        <ele>1848.2</ele>
        <time>2022-02-25T10:25:20Z</time>
      </trkpt>
      <trkpt lat="44.81169" lon="6.96698">
        <ele>1848.2</ele>
        <time>2022-02-25T10:25:21Z</time>
      </trkpt>
      <trkpt lat="44.81169" lon="6.96698">
        <ele>1848.2</ele>
        <time>2022-02-25T10:25:22Z</time>
      </trkpt>
      <trkpt lat="44.81167" lon="6.967">
        <ele>1848.2</ele>
        <time>2022-02-25T10:25:23Z</time>
      </trkpt>
      <trkpt lat="44.81167" lon="6.967">
        <ele>1848.2</ele>
        <time>2022-02-25T10:25:24Z</time>
      </trkpt>
      <trkpt lat="44.81167" lon="6.967">
        <ele>1848.2</ele>
        <time>2022-02-25T10:25:25Z</time>
      </trkpt>
      <trkpt lat="44.81166" lon="6.96702">
        <ele>1848.3</ele>
        <time>2022-02-25T10:25:26Z</time>
      </trkpt>
      <trkpt lat="44.81166" lon="6.96702">
        <ele>1848.3</ele>
        <time>2022-02-25T10:25:27Z</time>
      </trkpt>
      <trkpt lat="44.81166" lon="6.96702">
        <ele>1848.3</ele>
        <time>2022-02-25T10:25:28Z</time>
      </trkpt>
      <trkpt lat="44.81165" lon="6.96705">
        <ele>1848.5</ele>
        <time>2022-02-25T10:25:29Z</time>
      </trkpt>
      <trkpt lat="44.81165" lon="6.96705">
        <ele>1848.5</ele>
        <time>2022-02-25T10:25:30Z</time>
      </trkpt>
      <trkpt lat="44.81165" lon="6.96708">
        <ele>1848.6</ele>
        <time>2022-02-25T10:25:31Z</time>
      </trkpt>
      <trkpt lat="44.81165" lon="6.96708">
        <ele>1848.6</ele>
        <time>2022-02-25T10:25:32Z</time>
      </trkpt>
      <trkpt lat="44.81165" lon="6.96711">
        <ele>1848.7</ele>
        <time>2022-02-25T10:25:33Z</time>
      </trkpt>
      <trkpt lat="44.81165" lon="6.96711">
        <ele>1848.7</ele>
        <time>2022-02-25T10:25:34Z</time>
      </trkpt>
      <trkpt lat="44.81165" lon="6.96713">
        <ele>1848.8</ele>
        <time>2022-02-25T10:25:35Z</time>
      </trkpt>
      <trkpt lat="44.81165" lon="6.96713">
        <ele>1848.8</ele>
        <time>2022-02-25T10:25:36Z</time>
      </trkpt>
      <trkpt lat="44.81165" lon="6.96716">
        <ele>1848.9</ele>
        <time>2022-02-25T10:25:37Z</time>
      </trkpt>
      <trkpt lat="44.81165" lon="6.96716">
        <ele>1848.9</ele>
        <time>2022-02-25T10:25:38Z</time>
      </trkpt>
      <trkpt lat="44.81165" lon="6.96716">
        <ele>1848.9</ele>
        <time>2022-02-25T10:25:39Z</time>
      </trkpt>
      <trkpt lat="44.81165" lon="6.96719">
        <ele>1849</ele>
        <time>2022-02-25T10:25:40Z</time>
      </trkpt>
      <trkpt lat="44.81165" lon="6.96719">
        <ele>1849</ele>
        <time>2022-02-25T10:25:41Z</time>
      </trkpt>
      <trkpt lat="44.81165" lon="6.96719">
        <ele>1849</ele>
        <time>2022-02-25T10:25:42Z</time>
      </trkpt>
      <trkpt lat="44.81167" lon="6.96723">
        <ele>1849</ele>
        <time>2022-02-25T10:25:43Z</time>
      </trkpt>
      <trkpt lat="44.81167" lon="6.96723">
        <ele>1849</ele>
        <time>2022-02-25T10:25:44Z</time>
      </trkpt>
      <trkpt lat="44.81167" lon="6.96723">
        <ele>1849</ele>
        <time>2022-02-25T10:25:45Z</time>
      </trkpt>
      <trkpt lat="44.81167" lon="6.96726">
        <ele>1849.1</ele>
        <time>2022-02-25T10:25:46Z</time>
      </trkpt>
      <trkpt lat="44.81167" lon="6.96726">
        <ele>1849.1</ele>
        <time>2022-02-25T10:25:47Z</time>
      </trkpt>
      <trkpt lat="44.81167" lon="6.96726">
        <ele>1849.1</ele>
        <time>2022-02-25T10:25:48Z</time>
      </trkpt>
      <trkpt lat="44.81168" lon="6.96729">
        <ele>1849.3</ele>
        <time>2022-02-25T10:25:49Z</time>
      </trkpt>
      <trkpt lat="44.81168" lon="6.96729">
        <ele>1849.3</ele>
        <time>2022-02-25T10:25:50Z</time>
      </trkpt>
      <trkpt lat="44.81168" lon="6.96729">
        <ele>1849.3</ele>
        <time>2022-02-25T10:25:51Z</time>
      </trkpt>
      <trkpt lat="44.81168" lon="6.96733">
        <ele>1849.4</ele>
        <time>2022-02-25T10:25:52Z</time>
      </trkpt>
      <trkpt lat="44.81168" lon="6.96733">
        <ele>1849.4</ele>
        <time>2022-02-25T10:25:53Z</time>
      </trkpt>
      <trkpt lat="44.81168" lon="6.96733">
        <ele>1849.4</ele>
        <time>2022-02-25T10:25:54Z</time>
      </trkpt>
      <trkpt lat="44.81169" lon="6.96735">
        <ele>1849.5</ele>
        <time>2022-02-25T10:25:55Z</time>
      </trkpt>
      <trkpt lat="44.81169" lon="6.96735">
        <ele>1849.5</ele>
        <time>2022-02-25T10:25:56Z</time>
      </trkpt>
      <trkpt lat="44.81169" lon="6.96738">
        <ele>1849.6</ele>
        <time>2022-02-25T10:25:57Z</time>
      </trkpt>
      <trkpt lat="44.81169" lon="6.96738">
        <ele>1849.6</ele>
        <time>2022-02-25T10:25:58Z</time>
      </trkpt>
      <trkpt lat="44.81169" lon="6.96738">
        <ele>1849.6</ele>
        <time>2022-02-25T10:25:59Z</time>
      </trkpt>
      <trkpt lat="44.81169" lon="6.96741">
        <ele>1849.7</ele>
        <time>2022-02-25T10:26:00Z</time>
      </trkpt>
      <trkpt lat="44.81169" lon="6.96741">
        <ele>1849.7</ele>
        <time>2022-02-25T10:26:01Z</time>
      </trkpt>
      <trkpt lat="44.81169" lon="6.96741">
        <ele>1849.7</ele>
        <time>2022-02-25T10:26:02Z</time>
      </trkpt>
      <trkpt lat="44.8117" lon="6.96744">
        <ele>1849.8</ele>
        <time>2022-02-25T10:26:03Z</time>
      </trkpt>
      <trkpt lat="44.8117" lon="6.96744">
        <ele>1849.8</ele>
        <time>2022-02-25T10:26:04Z</time>
      </trkpt>
      <trkpt lat="44.8117" lon="6.96744">
        <ele>1849.8</ele>
        <time>2022-02-25T10:26:05Z</time>
      </trkpt>
      <trkpt lat="44.8117" lon="6.96748">
        <ele>1849.9</ele>
        <time>2022-02-25T10:26:06Z</time>
      </trkpt>
      <trkpt lat="44.8117" lon="6.96748">
        <ele>1849.9</ele>
        <time>2022-02-25T10:26:07Z</time>
      </trkpt>
      <trkpt lat="44.8117" lon="6.96748">
        <ele>1849.9</ele>
        <time>2022-02-25T10:26:08Z</time>
      </trkpt>
      <trkpt lat="44.8117" lon="6.96751">
        <ele>1850</ele>
        <time>2022-02-25T10:26:09Z</time>
      </trkpt>
      <trkpt lat="44.8117" lon="6.96751">
        <ele>1850</ele>
        <time>2022-02-25T10:26:10Z</time>
      </trkpt>
      <trkpt lat="44.8117" lon="6.96751">
        <ele>1850</ele>
        <time>2022-02-25T10:26:11Z</time>
      </trkpt>
      <trkpt lat="44.8117" lon="6.96754">
        <ele>1850.1</ele>
        <time>2022-02-25T10:26:12Z</time>
      </trkpt>
      <trkpt lat="44.8117" lon="6.96754">
        <ele>1850.1</ele>
        <time>2022-02-25T10:26:13Z</time>
      </trkpt>
      <trkpt lat="44.8117" lon="6.96754">
        <ele>1850.1</ele>
        <time>2022-02-25T10:26:14Z</time>
      </trkpt>
      <trkpt lat="44.8117" lon="6.96757">
        <ele>1850.3</ele>
        <time>2022-02-25T10:26:15Z</time>
      </trkpt>
      <trkpt lat="44.8117" lon="6.96757">
        <ele>1850.3</ele>
        <time>2022-02-25T10:26:16Z</time>
      </trkpt>
      <trkpt lat="44.8117" lon="6.9676">
        <ele>1850.4</ele>
        <time>2022-02-25T10:26:17Z</time>
      </trkpt>
      <trkpt lat="44.8117" lon="6.9676">
        <ele>1850.4</ele>
        <time>2022-02-25T10:26:18Z</time>
      </trkpt>
      <trkpt lat="44.8117" lon="6.9676">
        <ele>1850.4</ele>
        <time>2022-02-25T10:26:19Z</time>
      </trkpt>
      <trkpt lat="44.8117" lon="6.96764">
        <ele>1850.5</ele>
        <time>2022-02-25T10:26:20Z</time>
      </trkpt>
      <trkpt lat="44.8117" lon="6.96764">
        <ele>1850.5</ele>
        <time>2022-02-25T10:26:21Z</time>
      </trkpt>
      <trkpt lat="44.8117" lon="6.96766">
        <ele>1850.6</ele>
        <time>2022-02-25T10:26:22Z</time>
      </trkpt>
      <trkpt lat="44.8117" lon="6.96766">
        <ele>1850.6</ele>
        <time>2022-02-25T10:26:23Z</time>
      </trkpt>
      <trkpt lat="44.81169" lon="6.9677">
        <ele>1850.7</ele>
        <time>2022-02-25T10:26:24Z</time>
      </trkpt>
      <trkpt lat="44.81169" lon="6.9677">
        <ele>1850.7</ele>
        <time>2022-02-25T10:26:25Z</time>
      </trkpt>
      <trkpt lat="44.81169" lon="6.9677">
        <ele>1850.7</ele>
        <time>2022-02-25T10:26:26Z</time>
      </trkpt>
      <trkpt lat="44.81169" lon="6.96774">
        <ele>1850.9</ele>
        <time>2022-02-25T10:26:27Z</time>
      </trkpt>
      <trkpt lat="44.81169" lon="6.96774">
        <ele>1850.9</ele>
        <time>2022-02-25T10:26:28Z</time>
      </trkpt>
      <trkpt lat="44.81169" lon="6.96774">
        <ele>1850.9</ele>
        <time>2022-02-25T10:26:29Z</time>
      </trkpt>
      <trkpt lat="44.81169" lon="6.96778">
        <ele>1851</ele>
        <time>2022-02-25T10:26:30Z</time>
      </trkpt>
      <trkpt lat="44.81169" lon="6.96778">
        <ele>1851</ele>
        <time>2022-02-25T10:26:31Z</time>
      </trkpt>
      <trkpt lat="44.81168" lon="6.9678">
        <ele>1851.1</ele>
        <time>2022-02-25T10:26:32Z</time>
      </trkpt>
      <trkpt lat="44.81168" lon="6.9678">
        <ele>1851.1</ele>
        <time>2022-02-25T10:26:33Z</time>
      </trkpt>
      <trkpt lat="44.81167" lon="6.96782">
        <ele>1851.2</ele>
        <time>2022-02-25T10:26:34Z</time>
      </trkpt>
      <trkpt lat="44.81167" lon="6.96782">
        <ele>1851.2</ele>
        <time>2022-02-25T10:26:35Z</time>
      </trkpt>
      <trkpt lat="44.81167" lon="6.96782">
        <ele>1851.2</ele>
        <time>2022-02-25T10:26:36Z</time>
      </trkpt>
      <trkpt lat="44.81167" lon="6.96786">
        <ele>1851.3</ele>
        <time>2022-02-25T10:26:37Z</time>
      </trkpt>
      <trkpt lat="44.81167" lon="6.96786">
        <ele>1851.3</ele>
        <time>2022-02-25T10:26:38Z</time>
      </trkpt>
      <trkpt lat="44.81166" lon="6.96788">
        <ele>1851.4</ele>
        <time>2022-02-25T10:26:39Z</time>
      </trkpt>
      <trkpt lat="44.81166" lon="6.96788">
        <ele>1851.4</ele>
        <time>2022-02-25T10:26:40Z</time>
      </trkpt>
      <trkpt lat="44.81166" lon="6.96788">
        <ele>1851.4</ele>
        <time>2022-02-25T10:26:41Z</time>
      </trkpt>
      <trkpt lat="44.81164" lon="6.96791">
        <ele>1851.8</ele>
        <time>2022-02-25T10:26:42Z</time>
      </trkpt>
      <trkpt lat="44.81164" lon="6.96791">
        <ele>1851.8</ele>
        <time>2022-02-25T10:26:43Z</time>
      </trkpt>
      <trkpt lat="44.81163" lon="6.96793">
        <ele>1852</ele>
        <time>2022-02-25T10:26:44Z</time>
      </trkpt>
      <trkpt lat="44.81163" lon="6.96793">
        <ele>1852</ele>
        <time>2022-02-25T10:26:45Z</time>
      </trkpt>
      <trkpt lat="44.81163" lon="6.96793">
        <ele>1852</ele>
        <time>2022-02-25T10:26:46Z</time>
      </trkpt>
      <trkpt lat="44.81162" lon="6.96796">
        <ele>1852.3</ele>
        <time>2022-02-25T10:26:47Z</time>
      </trkpt>
      <trkpt lat="44.81162" lon="6.96796">
        <ele>1852.3</ele>
        <time>2022-02-25T10:26:48Z</time>
      </trkpt>
      <trkpt lat="44.81162" lon="6.96796">
        <ele>1852.3</ele>
        <time>2022-02-25T10:26:49Z</time>
      </trkpt>
      <trkpt lat="44.8116" lon="6.96798">
        <ele>1852.6</ele>
        <time>2022-02-25T10:26:50Z</time>
      </trkpt>
      <trkpt lat="44.8116" lon="6.96798">
        <ele>1852.6</ele>
        <time>2022-02-25T10:26:51Z</time>
      </trkpt>
      <trkpt lat="44.8116" lon="6.96798">
        <ele>1852.6</ele>
        <time>2022-02-25T10:26:52Z</time>
      </trkpt>
      <trkpt lat="44.81159" lon="6.968">
        <ele>1852.8</ele>
        <time>2022-02-25T10:26:53Z</time>
      </trkpt>
      <trkpt lat="44.81159" lon="6.968">
        <ele>1852.8</ele>
        <time>2022-02-25T10:26:54Z</time>
      </trkpt>
      <trkpt lat="44.81159" lon="6.968">
        <ele>1852.8</ele>
        <time>2022-02-25T10:26:55Z</time>
      </trkpt>
      <trkpt lat="44.81157" lon="6.96803">
        <ele>1853.3</ele>
        <time>2022-02-25T10:26:56Z</time>
      </trkpt>
      <trkpt lat="44.81157" lon="6.96803">
        <ele>1853.3</ele>
        <time>2022-02-25T10:26:57Z</time>
      </trkpt>
      <trkpt lat="44.81157" lon="6.96803">
        <ele>1853.3</ele>
        <time>2022-02-25T10:26:58Z</time>
      </trkpt>
      <trkpt lat="44.81156" lon="6.96805">
        <ele>1853.5</ele>
        <time>2022-02-25T10:26:59Z</time>
      </trkpt>
      <trkpt lat="44.81156" lon="6.96805">
        <ele>1853.5</ele>
        <time>2022-02-25T10:27:00Z</time>
      </trkpt>
      <trkpt lat="44.81156" lon="6.96805">
        <ele>1853.5</ele>
        <time>2022-02-25T10:27:01Z</time>
      </trkpt>
      <trkpt lat="44.81154" lon="6.96807">
        <ele>1853.9</ele>
        <time>2022-02-25T10:27:02Z</time>
      </trkpt>
      <trkpt lat="44.81154" lon="6.96807">
        <ele>1853.9</ele>
        <time>2022-02-25T10:27:03Z</time>
      </trkpt>
      <trkpt lat="44.81154" lon="6.96807">
        <ele>1853.9</ele>
        <time>2022-02-25T10:27:04Z</time>
      </trkpt>
      <trkpt lat="44.81152" lon="6.9681">
        <ele>1854.2</ele>
        <time>2022-02-25T10:27:05Z</time>
      </trkpt>
      <trkpt lat="44.81152" lon="6.9681">
        <ele>1854.2</ele>
        <time>2022-02-25T10:27:06Z</time>
      </trkpt>
      <trkpt lat="44.81151" lon="6.96812">
        <ele>1854.4</ele>
        <time>2022-02-25T10:27:07Z</time>
      </trkpt>
      <trkpt lat="44.81151" lon="6.96812">
        <ele>1854.4</ele>
        <time>2022-02-25T10:27:08Z</time>
      </trkpt>
      <trkpt lat="44.81151" lon="6.96812">
        <ele>1854.4</ele>
        <time>2022-02-25T10:27:09Z</time>
      </trkpt>
      <trkpt lat="44.81149" lon="6.96814">
        <ele>1854.7</ele>
        <time>2022-02-25T10:27:10Z</time>
      </trkpt>
      <trkpt lat="44.81149" lon="6.96814">
        <ele>1854.7</ele>
        <time>2022-02-25T10:27:11Z</time>
      </trkpt>
      <trkpt lat="44.81149" lon="6.96814">
        <ele>1854.7</ele>
        <time>2022-02-25T10:27:12Z</time>
      </trkpt>
      <trkpt lat="44.81147" lon="6.96817">
        <ele>1855</ele>
        <time>2022-02-25T10:27:13Z</time>
      </trkpt>
      <trkpt lat="44.81147" lon="6.96817">
        <ele>1855</ele>
        <time>2022-02-25T10:27:14Z</time>
      </trkpt>
      <trkpt lat="44.81147" lon="6.96817">
        <ele>1855</ele>
        <time>2022-02-25T10:27:15Z</time>
      </trkpt>
      <trkpt lat="44.81146" lon="6.9682">
        <ele>1855.1</ele>
        <time>2022-02-25T10:27:16Z</time>
      </trkpt>
      <trkpt lat="44.81146" lon="6.9682">
        <ele>1855.1</ele>
        <time>2022-02-25T10:27:17Z</time>
      </trkpt>
      <trkpt lat="44.81146" lon="6.9682">
        <ele>1855.1</ele>
        <time>2022-02-25T10:27:18Z</time>
      </trkpt>
      <trkpt lat="44.81144" lon="6.96822">
        <ele>1855.4</ele>
        <time>2022-02-25T10:27:19Z</time>
      </trkpt>
      <trkpt lat="44.81144" lon="6.96822">
        <ele>1855.4</ele>
        <time>2022-02-25T10:27:20Z</time>
      </trkpt>
      <trkpt lat="44.81144" lon="6.96822">
        <ele>1855.4</ele>
        <time>2022-02-25T10:27:21Z</time>
      </trkpt>
      <trkpt lat="44.81143" lon="6.96824">
        <ele>1855.5</ele>
        <time>2022-02-25T10:27:22Z</time>
      </trkpt>
      <trkpt lat="44.81143" lon="6.96824">
        <ele>1855.5</ele>
        <time>2022-02-25T10:27:23Z</time>
      </trkpt>
      <trkpt lat="44.81143" lon="6.96824">
        <ele>1855.5</ele>
        <time>2022-02-25T10:27:24Z</time>
      </trkpt>
      <trkpt lat="44.81142" lon="6.96827">
        <ele>1855.6</ele>
        <time>2022-02-25T10:27:25Z</time>
      </trkpt>
      <trkpt lat="44.81142" lon="6.96827">
        <ele>1855.6</ele>
        <time>2022-02-25T10:27:26Z</time>
      </trkpt>
      <trkpt lat="44.81142" lon="6.96827">
        <ele>1855.6</ele>
        <time>2022-02-25T10:27:27Z</time>
      </trkpt>
      <trkpt lat="44.8114" lon="6.96829">
        <ele>1855.9</ele>
        <time>2022-02-25T10:27:28Z</time>
      </trkpt>
      <trkpt lat="44.8114" lon="6.96829">
        <ele>1855.9</ele>
        <time>2022-02-25T10:27:29Z</time>
      </trkpt>
      <trkpt lat="44.8114" lon="6.96829">
        <ele>1855.9</ele>
        <time>2022-02-25T10:27:30Z</time>
      </trkpt>
      <trkpt lat="44.81138" lon="6.96832">
        <ele>1856.1</ele>
        <time>2022-02-25T10:27:31Z</time>
      </trkpt>
      <trkpt lat="44.81138" lon="6.96832">
        <ele>1856.1</ele>
        <time>2022-02-25T10:27:32Z</time>
      </trkpt>
      <trkpt lat="44.81137" lon="6.96834">
        <ele>1856.3</ele>
        <time>2022-02-25T10:27:33Z</time>
      </trkpt>
      <trkpt lat="44.81137" lon="6.96834">
        <ele>1856.3</ele>
        <time>2022-02-25T10:27:34Z</time>
      </trkpt>
      <trkpt lat="44.81137" lon="6.96834">
        <ele>1856.3</ele>
        <time>2022-02-25T10:27:35Z</time>
      </trkpt>
      <trkpt lat="44.81135" lon="6.96836">
        <ele>1856.5</ele>
        <time>2022-02-25T10:27:36Z</time>
      </trkpt>
      <trkpt lat="44.81135" lon="6.96836">
        <ele>1856.5</ele>
        <time>2022-02-25T10:27:37Z</time>
      </trkpt>
      <trkpt lat="44.81135" lon="6.96836">
        <ele>1856.5</ele>
        <time>2022-02-25T10:27:38Z</time>
      </trkpt>
      <trkpt lat="44.81133" lon="6.96838">
        <ele>1856.8</ele>
        <time>2022-02-25T10:27:39Z</time>
      </trkpt>
      <trkpt lat="44.81133" lon="6.96838">
        <ele>1856.8</ele>
        <time>2022-02-25T10:27:40Z</time>
      </trkpt>
      <trkpt lat="44.81133" lon="6.96838">
        <ele>1856.8</ele>
        <time>2022-02-25T10:27:41Z</time>
      </trkpt>
      <trkpt lat="44.81131" lon="6.96839">
        <ele>1857.1</ele>
        <time>2022-02-25T10:27:42Z</time>
      </trkpt>
      <trkpt lat="44.81131" lon="6.96839">
        <ele>1857.1</ele>
        <time>2022-02-25T10:27:43Z</time>
      </trkpt>
      <trkpt lat="44.81131" lon="6.96839">
        <ele>1857.1</ele>
        <time>2022-02-25T10:27:44Z</time>
      </trkpt>
      <trkpt lat="44.81129" lon="6.96842">
        <ele>1857.3</ele>
        <time>2022-02-25T10:27:45Z</time>
      </trkpt>
      <trkpt lat="44.81129" lon="6.96842">
        <ele>1857.3</ele>
        <time>2022-02-25T10:27:46Z</time>
      </trkpt>
      <trkpt lat="44.81127" lon="6.96843">
        <ele>1857.6</ele>
        <time>2022-02-25T10:27:47Z</time>
      </trkpt>
      <trkpt lat="44.81127" lon="6.96843">
        <ele>1857.6</ele>
        <time>2022-02-25T10:27:48Z</time>
      </trkpt>
      <trkpt lat="44.81125" lon="6.96844">
        <ele>1857.8</ele>
        <time>2022-02-25T10:27:49Z</time>
      </trkpt>
      <trkpt lat="44.81125" lon="6.96844">
        <ele>1857.8</ele>
        <time>2022-02-25T10:27:50Z</time>
      </trkpt>
      <trkpt lat="44.81125" lon="6.96844">
        <ele>1857.8</ele>
        <time>2022-02-25T10:27:51Z</time>
      </trkpt>
      <trkpt lat="44.81122" lon="6.96845">
        <ele>1858.2</ele>
        <time>2022-02-25T10:27:52Z</time>
      </trkpt>
      <trkpt lat="44.81122" lon="6.96845">
        <ele>1858.2</ele>
        <time>2022-02-25T10:27:53Z</time>
      </trkpt>
      <trkpt lat="44.81122" lon="6.96845">
        <ele>1858.2</ele>
        <time>2022-02-25T10:27:54Z</time>
      </trkpt>
      <trkpt lat="44.81119" lon="6.96847">
        <ele>1858.5</ele>
        <time>2022-02-25T10:27:55Z</time>
      </trkpt>
      <trkpt lat="44.81119" lon="6.96847">
        <ele>1858.5</ele>
        <time>2022-02-25T10:27:56Z</time>
      </trkpt>
      <trkpt lat="44.81119" lon="6.96847">
        <ele>1858.5</ele>
        <time>2022-02-25T10:27:57Z</time>
      </trkpt>
      <trkpt lat="44.81117" lon="6.96847">
        <ele>1858.8</ele>
        <time>2022-02-25T10:27:58Z</time>
      </trkpt>
      <trkpt lat="44.81117" lon="6.96847">
        <ele>1858.8</ele>
        <time>2022-02-25T10:27:59Z</time>
      </trkpt>
      <trkpt lat="44.81115" lon="6.96847">
        <ele>1859</ele>
        <time>2022-02-25T10:28:00Z</time>
      </trkpt>
      <trkpt lat="44.81115" lon="6.96847">
        <ele>1859</ele>
        <time>2022-02-25T10:28:01Z</time>
      </trkpt>
      <trkpt lat="44.81113" lon="6.96848">
        <ele>1859.2</ele>
        <time>2022-02-25T10:28:02Z</time>
      </trkpt>
      <trkpt lat="44.81113" lon="6.96848">
        <ele>1859.2</ele>
        <time>2022-02-25T10:28:03Z</time>
      </trkpt>
      <trkpt lat="44.81113" lon="6.96848">
        <ele>1859.2</ele>
        <time>2022-02-25T10:28:04Z</time>
      </trkpt>
      <trkpt lat="44.8111" lon="6.96848">
        <ele>1859.6</ele>
        <time>2022-02-25T10:28:05Z</time>
      </trkpt>
      <trkpt lat="44.8111" lon="6.96848">
        <ele>1859.6</ele>
        <time>2022-02-25T10:28:06Z</time>
      </trkpt>
      <trkpt lat="44.8111" lon="6.96848">
        <ele>1859.6</ele>
        <time>2022-02-25T10:28:07Z</time>
      </trkpt>
      <trkpt lat="44.81108" lon="6.96848">
        <ele>1859.8</ele>
        <time>2022-02-25T10:28:08Z</time>
      </trkpt>
      <trkpt lat="44.81108" lon="6.96848">
        <ele>1859.8</ele>
        <time>2022-02-25T10:28:09Z</time>
      </trkpt>
      <trkpt lat="44.81108" lon="6.96848">
        <ele>1859.8</ele>
        <time>2022-02-25T10:28:10Z</time>
      </trkpt>
      <trkpt lat="44.81105" lon="6.96848">
        <ele>1860.1</ele>
        <time>2022-02-25T10:28:11Z</time>
      </trkpt>
      <trkpt lat="44.81105" lon="6.96848">
        <ele>1860.1</ele>
        <time>2022-02-25T10:28:12Z</time>
      </trkpt>
      <trkpt lat="44.81105" lon="6.96848">
        <ele>1860.1</ele>
        <time>2022-02-25T10:28:13Z</time>
      </trkpt>
      <trkpt lat="44.81103" lon="6.96847">
        <ele>1860.4</ele>
        <time>2022-02-25T10:28:14Z</time>
      </trkpt>
      <trkpt lat="44.81103" lon="6.96847">
        <ele>1860.4</ele>
        <time>2022-02-25T10:28:15Z</time>
      </trkpt>
      <trkpt lat="44.81101" lon="6.96847">
        <ele>1860.6</ele>
        <time>2022-02-25T10:28:16Z</time>
      </trkpt>
      <trkpt lat="44.81101" lon="6.96847">
        <ele>1860.6</ele>
        <time>2022-02-25T10:28:17Z</time>
      </trkpt>
      <trkpt lat="44.81101" lon="6.96847">
        <ele>1860.6</ele>
        <time>2022-02-25T10:28:18Z</time>
      </trkpt>
      <trkpt lat="44.81099" lon="6.96846">
        <ele>1860.9</ele>
        <time>2022-02-25T10:28:19Z</time>
      </trkpt>
      <trkpt lat="44.81099" lon="6.96846">
        <ele>1860.9</ele>
        <time>2022-02-25T10:28:20Z</time>
      </trkpt>
      <trkpt lat="44.81097" lon="6.96846">
        <ele>1861.1</ele>
        <time>2022-02-25T10:28:21Z</time>
      </trkpt>
      <trkpt lat="44.81097" lon="6.96846">
        <ele>1861.1</ele>
        <time>2022-02-25T10:28:22Z</time>
      </trkpt>
      <trkpt lat="44.81097" lon="6.96846">
        <ele>1861.1</ele>
        <time>2022-02-25T10:28:23Z</time>
      </trkpt>
      <trkpt lat="44.81094" lon="6.96845">
        <ele>1861.4</ele>
        <time>2022-02-25T10:28:24Z</time>
      </trkpt>
      <trkpt lat="44.81094" lon="6.96845">
        <ele>1861.4</ele>
        <time>2022-02-25T10:28:25Z</time>
      </trkpt>
      <trkpt lat="44.81094" lon="6.96845">
        <ele>1861.4</ele>
        <time>2022-02-25T10:28:26Z</time>
      </trkpt>
      <trkpt lat="44.81093" lon="6.96844">
        <ele>1861.6</ele>
        <time>2022-02-25T10:28:27Z</time>
      </trkpt>
      <trkpt lat="44.81093" lon="6.96844">
        <ele>1861.6</ele>
        <time>2022-02-25T10:28:28Z</time>
      </trkpt>
      <trkpt lat="44.81093" lon="6.96844">
        <ele>1861.6</ele>
        <time>2022-02-25T10:28:29Z</time>
      </trkpt>
      <trkpt lat="44.81091" lon="6.96843">
        <ele>1861.8</ele>
        <time>2022-02-25T10:28:30Z</time>
      </trkpt>
      <trkpt lat="44.81091" lon="6.96843">
        <ele>1861.8</ele>
        <time>2022-02-25T10:28:31Z</time>
      </trkpt>
      <trkpt lat="44.81091" lon="6.96843">
        <ele>1861.8</ele>
        <time>2022-02-25T10:28:32Z</time>
      </trkpt>
      <trkpt lat="44.81089" lon="6.96842">
        <ele>1862.1</ele>
        <time>2022-02-25T10:28:33Z</time>
      </trkpt>
      <trkpt lat="44.81089" lon="6.96842">
        <ele>1862.1</ele>
        <time>2022-02-25T10:28:34Z</time>
      </trkpt>
      <trkpt lat="44.81089" lon="6.96842">
        <ele>1862.1</ele>
        <time>2022-02-25T10:28:35Z</time>
      </trkpt>
      <trkpt lat="44.81086" lon="6.96841">
        <ele>1862.4</ele>
        <time>2022-02-25T10:28:36Z</time>
      </trkpt>
      <trkpt lat="44.81086" lon="6.96841">
        <ele>1862.4</ele>
        <time>2022-02-25T10:28:37Z</time>
      </trkpt>
      <trkpt lat="44.81086" lon="6.96841">
        <ele>1862.4</ele>
        <time>2022-02-25T10:28:38Z</time>
      </trkpt>
      <trkpt lat="44.81084" lon="6.9684">
        <ele>1862.7</ele>
        <time>2022-02-25T10:28:39Z</time>
      </trkpt>
      <trkpt lat="44.81084" lon="6.9684">
        <ele>1862.7</ele>
        <time>2022-02-25T10:28:40Z</time>
      </trkpt>
      <trkpt lat="44.81084" lon="6.9684">
        <ele>1862.7</ele>
        <time>2022-02-25T10:28:41Z</time>
      </trkpt>
      <trkpt lat="44.81082" lon="6.9684">
        <ele>1862.9</ele>
        <time>2022-02-25T10:28:42Z</time>
      </trkpt>
      <trkpt lat="44.81082" lon="6.9684">
        <ele>1862.9</ele>
        <time>2022-02-25T10:28:43Z</time>
      </trkpt>
      <trkpt lat="44.81082" lon="6.9684">
        <ele>1862.9</ele>
        <time>2022-02-25T10:28:44Z</time>
      </trkpt>
      <trkpt lat="44.8108" lon="6.96839">
        <ele>1863</ele>
        <time>2022-02-25T10:28:45Z</time>
      </trkpt>
      <trkpt lat="44.8108" lon="6.96839">
        <ele>1863</ele>
        <time>2022-02-25T10:28:46Z</time>
      </trkpt>
      <trkpt lat="44.8108" lon="6.96839">
        <ele>1863</ele>
        <time>2022-02-25T10:28:47Z</time>
      </trkpt>
      <trkpt lat="44.81077" lon="6.96839">
        <ele>1863.3</ele>
        <time>2022-02-25T10:28:48Z</time>
      </trkpt>
      <trkpt lat="44.81077" lon="6.96839">
        <ele>1863.3</ele>
        <time>2022-02-25T10:28:49Z</time>
      </trkpt>
      <trkpt lat="44.81077" lon="6.96839">
        <ele>1863.3</ele>
        <time>2022-02-25T10:28:50Z</time>
      </trkpt>
      <trkpt lat="44.81075" lon="6.9684">
        <ele>1863.4</ele>
        <time>2022-02-25T10:28:51Z</time>
      </trkpt>
      <trkpt lat="44.81075" lon="6.9684">
        <ele>1863.4</ele>
        <time>2022-02-25T10:28:52Z</time>
      </trkpt>
      <trkpt lat="44.81073" lon="6.96839">
        <ele>1863.5</ele>
        <time>2022-02-25T10:28:53Z</time>
      </trkpt>
      <trkpt lat="44.81073" lon="6.96839">
        <ele>1863.5</ele>
        <time>2022-02-25T10:28:54Z</time>
      </trkpt>
      <trkpt lat="44.81073" lon="6.96839">
        <ele>1863.5</ele>
        <time>2022-02-25T10:28:55Z</time>
      </trkpt>
      <trkpt lat="44.8107" lon="6.96839">
        <ele>1863.8</ele>
        <time>2022-02-25T10:28:56Z</time>
      </trkpt>
      <trkpt lat="44.8107" lon="6.96839">
        <ele>1863.8</ele>
        <time>2022-02-25T10:28:57Z</time>
      </trkpt>
      <trkpt lat="44.8107" lon="6.96839">
        <ele>1863.8</ele>
        <time>2022-02-25T10:28:58Z</time>
      </trkpt>
      <trkpt lat="44.81068" lon="6.96841">
        <ele>1863.8</ele>
        <time>2022-02-25T10:28:59Z</time>
      </trkpt>
      <trkpt lat="44.81068" lon="6.96841">
        <ele>1863.8</ele>
        <time>2022-02-25T10:29:00Z</time>
      </trkpt>
      <trkpt lat="44.81066" lon="6.96841">
        <ele>1864</ele>
        <time>2022-02-25T10:29:01Z</time>
      </trkpt>
      <trkpt lat="44.81066" lon="6.96841">
        <ele>1864</ele>
        <time>2022-02-25T10:29:02Z</time>
      </trkpt>
      <trkpt lat="44.81066" lon="6.96841">
        <ele>1864</ele>
        <time>2022-02-25T10:29:03Z</time>
      </trkpt>
      <trkpt lat="44.81064" lon="6.96842">
        <ele>1864.1</ele>
        <time>2022-02-25T10:29:04Z</time>
      </trkpt>
      <trkpt lat="44.81064" lon="6.96842">
        <ele>1864.1</ele>
        <time>2022-02-25T10:29:05Z</time>
      </trkpt>
      <trkpt lat="44.81064" lon="6.96842">
        <ele>1864.1</ele>
        <time>2022-02-25T10:29:06Z</time>
      </trkpt>
      <trkpt lat="44.81061" lon="6.96843">
        <ele>1864.3</ele>
        <time>2022-02-25T10:29:07Z</time>
      </trkpt>
      <trkpt lat="44.81061" lon="6.96843">
        <ele>1864.3</ele>
        <time>2022-02-25T10:29:08Z</time>
      </trkpt>
      <trkpt lat="44.81059" lon="6.96844">
        <ele>1864.4</ele>
        <time>2022-02-25T10:29:09Z</time>
      </trkpt>
      <trkpt lat="44.81059" lon="6.96844">
        <ele>1864.4</ele>
        <time>2022-02-25T10:29:10Z</time>
      </trkpt>
      <trkpt lat="44.81057" lon="6.96845">
        <ele>1864.5</ele>
        <time>2022-02-25T10:29:11Z</time>
      </trkpt>
      <trkpt lat="44.81057" lon="6.96845">
        <ele>1864.5</ele>
        <time>2022-02-25T10:29:12Z</time>
      </trkpt>
      <trkpt lat="44.81057" lon="6.96845">
        <ele>1864.5</ele>
        <time>2022-02-25T10:29:13Z</time>
      </trkpt>
      <trkpt lat="44.81055" lon="6.96847">
        <ele>1864.5</ele>
        <time>2022-02-25T10:29:14Z</time>
      </trkpt>
      <trkpt lat="44.81055" lon="6.96847">
        <ele>1864.5</ele>
        <time>2022-02-25T10:29:15Z</time>
      </trkpt>
      <trkpt lat="44.81053" lon="6.96848">
        <ele>1864.7</ele>
        <time>2022-02-25T10:29:16Z</time>
      </trkpt>
      <trkpt lat="44.81053" lon="6.96848">
        <ele>1864.7</ele>
        <time>2022-02-25T10:29:17Z</time>
      </trkpt>
      <trkpt lat="44.81052" lon="6.96849">
        <ele>1864.7</ele>
        <time>2022-02-25T10:29:18Z</time>
      </trkpt>
      <trkpt lat="44.81052" lon="6.96849">
        <ele>1864.7</ele>
        <time>2022-02-25T10:29:19Z</time>
      </trkpt>
      <trkpt lat="44.81052" lon="6.96849">
        <ele>1864.7</ele>
        <time>2022-02-25T10:29:20Z</time>
      </trkpt>
      <trkpt lat="44.81049" lon="6.96851">
        <ele>1864.9</ele>
        <time>2022-02-25T10:29:21Z</time>
      </trkpt>
      <trkpt lat="44.81049" lon="6.96851">
        <ele>1864.9</ele>
        <time>2022-02-25T10:29:22Z</time>
      </trkpt>
      <trkpt lat="44.81048" lon="6.96852">
        <ele>1865</ele>
        <time>2022-02-25T10:29:23Z</time>
      </trkpt>
      <trkpt lat="44.81048" lon="6.96852">
        <ele>1865</ele>
        <time>2022-02-25T10:29:24Z</time>
      </trkpt>
      <trkpt lat="44.81048" lon="6.96852">
        <ele>1865</ele>
        <time>2022-02-25T10:29:25Z</time>
      </trkpt>
      <trkpt lat="44.81045" lon="6.96855">
        <ele>1865.2</ele>
        <time>2022-02-25T10:29:26Z</time>
      </trkpt>
      <trkpt lat="44.81045" lon="6.96855">
        <ele>1865.2</ele>
        <time>2022-02-25T10:29:27Z</time>
      </trkpt>
      <trkpt lat="44.81045" lon="6.96855">
        <ele>1865.2</ele>
        <time>2022-02-25T10:29:28Z</time>
      </trkpt>
      <trkpt lat="44.81043" lon="6.96857">
        <ele>1865.4</ele>
        <time>2022-02-25T10:29:29Z</time>
      </trkpt>
      <trkpt lat="44.81043" lon="6.96857">
        <ele>1865.4</ele>
        <time>2022-02-25T10:29:30Z</time>
      </trkpt>
      <trkpt lat="44.81043" lon="6.96857">
        <ele>1865.4</ele>
        <time>2022-02-25T10:29:31Z</time>
      </trkpt>
      <trkpt lat="44.81041" lon="6.96858">
        <ele>1865.6</ele>
        <time>2022-02-25T10:29:32Z</time>
      </trkpt>
      <trkpt lat="44.81041" lon="6.96858">
        <ele>1865.6</ele>
        <time>2022-02-25T10:29:33Z</time>
      </trkpt>
      <trkpt lat="44.81039" lon="6.9686">
        <ele>1865.8</ele>
        <time>2022-02-25T10:29:34Z</time>
      </trkpt>
      <trkpt lat="44.81039" lon="6.9686">
        <ele>1865.8</ele>
        <time>2022-02-25T10:29:35Z</time>
      </trkpt>
      <trkpt lat="44.81039" lon="6.9686">
        <ele>1865.8</ele>
        <time>2022-02-25T10:29:36Z</time>
      </trkpt>
      <trkpt lat="44.81037" lon="6.96862">
        <ele>1866</ele>
        <time>2022-02-25T10:29:37Z</time>
      </trkpt>
      <trkpt lat="44.81037" lon="6.96862">
        <ele>1866</ele>
        <time>2022-02-25T10:29:38Z</time>
      </trkpt>
      <trkpt lat="44.81037" lon="6.96862">
        <ele>1866</ele>
        <time>2022-02-25T10:29:39Z</time>
      </trkpt>
      <trkpt lat="44.81035" lon="6.96864">
        <ele>1866.2</ele>
        <time>2022-02-25T10:29:40Z</time>
      </trkpt>
      <trkpt lat="44.81035" lon="6.96864">
        <ele>1866.2</ele>
        <time>2022-02-25T10:29:41Z</time>
      </trkpt>
      <trkpt lat="44.81035" lon="6.96864">
        <ele>1866.2</ele>
        <time>2022-02-25T10:29:42Z</time>
      </trkpt>
      <trkpt lat="44.81033" lon="6.96865">
        <ele>1866.4</ele>
        <time>2022-02-25T10:29:43Z</time>
      </trkpt>
      <trkpt lat="44.81033" lon="6.96865">
        <ele>1866.4</ele>
        <time>2022-02-25T10:29:44Z</time>
      </trkpt>
      <trkpt lat="44.81031" lon="6.96867">
        <ele>1866.7</ele>
        <time>2022-02-25T10:29:45Z</time>
      </trkpt>
      <trkpt lat="44.81031" lon="6.96867">
        <ele>1866.7</ele>
        <time>2022-02-25T10:29:46Z</time>
      </trkpt>
      <trkpt lat="44.81029" lon="6.96868">
        <ele>1866.9</ele>
        <time>2022-02-25T10:29:47Z</time>
      </trkpt>
      <trkpt lat="44.81029" lon="6.96868">
        <ele>1866.9</ele>
        <time>2022-02-25T10:29:48Z</time>
      </trkpt>
      <trkpt lat="44.81029" lon="6.96868">
        <ele>1866.9</ele>
        <time>2022-02-25T10:29:49Z</time>
      </trkpt>
      <trkpt lat="44.81027" lon="6.96869">
        <ele>1867.1</ele>
        <time>2022-02-25T10:29:50Z</time>
      </trkpt>
      <trkpt lat="44.81027" lon="6.96869">
        <ele>1867.1</ele>
        <time>2022-02-25T10:29:51Z</time>
      </trkpt>
      <trkpt lat="44.81025" lon="6.9687">
        <ele>1867.2</ele>
        <time>2022-02-25T10:29:52Z</time>
      </trkpt>
      <trkpt lat="44.81025" lon="6.9687">
        <ele>1867.2</ele>
        <time>2022-02-25T10:29:53Z</time>
      </trkpt>
      <trkpt lat="44.81024" lon="6.96872">
        <ele>1867.3</ele>
        <time>2022-02-25T10:29:54Z</time>
      </trkpt>
      <trkpt lat="44.81024" lon="6.96872">
        <ele>1867.3</ele>
        <time>2022-02-25T10:29:55Z</time>
      </trkpt>
      <trkpt lat="44.81022" lon="6.96872">
        <ele>1867.5</ele>
        <time>2022-02-25T10:29:56Z</time>
      </trkpt>
      <trkpt lat="44.81022" lon="6.96872">
        <ele>1867.5</ele>
        <time>2022-02-25T10:29:57Z</time>
      </trkpt>
      <trkpt lat="44.81022" lon="6.96872">
        <ele>1867.5</ele>
        <time>2022-02-25T10:29:58Z</time>
      </trkpt>
      <trkpt lat="44.8102" lon="6.96873">
        <ele>1867.7</ele>
        <time>2022-02-25T10:29:59Z</time>
      </trkpt>
      <trkpt lat="44.8102" lon="6.96873">
        <ele>1867.7</ele>
        <time>2022-02-25T10:30:00Z</time>
      </trkpt>
      <trkpt lat="44.8102" lon="6.96873">
        <ele>1867.7</ele>
        <time>2022-02-25T10:30:01Z</time>
      </trkpt>
      <trkpt lat="44.81018" lon="6.96875">
        <ele>1867.9</ele>
        <time>2022-02-25T10:30:02Z</time>
      </trkpt>
      <trkpt lat="44.81018" lon="6.96875">
        <ele>1867.9</ele>
        <time>2022-02-25T10:30:03Z</time>
      </trkpt>
      <trkpt lat="44.81016" lon="6.96877">
        <ele>1868.1</ele>
        <time>2022-02-25T10:30:04Z</time>
      </trkpt>
      <trkpt lat="44.81016" lon="6.96877">
        <ele>1868.1</ele>
        <time>2022-02-25T10:30:05Z</time>
      </trkpt>
      <trkpt lat="44.81016" lon="6.96877">
        <ele>1868.1</ele>
        <time>2022-02-25T10:30:06Z</time>
      </trkpt>
      <trkpt lat="44.81014" lon="6.96879">
        <ele>1868.3</ele>
        <time>2022-02-25T10:30:07Z</time>
      </trkpt>
      <trkpt lat="44.81014" lon="6.96879">
        <ele>1868.3</ele>
        <time>2022-02-25T10:30:08Z</time>
      </trkpt>
      <trkpt lat="44.81013" lon="6.96881">
        <ele>1868.4</ele>
        <time>2022-02-25T10:30:09Z</time>
      </trkpt>
      <trkpt lat="44.81013" lon="6.96881">
        <ele>1868.4</ele>
        <time>2022-02-25T10:30:10Z</time>
      </trkpt>
      <trkpt lat="44.81012" lon="6.96883">
        <ele>1868.6</ele>
        <time>2022-02-25T10:30:11Z</time>
      </trkpt>
      <trkpt lat="44.81012" lon="6.96883">
        <ele>1868.6</ele>
        <time>2022-02-25T10:30:12Z</time>
      </trkpt>
      <trkpt lat="44.8101" lon="6.96885">
        <ele>1868.8</ele>
        <time>2022-02-25T10:30:13Z</time>
      </trkpt>
      <trkpt lat="44.8101" lon="6.96885">
        <ele>1868.8</ele>
        <time>2022-02-25T10:30:14Z</time>
      </trkpt>
      <trkpt lat="44.8101" lon="6.96885">
        <ele>1868.8</ele>
        <time>2022-02-25T10:30:15Z</time>
      </trkpt>
      <trkpt lat="44.81009" lon="6.96888">
        <ele>1869</ele>
        <time>2022-02-25T10:30:16Z</time>
      </trkpt>
      <trkpt lat="44.81009" lon="6.96888">
        <ele>1869</ele>
        <time>2022-02-25T10:30:17Z</time>
      </trkpt>
      <trkpt lat="44.81009" lon="6.96888">
        <ele>1869</ele>
        <time>2022-02-25T10:30:18Z</time>
      </trkpt>
      <trkpt lat="44.81007" lon="6.96891">
        <ele>1869.2</ele>
        <time>2022-02-25T10:30:19Z</time>
      </trkpt>
      <trkpt lat="44.81007" lon="6.96891">
        <ele>1869.2</ele>
        <time>2022-02-25T10:30:20Z</time>
      </trkpt>
      <trkpt lat="44.81007" lon="6.96891">
        <ele>1869.2</ele>
        <time>2022-02-25T10:30:21Z</time>
      </trkpt>
      <trkpt lat="44.81006" lon="6.96894">
        <ele>1869.4</ele>
        <time>2022-02-25T10:30:22Z</time>
      </trkpt>
      <trkpt lat="44.81006" lon="6.96894">
        <ele>1869.4</ele>
        <time>2022-02-25T10:30:23Z</time>
      </trkpt>
      <trkpt lat="44.81006" lon="6.96894">
        <ele>1869.4</ele>
        <time>2022-02-25T10:30:24Z</time>
      </trkpt>
      <trkpt lat="44.81004" lon="6.96897">
        <ele>1869.6</ele>
        <time>2022-02-25T10:30:25Z</time>
      </trkpt>
      <trkpt lat="44.81004" lon="6.96897">
        <ele>1869.6</ele>
        <time>2022-02-25T10:30:26Z</time>
      </trkpt>
      <trkpt lat="44.81002" lon="6.969">
        <ele>1869.8</ele>
        <time>2022-02-25T10:30:27Z</time>
      </trkpt>
      <trkpt lat="44.81002" lon="6.969">
        <ele>1869.8</ele>
        <time>2022-02-25T10:30:28Z</time>
      </trkpt>
      <trkpt lat="44.81002" lon="6.969">
        <ele>1869.8</ele>
        <time>2022-02-25T10:30:29Z</time>
      </trkpt>
      <trkpt lat="44.81001" lon="6.96903">
        <ele>1869.9</ele>
        <time>2022-02-25T10:30:30Z</time>
      </trkpt>
      <trkpt lat="44.81001" lon="6.96903">
        <ele>1869.9</ele>
        <time>2022-02-25T10:30:31Z</time>
      </trkpt>
      <trkpt lat="44.80999" lon="6.96905">
        <ele>1870.2</ele>
        <time>2022-02-25T10:30:32Z</time>
      </trkpt>
      <trkpt lat="44.80999" lon="6.96905">
        <ele>1870.2</ele>
        <time>2022-02-25T10:30:33Z</time>
      </trkpt>
      <trkpt lat="44.80999" lon="6.96907">
        <ele>1870.2</ele>
        <time>2022-02-25T10:30:34Z</time>
      </trkpt>
      <trkpt lat="44.80999" lon="6.96907">
        <ele>1870.2</ele>
        <time>2022-02-25T10:30:35Z</time>
      </trkpt>
      <trkpt lat="44.80999" lon="6.96907">
        <ele>1870.2</ele>
        <time>2022-02-25T10:30:36Z</time>
      </trkpt>
      <trkpt lat="44.80997" lon="6.9691">
        <ele>1870.5</ele>
        <time>2022-02-25T10:30:37Z</time>
      </trkpt>
      <trkpt lat="44.80997" lon="6.9691">
        <ele>1870.5</ele>
        <time>2022-02-25T10:30:38Z</time>
      </trkpt>
      <trkpt lat="44.80996" lon="6.96912">
        <ele>1870.7</ele>
        <time>2022-02-25T10:30:39Z</time>
      </trkpt>
      <trkpt lat="44.80996" lon="6.96912">
        <ele>1870.7</ele>
        <time>2022-02-25T10:30:40Z</time>
      </trkpt>
      <trkpt lat="44.80996" lon="6.96912">
        <ele>1870.7</ele>
        <time>2022-02-25T10:30:41Z</time>
      </trkpt>
      <trkpt lat="44.80995" lon="6.96915">
        <ele>1870.9</ele>
        <time>2022-02-25T10:30:42Z</time>
      </trkpt>
      <trkpt lat="44.80995" lon="6.96915">
        <ele>1870.9</ele>
        <time>2022-02-25T10:30:43Z</time>
      </trkpt>
      <trkpt lat="44.80993" lon="6.96917">
        <ele>1871.3</ele>
        <time>2022-02-25T10:30:44Z</time>
      </trkpt>
      <trkpt lat="44.80993" lon="6.96917">
        <ele>1871.3</ele>
        <time>2022-02-25T10:30:45Z</time>
      </trkpt>
      <trkpt lat="44.80993" lon="6.96917">
        <ele>1871.3</ele>
        <time>2022-02-25T10:30:46Z</time>
      </trkpt>
      <trkpt lat="44.80992" lon="6.96919">
        <ele>1871.6</ele>
        <time>2022-02-25T10:30:47Z</time>
      </trkpt>
      <trkpt lat="44.80992" lon="6.96919">
        <ele>1871.6</ele>
        <time>2022-02-25T10:30:48Z</time>
      </trkpt>
      <trkpt lat="44.80992" lon="6.96919">
        <ele>1871.6</ele>
        <time>2022-02-25T10:30:49Z</time>
      </trkpt>
      <trkpt lat="44.80991" lon="6.96922">
        <ele>1872</ele>
        <time>2022-02-25T10:30:50Z</time>
      </trkpt>
      <trkpt lat="44.80991" lon="6.96922">
        <ele>1872</ele>
        <time>2022-02-25T10:30:51Z</time>
      </trkpt>
      <trkpt lat="44.80991" lon="6.96922">
        <ele>1872</ele>
        <time>2022-02-25T10:30:52Z</time>
      </trkpt>
      <trkpt lat="44.8099" lon="6.96924">
        <ele>1872.3</ele>
        <time>2022-02-25T10:30:53Z</time>
      </trkpt>
      <trkpt lat="44.8099" lon="6.96924">
        <ele>1872.3</ele>
        <time>2022-02-25T10:30:54Z</time>
      </trkpt>
      <trkpt lat="44.80988" lon="6.96926">
        <ele>1872.8</ele>
        <time>2022-02-25T10:30:55Z</time>
      </trkpt>
      <trkpt lat="44.80988" lon="6.96926">
        <ele>1872.8</ele>
        <time>2022-02-25T10:30:56Z</time>
      </trkpt>
      <trkpt lat="44.80988" lon="6.96926">
        <ele>1872.8</ele>
        <time>2022-02-25T10:30:57Z</time>
      </trkpt>
      <trkpt lat="44.80987" lon="6.96929">
        <ele>1873.2</ele>
        <time>2022-02-25T10:30:58Z</time>
      </trkpt>
      <trkpt lat="44.80987" lon="6.96929">
        <ele>1873.2</ele>
        <time>2022-02-25T10:30:59Z</time>
      </trkpt>
      <trkpt lat="44.80987" lon="6.96929">
        <ele>1873.2</ele>
        <time>2022-02-25T10:31:00Z</time>
      </trkpt>
      <trkpt lat="44.80986" lon="6.96931">
        <ele>1873.6</ele>
        <time>2022-02-25T10:31:01Z</time>
      </trkpt>
      <trkpt lat="44.80986" lon="6.96931">
        <ele>1873.6</ele>
        <time>2022-02-25T10:31:02Z</time>
      </trkpt>
      <trkpt lat="44.80986" lon="6.96931">
        <ele>1873.6</ele>
        <time>2022-02-25T10:31:03Z</time>
      </trkpt>
      <trkpt lat="44.80984" lon="6.96933">
        <ele>1874.1</ele>
        <time>2022-02-25T10:31:04Z</time>
      </trkpt>
      <trkpt lat="44.80984" lon="6.96933">
        <ele>1874.1</ele>
        <time>2022-02-25T10:31:05Z</time>
      </trkpt>
      <trkpt lat="44.80984" lon="6.96933">
        <ele>1874.1</ele>
        <time>2022-02-25T10:31:06Z</time>
      </trkpt>
      <trkpt lat="44.80983" lon="6.96936">
        <ele>1874.5</ele>
        <time>2022-02-25T10:31:07Z</time>
      </trkpt>
      <trkpt lat="44.80983" lon="6.96936">
        <ele>1874.5</ele>
        <time>2022-02-25T10:31:08Z</time>
      </trkpt>
      <trkpt lat="44.80983" lon="6.96936">
        <ele>1874.5</ele>
        <time>2022-02-25T10:31:09Z</time>
      </trkpt>
      <trkpt lat="44.80981" lon="6.96938">
        <ele>1875</ele>
        <time>2022-02-25T10:31:10Z</time>
      </trkpt>
      <trkpt lat="44.80981" lon="6.96938">
        <ele>1875</ele>
        <time>2022-02-25T10:31:11Z</time>
      </trkpt>
      <trkpt lat="44.80981" lon="6.96938">
        <ele>1875</ele>
        <time>2022-02-25T10:31:12Z</time>
      </trkpt>
      <trkpt lat="44.80979" lon="6.96941">
        <ele>1875.5</ele>
        <time>2022-02-25T10:31:13Z</time>
      </trkpt>
      <trkpt lat="44.80979" lon="6.96941">
        <ele>1875.5</ele>
        <time>2022-02-25T10:31:14Z</time>
      </trkpt>
      <trkpt lat="44.80979" lon="6.96941">
        <ele>1875.5</ele>
        <time>2022-02-25T10:31:15Z</time>
      </trkpt>
      <trkpt lat="44.80978" lon="6.96943">
        <ele>1875.9</ele>
        <time>2022-02-25T10:31:16Z</time>
      </trkpt>
      <trkpt lat="44.80978" lon="6.96943">
        <ele>1875.9</ele>
        <time>2022-02-25T10:31:17Z</time>
      </trkpt>
      <trkpt lat="44.80978" lon="6.96943">
        <ele>1875.9</ele>
        <time>2022-02-25T10:31:18Z</time>
      </trkpt>
      <trkpt lat="44.80977" lon="6.96946">
        <ele>1876.2</ele>
        <time>2022-02-25T10:31:19Z</time>
      </trkpt>
      <trkpt lat="44.80977" lon="6.96946">
        <ele>1876.2</ele>
        <time>2022-02-25T10:31:20Z</time>
      </trkpt>
      <trkpt lat="44.80975" lon="6.96948">
        <ele>1876.6</ele>
        <time>2022-02-25T10:31:21Z</time>
      </trkpt>
      <trkpt lat="44.80975" lon="6.96948">
        <ele>1876.6</ele>
        <time>2022-02-25T10:31:22Z</time>
      </trkpt>
      <trkpt lat="44.80975" lon="6.96948">
        <ele>1876.6</ele>
        <time>2022-02-25T10:31:23Z</time>
      </trkpt>
      <trkpt lat="44.80974" lon="6.96951">
        <ele>1876.9</ele>
        <time>2022-02-25T10:31:24Z</time>
      </trkpt>
      <trkpt lat="44.80974" lon="6.96951">
        <ele>1876.9</ele>
        <time>2022-02-25T10:31:25Z</time>
      </trkpt>
      <trkpt lat="44.80974" lon="6.96951">
        <ele>1876.9</ele>
        <time>2022-02-25T10:31:26Z</time>
      </trkpt>
      <trkpt lat="44.80974" lon="6.96951">
        <ele>1876.9</ele>
        <time>2022-02-25T10:31:27Z</time>
      </trkpt>
      <trkpt lat="44.80973" lon="6.96954">
        <ele>1877.2</ele>
        <time>2022-02-25T10:31:28Z</time>
      </trkpt>
      <trkpt lat="44.80973" lon="6.96954">
        <ele>1877.2</ele>
        <time>2022-02-25T10:31:29Z</time>
      </trkpt>
      <trkpt lat="44.80973" lon="6.96954">
        <ele>1877.2</ele>
        <time>2022-02-25T10:31:30Z</time>
      </trkpt>
      <trkpt lat="44.80972" lon="6.96957">
        <ele>1877.5</ele>
        <time>2022-02-25T10:31:31Z</time>
      </trkpt>
      <trkpt lat="44.80972" lon="6.96957">
        <ele>1877.5</ele>
        <time>2022-02-25T10:31:32Z</time>
      </trkpt>
      <trkpt lat="44.80971" lon="6.96959">
        <ele>1877.9</ele>
        <time>2022-02-25T10:31:33Z</time>
      </trkpt>
      <trkpt lat="44.80971" lon="6.96959">
        <ele>1877.9</ele>
        <time>2022-02-25T10:31:34Z</time>
      </trkpt>
      <trkpt lat="44.8097" lon="6.96962">
        <ele>1878.2</ele>
        <time>2022-02-25T10:31:35Z</time>
      </trkpt>
      <trkpt lat="44.8097" lon="6.96962">
        <ele>1878.2</ele>
        <time>2022-02-25T10:31:36Z</time>
      </trkpt>
      <trkpt lat="44.8097" lon="6.96964">
        <ele>1878.3</ele>
        <time>2022-02-25T10:31:37Z</time>
      </trkpt>
      <trkpt lat="44.8097" lon="6.96964">
        <ele>1878.3</ele>
        <time>2022-02-25T10:31:38Z</time>
      </trkpt>
      <trkpt lat="44.80968" lon="6.96967">
        <ele>1878.9</ele>
        <time>2022-02-25T10:31:39Z</time>
      </trkpt>
      <trkpt lat="44.80968" lon="6.96967">
        <ele>1878.9</ele>
        <time>2022-02-25T10:31:40Z</time>
      </trkpt>
      <trkpt lat="44.80968" lon="6.96967">
        <ele>1878.9</ele>
        <time>2022-02-25T10:31:41Z</time>
      </trkpt>
      <trkpt lat="44.80967" lon="6.96969">
        <ele>1879.2</ele>
        <time>2022-02-25T10:31:42Z</time>
      </trkpt>
      <trkpt lat="44.80967" lon="6.96969">
        <ele>1879.2</ele>
        <time>2022-02-25T10:31:43Z</time>
      </trkpt>
      <trkpt lat="44.80967" lon="6.96969">
        <ele>1879.2</ele>
        <time>2022-02-25T10:31:44Z</time>
      </trkpt>
      <trkpt lat="44.80967" lon="6.96969">
        <ele>1879.2</ele>
        <time>2022-02-25T10:31:45Z</time>
      </trkpt>
      <trkpt lat="44.80968" lon="6.96972">
        <ele>1879.1</ele>
        <time>2022-02-25T10:31:46Z</time>
      </trkpt>
      <trkpt lat="44.80968" lon="6.96972">
        <ele>1879.1</ele>
        <time>2022-02-25T10:31:47Z</time>
      </trkpt>
      <trkpt lat="44.80968" lon="6.96972">
        <ele>1879.1</ele>
        <time>2022-02-25T10:31:48Z</time>
      </trkpt>
      <trkpt lat="44.80967" lon="6.96975">
        <ele>1879.4</ele>
        <time>2022-02-25T10:31:49Z</time>
      </trkpt>
      <trkpt lat="44.80967" lon="6.96975">
        <ele>1879.4</ele>
        <time>2022-02-25T10:31:50Z</time>
      </trkpt>
      <trkpt lat="44.80967" lon="6.96975">
        <ele>1879.4</ele>
        <time>2022-02-25T10:31:51Z</time>
      </trkpt>
      <trkpt lat="44.80966" lon="6.96977">
        <ele>1879.7</ele>
        <time>2022-02-25T10:31:52Z</time>
      </trkpt>
      <trkpt lat="44.80966" lon="6.96977">
        <ele>1879.7</ele>
        <time>2022-02-25T10:31:53Z</time>
      </trkpt>
      <trkpt lat="44.80964" lon="6.9698">
        <ele>1880.2</ele>
        <time>2022-02-25T10:31:54Z</time>
      </trkpt>
      <trkpt lat="44.80964" lon="6.9698">
        <ele>1880.2</ele>
        <time>2022-02-25T10:31:55Z</time>
      </trkpt>
      <trkpt lat="44.80963" lon="6.96984">
        <ele>1880.5</ele>
        <time>2022-02-25T10:31:56Z</time>
      </trkpt>
      <trkpt lat="44.80963" lon="6.96984">
        <ele>1880.5</ele>
        <time>2022-02-25T10:31:57Z</time>
      </trkpt>
      <trkpt lat="44.80962" lon="6.96985">
        <ele>1880.7</ele>
        <time>2022-02-25T10:31:58Z</time>
      </trkpt>
      <trkpt lat="44.80962" lon="6.96985">
        <ele>1880.7</ele>
        <time>2022-02-25T10:31:59Z</time>
      </trkpt>
      <trkpt lat="44.80962" lon="6.96985">
        <ele>1880.7</ele>
        <time>2022-02-25T10:32:00Z</time>
      </trkpt>
      <trkpt lat="44.80961" lon="6.96988">
        <ele>1880.9</ele>
        <time>2022-02-25T10:32:01Z</time>
      </trkpt>
      <trkpt lat="44.80961" lon="6.96988">
        <ele>1880.9</ele>
        <time>2022-02-25T10:32:02Z</time>
      </trkpt>
      <trkpt lat="44.8096" lon="6.9699">
        <ele>1881.2</ele>
        <time>2022-02-25T10:32:03Z</time>
      </trkpt>
      <trkpt lat="44.8096" lon="6.9699">
        <ele>1881.2</ele>
        <time>2022-02-25T10:32:04Z</time>
      </trkpt>
      <trkpt lat="44.80958" lon="6.96992">
        <ele>1881.6</ele>
        <time>2022-02-25T10:32:05Z</time>
      </trkpt>
      <trkpt lat="44.80958" lon="6.96992">
        <ele>1881.6</ele>
        <time>2022-02-25T10:32:06Z</time>
      </trkpt>
      <trkpt lat="44.80958" lon="6.96992">
        <ele>1881.6</ele>
        <time>2022-02-25T10:32:07Z</time>
      </trkpt>
      <trkpt lat="44.80956" lon="6.96995">
        <ele>1882</ele>
        <time>2022-02-25T10:32:08Z</time>
      </trkpt>
      <trkpt lat="44.80956" lon="6.96995">
        <ele>1882</ele>
        <time>2022-02-25T10:32:09Z</time>
      </trkpt>
      <trkpt lat="44.80956" lon="6.96995">
        <ele>1882</ele>
        <time>2022-02-25T10:32:10Z</time>
      </trkpt>
      <trkpt lat="44.80956" lon="6.96995">
        <ele>1882</ele>
        <time>2022-02-25T10:32:11Z</time>
      </trkpt>
      <trkpt lat="44.80956" lon="6.96995">
        <ele>1882</ele>
        <time>2022-02-25T10:32:12Z</time>
      </trkpt>
      <trkpt lat="44.80954" lon="6.96998">
        <ele>1882.3</ele>
        <time>2022-02-25T10:32:13Z</time>
      </trkpt>
      <trkpt lat="44.80954" lon="6.96998">
        <ele>1882.3</ele>
        <time>2022-02-25T10:32:14Z</time>
      </trkpt>
      <trkpt lat="44.80954" lon="6.96998">
        <ele>1882.3</ele>
        <time>2022-02-25T10:32:15Z</time>
      </trkpt>
      <trkpt lat="44.80953" lon="6.97">
        <ele>1882.5</ele>
        <time>2022-02-25T10:32:16Z</time>
      </trkpt>
      <trkpt lat="44.80953" lon="6.97">
        <ele>1882.5</ele>
        <time>2022-02-25T10:32:17Z</time>
      </trkpt>
      <trkpt lat="44.80952" lon="6.97002">
        <ele>1882.6</ele>
        <time>2022-02-25T10:32:18Z</time>
      </trkpt>
      <trkpt lat="44.80952" lon="6.97002">
        <ele>1882.6</ele>
        <time>2022-02-25T10:32:19Z</time>
      </trkpt>
      <trkpt lat="44.80952" lon="6.97002">
        <ele>1882.6</ele>
        <time>2022-02-25T10:32:20Z</time>
      </trkpt>
      <trkpt lat="44.80951" lon="6.97006">
        <ele>1882.8</ele>
        <time>2022-02-25T10:32:21Z</time>
      </trkpt>
      <trkpt lat="44.80951" lon="6.97006">
        <ele>1882.8</ele>
        <time>2022-02-25T10:32:22Z</time>
      </trkpt>
      <trkpt lat="44.8095" lon="6.97009">
        <ele>1882.9</ele>
        <time>2022-02-25T10:32:23Z</time>
      </trkpt>
      <trkpt lat="44.8095" lon="6.97009">
        <ele>1882.9</ele>
        <time>2022-02-25T10:32:24Z</time>
      </trkpt>
      <trkpt lat="44.80949" lon="6.97012">
        <ele>1883</ele>
        <time>2022-02-25T10:32:25Z</time>
      </trkpt>
      <trkpt lat="44.80949" lon="6.97012">
        <ele>1883</ele>
        <time>2022-02-25T10:32:26Z</time>
      </trkpt>
      <trkpt lat="44.80949" lon="6.97012">
        <ele>1883</ele>
        <time>2022-02-25T10:32:27Z</time>
      </trkpt>
      <trkpt lat="44.80949" lon="6.97012">
        <ele>1883</ele>
        <time>2022-02-25T10:32:28Z</time>
      </trkpt>
      <trkpt lat="44.80948" lon="6.97015">
        <ele>1883</ele>
        <time>2022-02-25T10:32:29Z</time>
      </trkpt>
      <trkpt lat="44.80948" lon="6.97015">
        <ele>1883</ele>
        <time>2022-02-25T10:32:30Z</time>
      </trkpt>
      <trkpt lat="44.80948" lon="6.97015">
        <ele>1883</ele>
        <time>2022-02-25T10:32:31Z</time>
      </trkpt>
      <trkpt lat="44.80946" lon="6.97016">
        <ele>1883.2</ele>
        <time>2022-02-25T10:32:32Z</time>
      </trkpt>
      <trkpt lat="44.80946" lon="6.97016">
        <ele>1883.2</ele>
        <time>2022-02-25T10:32:33Z</time>
      </trkpt>
      <trkpt lat="44.80946" lon="6.97016">
        <ele>1883.2</ele>
        <time>2022-02-25T10:32:34Z</time>
      </trkpt>
      <trkpt lat="44.80945" lon="6.97019">
        <ele>1883.3</ele>
        <time>2022-02-25T10:32:35Z</time>
      </trkpt>
      <trkpt lat="44.80945" lon="6.97019">
        <ele>1883.3</ele>
        <time>2022-02-25T10:32:36Z</time>
      </trkpt>
      <trkpt lat="44.80945" lon="6.97019">
        <ele>1883.3</ele>
        <time>2022-02-25T10:32:37Z</time>
      </trkpt>
      <trkpt lat="44.80945" lon="6.97019">
        <ele>1883.3</ele>
        <time>2022-02-25T10:32:38Z</time>
      </trkpt>
      <trkpt lat="44.80945" lon="6.97021">
        <ele>1883.2</ele>
        <time>2022-02-25T10:32:39Z</time>
      </trkpt>
      <trkpt lat="44.80945" lon="6.97021">
        <ele>1883.2</ele>
        <time>2022-02-25T10:32:40Z</time>
      </trkpt>
      <trkpt lat="44.80945" lon="6.97021">
        <ele>1883.2</ele>
        <time>2022-02-25T10:32:41Z</time>
      </trkpt>
      <trkpt lat="44.80943" lon="6.97023">
        <ele>1883.6</ele>
        <time>2022-02-25T10:32:42Z</time>
      </trkpt>
      <trkpt lat="44.80943" lon="6.97023">
        <ele>1883.6</ele>
        <time>2022-02-25T10:32:43Z</time>
      </trkpt>
      <trkpt lat="44.80943" lon="6.97023">
        <ele>1883.6</ele>
        <time>2022-02-25T10:32:44Z</time>
      </trkpt>
      <trkpt lat="44.80941" lon="6.97025">
        <ele>1884.1</ele>
        <time>2022-02-25T10:32:45Z</time>
      </trkpt>
      <trkpt lat="44.80941" lon="6.97025">
        <ele>1884.1</ele>
        <time>2022-02-25T10:32:46Z</time>
      </trkpt>
      <trkpt lat="44.8094" lon="6.97026">
        <ele>1884.4</ele>
        <time>2022-02-25T10:32:47Z</time>
      </trkpt>
      <trkpt lat="44.8094" lon="6.97026">
        <ele>1884.4</ele>
        <time>2022-02-25T10:32:48Z</time>
      </trkpt>
      <trkpt lat="44.8094" lon="6.97026">
        <ele>1884.4</ele>
        <time>2022-02-25T10:32:49Z</time>
      </trkpt>
      <trkpt lat="44.80938" lon="6.97027">
        <ele>1884.9</ele>
        <time>2022-02-25T10:32:50Z</time>
      </trkpt>
      <trkpt lat="44.80938" lon="6.97027">
        <ele>1884.9</ele>
        <time>2022-02-25T10:32:51Z</time>
      </trkpt>
      <trkpt lat="44.80938" lon="6.97027">
        <ele>1884.9</ele>
        <time>2022-02-25T10:32:52Z</time>
      </trkpt>
      <trkpt lat="44.80938" lon="6.97027">
        <ele>1884.9</ele>
        <time>2022-02-25T10:32:53Z</time>
      </trkpt>
      <trkpt lat="44.80936" lon="6.97029">
        <ele>1885.4</ele>
        <time>2022-02-25T10:32:54Z</time>
      </trkpt>
      <trkpt lat="44.80936" lon="6.97029">
        <ele>1885.4</ele>
        <time>2022-02-25T10:32:55Z</time>
      </trkpt>
      <trkpt lat="44.80936" lon="6.97029">
        <ele>1885.4</ele>
        <time>2022-02-25T10:32:56Z</time>
      </trkpt>
      <trkpt lat="44.80936" lon="6.97029">
        <ele>1885.4</ele>
        <time>2022-02-25T10:32:57Z</time>
      </trkpt>
      <trkpt lat="44.80934" lon="6.97029">
        <ele>1886</ele>
        <time>2022-02-25T10:32:58Z</time>
      </trkpt>
      <trkpt lat="44.80934" lon="6.97029">
        <ele>1886</ele>
        <time>2022-02-25T10:32:59Z</time>
      </trkpt>
      <trkpt lat="44.80932" lon="6.97029">
        <ele>1886.6</ele>
        <time>2022-02-25T10:33:00Z</time>
      </trkpt>
      <trkpt lat="44.80932" lon="6.97029">
        <ele>1886.6</ele>
        <time>2022-02-25T10:33:01Z</time>
      </trkpt>
      <trkpt lat="44.80932" lon="6.97029">
        <ele>1886.6</ele>
        <time>2022-02-25T10:33:02Z</time>
      </trkpt>
      <trkpt lat="44.8093" lon="6.97029">
        <ele>1887.2</ele>
        <time>2022-02-25T10:33:03Z</time>
      </trkpt>
      <trkpt lat="44.8093" lon="6.97029">
        <ele>1887.2</ele>
        <time>2022-02-25T10:33:04Z</time>
      </trkpt>
      <trkpt lat="44.8093" lon="6.97029">
        <ele>1887.2</ele>
        <time>2022-02-25T10:33:05Z</time>
      </trkpt>
      <trkpt lat="44.80928" lon="6.97029">
        <ele>1887.7</ele>
        <time>2022-02-25T10:33:06Z</time>
      </trkpt>
      <trkpt lat="44.80928" lon="6.97029">
        <ele>1887.7</ele>
        <time>2022-02-25T10:33:07Z</time>
      </trkpt>
      <trkpt lat="44.80928" lon="6.97029">
        <ele>1887.7</ele>
        <time>2022-02-25T10:33:08Z</time>
      </trkpt>
      <trkpt lat="44.80926" lon="6.9703">
        <ele>1888.3</ele>
        <time>2022-02-25T10:33:09Z</time>
      </trkpt>
      <trkpt lat="44.80926" lon="6.9703">
        <ele>1888.3</ele>
        <time>2022-02-25T10:33:10Z</time>
      </trkpt>
      <trkpt lat="44.80926" lon="6.9703">
        <ele>1888.3</ele>
        <time>2022-02-25T10:33:11Z</time>
      </trkpt>
      <trkpt lat="44.80925" lon="6.97033">
        <ele>1888.5</ele>
        <time>2022-02-25T10:33:12Z</time>
      </trkpt>
      <trkpt lat="44.80925" lon="6.97033">
        <ele>1888.5</ele>
        <time>2022-02-25T10:33:13Z</time>
      </trkpt>
      <trkpt lat="44.80925" lon="6.97033">
        <ele>1888.5</ele>
        <time>2022-02-25T10:33:14Z</time>
      </trkpt>
      <trkpt lat="44.80925" lon="6.97033">
        <ele>1888.5</ele>
        <time>2022-02-25T10:33:15Z</time>
      </trkpt>
      <trkpt lat="44.80925" lon="6.97033">
        <ele>1888.5</ele>
        <time>2022-02-25T10:33:16Z</time>
      </trkpt>
      <trkpt lat="44.80925" lon="6.97033">
        <ele>1888.5</ele>
        <time>2022-02-25T10:33:17Z</time>
      </trkpt>
      <trkpt lat="44.80925" lon="6.97033">
        <ele>1888.5</ele>
        <time>2022-02-25T10:33:18Z</time>
      </trkpt>
      <trkpt lat="44.80925" lon="6.97033">
        <ele>1888.5</ele>
        <time>2022-02-25T10:33:19Z</time>
      </trkpt>
      <trkpt lat="44.80925" lon="6.97033">
        <ele>1888.5</ele>
        <time>2022-02-25T10:33:20Z</time>
      </trkpt>
      <trkpt lat="44.80925" lon="6.97033">
        <ele>1888.5</ele>
        <time>2022-02-25T10:33:21Z</time>
      </trkpt>
      <trkpt lat="44.80924" lon="6.97035">
        <ele>1888.8</ele>
        <time>2022-02-25T10:33:22Z</time>
      </trkpt>
      <trkpt lat="44.80924" lon="6.97035">
        <ele>1888.8</ele>
        <time>2022-02-25T10:33:23Z</time>
      </trkpt>
      <trkpt lat="44.80922" lon="6.97037">
        <ele>1889.3</ele>
        <time>2022-02-25T10:33:24Z</time>
      </trkpt>
      <trkpt lat="44.80922" lon="6.97037">
        <ele>1889.3</ele>
        <time>2022-02-25T10:33:25Z</time>
      </trkpt>
      <trkpt lat="44.80922" lon="6.97037">
        <ele>1889.3</ele>
        <time>2022-02-25T10:33:26Z</time>
      </trkpt>
      <trkpt lat="44.8092" lon="6.97039">
        <ele>1889.7</ele>
        <time>2022-02-25T10:33:27Z</time>
      </trkpt>
      <trkpt lat="44.8092" lon="6.97039">
        <ele>1889.7</ele>
        <time>2022-02-25T10:33:28Z</time>
      </trkpt>
      <trkpt lat="44.8092" lon="6.97039">
        <ele>1889.7</ele>
        <time>2022-02-25T10:33:29Z</time>
      </trkpt>
      <trkpt lat="44.80918" lon="6.97041">
        <ele>1890.2</ele>
        <time>2022-02-25T10:33:30Z</time>
      </trkpt>
      <trkpt lat="44.80918" lon="6.97041">
        <ele>1890.2</ele>
        <time>2022-02-25T10:33:31Z</time>
      </trkpt>
      <trkpt lat="44.80918" lon="6.97041">
        <ele>1890.2</ele>
        <time>2022-02-25T10:33:32Z</time>
      </trkpt>
      <trkpt lat="44.80916" lon="6.97043">
        <ele>1890.7</ele>
        <time>2022-02-25T10:33:33Z</time>
      </trkpt>
      <trkpt lat="44.80916" lon="6.97043">
        <ele>1890.7</ele>
        <time>2022-02-25T10:33:34Z</time>
      </trkpt>
      <trkpt lat="44.80916" lon="6.97043">
        <ele>1890.7</ele>
        <time>2022-02-25T10:33:35Z</time>
      </trkpt>
      <trkpt lat="44.80916" lon="6.97043">
        <ele>1890.7</ele>
        <time>2022-02-25T10:33:36Z</time>
      </trkpt>
      <trkpt lat="44.80914" lon="6.97045">
        <ele>1891.4</ele>
        <time>2022-02-25T10:33:37Z</time>
      </trkpt>
      <trkpt lat="44.80914" lon="6.97045">
        <ele>1891.4</ele>
        <time>2022-02-25T10:33:38Z</time>
      </trkpt>
      <trkpt lat="44.80913" lon="6.97046">
        <ele>1891.7</ele>
        <time>2022-02-25T10:33:39Z</time>
      </trkpt>
      <trkpt lat="44.80913" lon="6.97046">
        <ele>1891.7</ele>
        <time>2022-02-25T10:33:40Z</time>
      </trkpt>
      <trkpt lat="44.80913" lon="6.97046">
        <ele>1891.7</ele>
        <time>2022-02-25T10:33:41Z</time>
      </trkpt>
      <trkpt lat="44.80913" lon="6.97046">
        <ele>1891.7</ele>
        <time>2022-02-25T10:33:42Z</time>
      </trkpt>
      <trkpt lat="44.80911" lon="6.97048">
        <ele>1892.3</ele>
        <time>2022-02-25T10:33:43Z</time>
      </trkpt>
      <trkpt lat="44.80911" lon="6.97048">
        <ele>1892.3</ele>
        <time>2022-02-25T10:33:44Z</time>
      </trkpt>
      <trkpt lat="44.80911" lon="6.97048">
        <ele>1892.3</ele>
        <time>2022-02-25T10:33:45Z</time>
      </trkpt>
      <trkpt lat="44.80911" lon="6.97048">
        <ele>1892.3</ele>
        <time>2022-02-25T10:33:46Z</time>
      </trkpt>
      <trkpt lat="44.8091" lon="6.9705">
        <ele>1892.5</ele>
        <time>2022-02-25T10:33:47Z</time>
      </trkpt>
      <trkpt lat="44.8091" lon="6.9705">
        <ele>1892.5</ele>
        <time>2022-02-25T10:33:48Z</time>
      </trkpt>
      <trkpt lat="44.80908" lon="6.97052">
        <ele>1893.1</ele>
        <time>2022-02-25T10:33:49Z</time>
      </trkpt>
      <trkpt lat="44.80908" lon="6.97052">
        <ele>1893.1</ele>
        <time>2022-02-25T10:33:50Z</time>
      </trkpt>
      <trkpt lat="44.80908" lon="6.97052">
        <ele>1893.1</ele>
        <time>2022-02-25T10:33:51Z</time>
      </trkpt>
      <trkpt lat="44.80907" lon="6.97053">
        <ele>1893.3</ele>
        <time>2022-02-25T10:33:52Z</time>
      </trkpt>
      <trkpt lat="44.80907" lon="6.97053">
        <ele>1893.3</ele>
        <time>2022-02-25T10:33:53Z</time>
      </trkpt>
      <trkpt lat="44.80907" lon="6.97053">
        <ele>1893.3</ele>
        <time>2022-02-25T10:33:54Z</time>
      </trkpt>
      <trkpt lat="44.80907" lon="6.97053">
        <ele>1893.3</ele>
        <time>2022-02-25T10:33:55Z</time>
      </trkpt>
      <trkpt lat="44.80905" lon="6.97054">
        <ele>1893.9</ele>
        <time>2022-02-25T10:33:56Z</time>
      </trkpt>
      <trkpt lat="44.80905" lon="6.97054">
        <ele>1893.9</ele>
        <time>2022-02-25T10:33:57Z</time>
      </trkpt>
      <trkpt lat="44.80905" lon="6.97054">
        <ele>1893.9</ele>
        <time>2022-02-25T10:33:58Z</time>
      </trkpt>
      <trkpt lat="44.80905" lon="6.97054">
        <ele>1893.9</ele>
        <time>2022-02-25T10:33:59Z</time>
      </trkpt>
      <trkpt lat="44.80902" lon="6.97057">
        <ele>1894.7</ele>
        <time>2022-02-25T10:34:00Z</time>
      </trkpt>
      <trkpt lat="44.80902" lon="6.97057">
        <ele>1894.7</ele>
        <time>2022-02-25T10:34:01Z</time>
      </trkpt>
      <trkpt lat="44.80902" lon="6.97057">
        <ele>1894.7</ele>
        <time>2022-02-25T10:34:02Z</time>
      </trkpt>
      <trkpt lat="44.80901" lon="6.97058">
        <ele>1894.9</ele>
        <time>2022-02-25T10:34:03Z</time>
      </trkpt>
      <trkpt lat="44.80901" lon="6.97058">
        <ele>1894.9</ele>
        <time>2022-02-25T10:34:04Z</time>
      </trkpt>
      <trkpt lat="44.80901" lon="6.97058">
        <ele>1894.9</ele>
        <time>2022-02-25T10:34:05Z</time>
      </trkpt>
      <trkpt lat="44.80901" lon="6.97058">
        <ele>1894.9</ele>
        <time>2022-02-25T10:34:06Z</time>
      </trkpt>
      <trkpt lat="44.80899" lon="6.9706">
        <ele>1895.4</ele>
        <time>2022-02-25T10:34:07Z</time>
      </trkpt>
      <trkpt lat="44.80899" lon="6.9706">
        <ele>1895.4</ele>
        <time>2022-02-25T10:34:08Z</time>
      </trkpt>
      <trkpt lat="44.80899" lon="6.9706">
        <ele>1895.4</ele>
        <time>2022-02-25T10:34:09Z</time>
      </trkpt>
      <trkpt lat="44.80899" lon="6.9706">
        <ele>1895.4</ele>
        <time>2022-02-25T10:34:10Z</time>
      </trkpt>
      <trkpt lat="44.80897" lon="6.97061">
        <ele>1896</ele>
        <time>2022-02-25T10:34:11Z</time>
      </trkpt>
      <trkpt lat="44.80897" lon="6.97061">
        <ele>1896</ele>
        <time>2022-02-25T10:34:12Z</time>
      </trkpt>
      <trkpt lat="44.80897" lon="6.97061">
        <ele>1896</ele>
        <time>2022-02-25T10:34:13Z</time>
      </trkpt>
      <trkpt lat="44.80897" lon="6.97061">
        <ele>1896</ele>
        <time>2022-02-25T10:34:14Z</time>
      </trkpt>
      <trkpt lat="44.80895" lon="6.97063">
        <ele>1896.4</ele>
        <time>2022-02-25T10:34:15Z</time>
      </trkpt>
      <trkpt lat="44.80895" lon="6.97063">
        <ele>1896.4</ele>
        <time>2022-02-25T10:34:16Z</time>
      </trkpt>
      <trkpt lat="44.80895" lon="6.97063">
        <ele>1896.4</ele>
        <time>2022-02-25T10:34:17Z</time>
      </trkpt>
      <trkpt lat="44.80893" lon="6.97065">
        <ele>1896.8</ele>
        <time>2022-02-25T10:34:18Z</time>
      </trkpt>
      <trkpt lat="44.80893" lon="6.97065">
        <ele>1896.8</ele>
        <time>2022-02-25T10:34:19Z</time>
      </trkpt>
      <trkpt lat="44.80893" lon="6.97065">
        <ele>1896.8</ele>
        <time>2022-02-25T10:34:20Z</time>
      </trkpt>
      <trkpt lat="44.80891" lon="6.97068">
        <ele>1897.1</ele>
        <time>2022-02-25T10:34:21Z</time>
      </trkpt>
      <trkpt lat="44.80891" lon="6.97068">
        <ele>1897.1</ele>
        <time>2022-02-25T10:34:22Z</time>
      </trkpt>
      <trkpt lat="44.80891" lon="6.97068">
        <ele>1897.1</ele>
        <time>2022-02-25T10:34:23Z</time>
      </trkpt>
      <trkpt lat="44.80891" lon="6.97068">
        <ele>1897.1</ele>
        <time>2022-02-25T10:34:24Z</time>
      </trkpt>
      <trkpt lat="44.80888" lon="6.97069">
        <ele>1897.8</ele>
        <time>2022-02-25T10:34:25Z</time>
      </trkpt>
      <trkpt lat="44.80888" lon="6.97069">
        <ele>1897.8</ele>
        <time>2022-02-25T10:34:26Z</time>
      </trkpt>
      <trkpt lat="44.80888" lon="6.97069">
        <ele>1897.8</ele>
        <time>2022-02-25T10:34:27Z</time>
      </trkpt>
      <trkpt lat="44.80886" lon="6.97069">
        <ele>1898.5</ele>
        <time>2022-02-25T10:34:28Z</time>
      </trkpt>
      <trkpt lat="44.80886" lon="6.97069">
        <ele>1898.5</ele>
        <time>2022-02-25T10:34:29Z</time>
      </trkpt>
      <trkpt lat="44.80886" lon="6.97069">
        <ele>1898.5</ele>
        <time>2022-02-25T10:34:30Z</time>
      </trkpt>
      <trkpt lat="44.80884" lon="6.9707">
        <ele>1899</ele>
        <time>2022-02-25T10:34:31Z</time>
      </trkpt>
      <trkpt lat="44.80884" lon="6.9707">
        <ele>1899</ele>
        <time>2022-02-25T10:34:32Z</time>
      </trkpt>
      <trkpt lat="44.80884" lon="6.9707">
        <ele>1899</ele>
        <time>2022-02-25T10:34:33Z</time>
      </trkpt>
      <trkpt lat="44.80882" lon="6.97069">
        <ele>1899.8</ele>
        <time>2022-02-25T10:34:34Z</time>
      </trkpt>
      <trkpt lat="44.80882" lon="6.97069">
        <ele>1899.8</ele>
        <time>2022-02-25T10:34:35Z</time>
      </trkpt>
      <trkpt lat="44.80882" lon="6.97069">
        <ele>1899.8</ele>
        <time>2022-02-25T10:34:36Z</time>
      </trkpt>
      <trkpt lat="44.8088" lon="6.9707">
        <ele>1900.3</ele>
        <time>2022-02-25T10:34:37Z</time>
      </trkpt>
      <trkpt lat="44.8088" lon="6.9707">
        <ele>1900.3</ele>
        <time>2022-02-25T10:34:38Z</time>
      </trkpt>
      <trkpt lat="44.8088" lon="6.9707">
        <ele>1900.3</ele>
        <time>2022-02-25T10:34:39Z</time>
      </trkpt>
      <trkpt lat="44.8088" lon="6.9707">
        <ele>1900.3</ele>
        <time>2022-02-25T10:34:40Z</time>
      </trkpt>
      <trkpt lat="44.80878" lon="6.97071">
        <ele>1900.8</ele>
        <time>2022-02-25T10:34:41Z</time>
      </trkpt>
      <trkpt lat="44.80878" lon="6.97071">
        <ele>1900.8</ele>
        <time>2022-02-25T10:34:42Z</time>
      </trkpt>
      <trkpt lat="44.80878" lon="6.97071">
        <ele>1900.8</ele>
        <time>2022-02-25T10:34:43Z</time>
      </trkpt>
      <trkpt lat="44.80876" lon="6.97072">
        <ele>1901.3</ele>
        <time>2022-02-25T10:34:44Z</time>
      </trkpt>
      <trkpt lat="44.80876" lon="6.97072">
        <ele>1901.3</ele>
        <time>2022-02-25T10:34:45Z</time>
      </trkpt>
      <trkpt lat="44.80876" lon="6.97072">
        <ele>1901.3</ele>
        <time>2022-02-25T10:34:46Z</time>
      </trkpt>
      <trkpt lat="44.80874" lon="6.97074">
        <ele>1901.7</ele>
        <time>2022-02-25T10:34:47Z</time>
      </trkpt>
      <trkpt lat="44.80874" lon="6.97074">
        <ele>1901.7</ele>
        <time>2022-02-25T10:34:48Z</time>
      </trkpt>
      <trkpt lat="44.80874" lon="6.97074">
        <ele>1901.7</ele>
        <time>2022-02-25T10:34:49Z</time>
      </trkpt>
      <trkpt lat="44.80874" lon="6.97074">
        <ele>1901.7</ele>
        <time>2022-02-25T10:34:50Z</time>
      </trkpt>
      <trkpt lat="44.80872" lon="6.97075">
        <ele>1902.1</ele>
        <time>2022-02-25T10:34:51Z</time>
      </trkpt>
      <trkpt lat="44.80872" lon="6.97075">
        <ele>1902.1</ele>
        <time>2022-02-25T10:34:52Z</time>
      </trkpt>
      <trkpt lat="44.80872" lon="6.97075">
        <ele>1902.1</ele>
        <time>2022-02-25T10:34:53Z</time>
      </trkpt>
      <trkpt lat="44.8087" lon="6.97076">
        <ele>1902.6</ele>
        <time>2022-02-25T10:34:54Z</time>
      </trkpt>
      <trkpt lat="44.8087" lon="6.97076">
        <ele>1902.6</ele>
        <time>2022-02-25T10:34:55Z</time>
      </trkpt>
      <trkpt lat="44.8087" lon="6.97076">
        <ele>1902.6</ele>
        <time>2022-02-25T10:34:56Z</time>
      </trkpt>
      <trkpt lat="44.8087" lon="6.97076">
        <ele>1902.6</ele>
        <time>2022-02-25T10:34:57Z</time>
      </trkpt>
      <trkpt lat="44.80868" lon="6.97079">
        <ele>1902.7</ele>
        <time>2022-02-25T10:34:58Z</time>
      </trkpt>
      <trkpt lat="44.80868" lon="6.97079">
        <ele>1902.7</ele>
        <time>2022-02-25T10:34:59Z</time>
      </trkpt>
      <trkpt lat="44.80868" lon="6.97079">
        <ele>1902.7</ele>
        <time>2022-02-25T10:35:00Z</time>
      </trkpt>
      <trkpt lat="44.80866" lon="6.9708">
        <ele>1903.1</ele>
        <time>2022-02-25T10:35:01Z</time>
      </trkpt>
      <trkpt lat="44.80866" lon="6.9708">
        <ele>1903.1</ele>
        <time>2022-02-25T10:35:02Z</time>
      </trkpt>
      <trkpt lat="44.80866" lon="6.9708">
        <ele>1903.1</ele>
        <time>2022-02-25T10:35:03Z</time>
      </trkpt>
      <trkpt lat="44.80864" lon="6.97082">
        <ele>1903.4</ele>
        <time>2022-02-25T10:35:04Z</time>
      </trkpt>
      <trkpt lat="44.80864" lon="6.97082">
        <ele>1903.4</ele>
        <time>2022-02-25T10:35:05Z</time>
      </trkpt>
      <trkpt lat="44.80864" lon="6.97082">
        <ele>1903.4</ele>
        <time>2022-02-25T10:35:06Z</time>
      </trkpt>
      <trkpt lat="44.80863" lon="6.97084">
        <ele>1903.4</ele>
        <time>2022-02-25T10:35:07Z</time>
      </trkpt>
      <trkpt lat="44.80863" lon="6.97084">
        <ele>1903.4</ele>
        <time>2022-02-25T10:35:08Z</time>
      </trkpt>
      <trkpt lat="44.80863" lon="6.97084">
        <ele>1903.4</ele>
        <time>2022-02-25T10:35:09Z</time>
      </trkpt>
      <trkpt lat="44.80861" lon="6.97087">
        <ele>1903.6</ele>
        <time>2022-02-25T10:35:10Z</time>
      </trkpt>
      <trkpt lat="44.80861" lon="6.97087">
        <ele>1903.6</ele>
        <time>2022-02-25T10:35:11Z</time>
      </trkpt>
      <trkpt lat="44.80859" lon="6.97089">
        <ele>1903.9</ele>
        <time>2022-02-25T10:35:12Z</time>
      </trkpt>
      <trkpt lat="44.80859" lon="6.97089">
        <ele>1903.9</ele>
        <time>2022-02-25T10:35:13Z</time>
      </trkpt>
      <trkpt lat="44.80856" lon="6.97091">
        <ele>1904.4</ele>
        <time>2022-02-25T10:35:14Z</time>
      </trkpt>
      <trkpt lat="44.80856" lon="6.97091">
        <ele>1904.4</ele>
        <time>2022-02-25T10:35:15Z</time>
      </trkpt>
      <trkpt lat="44.80856" lon="6.97091">
        <ele>1904.4</ele>
        <time>2022-02-25T10:35:16Z</time>
      </trkpt>
      <trkpt lat="44.80854" lon="6.97092">
        <ele>1904.8</ele>
        <time>2022-02-25T10:35:17Z</time>
      </trkpt>
      <trkpt lat="44.80854" lon="6.97092">
        <ele>1904.8</ele>
        <time>2022-02-25T10:35:18Z</time>
      </trkpt>
      <trkpt lat="44.80854" lon="6.97092">
        <ele>1904.8</ele>
        <time>2022-02-25T10:35:19Z</time>
      </trkpt>
      <trkpt lat="44.80854" lon="6.97092">
        <ele>1904.8</ele>
        <time>2022-02-25T10:35:20Z</time>
      </trkpt>
      <trkpt lat="44.80852" lon="6.97095">
        <ele>1904.9</ele>
        <time>2022-02-25T10:35:21Z</time>
      </trkpt>
      <trkpt lat="44.80852" lon="6.97095">
        <ele>1904.9</ele>
        <time>2022-02-25T10:35:22Z</time>
      </trkpt>
      <trkpt lat="44.80852" lon="6.97095">
        <ele>1904.9</ele>
        <time>2022-02-25T10:35:23Z</time>
      </trkpt>
      <trkpt lat="44.8085" lon="6.97097">
        <ele>1905.1</ele>
        <time>2022-02-25T10:35:24Z</time>
      </trkpt>
      <trkpt lat="44.8085" lon="6.97097">
        <ele>1905.1</ele>
        <time>2022-02-25T10:35:25Z</time>
      </trkpt>
      <trkpt lat="44.80849" lon="6.97098">
        <ele>1905.2</ele>
        <time>2022-02-25T10:35:26Z</time>
      </trkpt>
      <trkpt lat="44.80849" lon="6.97098">
        <ele>1905.2</ele>
        <time>2022-02-25T10:35:27Z</time>
      </trkpt>
      <trkpt lat="44.80847" lon="6.971">
        <ele>1905.5</ele>
        <time>2022-02-25T10:35:28Z</time>
      </trkpt>
      <trkpt lat="44.80847" lon="6.971">
        <ele>1905.5</ele>
        <time>2022-02-25T10:35:29Z</time>
      </trkpt>
      <trkpt lat="44.80847" lon="6.971">
        <ele>1905.5</ele>
        <time>2022-02-25T10:35:30Z</time>
      </trkpt>
      <trkpt lat="44.80845" lon="6.97101">
        <ele>1905.8</ele>
        <time>2022-02-25T10:35:31Z</time>
      </trkpt>
      <trkpt lat="44.80845" lon="6.97101">
        <ele>1905.8</ele>
        <time>2022-02-25T10:35:32Z</time>
      </trkpt>
      <trkpt lat="44.80845" lon="6.97101">
        <ele>1905.8</ele>
        <time>2022-02-25T10:35:33Z</time>
      </trkpt>
      <trkpt lat="44.80843" lon="6.97103">
        <ele>1906</ele>
        <time>2022-02-25T10:35:34Z</time>
      </trkpt>
      <trkpt lat="44.80843" lon="6.97103">
        <ele>1906</ele>
        <time>2022-02-25T10:35:35Z</time>
      </trkpt>
      <trkpt lat="44.80843" lon="6.97103">
        <ele>1906</ele>
        <time>2022-02-25T10:35:36Z</time>
      </trkpt>
      <trkpt lat="44.80841" lon="6.97104">
        <ele>1906.3</ele>
        <time>2022-02-25T10:35:37Z</time>
      </trkpt>
      <trkpt lat="44.80841" lon="6.97104">
        <ele>1906.3</ele>
        <time>2022-02-25T10:35:38Z</time>
      </trkpt>
      <trkpt lat="44.80841" lon="6.97104">
        <ele>1906.3</ele>
        <time>2022-02-25T10:35:39Z</time>
      </trkpt>
      <trkpt lat="44.80839" lon="6.97107">
        <ele>1906.3</ele>
        <time>2022-02-25T10:35:40Z</time>
      </trkpt>
      <trkpt lat="44.80839" lon="6.97107">
        <ele>1906.3</ele>
        <time>2022-02-25T10:35:41Z</time>
      </trkpt>
      <trkpt lat="44.80839" lon="6.97107">
        <ele>1906.3</ele>
        <time>2022-02-25T10:35:42Z</time>
      </trkpt>
      <trkpt lat="44.80837" lon="6.97109">
        <ele>1906.5</ele>
        <time>2022-02-25T10:35:43Z</time>
      </trkpt>
      <trkpt lat="44.80837" lon="6.97109">
        <ele>1906.5</ele>
        <time>2022-02-25T10:35:44Z</time>
      </trkpt>
      <trkpt lat="44.80835" lon="6.9711">
        <ele>1906.8</ele>
        <time>2022-02-25T10:35:45Z</time>
      </trkpt>
      <trkpt lat="44.80835" lon="6.9711">
        <ele>1906.8</ele>
        <time>2022-02-25T10:35:46Z</time>
      </trkpt>
      <trkpt lat="44.80835" lon="6.9711">
        <ele>1906.8</ele>
        <time>2022-02-25T10:35:47Z</time>
      </trkpt>
      <trkpt lat="44.80835" lon="6.9711">
        <ele>1906.8</ele>
        <time>2022-02-25T10:35:48Z</time>
      </trkpt>
      <trkpt lat="44.80833" lon="6.97111">
        <ele>1907.1</ele>
        <time>2022-02-25T10:35:49Z</time>
      </trkpt>
      <trkpt lat="44.80833" lon="6.97111">
        <ele>1907.1</ele>
        <time>2022-02-25T10:35:50Z</time>
      </trkpt>
      <trkpt lat="44.80831" lon="6.97113">
        <ele>1907.2</ele>
        <time>2022-02-25T10:35:51Z</time>
      </trkpt>
      <trkpt lat="44.80831" lon="6.97113">
        <ele>1907.2</ele>
        <time>2022-02-25T10:35:52Z</time>
      </trkpt>
      <trkpt lat="44.80831" lon="6.97113">
        <ele>1907.2</ele>
        <time>2022-02-25T10:35:53Z</time>
      </trkpt>
      <trkpt lat="44.80829" lon="6.97113">
        <ele>1907.5</ele>
        <time>2022-02-25T10:35:54Z</time>
      </trkpt>
      <trkpt lat="44.80829" lon="6.97113">
        <ele>1907.5</ele>
        <time>2022-02-25T10:35:55Z</time>
      </trkpt>
      <trkpt lat="44.80827" lon="6.97114">
        <ele>1907.7</ele>
        <time>2022-02-25T10:35:56Z</time>
      </trkpt>
      <trkpt lat="44.80827" lon="6.97114">
        <ele>1907.7</ele>
        <time>2022-02-25T10:35:57Z</time>
      </trkpt>
      <trkpt lat="44.80825" lon="6.97116">
        <ele>1907.8</ele>
        <time>2022-02-25T10:35:58Z</time>
      </trkpt>
      <trkpt lat="44.80825" lon="6.97116">
        <ele>1907.8</ele>
        <time>2022-02-25T10:35:59Z</time>
      </trkpt>
      <trkpt lat="44.80824" lon="6.97118">
        <ele>1907.8</ele>
        <time>2022-02-25T10:36:00Z</time>
      </trkpt>
      <trkpt lat="44.80824" lon="6.97118">
        <ele>1907.8</ele>
        <time>2022-02-25T10:36:01Z</time>
      </trkpt>
      <trkpt lat="44.80823" lon="6.9712">
        <ele>1907.7</ele>
        <time>2022-02-25T10:36:02Z</time>
      </trkpt>
      <trkpt lat="44.80823" lon="6.9712">
        <ele>1907.7</ele>
        <time>2022-02-25T10:36:03Z</time>
      </trkpt>
      <trkpt lat="44.80821" lon="6.97121">
        <ele>1907.9</ele>
        <time>2022-02-25T10:36:04Z</time>
      </trkpt>
      <trkpt lat="44.80821" lon="6.97121">
        <ele>1907.9</ele>
        <time>2022-02-25T10:36:05Z</time>
      </trkpt>
      <trkpt lat="44.80819" lon="6.97123">
        <ele>1908</ele>
        <time>2022-02-25T10:36:06Z</time>
      </trkpt>
      <trkpt lat="44.80819" lon="6.97123">
        <ele>1908</ele>
        <time>2022-02-25T10:36:07Z</time>
      </trkpt>
      <trkpt lat="44.80819" lon="6.97123">
        <ele>1908</ele>
        <time>2022-02-25T10:36:08Z</time>
      </trkpt>
      <trkpt lat="44.80817" lon="6.97124">
        <ele>1908.2</ele>
        <time>2022-02-25T10:36:09Z</time>
      </trkpt>
      <trkpt lat="44.80817" lon="6.97124">
        <ele>1908.2</ele>
        <time>2022-02-25T10:36:10Z</time>
      </trkpt>
      <trkpt lat="44.80817" lon="6.97124">
        <ele>1908.2</ele>
        <time>2022-02-25T10:36:11Z</time>
      </trkpt>
      <trkpt lat="44.80815" lon="6.97126">
        <ele>1908.2</ele>
        <time>2022-02-25T10:36:12Z</time>
      </trkpt>
      <trkpt lat="44.80815" lon="6.97126">
        <ele>1908.2</ele>
        <time>2022-02-25T10:36:13Z</time>
      </trkpt>
      <trkpt lat="44.80815" lon="6.97126">
        <ele>1908.2</ele>
        <time>2022-02-25T10:36:14Z</time>
      </trkpt>
      <trkpt lat="44.80813" lon="6.97127">
        <ele>1908.4</ele>
        <time>2022-02-25T10:36:15Z</time>
      </trkpt>
      <trkpt lat="44.80813" lon="6.97127">
        <ele>1908.4</ele>
        <time>2022-02-25T10:36:16Z</time>
      </trkpt>
      <trkpt lat="44.80813" lon="6.97127">
        <ele>1908.4</ele>
        <time>2022-02-25T10:36:17Z</time>
      </trkpt>
      <trkpt lat="44.8081" lon="6.97128">
        <ele>1908.6</ele>
        <time>2022-02-25T10:36:18Z</time>
      </trkpt>
      <trkpt lat="44.8081" lon="6.97128">
        <ele>1908.6</ele>
        <time>2022-02-25T10:36:19Z</time>
      </trkpt>
      <trkpt lat="44.8081" lon="6.97128">
        <ele>1908.6</ele>
        <time>2022-02-25T10:36:20Z</time>
      </trkpt>
      <trkpt lat="44.80808" lon="6.97128">
        <ele>1908.9</ele>
        <time>2022-02-25T10:36:21Z</time>
      </trkpt>
      <trkpt lat="44.80808" lon="6.97128">
        <ele>1908.9</ele>
        <time>2022-02-25T10:36:22Z</time>
      </trkpt>
      <trkpt lat="44.80808" lon="6.97128">
        <ele>1908.9</ele>
        <time>2022-02-25T10:36:23Z</time>
      </trkpt>
      <trkpt lat="44.80806" lon="6.97127">
        <ele>1909.2</ele>
        <time>2022-02-25T10:36:24Z</time>
      </trkpt>
      <trkpt lat="44.80806" lon="6.97127">
        <ele>1909.2</ele>
        <time>2022-02-25T10:36:25Z</time>
      </trkpt>
      <trkpt lat="44.80806" lon="6.97127">
        <ele>1909.2</ele>
        <time>2022-02-25T10:36:26Z</time>
      </trkpt>
      <trkpt lat="44.80806" lon="6.97127">
        <ele>1909.2</ele>
        <time>2022-02-25T10:36:27Z</time>
      </trkpt>
      <trkpt lat="44.80804" lon="6.97127">
        <ele>1909.5</ele>
        <time>2022-02-25T10:36:28Z</time>
      </trkpt>
      <trkpt lat="44.80804" lon="6.97127">
        <ele>1909.5</ele>
        <time>2022-02-25T10:36:29Z</time>
      </trkpt>
      <trkpt lat="44.80802" lon="6.97127">
        <ele>1909.7</ele>
        <time>2022-02-25T10:36:30Z</time>
      </trkpt>
      <trkpt lat="44.80802" lon="6.97127">
        <ele>1909.7</ele>
        <time>2022-02-25T10:36:31Z</time>
      </trkpt>
      <trkpt lat="44.80802" lon="6.97127">
        <ele>1909.7</ele>
        <time>2022-02-25T10:36:32Z</time>
      </trkpt>
      <trkpt lat="44.80801" lon="6.97125">
        <ele>1910.1</ele>
        <time>2022-02-25T10:36:33Z</time>
      </trkpt>
      <trkpt lat="44.80801" lon="6.97125">
        <ele>1910.1</ele>
        <time>2022-02-25T10:36:34Z</time>
      </trkpt>
      <trkpt lat="44.80801" lon="6.97125">
        <ele>1910.1</ele>
        <time>2022-02-25T10:36:35Z</time>
      </trkpt>
      <trkpt lat="44.80799" lon="6.97123">
        <ele>1910.5</ele>
        <time>2022-02-25T10:36:36Z</time>
      </trkpt>
      <trkpt lat="44.80799" lon="6.97123">
        <ele>1910.5</ele>
        <time>2022-02-25T10:36:37Z</time>
      </trkpt>
      <trkpt lat="44.80799" lon="6.97123">
        <ele>1910.5</ele>
        <time>2022-02-25T10:36:38Z</time>
      </trkpt>
      <trkpt lat="44.80799" lon="6.97123">
        <ele>1910.5</ele>
        <time>2022-02-25T10:36:39Z</time>
      </trkpt>
      <trkpt lat="44.80797" lon="6.97123">
        <ele>1910.8</ele>
        <time>2022-02-25T10:36:40Z</time>
      </trkpt>
      <trkpt lat="44.80797" lon="6.97123">
        <ele>1910.8</ele>
        <time>2022-02-25T10:36:41Z</time>
      </trkpt>
      <trkpt lat="44.80797" lon="6.97123">
        <ele>1910.8</ele>
        <time>2022-02-25T10:36:42Z</time>
      </trkpt>
      <trkpt lat="44.80797" lon="6.97123">
        <ele>1910.8</ele>
        <time>2022-02-25T10:36:43Z</time>
      </trkpt>
      <trkpt lat="44.80797" lon="6.97123">
        <ele>1910.8</ele>
        <time>2022-02-25T10:36:44Z</time>
      </trkpt>
      <trkpt lat="44.80795" lon="6.97122">
        <ele>1911.1</ele>
        <time>2022-02-25T10:36:45Z</time>
      </trkpt>
      <trkpt lat="44.80795" lon="6.97122">
        <ele>1911.1</ele>
        <time>2022-02-25T10:36:46Z</time>
      </trkpt>
      <trkpt lat="44.80795" lon="6.97122">
        <ele>1911.1</ele>
        <time>2022-02-25T10:36:47Z</time>
      </trkpt>
      <trkpt lat="44.80795" lon="6.97122">
        <ele>1911.1</ele>
        <time>2022-02-25T10:36:48Z</time>
      </trkpt>
      <trkpt lat="44.80793" lon="6.97121">
        <ele>1911.4</ele>
        <time>2022-02-25T10:36:49Z</time>
      </trkpt>
      <trkpt lat="44.80793" lon="6.97121">
        <ele>1911.4</ele>
        <time>2022-02-25T10:36:50Z</time>
      </trkpt>
      <trkpt lat="44.80793" lon="6.97121">
        <ele>1911.4</ele>
        <time>2022-02-25T10:36:51Z</time>
      </trkpt>
      <trkpt lat="44.80793" lon="6.97121">
        <ele>1911.4</ele>
        <time>2022-02-25T10:36:52Z</time>
      </trkpt>
      <trkpt lat="44.80793" lon="6.97121">
        <ele>1911.4</ele>
        <time>2022-02-25T10:36:53Z</time>
      </trkpt>
      <trkpt lat="44.8079" lon="6.97121">
        <ele>1911.8</ele>
        <time>2022-02-25T10:36:54Z</time>
      </trkpt>
      <trkpt lat="44.8079" lon="6.97121">
        <ele>1911.8</ele>
        <time>2022-02-25T10:36:55Z</time>
      </trkpt>
      <trkpt lat="44.8079" lon="6.97121">
        <ele>1911.8</ele>
        <time>2022-02-25T10:36:56Z</time>
      </trkpt>
      <trkpt lat="44.8079" lon="6.97121">
        <ele>1911.8</ele>
        <time>2022-02-25T10:36:57Z</time>
      </trkpt>
      <trkpt lat="44.80789" lon="6.9712">
        <ele>1912</ele>
        <time>2022-02-25T10:36:58Z</time>
      </trkpt>
      <trkpt lat="44.80789" lon="6.9712">
        <ele>1912</ele>
        <time>2022-02-25T10:36:59Z</time>
      </trkpt>
      <trkpt lat="44.80789" lon="6.9712">
        <ele>1912</ele>
        <time>2022-02-25T10:37:00Z</time>
      </trkpt>
      <trkpt lat="44.80787" lon="6.97119">
        <ele>1912.3</ele>
        <time>2022-02-25T10:37:01Z</time>
      </trkpt>
      <trkpt lat="44.80787" lon="6.97119">
        <ele>1912.3</ele>
        <time>2022-02-25T10:37:02Z</time>
      </trkpt>
      <trkpt lat="44.80787" lon="6.97119">
        <ele>1912.3</ele>
        <time>2022-02-25T10:37:03Z</time>
      </trkpt>
      <trkpt lat="44.80787" lon="6.97119">
        <ele>1912.3</ele>
        <time>2022-02-25T10:37:04Z</time>
      </trkpt>
      <trkpt lat="44.80785" lon="6.97118">
        <ele>1912.7</ele>
        <time>2022-02-25T10:37:05Z</time>
      </trkpt>
      <trkpt lat="44.80785" lon="6.97118">
        <ele>1912.7</ele>
        <time>2022-02-25T10:37:06Z</time>
      </trkpt>
      <trkpt lat="44.80785" lon="6.97118">
        <ele>1912.7</ele>
        <time>2022-02-25T10:37:07Z</time>
      </trkpt>
      <trkpt lat="44.80785" lon="6.97118">
        <ele>1912.7</ele>
        <time>2022-02-25T10:37:08Z</time>
      </trkpt>
      <trkpt lat="44.80783" lon="6.97117">
        <ele>1913</ele>
        <time>2022-02-25T10:37:09Z</time>
      </trkpt>
      <trkpt lat="44.80783" lon="6.97117">
        <ele>1913</ele>
        <time>2022-02-25T10:37:10Z</time>
      </trkpt>
      <trkpt lat="44.80783" lon="6.97117">
        <ele>1913</ele>
        <time>2022-02-25T10:37:11Z</time>
      </trkpt>
      <trkpt lat="44.80783" lon="6.97117">
        <ele>1913</ele>
        <time>2022-02-25T10:37:12Z</time>
      </trkpt>
      <trkpt lat="44.80783" lon="6.97117">
        <ele>1913</ele>
        <time>2022-02-25T10:37:13Z</time>
      </trkpt>
      <trkpt lat="44.80781" lon="6.97116">
        <ele>1913.3</ele>
        <time>2022-02-25T10:37:14Z</time>
      </trkpt>
      <trkpt lat="44.80781" lon="6.97116">
        <ele>1913.3</ele>
        <time>2022-02-25T10:37:15Z</time>
      </trkpt>
      <trkpt lat="44.80781" lon="6.97116">
        <ele>1913.3</ele>
        <time>2022-02-25T10:37:16Z</time>
      </trkpt>
      <trkpt lat="44.80781" lon="6.97116">
        <ele>1913.3</ele>
        <time>2022-02-25T10:37:17Z</time>
      </trkpt>
      <trkpt lat="44.8078" lon="6.97116">
        <ele>1913.4</ele>
        <time>2022-02-25T10:37:18Z</time>
      </trkpt>
      <trkpt lat="44.8078" lon="6.97116">
        <ele>1913.4</ele>
        <time>2022-02-25T10:37:19Z</time>
      </trkpt>
      <trkpt lat="44.8078" lon="6.97116">
        <ele>1913.4</ele>
        <time>2022-02-25T10:37:20Z</time>
      </trkpt>
      <trkpt lat="44.80778" lon="6.97116">
        <ele>1913.6</ele>
        <time>2022-02-25T10:37:21Z</time>
      </trkpt>
      <trkpt lat="44.80778" lon="6.97116">
        <ele>1913.6</ele>
        <time>2022-02-25T10:37:22Z</time>
      </trkpt>
      <trkpt lat="44.80778" lon="6.97116">
        <ele>1913.6</ele>
        <time>2022-02-25T10:37:23Z</time>
      </trkpt>
      <trkpt lat="44.80775" lon="6.97116">
        <ele>1914</ele>
        <time>2022-02-25T10:37:24Z</time>
      </trkpt>
      <trkpt lat="44.80775" lon="6.97116">
        <ele>1914</ele>
        <time>2022-02-25T10:37:25Z</time>
      </trkpt>
      <trkpt lat="44.80775" lon="6.97116">
        <ele>1914</ele>
        <time>2022-02-25T10:37:26Z</time>
      </trkpt>
      <trkpt lat="44.80773" lon="6.97117">
        <ele>1914.2</ele>
        <time>2022-02-25T10:37:27Z</time>
      </trkpt>
      <trkpt lat="44.80773" lon="6.97117">
        <ele>1914.2</ele>
        <time>2022-02-25T10:37:28Z</time>
      </trkpt>
      <trkpt lat="44.80773" lon="6.97117">
        <ele>1914.2</ele>
        <time>2022-02-25T10:37:29Z</time>
      </trkpt>
      <trkpt lat="44.80773" lon="6.97117">
        <ele>1914.2</ele>
        <time>2022-02-25T10:37:30Z</time>
      </trkpt>
      <trkpt lat="44.80772" lon="6.97116">
        <ele>1914.4</ele>
        <time>2022-02-25T10:37:31Z</time>
      </trkpt>
      <trkpt lat="44.80772" lon="6.97116">
        <ele>1914.4</ele>
        <time>2022-02-25T10:37:32Z</time>
      </trkpt>
      <trkpt lat="44.80772" lon="6.97116">
        <ele>1914.4</ele>
        <time>2022-02-25T10:37:33Z</time>
      </trkpt>
      <trkpt lat="44.80772" lon="6.97116">
        <ele>1914.4</ele>
        <time>2022-02-25T10:37:34Z</time>
      </trkpt>
      <trkpt lat="44.8077" lon="6.97117">
        <ele>1914.6</ele>
        <time>2022-02-25T10:37:35Z</time>
      </trkpt>
      <trkpt lat="44.8077" lon="6.97117">
        <ele>1914.6</ele>
        <time>2022-02-25T10:37:36Z</time>
      </trkpt>
      <trkpt lat="44.8077" lon="6.97117">
        <ele>1914.6</ele>
        <time>2022-02-25T10:37:37Z</time>
      </trkpt>
      <trkpt lat="44.8077" lon="6.97117">
        <ele>1914.6</ele>
        <time>2022-02-25T10:37:38Z</time>
      </trkpt>
      <trkpt lat="44.8077" lon="6.97117">
        <ele>1914.6</ele>
        <time>2022-02-25T10:37:39Z</time>
      </trkpt>
      <trkpt lat="44.80769" lon="6.97115">
        <ele>1914.9</ele>
        <time>2022-02-25T10:37:40Z</time>
      </trkpt>
      <trkpt lat="44.80769" lon="6.97115">
        <ele>1914.9</ele>
        <time>2022-02-25T10:37:41Z</time>
      </trkpt>
      <trkpt lat="44.80769" lon="6.97115">
        <ele>1914.9</ele>
        <time>2022-02-25T10:37:42Z</time>
      </trkpt>
      <trkpt lat="44.80769" lon="6.97115">
        <ele>1914.9</ele>
        <time>2022-02-25T10:37:43Z</time>
      </trkpt>
      <trkpt lat="44.80769" lon="6.97115">
        <ele>1914.9</ele>
        <time>2022-02-25T10:37:44Z</time>
      </trkpt>
      <trkpt lat="44.80767" lon="6.97113">
        <ele>1915.4</ele>
        <time>2022-02-25T10:37:45Z</time>
      </trkpt>
      <trkpt lat="44.80767" lon="6.97113">
        <ele>1915.4</ele>
        <time>2022-02-25T10:37:46Z</time>
      </trkpt>
      <trkpt lat="44.80767" lon="6.97113">
        <ele>1915.4</ele>
        <time>2022-02-25T10:37:47Z</time>
      </trkpt>
      <trkpt lat="44.80767" lon="6.97113">
        <ele>1915.4</ele>
        <time>2022-02-25T10:37:48Z</time>
      </trkpt>
      <trkpt lat="44.80765" lon="6.97112">
        <ele>1915.8</ele>
        <time>2022-02-25T10:37:49Z</time>
      </trkpt>
      <trkpt lat="44.80765" lon="6.97112">
        <ele>1915.8</ele>
        <time>2022-02-25T10:37:50Z</time>
      </trkpt>
      <trkpt lat="44.80765" lon="6.97112">
        <ele>1915.8</ele>
        <time>2022-02-25T10:37:51Z</time>
      </trkpt>
      <trkpt lat="44.80763" lon="6.97113">
        <ele>1916</ele>
        <time>2022-02-25T10:37:52Z</time>
      </trkpt>
      <trkpt lat="44.80763" lon="6.97113">
        <ele>1916</ele>
        <time>2022-02-25T10:37:53Z</time>
      </trkpt>
      <trkpt lat="44.80763" lon="6.97113">
        <ele>1916</ele>
        <time>2022-02-25T10:37:54Z</time>
      </trkpt>
      <trkpt lat="44.80761" lon="6.97113">
        <ele>1916.2</ele>
        <time>2022-02-25T10:37:55Z</time>
      </trkpt>
      <trkpt lat="44.80761" lon="6.97113">
        <ele>1916.2</ele>
        <time>2022-02-25T10:37:56Z</time>
      </trkpt>
      <trkpt lat="44.80759" lon="6.97113">
        <ele>1916.5</ele>
        <time>2022-02-25T10:37:57Z</time>
      </trkpt>
      <trkpt lat="44.80759" lon="6.97113">
        <ele>1916.5</ele>
        <time>2022-02-25T10:37:58Z</time>
      </trkpt>
      <trkpt lat="44.80757" lon="6.97114">
        <ele>1916.7</ele>
        <time>2022-02-25T10:37:59Z</time>
      </trkpt>
      <trkpt lat="44.80757" lon="6.97114">
        <ele>1916.7</ele>
        <time>2022-02-25T10:38:00Z</time>
      </trkpt>
      <trkpt lat="44.80755" lon="6.97115">
        <ele>1916.9</ele>
        <time>2022-02-25T10:38:01Z</time>
      </trkpt>
      <trkpt lat="44.80755" lon="6.97115">
        <ele>1916.9</ele>
        <time>2022-02-25T10:38:02Z</time>
      </trkpt>
      <trkpt lat="44.80755" lon="6.97115">
        <ele>1916.9</ele>
        <time>2022-02-25T10:38:03Z</time>
      </trkpt>
      <trkpt lat="44.80752" lon="6.97114">
        <ele>1917.4</ele>
        <time>2022-02-25T10:38:04Z</time>
      </trkpt>
      <trkpt lat="44.80752" lon="6.97114">
        <ele>1917.4</ele>
        <time>2022-02-25T10:38:05Z</time>
      </trkpt>
      <trkpt lat="44.80752" lon="6.97114">
        <ele>1917.4</ele>
        <time>2022-02-25T10:38:06Z</time>
      </trkpt>
      <trkpt lat="44.8075" lon="6.97114">
        <ele>1917.7</ele>
        <time>2022-02-25T10:38:07Z</time>
      </trkpt>
      <trkpt lat="44.8075" lon="6.97114">
        <ele>1917.7</ele>
        <time>2022-02-25T10:38:08Z</time>
      </trkpt>
      <trkpt lat="44.8075" lon="6.97114">
        <ele>1917.7</ele>
        <time>2022-02-25T10:38:09Z</time>
      </trkpt>
      <trkpt lat="44.80748" lon="6.97113">
        <ele>1918.3</ele>
        <time>2022-02-25T10:38:10Z</time>
      </trkpt>
      <trkpt lat="44.80748" lon="6.97113">
        <ele>1918.3</ele>
        <time>2022-02-25T10:38:11Z</time>
      </trkpt>
      <trkpt lat="44.80748" lon="6.97113">
        <ele>1918.3</ele>
        <time>2022-02-25T10:38:12Z</time>
      </trkpt>
      <trkpt lat="44.80748" lon="6.97113">
        <ele>1918.3</ele>
        <time>2022-02-25T10:38:13Z</time>
      </trkpt>
      <trkpt lat="44.80748" lon="6.97113">
        <ele>1918.3</ele>
        <time>2022-02-25T10:38:14Z</time>
      </trkpt>
      <trkpt lat="44.80748" lon="6.97113">
        <ele>1918.3</ele>
        <time>2022-02-25T10:38:15Z</time>
      </trkpt>
      <trkpt lat="44.80746" lon="6.97112">
        <ele>1918.9</ele>
        <time>2022-02-25T10:38:16Z</time>
      </trkpt>
      <trkpt lat="44.80746" lon="6.97112">
        <ele>1918.9</ele>
        <time>2022-02-25T10:38:17Z</time>
      </trkpt>
      <trkpt lat="44.80746" lon="6.97112">
        <ele>1918.9</ele>
        <time>2022-02-25T10:38:18Z</time>
      </trkpt>
      <trkpt lat="44.80746" lon="6.97112">
        <ele>1918.9</ele>
        <time>2022-02-25T10:38:19Z</time>
      </trkpt>
      <trkpt lat="44.80744" lon="6.97113">
        <ele>1919.3</ele>
        <time>2022-02-25T10:38:20Z</time>
      </trkpt>
      <trkpt lat="44.80744" lon="6.97113">
        <ele>1919.3</ele>
        <time>2022-02-25T10:38:21Z</time>
      </trkpt>
      <trkpt lat="44.80744" lon="6.97113">
        <ele>1919.3</ele>
        <time>2022-02-25T10:38:22Z</time>
      </trkpt>
      <trkpt lat="44.80744" lon="6.97113">
        <ele>1919.3</ele>
        <time>2022-02-25T10:38:23Z</time>
      </trkpt>
      <trkpt lat="44.80742" lon="6.97114">
        <ele>1919.6</ele>
        <time>2022-02-25T10:38:24Z</time>
      </trkpt>
      <trkpt lat="44.80742" lon="6.97114">
        <ele>1919.6</ele>
        <time>2022-02-25T10:38:25Z</time>
      </trkpt>
      <trkpt lat="44.80742" lon="6.97114">
        <ele>1919.6</ele>
        <time>2022-02-25T10:38:26Z</time>
      </trkpt>
      <trkpt lat="44.8074" lon="6.97115">
        <ele>1920</ele>
        <time>2022-02-25T10:38:27Z</time>
      </trkpt>
      <trkpt lat="44.8074" lon="6.97115">
        <ele>1920</ele>
        <time>2022-02-25T10:38:28Z</time>
      </trkpt>
      <trkpt lat="44.8074" lon="6.97115">
        <ele>1920</ele>
        <time>2022-02-25T10:38:29Z</time>
      </trkpt>
      <trkpt lat="44.8074" lon="6.97115">
        <ele>1920</ele>
        <time>2022-02-25T10:38:30Z</time>
      </trkpt>
      <trkpt lat="44.80739" lon="6.97118">
        <ele>1919.8</ele>
        <time>2022-02-25T10:38:31Z</time>
      </trkpt>
      <trkpt lat="44.80739" lon="6.97118">
        <ele>1919.8</ele>
        <time>2022-02-25T10:38:32Z</time>
      </trkpt>
      <trkpt lat="44.80739" lon="6.97118">
        <ele>1919.8</ele>
        <time>2022-02-25T10:38:33Z</time>
      </trkpt>
      <trkpt lat="44.80737" lon="6.9712">
        <ele>1920</ele>
        <time>2022-02-25T10:38:34Z</time>
      </trkpt>
      <trkpt lat="44.80737" lon="6.9712">
        <ele>1920</ele>
        <time>2022-02-25T10:38:35Z</time>
      </trkpt>
      <trkpt lat="44.80737" lon="6.9712">
        <ele>1920</ele>
        <time>2022-02-25T10:38:36Z</time>
      </trkpt>
      <trkpt lat="44.80735" lon="6.97122">
        <ele>1920.2</ele>
        <time>2022-02-25T10:38:37Z</time>
      </trkpt>
      <trkpt lat="44.80735" lon="6.97122">
        <ele>1920.2</ele>
        <time>2022-02-25T10:38:38Z</time>
      </trkpt>
      <trkpt lat="44.80733" lon="6.97123">
        <ele>1920.5</ele>
        <time>2022-02-25T10:38:39Z</time>
      </trkpt>
      <trkpt lat="44.80733" lon="6.97123">
        <ele>1920.5</ele>
        <time>2022-02-25T10:38:40Z</time>
      </trkpt>
      <trkpt lat="44.80733" lon="6.97123">
        <ele>1920.5</ele>
        <time>2022-02-25T10:38:41Z</time>
      </trkpt>
      <trkpt lat="44.80731" lon="6.97123">
        <ele>1920.9</ele>
        <time>2022-02-25T10:38:42Z</time>
      </trkpt>
      <trkpt lat="44.80731" lon="6.97123">
        <ele>1920.9</ele>
        <time>2022-02-25T10:38:43Z</time>
      </trkpt>
      <trkpt lat="44.80731" lon="6.97123">
        <ele>1920.9</ele>
        <time>2022-02-25T10:38:44Z</time>
      </trkpt>
      <trkpt lat="44.80729" lon="6.97125">
        <ele>1921</ele>
        <time>2022-02-25T10:38:45Z</time>
      </trkpt>
      <trkpt lat="44.80729" lon="6.97125">
        <ele>1921</ele>
        <time>2022-02-25T10:38:46Z</time>
      </trkpt>
      <trkpt lat="44.80729" lon="6.97125">
        <ele>1921</ele>
        <time>2022-02-25T10:38:47Z</time>
      </trkpt>
      <trkpt lat="44.80729" lon="6.97125">
        <ele>1921</ele>
        <time>2022-02-25T10:38:48Z</time>
      </trkpt>
      <trkpt lat="44.80729" lon="6.97125">
        <ele>1921</ele>
        <time>2022-02-25T10:38:49Z</time>
      </trkpt>
      <trkpt lat="44.80729" lon="6.97125">
        <ele>1921</ele>
        <time>2022-02-25T10:38:50Z</time>
      </trkpt>
      <trkpt lat="44.80729" lon="6.97125">
        <ele>1921</ele>
        <time>2022-02-25T10:38:51Z</time>
      </trkpt>
      <trkpt lat="44.80727" lon="6.97127">
        <ele>1921.1</ele>
        <time>2022-02-25T10:38:52Z</time>
      </trkpt>
      <trkpt lat="44.80727" lon="6.97127">
        <ele>1921.1</ele>
        <time>2022-02-25T10:38:53Z</time>
      </trkpt>
      <trkpt lat="44.80727" lon="6.97127">
        <ele>1921.1</ele>
        <time>2022-02-25T10:38:54Z</time>
      </trkpt>
      <trkpt lat="44.80726" lon="6.97129">
        <ele>1921</ele>
        <time>2022-02-25T10:38:55Z</time>
      </trkpt>
      <trkpt lat="44.80726" lon="6.97129">
        <ele>1921</ele>
        <time>2022-02-25T10:38:56Z</time>
      </trkpt>
      <trkpt lat="44.80726" lon="6.97129">
        <ele>1921</ele>
        <time>2022-02-25T10:38:57Z</time>
      </trkpt>
      <trkpt lat="44.80725" lon="6.97132">
        <ele>1920.7</ele>
        <time>2022-02-25T10:38:58Z</time>
      </trkpt>
      <trkpt lat="44.80725" lon="6.97132">
        <ele>1920.7</ele>
        <time>2022-02-25T10:38:59Z</time>
      </trkpt>
      <trkpt lat="44.80725" lon="6.97132">
        <ele>1920.7</ele>
        <time>2022-02-25T10:39:00Z</time>
      </trkpt>
      <trkpt lat="44.80725" lon="6.97132">
        <ele>1920.7</ele>
        <time>2022-02-25T10:39:01Z</time>
      </trkpt>
      <trkpt lat="44.80724" lon="6.97133">
        <ele>1920.7</ele>
        <time>2022-02-25T10:39:02Z</time>
      </trkpt>
      <trkpt lat="44.80724" lon="6.97133">
        <ele>1920.7</ele>
        <time>2022-02-25T10:39:03Z</time>
      </trkpt>
      <trkpt lat="44.80724" lon="6.97133">
        <ele>1920.7</ele>
        <time>2022-02-25T10:39:04Z</time>
      </trkpt>
      <trkpt lat="44.80724" lon="6.97133">
        <ele>1920.7</ele>
        <time>2022-02-25T10:39:05Z</time>
      </trkpt>
      <trkpt lat="44.80722" lon="6.97135">
        <ele>1920.8</ele>
        <time>2022-02-25T10:39:06Z</time>
      </trkpt>
      <trkpt lat="44.80722" lon="6.97135">
        <ele>1920.8</ele>
        <time>2022-02-25T10:39:07Z</time>
      </trkpt>
      <trkpt lat="44.80722" lon="6.97135">
        <ele>1920.8</ele>
        <time>2022-02-25T10:39:08Z</time>
      </trkpt>
      <trkpt lat="44.80722" lon="6.97135">
        <ele>1920.8</ele>
        <time>2022-02-25T10:39:09Z</time>
      </trkpt>
      <trkpt lat="44.80721" lon="6.97138">
        <ele>1920.5</ele>
        <time>2022-02-25T10:39:10Z</time>
      </trkpt>
      <trkpt lat="44.80721" lon="6.97138">
        <ele>1920.5</ele>
        <time>2022-02-25T10:39:11Z</time>
      </trkpt>
      <trkpt lat="44.80719" lon="6.9714">
        <ele>1920.8</ele>
        <time>2022-02-25T10:39:12Z</time>
      </trkpt>
      <trkpt lat="44.80719" lon="6.9714">
        <ele>1920.8</ele>
        <time>2022-02-25T10:39:13Z</time>
      </trkpt>
      <trkpt lat="44.80719" lon="6.9714">
        <ele>1920.8</ele>
        <time>2022-02-25T10:39:14Z</time>
      </trkpt>
      <trkpt lat="44.80718" lon="6.97142">
        <ele>1921</ele>
        <time>2022-02-25T10:39:15Z</time>
      </trkpt>
      <trkpt lat="44.80718" lon="6.97142">
        <ele>1921</ele>
        <time>2022-02-25T10:39:16Z</time>
      </trkpt>
      <trkpt lat="44.80718" lon="6.97142">
        <ele>1921</ele>
        <time>2022-02-25T10:39:17Z</time>
      </trkpt>
      <trkpt lat="44.80718" lon="6.97142">
        <ele>1921</ele>
        <time>2022-02-25T10:39:18Z</time>
      </trkpt>
      <trkpt lat="44.80718" lon="6.97142">
        <ele>1921</ele>
        <time>2022-02-25T10:39:19Z</time>
      </trkpt>
      <trkpt lat="44.80716" lon="6.97143">
        <ele>1921.5</ele>
        <time>2022-02-25T10:39:20Z</time>
      </trkpt>
      <trkpt lat="44.80716" lon="6.97143">
        <ele>1921.5</ele>
        <time>2022-02-25T10:39:21Z</time>
      </trkpt>
      <trkpt lat="44.80716" lon="6.97143">
        <ele>1921.5</ele>
        <time>2022-02-25T10:39:22Z</time>
      </trkpt>
      <trkpt lat="44.80714" lon="6.97144">
        <ele>1921.9</ele>
        <time>2022-02-25T10:39:23Z</time>
      </trkpt>
      <trkpt lat="44.80714" lon="6.97144">
        <ele>1921.9</ele>
        <time>2022-02-25T10:39:24Z</time>
      </trkpt>
      <trkpt lat="44.80714" lon="6.97144">
        <ele>1921.9</ele>
        <time>2022-02-25T10:39:25Z</time>
      </trkpt>
      <trkpt lat="44.80714" lon="6.97144">
        <ele>1921.9</ele>
        <time>2022-02-25T10:39:26Z</time>
      </trkpt>
      <trkpt lat="44.80714" lon="6.97144">
        <ele>1921.9</ele>
        <time>2022-02-25T10:39:27Z</time>
      </trkpt>
      <trkpt lat="44.80712" lon="6.97144">
        <ele>1922.4</ele>
        <time>2022-02-25T10:39:28Z</time>
      </trkpt>
      <trkpt lat="44.80712" lon="6.97144">
        <ele>1922.4</ele>
        <time>2022-02-25T10:39:29Z</time>
      </trkpt>
      <trkpt lat="44.8071" lon="6.97145">
        <ele>1922.8</ele>
        <time>2022-02-25T10:39:30Z</time>
      </trkpt>
      <trkpt lat="44.8071" lon="6.97145">
        <ele>1922.8</ele>
        <time>2022-02-25T10:39:31Z</time>
      </trkpt>
      <trkpt lat="44.8071" lon="6.97145">
        <ele>1922.8</ele>
        <time>2022-02-25T10:39:32Z</time>
      </trkpt>
      <trkpt lat="44.80708" lon="6.97145">
        <ele>1923.2</ele>
        <time>2022-02-25T10:39:33Z</time>
      </trkpt>
      <trkpt lat="44.80708" lon="6.97145">
        <ele>1923.2</ele>
        <time>2022-02-25T10:39:34Z</time>
      </trkpt>
      <trkpt lat="44.80708" lon="6.97145">
        <ele>1923.2</ele>
        <time>2022-02-25T10:39:35Z</time>
      </trkpt>
      <trkpt lat="44.80706" lon="6.97146">
        <ele>1923.6</ele>
        <time>2022-02-25T10:39:36Z</time>
      </trkpt>
      <trkpt lat="44.80706" lon="6.97146">
        <ele>1923.6</ele>
        <time>2022-02-25T10:39:37Z</time>
      </trkpt>
      <trkpt lat="44.80706" lon="6.97146">
        <ele>1923.6</ele>
        <time>2022-02-25T10:39:38Z</time>
      </trkpt>
      <trkpt lat="44.80706" lon="6.97146">
        <ele>1923.6</ele>
        <time>2022-02-25T10:39:39Z</time>
      </trkpt>
      <trkpt lat="44.80704" lon="6.97146">
        <ele>1924.1</ele>
        <time>2022-02-25T10:39:40Z</time>
      </trkpt>
      <trkpt lat="44.80704" lon="6.97146">
        <ele>1924.1</ele>
        <time>2022-02-25T10:39:41Z</time>
      </trkpt>
      <trkpt lat="44.80704" lon="6.97146">
        <ele>1924.1</ele>
        <time>2022-02-25T10:39:42Z</time>
      </trkpt>
      <trkpt lat="44.80704" lon="6.97146">
        <ele>1924.1</ele>
        <time>2022-02-25T10:39:43Z</time>
      </trkpt>
      <trkpt lat="44.80702" lon="6.97147">
        <ele>1924.5</ele>
        <time>2022-02-25T10:39:44Z</time>
      </trkpt>
      <trkpt lat="44.80702" lon="6.97147">
        <ele>1924.5</ele>
        <time>2022-02-25T10:39:45Z</time>
      </trkpt>
      <trkpt lat="44.80702" lon="6.97147">
        <ele>1924.5</ele>
        <time>2022-02-25T10:39:46Z</time>
      </trkpt>
      <trkpt lat="44.807" lon="6.97149">
        <ele>1924.7</ele>
        <time>2022-02-25T10:39:47Z</time>
      </trkpt>
      <trkpt lat="44.807" lon="6.97149">
        <ele>1924.7</ele>
        <time>2022-02-25T10:39:48Z</time>
      </trkpt>
      <trkpt lat="44.807" lon="6.97149">
        <ele>1924.7</ele>
        <time>2022-02-25T10:39:49Z</time>
      </trkpt>
      <trkpt lat="44.80698" lon="6.97149">
        <ele>1925.2</ele>
        <time>2022-02-25T10:39:50Z</time>
      </trkpt>
      <trkpt lat="44.80698" lon="6.97149">
        <ele>1925.2</ele>
        <time>2022-02-25T10:39:51Z</time>
      </trkpt>
      <trkpt lat="44.80698" lon="6.97149">
        <ele>1925.2</ele>
        <time>2022-02-25T10:39:52Z</time>
      </trkpt>
      <trkpt lat="44.80695" lon="6.97149">
        <ele>1925.8</ele>
        <time>2022-02-25T10:39:53Z</time>
      </trkpt>
      <trkpt lat="44.80695" lon="6.97149">
        <ele>1925.8</ele>
        <time>2022-02-25T10:39:54Z</time>
      </trkpt>
      <trkpt lat="44.80695" lon="6.97149">
        <ele>1925.8</ele>
        <time>2022-02-25T10:39:55Z</time>
      </trkpt>
      <trkpt lat="44.80695" lon="6.97149">
        <ele>1925.8</ele>
        <time>2022-02-25T10:39:56Z</time>
      </trkpt>
      <trkpt lat="44.80693" lon="6.97148">
        <ele>1926.5</ele>
        <time>2022-02-25T10:39:57Z</time>
      </trkpt>
      <trkpt lat="44.80693" lon="6.97148">
        <ele>1926.5</ele>
        <time>2022-02-25T10:39:58Z</time>
      </trkpt>
      <trkpt lat="44.80693" lon="6.97148">
        <ele>1926.5</ele>
        <time>2022-02-25T10:39:59Z</time>
      </trkpt>
      <trkpt lat="44.80693" lon="6.97148">
        <ele>1926.5</ele>
        <time>2022-02-25T10:40:00Z</time>
      </trkpt>
      <trkpt lat="44.80691" lon="6.97149">
        <ele>1927.1</ele>
        <time>2022-02-25T10:40:01Z</time>
      </trkpt>
      <trkpt lat="44.80691" lon="6.97149">
        <ele>1927.1</ele>
        <time>2022-02-25T10:40:02Z</time>
      </trkpt>
      <trkpt lat="44.80691" lon="6.97149">
        <ele>1927.1</ele>
        <time>2022-02-25T10:40:03Z</time>
      </trkpt>
      <trkpt lat="44.80691" lon="6.97149">
        <ele>1927.1</ele>
        <time>2022-02-25T10:40:04Z</time>
      </trkpt>
      <trkpt lat="44.80691" lon="6.97149">
        <ele>1927.1</ele>
        <time>2022-02-25T10:40:05Z</time>
      </trkpt>
      <trkpt lat="44.80691" lon="6.97149">
        <ele>1927.1</ele>
        <time>2022-02-25T10:40:06Z</time>
      </trkpt>
      <trkpt lat="44.80691" lon="6.97149">
        <ele>1927.1</ele>
        <time>2022-02-25T10:40:07Z</time>
      </trkpt>
      <trkpt lat="44.8069" lon="6.97152">
        <ele>1927</ele>
        <time>2022-02-25T10:40:08Z</time>
      </trkpt>
      <trkpt lat="44.8069" lon="6.97152">
        <ele>1927</ele>
        <time>2022-02-25T10:40:09Z</time>
      </trkpt>
      <trkpt lat="44.80688" lon="6.97154">
        <ele>1927.4</ele>
        <time>2022-02-25T10:40:10Z</time>
      </trkpt>
      <trkpt lat="44.80688" lon="6.97154">
        <ele>1927.4</ele>
        <time>2022-02-25T10:40:11Z</time>
      </trkpt>
      <trkpt lat="44.80688" lon="6.97154">
        <ele>1927.4</ele>
        <time>2022-02-25T10:40:12Z</time>
      </trkpt>
      <trkpt lat="44.80686" lon="6.97155">
        <ele>1927.9</ele>
        <time>2022-02-25T10:40:13Z</time>
      </trkpt>
      <trkpt lat="44.80686" lon="6.97155">
        <ele>1927.9</ele>
        <time>2022-02-25T10:40:14Z</time>
      </trkpt>
      <trkpt lat="44.80686" lon="6.97155">
        <ele>1927.9</ele>
        <time>2022-02-25T10:40:15Z</time>
      </trkpt>
      <trkpt lat="44.80686" lon="6.97155">
        <ele>1927.9</ele>
        <time>2022-02-25T10:40:16Z</time>
      </trkpt>
      <trkpt lat="44.80684" lon="6.97155">
        <ele>1928.5</ele>
        <time>2022-02-25T10:40:17Z</time>
      </trkpt>
      <trkpt lat="44.80684" lon="6.97155">
        <ele>1928.5</ele>
        <time>2022-02-25T10:40:18Z</time>
      </trkpt>
      <trkpt lat="44.80684" lon="6.97155">
        <ele>1928.5</ele>
        <time>2022-02-25T10:40:19Z</time>
      </trkpt>
      <trkpt lat="44.80684" lon="6.97155">
        <ele>1928.5</ele>
        <time>2022-02-25T10:40:20Z</time>
      </trkpt>
      <trkpt lat="44.80682" lon="6.97157">
        <ele>1928.8</ele>
        <time>2022-02-25T10:40:21Z</time>
      </trkpt>
      <trkpt lat="44.80682" lon="6.97157">
        <ele>1928.8</ele>
        <time>2022-02-25T10:40:22Z</time>
      </trkpt>
      <trkpt lat="44.80682" lon="6.97157">
        <ele>1928.8</ele>
        <time>2022-02-25T10:40:23Z</time>
      </trkpt>
      <trkpt lat="44.8068" lon="6.97157">
        <ele>1929.4</ele>
        <time>2022-02-25T10:40:24Z</time>
      </trkpt>
      <trkpt lat="44.8068" lon="6.97157">
        <ele>1929.4</ele>
        <time>2022-02-25T10:40:25Z</time>
      </trkpt>
      <trkpt lat="44.8068" lon="6.97157">
        <ele>1929.4</ele>
        <time>2022-02-25T10:40:26Z</time>
      </trkpt>
      <trkpt lat="44.8068" lon="6.97157">
        <ele>1929.4</ele>
        <time>2022-02-25T10:40:27Z</time>
      </trkpt>
      <trkpt lat="44.80677" lon="6.97157">
        <ele>1930.3</ele>
        <time>2022-02-25T10:40:28Z</time>
      </trkpt>
      <trkpt lat="44.80677" lon="6.97157">
        <ele>1930.3</ele>
        <time>2022-02-25T10:40:29Z</time>
      </trkpt>
      <trkpt lat="44.80677" lon="6.97157">
        <ele>1930.3</ele>
        <time>2022-02-25T10:40:30Z</time>
      </trkpt>
      <trkpt lat="44.80677" lon="6.97157">
        <ele>1930.3</ele>
        <time>2022-02-25T10:40:31Z</time>
      </trkpt>
      <trkpt lat="44.80677" lon="6.97157">
        <ele>1930.3</ele>
        <time>2022-02-25T10:40:32Z</time>
      </trkpt>
      <trkpt lat="44.80677" lon="6.97157">
        <ele>1930.3</ele>
        <time>2022-02-25T10:40:33Z</time>
      </trkpt>
      <trkpt lat="44.80677" lon="6.97157">
        <ele>1930.3</ele>
        <time>2022-02-25T10:40:34Z</time>
      </trkpt>
      <trkpt lat="44.80677" lon="6.97157">
        <ele>1930.3</ele>
        <time>2022-02-25T10:40:35Z</time>
      </trkpt>
      <trkpt lat="44.80677" lon="6.97157">
        <ele>1930.3</ele>
        <time>2022-02-25T10:40:36Z</time>
      </trkpt>
      <trkpt lat="44.80677" lon="6.97157">
        <ele>1930.3</ele>
        <time>2022-02-25T10:40:37Z</time>
      </trkpt>
      <trkpt lat="44.80675" lon="6.97157">
        <ele>1930.9</ele>
        <time>2022-02-25T10:40:38Z</time>
      </trkpt>
      <trkpt lat="44.80675" lon="6.97157">
        <ele>1930.9</ele>
        <time>2022-02-25T10:40:39Z</time>
      </trkpt>
      <trkpt lat="44.80675" lon="6.97157">
        <ele>1930.9</ele>
        <time>2022-02-25T10:40:40Z</time>
      </trkpt>
      <trkpt lat="44.80673" lon="6.97155">
        <ele>1932</ele>
        <time>2022-02-25T10:40:41Z</time>
      </trkpt>
      <trkpt lat="44.80673" lon="6.97155">
        <ele>1932</ele>
        <time>2022-02-25T10:40:42Z</time>
      </trkpt>
      <trkpt lat="44.80673" lon="6.97155">
        <ele>1932</ele>
        <time>2022-02-25T10:40:43Z</time>
      </trkpt>
      <trkpt lat="44.80673" lon="6.97155">
        <ele>1932</ele>
        <time>2022-02-25T10:40:44Z</time>
      </trkpt>
      <trkpt lat="44.80671" lon="6.97153">
        <ele>1933</ele>
        <time>2022-02-25T10:40:45Z</time>
      </trkpt>
      <trkpt lat="44.80671" lon="6.97153">
        <ele>1933</ele>
        <time>2022-02-25T10:40:46Z</time>
      </trkpt>
      <trkpt lat="44.80669" lon="6.97152">
        <ele>1933.9</ele>
        <time>2022-02-25T10:40:47Z</time>
      </trkpt>
      <trkpt lat="44.80669" lon="6.97152">
        <ele>1933.9</ele>
        <time>2022-02-25T10:40:48Z</time>
      </trkpt>
      <trkpt lat="44.80669" lon="6.97152">
        <ele>1933.9</ele>
        <time>2022-02-25T10:40:49Z</time>
      </trkpt>
      <trkpt lat="44.80669" lon="6.97152">
        <ele>1933.9</ele>
        <time>2022-02-25T10:40:50Z</time>
      </trkpt>
      <trkpt lat="44.80669" lon="6.97152">
        <ele>1933.9</ele>
        <time>2022-02-25T10:40:51Z</time>
      </trkpt>
      <trkpt lat="44.80669" lon="6.97152">
        <ele>1933.9</ele>
        <time>2022-02-25T10:40:52Z</time>
      </trkpt>
      <trkpt lat="44.80669" lon="6.97152">
        <ele>1933.9</ele>
        <time>2022-02-25T10:40:53Z</time>
      </trkpt>
      <trkpt lat="44.80668" lon="6.97154">
        <ele>1933.8</ele>
        <time>2022-02-25T10:40:54Z</time>
      </trkpt>
      <trkpt lat="44.80668" lon="6.97154">
        <ele>1933.8</ele>
        <time>2022-02-25T10:40:55Z</time>
      </trkpt>
      <trkpt lat="44.80666" lon="6.97157">
        <ele>1933.7</ele>
        <time>2022-02-25T10:40:56Z</time>
      </trkpt>
      <trkpt lat="44.80666" lon="6.97157">
        <ele>1933.7</ele>
        <time>2022-02-25T10:40:57Z</time>
      </trkpt>
      <trkpt lat="44.80666" lon="6.97157">
        <ele>1933.7</ele>
        <time>2022-02-25T10:40:58Z</time>
      </trkpt>
      <trkpt lat="44.80666" lon="6.97157">
        <ele>1933.7</ele>
        <time>2022-02-25T10:40:59Z</time>
      </trkpt>
      <trkpt lat="44.80664" lon="6.97159">
        <ele>1934</ele>
        <time>2022-02-25T10:41:00Z</time>
      </trkpt>
      <trkpt lat="44.80664" lon="6.97159">
        <ele>1934</ele>
        <time>2022-02-25T10:41:01Z</time>
      </trkpt>
      <trkpt lat="44.80664" lon="6.97159">
        <ele>1934</ele>
        <time>2022-02-25T10:41:02Z</time>
      </trkpt>
      <trkpt lat="44.80664" lon="6.97159">
        <ele>1934</ele>
        <time>2022-02-25T10:41:03Z</time>
      </trkpt>
      <trkpt lat="44.80664" lon="6.97161">
        <ele>1933.5</ele>
        <time>2022-02-25T10:41:04Z</time>
      </trkpt>
      <trkpt lat="44.80664" lon="6.97161">
        <ele>1933.5</ele>
        <time>2022-02-25T10:41:05Z</time>
      </trkpt>
      <trkpt lat="44.80664" lon="6.97161">
        <ele>1933.5</ele>
        <time>2022-02-25T10:41:06Z</time>
      </trkpt>
      <trkpt lat="44.80664" lon="6.97161">
        <ele>1933.5</ele>
        <time>2022-02-25T10:41:07Z</time>
      </trkpt>
      <trkpt lat="44.80662" lon="6.97162">
        <ele>1934.1</ele>
        <time>2022-02-25T10:41:08Z</time>
      </trkpt>
      <trkpt lat="44.80662" lon="6.97162">
        <ele>1934.1</ele>
        <time>2022-02-25T10:41:09Z</time>
      </trkpt>
      <trkpt lat="44.8066" lon="6.97163">
        <ele>1934.6</ele>
        <time>2022-02-25T10:41:10Z</time>
      </trkpt>
      <trkpt lat="44.8066" lon="6.97163">
        <ele>1934.6</ele>
        <time>2022-02-25T10:41:11Z</time>
      </trkpt>
      <trkpt lat="44.8066" lon="6.97163">
        <ele>1934.6</ele>
        <time>2022-02-25T10:41:12Z</time>
      </trkpt>
      <trkpt lat="44.8066" lon="6.97163">
        <ele>1934.6</ele>
        <time>2022-02-25T10:41:13Z</time>
      </trkpt>
      <trkpt lat="44.8066" lon="6.97163">
        <ele>1934.6</ele>
        <time>2022-02-25T10:41:14Z</time>
      </trkpt>
      <trkpt lat="44.80658" lon="6.97164">
        <ele>1935.2</ele>
        <time>2022-02-25T10:41:15Z</time>
      </trkpt>
      <trkpt lat="44.80658" lon="6.97164">
        <ele>1935.2</ele>
        <time>2022-02-25T10:41:16Z</time>
      </trkpt>
      <trkpt lat="44.80658" lon="6.97164">
        <ele>1935.2</ele>
        <time>2022-02-25T10:41:17Z</time>
      </trkpt>
      <trkpt lat="44.80658" lon="6.97164">
        <ele>1935.2</ele>
        <time>2022-02-25T10:41:18Z</time>
      </trkpt>
      <trkpt lat="44.80657" lon="6.97166">
        <ele>1935</ele>
        <time>2022-02-25T10:41:19Z</time>
      </trkpt>
      <trkpt lat="44.80657" lon="6.97166">
        <ele>1935</ele>
        <time>2022-02-25T10:41:20Z</time>
      </trkpt>
      <trkpt lat="44.80657" lon="6.97166">
        <ele>1935</ele>
        <time>2022-02-25T10:41:21Z</time>
      </trkpt>
      <trkpt lat="44.80657" lon="6.97166">
        <ele>1935</ele>
        <time>2022-02-25T10:41:22Z</time>
      </trkpt>
      <trkpt lat="44.80657" lon="6.97166">
        <ele>1935</ele>
        <time>2022-02-25T10:41:23Z</time>
      </trkpt>
      <trkpt lat="44.80657" lon="6.97166">
        <ele>1935</ele>
        <time>2022-02-25T10:41:24Z</time>
      </trkpt>
      <trkpt lat="44.80657" lon="6.97166">
        <ele>1935</ele>
        <time>2022-02-25T10:41:25Z</time>
      </trkpt>
      <trkpt lat="44.80657" lon="6.97166">
        <ele>1935</ele>
        <time>2022-02-25T10:41:26Z</time>
      </trkpt>
      <trkpt lat="44.80657" lon="6.97166">
        <ele>1935</ele>
        <time>2022-02-25T10:41:27Z</time>
      </trkpt>
      <trkpt lat="44.80657" lon="6.97166">
        <ele>1935</ele>
        <time>2022-02-25T10:41:28Z</time>
      </trkpt>
      <trkpt lat="44.80657" lon="6.97166">
        <ele>1935</ele>
        <time>2022-02-25T10:41:29Z</time>
      </trkpt>
      <trkpt lat="44.80655" lon="6.97167">
        <ele>1935.6</ele>
        <time>2022-02-25T10:41:30Z</time>
      </trkpt>
      <trkpt lat="44.80655" lon="6.97167">
        <ele>1935.6</ele>
        <time>2022-02-25T10:41:31Z</time>
      </trkpt>
      <trkpt lat="44.80655" lon="6.97167">
        <ele>1935.6</ele>
        <time>2022-02-25T10:41:32Z</time>
      </trkpt>
      <trkpt lat="44.80653" lon="6.97167">
        <ele>1936.3</ele>
        <time>2022-02-25T10:41:33Z</time>
      </trkpt>
      <trkpt lat="44.80653" lon="6.97167">
        <ele>1936.3</ele>
        <time>2022-02-25T10:41:34Z</time>
      </trkpt>
      <trkpt lat="44.80653" lon="6.97167">
        <ele>1936.3</ele>
        <time>2022-02-25T10:41:35Z</time>
      </trkpt>
      <trkpt lat="44.80653" lon="6.97167">
        <ele>1936.3</ele>
        <time>2022-02-25T10:41:36Z</time>
      </trkpt>
      <trkpt lat="44.80653" lon="6.97167">
        <ele>1936.3</ele>
        <time>2022-02-25T10:41:37Z</time>
      </trkpt>
      <trkpt lat="44.80653" lon="6.97167">
        <ele>1936.3</ele>
        <time>2022-02-25T10:41:38Z</time>
      </trkpt>
      <trkpt lat="44.80653" lon="6.97167">
        <ele>1936.3</ele>
        <time>2022-02-25T10:41:39Z</time>
      </trkpt>
      <trkpt lat="44.80653" lon="6.97167">
        <ele>1936.3</ele>
        <time>2022-02-25T10:41:40Z</time>
      </trkpt>
      <trkpt lat="44.80653" lon="6.97167">
        <ele>1936.3</ele>
        <time>2022-02-25T10:41:41Z</time>
      </trkpt>
      <trkpt lat="44.80653" lon="6.97167">
        <ele>1936.3</ele>
        <time>2022-02-25T10:41:42Z</time>
      </trkpt>
      <trkpt lat="44.80653" lon="6.97167">
        <ele>1936.3</ele>
        <time>2022-02-25T10:41:43Z</time>
      </trkpt>
      <trkpt lat="44.80653" lon="6.97167">
        <ele>1936.3</ele>
        <time>2022-02-25T10:41:44Z</time>
      </trkpt>
      <trkpt lat="44.80652" lon="6.9717">
        <ele>1936.1</ele>
        <time>2022-02-25T10:41:45Z</time>
      </trkpt>
      <trkpt lat="44.80652" lon="6.9717">
        <ele>1936.1</ele>
        <time>2022-02-25T10:41:46Z</time>
      </trkpt>
      <trkpt lat="44.80652" lon="6.9717">
        <ele>1936.1</ele>
        <time>2022-02-25T10:41:47Z</time>
      </trkpt>
      <trkpt lat="44.80651" lon="6.97172">
        <ele>1936.1</ele>
        <time>2022-02-25T10:41:48Z</time>
      </trkpt>
      <trkpt lat="44.80651" lon="6.97172">
        <ele>1936.1</ele>
        <time>2022-02-25T10:41:49Z</time>
      </trkpt>
      <trkpt lat="44.80651" lon="6.97172">
        <ele>1936.1</ele>
        <time>2022-02-25T10:41:50Z</time>
      </trkpt>
      <trkpt lat="44.80651" lon="6.97172">
        <ele>1936.1</ele>
        <time>2022-02-25T10:41:51Z</time>
      </trkpt>
      <trkpt lat="44.80651" lon="6.97172">
        <ele>1936.1</ele>
        <time>2022-02-25T10:41:52Z</time>
      </trkpt>
      <trkpt lat="44.80651" lon="6.97172">
        <ele>1936.1</ele>
        <time>2022-02-25T10:41:53Z</time>
      </trkpt>
      <trkpt lat="44.80651" lon="6.97172">
        <ele>1936.1</ele>
        <time>2022-02-25T10:41:54Z</time>
      </trkpt>
      <trkpt lat="44.8065" lon="6.97174">
        <ele>1936.1</ele>
        <time>2022-02-25T10:41:55Z</time>
      </trkpt>
      <trkpt lat="44.8065" lon="6.97174">
        <ele>1936.1</ele>
        <time>2022-02-25T10:41:56Z</time>
      </trkpt>
      <trkpt lat="44.8065" lon="6.97174">
        <ele>1936.1</ele>
        <time>2022-02-25T10:41:57Z</time>
      </trkpt>
      <trkpt lat="44.80648" lon="6.97176">
        <ele>1936.4</ele>
        <time>2022-02-25T10:41:58Z</time>
      </trkpt>
      <trkpt lat="44.80648" lon="6.97176">
        <ele>1936.4</ele>
        <time>2022-02-25T10:41:59Z</time>
      </trkpt>
      <trkpt lat="44.80648" lon="6.97176">
        <ele>1936.4</ele>
        <time>2022-02-25T10:42:00Z</time>
      </trkpt>
      <trkpt lat="44.80648" lon="6.97176">
        <ele>1936.4</ele>
        <time>2022-02-25T10:42:01Z</time>
      </trkpt>
      <trkpt lat="44.80646" lon="6.97179">
        <ele>1936.4</ele>
        <time>2022-02-25T10:42:02Z</time>
      </trkpt>
      <trkpt lat="44.80646" lon="6.97179">
        <ele>1936.4</ele>
        <time>2022-02-25T10:42:03Z</time>
      </trkpt>
      <trkpt lat="44.80646" lon="6.97179">
        <ele>1936.4</ele>
        <time>2022-02-25T10:42:04Z</time>
      </trkpt>
      <trkpt lat="44.80645" lon="6.97181">
        <ele>1936.3</ele>
        <time>2022-02-25T10:42:05Z</time>
      </trkpt>
      <trkpt lat="44.80645" lon="6.97181">
        <ele>1936.3</ele>
        <time>2022-02-25T10:42:06Z</time>
      </trkpt>
      <trkpt lat="44.80645" lon="6.97181">
        <ele>1936.3</ele>
        <time>2022-02-25T10:42:07Z</time>
      </trkpt>
      <trkpt lat="44.80643" lon="6.97182">
        <ele>1936.8</ele>
        <time>2022-02-25T10:42:08Z</time>
      </trkpt>
      <trkpt lat="44.80643" lon="6.97182">
        <ele>1936.8</ele>
        <time>2022-02-25T10:42:09Z</time>
      </trkpt>
      <trkpt lat="44.80643" lon="6.97182">
        <ele>1936.8</ele>
        <time>2022-02-25T10:42:10Z</time>
      </trkpt>
      <trkpt lat="44.80642" lon="6.97184">
        <ele>1936.6</ele>
        <time>2022-02-25T10:42:11Z</time>
      </trkpt>
      <trkpt lat="44.80642" lon="6.97184">
        <ele>1936.6</ele>
        <time>2022-02-25T10:42:12Z</time>
      </trkpt>
      <trkpt lat="44.80642" lon="6.97184">
        <ele>1936.6</ele>
        <time>2022-02-25T10:42:13Z</time>
      </trkpt>
      <trkpt lat="44.80641" lon="6.97187">
        <ele>1936.2</ele>
        <time>2022-02-25T10:42:14Z</time>
      </trkpt>
      <trkpt lat="44.80641" lon="6.97187">
        <ele>1936.2</ele>
        <time>2022-02-25T10:42:15Z</time>
      </trkpt>
      <trkpt lat="44.80641" lon="6.97187">
        <ele>1936.2</ele>
        <time>2022-02-25T10:42:16Z</time>
      </trkpt>
      <trkpt lat="44.80641" lon="6.97187">
        <ele>1936.2</ele>
        <time>2022-02-25T10:42:17Z</time>
      </trkpt>
      <trkpt lat="44.80641" lon="6.9719">
        <ele>1935.5</ele>
        <time>2022-02-25T10:42:18Z</time>
      </trkpt>
      <trkpt lat="44.80641" lon="6.9719">
        <ele>1935.5</ele>
        <time>2022-02-25T10:42:19Z</time>
      </trkpt>
      <trkpt lat="44.80641" lon="6.9719">
        <ele>1935.5</ele>
        <time>2022-02-25T10:42:20Z</time>
      </trkpt>
      <trkpt lat="44.80641" lon="6.9719">
        <ele>1935.5</ele>
        <time>2022-02-25T10:42:21Z</time>
      </trkpt>
      <trkpt lat="44.8064" lon="6.97192">
        <ele>1935.3</ele>
        <time>2022-02-25T10:42:22Z</time>
      </trkpt>
      <trkpt lat="44.8064" lon="6.97192">
        <ele>1935.3</ele>
        <time>2022-02-25T10:42:23Z</time>
      </trkpt>
      <trkpt lat="44.80638" lon="6.97193">
        <ele>1935.7</ele>
        <time>2022-02-25T10:42:24Z</time>
      </trkpt>
      <trkpt lat="44.80638" lon="6.97193">
        <ele>1935.7</ele>
        <time>2022-02-25T10:42:25Z</time>
      </trkpt>
      <trkpt lat="44.80636" lon="6.97195">
        <ele>1936.1</ele>
        <time>2022-02-25T10:42:26Z</time>
      </trkpt>
      <trkpt lat="44.80636" lon="6.97195">
        <ele>1936.1</ele>
        <time>2022-02-25T10:42:27Z</time>
      </trkpt>
      <trkpt lat="44.80634" lon="6.97198">
        <ele>1936.4</ele>
        <time>2022-02-25T10:42:28Z</time>
      </trkpt>
      <trkpt lat="44.80634" lon="6.97198">
        <ele>1936.4</ele>
        <time>2022-02-25T10:42:29Z</time>
      </trkpt>
      <trkpt lat="44.80634" lon="6.97198">
        <ele>1936.4</ele>
        <time>2022-02-25T10:42:30Z</time>
      </trkpt>
      <trkpt lat="44.80634" lon="6.972">
        <ele>1936</ele>
        <time>2022-02-25T10:42:31Z</time>
      </trkpt>
      <trkpt lat="44.80634" lon="6.972">
        <ele>1936</ele>
        <time>2022-02-25T10:42:32Z</time>
      </trkpt>
      <trkpt lat="44.80634" lon="6.972">
        <ele>1936</ele>
        <time>2022-02-25T10:42:33Z</time>
      </trkpt>
      <trkpt lat="44.80632" lon="6.97201">
        <ele>1936.6</ele>
        <time>2022-02-25T10:42:34Z</time>
      </trkpt>
      <trkpt lat="44.80632" lon="6.97201">
        <ele>1936.6</ele>
        <time>2022-02-25T10:42:35Z</time>
      </trkpt>
      <trkpt lat="44.8063" lon="6.97201">
        <ele>1937.3</ele>
        <time>2022-02-25T10:42:36Z</time>
      </trkpt>
      <trkpt lat="44.8063" lon="6.97201">
        <ele>1937.3</ele>
        <time>2022-02-25T10:42:37Z</time>
      </trkpt>
      <trkpt lat="44.80628" lon="6.972">
        <ele>1938.3</ele>
        <time>2022-02-25T10:42:38Z</time>
      </trkpt>
      <trkpt lat="44.80628" lon="6.972">
        <ele>1938.3</ele>
        <time>2022-02-25T10:42:39Z</time>
      </trkpt>
      <trkpt lat="44.80628" lon="6.972">
        <ele>1938.3</ele>
        <time>2022-02-25T10:42:40Z</time>
      </trkpt>
      <trkpt lat="44.80628" lon="6.972">
        <ele>1938.3</ele>
        <time>2022-02-25T10:42:41Z</time>
      </trkpt>
      <trkpt lat="44.80626" lon="6.97201">
        <ele>1938.8</ele>
        <time>2022-02-25T10:42:42Z</time>
      </trkpt>
      <trkpt lat="44.80626" lon="6.97201">
        <ele>1938.8</ele>
        <time>2022-02-25T10:42:43Z</time>
      </trkpt>
      <trkpt lat="44.80626" lon="6.97201">
        <ele>1938.8</ele>
        <time>2022-02-25T10:42:44Z</time>
      </trkpt>
      <trkpt lat="44.80626" lon="6.97201">
        <ele>1938.8</ele>
        <time>2022-02-25T10:42:45Z</time>
      </trkpt>
      <trkpt lat="44.80623" lon="6.97202">
        <ele>1939.7</ele>
        <time>2022-02-25T10:42:46Z</time>
      </trkpt>
      <trkpt lat="44.80623" lon="6.97202">
        <ele>1939.7</ele>
        <time>2022-02-25T10:42:47Z</time>
      </trkpt>
      <trkpt lat="44.80623" lon="6.97202">
        <ele>1939.7</ele>
        <time>2022-02-25T10:42:48Z</time>
      </trkpt>
      <trkpt lat="44.80621" lon="6.97203">
        <ele>1940.3</ele>
        <time>2022-02-25T10:42:49Z</time>
      </trkpt>
      <trkpt lat="44.80621" lon="6.97203">
        <ele>1940.3</ele>
        <time>2022-02-25T10:42:50Z</time>
      </trkpt>
      <trkpt lat="44.80618" lon="6.97203">
        <ele>1941.3</ele>
        <time>2022-02-25T10:42:51Z</time>
      </trkpt>
      <trkpt lat="44.80618" lon="6.97203">
        <ele>1941.3</ele>
        <time>2022-02-25T10:42:52Z</time>
      </trkpt>
      <trkpt lat="44.80618" lon="6.97203">
        <ele>1941.3</ele>
        <time>2022-02-25T10:42:53Z</time>
      </trkpt>
      <trkpt lat="44.80618" lon="6.97203">
        <ele>1941.3</ele>
        <time>2022-02-25T10:42:54Z</time>
      </trkpt>
      <trkpt lat="44.80618" lon="6.97203">
        <ele>1941.3</ele>
        <time>2022-02-25T10:42:55Z</time>
      </trkpt>
      <trkpt lat="44.80618" lon="6.97203">
        <ele>1941.3</ele>
        <time>2022-02-25T10:42:56Z</time>
      </trkpt>
      <trkpt lat="44.80618" lon="6.97203">
        <ele>1941.3</ele>
        <time>2022-02-25T10:42:57Z</time>
      </trkpt>
      <trkpt lat="44.80618" lon="6.97203">
        <ele>1941.3</ele>
        <time>2022-02-25T10:42:58Z</time>
      </trkpt>
      <trkpt lat="44.80616" lon="6.97204">
        <ele>1941.8</ele>
        <time>2022-02-25T10:42:59Z</time>
      </trkpt>
      <trkpt lat="44.80616" lon="6.97204">
        <ele>1941.8</ele>
        <time>2022-02-25T10:43:00Z</time>
      </trkpt>
      <trkpt lat="44.80616" lon="6.97204">
        <ele>1941.8</ele>
        <time>2022-02-25T10:43:01Z</time>
      </trkpt>
      <trkpt lat="44.80614" lon="6.97207">
        <ele>1941.8</ele>
        <time>2022-02-25T10:43:02Z</time>
      </trkpt>
      <trkpt lat="44.80614" lon="6.97207">
        <ele>1941.8</ele>
        <time>2022-02-25T10:43:03Z</time>
      </trkpt>
      <trkpt lat="44.80614" lon="6.97207">
        <ele>1941.8</ele>
        <time>2022-02-25T10:43:04Z</time>
      </trkpt>
      <trkpt lat="44.80614" lon="6.97207">
        <ele>1941.8</ele>
        <time>2022-02-25T10:43:05Z</time>
      </trkpt>
      <trkpt lat="44.80614" lon="6.97207">
        <ele>1941.8</ele>
        <time>2022-02-25T10:43:06Z</time>
      </trkpt>
      <trkpt lat="44.80614" lon="6.97207">
        <ele>1941.8</ele>
        <time>2022-02-25T10:43:07Z</time>
      </trkpt>
      <trkpt lat="44.80613" lon="6.97209">
        <ele>1941.7</ele>
        <time>2022-02-25T10:43:08Z</time>
      </trkpt>
      <trkpt lat="44.80613" lon="6.97209">
        <ele>1941.7</ele>
        <time>2022-02-25T10:43:09Z</time>
      </trkpt>
      <trkpt lat="44.80613" lon="6.97209">
        <ele>1941.7</ele>
        <time>2022-02-25T10:43:10Z</time>
      </trkpt>
      <trkpt lat="44.80613" lon="6.97209">
        <ele>1941.7</ele>
        <time>2022-02-25T10:43:11Z</time>
      </trkpt>
      <trkpt lat="44.80612" lon="6.97211">
        <ele>1941.5</ele>
        <time>2022-02-25T10:43:12Z</time>
      </trkpt>
      <trkpt lat="44.80612" lon="6.97211">
        <ele>1941.5</ele>
        <time>2022-02-25T10:43:13Z</time>
      </trkpt>
      <trkpt lat="44.80612" lon="6.97211">
        <ele>1941.5</ele>
        <time>2022-02-25T10:43:14Z</time>
      </trkpt>
      <trkpt lat="44.80612" lon="6.97211">
        <ele>1941.5</ele>
        <time>2022-02-25T10:43:15Z</time>
      </trkpt>
      <trkpt lat="44.80612" lon="6.97211">
        <ele>1941.5</ele>
        <time>2022-02-25T10:43:16Z</time>
      </trkpt>
      <trkpt lat="44.80612" lon="6.97211">
        <ele>1941.5</ele>
        <time>2022-02-25T10:43:17Z</time>
      </trkpt>
      <trkpt lat="44.80611" lon="6.97213">
        <ele>1941.4</ele>
        <time>2022-02-25T10:43:18Z</time>
      </trkpt>
      <trkpt lat="44.80611" lon="6.97213">
        <ele>1941.4</ele>
        <time>2022-02-25T10:43:19Z</time>
      </trkpt>
      <trkpt lat="44.80611" lon="6.97213">
        <ele>1941.4</ele>
        <time>2022-02-25T10:43:20Z</time>
      </trkpt>
      <trkpt lat="44.80608" lon="6.97215">
        <ele>1942.1</ele>
        <time>2022-02-25T10:43:21Z</time>
      </trkpt>
      <trkpt lat="44.80608" lon="6.97215">
        <ele>1942.1</ele>
        <time>2022-02-25T10:43:22Z</time>
      </trkpt>
      <trkpt lat="44.80608" lon="6.97215">
        <ele>1942.1</ele>
        <time>2022-02-25T10:43:23Z</time>
      </trkpt>
      <trkpt lat="44.80606" lon="6.97215">
        <ele>1942.8</ele>
        <time>2022-02-25T10:43:24Z</time>
      </trkpt>
      <trkpt lat="44.80606" lon="6.97215">
        <ele>1942.8</ele>
        <time>2022-02-25T10:43:25Z</time>
      </trkpt>
      <trkpt lat="44.80606" lon="6.97215">
        <ele>1942.8</ele>
        <time>2022-02-25T10:43:26Z</time>
      </trkpt>
      <trkpt lat="44.80604" lon="6.97216">
        <ele>1943.4</ele>
        <time>2022-02-25T10:43:27Z</time>
      </trkpt>
      <trkpt lat="44.80604" lon="6.97216">
        <ele>1943.4</ele>
        <time>2022-02-25T10:43:28Z</time>
      </trkpt>
      <trkpt lat="44.80602" lon="6.97216">
        <ele>1944.2</ele>
        <time>2022-02-25T10:43:29Z</time>
      </trkpt>
      <trkpt lat="44.80602" lon="6.97216">
        <ele>1944.2</ele>
        <time>2022-02-25T10:43:30Z</time>
      </trkpt>
      <trkpt lat="44.80602" lon="6.97216">
        <ele>1944.2</ele>
        <time>2022-02-25T10:43:31Z</time>
      </trkpt>
      <trkpt lat="44.80602" lon="6.97216">
        <ele>1944.2</ele>
        <time>2022-02-25T10:43:32Z</time>
      </trkpt>
      <trkpt lat="44.806" lon="6.97217">
        <ele>1944.7</ele>
        <time>2022-02-25T10:43:33Z</time>
      </trkpt>
      <trkpt lat="44.806" lon="6.97217">
        <ele>1944.7</ele>
        <time>2022-02-25T10:43:34Z</time>
      </trkpt>
      <trkpt lat="44.806" lon="6.97217">
        <ele>1944.7</ele>
        <time>2022-02-25T10:43:35Z</time>
      </trkpt>
      <trkpt lat="44.80598" lon="6.97219">
        <ele>1945</ele>
        <time>2022-02-25T10:43:36Z</time>
      </trkpt>
      <trkpt lat="44.80598" lon="6.97219">
        <ele>1945</ele>
        <time>2022-02-25T10:43:37Z</time>
      </trkpt>
      <trkpt lat="44.80598" lon="6.97219">
        <ele>1945</ele>
        <time>2022-02-25T10:43:38Z</time>
      </trkpt>
      <trkpt lat="44.80598" lon="6.97219">
        <ele>1945</ele>
        <time>2022-02-25T10:43:39Z</time>
      </trkpt>
      <trkpt lat="44.80598" lon="6.97219">
        <ele>1945</ele>
        <time>2022-02-25T10:43:40Z</time>
      </trkpt>
      <trkpt lat="44.80596" lon="6.97218">
        <ele>1946</ele>
        <time>2022-02-25T10:43:41Z</time>
      </trkpt>
      <trkpt lat="44.80596" lon="6.97218">
        <ele>1946</ele>
        <time>2022-02-25T10:43:42Z</time>
      </trkpt>
      <trkpt lat="44.80596" lon="6.97218">
        <ele>1946</ele>
        <time>2022-02-25T10:43:43Z</time>
      </trkpt>
      <trkpt lat="44.80596" lon="6.97218">
        <ele>1946</ele>
        <time>2022-02-25T10:43:44Z</time>
      </trkpt>
      <trkpt lat="44.80595" lon="6.97216">
        <ele>1946.9</ele>
        <time>2022-02-25T10:43:45Z</time>
      </trkpt>
      <trkpt lat="44.80595" lon="6.97216">
        <ele>1946.9</ele>
        <time>2022-02-25T10:43:46Z</time>
      </trkpt>
      <trkpt lat="44.80595" lon="6.97216">
        <ele>1946.9</ele>
        <time>2022-02-25T10:43:47Z</time>
      </trkpt>
      <trkpt lat="44.80595" lon="6.97213">
        <ele>1947.7</ele>
        <time>2022-02-25T10:43:48Z</time>
      </trkpt>
      <trkpt lat="44.80595" lon="6.97213">
        <ele>1947.7</ele>
        <time>2022-02-25T10:43:49Z</time>
      </trkpt>
      <trkpt lat="44.80595" lon="6.97213">
        <ele>1947.7</ele>
        <time>2022-02-25T10:43:50Z</time>
      </trkpt>
      <trkpt lat="44.80595" lon="6.97213">
        <ele>1947.7</ele>
        <time>2022-02-25T10:43:51Z</time>
      </trkpt>
      <trkpt lat="44.80595" lon="6.97213">
        <ele>1947.7</ele>
        <time>2022-02-25T10:43:52Z</time>
      </trkpt>
      <trkpt lat="44.80595" lon="6.97213">
        <ele>1947.7</ele>
        <time>2022-02-25T10:43:53Z</time>
      </trkpt>
      <trkpt lat="44.80593" lon="6.97212">
        <ele>1948.7</ele>
        <time>2022-02-25T10:43:54Z</time>
      </trkpt>
      <trkpt lat="44.80593" lon="6.97212">
        <ele>1948.7</ele>
        <time>2022-02-25T10:43:55Z</time>
      </trkpt>
      <trkpt lat="44.80593" lon="6.97212">
        <ele>1948.7</ele>
        <time>2022-02-25T10:43:56Z</time>
      </trkpt>
      <trkpt lat="44.80591" lon="6.97213">
        <ele>1949.3</ele>
        <time>2022-02-25T10:43:57Z</time>
      </trkpt>
      <trkpt lat="44.80591" lon="6.97213">
        <ele>1949.3</ele>
        <time>2022-02-25T10:43:58Z</time>
      </trkpt>
      <trkpt lat="44.80591" lon="6.97213">
        <ele>1949.3</ele>
        <time>2022-02-25T10:43:59Z</time>
      </trkpt>
      <trkpt lat="44.80591" lon="6.97213">
        <ele>1949.3</ele>
        <time>2022-02-25T10:44:00Z</time>
      </trkpt>
      <trkpt lat="44.80591" lon="6.97213">
        <ele>1949.3</ele>
        <time>2022-02-25T10:44:01Z</time>
      </trkpt>
      <trkpt lat="44.80591" lon="6.97213">
        <ele>1949.3</ele>
        <time>2022-02-25T10:44:02Z</time>
      </trkpt>
      <trkpt lat="44.80591" lon="6.97213">
        <ele>1949.3</ele>
        <time>2022-02-25T10:44:03Z</time>
      </trkpt>
      <trkpt lat="44.80591" lon="6.97213">
        <ele>1949.3</ele>
        <time>2022-02-25T10:44:04Z</time>
      </trkpt>
      <trkpt lat="44.80591" lon="6.97213">
        <ele>1949.3</ele>
        <time>2022-02-25T10:44:05Z</time>
      </trkpt>
      <trkpt lat="44.80591" lon="6.97213">
        <ele>1949.3</ele>
        <time>2022-02-25T10:44:06Z</time>
      </trkpt>
      <trkpt lat="44.80591" lon="6.97213">
        <ele>1949.3</ele>
        <time>2022-02-25T10:44:07Z</time>
      </trkpt>
      <trkpt lat="44.80589" lon="6.97215">
        <ele>1949.6</ele>
        <time>2022-02-25T10:44:08Z</time>
      </trkpt>
      <trkpt lat="44.80589" lon="6.97215">
        <ele>1949.6</ele>
        <time>2022-02-25T10:44:09Z</time>
      </trkpt>
      <trkpt lat="44.80589" lon="6.97215">
        <ele>1949.6</ele>
        <time>2022-02-25T10:44:10Z</time>
      </trkpt>
      <trkpt lat="44.80589" lon="6.97215">
        <ele>1949.6</ele>
        <time>2022-02-25T10:44:11Z</time>
      </trkpt>
      <trkpt lat="44.80587" lon="6.97217">
        <ele>1949.9</ele>
        <time>2022-02-25T10:44:12Z</time>
      </trkpt>
      <trkpt lat="44.80587" lon="6.97217">
        <ele>1949.9</ele>
        <time>2022-02-25T10:44:13Z</time>
      </trkpt>
      <trkpt lat="44.80587" lon="6.97217">
        <ele>1949.9</ele>
        <time>2022-02-25T10:44:14Z</time>
      </trkpt>
      <trkpt lat="44.80585" lon="6.97218">
        <ele>1950.4</ele>
        <time>2022-02-25T10:44:15Z</time>
      </trkpt>
      <trkpt lat="44.80585" lon="6.97218">
        <ele>1950.4</ele>
        <time>2022-02-25T10:44:16Z</time>
      </trkpt>
      <trkpt lat="44.80585" lon="6.97218">
        <ele>1950.4</ele>
        <time>2022-02-25T10:44:17Z</time>
      </trkpt>
      <trkpt lat="44.80585" lon="6.97218">
        <ele>1950.4</ele>
        <time>2022-02-25T10:44:18Z</time>
      </trkpt>
      <trkpt lat="44.80585" lon="6.97218">
        <ele>1950.4</ele>
        <time>2022-02-25T10:44:19Z</time>
      </trkpt>
      <trkpt lat="44.80583" lon="6.97219">
        <ele>1950.9</ele>
        <time>2022-02-25T10:44:20Z</time>
      </trkpt>
      <trkpt lat="44.80583" lon="6.97219">
        <ele>1950.9</ele>
        <time>2022-02-25T10:44:21Z</time>
      </trkpt>
      <trkpt lat="44.80583" lon="6.97219">
        <ele>1950.9</ele>
        <time>2022-02-25T10:44:22Z</time>
      </trkpt>
      <trkpt lat="44.80583" lon="6.97219">
        <ele>1950.9</ele>
        <time>2022-02-25T10:44:23Z</time>
      </trkpt>
      <trkpt lat="44.80583" lon="6.97219">
        <ele>1950.9</ele>
        <time>2022-02-25T10:44:24Z</time>
      </trkpt>
      <trkpt lat="44.80581" lon="6.97222">
        <ele>1950.9</ele>
        <time>2022-02-25T10:44:25Z</time>
      </trkpt>
      <trkpt lat="44.80581" lon="6.97222">
        <ele>1950.9</ele>
        <time>2022-02-25T10:44:26Z</time>
      </trkpt>
      <trkpt lat="44.80581" lon="6.97222">
        <ele>1950.9</ele>
        <time>2022-02-25T10:44:27Z</time>
      </trkpt>
      <trkpt lat="44.80581" lon="6.97222">
        <ele>1950.9</ele>
        <time>2022-02-25T10:44:28Z</time>
      </trkpt>
      <trkpt lat="44.80581" lon="6.97225">
        <ele>1950.1</ele>
        <time>2022-02-25T10:44:29Z</time>
      </trkpt>
      <trkpt lat="44.80581" lon="6.97225">
        <ele>1950.1</ele>
        <time>2022-02-25T10:44:30Z</time>
      </trkpt>
      <trkpt lat="44.80581" lon="6.97225">
        <ele>1950.1</ele>
        <time>2022-02-25T10:44:31Z</time>
      </trkpt>
      <trkpt lat="44.80581" lon="6.97225">
        <ele>1950.1</ele>
        <time>2022-02-25T10:44:32Z</time>
      </trkpt>
      <trkpt lat="44.8058" lon="6.97227">
        <ele>1950</ele>
        <time>2022-02-25T10:44:33Z</time>
      </trkpt>
      <trkpt lat="44.8058" lon="6.97227">
        <ele>1950</ele>
        <time>2022-02-25T10:44:34Z</time>
      </trkpt>
      <trkpt lat="44.8058" lon="6.97227">
        <ele>1950</ele>
        <time>2022-02-25T10:44:35Z</time>
      </trkpt>
      <trkpt lat="44.80579" lon="6.97228">
        <ele>1950.1</ele>
        <time>2022-02-25T10:44:36Z</time>
      </trkpt>
      <trkpt lat="44.80579" lon="6.97228">
        <ele>1950.1</ele>
        <time>2022-02-25T10:44:37Z</time>
      </trkpt>
      <trkpt lat="44.80577" lon="6.97228">
        <ele>1950.9</ele>
        <time>2022-02-25T10:44:38Z</time>
      </trkpt>
      <trkpt lat="44.80577" lon="6.97228">
        <ele>1950.9</ele>
        <time>2022-02-25T10:44:39Z</time>
      </trkpt>
      <trkpt lat="44.80577" lon="6.97228">
        <ele>1950.9</ele>
        <time>2022-02-25T10:44:40Z</time>
      </trkpt>
      <trkpt lat="44.80574" lon="6.97229">
        <ele>1951.7</ele>
        <time>2022-02-25T10:44:41Z</time>
      </trkpt>
      <trkpt lat="44.80574" lon="6.97229">
        <ele>1951.7</ele>
        <time>2022-02-25T10:44:42Z</time>
      </trkpt>
      <trkpt lat="44.80574" lon="6.97229">
        <ele>1951.7</ele>
        <time>2022-02-25T10:44:43Z</time>
      </trkpt>
      <trkpt lat="44.80572" lon="6.9723">
        <ele>1952.2</ele>
        <time>2022-02-25T10:44:44Z</time>
      </trkpt>
      <trkpt lat="44.80572" lon="6.9723">
        <ele>1952.2</ele>
        <time>2022-02-25T10:44:45Z</time>
      </trkpt>
      <trkpt lat="44.80572" lon="6.9723">
        <ele>1952.2</ele>
        <time>2022-02-25T10:44:46Z</time>
      </trkpt>
      <trkpt lat="44.80572" lon="6.9723">
        <ele>1952.2</ele>
        <time>2022-02-25T10:44:47Z</time>
      </trkpt>
      <trkpt lat="44.8057" lon="6.97231">
        <ele>1952.7</ele>
        <time>2022-02-25T10:44:48Z</time>
      </trkpt>
      <trkpt lat="44.8057" lon="6.97231">
        <ele>1952.7</ele>
        <time>2022-02-25T10:44:49Z</time>
      </trkpt>
      <trkpt lat="44.8057" lon="6.97231">
        <ele>1952.7</ele>
        <time>2022-02-25T10:44:50Z</time>
      </trkpt>
      <trkpt lat="44.8057" lon="6.97231">
        <ele>1952.7</ele>
        <time>2022-02-25T10:44:51Z</time>
      </trkpt>
      <trkpt lat="44.80568" lon="6.97233">
        <ele>1953</ele>
        <time>2022-02-25T10:44:52Z</time>
      </trkpt>
      <trkpt lat="44.80568" lon="6.97233">
        <ele>1953</ele>
        <time>2022-02-25T10:44:53Z</time>
      </trkpt>
      <trkpt lat="44.80568" lon="6.97233">
        <ele>1953</ele>
        <time>2022-02-25T10:44:54Z</time>
      </trkpt>
      <trkpt lat="44.80566" lon="6.97233">
        <ele>1953.8</ele>
        <time>2022-02-25T10:44:55Z</time>
      </trkpt>
      <trkpt lat="44.80566" lon="6.97233">
        <ele>1953.8</ele>
        <time>2022-02-25T10:44:56Z</time>
      </trkpt>
      <trkpt lat="44.80565" lon="6.97235">
        <ele>1953.7</ele>
        <time>2022-02-25T10:44:57Z</time>
      </trkpt>
      <trkpt lat="44.80565" lon="6.97235">
        <ele>1953.7</ele>
        <time>2022-02-25T10:44:58Z</time>
      </trkpt>
      <trkpt lat="44.80565" lon="6.97235">
        <ele>1953.7</ele>
        <time>2022-02-25T10:44:59Z</time>
      </trkpt>
      <trkpt lat="44.80563" lon="6.97236">
        <ele>1954.2</ele>
        <time>2022-02-25T10:45:00Z</time>
      </trkpt>
      <trkpt lat="44.80563" lon="6.97236">
        <ele>1954.2</ele>
        <time>2022-02-25T10:45:01Z</time>
      </trkpt>
      <trkpt lat="44.80563" lon="6.97236">
        <ele>1954.2</ele>
        <time>2022-02-25T10:45:02Z</time>
      </trkpt>
      <trkpt lat="44.80561" lon="6.9724">
        <ele>1954.1</ele>
        <time>2022-02-25T10:45:03Z</time>
      </trkpt>
      <trkpt lat="44.80561" lon="6.9724">
        <ele>1954.1</ele>
        <time>2022-02-25T10:45:04Z</time>
      </trkpt>
      <trkpt lat="44.80559" lon="6.97242">
        <ele>1954.4</ele>
        <time>2022-02-25T10:45:05Z</time>
      </trkpt>
      <trkpt lat="44.80559" lon="6.97242">
        <ele>1954.4</ele>
        <time>2022-02-25T10:45:06Z</time>
      </trkpt>
      <trkpt lat="44.80559" lon="6.97242">
        <ele>1954.4</ele>
        <time>2022-02-25T10:45:07Z</time>
      </trkpt>
      <trkpt lat="44.80557" lon="6.97243">
        <ele>1955</ele>
        <time>2022-02-25T10:45:08Z</time>
      </trkpt>
      <trkpt lat="44.80557" lon="6.97243">
        <ele>1955</ele>
        <time>2022-02-25T10:45:09Z</time>
      </trkpt>
      <trkpt lat="44.80557" lon="6.97243">
        <ele>1955</ele>
        <time>2022-02-25T10:45:10Z</time>
      </trkpt>
      <trkpt lat="44.80554" lon="6.97243">
        <ele>1956</ele>
        <time>2022-02-25T10:45:11Z</time>
      </trkpt>
      <trkpt lat="44.80554" lon="6.97243">
        <ele>1956</ele>
        <time>2022-02-25T10:45:12Z</time>
      </trkpt>
      <trkpt lat="44.80554" lon="6.97243">
        <ele>1956</ele>
        <time>2022-02-25T10:45:13Z</time>
      </trkpt>
      <trkpt lat="44.80554" lon="6.97243">
        <ele>1956</ele>
        <time>2022-02-25T10:45:14Z</time>
      </trkpt>
      <trkpt lat="44.80552" lon="6.97243">
        <ele>1956.7</ele>
        <time>2022-02-25T10:45:15Z</time>
      </trkpt>
      <trkpt lat="44.80552" lon="6.97243">
        <ele>1956.7</ele>
        <time>2022-02-25T10:45:16Z</time>
      </trkpt>
      <trkpt lat="44.80552" lon="6.97243">
        <ele>1956.7</ele>
        <time>2022-02-25T10:45:17Z</time>
      </trkpt>
      <trkpt lat="44.80552" lon="6.97243">
        <ele>1956.7</ele>
        <time>2022-02-25T10:45:18Z</time>
      </trkpt>
      <trkpt lat="44.80551" lon="6.97246">
        <ele>1956.3</ele>
        <time>2022-02-25T10:45:19Z</time>
      </trkpt>
      <trkpt lat="44.80551" lon="6.97246">
        <ele>1956.3</ele>
        <time>2022-02-25T10:45:20Z</time>
      </trkpt>
      <trkpt lat="44.80551" lon="6.97246">
        <ele>1956.3</ele>
        <time>2022-02-25T10:45:21Z</time>
      </trkpt>
      <trkpt lat="44.80551" lon="6.97246">
        <ele>1956.3</ele>
        <time>2022-02-25T10:45:22Z</time>
      </trkpt>
      <trkpt lat="44.8055" lon="6.97248">
        <ele>1956.2</ele>
        <time>2022-02-25T10:45:23Z</time>
      </trkpt>
      <trkpt lat="44.8055" lon="6.97248">
        <ele>1956.2</ele>
        <time>2022-02-25T10:45:24Z</time>
      </trkpt>
      <trkpt lat="44.8055" lon="6.97248">
        <ele>1956.2</ele>
        <time>2022-02-25T10:45:25Z</time>
      </trkpt>
      <trkpt lat="44.8055" lon="6.97248">
        <ele>1956.2</ele>
        <time>2022-02-25T10:45:26Z</time>
      </trkpt>
      <trkpt lat="44.8055" lon="6.97248">
        <ele>1956.2</ele>
        <time>2022-02-25T10:45:27Z</time>
      </trkpt>
      <trkpt lat="44.80549" lon="6.97252">
        <ele>1955.8</ele>
        <time>2022-02-25T10:45:28Z</time>
      </trkpt>
      <trkpt lat="44.80549" lon="6.97252">
        <ele>1955.8</ele>
        <time>2022-02-25T10:45:29Z</time>
      </trkpt>
      <trkpt lat="44.80549" lon="6.97252">
        <ele>1955.8</ele>
        <time>2022-02-25T10:45:30Z</time>
      </trkpt>
      <trkpt lat="44.80549" lon="6.97252">
        <ele>1955.8</ele>
        <time>2022-02-25T10:45:31Z</time>
      </trkpt>
      <trkpt lat="44.80549" lon="6.97255">
        <ele>1955.2</ele>
        <time>2022-02-25T10:45:32Z</time>
      </trkpt>
      <trkpt lat="44.80549" lon="6.97255">
        <ele>1955.2</ele>
        <time>2022-02-25T10:45:33Z</time>
      </trkpt>
      <trkpt lat="44.80549" lon="6.97255">
        <ele>1955.2</ele>
        <time>2022-02-25T10:45:34Z</time>
      </trkpt>
      <trkpt lat="44.80548" lon="6.97257">
        <ele>1955.2</ele>
        <time>2022-02-25T10:45:35Z</time>
      </trkpt>
      <trkpt lat="44.80548" lon="6.97257">
        <ele>1955.2</ele>
        <time>2022-02-25T10:45:36Z</time>
      </trkpt>
      <trkpt lat="44.80548" lon="6.97257">
        <ele>1955.2</ele>
        <time>2022-02-25T10:45:37Z</time>
      </trkpt>
      <trkpt lat="44.80548" lon="6.97257">
        <ele>1955.2</ele>
        <time>2022-02-25T10:45:38Z</time>
      </trkpt>
      <trkpt lat="44.80548" lon="6.97257">
        <ele>1955.2</ele>
        <time>2022-02-25T10:45:39Z</time>
      </trkpt>
      <trkpt lat="44.80548" lon="6.97257">
        <ele>1955.2</ele>
        <time>2022-02-25T10:45:40Z</time>
      </trkpt>
      <trkpt lat="44.80545" lon="6.97258">
        <ele>1956</ele>
        <time>2022-02-25T10:45:41Z</time>
      </trkpt>
      <trkpt lat="44.80545" lon="6.97258">
        <ele>1956</ele>
        <time>2022-02-25T10:45:42Z</time>
      </trkpt>
      <trkpt lat="44.80545" lon="6.97258">
        <ele>1956</ele>
        <time>2022-02-25T10:45:43Z</time>
      </trkpt>
      <trkpt lat="44.80545" lon="6.97258">
        <ele>1956</ele>
        <time>2022-02-25T10:45:44Z</time>
      </trkpt>
      <trkpt lat="44.80545" lon="6.97258">
        <ele>1956</ele>
        <time>2022-02-25T10:45:45Z</time>
      </trkpt>
      <trkpt lat="44.80543" lon="6.97258">
        <ele>1956.6</ele>
        <time>2022-02-25T10:45:46Z</time>
      </trkpt>
      <trkpt lat="44.80543" lon="6.97258">
        <ele>1956.6</ele>
        <time>2022-02-25T10:45:47Z</time>
      </trkpt>
      <trkpt lat="44.80543" lon="6.97258">
        <ele>1956.6</ele>
        <time>2022-02-25T10:45:48Z</time>
      </trkpt>
      <trkpt lat="44.80543" lon="6.97258">
        <ele>1956.6</ele>
        <time>2022-02-25T10:45:49Z</time>
      </trkpt>
      <trkpt lat="44.80543" lon="6.97258">
        <ele>1956.6</ele>
        <time>2022-02-25T10:45:50Z</time>
      </trkpt>
      <trkpt lat="44.80543" lon="6.97258">
        <ele>1956.6</ele>
        <time>2022-02-25T10:45:51Z</time>
      </trkpt>
      <trkpt lat="44.80543" lon="6.97258">
        <ele>1956.6</ele>
        <time>2022-02-25T10:45:52Z</time>
      </trkpt>
      <trkpt lat="44.80543" lon="6.97258">
        <ele>1956.6</ele>
        <time>2022-02-25T10:45:53Z</time>
      </trkpt>
      <trkpt lat="44.80541" lon="6.97259">
        <ele>1957.1</ele>
        <time>2022-02-25T10:45:54Z</time>
      </trkpt>
      <trkpt lat="44.80541" lon="6.97259">
        <ele>1957.1</ele>
        <time>2022-02-25T10:45:55Z</time>
      </trkpt>
      <trkpt lat="44.80541" lon="6.97259">
        <ele>1957.1</ele>
        <time>2022-02-25T10:45:56Z</time>
      </trkpt>
      <trkpt lat="44.80541" lon="6.97259">
        <ele>1957.1</ele>
        <time>2022-02-25T10:45:57Z</time>
      </trkpt>
      <trkpt lat="44.80541" lon="6.97259">
        <ele>1957.1</ele>
        <time>2022-02-25T10:45:58Z</time>
      </trkpt>
      <trkpt lat="44.80541" lon="6.97259">
        <ele>1957.1</ele>
        <time>2022-02-25T10:45:59Z</time>
      </trkpt>
      <trkpt lat="44.80539" lon="6.97258">
        <ele>1957.9</ele>
        <time>2022-02-25T10:46:00Z</time>
      </trkpt>
      <trkpt lat="44.80539" lon="6.97258">
        <ele>1957.9</ele>
        <time>2022-02-25T10:46:01Z</time>
      </trkpt>
      <trkpt lat="44.80539" lon="6.97258">
        <ele>1957.9</ele>
        <time>2022-02-25T10:46:02Z</time>
      </trkpt>
      <trkpt lat="44.80539" lon="6.97258">
        <ele>1957.9</ele>
        <time>2022-02-25T10:46:03Z</time>
      </trkpt>
      <trkpt lat="44.80539" lon="6.97258">
        <ele>1957.9</ele>
        <time>2022-02-25T10:46:04Z</time>
      </trkpt>
      <trkpt lat="44.80539" lon="6.97258">
        <ele>1957.9</ele>
        <time>2022-02-25T10:46:05Z</time>
      </trkpt>
      <trkpt lat="44.80539" lon="6.97258">
        <ele>1957.9</ele>
        <time>2022-02-25T10:46:06Z</time>
      </trkpt>
      <trkpt lat="44.80537" lon="6.97257">
        <ele>1958.8</ele>
        <time>2022-02-25T10:46:07Z</time>
      </trkpt>
      <trkpt lat="44.80537" lon="6.97257">
        <ele>1958.8</ele>
        <time>2022-02-25T10:46:08Z</time>
      </trkpt>
      <trkpt lat="44.80537" lon="6.97257">
        <ele>1958.8</ele>
        <time>2022-02-25T10:46:09Z</time>
      </trkpt>
      <trkpt lat="44.80537" lon="6.97257">
        <ele>1958.8</ele>
        <time>2022-02-25T10:46:10Z</time>
      </trkpt>
      <trkpt lat="44.80537" lon="6.97257">
        <ele>1958.8</ele>
        <time>2022-02-25T10:46:11Z</time>
      </trkpt>
      <trkpt lat="44.80537" lon="6.97257">
        <ele>1958.8</ele>
        <time>2022-02-25T10:46:12Z</time>
      </trkpt>
      <trkpt lat="44.80537" lon="6.97257">
        <ele>1958.8</ele>
        <time>2022-02-25T10:46:13Z</time>
      </trkpt>
      <trkpt lat="44.80537" lon="6.97257">
        <ele>1958.8</ele>
        <time>2022-02-25T10:46:14Z</time>
      </trkpt>
      <trkpt lat="44.80537" lon="6.97257">
        <ele>1958.8</ele>
        <time>2022-02-25T10:46:15Z</time>
      </trkpt>
      <trkpt lat="44.80537" lon="6.97257">
        <ele>1958.8</ele>
        <time>2022-02-25T10:46:16Z</time>
      </trkpt>
      <trkpt lat="44.80537" lon="6.97257">
        <ele>1958.8</ele>
        <time>2022-02-25T10:46:17Z</time>
      </trkpt>
      <trkpt lat="44.80537" lon="6.97257">
        <ele>1958.8</ele>
        <time>2022-02-25T10:46:18Z</time>
      </trkpt>
      <trkpt lat="44.80537" lon="6.97257">
        <ele>1958.8</ele>
        <time>2022-02-25T10:46:19Z</time>
      </trkpt>
      <trkpt lat="44.80537" lon="6.97257">
        <ele>1958.8</ele>
        <time>2022-02-25T10:46:20Z</time>
      </trkpt>
      <trkpt lat="44.80537" lon="6.97257">
        <ele>1958.8</ele>
        <time>2022-02-25T10:46:21Z</time>
      </trkpt>
      <trkpt lat="44.80537" lon="6.97257">
        <ele>1958.8</ele>
        <time>2022-02-25T10:46:22Z</time>
      </trkpt>
      <trkpt lat="44.80537" lon="6.97257">
        <ele>1958.8</ele>
        <time>2022-02-25T10:46:23Z</time>
      </trkpt>
      <trkpt lat="44.80537" lon="6.97257">
        <ele>1958.8</ele>
        <time>2022-02-25T10:46:24Z</time>
      </trkpt>
      <trkpt lat="44.80537" lon="6.97257">
        <ele>1958.8</ele>
        <time>2022-02-25T10:46:25Z</time>
      </trkpt>
      <trkpt lat="44.80537" lon="6.97257">
        <ele>1958.8</ele>
        <time>2022-02-25T10:46:26Z</time>
      </trkpt>
      <trkpt lat="44.80537" lon="6.97257">
        <ele>1958.8</ele>
        <time>2022-02-25T10:46:27Z</time>
      </trkpt>
      <trkpt lat="44.80537" lon="6.97257">
        <ele>1958.8</ele>
        <time>2022-02-25T10:46:28Z</time>
      </trkpt>
      <trkpt lat="44.80537" lon="6.97257">
        <ele>1958.8</ele>
        <time>2022-02-25T10:46:29Z</time>
      </trkpt>
      <trkpt lat="44.80537" lon="6.97257">
        <ele>1958.8</ele>
        <time>2022-02-25T10:46:30Z</time>
      </trkpt>
      <trkpt lat="44.80537" lon="6.97257">
        <ele>1958.8</ele>
        <time>2022-02-25T10:46:31Z</time>
      </trkpt>
      <trkpt lat="44.80537" lon="6.97257">
        <ele>1958.8</ele>
        <time>2022-02-25T10:46:32Z</time>
      </trkpt>
      <trkpt lat="44.80537" lon="6.97257">
        <ele>1958.8</ele>
        <time>2022-02-25T10:46:33Z</time>
      </trkpt>
      <trkpt lat="44.80537" lon="6.97257">
        <ele>1958.8</ele>
        <time>2022-02-25T10:46:34Z</time>
      </trkpt>
      <trkpt lat="44.80537" lon="6.97257">
        <ele>1958.8</ele>
        <time>2022-02-25T10:46:35Z</time>
      </trkpt>
      <trkpt lat="44.80537" lon="6.97257">
        <ele>1958.8</ele>
        <time>2022-02-25T10:46:36Z</time>
      </trkpt>
      <trkpt lat="44.80537" lon="6.97257">
        <ele>1958.8</ele>
        <time>2022-02-25T10:46:37Z</time>
      </trkpt>
      <trkpt lat="44.80537" lon="6.97257">
        <ele>1958.8</ele>
        <time>2022-02-25T10:46:38Z</time>
      </trkpt>
      <trkpt lat="44.80537" lon="6.97257">
        <ele>1958.8</ele>
        <time>2022-02-25T10:46:39Z</time>
      </trkpt>
      <trkpt lat="44.80537" lon="6.97257">
        <ele>1958.8</ele>
        <time>2022-02-25T10:46:40Z</time>
      </trkpt>
      <trkpt lat="44.80537" lon="6.97257">
        <ele>1958.8</ele>
        <time>2022-02-25T10:46:41Z</time>
      </trkpt>
      <trkpt lat="44.80537" lon="6.97257">
        <ele>1958.8</ele>
        <time>2022-02-25T10:46:42Z</time>
      </trkpt>
      <trkpt lat="44.80537" lon="6.97257">
        <ele>1958.8</ele>
        <time>2022-02-25T10:46:43Z</time>
      </trkpt>
      <trkpt lat="44.80537" lon="6.97257">
        <ele>1958.8</ele>
        <time>2022-02-25T10:46:44Z</time>
      </trkpt>
      <trkpt lat="44.80537" lon="6.97257">
        <ele>1958.8</ele>
        <time>2022-02-25T10:46:45Z</time>
      </trkpt>
      <trkpt lat="44.80537" lon="6.97257">
        <ele>1958.8</ele>
        <time>2022-02-25T10:46:46Z</time>
      </trkpt>
      <trkpt lat="44.80537" lon="6.97257">
        <ele>1958.8</ele>
        <time>2022-02-25T10:46:47Z</time>
      </trkpt>
      <trkpt lat="44.80537" lon="6.97257">
        <ele>1958.8</ele>
        <time>2022-02-25T10:46:48Z</time>
      </trkpt>
      <trkpt lat="44.80537" lon="6.97257">
        <ele>1958.8</ele>
        <time>2022-02-25T10:46:49Z</time>
      </trkpt>
      <trkpt lat="44.80537" lon="6.97257">
        <ele>1958.8</ele>
        <time>2022-02-25T10:46:50Z</time>
      </trkpt>
      <trkpt lat="44.80537" lon="6.97257">
        <ele>1958.8</ele>
        <time>2022-02-25T10:46:51Z</time>
      </trkpt>
      <trkpt lat="44.80537" lon="6.97257">
        <ele>1958.8</ele>
        <time>2022-02-25T10:46:52Z</time>
      </trkpt>
      <trkpt lat="44.80537" lon="6.97257">
        <ele>1958.8</ele>
        <time>2022-02-25T10:46:53Z</time>
      </trkpt>
      <trkpt lat="44.80537" lon="6.97257">
        <ele>1958.8</ele>
        <time>2022-02-25T10:46:54Z</time>
      </trkpt>
      <trkpt lat="44.80537" lon="6.97257">
        <ele>1958.8</ele>
        <time>2022-02-25T10:46:55Z</time>
      </trkpt>
      <trkpt lat="44.80537" lon="6.97257">
        <ele>1958.8</ele>
        <time>2022-02-25T10:46:56Z</time>
      </trkpt>
      <trkpt lat="44.80537" lon="6.97257">
        <ele>1958.8</ele>
        <time>2022-02-25T10:46:57Z</time>
      </trkpt>
      <trkpt lat="44.80537" lon="6.97257">
        <ele>1958.8</ele>
        <time>2022-02-25T10:46:58Z</time>
      </trkpt>
      <trkpt lat="44.80537" lon="6.97257">
        <ele>1958.8</ele>
        <time>2022-02-25T10:46:59Z</time>
      </trkpt>
      <trkpt lat="44.80537" lon="6.97257">
        <ele>1958.8</ele>
        <time>2022-02-25T10:47:00Z</time>
      </trkpt>
      <trkpt lat="44.80537" lon="6.97257">
        <ele>1958.8</ele>
        <time>2022-02-25T10:47:01Z</time>
      </trkpt>
      <trkpt lat="44.80537" lon="6.97257">
        <ele>1958.8</ele>
        <time>2022-02-25T10:47:02Z</time>
      </trkpt>
      <trkpt lat="44.80537" lon="6.97257">
        <ele>1958.8</ele>
        <time>2022-02-25T10:47:03Z</time>
      </trkpt>
      <trkpt lat="44.80537" lon="6.97257">
        <ele>1958.8</ele>
        <time>2022-02-25T10:47:04Z</time>
      </trkpt>
      <trkpt lat="44.80537" lon="6.97257">
        <ele>1958.8</ele>
        <time>2022-02-25T10:47:05Z</time>
      </trkpt>
      <trkpt lat="44.80537" lon="6.97257">
        <ele>1958.8</ele>
        <time>2022-02-25T10:47:06Z</time>
      </trkpt>
      <trkpt lat="44.80537" lon="6.97257">
        <ele>1958.8</ele>
        <time>2022-02-25T10:47:07Z</time>
      </trkpt>
      <trkpt lat="44.80537" lon="6.97257">
        <ele>1958.8</ele>
        <time>2022-02-25T10:47:08Z</time>
      </trkpt>
      <trkpt lat="44.80537" lon="6.97257">
        <ele>1958.8</ele>
        <time>2022-02-25T10:47:09Z</time>
      </trkpt>
      <trkpt lat="44.80537" lon="6.97257">
        <ele>1958.8</ele>
        <time>2022-02-25T10:47:10Z</time>
      </trkpt>
      <trkpt lat="44.80537" lon="6.97257">
        <ele>1958.8</ele>
        <time>2022-02-25T10:47:11Z</time>
      </trkpt>
      <trkpt lat="44.80537" lon="6.97257">
        <ele>1958.8</ele>
        <time>2022-02-25T10:47:12Z</time>
      </trkpt>
      <trkpt lat="44.80537" lon="6.97257">
        <ele>1958.8</ele>
        <time>2022-02-25T10:47:13Z</time>
      </trkpt>
      <trkpt lat="44.80537" lon="6.97257">
        <ele>1958.8</ele>
        <time>2022-02-25T10:47:14Z</time>
      </trkpt>
      <trkpt lat="44.80537" lon="6.97257">
        <ele>1958.8</ele>
        <time>2022-02-25T10:47:15Z</time>
      </trkpt>
      <trkpt lat="44.80537" lon="6.97257">
        <ele>1958.8</ele>
        <time>2022-02-25T10:47:16Z</time>
      </trkpt>
      <trkpt lat="44.80537" lon="6.97257">
        <ele>1958.8</ele>
        <time>2022-02-25T10:47:17Z</time>
      </trkpt>
      <trkpt lat="44.80537" lon="6.97257">
        <ele>1958.8</ele>
        <time>2022-02-25T10:47:18Z</time>
      </trkpt>
      <trkpt lat="44.80537" lon="6.97257">
        <ele>1958.8</ele>
        <time>2022-02-25T10:47:19Z</time>
      </trkpt>
      <trkpt lat="44.80537" lon="6.97257">
        <ele>1958.8</ele>
        <time>2022-02-25T10:47:20Z</time>
      </trkpt>
      <trkpt lat="44.80537" lon="6.97257">
        <ele>1958.8</ele>
        <time>2022-02-25T10:47:21Z</time>
      </trkpt>
      <trkpt lat="44.80537" lon="6.97257">
        <ele>1958.8</ele>
        <time>2022-02-25T10:47:22Z</time>
      </trkpt>
      <trkpt lat="44.80537" lon="6.97257">
        <ele>1958.8</ele>
        <time>2022-02-25T10:47:23Z</time>
      </trkpt>
      <trkpt lat="44.80537" lon="6.97257">
        <ele>1958.8</ele>
        <time>2022-02-25T10:47:24Z</time>
      </trkpt>
      <trkpt lat="44.80537" lon="6.97257">
        <ele>1958.8</ele>
        <time>2022-02-25T10:47:25Z</time>
      </trkpt>
      <trkpt lat="44.80537" lon="6.97257">
        <ele>1958.8</ele>
        <time>2022-02-25T10:47:26Z</time>
      </trkpt>
      <trkpt lat="44.80537" lon="6.97257">
        <ele>1958.8</ele>
        <time>2022-02-25T10:47:27Z</time>
      </trkpt>
      <trkpt lat="44.80537" lon="6.97257">
        <ele>1958.8</ele>
        <time>2022-02-25T10:47:28Z</time>
      </trkpt>
      <trkpt lat="44.80537" lon="6.97257">
        <ele>1958.8</ele>
        <time>2022-02-25T10:47:29Z</time>
      </trkpt>
      <trkpt lat="44.80537" lon="6.97257">
        <ele>1958.8</ele>
        <time>2022-02-25T10:47:30Z</time>
      </trkpt>
      <trkpt lat="44.80537" lon="6.97257">
        <ele>1958.8</ele>
        <time>2022-02-25T10:47:31Z</time>
      </trkpt>
      <trkpt lat="44.80537" lon="6.97257">
        <ele>1958.8</ele>
        <time>2022-02-25T10:47:32Z</time>
      </trkpt>
      <trkpt lat="44.80537" lon="6.97257">
        <ele>1958.8</ele>
        <time>2022-02-25T10:47:33Z</time>
      </trkpt>
      <trkpt lat="44.80537" lon="6.97257">
        <ele>1958.8</ele>
        <time>2022-02-25T10:47:34Z</time>
      </trkpt>
      <trkpt lat="44.80537" lon="6.97257">
        <ele>1958.8</ele>
        <time>2022-02-25T10:47:35Z</time>
      </trkpt>
      <trkpt lat="44.80537" lon="6.97257">
        <ele>1958.8</ele>
        <time>2022-02-25T10:47:36Z</time>
      </trkpt>
      <trkpt lat="44.80537" lon="6.97257">
        <ele>1958.8</ele>
        <time>2022-02-25T10:47:37Z</time>
      </trkpt>
      <trkpt lat="44.80537" lon="6.97257">
        <ele>1958.8</ele>
        <time>2022-02-25T10:47:38Z</time>
      </trkpt>
      <trkpt lat="44.80537" lon="6.97257">
        <ele>1958.8</ele>
        <time>2022-02-25T10:47:39Z</time>
      </trkpt>
      <trkpt lat="44.80536" lon="6.97253">
        <ele>1959.8</ele>
        <time>2022-02-25T10:47:40Z</time>
      </trkpt>
      <trkpt lat="44.80536" lon="6.97253">
        <ele>1959.8</ele>
        <time>2022-02-25T10:47:41Z</time>
      </trkpt>
      <trkpt lat="44.80535" lon="6.97249">
        <ele>1960.9</ele>
        <time>2022-02-25T10:47:42Z</time>
      </trkpt>
      <trkpt lat="44.80535" lon="6.97249">
        <ele>1960.9</ele>
        <time>2022-02-25T10:47:43Z</time>
      </trkpt>
      <trkpt lat="44.80534" lon="6.97246">
        <ele>1961.8</ele>
        <time>2022-02-25T10:47:44Z</time>
      </trkpt>
      <trkpt lat="44.80534" lon="6.97246">
        <ele>1961.8</ele>
        <time>2022-02-25T10:47:45Z</time>
      </trkpt>
      <trkpt lat="44.80533" lon="6.97243">
        <ele>1962.8</ele>
        <time>2022-02-25T10:47:46Z</time>
      </trkpt>
      <trkpt lat="44.80533" lon="6.97243">
        <ele>1962.8</ele>
        <time>2022-02-25T10:47:47Z</time>
      </trkpt>
      <trkpt lat="44.80531" lon="6.9724">
        <ele>1964.1</ele>
        <time>2022-02-25T10:47:48Z</time>
      </trkpt>
      <trkpt lat="44.80531" lon="6.9724">
        <ele>1964.1</ele>
        <time>2022-02-25T10:47:49Z</time>
      </trkpt>
      <trkpt lat="44.8053" lon="6.97237">
        <ele>1965.1</ele>
        <time>2022-02-25T10:47:50Z</time>
      </trkpt>
      <trkpt lat="44.8053" lon="6.97237">
        <ele>1965.1</ele>
        <time>2022-02-25T10:47:51Z</time>
      </trkpt>
      <trkpt lat="44.8053" lon="6.97237">
        <ele>1965.1</ele>
        <time>2022-02-25T10:47:52Z</time>
      </trkpt>
      <trkpt lat="44.8053" lon="6.97237">
        <ele>1965.1</ele>
        <time>2022-02-25T10:47:53Z</time>
      </trkpt>
      <trkpt lat="44.8053" lon="6.97237">
        <ele>1965.1</ele>
        <time>2022-02-25T10:47:54Z</time>
      </trkpt>
      <trkpt lat="44.8053" lon="6.97237">
        <ele>1965.1</ele>
        <time>2022-02-25T10:47:55Z</time>
      </trkpt>
      <trkpt lat="44.8053" lon="6.97237">
        <ele>1965.1</ele>
        <time>2022-02-25T10:47:56Z</time>
      </trkpt>
      <trkpt lat="44.80528" lon="6.97238">
        <ele>1965.5</ele>
        <time>2022-02-25T10:47:57Z</time>
      </trkpt>
      <trkpt lat="44.80528" lon="6.97238">
        <ele>1965.5</ele>
        <time>2022-02-25T10:47:58Z</time>
      </trkpt>
      <trkpt lat="44.80528" lon="6.97238">
        <ele>1965.5</ele>
        <time>2022-02-25T10:47:59Z</time>
      </trkpt>
      <trkpt lat="44.80528" lon="6.97238">
        <ele>1965.5</ele>
        <time>2022-02-25T10:48:00Z</time>
      </trkpt>
      <trkpt lat="44.80528" lon="6.97238">
        <ele>1965.5</ele>
        <time>2022-02-25T10:48:01Z</time>
      </trkpt>
      <trkpt lat="44.80526" lon="6.9724">
        <ele>1965.7</ele>
        <time>2022-02-25T10:48:02Z</time>
      </trkpt>
      <trkpt lat="44.80526" lon="6.9724">
        <ele>1965.7</ele>
        <time>2022-02-25T10:48:03Z</time>
      </trkpt>
      <trkpt lat="44.80525" lon="6.97241">
        <ele>1965.8</ele>
        <time>2022-02-25T10:48:04Z</time>
      </trkpt>
      <trkpt lat="44.80525" lon="6.97241">
        <ele>1965.8</ele>
        <time>2022-02-25T10:48:05Z</time>
      </trkpt>
      <trkpt lat="44.80525" lon="6.97241">
        <ele>1965.8</ele>
        <time>2022-02-25T10:48:06Z</time>
      </trkpt>
      <trkpt lat="44.80525" lon="6.97241">
        <ele>1965.8</ele>
        <time>2022-02-25T10:48:07Z</time>
      </trkpt>
      <trkpt lat="44.80525" lon="6.97241">
        <ele>1965.8</ele>
        <time>2022-02-25T10:48:08Z</time>
      </trkpt>
      <trkpt lat="44.80525" lon="6.97241">
        <ele>1965.8</ele>
        <time>2022-02-25T10:48:09Z</time>
      </trkpt>
      <trkpt lat="44.80525" lon="6.97241">
        <ele>1965.8</ele>
        <time>2022-02-25T10:48:10Z</time>
      </trkpt>
      <trkpt lat="44.80523" lon="6.97242">
        <ele>1966.3</ele>
        <time>2022-02-25T10:48:11Z</time>
      </trkpt>
      <trkpt lat="44.80523" lon="6.97242">
        <ele>1966.3</ele>
        <time>2022-02-25T10:48:12Z</time>
      </trkpt>
      <trkpt lat="44.80523" lon="6.97242">
        <ele>1966.3</ele>
        <time>2022-02-25T10:48:13Z</time>
      </trkpt>
      <trkpt lat="44.80523" lon="6.97242">
        <ele>1966.3</ele>
        <time>2022-02-25T10:48:14Z</time>
      </trkpt>
      <trkpt lat="44.80523" lon="6.97242">
        <ele>1966.3</ele>
        <time>2022-02-25T10:48:15Z</time>
      </trkpt>
      <trkpt lat="44.80521" lon="6.97241">
        <ele>1967.1</ele>
        <time>2022-02-25T10:48:16Z</time>
      </trkpt>
      <trkpt lat="44.80521" lon="6.97241">
        <ele>1967.1</ele>
        <time>2022-02-25T10:48:17Z</time>
      </trkpt>
      <trkpt lat="44.80521" lon="6.97241">
        <ele>1967.1</ele>
        <time>2022-02-25T10:48:18Z</time>
      </trkpt>
      <trkpt lat="44.80519" lon="6.97241">
        <ele>1967.8</ele>
        <time>2022-02-25T10:48:19Z</time>
      </trkpt>
      <trkpt lat="44.80519" lon="6.97241">
        <ele>1967.8</ele>
        <time>2022-02-25T10:48:20Z</time>
      </trkpt>
      <trkpt lat="44.80519" lon="6.97241">
        <ele>1967.8</ele>
        <time>2022-02-25T10:48:21Z</time>
      </trkpt>
      <trkpt lat="44.80517" lon="6.9724">
        <ele>1968.7</ele>
        <time>2022-02-25T10:48:22Z</time>
      </trkpt>
      <trkpt lat="44.80517" lon="6.9724">
        <ele>1968.7</ele>
        <time>2022-02-25T10:48:23Z</time>
      </trkpt>
      <trkpt lat="44.80517" lon="6.9724">
        <ele>1968.7</ele>
        <time>2022-02-25T10:48:24Z</time>
      </trkpt>
      <trkpt lat="44.80516" lon="6.97237">
        <ele>1969.6</ele>
        <time>2022-02-25T10:48:25Z</time>
      </trkpt>
      <trkpt lat="44.80516" lon="6.97237">
        <ele>1969.6</ele>
        <time>2022-02-25T10:48:26Z</time>
      </trkpt>
      <trkpt lat="44.80516" lon="6.97237">
        <ele>1969.6</ele>
        <time>2022-02-25T10:48:27Z</time>
      </trkpt>
      <trkpt lat="44.80516" lon="6.97237">
        <ele>1969.6</ele>
        <time>2022-02-25T10:48:28Z</time>
      </trkpt>
      <trkpt lat="44.80516" lon="6.97237">
        <ele>1969.6</ele>
        <time>2022-02-25T10:48:29Z</time>
      </trkpt>
      <trkpt lat="44.80516" lon="6.97237">
        <ele>1969.6</ele>
        <time>2022-02-25T10:48:30Z</time>
      </trkpt>
      <trkpt lat="44.80514" lon="6.97236">
        <ele>1970.5</ele>
        <time>2022-02-25T10:48:31Z</time>
      </trkpt>
      <trkpt lat="44.80514" lon="6.97236">
        <ele>1970.5</ele>
        <time>2022-02-25T10:48:32Z</time>
      </trkpt>
      <trkpt lat="44.80514" lon="6.97236">
        <ele>1970.5</ele>
        <time>2022-02-25T10:48:33Z</time>
      </trkpt>
      <trkpt lat="44.80514" lon="6.97236">
        <ele>1970.5</ele>
        <time>2022-02-25T10:48:34Z</time>
      </trkpt>
      <trkpt lat="44.80512" lon="6.97235">
        <ele>1971.4</ele>
        <time>2022-02-25T10:48:35Z</time>
      </trkpt>
      <trkpt lat="44.80512" lon="6.97235">
        <ele>1971.4</ele>
        <time>2022-02-25T10:48:36Z</time>
      </trkpt>
      <trkpt lat="44.80512" lon="6.97235">
        <ele>1971.4</ele>
        <time>2022-02-25T10:48:37Z</time>
      </trkpt>
      <trkpt lat="44.80512" lon="6.97235">
        <ele>1971.4</ele>
        <time>2022-02-25T10:48:38Z</time>
      </trkpt>
      <trkpt lat="44.80512" lon="6.97235">
        <ele>1971.4</ele>
        <time>2022-02-25T10:48:39Z</time>
      </trkpt>
      <trkpt lat="44.80512" lon="6.97235">
        <ele>1971.4</ele>
        <time>2022-02-25T10:48:40Z</time>
      </trkpt>
      <trkpt lat="44.8051" lon="6.97236">
        <ele>1971.8</ele>
        <time>2022-02-25T10:48:41Z</time>
      </trkpt>
      <trkpt lat="44.8051" lon="6.97236">
        <ele>1971.8</ele>
        <time>2022-02-25T10:48:42Z</time>
      </trkpt>
      <trkpt lat="44.8051" lon="6.97236">
        <ele>1971.8</ele>
        <time>2022-02-25T10:48:43Z</time>
      </trkpt>
      <trkpt lat="44.8051" lon="6.97236">
        <ele>1971.8</ele>
        <time>2022-02-25T10:48:44Z</time>
      </trkpt>
      <trkpt lat="44.8051" lon="6.97236">
        <ele>1971.8</ele>
        <time>2022-02-25T10:48:45Z</time>
      </trkpt>
      <trkpt lat="44.8051" lon="6.97236">
        <ele>1971.8</ele>
        <time>2022-02-25T10:48:46Z</time>
      </trkpt>
      <trkpt lat="44.80509" lon="6.97238">
        <ele>1971.7</ele>
        <time>2022-02-25T10:48:47Z</time>
      </trkpt>
      <trkpt lat="44.80509" lon="6.97238">
        <ele>1971.7</ele>
        <time>2022-02-25T10:48:48Z</time>
      </trkpt>
      <trkpt lat="44.80509" lon="6.97238">
        <ele>1971.7</ele>
        <time>2022-02-25T10:48:49Z</time>
      </trkpt>
      <trkpt lat="44.80509" lon="6.97238">
        <ele>1971.7</ele>
        <time>2022-02-25T10:48:50Z</time>
      </trkpt>
      <trkpt lat="44.80506" lon="6.97238">
        <ele>1972.6</ele>
        <time>2022-02-25T10:48:51Z</time>
      </trkpt>
      <trkpt lat="44.80506" lon="6.97238">
        <ele>1972.6</ele>
        <time>2022-02-25T10:48:52Z</time>
      </trkpt>
      <trkpt lat="44.80506" lon="6.97238">
        <ele>1972.6</ele>
        <time>2022-02-25T10:48:53Z</time>
      </trkpt>
      <trkpt lat="44.80506" lon="6.97238">
        <ele>1972.6</ele>
        <time>2022-02-25T10:48:54Z</time>
      </trkpt>
      <trkpt lat="44.80506" lon="6.97238">
        <ele>1972.6</ele>
        <time>2022-02-25T10:48:55Z</time>
      </trkpt>
      <trkpt lat="44.80506" lon="6.97238">
        <ele>1972.6</ele>
        <time>2022-02-25T10:48:56Z</time>
      </trkpt>
      <trkpt lat="44.80506" lon="6.97238">
        <ele>1972.6</ele>
        <time>2022-02-25T10:48:57Z</time>
      </trkpt>
      <trkpt lat="44.80504" lon="6.97236">
        <ele>1973.7</ele>
        <time>2022-02-25T10:48:58Z</time>
      </trkpt>
      <trkpt lat="44.80504" lon="6.97236">
        <ele>1973.7</ele>
        <time>2022-02-25T10:48:59Z</time>
      </trkpt>
      <trkpt lat="44.80504" lon="6.97236">
        <ele>1973.7</ele>
        <time>2022-02-25T10:49:00Z</time>
      </trkpt>
      <trkpt lat="44.80504" lon="6.97236">
        <ele>1973.7</ele>
        <time>2022-02-25T10:49:01Z</time>
      </trkpt>
      <trkpt lat="44.80504" lon="6.97236">
        <ele>1973.7</ele>
        <time>2022-02-25T10:49:02Z</time>
      </trkpt>
      <trkpt lat="44.80504" lon="6.97236">
        <ele>1973.7</ele>
        <time>2022-02-25T10:49:03Z</time>
      </trkpt>
      <trkpt lat="44.80504" lon="6.97236">
        <ele>1973.7</ele>
        <time>2022-02-25T10:49:04Z</time>
      </trkpt>
      <trkpt lat="44.80504" lon="6.97236">
        <ele>1973.7</ele>
        <time>2022-02-25T10:49:05Z</time>
      </trkpt>
      <trkpt lat="44.80505" lon="6.97234">
        <ele>1973.8</ele>
        <time>2022-02-25T10:49:06Z</time>
      </trkpt>
      <trkpt lat="44.80505" lon="6.97234">
        <ele>1973.8</ele>
        <time>2022-02-25T10:49:07Z</time>
      </trkpt>
      <trkpt lat="44.80505" lon="6.97234">
        <ele>1973.8</ele>
        <time>2022-02-25T10:49:08Z</time>
      </trkpt>
      <trkpt lat="44.80505" lon="6.97234">
        <ele>1973.8</ele>
        <time>2022-02-25T10:49:09Z</time>
      </trkpt>
      <trkpt lat="44.80505" lon="6.97234">
        <ele>1973.8</ele>
        <time>2022-02-25T10:49:10Z</time>
      </trkpt>
      <trkpt lat="44.80505" lon="6.97234">
        <ele>1973.8</ele>
        <time>2022-02-25T10:49:11Z</time>
      </trkpt>
      <trkpt lat="44.80505" lon="6.97234">
        <ele>1973.8</ele>
        <time>2022-02-25T10:49:12Z</time>
      </trkpt>
      <trkpt lat="44.80505" lon="6.97234">
        <ele>1973.8</ele>
        <time>2022-02-25T10:49:13Z</time>
      </trkpt>
      <trkpt lat="44.80505" lon="6.97234">
        <ele>1973.8</ele>
        <time>2022-02-25T10:49:14Z</time>
      </trkpt>
      <trkpt lat="44.80505" lon="6.97234">
        <ele>1973.8</ele>
        <time>2022-02-25T10:49:15Z</time>
      </trkpt>
      <trkpt lat="44.80505" lon="6.97234">
        <ele>1973.8</ele>
        <time>2022-02-25T10:49:16Z</time>
      </trkpt>
      <trkpt lat="44.80505" lon="6.97234">
        <ele>1973.8</ele>
        <time>2022-02-25T10:49:17Z</time>
      </trkpt>
      <trkpt lat="44.80505" lon="6.97234">
        <ele>1973.8</ele>
        <time>2022-02-25T10:49:18Z</time>
      </trkpt>
      <trkpt lat="44.80505" lon="6.97234">
        <ele>1973.8</ele>
        <time>2022-02-25T10:49:19Z</time>
      </trkpt>
      <trkpt lat="44.80505" lon="6.97234">
        <ele>1973.8</ele>
        <time>2022-02-25T10:49:20Z</time>
      </trkpt>
      <trkpt lat="44.80505" lon="6.97234">
        <ele>1973.8</ele>
        <time>2022-02-25T10:49:21Z</time>
      </trkpt>
      <trkpt lat="44.80505" lon="6.97234">
        <ele>1973.8</ele>
        <time>2022-02-25T10:49:22Z</time>
      </trkpt>
      <trkpt lat="44.80505" lon="6.97234">
        <ele>1973.8</ele>
        <time>2022-02-25T10:49:23Z</time>
      </trkpt>
      <trkpt lat="44.80505" lon="6.97234">
        <ele>1973.8</ele>
        <time>2022-02-25T10:49:24Z</time>
      </trkpt>
      <trkpt lat="44.80505" lon="6.97234">
        <ele>1973.8</ele>
        <time>2022-02-25T10:49:25Z</time>
      </trkpt>
      <trkpt lat="44.80505" lon="6.97234">
        <ele>1973.8</ele>
        <time>2022-02-25T10:49:26Z</time>
      </trkpt>
      <trkpt lat="44.80505" lon="6.97234">
        <ele>1973.8</ele>
        <time>2022-02-25T10:49:27Z</time>
      </trkpt>
      <trkpt lat="44.80505" lon="6.97234">
        <ele>1973.8</ele>
        <time>2022-02-25T10:49:28Z</time>
      </trkpt>
      <trkpt lat="44.80505" lon="6.97234">
        <ele>1973.8</ele>
        <time>2022-02-25T10:49:29Z</time>
      </trkpt>
      <trkpt lat="44.80505" lon="6.97234">
        <ele>1973.8</ele>
        <time>2022-02-25T10:49:30Z</time>
      </trkpt>
      <trkpt lat="44.80505" lon="6.97234">
        <ele>1973.8</ele>
        <time>2022-02-25T10:49:31Z</time>
      </trkpt>
      <trkpt lat="44.80505" lon="6.97234">
        <ele>1973.8</ele>
        <time>2022-02-25T10:49:32Z</time>
      </trkpt>
      <trkpt lat="44.80505" lon="6.97234">
        <ele>1973.8</ele>
        <time>2022-02-25T10:49:33Z</time>
      </trkpt>
      <trkpt lat="44.80505" lon="6.97234">
        <ele>1973.8</ele>
        <time>2022-02-25T10:49:34Z</time>
      </trkpt>
      <trkpt lat="44.80505" lon="6.97234">
        <ele>1973.8</ele>
        <time>2022-02-25T10:49:35Z</time>
      </trkpt>
      <trkpt lat="44.80505" lon="6.97234">
        <ele>1973.8</ele>
        <time>2022-02-25T10:49:36Z</time>
      </trkpt>
      <trkpt lat="44.80505" lon="6.97234">
        <ele>1973.8</ele>
        <time>2022-02-25T10:49:37Z</time>
      </trkpt>
      <trkpt lat="44.80505" lon="6.97234">
        <ele>1973.8</ele>
        <time>2022-02-25T10:49:38Z</time>
      </trkpt>
      <trkpt lat="44.80505" lon="6.97234">
        <ele>1973.8</ele>
        <time>2022-02-25T10:49:39Z</time>
      </trkpt>
      <trkpt lat="44.80505" lon="6.97234">
        <ele>1973.8</ele>
        <time>2022-02-25T10:49:40Z</time>
      </trkpt>
      <trkpt lat="44.80505" lon="6.97234">
        <ele>1973.8</ele>
        <time>2022-02-25T10:49:41Z</time>
      </trkpt>
      <trkpt lat="44.80505" lon="6.97234">
        <ele>1973.8</ele>
        <time>2022-02-25T10:49:42Z</time>
      </trkpt>
      <trkpt lat="44.80504" lon="6.97229">
        <ele>1975.2</ele>
        <time>2022-02-25T10:49:43Z</time>
      </trkpt>
      <trkpt lat="44.80504" lon="6.97229">
        <ele>1975.2</ele>
        <time>2022-02-25T10:49:44Z</time>
      </trkpt>
      <trkpt lat="44.80502" lon="6.97231">
        <ele>1975.5</ele>
        <time>2022-02-25T10:49:45Z</time>
      </trkpt>
      <trkpt lat="44.80502" lon="6.97231">
        <ele>1975.5</ele>
        <time>2022-02-25T10:49:46Z</time>
      </trkpt>
      <trkpt lat="44.805" lon="6.97233">
        <ele>1975.7</ele>
        <time>2022-02-25T10:49:47Z</time>
      </trkpt>
      <trkpt lat="44.805" lon="6.97233">
        <ele>1975.7</ele>
        <time>2022-02-25T10:49:48Z</time>
      </trkpt>
      <trkpt lat="44.805" lon="6.97233">
        <ele>1975.7</ele>
        <time>2022-02-25T10:49:49Z</time>
      </trkpt>
      <trkpt lat="44.80498" lon="6.97235">
        <ele>1975.9</ele>
        <time>2022-02-25T10:49:50Z</time>
      </trkpt>
      <trkpt lat="44.80498" lon="6.97235">
        <ele>1975.9</ele>
        <time>2022-02-25T10:49:51Z</time>
      </trkpt>
      <trkpt lat="44.80496" lon="6.97237">
        <ele>1976.1</ele>
        <time>2022-02-25T10:49:52Z</time>
      </trkpt>
      <trkpt lat="44.80496" lon="6.97237">
        <ele>1976.1</ele>
        <time>2022-02-25T10:49:53Z</time>
      </trkpt>
      <trkpt lat="44.80496" lon="6.97237">
        <ele>1976.1</ele>
        <time>2022-02-25T10:49:54Z</time>
      </trkpt>
      <trkpt lat="44.80495" lon="6.97239">
        <ele>1976</ele>
        <time>2022-02-25T10:49:55Z</time>
      </trkpt>
      <trkpt lat="44.80495" lon="6.97239">
        <ele>1976</ele>
        <time>2022-02-25T10:49:56Z</time>
      </trkpt>
      <trkpt lat="44.80495" lon="6.97239">
        <ele>1976</ele>
        <time>2022-02-25T10:49:57Z</time>
      </trkpt>
      <trkpt lat="44.80495" lon="6.97239">
        <ele>1976</ele>
        <time>2022-02-25T10:49:58Z</time>
      </trkpt>
      <trkpt lat="44.80493" lon="6.97242">
        <ele>1976</ele>
        <time>2022-02-25T10:49:59Z</time>
      </trkpt>
      <trkpt lat="44.80493" lon="6.97242">
        <ele>1976</ele>
        <time>2022-02-25T10:50:00Z</time>
      </trkpt>
      <trkpt lat="44.80493" lon="6.97242">
        <ele>1976</ele>
        <time>2022-02-25T10:50:01Z</time>
      </trkpt>
      <trkpt lat="44.80493" lon="6.97242">
        <ele>1976</ele>
        <time>2022-02-25T10:50:02Z</time>
      </trkpt>
      <trkpt lat="44.80493" lon="6.97242">
        <ele>1976</ele>
        <time>2022-02-25T10:50:03Z</time>
      </trkpt>
      <trkpt lat="44.80493" lon="6.97242">
        <ele>1976</ele>
        <time>2022-02-25T10:50:04Z</time>
      </trkpt>
      <trkpt lat="44.80493" lon="6.97242">
        <ele>1976</ele>
        <time>2022-02-25T10:50:05Z</time>
      </trkpt>
      <trkpt lat="44.80493" lon="6.97242">
        <ele>1976</ele>
        <time>2022-02-25T10:50:06Z</time>
      </trkpt>
      <trkpt lat="44.80492" lon="6.97245">
        <ele>1975.7</ele>
        <time>2022-02-25T10:50:07Z</time>
      </trkpt>
      <trkpt lat="44.80492" lon="6.97245">
        <ele>1975.7</ele>
        <time>2022-02-25T10:50:08Z</time>
      </trkpt>
      <trkpt lat="44.80492" lon="6.97245">
        <ele>1975.7</ele>
        <time>2022-02-25T10:50:09Z</time>
      </trkpt>
      <trkpt lat="44.8049" lon="6.97246">
        <ele>1976.1</ele>
        <time>2022-02-25T10:50:10Z</time>
      </trkpt>
      <trkpt lat="44.8049" lon="6.97246">
        <ele>1976.1</ele>
        <time>2022-02-25T10:50:11Z</time>
      </trkpt>
      <trkpt lat="44.8049" lon="6.97246">
        <ele>1976.1</ele>
        <time>2022-02-25T10:50:12Z</time>
      </trkpt>
      <trkpt lat="44.8049" lon="6.97246">
        <ele>1976.1</ele>
        <time>2022-02-25T10:50:13Z</time>
      </trkpt>
      <trkpt lat="44.80488" lon="6.97248">
        <ele>1976.3</ele>
        <time>2022-02-25T10:50:14Z</time>
      </trkpt>
      <trkpt lat="44.80488" lon="6.97248">
        <ele>1976.3</ele>
        <time>2022-02-25T10:50:15Z</time>
      </trkpt>
      <trkpt lat="44.80488" lon="6.97248">
        <ele>1976.3</ele>
        <time>2022-02-25T10:50:16Z</time>
      </trkpt>
      <trkpt lat="44.80488" lon="6.97248">
        <ele>1976.3</ele>
        <time>2022-02-25T10:50:17Z</time>
      </trkpt>
      <trkpt lat="44.80486" lon="6.9725">
        <ele>1976.5</ele>
        <time>2022-02-25T10:50:18Z</time>
      </trkpt>
      <trkpt lat="44.80486" lon="6.9725">
        <ele>1976.5</ele>
        <time>2022-02-25T10:50:19Z</time>
      </trkpt>
      <trkpt lat="44.80486" lon="6.9725">
        <ele>1976.5</ele>
        <time>2022-02-25T10:50:20Z</time>
      </trkpt>
      <trkpt lat="44.80486" lon="6.9725">
        <ele>1976.5</ele>
        <time>2022-02-25T10:50:21Z</time>
      </trkpt>
      <trkpt lat="44.80484" lon="6.9725">
        <ele>1977.2</ele>
        <time>2022-02-25T10:50:22Z</time>
      </trkpt>
      <trkpt lat="44.80484" lon="6.9725">
        <ele>1977.2</ele>
        <time>2022-02-25T10:50:23Z</time>
      </trkpt>
      <trkpt lat="44.80484" lon="6.9725">
        <ele>1977.2</ele>
        <time>2022-02-25T10:50:24Z</time>
      </trkpt>
      <trkpt lat="44.80484" lon="6.9725">
        <ele>1977.2</ele>
        <time>2022-02-25T10:50:25Z</time>
      </trkpt>
      <trkpt lat="44.80484" lon="6.9725">
        <ele>1977.2</ele>
        <time>2022-02-25T10:50:26Z</time>
      </trkpt>
      <trkpt lat="44.80481" lon="6.97252">
        <ele>1977.8</ele>
        <time>2022-02-25T10:50:27Z</time>
      </trkpt>
      <trkpt lat="44.80481" lon="6.97252">
        <ele>1977.8</ele>
        <time>2022-02-25T10:50:28Z</time>
      </trkpt>
      <trkpt lat="44.80481" lon="6.97252">
        <ele>1977.8</ele>
        <time>2022-02-25T10:50:29Z</time>
      </trkpt>
      <trkpt lat="44.80479" lon="6.97253">
        <ele>1978.3</ele>
        <time>2022-02-25T10:50:30Z</time>
      </trkpt>
      <trkpt lat="44.80479" lon="6.97253">
        <ele>1978.3</ele>
        <time>2022-02-25T10:50:31Z</time>
      </trkpt>
      <trkpt lat="44.80479" lon="6.97253">
        <ele>1978.3</ele>
        <time>2022-02-25T10:50:32Z</time>
      </trkpt>
      <trkpt lat="44.80477" lon="6.97253">
        <ele>1978.9</ele>
        <time>2022-02-25T10:50:33Z</time>
      </trkpt>
      <trkpt lat="44.80477" lon="6.97253">
        <ele>1978.9</ele>
        <time>2022-02-25T10:50:34Z</time>
      </trkpt>
      <trkpt lat="44.80477" lon="6.97253">
        <ele>1978.9</ele>
        <time>2022-02-25T10:50:35Z</time>
      </trkpt>
      <trkpt lat="44.80477" lon="6.97253">
        <ele>1978.9</ele>
        <time>2022-02-25T10:50:36Z</time>
      </trkpt>
      <trkpt lat="44.80475" lon="6.97253">
        <ele>1979.6</ele>
        <time>2022-02-25T10:50:37Z</time>
      </trkpt>
      <trkpt lat="44.80475" lon="6.97253">
        <ele>1979.6</ele>
        <time>2022-02-25T10:50:38Z</time>
      </trkpt>
      <trkpt lat="44.80475" lon="6.97253">
        <ele>1979.6</ele>
        <time>2022-02-25T10:50:39Z</time>
      </trkpt>
      <trkpt lat="44.80475" lon="6.97253">
        <ele>1979.6</ele>
        <time>2022-02-25T10:50:40Z</time>
      </trkpt>
      <trkpt lat="44.80475" lon="6.97253">
        <ele>1979.6</ele>
        <time>2022-02-25T10:50:41Z</time>
      </trkpt>
      <trkpt lat="44.80473" lon="6.97254">
        <ele>1980</ele>
        <time>2022-02-25T10:50:42Z</time>
      </trkpt>
      <trkpt lat="44.80473" lon="6.97254">
        <ele>1980</ele>
        <time>2022-02-25T10:50:43Z</time>
      </trkpt>
      <trkpt lat="44.80473" lon="6.97254">
        <ele>1980</ele>
        <time>2022-02-25T10:50:44Z</time>
      </trkpt>
      <trkpt lat="44.80473" lon="6.97254">
        <ele>1980</ele>
        <time>2022-02-25T10:50:45Z</time>
      </trkpt>
      <trkpt lat="44.80473" lon="6.97254">
        <ele>1980</ele>
        <time>2022-02-25T10:50:46Z</time>
      </trkpt>
      <trkpt lat="44.80471" lon="6.97253">
        <ele>1980.9</ele>
        <time>2022-02-25T10:50:47Z</time>
      </trkpt>
      <trkpt lat="44.80471" lon="6.97253">
        <ele>1980.9</ele>
        <time>2022-02-25T10:50:48Z</time>
      </trkpt>
      <trkpt lat="44.80469" lon="6.97253">
        <ele>1981.6</ele>
        <time>2022-02-25T10:50:49Z</time>
      </trkpt>
      <trkpt lat="44.80469" lon="6.97253">
        <ele>1981.6</ele>
        <time>2022-02-25T10:50:50Z</time>
      </trkpt>
      <trkpt lat="44.80469" lon="6.97253">
        <ele>1981.6</ele>
        <time>2022-02-25T10:50:51Z</time>
      </trkpt>
      <trkpt lat="44.80469" lon="6.97253">
        <ele>1981.6</ele>
        <time>2022-02-25T10:50:52Z</time>
      </trkpt>
      <trkpt lat="44.80467" lon="6.97254">
        <ele>1982.2</ele>
        <time>2022-02-25T10:50:53Z</time>
      </trkpt>
      <trkpt lat="44.80467" lon="6.97254">
        <ele>1982.2</ele>
        <time>2022-02-25T10:50:54Z</time>
      </trkpt>
      <trkpt lat="44.80467" lon="6.97254">
        <ele>1982.2</ele>
        <time>2022-02-25T10:50:55Z</time>
      </trkpt>
      <trkpt lat="44.80467" lon="6.97254">
        <ele>1982.2</ele>
        <time>2022-02-25T10:50:56Z</time>
      </trkpt>
      <trkpt lat="44.80465" lon="6.97253">
        <ele>1983.1</ele>
        <time>2022-02-25T10:50:57Z</time>
      </trkpt>
      <trkpt lat="44.80465" lon="6.97253">
        <ele>1983.1</ele>
        <time>2022-02-25T10:50:58Z</time>
      </trkpt>
      <trkpt lat="44.80465" lon="6.97253">
        <ele>1983.1</ele>
        <time>2022-02-25T10:50:59Z</time>
      </trkpt>
      <trkpt lat="44.80464" lon="6.97249">
        <ele>1984.2</ele>
        <time>2022-02-25T10:51:00Z</time>
      </trkpt>
      <trkpt lat="44.80464" lon="6.97249">
        <ele>1984.2</ele>
        <time>2022-02-25T10:51:01Z</time>
      </trkpt>
      <trkpt lat="44.80462" lon="6.97248">
        <ele>1985.1</ele>
        <time>2022-02-25T10:51:02Z</time>
      </trkpt>
      <trkpt lat="44.80462" lon="6.97248">
        <ele>1985.1</ele>
        <time>2022-02-25T10:51:03Z</time>
      </trkpt>
      <trkpt lat="44.80462" lon="6.97248">
        <ele>1985.1</ele>
        <time>2022-02-25T10:51:04Z</time>
      </trkpt>
      <trkpt lat="44.80462" lon="6.97248">
        <ele>1985.1</ele>
        <time>2022-02-25T10:51:05Z</time>
      </trkpt>
      <trkpt lat="44.80461" lon="6.97246">
        <ele>1985.9</ele>
        <time>2022-02-25T10:51:06Z</time>
      </trkpt>
      <trkpt lat="44.80461" lon="6.97246">
        <ele>1985.9</ele>
        <time>2022-02-25T10:51:07Z</time>
      </trkpt>
      <trkpt lat="44.80461" lon="6.97246">
        <ele>1985.9</ele>
        <time>2022-02-25T10:51:08Z</time>
      </trkpt>
      <trkpt lat="44.80461" lon="6.97246">
        <ele>1985.9</ele>
        <time>2022-02-25T10:51:09Z</time>
      </trkpt>
      <trkpt lat="44.80461" lon="6.97243">
        <ele>1986.6</ele>
        <time>2022-02-25T10:51:10Z</time>
      </trkpt>
      <trkpt lat="44.80461" lon="6.97243">
        <ele>1986.6</ele>
        <time>2022-02-25T10:51:11Z</time>
      </trkpt>
      <trkpt lat="44.80461" lon="6.97243">
        <ele>1986.6</ele>
        <time>2022-02-25T10:51:12Z</time>
      </trkpt>
      <trkpt lat="44.80461" lon="6.97243">
        <ele>1986.6</ele>
        <time>2022-02-25T10:51:13Z</time>
      </trkpt>
      <trkpt lat="44.80461" lon="6.9724">
        <ele>1987.2</ele>
        <time>2022-02-25T10:51:14Z</time>
      </trkpt>
      <trkpt lat="44.80461" lon="6.9724">
        <ele>1987.2</ele>
        <time>2022-02-25T10:51:15Z</time>
      </trkpt>
      <trkpt lat="44.80461" lon="6.9724">
        <ele>1987.2</ele>
        <time>2022-02-25T10:51:16Z</time>
      </trkpt>
      <trkpt lat="44.80461" lon="6.9724">
        <ele>1987.2</ele>
        <time>2022-02-25T10:51:17Z</time>
      </trkpt>
      <trkpt lat="44.80461" lon="6.9724">
        <ele>1987.2</ele>
        <time>2022-02-25T10:51:18Z</time>
      </trkpt>
      <trkpt lat="44.80461" lon="6.9724">
        <ele>1987.2</ele>
        <time>2022-02-25T10:51:19Z</time>
      </trkpt>
      <trkpt lat="44.80461" lon="6.9724">
        <ele>1987.2</ele>
        <time>2022-02-25T10:51:20Z</time>
      </trkpt>
      <trkpt lat="44.80461" lon="6.9724">
        <ele>1987.2</ele>
        <time>2022-02-25T10:51:21Z</time>
      </trkpt>
      <trkpt lat="44.80461" lon="6.9724">
        <ele>1987.2</ele>
        <time>2022-02-25T10:51:22Z</time>
      </trkpt>
      <trkpt lat="44.80459" lon="6.97238">
        <ele>1988.4</ele>
        <time>2022-02-25T10:51:23Z</time>
      </trkpt>
      <trkpt lat="44.80459" lon="6.97238">
        <ele>1988.4</ele>
        <time>2022-02-25T10:51:24Z</time>
      </trkpt>
      <trkpt lat="44.80459" lon="6.97238">
        <ele>1988.4</ele>
        <time>2022-02-25T10:51:25Z</time>
      </trkpt>
      <trkpt lat="44.80459" lon="6.97238">
        <ele>1988.4</ele>
        <time>2022-02-25T10:51:26Z</time>
      </trkpt>
      <trkpt lat="44.80459" lon="6.97238">
        <ele>1988.4</ele>
        <time>2022-02-25T10:51:27Z</time>
      </trkpt>
      <trkpt lat="44.80458" lon="6.97236">
        <ele>1989.1</ele>
        <time>2022-02-25T10:51:28Z</time>
      </trkpt>
      <trkpt lat="44.80458" lon="6.97236">
        <ele>1989.1</ele>
        <time>2022-02-25T10:51:29Z</time>
      </trkpt>
      <trkpt lat="44.80458" lon="6.97236">
        <ele>1989.1</ele>
        <time>2022-02-25T10:51:30Z</time>
      </trkpt>
      <trkpt lat="44.80458" lon="6.97236">
        <ele>1989.1</ele>
        <time>2022-02-25T10:51:31Z</time>
      </trkpt>
      <trkpt lat="44.80458" lon="6.97236">
        <ele>1989.1</ele>
        <time>2022-02-25T10:51:32Z</time>
      </trkpt>
      <trkpt lat="44.80457" lon="6.97233">
        <ele>1990.2</ele>
        <time>2022-02-25T10:51:33Z</time>
      </trkpt>
      <trkpt lat="44.80457" lon="6.97233">
        <ele>1990.2</ele>
        <time>2022-02-25T10:51:34Z</time>
      </trkpt>
      <trkpt lat="44.80457" lon="6.97233">
        <ele>1990.2</ele>
        <time>2022-02-25T10:51:35Z</time>
      </trkpt>
      <trkpt lat="44.80457" lon="6.97233">
        <ele>1990.2</ele>
        <time>2022-02-25T10:51:36Z</time>
      </trkpt>
      <trkpt lat="44.80457" lon="6.9723">
        <ele>1990.8</ele>
        <time>2022-02-25T10:51:37Z</time>
      </trkpt>
      <trkpt lat="44.80457" lon="6.9723">
        <ele>1990.8</ele>
        <time>2022-02-25T10:51:38Z</time>
      </trkpt>
      <trkpt lat="44.80457" lon="6.9723">
        <ele>1990.8</ele>
        <time>2022-02-25T10:51:39Z</time>
      </trkpt>
      <trkpt lat="44.80456" lon="6.97227">
        <ele>1991.8</ele>
        <time>2022-02-25T10:51:40Z</time>
      </trkpt>
      <trkpt lat="44.80456" lon="6.97227">
        <ele>1991.8</ele>
        <time>2022-02-25T10:51:41Z</time>
      </trkpt>
      <trkpt lat="44.80456" lon="6.97227">
        <ele>1991.8</ele>
        <time>2022-02-25T10:51:42Z</time>
      </trkpt>
      <trkpt lat="44.80456" lon="6.97224">
        <ele>1992.5</ele>
        <time>2022-02-25T10:51:43Z</time>
      </trkpt>
      <trkpt lat="44.80456" lon="6.97224">
        <ele>1992.5</ele>
        <time>2022-02-25T10:51:44Z</time>
      </trkpt>
      <trkpt lat="44.80456" lon="6.97224">
        <ele>1992.5</ele>
        <time>2022-02-25T10:51:45Z</time>
      </trkpt>
      <trkpt lat="44.80455" lon="6.97223">
        <ele>1993</ele>
        <time>2022-02-25T10:51:46Z</time>
      </trkpt>
      <trkpt lat="44.80455" lon="6.97223">
        <ele>1993</ele>
        <time>2022-02-25T10:51:47Z</time>
      </trkpt>
      <trkpt lat="44.80455" lon="6.97223">
        <ele>1993</ele>
        <time>2022-02-25T10:51:48Z</time>
      </trkpt>
      <trkpt lat="44.80455" lon="6.97223">
        <ele>1993</ele>
        <time>2022-02-25T10:51:49Z</time>
      </trkpt>
      <trkpt lat="44.80455" lon="6.97223">
        <ele>1993</ele>
        <time>2022-02-25T10:51:50Z</time>
      </trkpt>
      <trkpt lat="44.80455" lon="6.97219">
        <ele>1993.9</ele>
        <time>2022-02-25T10:51:51Z</time>
      </trkpt>
      <trkpt lat="44.80455" lon="6.97219">
        <ele>1993.9</ele>
        <time>2022-02-25T10:51:52Z</time>
      </trkpt>
      <trkpt lat="44.80455" lon="6.97219">
        <ele>1993.9</ele>
        <time>2022-02-25T10:51:53Z</time>
      </trkpt>
      <trkpt lat="44.80454" lon="6.97217">
        <ele>1994.7</ele>
        <time>2022-02-25T10:51:54Z</time>
      </trkpt>
      <trkpt lat="44.80454" lon="6.97217">
        <ele>1994.7</ele>
        <time>2022-02-25T10:51:55Z</time>
      </trkpt>
      <trkpt lat="44.80454" lon="6.97217">
        <ele>1994.7</ele>
        <time>2022-02-25T10:51:56Z</time>
      </trkpt>
      <trkpt lat="44.80453" lon="6.97214">
        <ele>1995.7</ele>
        <time>2022-02-25T10:51:57Z</time>
      </trkpt>
      <trkpt lat="44.80453" lon="6.97214">
        <ele>1995.7</ele>
        <time>2022-02-25T10:51:58Z</time>
      </trkpt>
      <trkpt lat="44.80453" lon="6.97214">
        <ele>1995.7</ele>
        <time>2022-02-25T10:51:59Z</time>
      </trkpt>
      <trkpt lat="44.80453" lon="6.97214">
        <ele>1995.7</ele>
        <time>2022-02-25T10:52:00Z</time>
      </trkpt>
      <trkpt lat="44.80453" lon="6.97214">
        <ele>1995.7</ele>
        <time>2022-02-25T10:52:01Z</time>
      </trkpt>
      <trkpt lat="44.80453" lon="6.97214">
        <ele>1995.7</ele>
        <time>2022-02-25T10:52:02Z</time>
      </trkpt>
      <trkpt lat="44.80453" lon="6.97211">
        <ele>1996.3</ele>
        <time>2022-02-25T10:52:03Z</time>
      </trkpt>
      <trkpt lat="44.80453" lon="6.97211">
        <ele>1996.3</ele>
        <time>2022-02-25T10:52:04Z</time>
      </trkpt>
      <trkpt lat="44.80453" lon="6.97211">
        <ele>1996.3</ele>
        <time>2022-02-25T10:52:05Z</time>
      </trkpt>
      <trkpt lat="44.80453" lon="6.97211">
        <ele>1996.3</ele>
        <time>2022-02-25T10:52:06Z</time>
      </trkpt>
      <trkpt lat="44.80453" lon="6.97211">
        <ele>1996.3</ele>
        <time>2022-02-25T10:52:07Z</time>
      </trkpt>
      <trkpt lat="44.80453" lon="6.97211">
        <ele>1996.3</ele>
        <time>2022-02-25T10:52:08Z</time>
      </trkpt>
      <trkpt lat="44.80452" lon="6.97209">
        <ele>1997.1</ele>
        <time>2022-02-25T10:52:09Z</time>
      </trkpt>
      <trkpt lat="44.80452" lon="6.97209">
        <ele>1997.1</ele>
        <time>2022-02-25T10:52:10Z</time>
      </trkpt>
      <trkpt lat="44.80452" lon="6.97209">
        <ele>1997.1</ele>
        <time>2022-02-25T10:52:11Z</time>
      </trkpt>
      <trkpt lat="44.80452" lon="6.97209">
        <ele>1997.1</ele>
        <time>2022-02-25T10:52:12Z</time>
      </trkpt>
      <trkpt lat="44.80452" lon="6.97209">
        <ele>1997.1</ele>
        <time>2022-02-25T10:52:13Z</time>
      </trkpt>
      <trkpt lat="44.80452" lon="6.97209">
        <ele>1997.1</ele>
        <time>2022-02-25T10:52:14Z</time>
      </trkpt>
      <trkpt lat="44.8045" lon="6.97206">
        <ele>1998.5</ele>
        <time>2022-02-25T10:52:15Z</time>
      </trkpt>
      <trkpt lat="44.8045" lon="6.97206">
        <ele>1998.5</ele>
        <time>2022-02-25T10:52:16Z</time>
      </trkpt>
      <trkpt lat="44.8045" lon="6.97206">
        <ele>1998.5</ele>
        <time>2022-02-25T10:52:17Z</time>
      </trkpt>
      <trkpt lat="44.8045" lon="6.97206">
        <ele>1998.5</ele>
        <time>2022-02-25T10:52:18Z</time>
      </trkpt>
      <trkpt lat="44.8045" lon="6.97203">
        <ele>1999.2</ele>
        <time>2022-02-25T10:52:19Z</time>
      </trkpt>
      <trkpt lat="44.8045" lon="6.97203">
        <ele>1999.2</ele>
        <time>2022-02-25T10:52:20Z</time>
      </trkpt>
      <trkpt lat="44.80451" lon="6.97199">
        <ele>1999.7</ele>
        <time>2022-02-25T10:52:21Z</time>
      </trkpt>
      <trkpt lat="44.80451" lon="6.97199">
        <ele>1999.7</ele>
        <time>2022-02-25T10:52:22Z</time>
      </trkpt>
      <trkpt lat="44.80451" lon="6.97199">
        <ele>1999.7</ele>
        <time>2022-02-25T10:52:23Z</time>
      </trkpt>
      <trkpt lat="44.80451" lon="6.97199">
        <ele>1999.7</ele>
        <time>2022-02-25T10:52:24Z</time>
      </trkpt>
      <trkpt lat="44.80449" lon="6.97198">
        <ele>2000.6</ele>
        <time>2022-02-25T10:52:25Z</time>
      </trkpt>
      <trkpt lat="44.80449" lon="6.97198">
        <ele>2000.6</ele>
        <time>2022-02-25T10:52:26Z</time>
      </trkpt>
      <trkpt lat="44.80449" lon="6.97198">
        <ele>2000.6</ele>
        <time>2022-02-25T10:52:27Z</time>
      </trkpt>
      <trkpt lat="44.80449" lon="6.97198">
        <ele>2000.6</ele>
        <time>2022-02-25T10:52:28Z</time>
      </trkpt>
      <trkpt lat="44.80448" lon="6.97195">
        <ele>2001.6</ele>
        <time>2022-02-25T10:52:29Z</time>
      </trkpt>
      <trkpt lat="44.80448" lon="6.97195">
        <ele>2001.6</ele>
        <time>2022-02-25T10:52:30Z</time>
      </trkpt>
      <trkpt lat="44.80448" lon="6.97195">
        <ele>2001.6</ele>
        <time>2022-02-25T10:52:31Z</time>
      </trkpt>
      <trkpt lat="44.80448" lon="6.97195">
        <ele>2001.6</ele>
        <time>2022-02-25T10:52:32Z</time>
      </trkpt>
      <trkpt lat="44.80447" lon="6.97193">
        <ele>2002.3</ele>
        <time>2022-02-25T10:52:33Z</time>
      </trkpt>
      <trkpt lat="44.80447" lon="6.97193">
        <ele>2002.3</ele>
        <time>2022-02-25T10:52:34Z</time>
      </trkpt>
      <trkpt lat="44.80447" lon="6.97193">
        <ele>2002.3</ele>
        <time>2022-02-25T10:52:35Z</time>
      </trkpt>
      <trkpt lat="44.80447" lon="6.97193">
        <ele>2002.3</ele>
        <time>2022-02-25T10:52:36Z</time>
      </trkpt>
      <trkpt lat="44.80447" lon="6.9719">
        <ele>2002.9</ele>
        <time>2022-02-25T10:52:37Z</time>
      </trkpt>
      <trkpt lat="44.80447" lon="6.9719">
        <ele>2002.9</ele>
        <time>2022-02-25T10:52:38Z</time>
      </trkpt>
      <trkpt lat="44.80447" lon="6.9719">
        <ele>2002.9</ele>
        <time>2022-02-25T10:52:39Z</time>
      </trkpt>
      <trkpt lat="44.80447" lon="6.9719">
        <ele>2002.9</ele>
        <time>2022-02-25T10:52:40Z</time>
      </trkpt>
      <trkpt lat="44.80447" lon="6.97187">
        <ele>2003.4</ele>
        <time>2022-02-25T10:52:41Z</time>
      </trkpt>
      <trkpt lat="44.80447" lon="6.97187">
        <ele>2003.4</ele>
        <time>2022-02-25T10:52:42Z</time>
      </trkpt>
      <trkpt lat="44.80447" lon="6.97187">
        <ele>2003.4</ele>
        <time>2022-02-25T10:52:43Z</time>
      </trkpt>
      <trkpt lat="44.80447" lon="6.97187">
        <ele>2003.4</ele>
        <time>2022-02-25T10:52:44Z</time>
      </trkpt>
      <trkpt lat="44.80447" lon="6.97183">
        <ele>2004.2</ele>
        <time>2022-02-25T10:52:45Z</time>
      </trkpt>
      <trkpt lat="44.80447" lon="6.97183">
        <ele>2004.2</ele>
        <time>2022-02-25T10:52:46Z</time>
      </trkpt>
      <trkpt lat="44.80447" lon="6.97183">
        <ele>2004.2</ele>
        <time>2022-02-25T10:52:47Z</time>
      </trkpt>
      <trkpt lat="44.80448" lon="6.9718">
        <ele>2004.4</ele>
        <time>2022-02-25T10:52:48Z</time>
      </trkpt>
      <trkpt lat="44.80448" lon="6.9718">
        <ele>2004.4</ele>
        <time>2022-02-25T10:52:49Z</time>
      </trkpt>
      <trkpt lat="44.80448" lon="6.9718">
        <ele>2004.4</ele>
        <time>2022-02-25T10:52:50Z</time>
      </trkpt>
      <trkpt lat="44.80448" lon="6.9718">
        <ele>2004.4</ele>
        <time>2022-02-25T10:52:51Z</time>
      </trkpt>
      <trkpt lat="44.80448" lon="6.97177">
        <ele>2004.9</ele>
        <time>2022-02-25T10:52:52Z</time>
      </trkpt>
      <trkpt lat="44.80448" lon="6.97177">
        <ele>2004.9</ele>
        <time>2022-02-25T10:52:53Z</time>
      </trkpt>
      <trkpt lat="44.80448" lon="6.97177">
        <ele>2004.9</ele>
        <time>2022-02-25T10:52:54Z</time>
      </trkpt>
      <trkpt lat="44.80448" lon="6.97177">
        <ele>2004.9</ele>
        <time>2022-02-25T10:52:55Z</time>
      </trkpt>
      <trkpt lat="44.80448" lon="6.97177">
        <ele>2004.9</ele>
        <time>2022-02-25T10:52:56Z</time>
      </trkpt>
      <trkpt lat="44.80447" lon="6.97173">
        <ele>2006</ele>
        <time>2022-02-25T10:52:57Z</time>
      </trkpt>
      <trkpt lat="44.80447" lon="6.97173">
        <ele>2006</ele>
        <time>2022-02-25T10:52:58Z</time>
      </trkpt>
      <trkpt lat="44.80447" lon="6.97173">
        <ele>2006</ele>
        <time>2022-02-25T10:52:59Z</time>
      </trkpt>
      <trkpt lat="44.80447" lon="6.97173">
        <ele>2006</ele>
        <time>2022-02-25T10:53:00Z</time>
      </trkpt>
      <trkpt lat="44.80447" lon="6.97173">
        <ele>2006</ele>
        <time>2022-02-25T10:53:01Z</time>
      </trkpt>
      <trkpt lat="44.80447" lon="6.9717">
        <ele>2006.6</ele>
        <time>2022-02-25T10:53:02Z</time>
      </trkpt>
      <trkpt lat="44.80447" lon="6.9717">
        <ele>2006.6</ele>
        <time>2022-02-25T10:53:03Z</time>
      </trkpt>
      <trkpt lat="44.80447" lon="6.9717">
        <ele>2006.6</ele>
        <time>2022-02-25T10:53:04Z</time>
      </trkpt>
      <trkpt lat="44.80447" lon="6.9717">
        <ele>2006.6</ele>
        <time>2022-02-25T10:53:05Z</time>
      </trkpt>
      <trkpt lat="44.80447" lon="6.9717">
        <ele>2006.6</ele>
        <time>2022-02-25T10:53:06Z</time>
      </trkpt>
      <trkpt lat="44.80447" lon="6.9717">
        <ele>2006.6</ele>
        <time>2022-02-25T10:53:07Z</time>
      </trkpt>
      <trkpt lat="44.80445" lon="6.97171">
        <ele>2007</ele>
        <time>2022-02-25T10:53:08Z</time>
      </trkpt>
      <trkpt lat="44.80445" lon="6.97171">
        <ele>2007</ele>
        <time>2022-02-25T10:53:09Z</time>
      </trkpt>
      <trkpt lat="44.80445" lon="6.97171">
        <ele>2007</ele>
        <time>2022-02-25T10:53:10Z</time>
      </trkpt>
      <trkpt lat="44.80445" lon="6.97171">
        <ele>2007</ele>
        <time>2022-02-25T10:53:11Z</time>
      </trkpt>
      <trkpt lat="44.80445" lon="6.97171">
        <ele>2007</ele>
        <time>2022-02-25T10:53:12Z</time>
      </trkpt>
      <trkpt lat="44.80445" lon="6.97171">
        <ele>2007</ele>
        <time>2022-02-25T10:53:13Z</time>
      </trkpt>
      <trkpt lat="44.80445" lon="6.97171">
        <ele>2007</ele>
        <time>2022-02-25T10:53:14Z</time>
      </trkpt>
      <trkpt lat="44.80445" lon="6.97171">
        <ele>2007</ele>
        <time>2022-02-25T10:53:15Z</time>
      </trkpt>
      <trkpt lat="44.80445" lon="6.97171">
        <ele>2007</ele>
        <time>2022-02-25T10:53:16Z</time>
      </trkpt>
      <trkpt lat="44.80445" lon="6.97171">
        <ele>2007</ele>
        <time>2022-02-25T10:53:17Z</time>
      </trkpt>
      <trkpt lat="44.80445" lon="6.97171">
        <ele>2007</ele>
        <time>2022-02-25T10:53:18Z</time>
      </trkpt>
      <trkpt lat="44.80445" lon="6.97171">
        <ele>2007</ele>
        <time>2022-02-25T10:53:19Z</time>
      </trkpt>
      <trkpt lat="44.80445" lon="6.97171">
        <ele>2007</ele>
        <time>2022-02-25T10:53:20Z</time>
      </trkpt>
      <trkpt lat="44.80445" lon="6.97171">
        <ele>2007</ele>
        <time>2022-02-25T10:53:21Z</time>
      </trkpt>
      <trkpt lat="44.80445" lon="6.97171">
        <ele>2007</ele>
        <time>2022-02-25T10:53:22Z</time>
      </trkpt>
      <trkpt lat="44.80445" lon="6.97171">
        <ele>2007</ele>
        <time>2022-02-25T10:53:23Z</time>
      </trkpt>
      <trkpt lat="44.80445" lon="6.97171">
        <ele>2007</ele>
        <time>2022-02-25T10:53:24Z</time>
      </trkpt>
      <trkpt lat="44.80445" lon="6.97171">
        <ele>2007</ele>
        <time>2022-02-25T10:53:25Z</time>
      </trkpt>
      <trkpt lat="44.80445" lon="6.97171">
        <ele>2007</ele>
        <time>2022-02-25T10:53:26Z</time>
      </trkpt>
      <trkpt lat="44.80445" lon="6.97171">
        <ele>2007</ele>
        <time>2022-02-25T10:53:27Z</time>
      </trkpt>
      <trkpt lat="44.80445" lon="6.97171">
        <ele>2007</ele>
        <time>2022-02-25T10:53:28Z</time>
      </trkpt>
      <trkpt lat="44.80445" lon="6.97171">
        <ele>2007</ele>
        <time>2022-02-25T10:53:29Z</time>
      </trkpt>
      <trkpt lat="44.80445" lon="6.97171">
        <ele>2007</ele>
        <time>2022-02-25T10:53:30Z</time>
      </trkpt>
      <trkpt lat="44.80445" lon="6.97171">
        <ele>2007</ele>
        <time>2022-02-25T10:53:31Z</time>
      </trkpt>
      <trkpt lat="44.80445" lon="6.97171">
        <ele>2007</ele>
        <time>2022-02-25T10:53:32Z</time>
      </trkpt>
      <trkpt lat="44.80445" lon="6.97171">
        <ele>2007</ele>
        <time>2022-02-25T10:53:33Z</time>
      </trkpt>
      <trkpt lat="44.80445" lon="6.97171">
        <ele>2007</ele>
        <time>2022-02-25T10:53:34Z</time>
      </trkpt>
      <trkpt lat="44.80445" lon="6.97171">
        <ele>2007</ele>
        <time>2022-02-25T10:53:35Z</time>
      </trkpt>
      <trkpt lat="44.80445" lon="6.97171">
        <ele>2007</ele>
        <time>2022-02-25T10:53:36Z</time>
      </trkpt>
      <trkpt lat="44.80445" lon="6.97171">
        <ele>2007</ele>
        <time>2022-02-25T10:53:37Z</time>
      </trkpt>
      <trkpt lat="44.80445" lon="6.97174">
        <ele>2006.5</ele>
        <time>2022-02-25T10:53:38Z</time>
      </trkpt>
      <trkpt lat="44.80445" lon="6.97174">
        <ele>2006.5</ele>
        <time>2022-02-25T10:53:39Z</time>
      </trkpt>
      <trkpt lat="44.80445" lon="6.97177">
        <ele>2006</ele>
        <time>2022-02-25T10:53:40Z</time>
      </trkpt>
      <trkpt lat="44.80445" lon="6.97177">
        <ele>2006</ele>
        <time>2022-02-25T10:53:41Z</time>
      </trkpt>
      <trkpt lat="44.80445" lon="6.97177">
        <ele>2006</ele>
        <time>2022-02-25T10:53:42Z</time>
      </trkpt>
      <trkpt lat="44.80445" lon="6.9718">
        <ele>2005.4</ele>
        <time>2022-02-25T10:53:43Z</time>
      </trkpt>
      <trkpt lat="44.80445" lon="6.9718">
        <ele>2005.4</ele>
        <time>2022-02-25T10:53:44Z</time>
      </trkpt>
      <trkpt lat="44.80444" lon="6.97183">
        <ele>2005.2</ele>
        <time>2022-02-25T10:53:45Z</time>
      </trkpt>
      <trkpt lat="44.80444" lon="6.97183">
        <ele>2005.2</ele>
        <time>2022-02-25T10:53:46Z</time>
      </trkpt>
      <trkpt lat="44.80444" lon="6.97183">
        <ele>2005.2</ele>
        <time>2022-02-25T10:53:47Z</time>
      </trkpt>
      <trkpt lat="44.80443" lon="6.97186">
        <ele>2005.1</ele>
        <time>2022-02-25T10:53:48Z</time>
      </trkpt>
      <trkpt lat="44.80443" lon="6.97186">
        <ele>2005.1</ele>
        <time>2022-02-25T10:53:49Z</time>
      </trkpt>
      <trkpt lat="44.80441" lon="6.97189">
        <ele>2005.3</ele>
        <time>2022-02-25T10:53:50Z</time>
      </trkpt>
      <trkpt lat="44.80441" lon="6.97189">
        <ele>2005.3</ele>
        <time>2022-02-25T10:53:51Z</time>
      </trkpt>
      <trkpt lat="44.80441" lon="6.97189">
        <ele>2005.3</ele>
        <time>2022-02-25T10:53:52Z</time>
      </trkpt>
      <trkpt lat="44.80441" lon="6.97189">
        <ele>2005.3</ele>
        <time>2022-02-25T10:53:53Z</time>
      </trkpt>
      <trkpt lat="44.80441" lon="6.97189">
        <ele>2005.3</ele>
        <time>2022-02-25T10:53:54Z</time>
      </trkpt>
      <trkpt lat="44.8044" lon="6.97191">
        <ele>2005.4</ele>
        <time>2022-02-25T10:53:55Z</time>
      </trkpt>
      <trkpt lat="44.8044" lon="6.97191">
        <ele>2005.4</ele>
        <time>2022-02-25T10:53:56Z</time>
      </trkpt>
      <trkpt lat="44.8044" lon="6.97191">
        <ele>2005.4</ele>
        <time>2022-02-25T10:53:57Z</time>
      </trkpt>
      <trkpt lat="44.8044" lon="6.97191">
        <ele>2005.4</ele>
        <time>2022-02-25T10:53:58Z</time>
      </trkpt>
      <trkpt lat="44.80438" lon="6.97191">
        <ele>2006.2</ele>
        <time>2022-02-25T10:53:59Z</time>
      </trkpt>
      <trkpt lat="44.80438" lon="6.97191">
        <ele>2006.2</ele>
        <time>2022-02-25T10:54:00Z</time>
      </trkpt>
      <trkpt lat="44.80438" lon="6.97191">
        <ele>2006.2</ele>
        <time>2022-02-25T10:54:01Z</time>
      </trkpt>
      <trkpt lat="44.80438" lon="6.97191">
        <ele>2006.2</ele>
        <time>2022-02-25T10:54:02Z</time>
      </trkpt>
      <trkpt lat="44.80438" lon="6.97191">
        <ele>2006.2</ele>
        <time>2022-02-25T10:54:03Z</time>
      </trkpt>
      <trkpt lat="44.80438" lon="6.97191">
        <ele>2006.2</ele>
        <time>2022-02-25T10:54:04Z</time>
      </trkpt>
      <trkpt lat="44.80438" lon="6.97191">
        <ele>2006.2</ele>
        <time>2022-02-25T10:54:05Z</time>
      </trkpt>
      <trkpt lat="44.80438" lon="6.97191">
        <ele>2006.2</ele>
        <time>2022-02-25T10:54:06Z</time>
      </trkpt>
      <trkpt lat="44.80438" lon="6.97191">
        <ele>2006.2</ele>
        <time>2022-02-25T10:54:07Z</time>
      </trkpt>
      <trkpt lat="44.80438" lon="6.97191">
        <ele>2006.2</ele>
        <time>2022-02-25T10:54:08Z</time>
      </trkpt>
      <trkpt lat="44.80438" lon="6.97191">
        <ele>2006.2</ele>
        <time>2022-02-25T10:54:09Z</time>
      </trkpt>
      <trkpt lat="44.80437" lon="6.97192">
        <ele>2006.4</ele>
        <time>2022-02-25T10:54:10Z</time>
      </trkpt>
      <trkpt lat="44.80437" lon="6.97192">
        <ele>2006.4</ele>
        <time>2022-02-25T10:54:11Z</time>
      </trkpt>
      <trkpt lat="44.80437" lon="6.97192">
        <ele>2006.4</ele>
        <time>2022-02-25T10:54:12Z</time>
      </trkpt>
      <trkpt lat="44.80437" lon="6.97192">
        <ele>2006.4</ele>
        <time>2022-02-25T10:54:13Z</time>
      </trkpt>
      <trkpt lat="44.80437" lon="6.97192">
        <ele>2006.4</ele>
        <time>2022-02-25T10:54:14Z</time>
      </trkpt>
      <trkpt lat="44.80437" lon="6.97192">
        <ele>2006.4</ele>
        <time>2022-02-25T10:54:15Z</time>
      </trkpt>
      <trkpt lat="44.80437" lon="6.97192">
        <ele>2006.4</ele>
        <time>2022-02-25T10:54:16Z</time>
      </trkpt>
      <trkpt lat="44.80437" lon="6.97192">
        <ele>2006.4</ele>
        <time>2022-02-25T10:54:17Z</time>
      </trkpt>
      <trkpt lat="44.80437" lon="6.97192">
        <ele>2006.4</ele>
        <time>2022-02-25T10:54:18Z</time>
      </trkpt>
      <trkpt lat="44.80437" lon="6.97192">
        <ele>2006.4</ele>
        <time>2022-02-25T10:54:19Z</time>
      </trkpt>
      <trkpt lat="44.80437" lon="6.97192">
        <ele>2006.4</ele>
        <time>2022-02-25T10:54:20Z</time>
      </trkpt>
      <trkpt lat="44.80437" lon="6.97192">
        <ele>2006.4</ele>
        <time>2022-02-25T10:54:21Z</time>
      </trkpt>
      <trkpt lat="44.80437" lon="6.97192">
        <ele>2006.4</ele>
        <time>2022-02-25T10:54:22Z</time>
      </trkpt>
      <trkpt lat="44.80437" lon="6.97192">
        <ele>2006.4</ele>
        <time>2022-02-25T10:54:23Z</time>
      </trkpt>
      <trkpt lat="44.80437" lon="6.97192">
        <ele>2006.4</ele>
        <time>2022-02-25T10:54:24Z</time>
      </trkpt>
      <trkpt lat="44.80437" lon="6.97192">
        <ele>2006.4</ele>
        <time>2022-02-25T10:54:25Z</time>
      </trkpt>
      <trkpt lat="44.80437" lon="6.97192">
        <ele>2006.4</ele>
        <time>2022-02-25T10:54:26Z</time>
      </trkpt>
      <trkpt lat="44.80437" lon="6.97192">
        <ele>2006.4</ele>
        <time>2022-02-25T10:54:27Z</time>
      </trkpt>
      <trkpt lat="44.80437" lon="6.97192">
        <ele>2006.4</ele>
        <time>2022-02-25T10:54:28Z</time>
      </trkpt>
      <trkpt lat="44.80435" lon="6.97195">
        <ele>2006.6</ele>
        <time>2022-02-25T10:54:29Z</time>
      </trkpt>
      <trkpt lat="44.80435" lon="6.97195">
        <ele>2006.6</ele>
        <time>2022-02-25T10:54:30Z</time>
      </trkpt>
      <trkpt lat="44.80435" lon="6.97195">
        <ele>2006.6</ele>
        <time>2022-02-25T10:54:31Z</time>
      </trkpt>
      <trkpt lat="44.80433" lon="6.97197">
        <ele>2007</ele>
        <time>2022-02-25T10:54:32Z</time>
      </trkpt>
      <trkpt lat="44.80433" lon="6.97197">
        <ele>2007</ele>
        <time>2022-02-25T10:54:33Z</time>
      </trkpt>
      <trkpt lat="44.80433" lon="6.97197">
        <ele>2007</ele>
        <time>2022-02-25T10:54:34Z</time>
      </trkpt>
      <trkpt lat="44.80431" lon="6.97198">
        <ele>2007.6</ele>
        <time>2022-02-25T10:54:35Z</time>
      </trkpt>
      <trkpt lat="44.80431" lon="6.97198">
        <ele>2007.6</ele>
        <time>2022-02-25T10:54:36Z</time>
      </trkpt>
      <trkpt lat="44.80431" lon="6.97198">
        <ele>2007.6</ele>
        <time>2022-02-25T10:54:37Z</time>
      </trkpt>
      <trkpt lat="44.80431" lon="6.97198">
        <ele>2007.6</ele>
        <time>2022-02-25T10:54:38Z</time>
      </trkpt>
      <trkpt lat="44.80431" lon="6.97198">
        <ele>2007.6</ele>
        <time>2022-02-25T10:54:39Z</time>
      </trkpt>
      <trkpt lat="44.80431" lon="6.97198">
        <ele>2007.6</ele>
        <time>2022-02-25T10:54:40Z</time>
      </trkpt>
      <trkpt lat="44.80431" lon="6.97198">
        <ele>2007.6</ele>
        <time>2022-02-25T10:54:41Z</time>
      </trkpt>
      <trkpt lat="44.80431" lon="6.97199">
        <ele>2007.3</ele>
        <time>2022-02-25T10:54:42Z</time>
      </trkpt>
      <trkpt lat="44.80431" lon="6.97199">
        <ele>2007.3</ele>
        <time>2022-02-25T10:54:43Z</time>
      </trkpt>
      <trkpt lat="44.80431" lon="6.97199">
        <ele>2007.3</ele>
        <time>2022-02-25T10:54:44Z</time>
      </trkpt>
      <trkpt lat="44.80431" lon="6.97199">
        <ele>2007.3</ele>
        <time>2022-02-25T10:54:45Z</time>
      </trkpt>
      <trkpt lat="44.80431" lon="6.97199">
        <ele>2007.3</ele>
        <time>2022-02-25T10:54:46Z</time>
      </trkpt>
      <trkpt lat="44.80431" lon="6.97199">
        <ele>2007.3</ele>
        <time>2022-02-25T10:54:47Z</time>
      </trkpt>
      <trkpt lat="44.80431" lon="6.97199">
        <ele>2007.3</ele>
        <time>2022-02-25T10:54:48Z</time>
      </trkpt>
      <trkpt lat="44.80431" lon="6.97199">
        <ele>2007.3</ele>
        <time>2022-02-25T10:54:49Z</time>
      </trkpt>
      <trkpt lat="44.80431" lon="6.97199">
        <ele>2007.3</ele>
        <time>2022-02-25T10:54:50Z</time>
      </trkpt>
      <trkpt lat="44.80431" lon="6.97199">
        <ele>2007.3</ele>
        <time>2022-02-25T10:54:51Z</time>
      </trkpt>
      <trkpt lat="44.80431" lon="6.97199">
        <ele>2007.3</ele>
        <time>2022-02-25T10:54:52Z</time>
      </trkpt>
      <trkpt lat="44.80431" lon="6.97199">
        <ele>2007.3</ele>
        <time>2022-02-25T10:54:53Z</time>
      </trkpt>
      <trkpt lat="44.80431" lon="6.97199">
        <ele>2007.3</ele>
        <time>2022-02-25T10:54:54Z</time>
      </trkpt>
      <trkpt lat="44.80431" lon="6.97199">
        <ele>2007.3</ele>
        <time>2022-02-25T10:54:55Z</time>
      </trkpt>
      <trkpt lat="44.80431" lon="6.97199">
        <ele>2007.3</ele>
        <time>2022-02-25T10:54:56Z</time>
      </trkpt>
      <trkpt lat="44.8043" lon="6.97199">
        <ele>2007.7</ele>
        <time>2022-02-25T10:54:57Z</time>
      </trkpt>
      <trkpt lat="44.8043" lon="6.97199">
        <ele>2007.7</ele>
        <time>2022-02-25T10:54:58Z</time>
      </trkpt>
      <trkpt lat="44.8043" lon="6.97199">
        <ele>2007.7</ele>
        <time>2022-02-25T10:54:59Z</time>
      </trkpt>
      <trkpt lat="44.8043" lon="6.97199">
        <ele>2007.7</ele>
        <time>2022-02-25T10:55:00Z</time>
      </trkpt>
      <trkpt lat="44.8043" lon="6.97199">
        <ele>2007.7</ele>
        <time>2022-02-25T10:55:01Z</time>
      </trkpt>
      <trkpt lat="44.8043" lon="6.97199">
        <ele>2007.7</ele>
        <time>2022-02-25T10:55:02Z</time>
      </trkpt>
      <trkpt lat="44.8043" lon="6.97199">
        <ele>2007.7</ele>
        <time>2022-02-25T10:55:03Z</time>
      </trkpt>
      <trkpt lat="44.8043" lon="6.97199">
        <ele>2007.7</ele>
        <time>2022-02-25T10:55:04Z</time>
      </trkpt>
      <trkpt lat="44.8043" lon="6.97199">
        <ele>2007.7</ele>
        <time>2022-02-25T10:55:05Z</time>
      </trkpt>
      <trkpt lat="44.8043" lon="6.97199">
        <ele>2007.7</ele>
        <time>2022-02-25T10:55:06Z</time>
      </trkpt>
      <trkpt lat="44.8043" lon="6.97199">
        <ele>2007.7</ele>
        <time>2022-02-25T10:55:07Z</time>
      </trkpt>
      <trkpt lat="44.8043" lon="6.97199">
        <ele>2007.7</ele>
        <time>2022-02-25T10:55:08Z</time>
      </trkpt>
      <trkpt lat="44.8043" lon="6.97199">
        <ele>2007.7</ele>
        <time>2022-02-25T10:55:09Z</time>
      </trkpt>
      <trkpt lat="44.8043" lon="6.97199">
        <ele>2007.7</ele>
        <time>2022-02-25T10:55:10Z</time>
      </trkpt>
      <trkpt lat="44.8043" lon="6.97199">
        <ele>2007.7</ele>
        <time>2022-02-25T10:55:11Z</time>
      </trkpt>
      <trkpt lat="44.8043" lon="6.97199">
        <ele>2007.7</ele>
        <time>2022-02-25T10:55:12Z</time>
      </trkpt>
      <trkpt lat="44.8043" lon="6.97199">
        <ele>2007.7</ele>
        <time>2022-02-25T10:55:13Z</time>
      </trkpt>
      <trkpt lat="44.8043" lon="6.97199">
        <ele>2007.7</ele>
        <time>2022-02-25T10:55:14Z</time>
      </trkpt>
      <trkpt lat="44.8043" lon="6.97199">
        <ele>2007.7</ele>
        <time>2022-02-25T10:55:15Z</time>
      </trkpt>
      <trkpt lat="44.8043" lon="6.97199">
        <ele>2007.7</ele>
        <time>2022-02-25T10:55:16Z</time>
      </trkpt>
      <trkpt lat="44.8043" lon="6.97199">
        <ele>2007.7</ele>
        <time>2022-02-25T10:55:17Z</time>
      </trkpt>
      <trkpt lat="44.8043" lon="6.972">
        <ele>2007.5</ele>
        <time>2022-02-25T10:55:18Z</time>
      </trkpt>
      <trkpt lat="44.8043" lon="6.972">
        <ele>2007.5</ele>
        <time>2022-02-25T10:55:19Z</time>
      </trkpt>
      <trkpt lat="44.8043" lon="6.972">
        <ele>2007.5</ele>
        <time>2022-02-25T10:55:20Z</time>
      </trkpt>
      <trkpt lat="44.8043" lon="6.972">
        <ele>2007.5</ele>
        <time>2022-02-25T10:55:21Z</time>
      </trkpt>
      <trkpt lat="44.8043" lon="6.972">
        <ele>2007.5</ele>
        <time>2022-02-25T10:55:22Z</time>
      </trkpt>
      <trkpt lat="44.8043" lon="6.972">
        <ele>2007.5</ele>
        <time>2022-02-25T10:55:23Z</time>
      </trkpt>
      <trkpt lat="44.8043" lon="6.972">
        <ele>2007.5</ele>
        <time>2022-02-25T10:55:24Z</time>
      </trkpt>
      <trkpt lat="44.8043" lon="6.972">
        <ele>2007.5</ele>
        <time>2022-02-25T10:55:25Z</time>
      </trkpt>
      <trkpt lat="44.8043" lon="6.972">
        <ele>2007.5</ele>
        <time>2022-02-25T10:55:26Z</time>
      </trkpt>
      <trkpt lat="44.8043" lon="6.972">
        <ele>2007.5</ele>
        <time>2022-02-25T10:55:27Z</time>
      </trkpt>
      <trkpt lat="44.8043" lon="6.972">
        <ele>2007.5</ele>
        <time>2022-02-25T10:55:28Z</time>
      </trkpt>
      <trkpt lat="44.8043" lon="6.972">
        <ele>2007.5</ele>
        <time>2022-02-25T10:55:29Z</time>
      </trkpt>
      <trkpt lat="44.80429" lon="6.972">
        <ele>2007.9</ele>
        <time>2022-02-25T10:55:30Z</time>
      </trkpt>
      <trkpt lat="44.80429" lon="6.972">
        <ele>2007.9</ele>
        <time>2022-02-25T10:55:31Z</time>
      </trkpt>
      <trkpt lat="44.80429" lon="6.972">
        <ele>2007.9</ele>
        <time>2022-02-25T10:55:32Z</time>
      </trkpt>
      <trkpt lat="44.80429" lon="6.972">
        <ele>2007.9</ele>
        <time>2022-02-25T10:55:33Z</time>
      </trkpt>
      <trkpt lat="44.80429" lon="6.972">
        <ele>2007.9</ele>
        <time>2022-02-25T10:55:34Z</time>
      </trkpt>
      <trkpt lat="44.80429" lon="6.972">
        <ele>2007.9</ele>
        <time>2022-02-25T10:55:35Z</time>
      </trkpt>
      <trkpt lat="44.80429" lon="6.972">
        <ele>2007.9</ele>
        <time>2022-02-25T10:55:36Z</time>
      </trkpt>
      <trkpt lat="44.80429" lon="6.972">
        <ele>2007.9</ele>
        <time>2022-02-25T10:55:37Z</time>
      </trkpt>
      <trkpt lat="44.80429" lon="6.972">
        <ele>2007.9</ele>
        <time>2022-02-25T10:55:38Z</time>
      </trkpt>
      <trkpt lat="44.80429" lon="6.972">
        <ele>2007.9</ele>
        <time>2022-02-25T10:55:39Z</time>
      </trkpt>
      <trkpt lat="44.80429" lon="6.972">
        <ele>2007.9</ele>
        <time>2022-02-25T10:55:40Z</time>
      </trkpt>
      <trkpt lat="44.80429" lon="6.972">
        <ele>2007.9</ele>
        <time>2022-02-25T10:55:41Z</time>
      </trkpt>
      <trkpt lat="44.80429" lon="6.972">
        <ele>2007.9</ele>
        <time>2022-02-25T10:55:42Z</time>
      </trkpt>
      <trkpt lat="44.80429" lon="6.972">
        <ele>2007.9</ele>
        <time>2022-02-25T10:55:43Z</time>
      </trkpt>
      <trkpt lat="44.80429" lon="6.972">
        <ele>2007.9</ele>
        <time>2022-02-25T10:55:44Z</time>
      </trkpt>
      <trkpt lat="44.80429" lon="6.972">
        <ele>2007.9</ele>
        <time>2022-02-25T10:55:45Z</time>
      </trkpt>
      <trkpt lat="44.80429" lon="6.972">
        <ele>2007.9</ele>
        <time>2022-02-25T10:55:46Z</time>
      </trkpt>
      <trkpt lat="44.80429" lon="6.972">
        <ele>2007.9</ele>
        <time>2022-02-25T10:55:47Z</time>
      </trkpt>
      <trkpt lat="44.80429" lon="6.972">
        <ele>2007.9</ele>
        <time>2022-02-25T10:55:48Z</time>
      </trkpt>
      <trkpt lat="44.80429" lon="6.972">
        <ele>2007.9</ele>
        <time>2022-02-25T10:55:49Z</time>
      </trkpt>
      <trkpt lat="44.80429" lon="6.972">
        <ele>2007.9</ele>
        <time>2022-02-25T10:55:50Z</time>
      </trkpt>
      <trkpt lat="44.80429" lon="6.972">
        <ele>2007.9</ele>
        <time>2022-02-25T10:55:51Z</time>
      </trkpt>
      <trkpt lat="44.80429" lon="6.972">
        <ele>2007.9</ele>
        <time>2022-02-25T10:55:52Z</time>
      </trkpt>
      <trkpt lat="44.80429" lon="6.972">
        <ele>2007.9</ele>
        <time>2022-02-25T10:55:53Z</time>
      </trkpt>
      <trkpt lat="44.80429" lon="6.97201">
        <ele>2007.7</ele>
        <time>2022-02-25T10:55:54Z</time>
      </trkpt>
      <trkpt lat="44.80429" lon="6.97201">
        <ele>2007.7</ele>
        <time>2022-02-25T10:55:55Z</time>
      </trkpt>
      <trkpt lat="44.80429" lon="6.97201">
        <ele>2007.7</ele>
        <time>2022-02-25T10:55:56Z</time>
      </trkpt>
      <trkpt lat="44.80429" lon="6.97201">
        <ele>2007.7</ele>
        <time>2022-02-25T10:55:57Z</time>
      </trkpt>
      <trkpt lat="44.80429" lon="6.97201">
        <ele>2007.7</ele>
        <time>2022-02-25T10:55:58Z</time>
      </trkpt>
      <trkpt lat="44.80429" lon="6.97201">
        <ele>2007.7</ele>
        <time>2022-02-25T10:55:59Z</time>
      </trkpt>
      <trkpt lat="44.80429" lon="6.97201">
        <ele>2007.7</ele>
        <time>2022-02-25T10:56:00Z</time>
      </trkpt>
      <trkpt lat="44.80429" lon="6.97201">
        <ele>2007.7</ele>
        <time>2022-02-25T10:56:01Z</time>
      </trkpt>
      <trkpt lat="44.80429" lon="6.97201">
        <ele>2007.7</ele>
        <time>2022-02-25T10:56:02Z</time>
      </trkpt>
      <trkpt lat="44.80429" lon="6.97201">
        <ele>2007.7</ele>
        <time>2022-02-25T10:56:03Z</time>
      </trkpt>
      <trkpt lat="44.80428" lon="6.97201">
        <ele>2008.1</ele>
        <time>2022-02-25T10:56:04Z</time>
      </trkpt>
      <trkpt lat="44.80428" lon="6.97201">
        <ele>2008.1</ele>
        <time>2022-02-25T10:56:05Z</time>
      </trkpt>
      <trkpt lat="44.80428" lon="6.97201">
        <ele>2008.1</ele>
        <time>2022-02-25T10:56:06Z</time>
      </trkpt>
      <trkpt lat="44.80428" lon="6.97201">
        <ele>2008.1</ele>
        <time>2022-02-25T10:56:07Z</time>
      </trkpt>
      <trkpt lat="44.80428" lon="6.97201">
        <ele>2008.1</ele>
        <time>2022-02-25T10:56:08Z</time>
      </trkpt>
      <trkpt lat="44.80428" lon="6.97201">
        <ele>2008.1</ele>
        <time>2022-02-25T10:56:09Z</time>
      </trkpt>
      <trkpt lat="44.80428" lon="6.97201">
        <ele>2008.1</ele>
        <time>2022-02-25T10:56:10Z</time>
      </trkpt>
      <trkpt lat="44.80428" lon="6.97201">
        <ele>2008.1</ele>
        <time>2022-02-25T10:56:11Z</time>
      </trkpt>
      <trkpt lat="44.80428" lon="6.97201">
        <ele>2008.1</ele>
        <time>2022-02-25T10:56:12Z</time>
      </trkpt>
      <trkpt lat="44.80428" lon="6.97201">
        <ele>2008.1</ele>
        <time>2022-02-25T10:56:13Z</time>
      </trkpt>
      <trkpt lat="44.80428" lon="6.97201">
        <ele>2008.1</ele>
        <time>2022-02-25T10:56:14Z</time>
      </trkpt>
      <trkpt lat="44.80428" lon="6.97201">
        <ele>2008.1</ele>
        <time>2022-02-25T10:56:15Z</time>
      </trkpt>
      <trkpt lat="44.80428" lon="6.97201">
        <ele>2008.1</ele>
        <time>2022-02-25T10:56:16Z</time>
      </trkpt>
      <trkpt lat="44.80428" lon="6.97201">
        <ele>2008.1</ele>
        <time>2022-02-25T10:56:17Z</time>
      </trkpt>
      <trkpt lat="44.80428" lon="6.97201">
        <ele>2008.1</ele>
        <time>2022-02-25T10:56:18Z</time>
      </trkpt>
      <trkpt lat="44.80428" lon="6.97201">
        <ele>2008.1</ele>
        <time>2022-02-25T10:56:19Z</time>
      </trkpt>
      <trkpt lat="44.80428" lon="6.97201">
        <ele>2008.1</ele>
        <time>2022-02-25T10:56:20Z</time>
      </trkpt>
      <trkpt lat="44.80428" lon="6.97201">
        <ele>2008.1</ele>
        <time>2022-02-25T10:56:21Z</time>
      </trkpt>
      <trkpt lat="44.80428" lon="6.97201">
        <ele>2008.1</ele>
        <time>2022-02-25T10:56:22Z</time>
      </trkpt>
      <trkpt lat="44.80428" lon="6.97201">
        <ele>2008.1</ele>
        <time>2022-02-25T10:56:23Z</time>
      </trkpt>
      <trkpt lat="44.80428" lon="6.97201">
        <ele>2008.1</ele>
        <time>2022-02-25T10:56:24Z</time>
      </trkpt>
      <trkpt lat="44.80428" lon="6.97201">
        <ele>2008.1</ele>
        <time>2022-02-25T10:56:25Z</time>
      </trkpt>
      <trkpt lat="44.80428" lon="6.97201">
        <ele>2008.1</ele>
        <time>2022-02-25T10:56:26Z</time>
      </trkpt>
      <trkpt lat="44.80428" lon="6.97201">
        <ele>2008.1</ele>
        <time>2022-02-25T10:56:27Z</time>
      </trkpt>
      <trkpt lat="44.80428" lon="6.97201">
        <ele>2008.1</ele>
        <time>2022-02-25T10:56:28Z</time>
      </trkpt>
      <trkpt lat="44.80428" lon="6.97201">
        <ele>2008.1</ele>
        <time>2022-02-25T10:56:29Z</time>
      </trkpt>
      <trkpt lat="44.80428" lon="6.97202">
        <ele>2007.9</ele>
        <time>2022-02-25T10:56:30Z</time>
      </trkpt>
      <trkpt lat="44.80428" lon="6.97202">
        <ele>2007.9</ele>
        <time>2022-02-25T10:56:31Z</time>
      </trkpt>
      <trkpt lat="44.80428" lon="6.97202">
        <ele>2007.9</ele>
        <time>2022-02-25T10:56:32Z</time>
      </trkpt>
      <trkpt lat="44.80428" lon="6.97202">
        <ele>2007.9</ele>
        <time>2022-02-25T10:56:33Z</time>
      </trkpt>
      <trkpt lat="44.80428" lon="6.97202">
        <ele>2007.9</ele>
        <time>2022-02-25T10:56:34Z</time>
      </trkpt>
      <trkpt lat="44.80428" lon="6.97202">
        <ele>2007.9</ele>
        <time>2022-02-25T10:56:35Z</time>
      </trkpt>
      <trkpt lat="44.80428" lon="6.97202">
        <ele>2007.9</ele>
        <time>2022-02-25T10:56:36Z</time>
      </trkpt>
      <trkpt lat="44.80427" lon="6.97202">
        <ele>2008.3</ele>
        <time>2022-02-25T10:56:37Z</time>
      </trkpt>
      <trkpt lat="44.80427" lon="6.97202">
        <ele>2008.3</ele>
        <time>2022-02-25T10:56:38Z</time>
      </trkpt>
      <trkpt lat="44.80427" lon="6.97202">
        <ele>2008.3</ele>
        <time>2022-02-25T10:56:39Z</time>
      </trkpt>
      <trkpt lat="44.80427" lon="6.97202">
        <ele>2008.3</ele>
        <time>2022-02-25T10:56:40Z</time>
      </trkpt>
      <trkpt lat="44.80427" lon="6.97202">
        <ele>2008.3</ele>
        <time>2022-02-25T10:56:41Z</time>
      </trkpt>
      <trkpt lat="44.80427" lon="6.97202">
        <ele>2008.3</ele>
        <time>2022-02-25T10:56:42Z</time>
      </trkpt>
      <trkpt lat="44.80427" lon="6.97202">
        <ele>2008.3</ele>
        <time>2022-02-25T10:56:43Z</time>
      </trkpt>
      <trkpt lat="44.80427" lon="6.97202">
        <ele>2008.3</ele>
        <time>2022-02-25T10:56:44Z</time>
      </trkpt>
      <trkpt lat="44.80427" lon="6.97202">
        <ele>2008.3</ele>
        <time>2022-02-25T10:56:45Z</time>
      </trkpt>
      <trkpt lat="44.80427" lon="6.97202">
        <ele>2008.3</ele>
        <time>2022-02-25T10:56:46Z</time>
      </trkpt>
      <trkpt lat="44.80427" lon="6.97202">
        <ele>2008.3</ele>
        <time>2022-02-25T10:56:47Z</time>
      </trkpt>
      <trkpt lat="44.80427" lon="6.97202">
        <ele>2008.3</ele>
        <time>2022-02-25T10:56:48Z</time>
      </trkpt>
      <trkpt lat="44.80427" lon="6.97202">
        <ele>2008.3</ele>
        <time>2022-02-25T10:56:49Z</time>
      </trkpt>
      <trkpt lat="44.80427" lon="6.97202">
        <ele>2008.3</ele>
        <time>2022-02-25T10:56:50Z</time>
      </trkpt>
      <trkpt lat="44.80427" lon="6.97202">
        <ele>2008.3</ele>
        <time>2022-02-25T10:56:51Z</time>
      </trkpt>
      <trkpt lat="44.80427" lon="6.97202">
        <ele>2008.3</ele>
        <time>2022-02-25T10:56:52Z</time>
      </trkpt>
      <trkpt lat="44.80427" lon="6.97202">
        <ele>2008.3</ele>
        <time>2022-02-25T10:56:53Z</time>
      </trkpt>
      <trkpt lat="44.80427" lon="6.97202">
        <ele>2008.3</ele>
        <time>2022-02-25T10:56:54Z</time>
      </trkpt>
      <trkpt lat="44.80427" lon="6.97202">
        <ele>2008.3</ele>
        <time>2022-02-25T10:56:55Z</time>
      </trkpt>
      <trkpt lat="44.80427" lon="6.97202">
        <ele>2008.3</ele>
        <time>2022-02-25T10:56:56Z</time>
      </trkpt>
      <trkpt lat="44.80427" lon="6.97202">
        <ele>2008.3</ele>
        <time>2022-02-25T10:56:57Z</time>
      </trkpt>
      <trkpt lat="44.80427" lon="6.97202">
        <ele>2008.3</ele>
        <time>2022-02-25T10:56:58Z</time>
      </trkpt>
      <trkpt lat="44.80427" lon="6.97202">
        <ele>2008.3</ele>
        <time>2022-02-25T10:56:59Z</time>
      </trkpt>
      <trkpt lat="44.80427" lon="6.97202">
        <ele>2008.3</ele>
        <time>2022-02-25T10:57:00Z</time>
      </trkpt>
      <trkpt lat="44.80427" lon="6.97202">
        <ele>2008.3</ele>
        <time>2022-02-25T10:57:01Z</time>
      </trkpt>
      <trkpt lat="44.80427" lon="6.97202">
        <ele>2008.3</ele>
        <time>2022-02-25T10:57:02Z</time>
      </trkpt>
      <trkpt lat="44.80427" lon="6.97202">
        <ele>2008.3</ele>
        <time>2022-02-25T10:57:03Z</time>
      </trkpt>
      <trkpt lat="44.80427" lon="6.97202">
        <ele>2008.3</ele>
        <time>2022-02-25T10:57:04Z</time>
      </trkpt>
      <trkpt lat="44.80427" lon="6.97203">
        <ele>2008.1</ele>
        <time>2022-02-25T10:57:05Z</time>
      </trkpt>
      <trkpt lat="44.80427" lon="6.97203">
        <ele>2008.1</ele>
        <time>2022-02-25T10:57:06Z</time>
      </trkpt>
      <trkpt lat="44.80427" lon="6.97203">
        <ele>2008.1</ele>
        <time>2022-02-25T10:57:07Z</time>
      </trkpt>
      <trkpt lat="44.80427" lon="6.97203">
        <ele>2008.1</ele>
        <time>2022-02-25T10:57:08Z</time>
      </trkpt>
      <trkpt lat="44.80427" lon="6.97203">
        <ele>2008.1</ele>
        <time>2022-02-25T10:57:09Z</time>
      </trkpt>
      <trkpt lat="44.80427" lon="6.97203">
        <ele>2008.1</ele>
        <time>2022-02-25T10:57:10Z</time>
      </trkpt>
      <trkpt lat="44.80426" lon="6.97203">
        <ele>2008.5</ele>
        <time>2022-02-25T10:57:11Z</time>
      </trkpt>
      <trkpt lat="44.80426" lon="6.97203">
        <ele>2008.5</ele>
        <time>2022-02-25T10:57:12Z</time>
      </trkpt>
      <trkpt lat="44.80426" lon="6.97203">
        <ele>2008.5</ele>
        <time>2022-02-25T10:57:13Z</time>
      </trkpt>
      <trkpt lat="44.80426" lon="6.97203">
        <ele>2008.5</ele>
        <time>2022-02-25T10:57:14Z</time>
      </trkpt>
      <trkpt lat="44.80426" lon="6.97203">
        <ele>2008.5</ele>
        <time>2022-02-25T10:57:15Z</time>
      </trkpt>
      <trkpt lat="44.80426" lon="6.97203">
        <ele>2008.5</ele>
        <time>2022-02-25T10:57:16Z</time>
      </trkpt>
      <trkpt lat="44.80426" lon="6.97203">
        <ele>2008.5</ele>
        <time>2022-02-25T10:57:17Z</time>
      </trkpt>
      <trkpt lat="44.80426" lon="6.97203">
        <ele>2008.5</ele>
        <time>2022-02-25T10:57:18Z</time>
      </trkpt>
      <trkpt lat="44.80426" lon="6.97203">
        <ele>2008.5</ele>
        <time>2022-02-25T10:57:19Z</time>
      </trkpt>
      <trkpt lat="44.80426" lon="6.97203">
        <ele>2008.5</ele>
        <time>2022-02-25T10:57:20Z</time>
      </trkpt>
      <trkpt lat="44.80426" lon="6.97203">
        <ele>2008.5</ele>
        <time>2022-02-25T10:57:21Z</time>
      </trkpt>
      <trkpt lat="44.80426" lon="6.97203">
        <ele>2008.5</ele>
        <time>2022-02-25T10:57:22Z</time>
      </trkpt>
      <trkpt lat="44.80426" lon="6.97203">
        <ele>2008.5</ele>
        <time>2022-02-25T10:57:23Z</time>
      </trkpt>
      <trkpt lat="44.80426" lon="6.97203">
        <ele>2008.5</ele>
        <time>2022-02-25T10:57:24Z</time>
      </trkpt>
      <trkpt lat="44.80426" lon="6.97203">
        <ele>2008.5</ele>
        <time>2022-02-25T10:57:25Z</time>
      </trkpt>
      <trkpt lat="44.80426" lon="6.97203">
        <ele>2008.5</ele>
        <time>2022-02-25T10:57:26Z</time>
      </trkpt>
      <trkpt lat="44.80426" lon="6.97203">
        <ele>2008.5</ele>
        <time>2022-02-25T10:57:27Z</time>
      </trkpt>
      <trkpt lat="44.80426" lon="6.97203">
        <ele>2008.5</ele>
        <time>2022-02-25T10:57:28Z</time>
      </trkpt>
      <trkpt lat="44.80426" lon="6.97203">
        <ele>2008.5</ele>
        <time>2022-02-25T10:57:29Z</time>
      </trkpt>
      <trkpt lat="44.80426" lon="6.97203">
        <ele>2008.5</ele>
        <time>2022-02-25T10:57:30Z</time>
      </trkpt>
      <trkpt lat="44.80426" lon="6.97203">
        <ele>2008.5</ele>
        <time>2022-02-25T10:57:31Z</time>
      </trkpt>
      <trkpt lat="44.80426" lon="6.97203">
        <ele>2008.5</ele>
        <time>2022-02-25T10:57:32Z</time>
      </trkpt>
      <trkpt lat="44.80426" lon="6.97203">
        <ele>2008.5</ele>
        <time>2022-02-25T10:57:33Z</time>
      </trkpt>
      <trkpt lat="44.80426" lon="6.97203">
        <ele>2008.5</ele>
        <time>2022-02-25T10:57:34Z</time>
      </trkpt>
      <trkpt lat="44.80426" lon="6.97203">
        <ele>2008.5</ele>
        <time>2022-02-25T10:57:35Z</time>
      </trkpt>
      <trkpt lat="44.80426" lon="6.97203">
        <ele>2008.5</ele>
        <time>2022-02-25T10:57:36Z</time>
      </trkpt>
      <trkpt lat="44.80426" lon="6.97203">
        <ele>2008.5</ele>
        <time>2022-02-25T10:57:37Z</time>
      </trkpt>
      <trkpt lat="44.80426" lon="6.97203">
        <ele>2008.5</ele>
        <time>2022-02-25T10:57:38Z</time>
      </trkpt>
      <trkpt lat="44.80426" lon="6.97203">
        <ele>2008.5</ele>
        <time>2022-02-25T10:57:39Z</time>
      </trkpt>
      <trkpt lat="44.80426" lon="6.97203">
        <ele>2008.5</ele>
        <time>2022-02-25T10:57:40Z</time>
      </trkpt>
      <trkpt lat="44.80426" lon="6.97204">
        <ele>2008.2</ele>
        <time>2022-02-25T10:57:41Z</time>
      </trkpt>
      <trkpt lat="44.80426" lon="6.97204">
        <ele>2008.2</ele>
        <time>2022-02-25T10:57:42Z</time>
      </trkpt>
      <trkpt lat="44.80426" lon="6.97204">
        <ele>2008.2</ele>
        <time>2022-02-25T10:57:43Z</time>
      </trkpt>
      <trkpt lat="44.80425" lon="6.97204">
        <ele>2008.6</ele>
        <time>2022-02-25T10:57:44Z</time>
      </trkpt>
      <trkpt lat="44.80425" lon="6.97204">
        <ele>2008.6</ele>
        <time>2022-02-25T10:57:45Z</time>
      </trkpt>
      <trkpt lat="44.80425" lon="6.97204">
        <ele>2008.6</ele>
        <time>2022-02-25T10:57:46Z</time>
      </trkpt>
      <trkpt lat="44.80425" lon="6.97204">
        <ele>2008.6</ele>
        <time>2022-02-25T10:57:47Z</time>
      </trkpt>
      <trkpt lat="44.80425" lon="6.97204">
        <ele>2008.6</ele>
        <time>2022-02-25T10:57:48Z</time>
      </trkpt>
      <trkpt lat="44.80425" lon="6.97204">
        <ele>2008.6</ele>
        <time>2022-02-25T10:57:49Z</time>
      </trkpt>
      <trkpt lat="44.80425" lon="6.97204">
        <ele>2008.6</ele>
        <time>2022-02-25T10:57:50Z</time>
      </trkpt>
      <trkpt lat="44.80425" lon="6.97204">
        <ele>2008.6</ele>
        <time>2022-02-25T10:57:51Z</time>
      </trkpt>
      <trkpt lat="44.80425" lon="6.97204">
        <ele>2008.6</ele>
        <time>2022-02-25T10:57:52Z</time>
      </trkpt>
      <trkpt lat="44.80425" lon="6.97204">
        <ele>2008.6</ele>
        <time>2022-02-25T10:57:53Z</time>
      </trkpt>
      <trkpt lat="44.80425" lon="6.97204">
        <ele>2008.6</ele>
        <time>2022-02-25T10:57:54Z</time>
      </trkpt>
      <trkpt lat="44.80425" lon="6.97204">
        <ele>2008.6</ele>
        <time>2022-02-25T10:57:55Z</time>
      </trkpt>
      <trkpt lat="44.80426" lon="6.97207">
        <ele>2007.6</ele>
        <time>2022-02-25T10:57:56Z</time>
      </trkpt>
      <trkpt lat="44.80426" lon="6.97207">
        <ele>2007.6</ele>
        <time>2022-02-25T10:57:57Z</time>
      </trkpt>
      <trkpt lat="44.80426" lon="6.97207">
        <ele>2007.6</ele>
        <time>2022-02-25T10:57:58Z</time>
      </trkpt>
      <trkpt lat="44.80426" lon="6.97207">
        <ele>2007.6</ele>
        <time>2022-02-25T10:57:59Z</time>
      </trkpt>
      <trkpt lat="44.80426" lon="6.97207">
        <ele>2007.6</ele>
        <time>2022-02-25T10:58:00Z</time>
      </trkpt>
      <trkpt lat="44.80426" lon="6.97207">
        <ele>2007.6</ele>
        <time>2022-02-25T10:58:01Z</time>
      </trkpt>
      <trkpt lat="44.80426" lon="6.97207">
        <ele>2007.6</ele>
        <time>2022-02-25T10:58:02Z</time>
      </trkpt>
      <trkpt lat="44.80426" lon="6.97207">
        <ele>2007.6</ele>
        <time>2022-02-25T10:58:03Z</time>
      </trkpt>
      <trkpt lat="44.80426" lon="6.97207">
        <ele>2007.6</ele>
        <time>2022-02-25T10:58:04Z</time>
      </trkpt>
      <trkpt lat="44.80426" lon="6.97207">
        <ele>2007.6</ele>
        <time>2022-02-25T10:58:05Z</time>
      </trkpt>
      <trkpt lat="44.80426" lon="6.97207">
        <ele>2007.6</ele>
        <time>2022-02-25T10:58:06Z</time>
      </trkpt>
      <trkpt lat="44.80426" lon="6.97207">
        <ele>2007.6</ele>
        <time>2022-02-25T10:58:07Z</time>
      </trkpt>
      <trkpt lat="44.80426" lon="6.97207">
        <ele>2007.6</ele>
        <time>2022-02-25T10:58:08Z</time>
      </trkpt>
      <trkpt lat="44.80426" lon="6.97207">
        <ele>2007.6</ele>
        <time>2022-02-25T10:58:09Z</time>
      </trkpt>
      <trkpt lat="44.80426" lon="6.97207">
        <ele>2007.6</ele>
        <time>2022-02-25T10:58:10Z</time>
      </trkpt>
      <trkpt lat="44.80426" lon="6.97207">
        <ele>2007.6</ele>
        <time>2022-02-25T10:58:11Z</time>
      </trkpt>
      <trkpt lat="44.80426" lon="6.97207">
        <ele>2007.6</ele>
        <time>2022-02-25T10:58:12Z</time>
      </trkpt>
      <trkpt lat="44.80426" lon="6.97207">
        <ele>2007.6</ele>
        <time>2022-02-25T10:58:13Z</time>
      </trkpt>
      <trkpt lat="44.80426" lon="6.97207">
        <ele>2007.6</ele>
        <time>2022-02-25T10:58:14Z</time>
      </trkpt>
      <trkpt lat="44.80426" lon="6.97207">
        <ele>2007.6</ele>
        <time>2022-02-25T10:58:15Z</time>
      </trkpt>
      <trkpt lat="44.80426" lon="6.97207">
        <ele>2007.6</ele>
        <time>2022-02-25T10:58:16Z</time>
      </trkpt>
      <trkpt lat="44.80426" lon="6.97207">
        <ele>2007.6</ele>
        <time>2022-02-25T10:58:17Z</time>
      </trkpt>
      <trkpt lat="44.80426" lon="6.97207">
        <ele>2007.6</ele>
        <time>2022-02-25T10:58:18Z</time>
      </trkpt>
      <trkpt lat="44.80426" lon="6.97207">
        <ele>2007.6</ele>
        <time>2022-02-25T10:58:19Z</time>
      </trkpt>
      <trkpt lat="44.80426" lon="6.97207">
        <ele>2007.6</ele>
        <time>2022-02-25T10:58:20Z</time>
      </trkpt>
      <trkpt lat="44.80426" lon="6.97207">
        <ele>2007.6</ele>
        <time>2022-02-25T10:58:21Z</time>
      </trkpt>
      <trkpt lat="44.80426" lon="6.97207">
        <ele>2007.6</ele>
        <time>2022-02-25T10:58:22Z</time>
      </trkpt>
      <trkpt lat="44.80426" lon="6.97207">
        <ele>2007.6</ele>
        <time>2022-02-25T10:58:23Z</time>
      </trkpt>
      <trkpt lat="44.80426" lon="6.97207">
        <ele>2007.6</ele>
        <time>2022-02-25T10:58:24Z</time>
      </trkpt>
      <trkpt lat="44.80426" lon="6.97207">
        <ele>2007.6</ele>
        <time>2022-02-25T10:58:25Z</time>
      </trkpt>
      <trkpt lat="44.80426" lon="6.97207">
        <ele>2007.6</ele>
        <time>2022-02-25T10:58:26Z</time>
      </trkpt>
      <trkpt lat="44.80426" lon="6.97207">
        <ele>2007.6</ele>
        <time>2022-02-25T10:58:27Z</time>
      </trkpt>
      <trkpt lat="44.80426" lon="6.97207">
        <ele>2007.6</ele>
        <time>2022-02-25T10:58:28Z</time>
      </trkpt>
      <trkpt lat="44.80426" lon="6.97207">
        <ele>2007.6</ele>
        <time>2022-02-25T10:58:29Z</time>
      </trkpt>
      <trkpt lat="44.80426" lon="6.97207">
        <ele>2007.6</ele>
        <time>2022-02-25T10:58:30Z</time>
      </trkpt>
      <trkpt lat="44.80426" lon="6.97207">
        <ele>2007.6</ele>
        <time>2022-02-25T10:58:31Z</time>
      </trkpt>
      <trkpt lat="44.80426" lon="6.97207">
        <ele>2007.6</ele>
        <time>2022-02-25T10:58:32Z</time>
      </trkpt>
      <trkpt lat="44.80426" lon="6.97207">
        <ele>2007.6</ele>
        <time>2022-02-25T10:58:33Z</time>
      </trkpt>
      <trkpt lat="44.80426" lon="6.97207">
        <ele>2007.6</ele>
        <time>2022-02-25T10:58:34Z</time>
      </trkpt>
      <trkpt lat="44.80426" lon="6.97207">
        <ele>2007.6</ele>
        <time>2022-02-25T10:58:35Z</time>
      </trkpt>
      <trkpt lat="44.80426" lon="6.97207">
        <ele>2007.6</ele>
        <time>2022-02-25T10:58:36Z</time>
      </trkpt>
      <trkpt lat="44.80426" lon="6.97207">
        <ele>2007.6</ele>
        <time>2022-02-25T10:58:37Z</time>
      </trkpt>
      <trkpt lat="44.80426" lon="6.97207">
        <ele>2007.6</ele>
        <time>2022-02-25T10:58:38Z</time>
      </trkpt>
      <trkpt lat="44.80426" lon="6.97207">
        <ele>2007.6</ele>
        <time>2022-02-25T10:58:39Z</time>
      </trkpt>
      <trkpt lat="44.80426" lon="6.97207">
        <ele>2007.6</ele>
        <time>2022-02-25T10:58:40Z</time>
      </trkpt>
      <trkpt lat="44.80426" lon="6.97207">
        <ele>2007.6</ele>
        <time>2022-02-25T10:58:41Z</time>
      </trkpt>
      <trkpt lat="44.80426" lon="6.97207">
        <ele>2007.6</ele>
        <time>2022-02-25T10:58:42Z</time>
      </trkpt>
      <trkpt lat="44.80426" lon="6.97207">
        <ele>2007.6</ele>
        <time>2022-02-25T10:58:43Z</time>
      </trkpt>
      <trkpt lat="44.80426" lon="6.97207">
        <ele>2007.6</ele>
        <time>2022-02-25T10:58:44Z</time>
      </trkpt>
      <trkpt lat="44.80426" lon="6.97207">
        <ele>2007.6</ele>
        <time>2022-02-25T10:58:45Z</time>
      </trkpt>
      <trkpt lat="44.80426" lon="6.97207">
        <ele>2007.6</ele>
        <time>2022-02-25T10:58:46Z</time>
      </trkpt>
      <trkpt lat="44.80428" lon="6.97204">
        <ele>2007.4</ele>
        <time>2022-02-25T10:58:47Z</time>
      </trkpt>
      <trkpt lat="44.80428" lon="6.97204">
        <ele>2007.4</ele>
        <time>2022-02-25T10:58:48Z</time>
      </trkpt>
      <trkpt lat="44.80428" lon="6.97204">
        <ele>2007.4</ele>
        <time>2022-02-25T10:58:49Z</time>
      </trkpt>
      <trkpt lat="44.80428" lon="6.97204">
        <ele>2007.4</ele>
        <time>2022-02-25T10:58:50Z</time>
      </trkpt>
      <trkpt lat="44.80428" lon="6.97204">
        <ele>2007.4</ele>
        <time>2022-02-25T10:58:51Z</time>
      </trkpt>
      <trkpt lat="44.80428" lon="6.97204">
        <ele>2007.4</ele>
        <time>2022-02-25T10:58:52Z</time>
      </trkpt>
      <trkpt lat="44.80428" lon="6.97204">
        <ele>2007.4</ele>
        <time>2022-02-25T10:58:53Z</time>
      </trkpt>
      <trkpt lat="44.80428" lon="6.97204">
        <ele>2007.4</ele>
        <time>2022-02-25T10:58:54Z</time>
      </trkpt>
      <trkpt lat="44.80428" lon="6.97204">
        <ele>2007.4</ele>
        <time>2022-02-25T10:58:55Z</time>
      </trkpt>
      <trkpt lat="44.80428" lon="6.97204">
        <ele>2007.4</ele>
        <time>2022-02-25T10:58:56Z</time>
      </trkpt>
      <trkpt lat="44.80428" lon="6.97204">
        <ele>2007.4</ele>
        <time>2022-02-25T10:58:57Z</time>
      </trkpt>
      <trkpt lat="44.80428" lon="6.97204">
        <ele>2007.4</ele>
        <time>2022-02-25T10:58:58Z</time>
      </trkpt>
      <trkpt lat="44.80428" lon="6.97204">
        <ele>2007.4</ele>
        <time>2022-02-25T10:58:59Z</time>
      </trkpt>
      <trkpt lat="44.80428" lon="6.97204">
        <ele>2007.4</ele>
        <time>2022-02-25T10:59:00Z</time>
      </trkpt>
      <trkpt lat="44.80428" lon="6.97204">
        <ele>2007.4</ele>
        <time>2022-02-25T10:59:01Z</time>
      </trkpt>
      <trkpt lat="44.80428" lon="6.97204">
        <ele>2007.4</ele>
        <time>2022-02-25T10:59:02Z</time>
      </trkpt>
      <trkpt lat="44.80426" lon="6.97205">
        <ele>2008</ele>
        <time>2022-02-25T10:59:03Z</time>
      </trkpt>
      <trkpt lat="44.80426" lon="6.97205">
        <ele>2008</ele>
        <time>2022-02-25T10:59:04Z</time>
      </trkpt>
      <trkpt lat="44.80423" lon="6.97206">
        <ele>2009</ele>
        <time>2022-02-25T10:59:05Z</time>
      </trkpt>
      <trkpt lat="44.80423" lon="6.97206">
        <ele>2009</ele>
        <time>2022-02-25T10:59:06Z</time>
      </trkpt>
      <trkpt lat="44.80421" lon="6.97208">
        <ele>2009.4</ele>
        <time>2022-02-25T10:59:07Z</time>
      </trkpt>
      <trkpt lat="44.80421" lon="6.97208">
        <ele>2009.4</ele>
        <time>2022-02-25T10:59:08Z</time>
      </trkpt>
      <trkpt lat="44.80421" lon="6.97208">
        <ele>2009.4</ele>
        <time>2022-02-25T10:59:09Z</time>
      </trkpt>
      <trkpt lat="44.80419" lon="6.9721">
        <ele>2009.7</ele>
        <time>2022-02-25T10:59:10Z</time>
      </trkpt>
      <trkpt lat="44.80419" lon="6.9721">
        <ele>2009.7</ele>
        <time>2022-02-25T10:59:11Z</time>
      </trkpt>
      <trkpt lat="44.80417" lon="6.97211">
        <ele>2010.3</ele>
        <time>2022-02-25T10:59:12Z</time>
      </trkpt>
      <trkpt lat="44.80417" lon="6.97211">
        <ele>2010.3</ele>
        <time>2022-02-25T10:59:13Z</time>
      </trkpt>
      <trkpt lat="44.80417" lon="6.97211">
        <ele>2010.3</ele>
        <time>2022-02-25T10:59:14Z</time>
      </trkpt>
      <trkpt lat="44.80415" lon="6.97212">
        <ele>2010.9</ele>
        <time>2022-02-25T10:59:15Z</time>
      </trkpt>
      <trkpt lat="44.80415" lon="6.97212">
        <ele>2010.9</ele>
        <time>2022-02-25T10:59:16Z</time>
      </trkpt>
      <trkpt lat="44.80413" lon="6.97211">
        <ele>2012</ele>
        <time>2022-02-25T10:59:17Z</time>
      </trkpt>
      <trkpt lat="44.80413" lon="6.97211">
        <ele>2012</ele>
        <time>2022-02-25T10:59:18Z</time>
      </trkpt>
      <trkpt lat="44.80411" lon="6.9721">
        <ele>2013.1</ele>
        <time>2022-02-25T10:59:19Z</time>
      </trkpt>
      <trkpt lat="44.80411" lon="6.9721">
        <ele>2013.1</ele>
        <time>2022-02-25T10:59:20Z</time>
      </trkpt>
      <trkpt lat="44.80411" lon="6.9721">
        <ele>2013.1</ele>
        <time>2022-02-25T10:59:21Z</time>
      </trkpt>
      <trkpt lat="44.80411" lon="6.97207">
        <ele>2013.7</ele>
        <time>2022-02-25T10:59:22Z</time>
      </trkpt>
      <trkpt lat="44.80411" lon="6.97207">
        <ele>2013.7</ele>
        <time>2022-02-25T10:59:23Z</time>
      </trkpt>
      <trkpt lat="44.80411" lon="6.97207">
        <ele>2013.7</ele>
        <time>2022-02-25T10:59:24Z</time>
      </trkpt>
      <trkpt lat="44.80411" lon="6.97207">
        <ele>2013.7</ele>
        <time>2022-02-25T10:59:25Z</time>
      </trkpt>
      <trkpt lat="44.80411" lon="6.97204">
        <ele>2014.4</ele>
        <time>2022-02-25T10:59:26Z</time>
      </trkpt>
      <trkpt lat="44.80411" lon="6.97204">
        <ele>2014.4</ele>
        <time>2022-02-25T10:59:27Z</time>
      </trkpt>
      <trkpt lat="44.80411" lon="6.97204">
        <ele>2014.4</ele>
        <time>2022-02-25T10:59:28Z</time>
      </trkpt>
      <trkpt lat="44.80411" lon="6.97204">
        <ele>2014.4</ele>
        <time>2022-02-25T10:59:29Z</time>
      </trkpt>
      <trkpt lat="44.80412" lon="6.97202">
        <ele>2014.4</ele>
        <time>2022-02-25T10:59:30Z</time>
      </trkpt>
      <trkpt lat="44.80412" lon="6.97202">
        <ele>2014.4</ele>
        <time>2022-02-25T10:59:31Z</time>
      </trkpt>
      <trkpt lat="44.80412" lon="6.97202">
        <ele>2014.4</ele>
        <time>2022-02-25T10:59:32Z</time>
      </trkpt>
      <trkpt lat="44.80414" lon="6.972">
        <ele>2014</ele>
        <time>2022-02-25T10:59:33Z</time>
      </trkpt>
      <trkpt lat="44.80414" lon="6.972">
        <ele>2014</ele>
        <time>2022-02-25T10:59:34Z</time>
      </trkpt>
      <trkpt lat="44.80414" lon="6.972">
        <ele>2014</ele>
        <time>2022-02-25T10:59:35Z</time>
      </trkpt>
      <trkpt lat="44.80414" lon="6.972">
        <ele>2014</ele>
        <time>2022-02-25T10:59:36Z</time>
      </trkpt>
      <trkpt lat="44.80414" lon="6.972">
        <ele>2014</ele>
        <time>2022-02-25T10:59:37Z</time>
      </trkpt>
      <trkpt lat="44.80415" lon="6.97199">
        <ele>2013.7</ele>
        <time>2022-02-25T10:59:38Z</time>
      </trkpt>
      <trkpt lat="44.80415" lon="6.97199">
        <ele>2013.7</ele>
        <time>2022-02-25T10:59:39Z</time>
      </trkpt>
      <trkpt lat="44.80415" lon="6.97199">
        <ele>2013.7</ele>
        <time>2022-02-25T10:59:40Z</time>
      </trkpt>
      <trkpt lat="44.80415" lon="6.97199">
        <ele>2013.7</ele>
        <time>2022-02-25T10:59:41Z</time>
      </trkpt>
      <trkpt lat="44.80415" lon="6.97199">
        <ele>2013.7</ele>
        <time>2022-02-25T10:59:42Z</time>
      </trkpt>
      <trkpt lat="44.80416" lon="6.97196">
        <ele>2014</ele>
        <time>2022-02-25T10:59:43Z</time>
      </trkpt>
      <trkpt lat="44.80416" lon="6.97196">
        <ele>2014</ele>
        <time>2022-02-25T10:59:44Z</time>
      </trkpt>
      <trkpt lat="44.80416" lon="6.97196">
        <ele>2014</ele>
        <time>2022-02-25T10:59:45Z</time>
      </trkpt>
      <trkpt lat="44.80417" lon="6.97193">
        <ele>2014.1</ele>
        <time>2022-02-25T10:59:46Z</time>
      </trkpt>
      <trkpt lat="44.80417" lon="6.97193">
        <ele>2014.1</ele>
        <time>2022-02-25T10:59:47Z</time>
      </trkpt>
      <trkpt lat="44.80417" lon="6.97193">
        <ele>2014.1</ele>
        <time>2022-02-25T10:59:48Z</time>
      </trkpt>
      <trkpt lat="44.80417" lon="6.97193">
        <ele>2014.1</ele>
        <time>2022-02-25T10:59:49Z</time>
      </trkpt>
      <trkpt lat="44.80417" lon="6.97193">
        <ele>2014.1</ele>
        <time>2022-02-25T10:59:50Z</time>
      </trkpt>
      <trkpt lat="44.80417" lon="6.9719">
        <ele>2014.7</ele>
        <time>2022-02-25T10:59:51Z</time>
      </trkpt>
      <trkpt lat="44.80417" lon="6.9719">
        <ele>2014.7</ele>
        <time>2022-02-25T10:59:52Z</time>
      </trkpt>
      <trkpt lat="44.80417" lon="6.9719">
        <ele>2014.7</ele>
        <time>2022-02-25T10:59:53Z</time>
      </trkpt>
      <trkpt lat="44.80417" lon="6.9719">
        <ele>2014.7</ele>
        <time>2022-02-25T10:59:54Z</time>
      </trkpt>
      <trkpt lat="44.80417" lon="6.9719">
        <ele>2014.7</ele>
        <time>2022-02-25T10:59:55Z</time>
      </trkpt>
      <trkpt lat="44.80417" lon="6.9719">
        <ele>2014.7</ele>
        <time>2022-02-25T10:59:56Z</time>
      </trkpt>
      <trkpt lat="44.80417" lon="6.9719">
        <ele>2014.7</ele>
        <time>2022-02-25T10:59:57Z</time>
      </trkpt>
      <trkpt lat="44.80417" lon="6.97187">
        <ele>2015.2</ele>
        <time>2022-02-25T10:59:58Z</time>
      </trkpt>
      <trkpt lat="44.80417" lon="6.97187">
        <ele>2015.2</ele>
        <time>2022-02-25T10:59:59Z</time>
      </trkpt>
      <trkpt lat="44.80417" lon="6.97187">
        <ele>2015.2</ele>
        <time>2022-02-25T11:00:00Z</time>
      </trkpt>
      <trkpt lat="44.80417" lon="6.97187">
        <ele>2015.2</ele>
        <time>2022-02-25T11:00:01Z</time>
      </trkpt>
      <trkpt lat="44.80417" lon="6.97187">
        <ele>2015.2</ele>
        <time>2022-02-25T11:00:02Z</time>
      </trkpt>
      <trkpt lat="44.80417" lon="6.97187">
        <ele>2015.2</ele>
        <time>2022-02-25T11:00:03Z</time>
      </trkpt>
      <trkpt lat="44.80417" lon="6.97184">
        <ele>2015.7</ele>
        <time>2022-02-25T11:00:04Z</time>
      </trkpt>
      <trkpt lat="44.80417" lon="6.97184">
        <ele>2015.7</ele>
        <time>2022-02-25T11:00:05Z</time>
      </trkpt>
      <trkpt lat="44.80417" lon="6.97184">
        <ele>2015.7</ele>
        <time>2022-02-25T11:00:06Z</time>
      </trkpt>
      <trkpt lat="44.80417" lon="6.97184">
        <ele>2015.7</ele>
        <time>2022-02-25T11:00:07Z</time>
      </trkpt>
      <trkpt lat="44.80417" lon="6.97184">
        <ele>2015.7</ele>
        <time>2022-02-25T11:00:08Z</time>
      </trkpt>
      <trkpt lat="44.80417" lon="6.97184">
        <ele>2015.7</ele>
        <time>2022-02-25T11:00:09Z</time>
      </trkpt>
      <trkpt lat="44.80417" lon="6.97184">
        <ele>2015.7</ele>
        <time>2022-02-25T11:00:10Z</time>
      </trkpt>
      <trkpt lat="44.80417" lon="6.97184">
        <ele>2015.7</ele>
        <time>2022-02-25T11:00:11Z</time>
      </trkpt>
      <trkpt lat="44.80417" lon="6.97184">
        <ele>2015.7</ele>
        <time>2022-02-25T11:00:12Z</time>
      </trkpt>
      <trkpt lat="44.80416" lon="6.97182">
        <ele>2016.5</ele>
        <time>2022-02-25T11:00:13Z</time>
      </trkpt>
      <trkpt lat="44.80416" lon="6.97182">
        <ele>2016.5</ele>
        <time>2022-02-25T11:00:14Z</time>
      </trkpt>
      <trkpt lat="44.80416" lon="6.97182">
        <ele>2016.5</ele>
        <time>2022-02-25T11:00:15Z</time>
      </trkpt>
      <trkpt lat="44.80416" lon="6.97182">
        <ele>2016.5</ele>
        <time>2022-02-25T11:00:16Z</time>
      </trkpt>
      <trkpt lat="44.80415" lon="6.97179">
        <ele>2017.5</ele>
        <time>2022-02-25T11:00:17Z</time>
      </trkpt>
      <trkpt lat="44.80415" lon="6.97179">
        <ele>2017.5</ele>
        <time>2022-02-25T11:00:18Z</time>
      </trkpt>
      <trkpt lat="44.80415" lon="6.97179">
        <ele>2017.5</ele>
        <time>2022-02-25T11:00:19Z</time>
      </trkpt>
      <trkpt lat="44.80415" lon="6.97179">
        <ele>2017.5</ele>
        <time>2022-02-25T11:00:20Z</time>
      </trkpt>
      <trkpt lat="44.80415" lon="6.97177">
        <ele>2017.8</ele>
        <time>2022-02-25T11:00:21Z</time>
      </trkpt>
      <trkpt lat="44.80415" lon="6.97177">
        <ele>2017.8</ele>
        <time>2022-02-25T11:00:22Z</time>
      </trkpt>
      <trkpt lat="44.80415" lon="6.97177">
        <ele>2017.8</ele>
        <time>2022-02-25T11:00:23Z</time>
      </trkpt>
      <trkpt lat="44.80415" lon="6.97177">
        <ele>2017.8</ele>
        <time>2022-02-25T11:00:24Z</time>
      </trkpt>
      <trkpt lat="44.80415" lon="6.97177">
        <ele>2017.8</ele>
        <time>2022-02-25T11:00:25Z</time>
      </trkpt>
      <trkpt lat="44.80415" lon="6.97177">
        <ele>2017.8</ele>
        <time>2022-02-25T11:00:26Z</time>
      </trkpt>
      <trkpt lat="44.80415" lon="6.97174">
        <ele>2018.4</ele>
        <time>2022-02-25T11:00:27Z</time>
      </trkpt>
      <trkpt lat="44.80415" lon="6.97174">
        <ele>2018.4</ele>
        <time>2022-02-25T11:00:28Z</time>
      </trkpt>
      <trkpt lat="44.80415" lon="6.97174">
        <ele>2018.4</ele>
        <time>2022-02-25T11:00:29Z</time>
      </trkpt>
      <trkpt lat="44.80415" lon="6.97174">
        <ele>2018.4</ele>
        <time>2022-02-25T11:00:30Z</time>
      </trkpt>
      <trkpt lat="44.80415" lon="6.97174">
        <ele>2018.4</ele>
        <time>2022-02-25T11:00:31Z</time>
      </trkpt>
      <trkpt lat="44.80413" lon="6.97171">
        <ele>2019.7</ele>
        <time>2022-02-25T11:00:32Z</time>
      </trkpt>
      <trkpt lat="44.80413" lon="6.97171">
        <ele>2019.7</ele>
        <time>2022-02-25T11:00:33Z</time>
      </trkpt>
      <trkpt lat="44.80413" lon="6.97171">
        <ele>2019.7</ele>
        <time>2022-02-25T11:00:34Z</time>
      </trkpt>
      <trkpt lat="44.80413" lon="6.97171">
        <ele>2019.7</ele>
        <time>2022-02-25T11:00:35Z</time>
      </trkpt>
      <trkpt lat="44.80413" lon="6.97171">
        <ele>2019.7</ele>
        <time>2022-02-25T11:00:36Z</time>
      </trkpt>
      <trkpt lat="44.80413" lon="6.97168">
        <ele>2020.2</ele>
        <time>2022-02-25T11:00:37Z</time>
      </trkpt>
      <trkpt lat="44.80413" lon="6.97168">
        <ele>2020.2</ele>
        <time>2022-02-25T11:00:38Z</time>
      </trkpt>
      <trkpt lat="44.80413" lon="6.97168">
        <ele>2020.2</ele>
        <time>2022-02-25T11:00:39Z</time>
      </trkpt>
      <trkpt lat="44.80413" lon="6.97168">
        <ele>2020.2</ele>
        <time>2022-02-25T11:00:40Z</time>
      </trkpt>
      <trkpt lat="44.80413" lon="6.97165">
        <ele>2020.7</ele>
        <time>2022-02-25T11:00:41Z</time>
      </trkpt>
      <trkpt lat="44.80413" lon="6.97165">
        <ele>2020.7</ele>
        <time>2022-02-25T11:00:42Z</time>
      </trkpt>
      <trkpt lat="44.80413" lon="6.97165">
        <ele>2020.7</ele>
        <time>2022-02-25T11:00:43Z</time>
      </trkpt>
      <trkpt lat="44.80413" lon="6.97165">
        <ele>2020.7</ele>
        <time>2022-02-25T11:00:44Z</time>
      </trkpt>
      <trkpt lat="44.80413" lon="6.97163">
        <ele>2021</ele>
        <time>2022-02-25T11:00:45Z</time>
      </trkpt>
      <trkpt lat="44.80413" lon="6.97163">
        <ele>2021</ele>
        <time>2022-02-25T11:00:46Z</time>
      </trkpt>
      <trkpt lat="44.80413" lon="6.97163">
        <ele>2021</ele>
        <time>2022-02-25T11:00:47Z</time>
      </trkpt>
      <trkpt lat="44.80413" lon="6.97163">
        <ele>2021</ele>
        <time>2022-02-25T11:00:48Z</time>
      </trkpt>
      <trkpt lat="44.80413" lon="6.97163">
        <ele>2021</ele>
        <time>2022-02-25T11:00:49Z</time>
      </trkpt>
      <trkpt lat="44.80412" lon="6.9716">
        <ele>2021.8</ele>
        <time>2022-02-25T11:00:50Z</time>
      </trkpt>
      <trkpt lat="44.80412" lon="6.9716">
        <ele>2021.8</ele>
        <time>2022-02-25T11:00:51Z</time>
      </trkpt>
      <trkpt lat="44.80412" lon="6.9716">
        <ele>2021.8</ele>
        <time>2022-02-25T11:00:52Z</time>
      </trkpt>
      <trkpt lat="44.80412" lon="6.9716">
        <ele>2021.8</ele>
        <time>2022-02-25T11:00:53Z</time>
      </trkpt>
      <trkpt lat="44.80412" lon="6.9716">
        <ele>2021.8</ele>
        <time>2022-02-25T11:00:54Z</time>
      </trkpt>
      <trkpt lat="44.80411" lon="6.97158">
        <ele>2022.5</ele>
        <time>2022-02-25T11:00:55Z</time>
      </trkpt>
      <trkpt lat="44.80411" lon="6.97158">
        <ele>2022.5</ele>
        <time>2022-02-25T11:00:56Z</time>
      </trkpt>
      <trkpt lat="44.80411" lon="6.97158">
        <ele>2022.5</ele>
        <time>2022-02-25T11:00:57Z</time>
      </trkpt>
      <trkpt lat="44.80411" lon="6.97158">
        <ele>2022.5</ele>
        <time>2022-02-25T11:00:58Z</time>
      </trkpt>
      <trkpt lat="44.80411" lon="6.97158">
        <ele>2022.5</ele>
        <time>2022-02-25T11:00:59Z</time>
      </trkpt>
      <trkpt lat="44.80411" lon="6.97158">
        <ele>2022.5</ele>
        <time>2022-02-25T11:01:00Z</time>
      </trkpt>
      <trkpt lat="44.80411" lon="6.97158">
        <ele>2022.5</ele>
        <time>2022-02-25T11:01:01Z</time>
      </trkpt>
      <trkpt lat="44.80411" lon="6.97158">
        <ele>2022.5</ele>
        <time>2022-02-25T11:01:02Z</time>
      </trkpt>
      <trkpt lat="44.80411" lon="6.97155">
        <ele>2022.9</ele>
        <time>2022-02-25T11:01:03Z</time>
      </trkpt>
      <trkpt lat="44.80411" lon="6.97155">
        <ele>2022.9</ele>
        <time>2022-02-25T11:01:04Z</time>
      </trkpt>
      <trkpt lat="44.80411" lon="6.97155">
        <ele>2022.9</ele>
        <time>2022-02-25T11:01:05Z</time>
      </trkpt>
      <trkpt lat="44.80411" lon="6.97155">
        <ele>2022.9</ele>
        <time>2022-02-25T11:01:06Z</time>
      </trkpt>
      <trkpt lat="44.80411" lon="6.97155">
        <ele>2022.9</ele>
        <time>2022-02-25T11:01:07Z</time>
      </trkpt>
      <trkpt lat="44.80411" lon="6.97151">
        <ele>2023.5</ele>
        <time>2022-02-25T11:01:08Z</time>
      </trkpt>
      <trkpt lat="44.80411" lon="6.97151">
        <ele>2023.5</ele>
        <time>2022-02-25T11:01:09Z</time>
      </trkpt>
      <trkpt lat="44.80411" lon="6.97151">
        <ele>2023.5</ele>
        <time>2022-02-25T11:01:10Z</time>
      </trkpt>
      <trkpt lat="44.80411" lon="6.97151">
        <ele>2023.5</ele>
        <time>2022-02-25T11:01:11Z</time>
      </trkpt>
      <trkpt lat="44.80411" lon="6.97148">
        <ele>2023.9</ele>
        <time>2022-02-25T11:01:12Z</time>
      </trkpt>
      <trkpt lat="44.80411" lon="6.97148">
        <ele>2023.9</ele>
        <time>2022-02-25T11:01:13Z</time>
      </trkpt>
      <trkpt lat="44.80411" lon="6.97148">
        <ele>2023.9</ele>
        <time>2022-02-25T11:01:14Z</time>
      </trkpt>
      <trkpt lat="44.80411" lon="6.97148">
        <ele>2023.9</ele>
        <time>2022-02-25T11:01:15Z</time>
      </trkpt>
      <trkpt lat="44.80411" lon="6.97148">
        <ele>2023.9</ele>
        <time>2022-02-25T11:01:16Z</time>
      </trkpt>
      <trkpt lat="44.80411" lon="6.97148">
        <ele>2023.9</ele>
        <time>2022-02-25T11:01:17Z</time>
      </trkpt>
      <trkpt lat="44.80412" lon="6.97145">
        <ele>2024</ele>
        <time>2022-02-25T11:01:18Z</time>
      </trkpt>
      <trkpt lat="44.80412" lon="6.97145">
        <ele>2024</ele>
        <time>2022-02-25T11:01:19Z</time>
      </trkpt>
      <trkpt lat="44.80412" lon="6.97145">
        <ele>2024</ele>
        <time>2022-02-25T11:01:20Z</time>
      </trkpt>
      <trkpt lat="44.80412" lon="6.97145">
        <ele>2024</ele>
        <time>2022-02-25T11:01:21Z</time>
      </trkpt>
      <trkpt lat="44.80412" lon="6.97145">
        <ele>2024</ele>
        <time>2022-02-25T11:01:22Z</time>
      </trkpt>
      <trkpt lat="44.80411" lon="6.97142">
        <ele>2024.8</ele>
        <time>2022-02-25T11:01:23Z</time>
      </trkpt>
      <trkpt lat="44.80411" lon="6.97142">
        <ele>2024.8</ele>
        <time>2022-02-25T11:01:24Z</time>
      </trkpt>
      <trkpt lat="44.80411" lon="6.97142">
        <ele>2024.8</ele>
        <time>2022-02-25T11:01:25Z</time>
      </trkpt>
      <trkpt lat="44.80411" lon="6.97142">
        <ele>2024.8</ele>
        <time>2022-02-25T11:01:26Z</time>
      </trkpt>
      <trkpt lat="44.80411" lon="6.97142">
        <ele>2024.8</ele>
        <time>2022-02-25T11:01:27Z</time>
      </trkpt>
      <trkpt lat="44.80409" lon="6.9714">
        <ele>2025.9</ele>
        <time>2022-02-25T11:01:28Z</time>
      </trkpt>
      <trkpt lat="44.80409" lon="6.9714">
        <ele>2025.9</ele>
        <time>2022-02-25T11:01:29Z</time>
      </trkpt>
      <trkpt lat="44.80409" lon="6.9714">
        <ele>2025.9</ele>
        <time>2022-02-25T11:01:30Z</time>
      </trkpt>
      <trkpt lat="44.80409" lon="6.9714">
        <ele>2025.9</ele>
        <time>2022-02-25T11:01:31Z</time>
      </trkpt>
      <trkpt lat="44.80409" lon="6.9714">
        <ele>2025.9</ele>
        <time>2022-02-25T11:01:32Z</time>
      </trkpt>
      <trkpt lat="44.80407" lon="6.97138">
        <ele>2027</ele>
        <time>2022-02-25T11:01:33Z</time>
      </trkpt>
      <trkpt lat="44.80407" lon="6.97138">
        <ele>2027</ele>
        <time>2022-02-25T11:01:34Z</time>
      </trkpt>
      <trkpt lat="44.80407" lon="6.97138">
        <ele>2027</ele>
        <time>2022-02-25T11:01:35Z</time>
      </trkpt>
      <trkpt lat="44.80407" lon="6.97138">
        <ele>2027</ele>
        <time>2022-02-25T11:01:36Z</time>
      </trkpt>
      <trkpt lat="44.80407" lon="6.97138">
        <ele>2027</ele>
        <time>2022-02-25T11:01:37Z</time>
      </trkpt>
      <trkpt lat="44.80407" lon="6.97138">
        <ele>2027</ele>
        <time>2022-02-25T11:01:38Z</time>
      </trkpt>
      <trkpt lat="44.80407" lon="6.97138">
        <ele>2027</ele>
        <time>2022-02-25T11:01:39Z</time>
      </trkpt>
      <trkpt lat="44.80405" lon="6.97138">
        <ele>2027.8</ele>
        <time>2022-02-25T11:01:40Z</time>
      </trkpt>
      <trkpt lat="44.80405" lon="6.97138">
        <ele>2027.8</ele>
        <time>2022-02-25T11:01:41Z</time>
      </trkpt>
      <trkpt lat="44.80405" lon="6.97138">
        <ele>2027.8</ele>
        <time>2022-02-25T11:01:42Z</time>
      </trkpt>
      <trkpt lat="44.80405" lon="6.97138">
        <ele>2027.8</ele>
        <time>2022-02-25T11:01:43Z</time>
      </trkpt>
      <trkpt lat="44.80405" lon="6.97138">
        <ele>2027.8</ele>
        <time>2022-02-25T11:01:44Z</time>
      </trkpt>
      <trkpt lat="44.80405" lon="6.97138">
        <ele>2027.8</ele>
        <time>2022-02-25T11:01:45Z</time>
      </trkpt>
      <trkpt lat="44.80404" lon="6.97141">
        <ele>2027.7</ele>
        <time>2022-02-25T11:01:46Z</time>
      </trkpt>
      <trkpt lat="44.80404" lon="6.97141">
        <ele>2027.7</ele>
        <time>2022-02-25T11:01:47Z</time>
      </trkpt>
      <trkpt lat="44.80404" lon="6.97141">
        <ele>2027.7</ele>
        <time>2022-02-25T11:01:48Z</time>
      </trkpt>
      <trkpt lat="44.80404" lon="6.97141">
        <ele>2027.7</ele>
        <time>2022-02-25T11:01:49Z</time>
      </trkpt>
      <trkpt lat="44.80404" lon="6.97141">
        <ele>2027.7</ele>
        <time>2022-02-25T11:01:50Z</time>
      </trkpt>
      <trkpt lat="44.80404" lon="6.97141">
        <ele>2027.7</ele>
        <time>2022-02-25T11:01:51Z</time>
      </trkpt>
      <trkpt lat="44.80402" lon="6.97139">
        <ele>2028.8</ele>
        <time>2022-02-25T11:01:52Z</time>
      </trkpt>
      <trkpt lat="44.80402" lon="6.97139">
        <ele>2028.8</ele>
        <time>2022-02-25T11:01:53Z</time>
      </trkpt>
      <trkpt lat="44.80402" lon="6.97139">
        <ele>2028.8</ele>
        <time>2022-02-25T11:01:54Z</time>
      </trkpt>
      <trkpt lat="44.80402" lon="6.97139">
        <ele>2028.8</ele>
        <time>2022-02-25T11:01:55Z</time>
      </trkpt>
      <trkpt lat="44.804" lon="6.97142">
        <ele>2029.2</ele>
        <time>2022-02-25T11:01:56Z</time>
      </trkpt>
      <trkpt lat="44.804" lon="6.97142">
        <ele>2029.2</ele>
        <time>2022-02-25T11:01:57Z</time>
      </trkpt>
      <trkpt lat="44.804" lon="6.97142">
        <ele>2029.2</ele>
        <time>2022-02-25T11:01:58Z</time>
      </trkpt>
      <trkpt lat="44.804" lon="6.97142">
        <ele>2029.2</ele>
        <time>2022-02-25T11:01:59Z</time>
      </trkpt>
      <trkpt lat="44.804" lon="6.97142">
        <ele>2029.2</ele>
        <time>2022-02-25T11:02:00Z</time>
      </trkpt>
      <trkpt lat="44.80398" lon="6.97142">
        <ele>2029.9</ele>
        <time>2022-02-25T11:02:01Z</time>
      </trkpt>
      <trkpt lat="44.80398" lon="6.97142">
        <ele>2029.9</ele>
        <time>2022-02-25T11:02:02Z</time>
      </trkpt>
      <trkpt lat="44.80398" lon="6.97142">
        <ele>2029.9</ele>
        <time>2022-02-25T11:02:03Z</time>
      </trkpt>
      <trkpt lat="44.80398" lon="6.97142">
        <ele>2029.9</ele>
        <time>2022-02-25T11:02:04Z</time>
      </trkpt>
      <trkpt lat="44.80398" lon="6.97142">
        <ele>2029.9</ele>
        <time>2022-02-25T11:02:05Z</time>
      </trkpt>
      <trkpt lat="44.80398" lon="6.97142">
        <ele>2029.9</ele>
        <time>2022-02-25T11:02:06Z</time>
      </trkpt>
      <trkpt lat="44.80398" lon="6.97142">
        <ele>2029.9</ele>
        <time>2022-02-25T11:02:07Z</time>
      </trkpt>
      <trkpt lat="44.80397" lon="6.97144">
        <ele>2030.1</ele>
        <time>2022-02-25T11:02:08Z</time>
      </trkpt>
      <trkpt lat="44.80397" lon="6.97144">
        <ele>2030.1</ele>
        <time>2022-02-25T11:02:09Z</time>
      </trkpt>
      <trkpt lat="44.80397" lon="6.97144">
        <ele>2030.1</ele>
        <time>2022-02-25T11:02:10Z</time>
      </trkpt>
      <trkpt lat="44.80397" lon="6.97144">
        <ele>2030.1</ele>
        <time>2022-02-25T11:02:11Z</time>
      </trkpt>
      <trkpt lat="44.80397" lon="6.97144">
        <ele>2030.1</ele>
        <time>2022-02-25T11:02:12Z</time>
      </trkpt>
      <trkpt lat="44.80396" lon="6.97145">
        <ele>2030.3</ele>
        <time>2022-02-25T11:02:13Z</time>
      </trkpt>
      <trkpt lat="44.80396" lon="6.97145">
        <ele>2030.3</ele>
        <time>2022-02-25T11:02:14Z</time>
      </trkpt>
      <trkpt lat="44.80396" lon="6.97145">
        <ele>2030.3</ele>
        <time>2022-02-25T11:02:15Z</time>
      </trkpt>
      <trkpt lat="44.80394" lon="6.97147">
        <ele>2030.8</ele>
        <time>2022-02-25T11:02:16Z</time>
      </trkpt>
      <trkpt lat="44.80394" lon="6.97147">
        <ele>2030.8</ele>
        <time>2022-02-25T11:02:17Z</time>
      </trkpt>
      <trkpt lat="44.80394" lon="6.97147">
        <ele>2030.8</ele>
        <time>2022-02-25T11:02:18Z</time>
      </trkpt>
      <trkpt lat="44.80394" lon="6.97147">
        <ele>2030.8</ele>
        <time>2022-02-25T11:02:19Z</time>
      </trkpt>
      <trkpt lat="44.80394" lon="6.97147">
        <ele>2030.8</ele>
        <time>2022-02-25T11:02:20Z</time>
      </trkpt>
      <trkpt lat="44.80392" lon="6.97149">
        <ele>2031.3</ele>
        <time>2022-02-25T11:02:21Z</time>
      </trkpt>
      <trkpt lat="44.80392" lon="6.97149">
        <ele>2031.3</ele>
        <time>2022-02-25T11:02:22Z</time>
      </trkpt>
      <trkpt lat="44.80392" lon="6.97149">
        <ele>2031.3</ele>
        <time>2022-02-25T11:02:23Z</time>
      </trkpt>
      <trkpt lat="44.80392" lon="6.97149">
        <ele>2031.3</ele>
        <time>2022-02-25T11:02:24Z</time>
      </trkpt>
      <trkpt lat="44.80392" lon="6.97149">
        <ele>2031.3</ele>
        <time>2022-02-25T11:02:25Z</time>
      </trkpt>
      <trkpt lat="44.80392" lon="6.97149">
        <ele>2031.3</ele>
        <time>2022-02-25T11:02:26Z</time>
      </trkpt>
      <trkpt lat="44.80392" lon="6.97149">
        <ele>2031.3</ele>
        <time>2022-02-25T11:02:27Z</time>
      </trkpt>
      <trkpt lat="44.80392" lon="6.97149">
        <ele>2031.3</ele>
        <time>2022-02-25T11:02:28Z</time>
      </trkpt>
      <trkpt lat="44.8039" lon="6.97151">
        <ele>2031.8</ele>
        <time>2022-02-25T11:02:29Z</time>
      </trkpt>
      <trkpt lat="44.8039" lon="6.97151">
        <ele>2031.8</ele>
        <time>2022-02-25T11:02:30Z</time>
      </trkpt>
      <trkpt lat="44.80389" lon="6.97153">
        <ele>2031.9</ele>
        <time>2022-02-25T11:02:31Z</time>
      </trkpt>
      <trkpt lat="44.80389" lon="6.97153">
        <ele>2031.9</ele>
        <time>2022-02-25T11:02:32Z</time>
      </trkpt>
      <trkpt lat="44.80388" lon="6.97156">
        <ele>2031.9</ele>
        <time>2022-02-25T11:02:33Z</time>
      </trkpt>
      <trkpt lat="44.80388" lon="6.97156">
        <ele>2031.9</ele>
        <time>2022-02-25T11:02:34Z</time>
      </trkpt>
      <trkpt lat="44.80388" lon="6.97156">
        <ele>2031.9</ele>
        <time>2022-02-25T11:02:35Z</time>
      </trkpt>
      <trkpt lat="44.80388" lon="6.97156">
        <ele>2031.9</ele>
        <time>2022-02-25T11:02:36Z</time>
      </trkpt>
      <trkpt lat="44.80388" lon="6.97156">
        <ele>2031.9</ele>
        <time>2022-02-25T11:02:37Z</time>
      </trkpt>
      <trkpt lat="44.80385" lon="6.97158">
        <ele>2032.9</ele>
        <time>2022-02-25T11:02:38Z</time>
      </trkpt>
      <trkpt lat="44.80385" lon="6.97158">
        <ele>2032.9</ele>
        <time>2022-02-25T11:02:39Z</time>
      </trkpt>
      <trkpt lat="44.80385" lon="6.97158">
        <ele>2032.9</ele>
        <time>2022-02-25T11:02:40Z</time>
      </trkpt>
      <trkpt lat="44.80385" lon="6.97158">
        <ele>2032.9</ele>
        <time>2022-02-25T11:02:41Z</time>
      </trkpt>
      <trkpt lat="44.80385" lon="6.97158">
        <ele>2032.9</ele>
        <time>2022-02-25T11:02:42Z</time>
      </trkpt>
      <trkpt lat="44.80384" lon="6.9716">
        <ele>2033.1</ele>
        <time>2022-02-25T11:02:43Z</time>
      </trkpt>
      <trkpt lat="44.80384" lon="6.9716">
        <ele>2033.1</ele>
        <time>2022-02-25T11:02:44Z</time>
      </trkpt>
      <trkpt lat="44.80384" lon="6.9716">
        <ele>2033.1</ele>
        <time>2022-02-25T11:02:45Z</time>
      </trkpt>
      <trkpt lat="44.80384" lon="6.9716">
        <ele>2033.1</ele>
        <time>2022-02-25T11:02:46Z</time>
      </trkpt>
      <trkpt lat="44.80384" lon="6.9716">
        <ele>2033.1</ele>
        <time>2022-02-25T11:02:47Z</time>
      </trkpt>
      <trkpt lat="44.80384" lon="6.9716">
        <ele>2033.1</ele>
        <time>2022-02-25T11:02:48Z</time>
      </trkpt>
      <trkpt lat="44.80384" lon="6.9716">
        <ele>2033.1</ele>
        <time>2022-02-25T11:02:49Z</time>
      </trkpt>
      <trkpt lat="44.80384" lon="6.9716">
        <ele>2033.1</ele>
        <time>2022-02-25T11:02:50Z</time>
      </trkpt>
      <trkpt lat="44.80384" lon="6.9716">
        <ele>2033.1</ele>
        <time>2022-02-25T11:02:51Z</time>
      </trkpt>
      <trkpt lat="44.80384" lon="6.9716">
        <ele>2033.1</ele>
        <time>2022-02-25T11:02:52Z</time>
      </trkpt>
      <trkpt lat="44.80384" lon="6.9716">
        <ele>2033.1</ele>
        <time>2022-02-25T11:02:53Z</time>
      </trkpt>
      <trkpt lat="44.80384" lon="6.9716">
        <ele>2033.1</ele>
        <time>2022-02-25T11:02:54Z</time>
      </trkpt>
      <trkpt lat="44.80384" lon="6.9716">
        <ele>2033.1</ele>
        <time>2022-02-25T11:02:55Z</time>
      </trkpt>
      <trkpt lat="44.80384" lon="6.9716">
        <ele>2033.1</ele>
        <time>2022-02-25T11:02:56Z</time>
      </trkpt>
      <trkpt lat="44.80384" lon="6.9716">
        <ele>2033.1</ele>
        <time>2022-02-25T11:02:57Z</time>
      </trkpt>
      <trkpt lat="44.80384" lon="6.9716">
        <ele>2033.1</ele>
        <time>2022-02-25T11:02:58Z</time>
      </trkpt>
      <trkpt lat="44.80384" lon="6.9716">
        <ele>2033.1</ele>
        <time>2022-02-25T11:02:59Z</time>
      </trkpt>
      <trkpt lat="44.80384" lon="6.9716">
        <ele>2033.1</ele>
        <time>2022-02-25T11:03:00Z</time>
      </trkpt>
      <trkpt lat="44.80384" lon="6.9716">
        <ele>2033.1</ele>
        <time>2022-02-25T11:03:01Z</time>
      </trkpt>
      <trkpt lat="44.80384" lon="6.9716">
        <ele>2033.1</ele>
        <time>2022-02-25T11:03:02Z</time>
      </trkpt>
      <trkpt lat="44.80384" lon="6.9716">
        <ele>2033.1</ele>
        <time>2022-02-25T11:03:03Z</time>
      </trkpt>
      <trkpt lat="44.80384" lon="6.9716">
        <ele>2033.1</ele>
        <time>2022-02-25T11:03:04Z</time>
      </trkpt>
      <trkpt lat="44.80384" lon="6.9716">
        <ele>2033.1</ele>
        <time>2022-02-25T11:03:05Z</time>
      </trkpt>
      <trkpt lat="44.80384" lon="6.9716">
        <ele>2033.1</ele>
        <time>2022-02-25T11:03:06Z</time>
      </trkpt>
      <trkpt lat="44.80384" lon="6.9716">
        <ele>2033.1</ele>
        <time>2022-02-25T11:03:07Z</time>
      </trkpt>
      <trkpt lat="44.80384" lon="6.9716">
        <ele>2033.1</ele>
        <time>2022-02-25T11:03:08Z</time>
      </trkpt>
      <trkpt lat="44.80384" lon="6.9716">
        <ele>2033.1</ele>
        <time>2022-02-25T11:03:09Z</time>
      </trkpt>
      <trkpt lat="44.80384" lon="6.9716">
        <ele>2033.1</ele>
        <time>2022-02-25T11:03:10Z</time>
      </trkpt>
      <trkpt lat="44.80384" lon="6.9716">
        <ele>2033.1</ele>
        <time>2022-02-25T11:03:11Z</time>
      </trkpt>
      <trkpt lat="44.8038" lon="6.97161">
        <ele>2034.7</ele>
        <time>2022-02-25T11:03:12Z</time>
      </trkpt>
      <trkpt lat="44.8038" lon="6.97161">
        <ele>2034.7</ele>
        <time>2022-02-25T11:03:13Z</time>
      </trkpt>
      <trkpt lat="44.8038" lon="6.97161">
        <ele>2034.7</ele>
        <time>2022-02-25T11:03:14Z</time>
      </trkpt>
      <trkpt lat="44.80378" lon="6.97162">
        <ele>2035.4</ele>
        <time>2022-02-25T11:03:15Z</time>
      </trkpt>
      <trkpt lat="44.80378" lon="6.97162">
        <ele>2035.4</ele>
        <time>2022-02-25T11:03:16Z</time>
      </trkpt>
      <trkpt lat="44.80378" lon="6.97162">
        <ele>2035.4</ele>
        <time>2022-02-25T11:03:17Z</time>
      </trkpt>
      <trkpt lat="44.80378" lon="6.97162">
        <ele>2035.4</ele>
        <time>2022-02-25T11:03:18Z</time>
      </trkpt>
      <trkpt lat="44.80378" lon="6.97162">
        <ele>2035.4</ele>
        <time>2022-02-25T11:03:19Z</time>
      </trkpt>
      <trkpt lat="44.80378" lon="6.97162">
        <ele>2035.4</ele>
        <time>2022-02-25T11:03:20Z</time>
      </trkpt>
      <trkpt lat="44.80378" lon="6.97162">
        <ele>2035.4</ele>
        <time>2022-02-25T11:03:21Z</time>
      </trkpt>
      <trkpt lat="44.80378" lon="6.97162">
        <ele>2035.4</ele>
        <time>2022-02-25T11:03:22Z</time>
      </trkpt>
      <trkpt lat="44.80378" lon="6.97162">
        <ele>2035.4</ele>
        <time>2022-02-25T11:03:23Z</time>
      </trkpt>
      <trkpt lat="44.80378" lon="6.97162">
        <ele>2035.4</ele>
        <time>2022-02-25T11:03:24Z</time>
      </trkpt>
      <trkpt lat="44.80378" lon="6.97162">
        <ele>2035.4</ele>
        <time>2022-02-25T11:03:25Z</time>
      </trkpt>
      <trkpt lat="44.80378" lon="6.97162">
        <ele>2035.4</ele>
        <time>2022-02-25T11:03:26Z</time>
      </trkpt>
      <trkpt lat="44.80377" lon="6.97165">
        <ele>2035.4</ele>
        <time>2022-02-25T11:03:27Z</time>
      </trkpt>
      <trkpt lat="44.80377" lon="6.97165">
        <ele>2035.4</ele>
        <time>2022-02-25T11:03:28Z</time>
      </trkpt>
      <trkpt lat="44.80377" lon="6.97165">
        <ele>2035.4</ele>
        <time>2022-02-25T11:03:29Z</time>
      </trkpt>
      <trkpt lat="44.80377" lon="6.97165">
        <ele>2035.4</ele>
        <time>2022-02-25T11:03:30Z</time>
      </trkpt>
      <trkpt lat="44.80377" lon="6.97165">
        <ele>2035.4</ele>
        <time>2022-02-25T11:03:31Z</time>
      </trkpt>
      <trkpt lat="44.80376" lon="6.97166">
        <ele>2035.7</ele>
        <time>2022-02-25T11:03:32Z</time>
      </trkpt>
      <trkpt lat="44.80376" lon="6.97166">
        <ele>2035.7</ele>
        <time>2022-02-25T11:03:33Z</time>
      </trkpt>
      <trkpt lat="44.80376" lon="6.97166">
        <ele>2035.7</ele>
        <time>2022-02-25T11:03:34Z</time>
      </trkpt>
      <trkpt lat="44.80376" lon="6.97166">
        <ele>2035.7</ele>
        <time>2022-02-25T11:03:35Z</time>
      </trkpt>
      <trkpt lat="44.80374" lon="6.97168">
        <ele>2036.3</ele>
        <time>2022-02-25T11:03:36Z</time>
      </trkpt>
      <trkpt lat="44.80374" lon="6.97168">
        <ele>2036.3</ele>
        <time>2022-02-25T11:03:37Z</time>
      </trkpt>
      <trkpt lat="44.80374" lon="6.97168">
        <ele>2036.3</ele>
        <time>2022-02-25T11:03:38Z</time>
      </trkpt>
      <trkpt lat="44.80372" lon="6.97171">
        <ele>2036.8</ele>
        <time>2022-02-25T11:03:39Z</time>
      </trkpt>
      <trkpt lat="44.80372" lon="6.97171">
        <ele>2036.8</ele>
        <time>2022-02-25T11:03:40Z</time>
      </trkpt>
      <trkpt lat="44.80372" lon="6.97171">
        <ele>2036.8</ele>
        <time>2022-02-25T11:03:41Z</time>
      </trkpt>
      <trkpt lat="44.80371" lon="6.97173">
        <ele>2037</ele>
        <time>2022-02-25T11:03:42Z</time>
      </trkpt>
      <trkpt lat="44.80371" lon="6.97173">
        <ele>2037</ele>
        <time>2022-02-25T11:03:43Z</time>
      </trkpt>
      <trkpt lat="44.80369" lon="6.97176">
        <ele>2037.5</ele>
        <time>2022-02-25T11:03:44Z</time>
      </trkpt>
      <trkpt lat="44.80369" lon="6.97176">
        <ele>2037.5</ele>
        <time>2022-02-25T11:03:45Z</time>
      </trkpt>
      <trkpt lat="44.80369" lon="6.97176">
        <ele>2037.5</ele>
        <time>2022-02-25T11:03:46Z</time>
      </trkpt>
      <trkpt lat="44.80369" lon="6.97176">
        <ele>2037.5</ele>
        <time>2022-02-25T11:03:47Z</time>
      </trkpt>
      <trkpt lat="44.80369" lon="6.97176">
        <ele>2037.5</ele>
        <time>2022-02-25T11:03:48Z</time>
      </trkpt>
      <trkpt lat="44.80369" lon="6.97176">
        <ele>2037.5</ele>
        <time>2022-02-25T11:03:49Z</time>
      </trkpt>
      <trkpt lat="44.80368" lon="6.97178">
        <ele>2037.7</ele>
        <time>2022-02-25T11:03:50Z</time>
      </trkpt>
      <trkpt lat="44.80368" lon="6.97178">
        <ele>2037.7</ele>
        <time>2022-02-25T11:03:51Z</time>
      </trkpt>
      <trkpt lat="44.80368" lon="6.97178">
        <ele>2037.7</ele>
        <time>2022-02-25T11:03:52Z</time>
      </trkpt>
      <trkpt lat="44.80366" lon="6.9718">
        <ele>2038.4</ele>
        <time>2022-02-25T11:03:53Z</time>
      </trkpt>
      <trkpt lat="44.80366" lon="6.9718">
        <ele>2038.4</ele>
        <time>2022-02-25T11:03:54Z</time>
      </trkpt>
      <trkpt lat="44.80366" lon="6.9718">
        <ele>2038.4</ele>
        <time>2022-02-25T11:03:55Z</time>
      </trkpt>
      <trkpt lat="44.80365" lon="6.97183">
        <ele>2038.5</ele>
        <time>2022-02-25T11:03:56Z</time>
      </trkpt>
      <trkpt lat="44.80365" lon="6.97183">
        <ele>2038.5</ele>
        <time>2022-02-25T11:03:57Z</time>
      </trkpt>
      <trkpt lat="44.80365" lon="6.97183">
        <ele>2038.5</ele>
        <time>2022-02-25T11:03:58Z</time>
      </trkpt>
      <trkpt lat="44.80365" lon="6.97183">
        <ele>2038.5</ele>
        <time>2022-02-25T11:03:59Z</time>
      </trkpt>
      <trkpt lat="44.80365" lon="6.97183">
        <ele>2038.5</ele>
        <time>2022-02-25T11:04:00Z</time>
      </trkpt>
      <trkpt lat="44.80365" lon="6.97183">
        <ele>2038.5</ele>
        <time>2022-02-25T11:04:01Z</time>
      </trkpt>
      <trkpt lat="44.80364" lon="6.97186">
        <ele>2038.6</ele>
        <time>2022-02-25T11:04:02Z</time>
      </trkpt>
      <trkpt lat="44.80364" lon="6.97186">
        <ele>2038.6</ele>
        <time>2022-02-25T11:04:03Z</time>
      </trkpt>
      <trkpt lat="44.80364" lon="6.97186">
        <ele>2038.6</ele>
        <time>2022-02-25T11:04:04Z</time>
      </trkpt>
      <trkpt lat="44.80364" lon="6.97186">
        <ele>2038.6</ele>
        <time>2022-02-25T11:04:05Z</time>
      </trkpt>
      <trkpt lat="44.80364" lon="6.97186">
        <ele>2038.6</ele>
        <time>2022-02-25T11:04:06Z</time>
      </trkpt>
      <trkpt lat="44.80364" lon="6.97186">
        <ele>2038.6</ele>
        <time>2022-02-25T11:04:07Z</time>
      </trkpt>
      <trkpt lat="44.80361" lon="6.97185">
        <ele>2040.1</ele>
        <time>2022-02-25T11:04:08Z</time>
      </trkpt>
      <trkpt lat="44.80361" lon="6.97185">
        <ele>2040.1</ele>
        <time>2022-02-25T11:04:09Z</time>
      </trkpt>
      <trkpt lat="44.80359" lon="6.97186">
        <ele>2040.8</ele>
        <time>2022-02-25T11:04:10Z</time>
      </trkpt>
      <trkpt lat="44.80359" lon="6.97186">
        <ele>2040.8</ele>
        <time>2022-02-25T11:04:11Z</time>
      </trkpt>
      <trkpt lat="44.80359" lon="6.97186">
        <ele>2040.8</ele>
        <time>2022-02-25T11:04:12Z</time>
      </trkpt>
      <trkpt lat="44.80359" lon="6.97186">
        <ele>2040.8</ele>
        <time>2022-02-25T11:04:13Z</time>
      </trkpt>
      <trkpt lat="44.80357" lon="6.97185">
        <ele>2041.8</ele>
        <time>2022-02-25T11:04:14Z</time>
      </trkpt>
      <trkpt lat="44.80357" lon="6.97185">
        <ele>2041.8</ele>
        <time>2022-02-25T11:04:15Z</time>
      </trkpt>
      <trkpt lat="44.80357" lon="6.97185">
        <ele>2041.8</ele>
        <time>2022-02-25T11:04:16Z</time>
      </trkpt>
      <trkpt lat="44.80357" lon="6.97185">
        <ele>2041.8</ele>
        <time>2022-02-25T11:04:17Z</time>
      </trkpt>
      <trkpt lat="44.80357" lon="6.97185">
        <ele>2041.8</ele>
        <time>2022-02-25T11:04:18Z</time>
      </trkpt>
      <trkpt lat="44.80357" lon="6.97185">
        <ele>2041.8</ele>
        <time>2022-02-25T11:04:19Z</time>
      </trkpt>
      <trkpt lat="44.80357" lon="6.97185">
        <ele>2041.8</ele>
        <time>2022-02-25T11:04:20Z</time>
      </trkpt>
      <trkpt lat="44.80357" lon="6.97185">
        <ele>2041.8</ele>
        <time>2022-02-25T11:04:21Z</time>
      </trkpt>
      <trkpt lat="44.80357" lon="6.97185">
        <ele>2041.8</ele>
        <time>2022-02-25T11:04:22Z</time>
      </trkpt>
      <trkpt lat="44.80356" lon="6.97187">
        <ele>2042</ele>
        <time>2022-02-25T11:04:23Z</time>
      </trkpt>
      <trkpt lat="44.80356" lon="6.97187">
        <ele>2042</ele>
        <time>2022-02-25T11:04:24Z</time>
      </trkpt>
      <trkpt lat="44.80356" lon="6.97187">
        <ele>2042</ele>
        <time>2022-02-25T11:04:25Z</time>
      </trkpt>
      <trkpt lat="44.80356" lon="6.97187">
        <ele>2042</ele>
        <time>2022-02-25T11:04:26Z</time>
      </trkpt>
      <trkpt lat="44.80356" lon="6.97187">
        <ele>2042</ele>
        <time>2022-02-25T11:04:27Z</time>
      </trkpt>
      <trkpt lat="44.80356" lon="6.97187">
        <ele>2042</ele>
        <time>2022-02-25T11:04:28Z</time>
      </trkpt>
      <trkpt lat="44.80356" lon="6.97187">
        <ele>2042</ele>
        <time>2022-02-25T11:04:29Z</time>
      </trkpt>
      <trkpt lat="44.80356" lon="6.97187">
        <ele>2042</ele>
        <time>2022-02-25T11:04:30Z</time>
      </trkpt>
      <trkpt lat="44.80354" lon="6.97189">
        <ele>2042.7</ele>
        <time>2022-02-25T11:04:31Z</time>
      </trkpt>
      <trkpt lat="44.80354" lon="6.97189">
        <ele>2042.7</ele>
        <time>2022-02-25T11:04:32Z</time>
      </trkpt>
      <trkpt lat="44.80354" lon="6.97189">
        <ele>2042.7</ele>
        <time>2022-02-25T11:04:33Z</time>
      </trkpt>
      <trkpt lat="44.80354" lon="6.97189">
        <ele>2042.7</ele>
        <time>2022-02-25T11:04:34Z</time>
      </trkpt>
      <trkpt lat="44.80354" lon="6.97189">
        <ele>2042.7</ele>
        <time>2022-02-25T11:04:35Z</time>
      </trkpt>
      <trkpt lat="44.80354" lon="6.97189">
        <ele>2042.7</ele>
        <time>2022-02-25T11:04:36Z</time>
      </trkpt>
      <trkpt lat="44.80352" lon="6.97189">
        <ele>2043.5</ele>
        <time>2022-02-25T11:04:37Z</time>
      </trkpt>
      <trkpt lat="44.80352" lon="6.97189">
        <ele>2043.5</ele>
        <time>2022-02-25T11:04:38Z</time>
      </trkpt>
      <trkpt lat="44.80352" lon="6.97189">
        <ele>2043.5</ele>
        <time>2022-02-25T11:04:39Z</time>
      </trkpt>
      <trkpt lat="44.80352" lon="6.97189">
        <ele>2043.5</ele>
        <time>2022-02-25T11:04:40Z</time>
      </trkpt>
      <trkpt lat="44.80352" lon="6.97189">
        <ele>2043.5</ele>
        <time>2022-02-25T11:04:41Z</time>
      </trkpt>
      <trkpt lat="44.80352" lon="6.97189">
        <ele>2043.5</ele>
        <time>2022-02-25T11:04:42Z</time>
      </trkpt>
      <trkpt lat="44.80352" lon="6.97189">
        <ele>2043.5</ele>
        <time>2022-02-25T11:04:43Z</time>
      </trkpt>
      <trkpt lat="44.80352" lon="6.97189">
        <ele>2043.5</ele>
        <time>2022-02-25T11:04:44Z</time>
      </trkpt>
      <trkpt lat="44.80352" lon="6.97189">
        <ele>2043.5</ele>
        <time>2022-02-25T11:04:45Z</time>
      </trkpt>
      <trkpt lat="44.80352" lon="6.97189">
        <ele>2043.5</ele>
        <time>2022-02-25T11:04:46Z</time>
      </trkpt>
      <trkpt lat="44.80349" lon="6.9719">
        <ele>2044.7</ele>
        <time>2022-02-25T11:04:47Z</time>
      </trkpt>
      <trkpt lat="44.80349" lon="6.9719">
        <ele>2044.7</ele>
        <time>2022-02-25T11:04:48Z</time>
      </trkpt>
      <trkpt lat="44.80349" lon="6.9719">
        <ele>2044.7</ele>
        <time>2022-02-25T11:04:49Z</time>
      </trkpt>
      <trkpt lat="44.80349" lon="6.9719">
        <ele>2044.7</ele>
        <time>2022-02-25T11:04:50Z</time>
      </trkpt>
      <trkpt lat="44.80348" lon="6.97192">
        <ele>2044.9</ele>
        <time>2022-02-25T11:04:51Z</time>
      </trkpt>
      <trkpt lat="44.80348" lon="6.97192">
        <ele>2044.9</ele>
        <time>2022-02-25T11:04:52Z</time>
      </trkpt>
      <trkpt lat="44.80348" lon="6.97192">
        <ele>2044.9</ele>
        <time>2022-02-25T11:04:53Z</time>
      </trkpt>
      <trkpt lat="44.80346" lon="6.97193">
        <ele>2045.7</ele>
        <time>2022-02-25T11:04:54Z</time>
      </trkpt>
      <trkpt lat="44.80346" lon="6.97193">
        <ele>2045.7</ele>
        <time>2022-02-25T11:04:55Z</time>
      </trkpt>
      <trkpt lat="44.80346" lon="6.97193">
        <ele>2045.7</ele>
        <time>2022-02-25T11:04:56Z</time>
      </trkpt>
      <trkpt lat="44.80344" lon="6.97196">
        <ele>2046.2</ele>
        <time>2022-02-25T11:04:57Z</time>
      </trkpt>
      <trkpt lat="44.80344" lon="6.97196">
        <ele>2046.2</ele>
        <time>2022-02-25T11:04:58Z</time>
      </trkpt>
      <trkpt lat="44.80344" lon="6.97196">
        <ele>2046.2</ele>
        <time>2022-02-25T11:04:59Z</time>
      </trkpt>
      <trkpt lat="44.80344" lon="6.97196">
        <ele>2046.2</ele>
        <time>2022-02-25T11:05:00Z</time>
      </trkpt>
      <trkpt lat="44.80344" lon="6.97196">
        <ele>2046.2</ele>
        <time>2022-02-25T11:05:01Z</time>
      </trkpt>
      <trkpt lat="44.80344" lon="6.97196">
        <ele>2046.2</ele>
        <time>2022-02-25T11:05:02Z</time>
      </trkpt>
      <trkpt lat="44.80343" lon="6.97198">
        <ele>2046.4</ele>
        <time>2022-02-25T11:05:03Z</time>
      </trkpt>
      <trkpt lat="44.80343" lon="6.97198">
        <ele>2046.4</ele>
        <time>2022-02-25T11:05:04Z</time>
      </trkpt>
      <trkpt lat="44.80343" lon="6.97198">
        <ele>2046.4</ele>
        <time>2022-02-25T11:05:05Z</time>
      </trkpt>
      <trkpt lat="44.80343" lon="6.97198">
        <ele>2046.4</ele>
        <time>2022-02-25T11:05:06Z</time>
      </trkpt>
      <trkpt lat="44.80343" lon="6.97198">
        <ele>2046.4</ele>
        <time>2022-02-25T11:05:07Z</time>
      </trkpt>
      <trkpt lat="44.80342" lon="6.97201">
        <ele>2046.4</ele>
        <time>2022-02-25T11:05:08Z</time>
      </trkpt>
      <trkpt lat="44.80342" lon="6.97201">
        <ele>2046.4</ele>
        <time>2022-02-25T11:05:09Z</time>
      </trkpt>
      <trkpt lat="44.80342" lon="6.97201">
        <ele>2046.4</ele>
        <time>2022-02-25T11:05:10Z</time>
      </trkpt>
      <trkpt lat="44.80342" lon="6.97201">
        <ele>2046.4</ele>
        <time>2022-02-25T11:05:11Z</time>
      </trkpt>
      <trkpt lat="44.80342" lon="6.97201">
        <ele>2046.4</ele>
        <time>2022-02-25T11:05:12Z</time>
      </trkpt>
      <trkpt lat="44.80342" lon="6.97201">
        <ele>2046.4</ele>
        <time>2022-02-25T11:05:13Z</time>
      </trkpt>
      <trkpt lat="44.80341" lon="6.97203">
        <ele>2046.6</ele>
        <time>2022-02-25T11:05:14Z</time>
      </trkpt>
      <trkpt lat="44.80341" lon="6.97203">
        <ele>2046.6</ele>
        <time>2022-02-25T11:05:15Z</time>
      </trkpt>
      <trkpt lat="44.80341" lon="6.97203">
        <ele>2046.6</ele>
        <time>2022-02-25T11:05:16Z</time>
      </trkpt>
      <trkpt lat="44.80339" lon="6.97206">
        <ele>2047.1</ele>
        <time>2022-02-25T11:05:17Z</time>
      </trkpt>
      <trkpt lat="44.80339" lon="6.97206">
        <ele>2047.1</ele>
        <time>2022-02-25T11:05:18Z</time>
      </trkpt>
      <trkpt lat="44.80339" lon="6.97206">
        <ele>2047.1</ele>
        <time>2022-02-25T11:05:19Z</time>
      </trkpt>
      <trkpt lat="44.80339" lon="6.97206">
        <ele>2047.1</ele>
        <time>2022-02-25T11:05:20Z</time>
      </trkpt>
      <trkpt lat="44.80339" lon="6.97206">
        <ele>2047.1</ele>
        <time>2022-02-25T11:05:21Z</time>
      </trkpt>
      <trkpt lat="44.80337" lon="6.97208">
        <ele>2047.8</ele>
        <time>2022-02-25T11:05:22Z</time>
      </trkpt>
      <trkpt lat="44.80337" lon="6.97208">
        <ele>2047.8</ele>
        <time>2022-02-25T11:05:23Z</time>
      </trkpt>
      <trkpt lat="44.80337" lon="6.97208">
        <ele>2047.8</ele>
        <time>2022-02-25T11:05:24Z</time>
      </trkpt>
      <trkpt lat="44.80337" lon="6.97208">
        <ele>2047.8</ele>
        <time>2022-02-25T11:05:25Z</time>
      </trkpt>
      <trkpt lat="44.80336" lon="6.9721">
        <ele>2048.1</ele>
        <time>2022-02-25T11:05:26Z</time>
      </trkpt>
      <trkpt lat="44.80336" lon="6.9721">
        <ele>2048.1</ele>
        <time>2022-02-25T11:05:27Z</time>
      </trkpt>
      <trkpt lat="44.80336" lon="6.9721">
        <ele>2048.1</ele>
        <time>2022-02-25T11:05:28Z</time>
      </trkpt>
      <trkpt lat="44.80336" lon="6.9721">
        <ele>2048.1</ele>
        <time>2022-02-25T11:05:29Z</time>
      </trkpt>
      <trkpt lat="44.80336" lon="6.9721">
        <ele>2048.1</ele>
        <time>2022-02-25T11:05:30Z</time>
      </trkpt>
      <trkpt lat="44.80336" lon="6.9721">
        <ele>2048.1</ele>
        <time>2022-02-25T11:05:31Z</time>
      </trkpt>
      <trkpt lat="44.80334" lon="6.97213">
        <ele>2048.7</ele>
        <time>2022-02-25T11:05:32Z</time>
      </trkpt>
      <trkpt lat="44.80334" lon="6.97213">
        <ele>2048.7</ele>
        <time>2022-02-25T11:05:33Z</time>
      </trkpt>
      <trkpt lat="44.80333" lon="6.97215">
        <ele>2048.9</ele>
        <time>2022-02-25T11:05:34Z</time>
      </trkpt>
      <trkpt lat="44.80333" lon="6.97215">
        <ele>2048.9</ele>
        <time>2022-02-25T11:05:35Z</time>
      </trkpt>
      <trkpt lat="44.80333" lon="6.97215">
        <ele>2048.9</ele>
        <time>2022-02-25T11:05:36Z</time>
      </trkpt>
      <trkpt lat="44.80333" lon="6.97215">
        <ele>2048.9</ele>
        <time>2022-02-25T11:05:37Z</time>
      </trkpt>
      <trkpt lat="44.80332" lon="6.97216">
        <ele>2049.2</ele>
        <time>2022-02-25T11:05:38Z</time>
      </trkpt>
      <trkpt lat="44.80332" lon="6.97216">
        <ele>2049.2</ele>
        <time>2022-02-25T11:05:39Z</time>
      </trkpt>
      <trkpt lat="44.80332" lon="6.97216">
        <ele>2049.2</ele>
        <time>2022-02-25T11:05:40Z</time>
      </trkpt>
      <trkpt lat="44.80332" lon="6.97216">
        <ele>2049.2</ele>
        <time>2022-02-25T11:05:41Z</time>
      </trkpt>
      <trkpt lat="44.80332" lon="6.97216">
        <ele>2049.2</ele>
        <time>2022-02-25T11:05:42Z</time>
      </trkpt>
      <trkpt lat="44.80332" lon="6.97216">
        <ele>2049.2</ele>
        <time>2022-02-25T11:05:43Z</time>
      </trkpt>
      <trkpt lat="44.80332" lon="6.97216">
        <ele>2049.2</ele>
        <time>2022-02-25T11:05:44Z</time>
      </trkpt>
      <trkpt lat="44.8033" lon="6.97215">
        <ele>2050.1</ele>
        <time>2022-02-25T11:05:45Z</time>
      </trkpt>
      <trkpt lat="44.8033" lon="6.97215">
        <ele>2050.1</ele>
        <time>2022-02-25T11:05:46Z</time>
      </trkpt>
      <trkpt lat="44.8033" lon="6.97215">
        <ele>2050.1</ele>
        <time>2022-02-25T11:05:47Z</time>
      </trkpt>
      <trkpt lat="44.8033" lon="6.97215">
        <ele>2050.1</ele>
        <time>2022-02-25T11:05:48Z</time>
      </trkpt>
      <trkpt lat="44.80328" lon="6.97212">
        <ele>2051.3</ele>
        <time>2022-02-25T11:05:49Z</time>
      </trkpt>
      <trkpt lat="44.80328" lon="6.97212">
        <ele>2051.3</ele>
        <time>2022-02-25T11:05:50Z</time>
      </trkpt>
      <trkpt lat="44.80328" lon="6.97212">
        <ele>2051.3</ele>
        <time>2022-02-25T11:05:51Z</time>
      </trkpt>
      <trkpt lat="44.80328" lon="6.97212">
        <ele>2051.3</ele>
        <time>2022-02-25T11:05:52Z</time>
      </trkpt>
      <trkpt lat="44.80328" lon="6.97212">
        <ele>2051.3</ele>
        <time>2022-02-25T11:05:53Z</time>
      </trkpt>
      <trkpt lat="44.80328" lon="6.97212">
        <ele>2051.3</ele>
        <time>2022-02-25T11:05:54Z</time>
      </trkpt>
      <trkpt lat="44.80327" lon="6.9721">
        <ele>2051.9</ele>
        <time>2022-02-25T11:05:55Z</time>
      </trkpt>
      <trkpt lat="44.80327" lon="6.9721">
        <ele>2051.9</ele>
        <time>2022-02-25T11:05:56Z</time>
      </trkpt>
      <trkpt lat="44.80327" lon="6.9721">
        <ele>2051.9</ele>
        <time>2022-02-25T11:05:57Z</time>
      </trkpt>
      <trkpt lat="44.80327" lon="6.9721">
        <ele>2051.9</ele>
        <time>2022-02-25T11:05:58Z</time>
      </trkpt>
      <trkpt lat="44.80327" lon="6.9721">
        <ele>2051.9</ele>
        <time>2022-02-25T11:05:59Z</time>
      </trkpt>
      <trkpt lat="44.80327" lon="6.9721">
        <ele>2051.9</ele>
        <time>2022-02-25T11:06:00Z</time>
      </trkpt>
      <trkpt lat="44.80326" lon="6.97207">
        <ele>2052.7</ele>
        <time>2022-02-25T11:06:01Z</time>
      </trkpt>
      <trkpt lat="44.80326" lon="6.97207">
        <ele>2052.7</ele>
        <time>2022-02-25T11:06:02Z</time>
      </trkpt>
      <trkpt lat="44.80326" lon="6.97207">
        <ele>2052.7</ele>
        <time>2022-02-25T11:06:03Z</time>
      </trkpt>
      <trkpt lat="44.80326" lon="6.97207">
        <ele>2052.7</ele>
        <time>2022-02-25T11:06:04Z</time>
      </trkpt>
      <trkpt lat="44.80326" lon="6.97207">
        <ele>2052.7</ele>
        <time>2022-02-25T11:06:05Z</time>
      </trkpt>
      <trkpt lat="44.80324" lon="6.97206">
        <ele>2053.6</ele>
        <time>2022-02-25T11:06:06Z</time>
      </trkpt>
      <trkpt lat="44.80324" lon="6.97206">
        <ele>2053.6</ele>
        <time>2022-02-25T11:06:07Z</time>
      </trkpt>
      <trkpt lat="44.80324" lon="6.97206">
        <ele>2053.6</ele>
        <time>2022-02-25T11:06:08Z</time>
      </trkpt>
      <trkpt lat="44.80324" lon="6.97206">
        <ele>2053.6</ele>
        <time>2022-02-25T11:06:09Z</time>
      </trkpt>
      <trkpt lat="44.80324" lon="6.97206">
        <ele>2053.6</ele>
        <time>2022-02-25T11:06:10Z</time>
      </trkpt>
      <trkpt lat="44.80324" lon="6.97206">
        <ele>2053.6</ele>
        <time>2022-02-25T11:06:11Z</time>
      </trkpt>
      <trkpt lat="44.80323" lon="6.97203">
        <ele>2054.4</ele>
        <time>2022-02-25T11:06:12Z</time>
      </trkpt>
      <trkpt lat="44.80323" lon="6.97203">
        <ele>2054.4</ele>
        <time>2022-02-25T11:06:13Z</time>
      </trkpt>
      <trkpt lat="44.80323" lon="6.97203">
        <ele>2054.4</ele>
        <time>2022-02-25T11:06:14Z</time>
      </trkpt>
      <trkpt lat="44.80323" lon="6.97203">
        <ele>2054.4</ele>
        <time>2022-02-25T11:06:15Z</time>
      </trkpt>
      <trkpt lat="44.80323" lon="6.97203">
        <ele>2054.4</ele>
        <time>2022-02-25T11:06:16Z</time>
      </trkpt>
      <trkpt lat="44.80323" lon="6.972">
        <ele>2054.8</ele>
        <time>2022-02-25T11:06:17Z</time>
      </trkpt>
      <trkpt lat="44.80323" lon="6.972">
        <ele>2054.8</ele>
        <time>2022-02-25T11:06:18Z</time>
      </trkpt>
      <trkpt lat="44.80323" lon="6.972">
        <ele>2054.8</ele>
        <time>2022-02-25T11:06:19Z</time>
      </trkpt>
      <trkpt lat="44.80323" lon="6.972">
        <ele>2054.8</ele>
        <time>2022-02-25T11:06:20Z</time>
      </trkpt>
      <trkpt lat="44.80322" lon="6.97198">
        <ele>2055.5</ele>
        <time>2022-02-25T11:06:21Z</time>
      </trkpt>
      <trkpt lat="44.80322" lon="6.97198">
        <ele>2055.5</ele>
        <time>2022-02-25T11:06:22Z</time>
      </trkpt>
      <trkpt lat="44.80322" lon="6.97198">
        <ele>2055.5</ele>
        <time>2022-02-25T11:06:23Z</time>
      </trkpt>
      <trkpt lat="44.80322" lon="6.97198">
        <ele>2055.5</ele>
        <time>2022-02-25T11:06:24Z</time>
      </trkpt>
      <trkpt lat="44.80322" lon="6.97198">
        <ele>2055.5</ele>
        <time>2022-02-25T11:06:25Z</time>
      </trkpt>
      <trkpt lat="44.8032" lon="6.97195">
        <ele>2056.7</ele>
        <time>2022-02-25T11:06:26Z</time>
      </trkpt>
      <trkpt lat="44.8032" lon="6.97195">
        <ele>2056.7</ele>
        <time>2022-02-25T11:06:27Z</time>
      </trkpt>
      <trkpt lat="44.8032" lon="6.97195">
        <ele>2056.7</ele>
        <time>2022-02-25T11:06:28Z</time>
      </trkpt>
      <trkpt lat="44.8032" lon="6.97195">
        <ele>2056.7</ele>
        <time>2022-02-25T11:06:29Z</time>
      </trkpt>
      <trkpt lat="44.80319" lon="6.97193">
        <ele>2057.3</ele>
        <time>2022-02-25T11:06:30Z</time>
      </trkpt>
      <trkpt lat="44.80319" lon="6.97193">
        <ele>2057.3</ele>
        <time>2022-02-25T11:06:31Z</time>
      </trkpt>
      <trkpt lat="44.80319" lon="6.97193">
        <ele>2057.3</ele>
        <time>2022-02-25T11:06:32Z</time>
      </trkpt>
      <trkpt lat="44.80319" lon="6.97193">
        <ele>2057.3</ele>
        <time>2022-02-25T11:06:33Z</time>
      </trkpt>
      <trkpt lat="44.80319" lon="6.97193">
        <ele>2057.3</ele>
        <time>2022-02-25T11:06:34Z</time>
      </trkpt>
      <trkpt lat="44.80318" lon="6.9719">
        <ele>2058.1</ele>
        <time>2022-02-25T11:06:35Z</time>
      </trkpt>
      <trkpt lat="44.80318" lon="6.9719">
        <ele>2058.1</ele>
        <time>2022-02-25T11:06:36Z</time>
      </trkpt>
      <trkpt lat="44.80318" lon="6.9719">
        <ele>2058.1</ele>
        <time>2022-02-25T11:06:37Z</time>
      </trkpt>
      <trkpt lat="44.80318" lon="6.9719">
        <ele>2058.1</ele>
        <time>2022-02-25T11:06:38Z</time>
      </trkpt>
      <trkpt lat="44.80318" lon="6.9719">
        <ele>2058.1</ele>
        <time>2022-02-25T11:06:39Z</time>
      </trkpt>
      <trkpt lat="44.80318" lon="6.97187">
        <ele>2058.4</ele>
        <time>2022-02-25T11:06:40Z</time>
      </trkpt>
      <trkpt lat="44.80318" lon="6.97187">
        <ele>2058.4</ele>
        <time>2022-02-25T11:06:41Z</time>
      </trkpt>
      <trkpt lat="44.80318" lon="6.97187">
        <ele>2058.4</ele>
        <time>2022-02-25T11:06:42Z</time>
      </trkpt>
      <trkpt lat="44.80318" lon="6.97187">
        <ele>2058.4</ele>
        <time>2022-02-25T11:06:43Z</time>
      </trkpt>
      <trkpt lat="44.80318" lon="6.97184">
        <ele>2058.8</ele>
        <time>2022-02-25T11:06:44Z</time>
      </trkpt>
      <trkpt lat="44.80318" lon="6.97184">
        <ele>2058.8</ele>
        <time>2022-02-25T11:06:45Z</time>
      </trkpt>
      <trkpt lat="44.80318" lon="6.97184">
        <ele>2058.8</ele>
        <time>2022-02-25T11:06:46Z</time>
      </trkpt>
      <trkpt lat="44.80318" lon="6.97184">
        <ele>2058.8</ele>
        <time>2022-02-25T11:06:47Z</time>
      </trkpt>
      <trkpt lat="44.80318" lon="6.97184">
        <ele>2058.8</ele>
        <time>2022-02-25T11:06:48Z</time>
      </trkpt>
      <trkpt lat="44.80318" lon="6.97181">
        <ele>2059.1</ele>
        <time>2022-02-25T11:06:49Z</time>
      </trkpt>
      <trkpt lat="44.80318" lon="6.97181">
        <ele>2059.1</ele>
        <time>2022-02-25T11:06:50Z</time>
      </trkpt>
      <trkpt lat="44.80318" lon="6.97181">
        <ele>2059.1</ele>
        <time>2022-02-25T11:06:51Z</time>
      </trkpt>
      <trkpt lat="44.80318" lon="6.97181">
        <ele>2059.1</ele>
        <time>2022-02-25T11:06:52Z</time>
      </trkpt>
      <trkpt lat="44.80318" lon="6.97181">
        <ele>2059.1</ele>
        <time>2022-02-25T11:06:53Z</time>
      </trkpt>
      <trkpt lat="44.80318" lon="6.97181">
        <ele>2059.1</ele>
        <time>2022-02-25T11:06:54Z</time>
      </trkpt>
      <trkpt lat="44.80318" lon="6.97181">
        <ele>2059.1</ele>
        <time>2022-02-25T11:06:55Z</time>
      </trkpt>
      <trkpt lat="44.80316" lon="6.97179">
        <ele>2060.2</ele>
        <time>2022-02-25T11:06:56Z</time>
      </trkpt>
      <trkpt lat="44.80316" lon="6.97179">
        <ele>2060.2</ele>
        <time>2022-02-25T11:06:57Z</time>
      </trkpt>
      <trkpt lat="44.80316" lon="6.97179">
        <ele>2060.2</ele>
        <time>2022-02-25T11:06:58Z</time>
      </trkpt>
      <trkpt lat="44.80316" lon="6.97179">
        <ele>2060.2</ele>
        <time>2022-02-25T11:06:59Z</time>
      </trkpt>
      <trkpt lat="44.80316" lon="6.97179">
        <ele>2060.2</ele>
        <time>2022-02-25T11:07:00Z</time>
      </trkpt>
      <trkpt lat="44.80316" lon="6.97179">
        <ele>2060.2</ele>
        <time>2022-02-25T11:07:01Z</time>
      </trkpt>
      <trkpt lat="44.80314" lon="6.97182">
        <ele>2060.7</ele>
        <time>2022-02-25T11:07:02Z</time>
      </trkpt>
      <trkpt lat="44.80314" lon="6.97182">
        <ele>2060.7</ele>
        <time>2022-02-25T11:07:03Z</time>
      </trkpt>
      <trkpt lat="44.80314" lon="6.97182">
        <ele>2060.7</ele>
        <time>2022-02-25T11:07:04Z</time>
      </trkpt>
      <trkpt lat="44.80314" lon="6.97182">
        <ele>2060.7</ele>
        <time>2022-02-25T11:07:05Z</time>
      </trkpt>
      <trkpt lat="44.80314" lon="6.97182">
        <ele>2060.7</ele>
        <time>2022-02-25T11:07:06Z</time>
      </trkpt>
      <trkpt lat="44.80314" lon="6.97182">
        <ele>2060.7</ele>
        <time>2022-02-25T11:07:07Z</time>
      </trkpt>
      <trkpt lat="44.80314" lon="6.97182">
        <ele>2060.7</ele>
        <time>2022-02-25T11:07:08Z</time>
      </trkpt>
      <trkpt lat="44.80314" lon="6.97183">
        <ele>2060.6</ele>
        <time>2022-02-25T11:07:09Z</time>
      </trkpt>
      <trkpt lat="44.80314" lon="6.97183">
        <ele>2060.6</ele>
        <time>2022-02-25T11:07:10Z</time>
      </trkpt>
      <trkpt lat="44.80314" lon="6.97183">
        <ele>2060.6</ele>
        <time>2022-02-25T11:07:11Z</time>
      </trkpt>
      <trkpt lat="44.80314" lon="6.97183">
        <ele>2060.6</ele>
        <time>2022-02-25T11:07:12Z</time>
      </trkpt>
      <trkpt lat="44.80313" lon="6.97184">
        <ele>2060.9</ele>
        <time>2022-02-25T11:07:13Z</time>
      </trkpt>
      <trkpt lat="44.80313" lon="6.97184">
        <ele>2060.9</ele>
        <time>2022-02-25T11:07:14Z</time>
      </trkpt>
      <trkpt lat="44.80313" lon="6.97184">
        <ele>2060.9</ele>
        <time>2022-02-25T11:07:15Z</time>
      </trkpt>
      <trkpt lat="44.80313" lon="6.97184">
        <ele>2060.9</ele>
        <time>2022-02-25T11:07:16Z</time>
      </trkpt>
      <trkpt lat="44.80313" lon="6.97185">
        <ele>2060.8</ele>
        <time>2022-02-25T11:07:17Z</time>
      </trkpt>
      <trkpt lat="44.80313" lon="6.97185">
        <ele>2060.8</ele>
        <time>2022-02-25T11:07:18Z</time>
      </trkpt>
      <trkpt lat="44.80313" lon="6.97185">
        <ele>2060.8</ele>
        <time>2022-02-25T11:07:19Z</time>
      </trkpt>
      <trkpt lat="44.80313" lon="6.97185">
        <ele>2060.8</ele>
        <time>2022-02-25T11:07:20Z</time>
      </trkpt>
      <trkpt lat="44.80313" lon="6.97185">
        <ele>2060.8</ele>
        <time>2022-02-25T11:07:21Z</time>
      </trkpt>
      <trkpt lat="44.80313" lon="6.97186">
        <ele>2060.7</ele>
        <time>2022-02-25T11:07:22Z</time>
      </trkpt>
      <trkpt lat="44.80312" lon="6.97186">
        <ele>2061.1</ele>
        <time>2022-02-25T11:07:23Z</time>
      </trkpt>
      <trkpt lat="44.80312" lon="6.97186">
        <ele>2061.1</ele>
        <time>2022-02-25T11:07:24Z</time>
      </trkpt>
      <trkpt lat="44.80312" lon="6.97186">
        <ele>2061.1</ele>
        <time>2022-02-25T11:07:25Z</time>
      </trkpt>
      <trkpt lat="44.80312" lon="6.97187">
        <ele>2061</ele>
        <time>2022-02-25T11:07:26Z</time>
      </trkpt>
      <trkpt lat="44.80312" lon="6.97187">
        <ele>2061</ele>
        <time>2022-02-25T11:07:27Z</time>
      </trkpt>
      <trkpt lat="44.80312" lon="6.97187">
        <ele>2061</ele>
        <time>2022-02-25T11:07:28Z</time>
      </trkpt>
      <trkpt lat="44.80312" lon="6.97187">
        <ele>2061</ele>
        <time>2022-02-25T11:07:29Z</time>
      </trkpt>
      <trkpt lat="44.80312" lon="6.97188">
        <ele>2060.9</ele>
        <time>2022-02-25T11:07:30Z</time>
      </trkpt>
      <trkpt lat="44.80312" lon="6.97188">
        <ele>2060.9</ele>
        <time>2022-02-25T11:07:31Z</time>
      </trkpt>
      <trkpt lat="44.80312" lon="6.97188">
        <ele>2060.9</ele>
        <time>2022-02-25T11:07:32Z</time>
      </trkpt>
      <trkpt lat="44.80312" lon="6.97188">
        <ele>2060.9</ele>
        <time>2022-02-25T11:07:33Z</time>
      </trkpt>
      <trkpt lat="44.80311" lon="6.97188">
        <ele>2061.3</ele>
        <time>2022-02-25T11:07:34Z</time>
      </trkpt>
      <trkpt lat="44.80311" lon="6.97189">
        <ele>2061.2</ele>
        <time>2022-02-25T11:07:35Z</time>
      </trkpt>
      <trkpt lat="44.80311" lon="6.97189">
        <ele>2061.2</ele>
        <time>2022-02-25T11:07:36Z</time>
      </trkpt>
      <trkpt lat="44.80311" lon="6.97189">
        <ele>2061.2</ele>
        <time>2022-02-25T11:07:37Z</time>
      </trkpt>
      <trkpt lat="44.80311" lon="6.97189">
        <ele>2061.2</ele>
        <time>2022-02-25T11:07:38Z</time>
      </trkpt>
      <trkpt lat="44.80311" lon="6.9719">
        <ele>2061.1</ele>
        <time>2022-02-25T11:07:39Z</time>
      </trkpt>
      <trkpt lat="44.80311" lon="6.9719">
        <ele>2061.1</ele>
        <time>2022-02-25T11:07:40Z</time>
      </trkpt>
      <trkpt lat="44.80311" lon="6.9719">
        <ele>2061.1</ele>
        <time>2022-02-25T11:07:41Z</time>
      </trkpt>
      <trkpt lat="44.80311" lon="6.9719">
        <ele>2061.1</ele>
        <time>2022-02-25T11:07:42Z</time>
      </trkpt>
      <trkpt lat="44.80311" lon="6.97191">
        <ele>2061</ele>
        <time>2022-02-25T11:07:43Z</time>
      </trkpt>
      <trkpt lat="44.80311" lon="6.97191">
        <ele>2061</ele>
        <time>2022-02-25T11:07:44Z</time>
      </trkpt>
      <trkpt lat="44.8031" lon="6.97191">
        <ele>2061.5</ele>
        <time>2022-02-25T11:07:45Z</time>
      </trkpt>
      <trkpt lat="44.8031" lon="6.97191">
        <ele>2061.5</ele>
        <time>2022-02-25T11:07:46Z</time>
      </trkpt>
      <trkpt lat="44.8031" lon="6.97191">
        <ele>2061.5</ele>
        <time>2022-02-25T11:07:47Z</time>
      </trkpt>
      <trkpt lat="44.8031" lon="6.97192">
        <ele>2061.3</ele>
        <time>2022-02-25T11:07:48Z</time>
      </trkpt>
      <trkpt lat="44.8031" lon="6.97192">
        <ele>2061.3</ele>
        <time>2022-02-25T11:07:49Z</time>
      </trkpt>
      <trkpt lat="44.8031" lon="6.97192">
        <ele>2061.3</ele>
        <time>2022-02-25T11:07:50Z</time>
      </trkpt>
      <trkpt lat="44.80309" lon="6.97195">
        <ele>2061.4</ele>
        <time>2022-02-25T11:07:51Z</time>
      </trkpt>
      <trkpt lat="44.80309" lon="6.97195">
        <ele>2061.4</ele>
        <time>2022-02-25T11:07:52Z</time>
      </trkpt>
      <trkpt lat="44.80308" lon="6.97198">
        <ele>2061.4</ele>
        <time>2022-02-25T11:07:53Z</time>
      </trkpt>
      <trkpt lat="44.80308" lon="6.97198">
        <ele>2061.4</ele>
        <time>2022-02-25T11:07:54Z</time>
      </trkpt>
      <trkpt lat="44.80307" lon="6.972">
        <ele>2061.6</ele>
        <time>2022-02-25T11:07:55Z</time>
      </trkpt>
      <trkpt lat="44.80307" lon="6.972">
        <ele>2061.6</ele>
        <time>2022-02-25T11:07:56Z</time>
      </trkpt>
      <trkpt lat="44.80307" lon="6.972">
        <ele>2061.6</ele>
        <time>2022-02-25T11:07:57Z</time>
      </trkpt>
      <trkpt lat="44.80307" lon="6.972">
        <ele>2061.6</ele>
        <time>2022-02-25T11:07:58Z</time>
      </trkpt>
      <trkpt lat="44.80307" lon="6.97203">
        <ele>2061.2</ele>
        <time>2022-02-25T11:07:59Z</time>
      </trkpt>
      <trkpt lat="44.80307" lon="6.97203">
        <ele>2061.2</ele>
        <time>2022-02-25T11:08:00Z</time>
      </trkpt>
      <trkpt lat="44.80307" lon="6.97203">
        <ele>2061.2</ele>
        <time>2022-02-25T11:08:01Z</time>
      </trkpt>
      <trkpt lat="44.80307" lon="6.97203">
        <ele>2061.2</ele>
        <time>2022-02-25T11:08:02Z</time>
      </trkpt>
      <trkpt lat="44.80307" lon="6.97203">
        <ele>2061.2</ele>
        <time>2022-02-25T11:08:03Z</time>
      </trkpt>
      <trkpt lat="44.80307" lon="6.97203">
        <ele>2061.2</ele>
        <time>2022-02-25T11:08:04Z</time>
      </trkpt>
      <trkpt lat="44.80307" lon="6.97203">
        <ele>2061.2</ele>
        <time>2022-02-25T11:08:05Z</time>
      </trkpt>
      <trkpt lat="44.80307" lon="6.97203">
        <ele>2061.2</ele>
        <time>2022-02-25T11:08:06Z</time>
      </trkpt>
      <trkpt lat="44.80307" lon="6.97203">
        <ele>2061.2</ele>
        <time>2022-02-25T11:08:07Z</time>
      </trkpt>
      <trkpt lat="44.80307" lon="6.97203">
        <ele>2061.2</ele>
        <time>2022-02-25T11:08:08Z</time>
      </trkpt>
      <trkpt lat="44.80307" lon="6.97203">
        <ele>2061.2</ele>
        <time>2022-02-25T11:08:09Z</time>
      </trkpt>
      <trkpt lat="44.80307" lon="6.97203">
        <ele>2061.2</ele>
        <time>2022-02-25T11:08:10Z</time>
      </trkpt>
      <trkpt lat="44.80307" lon="6.97203">
        <ele>2061.2</ele>
        <time>2022-02-25T11:08:11Z</time>
      </trkpt>
      <trkpt lat="44.80307" lon="6.97203">
        <ele>2061.2</ele>
        <time>2022-02-25T11:08:12Z</time>
      </trkpt>
      <trkpt lat="44.80307" lon="6.97203">
        <ele>2061.2</ele>
        <time>2022-02-25T11:08:13Z</time>
      </trkpt>
      <trkpt lat="44.80307" lon="6.97203">
        <ele>2061.2</ele>
        <time>2022-02-25T11:08:14Z</time>
      </trkpt>
      <trkpt lat="44.80307" lon="6.97203">
        <ele>2061.2</ele>
        <time>2022-02-25T11:08:15Z</time>
      </trkpt>
      <trkpt lat="44.80307" lon="6.97203">
        <ele>2061.2</ele>
        <time>2022-02-25T11:08:16Z</time>
      </trkpt>
      <trkpt lat="44.80306" lon="6.97206">
        <ele>2061.2</ele>
        <time>2022-02-25T11:08:17Z</time>
      </trkpt>
      <trkpt lat="44.80306" lon="6.97206">
        <ele>2061.2</ele>
        <time>2022-02-25T11:08:18Z</time>
      </trkpt>
      <trkpt lat="44.80305" lon="6.97209">
        <ele>2061.1</ele>
        <time>2022-02-25T11:08:19Z</time>
      </trkpt>
      <trkpt lat="44.80305" lon="6.97209">
        <ele>2061.1</ele>
        <time>2022-02-25T11:08:20Z</time>
      </trkpt>
      <trkpt lat="44.80304" lon="6.97212">
        <ele>2061.1</ele>
        <time>2022-02-25T11:08:21Z</time>
      </trkpt>
      <trkpt lat="44.80304" lon="6.97212">
        <ele>2061.1</ele>
        <time>2022-02-25T11:08:22Z</time>
      </trkpt>
      <trkpt lat="44.80304" lon="6.97212">
        <ele>2061.1</ele>
        <time>2022-02-25T11:08:23Z</time>
      </trkpt>
      <trkpt lat="44.80304" lon="6.97216">
        <ele>2060.5</ele>
        <time>2022-02-25T11:08:24Z</time>
      </trkpt>
      <trkpt lat="44.80304" lon="6.97216">
        <ele>2060.5</ele>
        <time>2022-02-25T11:08:25Z</time>
      </trkpt>
      <trkpt lat="44.80303" lon="6.97218">
        <ele>2060.6</ele>
        <time>2022-02-25T11:08:26Z</time>
      </trkpt>
      <trkpt lat="44.80303" lon="6.97218">
        <ele>2060.6</ele>
        <time>2022-02-25T11:08:27Z</time>
      </trkpt>
      <trkpt lat="44.80303" lon="6.97218">
        <ele>2060.6</ele>
        <time>2022-02-25T11:08:28Z</time>
      </trkpt>
      <trkpt lat="44.80302" lon="6.97221">
        <ele>2060.6</ele>
        <time>2022-02-25T11:08:29Z</time>
      </trkpt>
      <trkpt lat="44.80302" lon="6.97221">
        <ele>2060.6</ele>
        <time>2022-02-25T11:08:30Z</time>
      </trkpt>
      <trkpt lat="44.80302" lon="6.97221">
        <ele>2060.6</ele>
        <time>2022-02-25T11:08:31Z</time>
      </trkpt>
      <trkpt lat="44.80302" lon="6.97224">
        <ele>2060.2</ele>
        <time>2022-02-25T11:08:32Z</time>
      </trkpt>
      <trkpt lat="44.80302" lon="6.97224">
        <ele>2060.2</ele>
        <time>2022-02-25T11:08:33Z</time>
      </trkpt>
      <trkpt lat="44.80302" lon="6.97224">
        <ele>2060.2</ele>
        <time>2022-02-25T11:08:34Z</time>
      </trkpt>
      <trkpt lat="44.80302" lon="6.97228">
        <ele>2059.8</ele>
        <time>2022-02-25T11:08:35Z</time>
      </trkpt>
      <trkpt lat="44.80302" lon="6.97228">
        <ele>2059.8</ele>
        <time>2022-02-25T11:08:36Z</time>
      </trkpt>
      <trkpt lat="44.80302" lon="6.97228">
        <ele>2059.8</ele>
        <time>2022-02-25T11:08:37Z</time>
      </trkpt>
      <trkpt lat="44.80304" lon="6.97228">
        <ele>2059</ele>
        <time>2022-02-25T11:08:38Z</time>
      </trkpt>
      <trkpt lat="44.80304" lon="6.97228">
        <ele>2059</ele>
        <time>2022-02-25T11:08:39Z</time>
      </trkpt>
      <trkpt lat="44.80304" lon="6.97228">
        <ele>2059</ele>
        <time>2022-02-25T11:08:40Z</time>
      </trkpt>
      <trkpt lat="44.80304" lon="6.97228">
        <ele>2059</ele>
        <time>2022-02-25T11:08:41Z</time>
      </trkpt>
      <trkpt lat="44.80303" lon="6.97231">
        <ele>2059.1</ele>
        <time>2022-02-25T11:08:42Z</time>
      </trkpt>
      <trkpt lat="44.80303" lon="6.97231">
        <ele>2059.1</ele>
        <time>2022-02-25T11:08:43Z</time>
      </trkpt>
      <trkpt lat="44.80303" lon="6.97231">
        <ele>2059.1</ele>
        <time>2022-02-25T11:08:44Z</time>
      </trkpt>
      <trkpt lat="44.80304" lon="6.97234">
        <ele>2058.3</ele>
        <time>2022-02-25T11:08:45Z</time>
      </trkpt>
      <trkpt lat="44.80304" lon="6.97234">
        <ele>2058.3</ele>
        <time>2022-02-25T11:08:46Z</time>
      </trkpt>
      <trkpt lat="44.80304" lon="6.97234">
        <ele>2058.3</ele>
        <time>2022-02-25T11:08:47Z</time>
      </trkpt>
      <trkpt lat="44.80304" lon="6.97234">
        <ele>2058.3</ele>
        <time>2022-02-25T11:08:48Z</time>
      </trkpt>
      <trkpt lat="44.80304" lon="6.97234">
        <ele>2058.3</ele>
        <time>2022-02-25T11:08:49Z</time>
      </trkpt>
      <trkpt lat="44.80304" lon="6.97238">
        <ele>2057.9</ele>
        <time>2022-02-25T11:08:50Z</time>
      </trkpt>
      <trkpt lat="44.80304" lon="6.97238">
        <ele>2057.9</ele>
        <time>2022-02-25T11:08:51Z</time>
      </trkpt>
      <trkpt lat="44.80303" lon="6.9724">
        <ele>2058.1</ele>
        <time>2022-02-25T11:08:52Z</time>
      </trkpt>
      <trkpt lat="44.80303" lon="6.9724">
        <ele>2058.1</ele>
        <time>2022-02-25T11:08:53Z</time>
      </trkpt>
      <trkpt lat="44.80303" lon="6.9724">
        <ele>2058.1</ele>
        <time>2022-02-25T11:08:54Z</time>
      </trkpt>
      <trkpt lat="44.80302" lon="6.97243">
        <ele>2058.2</ele>
        <time>2022-02-25T11:08:55Z</time>
      </trkpt>
      <trkpt lat="44.80302" lon="6.97243">
        <ele>2058.2</ele>
        <time>2022-02-25T11:08:56Z</time>
      </trkpt>
      <trkpt lat="44.80301" lon="6.97247">
        <ele>2058.1</ele>
        <time>2022-02-25T11:08:57Z</time>
      </trkpt>
      <trkpt lat="44.80301" lon="6.97247">
        <ele>2058.1</ele>
        <time>2022-02-25T11:08:58Z</time>
      </trkpt>
      <trkpt lat="44.80301" lon="6.97247">
        <ele>2058.1</ele>
        <time>2022-02-25T11:08:59Z</time>
      </trkpt>
      <trkpt lat="44.80299" lon="6.9725">
        <ele>2058.6</ele>
        <time>2022-02-25T11:09:00Z</time>
      </trkpt>
      <trkpt lat="44.80299" lon="6.9725">
        <ele>2058.6</ele>
        <time>2022-02-25T11:09:01Z</time>
      </trkpt>
      <trkpt lat="44.80299" lon="6.97253">
        <ele>2058.1</ele>
        <time>2022-02-25T11:09:02Z</time>
      </trkpt>
      <trkpt lat="44.80299" lon="6.97253">
        <ele>2058.1</ele>
        <time>2022-02-25T11:09:03Z</time>
      </trkpt>
      <trkpt lat="44.80298" lon="6.97256">
        <ele>2058</ele>
        <time>2022-02-25T11:09:04Z</time>
      </trkpt>
      <trkpt lat="44.80298" lon="6.97256">
        <ele>2058</ele>
        <time>2022-02-25T11:09:05Z</time>
      </trkpt>
      <trkpt lat="44.80298" lon="6.97256">
        <ele>2058</ele>
        <time>2022-02-25T11:09:06Z</time>
      </trkpt>
      <trkpt lat="44.80299" lon="6.97259">
        <ele>2057.1</ele>
        <time>2022-02-25T11:09:07Z</time>
      </trkpt>
      <trkpt lat="44.80299" lon="6.97259">
        <ele>2057.1</ele>
        <time>2022-02-25T11:09:08Z</time>
      </trkpt>
      <trkpt lat="44.80299" lon="6.97259">
        <ele>2057.1</ele>
        <time>2022-02-25T11:09:09Z</time>
      </trkpt>
      <trkpt lat="44.80298" lon="6.97262">
        <ele>2056.9</ele>
        <time>2022-02-25T11:09:10Z</time>
      </trkpt>
      <trkpt lat="44.80298" lon="6.97262">
        <ele>2056.9</ele>
        <time>2022-02-25T11:09:11Z</time>
      </trkpt>
      <trkpt lat="44.80296" lon="6.97263">
        <ele>2057.6</ele>
        <time>2022-02-25T11:09:12Z</time>
      </trkpt>
      <trkpt lat="44.80296" lon="6.97263">
        <ele>2057.6</ele>
        <time>2022-02-25T11:09:13Z</time>
      </trkpt>
      <trkpt lat="44.80296" lon="6.97263">
        <ele>2057.6</ele>
        <time>2022-02-25T11:09:14Z</time>
      </trkpt>
      <trkpt lat="44.80296" lon="6.97263">
        <ele>2057.6</ele>
        <time>2022-02-25T11:09:15Z</time>
      </trkpt>
      <trkpt lat="44.80295" lon="6.97266">
        <ele>2057.5</ele>
        <time>2022-02-25T11:09:16Z</time>
      </trkpt>
      <trkpt lat="44.80295" lon="6.97266">
        <ele>2057.5</ele>
        <time>2022-02-25T11:09:17Z</time>
      </trkpt>
      <trkpt lat="44.80295" lon="6.97266">
        <ele>2057.5</ele>
        <time>2022-02-25T11:09:18Z</time>
      </trkpt>
      <trkpt lat="44.80295" lon="6.97266">
        <ele>2057.5</ele>
        <time>2022-02-25T11:09:19Z</time>
      </trkpt>
      <trkpt lat="44.80295" lon="6.97266">
        <ele>2057.5</ele>
        <time>2022-02-25T11:09:20Z</time>
      </trkpt>
      <trkpt lat="44.80295" lon="6.97266">
        <ele>2057.5</ele>
        <time>2022-02-25T11:09:21Z</time>
      </trkpt>
      <trkpt lat="44.80295" lon="6.97266">
        <ele>2057.5</ele>
        <time>2022-02-25T11:09:22Z</time>
      </trkpt>
      <trkpt lat="44.80295" lon="6.97266">
        <ele>2057.5</ele>
        <time>2022-02-25T11:09:23Z</time>
      </trkpt>
      <trkpt lat="44.80295" lon="6.97266">
        <ele>2057.5</ele>
        <time>2022-02-25T11:09:24Z</time>
      </trkpt>
      <trkpt lat="44.80295" lon="6.97266">
        <ele>2057.5</ele>
        <time>2022-02-25T11:09:25Z</time>
      </trkpt>
      <trkpt lat="44.80295" lon="6.97266">
        <ele>2057.5</ele>
        <time>2022-02-25T11:09:26Z</time>
      </trkpt>
      <trkpt lat="44.80295" lon="6.97266">
        <ele>2057.5</ele>
        <time>2022-02-25T11:09:27Z</time>
      </trkpt>
      <trkpt lat="44.80295" lon="6.97266">
        <ele>2057.5</ele>
        <time>2022-02-25T11:09:28Z</time>
      </trkpt>
      <trkpt lat="44.80295" lon="6.97266">
        <ele>2057.5</ele>
        <time>2022-02-25T11:09:29Z</time>
      </trkpt>
      <trkpt lat="44.80295" lon="6.97266">
        <ele>2057.5</ele>
        <time>2022-02-25T11:09:30Z</time>
      </trkpt>
      <trkpt lat="44.80295" lon="6.97266">
        <ele>2057.5</ele>
        <time>2022-02-25T11:09:31Z</time>
      </trkpt>
      <trkpt lat="44.80295" lon="6.97266">
        <ele>2057.5</ele>
        <time>2022-02-25T11:09:32Z</time>
      </trkpt>
      <trkpt lat="44.80295" lon="6.97266">
        <ele>2057.5</ele>
        <time>2022-02-25T11:09:33Z</time>
      </trkpt>
      <trkpt lat="44.80295" lon="6.97266">
        <ele>2057.5</ele>
        <time>2022-02-25T11:09:34Z</time>
      </trkpt>
      <trkpt lat="44.80295" lon="6.97266">
        <ele>2057.5</ele>
        <time>2022-02-25T11:09:35Z</time>
      </trkpt>
      <trkpt lat="44.80295" lon="6.97266">
        <ele>2057.5</ele>
        <time>2022-02-25T11:09:36Z</time>
      </trkpt>
      <trkpt lat="44.80295" lon="6.97266">
        <ele>2057.5</ele>
        <time>2022-02-25T11:09:37Z</time>
      </trkpt>
      <trkpt lat="44.80295" lon="6.97266">
        <ele>2057.5</ele>
        <time>2022-02-25T11:09:38Z</time>
      </trkpt>
      <trkpt lat="44.80295" lon="6.97266">
        <ele>2057.5</ele>
        <time>2022-02-25T11:09:39Z</time>
      </trkpt>
      <trkpt lat="44.80295" lon="6.97266">
        <ele>2057.5</ele>
        <time>2022-02-25T11:09:40Z</time>
      </trkpt>
      <trkpt lat="44.80295" lon="6.97266">
        <ele>2057.5</ele>
        <time>2022-02-25T11:09:41Z</time>
      </trkpt>
      <trkpt lat="44.80295" lon="6.97266">
        <ele>2057.5</ele>
        <time>2022-02-25T11:09:42Z</time>
      </trkpt>
      <trkpt lat="44.80295" lon="6.97266">
        <ele>2057.5</ele>
        <time>2022-02-25T11:09:43Z</time>
      </trkpt>
      <trkpt lat="44.80295" lon="6.97266">
        <ele>2057.5</ele>
        <time>2022-02-25T11:09:44Z</time>
      </trkpt>
      <trkpt lat="44.80295" lon="6.97266">
        <ele>2057.5</ele>
        <time>2022-02-25T11:09:45Z</time>
      </trkpt>
      <trkpt lat="44.80295" lon="6.97266">
        <ele>2057.5</ele>
        <time>2022-02-25T11:09:46Z</time>
      </trkpt>
      <trkpt lat="44.80295" lon="6.97266">
        <ele>2057.5</ele>
        <time>2022-02-25T11:09:47Z</time>
      </trkpt>
      <trkpt lat="44.80295" lon="6.97266">
        <ele>2057.5</ele>
        <time>2022-02-25T11:09:48Z</time>
      </trkpt>
      <trkpt lat="44.80295" lon="6.97266">
        <ele>2057.5</ele>
        <time>2022-02-25T11:09:49Z</time>
      </trkpt>
      <trkpt lat="44.80295" lon="6.97266">
        <ele>2057.5</ele>
        <time>2022-02-25T11:09:50Z</time>
      </trkpt>
      <trkpt lat="44.80295" lon="6.97266">
        <ele>2057.5</ele>
        <time>2022-02-25T11:09:51Z</time>
      </trkpt>
      <trkpt lat="44.80296" lon="6.97263">
        <ele>2057.6</ele>
        <time>2022-02-25T11:09:52Z</time>
      </trkpt>
      <trkpt lat="44.80296" lon="6.97263">
        <ele>2057.6</ele>
        <time>2022-02-25T11:09:53Z</time>
      </trkpt>
      <trkpt lat="44.80296" lon="6.97261">
        <ele>2057.9</ele>
        <time>2022-02-25T11:09:54Z</time>
      </trkpt>
      <trkpt lat="44.80296" lon="6.97261">
        <ele>2057.9</ele>
        <time>2022-02-25T11:09:55Z</time>
      </trkpt>
      <trkpt lat="44.80298" lon="6.97257">
        <ele>2057.8</ele>
        <time>2022-02-25T11:09:56Z</time>
      </trkpt>
      <trkpt lat="44.80298" lon="6.97257">
        <ele>2057.8</ele>
        <time>2022-02-25T11:09:57Z</time>
      </trkpt>
      <trkpt lat="44.80298" lon="6.97252">
        <ele>2058.7</ele>
        <time>2022-02-25T11:09:58Z</time>
      </trkpt>
      <trkpt lat="44.80298" lon="6.97252">
        <ele>2058.7</ele>
        <time>2022-02-25T11:09:59Z</time>
      </trkpt>
      <trkpt lat="44.80299" lon="6.9725">
        <ele>2058.6</ele>
        <time>2022-02-25T11:10:00Z</time>
      </trkpt>
      <trkpt lat="44.80299" lon="6.9725">
        <ele>2058.6</ele>
        <time>2022-02-25T11:10:01Z</time>
      </trkpt>
      <trkpt lat="44.80299" lon="6.9725">
        <ele>2058.6</ele>
        <time>2022-02-25T11:10:02Z</time>
      </trkpt>
      <trkpt lat="44.80299" lon="6.9725">
        <ele>2058.6</ele>
        <time>2022-02-25T11:10:03Z</time>
      </trkpt>
      <trkpt lat="44.80299" lon="6.97246">
        <ele>2059</ele>
        <time>2022-02-25T11:10:04Z</time>
      </trkpt>
      <trkpt lat="44.80299" lon="6.97246">
        <ele>2059</ele>
        <time>2022-02-25T11:10:05Z</time>
      </trkpt>
      <trkpt lat="44.80299" lon="6.97246">
        <ele>2059</ele>
        <time>2022-02-25T11:10:06Z</time>
      </trkpt>
      <trkpt lat="44.80299" lon="6.97246">
        <ele>2059</ele>
        <time>2022-02-25T11:10:07Z</time>
      </trkpt>
      <trkpt lat="44.80299" lon="6.97242">
        <ele>2059.5</ele>
        <time>2022-02-25T11:10:08Z</time>
      </trkpt>
      <trkpt lat="44.80299" lon="6.97242">
        <ele>2059.5</ele>
        <time>2022-02-25T11:10:09Z</time>
      </trkpt>
      <trkpt lat="44.80299" lon="6.97242">
        <ele>2059.5</ele>
        <time>2022-02-25T11:10:10Z</time>
      </trkpt>
      <trkpt lat="44.80299" lon="6.9724">
        <ele>2059.7</ele>
        <time>2022-02-25T11:10:11Z</time>
      </trkpt>
      <trkpt lat="44.80299" lon="6.9724">
        <ele>2059.7</ele>
        <time>2022-02-25T11:10:12Z</time>
      </trkpt>
      <trkpt lat="44.80299" lon="6.9724">
        <ele>2059.7</ele>
        <time>2022-02-25T11:10:13Z</time>
      </trkpt>
      <trkpt lat="44.80299" lon="6.97236">
        <ele>2060.1</ele>
        <time>2022-02-25T11:10:14Z</time>
      </trkpt>
      <trkpt lat="44.80299" lon="6.97236">
        <ele>2060.1</ele>
        <time>2022-02-25T11:10:15Z</time>
      </trkpt>
      <trkpt lat="44.80299" lon="6.97236">
        <ele>2060.1</ele>
        <time>2022-02-25T11:10:16Z</time>
      </trkpt>
      <trkpt lat="44.80299" lon="6.97232">
        <ele>2060.5</ele>
        <time>2022-02-25T11:10:17Z</time>
      </trkpt>
      <trkpt lat="44.80299" lon="6.97232">
        <ele>2060.5</ele>
        <time>2022-02-25T11:10:18Z</time>
      </trkpt>
      <trkpt lat="44.80299" lon="6.97232">
        <ele>2060.5</ele>
        <time>2022-02-25T11:10:19Z</time>
      </trkpt>
      <trkpt lat="44.803" lon="6.97228">
        <ele>2060.6</ele>
        <time>2022-02-25T11:10:20Z</time>
      </trkpt>
      <trkpt lat="44.803" lon="6.97228">
        <ele>2060.6</ele>
        <time>2022-02-25T11:10:21Z</time>
      </trkpt>
      <trkpt lat="44.80299" lon="6.97226">
        <ele>2061.2</ele>
        <time>2022-02-25T11:10:22Z</time>
      </trkpt>
      <trkpt lat="44.80299" lon="6.97226">
        <ele>2061.2</ele>
        <time>2022-02-25T11:10:23Z</time>
      </trkpt>
      <trkpt lat="44.80298" lon="6.97223">
        <ele>2061.9</ele>
        <time>2022-02-25T11:10:24Z</time>
      </trkpt>
      <trkpt lat="44.80298" lon="6.97223">
        <ele>2061.9</ele>
        <time>2022-02-25T11:10:25Z</time>
      </trkpt>
      <trkpt lat="44.80298" lon="6.97223">
        <ele>2061.9</ele>
        <time>2022-02-25T11:10:26Z</time>
      </trkpt>
      <trkpt lat="44.80298" lon="6.9722">
        <ele>2062.3</ele>
        <time>2022-02-25T11:10:27Z</time>
      </trkpt>
      <trkpt lat="44.80298" lon="6.9722">
        <ele>2062.3</ele>
        <time>2022-02-25T11:10:28Z</time>
      </trkpt>
      <trkpt lat="44.80298" lon="6.9722">
        <ele>2062.3</ele>
        <time>2022-02-25T11:10:29Z</time>
      </trkpt>
      <trkpt lat="44.80298" lon="6.97216">
        <ele>2062.9</ele>
        <time>2022-02-25T11:10:30Z</time>
      </trkpt>
      <trkpt lat="44.80298" lon="6.97216">
        <ele>2062.9</ele>
        <time>2022-02-25T11:10:31Z</time>
      </trkpt>
      <trkpt lat="44.80298" lon="6.97213">
        <ele>2063.3</ele>
        <time>2022-02-25T11:10:32Z</time>
      </trkpt>
      <trkpt lat="44.80298" lon="6.97213">
        <ele>2063.3</ele>
        <time>2022-02-25T11:10:33Z</time>
      </trkpt>
      <trkpt lat="44.80298" lon="6.97213">
        <ele>2063.3</ele>
        <time>2022-02-25T11:10:34Z</time>
      </trkpt>
      <trkpt lat="44.80298" lon="6.97209">
        <ele>2063.9</ele>
        <time>2022-02-25T11:10:35Z</time>
      </trkpt>
      <trkpt lat="44.80298" lon="6.97209">
        <ele>2063.9</ele>
        <time>2022-02-25T11:10:36Z</time>
      </trkpt>
      <trkpt lat="44.80298" lon="6.97206">
        <ele>2064.3</ele>
        <time>2022-02-25T11:10:37Z</time>
      </trkpt>
      <trkpt lat="44.80298" lon="6.97206">
        <ele>2064.3</ele>
        <time>2022-02-25T11:10:38Z</time>
      </trkpt>
      <trkpt lat="44.80298" lon="6.97203">
        <ele>2064.8</ele>
        <time>2022-02-25T11:10:39Z</time>
      </trkpt>
      <trkpt lat="44.80298" lon="6.97203">
        <ele>2064.8</ele>
        <time>2022-02-25T11:10:40Z</time>
      </trkpt>
      <trkpt lat="44.80298" lon="6.972">
        <ele>2065.2</ele>
        <time>2022-02-25T11:10:41Z</time>
      </trkpt>
      <trkpt lat="44.80298" lon="6.972">
        <ele>2065.2</ele>
        <time>2022-02-25T11:10:42Z</time>
      </trkpt>
      <trkpt lat="44.80298" lon="6.972">
        <ele>2065.2</ele>
        <time>2022-02-25T11:10:43Z</time>
      </trkpt>
      <trkpt lat="44.80299" lon="6.97197">
        <ele>2065.2</ele>
        <time>2022-02-25T11:10:44Z</time>
      </trkpt>
      <trkpt lat="44.80299" lon="6.97197">
        <ele>2065.2</ele>
        <time>2022-02-25T11:10:45Z</time>
      </trkpt>
      <trkpt lat="44.80299" lon="6.97197">
        <ele>2065.2</ele>
        <time>2022-02-25T11:10:46Z</time>
      </trkpt>
      <trkpt lat="44.803" lon="6.97194">
        <ele>2065.2</ele>
        <time>2022-02-25T11:10:47Z</time>
      </trkpt>
      <trkpt lat="44.803" lon="6.97194">
        <ele>2065.2</ele>
        <time>2022-02-25T11:10:48Z</time>
      </trkpt>
      <trkpt lat="44.803" lon="6.97194">
        <ele>2065.2</ele>
        <time>2022-02-25T11:10:49Z</time>
      </trkpt>
      <trkpt lat="44.803" lon="6.97194">
        <ele>2065.2</ele>
        <time>2022-02-25T11:10:50Z</time>
      </trkpt>
      <trkpt lat="44.803" lon="6.97191">
        <ele>2065.6</ele>
        <time>2022-02-25T11:10:51Z</time>
      </trkpt>
      <trkpt lat="44.803" lon="6.97191">
        <ele>2065.6</ele>
        <time>2022-02-25T11:10:52Z</time>
      </trkpt>
      <trkpt lat="44.803" lon="6.97191">
        <ele>2065.6</ele>
        <time>2022-02-25T11:10:53Z</time>
      </trkpt>
      <trkpt lat="44.803" lon="6.97188">
        <ele>2065.9</ele>
        <time>2022-02-25T11:10:54Z</time>
      </trkpt>
      <trkpt lat="44.803" lon="6.97188">
        <ele>2065.9</ele>
        <time>2022-02-25T11:10:55Z</time>
      </trkpt>
      <trkpt lat="44.803" lon="6.97188">
        <ele>2065.9</ele>
        <time>2022-02-25T11:10:56Z</time>
      </trkpt>
      <trkpt lat="44.803" lon="6.97188">
        <ele>2065.9</ele>
        <time>2022-02-25T11:10:57Z</time>
      </trkpt>
      <trkpt lat="44.803" lon="6.97188">
        <ele>2065.9</ele>
        <time>2022-02-25T11:10:58Z</time>
      </trkpt>
      <trkpt lat="44.803" lon="6.97188">
        <ele>2065.9</ele>
        <time>2022-02-25T11:10:59Z</time>
      </trkpt>
      <trkpt lat="44.803" lon="6.97188">
        <ele>2065.9</ele>
        <time>2022-02-25T11:11:00Z</time>
      </trkpt>
      <trkpt lat="44.803" lon="6.97188">
        <ele>2065.9</ele>
        <time>2022-02-25T11:11:01Z</time>
      </trkpt>
      <trkpt lat="44.803" lon="6.97188">
        <ele>2065.9</ele>
        <time>2022-02-25T11:11:02Z</time>
      </trkpt>
      <trkpt lat="44.803" lon="6.97188">
        <ele>2065.9</ele>
        <time>2022-02-25T11:11:03Z</time>
      </trkpt>
      <trkpt lat="44.803" lon="6.97188">
        <ele>2065.9</ele>
        <time>2022-02-25T11:11:04Z</time>
      </trkpt>
      <trkpt lat="44.803" lon="6.97188">
        <ele>2065.9</ele>
        <time>2022-02-25T11:11:05Z</time>
      </trkpt>
      <trkpt lat="44.803" lon="6.97188">
        <ele>2065.9</ele>
        <time>2022-02-25T11:11:06Z</time>
      </trkpt>
      <trkpt lat="44.803" lon="6.97188">
        <ele>2065.9</ele>
        <time>2022-02-25T11:11:07Z</time>
      </trkpt>
      <trkpt lat="44.803" lon="6.97188">
        <ele>2065.9</ele>
        <time>2022-02-25T11:11:08Z</time>
      </trkpt>
      <trkpt lat="44.803" lon="6.97188">
        <ele>2065.9</ele>
        <time>2022-02-25T11:11:09Z</time>
      </trkpt>
      <trkpt lat="44.803" lon="6.97188">
        <ele>2065.9</ele>
        <time>2022-02-25T11:11:10Z</time>
      </trkpt>
      <trkpt lat="44.803" lon="6.97188">
        <ele>2065.9</ele>
        <time>2022-02-25T11:11:11Z</time>
      </trkpt>
      <trkpt lat="44.803" lon="6.97188">
        <ele>2065.9</ele>
        <time>2022-02-25T11:11:12Z</time>
      </trkpt>
      <trkpt lat="44.803" lon="6.97188">
        <ele>2065.9</ele>
        <time>2022-02-25T11:11:13Z</time>
      </trkpt>
      <trkpt lat="44.803" lon="6.97188">
        <ele>2065.9</ele>
        <time>2022-02-25T11:11:14Z</time>
      </trkpt>
      <trkpt lat="44.803" lon="6.97188">
        <ele>2065.9</ele>
        <time>2022-02-25T11:11:15Z</time>
      </trkpt>
      <trkpt lat="44.803" lon="6.97188">
        <ele>2065.9</ele>
        <time>2022-02-25T11:11:16Z</time>
      </trkpt>
      <trkpt lat="44.803" lon="6.97188">
        <ele>2065.9</ele>
        <time>2022-02-25T11:11:17Z</time>
      </trkpt>
      <trkpt lat="44.803" lon="6.97188">
        <ele>2065.9</ele>
        <time>2022-02-25T11:11:18Z</time>
      </trkpt>
      <trkpt lat="44.803" lon="6.97188">
        <ele>2065.9</ele>
        <time>2022-02-25T11:11:19Z</time>
      </trkpt>
      <trkpt lat="44.803" lon="6.97188">
        <ele>2065.9</ele>
        <time>2022-02-25T11:11:20Z</time>
      </trkpt>
      <trkpt lat="44.803" lon="6.97188">
        <ele>2065.9</ele>
        <time>2022-02-25T11:11:21Z</time>
      </trkpt>
      <trkpt lat="44.803" lon="6.97188">
        <ele>2065.9</ele>
        <time>2022-02-25T11:11:22Z</time>
      </trkpt>
      <trkpt lat="44.803" lon="6.97188">
        <ele>2065.9</ele>
        <time>2022-02-25T11:11:23Z</time>
      </trkpt>
      <trkpt lat="44.803" lon="6.97188">
        <ele>2065.9</ele>
        <time>2022-02-25T11:11:24Z</time>
      </trkpt>
      <trkpt lat="44.803" lon="6.97188">
        <ele>2065.9</ele>
        <time>2022-02-25T11:11:25Z</time>
      </trkpt>
      <trkpt lat="44.803" lon="6.97188">
        <ele>2065.9</ele>
        <time>2022-02-25T11:11:26Z</time>
      </trkpt>
      <trkpt lat="44.803" lon="6.97188">
        <ele>2065.9</ele>
        <time>2022-02-25T11:11:27Z</time>
      </trkpt>
      <trkpt lat="44.803" lon="6.97188">
        <ele>2065.9</ele>
        <time>2022-02-25T11:11:28Z</time>
      </trkpt>
      <trkpt lat="44.803" lon="6.97188">
        <ele>2065.9</ele>
        <time>2022-02-25T11:11:29Z</time>
      </trkpt>
      <trkpt lat="44.803" lon="6.97188">
        <ele>2065.9</ele>
        <time>2022-02-25T11:11:30Z</time>
      </trkpt>
      <trkpt lat="44.803" lon="6.97188">
        <ele>2065.9</ele>
        <time>2022-02-25T11:11:31Z</time>
      </trkpt>
      <trkpt lat="44.803" lon="6.97188">
        <ele>2065.9</ele>
        <time>2022-02-25T11:11:32Z</time>
      </trkpt>
      <trkpt lat="44.803" lon="6.97188">
        <ele>2065.9</ele>
        <time>2022-02-25T11:11:33Z</time>
      </trkpt>
      <trkpt lat="44.803" lon="6.97188">
        <ele>2065.9</ele>
        <time>2022-02-25T11:11:34Z</time>
      </trkpt>
      <trkpt lat="44.803" lon="6.97188">
        <ele>2065.9</ele>
        <time>2022-02-25T11:11:35Z</time>
      </trkpt>
      <trkpt lat="44.803" lon="6.97188">
        <ele>2065.9</ele>
        <time>2022-02-25T11:11:36Z</time>
      </trkpt>
      <trkpt lat="44.803" lon="6.97188">
        <ele>2065.9</ele>
        <time>2022-02-25T11:11:37Z</time>
      </trkpt>
      <trkpt lat="44.803" lon="6.97188">
        <ele>2065.9</ele>
        <time>2022-02-25T11:11:38Z</time>
      </trkpt>
      <trkpt lat="44.803" lon="6.97188">
        <ele>2065.9</ele>
        <time>2022-02-25T11:11:39Z</time>
      </trkpt>
      <trkpt lat="44.803" lon="6.97188">
        <ele>2065.9</ele>
        <time>2022-02-25T11:11:40Z</time>
      </trkpt>
      <trkpt lat="44.803" lon="6.97188">
        <ele>2065.9</ele>
        <time>2022-02-25T11:11:41Z</time>
      </trkpt>
      <trkpt lat="44.803" lon="6.97188">
        <ele>2065.9</ele>
        <time>2022-02-25T11:11:42Z</time>
      </trkpt>
      <trkpt lat="44.803" lon="6.97191">
        <ele>2065.6</ele>
        <time>2022-02-25T11:11:43Z</time>
      </trkpt>
      <trkpt lat="44.803" lon="6.97191">
        <ele>2065.6</ele>
        <time>2022-02-25T11:11:44Z</time>
      </trkpt>
      <trkpt lat="44.803" lon="6.97191">
        <ele>2065.6</ele>
        <time>2022-02-25T11:11:45Z</time>
      </trkpt>
      <trkpt lat="44.803" lon="6.97191">
        <ele>2065.6</ele>
        <time>2022-02-25T11:11:46Z</time>
      </trkpt>
      <trkpt lat="44.803" lon="6.97191">
        <ele>2065.6</ele>
        <time>2022-02-25T11:11:47Z</time>
      </trkpt>
      <trkpt lat="44.803" lon="6.97191">
        <ele>2065.6</ele>
        <time>2022-02-25T11:11:48Z</time>
      </trkpt>
      <trkpt lat="44.803" lon="6.97191">
        <ele>2065.6</ele>
        <time>2022-02-25T11:11:49Z</time>
      </trkpt>
      <trkpt lat="44.803" lon="6.97191">
        <ele>2065.6</ele>
        <time>2022-02-25T11:11:50Z</time>
      </trkpt>
      <trkpt lat="44.803" lon="6.97191">
        <ele>2065.6</ele>
        <time>2022-02-25T11:11:51Z</time>
      </trkpt>
      <trkpt lat="44.803" lon="6.97191">
        <ele>2065.6</ele>
        <time>2022-02-25T11:11:52Z</time>
      </trkpt>
      <trkpt lat="44.803" lon="6.97191">
        <ele>2065.6</ele>
        <time>2022-02-25T11:11:53Z</time>
      </trkpt>
      <trkpt lat="44.803" lon="6.97191">
        <ele>2065.6</ele>
        <time>2022-02-25T11:11:54Z</time>
      </trkpt>
      <trkpt lat="44.803" lon="6.97191">
        <ele>2065.6</ele>
        <time>2022-02-25T11:11:55Z</time>
      </trkpt>
      <trkpt lat="44.803" lon="6.97191">
        <ele>2065.6</ele>
        <time>2022-02-25T11:11:56Z</time>
      </trkpt>
      <trkpt lat="44.803" lon="6.97191">
        <ele>2065.6</ele>
        <time>2022-02-25T11:11:57Z</time>
      </trkpt>
      <trkpt lat="44.803" lon="6.97191">
        <ele>2065.6</ele>
        <time>2022-02-25T11:11:58Z</time>
      </trkpt>
      <trkpt lat="44.803" lon="6.97191">
        <ele>2065.6</ele>
        <time>2022-02-25T11:11:59Z</time>
      </trkpt>
      <trkpt lat="44.803" lon="6.97191">
        <ele>2065.6</ele>
        <time>2022-02-25T11:12:00Z</time>
      </trkpt>
      <trkpt lat="44.803" lon="6.97191">
        <ele>2065.6</ele>
        <time>2022-02-25T11:12:01Z</time>
      </trkpt>
      <trkpt lat="44.803" lon="6.97191">
        <ele>2065.6</ele>
        <time>2022-02-25T11:12:02Z</time>
      </trkpt>
      <trkpt lat="44.803" lon="6.97191">
        <ele>2065.6</ele>
        <time>2022-02-25T11:12:03Z</time>
      </trkpt>
      <trkpt lat="44.803" lon="6.97191">
        <ele>2065.6</ele>
        <time>2022-02-25T11:12:04Z</time>
      </trkpt>
      <trkpt lat="44.803" lon="6.97191">
        <ele>2065.6</ele>
        <time>2022-02-25T11:12:05Z</time>
      </trkpt>
      <trkpt lat="44.803" lon="6.97191">
        <ele>2065.6</ele>
        <time>2022-02-25T11:12:06Z</time>
      </trkpt>
      <trkpt lat="44.803" lon="6.97191">
        <ele>2065.6</ele>
        <time>2022-02-25T11:12:07Z</time>
      </trkpt>
      <trkpt lat="44.803" lon="6.97191">
        <ele>2065.6</ele>
        <time>2022-02-25T11:12:08Z</time>
      </trkpt>
      <trkpt lat="44.803" lon="6.97191">
        <ele>2065.6</ele>
        <time>2022-02-25T11:12:09Z</time>
      </trkpt>
      <trkpt lat="44.803" lon="6.97191">
        <ele>2065.6</ele>
        <time>2022-02-25T11:12:10Z</time>
      </trkpt>
      <trkpt lat="44.803" lon="6.97191">
        <ele>2065.6</ele>
        <time>2022-02-25T11:12:11Z</time>
      </trkpt>
      <trkpt lat="44.803" lon="6.97191">
        <ele>2065.6</ele>
        <time>2022-02-25T11:12:12Z</time>
      </trkpt>
      <trkpt lat="44.803" lon="6.97191">
        <ele>2065.6</ele>
        <time>2022-02-25T11:12:13Z</time>
      </trkpt>
      <trkpt lat="44.803" lon="6.97191">
        <ele>2065.6</ele>
        <time>2022-02-25T11:12:14Z</time>
      </trkpt>
      <trkpt lat="44.803" lon="6.97191">
        <ele>2065.6</ele>
        <time>2022-02-25T11:12:15Z</time>
      </trkpt>
      <trkpt lat="44.803" lon="6.97191">
        <ele>2065.6</ele>
        <time>2022-02-25T11:12:16Z</time>
      </trkpt>
      <trkpt lat="44.803" lon="6.97191">
        <ele>2065.6</ele>
        <time>2022-02-25T11:12:17Z</time>
      </trkpt>
      <trkpt lat="44.80301" lon="6.97191">
        <ele>2065.2</ele>
        <time>2022-02-25T11:12:18Z</time>
      </trkpt>
      <trkpt lat="44.80301" lon="6.97191">
        <ele>2065.2</ele>
        <time>2022-02-25T11:12:19Z</time>
      </trkpt>
      <trkpt lat="44.80301" lon="6.97191">
        <ele>2065.2</ele>
        <time>2022-02-25T11:12:20Z</time>
      </trkpt>
      <trkpt lat="44.80303" lon="6.97189">
        <ele>2064.6</ele>
        <time>2022-02-25T11:12:21Z</time>
      </trkpt>
      <trkpt lat="44.80303" lon="6.97189">
        <ele>2064.6</ele>
        <time>2022-02-25T11:12:22Z</time>
      </trkpt>
      <trkpt lat="44.80303" lon="6.97189">
        <ele>2064.6</ele>
        <time>2022-02-25T11:12:23Z</time>
      </trkpt>
      <trkpt lat="44.80304" lon="6.97187">
        <ele>2064.4</ele>
        <time>2022-02-25T11:12:24Z</time>
      </trkpt>
      <trkpt lat="44.80304" lon="6.97187">
        <ele>2064.4</ele>
        <time>2022-02-25T11:12:25Z</time>
      </trkpt>
      <trkpt lat="44.80304" lon="6.97187">
        <ele>2064.4</ele>
        <time>2022-02-25T11:12:26Z</time>
      </trkpt>
      <trkpt lat="44.80304" lon="6.97187">
        <ele>2064.4</ele>
        <time>2022-02-25T11:12:27Z</time>
      </trkpt>
      <trkpt lat="44.80304" lon="6.97187">
        <ele>2064.4</ele>
        <time>2022-02-25T11:12:28Z</time>
      </trkpt>
      <trkpt lat="44.80304" lon="6.97187">
        <ele>2064.4</ele>
        <time>2022-02-25T11:12:29Z</time>
      </trkpt>
      <trkpt lat="44.80304" lon="6.97187">
        <ele>2064.4</ele>
        <time>2022-02-25T11:12:30Z</time>
      </trkpt>
      <trkpt lat="44.80304" lon="6.97187">
        <ele>2064.4</ele>
        <time>2022-02-25T11:12:31Z</time>
      </trkpt>
      <trkpt lat="44.80304" lon="6.97187">
        <ele>2064.4</ele>
        <time>2022-02-25T11:12:32Z</time>
      </trkpt>
      <trkpt lat="44.80304" lon="6.97187">
        <ele>2064.4</ele>
        <time>2022-02-25T11:12:33Z</time>
      </trkpt>
      <trkpt lat="44.80304" lon="6.97187">
        <ele>2064.4</ele>
        <time>2022-02-25T11:12:34Z</time>
      </trkpt>
      <trkpt lat="44.80304" lon="6.97187">
        <ele>2064.4</ele>
        <time>2022-02-25T11:12:35Z</time>
      </trkpt>
      <trkpt lat="44.80304" lon="6.97187">
        <ele>2064.4</ele>
        <time>2022-02-25T11:12:36Z</time>
      </trkpt>
      <trkpt lat="44.80304" lon="6.97187">
        <ele>2064.4</ele>
        <time>2022-02-25T11:12:37Z</time>
      </trkpt>
      <trkpt lat="44.80304" lon="6.97187">
        <ele>2064.4</ele>
        <time>2022-02-25T11:12:38Z</time>
      </trkpt>
      <trkpt lat="44.80304" lon="6.97188">
        <ele>2064.3</ele>
        <time>2022-02-25T11:12:39Z</time>
      </trkpt>
      <trkpt lat="44.80304" lon="6.97188">
        <ele>2064.3</ele>
        <time>2022-02-25T11:12:40Z</time>
      </trkpt>
      <trkpt lat="44.80304" lon="6.97188">
        <ele>2064.3</ele>
        <time>2022-02-25T11:12:41Z</time>
      </trkpt>
      <trkpt lat="44.80304" lon="6.97188">
        <ele>2064.3</ele>
        <time>2022-02-25T11:12:42Z</time>
      </trkpt>
      <trkpt lat="44.80304" lon="6.97188">
        <ele>2064.3</ele>
        <time>2022-02-25T11:12:43Z</time>
      </trkpt>
      <trkpt lat="44.80304" lon="6.97188">
        <ele>2064.3</ele>
        <time>2022-02-25T11:12:44Z</time>
      </trkpt>
      <trkpt lat="44.80304" lon="6.97188">
        <ele>2064.3</ele>
        <time>2022-02-25T11:12:45Z</time>
      </trkpt>
      <trkpt lat="44.80304" lon="6.97188">
        <ele>2064.3</ele>
        <time>2022-02-25T11:12:46Z</time>
      </trkpt>
      <trkpt lat="44.80304" lon="6.97188">
        <ele>2064.3</ele>
        <time>2022-02-25T11:12:47Z</time>
      </trkpt>
      <trkpt lat="44.80304" lon="6.97188">
        <ele>2064.3</ele>
        <time>2022-02-25T11:12:48Z</time>
      </trkpt>
      <trkpt lat="44.80304" lon="6.97188">
        <ele>2064.3</ele>
        <time>2022-02-25T11:12:49Z</time>
      </trkpt>
      <trkpt lat="44.80304" lon="6.97188">
        <ele>2064.3</ele>
        <time>2022-02-25T11:12:50Z</time>
      </trkpt>
      <trkpt lat="44.80304" lon="6.97188">
        <ele>2064.3</ele>
        <time>2022-02-25T11:12:51Z</time>
      </trkpt>
      <trkpt lat="44.80304" lon="6.97188">
        <ele>2064.3</ele>
        <time>2022-02-25T11:12:52Z</time>
      </trkpt>
      <trkpt lat="44.80304" lon="6.97188">
        <ele>2064.3</ele>
        <time>2022-02-25T11:12:53Z</time>
      </trkpt>
      <trkpt lat="44.80304" lon="6.97188">
        <ele>2064.3</ele>
        <time>2022-02-25T11:12:54Z</time>
      </trkpt>
      <trkpt lat="44.80304" lon="6.97189">
        <ele>2064.2</ele>
        <time>2022-02-25T11:12:55Z</time>
      </trkpt>
      <trkpt lat="44.80304" lon="6.97189">
        <ele>2064.2</ele>
        <time>2022-02-25T11:12:56Z</time>
      </trkpt>
      <trkpt lat="44.80304" lon="6.97189">
        <ele>2064.2</ele>
        <time>2022-02-25T11:12:57Z</time>
      </trkpt>
      <trkpt lat="44.80304" lon="6.97189">
        <ele>2064.2</ele>
        <time>2022-02-25T11:12:58Z</time>
      </trkpt>
      <trkpt lat="44.80304" lon="6.97189">
        <ele>2064.2</ele>
        <time>2022-02-25T11:12:59Z</time>
      </trkpt>
      <trkpt lat="44.80304" lon="6.97189">
        <ele>2064.2</ele>
        <time>2022-02-25T11:13:00Z</time>
      </trkpt>
      <trkpt lat="44.80304" lon="6.97189">
        <ele>2064.2</ele>
        <time>2022-02-25T11:13:01Z</time>
      </trkpt>
      <trkpt lat="44.80304" lon="6.97189">
        <ele>2064.2</ele>
        <time>2022-02-25T11:13:02Z</time>
      </trkpt>
      <trkpt lat="44.80304" lon="6.97189">
        <ele>2064.2</ele>
        <time>2022-02-25T11:13:03Z</time>
      </trkpt>
      <trkpt lat="44.80304" lon="6.97189">
        <ele>2064.2</ele>
        <time>2022-02-25T11:13:04Z</time>
      </trkpt>
      <trkpt lat="44.80304" lon="6.97189">
        <ele>2064.2</ele>
        <time>2022-02-25T11:13:05Z</time>
      </trkpt>
      <trkpt lat="44.80304" lon="6.97189">
        <ele>2064.2</ele>
        <time>2022-02-25T11:13:06Z</time>
      </trkpt>
      <trkpt lat="44.80304" lon="6.97189">
        <ele>2064.2</ele>
        <time>2022-02-25T11:13:07Z</time>
      </trkpt>
      <trkpt lat="44.80304" lon="6.97189">
        <ele>2064.2</ele>
        <time>2022-02-25T11:13:08Z</time>
      </trkpt>
      <trkpt lat="44.80304" lon="6.97189">
        <ele>2064.2</ele>
        <time>2022-02-25T11:13:09Z</time>
      </trkpt>
      <trkpt lat="44.80304" lon="6.97189">
        <ele>2064.2</ele>
        <time>2022-02-25T11:13:14Z</time>
      </trkpt>
      <trkpt lat="44.80304" lon="6.9719">
        <ele>2064.1</ele>
        <time>2022-02-25T11:13:15Z</time>
      </trkpt>
      <trkpt lat="44.80304" lon="6.9719">
        <ele>2064.1</ele>
        <time>2022-02-25T11:13:16Z</time>
      </trkpt>
      <trkpt lat="44.80304" lon="6.9719">
        <ele>2064.1</ele>
        <time>2022-02-25T11:13:17Z</time>
      </trkpt>
      <trkpt lat="44.80304" lon="6.9719">
        <ele>2064.1</ele>
        <time>2022-02-25T11:13:18Z</time>
      </trkpt>
      <trkpt lat="44.80304" lon="6.9719">
        <ele>2064.1</ele>
        <time>2022-02-25T11:13:19Z</time>
      </trkpt>
      <trkpt lat="44.80304" lon="6.9719">
        <ele>2064.1</ele>
        <time>2022-02-25T11:13:20Z</time>
      </trkpt>
      <trkpt lat="44.80304" lon="6.9719">
        <ele>2064.1</ele>
        <time>2022-02-25T11:13:21Z</time>
      </trkpt>
      <trkpt lat="44.80304" lon="6.9719">
        <ele>2064.1</ele>
        <time>2022-02-25T11:13:22Z</time>
      </trkpt>
      <trkpt lat="44.80304" lon="6.9719">
        <ele>2064.1</ele>
        <time>2022-02-25T11:13:23Z</time>
      </trkpt>
      <trkpt lat="44.80304" lon="6.9719">
        <ele>2064.1</ele>
        <time>2022-02-25T11:13:24Z</time>
      </trkpt>
      <trkpt lat="44.80304" lon="6.9719">
        <ele>2064.1</ele>
        <time>2022-02-25T11:13:25Z</time>
      </trkpt>
      <trkpt lat="44.80304" lon="6.9719">
        <ele>2064.1</ele>
        <time>2022-02-25T11:13:26Z</time>
      </trkpt>
      <trkpt lat="44.80304" lon="6.9719">
        <ele>2064.1</ele>
        <time>2022-02-25T11:13:27Z</time>
      </trkpt>
      <trkpt lat="44.80304" lon="6.9719">
        <ele>2064.1</ele>
        <time>2022-02-25T11:13:28Z</time>
      </trkpt>
      <trkpt lat="44.80304" lon="6.9719">
        <ele>2064.1</ele>
        <time>2022-02-25T11:13:29Z</time>
      </trkpt>
      <trkpt lat="44.80304" lon="6.9719">
        <ele>2064.1</ele>
        <time>2022-02-25T11:13:30Z</time>
      </trkpt>
      <trkpt lat="44.80304" lon="6.97191">
        <ele>2064</ele>
        <time>2022-02-25T11:13:31Z</time>
      </trkpt>
      <trkpt lat="44.80304" lon="6.97191">
        <ele>2064</ele>
        <time>2022-02-25T11:13:32Z</time>
      </trkpt>
      <trkpt lat="44.80304" lon="6.97191">
        <ele>2064</ele>
        <time>2022-02-25T11:13:33Z</time>
      </trkpt>
      <trkpt lat="44.80304" lon="6.97191">
        <ele>2064</ele>
        <time>2022-02-25T11:13:34Z</time>
      </trkpt>
      <trkpt lat="44.80304" lon="6.97191">
        <ele>2064</ele>
        <time>2022-02-25T11:13:35Z</time>
      </trkpt>
      <trkpt lat="44.80304" lon="6.97191">
        <ele>2064</ele>
        <time>2022-02-25T11:13:36Z</time>
      </trkpt>
      <trkpt lat="44.80304" lon="6.97191">
        <ele>2064</ele>
        <time>2022-02-25T11:13:37Z</time>
      </trkpt>
      <trkpt lat="44.80304" lon="6.97191">
        <ele>2064</ele>
        <time>2022-02-25T11:13:38Z</time>
      </trkpt>
      <trkpt lat="44.80304" lon="6.97191">
        <ele>2064</ele>
        <time>2022-02-25T11:13:39Z</time>
      </trkpt>
      <trkpt lat="44.80304" lon="6.97191">
        <ele>2064</ele>
        <time>2022-02-25T11:13:40Z</time>
      </trkpt>
      <trkpt lat="44.80304" lon="6.97191">
        <ele>2064</ele>
        <time>2022-02-25T11:13:41Z</time>
      </trkpt>
      <trkpt lat="44.80304" lon="6.97191">
        <ele>2064</ele>
        <time>2022-02-25T11:13:42Z</time>
      </trkpt>
      <trkpt lat="44.80304" lon="6.97191">
        <ele>2064</ele>
        <time>2022-02-25T11:13:43Z</time>
      </trkpt>
      <trkpt lat="44.80304" lon="6.97191">
        <ele>2064</ele>
        <time>2022-02-25T11:13:44Z</time>
      </trkpt>
      <trkpt lat="44.80304" lon="6.97191">
        <ele>2064</ele>
        <time>2022-02-25T11:13:45Z</time>
      </trkpt>
      <trkpt lat="44.80304" lon="6.97191">
        <ele>2064</ele>
        <time>2022-02-25T11:13:46Z</time>
      </trkpt>
      <trkpt lat="44.80304" lon="6.97192">
        <ele>2063.9</ele>
        <time>2022-02-25T11:13:47Z</time>
      </trkpt>
      <trkpt lat="44.80304" lon="6.97192">
        <ele>2063.9</ele>
        <time>2022-02-25T11:13:48Z</time>
      </trkpt>
      <trkpt lat="44.80304" lon="6.97192">
        <ele>2063.9</ele>
        <time>2022-02-25T11:13:49Z</time>
      </trkpt>
      <trkpt lat="44.80304" lon="6.97192">
        <ele>2063.9</ele>
        <time>2022-02-25T11:13:50Z</time>
      </trkpt>
      <trkpt lat="44.80304" lon="6.97192">
        <ele>2063.9</ele>
        <time>2022-02-25T11:13:51Z</time>
      </trkpt>
      <trkpt lat="44.80304" lon="6.97192">
        <ele>2063.9</ele>
        <time>2022-02-25T11:13:52Z</time>
      </trkpt>
      <trkpt lat="44.80304" lon="6.97192">
        <ele>2063.9</ele>
        <time>2022-02-25T11:13:53Z</time>
      </trkpt>
      <trkpt lat="44.80304" lon="6.97192">
        <ele>2063.9</ele>
        <time>2022-02-25T11:13:54Z</time>
      </trkpt>
      <trkpt lat="44.80304" lon="6.97192">
        <ele>2063.9</ele>
        <time>2022-02-25T11:13:55Z</time>
      </trkpt>
      <trkpt lat="44.80304" lon="6.97192">
        <ele>2063.9</ele>
        <time>2022-02-25T11:13:56Z</time>
      </trkpt>
      <trkpt lat="44.80304" lon="6.97192">
        <ele>2063.9</ele>
        <time>2022-02-25T11:13:57Z</time>
      </trkpt>
      <trkpt lat="44.80304" lon="6.97192">
        <ele>2063.9</ele>
        <time>2022-02-25T11:13:58Z</time>
      </trkpt>
      <trkpt lat="44.80304" lon="6.97192">
        <ele>2063.9</ele>
        <time>2022-02-25T11:13:59Z</time>
      </trkpt>
      <trkpt lat="44.80304" lon="6.97192">
        <ele>2063.9</ele>
        <time>2022-02-25T11:14:00Z</time>
      </trkpt>
      <trkpt lat="44.80304" lon="6.97192">
        <ele>2063.9</ele>
        <time>2022-02-25T11:14:01Z</time>
      </trkpt>
      <trkpt lat="44.80304" lon="6.97192">
        <ele>2063.9</ele>
        <time>2022-02-25T11:14:02Z</time>
      </trkpt>
      <trkpt lat="44.80304" lon="6.97193">
        <ele>2063.8</ele>
        <time>2022-02-25T11:14:03Z</time>
      </trkpt>
      <trkpt lat="44.80304" lon="6.97193">
        <ele>2063.8</ele>
        <time>2022-02-25T11:14:04Z</time>
      </trkpt>
      <trkpt lat="44.80304" lon="6.97193">
        <ele>2063.8</ele>
        <time>2022-02-25T11:14:05Z</time>
      </trkpt>
      <trkpt lat="44.80304" lon="6.97193">
        <ele>2063.8</ele>
        <time>2022-02-25T11:14:06Z</time>
      </trkpt>
      <trkpt lat="44.80301" lon="6.97192">
        <ele>2065.1</ele>
        <time>2022-02-25T11:14:07Z</time>
      </trkpt>
      <trkpt lat="44.80301" lon="6.97192">
        <ele>2065.1</ele>
        <time>2022-02-25T11:14:08Z</time>
      </trkpt>
      <trkpt lat="44.80301" lon="6.97192">
        <ele>2065.1</ele>
        <time>2022-02-25T11:14:09Z</time>
      </trkpt>
      <trkpt lat="44.803" lon="6.97192">
        <ele>2065.5</ele>
        <time>2022-02-25T11:14:10Z</time>
      </trkpt>
      <trkpt lat="44.803" lon="6.97192">
        <ele>2065.5</ele>
        <time>2022-02-25T11:14:11Z</time>
      </trkpt>
      <trkpt lat="44.803" lon="6.97192">
        <ele>2065.5</ele>
        <time>2022-02-25T11:14:12Z</time>
      </trkpt>
      <trkpt lat="44.803" lon="6.97192">
        <ele>2065.5</ele>
        <time>2022-02-25T11:14:13Z</time>
      </trkpt>
      <trkpt lat="44.803" lon="6.97192">
        <ele>2065.5</ele>
        <time>2022-02-25T11:14:14Z</time>
      </trkpt>
      <trkpt lat="44.803" lon="6.97192">
        <ele>2065.5</ele>
        <time>2022-02-25T11:14:15Z</time>
      </trkpt>
      <trkpt lat="44.80298" lon="6.97191">
        <ele>2066.4</ele>
        <time>2022-02-25T11:14:16Z</time>
      </trkpt>
      <trkpt lat="44.80298" lon="6.97191">
        <ele>2066.4</ele>
        <time>2022-02-25T11:14:17Z</time>
      </trkpt>
      <trkpt lat="44.80298" lon="6.97191">
        <ele>2066.4</ele>
        <time>2022-02-25T11:14:18Z</time>
      </trkpt>
      <trkpt lat="44.80298" lon="6.97191">
        <ele>2066.4</ele>
        <time>2022-02-25T11:14:19Z</time>
      </trkpt>
      <trkpt lat="44.80296" lon="6.97193">
        <ele>2066.9</ele>
        <time>2022-02-25T11:14:20Z</time>
      </trkpt>
      <trkpt lat="44.80296" lon="6.97193">
        <ele>2066.9</ele>
        <time>2022-02-25T11:14:21Z</time>
      </trkpt>
      <trkpt lat="44.80296" lon="6.97193">
        <ele>2066.9</ele>
        <time>2022-02-25T11:14:22Z</time>
      </trkpt>
      <trkpt lat="44.80296" lon="6.97193">
        <ele>2066.9</ele>
        <time>2022-02-25T11:14:23Z</time>
      </trkpt>
      <trkpt lat="44.80296" lon="6.97193">
        <ele>2066.9</ele>
        <time>2022-02-25T11:14:24Z</time>
      </trkpt>
      <trkpt lat="44.80296" lon="6.97193">
        <ele>2066.9</ele>
        <time>2022-02-25T11:14:25Z</time>
      </trkpt>
      <trkpt lat="44.80296" lon="6.97193">
        <ele>2066.9</ele>
        <time>2022-02-25T11:14:26Z</time>
      </trkpt>
      <trkpt lat="44.80296" lon="6.97193">
        <ele>2066.9</ele>
        <time>2022-02-25T11:14:27Z</time>
      </trkpt>
      <trkpt lat="44.80296" lon="6.97193">
        <ele>2066.9</ele>
        <time>2022-02-25T11:14:28Z</time>
      </trkpt>
      <trkpt lat="44.80296" lon="6.97193">
        <ele>2066.9</ele>
        <time>2022-02-25T11:14:29Z</time>
      </trkpt>
      <trkpt lat="44.80296" lon="6.97193">
        <ele>2066.9</ele>
        <time>2022-02-25T11:14:30Z</time>
      </trkpt>
      <trkpt lat="44.80296" lon="6.97193">
        <ele>2066.9</ele>
        <time>2022-02-25T11:14:31Z</time>
      </trkpt>
      <trkpt lat="44.80296" lon="6.97193">
        <ele>2066.9</ele>
        <time>2022-02-25T11:14:32Z</time>
      </trkpt>
      <trkpt lat="44.80296" lon="6.97193">
        <ele>2066.9</ele>
        <time>2022-02-25T11:14:33Z</time>
      </trkpt>
      <trkpt lat="44.80294" lon="6.97193">
        <ele>2067.7</ele>
        <time>2022-02-25T11:14:34Z</time>
      </trkpt>
      <trkpt lat="44.80294" lon="6.97193">
        <ele>2067.7</ele>
        <time>2022-02-25T11:14:35Z</time>
      </trkpt>
      <trkpt lat="44.80294" lon="6.97193">
        <ele>2067.7</ele>
        <time>2022-02-25T11:14:36Z</time>
      </trkpt>
      <trkpt lat="44.80292" lon="6.97193">
        <ele>2068.5</ele>
        <time>2022-02-25T11:14:37Z</time>
      </trkpt>
      <trkpt lat="44.80292" lon="6.97193">
        <ele>2068.5</ele>
        <time>2022-02-25T11:14:38Z</time>
      </trkpt>
      <trkpt lat="44.80292" lon="6.97193">
        <ele>2068.5</ele>
        <time>2022-02-25T11:14:39Z</time>
      </trkpt>
      <trkpt lat="44.80292" lon="6.97193">
        <ele>2068.5</ele>
        <time>2022-02-25T11:14:40Z</time>
      </trkpt>
      <trkpt lat="44.8029" lon="6.97193">
        <ele>2069.3</ele>
        <time>2022-02-25T11:14:41Z</time>
      </trkpt>
      <trkpt lat="44.8029" lon="6.97193">
        <ele>2069.3</ele>
        <time>2022-02-25T11:14:42Z</time>
      </trkpt>
      <trkpt lat="44.8029" lon="6.97193">
        <ele>2069.3</ele>
        <time>2022-02-25T11:14:43Z</time>
      </trkpt>
      <trkpt lat="44.8029" lon="6.97193">
        <ele>2069.3</ele>
        <time>2022-02-25T11:14:44Z</time>
      </trkpt>
      <trkpt lat="44.80288" lon="6.97192">
        <ele>2070.2</ele>
        <time>2022-02-25T11:14:45Z</time>
      </trkpt>
      <trkpt lat="44.80288" lon="6.97192">
        <ele>2070.2</ele>
        <time>2022-02-25T11:14:46Z</time>
      </trkpt>
      <trkpt lat="44.80286" lon="6.97193">
        <ele>2070.9</ele>
        <time>2022-02-25T11:14:47Z</time>
      </trkpt>
      <trkpt lat="44.80286" lon="6.97193">
        <ele>2070.9</ele>
        <time>2022-02-25T11:14:48Z</time>
      </trkpt>
      <trkpt lat="44.80286" lon="6.97193">
        <ele>2070.9</ele>
        <time>2022-02-25T11:14:49Z</time>
      </trkpt>
      <trkpt lat="44.80286" lon="6.97193">
        <ele>2070.9</ele>
        <time>2022-02-25T11:14:50Z</time>
      </trkpt>
      <trkpt lat="44.80284" lon="6.97191">
        <ele>2071.9</ele>
        <time>2022-02-25T11:14:51Z</time>
      </trkpt>
      <trkpt lat="44.80284" lon="6.97191">
        <ele>2071.9</ele>
        <time>2022-02-25T11:14:52Z</time>
      </trkpt>
      <trkpt lat="44.80284" lon="6.97191">
        <ele>2071.9</ele>
        <time>2022-02-25T11:14:53Z</time>
      </trkpt>
      <trkpt lat="44.80284" lon="6.97191">
        <ele>2071.9</ele>
        <time>2022-02-25T11:14:54Z</time>
      </trkpt>
      <trkpt lat="44.80284" lon="6.97191">
        <ele>2071.9</ele>
        <time>2022-02-25T11:14:55Z</time>
      </trkpt>
      <trkpt lat="44.80284" lon="6.97191">
        <ele>2071.9</ele>
        <time>2022-02-25T11:14:56Z</time>
      </trkpt>
      <trkpt lat="44.80283" lon="6.97193">
        <ele>2072.1</ele>
        <time>2022-02-25T11:14:57Z</time>
      </trkpt>
      <trkpt lat="44.80283" lon="6.97193">
        <ele>2072.1</ele>
        <time>2022-02-25T11:14:58Z</time>
      </trkpt>
      <trkpt lat="44.80283" lon="6.97193">
        <ele>2072.1</ele>
        <time>2022-02-25T11:14:59Z</time>
      </trkpt>
      <trkpt lat="44.80283" lon="6.97193">
        <ele>2072.1</ele>
        <time>2022-02-25T11:15:00Z</time>
      </trkpt>
      <trkpt lat="44.80283" lon="6.97193">
        <ele>2072.1</ele>
        <time>2022-02-25T11:15:01Z</time>
      </trkpt>
      <trkpt lat="44.80283" lon="6.97193">
        <ele>2072.1</ele>
        <time>2022-02-25T11:15:02Z</time>
      </trkpt>
      <trkpt lat="44.80283" lon="6.97193">
        <ele>2072.1</ele>
        <time>2022-02-25T11:15:03Z</time>
      </trkpt>
      <trkpt lat="44.80282" lon="6.97196">
        <ele>2072.1</ele>
        <time>2022-02-25T11:15:04Z</time>
      </trkpt>
      <trkpt lat="44.80282" lon="6.97196">
        <ele>2072.1</ele>
        <time>2022-02-25T11:15:05Z</time>
      </trkpt>
      <trkpt lat="44.80282" lon="6.97196">
        <ele>2072.1</ele>
        <time>2022-02-25T11:15:06Z</time>
      </trkpt>
      <trkpt lat="44.80282" lon="6.97196">
        <ele>2072.1</ele>
        <time>2022-02-25T11:15:07Z</time>
      </trkpt>
      <trkpt lat="44.8028" lon="6.97198">
        <ele>2072.6</ele>
        <time>2022-02-25T11:15:08Z</time>
      </trkpt>
      <trkpt lat="44.8028" lon="6.97198">
        <ele>2072.6</ele>
        <time>2022-02-25T11:15:09Z</time>
      </trkpt>
      <trkpt lat="44.8028" lon="6.97198">
        <ele>2072.6</ele>
        <time>2022-02-25T11:15:10Z</time>
      </trkpt>
      <trkpt lat="44.8028" lon="6.97198">
        <ele>2072.6</ele>
        <time>2022-02-25T11:15:11Z</time>
      </trkpt>
      <trkpt lat="44.8028" lon="6.97198">
        <ele>2072.6</ele>
        <time>2022-02-25T11:15:12Z</time>
      </trkpt>
      <trkpt lat="44.8028" lon="6.97198">
        <ele>2072.6</ele>
        <time>2022-02-25T11:15:13Z</time>
      </trkpt>
      <trkpt lat="44.80278" lon="6.97197">
        <ele>2073.5</ele>
        <time>2022-02-25T11:15:14Z</time>
      </trkpt>
      <trkpt lat="44.80278" lon="6.97197">
        <ele>2073.5</ele>
        <time>2022-02-25T11:15:15Z</time>
      </trkpt>
      <trkpt lat="44.80278" lon="6.97197">
        <ele>2073.5</ele>
        <time>2022-02-25T11:15:16Z</time>
      </trkpt>
      <trkpt lat="44.80278" lon="6.97197">
        <ele>2073.5</ele>
        <time>2022-02-25T11:15:17Z</time>
      </trkpt>
      <trkpt lat="44.80278" lon="6.97197">
        <ele>2073.5</ele>
        <time>2022-02-25T11:15:18Z</time>
      </trkpt>
      <trkpt lat="44.80278" lon="6.97197">
        <ele>2073.5</ele>
        <time>2022-02-25T11:15:19Z</time>
      </trkpt>
      <trkpt lat="44.80277" lon="6.97197">
        <ele>2073.9</ele>
        <time>2022-02-25T11:15:20Z</time>
      </trkpt>
      <trkpt lat="44.80277" lon="6.97197">
        <ele>2073.9</ele>
        <time>2022-02-25T11:15:21Z</time>
      </trkpt>
      <trkpt lat="44.80277" lon="6.97197">
        <ele>2073.9</ele>
        <time>2022-02-25T11:15:22Z</time>
      </trkpt>
      <trkpt lat="44.80276" lon="6.972">
        <ele>2073.9</ele>
        <time>2022-02-25T11:15:23Z</time>
      </trkpt>
      <trkpt lat="44.80276" lon="6.972">
        <ele>2073.9</ele>
        <time>2022-02-25T11:15:24Z</time>
      </trkpt>
      <trkpt lat="44.80276" lon="6.972">
        <ele>2073.9</ele>
        <time>2022-02-25T11:15:25Z</time>
      </trkpt>
      <trkpt lat="44.80276" lon="6.972">
        <ele>2073.9</ele>
        <time>2022-02-25T11:15:26Z</time>
      </trkpt>
      <trkpt lat="44.80275" lon="6.97202">
        <ele>2073.9</ele>
        <time>2022-02-25T11:15:27Z</time>
      </trkpt>
      <trkpt lat="44.80275" lon="6.97202">
        <ele>2073.9</ele>
        <time>2022-02-25T11:15:28Z</time>
      </trkpt>
      <trkpt lat="44.80275" lon="6.97202">
        <ele>2073.9</ele>
        <time>2022-02-25T11:15:29Z</time>
      </trkpt>
      <trkpt lat="44.80275" lon="6.97202">
        <ele>2073.9</ele>
        <time>2022-02-25T11:15:30Z</time>
      </trkpt>
      <trkpt lat="44.80275" lon="6.97202">
        <ele>2073.9</ele>
        <time>2022-02-25T11:15:31Z</time>
      </trkpt>
      <trkpt lat="44.80275" lon="6.97202">
        <ele>2073.9</ele>
        <time>2022-02-25T11:15:32Z</time>
      </trkpt>
      <trkpt lat="44.80275" lon="6.97202">
        <ele>2073.9</ele>
        <time>2022-02-25T11:15:33Z</time>
      </trkpt>
      <trkpt lat="44.80274" lon="6.97205">
        <ele>2073.9</ele>
        <time>2022-02-25T11:15:34Z</time>
      </trkpt>
      <trkpt lat="44.80274" lon="6.97205">
        <ele>2073.9</ele>
        <time>2022-02-25T11:15:35Z</time>
      </trkpt>
      <trkpt lat="44.80274" lon="6.97205">
        <ele>2073.9</ele>
        <time>2022-02-25T11:15:36Z</time>
      </trkpt>
      <trkpt lat="44.80274" lon="6.97205">
        <ele>2073.9</ele>
        <time>2022-02-25T11:15:37Z</time>
      </trkpt>
      <trkpt lat="44.80274" lon="6.97205">
        <ele>2073.9</ele>
        <time>2022-02-25T11:15:38Z</time>
      </trkpt>
      <trkpt lat="44.80274" lon="6.97205">
        <ele>2073.9</ele>
        <time>2022-02-25T11:15:39Z</time>
      </trkpt>
      <trkpt lat="44.80274" lon="6.97205">
        <ele>2073.9</ele>
        <time>2022-02-25T11:15:40Z</time>
      </trkpt>
      <trkpt lat="44.80272" lon="6.97207">
        <ele>2074.4</ele>
        <time>2022-02-25T11:15:41Z</time>
      </trkpt>
      <trkpt lat="44.80272" lon="6.97207">
        <ele>2074.4</ele>
        <time>2022-02-25T11:15:42Z</time>
      </trkpt>
      <trkpt lat="44.80272" lon="6.97207">
        <ele>2074.4</ele>
        <time>2022-02-25T11:15:43Z</time>
      </trkpt>
      <trkpt lat="44.8027" lon="6.97209">
        <ele>2074.9</ele>
        <time>2022-02-25T11:15:44Z</time>
      </trkpt>
      <trkpt lat="44.8027" lon="6.97209">
        <ele>2074.9</ele>
        <time>2022-02-25T11:15:45Z</time>
      </trkpt>
      <trkpt lat="44.8027" lon="6.97209">
        <ele>2074.9</ele>
        <time>2022-02-25T11:15:46Z</time>
      </trkpt>
      <trkpt lat="44.8027" lon="6.97209">
        <ele>2074.9</ele>
        <time>2022-02-25T11:15:47Z</time>
      </trkpt>
      <trkpt lat="44.8027" lon="6.97209">
        <ele>2074.9</ele>
        <time>2022-02-25T11:15:48Z</time>
      </trkpt>
      <trkpt lat="44.80268" lon="6.97212">
        <ele>2075.2</ele>
        <time>2022-02-25T11:15:49Z</time>
      </trkpt>
      <trkpt lat="44.80268" lon="6.97212">
        <ele>2075.2</ele>
        <time>2022-02-25T11:15:50Z</time>
      </trkpt>
      <trkpt lat="44.80266" lon="6.97215">
        <ele>2075.6</ele>
        <time>2022-02-25T11:15:51Z</time>
      </trkpt>
      <trkpt lat="44.80266" lon="6.97215">
        <ele>2075.6</ele>
        <time>2022-02-25T11:15:52Z</time>
      </trkpt>
      <trkpt lat="44.80266" lon="6.97215">
        <ele>2075.6</ele>
        <time>2022-02-25T11:15:53Z</time>
      </trkpt>
      <trkpt lat="44.80266" lon="6.97215">
        <ele>2075.6</ele>
        <time>2022-02-25T11:15:54Z</time>
      </trkpt>
      <trkpt lat="44.80266" lon="6.97215">
        <ele>2075.6</ele>
        <time>2022-02-25T11:15:55Z</time>
      </trkpt>
      <trkpt lat="44.80266" lon="6.97215">
        <ele>2075.6</ele>
        <time>2022-02-25T11:15:56Z</time>
      </trkpt>
      <trkpt lat="44.80266" lon="6.97215">
        <ele>2075.6</ele>
        <time>2022-02-25T11:15:57Z</time>
      </trkpt>
      <trkpt lat="44.80264" lon="6.97216">
        <ele>2076.2</ele>
        <time>2022-02-25T11:15:58Z</time>
      </trkpt>
      <trkpt lat="44.80264" lon="6.97216">
        <ele>2076.2</ele>
        <time>2022-02-25T11:15:59Z</time>
      </trkpt>
      <trkpt lat="44.80264" lon="6.97216">
        <ele>2076.2</ele>
        <time>2022-02-25T11:16:00Z</time>
      </trkpt>
      <trkpt lat="44.80262" lon="6.97218">
        <ele>2076.8</ele>
        <time>2022-02-25T11:16:01Z</time>
      </trkpt>
      <trkpt lat="44.80262" lon="6.97218">
        <ele>2076.8</ele>
        <time>2022-02-25T11:16:02Z</time>
      </trkpt>
      <trkpt lat="44.80262" lon="6.97218">
        <ele>2076.8</ele>
        <time>2022-02-25T11:16:03Z</time>
      </trkpt>
      <trkpt lat="44.80262" lon="6.97218">
        <ele>2076.8</ele>
        <time>2022-02-25T11:16:04Z</time>
      </trkpt>
      <trkpt lat="44.80262" lon="6.97218">
        <ele>2076.8</ele>
        <time>2022-02-25T11:16:05Z</time>
      </trkpt>
      <trkpt lat="44.80262" lon="6.97218">
        <ele>2076.8</ele>
        <time>2022-02-25T11:16:06Z</time>
      </trkpt>
      <trkpt lat="44.80262" lon="6.97218">
        <ele>2076.8</ele>
        <time>2022-02-25T11:16:07Z</time>
      </trkpt>
      <trkpt lat="44.80262" lon="6.97218">
        <ele>2076.8</ele>
        <time>2022-02-25T11:16:08Z</time>
      </trkpt>
      <trkpt lat="44.8026" lon="6.97217">
        <ele>2077.7</ele>
        <time>2022-02-25T11:16:09Z</time>
      </trkpt>
      <trkpt lat="44.8026" lon="6.97217">
        <ele>2077.7</ele>
        <time>2022-02-25T11:16:10Z</time>
      </trkpt>
      <trkpt lat="44.80258" lon="6.97219">
        <ele>2078.2</ele>
        <time>2022-02-25T11:16:11Z</time>
      </trkpt>
      <trkpt lat="44.80258" lon="6.97219">
        <ele>2078.2</ele>
        <time>2022-02-25T11:16:12Z</time>
      </trkpt>
      <trkpt lat="44.80258" lon="6.97219">
        <ele>2078.2</ele>
        <time>2022-02-25T11:16:13Z</time>
      </trkpt>
      <trkpt lat="44.80258" lon="6.97219">
        <ele>2078.2</ele>
        <time>2022-02-25T11:16:14Z</time>
      </trkpt>
      <trkpt lat="44.80257" lon="6.9722">
        <ele>2078.5</ele>
        <time>2022-02-25T11:16:15Z</time>
      </trkpt>
      <trkpt lat="44.80257" lon="6.9722">
        <ele>2078.5</ele>
        <time>2022-02-25T11:16:16Z</time>
      </trkpt>
      <trkpt lat="44.80257" lon="6.9722">
        <ele>2078.5</ele>
        <time>2022-02-25T11:16:17Z</time>
      </trkpt>
      <trkpt lat="44.80257" lon="6.9722">
        <ele>2078.5</ele>
        <time>2022-02-25T11:16:18Z</time>
      </trkpt>
      <trkpt lat="44.80257" lon="6.9722">
        <ele>2078.5</ele>
        <time>2022-02-25T11:16:19Z</time>
      </trkpt>
      <trkpt lat="44.80257" lon="6.9722">
        <ele>2078.5</ele>
        <time>2022-02-25T11:16:20Z</time>
      </trkpt>
      <trkpt lat="44.80257" lon="6.9722">
        <ele>2078.5</ele>
        <time>2022-02-25T11:16:21Z</time>
      </trkpt>
      <trkpt lat="44.80255" lon="6.9722">
        <ele>2079.3</ele>
        <time>2022-02-25T11:16:22Z</time>
      </trkpt>
      <trkpt lat="44.80255" lon="6.9722">
        <ele>2079.3</ele>
        <time>2022-02-25T11:16:23Z</time>
      </trkpt>
      <trkpt lat="44.80255" lon="6.9722">
        <ele>2079.3</ele>
        <time>2022-02-25T11:16:24Z</time>
      </trkpt>
      <trkpt lat="44.80253" lon="6.97221">
        <ele>2079.9</ele>
        <time>2022-02-25T11:16:25Z</time>
      </trkpt>
      <trkpt lat="44.80253" lon="6.97221">
        <ele>2079.9</ele>
        <time>2022-02-25T11:16:26Z</time>
      </trkpt>
      <trkpt lat="44.80253" lon="6.97221">
        <ele>2079.9</ele>
        <time>2022-02-25T11:16:27Z</time>
      </trkpt>
      <trkpt lat="44.80253" lon="6.97221">
        <ele>2079.9</ele>
        <time>2022-02-25T11:16:28Z</time>
      </trkpt>
      <trkpt lat="44.8025" lon="6.97221">
        <ele>2081.1</ele>
        <time>2022-02-25T11:16:29Z</time>
      </trkpt>
      <trkpt lat="44.8025" lon="6.97221">
        <ele>2081.1</ele>
        <time>2022-02-25T11:16:30Z</time>
      </trkpt>
      <trkpt lat="44.8025" lon="6.97221">
        <ele>2081.1</ele>
        <time>2022-02-25T11:16:31Z</time>
      </trkpt>
      <trkpt lat="44.80249" lon="6.97219">
        <ele>2081.7</ele>
        <time>2022-02-25T11:16:32Z</time>
      </trkpt>
      <trkpt lat="44.80249" lon="6.97219">
        <ele>2081.7</ele>
        <time>2022-02-25T11:16:33Z</time>
      </trkpt>
      <trkpt lat="44.80249" lon="6.97219">
        <ele>2081.7</ele>
        <time>2022-02-25T11:16:34Z</time>
      </trkpt>
      <trkpt lat="44.80249" lon="6.97219">
        <ele>2081.7</ele>
        <time>2022-02-25T11:16:35Z</time>
      </trkpt>
      <trkpt lat="44.80246" lon="6.97218">
        <ele>2082.9</ele>
        <time>2022-02-25T11:16:36Z</time>
      </trkpt>
      <trkpt lat="44.80246" lon="6.97218">
        <ele>2082.9</ele>
        <time>2022-02-25T11:16:37Z</time>
      </trkpt>
      <trkpt lat="44.80246" lon="6.97218">
        <ele>2082.9</ele>
        <time>2022-02-25T11:16:38Z</time>
      </trkpt>
      <trkpt lat="44.80246" lon="6.97218">
        <ele>2082.9</ele>
        <time>2022-02-25T11:16:39Z</time>
      </trkpt>
      <trkpt lat="44.80245" lon="6.97217">
        <ele>2083.4</ele>
        <time>2022-02-25T11:16:40Z</time>
      </trkpt>
      <trkpt lat="44.80245" lon="6.97217">
        <ele>2083.4</ele>
        <time>2022-02-25T11:16:41Z</time>
      </trkpt>
      <trkpt lat="44.80245" lon="6.97217">
        <ele>2083.4</ele>
        <time>2022-02-25T11:16:42Z</time>
      </trkpt>
      <trkpt lat="44.80243" lon="6.97215">
        <ele>2084.3</ele>
        <time>2022-02-25T11:16:43Z</time>
      </trkpt>
      <trkpt lat="44.80243" lon="6.97215">
        <ele>2084.3</ele>
        <time>2022-02-25T11:16:44Z</time>
      </trkpt>
      <trkpt lat="44.80243" lon="6.97215">
        <ele>2084.3</ele>
        <time>2022-02-25T11:16:45Z</time>
      </trkpt>
      <trkpt lat="44.80243" lon="6.97215">
        <ele>2084.3</ele>
        <time>2022-02-25T11:16:46Z</time>
      </trkpt>
      <trkpt lat="44.80241" lon="6.97213">
        <ele>2085.2</ele>
        <time>2022-02-25T11:16:47Z</time>
      </trkpt>
      <trkpt lat="44.80241" lon="6.97213">
        <ele>2085.2</ele>
        <time>2022-02-25T11:16:48Z</time>
      </trkpt>
      <trkpt lat="44.80241" lon="6.97213">
        <ele>2085.2</ele>
        <time>2022-02-25T11:16:49Z</time>
      </trkpt>
      <trkpt lat="44.80239" lon="6.97212">
        <ele>2086.1</ele>
        <time>2022-02-25T11:16:50Z</time>
      </trkpt>
      <trkpt lat="44.80239" lon="6.97212">
        <ele>2086.1</ele>
        <time>2022-02-25T11:16:51Z</time>
      </trkpt>
      <trkpt lat="44.80239" lon="6.97212">
        <ele>2086.1</ele>
        <time>2022-02-25T11:16:52Z</time>
      </trkpt>
      <trkpt lat="44.80239" lon="6.97212">
        <ele>2086.1</ele>
        <time>2022-02-25T11:16:53Z</time>
      </trkpt>
      <trkpt lat="44.80239" lon="6.9721">
        <ele>2086.3</ele>
        <time>2022-02-25T11:16:54Z</time>
      </trkpt>
      <trkpt lat="44.80239" lon="6.9721">
        <ele>2086.3</ele>
        <time>2022-02-25T11:16:55Z</time>
      </trkpt>
      <trkpt lat="44.80239" lon="6.9721">
        <ele>2086.3</ele>
        <time>2022-02-25T11:16:56Z</time>
      </trkpt>
      <trkpt lat="44.80239" lon="6.9721">
        <ele>2086.3</ele>
        <time>2022-02-25T11:16:57Z</time>
      </trkpt>
      <trkpt lat="44.80239" lon="6.9721">
        <ele>2086.3</ele>
        <time>2022-02-25T11:16:58Z</time>
      </trkpt>
      <trkpt lat="44.80237" lon="6.97208">
        <ele>2087.2</ele>
        <time>2022-02-25T11:16:59Z</time>
      </trkpt>
      <trkpt lat="44.80237" lon="6.97208">
        <ele>2087.2</ele>
        <time>2022-02-25T11:17:00Z</time>
      </trkpt>
      <trkpt lat="44.80237" lon="6.97208">
        <ele>2087.2</ele>
        <time>2022-02-25T11:17:01Z</time>
      </trkpt>
      <trkpt lat="44.80234" lon="6.9721">
        <ele>2088.1</ele>
        <time>2022-02-25T11:17:02Z</time>
      </trkpt>
      <trkpt lat="44.80234" lon="6.9721">
        <ele>2088.1</ele>
        <time>2022-02-25T11:17:03Z</time>
      </trkpt>
      <trkpt lat="44.80234" lon="6.9721">
        <ele>2088.1</ele>
        <time>2022-02-25T11:17:04Z</time>
      </trkpt>
      <trkpt lat="44.80234" lon="6.9721">
        <ele>2088.1</ele>
        <time>2022-02-25T11:17:05Z</time>
      </trkpt>
      <trkpt lat="44.80234" lon="6.9721">
        <ele>2088.1</ele>
        <time>2022-02-25T11:17:06Z</time>
      </trkpt>
      <trkpt lat="44.80232" lon="6.97211">
        <ele>2088.7</ele>
        <time>2022-02-25T11:17:07Z</time>
      </trkpt>
      <trkpt lat="44.80232" lon="6.97211">
        <ele>2088.7</ele>
        <time>2022-02-25T11:17:08Z</time>
      </trkpt>
      <trkpt lat="44.80232" lon="6.97211">
        <ele>2088.7</ele>
        <time>2022-02-25T11:17:09Z</time>
      </trkpt>
      <trkpt lat="44.80232" lon="6.97211">
        <ele>2088.7</ele>
        <time>2022-02-25T11:17:10Z</time>
      </trkpt>
      <trkpt lat="44.80232" lon="6.97211">
        <ele>2088.7</ele>
        <time>2022-02-25T11:17:11Z</time>
      </trkpt>
      <trkpt lat="44.8023" lon="6.97211">
        <ele>2089.4</ele>
        <time>2022-02-25T11:17:12Z</time>
      </trkpt>
      <trkpt lat="44.8023" lon="6.97211">
        <ele>2089.4</ele>
        <time>2022-02-25T11:17:13Z</time>
      </trkpt>
      <trkpt lat="44.8023" lon="6.97211">
        <ele>2089.4</ele>
        <time>2022-02-25T11:17:14Z</time>
      </trkpt>
      <trkpt lat="44.8023" lon="6.97211">
        <ele>2089.4</ele>
        <time>2022-02-25T11:17:15Z</time>
      </trkpt>
      <trkpt lat="44.8023" lon="6.97211">
        <ele>2089.4</ele>
        <time>2022-02-25T11:17:16Z</time>
      </trkpt>
      <trkpt lat="44.8023" lon="6.97211">
        <ele>2089.4</ele>
        <time>2022-02-25T11:17:17Z</time>
      </trkpt>
      <trkpt lat="44.80229" lon="6.97213">
        <ele>2089.6</ele>
        <time>2022-02-25T11:17:18Z</time>
      </trkpt>
      <trkpt lat="44.80229" lon="6.97213">
        <ele>2089.6</ele>
        <time>2022-02-25T11:17:19Z</time>
      </trkpt>
      <trkpt lat="44.80229" lon="6.97213">
        <ele>2089.6</ele>
        <time>2022-02-25T11:17:20Z</time>
      </trkpt>
      <trkpt lat="44.80229" lon="6.97213">
        <ele>2089.6</ele>
        <time>2022-02-25T11:17:21Z</time>
      </trkpt>
      <trkpt lat="44.80229" lon="6.97213">
        <ele>2089.6</ele>
        <time>2022-02-25T11:17:22Z</time>
      </trkpt>
      <trkpt lat="44.80229" lon="6.97213">
        <ele>2089.6</ele>
        <time>2022-02-25T11:17:23Z</time>
      </trkpt>
      <trkpt lat="44.80227" lon="6.97213">
        <ele>2090.3</ele>
        <time>2022-02-25T11:17:24Z</time>
      </trkpt>
      <trkpt lat="44.80227" lon="6.97213">
        <ele>2090.3</ele>
        <time>2022-02-25T11:17:25Z</time>
      </trkpt>
      <trkpt lat="44.80227" lon="6.97213">
        <ele>2090.3</ele>
        <time>2022-02-25T11:17:26Z</time>
      </trkpt>
      <trkpt lat="44.80225" lon="6.97214">
        <ele>2090.9</ele>
        <time>2022-02-25T11:17:27Z</time>
      </trkpt>
      <trkpt lat="44.80225" lon="6.97214">
        <ele>2090.9</ele>
        <time>2022-02-25T11:17:28Z</time>
      </trkpt>
      <trkpt lat="44.80225" lon="6.97214">
        <ele>2090.9</ele>
        <time>2022-02-25T11:17:29Z</time>
      </trkpt>
      <trkpt lat="44.80223" lon="6.97216">
        <ele>2091.4</ele>
        <time>2022-02-25T11:17:30Z</time>
      </trkpt>
      <trkpt lat="44.80223" lon="6.97216">
        <ele>2091.4</ele>
        <time>2022-02-25T11:17:31Z</time>
      </trkpt>
      <trkpt lat="44.80221" lon="6.97218">
        <ele>2091.8</ele>
        <time>2022-02-25T11:17:32Z</time>
      </trkpt>
      <trkpt lat="44.80221" lon="6.97218">
        <ele>2091.8</ele>
        <time>2022-02-25T11:17:33Z</time>
      </trkpt>
      <trkpt lat="44.80221" lon="6.97218">
        <ele>2091.8</ele>
        <time>2022-02-25T11:17:34Z</time>
      </trkpt>
      <trkpt lat="44.8022" lon="6.97219">
        <ele>2092.1</ele>
        <time>2022-02-25T11:17:35Z</time>
      </trkpt>
      <trkpt lat="44.8022" lon="6.97219">
        <ele>2092.1</ele>
        <time>2022-02-25T11:17:36Z</time>
      </trkpt>
      <trkpt lat="44.8022" lon="6.97219">
        <ele>2092.1</ele>
        <time>2022-02-25T11:17:37Z</time>
      </trkpt>
      <trkpt lat="44.8022" lon="6.97219">
        <ele>2092.1</ele>
        <time>2022-02-25T11:17:38Z</time>
      </trkpt>
      <trkpt lat="44.80218" lon="6.97218">
        <ele>2092.8</ele>
        <time>2022-02-25T11:17:39Z</time>
      </trkpt>
      <trkpt lat="44.80218" lon="6.97218">
        <ele>2092.8</ele>
        <time>2022-02-25T11:17:40Z</time>
      </trkpt>
      <trkpt lat="44.80216" lon="6.9722">
        <ele>2093.2</ele>
        <time>2022-02-25T11:17:41Z</time>
      </trkpt>
      <trkpt lat="44.80216" lon="6.9722">
        <ele>2093.2</ele>
        <time>2022-02-25T11:17:42Z</time>
      </trkpt>
      <trkpt lat="44.80216" lon="6.9722">
        <ele>2093.2</ele>
        <time>2022-02-25T11:17:43Z</time>
      </trkpt>
      <trkpt lat="44.80216" lon="6.9722">
        <ele>2093.2</ele>
        <time>2022-02-25T11:17:44Z</time>
      </trkpt>
      <trkpt lat="44.80216" lon="6.9722">
        <ele>2093.2</ele>
        <time>2022-02-25T11:17:45Z</time>
      </trkpt>
      <trkpt lat="44.80216" lon="6.9722">
        <ele>2093.2</ele>
        <time>2022-02-25T11:17:46Z</time>
      </trkpt>
      <trkpt lat="44.80214" lon="6.97222">
        <ele>2093.7</ele>
        <time>2022-02-25T11:17:47Z</time>
      </trkpt>
      <trkpt lat="44.80214" lon="6.97222">
        <ele>2093.7</ele>
        <time>2022-02-25T11:17:48Z</time>
      </trkpt>
      <trkpt lat="44.80214" lon="6.97222">
        <ele>2093.7</ele>
        <time>2022-02-25T11:17:49Z</time>
      </trkpt>
      <trkpt lat="44.80214" lon="6.97222">
        <ele>2093.7</ele>
        <time>2022-02-25T11:17:50Z</time>
      </trkpt>
      <trkpt lat="44.80214" lon="6.97222">
        <ele>2093.7</ele>
        <time>2022-02-25T11:17:51Z</time>
      </trkpt>
      <trkpt lat="44.80214" lon="6.97222">
        <ele>2093.7</ele>
        <time>2022-02-25T11:17:52Z</time>
      </trkpt>
      <trkpt lat="44.80214" lon="6.97222">
        <ele>2093.7</ele>
        <time>2022-02-25T11:17:53Z</time>
      </trkpt>
      <trkpt lat="44.80214" lon="6.97222">
        <ele>2093.7</ele>
        <time>2022-02-25T11:17:54Z</time>
      </trkpt>
      <trkpt lat="44.80214" lon="6.97222">
        <ele>2093.7</ele>
        <time>2022-02-25T11:17:55Z</time>
      </trkpt>
      <trkpt lat="44.80214" lon="6.97222">
        <ele>2093.7</ele>
        <time>2022-02-25T11:17:56Z</time>
      </trkpt>
      <trkpt lat="44.80214" lon="6.97222">
        <ele>2093.7</ele>
        <time>2022-02-25T11:17:57Z</time>
      </trkpt>
      <trkpt lat="44.80214" lon="6.97222">
        <ele>2093.7</ele>
        <time>2022-02-25T11:17:58Z</time>
      </trkpt>
      <trkpt lat="44.80214" lon="6.97222">
        <ele>2093.7</ele>
        <time>2022-02-25T11:17:59Z</time>
      </trkpt>
      <trkpt lat="44.80214" lon="6.97222">
        <ele>2093.7</ele>
        <time>2022-02-25T11:18:00Z</time>
      </trkpt>
      <trkpt lat="44.80214" lon="6.97222">
        <ele>2093.7</ele>
        <time>2022-02-25T11:18:01Z</time>
      </trkpt>
      <trkpt lat="44.80214" lon="6.97222">
        <ele>2093.7</ele>
        <time>2022-02-25T11:18:02Z</time>
      </trkpt>
      <trkpt lat="44.80214" lon="6.97222">
        <ele>2093.7</ele>
        <time>2022-02-25T11:18:03Z</time>
      </trkpt>
      <trkpt lat="44.80214" lon="6.97222">
        <ele>2093.7</ele>
        <time>2022-02-25T11:18:04Z</time>
      </trkpt>
      <trkpt lat="44.80214" lon="6.97222">
        <ele>2093.7</ele>
        <time>2022-02-25T11:18:05Z</time>
      </trkpt>
      <trkpt lat="44.80214" lon="6.97222">
        <ele>2093.7</ele>
        <time>2022-02-25T11:18:06Z</time>
      </trkpt>
      <trkpt lat="44.80214" lon="6.97222">
        <ele>2093.7</ele>
        <time>2022-02-25T11:18:07Z</time>
      </trkpt>
      <trkpt lat="44.80214" lon="6.97222">
        <ele>2093.7</ele>
        <time>2022-02-25T11:18:08Z</time>
      </trkpt>
      <trkpt lat="44.80214" lon="6.97222">
        <ele>2093.7</ele>
        <time>2022-02-25T11:18:09Z</time>
      </trkpt>
      <trkpt lat="44.80214" lon="6.97222">
        <ele>2093.7</ele>
        <time>2022-02-25T11:18:10Z</time>
      </trkpt>
      <trkpt lat="44.80214" lon="6.97222">
        <ele>2093.7</ele>
        <time>2022-02-25T11:18:11Z</time>
      </trkpt>
      <trkpt lat="44.80214" lon="6.97222">
        <ele>2093.7</ele>
        <time>2022-02-25T11:18:12Z</time>
      </trkpt>
      <trkpt lat="44.80214" lon="6.97222">
        <ele>2093.7</ele>
        <time>2022-02-25T11:18:13Z</time>
      </trkpt>
      <trkpt lat="44.80214" lon="6.97222">
        <ele>2093.7</ele>
        <time>2022-02-25T11:18:14Z</time>
      </trkpt>
      <trkpt lat="44.80214" lon="6.97222">
        <ele>2093.7</ele>
        <time>2022-02-25T11:18:15Z</time>
      </trkpt>
      <trkpt lat="44.80213" lon="6.97224">
        <ele>2093.8</ele>
        <time>2022-02-25T11:18:16Z</time>
      </trkpt>
      <trkpt lat="44.80213" lon="6.97224">
        <ele>2093.8</ele>
        <time>2022-02-25T11:18:17Z</time>
      </trkpt>
      <trkpt lat="44.80213" lon="6.97224">
        <ele>2093.8</ele>
        <time>2022-02-25T11:18:18Z</time>
      </trkpt>
      <trkpt lat="44.80213" lon="6.97228">
        <ele>2093.4</ele>
        <time>2022-02-25T11:18:19Z</time>
      </trkpt>
      <trkpt lat="44.80213" lon="6.97228">
        <ele>2093.4</ele>
        <time>2022-02-25T11:18:20Z</time>
      </trkpt>
      <trkpt lat="44.80211" lon="6.97231">
        <ele>2093.7</ele>
        <time>2022-02-25T11:18:21Z</time>
      </trkpt>
      <trkpt lat="44.80211" lon="6.97231">
        <ele>2093.7</ele>
        <time>2022-02-25T11:18:22Z</time>
      </trkpt>
      <trkpt lat="44.80211" lon="6.97231">
        <ele>2093.7</ele>
        <time>2022-02-25T11:18:23Z</time>
      </trkpt>
      <trkpt lat="44.8021" lon="6.97235">
        <ele>2093.6</ele>
        <time>2022-02-25T11:18:24Z</time>
      </trkpt>
      <trkpt lat="44.80209" lon="6.97237">
        <ele>2093.7</ele>
        <time>2022-02-25T11:18:25Z</time>
      </trkpt>
      <trkpt lat="44.80209" lon="6.97237">
        <ele>2093.7</ele>
        <time>2022-02-25T11:18:26Z</time>
      </trkpt>
      <trkpt lat="44.80206" lon="6.97241">
        <ele>2094.2</ele>
        <time>2022-02-25T11:18:27Z</time>
      </trkpt>
      <trkpt lat="44.80206" lon="6.97241">
        <ele>2094.2</ele>
        <time>2022-02-25T11:18:28Z</time>
      </trkpt>
      <trkpt lat="44.80205" lon="6.97243">
        <ele>2094.3</ele>
        <time>2022-02-25T11:18:29Z</time>
      </trkpt>
      <trkpt lat="44.80205" lon="6.97243">
        <ele>2094.3</ele>
        <time>2022-02-25T11:18:30Z</time>
      </trkpt>
      <trkpt lat="44.80205" lon="6.97243">
        <ele>2094.3</ele>
        <time>2022-02-25T11:18:31Z</time>
      </trkpt>
      <trkpt lat="44.80204" lon="6.97245">
        <ele>2094.4</ele>
        <time>2022-02-25T11:18:32Z</time>
      </trkpt>
      <trkpt lat="44.80204" lon="6.97245">
        <ele>2094.4</ele>
        <time>2022-02-25T11:18:33Z</time>
      </trkpt>
      <trkpt lat="44.80204" lon="6.97245">
        <ele>2094.4</ele>
        <time>2022-02-25T11:18:34Z</time>
      </trkpt>
      <trkpt lat="44.80204" lon="6.97245">
        <ele>2094.4</ele>
        <time>2022-02-25T11:18:35Z</time>
      </trkpt>
      <trkpt lat="44.80202" lon="6.97246">
        <ele>2095</ele>
        <time>2022-02-25T11:18:36Z</time>
      </trkpt>
      <trkpt lat="44.80202" lon="6.97246">
        <ele>2095</ele>
        <time>2022-02-25T11:18:37Z</time>
      </trkpt>
      <trkpt lat="44.80202" lon="6.97246">
        <ele>2095</ele>
        <time>2022-02-25T11:18:38Z</time>
      </trkpt>
      <trkpt lat="44.802" lon="6.97248">
        <ele>2095.4</ele>
        <time>2022-02-25T11:18:39Z</time>
      </trkpt>
      <trkpt lat="44.802" lon="6.97248">
        <ele>2095.4</ele>
        <time>2022-02-25T11:18:40Z</time>
      </trkpt>
      <trkpt lat="44.802" lon="6.97248">
        <ele>2095.4</ele>
        <time>2022-02-25T11:18:41Z</time>
      </trkpt>
      <trkpt lat="44.802" lon="6.97248">
        <ele>2095.4</ele>
        <time>2022-02-25T11:18:42Z</time>
      </trkpt>
      <trkpt lat="44.80198" lon="6.9725">
        <ele>2095.8</ele>
        <time>2022-02-25T11:18:43Z</time>
      </trkpt>
      <trkpt lat="44.80198" lon="6.9725">
        <ele>2095.8</ele>
        <time>2022-02-25T11:18:44Z</time>
      </trkpt>
      <trkpt lat="44.80198" lon="6.9725">
        <ele>2095.8</ele>
        <time>2022-02-25T11:18:45Z</time>
      </trkpt>
      <trkpt lat="44.80198" lon="6.9725">
        <ele>2095.8</ele>
        <time>2022-02-25T11:18:46Z</time>
      </trkpt>
      <trkpt lat="44.80198" lon="6.9725">
        <ele>2095.8</ele>
        <time>2022-02-25T11:18:47Z</time>
      </trkpt>
      <trkpt lat="44.80198" lon="6.9725">
        <ele>2095.8</ele>
        <time>2022-02-25T11:18:48Z</time>
      </trkpt>
      <trkpt lat="44.80198" lon="6.9725">
        <ele>2095.8</ele>
        <time>2022-02-25T11:18:49Z</time>
      </trkpt>
      <trkpt lat="44.80198" lon="6.9725">
        <ele>2095.8</ele>
        <time>2022-02-25T11:18:50Z</time>
      </trkpt>
      <trkpt lat="44.80198" lon="6.9725">
        <ele>2095.8</ele>
        <time>2022-02-25T11:18:51Z</time>
      </trkpt>
      <trkpt lat="44.80198" lon="6.9725">
        <ele>2095.8</ele>
        <time>2022-02-25T11:18:52Z</time>
      </trkpt>
      <trkpt lat="44.802" lon="6.9725">
        <ele>2095.2</ele>
        <time>2022-02-25T11:18:53Z</time>
      </trkpt>
      <trkpt lat="44.802" lon="6.9725">
        <ele>2095.2</ele>
        <time>2022-02-25T11:18:54Z</time>
      </trkpt>
      <trkpt lat="44.802" lon="6.9725">
        <ele>2095.2</ele>
        <time>2022-02-25T11:18:55Z</time>
      </trkpt>
      <trkpt lat="44.802" lon="6.9725">
        <ele>2095.2</ele>
        <time>2022-02-25T11:18:56Z</time>
      </trkpt>
      <trkpt lat="44.802" lon="6.9725">
        <ele>2095.2</ele>
        <time>2022-02-25T11:18:57Z</time>
      </trkpt>
      <trkpt lat="44.802" lon="6.9725">
        <ele>2095.2</ele>
        <time>2022-02-25T11:18:58Z</time>
      </trkpt>
      <trkpt lat="44.802" lon="6.9725">
        <ele>2095.2</ele>
        <time>2022-02-25T11:18:59Z</time>
      </trkpt>
      <trkpt lat="44.802" lon="6.9725">
        <ele>2095.2</ele>
        <time>2022-02-25T11:19:00Z</time>
      </trkpt>
      <trkpt lat="44.802" lon="6.9725">
        <ele>2095.2</ele>
        <time>2022-02-25T11:19:01Z</time>
      </trkpt>
      <trkpt lat="44.802" lon="6.9725">
        <ele>2095.2</ele>
        <time>2022-02-25T11:19:02Z</time>
      </trkpt>
      <trkpt lat="44.802" lon="6.9725">
        <ele>2095.2</ele>
        <time>2022-02-25T11:19:03Z</time>
      </trkpt>
      <trkpt lat="44.802" lon="6.9725">
        <ele>2095.2</ele>
        <time>2022-02-25T11:19:04Z</time>
      </trkpt>
      <trkpt lat="44.802" lon="6.9725">
        <ele>2095.2</ele>
        <time>2022-02-25T11:19:05Z</time>
      </trkpt>
      <trkpt lat="44.802" lon="6.9725">
        <ele>2095.2</ele>
        <time>2022-02-25T11:19:06Z</time>
      </trkpt>
      <trkpt lat="44.802" lon="6.9725">
        <ele>2095.2</ele>
        <time>2022-02-25T11:19:07Z</time>
      </trkpt>
      <trkpt lat="44.802" lon="6.9725">
        <ele>2095.2</ele>
        <time>2022-02-25T11:19:08Z</time>
      </trkpt>
      <trkpt lat="44.80198" lon="6.97253">
        <ele>2095.5</ele>
        <time>2022-02-25T11:19:09Z</time>
      </trkpt>
      <trkpt lat="44.80198" lon="6.97253">
        <ele>2095.5</ele>
        <time>2022-02-25T11:19:10Z</time>
      </trkpt>
      <trkpt lat="44.80196" lon="6.97254">
        <ele>2096.1</ele>
        <time>2022-02-25T11:19:11Z</time>
      </trkpt>
      <trkpt lat="44.80196" lon="6.97254">
        <ele>2096.1</ele>
        <time>2022-02-25T11:19:12Z</time>
      </trkpt>
      <trkpt lat="44.80195" lon="6.97257">
        <ele>2096.1</ele>
        <time>2022-02-25T11:19:13Z</time>
      </trkpt>
      <trkpt lat="44.80193" lon="6.97258">
        <ele>2096.6</ele>
        <time>2022-02-25T11:19:14Z</time>
      </trkpt>
      <trkpt lat="44.80193" lon="6.97258">
        <ele>2096.6</ele>
        <time>2022-02-25T11:19:15Z</time>
      </trkpt>
      <trkpt lat="44.80193" lon="6.97258">
        <ele>2096.6</ele>
        <time>2022-02-25T11:19:16Z</time>
      </trkpt>
      <trkpt lat="44.80193" lon="6.97258">
        <ele>2096.6</ele>
        <time>2022-02-25T11:19:17Z</time>
      </trkpt>
      <trkpt lat="44.80191" lon="6.9726">
        <ele>2096.9</ele>
        <time>2022-02-25T11:19:18Z</time>
      </trkpt>
      <trkpt lat="44.80191" lon="6.9726">
        <ele>2096.9</ele>
        <time>2022-02-25T11:19:19Z</time>
      </trkpt>
      <trkpt lat="44.80189" lon="6.97263">
        <ele>2097.2</ele>
        <time>2022-02-25T11:19:20Z</time>
      </trkpt>
      <trkpt lat="44.80189" lon="6.97263">
        <ele>2097.2</ele>
        <time>2022-02-25T11:19:21Z</time>
      </trkpt>
      <trkpt lat="44.80187" lon="6.97264">
        <ele>2097.6</ele>
        <time>2022-02-25T11:19:22Z</time>
      </trkpt>
      <trkpt lat="44.80187" lon="6.97264">
        <ele>2097.6</ele>
        <time>2022-02-25T11:19:23Z</time>
      </trkpt>
      <trkpt lat="44.80187" lon="6.97264">
        <ele>2097.6</ele>
        <time>2022-02-25T11:19:24Z</time>
      </trkpt>
      <trkpt lat="44.80187" lon="6.97264">
        <ele>2097.6</ele>
        <time>2022-02-25T11:19:25Z</time>
      </trkpt>
      <trkpt lat="44.80187" lon="6.97264">
        <ele>2097.6</ele>
        <time>2022-02-25T11:19:26Z</time>
      </trkpt>
      <trkpt lat="44.80186" lon="6.97267">
        <ele>2097.6</ele>
        <time>2022-02-25T11:19:27Z</time>
      </trkpt>
      <trkpt lat="44.80186" lon="6.97267">
        <ele>2097.6</ele>
        <time>2022-02-25T11:19:28Z</time>
      </trkpt>
      <trkpt lat="44.80184" lon="6.9727">
        <ele>2097.8</ele>
        <time>2022-02-25T11:19:29Z</time>
      </trkpt>
      <trkpt lat="44.80184" lon="6.9727">
        <ele>2097.8</ele>
        <time>2022-02-25T11:19:30Z</time>
      </trkpt>
      <trkpt lat="44.80182" lon="6.97272">
        <ele>2098.2</ele>
        <time>2022-02-25T11:19:31Z</time>
      </trkpt>
      <trkpt lat="44.80182" lon="6.97272">
        <ele>2098.2</ele>
        <time>2022-02-25T11:19:32Z</time>
      </trkpt>
      <trkpt lat="44.80181" lon="6.97273">
        <ele>2098.4</ele>
        <time>2022-02-25T11:19:33Z</time>
      </trkpt>
      <trkpt lat="44.80181" lon="6.97273">
        <ele>2098.4</ele>
        <time>2022-02-25T11:19:34Z</time>
      </trkpt>
      <trkpt lat="44.80179" lon="6.97275">
        <ele>2098.7</ele>
        <time>2022-02-25T11:19:35Z</time>
      </trkpt>
      <trkpt lat="44.80179" lon="6.97275">
        <ele>2098.7</ele>
        <time>2022-02-25T11:19:36Z</time>
      </trkpt>
      <trkpt lat="44.80179" lon="6.97275">
        <ele>2098.7</ele>
        <time>2022-02-25T11:19:37Z</time>
      </trkpt>
      <trkpt lat="44.80179" lon="6.97275">
        <ele>2098.7</ele>
        <time>2022-02-25T11:19:38Z</time>
      </trkpt>
      <trkpt lat="44.80177" lon="6.97276">
        <ele>2099.2</ele>
        <time>2022-02-25T11:19:39Z</time>
      </trkpt>
      <trkpt lat="44.80177" lon="6.97276">
        <ele>2099.2</ele>
        <time>2022-02-25T11:19:40Z</time>
      </trkpt>
      <trkpt lat="44.80177" lon="6.97276">
        <ele>2099.2</ele>
        <time>2022-02-25T11:19:41Z</time>
      </trkpt>
      <trkpt lat="44.80177" lon="6.97276">
        <ele>2099.2</ele>
        <time>2022-02-25T11:19:42Z</time>
      </trkpt>
      <trkpt lat="44.80177" lon="6.97276">
        <ele>2099.2</ele>
        <time>2022-02-25T11:19:43Z</time>
      </trkpt>
      <trkpt lat="44.80175" lon="6.97277">
        <ele>2099.7</ele>
        <time>2022-02-25T11:19:44Z</time>
      </trkpt>
      <trkpt lat="44.80175" lon="6.97277">
        <ele>2099.7</ele>
        <time>2022-02-25T11:19:45Z</time>
      </trkpt>
      <trkpt lat="44.80175" lon="6.97277">
        <ele>2099.7</ele>
        <time>2022-02-25T11:19:46Z</time>
      </trkpt>
      <trkpt lat="44.80175" lon="6.97277">
        <ele>2099.7</ele>
        <time>2022-02-25T11:19:47Z</time>
      </trkpt>
      <trkpt lat="44.80175" lon="6.97277">
        <ele>2099.7</ele>
        <time>2022-02-25T11:19:48Z</time>
      </trkpt>
      <trkpt lat="44.80174" lon="6.9728">
        <ele>2099.6</ele>
        <time>2022-02-25T11:19:49Z</time>
      </trkpt>
      <trkpt lat="44.80174" lon="6.9728">
        <ele>2099.6</ele>
        <time>2022-02-25T11:19:50Z</time>
      </trkpt>
      <trkpt lat="44.80174" lon="6.9728">
        <ele>2099.6</ele>
        <time>2022-02-25T11:19:51Z</time>
      </trkpt>
      <trkpt lat="44.80173" lon="6.97282">
        <ele>2099.6</ele>
        <time>2022-02-25T11:19:52Z</time>
      </trkpt>
      <trkpt lat="44.80173" lon="6.97282">
        <ele>2099.6</ele>
        <time>2022-02-25T11:19:53Z</time>
      </trkpt>
      <trkpt lat="44.80173" lon="6.97285">
        <ele>2099.1</ele>
        <time>2022-02-25T11:19:54Z</time>
      </trkpt>
      <trkpt lat="44.80171" lon="6.97287">
        <ele>2099.4</ele>
        <time>2022-02-25T11:19:55Z</time>
      </trkpt>
      <trkpt lat="44.80171" lon="6.97287">
        <ele>2099.4</ele>
        <time>2022-02-25T11:19:56Z</time>
      </trkpt>
      <trkpt lat="44.80169" lon="6.9729">
        <ele>2099.6</ele>
        <time>2022-02-25T11:19:57Z</time>
      </trkpt>
      <trkpt lat="44.80169" lon="6.9729">
        <ele>2099.6</ele>
        <time>2022-02-25T11:19:58Z</time>
      </trkpt>
      <trkpt lat="44.80167" lon="6.97293">
        <ele>2099.7</ele>
        <time>2022-02-25T11:19:59Z</time>
      </trkpt>
      <trkpt lat="44.80167" lon="6.97293">
        <ele>2099.7</ele>
        <time>2022-02-25T11:20:00Z</time>
      </trkpt>
      <trkpt lat="44.80167" lon="6.97293">
        <ele>2099.7</ele>
        <time>2022-02-25T11:20:01Z</time>
      </trkpt>
      <trkpt lat="44.80167" lon="6.97293">
        <ele>2099.7</ele>
        <time>2022-02-25T11:20:02Z</time>
      </trkpt>
      <trkpt lat="44.80167" lon="6.97296">
        <ele>2099.3</ele>
        <time>2022-02-25T11:20:03Z</time>
      </trkpt>
      <trkpt lat="44.80167" lon="6.97296">
        <ele>2099.3</ele>
        <time>2022-02-25T11:20:04Z</time>
      </trkpt>
      <trkpt lat="44.80167" lon="6.97296">
        <ele>2099.3</ele>
        <time>2022-02-25T11:20:05Z</time>
      </trkpt>
      <trkpt lat="44.80165" lon="6.97297">
        <ele>2099.7</ele>
        <time>2022-02-25T11:20:06Z</time>
      </trkpt>
      <trkpt lat="44.80165" lon="6.97297">
        <ele>2099.7</ele>
        <time>2022-02-25T11:20:07Z</time>
      </trkpt>
      <trkpt lat="44.80165" lon="6.97297">
        <ele>2099.7</ele>
        <time>2022-02-25T11:20:08Z</time>
      </trkpt>
      <trkpt lat="44.80165" lon="6.97297">
        <ele>2099.7</ele>
        <time>2022-02-25T11:20:09Z</time>
      </trkpt>
      <trkpt lat="44.80165" lon="6.97297">
        <ele>2099.7</ele>
        <time>2022-02-25T11:20:10Z</time>
      </trkpt>
      <trkpt lat="44.80163" lon="6.973">
        <ele>2099.9</ele>
        <time>2022-02-25T11:20:11Z</time>
      </trkpt>
      <trkpt lat="44.80163" lon="6.973">
        <ele>2099.9</ele>
        <time>2022-02-25T11:20:12Z</time>
      </trkpt>
      <trkpt lat="44.80163" lon="6.973">
        <ele>2099.9</ele>
        <time>2022-02-25T11:20:13Z</time>
      </trkpt>
      <trkpt lat="44.80163" lon="6.973">
        <ele>2099.9</ele>
        <time>2022-02-25T11:20:14Z</time>
      </trkpt>
      <trkpt lat="44.80163" lon="6.973">
        <ele>2099.9</ele>
        <time>2022-02-25T11:20:15Z</time>
      </trkpt>
      <trkpt lat="44.80162" lon="6.97302">
        <ele>2099.9</ele>
        <time>2022-02-25T11:20:16Z</time>
      </trkpt>
      <trkpt lat="44.80162" lon="6.97302">
        <ele>2099.9</ele>
        <time>2022-02-25T11:20:17Z</time>
      </trkpt>
      <trkpt lat="44.80162" lon="6.97302">
        <ele>2099.9</ele>
        <time>2022-02-25T11:20:18Z</time>
      </trkpt>
      <trkpt lat="44.80162" lon="6.97302">
        <ele>2099.9</ele>
        <time>2022-02-25T11:20:19Z</time>
      </trkpt>
      <trkpt lat="44.80162" lon="6.97302">
        <ele>2099.9</ele>
        <time>2022-02-25T11:20:20Z</time>
      </trkpt>
      <trkpt lat="44.80162" lon="6.97302">
        <ele>2099.9</ele>
        <time>2022-02-25T11:20:21Z</time>
      </trkpt>
      <trkpt lat="44.80162" lon="6.97302">
        <ele>2099.9</ele>
        <time>2022-02-25T11:20:22Z</time>
      </trkpt>
      <trkpt lat="44.80161" lon="6.97305">
        <ele>2099.7</ele>
        <time>2022-02-25T11:20:23Z</time>
      </trkpt>
      <trkpt lat="44.80161" lon="6.97305">
        <ele>2099.7</ele>
        <time>2022-02-25T11:20:24Z</time>
      </trkpt>
      <trkpt lat="44.80161" lon="6.97305">
        <ele>2099.7</ele>
        <time>2022-02-25T11:20:25Z</time>
      </trkpt>
      <trkpt lat="44.8016" lon="6.97307">
        <ele>2099.7</ele>
        <time>2022-02-25T11:20:26Z</time>
      </trkpt>
      <trkpt lat="44.8016" lon="6.97307">
        <ele>2099.7</ele>
        <time>2022-02-25T11:20:27Z</time>
      </trkpt>
      <trkpt lat="44.8016" lon="6.97307">
        <ele>2099.7</ele>
        <time>2022-02-25T11:20:28Z</time>
      </trkpt>
      <trkpt lat="44.8016" lon="6.97307">
        <ele>2099.7</ele>
        <time>2022-02-25T11:20:29Z</time>
      </trkpt>
      <trkpt lat="44.8016" lon="6.97307">
        <ele>2099.7</ele>
        <time>2022-02-25T11:20:30Z</time>
      </trkpt>
      <trkpt lat="44.8016" lon="6.97307">
        <ele>2099.7</ele>
        <time>2022-02-25T11:20:31Z</time>
      </trkpt>
      <trkpt lat="44.80159" lon="6.9731">
        <ele>2099.6</ele>
        <time>2022-02-25T11:20:32Z</time>
      </trkpt>
      <trkpt lat="44.80159" lon="6.9731">
        <ele>2099.6</ele>
        <time>2022-02-25T11:20:33Z</time>
      </trkpt>
      <trkpt lat="44.80157" lon="6.97312">
        <ele>2099.9</ele>
        <time>2022-02-25T11:20:34Z</time>
      </trkpt>
      <trkpt lat="44.80157" lon="6.97312">
        <ele>2099.9</ele>
        <time>2022-02-25T11:20:35Z</time>
      </trkpt>
      <trkpt lat="44.80157" lon="6.97312">
        <ele>2099.9</ele>
        <time>2022-02-25T11:20:36Z</time>
      </trkpt>
      <trkpt lat="44.80156" lon="6.97315">
        <ele>2099.7</ele>
        <time>2022-02-25T11:20:37Z</time>
      </trkpt>
      <trkpt lat="44.80156" lon="6.97315">
        <ele>2099.7</ele>
        <time>2022-02-25T11:20:38Z</time>
      </trkpt>
      <trkpt lat="44.80156" lon="6.97315">
        <ele>2099.7</ele>
        <time>2022-02-25T11:20:39Z</time>
      </trkpt>
      <trkpt lat="44.80156" lon="6.97315">
        <ele>2099.7</ele>
        <time>2022-02-25T11:20:40Z</time>
      </trkpt>
      <trkpt lat="44.80156" lon="6.97315">
        <ele>2099.7</ele>
        <time>2022-02-25T11:20:41Z</time>
      </trkpt>
      <trkpt lat="44.80157" lon="6.97318">
        <ele>2099</ele>
        <time>2022-02-25T11:20:42Z</time>
      </trkpt>
      <trkpt lat="44.80157" lon="6.97318">
        <ele>2099</ele>
        <time>2022-02-25T11:20:43Z</time>
      </trkpt>
      <trkpt lat="44.80157" lon="6.97318">
        <ele>2099</ele>
        <time>2022-02-25T11:20:44Z</time>
      </trkpt>
      <trkpt lat="44.80157" lon="6.97318">
        <ele>2099</ele>
        <time>2022-02-25T11:20:45Z</time>
      </trkpt>
      <trkpt lat="44.80157" lon="6.97321">
        <ele>2098.6</ele>
        <time>2022-02-25T11:20:46Z</time>
      </trkpt>
      <trkpt lat="44.80157" lon="6.97321">
        <ele>2098.6</ele>
        <time>2022-02-25T11:20:47Z</time>
      </trkpt>
      <trkpt lat="44.80156" lon="6.97324">
        <ele>2098.4</ele>
        <time>2022-02-25T11:20:48Z</time>
      </trkpt>
      <trkpt lat="44.80156" lon="6.97324">
        <ele>2098.4</ele>
        <time>2022-02-25T11:20:49Z</time>
      </trkpt>
      <trkpt lat="44.80155" lon="6.97327">
        <ele>2098.3</ele>
        <time>2022-02-25T11:20:50Z</time>
      </trkpt>
      <trkpt lat="44.80155" lon="6.97327">
        <ele>2098.3</ele>
        <time>2022-02-25T11:20:51Z</time>
      </trkpt>
      <trkpt lat="44.80154" lon="6.9733">
        <ele>2098.1</ele>
        <time>2022-02-25T11:20:52Z</time>
      </trkpt>
      <trkpt lat="44.80154" lon="6.9733">
        <ele>2098.1</ele>
        <time>2022-02-25T11:20:53Z</time>
      </trkpt>
      <trkpt lat="44.80154" lon="6.9733">
        <ele>2098.1</ele>
        <time>2022-02-25T11:20:54Z</time>
      </trkpt>
      <trkpt lat="44.80154" lon="6.97333">
        <ele>2097.7</ele>
        <time>2022-02-25T11:20:55Z</time>
      </trkpt>
      <trkpt lat="44.80154" lon="6.97333">
        <ele>2097.7</ele>
        <time>2022-02-25T11:20:56Z</time>
      </trkpt>
      <trkpt lat="44.80153" lon="6.97335">
        <ele>2097.7</ele>
        <time>2022-02-25T11:20:57Z</time>
      </trkpt>
      <trkpt lat="44.80153" lon="6.97335">
        <ele>2097.7</ele>
        <time>2022-02-25T11:20:58Z</time>
      </trkpt>
      <trkpt lat="44.80153" lon="6.97335">
        <ele>2097.7</ele>
        <time>2022-02-25T11:20:59Z</time>
      </trkpt>
      <trkpt lat="44.80152" lon="6.97339">
        <ele>2097.3</ele>
        <time>2022-02-25T11:21:00Z</time>
      </trkpt>
      <trkpt lat="44.80152" lon="6.97339">
        <ele>2097.3</ele>
        <time>2022-02-25T11:21:01Z</time>
      </trkpt>
      <trkpt lat="44.8015" lon="6.97341">
        <ele>2097.6</ele>
        <time>2022-02-25T11:21:02Z</time>
      </trkpt>
      <trkpt lat="44.8015" lon="6.97341">
        <ele>2097.6</ele>
        <time>2022-02-25T11:21:03Z</time>
      </trkpt>
      <trkpt lat="44.80149" lon="6.97344">
        <ele>2097.4</ele>
        <time>2022-02-25T11:21:04Z</time>
      </trkpt>
      <trkpt lat="44.80149" lon="6.97344">
        <ele>2097.4</ele>
        <time>2022-02-25T11:21:05Z</time>
      </trkpt>
      <trkpt lat="44.80149" lon="6.97344">
        <ele>2097.4</ele>
        <time>2022-02-25T11:21:06Z</time>
      </trkpt>
      <trkpt lat="44.80149" lon="6.97344">
        <ele>2097.4</ele>
        <time>2022-02-25T11:21:07Z</time>
      </trkpt>
      <trkpt lat="44.80149" lon="6.97344">
        <ele>2097.4</ele>
        <time>2022-02-25T11:21:08Z</time>
      </trkpt>
      <trkpt lat="44.80148" lon="6.97345">
        <ele>2097.6</ele>
        <time>2022-02-25T11:21:09Z</time>
      </trkpt>
      <trkpt lat="44.80148" lon="6.97345">
        <ele>2097.6</ele>
        <time>2022-02-25T11:21:10Z</time>
      </trkpt>
      <trkpt lat="44.80148" lon="6.97345">
        <ele>2097.6</ele>
        <time>2022-02-25T11:21:11Z</time>
      </trkpt>
      <trkpt lat="44.80149" lon="6.97348">
        <ele>2096.8</ele>
        <time>2022-02-25T11:21:12Z</time>
      </trkpt>
      <trkpt lat="44.80149" lon="6.97348">
        <ele>2096.8</ele>
        <time>2022-02-25T11:21:13Z</time>
      </trkpt>
      <trkpt lat="44.80149" lon="6.97348">
        <ele>2096.8</ele>
        <time>2022-02-25T11:21:14Z</time>
      </trkpt>
      <trkpt lat="44.80148" lon="6.97351">
        <ele>2096.6</ele>
        <time>2022-02-25T11:21:15Z</time>
      </trkpt>
      <trkpt lat="44.80148" lon="6.97351">
        <ele>2096.6</ele>
        <time>2022-02-25T11:21:16Z</time>
      </trkpt>
      <trkpt lat="44.80148" lon="6.97351">
        <ele>2096.6</ele>
        <time>2022-02-25T11:21:17Z</time>
      </trkpt>
      <trkpt lat="44.80148" lon="6.97351">
        <ele>2096.6</ele>
        <time>2022-02-25T11:21:18Z</time>
      </trkpt>
      <trkpt lat="44.80148" lon="6.97354">
        <ele>2096.2</ele>
        <time>2022-02-25T11:21:19Z</time>
      </trkpt>
      <trkpt lat="44.80148" lon="6.97354">
        <ele>2096.2</ele>
        <time>2022-02-25T11:21:20Z</time>
      </trkpt>
      <trkpt lat="44.80148" lon="6.97354">
        <ele>2096.2</ele>
        <time>2022-02-25T11:21:21Z</time>
      </trkpt>
      <trkpt lat="44.80148" lon="6.97354">
        <ele>2096.2</ele>
        <time>2022-02-25T11:21:22Z</time>
      </trkpt>
      <trkpt lat="44.80148" lon="6.97354">
        <ele>2096.2</ele>
        <time>2022-02-25T11:21:23Z</time>
      </trkpt>
      <trkpt lat="44.80148" lon="6.97354">
        <ele>2096.2</ele>
        <time>2022-02-25T11:21:24Z</time>
      </trkpt>
      <trkpt lat="44.80148" lon="6.97354">
        <ele>2096.2</ele>
        <time>2022-02-25T11:21:25Z</time>
      </trkpt>
      <trkpt lat="44.80148" lon="6.97354">
        <ele>2096.2</ele>
        <time>2022-02-25T11:21:26Z</time>
      </trkpt>
      <trkpt lat="44.80148" lon="6.97354">
        <ele>2096.2</ele>
        <time>2022-02-25T11:21:27Z</time>
      </trkpt>
      <trkpt lat="44.80148" lon="6.97354">
        <ele>2096.2</ele>
        <time>2022-02-25T11:21:28Z</time>
      </trkpt>
      <trkpt lat="44.80148" lon="6.97354">
        <ele>2096.2</ele>
        <time>2022-02-25T11:21:29Z</time>
      </trkpt>
      <trkpt lat="44.80148" lon="6.97354">
        <ele>2096.2</ele>
        <time>2022-02-25T11:21:30Z</time>
      </trkpt>
      <trkpt lat="44.80148" lon="6.97354">
        <ele>2096.2</ele>
        <time>2022-02-25T11:21:31Z</time>
      </trkpt>
      <trkpt lat="44.80148" lon="6.97354">
        <ele>2096.2</ele>
        <time>2022-02-25T11:21:32Z</time>
      </trkpt>
      <trkpt lat="44.80148" lon="6.97354">
        <ele>2096.2</ele>
        <time>2022-02-25T11:21:33Z</time>
      </trkpt>
      <trkpt lat="44.80148" lon="6.97354">
        <ele>2096.2</ele>
        <time>2022-02-25T11:21:34Z</time>
      </trkpt>
      <trkpt lat="44.80148" lon="6.97354">
        <ele>2096.2</ele>
        <time>2022-02-25T11:21:35Z</time>
      </trkpt>
      <trkpt lat="44.80148" lon="6.97354">
        <ele>2096.2</ele>
        <time>2022-02-25T11:21:36Z</time>
      </trkpt>
      <trkpt lat="44.80148" lon="6.97354">
        <ele>2096.2</ele>
        <time>2022-02-25T11:21:37Z</time>
      </trkpt>
      <trkpt lat="44.80148" lon="6.97354">
        <ele>2096.2</ele>
        <time>2022-02-25T11:21:38Z</time>
      </trkpt>
      <trkpt lat="44.80148" lon="6.97354">
        <ele>2096.2</ele>
        <time>2022-02-25T11:21:39Z</time>
      </trkpt>
      <trkpt lat="44.80148" lon="6.97354">
        <ele>2096.2</ele>
        <time>2022-02-25T11:21:40Z</time>
      </trkpt>
      <trkpt lat="44.80148" lon="6.97354">
        <ele>2096.2</ele>
        <time>2022-02-25T11:21:41Z</time>
      </trkpt>
      <trkpt lat="44.80148" lon="6.97354">
        <ele>2096.2</ele>
        <time>2022-02-25T11:21:42Z</time>
      </trkpt>
      <trkpt lat="44.80148" lon="6.97354">
        <ele>2096.2</ele>
        <time>2022-02-25T11:21:43Z</time>
      </trkpt>
      <trkpt lat="44.80148" lon="6.97354">
        <ele>2096.2</ele>
        <time>2022-02-25T11:21:44Z</time>
      </trkpt>
      <trkpt lat="44.80148" lon="6.97354">
        <ele>2096.2</ele>
        <time>2022-02-25T11:21:45Z</time>
      </trkpt>
      <trkpt lat="44.80148" lon="6.97354">
        <ele>2096.2</ele>
        <time>2022-02-25T11:21:46Z</time>
      </trkpt>
      <trkpt lat="44.80148" lon="6.97354">
        <ele>2096.2</ele>
        <time>2022-02-25T11:21:47Z</time>
      </trkpt>
      <trkpt lat="44.80148" lon="6.97354">
        <ele>2096.2</ele>
        <time>2022-02-25T11:21:48Z</time>
      </trkpt>
      <trkpt lat="44.80148" lon="6.97354">
        <ele>2096.2</ele>
        <time>2022-02-25T11:21:49Z</time>
      </trkpt>
      <trkpt lat="44.80148" lon="6.97354">
        <ele>2096.2</ele>
        <time>2022-02-25T11:21:50Z</time>
      </trkpt>
      <trkpt lat="44.80148" lon="6.97354">
        <ele>2096.2</ele>
        <time>2022-02-25T11:21:51Z</time>
      </trkpt>
      <trkpt lat="44.80148" lon="6.97354">
        <ele>2096.2</ele>
        <time>2022-02-25T11:21:52Z</time>
      </trkpt>
      <trkpt lat="44.80148" lon="6.97354">
        <ele>2096.2</ele>
        <time>2022-02-25T11:21:53Z</time>
      </trkpt>
      <trkpt lat="44.80148" lon="6.97354">
        <ele>2096.2</ele>
        <time>2022-02-25T11:21:54Z</time>
      </trkpt>
      <trkpt lat="44.80148" lon="6.97354">
        <ele>2096.2</ele>
        <time>2022-02-25T11:21:55Z</time>
      </trkpt>
      <trkpt lat="44.80148" lon="6.97354">
        <ele>2096.2</ele>
        <time>2022-02-25T11:21:56Z</time>
      </trkpt>
      <trkpt lat="44.80148" lon="6.97354">
        <ele>2096.2</ele>
        <time>2022-02-25T11:21:57Z</time>
      </trkpt>
      <trkpt lat="44.80148" lon="6.97354">
        <ele>2096.2</ele>
        <time>2022-02-25T11:21:58Z</time>
      </trkpt>
      <trkpt lat="44.80148" lon="6.97354">
        <ele>2096.2</ele>
        <time>2022-02-25T11:21:59Z</time>
      </trkpt>
      <trkpt lat="44.80148" lon="6.97354">
        <ele>2096.2</ele>
        <time>2022-02-25T11:22:00Z</time>
      </trkpt>
      <trkpt lat="44.80148" lon="6.97354">
        <ele>2096.2</ele>
        <time>2022-02-25T11:22:01Z</time>
      </trkpt>
      <trkpt lat="44.80148" lon="6.97354">
        <ele>2096.2</ele>
        <time>2022-02-25T11:22:02Z</time>
      </trkpt>
      <trkpt lat="44.80148" lon="6.97354">
        <ele>2096.2</ele>
        <time>2022-02-25T11:22:03Z</time>
      </trkpt>
      <trkpt lat="44.80148" lon="6.97354">
        <ele>2096.2</ele>
        <time>2022-02-25T11:22:04Z</time>
      </trkpt>
      <trkpt lat="44.80148" lon="6.97354">
        <ele>2096.2</ele>
        <time>2022-02-25T11:22:05Z</time>
      </trkpt>
      <trkpt lat="44.80148" lon="6.97354">
        <ele>2096.2</ele>
        <time>2022-02-25T11:22:06Z</time>
      </trkpt>
      <trkpt lat="44.80148" lon="6.97354">
        <ele>2096.2</ele>
        <time>2022-02-25T11:22:07Z</time>
      </trkpt>
      <trkpt lat="44.80148" lon="6.97354">
        <ele>2096.2</ele>
        <time>2022-02-25T11:22:08Z</time>
      </trkpt>
      <trkpt lat="44.80148" lon="6.97354">
        <ele>2096.2</ele>
        <time>2022-02-25T11:22:09Z</time>
      </trkpt>
      <trkpt lat="44.80147" lon="6.97358">
        <ele>2095.9</ele>
        <time>2022-02-25T11:22:10Z</time>
      </trkpt>
      <trkpt lat="44.80147" lon="6.97358">
        <ele>2095.9</ele>
        <time>2022-02-25T11:22:11Z</time>
      </trkpt>
      <trkpt lat="44.80147" lon="6.97358">
        <ele>2095.9</ele>
        <time>2022-02-25T11:22:12Z</time>
      </trkpt>
      <trkpt lat="44.80147" lon="6.97358">
        <ele>2095.9</ele>
        <time>2022-02-25T11:22:13Z</time>
      </trkpt>
      <trkpt lat="44.80145" lon="6.9736">
        <ele>2096.2</ele>
        <time>2022-02-25T11:22:14Z</time>
      </trkpt>
      <trkpt lat="44.80145" lon="6.9736">
        <ele>2096.2</ele>
        <time>2022-02-25T11:22:15Z</time>
      </trkpt>
      <trkpt lat="44.80145" lon="6.9736">
        <ele>2096.2</ele>
        <time>2022-02-25T11:22:16Z</time>
      </trkpt>
      <trkpt lat="44.80145" lon="6.9736">
        <ele>2096.2</ele>
        <time>2022-02-25T11:22:17Z</time>
      </trkpt>
      <trkpt lat="44.80143" lon="6.97361">
        <ele>2096.7</ele>
        <time>2022-02-25T11:22:18Z</time>
      </trkpt>
      <trkpt lat="44.80143" lon="6.97361">
        <ele>2096.7</ele>
        <time>2022-02-25T11:22:19Z</time>
      </trkpt>
      <trkpt lat="44.80143" lon="6.97361">
        <ele>2096.7</ele>
        <time>2022-02-25T11:22:20Z</time>
      </trkpt>
      <trkpt lat="44.80143" lon="6.97361">
        <ele>2096.7</ele>
        <time>2022-02-25T11:22:21Z</time>
      </trkpt>
      <trkpt lat="44.80142" lon="6.97363">
        <ele>2096.8</ele>
        <time>2022-02-25T11:22:22Z</time>
      </trkpt>
      <trkpt lat="44.80142" lon="6.97363">
        <ele>2096.8</ele>
        <time>2022-02-25T11:22:23Z</time>
      </trkpt>
      <trkpt lat="44.80142" lon="6.97363">
        <ele>2096.8</ele>
        <time>2022-02-25T11:22:24Z</time>
      </trkpt>
      <trkpt lat="44.80142" lon="6.97363">
        <ele>2096.8</ele>
        <time>2022-02-25T11:22:25Z</time>
      </trkpt>
      <trkpt lat="44.8014" lon="6.97365">
        <ele>2097.2</ele>
        <time>2022-02-25T11:22:26Z</time>
      </trkpt>
      <trkpt lat="44.8014" lon="6.97365">
        <ele>2097.2</ele>
        <time>2022-02-25T11:22:27Z</time>
      </trkpt>
      <trkpt lat="44.80138" lon="6.97366">
        <ele>2097.7</ele>
        <time>2022-02-25T11:22:28Z</time>
      </trkpt>
      <trkpt lat="44.80136" lon="6.97368">
        <ele>2098.1</ele>
        <time>2022-02-25T11:22:29Z</time>
      </trkpt>
      <trkpt lat="44.80134" lon="6.9737">
        <ele>2098.5</ele>
        <time>2022-02-25T11:22:30Z</time>
      </trkpt>
      <trkpt lat="44.80134" lon="6.9737">
        <ele>2098.5</ele>
        <time>2022-02-25T11:22:31Z</time>
      </trkpt>
      <trkpt lat="44.80132" lon="6.97371">
        <ele>2099</ele>
        <time>2022-02-25T11:22:32Z</time>
      </trkpt>
      <trkpt lat="44.80132" lon="6.97371">
        <ele>2099</ele>
        <time>2022-02-25T11:22:33Z</time>
      </trkpt>
      <trkpt lat="44.80132" lon="6.97371">
        <ele>2099</ele>
        <time>2022-02-25T11:22:34Z</time>
      </trkpt>
      <trkpt lat="44.80132" lon="6.97371">
        <ele>2099</ele>
        <time>2022-02-25T11:22:35Z</time>
      </trkpt>
      <trkpt lat="44.80132" lon="6.97371">
        <ele>2099</ele>
        <time>2022-02-25T11:22:36Z</time>
      </trkpt>
      <trkpt lat="44.80132" lon="6.97371">
        <ele>2099</ele>
        <time>2022-02-25T11:22:37Z</time>
      </trkpt>
      <trkpt lat="44.80132" lon="6.97371">
        <ele>2099</ele>
        <time>2022-02-25T11:22:38Z</time>
      </trkpt>
      <trkpt lat="44.80132" lon="6.97371">
        <ele>2099</ele>
        <time>2022-02-25T11:22:39Z</time>
      </trkpt>
      <trkpt lat="44.80132" lon="6.97373">
        <ele>2098.8</ele>
        <time>2022-02-25T11:22:40Z</time>
      </trkpt>
      <trkpt lat="44.80132" lon="6.97373">
        <ele>2098.8</ele>
        <time>2022-02-25T11:22:41Z</time>
      </trkpt>
      <trkpt lat="44.80132" lon="6.97373">
        <ele>2098.8</ele>
        <time>2022-02-25T11:22:42Z</time>
      </trkpt>
      <trkpt lat="44.80132" lon="6.97373">
        <ele>2098.8</ele>
        <time>2022-02-25T11:22:43Z</time>
      </trkpt>
      <trkpt lat="44.80132" lon="6.97373">
        <ele>2098.8</ele>
        <time>2022-02-25T11:22:44Z</time>
      </trkpt>
      <trkpt lat="44.80132" lon="6.97373">
        <ele>2098.8</ele>
        <time>2022-02-25T11:22:45Z</time>
      </trkpt>
      <trkpt lat="44.80132" lon="6.97373">
        <ele>2098.8</ele>
        <time>2022-02-25T11:22:46Z</time>
      </trkpt>
      <trkpt lat="44.80132" lon="6.97377">
        <ele>2098.4</ele>
        <time>2022-02-25T11:22:47Z</time>
      </trkpt>
      <trkpt lat="44.80132" lon="6.97377">
        <ele>2098.4</ele>
        <time>2022-02-25T11:22:48Z</time>
      </trkpt>
      <trkpt lat="44.80132" lon="6.97377">
        <ele>2098.4</ele>
        <time>2022-02-25T11:22:49Z</time>
      </trkpt>
      <trkpt lat="44.80132" lon="6.97377">
        <ele>2098.4</ele>
        <time>2022-02-25T11:22:50Z</time>
      </trkpt>
      <trkpt lat="44.80133" lon="6.9738">
        <ele>2097.8</ele>
        <time>2022-02-25T11:22:51Z</time>
      </trkpt>
      <trkpt lat="44.80133" lon="6.9738">
        <ele>2097.8</ele>
        <time>2022-02-25T11:22:52Z</time>
      </trkpt>
      <trkpt lat="44.80135" lon="6.97379">
        <ele>2097.3</ele>
        <time>2022-02-25T11:22:53Z</time>
      </trkpt>
      <trkpt lat="44.80135" lon="6.97379">
        <ele>2097.3</ele>
        <time>2022-02-25T11:22:54Z</time>
      </trkpt>
      <trkpt lat="44.80135" lon="6.97379">
        <ele>2097.3</ele>
        <time>2022-02-25T11:22:55Z</time>
      </trkpt>
      <trkpt lat="44.80137" lon="6.9738">
        <ele>2096.6</ele>
        <time>2022-02-25T11:22:56Z</time>
      </trkpt>
      <trkpt lat="44.80137" lon="6.9738">
        <ele>2096.6</ele>
        <time>2022-02-25T11:22:57Z</time>
      </trkpt>
      <trkpt lat="44.80137" lon="6.9738">
        <ele>2096.6</ele>
        <time>2022-02-25T11:22:58Z</time>
      </trkpt>
      <trkpt lat="44.80136" lon="6.97383">
        <ele>2096.5</ele>
        <time>2022-02-25T11:22:59Z</time>
      </trkpt>
      <trkpt lat="44.80136" lon="6.97383">
        <ele>2096.5</ele>
        <time>2022-02-25T11:23:00Z</time>
      </trkpt>
      <trkpt lat="44.80136" lon="6.97383">
        <ele>2096.5</ele>
        <time>2022-02-25T11:23:01Z</time>
      </trkpt>
      <trkpt lat="44.80136" lon="6.97383">
        <ele>2096.5</ele>
        <time>2022-02-25T11:23:02Z</time>
      </trkpt>
      <trkpt lat="44.80136" lon="6.97383">
        <ele>2096.5</ele>
        <time>2022-02-25T11:23:03Z</time>
      </trkpt>
      <trkpt lat="44.80136" lon="6.97383">
        <ele>2096.5</ele>
        <time>2022-02-25T11:23:04Z</time>
      </trkpt>
      <trkpt lat="44.80134" lon="6.97385">
        <ele>2097</ele>
        <time>2022-02-25T11:23:05Z</time>
      </trkpt>
      <trkpt lat="44.80134" lon="6.97385">
        <ele>2097</ele>
        <time>2022-02-25T11:23:06Z</time>
      </trkpt>
      <trkpt lat="44.80132" lon="6.97386">
        <ele>2097.5</ele>
        <time>2022-02-25T11:23:07Z</time>
      </trkpt>
      <trkpt lat="44.80132" lon="6.97386">
        <ele>2097.5</ele>
        <time>2022-02-25T11:23:08Z</time>
      </trkpt>
      <trkpt lat="44.80132" lon="6.97386">
        <ele>2097.5</ele>
        <time>2022-02-25T11:23:09Z</time>
      </trkpt>
      <trkpt lat="44.80132" lon="6.97386">
        <ele>2097.5</ele>
        <time>2022-02-25T11:23:10Z</time>
      </trkpt>
      <trkpt lat="44.80132" lon="6.97386">
        <ele>2097.5</ele>
        <time>2022-02-25T11:23:11Z</time>
      </trkpt>
      <trkpt lat="44.8013" lon="6.97386">
        <ele>2098.2</ele>
        <time>2022-02-25T11:23:12Z</time>
      </trkpt>
      <trkpt lat="44.8013" lon="6.97386">
        <ele>2098.2</ele>
        <time>2022-02-25T11:23:13Z</time>
      </trkpt>
      <trkpt lat="44.8013" lon="6.97386">
        <ele>2098.2</ele>
        <time>2022-02-25T11:23:14Z</time>
      </trkpt>
      <trkpt lat="44.8013" lon="6.97386">
        <ele>2098.2</ele>
        <time>2022-02-25T11:23:15Z</time>
      </trkpt>
      <trkpt lat="44.8013" lon="6.97386">
        <ele>2098.2</ele>
        <time>2022-02-25T11:23:16Z</time>
      </trkpt>
      <trkpt lat="44.80129" lon="6.97389">
        <ele>2098.2</ele>
        <time>2022-02-25T11:23:17Z</time>
      </trkpt>
      <trkpt lat="44.80129" lon="6.97389">
        <ele>2098.2</ele>
        <time>2022-02-25T11:23:18Z</time>
      </trkpt>
      <trkpt lat="44.80129" lon="6.97389">
        <ele>2098.2</ele>
        <time>2022-02-25T11:23:19Z</time>
      </trkpt>
      <trkpt lat="44.80129" lon="6.97389">
        <ele>2098.2</ele>
        <time>2022-02-25T11:23:20Z</time>
      </trkpt>
      <trkpt lat="44.80129" lon="6.97389">
        <ele>2098.2</ele>
        <time>2022-02-25T11:23:21Z</time>
      </trkpt>
      <trkpt lat="44.80129" lon="6.97389">
        <ele>2098.2</ele>
        <time>2022-02-25T11:23:22Z</time>
      </trkpt>
      <trkpt lat="44.80128" lon="6.97391">
        <ele>2098.5</ele>
        <time>2022-02-25T11:23:23Z</time>
      </trkpt>
      <trkpt lat="44.80128" lon="6.97391">
        <ele>2098.5</ele>
        <time>2022-02-25T11:23:24Z</time>
      </trkpt>
      <trkpt lat="44.80128" lon="6.97391">
        <ele>2098.5</ele>
        <time>2022-02-25T11:23:25Z</time>
      </trkpt>
      <trkpt lat="44.80125" lon="6.97391">
        <ele>2099.5</ele>
        <time>2022-02-25T11:23:26Z</time>
      </trkpt>
      <trkpt lat="44.80125" lon="6.97391">
        <ele>2099.5</ele>
        <time>2022-02-25T11:23:27Z</time>
      </trkpt>
      <trkpt lat="44.80125" lon="6.97391">
        <ele>2099.5</ele>
        <time>2022-02-25T11:23:28Z</time>
      </trkpt>
      <trkpt lat="44.80125" lon="6.97391">
        <ele>2099.5</ele>
        <time>2022-02-25T11:23:29Z</time>
      </trkpt>
      <trkpt lat="44.80123" lon="6.97392">
        <ele>2100.1</ele>
        <time>2022-02-25T11:23:30Z</time>
      </trkpt>
      <trkpt lat="44.80123" lon="6.97392">
        <ele>2100.1</ele>
        <time>2022-02-25T11:23:31Z</time>
      </trkpt>
      <trkpt lat="44.80123" lon="6.97392">
        <ele>2100.1</ele>
        <time>2022-02-25T11:23:32Z</time>
      </trkpt>
      <trkpt lat="44.80121" lon="6.97393">
        <ele>2100.8</ele>
        <time>2022-02-25T11:23:33Z</time>
      </trkpt>
      <trkpt lat="44.80121" lon="6.97393">
        <ele>2100.8</ele>
        <time>2022-02-25T11:23:34Z</time>
      </trkpt>
      <trkpt lat="44.80119" lon="6.97394">
        <ele>2101.4</ele>
        <time>2022-02-25T11:23:35Z</time>
      </trkpt>
      <trkpt lat="44.80119" lon="6.97394">
        <ele>2101.4</ele>
        <time>2022-02-25T11:23:36Z</time>
      </trkpt>
      <trkpt lat="44.80119" lon="6.97394">
        <ele>2101.4</ele>
        <time>2022-02-25T11:23:37Z</time>
      </trkpt>
      <trkpt lat="44.80119" lon="6.97394">
        <ele>2101.4</ele>
        <time>2022-02-25T11:23:38Z</time>
      </trkpt>
      <trkpt lat="44.80119" lon="6.97394">
        <ele>2101.4</ele>
        <time>2022-02-25T11:23:39Z</time>
      </trkpt>
      <trkpt lat="44.80117" lon="6.97394">
        <ele>2102.1</ele>
        <time>2022-02-25T11:23:40Z</time>
      </trkpt>
      <trkpt lat="44.80117" lon="6.97394">
        <ele>2102.1</ele>
        <time>2022-02-25T11:23:41Z</time>
      </trkpt>
      <trkpt lat="44.80117" lon="6.97394">
        <ele>2102.1</ele>
        <time>2022-02-25T11:23:42Z</time>
      </trkpt>
      <trkpt lat="44.80116" lon="6.97396">
        <ele>2102.4</ele>
        <time>2022-02-25T11:23:43Z</time>
      </trkpt>
      <trkpt lat="44.80116" lon="6.97396">
        <ele>2102.4</ele>
        <time>2022-02-25T11:23:44Z</time>
      </trkpt>
      <trkpt lat="44.80114" lon="6.97398">
        <ele>2103.1</ele>
        <time>2022-02-25T11:23:45Z</time>
      </trkpt>
      <trkpt lat="44.80114" lon="6.97398">
        <ele>2103.1</ele>
        <time>2022-02-25T11:23:46Z</time>
      </trkpt>
      <trkpt lat="44.80112" lon="6.974">
        <ele>2103.7</ele>
        <time>2022-02-25T11:23:47Z</time>
      </trkpt>
      <trkpt lat="44.80112" lon="6.974">
        <ele>2103.7</ele>
        <time>2022-02-25T11:23:48Z</time>
      </trkpt>
      <trkpt lat="44.80112" lon="6.974">
        <ele>2103.7</ele>
        <time>2022-02-25T11:23:49Z</time>
      </trkpt>
      <trkpt lat="44.80112" lon="6.974">
        <ele>2103.7</ele>
        <time>2022-02-25T11:23:50Z</time>
      </trkpt>
      <trkpt lat="44.80112" lon="6.974">
        <ele>2103.7</ele>
        <time>2022-02-25T11:23:51Z</time>
      </trkpt>
      <trkpt lat="44.80112" lon="6.97403">
        <ele>2103.7</ele>
        <time>2022-02-25T11:23:52Z</time>
      </trkpt>
      <trkpt lat="44.80112" lon="6.97403">
        <ele>2103.7</ele>
        <time>2022-02-25T11:23:53Z</time>
      </trkpt>
      <trkpt lat="44.80112" lon="6.97403">
        <ele>2103.7</ele>
        <time>2022-02-25T11:23:54Z</time>
      </trkpt>
      <trkpt lat="44.80114" lon="6.97404">
        <ele>2103.1</ele>
        <time>2022-02-25T11:23:55Z</time>
      </trkpt>
      <trkpt lat="44.80114" lon="6.97404">
        <ele>2103.1</ele>
        <time>2022-02-25T11:23:56Z</time>
      </trkpt>
      <trkpt lat="44.80114" lon="6.97404">
        <ele>2103.1</ele>
        <time>2022-02-25T11:23:57Z</time>
      </trkpt>
      <trkpt lat="44.80114" lon="6.97404">
        <ele>2103.1</ele>
        <time>2022-02-25T11:23:58Z</time>
      </trkpt>
      <trkpt lat="44.80114" lon="6.97407">
        <ele>2103.1</ele>
        <time>2022-02-25T11:23:59Z</time>
      </trkpt>
      <trkpt lat="44.80114" lon="6.97407">
        <ele>2103.1</ele>
        <time>2022-02-25T11:24:00Z</time>
      </trkpt>
      <trkpt lat="44.80114" lon="6.97407">
        <ele>2103.1</ele>
        <time>2022-02-25T11:24:01Z</time>
      </trkpt>
      <trkpt lat="44.80114" lon="6.97407">
        <ele>2103.1</ele>
        <time>2022-02-25T11:24:02Z</time>
      </trkpt>
      <trkpt lat="44.80114" lon="6.9741">
        <ele>2103.1</ele>
        <time>2022-02-25T11:24:03Z</time>
      </trkpt>
      <trkpt lat="44.80114" lon="6.9741">
        <ele>2103.1</ele>
        <time>2022-02-25T11:24:04Z</time>
      </trkpt>
      <trkpt lat="44.80113" lon="6.97412">
        <ele>2103.4</ele>
        <time>2022-02-25T11:24:05Z</time>
      </trkpt>
      <trkpt lat="44.80113" lon="6.97412">
        <ele>2103.4</ele>
        <time>2022-02-25T11:24:06Z</time>
      </trkpt>
      <trkpt lat="44.80113" lon="6.97412">
        <ele>2103.4</ele>
        <time>2022-02-25T11:24:07Z</time>
      </trkpt>
      <trkpt lat="44.80113" lon="6.97412">
        <ele>2103.4</ele>
        <time>2022-02-25T11:24:08Z</time>
      </trkpt>
      <trkpt lat="44.80113" lon="6.97412">
        <ele>2103.4</ele>
        <time>2022-02-25T11:24:09Z</time>
      </trkpt>
      <trkpt lat="44.80112" lon="6.97415">
        <ele>2103.7</ele>
        <time>2022-02-25T11:24:10Z</time>
      </trkpt>
      <trkpt lat="44.80112" lon="6.97415">
        <ele>2103.7</ele>
        <time>2022-02-25T11:24:11Z</time>
      </trkpt>
      <trkpt lat="44.80112" lon="6.97415">
        <ele>2103.7</ele>
        <time>2022-02-25T11:24:12Z</time>
      </trkpt>
      <trkpt lat="44.80111" lon="6.97417">
        <ele>2104.1</ele>
        <time>2022-02-25T11:24:13Z</time>
      </trkpt>
      <trkpt lat="44.80111" lon="6.97417">
        <ele>2104.1</ele>
        <time>2022-02-25T11:24:14Z</time>
      </trkpt>
      <trkpt lat="44.80111" lon="6.97417">
        <ele>2104.1</ele>
        <time>2022-02-25T11:24:15Z</time>
      </trkpt>
      <trkpt lat="44.80111" lon="6.97417">
        <ele>2104.1</ele>
        <time>2022-02-25T11:24:16Z</time>
      </trkpt>
      <trkpt lat="44.80111" lon="6.97417">
        <ele>2104.1</ele>
        <time>2022-02-25T11:24:17Z</time>
      </trkpt>
      <trkpt lat="44.80111" lon="6.97417">
        <ele>2104.1</ele>
        <time>2022-02-25T11:24:18Z</time>
      </trkpt>
      <trkpt lat="44.80111" lon="6.97417">
        <ele>2104.1</ele>
        <time>2022-02-25T11:24:19Z</time>
      </trkpt>
      <trkpt lat="44.80111" lon="6.9742">
        <ele>2104.3</ele>
        <time>2022-02-25T11:24:20Z</time>
      </trkpt>
      <trkpt lat="44.80111" lon="6.9742">
        <ele>2104.3</ele>
        <time>2022-02-25T11:24:21Z</time>
      </trkpt>
      <trkpt lat="44.8011" lon="6.97422">
        <ele>2104.7</ele>
        <time>2022-02-25T11:24:22Z</time>
      </trkpt>
      <trkpt lat="44.8011" lon="6.97422">
        <ele>2104.7</ele>
        <time>2022-02-25T11:24:23Z</time>
      </trkpt>
      <trkpt lat="44.8011" lon="6.97422">
        <ele>2104.7</ele>
        <time>2022-02-25T11:24:24Z</time>
      </trkpt>
      <trkpt lat="44.8011" lon="6.97422">
        <ele>2104.7</ele>
        <time>2022-02-25T11:24:25Z</time>
      </trkpt>
      <trkpt lat="44.8011" lon="6.97422">
        <ele>2104.7</ele>
        <time>2022-02-25T11:24:26Z</time>
      </trkpt>
      <trkpt lat="44.80109" lon="6.97425">
        <ele>2105.2</ele>
        <time>2022-02-25T11:24:27Z</time>
      </trkpt>
      <trkpt lat="44.80109" lon="6.97425">
        <ele>2105.2</ele>
        <time>2022-02-25T11:24:28Z</time>
      </trkpt>
      <trkpt lat="44.80109" lon="6.97425">
        <ele>2105.2</ele>
        <time>2022-02-25T11:24:29Z</time>
      </trkpt>
      <trkpt lat="44.80109" lon="6.97428">
        <ele>2105.5</ele>
        <time>2022-02-25T11:24:30Z</time>
      </trkpt>
      <trkpt lat="44.80109" lon="6.97428">
        <ele>2105.5</ele>
        <time>2022-02-25T11:24:31Z</time>
      </trkpt>
      <trkpt lat="44.80109" lon="6.97428">
        <ele>2105.5</ele>
        <time>2022-02-25T11:24:32Z</time>
      </trkpt>
      <trkpt lat="44.80109" lon="6.97428">
        <ele>2105.5</ele>
        <time>2022-02-25T11:24:33Z</time>
      </trkpt>
      <trkpt lat="44.80108" lon="6.9743">
        <ele>2105.9</ele>
        <time>2022-02-25T11:24:34Z</time>
      </trkpt>
      <trkpt lat="44.80108" lon="6.9743">
        <ele>2105.9</ele>
        <time>2022-02-25T11:24:35Z</time>
      </trkpt>
      <trkpt lat="44.80108" lon="6.9743">
        <ele>2105.9</ele>
        <time>2022-02-25T11:24:36Z</time>
      </trkpt>
      <trkpt lat="44.80107" lon="6.97433">
        <ele>2106.4</ele>
        <time>2022-02-25T11:24:37Z</time>
      </trkpt>
      <trkpt lat="44.80107" lon="6.97433">
        <ele>2106.4</ele>
        <time>2022-02-25T11:24:38Z</time>
      </trkpt>
      <trkpt lat="44.80107" lon="6.97433">
        <ele>2106.4</ele>
        <time>2022-02-25T11:24:39Z</time>
      </trkpt>
      <trkpt lat="44.80106" lon="6.97437">
        <ele>2107.1</ele>
        <time>2022-02-25T11:24:40Z</time>
      </trkpt>
      <trkpt lat="44.80106" lon="6.97437">
        <ele>2107.1</ele>
        <time>2022-02-25T11:24:41Z</time>
      </trkpt>
      <trkpt lat="44.80106" lon="6.97437">
        <ele>2107.1</ele>
        <time>2022-02-25T11:24:42Z</time>
      </trkpt>
      <trkpt lat="44.80104" lon="6.97439">
        <ele>2107.9</ele>
        <time>2022-02-25T11:24:43Z</time>
      </trkpt>
      <trkpt lat="44.80104" lon="6.97439">
        <ele>2107.9</ele>
        <time>2022-02-25T11:24:44Z</time>
      </trkpt>
      <trkpt lat="44.80104" lon="6.97439">
        <ele>2107.9</ele>
        <time>2022-02-25T11:24:45Z</time>
      </trkpt>
      <trkpt lat="44.80104" lon="6.97439">
        <ele>2107.9</ele>
        <time>2022-02-25T11:24:46Z</time>
      </trkpt>
      <trkpt lat="44.80104" lon="6.97441">
        <ele>2108</ele>
        <time>2022-02-25T11:24:47Z</time>
      </trkpt>
      <trkpt lat="44.80104" lon="6.97441">
        <ele>2108</ele>
        <time>2022-02-25T11:24:48Z</time>
      </trkpt>
      <trkpt lat="44.80104" lon="6.97441">
        <ele>2108</ele>
        <time>2022-02-25T11:24:49Z</time>
      </trkpt>
      <trkpt lat="44.80104" lon="6.97441">
        <ele>2108</ele>
        <time>2022-02-25T11:24:50Z</time>
      </trkpt>
      <trkpt lat="44.80104" lon="6.97444">
        <ele>2108.3</ele>
        <time>2022-02-25T11:24:51Z</time>
      </trkpt>
      <trkpt lat="44.80104" lon="6.97444">
        <ele>2108.3</ele>
        <time>2022-02-25T11:24:52Z</time>
      </trkpt>
      <trkpt lat="44.80104" lon="6.97444">
        <ele>2108.3</ele>
        <time>2022-02-25T11:24:53Z</time>
      </trkpt>
      <trkpt lat="44.80104" lon="6.97444">
        <ele>2108.3</ele>
        <time>2022-02-25T11:24:54Z</time>
      </trkpt>
      <trkpt lat="44.80106" lon="6.97447">
        <ele>2107.8</ele>
        <time>2022-02-25T11:24:55Z</time>
      </trkpt>
      <trkpt lat="44.80106" lon="6.97447">
        <ele>2107.8</ele>
        <time>2022-02-25T11:24:56Z</time>
      </trkpt>
      <trkpt lat="44.80106" lon="6.97447">
        <ele>2107.8</ele>
        <time>2022-02-25T11:24:57Z</time>
      </trkpt>
      <trkpt lat="44.80106" lon="6.97447">
        <ele>2107.8</ele>
        <time>2022-02-25T11:24:58Z</time>
      </trkpt>
      <trkpt lat="44.80106" lon="6.97447">
        <ele>2107.8</ele>
        <time>2022-02-25T11:24:59Z</time>
      </trkpt>
      <trkpt lat="44.80106" lon="6.97449">
        <ele>2108</ele>
        <time>2022-02-25T11:25:00Z</time>
      </trkpt>
      <trkpt lat="44.80106" lon="6.97449">
        <ele>2108</ele>
        <time>2022-02-25T11:25:01Z</time>
      </trkpt>
      <trkpt lat="44.80106" lon="6.97449">
        <ele>2108</ele>
        <time>2022-02-25T11:25:02Z</time>
      </trkpt>
      <trkpt lat="44.80106" lon="6.97449">
        <ele>2108</ele>
        <time>2022-02-25T11:25:03Z</time>
      </trkpt>
      <trkpt lat="44.80106" lon="6.97452">
        <ele>2108.2</ele>
        <time>2022-02-25T11:25:04Z</time>
      </trkpt>
      <trkpt lat="44.80106" lon="6.97452">
        <ele>2108.2</ele>
        <time>2022-02-25T11:25:05Z</time>
      </trkpt>
      <trkpt lat="44.80106" lon="6.97452">
        <ele>2108.2</ele>
        <time>2022-02-25T11:25:06Z</time>
      </trkpt>
      <trkpt lat="44.80106" lon="6.97452">
        <ele>2108.2</ele>
        <time>2022-02-25T11:25:07Z</time>
      </trkpt>
      <trkpt lat="44.80106" lon="6.97452">
        <ele>2108.2</ele>
        <time>2022-02-25T11:25:08Z</time>
      </trkpt>
      <trkpt lat="44.80105" lon="6.97455">
        <ele>2108.7</ele>
        <time>2022-02-25T11:25:09Z</time>
      </trkpt>
      <trkpt lat="44.80105" lon="6.97455">
        <ele>2108.7</ele>
        <time>2022-02-25T11:25:10Z</time>
      </trkpt>
      <trkpt lat="44.80105" lon="6.97455">
        <ele>2108.7</ele>
        <time>2022-02-25T11:25:11Z</time>
      </trkpt>
      <trkpt lat="44.80103" lon="6.97455">
        <ele>2109.4</ele>
        <time>2022-02-25T11:25:12Z</time>
      </trkpt>
      <trkpt lat="44.80103" lon="6.97455">
        <ele>2109.4</ele>
        <time>2022-02-25T11:25:13Z</time>
      </trkpt>
      <trkpt lat="44.80103" lon="6.97455">
        <ele>2109.4</ele>
        <time>2022-02-25T11:25:14Z</time>
      </trkpt>
      <trkpt lat="44.80103" lon="6.97455">
        <ele>2109.4</ele>
        <time>2022-02-25T11:25:15Z</time>
      </trkpt>
      <trkpt lat="44.80103" lon="6.97455">
        <ele>2109.4</ele>
        <time>2022-02-25T11:25:16Z</time>
      </trkpt>
      <trkpt lat="44.80103" lon="6.97455">
        <ele>2109.4</ele>
        <time>2022-02-25T11:25:17Z</time>
      </trkpt>
      <trkpt lat="44.80101" lon="6.97455">
        <ele>2110</ele>
        <time>2022-02-25T11:25:18Z</time>
      </trkpt>
      <trkpt lat="44.80101" lon="6.97455">
        <ele>2110</ele>
        <time>2022-02-25T11:25:19Z</time>
      </trkpt>
      <trkpt lat="44.80099" lon="6.97455">
        <ele>2110.7</ele>
        <time>2022-02-25T11:25:20Z</time>
      </trkpt>
      <trkpt lat="44.80099" lon="6.97455">
        <ele>2110.7</ele>
        <time>2022-02-25T11:25:21Z</time>
      </trkpt>
      <trkpt lat="44.80099" lon="6.97455">
        <ele>2110.7</ele>
        <time>2022-02-25T11:25:22Z</time>
      </trkpt>
      <trkpt lat="44.80099" lon="6.97455">
        <ele>2110.7</ele>
        <time>2022-02-25T11:25:23Z</time>
      </trkpt>
      <trkpt lat="44.80096" lon="6.97454">
        <ele>2111.6</ele>
        <time>2022-02-25T11:25:24Z</time>
      </trkpt>
      <trkpt lat="44.80096" lon="6.97454">
        <ele>2111.6</ele>
        <time>2022-02-25T11:25:25Z</time>
      </trkpt>
      <trkpt lat="44.80096" lon="6.97454">
        <ele>2111.6</ele>
        <time>2022-02-25T11:25:26Z</time>
      </trkpt>
      <trkpt lat="44.80096" lon="6.97454">
        <ele>2111.6</ele>
        <time>2022-02-25T11:25:27Z</time>
      </trkpt>
      <trkpt lat="44.80096" lon="6.97454">
        <ele>2111.6</ele>
        <time>2022-02-25T11:25:28Z</time>
      </trkpt>
      <trkpt lat="44.80096" lon="6.97454">
        <ele>2111.6</ele>
        <time>2022-02-25T11:25:29Z</time>
      </trkpt>
      <trkpt lat="44.80096" lon="6.97454">
        <ele>2111.6</ele>
        <time>2022-02-25T11:25:30Z</time>
      </trkpt>
      <trkpt lat="44.80096" lon="6.97454">
        <ele>2111.6</ele>
        <time>2022-02-25T11:25:31Z</time>
      </trkpt>
      <trkpt lat="44.80096" lon="6.97454">
        <ele>2111.6</ele>
        <time>2022-02-25T11:25:32Z</time>
      </trkpt>
      <trkpt lat="44.80096" lon="6.97454">
        <ele>2111.6</ele>
        <time>2022-02-25T11:25:33Z</time>
      </trkpt>
      <trkpt lat="44.80096" lon="6.97454">
        <ele>2111.6</ele>
        <time>2022-02-25T11:25:34Z</time>
      </trkpt>
      <trkpt lat="44.80096" lon="6.97454">
        <ele>2111.6</ele>
        <time>2022-02-25T11:25:35Z</time>
      </trkpt>
      <trkpt lat="44.80094" lon="6.97457">
        <ele>2112.4</ele>
        <time>2022-02-25T11:25:36Z</time>
      </trkpt>
      <trkpt lat="44.80094" lon="6.97457">
        <ele>2112.4</ele>
        <time>2022-02-25T11:25:37Z</time>
      </trkpt>
      <trkpt lat="44.80094" lon="6.97457">
        <ele>2112.4</ele>
        <time>2022-02-25T11:25:38Z</time>
      </trkpt>
      <trkpt lat="44.80094" lon="6.9746">
        <ele>2112.7</ele>
        <time>2022-02-25T11:25:39Z</time>
      </trkpt>
      <trkpt lat="44.80094" lon="6.9746">
        <ele>2112.7</ele>
        <time>2022-02-25T11:25:40Z</time>
      </trkpt>
      <trkpt lat="44.80092" lon="6.97462">
        <ele>2113.5</ele>
        <time>2022-02-25T11:25:41Z</time>
      </trkpt>
      <trkpt lat="44.80092" lon="6.97462">
        <ele>2113.5</ele>
        <time>2022-02-25T11:25:42Z</time>
      </trkpt>
      <trkpt lat="44.80091" lon="6.97464">
        <ele>2113.9</ele>
        <time>2022-02-25T11:25:43Z</time>
      </trkpt>
      <trkpt lat="44.80091" lon="6.97464">
        <ele>2113.9</ele>
        <time>2022-02-25T11:25:44Z</time>
      </trkpt>
      <trkpt lat="44.80091" lon="6.97464">
        <ele>2113.9</ele>
        <time>2022-02-25T11:25:45Z</time>
      </trkpt>
      <trkpt lat="44.80091" lon="6.97464">
        <ele>2113.9</ele>
        <time>2022-02-25T11:25:46Z</time>
      </trkpt>
      <trkpt lat="44.8009" lon="6.97468">
        <ele>2114.5</ele>
        <time>2022-02-25T11:25:47Z</time>
      </trkpt>
      <trkpt lat="44.8009" lon="6.97468">
        <ele>2114.5</ele>
        <time>2022-02-25T11:25:48Z</time>
      </trkpt>
      <trkpt lat="44.8009" lon="6.97468">
        <ele>2114.5</ele>
        <time>2022-02-25T11:25:49Z</time>
      </trkpt>
      <trkpt lat="44.8009" lon="6.97468">
        <ele>2114.5</ele>
        <time>2022-02-25T11:25:50Z</time>
      </trkpt>
      <trkpt lat="44.8009" lon="6.97468">
        <ele>2114.5</ele>
        <time>2022-02-25T11:25:51Z</time>
      </trkpt>
      <trkpt lat="44.8009" lon="6.97468">
        <ele>2114.5</ele>
        <time>2022-02-25T11:25:52Z</time>
      </trkpt>
      <trkpt lat="44.80088" lon="6.9747">
        <ele>2115.3</ele>
        <time>2022-02-25T11:25:53Z</time>
      </trkpt>
      <trkpt lat="44.80088" lon="6.9747">
        <ele>2115.3</ele>
        <time>2022-02-25T11:25:54Z</time>
      </trkpt>
      <trkpt lat="44.80088" lon="6.9747">
        <ele>2115.3</ele>
        <time>2022-02-25T11:25:55Z</time>
      </trkpt>
      <trkpt lat="44.80088" lon="6.9747">
        <ele>2115.3</ele>
        <time>2022-02-25T11:25:56Z</time>
      </trkpt>
      <trkpt lat="44.80088" lon="6.9747">
        <ele>2115.3</ele>
        <time>2022-02-25T11:25:57Z</time>
      </trkpt>
      <trkpt lat="44.80088" lon="6.9747">
        <ele>2115.3</ele>
        <time>2022-02-25T11:25:58Z</time>
      </trkpt>
      <trkpt lat="44.80088" lon="6.9747">
        <ele>2115.3</ele>
        <time>2022-02-25T11:25:59Z</time>
      </trkpt>
      <trkpt lat="44.80088" lon="6.97473">
        <ele>2115.5</ele>
        <time>2022-02-25T11:26:00Z</time>
      </trkpt>
      <trkpt lat="44.80088" lon="6.97473">
        <ele>2115.5</ele>
        <time>2022-02-25T11:26:01Z</time>
      </trkpt>
      <trkpt lat="44.80088" lon="6.97473">
        <ele>2115.5</ele>
        <time>2022-02-25T11:26:02Z</time>
      </trkpt>
      <trkpt lat="44.80088" lon="6.97473">
        <ele>2115.5</ele>
        <time>2022-02-25T11:26:03Z</time>
      </trkpt>
      <trkpt lat="44.80088" lon="6.97473">
        <ele>2115.5</ele>
        <time>2022-02-25T11:26:04Z</time>
      </trkpt>
      <trkpt lat="44.80088" lon="6.97473">
        <ele>2115.5</ele>
        <time>2022-02-25T11:26:05Z</time>
      </trkpt>
      <trkpt lat="44.80088" lon="6.97473">
        <ele>2115.5</ele>
        <time>2022-02-25T11:26:06Z</time>
      </trkpt>
      <trkpt lat="44.80088" lon="6.97473">
        <ele>2115.5</ele>
        <time>2022-02-25T11:26:07Z</time>
      </trkpt>
      <trkpt lat="44.80088" lon="6.97473">
        <ele>2115.5</ele>
        <time>2022-02-25T11:26:08Z</time>
      </trkpt>
      <trkpt lat="44.80088" lon="6.97473">
        <ele>2115.5</ele>
        <time>2022-02-25T11:26:09Z</time>
      </trkpt>
      <trkpt lat="44.80088" lon="6.97473">
        <ele>2115.5</ele>
        <time>2022-02-25T11:26:10Z</time>
      </trkpt>
      <trkpt lat="44.80088" lon="6.97473">
        <ele>2115.5</ele>
        <time>2022-02-25T11:26:11Z</time>
      </trkpt>
      <trkpt lat="44.80088" lon="6.97473">
        <ele>2115.5</ele>
        <time>2022-02-25T11:26:12Z</time>
      </trkpt>
      <trkpt lat="44.80088" lon="6.97473">
        <ele>2115.5</ele>
        <time>2022-02-25T11:26:13Z</time>
      </trkpt>
      <trkpt lat="44.80088" lon="6.97473">
        <ele>2115.5</ele>
        <time>2022-02-25T11:26:14Z</time>
      </trkpt>
      <trkpt lat="44.80088" lon="6.97473">
        <ele>2115.5</ele>
        <time>2022-02-25T11:26:15Z</time>
      </trkpt>
      <trkpt lat="44.80088" lon="6.97473">
        <ele>2115.5</ele>
        <time>2022-02-25T11:26:16Z</time>
      </trkpt>
      <trkpt lat="44.80088" lon="6.97473">
        <ele>2115.5</ele>
        <time>2022-02-25T11:26:17Z</time>
      </trkpt>
      <trkpt lat="44.80088" lon="6.97473">
        <ele>2115.5</ele>
        <time>2022-02-25T11:26:18Z</time>
      </trkpt>
      <trkpt lat="44.80088" lon="6.97473">
        <ele>2115.5</ele>
        <time>2022-02-25T11:26:19Z</time>
      </trkpt>
      <trkpt lat="44.80088" lon="6.97473">
        <ele>2115.5</ele>
        <time>2022-02-25T11:26:20Z</time>
      </trkpt>
      <trkpt lat="44.80088" lon="6.97473">
        <ele>2115.5</ele>
        <time>2022-02-25T11:26:21Z</time>
      </trkpt>
      <trkpt lat="44.80088" lon="6.97473">
        <ele>2115.5</ele>
        <time>2022-02-25T11:26:22Z</time>
      </trkpt>
      <trkpt lat="44.80088" lon="6.97473">
        <ele>2115.5</ele>
        <time>2022-02-25T11:26:23Z</time>
      </trkpt>
      <trkpt lat="44.80088" lon="6.97473">
        <ele>2115.5</ele>
        <time>2022-02-25T11:26:24Z</time>
      </trkpt>
      <trkpt lat="44.80088" lon="6.97473">
        <ele>2115.5</ele>
        <time>2022-02-25T11:26:25Z</time>
      </trkpt>
      <trkpt lat="44.80088" lon="6.97473">
        <ele>2115.5</ele>
        <time>2022-02-25T11:26:26Z</time>
      </trkpt>
      <trkpt lat="44.80088" lon="6.97473">
        <ele>2115.5</ele>
        <time>2022-02-25T11:26:27Z</time>
      </trkpt>
      <trkpt lat="44.80088" lon="6.97473">
        <ele>2115.5</ele>
        <time>2022-02-25T11:26:28Z</time>
      </trkpt>
      <trkpt lat="44.80088" lon="6.97473">
        <ele>2115.5</ele>
        <time>2022-02-25T11:26:29Z</time>
      </trkpt>
      <trkpt lat="44.80088" lon="6.97473">
        <ele>2115.5</ele>
        <time>2022-02-25T11:26:30Z</time>
      </trkpt>
      <trkpt lat="44.80088" lon="6.97473">
        <ele>2115.5</ele>
        <time>2022-02-25T11:26:31Z</time>
      </trkpt>
      <trkpt lat="44.80088" lon="6.97473">
        <ele>2115.5</ele>
        <time>2022-02-25T11:26:32Z</time>
      </trkpt>
      <trkpt lat="44.80088" lon="6.97473">
        <ele>2115.5</ele>
        <time>2022-02-25T11:26:33Z</time>
      </trkpt>
      <trkpt lat="44.80088" lon="6.97473">
        <ele>2115.5</ele>
        <time>2022-02-25T11:26:34Z</time>
      </trkpt>
      <trkpt lat="44.80088" lon="6.97473">
        <ele>2115.5</ele>
        <time>2022-02-25T11:26:35Z</time>
      </trkpt>
      <trkpt lat="44.80088" lon="6.97473">
        <ele>2115.5</ele>
        <time>2022-02-25T11:26:36Z</time>
      </trkpt>
      <trkpt lat="44.80088" lon="6.97473">
        <ele>2115.5</ele>
        <time>2022-02-25T11:26:37Z</time>
      </trkpt>
      <trkpt lat="44.80088" lon="6.97473">
        <ele>2115.5</ele>
        <time>2022-02-25T11:26:38Z</time>
      </trkpt>
      <trkpt lat="44.80088" lon="6.97473">
        <ele>2115.5</ele>
        <time>2022-02-25T11:26:39Z</time>
      </trkpt>
      <trkpt lat="44.80088" lon="6.97473">
        <ele>2115.5</ele>
        <time>2022-02-25T11:26:40Z</time>
      </trkpt>
      <trkpt lat="44.80088" lon="6.97473">
        <ele>2115.5</ele>
        <time>2022-02-25T11:26:41Z</time>
      </trkpt>
      <trkpt lat="44.80088" lon="6.97473">
        <ele>2115.5</ele>
        <time>2022-02-25T11:26:42Z</time>
      </trkpt>
      <trkpt lat="44.80088" lon="6.97473">
        <ele>2115.5</ele>
        <time>2022-02-25T11:26:43Z</time>
      </trkpt>
      <trkpt lat="44.80088" lon="6.97473">
        <ele>2115.5</ele>
        <time>2022-02-25T11:26:44Z</time>
      </trkpt>
      <trkpt lat="44.80088" lon="6.97473">
        <ele>2115.5</ele>
        <time>2022-02-25T11:26:45Z</time>
      </trkpt>
      <trkpt lat="44.80088" lon="6.97473">
        <ele>2115.5</ele>
        <time>2022-02-25T11:26:46Z</time>
      </trkpt>
      <trkpt lat="44.80088" lon="6.97473">
        <ele>2115.5</ele>
        <time>2022-02-25T11:26:47Z</time>
      </trkpt>
      <trkpt lat="44.80088" lon="6.97473">
        <ele>2115.5</ele>
        <time>2022-02-25T11:26:48Z</time>
      </trkpt>
      <trkpt lat="44.80088" lon="6.97473">
        <ele>2115.5</ele>
        <time>2022-02-25T11:26:49Z</time>
      </trkpt>
      <trkpt lat="44.80088" lon="6.97473">
        <ele>2115.5</ele>
        <time>2022-02-25T11:26:50Z</time>
      </trkpt>
      <trkpt lat="44.80088" lon="6.97473">
        <ele>2115.5</ele>
        <time>2022-02-25T11:26:51Z</time>
      </trkpt>
      <trkpt lat="44.80088" lon="6.97473">
        <ele>2115.5</ele>
        <time>2022-02-25T11:26:52Z</time>
      </trkpt>
      <trkpt lat="44.80088" lon="6.97473">
        <ele>2115.5</ele>
        <time>2022-02-25T11:26:53Z</time>
      </trkpt>
      <trkpt lat="44.80088" lon="6.97473">
        <ele>2115.5</ele>
        <time>2022-02-25T11:26:54Z</time>
      </trkpt>
      <trkpt lat="44.80088" lon="6.97473">
        <ele>2115.5</ele>
        <time>2022-02-25T11:26:55Z</time>
      </trkpt>
      <trkpt lat="44.80088" lon="6.97473">
        <ele>2115.5</ele>
        <time>2022-02-25T11:26:56Z</time>
      </trkpt>
      <trkpt lat="44.80088" lon="6.97473">
        <ele>2115.5</ele>
        <time>2022-02-25T11:26:57Z</time>
      </trkpt>
      <trkpt lat="44.80088" lon="6.97476">
        <ele>2115.7</ele>
        <time>2022-02-25T11:26:58Z</time>
      </trkpt>
      <trkpt lat="44.80088" lon="6.97476">
        <ele>2115.7</ele>
        <time>2022-02-25T11:26:59Z</time>
      </trkpt>
      <trkpt lat="44.80088" lon="6.9748">
        <ele>2116</ele>
        <time>2022-02-25T11:27:00Z</time>
      </trkpt>
      <trkpt lat="44.80088" lon="6.9748">
        <ele>2116</ele>
        <time>2022-02-25T11:27:01Z</time>
      </trkpt>
      <trkpt lat="44.80087" lon="6.97483">
        <ele>2116.5</ele>
        <time>2022-02-25T11:27:02Z</time>
      </trkpt>
      <trkpt lat="44.80087" lon="6.97483">
        <ele>2116.5</ele>
        <time>2022-02-25T11:27:03Z</time>
      </trkpt>
      <trkpt lat="44.80086" lon="6.97487">
        <ele>2117.1</ele>
        <time>2022-02-25T11:27:04Z</time>
      </trkpt>
      <trkpt lat="44.80086" lon="6.97487">
        <ele>2117.1</ele>
        <time>2022-02-25T11:27:05Z</time>
      </trkpt>
      <trkpt lat="44.80086" lon="6.97489">
        <ele>2117.3</ele>
        <time>2022-02-25T11:27:06Z</time>
      </trkpt>
      <trkpt lat="44.80086" lon="6.97489">
        <ele>2117.3</ele>
        <time>2022-02-25T11:27:07Z</time>
      </trkpt>
      <trkpt lat="44.80086" lon="6.97489">
        <ele>2117.3</ele>
        <time>2022-02-25T11:27:08Z</time>
      </trkpt>
      <trkpt lat="44.80086" lon="6.97489">
        <ele>2117.3</ele>
        <time>2022-02-25T11:27:09Z</time>
      </trkpt>
      <trkpt lat="44.80087" lon="6.97492">
        <ele>2117.1</ele>
        <time>2022-02-25T11:27:10Z</time>
      </trkpt>
      <trkpt lat="44.80087" lon="6.97492">
        <ele>2117.1</ele>
        <time>2022-02-25T11:27:11Z</time>
      </trkpt>
      <trkpt lat="44.80087" lon="6.97492">
        <ele>2117.1</ele>
        <time>2022-02-25T11:27:12Z</time>
      </trkpt>
      <trkpt lat="44.80087" lon="6.97495">
        <ele>2117.3</ele>
        <time>2022-02-25T11:27:13Z</time>
      </trkpt>
      <trkpt lat="44.80087" lon="6.97495">
        <ele>2117.3</ele>
        <time>2022-02-25T11:27:14Z</time>
      </trkpt>
      <trkpt lat="44.80086" lon="6.97498">
        <ele>2117.9</ele>
        <time>2022-02-25T11:27:15Z</time>
      </trkpt>
      <trkpt lat="44.80086" lon="6.97498">
        <ele>2117.9</ele>
        <time>2022-02-25T11:27:16Z</time>
      </trkpt>
      <trkpt lat="44.80085" lon="6.975">
        <ele>2118.4</ele>
        <time>2022-02-25T11:27:17Z</time>
      </trkpt>
      <trkpt lat="44.80085" lon="6.975">
        <ele>2118.4</ele>
        <time>2022-02-25T11:27:18Z</time>
      </trkpt>
      <trkpt lat="44.80084" lon="6.97503">
        <ele>2118.9</ele>
        <time>2022-02-25T11:27:19Z</time>
      </trkpt>
      <trkpt lat="44.80084" lon="6.97503">
        <ele>2118.9</ele>
        <time>2022-02-25T11:27:20Z</time>
      </trkpt>
      <trkpt lat="44.80083" lon="6.97505">
        <ele>2119.3</ele>
        <time>2022-02-25T11:27:21Z</time>
      </trkpt>
      <trkpt lat="44.80083" lon="6.97505">
        <ele>2119.3</ele>
        <time>2022-02-25T11:27:22Z</time>
      </trkpt>
      <trkpt lat="44.80082" lon="6.97508">
        <ele>2119.7</ele>
        <time>2022-02-25T11:27:23Z</time>
      </trkpt>
      <trkpt lat="44.80082" lon="6.97508">
        <ele>2119.7</ele>
        <time>2022-02-25T11:27:24Z</time>
      </trkpt>
      <trkpt lat="44.80081" lon="6.97511">
        <ele>2120.1</ele>
        <time>2022-02-25T11:27:25Z</time>
      </trkpt>
      <trkpt lat="44.80081" lon="6.97511">
        <ele>2120.1</ele>
        <time>2022-02-25T11:27:26Z</time>
      </trkpt>
      <trkpt lat="44.80081" lon="6.97511">
        <ele>2120.1</ele>
        <time>2022-02-25T11:27:27Z</time>
      </trkpt>
      <trkpt lat="44.8008" lon="6.97513">
        <ele>2120.5</ele>
        <time>2022-02-25T11:27:28Z</time>
      </trkpt>
      <trkpt lat="44.8008" lon="6.97513">
        <ele>2120.5</ele>
        <time>2022-02-25T11:27:29Z</time>
      </trkpt>
      <trkpt lat="44.8008" lon="6.97513">
        <ele>2120.5</ele>
        <time>2022-02-25T11:27:30Z</time>
      </trkpt>
      <trkpt lat="44.8008" lon="6.97517">
        <ele>2120.6</ele>
        <time>2022-02-25T11:27:31Z</time>
      </trkpt>
      <trkpt lat="44.8008" lon="6.97517">
        <ele>2120.6</ele>
        <time>2022-02-25T11:27:32Z</time>
      </trkpt>
      <trkpt lat="44.8008" lon="6.97517">
        <ele>2120.6</ele>
        <time>2022-02-25T11:27:33Z</time>
      </trkpt>
      <trkpt lat="44.80078" lon="6.9752">
        <ele>2121.4</ele>
        <time>2022-02-25T11:27:34Z</time>
      </trkpt>
      <trkpt lat="44.80078" lon="6.9752">
        <ele>2121.4</ele>
        <time>2022-02-25T11:27:35Z</time>
      </trkpt>
      <trkpt lat="44.80077" lon="6.97522">
        <ele>2121.8</ele>
        <time>2022-02-25T11:27:36Z</time>
      </trkpt>
      <trkpt lat="44.80077" lon="6.97522">
        <ele>2121.8</ele>
        <time>2022-02-25T11:27:37Z</time>
      </trkpt>
      <trkpt lat="44.80077" lon="6.97522">
        <ele>2121.8</ele>
        <time>2022-02-25T11:27:38Z</time>
      </trkpt>
      <trkpt lat="44.80077" lon="6.97522">
        <ele>2121.8</ele>
        <time>2022-02-25T11:27:39Z</time>
      </trkpt>
      <trkpt lat="44.80077" lon="6.97522">
        <ele>2121.8</ele>
        <time>2022-02-25T11:27:40Z</time>
      </trkpt>
      <trkpt lat="44.80078" lon="6.97525">
        <ele>2121.6</ele>
        <time>2022-02-25T11:27:41Z</time>
      </trkpt>
      <trkpt lat="44.80078" lon="6.97525">
        <ele>2121.6</ele>
        <time>2022-02-25T11:27:42Z</time>
      </trkpt>
      <trkpt lat="44.80078" lon="6.97525">
        <ele>2121.6</ele>
        <time>2022-02-25T11:27:43Z</time>
      </trkpt>
      <trkpt lat="44.80079" lon="6.97527">
        <ele>2121.4</ele>
        <time>2022-02-25T11:27:44Z</time>
      </trkpt>
      <trkpt lat="44.80079" lon="6.97527">
        <ele>2121.4</ele>
        <time>2022-02-25T11:27:45Z</time>
      </trkpt>
      <trkpt lat="44.80079" lon="6.97527">
        <ele>2121.4</ele>
        <time>2022-02-25T11:27:46Z</time>
      </trkpt>
      <trkpt lat="44.80078" lon="6.9753">
        <ele>2121.7</ele>
        <time>2022-02-25T11:27:47Z</time>
      </trkpt>
      <trkpt lat="44.80078" lon="6.9753">
        <ele>2121.7</ele>
        <time>2022-02-25T11:27:48Z</time>
      </trkpt>
      <trkpt lat="44.80076" lon="6.97533">
        <ele>2122.4</ele>
        <time>2022-02-25T11:27:49Z</time>
      </trkpt>
      <trkpt lat="44.80076" lon="6.97533">
        <ele>2122.4</ele>
        <time>2022-02-25T11:27:50Z</time>
      </trkpt>
      <trkpt lat="44.80076" lon="6.97533">
        <ele>2122.4</ele>
        <time>2022-02-25T11:27:51Z</time>
      </trkpt>
      <trkpt lat="44.80076" lon="6.97536">
        <ele>2122.5</ele>
        <time>2022-02-25T11:27:52Z</time>
      </trkpt>
      <trkpt lat="44.80076" lon="6.97536">
        <ele>2122.5</ele>
        <time>2022-02-25T11:27:53Z</time>
      </trkpt>
      <trkpt lat="44.80076" lon="6.97536">
        <ele>2122.5</ele>
        <time>2022-02-25T11:27:54Z</time>
      </trkpt>
      <trkpt lat="44.80076" lon="6.97536">
        <ele>2122.5</ele>
        <time>2022-02-25T11:27:55Z</time>
      </trkpt>
      <trkpt lat="44.80076" lon="6.97536">
        <ele>2122.5</ele>
        <time>2022-02-25T11:27:56Z</time>
      </trkpt>
      <trkpt lat="44.80076" lon="6.97539">
        <ele>2122.5</ele>
        <time>2022-02-25T11:27:57Z</time>
      </trkpt>
      <trkpt lat="44.80076" lon="6.97539">
        <ele>2122.5</ele>
        <time>2022-02-25T11:27:58Z</time>
      </trkpt>
      <trkpt lat="44.80076" lon="6.97539">
        <ele>2122.5</ele>
        <time>2022-02-25T11:27:59Z</time>
      </trkpt>
      <trkpt lat="44.80076" lon="6.97539">
        <ele>2122.5</ele>
        <time>2022-02-25T11:28:00Z</time>
      </trkpt>
      <trkpt lat="44.80077" lon="6.97542">
        <ele>2122.2</ele>
        <time>2022-02-25T11:28:01Z</time>
      </trkpt>
      <trkpt lat="44.80077" lon="6.97542">
        <ele>2122.2</ele>
        <time>2022-02-25T11:28:02Z</time>
      </trkpt>
      <trkpt lat="44.80077" lon="6.97542">
        <ele>2122.2</ele>
        <time>2022-02-25T11:28:03Z</time>
      </trkpt>
      <trkpt lat="44.80078" lon="6.97544">
        <ele>2121.8</ele>
        <time>2022-02-25T11:28:04Z</time>
      </trkpt>
      <trkpt lat="44.80078" lon="6.97544">
        <ele>2121.8</ele>
        <time>2022-02-25T11:28:05Z</time>
      </trkpt>
      <trkpt lat="44.80078" lon="6.97544">
        <ele>2121.8</ele>
        <time>2022-02-25T11:28:06Z</time>
      </trkpt>
      <trkpt lat="44.80078" lon="6.97544">
        <ele>2121.8</ele>
        <time>2022-02-25T11:28:07Z</time>
      </trkpt>
      <trkpt lat="44.80078" lon="6.97544">
        <ele>2121.8</ele>
        <time>2022-02-25T11:28:08Z</time>
      </trkpt>
      <trkpt lat="44.80078" lon="6.97544">
        <ele>2121.8</ele>
        <time>2022-02-25T11:28:09Z</time>
      </trkpt>
      <trkpt lat="44.80079" lon="6.97542">
        <ele>2121.5</ele>
        <time>2022-02-25T11:28:10Z</time>
      </trkpt>
      <trkpt lat="44.80079" lon="6.97542">
        <ele>2121.5</ele>
        <time>2022-02-25T11:28:11Z</time>
      </trkpt>
      <trkpt lat="44.80079" lon="6.97542">
        <ele>2121.5</ele>
        <time>2022-02-25T11:28:12Z</time>
      </trkpt>
      <trkpt lat="44.80079" lon="6.97542">
        <ele>2121.5</ele>
        <time>2022-02-25T11:28:13Z</time>
      </trkpt>
      <trkpt lat="44.80079" lon="6.97542">
        <ele>2121.5</ele>
        <time>2022-02-25T11:28:14Z</time>
      </trkpt>
      <trkpt lat="44.80079" lon="6.97542">
        <ele>2121.5</ele>
        <time>2022-02-25T11:28:15Z</time>
      </trkpt>
      <trkpt lat="44.80079" lon="6.97542">
        <ele>2121.5</ele>
        <time>2022-02-25T11:28:16Z</time>
      </trkpt>
      <trkpt lat="44.80079" lon="6.97542">
        <ele>2121.5</ele>
        <time>2022-02-25T11:28:17Z</time>
      </trkpt>
      <trkpt lat="44.8008" lon="6.97546">
        <ele>2121.2</ele>
        <time>2022-02-25T11:28:18Z</time>
      </trkpt>
      <trkpt lat="44.8008" lon="6.97546">
        <ele>2121.2</ele>
        <time>2022-02-25T11:28:19Z</time>
      </trkpt>
      <trkpt lat="44.8008" lon="6.97546">
        <ele>2121.2</ele>
        <time>2022-02-25T11:28:20Z</time>
      </trkpt>
      <trkpt lat="44.80081" lon="6.97549">
        <ele>2120.8</ele>
        <time>2022-02-25T11:28:21Z</time>
      </trkpt>
      <trkpt lat="44.80081" lon="6.97549">
        <ele>2120.8</ele>
        <time>2022-02-25T11:28:22Z</time>
      </trkpt>
      <trkpt lat="44.80081" lon="6.97549">
        <ele>2120.8</ele>
        <time>2022-02-25T11:28:23Z</time>
      </trkpt>
      <trkpt lat="44.8008" lon="6.97552">
        <ele>2121.2</ele>
        <time>2022-02-25T11:28:24Z</time>
      </trkpt>
      <trkpt lat="44.8008" lon="6.97552">
        <ele>2121.2</ele>
        <time>2022-02-25T11:28:25Z</time>
      </trkpt>
      <trkpt lat="44.8008" lon="6.97555">
        <ele>2121.2</ele>
        <time>2022-02-25T11:28:26Z</time>
      </trkpt>
      <trkpt lat="44.8008" lon="6.97555">
        <ele>2121.2</ele>
        <time>2022-02-25T11:28:27Z</time>
      </trkpt>
      <trkpt lat="44.80079" lon="6.97558">
        <ele>2121.5</ele>
        <time>2022-02-25T11:28:28Z</time>
      </trkpt>
      <trkpt lat="44.80079" lon="6.97558">
        <ele>2121.5</ele>
        <time>2022-02-25T11:28:29Z</time>
      </trkpt>
      <trkpt lat="44.80078" lon="6.97561">
        <ele>2121.8</ele>
        <time>2022-02-25T11:28:30Z</time>
      </trkpt>
      <trkpt lat="44.80078" lon="6.97561">
        <ele>2121.8</ele>
        <time>2022-02-25T11:28:31Z</time>
      </trkpt>
      <trkpt lat="44.80078" lon="6.97561">
        <ele>2121.8</ele>
        <time>2022-02-25T11:28:32Z</time>
      </trkpt>
      <trkpt lat="44.80079" lon="6.97563">
        <ele>2121.4</ele>
        <time>2022-02-25T11:28:33Z</time>
      </trkpt>
      <trkpt lat="44.80079" lon="6.97563">
        <ele>2121.4</ele>
        <time>2022-02-25T11:28:34Z</time>
      </trkpt>
      <trkpt lat="44.80078" lon="6.97565">
        <ele>2121.8</ele>
        <time>2022-02-25T11:28:35Z</time>
      </trkpt>
      <trkpt lat="44.80078" lon="6.97565">
        <ele>2121.8</ele>
        <time>2022-02-25T11:28:36Z</time>
      </trkpt>
      <trkpt lat="44.80078" lon="6.97565">
        <ele>2121.8</ele>
        <time>2022-02-25T11:28:37Z</time>
      </trkpt>
      <trkpt lat="44.80078" lon="6.97565">
        <ele>2121.8</ele>
        <time>2022-02-25T11:28:38Z</time>
      </trkpt>
      <trkpt lat="44.80078" lon="6.97568">
        <ele>2121.7</ele>
        <time>2022-02-25T11:28:39Z</time>
      </trkpt>
      <trkpt lat="44.80078" lon="6.97568">
        <ele>2121.7</ele>
        <time>2022-02-25T11:28:40Z</time>
      </trkpt>
      <trkpt lat="44.80078" lon="6.97568">
        <ele>2121.7</ele>
        <time>2022-02-25T11:28:41Z</time>
      </trkpt>
      <trkpt lat="44.80078" lon="6.97568">
        <ele>2121.7</ele>
        <time>2022-02-25T11:28:42Z</time>
      </trkpt>
      <trkpt lat="44.80079" lon="6.9757">
        <ele>2121.3</ele>
        <time>2022-02-25T11:28:43Z</time>
      </trkpt>
      <trkpt lat="44.80079" lon="6.9757">
        <ele>2121.3</ele>
        <time>2022-02-25T11:28:44Z</time>
      </trkpt>
      <trkpt lat="44.80079" lon="6.9757">
        <ele>2121.3</ele>
        <time>2022-02-25T11:28:45Z</time>
      </trkpt>
      <trkpt lat="44.80079" lon="6.9757">
        <ele>2121.3</ele>
        <time>2022-02-25T11:28:46Z</time>
      </trkpt>
      <trkpt lat="44.80079" lon="6.9757">
        <ele>2121.3</ele>
        <time>2022-02-25T11:28:47Z</time>
      </trkpt>
      <trkpt lat="44.80079" lon="6.97574">
        <ele>2121.2</ele>
        <time>2022-02-25T11:28:48Z</time>
      </trkpt>
      <trkpt lat="44.80079" lon="6.97574">
        <ele>2121.2</ele>
        <time>2022-02-25T11:28:49Z</time>
      </trkpt>
      <trkpt lat="44.80079" lon="6.97574">
        <ele>2121.2</ele>
        <time>2022-02-25T11:28:50Z</time>
      </trkpt>
      <trkpt lat="44.80079" lon="6.97574">
        <ele>2121.2</ele>
        <time>2022-02-25T11:28:51Z</time>
      </trkpt>
      <trkpt lat="44.80079" lon="6.97574">
        <ele>2121.2</ele>
        <time>2022-02-25T11:28:52Z</time>
      </trkpt>
      <trkpt lat="44.80079" lon="6.97574">
        <ele>2121.2</ele>
        <time>2022-02-25T11:28:53Z</time>
      </trkpt>
      <trkpt lat="44.80079" lon="6.97574">
        <ele>2121.2</ele>
        <time>2022-02-25T11:28:54Z</time>
      </trkpt>
      <trkpt lat="44.8008" lon="6.97576">
        <ele>2120.7</ele>
        <time>2022-02-25T11:28:55Z</time>
      </trkpt>
      <trkpt lat="44.8008" lon="6.97576">
        <ele>2120.7</ele>
        <time>2022-02-25T11:28:56Z</time>
      </trkpt>
      <trkpt lat="44.8008" lon="6.97576">
        <ele>2120.7</ele>
        <time>2022-02-25T11:28:57Z</time>
      </trkpt>
      <trkpt lat="44.80081" lon="6.97579">
        <ele>2120.2</ele>
        <time>2022-02-25T11:28:58Z</time>
      </trkpt>
      <trkpt lat="44.80081" lon="6.97579">
        <ele>2120.2</ele>
        <time>2022-02-25T11:28:59Z</time>
      </trkpt>
      <trkpt lat="44.80081" lon="6.97579">
        <ele>2120.2</ele>
        <time>2022-02-25T11:29:00Z</time>
      </trkpt>
      <trkpt lat="44.8008" lon="6.97581">
        <ele>2120.6</ele>
        <time>2022-02-25T11:29:01Z</time>
      </trkpt>
      <trkpt lat="44.8008" lon="6.97581">
        <ele>2120.6</ele>
        <time>2022-02-25T11:29:02Z</time>
      </trkpt>
      <trkpt lat="44.8008" lon="6.97581">
        <ele>2120.6</ele>
        <time>2022-02-25T11:29:03Z</time>
      </trkpt>
      <trkpt lat="44.8008" lon="6.97581">
        <ele>2120.6</ele>
        <time>2022-02-25T11:29:04Z</time>
      </trkpt>
      <trkpt lat="44.8008" lon="6.97584">
        <ele>2120.6</ele>
        <time>2022-02-25T11:29:05Z</time>
      </trkpt>
      <trkpt lat="44.8008" lon="6.97584">
        <ele>2120.6</ele>
        <time>2022-02-25T11:29:06Z</time>
      </trkpt>
      <trkpt lat="44.8008" lon="6.97584">
        <ele>2120.6</ele>
        <time>2022-02-25T11:29:07Z</time>
      </trkpt>
      <trkpt lat="44.8008" lon="6.97587">
        <ele>2120.6</ele>
        <time>2022-02-25T11:29:08Z</time>
      </trkpt>
      <trkpt lat="44.8008" lon="6.97587">
        <ele>2120.6</ele>
        <time>2022-02-25T11:29:09Z</time>
      </trkpt>
      <trkpt lat="44.8008" lon="6.97587">
        <ele>2120.6</ele>
        <time>2022-02-25T11:29:10Z</time>
      </trkpt>
      <trkpt lat="44.80079" lon="6.9759">
        <ele>2121.1</ele>
        <time>2022-02-25T11:29:11Z</time>
      </trkpt>
      <trkpt lat="44.80079" lon="6.9759">
        <ele>2121.1</ele>
        <time>2022-02-25T11:29:12Z</time>
      </trkpt>
      <trkpt lat="44.80078" lon="6.97592">
        <ele>2121.6</ele>
        <time>2022-02-25T11:29:13Z</time>
      </trkpt>
      <trkpt lat="44.80078" lon="6.97592">
        <ele>2121.6</ele>
        <time>2022-02-25T11:29:14Z</time>
      </trkpt>
      <trkpt lat="44.80078" lon="6.97592">
        <ele>2121.6</ele>
        <time>2022-02-25T11:29:15Z</time>
      </trkpt>
      <trkpt lat="44.80078" lon="6.97592">
        <ele>2121.6</ele>
        <time>2022-02-25T11:29:16Z</time>
      </trkpt>
      <trkpt lat="44.80077" lon="6.97595">
        <ele>2122.1</ele>
        <time>2022-02-25T11:29:17Z</time>
      </trkpt>
      <trkpt lat="44.80077" lon="6.97595">
        <ele>2122.1</ele>
        <time>2022-02-25T11:29:18Z</time>
      </trkpt>
      <trkpt lat="44.80077" lon="6.97595">
        <ele>2122.1</ele>
        <time>2022-02-25T11:29:19Z</time>
      </trkpt>
      <trkpt lat="44.80077" lon="6.97595">
        <ele>2122.1</ele>
        <time>2022-02-25T11:29:20Z</time>
      </trkpt>
      <trkpt lat="44.80076" lon="6.97597">
        <ele>2122.6</ele>
        <time>2022-02-25T11:29:21Z</time>
      </trkpt>
      <trkpt lat="44.80076" lon="6.97597">
        <ele>2122.6</ele>
        <time>2022-02-25T11:29:22Z</time>
      </trkpt>
      <trkpt lat="44.80076" lon="6.97597">
        <ele>2122.6</ele>
        <time>2022-02-25T11:29:23Z</time>
      </trkpt>
      <trkpt lat="44.80076" lon="6.97601">
        <ele>2122.6</ele>
        <time>2022-02-25T11:29:24Z</time>
      </trkpt>
      <trkpt lat="44.80076" lon="6.97601">
        <ele>2122.6</ele>
        <time>2022-02-25T11:29:25Z</time>
      </trkpt>
      <trkpt lat="44.80076" lon="6.97601">
        <ele>2122.6</ele>
        <time>2022-02-25T11:29:26Z</time>
      </trkpt>
      <trkpt lat="44.80075" lon="6.97604">
        <ele>2123.1</ele>
        <time>2022-02-25T11:29:27Z</time>
      </trkpt>
      <trkpt lat="44.80075" lon="6.97604">
        <ele>2123.1</ele>
        <time>2022-02-25T11:29:28Z</time>
      </trkpt>
      <trkpt lat="44.80075" lon="6.97604">
        <ele>2123.1</ele>
        <time>2022-02-25T11:29:29Z</time>
      </trkpt>
      <trkpt lat="44.80075" lon="6.97604">
        <ele>2123.1</ele>
        <time>2022-02-25T11:29:30Z</time>
      </trkpt>
      <trkpt lat="44.80075" lon="6.97604">
        <ele>2123.1</ele>
        <time>2022-02-25T11:29:31Z</time>
      </trkpt>
      <trkpt lat="44.80075" lon="6.97604">
        <ele>2123.1</ele>
        <time>2022-02-25T11:29:32Z</time>
      </trkpt>
      <trkpt lat="44.80076" lon="6.97607">
        <ele>2122.7</ele>
        <time>2022-02-25T11:29:33Z</time>
      </trkpt>
      <trkpt lat="44.80076" lon="6.97607">
        <ele>2122.7</ele>
        <time>2022-02-25T11:29:34Z</time>
      </trkpt>
      <trkpt lat="44.80076" lon="6.97607">
        <ele>2122.7</ele>
        <time>2022-02-25T11:29:35Z</time>
      </trkpt>
      <trkpt lat="44.80076" lon="6.97607">
        <ele>2122.7</ele>
        <time>2022-02-25T11:29:36Z</time>
      </trkpt>
      <trkpt lat="44.80076" lon="6.97607">
        <ele>2122.7</ele>
        <time>2022-02-25T11:29:37Z</time>
      </trkpt>
      <trkpt lat="44.80076" lon="6.9761">
        <ele>2122.7</ele>
        <time>2022-02-25T11:29:38Z</time>
      </trkpt>
      <trkpt lat="44.80076" lon="6.9761">
        <ele>2122.7</ele>
        <time>2022-02-25T11:29:39Z</time>
      </trkpt>
      <trkpt lat="44.80074" lon="6.97612">
        <ele>2123.7</ele>
        <time>2022-02-25T11:29:40Z</time>
      </trkpt>
      <trkpt lat="44.80074" lon="6.97612">
        <ele>2123.7</ele>
        <time>2022-02-25T11:29:41Z</time>
      </trkpt>
      <trkpt lat="44.80074" lon="6.97612">
        <ele>2123.7</ele>
        <time>2022-02-25T11:29:42Z</time>
      </trkpt>
      <trkpt lat="44.80074" lon="6.97612">
        <ele>2123.7</ele>
        <time>2022-02-25T11:29:43Z</time>
      </trkpt>
      <trkpt lat="44.80074" lon="6.97615">
        <ele>2123.8</ele>
        <time>2022-02-25T11:29:44Z</time>
      </trkpt>
      <trkpt lat="44.80074" lon="6.97615">
        <ele>2123.8</ele>
        <time>2022-02-25T11:29:45Z</time>
      </trkpt>
      <trkpt lat="44.80074" lon="6.97615">
        <ele>2123.8</ele>
        <time>2022-02-25T11:29:46Z</time>
      </trkpt>
      <trkpt lat="44.80074" lon="6.97615">
        <ele>2123.8</ele>
        <time>2022-02-25T11:29:47Z</time>
      </trkpt>
      <trkpt lat="44.80074" lon="6.97618">
        <ele>2123.8</ele>
        <time>2022-02-25T11:29:48Z</time>
      </trkpt>
      <trkpt lat="44.80074" lon="6.97618">
        <ele>2123.8</ele>
        <time>2022-02-25T11:29:49Z</time>
      </trkpt>
      <trkpt lat="44.80074" lon="6.97618">
        <ele>2123.8</ele>
        <time>2022-02-25T11:29:50Z</time>
      </trkpt>
      <trkpt lat="44.80073" lon="6.9762">
        <ele>2124.3</ele>
        <time>2022-02-25T11:29:51Z</time>
      </trkpt>
      <trkpt lat="44.80073" lon="6.9762">
        <ele>2124.3</ele>
        <time>2022-02-25T11:29:52Z</time>
      </trkpt>
      <trkpt lat="44.80073" lon="6.9762">
        <ele>2124.3</ele>
        <time>2022-02-25T11:29:53Z</time>
      </trkpt>
      <trkpt lat="44.80073" lon="6.9762">
        <ele>2124.3</ele>
        <time>2022-02-25T11:29:54Z</time>
      </trkpt>
      <trkpt lat="44.80073" lon="6.9762">
        <ele>2124.3</ele>
        <time>2022-02-25T11:29:55Z</time>
      </trkpt>
      <trkpt lat="44.80074" lon="6.97623">
        <ele>2123.8</ele>
        <time>2022-02-25T11:29:56Z</time>
      </trkpt>
      <trkpt lat="44.80074" lon="6.97623">
        <ele>2123.8</ele>
        <time>2022-02-25T11:29:57Z</time>
      </trkpt>
      <trkpt lat="44.80074" lon="6.97623">
        <ele>2123.8</ele>
        <time>2022-02-25T11:29:58Z</time>
      </trkpt>
      <trkpt lat="44.80074" lon="6.97623">
        <ele>2123.8</ele>
        <time>2022-02-25T11:29:59Z</time>
      </trkpt>
      <trkpt lat="44.80073" lon="6.97626">
        <ele>2124.4</ele>
        <time>2022-02-25T11:30:00Z</time>
      </trkpt>
      <trkpt lat="44.80073" lon="6.97626">
        <ele>2124.4</ele>
        <time>2022-02-25T11:30:01Z</time>
      </trkpt>
      <trkpt lat="44.80073" lon="6.97626">
        <ele>2124.4</ele>
        <time>2022-02-25T11:30:02Z</time>
      </trkpt>
      <trkpt lat="44.80073" lon="6.97626">
        <ele>2124.4</ele>
        <time>2022-02-25T11:30:03Z</time>
      </trkpt>
      <trkpt lat="44.80073" lon="6.97626">
        <ele>2124.4</ele>
        <time>2022-02-25T11:30:04Z</time>
      </trkpt>
      <trkpt lat="44.80075" lon="6.97629">
        <ele>2123.4</ele>
        <time>2022-02-25T11:30:05Z</time>
      </trkpt>
      <trkpt lat="44.80075" lon="6.97629">
        <ele>2123.4</ele>
        <time>2022-02-25T11:30:06Z</time>
      </trkpt>
      <trkpt lat="44.80075" lon="6.97629">
        <ele>2123.4</ele>
        <time>2022-02-25T11:30:07Z</time>
      </trkpt>
      <trkpt lat="44.80077" lon="6.97631">
        <ele>2122.4</ele>
        <time>2022-02-25T11:30:08Z</time>
      </trkpt>
      <trkpt lat="44.80077" lon="6.97631">
        <ele>2122.4</ele>
        <time>2022-02-25T11:30:09Z</time>
      </trkpt>
      <trkpt lat="44.80077" lon="6.97631">
        <ele>2122.4</ele>
        <time>2022-02-25T11:30:10Z</time>
      </trkpt>
      <trkpt lat="44.80077" lon="6.97631">
        <ele>2122.4</ele>
        <time>2022-02-25T11:30:11Z</time>
      </trkpt>
      <trkpt lat="44.80076" lon="6.97634">
        <ele>2122.9</ele>
        <time>2022-02-25T11:30:12Z</time>
      </trkpt>
      <trkpt lat="44.80076" lon="6.97634">
        <ele>2122.9</ele>
        <time>2022-02-25T11:30:13Z</time>
      </trkpt>
      <trkpt lat="44.80076" lon="6.97634">
        <ele>2122.9</ele>
        <time>2022-02-25T11:30:14Z</time>
      </trkpt>
      <trkpt lat="44.80076" lon="6.97634">
        <ele>2122.9</ele>
        <time>2022-02-25T11:30:15Z</time>
      </trkpt>
      <trkpt lat="44.80075" lon="6.97637">
        <ele>2123.5</ele>
        <time>2022-02-25T11:30:16Z</time>
      </trkpt>
      <trkpt lat="44.80075" lon="6.97637">
        <ele>2123.5</ele>
        <time>2022-02-25T11:30:17Z</time>
      </trkpt>
      <trkpt lat="44.80075" lon="6.97637">
        <ele>2123.5</ele>
        <time>2022-02-25T11:30:18Z</time>
      </trkpt>
      <trkpt lat="44.80075" lon="6.97637">
        <ele>2123.5</ele>
        <time>2022-02-25T11:30:19Z</time>
      </trkpt>
      <trkpt lat="44.80075" lon="6.97637">
        <ele>2123.5</ele>
        <time>2022-02-25T11:30:20Z</time>
      </trkpt>
      <trkpt lat="44.80075" lon="6.9764">
        <ele>2123.5</ele>
        <time>2022-02-25T11:30:21Z</time>
      </trkpt>
      <trkpt lat="44.80075" lon="6.9764">
        <ele>2123.5</ele>
        <time>2022-02-25T11:30:22Z</time>
      </trkpt>
      <trkpt lat="44.80075" lon="6.9764">
        <ele>2123.5</ele>
        <time>2022-02-25T11:30:23Z</time>
      </trkpt>
      <trkpt lat="44.80075" lon="6.9764">
        <ele>2123.5</ele>
        <time>2022-02-25T11:30:24Z</time>
      </trkpt>
      <trkpt lat="44.80075" lon="6.9764">
        <ele>2123.5</ele>
        <time>2022-02-25T11:30:25Z</time>
      </trkpt>
      <trkpt lat="44.80075" lon="6.9764">
        <ele>2123.5</ele>
        <time>2022-02-25T11:30:26Z</time>
      </trkpt>
      <trkpt lat="44.80075" lon="6.9764">
        <ele>2123.5</ele>
        <time>2022-02-25T11:30:27Z</time>
      </trkpt>
      <trkpt lat="44.80075" lon="6.9764">
        <ele>2123.5</ele>
        <time>2022-02-25T11:30:28Z</time>
      </trkpt>
      <trkpt lat="44.80076" lon="6.97642">
        <ele>2122.9</ele>
        <time>2022-02-25T11:30:29Z</time>
      </trkpt>
      <trkpt lat="44.80076" lon="6.97642">
        <ele>2122.9</ele>
        <time>2022-02-25T11:30:30Z</time>
      </trkpt>
      <trkpt lat="44.80076" lon="6.97642">
        <ele>2122.9</ele>
        <time>2022-02-25T11:30:31Z</time>
      </trkpt>
      <trkpt lat="44.80076" lon="6.97642">
        <ele>2122.9</ele>
        <time>2022-02-25T11:30:32Z</time>
      </trkpt>
      <trkpt lat="44.80076" lon="6.97642">
        <ele>2122.9</ele>
        <time>2022-02-25T11:30:33Z</time>
      </trkpt>
      <trkpt lat="44.80076" lon="6.97642">
        <ele>2122.9</ele>
        <time>2022-02-25T11:30:34Z</time>
      </trkpt>
      <trkpt lat="44.80077" lon="6.97644">
        <ele>2122.3</ele>
        <time>2022-02-25T11:30:35Z</time>
      </trkpt>
      <trkpt lat="44.80077" lon="6.97644">
        <ele>2122.3</ele>
        <time>2022-02-25T11:30:36Z</time>
      </trkpt>
      <trkpt lat="44.80077" lon="6.97644">
        <ele>2122.3</ele>
        <time>2022-02-25T11:30:37Z</time>
      </trkpt>
      <trkpt lat="44.80077" lon="6.97644">
        <ele>2122.3</ele>
        <time>2022-02-25T11:30:38Z</time>
      </trkpt>
      <trkpt lat="44.80077" lon="6.97644">
        <ele>2122.3</ele>
        <time>2022-02-25T11:30:39Z</time>
      </trkpt>
      <trkpt lat="44.80078" lon="6.97646">
        <ele>2121.7</ele>
        <time>2022-02-25T11:30:40Z</time>
      </trkpt>
      <trkpt lat="44.80078" lon="6.97646">
        <ele>2121.7</ele>
        <time>2022-02-25T11:30:41Z</time>
      </trkpt>
      <trkpt lat="44.80078" lon="6.97646">
        <ele>2121.7</ele>
        <time>2022-02-25T11:30:42Z</time>
      </trkpt>
      <trkpt lat="44.80078" lon="6.97646">
        <ele>2121.7</ele>
        <time>2022-02-25T11:30:43Z</time>
      </trkpt>
      <trkpt lat="44.80078" lon="6.97646">
        <ele>2121.7</ele>
        <time>2022-02-25T11:30:44Z</time>
      </trkpt>
      <trkpt lat="44.80079" lon="6.97648">
        <ele>2121.1</ele>
        <time>2022-02-25T11:30:45Z</time>
      </trkpt>
      <trkpt lat="44.80079" lon="6.97648">
        <ele>2121.1</ele>
        <time>2022-02-25T11:30:46Z</time>
      </trkpt>
      <trkpt lat="44.80079" lon="6.97648">
        <ele>2121.1</ele>
        <time>2022-02-25T11:30:47Z</time>
      </trkpt>
      <trkpt lat="44.80079" lon="6.97648">
        <ele>2121.1</ele>
        <time>2022-02-25T11:30:48Z</time>
      </trkpt>
      <trkpt lat="44.80078" lon="6.97651">
        <ele>2121.6</ele>
        <time>2022-02-25T11:30:49Z</time>
      </trkpt>
      <trkpt lat="44.80078" lon="6.97651">
        <ele>2121.6</ele>
        <time>2022-02-25T11:30:50Z</time>
      </trkpt>
      <trkpt lat="44.80078" lon="6.97651">
        <ele>2121.6</ele>
        <time>2022-02-25T11:30:51Z</time>
      </trkpt>
      <trkpt lat="44.80078" lon="6.97651">
        <ele>2121.6</ele>
        <time>2022-02-25T11:30:52Z</time>
      </trkpt>
      <trkpt lat="44.80078" lon="6.97654">
        <ele>2121.5</ele>
        <time>2022-02-25T11:30:53Z</time>
      </trkpt>
      <trkpt lat="44.80078" lon="6.97654">
        <ele>2121.5</ele>
        <time>2022-02-25T11:30:54Z</time>
      </trkpt>
      <trkpt lat="44.80078" lon="6.97654">
        <ele>2121.5</ele>
        <time>2022-02-25T11:30:55Z</time>
      </trkpt>
      <trkpt lat="44.80078" lon="6.97654">
        <ele>2121.5</ele>
        <time>2022-02-25T11:30:56Z</time>
      </trkpt>
      <trkpt lat="44.80079" lon="6.97656">
        <ele>2120.9</ele>
        <time>2022-02-25T11:30:57Z</time>
      </trkpt>
      <trkpt lat="44.80079" lon="6.97656">
        <ele>2120.9</ele>
        <time>2022-02-25T11:30:58Z</time>
      </trkpt>
      <trkpt lat="44.80079" lon="6.97656">
        <ele>2120.9</ele>
        <time>2022-02-25T11:30:59Z</time>
      </trkpt>
      <trkpt lat="44.80079" lon="6.97656">
        <ele>2120.9</ele>
        <time>2022-02-25T11:31:00Z</time>
      </trkpt>
      <trkpt lat="44.8008" lon="6.97659">
        <ele>2120.2</ele>
        <time>2022-02-25T11:31:01Z</time>
      </trkpt>
      <trkpt lat="44.8008" lon="6.97659">
        <ele>2120.2</ele>
        <time>2022-02-25T11:31:02Z</time>
      </trkpt>
      <trkpt lat="44.8008" lon="6.97659">
        <ele>2120.2</ele>
        <time>2022-02-25T11:31:03Z</time>
      </trkpt>
      <trkpt lat="44.8008" lon="6.97659">
        <ele>2120.2</ele>
        <time>2022-02-25T11:31:04Z</time>
      </trkpt>
      <trkpt lat="44.8008" lon="6.97659">
        <ele>2120.2</ele>
        <time>2022-02-25T11:31:05Z</time>
      </trkpt>
      <trkpt lat="44.8008" lon="6.97659">
        <ele>2120.2</ele>
        <time>2022-02-25T11:31:06Z</time>
      </trkpt>
      <trkpt lat="44.8008" lon="6.97659">
        <ele>2120.2</ele>
        <time>2022-02-25T11:31:07Z</time>
      </trkpt>
      <trkpt lat="44.8008" lon="6.9766">
        <ele>2120.2</ele>
        <time>2022-02-25T11:31:08Z</time>
      </trkpt>
      <trkpt lat="44.8008" lon="6.9766">
        <ele>2120.2</ele>
        <time>2022-02-25T11:31:09Z</time>
      </trkpt>
      <trkpt lat="44.8008" lon="6.9766">
        <ele>2120.2</ele>
        <time>2022-02-25T11:31:10Z</time>
      </trkpt>
      <trkpt lat="44.8008" lon="6.9766">
        <ele>2120.2</ele>
        <time>2022-02-25T11:31:11Z</time>
      </trkpt>
      <trkpt lat="44.8008" lon="6.9766">
        <ele>2120.2</ele>
        <time>2022-02-25T11:31:12Z</time>
      </trkpt>
      <trkpt lat="44.8008" lon="6.97661">
        <ele>2120.2</ele>
        <time>2022-02-25T11:31:13Z</time>
      </trkpt>
      <trkpt lat="44.8008" lon="6.97661">
        <ele>2120.2</ele>
        <time>2022-02-25T11:31:14Z</time>
      </trkpt>
      <trkpt lat="44.8008" lon="6.97661">
        <ele>2120.2</ele>
        <time>2022-02-25T11:31:15Z</time>
      </trkpt>
      <trkpt lat="44.8008" lon="6.97661">
        <ele>2120.2</ele>
        <time>2022-02-25T11:31:16Z</time>
      </trkpt>
      <trkpt lat="44.8008" lon="6.97661">
        <ele>2120.2</ele>
        <time>2022-02-25T11:31:17Z</time>
      </trkpt>
      <trkpt lat="44.8008" lon="6.97662">
        <ele>2120.2</ele>
        <time>2022-02-25T11:31:18Z</time>
      </trkpt>
      <trkpt lat="44.8008" lon="6.97662">
        <ele>2120.2</ele>
        <time>2022-02-25T11:31:19Z</time>
      </trkpt>
      <trkpt lat="44.8008" lon="6.97662">
        <ele>2120.2</ele>
        <time>2022-02-25T11:31:20Z</time>
      </trkpt>
      <trkpt lat="44.8008" lon="6.97662">
        <ele>2120.2</ele>
        <time>2022-02-25T11:31:21Z</time>
      </trkpt>
      <trkpt lat="44.8008" lon="6.97662">
        <ele>2120.2</ele>
        <time>2022-02-25T11:31:22Z</time>
      </trkpt>
      <trkpt lat="44.8008" lon="6.97662">
        <ele>2120.2</ele>
        <time>2022-02-25T11:31:23Z</time>
      </trkpt>
      <trkpt lat="44.8008" lon="6.97663">
        <ele>2120.1</ele>
        <time>2022-02-25T11:31:24Z</time>
      </trkpt>
      <trkpt lat="44.8008" lon="6.97663">
        <ele>2120.1</ele>
        <time>2022-02-25T11:31:25Z</time>
      </trkpt>
      <trkpt lat="44.8008" lon="6.97663">
        <ele>2120.1</ele>
        <time>2022-02-25T11:31:26Z</time>
      </trkpt>
      <trkpt lat="44.8008" lon="6.97663">
        <ele>2120.1</ele>
        <time>2022-02-25T11:31:27Z</time>
      </trkpt>
      <trkpt lat="44.8008" lon="6.97663">
        <ele>2120.1</ele>
        <time>2022-02-25T11:31:28Z</time>
      </trkpt>
      <trkpt lat="44.8008" lon="6.97664">
        <ele>2120.1</ele>
        <time>2022-02-25T11:31:29Z</time>
      </trkpt>
      <trkpt lat="44.8008" lon="6.97664">
        <ele>2120.1</ele>
        <time>2022-02-25T11:31:30Z</time>
      </trkpt>
      <trkpt lat="44.8008" lon="6.97664">
        <ele>2120.1</ele>
        <time>2022-02-25T11:31:31Z</time>
      </trkpt>
      <trkpt lat="44.8008" lon="6.97664">
        <ele>2120.1</ele>
        <time>2022-02-25T11:31:32Z</time>
      </trkpt>
      <trkpt lat="44.8008" lon="6.97664">
        <ele>2120.1</ele>
        <time>2022-02-25T11:31:33Z</time>
      </trkpt>
      <trkpt lat="44.8008" lon="6.97665">
        <ele>2120.1</ele>
        <time>2022-02-25T11:31:34Z</time>
      </trkpt>
      <trkpt lat="44.8008" lon="6.97665">
        <ele>2120.1</ele>
        <time>2022-02-25T11:31:35Z</time>
      </trkpt>
      <trkpt lat="44.8008" lon="6.97665">
        <ele>2120.1</ele>
        <time>2022-02-25T11:31:36Z</time>
      </trkpt>
      <trkpt lat="44.8008" lon="6.97665">
        <ele>2120.1</ele>
        <time>2022-02-25T11:31:37Z</time>
      </trkpt>
      <trkpt lat="44.8008" lon="6.97665">
        <ele>2120.1</ele>
        <time>2022-02-25T11:31:38Z</time>
      </trkpt>
      <trkpt lat="44.8008" lon="6.97666">
        <ele>2120.1</ele>
        <time>2022-02-25T11:31:39Z</time>
      </trkpt>
      <trkpt lat="44.8008" lon="6.97666">
        <ele>2120.1</ele>
        <time>2022-02-25T11:31:40Z</time>
      </trkpt>
      <trkpt lat="44.8008" lon="6.97666">
        <ele>2120.1</ele>
        <time>2022-02-25T11:31:41Z</time>
      </trkpt>
      <trkpt lat="44.8008" lon="6.97666">
        <ele>2120.1</ele>
        <time>2022-02-25T11:31:42Z</time>
      </trkpt>
      <trkpt lat="44.8008" lon="6.97666">
        <ele>2120.1</ele>
        <time>2022-02-25T11:31:43Z</time>
      </trkpt>
      <trkpt lat="44.8008" lon="6.97667">
        <ele>2120</ele>
        <time>2022-02-25T11:31:44Z</time>
      </trkpt>
      <trkpt lat="44.8008" lon="6.97667">
        <ele>2120</ele>
        <time>2022-02-25T11:31:45Z</time>
      </trkpt>
      <trkpt lat="44.8008" lon="6.97667">
        <ele>2120</ele>
        <time>2022-02-25T11:31:46Z</time>
      </trkpt>
      <trkpt lat="44.8008" lon="6.97667">
        <ele>2120</ele>
        <time>2022-02-25T11:31:47Z</time>
      </trkpt>
      <trkpt lat="44.8008" lon="6.97667">
        <ele>2120</ele>
        <time>2022-02-25T11:31:48Z</time>
      </trkpt>
      <trkpt lat="44.8008" lon="6.97668">
        <ele>2120</ele>
        <time>2022-02-25T11:31:49Z</time>
      </trkpt>
      <trkpt lat="44.8008" lon="6.97668">
        <ele>2120</ele>
        <time>2022-02-25T11:31:50Z</time>
      </trkpt>
      <trkpt lat="44.8008" lon="6.97668">
        <ele>2120</ele>
        <time>2022-02-25T11:31:51Z</time>
      </trkpt>
      <trkpt lat="44.8008" lon="6.97668">
        <ele>2120</ele>
        <time>2022-02-25T11:31:52Z</time>
      </trkpt>
      <trkpt lat="44.8008" lon="6.97668">
        <ele>2120</ele>
        <time>2022-02-25T11:31:53Z</time>
      </trkpt>
      <trkpt lat="44.8008" lon="6.97669">
        <ele>2120</ele>
        <time>2022-02-25T11:31:54Z</time>
      </trkpt>
      <trkpt lat="44.8008" lon="6.97669">
        <ele>2120</ele>
        <time>2022-02-25T11:31:55Z</time>
      </trkpt>
      <trkpt lat="44.8008" lon="6.97669">
        <ele>2120</ele>
        <time>2022-02-25T11:31:56Z</time>
      </trkpt>
      <trkpt lat="44.8008" lon="6.97669">
        <ele>2120</ele>
        <time>2022-02-25T11:31:57Z</time>
      </trkpt>
      <trkpt lat="44.8008" lon="6.97669">
        <ele>2120</ele>
        <time>2022-02-25T11:31:58Z</time>
      </trkpt>
      <trkpt lat="44.8008" lon="6.9767">
        <ele>2119.9</ele>
        <time>2022-02-25T11:31:59Z</time>
      </trkpt>
      <trkpt lat="44.8008" lon="6.9767">
        <ele>2119.9</ele>
        <time>2022-02-25T11:32:00Z</time>
      </trkpt>
      <trkpt lat="44.8008" lon="6.9767">
        <ele>2119.9</ele>
        <time>2022-02-25T11:32:01Z</time>
      </trkpt>
      <trkpt lat="44.8008" lon="6.9767">
        <ele>2119.9</ele>
        <time>2022-02-25T11:32:02Z</time>
      </trkpt>
      <trkpt lat="44.8008" lon="6.9767">
        <ele>2119.9</ele>
        <time>2022-02-25T11:32:03Z</time>
      </trkpt>
      <trkpt lat="44.8008" lon="6.9767">
        <ele>2119.9</ele>
        <time>2022-02-25T11:32:04Z</time>
      </trkpt>
      <trkpt lat="44.8008" lon="6.97674">
        <ele>2119.8</ele>
        <time>2022-02-25T11:32:05Z</time>
      </trkpt>
      <trkpt lat="44.8008" lon="6.97674">
        <ele>2119.8</ele>
        <time>2022-02-25T11:32:06Z</time>
      </trkpt>
      <trkpt lat="44.8008" lon="6.97674">
        <ele>2119.8</ele>
        <time>2022-02-25T11:32:07Z</time>
      </trkpt>
      <trkpt lat="44.8008" lon="6.97678">
        <ele>2119.7</ele>
        <time>2022-02-25T11:32:08Z</time>
      </trkpt>
      <trkpt lat="44.8008" lon="6.97678">
        <ele>2119.7</ele>
        <time>2022-02-25T11:32:09Z</time>
      </trkpt>
      <trkpt lat="44.8008" lon="6.97678">
        <ele>2119.7</ele>
        <time>2022-02-25T11:32:10Z</time>
      </trkpt>
      <trkpt lat="44.8008" lon="6.97678">
        <ele>2119.7</ele>
        <time>2022-02-25T11:32:11Z</time>
      </trkpt>
      <trkpt lat="44.8008" lon="6.9768">
        <ele>2119.6</ele>
        <time>2022-02-25T11:32:12Z</time>
      </trkpt>
      <trkpt lat="44.8008" lon="6.9768">
        <ele>2119.6</ele>
        <time>2022-02-25T11:32:13Z</time>
      </trkpt>
      <trkpt lat="44.8008" lon="6.9768">
        <ele>2119.6</ele>
        <time>2022-02-25T11:32:14Z</time>
      </trkpt>
      <trkpt lat="44.80079" lon="6.97683">
        <ele>2120.2</ele>
        <time>2022-02-25T11:32:15Z</time>
      </trkpt>
      <trkpt lat="44.80079" lon="6.97683">
        <ele>2120.2</ele>
        <time>2022-02-25T11:32:16Z</time>
      </trkpt>
      <trkpt lat="44.80079" lon="6.97683">
        <ele>2120.2</ele>
        <time>2022-02-25T11:32:17Z</time>
      </trkpt>
      <trkpt lat="44.80078" lon="6.97686">
        <ele>2120.7</ele>
        <time>2022-02-25T11:32:18Z</time>
      </trkpt>
      <trkpt lat="44.80078" lon="6.97686">
        <ele>2120.7</ele>
        <time>2022-02-25T11:32:19Z</time>
      </trkpt>
      <trkpt lat="44.80077" lon="6.97688">
        <ele>2121.3</ele>
        <time>2022-02-25T11:32:20Z</time>
      </trkpt>
      <trkpt lat="44.80077" lon="6.97688">
        <ele>2121.3</ele>
        <time>2022-02-25T11:32:21Z</time>
      </trkpt>
      <trkpt lat="44.80076" lon="6.9769">
        <ele>2121.9</ele>
        <time>2022-02-25T11:32:22Z</time>
      </trkpt>
      <trkpt lat="44.80076" lon="6.9769">
        <ele>2121.9</ele>
        <time>2022-02-25T11:32:23Z</time>
      </trkpt>
      <trkpt lat="44.80076" lon="6.9769">
        <ele>2121.9</ele>
        <time>2022-02-25T11:32:24Z</time>
      </trkpt>
      <trkpt lat="44.80076" lon="6.9769">
        <ele>2121.9</ele>
        <time>2022-02-25T11:32:25Z</time>
      </trkpt>
      <trkpt lat="44.80076" lon="6.97692">
        <ele>2121.8</ele>
        <time>2022-02-25T11:32:26Z</time>
      </trkpt>
      <trkpt lat="44.80076" lon="6.97692">
        <ele>2121.8</ele>
        <time>2022-02-25T11:32:27Z</time>
      </trkpt>
      <trkpt lat="44.80076" lon="6.97692">
        <ele>2121.8</ele>
        <time>2022-02-25T11:32:28Z</time>
      </trkpt>
      <trkpt lat="44.80076" lon="6.97692">
        <ele>2121.8</ele>
        <time>2022-02-25T11:32:29Z</time>
      </trkpt>
      <trkpt lat="44.80076" lon="6.97696">
        <ele>2121.7</ele>
        <time>2022-02-25T11:32:30Z</time>
      </trkpt>
      <trkpt lat="44.80076" lon="6.97696">
        <ele>2121.7</ele>
        <time>2022-02-25T11:32:31Z</time>
      </trkpt>
      <trkpt lat="44.80076" lon="6.97696">
        <ele>2121.7</ele>
        <time>2022-02-25T11:32:32Z</time>
      </trkpt>
      <trkpt lat="44.80076" lon="6.97696">
        <ele>2121.7</ele>
        <time>2022-02-25T11:32:33Z</time>
      </trkpt>
      <trkpt lat="44.80076" lon="6.97696">
        <ele>2121.7</ele>
        <time>2022-02-25T11:32:34Z</time>
      </trkpt>
      <trkpt lat="44.80076" lon="6.97698">
        <ele>2121.7</ele>
        <time>2022-02-25T11:32:35Z</time>
      </trkpt>
      <trkpt lat="44.80076" lon="6.97698">
        <ele>2121.7</ele>
        <time>2022-02-25T11:32:36Z</time>
      </trkpt>
      <trkpt lat="44.80076" lon="6.97698">
        <ele>2121.7</ele>
        <time>2022-02-25T11:32:37Z</time>
      </trkpt>
      <trkpt lat="44.80076" lon="6.97698">
        <ele>2121.7</ele>
        <time>2022-02-25T11:32:38Z</time>
      </trkpt>
      <trkpt lat="44.80076" lon="6.97701">
        <ele>2121.6</ele>
        <time>2022-02-25T11:32:39Z</time>
      </trkpt>
      <trkpt lat="44.80076" lon="6.97701">
        <ele>2121.6</ele>
        <time>2022-02-25T11:32:40Z</time>
      </trkpt>
      <trkpt lat="44.80076" lon="6.97701">
        <ele>2121.6</ele>
        <time>2022-02-25T11:32:41Z</time>
      </trkpt>
      <trkpt lat="44.80076" lon="6.97701">
        <ele>2121.6</ele>
        <time>2022-02-25T11:32:42Z</time>
      </trkpt>
      <trkpt lat="44.80076" lon="6.97701">
        <ele>2121.6</ele>
        <time>2022-02-25T11:32:43Z</time>
      </trkpt>
      <trkpt lat="44.80076" lon="6.97701">
        <ele>2121.6</ele>
        <time>2022-02-25T11:32:44Z</time>
      </trkpt>
      <trkpt lat="44.80078" lon="6.97702">
        <ele>2120.2</ele>
        <time>2022-02-25T11:32:45Z</time>
      </trkpt>
      <trkpt lat="44.80078" lon="6.97702">
        <ele>2120.2</ele>
        <time>2022-02-25T11:32:46Z</time>
      </trkpt>
      <trkpt lat="44.80078" lon="6.97702">
        <ele>2120.2</ele>
        <time>2022-02-25T11:32:47Z</time>
      </trkpt>
      <trkpt lat="44.80078" lon="6.97705">
        <ele>2120.1</ele>
        <time>2022-02-25T11:32:48Z</time>
      </trkpt>
      <trkpt lat="44.80078" lon="6.97705">
        <ele>2120.1</ele>
        <time>2022-02-25T11:32:49Z</time>
      </trkpt>
      <trkpt lat="44.80078" lon="6.97705">
        <ele>2120.1</ele>
        <time>2022-02-25T11:32:50Z</time>
      </trkpt>
      <trkpt lat="44.80079" lon="6.97707">
        <ele>2119.4</ele>
        <time>2022-02-25T11:32:51Z</time>
      </trkpt>
      <trkpt lat="44.80079" lon="6.97707">
        <ele>2119.4</ele>
        <time>2022-02-25T11:32:52Z</time>
      </trkpt>
      <trkpt lat="44.80078" lon="6.9771">
        <ele>2120</ele>
        <time>2022-02-25T11:32:53Z</time>
      </trkpt>
      <trkpt lat="44.80078" lon="6.9771">
        <ele>2120</ele>
        <time>2022-02-25T11:32:54Z</time>
      </trkpt>
      <trkpt lat="44.80078" lon="6.9771">
        <ele>2120</ele>
        <time>2022-02-25T11:32:55Z</time>
      </trkpt>
      <trkpt lat="44.80078" lon="6.97713">
        <ele>2119.9</ele>
        <time>2022-02-25T11:32:56Z</time>
      </trkpt>
      <trkpt lat="44.80078" lon="6.97713">
        <ele>2119.9</ele>
        <time>2022-02-25T11:32:57Z</time>
      </trkpt>
      <trkpt lat="44.80078" lon="6.97713">
        <ele>2119.9</ele>
        <time>2022-02-25T11:32:58Z</time>
      </trkpt>
      <trkpt lat="44.80077" lon="6.97716">
        <ele>2120.5</ele>
        <time>2022-02-25T11:32:59Z</time>
      </trkpt>
      <trkpt lat="44.80077" lon="6.97716">
        <ele>2120.5</ele>
        <time>2022-02-25T11:33:00Z</time>
      </trkpt>
      <trkpt lat="44.80077" lon="6.97716">
        <ele>2120.5</ele>
        <time>2022-02-25T11:33:01Z</time>
      </trkpt>
      <trkpt lat="44.80077" lon="6.97719">
        <ele>2120.4</ele>
        <time>2022-02-25T11:33:02Z</time>
      </trkpt>
      <trkpt lat="44.80077" lon="6.97719">
        <ele>2120.4</ele>
        <time>2022-02-25T11:33:03Z</time>
      </trkpt>
      <trkpt lat="44.80077" lon="6.97719">
        <ele>2120.4</ele>
        <time>2022-02-25T11:33:04Z</time>
      </trkpt>
      <trkpt lat="44.80077" lon="6.97719">
        <ele>2120.4</ele>
        <time>2022-02-25T11:33:05Z</time>
      </trkpt>
      <trkpt lat="44.80077" lon="6.97722">
        <ele>2120.3</ele>
        <time>2022-02-25T11:33:06Z</time>
      </trkpt>
      <trkpt lat="44.80077" lon="6.97722">
        <ele>2120.3</ele>
        <time>2022-02-25T11:33:07Z</time>
      </trkpt>
      <trkpt lat="44.80077" lon="6.97722">
        <ele>2120.3</ele>
        <time>2022-02-25T11:33:08Z</time>
      </trkpt>
      <trkpt lat="44.80077" lon="6.97722">
        <ele>2120.3</ele>
        <time>2022-02-25T11:33:09Z</time>
      </trkpt>
      <trkpt lat="44.80077" lon="6.97722">
        <ele>2120.3</ele>
        <time>2022-02-25T11:33:10Z</time>
      </trkpt>
      <trkpt lat="44.80077" lon="6.97722">
        <ele>2120.3</ele>
        <time>2022-02-25T11:33:11Z</time>
      </trkpt>
      <trkpt lat="44.80077" lon="6.97725">
        <ele>2120.3</ele>
        <time>2022-02-25T11:33:12Z</time>
      </trkpt>
      <trkpt lat="44.80077" lon="6.97725">
        <ele>2120.3</ele>
        <time>2022-02-25T11:33:13Z</time>
      </trkpt>
      <trkpt lat="44.80077" lon="6.97725">
        <ele>2120.3</ele>
        <time>2022-02-25T11:33:14Z</time>
      </trkpt>
      <trkpt lat="44.80077" lon="6.97725">
        <ele>2120.3</ele>
        <time>2022-02-25T11:33:15Z</time>
      </trkpt>
      <trkpt lat="44.80076" lon="6.97728">
        <ele>2120.9</ele>
        <time>2022-02-25T11:33:16Z</time>
      </trkpt>
      <trkpt lat="44.80076" lon="6.97728">
        <ele>2120.9</ele>
        <time>2022-02-25T11:33:17Z</time>
      </trkpt>
      <trkpt lat="44.80076" lon="6.97728">
        <ele>2120.9</ele>
        <time>2022-02-25T11:33:18Z</time>
      </trkpt>
      <trkpt lat="44.80076" lon="6.97732">
        <ele>2120.8</ele>
        <time>2022-02-25T11:33:19Z</time>
      </trkpt>
      <trkpt lat="44.80076" lon="6.97732">
        <ele>2120.8</ele>
        <time>2022-02-25T11:33:20Z</time>
      </trkpt>
      <trkpt lat="44.80076" lon="6.97732">
        <ele>2120.8</ele>
        <time>2022-02-25T11:33:21Z</time>
      </trkpt>
      <trkpt lat="44.80075" lon="6.97734">
        <ele>2121.4</ele>
        <time>2022-02-25T11:33:22Z</time>
      </trkpt>
      <trkpt lat="44.80075" lon="6.97734">
        <ele>2121.4</ele>
        <time>2022-02-25T11:33:23Z</time>
      </trkpt>
      <trkpt lat="44.80075" lon="6.97734">
        <ele>2121.4</ele>
        <time>2022-02-25T11:33:24Z</time>
      </trkpt>
      <trkpt lat="44.80077" lon="6.97736">
        <ele>2119.9</ele>
        <time>2022-02-25T11:33:25Z</time>
      </trkpt>
      <trkpt lat="44.80077" lon="6.97736">
        <ele>2119.9</ele>
        <time>2022-02-25T11:33:26Z</time>
      </trkpt>
      <trkpt lat="44.80077" lon="6.97736">
        <ele>2119.9</ele>
        <time>2022-02-25T11:33:27Z</time>
      </trkpt>
      <trkpt lat="44.80077" lon="6.97739">
        <ele>2119.9</ele>
        <time>2022-02-25T11:33:28Z</time>
      </trkpt>
      <trkpt lat="44.80077" lon="6.97739">
        <ele>2119.9</ele>
        <time>2022-02-25T11:33:29Z</time>
      </trkpt>
      <trkpt lat="44.80076" lon="6.97742">
        <ele>2120.5</ele>
        <time>2022-02-25T11:33:30Z</time>
      </trkpt>
      <trkpt lat="44.80076" lon="6.97742">
        <ele>2120.5</ele>
        <time>2022-02-25T11:33:31Z</time>
      </trkpt>
      <trkpt lat="44.80076" lon="6.97742">
        <ele>2120.5</ele>
        <time>2022-02-25T11:33:32Z</time>
      </trkpt>
      <trkpt lat="44.80076" lon="6.97742">
        <ele>2120.5</ele>
        <time>2022-02-25T11:33:33Z</time>
      </trkpt>
      <trkpt lat="44.80076" lon="6.97744">
        <ele>2120.4</ele>
        <time>2022-02-25T11:33:34Z</time>
      </trkpt>
      <trkpt lat="44.80076" lon="6.97744">
        <ele>2120.4</ele>
        <time>2022-02-25T11:33:35Z</time>
      </trkpt>
      <trkpt lat="44.80076" lon="6.97744">
        <ele>2120.4</ele>
        <time>2022-02-25T11:33:36Z</time>
      </trkpt>
      <trkpt lat="44.80076" lon="6.97744">
        <ele>2120.4</ele>
        <time>2022-02-25T11:33:37Z</time>
      </trkpt>
      <trkpt lat="44.80075" lon="6.97747">
        <ele>2121.1</ele>
        <time>2022-02-25T11:33:38Z</time>
      </trkpt>
      <trkpt lat="44.80075" lon="6.97747">
        <ele>2121.1</ele>
        <time>2022-02-25T11:33:39Z</time>
      </trkpt>
      <trkpt lat="44.80075" lon="6.97747">
        <ele>2121.1</ele>
        <time>2022-02-25T11:33:40Z</time>
      </trkpt>
      <trkpt lat="44.80075" lon="6.97747">
        <ele>2121.1</ele>
        <time>2022-02-25T11:33:41Z</time>
      </trkpt>
      <trkpt lat="44.80075" lon="6.97747">
        <ele>2121.1</ele>
        <time>2022-02-25T11:33:42Z</time>
      </trkpt>
      <trkpt lat="44.80074" lon="6.9775">
        <ele>2121.7</ele>
        <time>2022-02-25T11:33:43Z</time>
      </trkpt>
      <trkpt lat="44.80074" lon="6.9775">
        <ele>2121.7</ele>
        <time>2022-02-25T11:33:44Z</time>
      </trkpt>
      <trkpt lat="44.80074" lon="6.9775">
        <ele>2121.7</ele>
        <time>2022-02-25T11:33:45Z</time>
      </trkpt>
      <trkpt lat="44.80074" lon="6.97753">
        <ele>2121.7</ele>
        <time>2022-02-25T11:33:46Z</time>
      </trkpt>
      <trkpt lat="44.80074" lon="6.97753">
        <ele>2121.7</ele>
        <time>2022-02-25T11:33:47Z</time>
      </trkpt>
      <trkpt lat="44.80074" lon="6.97753">
        <ele>2121.7</ele>
        <time>2022-02-25T11:33:48Z</time>
      </trkpt>
      <trkpt lat="44.80074" lon="6.97753">
        <ele>2121.7</ele>
        <time>2022-02-25T11:33:49Z</time>
      </trkpt>
      <trkpt lat="44.80074" lon="6.97756">
        <ele>2121.7</ele>
        <time>2022-02-25T11:33:50Z</time>
      </trkpt>
      <trkpt lat="44.80074" lon="6.97756">
        <ele>2121.7</ele>
        <time>2022-02-25T11:33:51Z</time>
      </trkpt>
      <trkpt lat="44.80074" lon="6.97756">
        <ele>2121.7</ele>
        <time>2022-02-25T11:33:52Z</time>
      </trkpt>
      <trkpt lat="44.80074" lon="6.97756">
        <ele>2121.7</ele>
        <time>2022-02-25T11:33:53Z</time>
      </trkpt>
      <trkpt lat="44.80074" lon="6.97756">
        <ele>2121.7</ele>
        <time>2022-02-25T11:33:54Z</time>
      </trkpt>
      <trkpt lat="44.80072" lon="6.97759">
        <ele>2123.2</ele>
        <time>2022-02-25T11:33:55Z</time>
      </trkpt>
      <trkpt lat="44.80072" lon="6.97759">
        <ele>2123.2</ele>
        <time>2022-02-25T11:33:56Z</time>
      </trkpt>
      <trkpt lat="44.80071" lon="6.97761">
        <ele>2123.9</ele>
        <time>2022-02-25T11:33:57Z</time>
      </trkpt>
      <trkpt lat="44.80071" lon="6.97761">
        <ele>2123.9</ele>
        <time>2022-02-25T11:33:58Z</time>
      </trkpt>
      <trkpt lat="44.80071" lon="6.97761">
        <ele>2123.9</ele>
        <time>2022-02-25T11:33:59Z</time>
      </trkpt>
      <trkpt lat="44.80071" lon="6.97761">
        <ele>2123.9</ele>
        <time>2022-02-25T11:34:00Z</time>
      </trkpt>
      <trkpt lat="44.8007" lon="6.97764">
        <ele>2124.6</ele>
        <time>2022-02-25T11:34:01Z</time>
      </trkpt>
      <trkpt lat="44.8007" lon="6.97764">
        <ele>2124.6</ele>
        <time>2022-02-25T11:34:02Z</time>
      </trkpt>
      <trkpt lat="44.8007" lon="6.97764">
        <ele>2124.6</ele>
        <time>2022-02-25T11:34:03Z</time>
      </trkpt>
      <trkpt lat="44.8007" lon="6.97764">
        <ele>2124.6</ele>
        <time>2022-02-25T11:34:04Z</time>
      </trkpt>
      <trkpt lat="44.8007" lon="6.97764">
        <ele>2124.6</ele>
        <time>2022-02-25T11:34:05Z</time>
      </trkpt>
      <trkpt lat="44.8007" lon="6.97767">
        <ele>2124.6</ele>
        <time>2022-02-25T11:34:06Z</time>
      </trkpt>
      <trkpt lat="44.8007" lon="6.97767">
        <ele>2124.6</ele>
        <time>2022-02-25T11:34:07Z</time>
      </trkpt>
      <trkpt lat="44.8007" lon="6.97767">
        <ele>2124.6</ele>
        <time>2022-02-25T11:34:08Z</time>
      </trkpt>
      <trkpt lat="44.8007" lon="6.97767">
        <ele>2124.6</ele>
        <time>2022-02-25T11:34:09Z</time>
      </trkpt>
      <trkpt lat="44.8007" lon="6.97767">
        <ele>2124.6</ele>
        <time>2022-02-25T11:34:10Z</time>
      </trkpt>
      <trkpt lat="44.8007" lon="6.97767">
        <ele>2124.6</ele>
        <time>2022-02-25T11:34:11Z</time>
      </trkpt>
      <trkpt lat="44.8007" lon="6.97767">
        <ele>2124.6</ele>
        <time>2022-02-25T11:34:12Z</time>
      </trkpt>
      <trkpt lat="44.8007" lon="6.97767">
        <ele>2124.6</ele>
        <time>2022-02-25T11:34:13Z</time>
      </trkpt>
      <trkpt lat="44.8007" lon="6.97767">
        <ele>2124.6</ele>
        <time>2022-02-25T11:34:14Z</time>
      </trkpt>
      <trkpt lat="44.8007" lon="6.9777">
        <ele>2124.6</ele>
        <time>2022-02-25T11:34:15Z</time>
      </trkpt>
      <trkpt lat="44.8007" lon="6.9777">
        <ele>2124.6</ele>
        <time>2022-02-25T11:34:16Z</time>
      </trkpt>
      <trkpt lat="44.8007" lon="6.9777">
        <ele>2124.6</ele>
        <time>2022-02-25T11:34:17Z</time>
      </trkpt>
      <trkpt lat="44.8007" lon="6.9777">
        <ele>2124.6</ele>
        <time>2022-02-25T11:34:18Z</time>
      </trkpt>
      <trkpt lat="44.8007" lon="6.97773">
        <ele>2124.6</ele>
        <time>2022-02-25T11:34:19Z</time>
      </trkpt>
      <trkpt lat="44.8007" lon="6.97773">
        <ele>2124.6</ele>
        <time>2022-02-25T11:34:20Z</time>
      </trkpt>
      <trkpt lat="44.8007" lon="6.97773">
        <ele>2124.6</ele>
        <time>2022-02-25T11:34:21Z</time>
      </trkpt>
      <trkpt lat="44.8007" lon="6.97773">
        <ele>2124.6</ele>
        <time>2022-02-25T11:34:22Z</time>
      </trkpt>
      <trkpt lat="44.8007" lon="6.97773">
        <ele>2124.6</ele>
        <time>2022-02-25T11:34:23Z</time>
      </trkpt>
      <trkpt lat="44.8007" lon="6.97773">
        <ele>2124.6</ele>
        <time>2022-02-25T11:34:24Z</time>
      </trkpt>
      <trkpt lat="44.8007" lon="6.97776">
        <ele>2124.6</ele>
        <time>2022-02-25T11:34:25Z</time>
      </trkpt>
      <trkpt lat="44.8007" lon="6.97776">
        <ele>2124.6</ele>
        <time>2022-02-25T11:34:26Z</time>
      </trkpt>
      <trkpt lat="44.8007" lon="6.97776">
        <ele>2124.6</ele>
        <time>2022-02-25T11:34:27Z</time>
      </trkpt>
      <trkpt lat="44.8007" lon="6.97776">
        <ele>2124.6</ele>
        <time>2022-02-25T11:34:28Z</time>
      </trkpt>
      <trkpt lat="44.8007" lon="6.97776">
        <ele>2124.6</ele>
        <time>2022-02-25T11:34:29Z</time>
      </trkpt>
      <trkpt lat="44.8007" lon="6.97776">
        <ele>2124.6</ele>
        <time>2022-02-25T11:34:30Z</time>
      </trkpt>
      <trkpt lat="44.8007" lon="6.97776">
        <ele>2124.6</ele>
        <time>2022-02-25T11:34:31Z</time>
      </trkpt>
      <trkpt lat="44.80072" lon="6.97778">
        <ele>2123.2</ele>
        <time>2022-02-25T11:34:32Z</time>
      </trkpt>
      <trkpt lat="44.80072" lon="6.97778">
        <ele>2123.2</ele>
        <time>2022-02-25T11:34:33Z</time>
      </trkpt>
      <trkpt lat="44.80072" lon="6.97778">
        <ele>2123.2</ele>
        <time>2022-02-25T11:34:34Z</time>
      </trkpt>
      <trkpt lat="44.80072" lon="6.97778">
        <ele>2123.2</ele>
        <time>2022-02-25T11:34:35Z</time>
      </trkpt>
      <trkpt lat="44.80072" lon="6.97778">
        <ele>2123.2</ele>
        <time>2022-02-25T11:34:36Z</time>
      </trkpt>
      <trkpt lat="44.80072" lon="6.97782">
        <ele>2124.4</ele>
        <time>2022-02-25T11:34:37Z</time>
      </trkpt>
      <trkpt lat="44.80072" lon="6.97782">
        <ele>2124.4</ele>
        <time>2022-02-25T11:34:38Z</time>
      </trkpt>
      <trkpt lat="44.80072" lon="6.97782">
        <ele>2124.4</ele>
        <time>2022-02-25T11:34:39Z</time>
      </trkpt>
      <trkpt lat="44.8007" lon="6.97785">
        <ele>2126.7</ele>
        <time>2022-02-25T11:34:40Z</time>
      </trkpt>
      <trkpt lat="44.8007" lon="6.97785">
        <ele>2126.7</ele>
        <time>2022-02-25T11:34:41Z</time>
      </trkpt>
      <trkpt lat="44.8007" lon="6.97785">
        <ele>2126.7</ele>
        <time>2022-02-25T11:34:42Z</time>
      </trkpt>
      <trkpt lat="44.8007" lon="6.97785">
        <ele>2126.7</ele>
        <time>2022-02-25T11:34:43Z</time>
      </trkpt>
      <trkpt lat="44.8007" lon="6.97787">
        <ele>2127.3</ele>
        <time>2022-02-25T11:34:44Z</time>
      </trkpt>
      <trkpt lat="44.8007" lon="6.97787">
        <ele>2127.3</ele>
        <time>2022-02-25T11:34:45Z</time>
      </trkpt>
      <trkpt lat="44.8007" lon="6.9779">
        <ele>2128.1</ele>
        <time>2022-02-25T11:34:46Z</time>
      </trkpt>
      <trkpt lat="44.8007" lon="6.9779">
        <ele>2128.1</ele>
        <time>2022-02-25T11:34:47Z</time>
      </trkpt>
      <trkpt lat="44.8007" lon="6.9779">
        <ele>2128.1</ele>
        <time>2022-02-25T11:34:48Z</time>
      </trkpt>
      <trkpt lat="44.80069" lon="6.97793">
        <ele>2129.7</ele>
        <time>2022-02-25T11:34:49Z</time>
      </trkpt>
      <trkpt lat="44.80069" lon="6.97793">
        <ele>2129.7</ele>
        <time>2022-02-25T11:34:50Z</time>
      </trkpt>
      <trkpt lat="44.80069" lon="6.97793">
        <ele>2129.7</ele>
        <time>2022-02-25T11:34:51Z</time>
      </trkpt>
      <trkpt lat="44.80069" lon="6.97797">
        <ele>2130.9</ele>
        <time>2022-02-25T11:34:52Z</time>
      </trkpt>
      <trkpt lat="44.80069" lon="6.97797">
        <ele>2130.9</ele>
        <time>2022-02-25T11:34:53Z</time>
      </trkpt>
      <trkpt lat="44.80069" lon="6.97797">
        <ele>2130.9</ele>
        <time>2022-02-25T11:34:54Z</time>
      </trkpt>
      <trkpt lat="44.80067" lon="6.97801">
        <ele>2133.4</ele>
        <time>2022-02-25T11:34:55Z</time>
      </trkpt>
      <trkpt lat="44.80067" lon="6.97801">
        <ele>2133.4</ele>
        <time>2022-02-25T11:34:56Z</time>
      </trkpt>
      <trkpt lat="44.80067" lon="6.97801">
        <ele>2133.4</ele>
        <time>2022-02-25T11:34:57Z</time>
      </trkpt>
      <trkpt lat="44.80066" lon="6.97804">
        <ele>2135</ele>
        <time>2022-02-25T11:34:58Z</time>
      </trkpt>
      <trkpt lat="44.80066" lon="6.97804">
        <ele>2135</ele>
        <time>2022-02-25T11:34:59Z</time>
      </trkpt>
      <trkpt lat="44.80066" lon="6.97804">
        <ele>2135</ele>
        <time>2022-02-25T11:35:00Z</time>
      </trkpt>
      <trkpt lat="44.80066" lon="6.97806">
        <ele>2135.7</ele>
        <time>2022-02-25T11:35:01Z</time>
      </trkpt>
      <trkpt lat="44.80066" lon="6.97806">
        <ele>2135.7</ele>
        <time>2022-02-25T11:35:02Z</time>
      </trkpt>
      <trkpt lat="44.80066" lon="6.97806">
        <ele>2135.7</ele>
        <time>2022-02-25T11:35:03Z</time>
      </trkpt>
      <trkpt lat="44.80066" lon="6.97809">
        <ele>2136.9</ele>
        <time>2022-02-25T11:35:04Z</time>
      </trkpt>
      <trkpt lat="44.80066" lon="6.97809">
        <ele>2136.9</ele>
        <time>2022-02-25T11:35:05Z</time>
      </trkpt>
      <trkpt lat="44.80066" lon="6.97809">
        <ele>2136.9</ele>
        <time>2022-02-25T11:35:06Z</time>
      </trkpt>
      <trkpt lat="44.80066" lon="6.97809">
        <ele>2136.9</ele>
        <time>2022-02-25T11:35:07Z</time>
      </trkpt>
      <trkpt lat="44.80067" lon="6.97812">
        <ele>2137.4</ele>
        <time>2022-02-25T11:35:08Z</time>
      </trkpt>
      <trkpt lat="44.80067" lon="6.97812">
        <ele>2137.4</ele>
        <time>2022-02-25T11:35:09Z</time>
      </trkpt>
      <trkpt lat="44.80067" lon="6.97812">
        <ele>2137.4</ele>
        <time>2022-02-25T11:35:10Z</time>
      </trkpt>
      <trkpt lat="44.80066" lon="6.97815">
        <ele>2139.3</ele>
        <time>2022-02-25T11:35:11Z</time>
      </trkpt>
      <trkpt lat="44.80066" lon="6.97815">
        <ele>2139.3</ele>
        <time>2022-02-25T11:35:12Z</time>
      </trkpt>
      <trkpt lat="44.80066" lon="6.97815">
        <ele>2139.3</ele>
        <time>2022-02-25T11:35:13Z</time>
      </trkpt>
      <trkpt lat="44.80066" lon="6.97815">
        <ele>2139.3</ele>
        <time>2022-02-25T11:35:14Z</time>
      </trkpt>
      <trkpt lat="44.80067" lon="6.97818">
        <ele>2139.8</ele>
        <time>2022-02-25T11:35:15Z</time>
      </trkpt>
      <trkpt lat="44.80067" lon="6.97818">
        <ele>2139.8</ele>
        <time>2022-02-25T11:35:16Z</time>
      </trkpt>
      <trkpt lat="44.80067" lon="6.97818">
        <ele>2139.8</ele>
        <time>2022-02-25T11:35:17Z</time>
      </trkpt>
      <trkpt lat="44.80067" lon="6.97821">
        <ele>2141</ele>
        <time>2022-02-25T11:35:18Z</time>
      </trkpt>
      <trkpt lat="44.80067" lon="6.97821">
        <ele>2141</ele>
        <time>2022-02-25T11:35:19Z</time>
      </trkpt>
      <trkpt lat="44.80066" lon="6.97823">
        <ele>2142.5</ele>
        <time>2022-02-25T11:35:20Z</time>
      </trkpt>
      <trkpt lat="44.80066" lon="6.97823">
        <ele>2142.5</ele>
        <time>2022-02-25T11:35:21Z</time>
      </trkpt>
      <trkpt lat="44.80066" lon="6.97823">
        <ele>2142.5</ele>
        <time>2022-02-25T11:35:22Z</time>
      </trkpt>
      <trkpt lat="44.80066" lon="6.97823">
        <ele>2142.5</ele>
        <time>2022-02-25T11:35:23Z</time>
      </trkpt>
      <trkpt lat="44.80064" lon="6.97825">
        <ele>2144.6</ele>
        <time>2022-02-25T11:35:24Z</time>
      </trkpt>
      <trkpt lat="44.80064" lon="6.97825">
        <ele>2144.6</ele>
        <time>2022-02-25T11:35:25Z</time>
      </trkpt>
      <trkpt lat="44.80064" lon="6.97825">
        <ele>2144.6</ele>
        <time>2022-02-25T11:35:26Z</time>
      </trkpt>
      <trkpt lat="44.80064" lon="6.97825">
        <ele>2144.6</ele>
        <time>2022-02-25T11:35:27Z</time>
      </trkpt>
      <trkpt lat="44.80064" lon="6.97825">
        <ele>2144.6</ele>
        <time>2022-02-25T11:35:28Z</time>
      </trkpt>
      <trkpt lat="44.80064" lon="6.97825">
        <ele>2144.6</ele>
        <time>2022-02-25T11:35:29Z</time>
      </trkpt>
      <trkpt lat="44.80064" lon="6.97825">
        <ele>2144.6</ele>
        <time>2022-02-25T11:35:30Z</time>
      </trkpt>
      <trkpt lat="44.80064" lon="6.97828">
        <ele>2145.7</ele>
        <time>2022-02-25T11:35:31Z</time>
      </trkpt>
      <trkpt lat="44.80064" lon="6.97828">
        <ele>2145.7</ele>
        <time>2022-02-25T11:35:32Z</time>
      </trkpt>
      <trkpt lat="44.80064" lon="6.97828">
        <ele>2145.7</ele>
        <time>2022-02-25T11:35:33Z</time>
      </trkpt>
      <trkpt lat="44.80064" lon="6.97828">
        <ele>2145.7</ele>
        <time>2022-02-25T11:35:34Z</time>
      </trkpt>
      <trkpt lat="44.80064" lon="6.97828">
        <ele>2145.7</ele>
        <time>2022-02-25T11:35:35Z</time>
      </trkpt>
      <trkpt lat="44.80064" lon="6.97831">
        <ele>2146.9</ele>
        <time>2022-02-25T11:35:36Z</time>
      </trkpt>
      <trkpt lat="44.80064" lon="6.97831">
        <ele>2146.9</ele>
        <time>2022-02-25T11:35:37Z</time>
      </trkpt>
      <trkpt lat="44.80064" lon="6.97831">
        <ele>2146.9</ele>
        <time>2022-02-25T11:35:38Z</time>
      </trkpt>
      <trkpt lat="44.80064" lon="6.97831">
        <ele>2146.9</ele>
        <time>2022-02-25T11:35:39Z</time>
      </trkpt>
      <trkpt lat="44.80064" lon="6.97831">
        <ele>2146.9</ele>
        <time>2022-02-25T11:35:40Z</time>
      </trkpt>
      <trkpt lat="44.80064" lon="6.97831">
        <ele>2146.9</ele>
        <time>2022-02-25T11:35:41Z</time>
      </trkpt>
      <trkpt lat="44.80064" lon="6.97834">
        <ele>2147.7</ele>
        <time>2022-02-25T11:35:42Z</time>
      </trkpt>
      <trkpt lat="44.80064" lon="6.97834">
        <ele>2147.7</ele>
        <time>2022-02-25T11:35:43Z</time>
      </trkpt>
      <trkpt lat="44.80063" lon="6.97835">
        <ele>2148.1</ele>
        <time>2022-02-25T11:35:44Z</time>
      </trkpt>
      <trkpt lat="44.80063" lon="6.97835">
        <ele>2148.1</ele>
        <time>2022-02-25T11:35:45Z</time>
      </trkpt>
      <trkpt lat="44.80063" lon="6.97835">
        <ele>2148.1</ele>
        <time>2022-02-25T11:35:46Z</time>
      </trkpt>
      <trkpt lat="44.80063" lon="6.97835">
        <ele>2148.1</ele>
        <time>2022-02-25T11:35:47Z</time>
      </trkpt>
      <trkpt lat="44.80062" lon="6.97839">
        <ele>2148</ele>
        <time>2022-02-25T11:35:48Z</time>
      </trkpt>
      <trkpt lat="44.80062" lon="6.97839">
        <ele>2148</ele>
        <time>2022-02-25T11:35:49Z</time>
      </trkpt>
      <trkpt lat="44.80062" lon="6.97839">
        <ele>2148</ele>
        <time>2022-02-25T11:35:50Z</time>
      </trkpt>
      <trkpt lat="44.80062" lon="6.97839">
        <ele>2148</ele>
        <time>2022-02-25T11:35:51Z</time>
      </trkpt>
      <trkpt lat="44.80062" lon="6.97839">
        <ele>2148</ele>
        <time>2022-02-25T11:35:52Z</time>
      </trkpt>
      <trkpt lat="44.80063" lon="6.97841">
        <ele>2147</ele>
        <time>2022-02-25T11:35:53Z</time>
      </trkpt>
      <trkpt lat="44.80063" lon="6.97841">
        <ele>2147</ele>
        <time>2022-02-25T11:35:54Z</time>
      </trkpt>
      <trkpt lat="44.80062" lon="6.97843">
        <ele>2147.2</ele>
        <time>2022-02-25T11:35:55Z</time>
      </trkpt>
      <trkpt lat="44.80062" lon="6.97843">
        <ele>2147.2</ele>
        <time>2022-02-25T11:35:56Z</time>
      </trkpt>
      <trkpt lat="44.80062" lon="6.97843">
        <ele>2147.2</ele>
        <time>2022-02-25T11:35:57Z</time>
      </trkpt>
      <trkpt lat="44.80062" lon="6.97843">
        <ele>2147.2</ele>
        <time>2022-02-25T11:35:58Z</time>
      </trkpt>
      <trkpt lat="44.80062" lon="6.97843">
        <ele>2147.2</ele>
        <time>2022-02-25T11:35:59Z</time>
      </trkpt>
      <trkpt lat="44.80062" lon="6.97843">
        <ele>2147.2</ele>
        <time>2022-02-25T11:36:00Z</time>
      </trkpt>
      <trkpt lat="44.8006" lon="6.97846">
        <ele>2147.9</ele>
        <time>2022-02-25T11:36:01Z</time>
      </trkpt>
      <trkpt lat="44.8006" lon="6.97846">
        <ele>2147.9</ele>
        <time>2022-02-25T11:36:02Z</time>
      </trkpt>
      <trkpt lat="44.8006" lon="6.97846">
        <ele>2147.9</ele>
        <time>2022-02-25T11:36:03Z</time>
      </trkpt>
      <trkpt lat="44.8006" lon="6.97846">
        <ele>2147.9</ele>
        <time>2022-02-25T11:36:04Z</time>
      </trkpt>
      <trkpt lat="44.8006" lon="6.97846">
        <ele>2147.9</ele>
        <time>2022-02-25T11:36:05Z</time>
      </trkpt>
      <trkpt lat="44.80061" lon="6.97849">
        <ele>2146.7</ele>
        <time>2022-02-25T11:36:06Z</time>
      </trkpt>
      <trkpt lat="44.80061" lon="6.97849">
        <ele>2146.7</ele>
        <time>2022-02-25T11:36:07Z</time>
      </trkpt>
      <trkpt lat="44.80061" lon="6.97849">
        <ele>2146.7</ele>
        <time>2022-02-25T11:36:08Z</time>
      </trkpt>
      <trkpt lat="44.80061" lon="6.97849">
        <ele>2146.7</ele>
        <time>2022-02-25T11:36:09Z</time>
      </trkpt>
      <trkpt lat="44.80061" lon="6.97849">
        <ele>2146.7</ele>
        <time>2022-02-25T11:36:10Z</time>
      </trkpt>
      <trkpt lat="44.80061" lon="6.97849">
        <ele>2146.7</ele>
        <time>2022-02-25T11:36:11Z</time>
      </trkpt>
      <trkpt lat="44.8006" lon="6.97851">
        <ele>2147</ele>
        <time>2022-02-25T11:36:12Z</time>
      </trkpt>
      <trkpt lat="44.8006" lon="6.97851">
        <ele>2147</ele>
        <time>2022-02-25T11:36:13Z</time>
      </trkpt>
      <trkpt lat="44.8006" lon="6.97851">
        <ele>2147</ele>
        <time>2022-02-25T11:36:14Z</time>
      </trkpt>
      <trkpt lat="44.8006" lon="6.97851">
        <ele>2147</ele>
        <time>2022-02-25T11:36:15Z</time>
      </trkpt>
      <trkpt lat="44.80059" lon="6.97853">
        <ele>2147.3</ele>
        <time>2022-02-25T11:36:16Z</time>
      </trkpt>
      <trkpt lat="44.80059" lon="6.97853">
        <ele>2147.3</ele>
        <time>2022-02-25T11:36:17Z</time>
      </trkpt>
      <trkpt lat="44.80059" lon="6.97853">
        <ele>2147.3</ele>
        <time>2022-02-25T11:36:18Z</time>
      </trkpt>
      <trkpt lat="44.80059" lon="6.97853">
        <ele>2147.3</ele>
        <time>2022-02-25T11:36:19Z</time>
      </trkpt>
      <trkpt lat="44.80059" lon="6.97853">
        <ele>2147.3</ele>
        <time>2022-02-25T11:36:20Z</time>
      </trkpt>
      <trkpt lat="44.80059" lon="6.97853">
        <ele>2147.3</ele>
        <time>2022-02-25T11:36:21Z</time>
      </trkpt>
      <trkpt lat="44.80059" lon="6.97853">
        <ele>2147.3</ele>
        <time>2022-02-25T11:36:22Z</time>
      </trkpt>
      <trkpt lat="44.80059" lon="6.97853">
        <ele>2147.3</ele>
        <time>2022-02-25T11:36:23Z</time>
      </trkpt>
      <trkpt lat="44.80059" lon="6.97853">
        <ele>2147.3</ele>
        <time>2022-02-25T11:36:24Z</time>
      </trkpt>
      <trkpt lat="44.80059" lon="6.97853">
        <ele>2147.3</ele>
        <time>2022-02-25T11:36:25Z</time>
      </trkpt>
      <trkpt lat="44.80059" lon="6.97853">
        <ele>2147.3</ele>
        <time>2022-02-25T11:36:26Z</time>
      </trkpt>
      <trkpt lat="44.80059" lon="6.97853">
        <ele>2147.3</ele>
        <time>2022-02-25T11:36:27Z</time>
      </trkpt>
      <trkpt lat="44.80059" lon="6.97853">
        <ele>2147.3</ele>
        <time>2022-02-25T11:36:28Z</time>
      </trkpt>
      <trkpt lat="44.80059" lon="6.97853">
        <ele>2147.3</ele>
        <time>2022-02-25T11:36:29Z</time>
      </trkpt>
      <trkpt lat="44.80059" lon="6.97853">
        <ele>2147.3</ele>
        <time>2022-02-25T11:36:30Z</time>
      </trkpt>
      <trkpt lat="44.80059" lon="6.97853">
        <ele>2147.3</ele>
        <time>2022-02-25T11:36:31Z</time>
      </trkpt>
      <trkpt lat="44.80059" lon="6.97853">
        <ele>2147.3</ele>
        <time>2022-02-25T11:36:32Z</time>
      </trkpt>
      <trkpt lat="44.80058" lon="6.97856">
        <ele>2147.4</ele>
        <time>2022-02-25T11:36:33Z</time>
      </trkpt>
      <trkpt lat="44.80058" lon="6.97856">
        <ele>2147.4</ele>
        <time>2022-02-25T11:36:34Z</time>
      </trkpt>
      <trkpt lat="44.80056" lon="6.97857">
        <ele>2148.5</ele>
        <time>2022-02-25T11:36:35Z</time>
      </trkpt>
      <trkpt lat="44.80056" lon="6.97857">
        <ele>2148.5</ele>
        <time>2022-02-25T11:36:36Z</time>
      </trkpt>
      <trkpt lat="44.80054" lon="6.97859">
        <ele>2149.2</ele>
        <time>2022-02-25T11:36:37Z</time>
      </trkpt>
      <trkpt lat="44.80054" lon="6.97859">
        <ele>2149.2</ele>
        <time>2022-02-25T11:36:38Z</time>
      </trkpt>
      <trkpt lat="44.80053" lon="6.9786">
        <ele>2149.6</ele>
        <time>2022-02-25T11:36:39Z</time>
      </trkpt>
      <trkpt lat="44.80053" lon="6.9786">
        <ele>2149.6</ele>
        <time>2022-02-25T11:36:40Z</time>
      </trkpt>
      <trkpt lat="44.80053" lon="6.9786">
        <ele>2149.6</ele>
        <time>2022-02-25T11:36:41Z</time>
      </trkpt>
      <trkpt lat="44.80052" lon="6.97862">
        <ele>2149.5</ele>
        <time>2022-02-25T11:36:42Z</time>
      </trkpt>
      <trkpt lat="44.80052" lon="6.97862">
        <ele>2149.5</ele>
        <time>2022-02-25T11:36:43Z</time>
      </trkpt>
      <trkpt lat="44.80052" lon="6.97862">
        <ele>2149.5</ele>
        <time>2022-02-25T11:36:44Z</time>
      </trkpt>
      <trkpt lat="44.80052" lon="6.97862">
        <ele>2149.5</ele>
        <time>2022-02-25T11:36:45Z</time>
      </trkpt>
      <trkpt lat="44.8005" lon="6.97864">
        <ele>2149.5</ele>
        <time>2022-02-25T11:36:46Z</time>
      </trkpt>
      <trkpt lat="44.8005" lon="6.97864">
        <ele>2149.5</ele>
        <time>2022-02-25T11:36:47Z</time>
      </trkpt>
      <trkpt lat="44.8005" lon="6.97864">
        <ele>2149.5</ele>
        <time>2022-02-25T11:36:48Z</time>
      </trkpt>
      <trkpt lat="44.80049" lon="6.97866">
        <ele>2149</ele>
        <time>2022-02-25T11:36:49Z</time>
      </trkpt>
      <trkpt lat="44.80049" lon="6.97866">
        <ele>2149</ele>
        <time>2022-02-25T11:36:50Z</time>
      </trkpt>
      <trkpt lat="44.80049" lon="6.97866">
        <ele>2149</ele>
        <time>2022-02-25T11:36:51Z</time>
      </trkpt>
      <trkpt lat="44.80049" lon="6.97866">
        <ele>2149</ele>
        <time>2022-02-25T11:36:52Z</time>
      </trkpt>
      <trkpt lat="44.80047" lon="6.97868">
        <ele>2149.1</ele>
        <time>2022-02-25T11:36:53Z</time>
      </trkpt>
      <trkpt lat="44.80047" lon="6.97868">
        <ele>2149.1</ele>
        <time>2022-02-25T11:36:54Z</time>
      </trkpt>
      <trkpt lat="44.80047" lon="6.97868">
        <ele>2149.1</ele>
        <time>2022-02-25T11:36:55Z</time>
      </trkpt>
      <trkpt lat="44.80047" lon="6.97868">
        <ele>2149.1</ele>
        <time>2022-02-25T11:36:56Z</time>
      </trkpt>
      <trkpt lat="44.80046" lon="6.9787">
        <ele>2148.7</ele>
        <time>2022-02-25T11:36:57Z</time>
      </trkpt>
      <trkpt lat="44.80046" lon="6.9787">
        <ele>2148.7</ele>
        <time>2022-02-25T11:36:58Z</time>
      </trkpt>
      <trkpt lat="44.80046" lon="6.9787">
        <ele>2148.7</ele>
        <time>2022-02-25T11:36:59Z</time>
      </trkpt>
      <trkpt lat="44.80046" lon="6.9787">
        <ele>2148.7</ele>
        <time>2022-02-25T11:37:00Z</time>
      </trkpt>
      <trkpt lat="44.80045" lon="6.97873">
        <ele>2147.8</ele>
        <time>2022-02-25T11:37:01Z</time>
      </trkpt>
      <trkpt lat="44.80045" lon="6.97873">
        <ele>2147.8</ele>
        <time>2022-02-25T11:37:02Z</time>
      </trkpt>
      <trkpt lat="44.80045" lon="6.97873">
        <ele>2147.8</ele>
        <time>2022-02-25T11:37:03Z</time>
      </trkpt>
      <trkpt lat="44.80045" lon="6.97873">
        <ele>2147.8</ele>
        <time>2022-02-25T11:37:04Z</time>
      </trkpt>
      <trkpt lat="44.80044" lon="6.97875">
        <ele>2147.4</ele>
        <time>2022-02-25T11:37:05Z</time>
      </trkpt>
      <trkpt lat="44.80044" lon="6.97875">
        <ele>2147.4</ele>
        <time>2022-02-25T11:37:06Z</time>
      </trkpt>
      <trkpt lat="44.80044" lon="6.97875">
        <ele>2147.4</ele>
        <time>2022-02-25T11:37:07Z</time>
      </trkpt>
      <trkpt lat="44.80044" lon="6.97875">
        <ele>2147.4</ele>
        <time>2022-02-25T11:37:08Z</time>
      </trkpt>
      <trkpt lat="44.80043" lon="6.97877">
        <ele>2147</ele>
        <time>2022-02-25T11:37:09Z</time>
      </trkpt>
      <trkpt lat="44.80043" lon="6.97877">
        <ele>2147</ele>
        <time>2022-02-25T11:37:10Z</time>
      </trkpt>
      <trkpt lat="44.80043" lon="6.97877">
        <ele>2147</ele>
        <time>2022-02-25T11:37:11Z</time>
      </trkpt>
      <trkpt lat="44.80042" lon="6.97879">
        <ele>2146.6</ele>
        <time>2022-02-25T11:37:12Z</time>
      </trkpt>
      <trkpt lat="44.80042" lon="6.97879">
        <ele>2146.6</ele>
        <time>2022-02-25T11:37:13Z</time>
      </trkpt>
      <trkpt lat="44.80042" lon="6.97879">
        <ele>2146.6</ele>
        <time>2022-02-25T11:37:14Z</time>
      </trkpt>
      <trkpt lat="44.80042" lon="6.97879">
        <ele>2146.6</ele>
        <time>2022-02-25T11:37:15Z</time>
      </trkpt>
      <trkpt lat="44.80041" lon="6.97882">
        <ele>2145.8</ele>
        <time>2022-02-25T11:37:16Z</time>
      </trkpt>
      <trkpt lat="44.80041" lon="6.97882">
        <ele>2145.8</ele>
        <time>2022-02-25T11:37:17Z</time>
      </trkpt>
      <trkpt lat="44.80041" lon="6.97882">
        <ele>2145.8</ele>
        <time>2022-02-25T11:37:18Z</time>
      </trkpt>
      <trkpt lat="44.80041" lon="6.97882">
        <ele>2145.8</ele>
        <time>2022-02-25T11:37:19Z</time>
      </trkpt>
      <trkpt lat="44.8004" lon="6.97884">
        <ele>2145.4</ele>
        <time>2022-02-25T11:37:20Z</time>
      </trkpt>
      <trkpt lat="44.8004" lon="6.97884">
        <ele>2145.4</ele>
        <time>2022-02-25T11:37:21Z</time>
      </trkpt>
      <trkpt lat="44.8004" lon="6.97884">
        <ele>2145.4</ele>
        <time>2022-02-25T11:37:22Z</time>
      </trkpt>
      <trkpt lat="44.8004" lon="6.97884">
        <ele>2145.4</ele>
        <time>2022-02-25T11:37:23Z</time>
      </trkpt>
      <trkpt lat="44.8004" lon="6.97884">
        <ele>2145.4</ele>
        <time>2022-02-25T11:37:24Z</time>
      </trkpt>
      <trkpt lat="44.8004" lon="6.97884">
        <ele>2145.4</ele>
        <time>2022-02-25T11:37:25Z</time>
      </trkpt>
      <trkpt lat="44.8004" lon="6.97884">
        <ele>2145.4</ele>
        <time>2022-02-25T11:37:26Z</time>
      </trkpt>
      <trkpt lat="44.8004" lon="6.97884">
        <ele>2145.4</ele>
        <time>2022-02-25T11:37:27Z</time>
      </trkpt>
      <trkpt lat="44.8004" lon="6.97887">
        <ele>2144</ele>
        <time>2022-02-25T11:37:28Z</time>
      </trkpt>
      <trkpt lat="44.8004" lon="6.97887">
        <ele>2144</ele>
        <time>2022-02-25T11:37:29Z</time>
      </trkpt>
      <trkpt lat="44.8004" lon="6.97887">
        <ele>2144</ele>
        <time>2022-02-25T11:37:30Z</time>
      </trkpt>
      <trkpt lat="44.8004" lon="6.97887">
        <ele>2144</ele>
        <time>2022-02-25T11:37:31Z</time>
      </trkpt>
      <trkpt lat="44.80039" lon="6.9789">
        <ele>2143.5</ele>
        <time>2022-02-25T11:37:32Z</time>
      </trkpt>
      <trkpt lat="44.80039" lon="6.9789">
        <ele>2143.5</ele>
        <time>2022-02-25T11:37:33Z</time>
      </trkpt>
      <trkpt lat="44.80039" lon="6.9789">
        <ele>2143.5</ele>
        <time>2022-02-25T11:37:34Z</time>
      </trkpt>
      <trkpt lat="44.80039" lon="6.9789">
        <ele>2143.5</ele>
        <time>2022-02-25T11:37:35Z</time>
      </trkpt>
      <trkpt lat="44.8004" lon="6.97892">
        <ele>2142.6</ele>
        <time>2022-02-25T11:37:36Z</time>
      </trkpt>
      <trkpt lat="44.8004" lon="6.97892">
        <ele>2142.6</ele>
        <time>2022-02-25T11:37:37Z</time>
      </trkpt>
      <trkpt lat="44.8004" lon="6.97892">
        <ele>2142.6</ele>
        <time>2022-02-25T11:37:38Z</time>
      </trkpt>
      <trkpt lat="44.8004" lon="6.97892">
        <ele>2142.6</ele>
        <time>2022-02-25T11:37:39Z</time>
      </trkpt>
      <trkpt lat="44.8004" lon="6.97892">
        <ele>2142.6</ele>
        <time>2022-02-25T11:37:40Z</time>
      </trkpt>
      <trkpt lat="44.8004" lon="6.97892">
        <ele>2142.6</ele>
        <time>2022-02-25T11:37:41Z</time>
      </trkpt>
      <trkpt lat="44.8004" lon="6.97892">
        <ele>2142.6</ele>
        <time>2022-02-25T11:37:42Z</time>
      </trkpt>
      <trkpt lat="44.8004" lon="6.97892">
        <ele>2142.6</ele>
        <time>2022-02-25T11:37:43Z</time>
      </trkpt>
      <trkpt lat="44.8004" lon="6.97892">
        <ele>2142.6</ele>
        <time>2022-02-25T11:37:44Z</time>
      </trkpt>
      <trkpt lat="44.8004" lon="6.97892">
        <ele>2142.6</ele>
        <time>2022-02-25T11:37:45Z</time>
      </trkpt>
      <trkpt lat="44.8004" lon="6.97892">
        <ele>2142.6</ele>
        <time>2022-02-25T11:37:46Z</time>
      </trkpt>
      <trkpt lat="44.80038" lon="6.97895">
        <ele>2143.4</ele>
        <time>2022-02-25T11:37:47Z</time>
      </trkpt>
      <trkpt lat="44.80038" lon="6.97895">
        <ele>2143.4</ele>
        <time>2022-02-25T11:37:48Z</time>
      </trkpt>
      <trkpt lat="44.80038" lon="6.97895">
        <ele>2143.4</ele>
        <time>2022-02-25T11:37:49Z</time>
      </trkpt>
      <trkpt lat="44.80038" lon="6.97895">
        <ele>2143.4</ele>
        <time>2022-02-25T11:37:50Z</time>
      </trkpt>
      <trkpt lat="44.80037" lon="6.97899">
        <ele>2143.3</ele>
        <time>2022-02-25T11:37:51Z</time>
      </trkpt>
      <trkpt lat="44.80037" lon="6.97899">
        <ele>2143.3</ele>
        <time>2022-02-25T11:37:52Z</time>
      </trkpt>
      <trkpt lat="44.80036" lon="6.97901">
        <ele>2143.6</ele>
        <time>2022-02-25T11:37:53Z</time>
      </trkpt>
      <trkpt lat="44.80036" lon="6.97901">
        <ele>2143.6</ele>
        <time>2022-02-25T11:37:54Z</time>
      </trkpt>
      <trkpt lat="44.80036" lon="6.97901">
        <ele>2143.6</ele>
        <time>2022-02-25T11:37:55Z</time>
      </trkpt>
      <trkpt lat="44.80036" lon="6.97901">
        <ele>2143.6</ele>
        <time>2022-02-25T11:37:56Z</time>
      </trkpt>
      <trkpt lat="44.80036" lon="6.97901">
        <ele>2143.6</ele>
        <time>2022-02-25T11:37:57Z</time>
      </trkpt>
      <trkpt lat="44.80036" lon="6.97901">
        <ele>2143.6</ele>
        <time>2022-02-25T11:37:58Z</time>
      </trkpt>
      <trkpt lat="44.80036" lon="6.97903">
        <ele>2143.3</ele>
        <time>2022-02-25T11:37:59Z</time>
      </trkpt>
      <trkpt lat="44.80036" lon="6.97903">
        <ele>2143.3</ele>
        <time>2022-02-25T11:38:00Z</time>
      </trkpt>
      <trkpt lat="44.80034" lon="6.97904">
        <ele>2144.4</ele>
        <time>2022-02-25T11:38:01Z</time>
      </trkpt>
      <trkpt lat="44.80034" lon="6.97904">
        <ele>2144.4</ele>
        <time>2022-02-25T11:38:02Z</time>
      </trkpt>
      <trkpt lat="44.80032" lon="6.97905">
        <ele>2145.5</ele>
        <time>2022-02-25T11:38:03Z</time>
      </trkpt>
      <trkpt lat="44.80032" lon="6.97905">
        <ele>2145.5</ele>
        <time>2022-02-25T11:38:04Z</time>
      </trkpt>
      <trkpt lat="44.80032" lon="6.97905">
        <ele>2145.5</ele>
        <time>2022-02-25T11:38:05Z</time>
      </trkpt>
      <trkpt lat="44.80031" lon="6.97907">
        <ele>2145.7</ele>
        <time>2022-02-25T11:38:06Z</time>
      </trkpt>
      <trkpt lat="44.80031" lon="6.97907">
        <ele>2145.7</ele>
        <time>2022-02-25T11:38:07Z</time>
      </trkpt>
      <trkpt lat="44.80031" lon="6.97907">
        <ele>2145.7</ele>
        <time>2022-02-25T11:38:08Z</time>
      </trkpt>
      <trkpt lat="44.80031" lon="6.97907">
        <ele>2145.7</ele>
        <time>2022-02-25T11:38:09Z</time>
      </trkpt>
      <trkpt lat="44.80029" lon="6.9791">
        <ele>2146.4</ele>
        <time>2022-02-25T11:38:10Z</time>
      </trkpt>
      <trkpt lat="44.80029" lon="6.9791">
        <ele>2146.4</ele>
        <time>2022-02-25T11:38:11Z</time>
      </trkpt>
      <trkpt lat="44.80029" lon="6.9791">
        <ele>2146.4</ele>
        <time>2022-02-25T11:38:12Z</time>
      </trkpt>
      <trkpt lat="44.80028" lon="6.97909">
        <ele>2147.2</ele>
        <time>2022-02-25T11:38:13Z</time>
      </trkpt>
      <trkpt lat="44.80028" lon="6.97909">
        <ele>2147.2</ele>
        <time>2022-02-25T11:38:14Z</time>
      </trkpt>
      <trkpt lat="44.80028" lon="6.97909">
        <ele>2147.2</ele>
        <time>2022-02-25T11:38:15Z</time>
      </trkpt>
      <trkpt lat="44.80028" lon="6.97909">
        <ele>2147.2</ele>
        <time>2022-02-25T11:38:16Z</time>
      </trkpt>
      <trkpt lat="44.80026" lon="6.97908">
        <ele>2148.6</ele>
        <time>2022-02-25T11:38:17Z</time>
      </trkpt>
      <trkpt lat="44.80026" lon="6.97908">
        <ele>2148.6</ele>
        <time>2022-02-25T11:38:18Z</time>
      </trkpt>
      <trkpt lat="44.80026" lon="6.97908">
        <ele>2148.6</ele>
        <time>2022-02-25T11:38:19Z</time>
      </trkpt>
      <trkpt lat="44.80026" lon="6.97908">
        <ele>2148.6</ele>
        <time>2022-02-25T11:38:20Z</time>
      </trkpt>
      <trkpt lat="44.80024" lon="6.97908">
        <ele>2149.7</ele>
        <time>2022-02-25T11:38:21Z</time>
      </trkpt>
      <trkpt lat="44.80024" lon="6.97908">
        <ele>2149.7</ele>
        <time>2022-02-25T11:38:22Z</time>
      </trkpt>
      <trkpt lat="44.80024" lon="6.97908">
        <ele>2149.7</ele>
        <time>2022-02-25T11:38:23Z</time>
      </trkpt>
      <trkpt lat="44.80021" lon="6.97908">
        <ele>2151.4</ele>
        <time>2022-02-25T11:38:24Z</time>
      </trkpt>
      <trkpt lat="44.80021" lon="6.97908">
        <ele>2151.4</ele>
        <time>2022-02-25T11:38:25Z</time>
      </trkpt>
      <trkpt lat="44.80021" lon="6.97908">
        <ele>2151.4</ele>
        <time>2022-02-25T11:38:26Z</time>
      </trkpt>
      <trkpt lat="44.80021" lon="6.97908">
        <ele>2151.4</ele>
        <time>2022-02-25T11:38:27Z</time>
      </trkpt>
      <trkpt lat="44.80021" lon="6.97908">
        <ele>2151.4</ele>
        <time>2022-02-25T11:38:28Z</time>
      </trkpt>
      <trkpt lat="44.80019" lon="6.97907">
        <ele>2152.7</ele>
        <time>2022-02-25T11:38:29Z</time>
      </trkpt>
      <trkpt lat="44.80019" lon="6.97907">
        <ele>2152.7</ele>
        <time>2022-02-25T11:38:30Z</time>
      </trkpt>
      <trkpt lat="44.80019" lon="6.97907">
        <ele>2152.7</ele>
        <time>2022-02-25T11:38:31Z</time>
      </trkpt>
      <trkpt lat="44.80019" lon="6.97907">
        <ele>2152.7</ele>
        <time>2022-02-25T11:38:32Z</time>
      </trkpt>
      <trkpt lat="44.80019" lon="6.97907">
        <ele>2152.7</ele>
        <time>2022-02-25T11:38:33Z</time>
      </trkpt>
      <trkpt lat="44.80019" lon="6.97907">
        <ele>2152.7</ele>
        <time>2022-02-25T11:38:34Z</time>
      </trkpt>
      <trkpt lat="44.80019" lon="6.97907">
        <ele>2152.7</ele>
        <time>2022-02-25T11:38:35Z</time>
      </trkpt>
      <trkpt lat="44.80019" lon="6.97907">
        <ele>2152.7</ele>
        <time>2022-02-25T11:38:36Z</time>
      </trkpt>
      <trkpt lat="44.80019" lon="6.97907">
        <ele>2152.7</ele>
        <time>2022-02-25T11:38:37Z</time>
      </trkpt>
      <trkpt lat="44.80019" lon="6.97907">
        <ele>2152.7</ele>
        <time>2022-02-25T11:38:38Z</time>
      </trkpt>
      <trkpt lat="44.80019" lon="6.97907">
        <ele>2152.7</ele>
        <time>2022-02-25T11:38:39Z</time>
      </trkpt>
      <trkpt lat="44.80019" lon="6.9791">
        <ele>2152.2</ele>
        <time>2022-02-25T11:38:40Z</time>
      </trkpt>
      <trkpt lat="44.80019" lon="6.9791">
        <ele>2152.2</ele>
        <time>2022-02-25T11:38:41Z</time>
      </trkpt>
      <trkpt lat="44.80019" lon="6.9791">
        <ele>2152.2</ele>
        <time>2022-02-25T11:38:42Z</time>
      </trkpt>
      <trkpt lat="44.80019" lon="6.9791">
        <ele>2152.2</ele>
        <time>2022-02-25T11:38:43Z</time>
      </trkpt>
      <trkpt lat="44.80019" lon="6.9791">
        <ele>2152.2</ele>
        <time>2022-02-25T11:38:44Z</time>
      </trkpt>
      <trkpt lat="44.80019" lon="6.9791">
        <ele>2152.2</ele>
        <time>2022-02-25T11:38:45Z</time>
      </trkpt>
      <trkpt lat="44.80019" lon="6.9791">
        <ele>2152.2</ele>
        <time>2022-02-25T11:38:46Z</time>
      </trkpt>
      <trkpt lat="44.80018" lon="6.97914">
        <ele>2152.1</ele>
        <time>2022-02-25T11:38:47Z</time>
      </trkpt>
      <trkpt lat="44.80018" lon="6.97914">
        <ele>2152.1</ele>
        <time>2022-02-25T11:38:48Z</time>
      </trkpt>
      <trkpt lat="44.80016" lon="6.97916">
        <ele>2152.9</ele>
        <time>2022-02-25T11:38:49Z</time>
      </trkpt>
      <trkpt lat="44.80016" lon="6.97916">
        <ele>2152.9</ele>
        <time>2022-02-25T11:38:50Z</time>
      </trkpt>
      <trkpt lat="44.80016" lon="6.97916">
        <ele>2152.9</ele>
        <time>2022-02-25T11:38:51Z</time>
      </trkpt>
      <trkpt lat="44.80016" lon="6.97916">
        <ele>2152.9</ele>
        <time>2022-02-25T11:38:52Z</time>
      </trkpt>
      <trkpt lat="44.80015" lon="6.9792">
        <ele>2153.2</ele>
        <time>2022-02-25T11:38:53Z</time>
      </trkpt>
      <trkpt lat="44.80015" lon="6.9792">
        <ele>2153.2</ele>
        <time>2022-02-25T11:38:54Z</time>
      </trkpt>
      <trkpt lat="44.80015" lon="6.9792">
        <ele>2153.2</ele>
        <time>2022-02-25T11:38:55Z</time>
      </trkpt>
      <trkpt lat="44.80015" lon="6.9792">
        <ele>2153.2</ele>
        <time>2022-02-25T11:38:56Z</time>
      </trkpt>
      <trkpt lat="44.80015" lon="6.9792">
        <ele>2153.2</ele>
        <time>2022-02-25T11:38:57Z</time>
      </trkpt>
      <trkpt lat="44.80014" lon="6.97922">
        <ele>2153.6</ele>
        <time>2022-02-25T11:38:58Z</time>
      </trkpt>
      <trkpt lat="44.80014" lon="6.97922">
        <ele>2153.6</ele>
        <time>2022-02-25T11:38:59Z</time>
      </trkpt>
      <trkpt lat="44.80014" lon="6.97922">
        <ele>2153.6</ele>
        <time>2022-02-25T11:39:00Z</time>
      </trkpt>
      <trkpt lat="44.80013" lon="6.97924">
        <ele>2154.1</ele>
        <time>2022-02-25T11:39:01Z</time>
      </trkpt>
      <trkpt lat="44.80013" lon="6.97924">
        <ele>2154.1</ele>
        <time>2022-02-25T11:39:02Z</time>
      </trkpt>
      <trkpt lat="44.80013" lon="6.97924">
        <ele>2154.1</ele>
        <time>2022-02-25T11:39:03Z</time>
      </trkpt>
      <trkpt lat="44.80013" lon="6.97924">
        <ele>2154.1</ele>
        <time>2022-02-25T11:39:04Z</time>
      </trkpt>
      <trkpt lat="44.80012" lon="6.97927">
        <ele>2154.6</ele>
        <time>2022-02-25T11:39:05Z</time>
      </trkpt>
      <trkpt lat="44.80012" lon="6.97927">
        <ele>2154.6</ele>
        <time>2022-02-25T11:39:06Z</time>
      </trkpt>
      <trkpt lat="44.80012" lon="6.97927">
        <ele>2154.6</ele>
        <time>2022-02-25T11:39:07Z</time>
      </trkpt>
      <trkpt lat="44.80011" lon="6.97929">
        <ele>2155</ele>
        <time>2022-02-25T11:39:08Z</time>
      </trkpt>
      <trkpt lat="44.80011" lon="6.97929">
        <ele>2155</ele>
        <time>2022-02-25T11:39:09Z</time>
      </trkpt>
      <trkpt lat="44.80011" lon="6.97929">
        <ele>2155</ele>
        <time>2022-02-25T11:39:10Z</time>
      </trkpt>
      <trkpt lat="44.80011" lon="6.97929">
        <ele>2155</ele>
        <time>2022-02-25T11:39:11Z</time>
      </trkpt>
      <trkpt lat="44.80011" lon="6.97932">
        <ele>2154.9</ele>
        <time>2022-02-25T11:39:12Z</time>
      </trkpt>
      <trkpt lat="44.80011" lon="6.97932">
        <ele>2154.9</ele>
        <time>2022-02-25T11:39:13Z</time>
      </trkpt>
      <trkpt lat="44.80011" lon="6.97932">
        <ele>2154.9</ele>
        <time>2022-02-25T11:39:14Z</time>
      </trkpt>
      <trkpt lat="44.80011" lon="6.97932">
        <ele>2154.9</ele>
        <time>2022-02-25T11:39:15Z</time>
      </trkpt>
      <trkpt lat="44.80011" lon="6.97932">
        <ele>2154.9</ele>
        <time>2022-02-25T11:39:16Z</time>
      </trkpt>
      <trkpt lat="44.80011" lon="6.97935">
        <ele>2154.7</ele>
        <time>2022-02-25T11:39:17Z</time>
      </trkpt>
      <trkpt lat="44.80011" lon="6.97935">
        <ele>2154.7</ele>
        <time>2022-02-25T11:39:18Z</time>
      </trkpt>
      <trkpt lat="44.80011" lon="6.97935">
        <ele>2154.7</ele>
        <time>2022-02-25T11:39:19Z</time>
      </trkpt>
      <trkpt lat="44.80011" lon="6.97935">
        <ele>2154.7</ele>
        <time>2022-02-25T11:39:20Z</time>
      </trkpt>
      <trkpt lat="44.8001" lon="6.97938">
        <ele>2155.2</ele>
        <time>2022-02-25T11:39:21Z</time>
      </trkpt>
      <trkpt lat="44.8001" lon="6.97938">
        <ele>2155.2</ele>
        <time>2022-02-25T11:39:22Z</time>
      </trkpt>
      <trkpt lat="44.80008" lon="6.9794">
        <ele>2156.3</ele>
        <time>2022-02-25T11:39:23Z</time>
      </trkpt>
      <trkpt lat="44.80008" lon="6.9794">
        <ele>2156.3</ele>
        <time>2022-02-25T11:39:24Z</time>
      </trkpt>
      <trkpt lat="44.80006" lon="6.97942">
        <ele>2157.4</ele>
        <time>2022-02-25T11:39:25Z</time>
      </trkpt>
      <trkpt lat="44.80006" lon="6.97942">
        <ele>2157.4</ele>
        <time>2022-02-25T11:39:26Z</time>
      </trkpt>
      <trkpt lat="44.80006" lon="6.97942">
        <ele>2157.4</ele>
        <time>2022-02-25T11:39:27Z</time>
      </trkpt>
      <trkpt lat="44.80005" lon="6.97945">
        <ele>2157.9</ele>
        <time>2022-02-25T11:39:28Z</time>
      </trkpt>
      <trkpt lat="44.80005" lon="6.97945">
        <ele>2157.9</ele>
        <time>2022-02-25T11:39:29Z</time>
      </trkpt>
      <trkpt lat="44.80005" lon="6.97945">
        <ele>2157.9</ele>
        <time>2022-02-25T11:39:30Z</time>
      </trkpt>
      <trkpt lat="44.80003" lon="6.97947">
        <ele>2159</ele>
        <time>2022-02-25T11:39:31Z</time>
      </trkpt>
      <trkpt lat="44.80003" lon="6.97947">
        <ele>2159</ele>
        <time>2022-02-25T11:39:32Z</time>
      </trkpt>
      <trkpt lat="44.80003" lon="6.97947">
        <ele>2159</ele>
        <time>2022-02-25T11:39:33Z</time>
      </trkpt>
      <trkpt lat="44.80003" lon="6.97947">
        <ele>2159</ele>
        <time>2022-02-25T11:39:34Z</time>
      </trkpt>
      <trkpt lat="44.80003" lon="6.97947">
        <ele>2159</ele>
        <time>2022-02-25T11:39:35Z</time>
      </trkpt>
      <trkpt lat="44.80003" lon="6.9795">
        <ele>2158.8</ele>
        <time>2022-02-25T11:39:36Z</time>
      </trkpt>
      <trkpt lat="44.80003" lon="6.9795">
        <ele>2158.8</ele>
        <time>2022-02-25T11:39:37Z</time>
      </trkpt>
      <trkpt lat="44.80003" lon="6.9795">
        <ele>2158.8</ele>
        <time>2022-02-25T11:39:38Z</time>
      </trkpt>
      <trkpt lat="44.80002" lon="6.97953">
        <ele>2159.2</ele>
        <time>2022-02-25T11:39:39Z</time>
      </trkpt>
      <trkpt lat="44.80002" lon="6.97953">
        <ele>2159.2</ele>
        <time>2022-02-25T11:39:40Z</time>
      </trkpt>
      <trkpt lat="44.80002" lon="6.97953">
        <ele>2159.2</ele>
        <time>2022-02-25T11:39:41Z</time>
      </trkpt>
      <trkpt lat="44.80001" lon="6.97955">
        <ele>2159.6</ele>
        <time>2022-02-25T11:39:42Z</time>
      </trkpt>
      <trkpt lat="44.80001" lon="6.97955">
        <ele>2159.6</ele>
        <time>2022-02-25T11:39:43Z</time>
      </trkpt>
      <trkpt lat="44.80001" lon="6.97955">
        <ele>2159.6</ele>
        <time>2022-02-25T11:39:44Z</time>
      </trkpt>
      <trkpt lat="44.80001" lon="6.97955">
        <ele>2159.6</ele>
        <time>2022-02-25T11:39:45Z</time>
      </trkpt>
      <trkpt lat="44.80001" lon="6.97955">
        <ele>2159.6</ele>
        <time>2022-02-25T11:39:46Z</time>
      </trkpt>
      <trkpt lat="44.8" lon="6.97958">
        <ele>2160</ele>
        <time>2022-02-25T11:39:47Z</time>
      </trkpt>
      <trkpt lat="44.8" lon="6.97958">
        <ele>2160</ele>
        <time>2022-02-25T11:39:48Z</time>
      </trkpt>
      <trkpt lat="44.8" lon="6.97958">
        <ele>2160</ele>
        <time>2022-02-25T11:39:49Z</time>
      </trkpt>
      <trkpt lat="44.79999" lon="6.9796">
        <ele>2160.4</ele>
        <time>2022-02-25T11:39:50Z</time>
      </trkpt>
      <trkpt lat="44.79999" lon="6.9796">
        <ele>2160.4</ele>
        <time>2022-02-25T11:39:51Z</time>
      </trkpt>
      <trkpt lat="44.79999" lon="6.9796">
        <ele>2160.4</ele>
        <time>2022-02-25T11:39:52Z</time>
      </trkpt>
      <trkpt lat="44.79999" lon="6.9796">
        <ele>2160.4</ele>
        <time>2022-02-25T11:39:53Z</time>
      </trkpt>
      <trkpt lat="44.79999" lon="6.9796">
        <ele>2160.4</ele>
        <time>2022-02-25T11:39:54Z</time>
      </trkpt>
      <trkpt lat="44.79998" lon="6.97963">
        <ele>2160.7</ele>
        <time>2022-02-25T11:39:55Z</time>
      </trkpt>
      <trkpt lat="44.79998" lon="6.97963">
        <ele>2160.7</ele>
        <time>2022-02-25T11:39:56Z</time>
      </trkpt>
      <trkpt lat="44.79997" lon="6.97965">
        <ele>2161.1</ele>
        <time>2022-02-25T11:39:57Z</time>
      </trkpt>
      <trkpt lat="44.79997" lon="6.97965">
        <ele>2161.1</ele>
        <time>2022-02-25T11:39:58Z</time>
      </trkpt>
      <trkpt lat="44.79997" lon="6.97965">
        <ele>2161.1</ele>
        <time>2022-02-25T11:39:59Z</time>
      </trkpt>
      <trkpt lat="44.79997" lon="6.97965">
        <ele>2161.1</ele>
        <time>2022-02-25T11:40:00Z</time>
      </trkpt>
      <trkpt lat="44.79996" lon="6.97968">
        <ele>2161.4</ele>
        <time>2022-02-25T11:40:01Z</time>
      </trkpt>
      <trkpt lat="44.79996" lon="6.97968">
        <ele>2161.4</ele>
        <time>2022-02-25T11:40:02Z</time>
      </trkpt>
      <trkpt lat="44.79996" lon="6.97968">
        <ele>2161.4</ele>
        <time>2022-02-25T11:40:03Z</time>
      </trkpt>
      <trkpt lat="44.79995" lon="6.97971">
        <ele>2161.8</ele>
        <time>2022-02-25T11:40:04Z</time>
      </trkpt>
      <trkpt lat="44.79995" lon="6.97971">
        <ele>2161.8</ele>
        <time>2022-02-25T11:40:05Z</time>
      </trkpt>
      <trkpt lat="44.79994" lon="6.97974">
        <ele>2162.2</ele>
        <time>2022-02-25T11:40:06Z</time>
      </trkpt>
      <trkpt lat="44.79994" lon="6.97974">
        <ele>2162.2</ele>
        <time>2022-02-25T11:40:07Z</time>
      </trkpt>
      <trkpt lat="44.79994" lon="6.97974">
        <ele>2162.2</ele>
        <time>2022-02-25T11:40:08Z</time>
      </trkpt>
      <trkpt lat="44.79994" lon="6.97974">
        <ele>2162.2</ele>
        <time>2022-02-25T11:40:09Z</time>
      </trkpt>
      <trkpt lat="44.79996" lon="6.97976">
        <ele>2161</ele>
        <time>2022-02-25T11:40:10Z</time>
      </trkpt>
      <trkpt lat="44.79996" lon="6.97976">
        <ele>2161</ele>
        <time>2022-02-25T11:40:11Z</time>
      </trkpt>
      <trkpt lat="44.79996" lon="6.97976">
        <ele>2161</ele>
        <time>2022-02-25T11:40:12Z</time>
      </trkpt>
      <trkpt lat="44.79994" lon="6.97979">
        <ele>2161.9</ele>
        <time>2022-02-25T11:40:13Z</time>
      </trkpt>
      <trkpt lat="44.79994" lon="6.97979">
        <ele>2161.9</ele>
        <time>2022-02-25T11:40:14Z</time>
      </trkpt>
      <trkpt lat="44.79993" lon="6.97981">
        <ele>2162.4</ele>
        <time>2022-02-25T11:40:15Z</time>
      </trkpt>
      <trkpt lat="44.79993" lon="6.97981">
        <ele>2162.4</ele>
        <time>2022-02-25T11:40:16Z</time>
      </trkpt>
      <trkpt lat="44.79991" lon="6.97983">
        <ele>2163.3</ele>
        <time>2022-02-25T11:40:17Z</time>
      </trkpt>
      <trkpt lat="44.79991" lon="6.97983">
        <ele>2163.3</ele>
        <time>2022-02-25T11:40:18Z</time>
      </trkpt>
      <trkpt lat="44.79989" lon="6.97985">
        <ele>2164.3</ele>
        <time>2022-02-25T11:40:19Z</time>
      </trkpt>
      <trkpt lat="44.79989" lon="6.97985">
        <ele>2164.3</ele>
        <time>2022-02-25T11:40:20Z</time>
      </trkpt>
      <trkpt lat="44.79989" lon="6.97985">
        <ele>2164.3</ele>
        <time>2022-02-25T11:40:21Z</time>
      </trkpt>
      <trkpt lat="44.79989" lon="6.97985">
        <ele>2164.3</ele>
        <time>2022-02-25T11:40:22Z</time>
      </trkpt>
      <trkpt lat="44.79989" lon="6.97985">
        <ele>2164.3</ele>
        <time>2022-02-25T11:40:23Z</time>
      </trkpt>
      <trkpt lat="44.79989" lon="6.97987">
        <ele>2164.2</ele>
        <time>2022-02-25T11:40:24Z</time>
      </trkpt>
      <trkpt lat="44.79989" lon="6.97987">
        <ele>2164.2</ele>
        <time>2022-02-25T11:40:25Z</time>
      </trkpt>
      <trkpt lat="44.79989" lon="6.97987">
        <ele>2164.2</ele>
        <time>2022-02-25T11:40:26Z</time>
      </trkpt>
      <trkpt lat="44.79987" lon="6.97989">
        <ele>2165.1</ele>
        <time>2022-02-25T11:40:27Z</time>
      </trkpt>
      <trkpt lat="44.79987" lon="6.97989">
        <ele>2165.1</ele>
        <time>2022-02-25T11:40:28Z</time>
      </trkpt>
      <trkpt lat="44.79985" lon="6.97991">
        <ele>2166.1</ele>
        <time>2022-02-25T11:40:29Z</time>
      </trkpt>
      <trkpt lat="44.79985" lon="6.97991">
        <ele>2166.1</ele>
        <time>2022-02-25T11:40:30Z</time>
      </trkpt>
      <trkpt lat="44.79985" lon="6.97991">
        <ele>2166.1</ele>
        <time>2022-02-25T11:40:31Z</time>
      </trkpt>
      <trkpt lat="44.79985" lon="6.97994">
        <ele>2165.9</ele>
        <time>2022-02-25T11:40:32Z</time>
      </trkpt>
      <trkpt lat="44.79985" lon="6.97994">
        <ele>2165.9</ele>
        <time>2022-02-25T11:40:33Z</time>
      </trkpt>
      <trkpt lat="44.79985" lon="6.97994">
        <ele>2165.9</ele>
        <time>2022-02-25T11:40:34Z</time>
      </trkpt>
      <trkpt lat="44.79985" lon="6.97997">
        <ele>2165.7</ele>
        <time>2022-02-25T11:40:35Z</time>
      </trkpt>
      <trkpt lat="44.79985" lon="6.97997">
        <ele>2165.7</ele>
        <time>2022-02-25T11:40:36Z</time>
      </trkpt>
      <trkpt lat="44.79985" lon="6.97997">
        <ele>2165.7</ele>
        <time>2022-02-25T11:40:37Z</time>
      </trkpt>
      <trkpt lat="44.79984" lon="6.98">
        <ele>2166.1</ele>
        <time>2022-02-25T11:40:38Z</time>
      </trkpt>
      <trkpt lat="44.79984" lon="6.98">
        <ele>2166.1</ele>
        <time>2022-02-25T11:40:39Z</time>
      </trkpt>
      <trkpt lat="44.79984" lon="6.98">
        <ele>2166.1</ele>
        <time>2022-02-25T11:40:40Z</time>
      </trkpt>
      <trkpt lat="44.79983" lon="6.98002">
        <ele>2166.4</ele>
        <time>2022-02-25T11:40:41Z</time>
      </trkpt>
      <trkpt lat="44.79983" lon="6.98002">
        <ele>2166.4</ele>
        <time>2022-02-25T11:40:42Z</time>
      </trkpt>
      <trkpt lat="44.79983" lon="6.98002">
        <ele>2166.4</ele>
        <time>2022-02-25T11:40:43Z</time>
      </trkpt>
      <trkpt lat="44.79984" lon="6.98005">
        <ele>2165.6</ele>
        <time>2022-02-25T11:40:44Z</time>
      </trkpt>
      <trkpt lat="44.79984" lon="6.98005">
        <ele>2165.6</ele>
        <time>2022-02-25T11:40:45Z</time>
      </trkpt>
      <trkpt lat="44.79984" lon="6.98005">
        <ele>2165.6</ele>
        <time>2022-02-25T11:40:46Z</time>
      </trkpt>
      <trkpt lat="44.79982" lon="6.98007">
        <ele>2166.4</ele>
        <time>2022-02-25T11:40:47Z</time>
      </trkpt>
      <trkpt lat="44.79982" lon="6.98007">
        <ele>2166.4</ele>
        <time>2022-02-25T11:40:48Z</time>
      </trkpt>
      <trkpt lat="44.79982" lon="6.98007">
        <ele>2166.4</ele>
        <time>2022-02-25T11:40:49Z</time>
      </trkpt>
      <trkpt lat="44.79982" lon="6.98011">
        <ele>2166</ele>
        <time>2022-02-25T11:40:50Z</time>
      </trkpt>
      <trkpt lat="44.79982" lon="6.98011">
        <ele>2166</ele>
        <time>2022-02-25T11:40:51Z</time>
      </trkpt>
      <trkpt lat="44.79982" lon="6.98011">
        <ele>2166</ele>
        <time>2022-02-25T11:40:52Z</time>
      </trkpt>
      <trkpt lat="44.79982" lon="6.98014">
        <ele>2165.7</ele>
        <time>2022-02-25T11:40:53Z</time>
      </trkpt>
      <trkpt lat="44.79982" lon="6.98014">
        <ele>2165.7</ele>
        <time>2022-02-25T11:40:54Z</time>
      </trkpt>
      <trkpt lat="44.79982" lon="6.98014">
        <ele>2165.7</ele>
        <time>2022-02-25T11:40:55Z</time>
      </trkpt>
      <trkpt lat="44.79982" lon="6.98014">
        <ele>2165.7</ele>
        <time>2022-02-25T11:40:56Z</time>
      </trkpt>
      <trkpt lat="44.79982" lon="6.98017">
        <ele>2165.5</ele>
        <time>2022-02-25T11:40:57Z</time>
      </trkpt>
      <trkpt lat="44.79982" lon="6.98017">
        <ele>2165.5</ele>
        <time>2022-02-25T11:40:58Z</time>
      </trkpt>
      <trkpt lat="44.79982" lon="6.98017">
        <ele>2165.5</ele>
        <time>2022-02-25T11:40:59Z</time>
      </trkpt>
      <trkpt lat="44.79982" lon="6.9802">
        <ele>2165.2</ele>
        <time>2022-02-25T11:41:00Z</time>
      </trkpt>
      <trkpt lat="44.79982" lon="6.9802">
        <ele>2165.2</ele>
        <time>2022-02-25T11:41:01Z</time>
      </trkpt>
      <trkpt lat="44.79982" lon="6.9802">
        <ele>2165.2</ele>
        <time>2022-02-25T11:41:02Z</time>
      </trkpt>
      <trkpt lat="44.79982" lon="6.9802">
        <ele>2165.2</ele>
        <time>2022-02-25T11:41:03Z</time>
      </trkpt>
      <trkpt lat="44.79981" lon="6.98023">
        <ele>2165.4</ele>
        <time>2022-02-25T11:41:04Z</time>
      </trkpt>
      <trkpt lat="44.79981" lon="6.98023">
        <ele>2165.4</ele>
        <time>2022-02-25T11:41:05Z</time>
      </trkpt>
      <trkpt lat="44.79981" lon="6.98023">
        <ele>2165.4</ele>
        <time>2022-02-25T11:41:06Z</time>
      </trkpt>
      <trkpt lat="44.79981" lon="6.98026">
        <ele>2165.1</ele>
        <time>2022-02-25T11:41:07Z</time>
      </trkpt>
      <trkpt lat="44.79981" lon="6.98026">
        <ele>2165.1</ele>
        <time>2022-02-25T11:41:08Z</time>
      </trkpt>
      <trkpt lat="44.79981" lon="6.98026">
        <ele>2165.1</ele>
        <time>2022-02-25T11:41:09Z</time>
      </trkpt>
      <trkpt lat="44.79981" lon="6.9803">
        <ele>2164.7</ele>
        <time>2022-02-25T11:41:10Z</time>
      </trkpt>
      <trkpt lat="44.79981" lon="6.9803">
        <ele>2164.7</ele>
        <time>2022-02-25T11:41:11Z</time>
      </trkpt>
      <trkpt lat="44.79981" lon="6.9803">
        <ele>2164.7</ele>
        <time>2022-02-25T11:41:12Z</time>
      </trkpt>
      <trkpt lat="44.79981" lon="6.9803">
        <ele>2164.7</ele>
        <time>2022-02-25T11:41:13Z</time>
      </trkpt>
      <trkpt lat="44.7998" lon="6.98033">
        <ele>2164.8</ele>
        <time>2022-02-25T11:41:14Z</time>
      </trkpt>
      <trkpt lat="44.7998" lon="6.98033">
        <ele>2164.8</ele>
        <time>2022-02-25T11:41:15Z</time>
      </trkpt>
      <trkpt lat="44.7998" lon="6.98033">
        <ele>2164.8</ele>
        <time>2022-02-25T11:41:16Z</time>
      </trkpt>
      <trkpt lat="44.79979" lon="6.98035">
        <ele>2165.1</ele>
        <time>2022-02-25T11:41:17Z</time>
      </trkpt>
      <trkpt lat="44.79979" lon="6.98035">
        <ele>2165.1</ele>
        <time>2022-02-25T11:41:18Z</time>
      </trkpt>
      <trkpt lat="44.79979" lon="6.98035">
        <ele>2165.1</ele>
        <time>2022-02-25T11:41:19Z</time>
      </trkpt>
      <trkpt lat="44.79979" lon="6.98035">
        <ele>2165.1</ele>
        <time>2022-02-25T11:41:20Z</time>
      </trkpt>
      <trkpt lat="44.79978" lon="6.98037">
        <ele>2165.4</ele>
        <time>2022-02-25T11:41:21Z</time>
      </trkpt>
      <trkpt lat="44.79978" lon="6.98037">
        <ele>2165.4</ele>
        <time>2022-02-25T11:41:22Z</time>
      </trkpt>
      <trkpt lat="44.79978" lon="6.98037">
        <ele>2165.4</ele>
        <time>2022-02-25T11:41:23Z</time>
      </trkpt>
      <trkpt lat="44.79978" lon="6.98037">
        <ele>2165.4</ele>
        <time>2022-02-25T11:41:24Z</time>
      </trkpt>
      <trkpt lat="44.79978" lon="6.98037">
        <ele>2165.4</ele>
        <time>2022-02-25T11:41:25Z</time>
      </trkpt>
      <trkpt lat="44.79976" lon="6.98039">
        <ele>2166.1</ele>
        <time>2022-02-25T11:41:26Z</time>
      </trkpt>
      <trkpt lat="44.79976" lon="6.98039">
        <ele>2166.1</ele>
        <time>2022-02-25T11:41:27Z</time>
      </trkpt>
      <trkpt lat="44.79975" lon="6.98041">
        <ele>2166.3</ele>
        <time>2022-02-25T11:41:28Z</time>
      </trkpt>
      <trkpt lat="44.79975" lon="6.98041">
        <ele>2166.3</ele>
        <time>2022-02-25T11:41:29Z</time>
      </trkpt>
      <trkpt lat="44.79973" lon="6.98043">
        <ele>2167</ele>
        <time>2022-02-25T11:41:30Z</time>
      </trkpt>
      <trkpt lat="44.79973" lon="6.98043">
        <ele>2167</ele>
        <time>2022-02-25T11:41:31Z</time>
      </trkpt>
      <trkpt lat="44.79972" lon="6.98046">
        <ele>2167.1</ele>
        <time>2022-02-25T11:41:32Z</time>
      </trkpt>
      <trkpt lat="44.79972" lon="6.98046">
        <ele>2167.1</ele>
        <time>2022-02-25T11:41:33Z</time>
      </trkpt>
      <trkpt lat="44.7997" lon="6.98048">
        <ele>2167.8</ele>
        <time>2022-02-25T11:41:34Z</time>
      </trkpt>
      <trkpt lat="44.7997" lon="6.98048">
        <ele>2167.8</ele>
        <time>2022-02-25T11:41:35Z</time>
      </trkpt>
      <trkpt lat="44.7997" lon="6.98048">
        <ele>2167.8</ele>
        <time>2022-02-25T11:41:36Z</time>
      </trkpt>
      <trkpt lat="44.79969" lon="6.98051">
        <ele>2167.9</ele>
        <time>2022-02-25T11:41:37Z</time>
      </trkpt>
      <trkpt lat="44.79969" lon="6.98051">
        <ele>2167.9</ele>
        <time>2022-02-25T11:41:38Z</time>
      </trkpt>
      <trkpt lat="44.79968" lon="6.98053">
        <ele>2168.1</ele>
        <time>2022-02-25T11:41:39Z</time>
      </trkpt>
      <trkpt lat="44.79968" lon="6.98053">
        <ele>2168.1</ele>
        <time>2022-02-25T11:41:40Z</time>
      </trkpt>
      <trkpt lat="44.79968" lon="6.98053">
        <ele>2168.1</ele>
        <time>2022-02-25T11:41:41Z</time>
      </trkpt>
      <trkpt lat="44.79967" lon="6.98056">
        <ele>2168.2</ele>
        <time>2022-02-25T11:41:42Z</time>
      </trkpt>
      <trkpt lat="44.79967" lon="6.98056">
        <ele>2168.2</ele>
        <time>2022-02-25T11:41:43Z</time>
      </trkpt>
      <trkpt lat="44.79965" lon="6.98058">
        <ele>2168.9</ele>
        <time>2022-02-25T11:41:44Z</time>
      </trkpt>
      <trkpt lat="44.79965" lon="6.98058">
        <ele>2168.9</ele>
        <time>2022-02-25T11:41:45Z</time>
      </trkpt>
      <trkpt lat="44.79965" lon="6.98058">
        <ele>2168.9</ele>
        <time>2022-02-25T11:41:46Z</time>
      </trkpt>
      <trkpt lat="44.79964" lon="6.9806">
        <ele>2169.1</ele>
        <time>2022-02-25T11:41:47Z</time>
      </trkpt>
      <trkpt lat="44.79964" lon="6.9806">
        <ele>2169.1</ele>
        <time>2022-02-25T11:41:48Z</time>
      </trkpt>
      <trkpt lat="44.79963" lon="6.98062">
        <ele>2169.3</ele>
        <time>2022-02-25T11:41:49Z</time>
      </trkpt>
      <trkpt lat="44.79963" lon="6.98062">
        <ele>2169.3</ele>
        <time>2022-02-25T11:41:50Z</time>
      </trkpt>
      <trkpt lat="44.79963" lon="6.98062">
        <ele>2169.3</ele>
        <time>2022-02-25T11:41:51Z</time>
      </trkpt>
      <trkpt lat="44.79963" lon="6.98062">
        <ele>2169.3</ele>
        <time>2022-02-25T11:41:52Z</time>
      </trkpt>
      <trkpt lat="44.79961" lon="6.98064">
        <ele>2169.9</ele>
        <time>2022-02-25T11:41:53Z</time>
      </trkpt>
      <trkpt lat="44.79961" lon="6.98064">
        <ele>2169.9</ele>
        <time>2022-02-25T11:41:54Z</time>
      </trkpt>
      <trkpt lat="44.79961" lon="6.98064">
        <ele>2169.9</ele>
        <time>2022-02-25T11:41:55Z</time>
      </trkpt>
      <trkpt lat="44.79959" lon="6.98066">
        <ele>2170.6</ele>
        <time>2022-02-25T11:41:56Z</time>
      </trkpt>
      <trkpt lat="44.79959" lon="6.98066">
        <ele>2170.6</ele>
        <time>2022-02-25T11:41:57Z</time>
      </trkpt>
      <trkpt lat="44.79959" lon="6.98066">
        <ele>2170.6</ele>
        <time>2022-02-25T11:41:58Z</time>
      </trkpt>
      <trkpt lat="44.79959" lon="6.98066">
        <ele>2170.6</ele>
        <time>2022-02-25T11:41:59Z</time>
      </trkpt>
      <trkpt lat="44.79958" lon="6.9807">
        <ele>2170.6</ele>
        <time>2022-02-25T11:42:00Z</time>
      </trkpt>
      <trkpt lat="44.79958" lon="6.9807">
        <ele>2170.6</ele>
        <time>2022-02-25T11:42:01Z</time>
      </trkpt>
      <trkpt lat="44.79958" lon="6.9807">
        <ele>2170.6</ele>
        <time>2022-02-25T11:42:02Z</time>
      </trkpt>
      <trkpt lat="44.79958" lon="6.9807">
        <ele>2170.6</ele>
        <time>2022-02-25T11:42:03Z</time>
      </trkpt>
      <trkpt lat="44.79957" lon="6.98073">
        <ele>2170.7</ele>
        <time>2022-02-25T11:42:04Z</time>
      </trkpt>
      <trkpt lat="44.79957" lon="6.98073">
        <ele>2170.7</ele>
        <time>2022-02-25T11:42:05Z</time>
      </trkpt>
      <trkpt lat="44.79957" lon="6.98073">
        <ele>2170.7</ele>
        <time>2022-02-25T11:42:06Z</time>
      </trkpt>
      <trkpt lat="44.79955" lon="6.98075">
        <ele>2171.3</ele>
        <time>2022-02-25T11:42:07Z</time>
      </trkpt>
      <trkpt lat="44.79955" lon="6.98075">
        <ele>2171.3</ele>
        <time>2022-02-25T11:42:08Z</time>
      </trkpt>
      <trkpt lat="44.79955" lon="6.98075">
        <ele>2171.3</ele>
        <time>2022-02-25T11:42:09Z</time>
      </trkpt>
      <trkpt lat="44.79954" lon="6.98078">
        <ele>2171.4</ele>
        <time>2022-02-25T11:42:10Z</time>
      </trkpt>
      <trkpt lat="44.79954" lon="6.98078">
        <ele>2171.4</ele>
        <time>2022-02-25T11:42:11Z</time>
      </trkpt>
      <trkpt lat="44.79954" lon="6.98078">
        <ele>2171.4</ele>
        <time>2022-02-25T11:42:12Z</time>
      </trkpt>
      <trkpt lat="44.79954" lon="6.98078">
        <ele>2171.4</ele>
        <time>2022-02-25T11:42:13Z</time>
      </trkpt>
      <trkpt lat="44.79954" lon="6.98081">
        <ele>2171.1</ele>
        <time>2022-02-25T11:42:14Z</time>
      </trkpt>
      <trkpt lat="44.79954" lon="6.98081">
        <ele>2171.1</ele>
        <time>2022-02-25T11:42:15Z</time>
      </trkpt>
      <trkpt lat="44.79954" lon="6.98081">
        <ele>2171.1</ele>
        <time>2022-02-25T11:42:16Z</time>
      </trkpt>
      <trkpt lat="44.79953" lon="6.98084">
        <ele>2171.2</ele>
        <time>2022-02-25T11:42:17Z</time>
      </trkpt>
      <trkpt lat="44.79953" lon="6.98084">
        <ele>2171.2</ele>
        <time>2022-02-25T11:42:18Z</time>
      </trkpt>
      <trkpt lat="44.79951" lon="6.98086">
        <ele>2172</ele>
        <time>2022-02-25T11:42:19Z</time>
      </trkpt>
      <trkpt lat="44.79951" lon="6.98086">
        <ele>2172</ele>
        <time>2022-02-25T11:42:20Z</time>
      </trkpt>
      <trkpt lat="44.79951" lon="6.98086">
        <ele>2172</ele>
        <time>2022-02-25T11:42:21Z</time>
      </trkpt>
      <trkpt lat="44.7995" lon="6.98088">
        <ele>2172.2</ele>
        <time>2022-02-25T11:42:22Z</time>
      </trkpt>
      <trkpt lat="44.7995" lon="6.98088">
        <ele>2172.2</ele>
        <time>2022-02-25T11:42:23Z</time>
      </trkpt>
      <trkpt lat="44.7995" lon="6.98088">
        <ele>2172.2</ele>
        <time>2022-02-25T11:42:24Z</time>
      </trkpt>
      <trkpt lat="44.79949" lon="6.98091">
        <ele>2172.4</ele>
        <time>2022-02-25T11:42:25Z</time>
      </trkpt>
      <trkpt lat="44.79949" lon="6.98091">
        <ele>2172.4</ele>
        <time>2022-02-25T11:42:26Z</time>
      </trkpt>
      <trkpt lat="44.79949" lon="6.98091">
        <ele>2172.4</ele>
        <time>2022-02-25T11:42:27Z</time>
      </trkpt>
      <trkpt lat="44.79949" lon="6.98091">
        <ele>2172.4</ele>
        <time>2022-02-25T11:42:28Z</time>
      </trkpt>
      <trkpt lat="44.79948" lon="6.98093">
        <ele>2172.7</ele>
        <time>2022-02-25T11:42:29Z</time>
      </trkpt>
      <trkpt lat="44.79948" lon="6.98093">
        <ele>2172.7</ele>
        <time>2022-02-25T11:42:30Z</time>
      </trkpt>
      <trkpt lat="44.79948" lon="6.98093">
        <ele>2172.7</ele>
        <time>2022-02-25T11:42:31Z</time>
      </trkpt>
      <trkpt lat="44.79948" lon="6.98093">
        <ele>2172.7</ele>
        <time>2022-02-25T11:42:32Z</time>
      </trkpt>
      <trkpt lat="44.79947" lon="6.98096">
        <ele>2172.9</ele>
        <time>2022-02-25T11:42:33Z</time>
      </trkpt>
      <trkpt lat="44.79947" lon="6.98096">
        <ele>2172.9</ele>
        <time>2022-02-25T11:42:34Z</time>
      </trkpt>
      <trkpt lat="44.79947" lon="6.98096">
        <ele>2172.9</ele>
        <time>2022-02-25T11:42:35Z</time>
      </trkpt>
      <trkpt lat="44.79946" lon="6.98098">
        <ele>2173.2</ele>
        <time>2022-02-25T11:42:36Z</time>
      </trkpt>
      <trkpt lat="44.79946" lon="6.98098">
        <ele>2173.2</ele>
        <time>2022-02-25T11:42:37Z</time>
      </trkpt>
      <trkpt lat="44.79946" lon="6.98098">
        <ele>2173.2</ele>
        <time>2022-02-25T11:42:38Z</time>
      </trkpt>
      <trkpt lat="44.79946" lon="6.98098">
        <ele>2173.2</ele>
        <time>2022-02-25T11:42:39Z</time>
      </trkpt>
      <trkpt lat="44.79945" lon="6.98102">
        <ele>2173.4</ele>
        <time>2022-02-25T11:42:40Z</time>
      </trkpt>
      <trkpt lat="44.79945" lon="6.98102">
        <ele>2173.4</ele>
        <time>2022-02-25T11:42:41Z</time>
      </trkpt>
      <trkpt lat="44.79945" lon="6.98102">
        <ele>2173.4</ele>
        <time>2022-02-25T11:42:42Z</time>
      </trkpt>
      <trkpt lat="44.79945" lon="6.98102">
        <ele>2173.4</ele>
        <time>2022-02-25T11:42:43Z</time>
      </trkpt>
      <trkpt lat="44.79944" lon="6.98105">
        <ele>2173.6</ele>
        <time>2022-02-25T11:42:44Z</time>
      </trkpt>
      <trkpt lat="44.79944" lon="6.98105">
        <ele>2173.6</ele>
        <time>2022-02-25T11:42:45Z</time>
      </trkpt>
      <trkpt lat="44.79944" lon="6.98105">
        <ele>2173.6</ele>
        <time>2022-02-25T11:42:46Z</time>
      </trkpt>
      <trkpt lat="44.79942" lon="6.98107">
        <ele>2174.4</ele>
        <time>2022-02-25T11:42:47Z</time>
      </trkpt>
      <trkpt lat="44.79942" lon="6.98107">
        <ele>2174.4</ele>
        <time>2022-02-25T11:42:48Z</time>
      </trkpt>
      <trkpt lat="44.79942" lon="6.98107">
        <ele>2174.4</ele>
        <time>2022-02-25T11:42:49Z</time>
      </trkpt>
      <trkpt lat="44.79942" lon="6.9811">
        <ele>2174.2</ele>
        <time>2022-02-25T11:42:50Z</time>
      </trkpt>
      <trkpt lat="44.79942" lon="6.9811">
        <ele>2174.2</ele>
        <time>2022-02-25T11:42:51Z</time>
      </trkpt>
      <trkpt lat="44.79941" lon="6.98112">
        <ele>2174.6</ele>
        <time>2022-02-25T11:42:52Z</time>
      </trkpt>
      <trkpt lat="44.79941" lon="6.98112">
        <ele>2174.6</ele>
        <time>2022-02-25T11:42:53Z</time>
      </trkpt>
      <trkpt lat="44.79941" lon="6.98112">
        <ele>2174.6</ele>
        <time>2022-02-25T11:42:54Z</time>
      </trkpt>
      <trkpt lat="44.79941" lon="6.98114">
        <ele>2174.4</ele>
        <time>2022-02-25T11:42:55Z</time>
      </trkpt>
      <trkpt lat="44.79941" lon="6.98114">
        <ele>2174.4</ele>
        <time>2022-02-25T11:42:56Z</time>
      </trkpt>
      <trkpt lat="44.79941" lon="6.98114">
        <ele>2174.4</ele>
        <time>2022-02-25T11:42:57Z</time>
      </trkpt>
      <trkpt lat="44.7994" lon="6.98117">
        <ele>2174.7</ele>
        <time>2022-02-25T11:42:58Z</time>
      </trkpt>
      <trkpt lat="44.7994" lon="6.98117">
        <ele>2174.7</ele>
        <time>2022-02-25T11:42:59Z</time>
      </trkpt>
      <trkpt lat="44.7994" lon="6.98117">
        <ele>2174.7</ele>
        <time>2022-02-25T11:43:00Z</time>
      </trkpt>
      <trkpt lat="44.7994" lon="6.98117">
        <ele>2174.7</ele>
        <time>2022-02-25T11:43:01Z</time>
      </trkpt>
      <trkpt lat="44.7994" lon="6.98117">
        <ele>2174.7</ele>
        <time>2022-02-25T11:43:02Z</time>
      </trkpt>
      <trkpt lat="44.79939" lon="6.9812">
        <ele>2175</ele>
        <time>2022-02-25T11:43:03Z</time>
      </trkpt>
      <trkpt lat="44.79939" lon="6.9812">
        <ele>2175</ele>
        <time>2022-02-25T11:43:04Z</time>
      </trkpt>
      <trkpt lat="44.79939" lon="6.9812">
        <ele>2175</ele>
        <time>2022-02-25T11:43:05Z</time>
      </trkpt>
      <trkpt lat="44.79938" lon="6.98123">
        <ele>2175.4</ele>
        <time>2022-02-25T11:43:06Z</time>
      </trkpt>
      <trkpt lat="44.79938" lon="6.98123">
        <ele>2175.4</ele>
        <time>2022-02-25T11:43:07Z</time>
      </trkpt>
      <trkpt lat="44.79935" lon="6.98125">
        <ele>2176.8</ele>
        <time>2022-02-25T11:43:08Z</time>
      </trkpt>
      <trkpt lat="44.79935" lon="6.98125">
        <ele>2176.8</ele>
        <time>2022-02-25T11:43:09Z</time>
      </trkpt>
      <trkpt lat="44.79935" lon="6.98125">
        <ele>2176.8</ele>
        <time>2022-02-25T11:43:10Z</time>
      </trkpt>
      <trkpt lat="44.79934" lon="6.98127">
        <ele>2177.2</ele>
        <time>2022-02-25T11:43:11Z</time>
      </trkpt>
      <trkpt lat="44.79934" lon="6.98127">
        <ele>2177.2</ele>
        <time>2022-02-25T11:43:12Z</time>
      </trkpt>
      <trkpt lat="44.79933" lon="6.9813">
        <ele>2177.6</ele>
        <time>2022-02-25T11:43:13Z</time>
      </trkpt>
      <trkpt lat="44.79933" lon="6.9813">
        <ele>2177.6</ele>
        <time>2022-02-25T11:43:14Z</time>
      </trkpt>
      <trkpt lat="44.79933" lon="6.9813">
        <ele>2177.6</ele>
        <time>2022-02-25T11:43:15Z</time>
      </trkpt>
      <trkpt lat="44.79933" lon="6.98133">
        <ele>2177.4</ele>
        <time>2022-02-25T11:43:16Z</time>
      </trkpt>
      <trkpt lat="44.79933" lon="6.98133">
        <ele>2177.4</ele>
        <time>2022-02-25T11:43:17Z</time>
      </trkpt>
      <trkpt lat="44.79933" lon="6.98133">
        <ele>2177.4</ele>
        <time>2022-02-25T11:43:18Z</time>
      </trkpt>
      <trkpt lat="44.79933" lon="6.98136">
        <ele>2177.3</ele>
        <time>2022-02-25T11:43:19Z</time>
      </trkpt>
      <trkpt lat="44.79933" lon="6.98136">
        <ele>2177.3</ele>
        <time>2022-02-25T11:43:20Z</time>
      </trkpt>
      <trkpt lat="44.79933" lon="6.98136">
        <ele>2177.3</ele>
        <time>2022-02-25T11:43:21Z</time>
      </trkpt>
      <trkpt lat="44.79933" lon="6.98136">
        <ele>2177.3</ele>
        <time>2022-02-25T11:43:22Z</time>
      </trkpt>
      <trkpt lat="44.79933" lon="6.98139">
        <ele>2177.2</ele>
        <time>2022-02-25T11:43:23Z</time>
      </trkpt>
      <trkpt lat="44.79933" lon="6.98139">
        <ele>2177.2</ele>
        <time>2022-02-25T11:43:24Z</time>
      </trkpt>
      <trkpt lat="44.79933" lon="6.98139">
        <ele>2177.2</ele>
        <time>2022-02-25T11:43:25Z</time>
      </trkpt>
      <trkpt lat="44.79933" lon="6.98139">
        <ele>2177.2</ele>
        <time>2022-02-25T11:43:26Z</time>
      </trkpt>
      <trkpt lat="44.7993" lon="6.98142">
        <ele>2178.9</ele>
        <time>2022-02-25T11:43:27Z</time>
      </trkpt>
      <trkpt lat="44.79929" lon="6.98144">
        <ele>2179.4</ele>
        <time>2022-02-25T11:43:28Z</time>
      </trkpt>
      <trkpt lat="44.79929" lon="6.98144">
        <ele>2179.4</ele>
        <time>2022-02-25T11:43:29Z</time>
      </trkpt>
      <trkpt lat="44.79928" lon="6.98146">
        <ele>2180</ele>
        <time>2022-02-25T11:43:30Z</time>
      </trkpt>
      <trkpt lat="44.79928" lon="6.98146">
        <ele>2180</ele>
        <time>2022-02-25T11:43:31Z</time>
      </trkpt>
      <trkpt lat="44.79928" lon="6.98146">
        <ele>2180</ele>
        <time>2022-02-25T11:43:32Z</time>
      </trkpt>
      <trkpt lat="44.79927" lon="6.98149">
        <ele>2180.6</ele>
        <time>2022-02-25T11:43:33Z</time>
      </trkpt>
      <trkpt lat="44.79927" lon="6.98149">
        <ele>2180.6</ele>
        <time>2022-02-25T11:43:34Z</time>
      </trkpt>
      <trkpt lat="44.79927" lon="6.98149">
        <ele>2180.6</ele>
        <time>2022-02-25T11:43:35Z</time>
      </trkpt>
      <trkpt lat="44.79925" lon="6.98152">
        <ele>2181.8</ele>
        <time>2022-02-25T11:43:36Z</time>
      </trkpt>
      <trkpt lat="44.79925" lon="6.98152">
        <ele>2181.8</ele>
        <time>2022-02-25T11:43:37Z</time>
      </trkpt>
      <trkpt lat="44.79925" lon="6.98154">
        <ele>2181.9</ele>
        <time>2022-02-25T11:43:38Z</time>
      </trkpt>
      <trkpt lat="44.79925" lon="6.98154">
        <ele>2181.9</ele>
        <time>2022-02-25T11:43:39Z</time>
      </trkpt>
      <trkpt lat="44.79925" lon="6.98154">
        <ele>2181.9</ele>
        <time>2022-02-25T11:43:40Z</time>
      </trkpt>
      <trkpt lat="44.79925" lon="6.98154">
        <ele>2181.9</ele>
        <time>2022-02-25T11:43:41Z</time>
      </trkpt>
      <trkpt lat="44.79925" lon="6.98157">
        <ele>2182</ele>
        <time>2022-02-25T11:43:42Z</time>
      </trkpt>
      <trkpt lat="44.79925" lon="6.98157">
        <ele>2182</ele>
        <time>2022-02-25T11:43:43Z</time>
      </trkpt>
      <trkpt lat="44.79925" lon="6.98157">
        <ele>2182</ele>
        <time>2022-02-25T11:43:44Z</time>
      </trkpt>
      <trkpt lat="44.79924" lon="6.9816">
        <ele>2182.6</ele>
        <time>2022-02-25T11:43:45Z</time>
      </trkpt>
      <trkpt lat="44.79924" lon="6.9816">
        <ele>2182.6</ele>
        <time>2022-02-25T11:43:46Z</time>
      </trkpt>
      <trkpt lat="44.79924" lon="6.9816">
        <ele>2182.6</ele>
        <time>2022-02-25T11:43:47Z</time>
      </trkpt>
      <trkpt lat="44.79925" lon="6.98163">
        <ele>2182.1</ele>
        <time>2022-02-25T11:43:48Z</time>
      </trkpt>
      <trkpt lat="44.79925" lon="6.98163">
        <ele>2182.1</ele>
        <time>2022-02-25T11:43:49Z</time>
      </trkpt>
      <trkpt lat="44.79925" lon="6.98163">
        <ele>2182.1</ele>
        <time>2022-02-25T11:43:50Z</time>
      </trkpt>
      <trkpt lat="44.79924" lon="6.98166">
        <ele>2182.8</ele>
        <time>2022-02-25T11:43:51Z</time>
      </trkpt>
      <trkpt lat="44.79924" lon="6.98166">
        <ele>2182.8</ele>
        <time>2022-02-25T11:43:52Z</time>
      </trkpt>
      <trkpt lat="44.79924" lon="6.98166">
        <ele>2182.8</ele>
        <time>2022-02-25T11:43:53Z</time>
      </trkpt>
      <trkpt lat="44.79924" lon="6.98166">
        <ele>2182.8</ele>
        <time>2022-02-25T11:43:54Z</time>
      </trkpt>
      <trkpt lat="44.79924" lon="6.98166">
        <ele>2182.8</ele>
        <time>2022-02-25T11:43:55Z</time>
      </trkpt>
      <trkpt lat="44.79924" lon="6.98169">
        <ele>2182.8</ele>
        <time>2022-02-25T11:43:56Z</time>
      </trkpt>
      <trkpt lat="44.79924" lon="6.98169">
        <ele>2182.8</ele>
        <time>2022-02-25T11:43:57Z</time>
      </trkpt>
      <trkpt lat="44.79924" lon="6.98169">
        <ele>2182.8</ele>
        <time>2022-02-25T11:43:58Z</time>
      </trkpt>
      <trkpt lat="44.79923" lon="6.98171">
        <ele>2183.3</ele>
        <time>2022-02-25T11:43:59Z</time>
      </trkpt>
      <trkpt lat="44.79923" lon="6.98171">
        <ele>2183.3</ele>
        <time>2022-02-25T11:44:00Z</time>
      </trkpt>
      <trkpt lat="44.79923" lon="6.98171">
        <ele>2183.3</ele>
        <time>2022-02-25T11:44:01Z</time>
      </trkpt>
      <trkpt lat="44.79922" lon="6.98174">
        <ele>2183.9</ele>
        <time>2022-02-25T11:44:02Z</time>
      </trkpt>
      <trkpt lat="44.79922" lon="6.98174">
        <ele>2183.9</ele>
        <time>2022-02-25T11:44:03Z</time>
      </trkpt>
      <trkpt lat="44.79922" lon="6.98174">
        <ele>2183.9</ele>
        <time>2022-02-25T11:44:04Z</time>
      </trkpt>
      <trkpt lat="44.79922" lon="6.98174">
        <ele>2183.9</ele>
        <time>2022-02-25T11:44:05Z</time>
      </trkpt>
      <trkpt lat="44.79922" lon="6.98177">
        <ele>2183.9</ele>
        <time>2022-02-25T11:44:06Z</time>
      </trkpt>
      <trkpt lat="44.79922" lon="6.98177">
        <ele>2183.9</ele>
        <time>2022-02-25T11:44:07Z</time>
      </trkpt>
      <trkpt lat="44.79922" lon="6.98177">
        <ele>2183.9</ele>
        <time>2022-02-25T11:44:08Z</time>
      </trkpt>
      <trkpt lat="44.79921" lon="6.98179">
        <ele>2184.4</ele>
        <time>2022-02-25T11:44:09Z</time>
      </trkpt>
      <trkpt lat="44.79921" lon="6.98179">
        <ele>2184.4</ele>
        <time>2022-02-25T11:44:10Z</time>
      </trkpt>
      <trkpt lat="44.79921" lon="6.98179">
        <ele>2184.4</ele>
        <time>2022-02-25T11:44:11Z</time>
      </trkpt>
      <trkpt lat="44.79921" lon="6.98182">
        <ele>2184.4</ele>
        <time>2022-02-25T11:44:12Z</time>
      </trkpt>
      <trkpt lat="44.79921" lon="6.98182">
        <ele>2184.4</ele>
        <time>2022-02-25T11:44:13Z</time>
      </trkpt>
      <trkpt lat="44.79921" lon="6.98182">
        <ele>2184.4</ele>
        <time>2022-02-25T11:44:14Z</time>
      </trkpt>
      <trkpt lat="44.79921" lon="6.98185">
        <ele>2184.4</ele>
        <time>2022-02-25T11:44:15Z</time>
      </trkpt>
      <trkpt lat="44.79921" lon="6.98185">
        <ele>2184.4</ele>
        <time>2022-02-25T11:44:16Z</time>
      </trkpt>
      <trkpt lat="44.79921" lon="6.98185">
        <ele>2184.4</ele>
        <time>2022-02-25T11:44:17Z</time>
      </trkpt>
      <trkpt lat="44.79919" lon="6.98187">
        <ele>2185.6</ele>
        <time>2022-02-25T11:44:18Z</time>
      </trkpt>
      <trkpt lat="44.79919" lon="6.98187">
        <ele>2185.6</ele>
        <time>2022-02-25T11:44:19Z</time>
      </trkpt>
      <trkpt lat="44.79919" lon="6.98187">
        <ele>2185.6</ele>
        <time>2022-02-25T11:44:20Z</time>
      </trkpt>
      <trkpt lat="44.79917" lon="6.98189">
        <ele>2186.8</ele>
        <time>2022-02-25T11:44:21Z</time>
      </trkpt>
      <trkpt lat="44.79917" lon="6.98189">
        <ele>2186.8</ele>
        <time>2022-02-25T11:44:22Z</time>
      </trkpt>
      <trkpt lat="44.79917" lon="6.98191">
        <ele>2186.8</ele>
        <time>2022-02-25T11:44:23Z</time>
      </trkpt>
      <trkpt lat="44.79917" lon="6.98191">
        <ele>2186.8</ele>
        <time>2022-02-25T11:44:24Z</time>
      </trkpt>
      <trkpt lat="44.79917" lon="6.98191">
        <ele>2186.8</ele>
        <time>2022-02-25T11:44:25Z</time>
      </trkpt>
      <trkpt lat="44.79916" lon="6.98194">
        <ele>2187.3</ele>
        <time>2022-02-25T11:44:26Z</time>
      </trkpt>
      <trkpt lat="44.79916" lon="6.98194">
        <ele>2187.3</ele>
        <time>2022-02-25T11:44:27Z</time>
      </trkpt>
      <trkpt lat="44.79916" lon="6.98194">
        <ele>2187.3</ele>
        <time>2022-02-25T11:44:28Z</time>
      </trkpt>
      <trkpt lat="44.79916" lon="6.98194">
        <ele>2187.3</ele>
        <time>2022-02-25T11:44:29Z</time>
      </trkpt>
      <trkpt lat="44.79915" lon="6.98197">
        <ele>2187.5</ele>
        <time>2022-02-25T11:44:30Z</time>
      </trkpt>
      <trkpt lat="44.79915" lon="6.98197">
        <ele>2187.5</ele>
        <time>2022-02-25T11:44:31Z</time>
      </trkpt>
      <trkpt lat="44.79915" lon="6.98197">
        <ele>2187.5</ele>
        <time>2022-02-25T11:44:32Z</time>
      </trkpt>
      <trkpt lat="44.79914" lon="6.982">
        <ele>2187.5</ele>
        <time>2022-02-25T11:44:33Z</time>
      </trkpt>
      <trkpt lat="44.79914" lon="6.982">
        <ele>2187.5</ele>
        <time>2022-02-25T11:44:34Z</time>
      </trkpt>
      <trkpt lat="44.79913" lon="6.98203">
        <ele>2187.5</ele>
        <time>2022-02-25T11:44:35Z</time>
      </trkpt>
      <trkpt lat="44.79913" lon="6.98203">
        <ele>2187.5</ele>
        <time>2022-02-25T11:44:36Z</time>
      </trkpt>
      <trkpt lat="44.79911" lon="6.98205">
        <ele>2188.2</ele>
        <time>2022-02-25T11:44:37Z</time>
      </trkpt>
      <trkpt lat="44.79911" lon="6.98205">
        <ele>2188.2</ele>
        <time>2022-02-25T11:44:38Z</time>
      </trkpt>
      <trkpt lat="44.79911" lon="6.98205">
        <ele>2188.2</ele>
        <time>2022-02-25T11:44:39Z</time>
      </trkpt>
      <trkpt lat="44.79911" lon="6.98207">
        <ele>2187.9</ele>
        <time>2022-02-25T11:44:40Z</time>
      </trkpt>
      <trkpt lat="44.79911" lon="6.98207">
        <ele>2187.9</ele>
        <time>2022-02-25T11:44:41Z</time>
      </trkpt>
      <trkpt lat="44.79911" lon="6.98207">
        <ele>2187.9</ele>
        <time>2022-02-25T11:44:42Z</time>
      </trkpt>
      <trkpt lat="44.79911" lon="6.98207">
        <ele>2187.9</ele>
        <time>2022-02-25T11:44:43Z</time>
      </trkpt>
      <trkpt lat="44.79908" lon="6.98208">
        <ele>2189.1</ele>
        <time>2022-02-25T11:44:44Z</time>
      </trkpt>
      <trkpt lat="44.79908" lon="6.98208">
        <ele>2189.1</ele>
        <time>2022-02-25T11:44:45Z</time>
      </trkpt>
      <trkpt lat="44.79908" lon="6.98208">
        <ele>2189.1</ele>
        <time>2022-02-25T11:44:46Z</time>
      </trkpt>
      <trkpt lat="44.79906" lon="6.9821">
        <ele>2189.7</ele>
        <time>2022-02-25T11:44:47Z</time>
      </trkpt>
      <trkpt lat="44.79906" lon="6.9821">
        <ele>2189.7</ele>
        <time>2022-02-25T11:44:48Z</time>
      </trkpt>
      <trkpt lat="44.79905" lon="6.98211">
        <ele>2190</ele>
        <time>2022-02-25T11:44:49Z</time>
      </trkpt>
      <trkpt lat="44.79905" lon="6.98211">
        <ele>2190</ele>
        <time>2022-02-25T11:44:50Z</time>
      </trkpt>
      <trkpt lat="44.79905" lon="6.98211">
        <ele>2190</ele>
        <time>2022-02-25T11:44:51Z</time>
      </trkpt>
      <trkpt lat="44.79902" lon="6.98213">
        <ele>2191</ele>
        <time>2022-02-25T11:44:52Z</time>
      </trkpt>
      <trkpt lat="44.79902" lon="6.98213">
        <ele>2191</ele>
        <time>2022-02-25T11:44:53Z</time>
      </trkpt>
      <trkpt lat="44.79902" lon="6.98213">
        <ele>2191</ele>
        <time>2022-02-25T11:44:54Z</time>
      </trkpt>
      <trkpt lat="44.79901" lon="6.98214">
        <ele>2191.3</ele>
        <time>2022-02-25T11:44:55Z</time>
      </trkpt>
      <trkpt lat="44.79901" lon="6.98214">
        <ele>2191.3</ele>
        <time>2022-02-25T11:44:56Z</time>
      </trkpt>
      <trkpt lat="44.79901" lon="6.98214">
        <ele>2191.3</ele>
        <time>2022-02-25T11:44:57Z</time>
      </trkpt>
      <trkpt lat="44.79898" lon="6.98216">
        <ele>2192.3</ele>
        <time>2022-02-25T11:44:58Z</time>
      </trkpt>
      <trkpt lat="44.79898" lon="6.98216">
        <ele>2192.3</ele>
        <time>2022-02-25T11:44:59Z</time>
      </trkpt>
      <trkpt lat="44.79898" lon="6.98216">
        <ele>2192.3</ele>
        <time>2022-02-25T11:45:00Z</time>
      </trkpt>
      <trkpt lat="44.79898" lon="6.98216">
        <ele>2192.3</ele>
        <time>2022-02-25T11:45:01Z</time>
      </trkpt>
      <trkpt lat="44.79896" lon="6.98215">
        <ele>2193.4</ele>
        <time>2022-02-25T11:45:02Z</time>
      </trkpt>
      <trkpt lat="44.79896" lon="6.98215">
        <ele>2193.4</ele>
        <time>2022-02-25T11:45:03Z</time>
      </trkpt>
      <trkpt lat="44.79896" lon="6.98215">
        <ele>2193.4</ele>
        <time>2022-02-25T11:45:04Z</time>
      </trkpt>
      <trkpt lat="44.79893" lon="6.98216">
        <ele>2194.5</ele>
        <time>2022-02-25T11:45:05Z</time>
      </trkpt>
      <trkpt lat="44.79893" lon="6.98216">
        <ele>2194.5</ele>
        <time>2022-02-25T11:45:06Z</time>
      </trkpt>
      <trkpt lat="44.79893" lon="6.98216">
        <ele>2194.5</ele>
        <time>2022-02-25T11:45:07Z</time>
      </trkpt>
      <trkpt lat="44.79893" lon="6.98216">
        <ele>2194.5</ele>
        <time>2022-02-25T11:45:08Z</time>
      </trkpt>
      <trkpt lat="44.79893" lon="6.98216">
        <ele>2194.5</ele>
        <time>2022-02-25T11:45:09Z</time>
      </trkpt>
      <trkpt lat="44.79893" lon="6.98216">
        <ele>2194.5</ele>
        <time>2022-02-25T11:45:10Z</time>
      </trkpt>
      <trkpt lat="44.79892" lon="6.98218">
        <ele>2194.5</ele>
        <time>2022-02-25T11:45:11Z</time>
      </trkpt>
      <trkpt lat="44.79892" lon="6.98218">
        <ele>2194.5</ele>
        <time>2022-02-25T11:45:12Z</time>
      </trkpt>
      <trkpt lat="44.79892" lon="6.98218">
        <ele>2194.5</ele>
        <time>2022-02-25T11:45:13Z</time>
      </trkpt>
      <trkpt lat="44.79892" lon="6.98218">
        <ele>2194.5</ele>
        <time>2022-02-25T11:45:14Z</time>
      </trkpt>
      <trkpt lat="44.7989" lon="6.98216">
        <ele>2195.8</ele>
        <time>2022-02-25T11:45:15Z</time>
      </trkpt>
      <trkpt lat="44.7989" lon="6.98216">
        <ele>2195.8</ele>
        <time>2022-02-25T11:45:16Z</time>
      </trkpt>
      <trkpt lat="44.7989" lon="6.98216">
        <ele>2195.8</ele>
        <time>2022-02-25T11:45:17Z</time>
      </trkpt>
      <trkpt lat="44.7989" lon="6.98216">
        <ele>2195.8</ele>
        <time>2022-02-25T11:45:18Z</time>
      </trkpt>
      <trkpt lat="44.79887" lon="6.98216">
        <ele>2196.8</ele>
        <time>2022-02-25T11:45:19Z</time>
      </trkpt>
      <trkpt lat="44.79887" lon="6.98216">
        <ele>2196.8</ele>
        <time>2022-02-25T11:45:20Z</time>
      </trkpt>
      <trkpt lat="44.79885" lon="6.98217">
        <ele>2197.1</ele>
        <time>2022-02-25T11:45:21Z</time>
      </trkpt>
      <trkpt lat="44.79885" lon="6.98217">
        <ele>2197.1</ele>
        <time>2022-02-25T11:45:22Z</time>
      </trkpt>
      <trkpt lat="44.79885" lon="6.98217">
        <ele>2197.1</ele>
        <time>2022-02-25T11:45:23Z</time>
      </trkpt>
      <trkpt lat="44.79882" lon="6.98218">
        <ele>2197.6</ele>
        <time>2022-02-25T11:45:24Z</time>
      </trkpt>
      <trkpt lat="44.79882" lon="6.98218">
        <ele>2197.6</ele>
        <time>2022-02-25T11:45:25Z</time>
      </trkpt>
      <trkpt lat="44.79882" lon="6.98218">
        <ele>2197.6</ele>
        <time>2022-02-25T11:45:26Z</time>
      </trkpt>
      <trkpt lat="44.79882" lon="6.98218">
        <ele>2197.6</ele>
        <time>2022-02-25T11:45:27Z</time>
      </trkpt>
      <trkpt lat="44.79879" lon="6.98219">
        <ele>2198.1</ele>
        <time>2022-02-25T11:45:28Z</time>
      </trkpt>
      <trkpt lat="44.79879" lon="6.98219">
        <ele>2198.1</ele>
        <time>2022-02-25T11:45:29Z</time>
      </trkpt>
      <trkpt lat="44.79877" lon="6.98219">
        <ele>2198.6</ele>
        <time>2022-02-25T11:45:30Z</time>
      </trkpt>
      <trkpt lat="44.79877" lon="6.98219">
        <ele>2198.6</ele>
        <time>2022-02-25T11:45:31Z</time>
      </trkpt>
      <trkpt lat="44.79877" lon="6.98219">
        <ele>2198.6</ele>
        <time>2022-02-25T11:45:32Z</time>
      </trkpt>
      <trkpt lat="44.79877" lon="6.98219">
        <ele>2198.6</ele>
        <time>2022-02-25T11:45:33Z</time>
      </trkpt>
      <trkpt lat="44.79875" lon="6.9822">
        <ele>2198.9</ele>
        <time>2022-02-25T11:45:34Z</time>
      </trkpt>
      <trkpt lat="44.79875" lon="6.9822">
        <ele>2198.9</ele>
        <time>2022-02-25T11:45:35Z</time>
      </trkpt>
      <trkpt lat="44.79875" lon="6.9822">
        <ele>2198.9</ele>
        <time>2022-02-25T11:45:36Z</time>
      </trkpt>
      <trkpt lat="44.79875" lon="6.9822">
        <ele>2198.9</ele>
        <time>2022-02-25T11:45:37Z</time>
      </trkpt>
      <trkpt lat="44.79875" lon="6.9822">
        <ele>2198.9</ele>
        <time>2022-02-25T11:45:38Z</time>
      </trkpt>
      <trkpt lat="44.79875" lon="6.9822">
        <ele>2198.9</ele>
        <time>2022-02-25T11:45:39Z</time>
      </trkpt>
      <trkpt lat="44.79875" lon="6.9822">
        <ele>2198.9</ele>
        <time>2022-02-25T11:45:40Z</time>
      </trkpt>
      <trkpt lat="44.79873" lon="6.9822">
        <ele>2199.4</ele>
        <time>2022-02-25T11:45:41Z</time>
      </trkpt>
      <trkpt lat="44.79873" lon="6.9822">
        <ele>2199.4</ele>
        <time>2022-02-25T11:45:42Z</time>
      </trkpt>
      <trkpt lat="44.79873" lon="6.9822">
        <ele>2199.4</ele>
        <time>2022-02-25T11:45:43Z</time>
      </trkpt>
      <trkpt lat="44.79873" lon="6.9822">
        <ele>2199.4</ele>
        <time>2022-02-25T11:45:44Z</time>
      </trkpt>
      <trkpt lat="44.79873" lon="6.9822">
        <ele>2199.4</ele>
        <time>2022-02-25T11:45:45Z</time>
      </trkpt>
      <trkpt lat="44.79873" lon="6.9822">
        <ele>2199.4</ele>
        <time>2022-02-25T11:45:46Z</time>
      </trkpt>
      <trkpt lat="44.79873" lon="6.9822">
        <ele>2199.4</ele>
        <time>2022-02-25T11:45:47Z</time>
      </trkpt>
      <trkpt lat="44.79873" lon="6.9822">
        <ele>2199.4</ele>
        <time>2022-02-25T11:45:48Z</time>
      </trkpt>
      <trkpt lat="44.79873" lon="6.9822">
        <ele>2199.4</ele>
        <time>2022-02-25T11:45:49Z</time>
      </trkpt>
      <trkpt lat="44.79873" lon="6.9822">
        <ele>2199.4</ele>
        <time>2022-02-25T11:45:50Z</time>
      </trkpt>
      <trkpt lat="44.79873" lon="6.9822">
        <ele>2199.4</ele>
        <time>2022-02-25T11:45:51Z</time>
      </trkpt>
      <trkpt lat="44.79873" lon="6.9822">
        <ele>2199.4</ele>
        <time>2022-02-25T11:45:52Z</time>
      </trkpt>
      <trkpt lat="44.79873" lon="6.9822">
        <ele>2199.4</ele>
        <time>2022-02-25T11:45:53Z</time>
      </trkpt>
      <trkpt lat="44.79873" lon="6.9822">
        <ele>2199.4</ele>
        <time>2022-02-25T11:45:54Z</time>
      </trkpt>
      <trkpt lat="44.79873" lon="6.9822">
        <ele>2199.4</ele>
        <time>2022-02-25T11:45:55Z</time>
      </trkpt>
      <trkpt lat="44.79873" lon="6.9822">
        <ele>2199.4</ele>
        <time>2022-02-25T11:45:56Z</time>
      </trkpt>
      <trkpt lat="44.79873" lon="6.9822">
        <ele>2199.4</ele>
        <time>2022-02-25T11:45:57Z</time>
      </trkpt>
      <trkpt lat="44.79873" lon="6.9822">
        <ele>2199.4</ele>
        <time>2022-02-25T11:45:58Z</time>
      </trkpt>
      <trkpt lat="44.79873" lon="6.9822">
        <ele>2199.4</ele>
        <time>2022-02-25T11:45:59Z</time>
      </trkpt>
      <trkpt lat="44.79873" lon="6.9822">
        <ele>2199.4</ele>
        <time>2022-02-25T11:46:00Z</time>
      </trkpt>
      <trkpt lat="44.79873" lon="6.9822">
        <ele>2199.4</ele>
        <time>2022-02-25T11:46:01Z</time>
      </trkpt>
      <trkpt lat="44.7987" lon="6.98221">
        <ele>2200</ele>
        <time>2022-02-25T11:46:02Z</time>
      </trkpt>
      <trkpt lat="44.7987" lon="6.98221">
        <ele>2200</ele>
        <time>2022-02-25T11:46:03Z</time>
      </trkpt>
      <trkpt lat="44.7987" lon="6.98221">
        <ele>2200</ele>
        <time>2022-02-25T11:46:04Z</time>
      </trkpt>
      <trkpt lat="44.7987" lon="6.98221">
        <ele>2200</ele>
        <time>2022-02-25T11:46:05Z</time>
      </trkpt>
      <trkpt lat="44.79869" lon="6.98221">
        <ele>2200.2</ele>
        <time>2022-02-25T11:46:06Z</time>
      </trkpt>
      <trkpt lat="44.79869" lon="6.98221">
        <ele>2200.2</ele>
        <time>2022-02-25T11:46:07Z</time>
      </trkpt>
      <trkpt lat="44.79869" lon="6.98221">
        <ele>2200.2</ele>
        <time>2022-02-25T11:46:08Z</time>
      </trkpt>
      <trkpt lat="44.79869" lon="6.98222">
        <ele>2200.1</ele>
        <time>2022-02-25T11:46:09Z</time>
      </trkpt>
      <trkpt lat="44.79869" lon="6.98222">
        <ele>2200.1</ele>
        <time>2022-02-25T11:46:10Z</time>
      </trkpt>
      <trkpt lat="44.79868" lon="6.98222">
        <ele>2200.3</ele>
        <time>2022-02-25T11:46:11Z</time>
      </trkpt>
      <trkpt lat="44.79868" lon="6.98222">
        <ele>2200.3</ele>
        <time>2022-02-25T11:46:12Z</time>
      </trkpt>
      <trkpt lat="44.79868" lon="6.98222">
        <ele>2200.3</ele>
        <time>2022-02-25T11:46:13Z</time>
      </trkpt>
      <trkpt lat="44.79868" lon="6.98222">
        <ele>2200.3</ele>
        <time>2022-02-25T11:46:14Z</time>
      </trkpt>
      <trkpt lat="44.79867" lon="6.98222">
        <ele>2200.6</ele>
        <time>2022-02-25T11:46:15Z</time>
      </trkpt>
      <trkpt lat="44.79867" lon="6.98222">
        <ele>2200.6</ele>
        <time>2022-02-25T11:46:16Z</time>
      </trkpt>
      <trkpt lat="44.79867" lon="6.98222">
        <ele>2200.6</ele>
        <time>2022-02-25T11:46:17Z</time>
      </trkpt>
      <trkpt lat="44.79867" lon="6.98222">
        <ele>2200.6</ele>
        <time>2022-02-25T11:46:18Z</time>
      </trkpt>
      <trkpt lat="44.79867" lon="6.98223">
        <ele>2200.3</ele>
        <time>2022-02-25T11:46:19Z</time>
      </trkpt>
      <trkpt lat="44.79866" lon="6.98223">
        <ele>2200.6</ele>
        <time>2022-02-25T11:46:20Z</time>
      </trkpt>
      <trkpt lat="44.79866" lon="6.98223">
        <ele>2200.6</ele>
        <time>2022-02-25T11:46:21Z</time>
      </trkpt>
      <trkpt lat="44.79866" lon="6.98223">
        <ele>2200.6</ele>
        <time>2022-02-25T11:46:22Z</time>
      </trkpt>
      <trkpt lat="44.79866" lon="6.98223">
        <ele>2200.6</ele>
        <time>2022-02-25T11:46:23Z</time>
      </trkpt>
      <trkpt lat="44.79865" lon="6.98223">
        <ele>2200.8</ele>
        <time>2022-02-25T11:46:24Z</time>
      </trkpt>
      <trkpt lat="44.79865" lon="6.98223">
        <ele>2200.8</ele>
        <time>2022-02-25T11:46:25Z</time>
      </trkpt>
      <trkpt lat="44.79865" lon="6.98223">
        <ele>2200.8</ele>
        <time>2022-02-25T11:46:26Z</time>
      </trkpt>
      <trkpt lat="44.79865" lon="6.98223">
        <ele>2200.8</ele>
        <time>2022-02-25T11:46:27Z</time>
      </trkpt>
      <trkpt lat="44.79865" lon="6.98224">
        <ele>2200.6</ele>
        <time>2022-02-25T11:46:28Z</time>
      </trkpt>
      <trkpt lat="44.79864" lon="6.98224">
        <ele>2200.9</ele>
        <time>2022-02-25T11:46:29Z</time>
      </trkpt>
      <trkpt lat="44.79864" lon="6.98224">
        <ele>2200.9</ele>
        <time>2022-02-25T11:46:30Z</time>
      </trkpt>
      <trkpt lat="44.79864" lon="6.98224">
        <ele>2200.9</ele>
        <time>2022-02-25T11:46:31Z</time>
      </trkpt>
      <trkpt lat="44.79864" lon="6.98224">
        <ele>2200.9</ele>
        <time>2022-02-25T11:46:32Z</time>
      </trkpt>
      <trkpt lat="44.79864" lon="6.98224">
        <ele>2200.9</ele>
        <time>2022-02-25T11:46:33Z</time>
      </trkpt>
      <trkpt lat="44.79863" lon="6.98224">
        <ele>2201.1</ele>
        <time>2022-02-25T11:46:34Z</time>
      </trkpt>
      <trkpt lat="44.79863" lon="6.98224">
        <ele>2201.1</ele>
        <time>2022-02-25T11:46:35Z</time>
      </trkpt>
      <trkpt lat="44.79863" lon="6.98224">
        <ele>2201.1</ele>
        <time>2022-02-25T11:46:36Z</time>
      </trkpt>
      <trkpt lat="44.79861" lon="6.98226">
        <ele>2201.2</ele>
        <time>2022-02-25T11:46:37Z</time>
      </trkpt>
      <trkpt lat="44.79861" lon="6.98226">
        <ele>2201.2</ele>
        <time>2022-02-25T11:46:38Z</time>
      </trkpt>
      <trkpt lat="44.79861" lon="6.98226">
        <ele>2201.2</ele>
        <time>2022-02-25T11:46:39Z</time>
      </trkpt>
      <trkpt lat="44.7986" lon="6.98227">
        <ele>2201.4</ele>
        <time>2022-02-25T11:46:40Z</time>
      </trkpt>
      <trkpt lat="44.7986" lon="6.98227">
        <ele>2201.4</ele>
        <time>2022-02-25T11:46:41Z</time>
      </trkpt>
      <trkpt lat="44.79859" lon="6.98227">
        <ele>2201.8</ele>
        <time>2022-02-25T11:46:42Z</time>
      </trkpt>
      <trkpt lat="44.79858" lon="6.98228">
        <ele>2202</ele>
        <time>2022-02-25T11:46:43Z</time>
      </trkpt>
      <trkpt lat="44.79858" lon="6.98228">
        <ele>2202</ele>
        <time>2022-02-25T11:46:44Z</time>
      </trkpt>
      <trkpt lat="44.79857" lon="6.98228">
        <ele>2202.4</ele>
        <time>2022-02-25T11:46:45Z</time>
      </trkpt>
      <trkpt lat="44.79857" lon="6.98228">
        <ele>2202.4</ele>
        <time>2022-02-25T11:46:46Z</time>
      </trkpt>
      <trkpt lat="44.79855" lon="6.9823">
        <ele>2202.9</ele>
        <time>2022-02-25T11:46:47Z</time>
      </trkpt>
      <trkpt lat="44.79855" lon="6.9823">
        <ele>2202.9</ele>
        <time>2022-02-25T11:46:48Z</time>
      </trkpt>
      <trkpt lat="44.79855" lon="6.9823">
        <ele>2202.9</ele>
        <time>2022-02-25T11:46:49Z</time>
      </trkpt>
      <trkpt lat="44.79855" lon="6.9823">
        <ele>2202.9</ele>
        <time>2022-02-25T11:46:50Z</time>
      </trkpt>
      <trkpt lat="44.79853" lon="6.98231">
        <ele>2203.5</ele>
        <time>2022-02-25T11:46:51Z</time>
      </trkpt>
      <trkpt lat="44.79853" lon="6.98231">
        <ele>2203.5</ele>
        <time>2022-02-25T11:46:52Z</time>
      </trkpt>
      <trkpt lat="44.79853" lon="6.98231">
        <ele>2203.5</ele>
        <time>2022-02-25T11:46:53Z</time>
      </trkpt>
      <trkpt lat="44.7985" lon="6.98231">
        <ele>2204.8</ele>
        <time>2022-02-25T11:46:54Z</time>
      </trkpt>
      <trkpt lat="44.7985" lon="6.98231">
        <ele>2204.8</ele>
        <time>2022-02-25T11:46:55Z</time>
      </trkpt>
      <trkpt lat="44.7985" lon="6.98231">
        <ele>2204.8</ele>
        <time>2022-02-25T11:46:56Z</time>
      </trkpt>
      <trkpt lat="44.79848" lon="6.98232">
        <ele>2205.4</ele>
        <time>2022-02-25T11:46:57Z</time>
      </trkpt>
      <trkpt lat="44.79848" lon="6.98232">
        <ele>2205.4</ele>
        <time>2022-02-25T11:46:58Z</time>
      </trkpt>
      <trkpt lat="44.79848" lon="6.98232">
        <ele>2205.4</ele>
        <time>2022-02-25T11:46:59Z</time>
      </trkpt>
      <trkpt lat="44.79846" lon="6.98233">
        <ele>2206.1</ele>
        <time>2022-02-25T11:47:00Z</time>
      </trkpt>
      <trkpt lat="44.79846" lon="6.98233">
        <ele>2206.1</ele>
        <time>2022-02-25T11:47:01Z</time>
      </trkpt>
      <trkpt lat="44.79844" lon="6.98235">
        <ele>2206.6</ele>
        <time>2022-02-25T11:47:02Z</time>
      </trkpt>
      <trkpt lat="44.79844" lon="6.98235">
        <ele>2206.6</ele>
        <time>2022-02-25T11:47:03Z</time>
      </trkpt>
      <trkpt lat="44.79844" lon="6.98235">
        <ele>2206.6</ele>
        <time>2022-02-25T11:47:04Z</time>
      </trkpt>
      <trkpt lat="44.79842" lon="6.98236">
        <ele>2207.3</ele>
        <time>2022-02-25T11:47:05Z</time>
      </trkpt>
      <trkpt lat="44.79842" lon="6.98236">
        <ele>2207.3</ele>
        <time>2022-02-25T11:47:06Z</time>
      </trkpt>
      <trkpt lat="44.79842" lon="6.98236">
        <ele>2207.3</ele>
        <time>2022-02-25T11:47:07Z</time>
      </trkpt>
      <trkpt lat="44.7984" lon="6.98237">
        <ele>2208</ele>
        <time>2022-02-25T11:47:08Z</time>
      </trkpt>
      <trkpt lat="44.7984" lon="6.98237">
        <ele>2208</ele>
        <time>2022-02-25T11:47:09Z</time>
      </trkpt>
      <trkpt lat="44.7984" lon="6.98237">
        <ele>2208</ele>
        <time>2022-02-25T11:47:10Z</time>
      </trkpt>
      <trkpt lat="44.79838" lon="6.98238">
        <ele>2208.7</ele>
        <time>2022-02-25T11:47:11Z</time>
      </trkpt>
      <trkpt lat="44.79838" lon="6.98238">
        <ele>2208.7</ele>
        <time>2022-02-25T11:47:12Z</time>
      </trkpt>
      <trkpt lat="44.79838" lon="6.98238">
        <ele>2208.7</ele>
        <time>2022-02-25T11:47:13Z</time>
      </trkpt>
      <trkpt lat="44.79838" lon="6.98238">
        <ele>2208.7</ele>
        <time>2022-02-25T11:47:14Z</time>
      </trkpt>
      <trkpt lat="44.79836" lon="6.98241">
        <ele>2209.1</ele>
        <time>2022-02-25T11:47:15Z</time>
      </trkpt>
      <trkpt lat="44.79836" lon="6.98241">
        <ele>2209.1</ele>
        <time>2022-02-25T11:47:16Z</time>
      </trkpt>
      <trkpt lat="44.79835" lon="6.98243">
        <ele>2209.3</ele>
        <time>2022-02-25T11:47:17Z</time>
      </trkpt>
      <trkpt lat="44.79835" lon="6.98243">
        <ele>2209.3</ele>
        <time>2022-02-25T11:47:18Z</time>
      </trkpt>
      <trkpt lat="44.79835" lon="6.98243">
        <ele>2209.3</ele>
        <time>2022-02-25T11:47:19Z</time>
      </trkpt>
      <trkpt lat="44.79834" lon="6.98245">
        <ele>2209.4</ele>
        <time>2022-02-25T11:47:20Z</time>
      </trkpt>
      <trkpt lat="44.79834" lon="6.98245">
        <ele>2209.4</ele>
        <time>2022-02-25T11:47:21Z</time>
      </trkpt>
      <trkpt lat="44.79834" lon="6.98245">
        <ele>2209.4</ele>
        <time>2022-02-25T11:47:22Z</time>
      </trkpt>
      <trkpt lat="44.79834" lon="6.98248">
        <ele>2209</ele>
        <time>2022-02-25T11:47:23Z</time>
      </trkpt>
      <trkpt lat="44.79834" lon="6.98248">
        <ele>2209</ele>
        <time>2022-02-25T11:47:24Z</time>
      </trkpt>
      <trkpt lat="44.79834" lon="6.98248">
        <ele>2209</ele>
        <time>2022-02-25T11:47:25Z</time>
      </trkpt>
      <trkpt lat="44.79833" lon="6.98252">
        <ele>2208.9</ele>
        <time>2022-02-25T11:47:26Z</time>
      </trkpt>
      <trkpt lat="44.79833" lon="6.98252">
        <ele>2208.9</ele>
        <time>2022-02-25T11:47:27Z</time>
      </trkpt>
      <trkpt lat="44.79832" lon="6.98254">
        <ele>2209</ele>
        <time>2022-02-25T11:47:28Z</time>
      </trkpt>
      <trkpt lat="44.79832" lon="6.98254">
        <ele>2209</ele>
        <time>2022-02-25T11:47:29Z</time>
      </trkpt>
      <trkpt lat="44.79832" lon="6.98254">
        <ele>2209</ele>
        <time>2022-02-25T11:47:30Z</time>
      </trkpt>
      <trkpt lat="44.79831" lon="6.98257">
        <ele>2209</ele>
        <time>2022-02-25T11:47:31Z</time>
      </trkpt>
      <trkpt lat="44.79831" lon="6.98257">
        <ele>2209</ele>
        <time>2022-02-25T11:47:32Z</time>
      </trkpt>
      <trkpt lat="44.79831" lon="6.98257">
        <ele>2209</ele>
        <time>2022-02-25T11:47:33Z</time>
      </trkpt>
      <trkpt lat="44.79831" lon="6.98257">
        <ele>2209</ele>
        <time>2022-02-25T11:47:34Z</time>
      </trkpt>
      <trkpt lat="44.79831" lon="6.98257">
        <ele>2209</ele>
        <time>2022-02-25T11:47:35Z</time>
      </trkpt>
      <trkpt lat="44.7983" lon="6.9826">
        <ele>2209</ele>
        <time>2022-02-25T11:47:36Z</time>
      </trkpt>
      <trkpt lat="44.7983" lon="6.9826">
        <ele>2209</ele>
        <time>2022-02-25T11:47:37Z</time>
      </trkpt>
      <trkpt lat="44.7983" lon="6.98263">
        <ele>2208.6</ele>
        <time>2022-02-25T11:47:38Z</time>
      </trkpt>
      <trkpt lat="44.7983" lon="6.98263">
        <ele>2208.6</ele>
        <time>2022-02-25T11:47:39Z</time>
      </trkpt>
      <trkpt lat="44.7983" lon="6.98263">
        <ele>2208.6</ele>
        <time>2022-02-25T11:47:40Z</time>
      </trkpt>
      <trkpt lat="44.79829" lon="6.98266">
        <ele>2208.6</ele>
        <time>2022-02-25T11:47:41Z</time>
      </trkpt>
      <trkpt lat="44.79829" lon="6.98266">
        <ele>2208.6</ele>
        <time>2022-02-25T11:47:42Z</time>
      </trkpt>
      <trkpt lat="44.79829" lon="6.98266">
        <ele>2208.6</ele>
        <time>2022-02-25T11:47:43Z</time>
      </trkpt>
      <trkpt lat="44.79828" lon="6.98268">
        <ele>2208.7</ele>
        <time>2022-02-25T11:47:44Z</time>
      </trkpt>
      <trkpt lat="44.79828" lon="6.98268">
        <ele>2208.7</ele>
        <time>2022-02-25T11:47:45Z</time>
      </trkpt>
      <trkpt lat="44.79828" lon="6.98268">
        <ele>2208.7</ele>
        <time>2022-02-25T11:47:46Z</time>
      </trkpt>
      <trkpt lat="44.79828" lon="6.98271">
        <ele>2208.3</ele>
        <time>2022-02-25T11:47:47Z</time>
      </trkpt>
      <trkpt lat="44.79828" lon="6.98271">
        <ele>2208.3</ele>
        <time>2022-02-25T11:47:48Z</time>
      </trkpt>
      <trkpt lat="44.79828" lon="6.98271">
        <ele>2208.3</ele>
        <time>2022-02-25T11:47:49Z</time>
      </trkpt>
      <trkpt lat="44.79827" lon="6.98275">
        <ele>2208.1</ele>
        <time>2022-02-25T11:47:50Z</time>
      </trkpt>
      <trkpt lat="44.79826" lon="6.98276">
        <ele>2208.4</ele>
        <time>2022-02-25T11:47:51Z</time>
      </trkpt>
      <trkpt lat="44.79826" lon="6.98276">
        <ele>2208.4</ele>
        <time>2022-02-25T11:47:52Z</time>
      </trkpt>
      <trkpt lat="44.79826" lon="6.98276">
        <ele>2208.4</ele>
        <time>2022-02-25T11:47:53Z</time>
      </trkpt>
      <trkpt lat="44.79826" lon="6.98279">
        <ele>2207.9</ele>
        <time>2022-02-25T11:47:54Z</time>
      </trkpt>
      <trkpt lat="44.79826" lon="6.98279">
        <ele>2207.9</ele>
        <time>2022-02-25T11:47:55Z</time>
      </trkpt>
      <trkpt lat="44.79826" lon="6.98279">
        <ele>2207.9</ele>
        <time>2022-02-25T11:47:56Z</time>
      </trkpt>
      <trkpt lat="44.79826" lon="6.98282">
        <ele>2207.4</ele>
        <time>2022-02-25T11:47:57Z</time>
      </trkpt>
      <trkpt lat="44.79826" lon="6.98282">
        <ele>2207.4</ele>
        <time>2022-02-25T11:47:58Z</time>
      </trkpt>
      <trkpt lat="44.79826" lon="6.98282">
        <ele>2207.4</ele>
        <time>2022-02-25T11:47:59Z</time>
      </trkpt>
      <trkpt lat="44.79827" lon="6.98285">
        <ele>2206.4</ele>
        <time>2022-02-25T11:48:00Z</time>
      </trkpt>
      <trkpt lat="44.79827" lon="6.98285">
        <ele>2206.4</ele>
        <time>2022-02-25T11:48:01Z</time>
      </trkpt>
      <trkpt lat="44.79827" lon="6.98285">
        <ele>2206.4</ele>
        <time>2022-02-25T11:48:02Z</time>
      </trkpt>
      <trkpt lat="44.79828" lon="6.98287">
        <ele>2205.6</ele>
        <time>2022-02-25T11:48:03Z</time>
      </trkpt>
      <trkpt lat="44.79828" lon="6.98287">
        <ele>2205.6</ele>
        <time>2022-02-25T11:48:04Z</time>
      </trkpt>
      <trkpt lat="44.79828" lon="6.98287">
        <ele>2205.6</ele>
        <time>2022-02-25T11:48:05Z</time>
      </trkpt>
      <trkpt lat="44.79828" lon="6.98291">
        <ele>2204.9</ele>
        <time>2022-02-25T11:48:06Z</time>
      </trkpt>
      <trkpt lat="44.79828" lon="6.98291">
        <ele>2204.9</ele>
        <time>2022-02-25T11:48:07Z</time>
      </trkpt>
      <trkpt lat="44.79828" lon="6.98294">
        <ele>2204.4</ele>
        <time>2022-02-25T11:48:08Z</time>
      </trkpt>
      <trkpt lat="44.79828" lon="6.98294">
        <ele>2204.4</ele>
        <time>2022-02-25T11:48:09Z</time>
      </trkpt>
      <trkpt lat="44.79828" lon="6.98296">
        <ele>2204</ele>
        <time>2022-02-25T11:48:10Z</time>
      </trkpt>
      <trkpt lat="44.79828" lon="6.98296">
        <ele>2204</ele>
        <time>2022-02-25T11:48:11Z</time>
      </trkpt>
      <trkpt lat="44.79828" lon="6.98296">
        <ele>2204</ele>
        <time>2022-02-25T11:48:12Z</time>
      </trkpt>
      <trkpt lat="44.79829" lon="6.98298">
        <ele>2203.2</ele>
        <time>2022-02-25T11:48:13Z</time>
      </trkpt>
      <trkpt lat="44.79829" lon="6.98298">
        <ele>2203.2</ele>
        <time>2022-02-25T11:48:14Z</time>
      </trkpt>
      <trkpt lat="44.79829" lon="6.98298">
        <ele>2203.2</ele>
        <time>2022-02-25T11:48:15Z</time>
      </trkpt>
      <trkpt lat="44.79829" lon="6.98298">
        <ele>2203.2</ele>
        <time>2022-02-25T11:48:16Z</time>
      </trkpt>
      <trkpt lat="44.79829" lon="6.98301">
        <ele>2202.7</ele>
        <time>2022-02-25T11:48:17Z</time>
      </trkpt>
      <trkpt lat="44.79829" lon="6.98301">
        <ele>2202.7</ele>
        <time>2022-02-25T11:48:18Z</time>
      </trkpt>
      <trkpt lat="44.79829" lon="6.98301">
        <ele>2202.7</ele>
        <time>2022-02-25T11:48:19Z</time>
      </trkpt>
      <trkpt lat="44.79828" lon="6.98304">
        <ele>2202.6</ele>
        <time>2022-02-25T11:48:20Z</time>
      </trkpt>
      <trkpt lat="44.79828" lon="6.98304">
        <ele>2202.6</ele>
        <time>2022-02-25T11:48:21Z</time>
      </trkpt>
      <trkpt lat="44.79828" lon="6.98304">
        <ele>2202.6</ele>
        <time>2022-02-25T11:48:22Z</time>
      </trkpt>
      <trkpt lat="44.79828" lon="6.98306">
        <ele>2202.3</ele>
        <time>2022-02-25T11:48:23Z</time>
      </trkpt>
      <trkpt lat="44.79828" lon="6.98306">
        <ele>2202.3</ele>
        <time>2022-02-25T11:48:24Z</time>
      </trkpt>
      <trkpt lat="44.79828" lon="6.9831">
        <ele>2202</ele>
        <time>2022-02-25T11:48:25Z</time>
      </trkpt>
      <trkpt lat="44.79828" lon="6.9831">
        <ele>2202</ele>
        <time>2022-02-25T11:48:26Z</time>
      </trkpt>
      <trkpt lat="44.79828" lon="6.9831">
        <ele>2202</ele>
        <time>2022-02-25T11:48:27Z</time>
      </trkpt>
      <trkpt lat="44.79829" lon="6.98312">
        <ele>2201.4</ele>
        <time>2022-02-25T11:48:28Z</time>
      </trkpt>
      <trkpt lat="44.79829" lon="6.98312">
        <ele>2201.4</ele>
        <time>2022-02-25T11:48:29Z</time>
      </trkpt>
      <trkpt lat="44.79829" lon="6.98312">
        <ele>2201.4</ele>
        <time>2022-02-25T11:48:30Z</time>
      </trkpt>
      <trkpt lat="44.7983" lon="6.98314">
        <ele>2200.8</ele>
        <time>2022-02-25T11:48:31Z</time>
      </trkpt>
      <trkpt lat="44.7983" lon="6.98314">
        <ele>2200.8</ele>
        <time>2022-02-25T11:48:32Z</time>
      </trkpt>
      <trkpt lat="44.7983" lon="6.98314">
        <ele>2200.8</ele>
        <time>2022-02-25T11:48:33Z</time>
      </trkpt>
      <trkpt lat="44.7983" lon="6.98314">
        <ele>2200.8</ele>
        <time>2022-02-25T11:48:34Z</time>
      </trkpt>
      <trkpt lat="44.7983" lon="6.98314">
        <ele>2200.8</ele>
        <time>2022-02-25T11:48:35Z</time>
      </trkpt>
      <trkpt lat="44.79829" lon="6.98316">
        <ele>2201.1</ele>
        <time>2022-02-25T11:48:36Z</time>
      </trkpt>
      <trkpt lat="44.79829" lon="6.98316">
        <ele>2201.1</ele>
        <time>2022-02-25T11:48:37Z</time>
      </trkpt>
      <trkpt lat="44.79829" lon="6.98316">
        <ele>2201.1</ele>
        <time>2022-02-25T11:48:38Z</time>
      </trkpt>
      <trkpt lat="44.79829" lon="6.98316">
        <ele>2201.1</ele>
        <time>2022-02-25T11:48:39Z</time>
      </trkpt>
      <trkpt lat="44.79828" lon="6.98319">
        <ele>2201.3</ele>
        <time>2022-02-25T11:48:40Z</time>
      </trkpt>
      <trkpt lat="44.79828" lon="6.98319">
        <ele>2201.3</ele>
        <time>2022-02-25T11:48:41Z</time>
      </trkpt>
      <trkpt lat="44.79828" lon="6.98319">
        <ele>2201.3</ele>
        <time>2022-02-25T11:48:42Z</time>
      </trkpt>
      <trkpt lat="44.79828" lon="6.98319">
        <ele>2201.3</ele>
        <time>2022-02-25T11:48:43Z</time>
      </trkpt>
      <trkpt lat="44.79826" lon="6.9832">
        <ele>2202.1</ele>
        <time>2022-02-25T11:48:44Z</time>
      </trkpt>
      <trkpt lat="44.79826" lon="6.9832">
        <ele>2202.1</ele>
        <time>2022-02-25T11:48:45Z</time>
      </trkpt>
      <trkpt lat="44.79826" lon="6.9832">
        <ele>2202.1</ele>
        <time>2022-02-25T11:48:46Z</time>
      </trkpt>
      <trkpt lat="44.79825" lon="6.98323">
        <ele>2202.3</ele>
        <time>2022-02-25T11:48:47Z</time>
      </trkpt>
      <trkpt lat="44.79825" lon="6.98323">
        <ele>2202.3</ele>
        <time>2022-02-25T11:48:48Z</time>
      </trkpt>
      <trkpt lat="44.79825" lon="6.98323">
        <ele>2202.3</ele>
        <time>2022-02-25T11:48:49Z</time>
      </trkpt>
      <trkpt lat="44.79825" lon="6.98323">
        <ele>2202.3</ele>
        <time>2022-02-25T11:48:50Z</time>
      </trkpt>
      <trkpt lat="44.79822" lon="6.98324">
        <ele>2203.6</ele>
        <time>2022-02-25T11:48:51Z</time>
      </trkpt>
      <trkpt lat="44.79822" lon="6.98324">
        <ele>2203.6</ele>
        <time>2022-02-25T11:48:52Z</time>
      </trkpt>
      <trkpt lat="44.79822" lon="6.98324">
        <ele>2203.6</ele>
        <time>2022-02-25T11:48:53Z</time>
      </trkpt>
      <trkpt lat="44.79822" lon="6.98324">
        <ele>2203.6</ele>
        <time>2022-02-25T11:48:54Z</time>
      </trkpt>
      <trkpt lat="44.7982" lon="6.98326">
        <ele>2204.3</ele>
        <time>2022-02-25T11:48:55Z</time>
      </trkpt>
      <trkpt lat="44.7982" lon="6.98326">
        <ele>2204.3</ele>
        <time>2022-02-25T11:48:56Z</time>
      </trkpt>
      <trkpt lat="44.79818" lon="6.98327">
        <ele>2205.1</ele>
        <time>2022-02-25T11:48:57Z</time>
      </trkpt>
      <trkpt lat="44.79818" lon="6.98327">
        <ele>2205.1</ele>
        <time>2022-02-25T11:48:58Z</time>
      </trkpt>
      <trkpt lat="44.79818" lon="6.98327">
        <ele>2205.1</ele>
        <time>2022-02-25T11:48:59Z</time>
      </trkpt>
      <trkpt lat="44.79818" lon="6.98327">
        <ele>2205.1</ele>
        <time>2022-02-25T11:49:00Z</time>
      </trkpt>
      <trkpt lat="44.79818" lon="6.98327">
        <ele>2205.1</ele>
        <time>2022-02-25T11:49:01Z</time>
      </trkpt>
      <trkpt lat="44.79818" lon="6.98327">
        <ele>2205.1</ele>
        <time>2022-02-25T11:49:02Z</time>
      </trkpt>
      <trkpt lat="44.79818" lon="6.98327">
        <ele>2205.1</ele>
        <time>2022-02-25T11:49:03Z</time>
      </trkpt>
      <trkpt lat="44.79818" lon="6.98327">
        <ele>2205.1</ele>
        <time>2022-02-25T11:49:04Z</time>
      </trkpt>
      <trkpt lat="44.79816" lon="6.98328">
        <ele>2205.9</ele>
        <time>2022-02-25T11:49:05Z</time>
      </trkpt>
      <trkpt lat="44.79816" lon="6.98328">
        <ele>2205.9</ele>
        <time>2022-02-25T11:49:06Z</time>
      </trkpt>
      <trkpt lat="44.79816" lon="6.98328">
        <ele>2205.9</ele>
        <time>2022-02-25T11:49:07Z</time>
      </trkpt>
      <trkpt lat="44.79816" lon="6.98328">
        <ele>2205.9</ele>
        <time>2022-02-25T11:49:08Z</time>
      </trkpt>
      <trkpt lat="44.79815" lon="6.9833">
        <ele>2206.2</ele>
        <time>2022-02-25T11:49:09Z</time>
      </trkpt>
      <trkpt lat="44.79815" lon="6.9833">
        <ele>2206.2</ele>
        <time>2022-02-25T11:49:10Z</time>
      </trkpt>
      <trkpt lat="44.79815" lon="6.9833">
        <ele>2206.2</ele>
        <time>2022-02-25T11:49:11Z</time>
      </trkpt>
      <trkpt lat="44.79815" lon="6.9833">
        <ele>2206.2</ele>
        <time>2022-02-25T11:49:12Z</time>
      </trkpt>
      <trkpt lat="44.79814" lon="6.98333">
        <ele>2206.4</ele>
        <time>2022-02-25T11:49:13Z</time>
      </trkpt>
      <trkpt lat="44.79814" lon="6.98333">
        <ele>2206.4</ele>
        <time>2022-02-25T11:49:14Z</time>
      </trkpt>
      <trkpt lat="44.79814" lon="6.98333">
        <ele>2206.4</ele>
        <time>2022-02-25T11:49:15Z</time>
      </trkpt>
      <trkpt lat="44.79813" lon="6.98335">
        <ele>2206.6</ele>
        <time>2022-02-25T11:49:16Z</time>
      </trkpt>
      <trkpt lat="44.79813" lon="6.98335">
        <ele>2206.6</ele>
        <time>2022-02-25T11:49:17Z</time>
      </trkpt>
      <trkpt lat="44.79813" lon="6.98335">
        <ele>2206.6</ele>
        <time>2022-02-25T11:49:18Z</time>
      </trkpt>
      <trkpt lat="44.79813" lon="6.98335">
        <ele>2206.6</ele>
        <time>2022-02-25T11:49:19Z</time>
      </trkpt>
      <trkpt lat="44.79813" lon="6.98335">
        <ele>2206.6</ele>
        <time>2022-02-25T11:49:20Z</time>
      </trkpt>
      <trkpt lat="44.79812" lon="6.98339">
        <ele>2206.7</ele>
        <time>2022-02-25T11:49:21Z</time>
      </trkpt>
      <trkpt lat="44.79812" lon="6.98339">
        <ele>2206.7</ele>
        <time>2022-02-25T11:49:22Z</time>
      </trkpt>
      <trkpt lat="44.79812" lon="6.98339">
        <ele>2206.7</ele>
        <time>2022-02-25T11:49:23Z</time>
      </trkpt>
      <trkpt lat="44.79812" lon="6.98339">
        <ele>2206.7</ele>
        <time>2022-02-25T11:49:24Z</time>
      </trkpt>
      <trkpt lat="44.79811" lon="6.9834">
        <ele>2206.9</ele>
        <time>2022-02-25T11:49:25Z</time>
      </trkpt>
      <trkpt lat="44.79811" lon="6.9834">
        <ele>2206.9</ele>
        <time>2022-02-25T11:49:26Z</time>
      </trkpt>
      <trkpt lat="44.79811" lon="6.9834">
        <ele>2206.9</ele>
        <time>2022-02-25T11:49:27Z</time>
      </trkpt>
      <trkpt lat="44.79811" lon="6.9834">
        <ele>2206.9</ele>
        <time>2022-02-25T11:49:28Z</time>
      </trkpt>
      <trkpt lat="44.79811" lon="6.9834">
        <ele>2206.9</ele>
        <time>2022-02-25T11:49:29Z</time>
      </trkpt>
      <trkpt lat="44.79811" lon="6.9834">
        <ele>2206.9</ele>
        <time>2022-02-25T11:49:30Z</time>
      </trkpt>
      <trkpt lat="44.79811" lon="6.9834">
        <ele>2206.9</ele>
        <time>2022-02-25T11:49:31Z</time>
      </trkpt>
      <trkpt lat="44.79811" lon="6.9834">
        <ele>2206.9</ele>
        <time>2022-02-25T11:49:32Z</time>
      </trkpt>
      <trkpt lat="44.79811" lon="6.9834">
        <ele>2206.9</ele>
        <time>2022-02-25T11:49:33Z</time>
      </trkpt>
      <trkpt lat="44.7981" lon="6.98343">
        <ele>2206.9</ele>
        <time>2022-02-25T11:49:34Z</time>
      </trkpt>
      <trkpt lat="44.7981" lon="6.98343">
        <ele>2206.9</ele>
        <time>2022-02-25T11:49:35Z</time>
      </trkpt>
      <trkpt lat="44.7981" lon="6.98343">
        <ele>2206.9</ele>
        <time>2022-02-25T11:49:36Z</time>
      </trkpt>
      <trkpt lat="44.7981" lon="6.98343">
        <ele>2206.9</ele>
        <time>2022-02-25T11:49:37Z</time>
      </trkpt>
      <trkpt lat="44.7981" lon="6.98343">
        <ele>2206.9</ele>
        <time>2022-02-25T11:49:38Z</time>
      </trkpt>
      <trkpt lat="44.7981" lon="6.98343">
        <ele>2206.9</ele>
        <time>2022-02-25T11:49:39Z</time>
      </trkpt>
      <trkpt lat="44.79809" lon="6.98345">
        <ele>2206.9</ele>
        <time>2022-02-25T11:49:40Z</time>
      </trkpt>
      <trkpt lat="44.79809" lon="6.98345">
        <ele>2206.9</ele>
        <time>2022-02-25T11:49:41Z</time>
      </trkpt>
      <trkpt lat="44.79809" lon="6.98345">
        <ele>2206.9</ele>
        <time>2022-02-25T11:49:42Z</time>
      </trkpt>
      <trkpt lat="44.79808" lon="6.98348">
        <ele>2206.8</ele>
        <time>2022-02-25T11:49:43Z</time>
      </trkpt>
      <trkpt lat="44.79808" lon="6.98348">
        <ele>2206.8</ele>
        <time>2022-02-25T11:49:44Z</time>
      </trkpt>
      <trkpt lat="44.79808" lon="6.98348">
        <ele>2206.8</ele>
        <time>2022-02-25T11:49:45Z</time>
      </trkpt>
      <trkpt lat="44.79807" lon="6.9835">
        <ele>2206.7</ele>
        <time>2022-02-25T11:49:46Z</time>
      </trkpt>
      <trkpt lat="44.79807" lon="6.9835">
        <ele>2206.7</ele>
        <time>2022-02-25T11:49:47Z</time>
      </trkpt>
      <trkpt lat="44.79807" lon="6.9835">
        <ele>2206.7</ele>
        <time>2022-02-25T11:49:48Z</time>
      </trkpt>
      <trkpt lat="44.79806" lon="6.98353">
        <ele>2206.4</ele>
        <time>2022-02-25T11:49:49Z</time>
      </trkpt>
      <trkpt lat="44.79806" lon="6.98353">
        <ele>2206.4</ele>
        <time>2022-02-25T11:49:50Z</time>
      </trkpt>
      <trkpt lat="44.79806" lon="6.98353">
        <ele>2206.4</ele>
        <time>2022-02-25T11:49:51Z</time>
      </trkpt>
      <trkpt lat="44.79805" lon="6.98356">
        <ele>2206.2</ele>
        <time>2022-02-25T11:49:52Z</time>
      </trkpt>
      <trkpt lat="44.79805" lon="6.98356">
        <ele>2206.2</ele>
        <time>2022-02-25T11:49:53Z</time>
      </trkpt>
      <trkpt lat="44.79805" lon="6.98356">
        <ele>2206.2</ele>
        <time>2022-02-25T11:49:54Z</time>
      </trkpt>
      <trkpt lat="44.79805" lon="6.98359">
        <ele>2205.7</ele>
        <time>2022-02-25T11:49:55Z</time>
      </trkpt>
      <trkpt lat="44.79805" lon="6.98359">
        <ele>2205.7</ele>
        <time>2022-02-25T11:49:56Z</time>
      </trkpt>
      <trkpt lat="44.79805" lon="6.98359">
        <ele>2205.7</ele>
        <time>2022-02-25T11:49:57Z</time>
      </trkpt>
      <trkpt lat="44.79803" lon="6.98362">
        <ele>2206.3</ele>
        <time>2022-02-25T11:49:58Z</time>
      </trkpt>
      <trkpt lat="44.79803" lon="6.98362">
        <ele>2206.3</ele>
        <time>2022-02-25T11:49:59Z</time>
      </trkpt>
      <trkpt lat="44.79803" lon="6.98362">
        <ele>2206.3</ele>
        <time>2022-02-25T11:50:00Z</time>
      </trkpt>
      <trkpt lat="44.79802" lon="6.98365">
        <ele>2206.6</ele>
        <time>2022-02-25T11:50:01Z</time>
      </trkpt>
      <trkpt lat="44.79802" lon="6.98365">
        <ele>2206.6</ele>
        <time>2022-02-25T11:50:02Z</time>
      </trkpt>
      <trkpt lat="44.79802" lon="6.98365">
        <ele>2206.6</ele>
        <time>2022-02-25T11:50:03Z</time>
      </trkpt>
      <trkpt lat="44.798" lon="6.98368">
        <ele>2207.4</ele>
        <time>2022-02-25T11:50:04Z</time>
      </trkpt>
      <trkpt lat="44.798" lon="6.98368">
        <ele>2207.4</ele>
        <time>2022-02-25T11:50:05Z</time>
      </trkpt>
      <trkpt lat="44.798" lon="6.98368">
        <ele>2207.4</ele>
        <time>2022-02-25T11:50:06Z</time>
      </trkpt>
      <trkpt lat="44.79799" lon="6.98371">
        <ele>2207.7</ele>
        <time>2022-02-25T11:50:07Z</time>
      </trkpt>
      <trkpt lat="44.79799" lon="6.98371">
        <ele>2207.7</ele>
        <time>2022-02-25T11:50:08Z</time>
      </trkpt>
      <trkpt lat="44.79798" lon="6.98374">
        <ele>2207.9</ele>
        <time>2022-02-25T11:50:09Z</time>
      </trkpt>
      <trkpt lat="44.79798" lon="6.98374">
        <ele>2207.9</ele>
        <time>2022-02-25T11:50:10Z</time>
      </trkpt>
      <trkpt lat="44.79798" lon="6.98376">
        <ele>2207.7</ele>
        <time>2022-02-25T11:50:11Z</time>
      </trkpt>
      <trkpt lat="44.79798" lon="6.98376">
        <ele>2207.7</ele>
        <time>2022-02-25T11:50:12Z</time>
      </trkpt>
      <trkpt lat="44.79797" lon="6.98379">
        <ele>2207.9</ele>
        <time>2022-02-25T11:50:13Z</time>
      </trkpt>
      <trkpt lat="44.79797" lon="6.98379">
        <ele>2207.9</ele>
        <time>2022-02-25T11:50:14Z</time>
      </trkpt>
      <trkpt lat="44.79797" lon="6.98379">
        <ele>2207.9</ele>
        <time>2022-02-25T11:50:15Z</time>
      </trkpt>
      <trkpt lat="44.79797" lon="6.98379">
        <ele>2207.9</ele>
        <time>2022-02-25T11:50:16Z</time>
      </trkpt>
      <trkpt lat="44.79796" lon="6.98382">
        <ele>2208.1</ele>
        <time>2022-02-25T11:50:17Z</time>
      </trkpt>
      <trkpt lat="44.79796" lon="6.98382">
        <ele>2208.1</ele>
        <time>2022-02-25T11:50:18Z</time>
      </trkpt>
      <trkpt lat="44.79796" lon="6.98382">
        <ele>2208.1</ele>
        <time>2022-02-25T11:50:19Z</time>
      </trkpt>
      <trkpt lat="44.79796" lon="6.98385">
        <ele>2207.8</ele>
        <time>2022-02-25T11:50:20Z</time>
      </trkpt>
      <trkpt lat="44.79796" lon="6.98385">
        <ele>2207.8</ele>
        <time>2022-02-25T11:50:21Z</time>
      </trkpt>
      <trkpt lat="44.79796" lon="6.98385">
        <ele>2207.8</ele>
        <time>2022-02-25T11:50:22Z</time>
      </trkpt>
      <trkpt lat="44.79796" lon="6.98385">
        <ele>2207.8</ele>
        <time>2022-02-25T11:50:23Z</time>
      </trkpt>
      <trkpt lat="44.79796" lon="6.98385">
        <ele>2207.8</ele>
        <time>2022-02-25T11:50:24Z</time>
      </trkpt>
      <trkpt lat="44.79796" lon="6.98385">
        <ele>2207.8</ele>
        <time>2022-02-25T11:50:25Z</time>
      </trkpt>
      <trkpt lat="44.79796" lon="6.98385">
        <ele>2207.8</ele>
        <time>2022-02-25T11:50:26Z</time>
      </trkpt>
      <trkpt lat="44.79797" lon="6.98387">
        <ele>2207.2</ele>
        <time>2022-02-25T11:50:27Z</time>
      </trkpt>
      <trkpt lat="44.79797" lon="6.98387">
        <ele>2207.2</ele>
        <time>2022-02-25T11:50:28Z</time>
      </trkpt>
      <trkpt lat="44.79797" lon="6.98387">
        <ele>2207.2</ele>
        <time>2022-02-25T11:50:29Z</time>
      </trkpt>
      <trkpt lat="44.79798" lon="6.9839">
        <ele>2206.6</ele>
        <time>2022-02-25T11:50:30Z</time>
      </trkpt>
      <trkpt lat="44.79798" lon="6.9839">
        <ele>2206.6</ele>
        <time>2022-02-25T11:50:31Z</time>
      </trkpt>
      <trkpt lat="44.79796" lon="6.98392">
        <ele>2207.5</ele>
        <time>2022-02-25T11:50:32Z</time>
      </trkpt>
      <trkpt lat="44.79796" lon="6.98392">
        <ele>2207.5</ele>
        <time>2022-02-25T11:50:33Z</time>
      </trkpt>
      <trkpt lat="44.79796" lon="6.98392">
        <ele>2207.5</ele>
        <time>2022-02-25T11:50:34Z</time>
      </trkpt>
      <trkpt lat="44.79795" lon="6.98395">
        <ele>2208</ele>
        <time>2022-02-25T11:50:35Z</time>
      </trkpt>
      <trkpt lat="44.79795" lon="6.98395">
        <ele>2208</ele>
        <time>2022-02-25T11:50:36Z</time>
      </trkpt>
      <trkpt lat="44.79795" lon="6.98395">
        <ele>2208</ele>
        <time>2022-02-25T11:50:37Z</time>
      </trkpt>
      <trkpt lat="44.79795" lon="6.98398">
        <ele>2208</ele>
        <time>2022-02-25T11:50:38Z</time>
      </trkpt>
      <trkpt lat="44.79795" lon="6.98398">
        <ele>2208</ele>
        <time>2022-02-25T11:50:39Z</time>
      </trkpt>
      <trkpt lat="44.79795" lon="6.98398">
        <ele>2208</ele>
        <time>2022-02-25T11:50:40Z</time>
      </trkpt>
      <trkpt lat="44.79795" lon="6.98398">
        <ele>2208</ele>
        <time>2022-02-25T11:50:41Z</time>
      </trkpt>
      <trkpt lat="44.79796" lon="6.98401">
        <ele>2207.7</ele>
        <time>2022-02-25T11:50:42Z</time>
      </trkpt>
      <trkpt lat="44.79796" lon="6.98401">
        <ele>2207.7</ele>
        <time>2022-02-25T11:50:43Z</time>
      </trkpt>
      <trkpt lat="44.79794" lon="6.98403">
        <ele>2208.3</ele>
        <time>2022-02-25T11:50:44Z</time>
      </trkpt>
      <trkpt lat="44.79794" lon="6.98403">
        <ele>2208.3</ele>
        <time>2022-02-25T11:50:45Z</time>
      </trkpt>
      <trkpt lat="44.79794" lon="6.98403">
        <ele>2208.3</ele>
        <time>2022-02-25T11:50:46Z</time>
      </trkpt>
      <trkpt lat="44.79794" lon="6.98406">
        <ele>2208.3</ele>
        <time>2022-02-25T11:50:47Z</time>
      </trkpt>
      <trkpt lat="44.79794" lon="6.98406">
        <ele>2208.3</ele>
        <time>2022-02-25T11:50:48Z</time>
      </trkpt>
      <trkpt lat="44.79794" lon="6.98406">
        <ele>2208.3</ele>
        <time>2022-02-25T11:50:49Z</time>
      </trkpt>
      <trkpt lat="44.79794" lon="6.98409">
        <ele>2208.3</ele>
        <time>2022-02-25T11:50:50Z</time>
      </trkpt>
      <trkpt lat="44.79794" lon="6.98409">
        <ele>2208.3</ele>
        <time>2022-02-25T11:50:51Z</time>
      </trkpt>
      <trkpt lat="44.79794" lon="6.98409">
        <ele>2208.3</ele>
        <time>2022-02-25T11:50:52Z</time>
      </trkpt>
      <trkpt lat="44.79792" lon="6.98411">
        <ele>2208.6</ele>
        <time>2022-02-25T11:50:53Z</time>
      </trkpt>
      <trkpt lat="44.79792" lon="6.98411">
        <ele>2208.6</ele>
        <time>2022-02-25T11:50:54Z</time>
      </trkpt>
      <trkpt lat="44.79792" lon="6.98411">
        <ele>2208.6</ele>
        <time>2022-02-25T11:50:55Z</time>
      </trkpt>
      <trkpt lat="44.79792" lon="6.98411">
        <ele>2208.6</ele>
        <time>2022-02-25T11:50:56Z</time>
      </trkpt>
      <trkpt lat="44.79791" lon="6.98414">
        <ele>2208.7</ele>
        <time>2022-02-25T11:50:57Z</time>
      </trkpt>
      <trkpt lat="44.79791" lon="6.98414">
        <ele>2208.7</ele>
        <time>2022-02-25T11:50:58Z</time>
      </trkpt>
      <trkpt lat="44.79791" lon="6.98414">
        <ele>2208.7</ele>
        <time>2022-02-25T11:50:59Z</time>
      </trkpt>
      <trkpt lat="44.79789" lon="6.98416">
        <ele>2208.8</ele>
        <time>2022-02-25T11:51:00Z</time>
      </trkpt>
      <trkpt lat="44.79789" lon="6.98416">
        <ele>2208.8</ele>
        <time>2022-02-25T11:51:01Z</time>
      </trkpt>
      <trkpt lat="44.79789" lon="6.98416">
        <ele>2208.8</ele>
        <time>2022-02-25T11:51:02Z</time>
      </trkpt>
      <trkpt lat="44.79788" lon="6.98419">
        <ele>2209.1</ele>
        <time>2022-02-25T11:51:03Z</time>
      </trkpt>
      <trkpt lat="44.79788" lon="6.98419">
        <ele>2209.1</ele>
        <time>2022-02-25T11:51:04Z</time>
      </trkpt>
      <trkpt lat="44.79786" lon="6.9842">
        <ele>2209.3</ele>
        <time>2022-02-25T11:51:05Z</time>
      </trkpt>
      <trkpt lat="44.79786" lon="6.9842">
        <ele>2209.3</ele>
        <time>2022-02-25T11:51:06Z</time>
      </trkpt>
      <trkpt lat="44.79786" lon="6.9842">
        <ele>2209.3</ele>
        <time>2022-02-25T11:51:07Z</time>
      </trkpt>
      <trkpt lat="44.79786" lon="6.9842">
        <ele>2209.3</ele>
        <time>2022-02-25T11:51:08Z</time>
      </trkpt>
      <trkpt lat="44.79786" lon="6.9842">
        <ele>2209.3</ele>
        <time>2022-02-25T11:51:09Z</time>
      </trkpt>
      <trkpt lat="44.79785" lon="6.98423">
        <ele>2209.4</ele>
        <time>2022-02-25T11:51:10Z</time>
      </trkpt>
      <trkpt lat="44.79785" lon="6.98423">
        <ele>2209.4</ele>
        <time>2022-02-25T11:51:11Z</time>
      </trkpt>
      <trkpt lat="44.79785" lon="6.98423">
        <ele>2209.4</ele>
        <time>2022-02-25T11:51:12Z</time>
      </trkpt>
      <trkpt lat="44.79785" lon="6.98423">
        <ele>2209.4</ele>
        <time>2022-02-25T11:51:13Z</time>
      </trkpt>
      <trkpt lat="44.79785" lon="6.98423">
        <ele>2209.4</ele>
        <time>2022-02-25T11:51:14Z</time>
      </trkpt>
      <trkpt lat="44.79784" lon="6.98426">
        <ele>2209.5</ele>
        <time>2022-02-25T11:51:15Z</time>
      </trkpt>
      <trkpt lat="44.79784" lon="6.98426">
        <ele>2209.5</ele>
        <time>2022-02-25T11:51:16Z</time>
      </trkpt>
      <trkpt lat="44.79784" lon="6.98426">
        <ele>2209.5</ele>
        <time>2022-02-25T11:51:17Z</time>
      </trkpt>
      <trkpt lat="44.79784" lon="6.98426">
        <ele>2209.5</ele>
        <time>2022-02-25T11:51:18Z</time>
      </trkpt>
      <trkpt lat="44.79784" lon="6.98426">
        <ele>2209.5</ele>
        <time>2022-02-25T11:51:19Z</time>
      </trkpt>
      <trkpt lat="44.79784" lon="6.98426">
        <ele>2209.5</ele>
        <time>2022-02-25T11:51:20Z</time>
      </trkpt>
      <trkpt lat="44.79784" lon="6.98429">
        <ele>2209.5</ele>
        <time>2022-02-25T11:51:21Z</time>
      </trkpt>
      <trkpt lat="44.79784" lon="6.98429">
        <ele>2209.5</ele>
        <time>2022-02-25T11:51:22Z</time>
      </trkpt>
      <trkpt lat="44.79782" lon="6.98431">
        <ele>2209.4</ele>
        <time>2022-02-25T11:51:23Z</time>
      </trkpt>
      <trkpt lat="44.79782" lon="6.98431">
        <ele>2209.4</ele>
        <time>2022-02-25T11:51:24Z</time>
      </trkpt>
      <trkpt lat="44.79782" lon="6.98431">
        <ele>2209.4</ele>
        <time>2022-02-25T11:51:25Z</time>
      </trkpt>
      <trkpt lat="44.79781" lon="6.98433">
        <ele>2209.2</ele>
        <time>2022-02-25T11:51:26Z</time>
      </trkpt>
      <trkpt lat="44.79781" lon="6.98433">
        <ele>2209.2</ele>
        <time>2022-02-25T11:51:27Z</time>
      </trkpt>
      <trkpt lat="44.79781" lon="6.98433">
        <ele>2209.2</ele>
        <time>2022-02-25T11:51:28Z</time>
      </trkpt>
      <trkpt lat="44.79779" lon="6.98434">
        <ele>2208.9</ele>
        <time>2022-02-25T11:51:29Z</time>
      </trkpt>
      <trkpt lat="44.79779" lon="6.98434">
        <ele>2208.9</ele>
        <time>2022-02-25T11:51:30Z</time>
      </trkpt>
      <trkpt lat="44.79779" lon="6.98434">
        <ele>2208.9</ele>
        <time>2022-02-25T11:51:31Z</time>
      </trkpt>
      <trkpt lat="44.79777" lon="6.98434">
        <ele>2209</ele>
        <time>2022-02-25T11:51:32Z</time>
      </trkpt>
      <trkpt lat="44.79777" lon="6.98434">
        <ele>2209</ele>
        <time>2022-02-25T11:51:33Z</time>
      </trkpt>
      <trkpt lat="44.79775" lon="6.98436">
        <ele>2209.4</ele>
        <time>2022-02-25T11:51:34Z</time>
      </trkpt>
      <trkpt lat="44.79775" lon="6.98436">
        <ele>2209.4</ele>
        <time>2022-02-25T11:51:35Z</time>
      </trkpt>
      <trkpt lat="44.79773" lon="6.98438">
        <ele>2209.7</ele>
        <time>2022-02-25T11:51:36Z</time>
      </trkpt>
      <trkpt lat="44.79773" lon="6.98438">
        <ele>2209.7</ele>
        <time>2022-02-25T11:51:37Z</time>
      </trkpt>
      <trkpt lat="44.79773" lon="6.98438">
        <ele>2209.7</ele>
        <time>2022-02-25T11:51:38Z</time>
      </trkpt>
      <trkpt lat="44.79773" lon="6.98438">
        <ele>2209.7</ele>
        <time>2022-02-25T11:51:39Z</time>
      </trkpt>
      <trkpt lat="44.79771" lon="6.98439">
        <ele>2210.1</ele>
        <time>2022-02-25T11:51:40Z</time>
      </trkpt>
      <trkpt lat="44.79771" lon="6.98439">
        <ele>2210.1</ele>
        <time>2022-02-25T11:51:41Z</time>
      </trkpt>
      <trkpt lat="44.79771" lon="6.98439">
        <ele>2210.1</ele>
        <time>2022-02-25T11:51:42Z</time>
      </trkpt>
      <trkpt lat="44.79769" lon="6.9844">
        <ele>2210.5</ele>
        <time>2022-02-25T11:51:43Z</time>
      </trkpt>
      <trkpt lat="44.79769" lon="6.9844">
        <ele>2210.5</ele>
        <time>2022-02-25T11:51:44Z</time>
      </trkpt>
      <trkpt lat="44.79769" lon="6.9844">
        <ele>2210.5</ele>
        <time>2022-02-25T11:51:45Z</time>
      </trkpt>
      <trkpt lat="44.79767" lon="6.98442">
        <ele>2210.7</ele>
        <time>2022-02-25T11:51:46Z</time>
      </trkpt>
      <trkpt lat="44.79767" lon="6.98442">
        <ele>2210.7</ele>
        <time>2022-02-25T11:51:47Z</time>
      </trkpt>
      <trkpt lat="44.79767" lon="6.98442">
        <ele>2210.7</ele>
        <time>2022-02-25T11:51:48Z</time>
      </trkpt>
      <trkpt lat="44.79767" lon="6.98442">
        <ele>2210.7</ele>
        <time>2022-02-25T11:51:49Z</time>
      </trkpt>
      <trkpt lat="44.79765" lon="6.98445">
        <ele>2210.8</ele>
        <time>2022-02-25T11:51:50Z</time>
      </trkpt>
      <trkpt lat="44.79765" lon="6.98445">
        <ele>2210.8</ele>
        <time>2022-02-25T11:51:51Z</time>
      </trkpt>
      <trkpt lat="44.79765" lon="6.98445">
        <ele>2210.8</ele>
        <time>2022-02-25T11:51:52Z</time>
      </trkpt>
      <trkpt lat="44.79763" lon="6.98448">
        <ele>2211.5</ele>
        <time>2022-02-25T11:51:53Z</time>
      </trkpt>
      <trkpt lat="44.79763" lon="6.98448">
        <ele>2211.5</ele>
        <time>2022-02-25T11:51:54Z</time>
      </trkpt>
      <trkpt lat="44.79763" lon="6.98448">
        <ele>2211.5</ele>
        <time>2022-02-25T11:51:55Z</time>
      </trkpt>
      <trkpt lat="44.79763" lon="6.98448">
        <ele>2211.5</ele>
        <time>2022-02-25T11:51:56Z</time>
      </trkpt>
      <trkpt lat="44.79763" lon="6.98448">
        <ele>2211.5</ele>
        <time>2022-02-25T11:51:57Z</time>
      </trkpt>
      <trkpt lat="44.79762" lon="6.9845">
        <ele>2211.9</ele>
        <time>2022-02-25T11:51:58Z</time>
      </trkpt>
      <trkpt lat="44.79762" lon="6.9845">
        <ele>2211.9</ele>
        <time>2022-02-25T11:51:59Z</time>
      </trkpt>
      <trkpt lat="44.79759" lon="6.9845">
        <ele>2212.4</ele>
        <time>2022-02-25T11:52:00Z</time>
      </trkpt>
      <trkpt lat="44.79759" lon="6.9845">
        <ele>2212.4</ele>
        <time>2022-02-25T11:52:01Z</time>
      </trkpt>
      <trkpt lat="44.79758" lon="6.98453">
        <ele>2212.7</ele>
        <time>2022-02-25T11:52:02Z</time>
      </trkpt>
      <trkpt lat="44.79758" lon="6.98453">
        <ele>2212.7</ele>
        <time>2022-02-25T11:52:03Z</time>
      </trkpt>
      <trkpt lat="44.79756" lon="6.98454">
        <ele>2213</ele>
        <time>2022-02-25T11:52:04Z</time>
      </trkpt>
      <trkpt lat="44.79756" lon="6.98454">
        <ele>2213</ele>
        <time>2022-02-25T11:52:05Z</time>
      </trkpt>
      <trkpt lat="44.79756" lon="6.98454">
        <ele>2213</ele>
        <time>2022-02-25T11:52:06Z</time>
      </trkpt>
      <trkpt lat="44.79755" lon="6.98456">
        <ele>2213.1</ele>
        <time>2022-02-25T11:52:07Z</time>
      </trkpt>
      <trkpt lat="44.79755" lon="6.98456">
        <ele>2213.1</ele>
        <time>2022-02-25T11:52:08Z</time>
      </trkpt>
      <trkpt lat="44.79755" lon="6.98456">
        <ele>2213.1</ele>
        <time>2022-02-25T11:52:09Z</time>
      </trkpt>
      <trkpt lat="44.79755" lon="6.98456">
        <ele>2213.1</ele>
        <time>2022-02-25T11:52:10Z</time>
      </trkpt>
      <trkpt lat="44.79753" lon="6.98458">
        <ele>2213.3</ele>
        <time>2022-02-25T11:52:11Z</time>
      </trkpt>
      <trkpt lat="44.79753" lon="6.98458">
        <ele>2213.3</ele>
        <time>2022-02-25T11:52:12Z</time>
      </trkpt>
      <trkpt lat="44.79753" lon="6.98458">
        <ele>2213.3</ele>
        <time>2022-02-25T11:52:13Z</time>
      </trkpt>
      <trkpt lat="44.79751" lon="6.9846">
        <ele>2213.4</ele>
        <time>2022-02-25T11:52:14Z</time>
      </trkpt>
      <trkpt lat="44.79751" lon="6.9846">
        <ele>2213.4</ele>
        <time>2022-02-25T11:52:15Z</time>
      </trkpt>
      <trkpt lat="44.79751" lon="6.9846">
        <ele>2213.4</ele>
        <time>2022-02-25T11:52:16Z</time>
      </trkpt>
      <trkpt lat="44.7975" lon="6.98462">
        <ele>2213.4</ele>
        <time>2022-02-25T11:52:17Z</time>
      </trkpt>
      <trkpt lat="44.7975" lon="6.98462">
        <ele>2213.4</ele>
        <time>2022-02-25T11:52:18Z</time>
      </trkpt>
      <trkpt lat="44.7975" lon="6.98462">
        <ele>2213.4</ele>
        <time>2022-02-25T11:52:19Z</time>
      </trkpt>
      <trkpt lat="44.79749" lon="6.98464">
        <ele>2213.5</ele>
        <time>2022-02-25T11:52:20Z</time>
      </trkpt>
      <trkpt lat="44.79749" lon="6.98464">
        <ele>2213.5</ele>
        <time>2022-02-25T11:52:21Z</time>
      </trkpt>
      <trkpt lat="44.79749" lon="6.98464">
        <ele>2213.5</ele>
        <time>2022-02-25T11:52:22Z</time>
      </trkpt>
      <trkpt lat="44.79749" lon="6.98464">
        <ele>2213.5</ele>
        <time>2022-02-25T11:52:23Z</time>
      </trkpt>
      <trkpt lat="44.79749" lon="6.98468">
        <ele>2213.3</ele>
        <time>2022-02-25T11:52:24Z</time>
      </trkpt>
      <trkpt lat="44.79749" lon="6.98468">
        <ele>2213.3</ele>
        <time>2022-02-25T11:52:25Z</time>
      </trkpt>
      <trkpt lat="44.79746" lon="6.98472">
        <ele>2213.6</ele>
        <time>2022-02-25T11:52:26Z</time>
      </trkpt>
      <trkpt lat="44.79743" lon="6.98473">
        <ele>2214.2</ele>
        <time>2022-02-25T11:52:27Z</time>
      </trkpt>
      <trkpt lat="44.79743" lon="6.98473">
        <ele>2214.2</ele>
        <time>2022-02-25T11:52:28Z</time>
      </trkpt>
      <trkpt lat="44.79743" lon="6.98473">
        <ele>2214.2</ele>
        <time>2022-02-25T11:52:29Z</time>
      </trkpt>
      <trkpt lat="44.79743" lon="6.98473">
        <ele>2214.2</ele>
        <time>2022-02-25T11:52:30Z</time>
      </trkpt>
      <trkpt lat="44.79741" lon="6.98474">
        <ele>2214.7</ele>
        <time>2022-02-25T11:52:31Z</time>
      </trkpt>
      <trkpt lat="44.79741" lon="6.98474">
        <ele>2214.7</ele>
        <time>2022-02-25T11:52:32Z</time>
      </trkpt>
      <trkpt lat="44.79741" lon="6.98474">
        <ele>2214.7</ele>
        <time>2022-02-25T11:52:33Z</time>
      </trkpt>
      <trkpt lat="44.79741" lon="6.98474">
        <ele>2214.7</ele>
        <time>2022-02-25T11:52:34Z</time>
      </trkpt>
      <trkpt lat="44.79741" lon="6.98474">
        <ele>2214.7</ele>
        <time>2022-02-25T11:52:35Z</time>
      </trkpt>
      <trkpt lat="44.79741" lon="6.98474">
        <ele>2214.7</ele>
        <time>2022-02-25T11:52:36Z</time>
      </trkpt>
      <trkpt lat="44.79741" lon="6.98474">
        <ele>2214.7</ele>
        <time>2022-02-25T11:52:37Z</time>
      </trkpt>
      <trkpt lat="44.79741" lon="6.98474">
        <ele>2214.7</ele>
        <time>2022-02-25T11:52:38Z</time>
      </trkpt>
      <trkpt lat="44.79741" lon="6.98474">
        <ele>2214.7</ele>
        <time>2022-02-25T11:52:39Z</time>
      </trkpt>
      <trkpt lat="44.79741" lon="6.98474">
        <ele>2214.7</ele>
        <time>2022-02-25T11:52:40Z</time>
      </trkpt>
      <trkpt lat="44.79741" lon="6.98474">
        <ele>2214.7</ele>
        <time>2022-02-25T11:52:41Z</time>
      </trkpt>
      <trkpt lat="44.7974" lon="6.98476">
        <ele>2215.3</ele>
        <time>2022-02-25T11:52:42Z</time>
      </trkpt>
      <trkpt lat="44.7974" lon="6.98476">
        <ele>2215.3</ele>
        <time>2022-02-25T11:52:43Z</time>
      </trkpt>
      <trkpt lat="44.7974" lon="6.98476">
        <ele>2215.3</ele>
        <time>2022-02-25T11:52:44Z</time>
      </trkpt>
      <trkpt lat="44.7974" lon="6.98476">
        <ele>2215.3</ele>
        <time>2022-02-25T11:52:45Z</time>
      </trkpt>
      <trkpt lat="44.79739" lon="6.98478">
        <ele>2215.8</ele>
        <time>2022-02-25T11:52:46Z</time>
      </trkpt>
      <trkpt lat="44.79739" lon="6.98478">
        <ele>2215.8</ele>
        <time>2022-02-25T11:52:47Z</time>
      </trkpt>
      <trkpt lat="44.79739" lon="6.98478">
        <ele>2215.8</ele>
        <time>2022-02-25T11:52:48Z</time>
      </trkpt>
      <trkpt lat="44.79739" lon="6.98478">
        <ele>2215.8</ele>
        <time>2022-02-25T11:52:49Z</time>
      </trkpt>
      <trkpt lat="44.79739" lon="6.98478">
        <ele>2215.8</ele>
        <time>2022-02-25T11:52:50Z</time>
      </trkpt>
      <trkpt lat="44.79739" lon="6.9848">
        <ele>2216.2</ele>
        <time>2022-02-25T11:52:51Z</time>
      </trkpt>
      <trkpt lat="44.79739" lon="6.9848">
        <ele>2216.2</ele>
        <time>2022-02-25T11:52:52Z</time>
      </trkpt>
      <trkpt lat="44.79739" lon="6.9848">
        <ele>2216.2</ele>
        <time>2022-02-25T11:52:53Z</time>
      </trkpt>
      <trkpt lat="44.79738" lon="6.98483">
        <ele>2216.8</ele>
        <time>2022-02-25T11:52:54Z</time>
      </trkpt>
      <trkpt lat="44.79738" lon="6.98483">
        <ele>2216.8</ele>
        <time>2022-02-25T11:52:55Z</time>
      </trkpt>
      <trkpt lat="44.79738" lon="6.98483">
        <ele>2216.8</ele>
        <time>2022-02-25T11:52:56Z</time>
      </trkpt>
      <trkpt lat="44.79736" lon="6.98485">
        <ele>2217.1</ele>
        <time>2022-02-25T11:52:57Z</time>
      </trkpt>
      <trkpt lat="44.79736" lon="6.98485">
        <ele>2217.1</ele>
        <time>2022-02-25T11:52:58Z</time>
      </trkpt>
      <trkpt lat="44.79736" lon="6.98485">
        <ele>2217.1</ele>
        <time>2022-02-25T11:52:59Z</time>
      </trkpt>
      <trkpt lat="44.79734" lon="6.98484">
        <ele>2216.9</ele>
        <time>2022-02-25T11:53:00Z</time>
      </trkpt>
      <trkpt lat="44.79734" lon="6.98484">
        <ele>2216.9</ele>
        <time>2022-02-25T11:53:01Z</time>
      </trkpt>
      <trkpt lat="44.79734" lon="6.98484">
        <ele>2216.9</ele>
        <time>2022-02-25T11:53:02Z</time>
      </trkpt>
      <trkpt lat="44.79734" lon="6.98484">
        <ele>2216.9</ele>
        <time>2022-02-25T11:53:03Z</time>
      </trkpt>
      <trkpt lat="44.79734" lon="6.98484">
        <ele>2216.9</ele>
        <time>2022-02-25T11:53:04Z</time>
      </trkpt>
      <trkpt lat="44.79734" lon="6.98484">
        <ele>2216.9</ele>
        <time>2022-02-25T11:53:05Z</time>
      </trkpt>
      <trkpt lat="44.79734" lon="6.98484">
        <ele>2216.9</ele>
        <time>2022-02-25T11:53:06Z</time>
      </trkpt>
      <trkpt lat="44.79734" lon="6.98484">
        <ele>2216.9</ele>
        <time>2022-02-25T11:53:07Z</time>
      </trkpt>
      <trkpt lat="44.79734" lon="6.98484">
        <ele>2216.9</ele>
        <time>2022-02-25T11:53:08Z</time>
      </trkpt>
      <trkpt lat="44.79734" lon="6.98484">
        <ele>2216.9</ele>
        <time>2022-02-25T11:53:09Z</time>
      </trkpt>
      <trkpt lat="44.79734" lon="6.98484">
        <ele>2216.9</ele>
        <time>2022-02-25T11:53:10Z</time>
      </trkpt>
      <trkpt lat="44.79734" lon="6.98484">
        <ele>2216.9</ele>
        <time>2022-02-25T11:53:11Z</time>
      </trkpt>
      <trkpt lat="44.79734" lon="6.98484">
        <ele>2216.9</ele>
        <time>2022-02-25T11:53:12Z</time>
      </trkpt>
      <trkpt lat="44.79734" lon="6.98483">
        <ele>2216.7</ele>
        <time>2022-02-25T11:53:13Z</time>
      </trkpt>
      <trkpt lat="44.79734" lon="6.98483">
        <ele>2216.7</ele>
        <time>2022-02-25T11:53:14Z</time>
      </trkpt>
      <trkpt lat="44.79735" lon="6.98483">
        <ele>2216.7</ele>
        <time>2022-02-25T11:53:15Z</time>
      </trkpt>
      <trkpt lat="44.79735" lon="6.98483">
        <ele>2216.7</ele>
        <time>2022-02-25T11:53:16Z</time>
      </trkpt>
      <trkpt lat="44.79735" lon="6.98483">
        <ele>2216.7</ele>
        <time>2022-02-25T11:53:17Z</time>
      </trkpt>
      <trkpt lat="44.79735" lon="6.98483">
        <ele>2216.7</ele>
        <time>2022-02-25T11:53:18Z</time>
      </trkpt>
      <trkpt lat="44.79735" lon="6.98483">
        <ele>2216.7</ele>
        <time>2022-02-25T11:53:19Z</time>
      </trkpt>
      <trkpt lat="44.79735" lon="6.98483">
        <ele>2216.7</ele>
        <time>2022-02-25T11:53:20Z</time>
      </trkpt>
      <trkpt lat="44.79735" lon="6.98483">
        <ele>2216.7</ele>
        <time>2022-02-25T11:53:21Z</time>
      </trkpt>
      <trkpt lat="44.79735" lon="6.98483">
        <ele>2216.7</ele>
        <time>2022-02-25T11:53:22Z</time>
      </trkpt>
      <trkpt lat="44.79735" lon="6.98483">
        <ele>2216.7</ele>
        <time>2022-02-25T11:53:23Z</time>
      </trkpt>
      <trkpt lat="44.79735" lon="6.98483">
        <ele>2216.7</ele>
        <time>2022-02-25T11:53:24Z</time>
      </trkpt>
      <trkpt lat="44.79735" lon="6.98483">
        <ele>2216.7</ele>
        <time>2022-02-25T11:53:25Z</time>
      </trkpt>
      <trkpt lat="44.79735" lon="6.98483">
        <ele>2216.7</ele>
        <time>2022-02-25T11:53:26Z</time>
      </trkpt>
      <trkpt lat="44.79735" lon="6.98483">
        <ele>2216.7</ele>
        <time>2022-02-25T11:53:27Z</time>
      </trkpt>
      <trkpt lat="44.79735" lon="6.98483">
        <ele>2216.7</ele>
        <time>2022-02-25T11:53:28Z</time>
      </trkpt>
      <trkpt lat="44.79735" lon="6.98483">
        <ele>2216.7</ele>
        <time>2022-02-25T11:53:29Z</time>
      </trkpt>
      <trkpt lat="44.79735" lon="6.98483">
        <ele>2216.7</ele>
        <time>2022-02-25T11:53:30Z</time>
      </trkpt>
      <trkpt lat="44.79735" lon="6.98483">
        <ele>2216.7</ele>
        <time>2022-02-25T11:53:31Z</time>
      </trkpt>
      <trkpt lat="44.79735" lon="6.98482">
        <ele>2216.6</ele>
        <time>2022-02-25T11:53:32Z</time>
      </trkpt>
      <trkpt lat="44.79735" lon="6.98482">
        <ele>2216.6</ele>
        <time>2022-02-25T11:53:33Z</time>
      </trkpt>
      <trkpt lat="44.79735" lon="6.98482">
        <ele>2216.6</ele>
        <time>2022-02-25T11:53:34Z</time>
      </trkpt>
      <trkpt lat="44.79735" lon="6.98482">
        <ele>2216.6</ele>
        <time>2022-02-25T11:53:35Z</time>
      </trkpt>
      <trkpt lat="44.79735" lon="6.98482">
        <ele>2216.6</ele>
        <time>2022-02-25T11:53:36Z</time>
      </trkpt>
      <trkpt lat="44.79735" lon="6.98482">
        <ele>2216.6</ele>
        <time>2022-02-25T11:53:37Z</time>
      </trkpt>
      <trkpt lat="44.79735" lon="6.98482">
        <ele>2216.6</ele>
        <time>2022-02-25T11:53:38Z</time>
      </trkpt>
      <trkpt lat="44.79735" lon="6.98482">
        <ele>2216.6</ele>
        <time>2022-02-25T11:53:39Z</time>
      </trkpt>
      <trkpt lat="44.79735" lon="6.98482">
        <ele>2216.6</ele>
        <time>2022-02-25T11:53:40Z</time>
      </trkpt>
      <trkpt lat="44.79735" lon="6.98482">
        <ele>2216.6</ele>
        <time>2022-02-25T11:53:41Z</time>
      </trkpt>
      <trkpt lat="44.79735" lon="6.98482">
        <ele>2216.6</ele>
        <time>2022-02-25T11:53:42Z</time>
      </trkpt>
      <trkpt lat="44.79735" lon="6.98482">
        <ele>2216.6</ele>
        <time>2022-02-25T11:53:43Z</time>
      </trkpt>
      <trkpt lat="44.79735" lon="6.98482">
        <ele>2216.6</ele>
        <time>2022-02-25T11:53:44Z</time>
      </trkpt>
      <trkpt lat="44.79735" lon="6.98482">
        <ele>2216.6</ele>
        <time>2022-02-25T11:53:45Z</time>
      </trkpt>
      <trkpt lat="44.79735" lon="6.98482">
        <ele>2216.6</ele>
        <time>2022-02-25T11:53:46Z</time>
      </trkpt>
      <trkpt lat="44.79735" lon="6.98482">
        <ele>2216.6</ele>
        <time>2022-02-25T11:53:47Z</time>
      </trkpt>
      <trkpt lat="44.79735" lon="6.98482">
        <ele>2216.6</ele>
        <time>2022-02-25T11:53:48Z</time>
      </trkpt>
      <trkpt lat="44.79735" lon="6.98482">
        <ele>2216.6</ele>
        <time>2022-02-25T11:53:49Z</time>
      </trkpt>
      <trkpt lat="44.79735" lon="6.98482">
        <ele>2216.6</ele>
        <time>2022-02-25T11:53:50Z</time>
      </trkpt>
      <trkpt lat="44.79736" lon="6.98481">
        <ele>2216.4</ele>
        <time>2022-02-25T11:53:51Z</time>
      </trkpt>
      <trkpt lat="44.79736" lon="6.98481">
        <ele>2216.4</ele>
        <time>2022-02-25T11:53:52Z</time>
      </trkpt>
      <trkpt lat="44.79736" lon="6.98481">
        <ele>2216.4</ele>
        <time>2022-02-25T11:53:53Z</time>
      </trkpt>
      <trkpt lat="44.79736" lon="6.98481">
        <ele>2216.4</ele>
        <time>2022-02-25T11:53:54Z</time>
      </trkpt>
      <trkpt lat="44.79736" lon="6.98481">
        <ele>2216.4</ele>
        <time>2022-02-25T11:53:55Z</time>
      </trkpt>
      <trkpt lat="44.79736" lon="6.98481">
        <ele>2216.4</ele>
        <time>2022-02-25T11:53:56Z</time>
      </trkpt>
      <trkpt lat="44.79736" lon="6.98481">
        <ele>2216.4</ele>
        <time>2022-02-25T11:53:57Z</time>
      </trkpt>
      <trkpt lat="44.79736" lon="6.98481">
        <ele>2216.4</ele>
        <time>2022-02-25T11:53:58Z</time>
      </trkpt>
      <trkpt lat="44.79736" lon="6.98481">
        <ele>2216.4</ele>
        <time>2022-02-25T11:53:59Z</time>
      </trkpt>
      <trkpt lat="44.79736" lon="6.98481">
        <ele>2216.4</ele>
        <time>2022-02-25T11:54:00Z</time>
      </trkpt>
      <trkpt lat="44.79736" lon="6.98481">
        <ele>2216.4</ele>
        <time>2022-02-25T11:54:01Z</time>
      </trkpt>
      <trkpt lat="44.79736" lon="6.98481">
        <ele>2216.4</ele>
        <time>2022-02-25T11:54:02Z</time>
      </trkpt>
      <trkpt lat="44.79736" lon="6.98481">
        <ele>2216.4</ele>
        <time>2022-02-25T11:54:03Z</time>
      </trkpt>
      <trkpt lat="44.79736" lon="6.98481">
        <ele>2216.4</ele>
        <time>2022-02-25T11:54:04Z</time>
      </trkpt>
      <trkpt lat="44.79736" lon="6.98481">
        <ele>2216.4</ele>
        <time>2022-02-25T11:54:05Z</time>
      </trkpt>
      <trkpt lat="44.79736" lon="6.98481">
        <ele>2216.4</ele>
        <time>2022-02-25T11:54:06Z</time>
      </trkpt>
      <trkpt lat="44.79736" lon="6.98481">
        <ele>2216.4</ele>
        <time>2022-02-25T11:54:07Z</time>
      </trkpt>
      <trkpt lat="44.79736" lon="6.98481">
        <ele>2216.4</ele>
        <time>2022-02-25T11:54:08Z</time>
      </trkpt>
      <trkpt lat="44.79736" lon="6.98481">
        <ele>2216.4</ele>
        <time>2022-02-25T11:54:09Z</time>
      </trkpt>
      <trkpt lat="44.79736" lon="6.9848">
        <ele>2216.3</ele>
        <time>2022-02-25T11:54:10Z</time>
      </trkpt>
      <trkpt lat="44.79736" lon="6.9848">
        <ele>2216.3</ele>
        <time>2022-02-25T11:54:11Z</time>
      </trkpt>
      <trkpt lat="44.79736" lon="6.9848">
        <ele>2216.3</ele>
        <time>2022-02-25T11:54:12Z</time>
      </trkpt>
      <trkpt lat="44.79736" lon="6.9848">
        <ele>2216.3</ele>
        <time>2022-02-25T11:54:13Z</time>
      </trkpt>
      <trkpt lat="44.79736" lon="6.9848">
        <ele>2216.3</ele>
        <time>2022-02-25T11:54:14Z</time>
      </trkpt>
      <trkpt lat="44.79736" lon="6.9848">
        <ele>2216.3</ele>
        <time>2022-02-25T11:54:15Z</time>
      </trkpt>
      <trkpt lat="44.79736" lon="6.9848">
        <ele>2216.3</ele>
        <time>2022-02-25T11:54:16Z</time>
      </trkpt>
      <trkpt lat="44.79736" lon="6.9848">
        <ele>2216.3</ele>
        <time>2022-02-25T11:54:17Z</time>
      </trkpt>
      <trkpt lat="44.79736" lon="6.9848">
        <ele>2216.3</ele>
        <time>2022-02-25T11:54:18Z</time>
      </trkpt>
      <trkpt lat="44.79736" lon="6.9848">
        <ele>2216.3</ele>
        <time>2022-02-25T11:54:19Z</time>
      </trkpt>
      <trkpt lat="44.79736" lon="6.9848">
        <ele>2216.3</ele>
        <time>2022-02-25T11:54:20Z</time>
      </trkpt>
      <trkpt lat="44.79736" lon="6.9848">
        <ele>2216.3</ele>
        <time>2022-02-25T11:54:21Z</time>
      </trkpt>
      <trkpt lat="44.79736" lon="6.9848">
        <ele>2216.3</ele>
        <time>2022-02-25T11:54:22Z</time>
      </trkpt>
      <trkpt lat="44.79736" lon="6.9848">
        <ele>2216.3</ele>
        <time>2022-02-25T11:54:23Z</time>
      </trkpt>
      <trkpt lat="44.79736" lon="6.9848">
        <ele>2216.3</ele>
        <time>2022-02-25T11:54:24Z</time>
      </trkpt>
      <trkpt lat="44.79736" lon="6.9848">
        <ele>2216.3</ele>
        <time>2022-02-25T11:54:25Z</time>
      </trkpt>
      <trkpt lat="44.79737" lon="6.9848">
        <ele>2216.2</ele>
        <time>2022-02-25T11:54:26Z</time>
      </trkpt>
      <trkpt lat="44.79737" lon="6.9848">
        <ele>2216.2</ele>
        <time>2022-02-25T11:54:27Z</time>
      </trkpt>
      <trkpt lat="44.79737" lon="6.9848">
        <ele>2216.2</ele>
        <time>2022-02-25T11:54:28Z</time>
      </trkpt>
      <trkpt lat="44.79737" lon="6.98479">
        <ele>2216.1</ele>
        <time>2022-02-25T11:54:29Z</time>
      </trkpt>
      <trkpt lat="44.79737" lon="6.98479">
        <ele>2216.1</ele>
        <time>2022-02-25T11:54:30Z</time>
      </trkpt>
      <trkpt lat="44.79737" lon="6.98479">
        <ele>2216.1</ele>
        <time>2022-02-25T11:54:31Z</time>
      </trkpt>
      <trkpt lat="44.79737" lon="6.98479">
        <ele>2216.1</ele>
        <time>2022-02-25T11:54:32Z</time>
      </trkpt>
      <trkpt lat="44.79737" lon="6.98479">
        <ele>2216.1</ele>
        <time>2022-02-25T11:54:33Z</time>
      </trkpt>
      <trkpt lat="44.79737" lon="6.98479">
        <ele>2216.1</ele>
        <time>2022-02-25T11:54:34Z</time>
      </trkpt>
      <trkpt lat="44.79737" lon="6.98479">
        <ele>2216.1</ele>
        <time>2022-02-25T11:54:35Z</time>
      </trkpt>
      <trkpt lat="44.79737" lon="6.98479">
        <ele>2216.1</ele>
        <time>2022-02-25T11:54:36Z</time>
      </trkpt>
      <trkpt lat="44.79737" lon="6.98479">
        <ele>2216.1</ele>
        <time>2022-02-25T11:54:37Z</time>
      </trkpt>
      <trkpt lat="44.79737" lon="6.98479">
        <ele>2216.1</ele>
        <time>2022-02-25T11:54:38Z</time>
      </trkpt>
      <trkpt lat="44.79737" lon="6.98479">
        <ele>2216.1</ele>
        <time>2022-02-25T11:54:39Z</time>
      </trkpt>
      <trkpt lat="44.79737" lon="6.98479">
        <ele>2216.1</ele>
        <time>2022-02-25T11:54:40Z</time>
      </trkpt>
      <trkpt lat="44.79737" lon="6.98479">
        <ele>2216.1</ele>
        <time>2022-02-25T11:54:41Z</time>
      </trkpt>
      <trkpt lat="44.79737" lon="6.98479">
        <ele>2216.1</ele>
        <time>2022-02-25T11:54:42Z</time>
      </trkpt>
      <trkpt lat="44.79737" lon="6.98479">
        <ele>2216.1</ele>
        <time>2022-02-25T11:54:43Z</time>
      </trkpt>
      <trkpt lat="44.79737" lon="6.98479">
        <ele>2216.1</ele>
        <time>2022-02-25T11:54:44Z</time>
      </trkpt>
      <trkpt lat="44.79737" lon="6.98479">
        <ele>2216.1</ele>
        <time>2022-02-25T11:54:45Z</time>
      </trkpt>
      <trkpt lat="44.79737" lon="6.98479">
        <ele>2216.1</ele>
        <time>2022-02-25T11:54:46Z</time>
      </trkpt>
      <trkpt lat="44.79737" lon="6.98479">
        <ele>2216.1</ele>
        <time>2022-02-25T11:54:47Z</time>
      </trkpt>
      <trkpt lat="44.79737" lon="6.98478">
        <ele>2215.9</ele>
        <time>2022-02-25T11:54:48Z</time>
      </trkpt>
      <trkpt lat="44.79737" lon="6.98478">
        <ele>2215.9</ele>
        <time>2022-02-25T11:54:49Z</time>
      </trkpt>
      <trkpt lat="44.79737" lon="6.98478">
        <ele>2215.9</ele>
        <time>2022-02-25T11:54:50Z</time>
      </trkpt>
      <trkpt lat="44.79737" lon="6.98478">
        <ele>2215.9</ele>
        <time>2022-02-25T11:54:51Z</time>
      </trkpt>
      <trkpt lat="44.79737" lon="6.98478">
        <ele>2215.9</ele>
        <time>2022-02-25T11:54:52Z</time>
      </trkpt>
      <trkpt lat="44.79737" lon="6.98478">
        <ele>2215.9</ele>
        <time>2022-02-25T11:54:53Z</time>
      </trkpt>
      <trkpt lat="44.79737" lon="6.98478">
        <ele>2215.9</ele>
        <time>2022-02-25T11:54:54Z</time>
      </trkpt>
      <trkpt lat="44.79737" lon="6.98478">
        <ele>2215.9</ele>
        <time>2022-02-25T11:54:55Z</time>
      </trkpt>
      <trkpt lat="44.79737" lon="6.98478">
        <ele>2215.9</ele>
        <time>2022-02-25T11:54:56Z</time>
      </trkpt>
      <trkpt lat="44.79737" lon="6.98478">
        <ele>2215.9</ele>
        <time>2022-02-25T11:54:57Z</time>
      </trkpt>
      <trkpt lat="44.79737" lon="6.98478">
        <ele>2215.9</ele>
        <time>2022-02-25T11:54:58Z</time>
      </trkpt>
      <trkpt lat="44.79737" lon="6.98478">
        <ele>2215.9</ele>
        <time>2022-02-25T11:54:59Z</time>
      </trkpt>
      <trkpt lat="44.79737" lon="6.98478">
        <ele>2215.9</ele>
        <time>2022-02-25T11:55:00Z</time>
      </trkpt>
      <trkpt lat="44.79737" lon="6.98478">
        <ele>2215.9</ele>
        <time>2022-02-25T11:55:01Z</time>
      </trkpt>
      <trkpt lat="44.79738" lon="6.98478">
        <ele>2215.8</ele>
        <time>2022-02-25T11:55:02Z</time>
      </trkpt>
      <trkpt lat="44.79738" lon="6.98478">
        <ele>2215.8</ele>
        <time>2022-02-25T11:55:03Z</time>
      </trkpt>
      <trkpt lat="44.79738" lon="6.98478">
        <ele>2215.8</ele>
        <time>2022-02-25T11:55:04Z</time>
      </trkpt>
      <trkpt lat="44.79738" lon="6.98478">
        <ele>2215.8</ele>
        <time>2022-02-25T11:55:05Z</time>
      </trkpt>
      <trkpt lat="44.79738" lon="6.98478">
        <ele>2215.8</ele>
        <time>2022-02-25T11:55:06Z</time>
      </trkpt>
      <trkpt lat="44.79738" lon="6.98477">
        <ele>2215.6</ele>
        <time>2022-02-25T11:55:07Z</time>
      </trkpt>
      <trkpt lat="44.79738" lon="6.98477">
        <ele>2215.6</ele>
        <time>2022-02-25T11:55:08Z</time>
      </trkpt>
      <trkpt lat="44.79738" lon="6.98477">
        <ele>2215.6</ele>
        <time>2022-02-25T11:55:09Z</time>
      </trkpt>
      <trkpt lat="44.79738" lon="6.98477">
        <ele>2215.6</ele>
        <time>2022-02-25T11:55:10Z</time>
      </trkpt>
      <trkpt lat="44.79738" lon="6.98477">
        <ele>2215.6</ele>
        <time>2022-02-25T11:55:11Z</time>
      </trkpt>
      <trkpt lat="44.79738" lon="6.98477">
        <ele>2215.6</ele>
        <time>2022-02-25T11:55:12Z</time>
      </trkpt>
      <trkpt lat="44.79738" lon="6.98477">
        <ele>2215.6</ele>
        <time>2022-02-25T11:55:13Z</time>
      </trkpt>
      <trkpt lat="44.79738" lon="6.98477">
        <ele>2215.6</ele>
        <time>2022-02-25T11:55:14Z</time>
      </trkpt>
      <trkpt lat="44.79738" lon="6.98477">
        <ele>2215.6</ele>
        <time>2022-02-25T11:55:15Z</time>
      </trkpt>
      <trkpt lat="44.79738" lon="6.98477">
        <ele>2215.6</ele>
        <time>2022-02-25T11:55:16Z</time>
      </trkpt>
      <trkpt lat="44.79738" lon="6.98477">
        <ele>2215.6</ele>
        <time>2022-02-25T11:55:17Z</time>
      </trkpt>
      <trkpt lat="44.79738" lon="6.98477">
        <ele>2215.6</ele>
        <time>2022-02-25T11:55:18Z</time>
      </trkpt>
      <trkpt lat="44.79738" lon="6.98477">
        <ele>2215.6</ele>
        <time>2022-02-25T11:55:19Z</time>
      </trkpt>
      <trkpt lat="44.79738" lon="6.98477">
        <ele>2215.6</ele>
        <time>2022-02-25T11:55:20Z</time>
      </trkpt>
      <trkpt lat="44.79738" lon="6.98477">
        <ele>2215.6</ele>
        <time>2022-02-25T11:55:21Z</time>
      </trkpt>
      <trkpt lat="44.79738" lon="6.98477">
        <ele>2215.6</ele>
        <time>2022-02-25T11:55:22Z</time>
      </trkpt>
      <trkpt lat="44.79738" lon="6.98477">
        <ele>2215.6</ele>
        <time>2022-02-25T11:55:23Z</time>
      </trkpt>
      <trkpt lat="44.79738" lon="6.98477">
        <ele>2215.6</ele>
        <time>2022-02-25T11:55:24Z</time>
      </trkpt>
      <trkpt lat="44.79738" lon="6.98477">
        <ele>2215.6</ele>
        <time>2022-02-25T11:55:25Z</time>
      </trkpt>
      <trkpt lat="44.79738" lon="6.98476">
        <ele>2215.4</ele>
        <time>2022-02-25T11:55:26Z</time>
      </trkpt>
      <trkpt lat="44.79738" lon="6.98476">
        <ele>2215.4</ele>
        <time>2022-02-25T11:55:27Z</time>
      </trkpt>
      <trkpt lat="44.79738" lon="6.98476">
        <ele>2215.4</ele>
        <time>2022-02-25T11:55:28Z</time>
      </trkpt>
      <trkpt lat="44.79738" lon="6.98476">
        <ele>2215.4</ele>
        <time>2022-02-25T11:55:29Z</time>
      </trkpt>
      <trkpt lat="44.79738" lon="6.98476">
        <ele>2215.4</ele>
        <time>2022-02-25T11:55:30Z</time>
      </trkpt>
      <trkpt lat="44.79738" lon="6.98476">
        <ele>2215.4</ele>
        <time>2022-02-25T11:55:31Z</time>
      </trkpt>
      <trkpt lat="44.79738" lon="6.98476">
        <ele>2215.4</ele>
        <time>2022-02-25T11:55:32Z</time>
      </trkpt>
      <trkpt lat="44.79738" lon="6.98476">
        <ele>2215.4</ele>
        <time>2022-02-25T11:55:33Z</time>
      </trkpt>
      <trkpt lat="44.79738" lon="6.98476">
        <ele>2215.4</ele>
        <time>2022-02-25T11:55:34Z</time>
      </trkpt>
      <trkpt lat="44.79738" lon="6.98476">
        <ele>2215.4</ele>
        <time>2022-02-25T11:55:35Z</time>
      </trkpt>
      <trkpt lat="44.79738" lon="6.98476">
        <ele>2215.4</ele>
        <time>2022-02-25T11:55:36Z</time>
      </trkpt>
      <trkpt lat="44.79739" lon="6.98476">
        <ele>2215.4</ele>
        <time>2022-02-25T11:55:37Z</time>
      </trkpt>
      <trkpt lat="44.79739" lon="6.98476">
        <ele>2215.4</ele>
        <time>2022-02-25T11:55:38Z</time>
      </trkpt>
      <trkpt lat="44.79739" lon="6.98476">
        <ele>2215.4</ele>
        <time>2022-02-25T11:55:39Z</time>
      </trkpt>
      <trkpt lat="44.79739" lon="6.98476">
        <ele>2215.4</ele>
        <time>2022-02-25T11:55:40Z</time>
      </trkpt>
      <trkpt lat="44.79739" lon="6.98476">
        <ele>2215.4</ele>
        <time>2022-02-25T11:55:41Z</time>
      </trkpt>
      <trkpt lat="44.79739" lon="6.98476">
        <ele>2215.4</ele>
        <time>2022-02-25T11:55:42Z</time>
      </trkpt>
      <trkpt lat="44.79739" lon="6.98476">
        <ele>2215.4</ele>
        <time>2022-02-25T11:55:43Z</time>
      </trkpt>
      <trkpt lat="44.79739" lon="6.98476">
        <ele>2215.4</ele>
        <time>2022-02-25T11:55:44Z</time>
      </trkpt>
      <trkpt lat="44.79739" lon="6.98475">
        <ele>2215.1</ele>
        <time>2022-02-25T11:55:45Z</time>
      </trkpt>
      <trkpt lat="44.79739" lon="6.98475">
        <ele>2215.1</ele>
        <time>2022-02-25T11:55:46Z</time>
      </trkpt>
      <trkpt lat="44.79739" lon="6.98475">
        <ele>2215.1</ele>
        <time>2022-02-25T11:55:47Z</time>
      </trkpt>
      <trkpt lat="44.79739" lon="6.98475">
        <ele>2215.1</ele>
        <time>2022-02-25T11:55:48Z</time>
      </trkpt>
      <trkpt lat="44.79739" lon="6.98475">
        <ele>2215.1</ele>
        <time>2022-02-25T11:55:49Z</time>
      </trkpt>
      <trkpt lat="44.79739" lon="6.98475">
        <ele>2215.1</ele>
        <time>2022-02-25T11:55:50Z</time>
      </trkpt>
      <trkpt lat="44.79739" lon="6.98475">
        <ele>2215.1</ele>
        <time>2022-02-25T11:55:51Z</time>
      </trkpt>
      <trkpt lat="44.79739" lon="6.98475">
        <ele>2215.1</ele>
        <time>2022-02-25T11:55:52Z</time>
      </trkpt>
      <trkpt lat="44.79739" lon="6.98475">
        <ele>2215.1</ele>
        <time>2022-02-25T11:55:53Z</time>
      </trkpt>
      <trkpt lat="44.79739" lon="6.98475">
        <ele>2215.1</ele>
        <time>2022-02-25T11:55:54Z</time>
      </trkpt>
      <trkpt lat="44.79739" lon="6.98475">
        <ele>2215.1</ele>
        <time>2022-02-25T11:55:55Z</time>
      </trkpt>
      <trkpt lat="44.79739" lon="6.98475">
        <ele>2215.1</ele>
        <time>2022-02-25T11:55:56Z</time>
      </trkpt>
      <trkpt lat="44.79739" lon="6.98475">
        <ele>2215.1</ele>
        <time>2022-02-25T11:55:57Z</time>
      </trkpt>
      <trkpt lat="44.79739" lon="6.98475">
        <ele>2215.1</ele>
        <time>2022-02-25T11:55:58Z</time>
      </trkpt>
      <trkpt lat="44.79739" lon="6.98475">
        <ele>2215.1</ele>
        <time>2022-02-25T11:55:59Z</time>
      </trkpt>
      <trkpt lat="44.79739" lon="6.98475">
        <ele>2215.1</ele>
        <time>2022-02-25T11:56:00Z</time>
      </trkpt>
      <trkpt lat="44.79739" lon="6.98475">
        <ele>2215.1</ele>
        <time>2022-02-25T11:56:01Z</time>
      </trkpt>
      <trkpt lat="44.79739" lon="6.98475">
        <ele>2215.1</ele>
        <time>2022-02-25T11:56:02Z</time>
      </trkpt>
      <trkpt lat="44.79739" lon="6.98475">
        <ele>2215.1</ele>
        <time>2022-02-25T11:56:03Z</time>
      </trkpt>
      <trkpt lat="44.79739" lon="6.98475">
        <ele>2215.1</ele>
        <time>2022-02-25T11:56:04Z</time>
      </trkpt>
      <trkpt lat="44.79739" lon="6.98474">
        <ele>2214.9</ele>
        <time>2022-02-25T11:56:05Z</time>
      </trkpt>
      <trkpt lat="44.79739" lon="6.98474">
        <ele>2214.9</ele>
        <time>2022-02-25T11:56:06Z</time>
      </trkpt>
      <trkpt lat="44.79739" lon="6.98474">
        <ele>2214.9</ele>
        <time>2022-02-25T11:56:07Z</time>
      </trkpt>
      <trkpt lat="44.79739" lon="6.98474">
        <ele>2214.9</ele>
        <time>2022-02-25T11:56:08Z</time>
      </trkpt>
      <trkpt lat="44.79739" lon="6.98474">
        <ele>2214.9</ele>
        <time>2022-02-25T11:56:09Z</time>
      </trkpt>
      <trkpt lat="44.79739" lon="6.98474">
        <ele>2214.9</ele>
        <time>2022-02-25T11:56:10Z</time>
      </trkpt>
      <trkpt lat="44.79739" lon="6.98474">
        <ele>2214.9</ele>
        <time>2022-02-25T11:56:11Z</time>
      </trkpt>
      <trkpt lat="44.79739" lon="6.98474">
        <ele>2214.9</ele>
        <time>2022-02-25T11:56:12Z</time>
      </trkpt>
      <trkpt lat="44.7974" lon="6.98474">
        <ele>2214.8</ele>
        <time>2022-02-25T11:56:13Z</time>
      </trkpt>
      <trkpt lat="44.7974" lon="6.98474">
        <ele>2214.8</ele>
        <time>2022-02-25T11:56:14Z</time>
      </trkpt>
      <trkpt lat="44.7974" lon="6.98474">
        <ele>2214.8</ele>
        <time>2022-02-25T11:56:15Z</time>
      </trkpt>
      <trkpt lat="44.7974" lon="6.98474">
        <ele>2214.8</ele>
        <time>2022-02-25T11:56:16Z</time>
      </trkpt>
      <trkpt lat="44.7974" lon="6.98474">
        <ele>2214.8</ele>
        <time>2022-02-25T11:56:17Z</time>
      </trkpt>
      <trkpt lat="44.7974" lon="6.98474">
        <ele>2214.8</ele>
        <time>2022-02-25T11:56:18Z</time>
      </trkpt>
      <trkpt lat="44.7974" lon="6.98474">
        <ele>2214.8</ele>
        <time>2022-02-25T11:56:19Z</time>
      </trkpt>
      <trkpt lat="44.7974" lon="6.98474">
        <ele>2214.8</ele>
        <time>2022-02-25T11:56:20Z</time>
      </trkpt>
      <trkpt lat="44.7974" lon="6.98474">
        <ele>2214.8</ele>
        <time>2022-02-25T11:56:21Z</time>
      </trkpt>
      <trkpt lat="44.7974" lon="6.98474">
        <ele>2214.8</ele>
        <time>2022-02-25T11:56:22Z</time>
      </trkpt>
      <trkpt lat="44.7974" lon="6.98474">
        <ele>2214.8</ele>
        <time>2022-02-25T11:56:23Z</time>
      </trkpt>
      <trkpt lat="44.7974" lon="6.98473">
        <ele>2214.6</ele>
        <time>2022-02-25T11:56:24Z</time>
      </trkpt>
      <trkpt lat="44.7974" lon="6.98473">
        <ele>2214.6</ele>
        <time>2022-02-25T11:56:25Z</time>
      </trkpt>
      <trkpt lat="44.7974" lon="6.98473">
        <ele>2214.6</ele>
        <time>2022-02-25T11:56:26Z</time>
      </trkpt>
      <trkpt lat="44.7974" lon="6.98473">
        <ele>2214.6</ele>
        <time>2022-02-25T11:56:27Z</time>
      </trkpt>
      <trkpt lat="44.7974" lon="6.98473">
        <ele>2214.6</ele>
        <time>2022-02-25T11:56:28Z</time>
      </trkpt>
      <trkpt lat="44.7974" lon="6.98473">
        <ele>2214.6</ele>
        <time>2022-02-25T11:56:29Z</time>
      </trkpt>
      <trkpt lat="44.7974" lon="6.98473">
        <ele>2214.6</ele>
        <time>2022-02-25T11:56:30Z</time>
      </trkpt>
      <trkpt lat="44.7974" lon="6.98473">
        <ele>2214.6</ele>
        <time>2022-02-25T11:56:31Z</time>
      </trkpt>
      <trkpt lat="44.7974" lon="6.98473">
        <ele>2214.6</ele>
        <time>2022-02-25T11:56:32Z</time>
      </trkpt>
      <trkpt lat="44.7974" lon="6.98473">
        <ele>2214.6</ele>
        <time>2022-02-25T11:56:33Z</time>
      </trkpt>
      <trkpt lat="44.7974" lon="6.98473">
        <ele>2214.6</ele>
        <time>2022-02-25T11:56:34Z</time>
      </trkpt>
      <trkpt lat="44.7974" lon="6.98473">
        <ele>2214.6</ele>
        <time>2022-02-25T11:56:35Z</time>
      </trkpt>
      <trkpt lat="44.7974" lon="6.98473">
        <ele>2214.6</ele>
        <time>2022-02-25T11:56:36Z</time>
      </trkpt>
      <trkpt lat="44.7974" lon="6.98473">
        <ele>2214.6</ele>
        <time>2022-02-25T11:56:37Z</time>
      </trkpt>
      <trkpt lat="44.7974" lon="6.98473">
        <ele>2214.6</ele>
        <time>2022-02-25T11:56:38Z</time>
      </trkpt>
      <trkpt lat="44.7974" lon="6.98473">
        <ele>2214.6</ele>
        <time>2022-02-25T11:56:39Z</time>
      </trkpt>
      <trkpt lat="44.7974" lon="6.98473">
        <ele>2214.6</ele>
        <time>2022-02-25T11:56:40Z</time>
      </trkpt>
      <trkpt lat="44.7974" lon="6.98473">
        <ele>2214.6</ele>
        <time>2022-02-25T11:56:41Z</time>
      </trkpt>
      <trkpt lat="44.7974" lon="6.98473">
        <ele>2214.6</ele>
        <time>2022-02-25T11:56:42Z</time>
      </trkpt>
      <trkpt lat="44.7974" lon="6.98472">
        <ele>2214.5</ele>
        <time>2022-02-25T11:56:43Z</time>
      </trkpt>
      <trkpt lat="44.7974" lon="6.98472">
        <ele>2214.5</ele>
        <time>2022-02-25T11:56:44Z</time>
      </trkpt>
      <trkpt lat="44.7974" lon="6.98472">
        <ele>2214.5</ele>
        <time>2022-02-25T11:56:45Z</time>
      </trkpt>
      <trkpt lat="44.7974" lon="6.98472">
        <ele>2214.5</ele>
        <time>2022-02-25T11:56:46Z</time>
      </trkpt>
      <trkpt lat="44.7974" lon="6.98472">
        <ele>2214.5</ele>
        <time>2022-02-25T11:56:47Z</time>
      </trkpt>
      <trkpt lat="44.79741" lon="6.98472">
        <ele>2214.3</ele>
        <time>2022-02-25T11:56:48Z</time>
      </trkpt>
      <trkpt lat="44.79741" lon="6.98472">
        <ele>2214.3</ele>
        <time>2022-02-25T11:56:49Z</time>
      </trkpt>
      <trkpt lat="44.79741" lon="6.98472">
        <ele>2214.3</ele>
        <time>2022-02-25T11:56:50Z</time>
      </trkpt>
      <trkpt lat="44.79741" lon="6.98472">
        <ele>2214.3</ele>
        <time>2022-02-25T11:56:51Z</time>
      </trkpt>
      <trkpt lat="44.79741" lon="6.98472">
        <ele>2214.3</ele>
        <time>2022-02-25T11:56:52Z</time>
      </trkpt>
      <trkpt lat="44.79741" lon="6.98472">
        <ele>2214.3</ele>
        <time>2022-02-25T11:56:53Z</time>
      </trkpt>
      <trkpt lat="44.79741" lon="6.98472">
        <ele>2214.3</ele>
        <time>2022-02-25T11:56:54Z</time>
      </trkpt>
      <trkpt lat="44.79741" lon="6.98472">
        <ele>2214.3</ele>
        <time>2022-02-25T11:56:55Z</time>
      </trkpt>
      <trkpt lat="44.79741" lon="6.98472">
        <ele>2214.3</ele>
        <time>2022-02-25T11:56:56Z</time>
      </trkpt>
      <trkpt lat="44.79741" lon="6.98472">
        <ele>2214.3</ele>
        <time>2022-02-25T11:56:57Z</time>
      </trkpt>
      <trkpt lat="44.79741" lon="6.98472">
        <ele>2214.3</ele>
        <time>2022-02-25T11:56:58Z</time>
      </trkpt>
      <trkpt lat="44.79741" lon="6.98472">
        <ele>2214.3</ele>
        <time>2022-02-25T11:56:59Z</time>
      </trkpt>
      <trkpt lat="44.79741" lon="6.98472">
        <ele>2214.3</ele>
        <time>2022-02-25T11:57:00Z</time>
      </trkpt>
      <trkpt lat="44.79741" lon="6.98472">
        <ele>2214.3</ele>
        <time>2022-02-25T11:57:01Z</time>
      </trkpt>
      <trkpt lat="44.79741" lon="6.98471">
        <ele>2214.4</ele>
        <time>2022-02-25T11:57:02Z</time>
      </trkpt>
      <trkpt lat="44.79741" lon="6.98471">
        <ele>2214.4</ele>
        <time>2022-02-25T11:57:03Z</time>
      </trkpt>
      <trkpt lat="44.79741" lon="6.98471">
        <ele>2214.4</ele>
        <time>2022-02-25T11:57:04Z</time>
      </trkpt>
      <trkpt lat="44.79741" lon="6.98471">
        <ele>2214.4</ele>
        <time>2022-02-25T11:57:05Z</time>
      </trkpt>
      <trkpt lat="44.79741" lon="6.98471">
        <ele>2214.4</ele>
        <time>2022-02-25T11:57:06Z</time>
      </trkpt>
      <trkpt lat="44.79742" lon="6.98471">
        <ele>2214.3</ele>
        <time>2022-02-25T11:57:07Z</time>
      </trkpt>
      <trkpt lat="44.79746" lon="6.98471">
        <ele>2213.7</ele>
        <time>2022-02-25T11:57:08Z</time>
      </trkpt>
      <trkpt lat="44.79746" lon="6.98471">
        <ele>2213.7</ele>
        <time>2022-02-25T11:57:09Z</time>
      </trkpt>
      <trkpt lat="44.79748" lon="6.98471">
        <ele>2213.4</ele>
        <time>2022-02-25T11:57:10Z</time>
      </trkpt>
      <trkpt lat="44.79748" lon="6.98471">
        <ele>2213.4</ele>
        <time>2022-02-25T11:57:11Z</time>
      </trkpt>
      <trkpt lat="44.79751" lon="6.98471">
        <ele>2213.1</ele>
        <time>2022-02-25T11:57:12Z</time>
      </trkpt>
      <trkpt lat="44.79751" lon="6.98471">
        <ele>2213.1</ele>
        <time>2022-02-25T11:57:13Z</time>
      </trkpt>
      <trkpt lat="44.79753" lon="6.98471">
        <ele>2213.2</ele>
        <time>2022-02-25T11:57:14Z</time>
      </trkpt>
      <trkpt lat="44.79753" lon="6.98471">
        <ele>2213.2</ele>
        <time>2022-02-25T11:57:15Z</time>
      </trkpt>
      <trkpt lat="44.79753" lon="6.98471">
        <ele>2213.2</ele>
        <time>2022-02-25T11:57:16Z</time>
      </trkpt>
      <trkpt lat="44.79753" lon="6.98471">
        <ele>2213.2</ele>
        <time>2022-02-25T11:57:17Z</time>
      </trkpt>
      <trkpt lat="44.79755" lon="6.98471">
        <ele>2213.3</ele>
        <time>2022-02-25T11:57:18Z</time>
      </trkpt>
      <trkpt lat="44.79755" lon="6.98471">
        <ele>2213.3</ele>
        <time>2022-02-25T11:57:19Z</time>
      </trkpt>
      <trkpt lat="44.79755" lon="6.98471">
        <ele>2213.3</ele>
        <time>2022-02-25T11:57:20Z</time>
      </trkpt>
      <trkpt lat="44.79755" lon="6.98471">
        <ele>2213.3</ele>
        <time>2022-02-25T11:57:21Z</time>
      </trkpt>
      <trkpt lat="44.79757" lon="6.9847">
        <ele>2213.4</ele>
        <time>2022-02-25T11:57:22Z</time>
      </trkpt>
      <trkpt lat="44.79757" lon="6.9847">
        <ele>2213.4</ele>
        <time>2022-02-25T11:57:23Z</time>
      </trkpt>
      <trkpt lat="44.79757" lon="6.9847">
        <ele>2213.4</ele>
        <time>2022-02-25T11:57:24Z</time>
      </trkpt>
      <trkpt lat="44.79759" lon="6.9847">
        <ele>2213.5</ele>
        <time>2022-02-25T11:57:25Z</time>
      </trkpt>
      <trkpt lat="44.79759" lon="6.9847">
        <ele>2213.5</ele>
        <time>2022-02-25T11:57:26Z</time>
      </trkpt>
      <trkpt lat="44.79759" lon="6.9847">
        <ele>2213.5</ele>
        <time>2022-02-25T11:57:27Z</time>
      </trkpt>
      <trkpt lat="44.79761" lon="6.9847">
        <ele>2213.6</ele>
        <time>2022-02-25T11:57:28Z</time>
      </trkpt>
      <trkpt lat="44.79761" lon="6.9847">
        <ele>2213.6</ele>
        <time>2022-02-25T11:57:29Z</time>
      </trkpt>
      <trkpt lat="44.79761" lon="6.9847">
        <ele>2213.6</ele>
        <time>2022-02-25T11:57:30Z</time>
      </trkpt>
      <trkpt lat="44.79761" lon="6.9847">
        <ele>2213.6</ele>
        <time>2022-02-25T11:57:31Z</time>
      </trkpt>
      <trkpt lat="44.79763" lon="6.98471">
        <ele>2213.8</ele>
        <time>2022-02-25T11:57:32Z</time>
      </trkpt>
      <trkpt lat="44.79763" lon="6.98471">
        <ele>2213.8</ele>
        <time>2022-02-25T11:57:33Z</time>
      </trkpt>
      <trkpt lat="44.79763" lon="6.98471">
        <ele>2213.8</ele>
        <time>2022-02-25T11:57:34Z</time>
      </trkpt>
      <trkpt lat="44.79765" lon="6.98471">
        <ele>2213.9</ele>
        <time>2022-02-25T11:57:35Z</time>
      </trkpt>
      <trkpt lat="44.79765" lon="6.98471">
        <ele>2213.9</ele>
        <time>2022-02-25T11:57:36Z</time>
      </trkpt>
      <trkpt lat="44.79765" lon="6.98471">
        <ele>2213.9</ele>
        <time>2022-02-25T11:57:37Z</time>
      </trkpt>
      <trkpt lat="44.79765" lon="6.98471">
        <ele>2213.9</ele>
        <time>2022-02-25T11:57:38Z</time>
      </trkpt>
      <trkpt lat="44.79766" lon="6.98474">
        <ele>2214.8</ele>
        <time>2022-02-25T11:57:39Z</time>
      </trkpt>
      <trkpt lat="44.79766" lon="6.98474">
        <ele>2214.8</ele>
        <time>2022-02-25T11:57:40Z</time>
      </trkpt>
      <trkpt lat="44.79766" lon="6.98474">
        <ele>2214.8</ele>
        <time>2022-02-25T11:57:41Z</time>
      </trkpt>
      <trkpt lat="44.79766" lon="6.98474">
        <ele>2214.8</ele>
        <time>2022-02-25T11:57:42Z</time>
      </trkpt>
      <trkpt lat="44.79766" lon="6.98474">
        <ele>2214.8</ele>
        <time>2022-02-25T11:57:43Z</time>
      </trkpt>
      <trkpt lat="44.79768" lon="6.98476">
        <ele>2215.7</ele>
        <time>2022-02-25T11:57:44Z</time>
      </trkpt>
      <trkpt lat="44.79768" lon="6.98476">
        <ele>2215.7</ele>
        <time>2022-02-25T11:57:45Z</time>
      </trkpt>
      <trkpt lat="44.79768" lon="6.98476">
        <ele>2215.7</ele>
        <time>2022-02-25T11:57:46Z</time>
      </trkpt>
      <trkpt lat="44.79768" lon="6.98476">
        <ele>2215.7</ele>
        <time>2022-02-25T11:57:47Z</time>
      </trkpt>
      <trkpt lat="44.7977" lon="6.98478">
        <ele>2216.5</ele>
        <time>2022-02-25T11:57:48Z</time>
      </trkpt>
      <trkpt lat="44.7977" lon="6.98478">
        <ele>2216.5</ele>
        <time>2022-02-25T11:57:49Z</time>
      </trkpt>
      <trkpt lat="44.7977" lon="6.98478">
        <ele>2216.5</ele>
        <time>2022-02-25T11:57:50Z</time>
      </trkpt>
      <trkpt lat="44.7977" lon="6.98478">
        <ele>2216.5</ele>
        <time>2022-02-25T11:57:51Z</time>
      </trkpt>
      <trkpt lat="44.79772" lon="6.98481">
        <ele>2217.7</ele>
        <time>2022-02-25T11:57:52Z</time>
      </trkpt>
      <trkpt lat="44.79772" lon="6.98481">
        <ele>2217.7</ele>
        <time>2022-02-25T11:57:53Z</time>
      </trkpt>
      <trkpt lat="44.79772" lon="6.98481">
        <ele>2217.7</ele>
        <time>2022-02-25T11:57:54Z</time>
      </trkpt>
      <trkpt lat="44.79772" lon="6.98481">
        <ele>2217.7</ele>
        <time>2022-02-25T11:57:55Z</time>
      </trkpt>
      <trkpt lat="44.79772" lon="6.98481">
        <ele>2217.7</ele>
        <time>2022-02-25T11:57:56Z</time>
      </trkpt>
      <trkpt lat="44.79773" lon="6.98483">
        <ele>2218.5</ele>
        <time>2022-02-25T11:57:57Z</time>
      </trkpt>
      <trkpt lat="44.79773" lon="6.98483">
        <ele>2218.5</ele>
        <time>2022-02-25T11:57:58Z</time>
      </trkpt>
      <trkpt lat="44.79773" lon="6.98483">
        <ele>2218.5</ele>
        <time>2022-02-25T11:57:59Z</time>
      </trkpt>
      <trkpt lat="44.79773" lon="6.98483">
        <ele>2218.5</ele>
        <time>2022-02-25T11:58:00Z</time>
      </trkpt>
      <trkpt lat="44.79773" lon="6.98483">
        <ele>2218.5</ele>
        <time>2022-02-25T11:58:01Z</time>
      </trkpt>
      <trkpt lat="44.79774" lon="6.98486">
        <ele>2219.7</ele>
        <time>2022-02-25T11:58:02Z</time>
      </trkpt>
      <trkpt lat="44.79774" lon="6.98486">
        <ele>2219.7</ele>
        <time>2022-02-25T11:58:03Z</time>
      </trkpt>
      <trkpt lat="44.79774" lon="6.98486">
        <ele>2219.7</ele>
        <time>2022-02-25T11:58:04Z</time>
      </trkpt>
      <trkpt lat="44.79774" lon="6.98486">
        <ele>2219.7</ele>
        <time>2022-02-25T11:58:05Z</time>
      </trkpt>
      <trkpt lat="44.79776" lon="6.98488">
        <ele>2220.6</ele>
        <time>2022-02-25T11:58:06Z</time>
      </trkpt>
      <trkpt lat="44.79776" lon="6.98488">
        <ele>2220.6</ele>
        <time>2022-02-25T11:58:07Z</time>
      </trkpt>
      <trkpt lat="44.79776" lon="6.98488">
        <ele>2220.6</ele>
        <time>2022-02-25T11:58:08Z</time>
      </trkpt>
      <trkpt lat="44.79776" lon="6.98488">
        <ele>2220.6</ele>
        <time>2022-02-25T11:58:09Z</time>
      </trkpt>
      <trkpt lat="44.79777" lon="6.98491">
        <ele>2221.7</ele>
        <time>2022-02-25T11:58:10Z</time>
      </trkpt>
      <trkpt lat="44.79777" lon="6.98491">
        <ele>2221.7</ele>
        <time>2022-02-25T11:58:11Z</time>
      </trkpt>
      <trkpt lat="44.79777" lon="6.98491">
        <ele>2221.7</ele>
        <time>2022-02-25T11:58:12Z</time>
      </trkpt>
      <trkpt lat="44.79777" lon="6.98491">
        <ele>2221.7</ele>
        <time>2022-02-25T11:58:13Z</time>
      </trkpt>
      <trkpt lat="44.79778" lon="6.98494">
        <ele>2222.9</ele>
        <time>2022-02-25T11:58:14Z</time>
      </trkpt>
      <trkpt lat="44.79778" lon="6.98494">
        <ele>2222.9</ele>
        <time>2022-02-25T11:58:15Z</time>
      </trkpt>
      <trkpt lat="44.79778" lon="6.98494">
        <ele>2222.9</ele>
        <time>2022-02-25T11:58:16Z</time>
      </trkpt>
      <trkpt lat="44.79778" lon="6.98496">
        <ele>2223.6</ele>
        <time>2022-02-25T11:58:17Z</time>
      </trkpt>
      <trkpt lat="44.79778" lon="6.98496">
        <ele>2223.6</ele>
        <time>2022-02-25T11:58:18Z</time>
      </trkpt>
      <trkpt lat="44.79778" lon="6.98496">
        <ele>2223.6</ele>
        <time>2022-02-25T11:58:19Z</time>
      </trkpt>
      <trkpt lat="44.79778" lon="6.98496">
        <ele>2223.6</ele>
        <time>2022-02-25T11:58:20Z</time>
      </trkpt>
      <trkpt lat="44.79779" lon="6.98499">
        <ele>2224.8</ele>
        <time>2022-02-25T11:58:21Z</time>
      </trkpt>
      <trkpt lat="44.79779" lon="6.98499">
        <ele>2224.8</ele>
        <time>2022-02-25T11:58:22Z</time>
      </trkpt>
      <trkpt lat="44.79779" lon="6.98499">
        <ele>2224.8</ele>
        <time>2022-02-25T11:58:23Z</time>
      </trkpt>
      <trkpt lat="44.79779" lon="6.98499">
        <ele>2224.8</ele>
        <time>2022-02-25T11:58:24Z</time>
      </trkpt>
      <trkpt lat="44.79779" lon="6.98499">
        <ele>2224.8</ele>
        <time>2022-02-25T11:58:25Z</time>
      </trkpt>
      <trkpt lat="44.79779" lon="6.98499">
        <ele>2224.8</ele>
        <time>2022-02-25T11:58:26Z</time>
      </trkpt>
      <trkpt lat="44.7978" lon="6.98501">
        <ele>2225.5</ele>
        <time>2022-02-25T11:58:27Z</time>
      </trkpt>
      <trkpt lat="44.7978" lon="6.98501">
        <ele>2225.5</ele>
        <time>2022-02-25T11:58:28Z</time>
      </trkpt>
      <trkpt lat="44.7978" lon="6.98501">
        <ele>2225.5</ele>
        <time>2022-02-25T11:58:29Z</time>
      </trkpt>
      <trkpt lat="44.79782" lon="6.98502">
        <ele>2226</ele>
        <time>2022-02-25T11:58:30Z</time>
      </trkpt>
      <trkpt lat="44.79782" lon="6.98502">
        <ele>2226</ele>
        <time>2022-02-25T11:58:31Z</time>
      </trkpt>
      <trkpt lat="44.79782" lon="6.98502">
        <ele>2226</ele>
        <time>2022-02-25T11:58:32Z</time>
      </trkpt>
      <trkpt lat="44.79782" lon="6.98502">
        <ele>2226</ele>
        <time>2022-02-25T11:58:33Z</time>
      </trkpt>
      <trkpt lat="44.79784" lon="6.98503">
        <ele>2226.5</ele>
        <time>2022-02-25T11:58:34Z</time>
      </trkpt>
      <trkpt lat="44.79784" lon="6.98503">
        <ele>2226.5</ele>
        <time>2022-02-25T11:58:35Z</time>
      </trkpt>
      <trkpt lat="44.79784" lon="6.98503">
        <ele>2226.5</ele>
        <time>2022-02-25T11:58:36Z</time>
      </trkpt>
      <trkpt lat="44.79784" lon="6.98503">
        <ele>2226.5</ele>
        <time>2022-02-25T11:58:37Z</time>
      </trkpt>
      <trkpt lat="44.79784" lon="6.98503">
        <ele>2226.5</ele>
        <time>2022-02-25T11:58:38Z</time>
      </trkpt>
      <trkpt lat="44.79786" lon="6.98504">
        <ele>2226.9</ele>
        <time>2022-02-25T11:58:39Z</time>
      </trkpt>
      <trkpt lat="44.79786" lon="6.98504">
        <ele>2226.9</ele>
        <time>2022-02-25T11:58:40Z</time>
      </trkpt>
      <trkpt lat="44.79786" lon="6.98504">
        <ele>2226.9</ele>
        <time>2022-02-25T11:58:41Z</time>
      </trkpt>
      <trkpt lat="44.79788" lon="6.98505">
        <ele>2227.3</ele>
        <time>2022-02-25T11:58:42Z</time>
      </trkpt>
      <trkpt lat="44.79788" lon="6.98505">
        <ele>2227.3</ele>
        <time>2022-02-25T11:58:43Z</time>
      </trkpt>
      <trkpt lat="44.79788" lon="6.98505">
        <ele>2227.3</ele>
        <time>2022-02-25T11:58:44Z</time>
      </trkpt>
      <trkpt lat="44.79788" lon="6.98505">
        <ele>2227.3</ele>
        <time>2022-02-25T11:58:45Z</time>
      </trkpt>
      <trkpt lat="44.79788" lon="6.98505">
        <ele>2227.3</ele>
        <time>2022-02-25T11:58:46Z</time>
      </trkpt>
      <trkpt lat="44.7979" lon="6.98506">
        <ele>2227.8</ele>
        <time>2022-02-25T11:58:47Z</time>
      </trkpt>
      <trkpt lat="44.7979" lon="6.98506">
        <ele>2227.8</ele>
        <time>2022-02-25T11:58:48Z</time>
      </trkpt>
      <trkpt lat="44.7979" lon="6.98506">
        <ele>2227.8</ele>
        <time>2022-02-25T11:58:49Z</time>
      </trkpt>
      <trkpt lat="44.7979" lon="6.98506">
        <ele>2227.8</ele>
        <time>2022-02-25T11:58:50Z</time>
      </trkpt>
      <trkpt lat="44.79792" lon="6.98507">
        <ele>2228.2</ele>
        <time>2022-02-25T11:58:51Z</time>
      </trkpt>
      <trkpt lat="44.79792" lon="6.98507">
        <ele>2228.2</ele>
        <time>2022-02-25T11:58:52Z</time>
      </trkpt>
      <trkpt lat="44.79792" lon="6.98507">
        <ele>2228.2</ele>
        <time>2022-02-25T11:58:53Z</time>
      </trkpt>
      <trkpt lat="44.79792" lon="6.98507">
        <ele>2228.2</ele>
        <time>2022-02-25T11:58:54Z</time>
      </trkpt>
      <trkpt lat="44.79792" lon="6.98507">
        <ele>2228.2</ele>
        <time>2022-02-25T11:58:55Z</time>
      </trkpt>
      <trkpt lat="44.79794" lon="6.98508">
        <ele>2228.6</ele>
        <time>2022-02-25T11:58:56Z</time>
      </trkpt>
      <trkpt lat="44.79794" lon="6.98508">
        <ele>2228.6</ele>
        <time>2022-02-25T11:58:57Z</time>
      </trkpt>
      <trkpt lat="44.79794" lon="6.98508">
        <ele>2228.6</ele>
        <time>2022-02-25T11:58:58Z</time>
      </trkpt>
      <trkpt lat="44.79796" lon="6.98508">
        <ele>2228.7</ele>
        <time>2022-02-25T11:58:59Z</time>
      </trkpt>
      <trkpt lat="44.79796" lon="6.98508">
        <ele>2228.7</ele>
        <time>2022-02-25T11:59:00Z</time>
      </trkpt>
      <trkpt lat="44.79796" lon="6.98508">
        <ele>2228.7</ele>
        <time>2022-02-25T11:59:01Z</time>
      </trkpt>
      <trkpt lat="44.79796" lon="6.98508">
        <ele>2228.7</ele>
        <time>2022-02-25T11:59:02Z</time>
      </trkpt>
      <trkpt lat="44.79796" lon="6.98508">
        <ele>2228.7</ele>
        <time>2022-02-25T11:59:03Z</time>
      </trkpt>
      <trkpt lat="44.79798" lon="6.98508">
        <ele>2228.9</ele>
        <time>2022-02-25T11:59:04Z</time>
      </trkpt>
      <trkpt lat="44.79798" lon="6.98508">
        <ele>2228.9</ele>
        <time>2022-02-25T11:59:05Z</time>
      </trkpt>
      <trkpt lat="44.79798" lon="6.98508">
        <ele>2228.9</ele>
        <time>2022-02-25T11:59:06Z</time>
      </trkpt>
      <trkpt lat="44.79799" lon="6.9851">
        <ele>2229.3</ele>
        <time>2022-02-25T11:59:07Z</time>
      </trkpt>
      <trkpt lat="44.79799" lon="6.9851">
        <ele>2229.3</ele>
        <time>2022-02-25T11:59:08Z</time>
      </trkpt>
      <trkpt lat="44.79799" lon="6.9851">
        <ele>2229.3</ele>
        <time>2022-02-25T11:59:09Z</time>
      </trkpt>
      <trkpt lat="44.79799" lon="6.9851">
        <ele>2229.3</ele>
        <time>2022-02-25T11:59:10Z</time>
      </trkpt>
      <trkpt lat="44.798" lon="6.98512">
        <ele>2229.8</ele>
        <time>2022-02-25T11:59:11Z</time>
      </trkpt>
      <trkpt lat="44.798" lon="6.98512">
        <ele>2229.8</ele>
        <time>2022-02-25T11:59:12Z</time>
      </trkpt>
      <trkpt lat="44.798" lon="6.98512">
        <ele>2229.8</ele>
        <time>2022-02-25T11:59:13Z</time>
      </trkpt>
      <trkpt lat="44.798" lon="6.98512">
        <ele>2229.8</ele>
        <time>2022-02-25T11:59:14Z</time>
      </trkpt>
      <trkpt lat="44.798" lon="6.98515">
        <ele>2230.4</ele>
        <time>2022-02-25T11:59:15Z</time>
      </trkpt>
      <trkpt lat="44.798" lon="6.98515">
        <ele>2230.4</ele>
        <time>2022-02-25T11:59:16Z</time>
      </trkpt>
      <trkpt lat="44.798" lon="6.98515">
        <ele>2230.4</ele>
        <time>2022-02-25T11:59:17Z</time>
      </trkpt>
      <trkpt lat="44.798" lon="6.98515">
        <ele>2230.4</ele>
        <time>2022-02-25T11:59:18Z</time>
      </trkpt>
      <trkpt lat="44.798" lon="6.98519">
        <ele>2231.2</ele>
        <time>2022-02-25T11:59:19Z</time>
      </trkpt>
      <trkpt lat="44.798" lon="6.98519">
        <ele>2231.2</ele>
        <time>2022-02-25T11:59:20Z</time>
      </trkpt>
      <trkpt lat="44.798" lon="6.98519">
        <ele>2231.2</ele>
        <time>2022-02-25T11:59:21Z</time>
      </trkpt>
      <trkpt lat="44.798" lon="6.98519">
        <ele>2231.2</ele>
        <time>2022-02-25T11:59:22Z</time>
      </trkpt>
      <trkpt lat="44.798" lon="6.98519">
        <ele>2231.2</ele>
        <time>2022-02-25T11:59:23Z</time>
      </trkpt>
      <trkpt lat="44.798" lon="6.98519">
        <ele>2231.2</ele>
        <time>2022-02-25T11:59:24Z</time>
      </trkpt>
      <trkpt lat="44.798" lon="6.98519">
        <ele>2231.2</ele>
        <time>2022-02-25T11:59:25Z</time>
      </trkpt>
      <trkpt lat="44.798" lon="6.98519">
        <ele>2231.2</ele>
        <time>2022-02-25T11:59:26Z</time>
      </trkpt>
      <trkpt lat="44.798" lon="6.98519">
        <ele>2231.2</ele>
        <time>2022-02-25T11:59:27Z</time>
      </trkpt>
      <trkpt lat="44.798" lon="6.98519">
        <ele>2231.2</ele>
        <time>2022-02-25T11:59:28Z</time>
      </trkpt>
      <trkpt lat="44.798" lon="6.98519">
        <ele>2231.2</ele>
        <time>2022-02-25T11:59:29Z</time>
      </trkpt>
      <trkpt lat="44.798" lon="6.98519">
        <ele>2231.2</ele>
        <time>2022-02-25T11:59:30Z</time>
      </trkpt>
      <trkpt lat="44.798" lon="6.98519">
        <ele>2231.2</ele>
        <time>2022-02-25T11:59:31Z</time>
      </trkpt>
      <trkpt lat="44.798" lon="6.98519">
        <ele>2231.2</ele>
        <time>2022-02-25T11:59:32Z</time>
      </trkpt>
      <trkpt lat="44.798" lon="6.98519">
        <ele>2231.2</ele>
        <time>2022-02-25T11:59:33Z</time>
      </trkpt>
      <trkpt lat="44.798" lon="6.98519">
        <ele>2231.2</ele>
        <time>2022-02-25T11:59:34Z</time>
      </trkpt>
      <trkpt lat="44.798" lon="6.98519">
        <ele>2231.2</ele>
        <time>2022-02-25T11:59:35Z</time>
      </trkpt>
      <trkpt lat="44.798" lon="6.98519">
        <ele>2231.2</ele>
        <time>2022-02-25T11:59:36Z</time>
      </trkpt>
      <trkpt lat="44.798" lon="6.98519">
        <ele>2231.2</ele>
        <time>2022-02-25T11:59:37Z</time>
      </trkpt>
      <trkpt lat="44.798" lon="6.98519">
        <ele>2231.2</ele>
        <time>2022-02-25T11:59:38Z</time>
      </trkpt>
      <trkpt lat="44.798" lon="6.98519">
        <ele>2231.2</ele>
        <time>2022-02-25T11:59:39Z</time>
      </trkpt>
      <trkpt lat="44.798" lon="6.98519">
        <ele>2231.2</ele>
        <time>2022-02-25T11:59:40Z</time>
      </trkpt>
      <trkpt lat="44.798" lon="6.98519">
        <ele>2231.2</ele>
        <time>2022-02-25T11:59:41Z</time>
      </trkpt>
      <trkpt lat="44.798" lon="6.98519">
        <ele>2231.2</ele>
        <time>2022-02-25T11:59:42Z</time>
      </trkpt>
      <trkpt lat="44.798" lon="6.98519">
        <ele>2231.2</ele>
        <time>2022-02-25T11:59:43Z</time>
      </trkpt>
      <trkpt lat="44.798" lon="6.98519">
        <ele>2231.2</ele>
        <time>2022-02-25T11:59:44Z</time>
      </trkpt>
      <trkpt lat="44.798" lon="6.98519">
        <ele>2231.2</ele>
        <time>2022-02-25T11:59:45Z</time>
      </trkpt>
      <trkpt lat="44.798" lon="6.98519">
        <ele>2231.2</ele>
        <time>2022-02-25T11:59:46Z</time>
      </trkpt>
      <trkpt lat="44.798" lon="6.98519">
        <ele>2231.2</ele>
        <time>2022-02-25T11:59:47Z</time>
      </trkpt>
      <trkpt lat="44.798" lon="6.98519">
        <ele>2231.2</ele>
        <time>2022-02-25T11:59:48Z</time>
      </trkpt>
      <trkpt lat="44.798" lon="6.98519">
        <ele>2231.2</ele>
        <time>2022-02-25T11:59:49Z</time>
      </trkpt>
      <trkpt lat="44.798" lon="6.98519">
        <ele>2231.2</ele>
        <time>2022-02-25T11:59:50Z</time>
      </trkpt>
      <trkpt lat="44.798" lon="6.98519">
        <ele>2231.2</ele>
        <time>2022-02-25T11:59:51Z</time>
      </trkpt>
      <trkpt lat="44.798" lon="6.98519">
        <ele>2231.2</ele>
        <time>2022-02-25T11:59:52Z</time>
      </trkpt>
      <trkpt lat="44.798" lon="6.98519">
        <ele>2231.2</ele>
        <time>2022-02-25T11:59:53Z</time>
      </trkpt>
      <trkpt lat="44.798" lon="6.98519">
        <ele>2231.2</ele>
        <time>2022-02-25T11:59:54Z</time>
      </trkpt>
      <trkpt lat="44.798" lon="6.98519">
        <ele>2231.2</ele>
        <time>2022-02-25T11:59:55Z</time>
      </trkpt>
      <trkpt lat="44.798" lon="6.98519">
        <ele>2231.2</ele>
        <time>2022-02-25T11:59:56Z</time>
      </trkpt>
      <trkpt lat="44.798" lon="6.98519">
        <ele>2231.2</ele>
        <time>2022-02-25T11:59:57Z</time>
      </trkpt>
      <trkpt lat="44.798" lon="6.98519">
        <ele>2231.2</ele>
        <time>2022-02-25T11:59:58Z</time>
      </trkpt>
      <trkpt lat="44.798" lon="6.98519">
        <ele>2231.2</ele>
        <time>2022-02-25T11:59:59Z</time>
      </trkpt>
      <trkpt lat="44.798" lon="6.98519">
        <ele>2231.2</ele>
        <time>2022-02-25T12:00:00Z</time>
      </trkpt>
      <trkpt lat="44.798" lon="6.98519">
        <ele>2231.2</ele>
        <time>2022-02-25T12:00:01Z</time>
      </trkpt>
      <trkpt lat="44.798" lon="6.98519">
        <ele>2231.2</ele>
        <time>2022-02-25T12:00:02Z</time>
      </trkpt>
      <trkpt lat="44.798" lon="6.98519">
        <ele>2231.2</ele>
        <time>2022-02-25T12:00:03Z</time>
      </trkpt>
      <trkpt lat="44.798" lon="6.98519">
        <ele>2231.2</ele>
        <time>2022-02-25T12:00:04Z</time>
      </trkpt>
      <trkpt lat="44.798" lon="6.98519">
        <ele>2231.2</ele>
        <time>2022-02-25T12:00:05Z</time>
      </trkpt>
      <trkpt lat="44.798" lon="6.98519">
        <ele>2231.2</ele>
        <time>2022-02-25T12:00:06Z</time>
      </trkpt>
      <trkpt lat="44.798" lon="6.98519">
        <ele>2231.2</ele>
        <time>2022-02-25T12:00:07Z</time>
      </trkpt>
      <trkpt lat="44.798" lon="6.98519">
        <ele>2231.2</ele>
        <time>2022-02-25T12:00:08Z</time>
      </trkpt>
      <trkpt lat="44.798" lon="6.98519">
        <ele>2231.2</ele>
        <time>2022-02-25T12:00:09Z</time>
      </trkpt>
      <trkpt lat="44.798" lon="6.98519">
        <ele>2231.2</ele>
        <time>2022-02-25T12:00:10Z</time>
      </trkpt>
      <trkpt lat="44.798" lon="6.98519">
        <ele>2231.2</ele>
        <time>2022-02-25T12:00:11Z</time>
      </trkpt>
      <trkpt lat="44.798" lon="6.98519">
        <ele>2231.2</ele>
        <time>2022-02-25T12:00:12Z</time>
      </trkpt>
      <trkpt lat="44.798" lon="6.98519">
        <ele>2231.2</ele>
        <time>2022-02-25T12:00:13Z</time>
      </trkpt>
      <trkpt lat="44.798" lon="6.98519">
        <ele>2231.2</ele>
        <time>2022-02-25T12:00:14Z</time>
      </trkpt>
      <trkpt lat="44.798" lon="6.98519">
        <ele>2231.2</ele>
        <time>2022-02-25T12:00:15Z</time>
      </trkpt>
      <trkpt lat="44.798" lon="6.98519">
        <ele>2231.2</ele>
        <time>2022-02-25T12:00:16Z</time>
      </trkpt>
      <trkpt lat="44.798" lon="6.98519">
        <ele>2231.2</ele>
        <time>2022-02-25T12:00:17Z</time>
      </trkpt>
      <trkpt lat="44.798" lon="6.98519">
        <ele>2231.2</ele>
        <time>2022-02-25T12:00:18Z</time>
      </trkpt>
      <trkpt lat="44.798" lon="6.98519">
        <ele>2231.2</ele>
        <time>2022-02-25T12:00:19Z</time>
      </trkpt>
      <trkpt lat="44.798" lon="6.98519">
        <ele>2231.2</ele>
        <time>2022-02-25T12:00:20Z</time>
      </trkpt>
      <trkpt lat="44.798" lon="6.98519">
        <ele>2231.2</ele>
        <time>2022-02-25T12:00:21Z</time>
      </trkpt>
      <trkpt lat="44.798" lon="6.98519">
        <ele>2231.2</ele>
        <time>2022-02-25T12:00:22Z</time>
      </trkpt>
      <trkpt lat="44.798" lon="6.98519">
        <ele>2231.2</ele>
        <time>2022-02-25T12:00:23Z</time>
      </trkpt>
      <trkpt lat="44.798" lon="6.98519">
        <ele>2231.2</ele>
        <time>2022-02-25T12:00:24Z</time>
      </trkpt>
      <trkpt lat="44.798" lon="6.98519">
        <ele>2231.2</ele>
        <time>2022-02-25T12:00:25Z</time>
      </trkpt>
      <trkpt lat="44.798" lon="6.98519">
        <ele>2231.2</ele>
        <time>2022-02-25T12:00:26Z</time>
      </trkpt>
      <trkpt lat="44.798" lon="6.98519">
        <ele>2231.2</ele>
        <time>2022-02-25T12:00:27Z</time>
      </trkpt>
      <trkpt lat="44.798" lon="6.98519">
        <ele>2231.2</ele>
        <time>2022-02-25T12:00:28Z</time>
      </trkpt>
      <trkpt lat="44.798" lon="6.98519">
        <ele>2231.2</ele>
        <time>2022-02-25T12:00:29Z</time>
      </trkpt>
      <trkpt lat="44.798" lon="6.98519">
        <ele>2231.2</ele>
        <time>2022-02-25T12:00:30Z</time>
      </trkpt>
      <trkpt lat="44.798" lon="6.98519">
        <ele>2231.2</ele>
        <time>2022-02-25T12:00:31Z</time>
      </trkpt>
      <trkpt lat="44.798" lon="6.98519">
        <ele>2231.2</ele>
        <time>2022-02-25T12:00:32Z</time>
      </trkpt>
      <trkpt lat="44.798" lon="6.98519">
        <ele>2231.2</ele>
        <time>2022-02-25T12:00:33Z</time>
      </trkpt>
      <trkpt lat="44.798" lon="6.98519">
        <ele>2231.2</ele>
        <time>2022-02-25T12:00:34Z</time>
      </trkpt>
      <trkpt lat="44.798" lon="6.98519">
        <ele>2231.2</ele>
        <time>2022-02-25T12:00:35Z</time>
      </trkpt>
      <trkpt lat="44.798" lon="6.98519">
        <ele>2231.2</ele>
        <time>2022-02-25T12:00:36Z</time>
      </trkpt>
      <trkpt lat="44.798" lon="6.98519">
        <ele>2231.2</ele>
        <time>2022-02-25T12:00:37Z</time>
      </trkpt>
      <trkpt lat="44.798" lon="6.98519">
        <ele>2231.2</ele>
        <time>2022-02-25T12:00:38Z</time>
      </trkpt>
      <trkpt lat="44.798" lon="6.98519">
        <ele>2231.2</ele>
        <time>2022-02-25T12:00:39Z</time>
      </trkpt>
      <trkpt lat="44.798" lon="6.98519">
        <ele>2231.2</ele>
        <time>2022-02-25T12:00:40Z</time>
      </trkpt>
      <trkpt lat="44.798" lon="6.98519">
        <ele>2231.2</ele>
        <time>2022-02-25T12:00:41Z</time>
      </trkpt>
      <trkpt lat="44.798" lon="6.98519">
        <ele>2231.2</ele>
        <time>2022-02-25T12:00:42Z</time>
      </trkpt>
      <trkpt lat="44.798" lon="6.98519">
        <ele>2231.2</ele>
        <time>2022-02-25T12:00:43Z</time>
      </trkpt>
      <trkpt lat="44.798" lon="6.98519">
        <ele>2231.2</ele>
        <time>2022-02-25T12:00:44Z</time>
      </trkpt>
      <trkpt lat="44.798" lon="6.98519">
        <ele>2231.2</ele>
        <time>2022-02-25T12:00:45Z</time>
      </trkpt>
      <trkpt lat="44.798" lon="6.98519">
        <ele>2231.2</ele>
        <time>2022-02-25T12:00:46Z</time>
      </trkpt>
      <trkpt lat="44.798" lon="6.98519">
        <ele>2231.2</ele>
        <time>2022-02-25T12:00:47Z</time>
      </trkpt>
      <trkpt lat="44.798" lon="6.98519">
        <ele>2231.2</ele>
        <time>2022-02-25T12:00:48Z</time>
      </trkpt>
      <trkpt lat="44.798" lon="6.98519">
        <ele>2231.2</ele>
        <time>2022-02-25T12:00:49Z</time>
      </trkpt>
      <trkpt lat="44.798" lon="6.98519">
        <ele>2231.2</ele>
        <time>2022-02-25T12:00:50Z</time>
      </trkpt>
      <trkpt lat="44.798" lon="6.98519">
        <ele>2231.2</ele>
        <time>2022-02-25T12:00:51Z</time>
      </trkpt>
      <trkpt lat="44.798" lon="6.98519">
        <ele>2231.2</ele>
        <time>2022-02-25T12:00:52Z</time>
      </trkpt>
      <trkpt lat="44.798" lon="6.98519">
        <ele>2231.2</ele>
        <time>2022-02-25T12:00:53Z</time>
      </trkpt>
      <trkpt lat="44.798" lon="6.98519">
        <ele>2231.2</ele>
        <time>2022-02-25T12:00:54Z</time>
      </trkpt>
      <trkpt lat="44.798" lon="6.98519">
        <ele>2231.2</ele>
        <time>2022-02-25T12:00:55Z</time>
      </trkpt>
      <trkpt lat="44.798" lon="6.98519">
        <ele>2231.2</ele>
        <time>2022-02-25T12:00:56Z</time>
      </trkpt>
      <trkpt lat="44.798" lon="6.98519">
        <ele>2231.2</ele>
        <time>2022-02-25T12:00:57Z</time>
      </trkpt>
      <trkpt lat="44.798" lon="6.98519">
        <ele>2231.2</ele>
        <time>2022-02-25T12:00:58Z</time>
      </trkpt>
      <trkpt lat="44.798" lon="6.98519">
        <ele>2231.2</ele>
        <time>2022-02-25T12:00:59Z</time>
      </trkpt>
      <trkpt lat="44.798" lon="6.98519">
        <ele>2231.2</ele>
        <time>2022-02-25T12:01:00Z</time>
      </trkpt>
      <trkpt lat="44.798" lon="6.98519">
        <ele>2231.2</ele>
        <time>2022-02-25T12:01:01Z</time>
      </trkpt>
      <trkpt lat="44.798" lon="6.98519">
        <ele>2231.2</ele>
        <time>2022-02-25T12:01:02Z</time>
      </trkpt>
      <trkpt lat="44.798" lon="6.98519">
        <ele>2231.2</ele>
        <time>2022-02-25T12:01:03Z</time>
      </trkpt>
      <trkpt lat="44.798" lon="6.98519">
        <ele>2231.2</ele>
        <time>2022-02-25T12:01:04Z</time>
      </trkpt>
      <trkpt lat="44.798" lon="6.98519">
        <ele>2231.2</ele>
        <time>2022-02-25T12:01:05Z</time>
      </trkpt>
      <trkpt lat="44.798" lon="6.98519">
        <ele>2231.2</ele>
        <time>2022-02-25T12:01:06Z</time>
      </trkpt>
      <trkpt lat="44.798" lon="6.98519">
        <ele>2231.2</ele>
        <time>2022-02-25T12:01:07Z</time>
      </trkpt>
      <trkpt lat="44.798" lon="6.98519">
        <ele>2231.2</ele>
        <time>2022-02-25T12:01:08Z</time>
      </trkpt>
      <trkpt lat="44.798" lon="6.98519">
        <ele>2231.2</ele>
        <time>2022-02-25T12:01:09Z</time>
      </trkpt>
      <trkpt lat="44.798" lon="6.98519">
        <ele>2231.2</ele>
        <time>2022-02-25T12:01:10Z</time>
      </trkpt>
      <trkpt lat="44.798" lon="6.98519">
        <ele>2231.2</ele>
        <time>2022-02-25T12:01:11Z</time>
      </trkpt>
      <trkpt lat="44.798" lon="6.98519">
        <ele>2231.2</ele>
        <time>2022-02-25T12:01:12Z</time>
      </trkpt>
      <trkpt lat="44.798" lon="6.98519">
        <ele>2231.2</ele>
        <time>2022-02-25T12:01:13Z</time>
      </trkpt>
      <trkpt lat="44.798" lon="6.98519">
        <ele>2231.2</ele>
        <time>2022-02-25T12:01:14Z</time>
      </trkpt>
      <trkpt lat="44.798" lon="6.98519">
        <ele>2231.2</ele>
        <time>2022-02-25T12:01:15Z</time>
      </trkpt>
      <trkpt lat="44.798" lon="6.98519">
        <ele>2231.2</ele>
        <time>2022-02-25T12:01:16Z</time>
      </trkpt>
      <trkpt lat="44.798" lon="6.98519">
        <ele>2231.2</ele>
        <time>2022-02-25T12:01:17Z</time>
      </trkpt>
      <trkpt lat="44.798" lon="6.98519">
        <ele>2231.2</ele>
        <time>2022-02-25T12:01:18Z</time>
      </trkpt>
      <trkpt lat="44.798" lon="6.98519">
        <ele>2231.2</ele>
        <time>2022-02-25T12:01:19Z</time>
      </trkpt>
      <trkpt lat="44.798" lon="6.98519">
        <ele>2231.2</ele>
        <time>2022-02-25T12:01:20Z</time>
      </trkpt>
      <trkpt lat="44.798" lon="6.98519">
        <ele>2231.2</ele>
        <time>2022-02-25T12:01:21Z</time>
      </trkpt>
      <trkpt lat="44.798" lon="6.98519">
        <ele>2231.2</ele>
        <time>2022-02-25T12:01:22Z</time>
      </trkpt>
      <trkpt lat="44.798" lon="6.98519">
        <ele>2231.2</ele>
        <time>2022-02-25T12:01:23Z</time>
      </trkpt>
      <trkpt lat="44.798" lon="6.98519">
        <ele>2231.2</ele>
        <time>2022-02-25T12:01:24Z</time>
      </trkpt>
      <trkpt lat="44.798" lon="6.98519">
        <ele>2231.2</ele>
        <time>2022-02-25T12:01:25Z</time>
      </trkpt>
      <trkpt lat="44.798" lon="6.98519">
        <ele>2231.2</ele>
        <time>2022-02-25T12:01:26Z</time>
      </trkpt>
      <trkpt lat="44.798" lon="6.98519">
        <ele>2231.2</ele>
        <time>2022-02-25T12:01:27Z</time>
      </trkpt>
      <trkpt lat="44.798" lon="6.98519">
        <ele>2231.2</ele>
        <time>2022-02-25T12:01:28Z</time>
      </trkpt>
      <trkpt lat="44.798" lon="6.98519">
        <ele>2231.2</ele>
        <time>2022-02-25T12:01:29Z</time>
      </trkpt>
      <trkpt lat="44.798" lon="6.98519">
        <ele>2231.2</ele>
        <time>2022-02-25T12:01:30Z</time>
      </trkpt>
      <trkpt lat="44.798" lon="6.98519">
        <ele>2231.2</ele>
        <time>2022-02-25T12:01:31Z</time>
      </trkpt>
      <trkpt lat="44.798" lon="6.98519">
        <ele>2231.2</ele>
        <time>2022-02-25T12:01:32Z</time>
      </trkpt>
      <trkpt lat="44.798" lon="6.98519">
        <ele>2231.2</ele>
        <time>2022-02-25T12:01:33Z</time>
      </trkpt>
      <trkpt lat="44.798" lon="6.98519">
        <ele>2231.2</ele>
        <time>2022-02-25T12:01:34Z</time>
      </trkpt>
      <trkpt lat="44.798" lon="6.98519">
        <ele>2231.2</ele>
        <time>2022-02-25T12:01:35Z</time>
      </trkpt>
      <trkpt lat="44.798" lon="6.98519">
        <ele>2231.2</ele>
        <time>2022-02-25T12:01:36Z</time>
      </trkpt>
      <trkpt lat="44.798" lon="6.98519">
        <ele>2231.2</ele>
        <time>2022-02-25T12:01:37Z</time>
      </trkpt>
      <trkpt lat="44.798" lon="6.98519">
        <ele>2231.2</ele>
        <time>2022-02-25T12:01:38Z</time>
      </trkpt>
      <trkpt lat="44.798" lon="6.98519">
        <ele>2231.2</ele>
        <time>2022-02-25T12:01:39Z</time>
      </trkpt>
      <trkpt lat="44.798" lon="6.98519">
        <ele>2231.2</ele>
        <time>2022-02-25T12:01:40Z</time>
      </trkpt>
      <trkpt lat="44.798" lon="6.98519">
        <ele>2231.2</ele>
        <time>2022-02-25T12:01:41Z</time>
      </trkpt>
      <trkpt lat="44.798" lon="6.98519">
        <ele>2231.2</ele>
        <time>2022-02-25T12:01:42Z</time>
      </trkpt>
      <trkpt lat="44.798" lon="6.98519">
        <ele>2231.2</ele>
        <time>2022-02-25T12:01:43Z</time>
      </trkpt>
      <trkpt lat="44.798" lon="6.98519">
        <ele>2231.2</ele>
        <time>2022-02-25T12:01:44Z</time>
      </trkpt>
      <trkpt lat="44.798" lon="6.98519">
        <ele>2231.2</ele>
        <time>2022-02-25T12:01:45Z</time>
      </trkpt>
      <trkpt lat="44.798" lon="6.98519">
        <ele>2231.2</ele>
        <time>2022-02-25T12:01:46Z</time>
      </trkpt>
      <trkpt lat="44.798" lon="6.98519">
        <ele>2231.2</ele>
        <time>2022-02-25T12:01:47Z</time>
      </trkpt>
      <trkpt lat="44.798" lon="6.98519">
        <ele>2231.2</ele>
        <time>2022-02-25T12:01:48Z</time>
      </trkpt>
      <trkpt lat="44.798" lon="6.98519">
        <ele>2231.2</ele>
        <time>2022-02-25T12:01:49Z</time>
      </trkpt>
      <trkpt lat="44.798" lon="6.98519">
        <ele>2231.2</ele>
        <time>2022-02-25T12:01:50Z</time>
      </trkpt>
      <trkpt lat="44.798" lon="6.98519">
        <ele>2231.2</ele>
        <time>2022-02-25T12:01:51Z</time>
      </trkpt>
      <trkpt lat="44.798" lon="6.98519">
        <ele>2231.2</ele>
        <time>2022-02-25T12:01:52Z</time>
      </trkpt>
      <trkpt lat="44.798" lon="6.98519">
        <ele>2231.2</ele>
        <time>2022-02-25T12:01:53Z</time>
      </trkpt>
      <trkpt lat="44.798" lon="6.98519">
        <ele>2231.2</ele>
        <time>2022-02-25T12:01:54Z</time>
      </trkpt>
      <trkpt lat="44.798" lon="6.98519">
        <ele>2231.2</ele>
        <time>2022-02-25T12:01:55Z</time>
      </trkpt>
      <trkpt lat="44.798" lon="6.98519">
        <ele>2231.2</ele>
        <time>2022-02-25T12:01:56Z</time>
      </trkpt>
      <trkpt lat="44.798" lon="6.98519">
        <ele>2231.2</ele>
        <time>2022-02-25T12:01:57Z</time>
      </trkpt>
      <trkpt lat="44.798" lon="6.98519">
        <ele>2231.2</ele>
        <time>2022-02-25T12:01:58Z</time>
      </trkpt>
      <trkpt lat="44.798" lon="6.98519">
        <ele>2231.2</ele>
        <time>2022-02-25T12:01:59Z</time>
      </trkpt>
      <trkpt lat="44.798" lon="6.98519">
        <ele>2231.2</ele>
        <time>2022-02-25T12:02:00Z</time>
      </trkpt>
      <trkpt lat="44.798" lon="6.98519">
        <ele>2231.2</ele>
        <time>2022-02-25T12:02:01Z</time>
      </trkpt>
      <trkpt lat="44.798" lon="6.98519">
        <ele>2231.2</ele>
        <time>2022-02-25T12:02:02Z</time>
      </trkpt>
      <trkpt lat="44.798" lon="6.98519">
        <ele>2231.2</ele>
        <time>2022-02-25T12:02:03Z</time>
      </trkpt>
      <trkpt lat="44.798" lon="6.98519">
        <ele>2231.2</ele>
        <time>2022-02-25T12:02:04Z</time>
      </trkpt>
      <trkpt lat="44.798" lon="6.98519">
        <ele>2231.2</ele>
        <time>2022-02-25T12:02:05Z</time>
      </trkpt>
      <trkpt lat="44.798" lon="6.98519">
        <ele>2231.2</ele>
        <time>2022-02-25T12:02:06Z</time>
      </trkpt>
      <trkpt lat="44.798" lon="6.98519">
        <ele>2231.2</ele>
        <time>2022-02-25T12:02:07Z</time>
      </trkpt>
      <trkpt lat="44.798" lon="6.98519">
        <ele>2231.2</ele>
        <time>2022-02-25T12:02:08Z</time>
      </trkpt>
      <trkpt lat="44.798" lon="6.98519">
        <ele>2231.2</ele>
        <time>2022-02-25T12:02:09Z</time>
      </trkpt>
      <trkpt lat="44.79796" lon="6.98519">
        <ele>2231.1</ele>
        <time>2022-02-25T12:02:10Z</time>
      </trkpt>
      <trkpt lat="44.79796" lon="6.98519">
        <ele>2231.1</ele>
        <time>2022-02-25T12:02:11Z</time>
      </trkpt>
      <trkpt lat="44.79796" lon="6.98519">
        <ele>2231.1</ele>
        <time>2022-02-25T12:02:12Z</time>
      </trkpt>
      <trkpt lat="44.79796" lon="6.98519">
        <ele>2231.1</ele>
        <time>2022-02-25T12:02:13Z</time>
      </trkpt>
      <trkpt lat="44.79796" lon="6.98519">
        <ele>2231.1</ele>
        <time>2022-02-25T12:02:14Z</time>
      </trkpt>
      <trkpt lat="44.79796" lon="6.98519">
        <ele>2231.1</ele>
        <time>2022-02-25T12:02:15Z</time>
      </trkpt>
      <trkpt lat="44.79796" lon="6.98519">
        <ele>2231.1</ele>
        <time>2022-02-25T12:02:16Z</time>
      </trkpt>
      <trkpt lat="44.79796" lon="6.98519">
        <ele>2231.1</ele>
        <time>2022-02-25T12:02:17Z</time>
      </trkpt>
      <trkpt lat="44.79796" lon="6.98519">
        <ele>2231.1</ele>
        <time>2022-02-25T12:02:18Z</time>
      </trkpt>
      <trkpt lat="44.79796" lon="6.98519">
        <ele>2231.1</ele>
        <time>2022-02-25T12:02:19Z</time>
      </trkpt>
      <trkpt lat="44.79796" lon="6.98519">
        <ele>2231.1</ele>
        <time>2022-02-25T12:02:20Z</time>
      </trkpt>
      <trkpt lat="44.79796" lon="6.98519">
        <ele>2231.1</ele>
        <time>2022-02-25T12:02:21Z</time>
      </trkpt>
      <trkpt lat="44.79796" lon="6.98519">
        <ele>2231.1</ele>
        <time>2022-02-25T12:02:22Z</time>
      </trkpt>
      <trkpt lat="44.79796" lon="6.98519">
        <ele>2231.1</ele>
        <time>2022-02-25T12:02:23Z</time>
      </trkpt>
      <trkpt lat="44.79796" lon="6.98519">
        <ele>2231.1</ele>
        <time>2022-02-25T12:02:24Z</time>
      </trkpt>
      <trkpt lat="44.79796" lon="6.98519">
        <ele>2231.1</ele>
        <time>2022-02-25T12:02:25Z</time>
      </trkpt>
      <trkpt lat="44.79796" lon="6.98519">
        <ele>2231.1</ele>
        <time>2022-02-25T12:02:26Z</time>
      </trkpt>
      <trkpt lat="44.79796" lon="6.98519">
        <ele>2231.1</ele>
        <time>2022-02-25T12:02:27Z</time>
      </trkpt>
      <trkpt lat="44.79796" lon="6.98519">
        <ele>2231.1</ele>
        <time>2022-02-25T12:02:28Z</time>
      </trkpt>
      <trkpt lat="44.79796" lon="6.98519">
        <ele>2231.1</ele>
        <time>2022-02-25T12:02:29Z</time>
      </trkpt>
      <trkpt lat="44.79796" lon="6.98519">
        <ele>2231.1</ele>
        <time>2022-02-25T12:02:30Z</time>
      </trkpt>
      <trkpt lat="44.79796" lon="6.98519">
        <ele>2231.1</ele>
        <time>2022-02-25T12:02:31Z</time>
      </trkpt>
      <trkpt lat="44.79796" lon="6.98519">
        <ele>2231.1</ele>
        <time>2022-02-25T12:02:32Z</time>
      </trkpt>
      <trkpt lat="44.79796" lon="6.98519">
        <ele>2231.1</ele>
        <time>2022-02-25T12:02:33Z</time>
      </trkpt>
      <trkpt lat="44.79796" lon="6.98519">
        <ele>2231.1</ele>
        <time>2022-02-25T12:02:34Z</time>
      </trkpt>
      <trkpt lat="44.79796" lon="6.98519">
        <ele>2231.1</ele>
        <time>2022-02-25T12:02:35Z</time>
      </trkpt>
      <trkpt lat="44.79796" lon="6.98519">
        <ele>2231.1</ele>
        <time>2022-02-25T12:02:36Z</time>
      </trkpt>
      <trkpt lat="44.79796" lon="6.98519">
        <ele>2231.1</ele>
        <time>2022-02-25T12:02:37Z</time>
      </trkpt>
      <trkpt lat="44.79796" lon="6.98519">
        <ele>2231.1</ele>
        <time>2022-02-25T12:02:38Z</time>
      </trkpt>
      <trkpt lat="44.79796" lon="6.98519">
        <ele>2231.1</ele>
        <time>2022-02-25T12:02:39Z</time>
      </trkpt>
      <trkpt lat="44.79796" lon="6.98519">
        <ele>2231.1</ele>
        <time>2022-02-25T12:02:40Z</time>
      </trkpt>
      <trkpt lat="44.79796" lon="6.98519">
        <ele>2231.1</ele>
        <time>2022-02-25T12:02:41Z</time>
      </trkpt>
      <trkpt lat="44.79796" lon="6.98519">
        <ele>2231.1</ele>
        <time>2022-02-25T12:02:42Z</time>
      </trkpt>
      <trkpt lat="44.79796" lon="6.98519">
        <ele>2231.1</ele>
        <time>2022-02-25T12:02:43Z</time>
      </trkpt>
      <trkpt lat="44.79796" lon="6.98519">
        <ele>2231.1</ele>
        <time>2022-02-25T12:02:44Z</time>
      </trkpt>
      <trkpt lat="44.79796" lon="6.98519">
        <ele>2231.1</ele>
        <time>2022-02-25T12:02:45Z</time>
      </trkpt>
      <trkpt lat="44.79796" lon="6.98519">
        <ele>2231.1</ele>
        <time>2022-02-25T12:02:46Z</time>
      </trkpt>
      <trkpt lat="44.79796" lon="6.98519">
        <ele>2231.1</ele>
        <time>2022-02-25T12:02:47Z</time>
      </trkpt>
      <trkpt lat="44.79796" lon="6.98519">
        <ele>2231.1</ele>
        <time>2022-02-25T12:02:48Z</time>
      </trkpt>
      <trkpt lat="44.79796" lon="6.98519">
        <ele>2231.1</ele>
        <time>2022-02-25T12:02:49Z</time>
      </trkpt>
      <trkpt lat="44.79796" lon="6.98519">
        <ele>2231.1</ele>
        <time>2022-02-25T12:02:50Z</time>
      </trkpt>
      <trkpt lat="44.79796" lon="6.98519">
        <ele>2231.1</ele>
        <time>2022-02-25T12:02:51Z</time>
      </trkpt>
      <trkpt lat="44.79796" lon="6.98519">
        <ele>2231.1</ele>
        <time>2022-02-25T12:02:52Z</time>
      </trkpt>
      <trkpt lat="44.79796" lon="6.98519">
        <ele>2231.1</ele>
        <time>2022-02-25T12:02:53Z</time>
      </trkpt>
      <trkpt lat="44.79796" lon="6.98519">
        <ele>2231.1</ele>
        <time>2022-02-25T12:02:54Z</time>
      </trkpt>
      <trkpt lat="44.79796" lon="6.98519">
        <ele>2231.1</ele>
        <time>2022-02-25T12:02:55Z</time>
      </trkpt>
      <trkpt lat="44.79796" lon="6.98519">
        <ele>2231.1</ele>
        <time>2022-02-25T12:02:56Z</time>
      </trkpt>
      <trkpt lat="44.79796" lon="6.98519">
        <ele>2231.1</ele>
        <time>2022-02-25T12:02:57Z</time>
      </trkpt>
      <trkpt lat="44.79796" lon="6.98519">
        <ele>2231.1</ele>
        <time>2022-02-25T12:02:58Z</time>
      </trkpt>
      <trkpt lat="44.79796" lon="6.98519">
        <ele>2231.1</ele>
        <time>2022-02-25T12:02:59Z</time>
      </trkpt>
      <trkpt lat="44.79796" lon="6.98519">
        <ele>2231.1</ele>
        <time>2022-02-25T12:03:00Z</time>
      </trkpt>
      <trkpt lat="44.79796" lon="6.98519">
        <ele>2231.1</ele>
        <time>2022-02-25T12:03:01Z</time>
      </trkpt>
      <trkpt lat="44.79796" lon="6.98519">
        <ele>2231.1</ele>
        <time>2022-02-25T12:03:02Z</time>
      </trkpt>
      <trkpt lat="44.79796" lon="6.98519">
        <ele>2231.1</ele>
        <time>2022-02-25T12:03:03Z</time>
      </trkpt>
      <trkpt lat="44.79796" lon="6.98519">
        <ele>2231.1</ele>
        <time>2022-02-25T12:03:04Z</time>
      </trkpt>
      <trkpt lat="44.79796" lon="6.98519">
        <ele>2231.1</ele>
        <time>2022-02-25T12:03:05Z</time>
      </trkpt>
      <trkpt lat="44.79796" lon="6.98519">
        <ele>2231.1</ele>
        <time>2022-02-25T12:03:06Z</time>
      </trkpt>
      <trkpt lat="44.79796" lon="6.98519">
        <ele>2231.1</ele>
        <time>2022-02-25T12:03:07Z</time>
      </trkpt>
      <trkpt lat="44.79796" lon="6.98519">
        <ele>2231.1</ele>
        <time>2022-02-25T12:03:08Z</time>
      </trkpt>
      <trkpt lat="44.79796" lon="6.98519">
        <ele>2231.1</ele>
        <time>2022-02-25T12:03:09Z</time>
      </trkpt>
      <trkpt lat="44.79796" lon="6.98519">
        <ele>2231.1</ele>
        <time>2022-02-25T12:03:10Z</time>
      </trkpt>
      <trkpt lat="44.79796" lon="6.98519">
        <ele>2231.1</ele>
        <time>2022-02-25T12:03:11Z</time>
      </trkpt>
      <trkpt lat="44.79796" lon="6.98519">
        <ele>2231.1</ele>
        <time>2022-02-25T12:03:12Z</time>
      </trkpt>
      <trkpt lat="44.79796" lon="6.98519">
        <ele>2231.1</ele>
        <time>2022-02-25T12:03:13Z</time>
      </trkpt>
      <trkpt lat="44.79796" lon="6.98519">
        <ele>2231.1</ele>
        <time>2022-02-25T12:03:14Z</time>
      </trkpt>
      <trkpt lat="44.79796" lon="6.98519">
        <ele>2231.1</ele>
        <time>2022-02-25T12:03:15Z</time>
      </trkpt>
      <trkpt lat="44.79796" lon="6.98519">
        <ele>2231.1</ele>
        <time>2022-02-25T12:03:16Z</time>
      </trkpt>
      <trkpt lat="44.79796" lon="6.98519">
        <ele>2231.1</ele>
        <time>2022-02-25T12:03:17Z</time>
      </trkpt>
      <trkpt lat="44.79796" lon="6.98519">
        <ele>2231.1</ele>
        <time>2022-02-25T12:03:18Z</time>
      </trkpt>
      <trkpt lat="44.79796" lon="6.98519">
        <ele>2231.1</ele>
        <time>2022-02-25T12:03:19Z</time>
      </trkpt>
      <trkpt lat="44.79796" lon="6.98519">
        <ele>2231.1</ele>
        <time>2022-02-25T12:03:20Z</time>
      </trkpt>
      <trkpt lat="44.79796" lon="6.98519">
        <ele>2231.1</ele>
        <time>2022-02-25T12:03:21Z</time>
      </trkpt>
      <trkpt lat="44.79796" lon="6.98519">
        <ele>2231.1</ele>
        <time>2022-02-25T12:03:22Z</time>
      </trkpt>
      <trkpt lat="44.79796" lon="6.98519">
        <ele>2231.1</ele>
        <time>2022-02-25T12:03:23Z</time>
      </trkpt>
      <trkpt lat="44.79796" lon="6.98519">
        <ele>2231.1</ele>
        <time>2022-02-25T12:03:24Z</time>
      </trkpt>
      <trkpt lat="44.79796" lon="6.98519">
        <ele>2231.1</ele>
        <time>2022-02-25T12:03:25Z</time>
      </trkpt>
      <trkpt lat="44.79796" lon="6.98519">
        <ele>2231.1</ele>
        <time>2022-02-25T12:03:26Z</time>
      </trkpt>
      <trkpt lat="44.79796" lon="6.98519">
        <ele>2231.1</ele>
        <time>2022-02-25T12:03:27Z</time>
      </trkpt>
      <trkpt lat="44.79796" lon="6.98519">
        <ele>2231.1</ele>
        <time>2022-02-25T12:03:28Z</time>
      </trkpt>
      <trkpt lat="44.79796" lon="6.98519">
        <ele>2231.1</ele>
        <time>2022-02-25T12:03:29Z</time>
      </trkpt>
      <trkpt lat="44.79796" lon="6.98519">
        <ele>2231.1</ele>
        <time>2022-02-25T12:03:30Z</time>
      </trkpt>
      <trkpt lat="44.79796" lon="6.98519">
        <ele>2231.1</ele>
        <time>2022-02-25T12:03:31Z</time>
      </trkpt>
      <trkpt lat="44.79796" lon="6.98519">
        <ele>2231.1</ele>
        <time>2022-02-25T12:03:32Z</time>
      </trkpt>
      <trkpt lat="44.79796" lon="6.98519">
        <ele>2231.1</ele>
        <time>2022-02-25T12:03:33Z</time>
      </trkpt>
      <trkpt lat="44.79796" lon="6.98519">
        <ele>2231.1</ele>
        <time>2022-02-25T12:03:34Z</time>
      </trkpt>
      <trkpt lat="44.79796" lon="6.98519">
        <ele>2231.1</ele>
        <time>2022-02-25T12:03:35Z</time>
      </trkpt>
      <trkpt lat="44.79796" lon="6.98519">
        <ele>2231.1</ele>
        <time>2022-02-25T12:03:36Z</time>
      </trkpt>
      <trkpt lat="44.79796" lon="6.98519">
        <ele>2231.1</ele>
        <time>2022-02-25T12:03:37Z</time>
      </trkpt>
      <trkpt lat="44.79796" lon="6.98519">
        <ele>2231.1</ele>
        <time>2022-02-25T12:03:38Z</time>
      </trkpt>
      <trkpt lat="44.79796" lon="6.98519">
        <ele>2231.1</ele>
        <time>2022-02-25T12:03:39Z</time>
      </trkpt>
      <trkpt lat="44.79796" lon="6.98519">
        <ele>2231.1</ele>
        <time>2022-02-25T12:03:40Z</time>
      </trkpt>
      <trkpt lat="44.79796" lon="6.98519">
        <ele>2231.1</ele>
        <time>2022-02-25T12:03:41Z</time>
      </trkpt>
      <trkpt lat="44.79796" lon="6.98519">
        <ele>2231.1</ele>
        <time>2022-02-25T12:03:42Z</time>
      </trkpt>
      <trkpt lat="44.79796" lon="6.98519">
        <ele>2231.1</ele>
        <time>2022-02-25T12:03:43Z</time>
      </trkpt>
      <trkpt lat="44.79796" lon="6.98519">
        <ele>2231.1</ele>
        <time>2022-02-25T12:03:44Z</time>
      </trkpt>
      <trkpt lat="44.79796" lon="6.98519">
        <ele>2231.1</ele>
        <time>2022-02-25T12:03:45Z</time>
      </trkpt>
      <trkpt lat="44.79796" lon="6.98519">
        <ele>2231.1</ele>
        <time>2022-02-25T12:03:46Z</time>
      </trkpt>
      <trkpt lat="44.79796" lon="6.98519">
        <ele>2231.1</ele>
        <time>2022-02-25T12:03:47Z</time>
      </trkpt>
      <trkpt lat="44.79796" lon="6.98519">
        <ele>2231.1</ele>
        <time>2022-02-25T12:03:48Z</time>
      </trkpt>
      <trkpt lat="44.79796" lon="6.98519">
        <ele>2231.1</ele>
        <time>2022-02-25T12:03:49Z</time>
      </trkpt>
      <trkpt lat="44.79796" lon="6.98519">
        <ele>2231.1</ele>
        <time>2022-02-25T12:03:50Z</time>
      </trkpt>
      <trkpt lat="44.79796" lon="6.98519">
        <ele>2231.1</ele>
        <time>2022-02-25T12:03:51Z</time>
      </trkpt>
      <trkpt lat="44.79796" lon="6.98519">
        <ele>2231.1</ele>
        <time>2022-02-25T12:03:52Z</time>
      </trkpt>
      <trkpt lat="44.79796" lon="6.98519">
        <ele>2231.1</ele>
        <time>2022-02-25T12:03:53Z</time>
      </trkpt>
      <trkpt lat="44.79796" lon="6.98519">
        <ele>2231.1</ele>
        <time>2022-02-25T12:03:54Z</time>
      </trkpt>
      <trkpt lat="44.79796" lon="6.98519">
        <ele>2231.1</ele>
        <time>2022-02-25T12:03:55Z</time>
      </trkpt>
      <trkpt lat="44.79796" lon="6.98519">
        <ele>2231.1</ele>
        <time>2022-02-25T12:03:56Z</time>
      </trkpt>
      <trkpt lat="44.79796" lon="6.98519">
        <ele>2231.1</ele>
        <time>2022-02-25T12:03:57Z</time>
      </trkpt>
      <trkpt lat="44.79796" lon="6.98519">
        <ele>2231.1</ele>
        <time>2022-02-25T12:03:58Z</time>
      </trkpt>
      <trkpt lat="44.79796" lon="6.98519">
        <ele>2231.1</ele>
        <time>2022-02-25T12:03:59Z</time>
      </trkpt>
      <trkpt lat="44.79796" lon="6.98519">
        <ele>2231.1</ele>
        <time>2022-02-25T12:04:00Z</time>
      </trkpt>
      <trkpt lat="44.79796" lon="6.98519">
        <ele>2231.1</ele>
        <time>2022-02-25T12:04:01Z</time>
      </trkpt>
      <trkpt lat="44.79796" lon="6.98519">
        <ele>2231.1</ele>
        <time>2022-02-25T12:04:02Z</time>
      </trkpt>
      <trkpt lat="44.79796" lon="6.98519">
        <ele>2231.1</ele>
        <time>2022-02-25T12:04:03Z</time>
      </trkpt>
      <trkpt lat="44.79796" lon="6.98519">
        <ele>2231.1</ele>
        <time>2022-02-25T12:04:04Z</time>
      </trkpt>
      <trkpt lat="44.79796" lon="6.98519">
        <ele>2231.1</ele>
        <time>2022-02-25T12:04:05Z</time>
      </trkpt>
      <trkpt lat="44.79796" lon="6.98519">
        <ele>2231.1</ele>
        <time>2022-02-25T12:04:06Z</time>
      </trkpt>
      <trkpt lat="44.79796" lon="6.98519">
        <ele>2231.1</ele>
        <time>2022-02-25T12:04:07Z</time>
      </trkpt>
      <trkpt lat="44.79796" lon="6.98519">
        <ele>2231.1</ele>
        <time>2022-02-25T12:04:08Z</time>
      </trkpt>
      <trkpt lat="44.79796" lon="6.98519">
        <ele>2231.1</ele>
        <time>2022-02-25T12:04:09Z</time>
      </trkpt>
      <trkpt lat="44.79796" lon="6.98519">
        <ele>2231.1</ele>
        <time>2022-02-25T12:04:10Z</time>
      </trkpt>
      <trkpt lat="44.79796" lon="6.98519">
        <ele>2231.1</ele>
        <time>2022-02-25T12:04:11Z</time>
      </trkpt>
      <trkpt lat="44.79796" lon="6.98519">
        <ele>2231.1</ele>
        <time>2022-02-25T12:04:12Z</time>
      </trkpt>
      <trkpt lat="44.79796" lon="6.98519">
        <ele>2231.1</ele>
        <time>2022-02-25T12:04:13Z</time>
      </trkpt>
      <trkpt lat="44.79796" lon="6.98519">
        <ele>2231.1</ele>
        <time>2022-02-25T12:04:14Z</time>
      </trkpt>
      <trkpt lat="44.79796" lon="6.98519">
        <ele>2231.1</ele>
        <time>2022-02-25T12:04:15Z</time>
      </trkpt>
      <trkpt lat="44.79796" lon="6.98519">
        <ele>2231.1</ele>
        <time>2022-02-25T12:04:16Z</time>
      </trkpt>
      <trkpt lat="44.79796" lon="6.98519">
        <ele>2231.1</ele>
        <time>2022-02-25T12:04:17Z</time>
      </trkpt>
      <trkpt lat="44.79796" lon="6.98519">
        <ele>2231.1</ele>
        <time>2022-02-25T12:04:18Z</time>
      </trkpt>
      <trkpt lat="44.79796" lon="6.98519">
        <ele>2231.1</ele>
        <time>2022-02-25T12:04:19Z</time>
      </trkpt>
      <trkpt lat="44.79796" lon="6.98519">
        <ele>2231.1</ele>
        <time>2022-02-25T12:04:20Z</time>
      </trkpt>
      <trkpt lat="44.79796" lon="6.98519">
        <ele>2231.1</ele>
        <time>2022-02-25T12:04:21Z</time>
      </trkpt>
      <trkpt lat="44.79796" lon="6.98519">
        <ele>2231.1</ele>
        <time>2022-02-25T12:04:22Z</time>
      </trkpt>
      <trkpt lat="44.79796" lon="6.98519">
        <ele>2231.1</ele>
        <time>2022-02-25T12:04:23Z</time>
      </trkpt>
      <trkpt lat="44.79796" lon="6.98519">
        <ele>2231.1</ele>
        <time>2022-02-25T12:04:24Z</time>
      </trkpt>
      <trkpt lat="44.79796" lon="6.98519">
        <ele>2231.1</ele>
        <time>2022-02-25T12:04:25Z</time>
      </trkpt>
      <trkpt lat="44.79796" lon="6.98519">
        <ele>2231.1</ele>
        <time>2022-02-25T12:04:26Z</time>
      </trkpt>
      <trkpt lat="44.79796" lon="6.98519">
        <ele>2231.1</ele>
        <time>2022-02-25T12:04:27Z</time>
      </trkpt>
      <trkpt lat="44.79796" lon="6.98519">
        <ele>2231.1</ele>
        <time>2022-02-25T12:04:28Z</time>
      </trkpt>
      <trkpt lat="44.79796" lon="6.98519">
        <ele>2231.1</ele>
        <time>2022-02-25T12:04:29Z</time>
      </trkpt>
      <trkpt lat="44.79796" lon="6.98519">
        <ele>2231.1</ele>
        <time>2022-02-25T12:04:30Z</time>
      </trkpt>
      <trkpt lat="44.79796" lon="6.98519">
        <ele>2231.1</ele>
        <time>2022-02-25T12:04:31Z</time>
      </trkpt>
      <trkpt lat="44.79796" lon="6.98519">
        <ele>2231.1</ele>
        <time>2022-02-25T12:04:32Z</time>
      </trkpt>
      <trkpt lat="44.79796" lon="6.98519">
        <ele>2231.1</ele>
        <time>2022-02-25T12:04:33Z</time>
      </trkpt>
      <trkpt lat="44.79796" lon="6.98519">
        <ele>2231.1</ele>
        <time>2022-02-25T12:04:34Z</time>
      </trkpt>
      <trkpt lat="44.79796" lon="6.98519">
        <ele>2231.1</ele>
        <time>2022-02-25T12:04:35Z</time>
      </trkpt>
      <trkpt lat="44.79796" lon="6.98519">
        <ele>2231.1</ele>
        <time>2022-02-25T12:04:36Z</time>
      </trkpt>
      <trkpt lat="44.79796" lon="6.98519">
        <ele>2231.1</ele>
        <time>2022-02-25T12:04:37Z</time>
      </trkpt>
      <trkpt lat="44.79796" lon="6.98519">
        <ele>2231.1</ele>
        <time>2022-02-25T12:04:38Z</time>
      </trkpt>
      <trkpt lat="44.79796" lon="6.98519">
        <ele>2231.1</ele>
        <time>2022-02-25T12:04:39Z</time>
      </trkpt>
      <trkpt lat="44.79796" lon="6.98519">
        <ele>2231.1</ele>
        <time>2022-02-25T12:04:40Z</time>
      </trkpt>
      <trkpt lat="44.79796" lon="6.98519">
        <ele>2231.1</ele>
        <time>2022-02-25T12:04:41Z</time>
      </trkpt>
      <trkpt lat="44.79796" lon="6.98519">
        <ele>2231.1</ele>
        <time>2022-02-25T12:04:42Z</time>
      </trkpt>
      <trkpt lat="44.79796" lon="6.98519">
        <ele>2231.1</ele>
        <time>2022-02-25T12:04:43Z</time>
      </trkpt>
      <trkpt lat="44.79796" lon="6.98519">
        <ele>2231.1</ele>
        <time>2022-02-25T12:04:44Z</time>
      </trkpt>
      <trkpt lat="44.79796" lon="6.98519">
        <ele>2231.1</ele>
        <time>2022-02-25T12:04:45Z</time>
      </trkpt>
      <trkpt lat="44.79796" lon="6.98519">
        <ele>2231.1</ele>
        <time>2022-02-25T12:04:46Z</time>
      </trkpt>
      <trkpt lat="44.79796" lon="6.98519">
        <ele>2231.1</ele>
        <time>2022-02-25T12:04:47Z</time>
      </trkpt>
      <trkpt lat="44.79796" lon="6.98519">
        <ele>2231.1</ele>
        <time>2022-02-25T12:04:48Z</time>
      </trkpt>
      <trkpt lat="44.79796" lon="6.98519">
        <ele>2231.1</ele>
        <time>2022-02-25T12:04:49Z</time>
      </trkpt>
      <trkpt lat="44.79796" lon="6.98519">
        <ele>2231.1</ele>
        <time>2022-02-25T12:04:50Z</time>
      </trkpt>
      <trkpt lat="44.79796" lon="6.98519">
        <ele>2231.1</ele>
        <time>2022-02-25T12:04:51Z</time>
      </trkpt>
      <trkpt lat="44.79796" lon="6.98519">
        <ele>2231.1</ele>
        <time>2022-02-25T12:04:52Z</time>
      </trkpt>
      <trkpt lat="44.79796" lon="6.98519">
        <ele>2231.1</ele>
        <time>2022-02-25T12:04:53Z</time>
      </trkpt>
      <trkpt lat="44.79796" lon="6.98519">
        <ele>2231.1</ele>
        <time>2022-02-25T12:04:54Z</time>
      </trkpt>
      <trkpt lat="44.79796" lon="6.98519">
        <ele>2231.1</ele>
        <time>2022-02-25T12:04:55Z</time>
      </trkpt>
      <trkpt lat="44.79796" lon="6.98519">
        <ele>2231.1</ele>
        <time>2022-02-25T12:04:56Z</time>
      </trkpt>
      <trkpt lat="44.79796" lon="6.98519">
        <ele>2231.1</ele>
        <time>2022-02-25T12:04:57Z</time>
      </trkpt>
      <trkpt lat="44.79796" lon="6.98519">
        <ele>2231.1</ele>
        <time>2022-02-25T12:04:58Z</time>
      </trkpt>
      <trkpt lat="44.79796" lon="6.98519">
        <ele>2231.1</ele>
        <time>2022-02-25T12:04:59Z</time>
      </trkpt>
      <trkpt lat="44.79796" lon="6.98519">
        <ele>2231.1</ele>
        <time>2022-02-25T12:05:00Z</time>
      </trkpt>
      <trkpt lat="44.79796" lon="6.98519">
        <ele>2231.1</ele>
        <time>2022-02-25T12:05:01Z</time>
      </trkpt>
      <trkpt lat="44.79796" lon="6.98519">
        <ele>2231.1</ele>
        <time>2022-02-25T12:05:02Z</time>
      </trkpt>
      <trkpt lat="44.79796" lon="6.98519">
        <ele>2231.1</ele>
        <time>2022-02-25T12:05:03Z</time>
      </trkpt>
      <trkpt lat="44.79796" lon="6.98519">
        <ele>2231.1</ele>
        <time>2022-02-25T12:05:04Z</time>
      </trkpt>
      <trkpt lat="44.79796" lon="6.98519">
        <ele>2231.1</ele>
        <time>2022-02-25T12:05:05Z</time>
      </trkpt>
      <trkpt lat="44.79796" lon="6.98519">
        <ele>2231.1</ele>
        <time>2022-02-25T12:05:06Z</time>
      </trkpt>
      <trkpt lat="44.79796" lon="6.98519">
        <ele>2231.1</ele>
        <time>2022-02-25T12:05:07Z</time>
      </trkpt>
      <trkpt lat="44.79796" lon="6.98519">
        <ele>2231.1</ele>
        <time>2022-02-25T12:05:08Z</time>
      </trkpt>
      <trkpt lat="44.79796" lon="6.98519">
        <ele>2231.1</ele>
        <time>2022-02-25T12:05:09Z</time>
      </trkpt>
      <trkpt lat="44.79796" lon="6.98519">
        <ele>2231.1</ele>
        <time>2022-02-25T12:05:10Z</time>
      </trkpt>
      <trkpt lat="44.79796" lon="6.98519">
        <ele>2231.1</ele>
        <time>2022-02-25T12:05:11Z</time>
      </trkpt>
      <trkpt lat="44.79796" lon="6.98519">
        <ele>2231.1</ele>
        <time>2022-02-25T12:05:12Z</time>
      </trkpt>
      <trkpt lat="44.79796" lon="6.98519">
        <ele>2231.1</ele>
        <time>2022-02-25T12:05:13Z</time>
      </trkpt>
      <trkpt lat="44.79796" lon="6.98519">
        <ele>2231.1</ele>
        <time>2022-02-25T12:05:14Z</time>
      </trkpt>
      <trkpt lat="44.79796" lon="6.98519">
        <ele>2231.1</ele>
        <time>2022-02-25T12:05:15Z</time>
      </trkpt>
      <trkpt lat="44.79796" lon="6.98519">
        <ele>2231.1</ele>
        <time>2022-02-25T12:05:16Z</time>
      </trkpt>
      <trkpt lat="44.79796" lon="6.98519">
        <ele>2231.1</ele>
        <time>2022-02-25T12:05:17Z</time>
      </trkpt>
      <trkpt lat="44.79796" lon="6.98519">
        <ele>2231.1</ele>
        <time>2022-02-25T12:05:18Z</time>
      </trkpt>
      <trkpt lat="44.79796" lon="6.98519">
        <ele>2231.1</ele>
        <time>2022-02-25T12:05:19Z</time>
      </trkpt>
      <trkpt lat="44.79796" lon="6.98519">
        <ele>2231.1</ele>
        <time>2022-02-25T12:05:20Z</time>
      </trkpt>
      <trkpt lat="44.79796" lon="6.98519">
        <ele>2231.1</ele>
        <time>2022-02-25T12:05:21Z</time>
      </trkpt>
      <trkpt lat="44.79796" lon="6.98519">
        <ele>2231.1</ele>
        <time>2022-02-25T12:05:22Z</time>
      </trkpt>
      <trkpt lat="44.79796" lon="6.98519">
        <ele>2231.1</ele>
        <time>2022-02-25T12:05:23Z</time>
      </trkpt>
      <trkpt lat="44.79796" lon="6.98519">
        <ele>2231.1</ele>
        <time>2022-02-25T12:05:24Z</time>
      </trkpt>
      <trkpt lat="44.79796" lon="6.98519">
        <ele>2231.1</ele>
        <time>2022-02-25T12:05:25Z</time>
      </trkpt>
      <trkpt lat="44.79796" lon="6.98519">
        <ele>2231.1</ele>
        <time>2022-02-25T12:05:26Z</time>
      </trkpt>
      <trkpt lat="44.79796" lon="6.98519">
        <ele>2231.1</ele>
        <time>2022-02-25T12:05:27Z</time>
      </trkpt>
      <trkpt lat="44.79796" lon="6.98519">
        <ele>2231.1</ele>
        <time>2022-02-25T12:05:28Z</time>
      </trkpt>
      <trkpt lat="44.79796" lon="6.98519">
        <ele>2231.1</ele>
        <time>2022-02-25T12:05:29Z</time>
      </trkpt>
      <trkpt lat="44.79796" lon="6.98519">
        <ele>2231.1</ele>
        <time>2022-02-25T12:05:30Z</time>
      </trkpt>
      <trkpt lat="44.79796" lon="6.98519">
        <ele>2231.1</ele>
        <time>2022-02-25T12:05:31Z</time>
      </trkpt>
      <trkpt lat="44.79796" lon="6.98519">
        <ele>2231.1</ele>
        <time>2022-02-25T12:05:32Z</time>
      </trkpt>
      <trkpt lat="44.79796" lon="6.98519">
        <ele>2231.1</ele>
        <time>2022-02-25T12:05:33Z</time>
      </trkpt>
      <trkpt lat="44.79796" lon="6.98519">
        <ele>2231.1</ele>
        <time>2022-02-25T12:05:34Z</time>
      </trkpt>
      <trkpt lat="44.79796" lon="6.98519">
        <ele>2231.1</ele>
        <time>2022-02-25T12:05:35Z</time>
      </trkpt>
      <trkpt lat="44.79796" lon="6.98519">
        <ele>2231.1</ele>
        <time>2022-02-25T12:05:36Z</time>
      </trkpt>
      <trkpt lat="44.79796" lon="6.98519">
        <ele>2231.1</ele>
        <time>2022-02-25T12:05:37Z</time>
      </trkpt>
      <trkpt lat="44.79796" lon="6.98519">
        <ele>2231.1</ele>
        <time>2022-02-25T12:05:38Z</time>
      </trkpt>
      <trkpt lat="44.79796" lon="6.98519">
        <ele>2231.1</ele>
        <time>2022-02-25T12:05:39Z</time>
      </trkpt>
      <trkpt lat="44.79796" lon="6.98519">
        <ele>2231.1</ele>
        <time>2022-02-25T12:05:40Z</time>
      </trkpt>
      <trkpt lat="44.79796" lon="6.98519">
        <ele>2231.1</ele>
        <time>2022-02-25T12:05:41Z</time>
      </trkpt>
      <trkpt lat="44.79796" lon="6.98519">
        <ele>2231.1</ele>
        <time>2022-02-25T12:05:42Z</time>
      </trkpt>
      <trkpt lat="44.79796" lon="6.98519">
        <ele>2231.1</ele>
        <time>2022-02-25T12:05:43Z</time>
      </trkpt>
      <trkpt lat="44.79796" lon="6.98519">
        <ele>2231.1</ele>
        <time>2022-02-25T12:05:44Z</time>
      </trkpt>
      <trkpt lat="44.79796" lon="6.98519">
        <ele>2231.1</ele>
        <time>2022-02-25T12:05:45Z</time>
      </trkpt>
      <trkpt lat="44.79796" lon="6.98519">
        <ele>2231.1</ele>
        <time>2022-02-25T12:05:46Z</time>
      </trkpt>
      <trkpt lat="44.79796" lon="6.98519">
        <ele>2231.1</ele>
        <time>2022-02-25T12:05:47Z</time>
      </trkpt>
      <trkpt lat="44.79794" lon="6.98523">
        <ele>2231.9</ele>
        <time>2022-02-25T12:05:48Z</time>
      </trkpt>
      <trkpt lat="44.79794" lon="6.98523">
        <ele>2231.9</ele>
        <time>2022-02-25T12:05:49Z</time>
      </trkpt>
      <trkpt lat="44.79794" lon="6.98523">
        <ele>2231.9</ele>
        <time>2022-02-25T12:05:50Z</time>
      </trkpt>
      <trkpt lat="44.79793" lon="6.98524">
        <ele>2232.1</ele>
        <time>2022-02-25T12:05:51Z</time>
      </trkpt>
      <trkpt lat="44.79793" lon="6.98524">
        <ele>2232.1</ele>
        <time>2022-02-25T12:05:52Z</time>
      </trkpt>
      <trkpt lat="44.79793" lon="6.98524">
        <ele>2232.1</ele>
        <time>2022-02-25T12:05:53Z</time>
      </trkpt>
      <trkpt lat="44.79793" lon="6.98524">
        <ele>2232.1</ele>
        <time>2022-02-25T12:05:54Z</time>
      </trkpt>
      <trkpt lat="44.79793" lon="6.98524">
        <ele>2232.1</ele>
        <time>2022-02-25T12:05:55Z</time>
      </trkpt>
      <trkpt lat="44.79793" lon="6.98524">
        <ele>2232.1</ele>
        <time>2022-02-25T12:05:56Z</time>
      </trkpt>
      <trkpt lat="44.79793" lon="6.98524">
        <ele>2232.1</ele>
        <time>2022-02-25T12:05:57Z</time>
      </trkpt>
      <trkpt lat="44.79793" lon="6.98524">
        <ele>2232.1</ele>
        <time>2022-02-25T12:05:58Z</time>
      </trkpt>
      <trkpt lat="44.79793" lon="6.98524">
        <ele>2232.1</ele>
        <time>2022-02-25T12:05:59Z</time>
      </trkpt>
      <trkpt lat="44.79793" lon="6.98524">
        <ele>2232.1</ele>
        <time>2022-02-25T12:06:00Z</time>
      </trkpt>
      <trkpt lat="44.79793" lon="6.98524">
        <ele>2232.1</ele>
        <time>2022-02-25T12:06:01Z</time>
      </trkpt>
      <trkpt lat="44.79793" lon="6.98524">
        <ele>2232.1</ele>
        <time>2022-02-25T12:06:02Z</time>
      </trkpt>
      <trkpt lat="44.79793" lon="6.98524">
        <ele>2232.1</ele>
        <time>2022-02-25T12:06:03Z</time>
      </trkpt>
      <trkpt lat="44.79793" lon="6.98524">
        <ele>2232.1</ele>
        <time>2022-02-25T12:06:04Z</time>
      </trkpt>
      <trkpt lat="44.79793" lon="6.98524">
        <ele>2232.1</ele>
        <time>2022-02-25T12:06:05Z</time>
      </trkpt>
      <trkpt lat="44.79793" lon="6.98524">
        <ele>2232.1</ele>
        <time>2022-02-25T12:06:06Z</time>
      </trkpt>
      <trkpt lat="44.79793" lon="6.98524">
        <ele>2232.1</ele>
        <time>2022-02-25T12:06:07Z</time>
      </trkpt>
      <trkpt lat="44.79793" lon="6.98524">
        <ele>2232.1</ele>
        <time>2022-02-25T12:06:08Z</time>
      </trkpt>
      <trkpt lat="44.79793" lon="6.98524">
        <ele>2232.1</ele>
        <time>2022-02-25T12:06:09Z</time>
      </trkpt>
      <trkpt lat="44.79793" lon="6.98524">
        <ele>2232.1</ele>
        <time>2022-02-25T12:06:10Z</time>
      </trkpt>
      <trkpt lat="44.79793" lon="6.98524">
        <ele>2232.1</ele>
        <time>2022-02-25T12:06:11Z</time>
      </trkpt>
      <trkpt lat="44.79793" lon="6.98524">
        <ele>2232.1</ele>
        <time>2022-02-25T12:06:12Z</time>
      </trkpt>
      <trkpt lat="44.79793" lon="6.98524">
        <ele>2232.1</ele>
        <time>2022-02-25T12:06:13Z</time>
      </trkpt>
      <trkpt lat="44.79793" lon="6.98524">
        <ele>2232.1</ele>
        <time>2022-02-25T12:06:14Z</time>
      </trkpt>
      <trkpt lat="44.79793" lon="6.98524">
        <ele>2232.1</ele>
        <time>2022-02-25T12:06:15Z</time>
      </trkpt>
      <trkpt lat="44.79793" lon="6.98524">
        <ele>2232.1</ele>
        <time>2022-02-25T12:06:16Z</time>
      </trkpt>
      <trkpt lat="44.79793" lon="6.98524">
        <ele>2232.1</ele>
        <time>2022-02-25T12:06:17Z</time>
      </trkpt>
      <trkpt lat="44.79793" lon="6.98524">
        <ele>2232.1</ele>
        <time>2022-02-25T12:06:18Z</time>
      </trkpt>
      <trkpt lat="44.79793" lon="6.98524">
        <ele>2232.1</ele>
        <time>2022-02-25T12:06:19Z</time>
      </trkpt>
      <trkpt lat="44.79793" lon="6.98524">
        <ele>2232.1</ele>
        <time>2022-02-25T12:06:20Z</time>
      </trkpt>
      <trkpt lat="44.79793" lon="6.98524">
        <ele>2232.1</ele>
        <time>2022-02-25T12:06:21Z</time>
      </trkpt>
      <trkpt lat="44.79793" lon="6.98524">
        <ele>2232.1</ele>
        <time>2022-02-25T12:06:22Z</time>
      </trkpt>
      <trkpt lat="44.79793" lon="6.98524">
        <ele>2232.1</ele>
        <time>2022-02-25T12:06:23Z</time>
      </trkpt>
      <trkpt lat="44.79793" lon="6.98524">
        <ele>2232.1</ele>
        <time>2022-02-25T12:06:24Z</time>
      </trkpt>
      <trkpt lat="44.79793" lon="6.98524">
        <ele>2232.1</ele>
        <time>2022-02-25T12:06:25Z</time>
      </trkpt>
      <trkpt lat="44.79793" lon="6.98524">
        <ele>2232.1</ele>
        <time>2022-02-25T12:06:26Z</time>
      </trkpt>
      <trkpt lat="44.79793" lon="6.98524">
        <ele>2232.1</ele>
        <time>2022-02-25T12:06:27Z</time>
      </trkpt>
      <trkpt lat="44.79793" lon="6.98524">
        <ele>2232.1</ele>
        <time>2022-02-25T12:06:28Z</time>
      </trkpt>
      <trkpt lat="44.79793" lon="6.98524">
        <ele>2232.1</ele>
        <time>2022-02-25T12:06:29Z</time>
      </trkpt>
      <trkpt lat="44.79793" lon="6.98524">
        <ele>2232.1</ele>
        <time>2022-02-25T12:06:30Z</time>
      </trkpt>
      <trkpt lat="44.79793" lon="6.98524">
        <ele>2232.1</ele>
        <time>2022-02-25T12:06:31Z</time>
      </trkpt>
      <trkpt lat="44.79793" lon="6.98524">
        <ele>2232.1</ele>
        <time>2022-02-25T12:06:32Z</time>
      </trkpt>
      <trkpt lat="44.79793" lon="6.98524">
        <ele>2232.1</ele>
        <time>2022-02-25T12:06:33Z</time>
      </trkpt>
      <trkpt lat="44.79793" lon="6.98524">
        <ele>2232.1</ele>
        <time>2022-02-25T12:06:34Z</time>
      </trkpt>
      <trkpt lat="44.79793" lon="6.98524">
        <ele>2232.1</ele>
        <time>2022-02-25T12:06:35Z</time>
      </trkpt>
      <trkpt lat="44.79793" lon="6.98524">
        <ele>2232.1</ele>
        <time>2022-02-25T12:06:36Z</time>
      </trkpt>
      <trkpt lat="44.79793" lon="6.98524">
        <ele>2232.1</ele>
        <time>2022-02-25T12:06:37Z</time>
      </trkpt>
      <trkpt lat="44.79793" lon="6.98524">
        <ele>2232.1</ele>
        <time>2022-02-25T12:06:38Z</time>
      </trkpt>
      <trkpt lat="44.79793" lon="6.98524">
        <ele>2232.1</ele>
        <time>2022-02-25T12:06:39Z</time>
      </trkpt>
      <trkpt lat="44.79793" lon="6.98524">
        <ele>2232.1</ele>
        <time>2022-02-25T12:06:40Z</time>
      </trkpt>
      <trkpt lat="44.79793" lon="6.98524">
        <ele>2232.1</ele>
        <time>2022-02-25T12:06:41Z</time>
      </trkpt>
      <trkpt lat="44.79793" lon="6.98524">
        <ele>2232.1</ele>
        <time>2022-02-25T12:06:42Z</time>
      </trkpt>
      <trkpt lat="44.79793" lon="6.98524">
        <ele>2232.1</ele>
        <time>2022-02-25T12:06:43Z</time>
      </trkpt>
      <trkpt lat="44.79793" lon="6.98524">
        <ele>2232.1</ele>
        <time>2022-02-25T12:06:44Z</time>
      </trkpt>
      <trkpt lat="44.79793" lon="6.98528">
        <ele>2233</ele>
        <time>2022-02-25T12:06:45Z</time>
      </trkpt>
      <trkpt lat="44.79793" lon="6.98528">
        <ele>2233</ele>
        <time>2022-02-25T12:06:46Z</time>
      </trkpt>
      <trkpt lat="44.79793" lon="6.98528">
        <ele>2233</ele>
        <time>2022-02-25T12:06:47Z</time>
      </trkpt>
      <trkpt lat="44.79793" lon="6.98528">
        <ele>2233</ele>
        <time>2022-02-25T12:06:48Z</time>
      </trkpt>
      <trkpt lat="44.79793" lon="6.98531">
        <ele>2233.5</ele>
        <time>2022-02-25T12:06:49Z</time>
      </trkpt>
      <trkpt lat="44.79793" lon="6.98531">
        <ele>2233.5</ele>
        <time>2022-02-25T12:06:50Z</time>
      </trkpt>
      <trkpt lat="44.79793" lon="6.98531">
        <ele>2233.5</ele>
        <time>2022-02-25T12:06:51Z</time>
      </trkpt>
      <trkpt lat="44.79793" lon="6.98531">
        <ele>2233.5</ele>
        <time>2022-02-25T12:06:52Z</time>
      </trkpt>
      <trkpt lat="44.79793" lon="6.98531">
        <ele>2233.5</ele>
        <time>2022-02-25T12:06:53Z</time>
      </trkpt>
      <trkpt lat="44.79793" lon="6.98531">
        <ele>2233.5</ele>
        <time>2022-02-25T12:06:54Z</time>
      </trkpt>
      <trkpt lat="44.79793" lon="6.98531">
        <ele>2233.5</ele>
        <time>2022-02-25T12:06:55Z</time>
      </trkpt>
      <trkpt lat="44.79793" lon="6.98531">
        <ele>2233.5</ele>
        <time>2022-02-25T12:06:56Z</time>
      </trkpt>
      <trkpt lat="44.79793" lon="6.98531">
        <ele>2233.5</ele>
        <time>2022-02-25T12:06:57Z</time>
      </trkpt>
      <trkpt lat="44.79793" lon="6.98531">
        <ele>2233.5</ele>
        <time>2022-02-25T12:06:58Z</time>
      </trkpt>
      <trkpt lat="44.79793" lon="6.98531">
        <ele>2233.5</ele>
        <time>2022-02-25T12:06:59Z</time>
      </trkpt>
      <trkpt lat="44.79793" lon="6.98531">
        <ele>2233.5</ele>
        <time>2022-02-25T12:07:00Z</time>
      </trkpt>
      <trkpt lat="44.79793" lon="6.98531">
        <ele>2233.5</ele>
        <time>2022-02-25T12:07:01Z</time>
      </trkpt>
      <trkpt lat="44.79793" lon="6.98531">
        <ele>2233.5</ele>
        <time>2022-02-25T12:07:02Z</time>
      </trkpt>
      <trkpt lat="44.79794" lon="6.98535">
        <ele>2234</ele>
        <time>2022-02-25T12:07:03Z</time>
      </trkpt>
      <trkpt lat="44.79794" lon="6.98535">
        <ele>2234</ele>
        <time>2022-02-25T12:07:04Z</time>
      </trkpt>
      <trkpt lat="44.79796" lon="6.98538">
        <ele>2234.5</ele>
        <time>2022-02-25T12:07:05Z</time>
      </trkpt>
      <trkpt lat="44.79796" lon="6.98538">
        <ele>2234.5</ele>
        <time>2022-02-25T12:07:06Z</time>
      </trkpt>
      <trkpt lat="44.79797" lon="6.98542">
        <ele>2235</ele>
        <time>2022-02-25T12:07:07Z</time>
      </trkpt>
      <trkpt lat="44.79797" lon="6.98542">
        <ele>2235</ele>
        <time>2022-02-25T12:07:08Z</time>
      </trkpt>
      <trkpt lat="44.79798" lon="6.98545">
        <ele>2235.5</ele>
        <time>2022-02-25T12:07:09Z</time>
      </trkpt>
      <trkpt lat="44.79798" lon="6.98545">
        <ele>2235.5</ele>
        <time>2022-02-25T12:07:10Z</time>
      </trkpt>
      <trkpt lat="44.79799" lon="6.98547">
        <ele>2235.8</ele>
        <time>2022-02-25T12:07:11Z</time>
      </trkpt>
      <trkpt lat="44.79799" lon="6.98547">
        <ele>2235.8</ele>
        <time>2022-02-25T12:07:12Z</time>
      </trkpt>
      <trkpt lat="44.798" lon="6.9855">
        <ele>2236.2</ele>
        <time>2022-02-25T12:07:13Z</time>
      </trkpt>
      <trkpt lat="44.798" lon="6.9855">
        <ele>2236.2</ele>
        <time>2022-02-25T12:07:14Z</time>
      </trkpt>
      <trkpt lat="44.798" lon="6.9855">
        <ele>2236.2</ele>
        <time>2022-02-25T12:07:15Z</time>
      </trkpt>
      <trkpt lat="44.798" lon="6.98553">
        <ele>2236.6</ele>
        <time>2022-02-25T12:07:16Z</time>
      </trkpt>
      <trkpt lat="44.798" lon="6.98553">
        <ele>2236.6</ele>
        <time>2022-02-25T12:07:17Z</time>
      </trkpt>
      <trkpt lat="44.798" lon="6.98553">
        <ele>2236.6</ele>
        <time>2022-02-25T12:07:18Z</time>
      </trkpt>
      <trkpt lat="44.798" lon="6.98553">
        <ele>2236.6</ele>
        <time>2022-02-25T12:07:19Z</time>
      </trkpt>
      <trkpt lat="44.798" lon="6.98556">
        <ele>2237.1</ele>
        <time>2022-02-25T12:07:20Z</time>
      </trkpt>
      <trkpt lat="44.798" lon="6.98556">
        <ele>2237.1</ele>
        <time>2022-02-25T12:07:21Z</time>
      </trkpt>
      <trkpt lat="44.798" lon="6.98556">
        <ele>2237.1</ele>
        <time>2022-02-25T12:07:22Z</time>
      </trkpt>
      <trkpt lat="44.798" lon="6.98556">
        <ele>2237.1</ele>
        <time>2022-02-25T12:07:23Z</time>
      </trkpt>
      <trkpt lat="44.798" lon="6.98559">
        <ele>2237.5</ele>
        <time>2022-02-25T12:07:24Z</time>
      </trkpt>
      <trkpt lat="44.798" lon="6.98559">
        <ele>2237.5</ele>
        <time>2022-02-25T12:07:25Z</time>
      </trkpt>
      <trkpt lat="44.798" lon="6.98559">
        <ele>2237.5</ele>
        <time>2022-02-25T12:07:26Z</time>
      </trkpt>
      <trkpt lat="44.798" lon="6.98559">
        <ele>2237.5</ele>
        <time>2022-02-25T12:07:27Z</time>
      </trkpt>
      <trkpt lat="44.798" lon="6.98563">
        <ele>2238.1</ele>
        <time>2022-02-25T12:07:28Z</time>
      </trkpt>
      <trkpt lat="44.798" lon="6.98563">
        <ele>2238.1</ele>
        <time>2022-02-25T12:07:29Z</time>
      </trkpt>
      <trkpt lat="44.798" lon="6.98563">
        <ele>2238.1</ele>
        <time>2022-02-25T12:07:30Z</time>
      </trkpt>
      <trkpt lat="44.798" lon="6.98563">
        <ele>2238.1</ele>
        <time>2022-02-25T12:07:31Z</time>
      </trkpt>
      <trkpt lat="44.798" lon="6.98563">
        <ele>2238.1</ele>
        <time>2022-02-25T12:07:32Z</time>
      </trkpt>
      <trkpt lat="44.798" lon="6.98566">
        <ele>2238.5</ele>
        <time>2022-02-25T12:07:33Z</time>
      </trkpt>
      <trkpt lat="44.798" lon="6.98566">
        <ele>2238.5</ele>
        <time>2022-02-25T12:07:34Z</time>
      </trkpt>
      <trkpt lat="44.798" lon="6.98566">
        <ele>2238.5</ele>
        <time>2022-02-25T12:07:35Z</time>
      </trkpt>
      <trkpt lat="44.798" lon="6.98566">
        <ele>2238.5</ele>
        <time>2022-02-25T12:07:36Z</time>
      </trkpt>
      <trkpt lat="44.798" lon="6.98566">
        <ele>2238.5</ele>
        <time>2022-02-25T12:07:37Z</time>
      </trkpt>
      <trkpt lat="44.798" lon="6.98569">
        <ele>2238.9</ele>
        <time>2022-02-25T12:07:38Z</time>
      </trkpt>
      <trkpt lat="44.798" lon="6.98569">
        <ele>2238.9</ele>
        <time>2022-02-25T12:07:39Z</time>
      </trkpt>
      <trkpt lat="44.798" lon="6.98569">
        <ele>2238.9</ele>
        <time>2022-02-25T12:07:40Z</time>
      </trkpt>
      <trkpt lat="44.798" lon="6.98569">
        <ele>2238.9</ele>
        <time>2022-02-25T12:07:41Z</time>
      </trkpt>
      <trkpt lat="44.79798" lon="6.98571">
        <ele>2239.2</ele>
        <time>2022-02-25T12:07:42Z</time>
      </trkpt>
      <trkpt lat="44.79798" lon="6.98571">
        <ele>2239.2</ele>
        <time>2022-02-25T12:07:43Z</time>
      </trkpt>
      <trkpt lat="44.79798" lon="6.98571">
        <ele>2239.2</ele>
        <time>2022-02-25T12:07:44Z</time>
      </trkpt>
      <trkpt lat="44.79798" lon="6.98571">
        <ele>2239.2</ele>
        <time>2022-02-25T12:07:45Z</time>
      </trkpt>
      <trkpt lat="44.79798" lon="6.98573">
        <ele>2239.5</ele>
        <time>2022-02-25T12:07:46Z</time>
      </trkpt>
      <trkpt lat="44.79798" lon="6.98573">
        <ele>2239.5</ele>
        <time>2022-02-25T12:07:47Z</time>
      </trkpt>
      <trkpt lat="44.79798" lon="6.98573">
        <ele>2239.5</ele>
        <time>2022-02-25T12:07:48Z</time>
      </trkpt>
      <trkpt lat="44.79798" lon="6.98573">
        <ele>2239.5</ele>
        <time>2022-02-25T12:07:49Z</time>
      </trkpt>
      <trkpt lat="44.79799" lon="6.98576">
        <ele>2239.9</ele>
        <time>2022-02-25T12:07:50Z</time>
      </trkpt>
      <trkpt lat="44.79799" lon="6.98576">
        <ele>2239.9</ele>
        <time>2022-02-25T12:07:51Z</time>
      </trkpt>
      <trkpt lat="44.79799" lon="6.98576">
        <ele>2239.9</ele>
        <time>2022-02-25T12:07:52Z</time>
      </trkpt>
      <trkpt lat="44.79799" lon="6.98576">
        <ele>2239.9</ele>
        <time>2022-02-25T12:07:53Z</time>
      </trkpt>
      <trkpt lat="44.79799" lon="6.98576">
        <ele>2239.9</ele>
        <time>2022-02-25T12:07:54Z</time>
      </trkpt>
      <trkpt lat="44.79798" lon="6.98579">
        <ele>2240.4</ele>
        <time>2022-02-25T12:07:55Z</time>
      </trkpt>
      <trkpt lat="44.79798" lon="6.98579">
        <ele>2240.4</ele>
        <time>2022-02-25T12:07:56Z</time>
      </trkpt>
      <trkpt lat="44.79798" lon="6.98579">
        <ele>2240.4</ele>
        <time>2022-02-25T12:07:57Z</time>
      </trkpt>
      <trkpt lat="44.79798" lon="6.98579">
        <ele>2240.4</ele>
        <time>2022-02-25T12:07:58Z</time>
      </trkpt>
      <trkpt lat="44.79798" lon="6.98582">
        <ele>2240.8</ele>
        <time>2022-02-25T12:07:59Z</time>
      </trkpt>
      <trkpt lat="44.79798" lon="6.98582">
        <ele>2240.8</ele>
        <time>2022-02-25T12:08:00Z</time>
      </trkpt>
      <trkpt lat="44.79798" lon="6.98582">
        <ele>2240.8</ele>
        <time>2022-02-25T12:08:01Z</time>
      </trkpt>
      <trkpt lat="44.79798" lon="6.98585">
        <ele>2241.2</ele>
        <time>2022-02-25T12:08:02Z</time>
      </trkpt>
      <trkpt lat="44.79798" lon="6.98585">
        <ele>2241.2</ele>
        <time>2022-02-25T12:08:03Z</time>
      </trkpt>
      <trkpt lat="44.79798" lon="6.98585">
        <ele>2241.2</ele>
        <time>2022-02-25T12:08:04Z</time>
      </trkpt>
      <trkpt lat="44.79798" lon="6.98585">
        <ele>2241.2</ele>
        <time>2022-02-25T12:08:05Z</time>
      </trkpt>
      <trkpt lat="44.79798" lon="6.98585">
        <ele>2241.2</ele>
        <time>2022-02-25T12:08:06Z</time>
      </trkpt>
      <trkpt lat="44.79798" lon="6.98585">
        <ele>2241.2</ele>
        <time>2022-02-25T12:08:07Z</time>
      </trkpt>
      <trkpt lat="44.79798" lon="6.98585">
        <ele>2241.2</ele>
        <time>2022-02-25T12:08:08Z</time>
      </trkpt>
      <trkpt lat="44.79798" lon="6.98585">
        <ele>2241.2</ele>
        <time>2022-02-25T12:08:09Z</time>
      </trkpt>
      <trkpt lat="44.79798" lon="6.98585">
        <ele>2241.2</ele>
        <time>2022-02-25T12:08:10Z</time>
      </trkpt>
      <trkpt lat="44.79798" lon="6.98585">
        <ele>2241.2</ele>
        <time>2022-02-25T12:08:11Z</time>
      </trkpt>
      <trkpt lat="44.79798" lon="6.98585">
        <ele>2241.2</ele>
        <time>2022-02-25T12:08:12Z</time>
      </trkpt>
      <trkpt lat="44.79798" lon="6.98585">
        <ele>2241.2</ele>
        <time>2022-02-25T12:08:13Z</time>
      </trkpt>
      <trkpt lat="44.79798" lon="6.98585">
        <ele>2241.2</ele>
        <time>2022-02-25T12:08:14Z</time>
      </trkpt>
      <trkpt lat="44.79798" lon="6.98585">
        <ele>2241.2</ele>
        <time>2022-02-25T12:08:15Z</time>
      </trkpt>
      <trkpt lat="44.79798" lon="6.98585">
        <ele>2241.2</ele>
        <time>2022-02-25T12:08:16Z</time>
      </trkpt>
      <trkpt lat="44.79798" lon="6.98585">
        <ele>2241.2</ele>
        <time>2022-02-25T12:08:17Z</time>
      </trkpt>
      <trkpt lat="44.79798" lon="6.98585">
        <ele>2241.2</ele>
        <time>2022-02-25T12:08:18Z</time>
      </trkpt>
      <trkpt lat="44.79798" lon="6.98585">
        <ele>2241.2</ele>
        <time>2022-02-25T12:08:19Z</time>
      </trkpt>
      <trkpt lat="44.79798" lon="6.98585">
        <ele>2241.2</ele>
        <time>2022-02-25T12:08:20Z</time>
      </trkpt>
      <trkpt lat="44.79798" lon="6.98585">
        <ele>2241.2</ele>
        <time>2022-02-25T12:08:21Z</time>
      </trkpt>
      <trkpt lat="44.79798" lon="6.98585">
        <ele>2241.2</ele>
        <time>2022-02-25T12:08:22Z</time>
      </trkpt>
      <trkpt lat="44.79798" lon="6.98585">
        <ele>2241.2</ele>
        <time>2022-02-25T12:08:23Z</time>
      </trkpt>
      <trkpt lat="44.79798" lon="6.98585">
        <ele>2241.2</ele>
        <time>2022-02-25T12:08:24Z</time>
      </trkpt>
      <trkpt lat="44.79798" lon="6.98585">
        <ele>2241.2</ele>
        <time>2022-02-25T12:08:25Z</time>
      </trkpt>
      <trkpt lat="44.79798" lon="6.98585">
        <ele>2241.2</ele>
        <time>2022-02-25T12:08:26Z</time>
      </trkpt>
      <trkpt lat="44.79798" lon="6.98585">
        <ele>2241.2</ele>
        <time>2022-02-25T12:08:27Z</time>
      </trkpt>
      <trkpt lat="44.79798" lon="6.98585">
        <ele>2241.2</ele>
        <time>2022-02-25T12:08:28Z</time>
      </trkpt>
      <trkpt lat="44.79798" lon="6.98585">
        <ele>2241.2</ele>
        <time>2022-02-25T12:08:29Z</time>
      </trkpt>
      <trkpt lat="44.79798" lon="6.98585">
        <ele>2241.2</ele>
        <time>2022-02-25T12:08:30Z</time>
      </trkpt>
      <trkpt lat="44.79798" lon="6.98585">
        <ele>2241.2</ele>
        <time>2022-02-25T12:08:31Z</time>
      </trkpt>
      <trkpt lat="44.79798" lon="6.98585">
        <ele>2241.2</ele>
        <time>2022-02-25T12:08:32Z</time>
      </trkpt>
      <trkpt lat="44.79798" lon="6.98585">
        <ele>2241.2</ele>
        <time>2022-02-25T12:08:33Z</time>
      </trkpt>
      <trkpt lat="44.79798" lon="6.98585">
        <ele>2241.2</ele>
        <time>2022-02-25T12:08:34Z</time>
      </trkpt>
      <trkpt lat="44.79798" lon="6.98585">
        <ele>2241.2</ele>
        <time>2022-02-25T12:08:35Z</time>
      </trkpt>
      <trkpt lat="44.79798" lon="6.98585">
        <ele>2241.2</ele>
        <time>2022-02-25T12:08:36Z</time>
      </trkpt>
      <trkpt lat="44.79798" lon="6.98585">
        <ele>2241.2</ele>
        <time>2022-02-25T12:08:37Z</time>
      </trkpt>
      <trkpt lat="44.79798" lon="6.98585">
        <ele>2241.2</ele>
        <time>2022-02-25T12:08:38Z</time>
      </trkpt>
      <trkpt lat="44.79798" lon="6.98585">
        <ele>2241.2</ele>
        <time>2022-02-25T12:08:39Z</time>
      </trkpt>
      <trkpt lat="44.79798" lon="6.98585">
        <ele>2241.2</ele>
        <time>2022-02-25T12:08:40Z</time>
      </trkpt>
      <trkpt lat="44.79798" lon="6.98585">
        <ele>2241.2</ele>
        <time>2022-02-25T12:08:41Z</time>
      </trkpt>
      <trkpt lat="44.79798" lon="6.98585">
        <ele>2241.2</ele>
        <time>2022-02-25T12:08:42Z</time>
      </trkpt>
      <trkpt lat="44.79798" lon="6.98585">
        <ele>2241.2</ele>
        <time>2022-02-25T12:08:43Z</time>
      </trkpt>
      <trkpt lat="44.79798" lon="6.98585">
        <ele>2241.2</ele>
        <time>2022-02-25T12:08:44Z</time>
      </trkpt>
      <trkpt lat="44.79798" lon="6.98585">
        <ele>2241.2</ele>
        <time>2022-02-25T12:08:45Z</time>
      </trkpt>
      <trkpt lat="44.79798" lon="6.98585">
        <ele>2241.2</ele>
        <time>2022-02-25T12:08:46Z</time>
      </trkpt>
      <trkpt lat="44.79798" lon="6.98585">
        <ele>2241.2</ele>
        <time>2022-02-25T12:08:47Z</time>
      </trkpt>
      <trkpt lat="44.79798" lon="6.98588">
        <ele>2241.7</ele>
        <time>2022-02-25T12:08:48Z</time>
      </trkpt>
      <trkpt lat="44.79798" lon="6.98588">
        <ele>2241.7</ele>
        <time>2022-02-25T12:08:49Z</time>
      </trkpt>
      <trkpt lat="44.79798" lon="6.98592">
        <ele>2242.2</ele>
        <time>2022-02-25T12:08:50Z</time>
      </trkpt>
      <trkpt lat="44.79799" lon="6.98594">
        <ele>2242.5</ele>
        <time>2022-02-25T12:08:51Z</time>
      </trkpt>
      <trkpt lat="44.79799" lon="6.98594">
        <ele>2242.5</ele>
        <time>2022-02-25T12:08:52Z</time>
      </trkpt>
      <trkpt lat="44.79799" lon="6.98598">
        <ele>2243.1</ele>
        <time>2022-02-25T12:08:53Z</time>
      </trkpt>
      <trkpt lat="44.79799" lon="6.98598">
        <ele>2243.1</ele>
        <time>2022-02-25T12:08:54Z</time>
      </trkpt>
      <trkpt lat="44.798" lon="6.98603">
        <ele>2243.8</ele>
        <time>2022-02-25T12:08:55Z</time>
      </trkpt>
      <trkpt lat="44.798" lon="6.98603">
        <ele>2243.8</ele>
        <time>2022-02-25T12:08:56Z</time>
      </trkpt>
      <trkpt lat="44.798" lon="6.98607">
        <ele>2244.4</ele>
        <time>2022-02-25T12:08:57Z</time>
      </trkpt>
      <trkpt lat="44.798" lon="6.98607">
        <ele>2244.4</ele>
        <time>2022-02-25T12:08:58Z</time>
      </trkpt>
      <trkpt lat="44.798" lon="6.98607">
        <ele>2244.4</ele>
        <time>2022-02-25T12:08:59Z</time>
      </trkpt>
      <trkpt lat="44.798" lon="6.9861">
        <ele>2244.8</ele>
        <time>2022-02-25T12:09:00Z</time>
      </trkpt>
      <trkpt lat="44.798" lon="6.9861">
        <ele>2244.8</ele>
        <time>2022-02-25T12:09:01Z</time>
      </trkpt>
      <trkpt lat="44.798" lon="6.9861">
        <ele>2244.8</ele>
        <time>2022-02-25T12:09:02Z</time>
      </trkpt>
      <trkpt lat="44.798" lon="6.98613">
        <ele>2245.3</ele>
        <time>2022-02-25T12:09:03Z</time>
      </trkpt>
      <trkpt lat="44.798" lon="6.98613">
        <ele>2245.3</ele>
        <time>2022-02-25T12:09:04Z</time>
      </trkpt>
      <trkpt lat="44.798" lon="6.98613">
        <ele>2245.3</ele>
        <time>2022-02-25T12:09:05Z</time>
      </trkpt>
      <trkpt lat="44.798" lon="6.98616">
        <ele>2245.7</ele>
        <time>2022-02-25T12:09:06Z</time>
      </trkpt>
      <trkpt lat="44.798" lon="6.98616">
        <ele>2245.7</ele>
        <time>2022-02-25T12:09:07Z</time>
      </trkpt>
      <trkpt lat="44.798" lon="6.98616">
        <ele>2245.7</ele>
        <time>2022-02-25T12:09:08Z</time>
      </trkpt>
      <trkpt lat="44.798" lon="6.98616">
        <ele>2245.7</ele>
        <time>2022-02-25T12:09:09Z</time>
      </trkpt>
      <trkpt lat="44.798" lon="6.98619">
        <ele>2246.1</ele>
        <time>2022-02-25T12:09:10Z</time>
      </trkpt>
      <trkpt lat="44.798" lon="6.98619">
        <ele>2246.1</ele>
        <time>2022-02-25T12:09:11Z</time>
      </trkpt>
      <trkpt lat="44.798" lon="6.98619">
        <ele>2246.1</ele>
        <time>2022-02-25T12:09:12Z</time>
      </trkpt>
      <trkpt lat="44.798" lon="6.98622">
        <ele>2246.6</ele>
        <time>2022-02-25T12:09:13Z</time>
      </trkpt>
      <trkpt lat="44.798" lon="6.98622">
        <ele>2246.6</ele>
        <time>2022-02-25T12:09:14Z</time>
      </trkpt>
      <trkpt lat="44.79801" lon="6.98625">
        <ele>2247</ele>
        <time>2022-02-25T12:09:15Z</time>
      </trkpt>
      <trkpt lat="44.79801" lon="6.98625">
        <ele>2247</ele>
        <time>2022-02-25T12:09:16Z</time>
      </trkpt>
      <trkpt lat="44.79801" lon="6.98625">
        <ele>2247</ele>
        <time>2022-02-25T12:09:17Z</time>
      </trkpt>
      <trkpt lat="44.79801" lon="6.98625">
        <ele>2247</ele>
        <time>2022-02-25T12:09:18Z</time>
      </trkpt>
      <trkpt lat="44.79801" lon="6.98628">
        <ele>2247.4</ele>
        <time>2022-02-25T12:09:19Z</time>
      </trkpt>
      <trkpt lat="44.79801" lon="6.98628">
        <ele>2247.4</ele>
        <time>2022-02-25T12:09:20Z</time>
      </trkpt>
      <trkpt lat="44.79801" lon="6.98628">
        <ele>2247.4</ele>
        <time>2022-02-25T12:09:21Z</time>
      </trkpt>
      <trkpt lat="44.79801" lon="6.98628">
        <ele>2247.4</ele>
        <time>2022-02-25T12:09:22Z</time>
      </trkpt>
      <trkpt lat="44.798" lon="6.98631">
        <ele>2247.9</ele>
        <time>2022-02-25T12:09:23Z</time>
      </trkpt>
      <trkpt lat="44.798" lon="6.98631">
        <ele>2247.9</ele>
        <time>2022-02-25T12:09:24Z</time>
      </trkpt>
      <trkpt lat="44.798" lon="6.98631">
        <ele>2247.9</ele>
        <time>2022-02-25T12:09:25Z</time>
      </trkpt>
      <trkpt lat="44.798" lon="6.98634">
        <ele>2248.3</ele>
        <time>2022-02-25T12:09:26Z</time>
      </trkpt>
      <trkpt lat="44.798" lon="6.98634">
        <ele>2248.3</ele>
        <time>2022-02-25T12:09:27Z</time>
      </trkpt>
      <trkpt lat="44.798" lon="6.98634">
        <ele>2248.3</ele>
        <time>2022-02-25T12:09:28Z</time>
      </trkpt>
      <trkpt lat="44.798" lon="6.98634">
        <ele>2248.3</ele>
        <time>2022-02-25T12:09:29Z</time>
      </trkpt>
      <trkpt lat="44.798" lon="6.98637">
        <ele>2248.7</ele>
        <time>2022-02-25T12:09:30Z</time>
      </trkpt>
      <trkpt lat="44.798" lon="6.98637">
        <ele>2248.7</ele>
        <time>2022-02-25T12:09:31Z</time>
      </trkpt>
      <trkpt lat="44.798" lon="6.98637">
        <ele>2248.7</ele>
        <time>2022-02-25T12:09:32Z</time>
      </trkpt>
      <trkpt lat="44.798" lon="6.9864">
        <ele>2249.2</ele>
        <time>2022-02-25T12:09:33Z</time>
      </trkpt>
      <trkpt lat="44.798" lon="6.9864">
        <ele>2249.2</ele>
        <time>2022-02-25T12:09:34Z</time>
      </trkpt>
      <trkpt lat="44.798" lon="6.9864">
        <ele>2249.2</ele>
        <time>2022-02-25T12:09:35Z</time>
      </trkpt>
      <trkpt lat="44.798" lon="6.98643">
        <ele>2249.6</ele>
        <time>2022-02-25T12:09:36Z</time>
      </trkpt>
      <trkpt lat="44.798" lon="6.98643">
        <ele>2249.6</ele>
        <time>2022-02-25T12:09:37Z</time>
      </trkpt>
      <trkpt lat="44.798" lon="6.98643">
        <ele>2249.6</ele>
        <time>2022-02-25T12:09:38Z</time>
      </trkpt>
      <trkpt lat="44.798" lon="6.98646">
        <ele>2250</ele>
        <time>2022-02-25T12:09:39Z</time>
      </trkpt>
      <trkpt lat="44.798" lon="6.98646">
        <ele>2250</ele>
        <time>2022-02-25T12:09:40Z</time>
      </trkpt>
      <trkpt lat="44.798" lon="6.98646">
        <ele>2250</ele>
        <time>2022-02-25T12:09:41Z</time>
      </trkpt>
      <trkpt lat="44.798" lon="6.98648">
        <ele>2250.2</ele>
        <time>2022-02-25T12:09:42Z</time>
      </trkpt>
      <trkpt lat="44.798" lon="6.98648">
        <ele>2250.2</ele>
        <time>2022-02-25T12:09:43Z</time>
      </trkpt>
      <trkpt lat="44.798" lon="6.98648">
        <ele>2250.2</ele>
        <time>2022-02-25T12:09:44Z</time>
      </trkpt>
      <trkpt lat="44.798" lon="6.98648">
        <ele>2250.2</ele>
        <time>2022-02-25T12:09:45Z</time>
      </trkpt>
      <trkpt lat="44.79799" lon="6.98651">
        <ele>2250.6</ele>
        <time>2022-02-25T12:09:46Z</time>
      </trkpt>
      <trkpt lat="44.79799" lon="6.98651">
        <ele>2250.6</ele>
        <time>2022-02-25T12:09:47Z</time>
      </trkpt>
      <trkpt lat="44.79799" lon="6.98651">
        <ele>2250.6</ele>
        <time>2022-02-25T12:09:48Z</time>
      </trkpt>
      <trkpt lat="44.79798" lon="6.98654">
        <ele>2251</ele>
        <time>2022-02-25T12:09:49Z</time>
      </trkpt>
      <trkpt lat="44.79798" lon="6.98654">
        <ele>2251</ele>
        <time>2022-02-25T12:09:50Z</time>
      </trkpt>
      <trkpt lat="44.79798" lon="6.98654">
        <ele>2251</ele>
        <time>2022-02-25T12:09:51Z</time>
      </trkpt>
      <trkpt lat="44.79798" lon="6.98654">
        <ele>2251</ele>
        <time>2022-02-25T12:09:52Z</time>
      </trkpt>
      <trkpt lat="44.79798" lon="6.98657">
        <ele>2251.4</ele>
        <time>2022-02-25T12:09:53Z</time>
      </trkpt>
      <trkpt lat="44.79798" lon="6.98657">
        <ele>2251.4</ele>
        <time>2022-02-25T12:09:54Z</time>
      </trkpt>
      <trkpt lat="44.79798" lon="6.98657">
        <ele>2251.4</ele>
        <time>2022-02-25T12:09:55Z</time>
      </trkpt>
      <trkpt lat="44.79798" lon="6.9866">
        <ele>2251.8</ele>
        <time>2022-02-25T12:09:56Z</time>
      </trkpt>
      <trkpt lat="44.79798" lon="6.9866">
        <ele>2251.8</ele>
        <time>2022-02-25T12:09:57Z</time>
      </trkpt>
      <trkpt lat="44.79798" lon="6.9866">
        <ele>2251.8</ele>
        <time>2022-02-25T12:09:58Z</time>
      </trkpt>
      <trkpt lat="44.79798" lon="6.9866">
        <ele>2251.8</ele>
        <time>2022-02-25T12:09:59Z</time>
      </trkpt>
      <trkpt lat="44.79798" lon="6.98663">
        <ele>2252.2</ele>
        <time>2022-02-25T12:10:00Z</time>
      </trkpt>
      <trkpt lat="44.79798" lon="6.98663">
        <ele>2252.2</ele>
        <time>2022-02-25T12:10:01Z</time>
      </trkpt>
      <trkpt lat="44.79798" lon="6.98663">
        <ele>2252.2</ele>
        <time>2022-02-25T12:10:02Z</time>
      </trkpt>
      <trkpt lat="44.79798" lon="6.98663">
        <ele>2252.2</ele>
        <time>2022-02-25T12:10:03Z</time>
      </trkpt>
      <trkpt lat="44.79798" lon="6.98667">
        <ele>2252.8</ele>
        <time>2022-02-25T12:10:04Z</time>
      </trkpt>
      <trkpt lat="44.79798" lon="6.98667">
        <ele>2252.8</ele>
        <time>2022-02-25T12:10:05Z</time>
      </trkpt>
      <trkpt lat="44.79798" lon="6.98667">
        <ele>2252.8</ele>
        <time>2022-02-25T12:10:06Z</time>
      </trkpt>
      <trkpt lat="44.79798" lon="6.9867">
        <ele>2253.2</ele>
        <time>2022-02-25T12:10:07Z</time>
      </trkpt>
      <trkpt lat="44.79798" lon="6.9867">
        <ele>2253.2</ele>
        <time>2022-02-25T12:10:08Z</time>
      </trkpt>
      <trkpt lat="44.79799" lon="6.98672">
        <ele>2253.5</ele>
        <time>2022-02-25T12:10:09Z</time>
      </trkpt>
      <trkpt lat="44.79799" lon="6.98672">
        <ele>2253.5</ele>
        <time>2022-02-25T12:10:10Z</time>
      </trkpt>
      <trkpt lat="44.79799" lon="6.98672">
        <ele>2253.5</ele>
        <time>2022-02-25T12:10:11Z</time>
      </trkpt>
      <trkpt lat="44.79799" lon="6.98672">
        <ele>2253.5</ele>
        <time>2022-02-25T12:10:12Z</time>
      </trkpt>
      <trkpt lat="44.79798" lon="6.98675">
        <ele>2253.9</ele>
        <time>2022-02-25T12:10:13Z</time>
      </trkpt>
      <trkpt lat="44.79798" lon="6.98675">
        <ele>2253.9</ele>
        <time>2022-02-25T12:10:14Z</time>
      </trkpt>
      <trkpt lat="44.79798" lon="6.98675">
        <ele>2253.9</ele>
        <time>2022-02-25T12:10:15Z</time>
      </trkpt>
      <trkpt lat="44.79798" lon="6.98678">
        <ele>2254.4</ele>
        <time>2022-02-25T12:10:16Z</time>
      </trkpt>
      <trkpt lat="44.79798" lon="6.98678">
        <ele>2254.4</ele>
        <time>2022-02-25T12:10:17Z</time>
      </trkpt>
      <trkpt lat="44.79798" lon="6.98678">
        <ele>2254.4</ele>
        <time>2022-02-25T12:10:18Z</time>
      </trkpt>
      <trkpt lat="44.79799" lon="6.98681">
        <ele>2254.8</ele>
        <time>2022-02-25T12:10:19Z</time>
      </trkpt>
      <trkpt lat="44.79799" lon="6.98681">
        <ele>2254.8</ele>
        <time>2022-02-25T12:10:20Z</time>
      </trkpt>
      <trkpt lat="44.79799" lon="6.98681">
        <ele>2254.8</ele>
        <time>2022-02-25T12:10:21Z</time>
      </trkpt>
      <trkpt lat="44.79799" lon="6.98681">
        <ele>2254.8</ele>
        <time>2022-02-25T12:10:22Z</time>
      </trkpt>
      <trkpt lat="44.79798" lon="6.98683">
        <ele>2255.1</ele>
        <time>2022-02-25T12:10:23Z</time>
      </trkpt>
      <trkpt lat="44.79798" lon="6.98683">
        <ele>2255.1</ele>
        <time>2022-02-25T12:10:24Z</time>
      </trkpt>
      <trkpt lat="44.79798" lon="6.98683">
        <ele>2255.1</ele>
        <time>2022-02-25T12:10:25Z</time>
      </trkpt>
      <trkpt lat="44.79798" lon="6.98686">
        <ele>2255.5</ele>
        <time>2022-02-25T12:10:26Z</time>
      </trkpt>
      <trkpt lat="44.79798" lon="6.98686">
        <ele>2255.5</ele>
        <time>2022-02-25T12:10:27Z</time>
      </trkpt>
      <trkpt lat="44.79798" lon="6.98686">
        <ele>2255.5</ele>
        <time>2022-02-25T12:10:28Z</time>
      </trkpt>
      <trkpt lat="44.79797" lon="6.98689">
        <ele>2255.9</ele>
        <time>2022-02-25T12:10:29Z</time>
      </trkpt>
      <trkpt lat="44.79797" lon="6.98689">
        <ele>2255.9</ele>
        <time>2022-02-25T12:10:30Z</time>
      </trkpt>
      <trkpt lat="44.79797" lon="6.98689">
        <ele>2255.9</ele>
        <time>2022-02-25T12:10:31Z</time>
      </trkpt>
      <trkpt lat="44.79797" lon="6.98689">
        <ele>2255.9</ele>
        <time>2022-02-25T12:10:32Z</time>
      </trkpt>
      <trkpt lat="44.79797" lon="6.98691">
        <ele>2256.2</ele>
        <time>2022-02-25T12:10:33Z</time>
      </trkpt>
      <trkpt lat="44.79797" lon="6.98691">
        <ele>2256.2</ele>
        <time>2022-02-25T12:10:34Z</time>
      </trkpt>
      <trkpt lat="44.79797" lon="6.98691">
        <ele>2256.2</ele>
        <time>2022-02-25T12:10:35Z</time>
      </trkpt>
      <trkpt lat="44.79797" lon="6.98694">
        <ele>2256.6</ele>
        <time>2022-02-25T12:10:36Z</time>
      </trkpt>
      <trkpt lat="44.79797" lon="6.98694">
        <ele>2256.6</ele>
        <time>2022-02-25T12:10:37Z</time>
      </trkpt>
      <trkpt lat="44.79797" lon="6.98694">
        <ele>2256.6</ele>
        <time>2022-02-25T12:10:38Z</time>
      </trkpt>
      <trkpt lat="44.79797" lon="6.98697">
        <ele>2257.1</ele>
        <time>2022-02-25T12:10:39Z</time>
      </trkpt>
      <trkpt lat="44.79797" lon="6.98697">
        <ele>2257.1</ele>
        <time>2022-02-25T12:10:40Z</time>
      </trkpt>
      <trkpt lat="44.79797" lon="6.98697">
        <ele>2257.1</ele>
        <time>2022-02-25T12:10:41Z</time>
      </trkpt>
      <trkpt lat="44.79797" lon="6.987">
        <ele>2257.6</ele>
        <time>2022-02-25T12:10:42Z</time>
      </trkpt>
      <trkpt lat="44.79797" lon="6.987">
        <ele>2257.6</ele>
        <time>2022-02-25T12:10:43Z</time>
      </trkpt>
      <trkpt lat="44.79797" lon="6.987">
        <ele>2257.6</ele>
        <time>2022-02-25T12:10:44Z</time>
      </trkpt>
      <trkpt lat="44.79797" lon="6.987">
        <ele>2257.6</ele>
        <time>2022-02-25T12:10:45Z</time>
      </trkpt>
      <trkpt lat="44.79797" lon="6.98703">
        <ele>2258.1</ele>
        <time>2022-02-25T12:10:46Z</time>
      </trkpt>
      <trkpt lat="44.79797" lon="6.98703">
        <ele>2258.1</ele>
        <time>2022-02-25T12:10:47Z</time>
      </trkpt>
      <trkpt lat="44.79797" lon="6.98703">
        <ele>2258.1</ele>
        <time>2022-02-25T12:10:48Z</time>
      </trkpt>
      <trkpt lat="44.79797" lon="6.98706">
        <ele>2258.6</ele>
        <time>2022-02-25T12:10:49Z</time>
      </trkpt>
      <trkpt lat="44.79797" lon="6.98706">
        <ele>2258.6</ele>
        <time>2022-02-25T12:10:50Z</time>
      </trkpt>
      <trkpt lat="44.79797" lon="6.98706">
        <ele>2258.6</ele>
        <time>2022-02-25T12:10:51Z</time>
      </trkpt>
      <trkpt lat="44.79797" lon="6.98709">
        <ele>2259.2</ele>
        <time>2022-02-25T12:10:52Z</time>
      </trkpt>
      <trkpt lat="44.79797" lon="6.98709">
        <ele>2259.2</ele>
        <time>2022-02-25T12:10:53Z</time>
      </trkpt>
      <trkpt lat="44.79797" lon="6.98709">
        <ele>2259.2</ele>
        <time>2022-02-25T12:10:54Z</time>
      </trkpt>
      <trkpt lat="44.79797" lon="6.98711">
        <ele>2259.5</ele>
        <time>2022-02-25T12:10:55Z</time>
      </trkpt>
      <trkpt lat="44.79797" lon="6.98711">
        <ele>2259.5</ele>
        <time>2022-02-25T12:10:56Z</time>
      </trkpt>
      <trkpt lat="44.79797" lon="6.98711">
        <ele>2259.5</ele>
        <time>2022-02-25T12:10:57Z</time>
      </trkpt>
      <trkpt lat="44.79797" lon="6.98711">
        <ele>2259.5</ele>
        <time>2022-02-25T12:10:58Z</time>
      </trkpt>
      <trkpt lat="44.79797" lon="6.98714">
        <ele>2260</ele>
        <time>2022-02-25T12:10:59Z</time>
      </trkpt>
      <trkpt lat="44.79797" lon="6.98714">
        <ele>2260</ele>
        <time>2022-02-25T12:11:00Z</time>
      </trkpt>
      <trkpt lat="44.79797" lon="6.98714">
        <ele>2260</ele>
        <time>2022-02-25T12:11:01Z</time>
      </trkpt>
      <trkpt lat="44.79797" lon="6.98714">
        <ele>2260</ele>
        <time>2022-02-25T12:11:02Z</time>
      </trkpt>
      <trkpt lat="44.79797" lon="6.98718">
        <ele>2260.7</ele>
        <time>2022-02-25T12:11:03Z</time>
      </trkpt>
      <trkpt lat="44.79797" lon="6.98718">
        <ele>2260.7</ele>
        <time>2022-02-25T12:11:04Z</time>
      </trkpt>
      <trkpt lat="44.79797" lon="6.98718">
        <ele>2260.7</ele>
        <time>2022-02-25T12:11:05Z</time>
      </trkpt>
      <trkpt lat="44.79797" lon="6.98718">
        <ele>2260.7</ele>
        <time>2022-02-25T12:11:06Z</time>
      </trkpt>
      <trkpt lat="44.79797" lon="6.98721">
        <ele>2261.2</ele>
        <time>2022-02-25T12:11:07Z</time>
      </trkpt>
      <trkpt lat="44.79797" lon="6.98721">
        <ele>2261.2</ele>
        <time>2022-02-25T12:11:08Z</time>
      </trkpt>
      <trkpt lat="44.79797" lon="6.98721">
        <ele>2261.2</ele>
        <time>2022-02-25T12:11:09Z</time>
      </trkpt>
      <trkpt lat="44.79797" lon="6.98721">
        <ele>2261.2</ele>
        <time>2022-02-25T12:11:10Z</time>
      </trkpt>
      <trkpt lat="44.79797" lon="6.98724">
        <ele>2261.6</ele>
        <time>2022-02-25T12:11:11Z</time>
      </trkpt>
      <trkpt lat="44.79797" lon="6.98724">
        <ele>2261.6</ele>
        <time>2022-02-25T12:11:12Z</time>
      </trkpt>
      <trkpt lat="44.79797" lon="6.98724">
        <ele>2261.6</ele>
        <time>2022-02-25T12:11:13Z</time>
      </trkpt>
      <trkpt lat="44.79797" lon="6.98724">
        <ele>2261.6</ele>
        <time>2022-02-25T12:11:14Z</time>
      </trkpt>
      <trkpt lat="44.79797" lon="6.98727">
        <ele>2262.1</ele>
        <time>2022-02-25T12:11:15Z</time>
      </trkpt>
      <trkpt lat="44.79797" lon="6.98727">
        <ele>2262.1</ele>
        <time>2022-02-25T12:11:16Z</time>
      </trkpt>
      <trkpt lat="44.79797" lon="6.98727">
        <ele>2262.1</ele>
        <time>2022-02-25T12:11:17Z</time>
      </trkpt>
      <trkpt lat="44.79797" lon="6.98727">
        <ele>2262.1</ele>
        <time>2022-02-25T12:11:18Z</time>
      </trkpt>
      <trkpt lat="44.79797" lon="6.98731">
        <ele>2262.6</ele>
        <time>2022-02-25T12:11:19Z</time>
      </trkpt>
      <trkpt lat="44.79797" lon="6.98731">
        <ele>2262.6</ele>
        <time>2022-02-25T12:11:20Z</time>
      </trkpt>
      <trkpt lat="44.79797" lon="6.98731">
        <ele>2262.6</ele>
        <time>2022-02-25T12:11:21Z</time>
      </trkpt>
      <trkpt lat="44.79797" lon="6.98731">
        <ele>2262.6</ele>
        <time>2022-02-25T12:11:22Z</time>
      </trkpt>
      <trkpt lat="44.79797" lon="6.98734">
        <ele>2263.1</ele>
        <time>2022-02-25T12:11:23Z</time>
      </trkpt>
      <trkpt lat="44.79797" lon="6.98734">
        <ele>2263.1</ele>
        <time>2022-02-25T12:11:24Z</time>
      </trkpt>
      <trkpt lat="44.79797" lon="6.98734">
        <ele>2263.1</ele>
        <time>2022-02-25T12:11:25Z</time>
      </trkpt>
      <trkpt lat="44.79797" lon="6.98734">
        <ele>2263.1</ele>
        <time>2022-02-25T12:11:26Z</time>
      </trkpt>
      <trkpt lat="44.79797" lon="6.98737">
        <ele>2263.5</ele>
        <time>2022-02-25T12:11:27Z</time>
      </trkpt>
      <trkpt lat="44.79797" lon="6.98737">
        <ele>2263.5</ele>
        <time>2022-02-25T12:11:28Z</time>
      </trkpt>
      <trkpt lat="44.79797" lon="6.98737">
        <ele>2263.5</ele>
        <time>2022-02-25T12:11:29Z</time>
      </trkpt>
      <trkpt lat="44.79797" lon="6.98739">
        <ele>2263.8</ele>
        <time>2022-02-25T12:11:30Z</time>
      </trkpt>
      <trkpt lat="44.79797" lon="6.98739">
        <ele>2263.8</ele>
        <time>2022-02-25T12:11:31Z</time>
      </trkpt>
      <trkpt lat="44.79797" lon="6.98739">
        <ele>2263.8</ele>
        <time>2022-02-25T12:11:32Z</time>
      </trkpt>
      <trkpt lat="44.79797" lon="6.98742">
        <ele>2264.2</ele>
        <time>2022-02-25T12:11:33Z</time>
      </trkpt>
      <trkpt lat="44.79797" lon="6.98742">
        <ele>2264.2</ele>
        <time>2022-02-25T12:11:34Z</time>
      </trkpt>
      <trkpt lat="44.79797" lon="6.98742">
        <ele>2264.2</ele>
        <time>2022-02-25T12:11:35Z</time>
      </trkpt>
      <trkpt lat="44.79797" lon="6.98742">
        <ele>2264.2</ele>
        <time>2022-02-25T12:11:36Z</time>
      </trkpt>
      <trkpt lat="44.79797" lon="6.98745">
        <ele>2264.7</ele>
        <time>2022-02-25T12:11:37Z</time>
      </trkpt>
      <trkpt lat="44.79797" lon="6.98745">
        <ele>2264.7</ele>
        <time>2022-02-25T12:11:38Z</time>
      </trkpt>
      <trkpt lat="44.79797" lon="6.98745">
        <ele>2264.7</ele>
        <time>2022-02-25T12:11:39Z</time>
      </trkpt>
      <trkpt lat="44.79797" lon="6.98745">
        <ele>2264.7</ele>
        <time>2022-02-25T12:11:40Z</time>
      </trkpt>
      <trkpt lat="44.79797" lon="6.98747">
        <ele>2265</ele>
        <time>2022-02-25T12:11:41Z</time>
      </trkpt>
      <trkpt lat="44.79797" lon="6.98747">
        <ele>2265</ele>
        <time>2022-02-25T12:11:42Z</time>
      </trkpt>
      <trkpt lat="44.79797" lon="6.98747">
        <ele>2265</ele>
        <time>2022-02-25T12:11:43Z</time>
      </trkpt>
      <trkpt lat="44.79797" lon="6.98747">
        <ele>2265</ele>
        <time>2022-02-25T12:11:44Z</time>
      </trkpt>
      <trkpt lat="44.79796" lon="6.98751">
        <ele>2265.5</ele>
        <time>2022-02-25T12:11:45Z</time>
      </trkpt>
      <trkpt lat="44.79796" lon="6.98751">
        <ele>2265.5</ele>
        <time>2022-02-25T12:11:46Z</time>
      </trkpt>
      <trkpt lat="44.79796" lon="6.98751">
        <ele>2265.5</ele>
        <time>2022-02-25T12:11:47Z</time>
      </trkpt>
      <trkpt lat="44.79797" lon="6.98753">
        <ele>2266</ele>
        <time>2022-02-25T12:11:48Z</time>
      </trkpt>
      <trkpt lat="44.79797" lon="6.98753">
        <ele>2266</ele>
        <time>2022-02-25T12:11:49Z</time>
      </trkpt>
      <trkpt lat="44.79797" lon="6.98753">
        <ele>2266</ele>
        <time>2022-02-25T12:11:50Z</time>
      </trkpt>
      <trkpt lat="44.79797" lon="6.98753">
        <ele>2266</ele>
        <time>2022-02-25T12:11:51Z</time>
      </trkpt>
      <trkpt lat="44.79796" lon="6.98756">
        <ele>2266.5</ele>
        <time>2022-02-25T12:11:52Z</time>
      </trkpt>
      <trkpt lat="44.79796" lon="6.98756">
        <ele>2266.5</ele>
        <time>2022-02-25T12:11:53Z</time>
      </trkpt>
      <trkpt lat="44.79796" lon="6.98756">
        <ele>2266.5</ele>
        <time>2022-02-25T12:11:54Z</time>
      </trkpt>
      <trkpt lat="44.79796" lon="6.98756">
        <ele>2266.5</ele>
        <time>2022-02-25T12:11:55Z</time>
      </trkpt>
      <trkpt lat="44.79795" lon="6.98759">
        <ele>2267.1</ele>
        <time>2022-02-25T12:11:56Z</time>
      </trkpt>
      <trkpt lat="44.79795" lon="6.98759">
        <ele>2267.1</ele>
        <time>2022-02-25T12:11:57Z</time>
      </trkpt>
      <trkpt lat="44.79795" lon="6.98759">
        <ele>2267.1</ele>
        <time>2022-02-25T12:11:58Z</time>
      </trkpt>
      <trkpt lat="44.79795" lon="6.98759">
        <ele>2267.1</ele>
        <time>2022-02-25T12:11:59Z</time>
      </trkpt>
      <trkpt lat="44.79795" lon="6.98762">
        <ele>2267.7</ele>
        <time>2022-02-25T12:12:00Z</time>
      </trkpt>
      <trkpt lat="44.79795" lon="6.98762">
        <ele>2267.7</ele>
        <time>2022-02-25T12:12:01Z</time>
      </trkpt>
      <trkpt lat="44.79795" lon="6.98762">
        <ele>2267.7</ele>
        <time>2022-02-25T12:12:02Z</time>
      </trkpt>
      <trkpt lat="44.79795" lon="6.98762">
        <ele>2267.7</ele>
        <time>2022-02-25T12:12:03Z</time>
      </trkpt>
      <trkpt lat="44.79794" lon="6.98764">
        <ele>2268</ele>
        <time>2022-02-25T12:12:04Z</time>
      </trkpt>
      <trkpt lat="44.79794" lon="6.98764">
        <ele>2268</ele>
        <time>2022-02-25T12:12:05Z</time>
      </trkpt>
      <trkpt lat="44.79794" lon="6.98764">
        <ele>2268</ele>
        <time>2022-02-25T12:12:06Z</time>
      </trkpt>
      <trkpt lat="44.79794" lon="6.98764">
        <ele>2268</ele>
        <time>2022-02-25T12:12:07Z</time>
      </trkpt>
      <trkpt lat="44.79794" lon="6.98767">
        <ele>2268.6</ele>
        <time>2022-02-25T12:12:08Z</time>
      </trkpt>
      <trkpt lat="44.79794" lon="6.98767">
        <ele>2268.6</ele>
        <time>2022-02-25T12:12:09Z</time>
      </trkpt>
      <trkpt lat="44.79794" lon="6.98767">
        <ele>2268.6</ele>
        <time>2022-02-25T12:12:10Z</time>
      </trkpt>
      <trkpt lat="44.79794" lon="6.98767">
        <ele>2268.6</ele>
        <time>2022-02-25T12:12:11Z</time>
      </trkpt>
      <trkpt lat="44.79794" lon="6.9877">
        <ele>2269.2</ele>
        <time>2022-02-25T12:12:12Z</time>
      </trkpt>
      <trkpt lat="44.79794" lon="6.9877">
        <ele>2269.2</ele>
        <time>2022-02-25T12:12:13Z</time>
      </trkpt>
      <trkpt lat="44.79794" lon="6.9877">
        <ele>2269.2</ele>
        <time>2022-02-25T12:12:14Z</time>
      </trkpt>
      <trkpt lat="44.79794" lon="6.9877">
        <ele>2269.2</ele>
        <time>2022-02-25T12:12:15Z</time>
      </trkpt>
      <trkpt lat="44.79794" lon="6.98773">
        <ele>2269.8</ele>
        <time>2022-02-25T12:12:16Z</time>
      </trkpt>
      <trkpt lat="44.79794" lon="6.98773">
        <ele>2269.8</ele>
        <time>2022-02-25T12:12:17Z</time>
      </trkpt>
      <trkpt lat="44.79794" lon="6.98773">
        <ele>2269.8</ele>
        <time>2022-02-25T12:12:18Z</time>
      </trkpt>
      <trkpt lat="44.79794" lon="6.98773">
        <ele>2269.8</ele>
        <time>2022-02-25T12:12:19Z</time>
      </trkpt>
      <trkpt lat="44.79794" lon="6.98776">
        <ele>2270.4</ele>
        <time>2022-02-25T12:12:20Z</time>
      </trkpt>
      <trkpt lat="44.79794" lon="6.98776">
        <ele>2270.4</ele>
        <time>2022-02-25T12:12:21Z</time>
      </trkpt>
      <trkpt lat="44.79794" lon="6.98776">
        <ele>2270.4</ele>
        <time>2022-02-25T12:12:22Z</time>
      </trkpt>
      <trkpt lat="44.79794" lon="6.98776">
        <ele>2270.4</ele>
        <time>2022-02-25T12:12:23Z</time>
      </trkpt>
      <trkpt lat="44.79794" lon="6.98779">
        <ele>2270.9</ele>
        <time>2022-02-25T12:12:24Z</time>
      </trkpt>
      <trkpt lat="44.79794" lon="6.98779">
        <ele>2270.9</ele>
        <time>2022-02-25T12:12:25Z</time>
      </trkpt>
      <trkpt lat="44.79794" lon="6.98779">
        <ele>2270.9</ele>
        <time>2022-02-25T12:12:26Z</time>
      </trkpt>
      <trkpt lat="44.79794" lon="6.98779">
        <ele>2270.9</ele>
        <time>2022-02-25T12:12:27Z</time>
      </trkpt>
      <trkpt lat="44.79794" lon="6.98781">
        <ele>2271.2</ele>
        <time>2022-02-25T12:12:28Z</time>
      </trkpt>
      <trkpt lat="44.79794" lon="6.98781">
        <ele>2271.2</ele>
        <time>2022-02-25T12:12:29Z</time>
      </trkpt>
      <trkpt lat="44.79794" lon="6.98781">
        <ele>2271.2</ele>
        <time>2022-02-25T12:12:30Z</time>
      </trkpt>
      <trkpt lat="44.79794" lon="6.98781">
        <ele>2271.2</ele>
        <time>2022-02-25T12:12:31Z</time>
      </trkpt>
      <trkpt lat="44.79794" lon="6.98784">
        <ele>2271.6</ele>
        <time>2022-02-25T12:12:32Z</time>
      </trkpt>
      <trkpt lat="44.79794" lon="6.98784">
        <ele>2271.6</ele>
        <time>2022-02-25T12:12:33Z</time>
      </trkpt>
      <trkpt lat="44.79794" lon="6.98784">
        <ele>2271.6</ele>
        <time>2022-02-25T12:12:34Z</time>
      </trkpt>
      <trkpt lat="44.79794" lon="6.98784">
        <ele>2271.6</ele>
        <time>2022-02-25T12:12:35Z</time>
      </trkpt>
      <trkpt lat="44.79794" lon="6.98784">
        <ele>2271.6</ele>
        <time>2022-02-25T12:12:36Z</time>
      </trkpt>
      <trkpt lat="44.79794" lon="6.98787">
        <ele>2271.9</ele>
        <time>2022-02-25T12:12:37Z</time>
      </trkpt>
      <trkpt lat="44.79794" lon="6.98787">
        <ele>2271.9</ele>
        <time>2022-02-25T12:12:38Z</time>
      </trkpt>
      <trkpt lat="44.79794" lon="6.98787">
        <ele>2271.9</ele>
        <time>2022-02-25T12:12:39Z</time>
      </trkpt>
      <trkpt lat="44.79794" lon="6.98787">
        <ele>2271.9</ele>
        <time>2022-02-25T12:12:40Z</time>
      </trkpt>
      <trkpt lat="44.79794" lon="6.9879">
        <ele>2272.3</ele>
        <time>2022-02-25T12:12:41Z</time>
      </trkpt>
      <trkpt lat="44.79794" lon="6.9879">
        <ele>2272.3</ele>
        <time>2022-02-25T12:12:42Z</time>
      </trkpt>
      <trkpt lat="44.79794" lon="6.9879">
        <ele>2272.3</ele>
        <time>2022-02-25T12:12:43Z</time>
      </trkpt>
      <trkpt lat="44.79794" lon="6.9879">
        <ele>2272.3</ele>
        <time>2022-02-25T12:12:44Z</time>
      </trkpt>
      <trkpt lat="44.79794" lon="6.98792">
        <ele>2272.6</ele>
        <time>2022-02-25T12:12:45Z</time>
      </trkpt>
      <trkpt lat="44.79794" lon="6.98792">
        <ele>2272.6</ele>
        <time>2022-02-25T12:12:46Z</time>
      </trkpt>
      <trkpt lat="44.79794" lon="6.98792">
        <ele>2272.6</ele>
        <time>2022-02-25T12:12:47Z</time>
      </trkpt>
      <trkpt lat="44.79794" lon="6.98792">
        <ele>2272.6</ele>
        <time>2022-02-25T12:12:48Z</time>
      </trkpt>
      <trkpt lat="44.79794" lon="6.98795">
        <ele>2273</ele>
        <time>2022-02-25T12:12:49Z</time>
      </trkpt>
      <trkpt lat="44.79794" lon="6.98795">
        <ele>2273</ele>
        <time>2022-02-25T12:12:50Z</time>
      </trkpt>
      <trkpt lat="44.79794" lon="6.98795">
        <ele>2273</ele>
        <time>2022-02-25T12:12:51Z</time>
      </trkpt>
      <trkpt lat="44.79794" lon="6.98795">
        <ele>2273</ele>
        <time>2022-02-25T12:12:52Z</time>
      </trkpt>
      <trkpt lat="44.79794" lon="6.98795">
        <ele>2273</ele>
        <time>2022-02-25T12:12:53Z</time>
      </trkpt>
      <trkpt lat="44.79794" lon="6.98795">
        <ele>2273</ele>
        <time>2022-02-25T12:12:54Z</time>
      </trkpt>
      <trkpt lat="44.79794" lon="6.98795">
        <ele>2273</ele>
        <time>2022-02-25T12:12:55Z</time>
      </trkpt>
      <trkpt lat="44.79794" lon="6.98795">
        <ele>2273</ele>
        <time>2022-02-25T12:12:56Z</time>
      </trkpt>
      <trkpt lat="44.79794" lon="6.98795">
        <ele>2273</ele>
        <time>2022-02-25T12:12:57Z</time>
      </trkpt>
      <trkpt lat="44.79794" lon="6.98795">
        <ele>2273</ele>
        <time>2022-02-25T12:12:58Z</time>
      </trkpt>
      <trkpt lat="44.79794" lon="6.98795">
        <ele>2273</ele>
        <time>2022-02-25T12:12:59Z</time>
      </trkpt>
      <trkpt lat="44.79794" lon="6.98795">
        <ele>2273</ele>
        <time>2022-02-25T12:13:00Z</time>
      </trkpt>
      <trkpt lat="44.79794" lon="6.98795">
        <ele>2273</ele>
        <time>2022-02-25T12:13:01Z</time>
      </trkpt>
      <trkpt lat="44.79794" lon="6.98795">
        <ele>2273</ele>
        <time>2022-02-25T12:13:02Z</time>
      </trkpt>
      <trkpt lat="44.79794" lon="6.98795">
        <ele>2273</ele>
        <time>2022-02-25T12:13:03Z</time>
      </trkpt>
      <trkpt lat="44.79794" lon="6.98795">
        <ele>2273</ele>
        <time>2022-02-25T12:13:04Z</time>
      </trkpt>
      <trkpt lat="44.79794" lon="6.98795">
        <ele>2273</ele>
        <time>2022-02-25T12:13:05Z</time>
      </trkpt>
      <trkpt lat="44.79794" lon="6.98795">
        <ele>2273</ele>
        <time>2022-02-25T12:13:06Z</time>
      </trkpt>
      <trkpt lat="44.79794" lon="6.98795">
        <ele>2273</ele>
        <time>2022-02-25T12:13:07Z</time>
      </trkpt>
      <trkpt lat="44.79794" lon="6.98795">
        <ele>2273</ele>
        <time>2022-02-25T12:13:08Z</time>
      </trkpt>
      <trkpt lat="44.79794" lon="6.98795">
        <ele>2273</ele>
        <time>2022-02-25T12:13:09Z</time>
      </trkpt>
      <trkpt lat="44.79794" lon="6.98795">
        <ele>2273</ele>
        <time>2022-02-25T12:13:10Z</time>
      </trkpt>
      <trkpt lat="44.79794" lon="6.98795">
        <ele>2273</ele>
        <time>2022-02-25T12:13:11Z</time>
      </trkpt>
      <trkpt lat="44.79794" lon="6.98795">
        <ele>2273</ele>
        <time>2022-02-25T12:13:12Z</time>
      </trkpt>
      <trkpt lat="44.79794" lon="6.98795">
        <ele>2273</ele>
        <time>2022-02-25T12:13:13Z</time>
      </trkpt>
      <trkpt lat="44.79794" lon="6.98795">
        <ele>2273</ele>
        <time>2022-02-25T12:13:14Z</time>
      </trkpt>
      <trkpt lat="44.79794" lon="6.98795">
        <ele>2273</ele>
        <time>2022-02-25T12:13:15Z</time>
      </trkpt>
      <trkpt lat="44.79794" lon="6.98795">
        <ele>2273</ele>
        <time>2022-02-25T12:13:16Z</time>
      </trkpt>
      <trkpt lat="44.79794" lon="6.98795">
        <ele>2273</ele>
        <time>2022-02-25T12:13:17Z</time>
      </trkpt>
      <trkpt lat="44.79794" lon="6.98795">
        <ele>2273</ele>
        <time>2022-02-25T12:13:18Z</time>
      </trkpt>
      <trkpt lat="44.79794" lon="6.98795">
        <ele>2273</ele>
        <time>2022-02-25T12:13:19Z</time>
      </trkpt>
      <trkpt lat="44.79794" lon="6.98795">
        <ele>2273</ele>
        <time>2022-02-25T12:13:20Z</time>
      </trkpt>
      <trkpt lat="44.79794" lon="6.988">
        <ele>2273.6</ele>
        <time>2022-02-25T12:13:21Z</time>
      </trkpt>
      <trkpt lat="44.79794" lon="6.988">
        <ele>2273.6</ele>
        <time>2022-02-25T12:13:22Z</time>
      </trkpt>
      <trkpt lat="44.79794" lon="6.98803">
        <ele>2274</ele>
        <time>2022-02-25T12:13:23Z</time>
      </trkpt>
      <trkpt lat="44.79794" lon="6.98803">
        <ele>2274</ele>
        <time>2022-02-25T12:13:24Z</time>
      </trkpt>
      <trkpt lat="44.79794" lon="6.98807">
        <ele>2274.5</ele>
        <time>2022-02-25T12:13:25Z</time>
      </trkpt>
      <trkpt lat="44.79794" lon="6.98807">
        <ele>2274.5</ele>
        <time>2022-02-25T12:13:26Z</time>
      </trkpt>
      <trkpt lat="44.79793" lon="6.9881">
        <ele>2274.8</ele>
        <time>2022-02-25T12:13:27Z</time>
      </trkpt>
      <trkpt lat="44.79793" lon="6.9881">
        <ele>2274.8</ele>
        <time>2022-02-25T12:13:28Z</time>
      </trkpt>
      <trkpt lat="44.79793" lon="6.98814">
        <ele>2275.3</ele>
        <time>2022-02-25T12:13:29Z</time>
      </trkpt>
      <trkpt lat="44.79793" lon="6.98814">
        <ele>2275.3</ele>
        <time>2022-02-25T12:13:30Z</time>
      </trkpt>
      <trkpt lat="44.79793" lon="6.98814">
        <ele>2275.3</ele>
        <time>2022-02-25T12:13:31Z</time>
      </trkpt>
      <trkpt lat="44.79793" lon="6.98814">
        <ele>2275.3</ele>
        <time>2022-02-25T12:13:32Z</time>
      </trkpt>
      <trkpt lat="44.79793" lon="6.98817">
        <ele>2275.7</ele>
        <time>2022-02-25T12:13:33Z</time>
      </trkpt>
      <trkpt lat="44.79793" lon="6.98817">
        <ele>2275.7</ele>
        <time>2022-02-25T12:13:34Z</time>
      </trkpt>
      <trkpt lat="44.79793" lon="6.98817">
        <ele>2275.7</ele>
        <time>2022-02-25T12:13:35Z</time>
      </trkpt>
      <trkpt lat="44.79793" lon="6.98817">
        <ele>2275.7</ele>
        <time>2022-02-25T12:13:36Z</time>
      </trkpt>
      <trkpt lat="44.79793" lon="6.9882">
        <ele>2276.1</ele>
        <time>2022-02-25T12:13:37Z</time>
      </trkpt>
      <trkpt lat="44.79793" lon="6.9882">
        <ele>2276.1</ele>
        <time>2022-02-25T12:13:38Z</time>
      </trkpt>
      <trkpt lat="44.79793" lon="6.9882">
        <ele>2276.1</ele>
        <time>2022-02-25T12:13:39Z</time>
      </trkpt>
      <trkpt lat="44.79792" lon="6.98822">
        <ele>2276.1</ele>
        <time>2022-02-25T12:13:40Z</time>
      </trkpt>
      <trkpt lat="44.79792" lon="6.98822">
        <ele>2276.1</ele>
        <time>2022-02-25T12:13:41Z</time>
      </trkpt>
      <trkpt lat="44.79792" lon="6.98822">
        <ele>2276.1</ele>
        <time>2022-02-25T12:13:42Z</time>
      </trkpt>
      <trkpt lat="44.79792" lon="6.98822">
        <ele>2276.1</ele>
        <time>2022-02-25T12:13:43Z</time>
      </trkpt>
      <trkpt lat="44.79792" lon="6.98825">
        <ele>2276.5</ele>
        <time>2022-02-25T12:13:44Z</time>
      </trkpt>
      <trkpt lat="44.79792" lon="6.98825">
        <ele>2276.5</ele>
        <time>2022-02-25T12:13:45Z</time>
      </trkpt>
      <trkpt lat="44.79792" lon="6.98825">
        <ele>2276.5</ele>
        <time>2022-02-25T12:13:46Z</time>
      </trkpt>
      <trkpt lat="44.79792" lon="6.98825">
        <ele>2276.5</ele>
        <time>2022-02-25T12:13:47Z</time>
      </trkpt>
      <trkpt lat="44.79792" lon="6.98828">
        <ele>2276.9</ele>
        <time>2022-02-25T12:13:48Z</time>
      </trkpt>
      <trkpt lat="44.79792" lon="6.98828">
        <ele>2276.9</ele>
        <time>2022-02-25T12:13:49Z</time>
      </trkpt>
      <trkpt lat="44.79792" lon="6.98828">
        <ele>2276.9</ele>
        <time>2022-02-25T12:13:50Z</time>
      </trkpt>
      <trkpt lat="44.79792" lon="6.98828">
        <ele>2276.9</ele>
        <time>2022-02-25T12:13:51Z</time>
      </trkpt>
      <trkpt lat="44.79793" lon="6.9883">
        <ele>2277.4</ele>
        <time>2022-02-25T12:13:52Z</time>
      </trkpt>
      <trkpt lat="44.79793" lon="6.9883">
        <ele>2277.4</ele>
        <time>2022-02-25T12:13:53Z</time>
      </trkpt>
      <trkpt lat="44.79793" lon="6.9883">
        <ele>2277.4</ele>
        <time>2022-02-25T12:13:54Z</time>
      </trkpt>
      <trkpt lat="44.79793" lon="6.9883">
        <ele>2277.4</ele>
        <time>2022-02-25T12:13:55Z</time>
      </trkpt>
      <trkpt lat="44.79793" lon="6.9883">
        <ele>2277.4</ele>
        <time>2022-02-25T12:13:56Z</time>
      </trkpt>
      <trkpt lat="44.79793" lon="6.98833">
        <ele>2277.8</ele>
        <time>2022-02-25T12:13:57Z</time>
      </trkpt>
      <trkpt lat="44.79793" lon="6.98833">
        <ele>2277.8</ele>
        <time>2022-02-25T12:13:58Z</time>
      </trkpt>
      <trkpt lat="44.79793" lon="6.98833">
        <ele>2277.8</ele>
        <time>2022-02-25T12:13:59Z</time>
      </trkpt>
      <trkpt lat="44.79793" lon="6.98833">
        <ele>2277.8</ele>
        <time>2022-02-25T12:14:00Z</time>
      </trkpt>
      <trkpt lat="44.79793" lon="6.98836">
        <ele>2278.2</ele>
        <time>2022-02-25T12:14:01Z</time>
      </trkpt>
      <trkpt lat="44.79793" lon="6.98836">
        <ele>2278.2</ele>
        <time>2022-02-25T12:14:02Z</time>
      </trkpt>
      <trkpt lat="44.79793" lon="6.98836">
        <ele>2278.2</ele>
        <time>2022-02-25T12:14:03Z</time>
      </trkpt>
      <trkpt lat="44.79793" lon="6.98836">
        <ele>2278.2</ele>
        <time>2022-02-25T12:14:04Z</time>
      </trkpt>
      <trkpt lat="44.79793" lon="6.98838">
        <ele>2278.4</ele>
        <time>2022-02-25T12:14:05Z</time>
      </trkpt>
      <trkpt lat="44.79793" lon="6.98838">
        <ele>2278.4</ele>
        <time>2022-02-25T12:14:06Z</time>
      </trkpt>
      <trkpt lat="44.79793" lon="6.98838">
        <ele>2278.4</ele>
        <time>2022-02-25T12:14:07Z</time>
      </trkpt>
      <trkpt lat="44.79793" lon="6.98838">
        <ele>2278.4</ele>
        <time>2022-02-25T12:14:08Z</time>
      </trkpt>
      <trkpt lat="44.79793" lon="6.98841">
        <ele>2278.8</ele>
        <time>2022-02-25T12:14:09Z</time>
      </trkpt>
      <trkpt lat="44.79793" lon="6.98841">
        <ele>2278.8</ele>
        <time>2022-02-25T12:14:10Z</time>
      </trkpt>
      <trkpt lat="44.79793" lon="6.98841">
        <ele>2278.8</ele>
        <time>2022-02-25T12:14:11Z</time>
      </trkpt>
      <trkpt lat="44.79793" lon="6.98841">
        <ele>2278.8</ele>
        <time>2022-02-25T12:14:12Z</time>
      </trkpt>
      <trkpt lat="44.79794" lon="6.98844">
        <ele>2279.5</ele>
        <time>2022-02-25T12:14:13Z</time>
      </trkpt>
      <trkpt lat="44.79794" lon="6.98844">
        <ele>2279.5</ele>
        <time>2022-02-25T12:14:14Z</time>
      </trkpt>
      <trkpt lat="44.79794" lon="6.98844">
        <ele>2279.5</ele>
        <time>2022-02-25T12:14:15Z</time>
      </trkpt>
      <trkpt lat="44.79794" lon="6.98844">
        <ele>2279.5</ele>
        <time>2022-02-25T12:14:16Z</time>
      </trkpt>
      <trkpt lat="44.79794" lon="6.98846">
        <ele>2279.7</ele>
        <time>2022-02-25T12:14:17Z</time>
      </trkpt>
      <trkpt lat="44.79794" lon="6.98846">
        <ele>2279.7</ele>
        <time>2022-02-25T12:14:18Z</time>
      </trkpt>
      <trkpt lat="44.79794" lon="6.98846">
        <ele>2279.7</ele>
        <time>2022-02-25T12:14:19Z</time>
      </trkpt>
      <trkpt lat="44.79794" lon="6.98846">
        <ele>2279.7</ele>
        <time>2022-02-25T12:14:20Z</time>
      </trkpt>
      <trkpt lat="44.79794" lon="6.98849">
        <ele>2280.1</ele>
        <time>2022-02-25T12:14:21Z</time>
      </trkpt>
      <trkpt lat="44.79794" lon="6.98849">
        <ele>2280.1</ele>
        <time>2022-02-25T12:14:22Z</time>
      </trkpt>
      <trkpt lat="44.79794" lon="6.98849">
        <ele>2280.1</ele>
        <time>2022-02-25T12:14:23Z</time>
      </trkpt>
      <trkpt lat="44.79794" lon="6.98849">
        <ele>2280.1</ele>
        <time>2022-02-25T12:14:24Z</time>
      </trkpt>
      <trkpt lat="44.79794" lon="6.98852">
        <ele>2280.5</ele>
        <time>2022-02-25T12:14:25Z</time>
      </trkpt>
      <trkpt lat="44.79794" lon="6.98852">
        <ele>2280.5</ele>
        <time>2022-02-25T12:14:26Z</time>
      </trkpt>
      <trkpt lat="44.79794" lon="6.98852">
        <ele>2280.5</ele>
        <time>2022-02-25T12:14:27Z</time>
      </trkpt>
      <trkpt lat="44.79794" lon="6.98855">
        <ele>2280.9</ele>
        <time>2022-02-25T12:14:28Z</time>
      </trkpt>
      <trkpt lat="44.79794" lon="6.98855">
        <ele>2280.9</ele>
        <time>2022-02-25T12:14:29Z</time>
      </trkpt>
      <trkpt lat="44.79794" lon="6.98855">
        <ele>2280.9</ele>
        <time>2022-02-25T12:14:30Z</time>
      </trkpt>
      <trkpt lat="44.79794" lon="6.98855">
        <ele>2280.9</ele>
        <time>2022-02-25T12:14:31Z</time>
      </trkpt>
      <trkpt lat="44.79794" lon="6.98858">
        <ele>2281.3</ele>
        <time>2022-02-25T12:14:32Z</time>
      </trkpt>
      <trkpt lat="44.79794" lon="6.98858">
        <ele>2281.3</ele>
        <time>2022-02-25T12:14:33Z</time>
      </trkpt>
      <trkpt lat="44.79794" lon="6.98858">
        <ele>2281.3</ele>
        <time>2022-02-25T12:14:34Z</time>
      </trkpt>
      <trkpt lat="44.79794" lon="6.98858">
        <ele>2281.3</ele>
        <time>2022-02-25T12:14:35Z</time>
      </trkpt>
      <trkpt lat="44.79794" lon="6.98861">
        <ele>2281.7</ele>
        <time>2022-02-25T12:14:36Z</time>
      </trkpt>
      <trkpt lat="44.79794" lon="6.98861">
        <ele>2281.7</ele>
        <time>2022-02-25T12:14:37Z</time>
      </trkpt>
      <trkpt lat="44.79794" lon="6.98861">
        <ele>2281.7</ele>
        <time>2022-02-25T12:14:38Z</time>
      </trkpt>
      <trkpt lat="44.79794" lon="6.98861">
        <ele>2281.7</ele>
        <time>2022-02-25T12:14:39Z</time>
      </trkpt>
      <trkpt lat="44.79794" lon="6.98863">
        <ele>2281.9</ele>
        <time>2022-02-25T12:14:40Z</time>
      </trkpt>
      <trkpt lat="44.79794" lon="6.98863">
        <ele>2281.9</ele>
        <time>2022-02-25T12:14:41Z</time>
      </trkpt>
      <trkpt lat="44.79794" lon="6.98863">
        <ele>2281.9</ele>
        <time>2022-02-25T12:14:42Z</time>
      </trkpt>
      <trkpt lat="44.79794" lon="6.98863">
        <ele>2281.9</ele>
        <time>2022-02-25T12:14:43Z</time>
      </trkpt>
      <trkpt lat="44.79795" lon="6.98866">
        <ele>2282.6</ele>
        <time>2022-02-25T12:14:44Z</time>
      </trkpt>
      <trkpt lat="44.79795" lon="6.98866">
        <ele>2282.6</ele>
        <time>2022-02-25T12:14:45Z</time>
      </trkpt>
      <trkpt lat="44.79795" lon="6.98866">
        <ele>2282.6</ele>
        <time>2022-02-25T12:14:46Z</time>
      </trkpt>
      <trkpt lat="44.79795" lon="6.98866">
        <ele>2282.6</ele>
        <time>2022-02-25T12:14:47Z</time>
      </trkpt>
      <trkpt lat="44.79796" lon="6.98869">
        <ele>2283.2</ele>
        <time>2022-02-25T12:14:48Z</time>
      </trkpt>
      <trkpt lat="44.79796" lon="6.98869">
        <ele>2283.2</ele>
        <time>2022-02-25T12:14:49Z</time>
      </trkpt>
      <trkpt lat="44.79796" lon="6.98869">
        <ele>2283.2</ele>
        <time>2022-02-25T12:14:50Z</time>
      </trkpt>
      <trkpt lat="44.79796" lon="6.98869">
        <ele>2283.2</ele>
        <time>2022-02-25T12:14:51Z</time>
      </trkpt>
      <trkpt lat="44.79797" lon="6.98872">
        <ele>2283.8</ele>
        <time>2022-02-25T12:14:52Z</time>
      </trkpt>
      <trkpt lat="44.79797" lon="6.98872">
        <ele>2283.8</ele>
        <time>2022-02-25T12:14:53Z</time>
      </trkpt>
      <trkpt lat="44.79797" lon="6.98872">
        <ele>2283.8</ele>
        <time>2022-02-25T12:14:54Z</time>
      </trkpt>
      <trkpt lat="44.79797" lon="6.98875">
        <ele>2284.2</ele>
        <time>2022-02-25T12:14:55Z</time>
      </trkpt>
      <trkpt lat="44.79797" lon="6.98875">
        <ele>2284.2</ele>
        <time>2022-02-25T12:14:56Z</time>
      </trkpt>
      <trkpt lat="44.79797" lon="6.98875">
        <ele>2284.2</ele>
        <time>2022-02-25T12:14:57Z</time>
      </trkpt>
      <trkpt lat="44.79797" lon="6.98875">
        <ele>2284.2</ele>
        <time>2022-02-25T12:14:58Z</time>
      </trkpt>
      <trkpt lat="44.79797" lon="6.98878">
        <ele>2284.5</ele>
        <time>2022-02-25T12:14:59Z</time>
      </trkpt>
      <trkpt lat="44.79797" lon="6.98878">
        <ele>2284.5</ele>
        <time>2022-02-25T12:15:00Z</time>
      </trkpt>
      <trkpt lat="44.79797" lon="6.98878">
        <ele>2284.5</ele>
        <time>2022-02-25T12:15:01Z</time>
      </trkpt>
      <trkpt lat="44.79797" lon="6.98878">
        <ele>2284.5</ele>
        <time>2022-02-25T12:15:02Z</time>
      </trkpt>
      <trkpt lat="44.79797" lon="6.98881">
        <ele>2284.9</ele>
        <time>2022-02-25T12:15:03Z</time>
      </trkpt>
      <trkpt lat="44.79797" lon="6.98881">
        <ele>2284.9</ele>
        <time>2022-02-25T12:15:04Z</time>
      </trkpt>
      <trkpt lat="44.79797" lon="6.98881">
        <ele>2284.9</ele>
        <time>2022-02-25T12:15:05Z</time>
      </trkpt>
      <trkpt lat="44.79797" lon="6.98881">
        <ele>2284.9</ele>
        <time>2022-02-25T12:15:06Z</time>
      </trkpt>
      <trkpt lat="44.79797" lon="6.98883">
        <ele>2285.1</ele>
        <time>2022-02-25T12:15:07Z</time>
      </trkpt>
      <trkpt lat="44.79797" lon="6.98883">
        <ele>2285.1</ele>
        <time>2022-02-25T12:15:08Z</time>
      </trkpt>
      <trkpt lat="44.79797" lon="6.98883">
        <ele>2285.1</ele>
        <time>2022-02-25T12:15:09Z</time>
      </trkpt>
      <trkpt lat="44.79797" lon="6.98883">
        <ele>2285.1</ele>
        <time>2022-02-25T12:15:10Z</time>
      </trkpt>
      <trkpt lat="44.79797" lon="6.98887">
        <ele>2285.6</ele>
        <time>2022-02-25T12:15:11Z</time>
      </trkpt>
      <trkpt lat="44.79797" lon="6.98887">
        <ele>2285.6</ele>
        <time>2022-02-25T12:15:12Z</time>
      </trkpt>
      <trkpt lat="44.79797" lon="6.98887">
        <ele>2285.6</ele>
        <time>2022-02-25T12:15:13Z</time>
      </trkpt>
      <trkpt lat="44.79797" lon="6.98887">
        <ele>2285.6</ele>
        <time>2022-02-25T12:15:14Z</time>
      </trkpt>
      <trkpt lat="44.79797" lon="6.9889">
        <ele>2286</ele>
        <time>2022-02-25T12:15:15Z</time>
      </trkpt>
      <trkpt lat="44.79797" lon="6.9889">
        <ele>2286</ele>
        <time>2022-02-25T12:15:16Z</time>
      </trkpt>
      <trkpt lat="44.79797" lon="6.9889">
        <ele>2286</ele>
        <time>2022-02-25T12:15:17Z</time>
      </trkpt>
      <trkpt lat="44.79797" lon="6.9889">
        <ele>2286</ele>
        <time>2022-02-25T12:15:18Z</time>
      </trkpt>
      <trkpt lat="44.79797" lon="6.98892">
        <ele>2286.3</ele>
        <time>2022-02-25T12:15:19Z</time>
      </trkpt>
      <trkpt lat="44.79797" lon="6.98892">
        <ele>2286.3</ele>
        <time>2022-02-25T12:15:20Z</time>
      </trkpt>
      <trkpt lat="44.79797" lon="6.98892">
        <ele>2286.3</ele>
        <time>2022-02-25T12:15:21Z</time>
      </trkpt>
      <trkpt lat="44.79797" lon="6.98892">
        <ele>2286.3</ele>
        <time>2022-02-25T12:15:22Z</time>
      </trkpt>
      <trkpt lat="44.79798" lon="6.98895">
        <ele>2287</ele>
        <time>2022-02-25T12:15:23Z</time>
      </trkpt>
      <trkpt lat="44.79798" lon="6.98895">
        <ele>2287</ele>
        <time>2022-02-25T12:15:24Z</time>
      </trkpt>
      <trkpt lat="44.79798" lon="6.98895">
        <ele>2287</ele>
        <time>2022-02-25T12:15:25Z</time>
      </trkpt>
      <trkpt lat="44.79798" lon="6.98895">
        <ele>2287</ele>
        <time>2022-02-25T12:15:26Z</time>
      </trkpt>
      <trkpt lat="44.79798" lon="6.98898">
        <ele>2287.4</ele>
        <time>2022-02-25T12:15:27Z</time>
      </trkpt>
      <trkpt lat="44.79798" lon="6.98898">
        <ele>2287.4</ele>
        <time>2022-02-25T12:15:28Z</time>
      </trkpt>
      <trkpt lat="44.79798" lon="6.98898">
        <ele>2287.4</ele>
        <time>2022-02-25T12:15:29Z</time>
      </trkpt>
      <trkpt lat="44.79798" lon="6.98898">
        <ele>2287.4</ele>
        <time>2022-02-25T12:15:30Z</time>
      </trkpt>
      <trkpt lat="44.79798" lon="6.98901">
        <ele>2287.8</ele>
        <time>2022-02-25T12:15:31Z</time>
      </trkpt>
      <trkpt lat="44.79798" lon="6.98901">
        <ele>2287.8</ele>
        <time>2022-02-25T12:15:32Z</time>
      </trkpt>
      <trkpt lat="44.79798" lon="6.98901">
        <ele>2287.8</ele>
        <time>2022-02-25T12:15:33Z</time>
      </trkpt>
      <trkpt lat="44.79798" lon="6.98903">
        <ele>2288.1</ele>
        <time>2022-02-25T12:15:34Z</time>
      </trkpt>
      <trkpt lat="44.79798" lon="6.98903">
        <ele>2288.1</ele>
        <time>2022-02-25T12:15:35Z</time>
      </trkpt>
      <trkpt lat="44.79798" lon="6.98903">
        <ele>2288.1</ele>
        <time>2022-02-25T12:15:36Z</time>
      </trkpt>
      <trkpt lat="44.79799" lon="6.98906">
        <ele>2288.8</ele>
        <time>2022-02-25T12:15:37Z</time>
      </trkpt>
      <trkpt lat="44.79799" lon="6.98906">
        <ele>2288.8</ele>
        <time>2022-02-25T12:15:38Z</time>
      </trkpt>
      <trkpt lat="44.79799" lon="6.98906">
        <ele>2288.8</ele>
        <time>2022-02-25T12:15:39Z</time>
      </trkpt>
      <trkpt lat="44.79799" lon="6.98906">
        <ele>2288.8</ele>
        <time>2022-02-25T12:15:40Z</time>
      </trkpt>
      <trkpt lat="44.79799" lon="6.98909">
        <ele>2289.2</ele>
        <time>2022-02-25T12:15:41Z</time>
      </trkpt>
      <trkpt lat="44.79799" lon="6.98909">
        <ele>2289.2</ele>
        <time>2022-02-25T12:15:42Z</time>
      </trkpt>
      <trkpt lat="44.79799" lon="6.98909">
        <ele>2289.2</ele>
        <time>2022-02-25T12:15:43Z</time>
      </trkpt>
      <trkpt lat="44.79798" lon="6.98912">
        <ele>2289.4</ele>
        <time>2022-02-25T12:15:44Z</time>
      </trkpt>
      <trkpt lat="44.79798" lon="6.98912">
        <ele>2289.4</ele>
        <time>2022-02-25T12:15:45Z</time>
      </trkpt>
      <trkpt lat="44.79798" lon="6.98912">
        <ele>2289.4</ele>
        <time>2022-02-25T12:15:46Z</time>
      </trkpt>
      <trkpt lat="44.79798" lon="6.98912">
        <ele>2289.4</ele>
        <time>2022-02-25T12:15:47Z</time>
      </trkpt>
      <trkpt lat="44.79799" lon="6.98915">
        <ele>2290.1</ele>
        <time>2022-02-25T12:15:48Z</time>
      </trkpt>
      <trkpt lat="44.79799" lon="6.98915">
        <ele>2290.1</ele>
        <time>2022-02-25T12:15:49Z</time>
      </trkpt>
      <trkpt lat="44.79799" lon="6.98915">
        <ele>2290.1</ele>
        <time>2022-02-25T12:15:50Z</time>
      </trkpt>
      <trkpt lat="44.79799" lon="6.98915">
        <ele>2290.1</ele>
        <time>2022-02-25T12:15:51Z</time>
      </trkpt>
      <trkpt lat="44.79799" lon="6.98917">
        <ele>2290.4</ele>
        <time>2022-02-25T12:15:52Z</time>
      </trkpt>
      <trkpt lat="44.79799" lon="6.98917">
        <ele>2290.4</ele>
        <time>2022-02-25T12:15:53Z</time>
      </trkpt>
      <trkpt lat="44.79799" lon="6.98917">
        <ele>2290.4</ele>
        <time>2022-02-25T12:15:54Z</time>
      </trkpt>
      <trkpt lat="44.79799" lon="6.98917">
        <ele>2290.4</ele>
        <time>2022-02-25T12:15:55Z</time>
      </trkpt>
      <trkpt lat="44.79799" lon="6.9892">
        <ele>2290.9</ele>
        <time>2022-02-25T12:15:56Z</time>
      </trkpt>
      <trkpt lat="44.79799" lon="6.9892">
        <ele>2290.9</ele>
        <time>2022-02-25T12:15:57Z</time>
      </trkpt>
      <trkpt lat="44.79799" lon="6.9892">
        <ele>2290.9</ele>
        <time>2022-02-25T12:15:58Z</time>
      </trkpt>
      <trkpt lat="44.79799" lon="6.9892">
        <ele>2290.9</ele>
        <time>2022-02-25T12:15:59Z</time>
      </trkpt>
      <trkpt lat="44.798" lon="6.98923">
        <ele>2291.7</ele>
        <time>2022-02-25T12:16:00Z</time>
      </trkpt>
      <trkpt lat="44.798" lon="6.98923">
        <ele>2291.7</ele>
        <time>2022-02-25T12:16:01Z</time>
      </trkpt>
      <trkpt lat="44.798" lon="6.98923">
        <ele>2291.7</ele>
        <time>2022-02-25T12:16:02Z</time>
      </trkpt>
      <trkpt lat="44.798" lon="6.98923">
        <ele>2291.7</ele>
        <time>2022-02-25T12:16:03Z</time>
      </trkpt>
      <trkpt lat="44.79799" lon="6.98926">
        <ele>2292</ele>
        <time>2022-02-25T12:16:04Z</time>
      </trkpt>
      <trkpt lat="44.79799" lon="6.98926">
        <ele>2292</ele>
        <time>2022-02-25T12:16:05Z</time>
      </trkpt>
      <trkpt lat="44.79799" lon="6.98926">
        <ele>2292</ele>
        <time>2022-02-25T12:16:06Z</time>
      </trkpt>
      <trkpt lat="44.79799" lon="6.98926">
        <ele>2292</ele>
        <time>2022-02-25T12:16:07Z</time>
      </trkpt>
      <trkpt lat="44.79799" lon="6.9893">
        <ele>2292.7</ele>
        <time>2022-02-25T12:16:08Z</time>
      </trkpt>
      <trkpt lat="44.79799" lon="6.9893">
        <ele>2292.7</ele>
        <time>2022-02-25T12:16:09Z</time>
      </trkpt>
      <trkpt lat="44.79799" lon="6.9893">
        <ele>2292.7</ele>
        <time>2022-02-25T12:16:10Z</time>
      </trkpt>
      <trkpt lat="44.79799" lon="6.9893">
        <ele>2292.7</ele>
        <time>2022-02-25T12:16:11Z</time>
      </trkpt>
      <trkpt lat="44.79799" lon="6.98933">
        <ele>2293.3</ele>
        <time>2022-02-25T12:16:12Z</time>
      </trkpt>
      <trkpt lat="44.79799" lon="6.98933">
        <ele>2293.3</ele>
        <time>2022-02-25T12:16:13Z</time>
      </trkpt>
      <trkpt lat="44.79799" lon="6.98933">
        <ele>2293.3</ele>
        <time>2022-02-25T12:16:14Z</time>
      </trkpt>
      <trkpt lat="44.79799" lon="6.98933">
        <ele>2293.3</ele>
        <time>2022-02-25T12:16:15Z</time>
      </trkpt>
      <trkpt lat="44.79799" lon="6.98936">
        <ele>2293.8</ele>
        <time>2022-02-25T12:16:16Z</time>
      </trkpt>
      <trkpt lat="44.79799" lon="6.98936">
        <ele>2293.8</ele>
        <time>2022-02-25T12:16:17Z</time>
      </trkpt>
      <trkpt lat="44.79799" lon="6.98936">
        <ele>2293.8</ele>
        <time>2022-02-25T12:16:18Z</time>
      </trkpt>
      <trkpt lat="44.79799" lon="6.98936">
        <ele>2293.8</ele>
        <time>2022-02-25T12:16:19Z</time>
      </trkpt>
      <trkpt lat="44.798" lon="6.98939">
        <ele>2294.6</ele>
        <time>2022-02-25T12:16:20Z</time>
      </trkpt>
      <trkpt lat="44.798" lon="6.98939">
        <ele>2294.6</ele>
        <time>2022-02-25T12:16:21Z</time>
      </trkpt>
      <trkpt lat="44.798" lon="6.98939">
        <ele>2294.6</ele>
        <time>2022-02-25T12:16:22Z</time>
      </trkpt>
      <trkpt lat="44.798" lon="6.98939">
        <ele>2294.6</ele>
        <time>2022-02-25T12:16:23Z</time>
      </trkpt>
      <trkpt lat="44.798" lon="6.98942">
        <ele>2295.2</ele>
        <time>2022-02-25T12:16:24Z</time>
      </trkpt>
      <trkpt lat="44.798" lon="6.98942">
        <ele>2295.2</ele>
        <time>2022-02-25T12:16:25Z</time>
      </trkpt>
      <trkpt lat="44.798" lon="6.98942">
        <ele>2295.2</ele>
        <time>2022-02-25T12:16:26Z</time>
      </trkpt>
      <trkpt lat="44.79799" lon="6.98945">
        <ele>2295.4</ele>
        <time>2022-02-25T12:16:27Z</time>
      </trkpt>
      <trkpt lat="44.79799" lon="6.98945">
        <ele>2295.4</ele>
        <time>2022-02-25T12:16:28Z</time>
      </trkpt>
      <trkpt lat="44.79799" lon="6.98945">
        <ele>2295.4</ele>
        <time>2022-02-25T12:16:29Z</time>
      </trkpt>
      <trkpt lat="44.79799" lon="6.98945">
        <ele>2295.4</ele>
        <time>2022-02-25T12:16:30Z</time>
      </trkpt>
      <trkpt lat="44.79799" lon="6.98948">
        <ele>2295.9</ele>
        <time>2022-02-25T12:16:31Z</time>
      </trkpt>
      <trkpt lat="44.79799" lon="6.98948">
        <ele>2295.9</ele>
        <time>2022-02-25T12:16:32Z</time>
      </trkpt>
      <trkpt lat="44.79799" lon="6.98948">
        <ele>2295.9</ele>
        <time>2022-02-25T12:16:33Z</time>
      </trkpt>
      <trkpt lat="44.79799" lon="6.98948">
        <ele>2295.9</ele>
        <time>2022-02-25T12:16:34Z</time>
      </trkpt>
      <trkpt lat="44.79799" lon="6.98948">
        <ele>2295.9</ele>
        <time>2022-02-25T12:16:35Z</time>
      </trkpt>
      <trkpt lat="44.798" lon="6.98951">
        <ele>2296.6</ele>
        <time>2022-02-25T12:16:36Z</time>
      </trkpt>
      <trkpt lat="44.798" lon="6.98951">
        <ele>2296.6</ele>
        <time>2022-02-25T12:16:37Z</time>
      </trkpt>
      <trkpt lat="44.798" lon="6.98951">
        <ele>2296.6</ele>
        <time>2022-02-25T12:16:38Z</time>
      </trkpt>
      <trkpt lat="44.798" lon="6.98951">
        <ele>2296.6</ele>
        <time>2022-02-25T12:16:39Z</time>
      </trkpt>
      <trkpt lat="44.79801" lon="6.98954">
        <ele>2297.3</ele>
        <time>2022-02-25T12:16:40Z</time>
      </trkpt>
      <trkpt lat="44.79801" lon="6.98954">
        <ele>2297.3</ele>
        <time>2022-02-25T12:16:41Z</time>
      </trkpt>
      <trkpt lat="44.79801" lon="6.98954">
        <ele>2297.3</ele>
        <time>2022-02-25T12:16:42Z</time>
      </trkpt>
      <trkpt lat="44.79801" lon="6.98956">
        <ele>2297.6</ele>
        <time>2022-02-25T12:16:43Z</time>
      </trkpt>
      <trkpt lat="44.79801" lon="6.98956">
        <ele>2297.6</ele>
        <time>2022-02-25T12:16:44Z</time>
      </trkpt>
      <trkpt lat="44.79801" lon="6.98956">
        <ele>2297.6</ele>
        <time>2022-02-25T12:16:45Z</time>
      </trkpt>
      <trkpt lat="44.79801" lon="6.98956">
        <ele>2297.6</ele>
        <time>2022-02-25T12:16:46Z</time>
      </trkpt>
      <trkpt lat="44.79801" lon="6.98959">
        <ele>2298</ele>
        <time>2022-02-25T12:16:47Z</time>
      </trkpt>
      <trkpt lat="44.79801" lon="6.98959">
        <ele>2298</ele>
        <time>2022-02-25T12:16:48Z</time>
      </trkpt>
      <trkpt lat="44.79801" lon="6.98959">
        <ele>2298</ele>
        <time>2022-02-25T12:16:49Z</time>
      </trkpt>
      <trkpt lat="44.79801" lon="6.98959">
        <ele>2298</ele>
        <time>2022-02-25T12:16:50Z</time>
      </trkpt>
      <trkpt lat="44.79802" lon="6.98962">
        <ele>2298.7</ele>
        <time>2022-02-25T12:16:51Z</time>
      </trkpt>
      <trkpt lat="44.79802" lon="6.98962">
        <ele>2298.7</ele>
        <time>2022-02-25T12:16:52Z</time>
      </trkpt>
      <trkpt lat="44.79802" lon="6.98962">
        <ele>2298.7</ele>
        <time>2022-02-25T12:16:53Z</time>
      </trkpt>
      <trkpt lat="44.79802" lon="6.98962">
        <ele>2298.7</ele>
        <time>2022-02-25T12:16:54Z</time>
      </trkpt>
      <trkpt lat="44.79802" lon="6.98962">
        <ele>2298.7</ele>
        <time>2022-02-25T12:16:55Z</time>
      </trkpt>
      <trkpt lat="44.79802" lon="6.98962">
        <ele>2298.7</ele>
        <time>2022-02-25T12:16:56Z</time>
      </trkpt>
      <trkpt lat="44.79802" lon="6.98962">
        <ele>2298.7</ele>
        <time>2022-02-25T12:16:57Z</time>
      </trkpt>
      <trkpt lat="44.79802" lon="6.98962">
        <ele>2298.7</ele>
        <time>2022-02-25T12:16:58Z</time>
      </trkpt>
      <trkpt lat="44.79802" lon="6.98962">
        <ele>2298.7</ele>
        <time>2022-02-25T12:16:59Z</time>
      </trkpt>
      <trkpt lat="44.79802" lon="6.98962">
        <ele>2298.7</ele>
        <time>2022-02-25T12:17:00Z</time>
      </trkpt>
      <trkpt lat="44.79802" lon="6.98962">
        <ele>2298.7</ele>
        <time>2022-02-25T12:17:01Z</time>
      </trkpt>
      <trkpt lat="44.79802" lon="6.98962">
        <ele>2298.7</ele>
        <time>2022-02-25T12:17:02Z</time>
      </trkpt>
      <trkpt lat="44.79802" lon="6.98962">
        <ele>2298.7</ele>
        <time>2022-02-25T12:17:03Z</time>
      </trkpt>
      <trkpt lat="44.79802" lon="6.98962">
        <ele>2298.7</ele>
        <time>2022-02-25T12:17:04Z</time>
      </trkpt>
      <trkpt lat="44.79802" lon="6.98962">
        <ele>2298.7</ele>
        <time>2022-02-25T12:17:05Z</time>
      </trkpt>
      <trkpt lat="44.79802" lon="6.98962">
        <ele>2298.7</ele>
        <time>2022-02-25T12:17:06Z</time>
      </trkpt>
      <trkpt lat="44.79802" lon="6.98962">
        <ele>2298.7</ele>
        <time>2022-02-25T12:17:07Z</time>
      </trkpt>
      <trkpt lat="44.79802" lon="6.98962">
        <ele>2298.7</ele>
        <time>2022-02-25T12:17:08Z</time>
      </trkpt>
      <trkpt lat="44.79802" lon="6.98962">
        <ele>2298.7</ele>
        <time>2022-02-25T12:17:09Z</time>
      </trkpt>
      <trkpt lat="44.79802" lon="6.98962">
        <ele>2298.7</ele>
        <time>2022-02-25T12:17:10Z</time>
      </trkpt>
      <trkpt lat="44.79802" lon="6.98962">
        <ele>2298.7</ele>
        <time>2022-02-25T12:17:11Z</time>
      </trkpt>
      <trkpt lat="44.79802" lon="6.98962">
        <ele>2298.7</ele>
        <time>2022-02-25T12:17:12Z</time>
      </trkpt>
      <trkpt lat="44.79802" lon="6.98962">
        <ele>2298.7</ele>
        <time>2022-02-25T12:17:13Z</time>
      </trkpt>
      <trkpt lat="44.79802" lon="6.98962">
        <ele>2298.7</ele>
        <time>2022-02-25T12:17:14Z</time>
      </trkpt>
      <trkpt lat="44.79802" lon="6.98962">
        <ele>2298.7</ele>
        <time>2022-02-25T12:17:15Z</time>
      </trkpt>
      <trkpt lat="44.79802" lon="6.98962">
        <ele>2298.7</ele>
        <time>2022-02-25T12:17:16Z</time>
      </trkpt>
      <trkpt lat="44.79802" lon="6.98962">
        <ele>2298.7</ele>
        <time>2022-02-25T12:17:17Z</time>
      </trkpt>
      <trkpt lat="44.79802" lon="6.98962">
        <ele>2298.7</ele>
        <time>2022-02-25T12:17:18Z</time>
      </trkpt>
      <trkpt lat="44.79802" lon="6.98962">
        <ele>2298.7</ele>
        <time>2022-02-25T12:17:19Z</time>
      </trkpt>
      <trkpt lat="44.79802" lon="6.98962">
        <ele>2298.7</ele>
        <time>2022-02-25T12:17:20Z</time>
      </trkpt>
      <trkpt lat="44.79802" lon="6.98962">
        <ele>2298.7</ele>
        <time>2022-02-25T12:17:21Z</time>
      </trkpt>
      <trkpt lat="44.79802" lon="6.98962">
        <ele>2298.7</ele>
        <time>2022-02-25T12:17:22Z</time>
      </trkpt>
      <trkpt lat="44.79802" lon="6.98962">
        <ele>2298.7</ele>
        <time>2022-02-25T12:17:23Z</time>
      </trkpt>
      <trkpt lat="44.79802" lon="6.98962">
        <ele>2298.7</ele>
        <time>2022-02-25T12:17:24Z</time>
      </trkpt>
      <trkpt lat="44.79802" lon="6.98962">
        <ele>2298.7</ele>
        <time>2022-02-25T12:17:25Z</time>
      </trkpt>
      <trkpt lat="44.79802" lon="6.98962">
        <ele>2298.7</ele>
        <time>2022-02-25T12:17:26Z</time>
      </trkpt>
      <trkpt lat="44.79802" lon="6.98962">
        <ele>2298.7</ele>
        <time>2022-02-25T12:17:27Z</time>
      </trkpt>
      <trkpt lat="44.79802" lon="6.98962">
        <ele>2298.7</ele>
        <time>2022-02-25T12:17:28Z</time>
      </trkpt>
      <trkpt lat="44.79802" lon="6.98962">
        <ele>2298.7</ele>
        <time>2022-02-25T12:17:29Z</time>
      </trkpt>
      <trkpt lat="44.79802" lon="6.98962">
        <ele>2298.7</ele>
        <time>2022-02-25T12:17:30Z</time>
      </trkpt>
      <trkpt lat="44.79802" lon="6.98962">
        <ele>2298.7</ele>
        <time>2022-02-25T12:17:31Z</time>
      </trkpt>
      <trkpt lat="44.79802" lon="6.98962">
        <ele>2298.7</ele>
        <time>2022-02-25T12:17:32Z</time>
      </trkpt>
      <trkpt lat="44.79802" lon="6.98962">
        <ele>2298.7</ele>
        <time>2022-02-25T12:17:33Z</time>
      </trkpt>
      <trkpt lat="44.79802" lon="6.98962">
        <ele>2298.7</ele>
        <time>2022-02-25T12:17:34Z</time>
      </trkpt>
      <trkpt lat="44.79802" lon="6.98962">
        <ele>2298.7</ele>
        <time>2022-02-25T12:17:35Z</time>
      </trkpt>
      <trkpt lat="44.79802" lon="6.98962">
        <ele>2298.7</ele>
        <time>2022-02-25T12:17:36Z</time>
      </trkpt>
      <trkpt lat="44.79802" lon="6.98962">
        <ele>2298.7</ele>
        <time>2022-02-25T12:17:37Z</time>
      </trkpt>
      <trkpt lat="44.79802" lon="6.98962">
        <ele>2298.7</ele>
        <time>2022-02-25T12:17:38Z</time>
      </trkpt>
      <trkpt lat="44.79802" lon="6.98962">
        <ele>2298.7</ele>
        <time>2022-02-25T12:17:39Z</time>
      </trkpt>
      <trkpt lat="44.79802" lon="6.98962">
        <ele>2298.7</ele>
        <time>2022-02-25T12:17:40Z</time>
      </trkpt>
      <trkpt lat="44.79802" lon="6.98962">
        <ele>2298.7</ele>
        <time>2022-02-25T12:17:41Z</time>
      </trkpt>
      <trkpt lat="44.79802" lon="6.98962">
        <ele>2298.7</ele>
        <time>2022-02-25T12:17:42Z</time>
      </trkpt>
      <trkpt lat="44.79802" lon="6.98962">
        <ele>2298.7</ele>
        <time>2022-02-25T12:17:43Z</time>
      </trkpt>
      <trkpt lat="44.79802" lon="6.98962">
        <ele>2298.7</ele>
        <time>2022-02-25T12:17:44Z</time>
      </trkpt>
      <trkpt lat="44.79802" lon="6.98962">
        <ele>2298.7</ele>
        <time>2022-02-25T12:17:45Z</time>
      </trkpt>
      <trkpt lat="44.79802" lon="6.98965">
        <ele>2299.2</ele>
        <time>2022-02-25T12:17:46Z</time>
      </trkpt>
      <trkpt lat="44.79802" lon="6.98965">
        <ele>2299.2</ele>
        <time>2022-02-25T12:17:47Z</time>
      </trkpt>
      <trkpt lat="44.79803" lon="6.98968">
        <ele>2299.8</ele>
        <time>2022-02-25T12:17:48Z</time>
      </trkpt>
      <trkpt lat="44.79803" lon="6.98968">
        <ele>2299.8</ele>
        <time>2022-02-25T12:17:49Z</time>
      </trkpt>
      <trkpt lat="44.79804" lon="6.98971">
        <ele>2300.5</ele>
        <time>2022-02-25T12:17:50Z</time>
      </trkpt>
      <trkpt lat="44.79804" lon="6.98971">
        <ele>2300.5</ele>
        <time>2022-02-25T12:17:51Z</time>
      </trkpt>
      <trkpt lat="44.79805" lon="6.98975">
        <ele>2301.3</ele>
        <time>2022-02-25T12:17:52Z</time>
      </trkpt>
      <trkpt lat="44.79805" lon="6.98975">
        <ele>2301.3</ele>
        <time>2022-02-25T12:17:53Z</time>
      </trkpt>
      <trkpt lat="44.79806" lon="6.98978">
        <ele>2301.8</ele>
        <time>2022-02-25T12:17:54Z</time>
      </trkpt>
      <trkpt lat="44.79806" lon="6.98978">
        <ele>2301.8</ele>
        <time>2022-02-25T12:17:55Z</time>
      </trkpt>
      <trkpt lat="44.79806" lon="6.98978">
        <ele>2301.8</ele>
        <time>2022-02-25T12:17:56Z</time>
      </trkpt>
      <trkpt lat="44.79807" lon="6.98981">
        <ele>2302.3</ele>
        <time>2022-02-25T12:17:57Z</time>
      </trkpt>
      <trkpt lat="44.79807" lon="6.98981">
        <ele>2302.3</ele>
        <time>2022-02-25T12:17:58Z</time>
      </trkpt>
      <trkpt lat="44.79807" lon="6.98981">
        <ele>2302.3</ele>
        <time>2022-02-25T12:17:59Z</time>
      </trkpt>
      <trkpt lat="44.79808" lon="6.98983">
        <ele>2302.6</ele>
        <time>2022-02-25T12:18:00Z</time>
      </trkpt>
      <trkpt lat="44.79808" lon="6.98983">
        <ele>2302.6</ele>
        <time>2022-02-25T12:18:01Z</time>
      </trkpt>
      <trkpt lat="44.79808" lon="6.98983">
        <ele>2302.6</ele>
        <time>2022-02-25T12:18:02Z</time>
      </trkpt>
      <trkpt lat="44.79808" lon="6.98983">
        <ele>2302.6</ele>
        <time>2022-02-25T12:18:03Z</time>
      </trkpt>
      <trkpt lat="44.79808" lon="6.98987">
        <ele>2303.1</ele>
        <time>2022-02-25T12:18:04Z</time>
      </trkpt>
      <trkpt lat="44.79808" lon="6.98987">
        <ele>2303.1</ele>
        <time>2022-02-25T12:18:05Z</time>
      </trkpt>
      <trkpt lat="44.79808" lon="6.98987">
        <ele>2303.1</ele>
        <time>2022-02-25T12:18:06Z</time>
      </trkpt>
      <trkpt lat="44.79808" lon="6.98989">
        <ele>2303.4</ele>
        <time>2022-02-25T12:18:07Z</time>
      </trkpt>
      <trkpt lat="44.79808" lon="6.98989">
        <ele>2303.4</ele>
        <time>2022-02-25T12:18:08Z</time>
      </trkpt>
      <trkpt lat="44.79808" lon="6.98989">
        <ele>2303.4</ele>
        <time>2022-02-25T12:18:09Z</time>
      </trkpt>
      <trkpt lat="44.79809" lon="6.98992">
        <ele>2303.8</ele>
        <time>2022-02-25T12:18:10Z</time>
      </trkpt>
      <trkpt lat="44.79809" lon="6.98992">
        <ele>2303.8</ele>
        <time>2022-02-25T12:18:11Z</time>
      </trkpt>
      <trkpt lat="44.79809" lon="6.98992">
        <ele>2303.8</ele>
        <time>2022-02-25T12:18:12Z</time>
      </trkpt>
      <trkpt lat="44.79809" lon="6.98992">
        <ele>2303.8</ele>
        <time>2022-02-25T12:18:13Z</time>
      </trkpt>
      <trkpt lat="44.79808" lon="6.98995">
        <ele>2304.3</ele>
        <time>2022-02-25T12:18:14Z</time>
      </trkpt>
      <trkpt lat="44.79808" lon="6.98995">
        <ele>2304.3</ele>
        <time>2022-02-25T12:18:15Z</time>
      </trkpt>
      <trkpt lat="44.79808" lon="6.98995">
        <ele>2304.3</ele>
        <time>2022-02-25T12:18:16Z</time>
      </trkpt>
      <trkpt lat="44.79808" lon="6.98995">
        <ele>2304.3</ele>
        <time>2022-02-25T12:18:17Z</time>
      </trkpt>
      <trkpt lat="44.79809" lon="6.98998">
        <ele>2304.7</ele>
        <time>2022-02-25T12:18:18Z</time>
      </trkpt>
      <trkpt lat="44.79809" lon="6.98998">
        <ele>2304.7</ele>
        <time>2022-02-25T12:18:19Z</time>
      </trkpt>
      <trkpt lat="44.79809" lon="6.98998">
        <ele>2304.7</ele>
        <time>2022-02-25T12:18:20Z</time>
      </trkpt>
      <trkpt lat="44.79809" lon="6.98998">
        <ele>2304.7</ele>
        <time>2022-02-25T12:18:21Z</time>
      </trkpt>
      <trkpt lat="44.79809" lon="6.99001">
        <ele>2305.1</ele>
        <time>2022-02-25T12:18:22Z</time>
      </trkpt>
      <trkpt lat="44.79809" lon="6.99001">
        <ele>2305.1</ele>
        <time>2022-02-25T12:18:23Z</time>
      </trkpt>
      <trkpt lat="44.79809" lon="6.99001">
        <ele>2305.1</ele>
        <time>2022-02-25T12:18:24Z</time>
      </trkpt>
      <trkpt lat="44.79809" lon="6.99001">
        <ele>2305.1</ele>
        <time>2022-02-25T12:18:25Z</time>
      </trkpt>
      <trkpt lat="44.79809" lon="6.99001">
        <ele>2305.1</ele>
        <time>2022-02-25T12:18:26Z</time>
      </trkpt>
      <trkpt lat="44.7981" lon="6.99004">
        <ele>2305.6</ele>
        <time>2022-02-25T12:18:27Z</time>
      </trkpt>
      <trkpt lat="44.7981" lon="6.99004">
        <ele>2305.6</ele>
        <time>2022-02-25T12:18:28Z</time>
      </trkpt>
      <trkpt lat="44.7981" lon="6.99004">
        <ele>2305.6</ele>
        <time>2022-02-25T12:18:29Z</time>
      </trkpt>
      <trkpt lat="44.7981" lon="6.99004">
        <ele>2305.6</ele>
        <time>2022-02-25T12:18:30Z</time>
      </trkpt>
      <trkpt lat="44.7981" lon="6.99007">
        <ele>2306</ele>
        <time>2022-02-25T12:18:31Z</time>
      </trkpt>
      <trkpt lat="44.7981" lon="6.99007">
        <ele>2306</ele>
        <time>2022-02-25T12:18:32Z</time>
      </trkpt>
      <trkpt lat="44.7981" lon="6.99007">
        <ele>2306</ele>
        <time>2022-02-25T12:18:33Z</time>
      </trkpt>
      <trkpt lat="44.7981" lon="6.99007">
        <ele>2306</ele>
        <time>2022-02-25T12:18:34Z</time>
      </trkpt>
      <trkpt lat="44.79811" lon="6.99009">
        <ele>2306.3</ele>
        <time>2022-02-25T12:18:35Z</time>
      </trkpt>
      <trkpt lat="44.79811" lon="6.99009">
        <ele>2306.3</ele>
        <time>2022-02-25T12:18:36Z</time>
      </trkpt>
      <trkpt lat="44.79811" lon="6.99009">
        <ele>2306.3</ele>
        <time>2022-02-25T12:18:37Z</time>
      </trkpt>
      <trkpt lat="44.79812" lon="6.99012">
        <ele>2306.7</ele>
        <time>2022-02-25T12:18:38Z</time>
      </trkpt>
      <trkpt lat="44.79812" lon="6.99012">
        <ele>2306.7</ele>
        <time>2022-02-25T12:18:39Z</time>
      </trkpt>
      <trkpt lat="44.79812" lon="6.99012">
        <ele>2306.7</ele>
        <time>2022-02-25T12:18:40Z</time>
      </trkpt>
      <trkpt lat="44.79812" lon="6.99012">
        <ele>2306.7</ele>
        <time>2022-02-25T12:18:41Z</time>
      </trkpt>
      <trkpt lat="44.79813" lon="6.99015">
        <ele>2307.2</ele>
        <time>2022-02-25T12:18:42Z</time>
      </trkpt>
      <trkpt lat="44.79813" lon="6.99015">
        <ele>2307.2</ele>
        <time>2022-02-25T12:18:43Z</time>
      </trkpt>
      <trkpt lat="44.79813" lon="6.99015">
        <ele>2307.2</ele>
        <time>2022-02-25T12:18:44Z</time>
      </trkpt>
      <trkpt lat="44.79813" lon="6.99017">
        <ele>2307.4</ele>
        <time>2022-02-25T12:18:45Z</time>
      </trkpt>
      <trkpt lat="44.79813" lon="6.99017">
        <ele>2307.4</ele>
        <time>2022-02-25T12:18:46Z</time>
      </trkpt>
      <trkpt lat="44.79813" lon="6.99017">
        <ele>2307.4</ele>
        <time>2022-02-25T12:18:47Z</time>
      </trkpt>
      <trkpt lat="44.79813" lon="6.99017">
        <ele>2307.4</ele>
        <time>2022-02-25T12:18:48Z</time>
      </trkpt>
      <trkpt lat="44.79814" lon="6.9902">
        <ele>2307.9</ele>
        <time>2022-02-25T12:18:49Z</time>
      </trkpt>
      <trkpt lat="44.79814" lon="6.9902">
        <ele>2307.9</ele>
        <time>2022-02-25T12:18:50Z</time>
      </trkpt>
      <trkpt lat="44.79814" lon="6.9902">
        <ele>2307.9</ele>
        <time>2022-02-25T12:18:51Z</time>
      </trkpt>
      <trkpt lat="44.79814" lon="6.9902">
        <ele>2307.9</ele>
        <time>2022-02-25T12:18:52Z</time>
      </trkpt>
      <trkpt lat="44.79814" lon="6.99023">
        <ele>2308.3</ele>
        <time>2022-02-25T12:18:53Z</time>
      </trkpt>
      <trkpt lat="44.79814" lon="6.99023">
        <ele>2308.3</ele>
        <time>2022-02-25T12:18:54Z</time>
      </trkpt>
      <trkpt lat="44.79814" lon="6.99023">
        <ele>2308.3</ele>
        <time>2022-02-25T12:18:55Z</time>
      </trkpt>
      <trkpt lat="44.79814" lon="6.99023">
        <ele>2308.3</ele>
        <time>2022-02-25T12:18:56Z</time>
      </trkpt>
      <trkpt lat="44.79814" lon="6.99026">
        <ele>2308.7</ele>
        <time>2022-02-25T12:18:57Z</time>
      </trkpt>
      <trkpt lat="44.79814" lon="6.99026">
        <ele>2308.7</ele>
        <time>2022-02-25T12:18:58Z</time>
      </trkpt>
      <trkpt lat="44.79814" lon="6.99026">
        <ele>2308.7</ele>
        <time>2022-02-25T12:18:59Z</time>
      </trkpt>
      <trkpt lat="44.79814" lon="6.99029">
        <ele>2309.2</ele>
        <time>2022-02-25T12:19:00Z</time>
      </trkpt>
      <trkpt lat="44.79814" lon="6.99029">
        <ele>2309.2</ele>
        <time>2022-02-25T12:19:01Z</time>
      </trkpt>
      <trkpt lat="44.79814" lon="6.99029">
        <ele>2309.2</ele>
        <time>2022-02-25T12:19:02Z</time>
      </trkpt>
      <trkpt lat="44.79814" lon="6.99029">
        <ele>2309.2</ele>
        <time>2022-02-25T12:19:03Z</time>
      </trkpt>
      <trkpt lat="44.79814" lon="6.99029">
        <ele>2309.2</ele>
        <time>2022-02-25T12:19:04Z</time>
      </trkpt>
      <trkpt lat="44.79814" lon="6.99029">
        <ele>2309.2</ele>
        <time>2022-02-25T12:19:05Z</time>
      </trkpt>
      <trkpt lat="44.79814" lon="6.99029">
        <ele>2309.2</ele>
        <time>2022-02-25T12:19:06Z</time>
      </trkpt>
      <trkpt lat="44.79814" lon="6.99029">
        <ele>2309.2</ele>
        <time>2022-02-25T12:19:07Z</time>
      </trkpt>
      <trkpt lat="44.79814" lon="6.99029">
        <ele>2309.2</ele>
        <time>2022-02-25T12:19:08Z</time>
      </trkpt>
      <trkpt lat="44.79814" lon="6.99029">
        <ele>2309.2</ele>
        <time>2022-02-25T12:19:09Z</time>
      </trkpt>
      <trkpt lat="44.79814" lon="6.99029">
        <ele>2309.2</ele>
        <time>2022-02-25T12:19:10Z</time>
      </trkpt>
      <trkpt lat="44.79814" lon="6.99029">
        <ele>2309.2</ele>
        <time>2022-02-25T12:19:11Z</time>
      </trkpt>
      <trkpt lat="44.79814" lon="6.99029">
        <ele>2309.2</ele>
        <time>2022-02-25T12:19:12Z</time>
      </trkpt>
      <trkpt lat="44.79814" lon="6.99029">
        <ele>2309.2</ele>
        <time>2022-02-25T12:19:13Z</time>
      </trkpt>
      <trkpt lat="44.79814" lon="6.99029">
        <ele>2309.2</ele>
        <time>2022-02-25T12:19:14Z</time>
      </trkpt>
      <trkpt lat="44.79814" lon="6.99029">
        <ele>2309.2</ele>
        <time>2022-02-25T12:19:15Z</time>
      </trkpt>
      <trkpt lat="44.79814" lon="6.99029">
        <ele>2309.2</ele>
        <time>2022-02-25T12:19:16Z</time>
      </trkpt>
      <trkpt lat="44.79814" lon="6.99029">
        <ele>2309.2</ele>
        <time>2022-02-25T12:19:17Z</time>
      </trkpt>
      <trkpt lat="44.79814" lon="6.99029">
        <ele>2309.2</ele>
        <time>2022-02-25T12:19:18Z</time>
      </trkpt>
      <trkpt lat="44.79814" lon="6.99029">
        <ele>2309.2</ele>
        <time>2022-02-25T12:19:19Z</time>
      </trkpt>
      <trkpt lat="44.79814" lon="6.99029">
        <ele>2309.2</ele>
        <time>2022-02-25T12:19:20Z</time>
      </trkpt>
      <trkpt lat="44.79814" lon="6.99029">
        <ele>2309.2</ele>
        <time>2022-02-25T12:19:21Z</time>
      </trkpt>
      <trkpt lat="44.79814" lon="6.99029">
        <ele>2309.2</ele>
        <time>2022-02-25T12:19:22Z</time>
      </trkpt>
      <trkpt lat="44.79814" lon="6.99029">
        <ele>2309.2</ele>
        <time>2022-02-25T12:19:23Z</time>
      </trkpt>
      <trkpt lat="44.79814" lon="6.99029">
        <ele>2309.2</ele>
        <time>2022-02-25T12:19:24Z</time>
      </trkpt>
      <trkpt lat="44.79814" lon="6.99029">
        <ele>2309.2</ele>
        <time>2022-02-25T12:19:25Z</time>
      </trkpt>
      <trkpt lat="44.79814" lon="6.99029">
        <ele>2309.2</ele>
        <time>2022-02-25T12:19:26Z</time>
      </trkpt>
      <trkpt lat="44.79814" lon="6.99029">
        <ele>2309.2</ele>
        <time>2022-02-25T12:19:27Z</time>
      </trkpt>
      <trkpt lat="44.79814" lon="6.99029">
        <ele>2309.2</ele>
        <time>2022-02-25T12:19:28Z</time>
      </trkpt>
      <trkpt lat="44.79814" lon="6.99029">
        <ele>2309.2</ele>
        <time>2022-02-25T12:19:29Z</time>
      </trkpt>
      <trkpt lat="44.79814" lon="6.99029">
        <ele>2309.2</ele>
        <time>2022-02-25T12:19:30Z</time>
      </trkpt>
      <trkpt lat="44.79814" lon="6.99029">
        <ele>2309.2</ele>
        <time>2022-02-25T12:19:31Z</time>
      </trkpt>
      <trkpt lat="44.79814" lon="6.99032">
        <ele>2309.7</ele>
        <time>2022-02-25T12:19:32Z</time>
      </trkpt>
      <trkpt lat="44.79814" lon="6.99032">
        <ele>2309.7</ele>
        <time>2022-02-25T12:19:33Z</time>
      </trkpt>
      <trkpt lat="44.79815" lon="6.99035">
        <ele>2310.2</ele>
        <time>2022-02-25T12:19:34Z</time>
      </trkpt>
      <trkpt lat="44.79815" lon="6.99035">
        <ele>2310.2</ele>
        <time>2022-02-25T12:19:35Z</time>
      </trkpt>
      <trkpt lat="44.79816" lon="6.99038">
        <ele>2310.7</ele>
        <time>2022-02-25T12:19:36Z</time>
      </trkpt>
      <trkpt lat="44.79816" lon="6.99038">
        <ele>2310.7</ele>
        <time>2022-02-25T12:19:37Z</time>
      </trkpt>
      <trkpt lat="44.79816" lon="6.99042">
        <ele>2311.4</ele>
        <time>2022-02-25T12:19:38Z</time>
      </trkpt>
      <trkpt lat="44.79816" lon="6.99042">
        <ele>2311.4</ele>
        <time>2022-02-25T12:19:39Z</time>
      </trkpt>
      <trkpt lat="44.79817" lon="6.99045">
        <ele>2311.8</ele>
        <time>2022-02-25T12:19:40Z</time>
      </trkpt>
      <trkpt lat="44.79817" lon="6.99045">
        <ele>2311.8</ele>
        <time>2022-02-25T12:19:41Z</time>
      </trkpt>
      <trkpt lat="44.79817" lon="6.99048">
        <ele>2312.3</ele>
        <time>2022-02-25T12:19:42Z</time>
      </trkpt>
      <trkpt lat="44.79817" lon="6.99048">
        <ele>2312.3</ele>
        <time>2022-02-25T12:19:43Z</time>
      </trkpt>
      <trkpt lat="44.79817" lon="6.99048">
        <ele>2312.3</ele>
        <time>2022-02-25T12:19:44Z</time>
      </trkpt>
      <trkpt lat="44.79817" lon="6.99048">
        <ele>2312.3</ele>
        <time>2022-02-25T12:19:45Z</time>
      </trkpt>
      <trkpt lat="44.79818" lon="6.9905">
        <ele>2312.6</ele>
        <time>2022-02-25T12:19:46Z</time>
      </trkpt>
      <trkpt lat="44.79818" lon="6.9905">
        <ele>2312.6</ele>
        <time>2022-02-25T12:19:47Z</time>
      </trkpt>
      <trkpt lat="44.79818" lon="6.9905">
        <ele>2312.6</ele>
        <time>2022-02-25T12:19:48Z</time>
      </trkpt>
      <trkpt lat="44.79818" lon="6.99053">
        <ele>2313.1</ele>
        <time>2022-02-25T12:19:49Z</time>
      </trkpt>
      <trkpt lat="44.79818" lon="6.99053">
        <ele>2313.1</ele>
        <time>2022-02-25T12:19:50Z</time>
      </trkpt>
      <trkpt lat="44.79818" lon="6.99053">
        <ele>2313.1</ele>
        <time>2022-02-25T12:19:51Z</time>
      </trkpt>
      <trkpt lat="44.79818" lon="6.99053">
        <ele>2313.1</ele>
        <time>2022-02-25T12:19:52Z</time>
      </trkpt>
      <trkpt lat="44.79818" lon="6.99056">
        <ele>2313.6</ele>
        <time>2022-02-25T12:19:53Z</time>
      </trkpt>
      <trkpt lat="44.79818" lon="6.99056">
        <ele>2313.6</ele>
        <time>2022-02-25T12:19:54Z</time>
      </trkpt>
      <trkpt lat="44.79818" lon="6.99056">
        <ele>2313.6</ele>
        <time>2022-02-25T12:19:55Z</time>
      </trkpt>
      <trkpt lat="44.79817" lon="6.99059">
        <ele>2314.2</ele>
        <time>2022-02-25T12:19:56Z</time>
      </trkpt>
      <trkpt lat="44.79817" lon="6.99059">
        <ele>2314.2</ele>
        <time>2022-02-25T12:19:57Z</time>
      </trkpt>
      <trkpt lat="44.79817" lon="6.99059">
        <ele>2314.2</ele>
        <time>2022-02-25T12:19:58Z</time>
      </trkpt>
      <trkpt lat="44.79817" lon="6.99061">
        <ele>2314.6</ele>
        <time>2022-02-25T12:19:59Z</time>
      </trkpt>
      <trkpt lat="44.79817" lon="6.99061">
        <ele>2314.6</ele>
        <time>2022-02-25T12:20:00Z</time>
      </trkpt>
      <trkpt lat="44.79817" lon="6.99061">
        <ele>2314.6</ele>
        <time>2022-02-25T12:20:01Z</time>
      </trkpt>
      <trkpt lat="44.79817" lon="6.99061">
        <ele>2314.6</ele>
        <time>2022-02-25T12:20:02Z</time>
      </trkpt>
      <trkpt lat="44.79816" lon="6.99064">
        <ele>2315.1</ele>
        <time>2022-02-25T12:20:03Z</time>
      </trkpt>
      <trkpt lat="44.79816" lon="6.99064">
        <ele>2315.1</ele>
        <time>2022-02-25T12:20:04Z</time>
      </trkpt>
      <trkpt lat="44.79816" lon="6.99064">
        <ele>2315.1</ele>
        <time>2022-02-25T12:20:05Z</time>
      </trkpt>
      <trkpt lat="44.79816" lon="6.99064">
        <ele>2315.1</ele>
        <time>2022-02-25T12:20:06Z</time>
      </trkpt>
      <trkpt lat="44.79814" lon="6.99066">
        <ele>2315.6</ele>
        <time>2022-02-25T12:20:07Z</time>
      </trkpt>
      <trkpt lat="44.79814" lon="6.99066">
        <ele>2315.6</ele>
        <time>2022-02-25T12:20:08Z</time>
      </trkpt>
      <trkpt lat="44.79814" lon="6.99066">
        <ele>2315.6</ele>
        <time>2022-02-25T12:20:09Z</time>
      </trkpt>
      <trkpt lat="44.79814" lon="6.99066">
        <ele>2315.6</ele>
        <time>2022-02-25T12:20:10Z</time>
      </trkpt>
      <trkpt lat="44.79813" lon="6.99069">
        <ele>2316.2</ele>
        <time>2022-02-25T12:20:11Z</time>
      </trkpt>
      <trkpt lat="44.79813" lon="6.99069">
        <ele>2316.2</ele>
        <time>2022-02-25T12:20:12Z</time>
      </trkpt>
      <trkpt lat="44.79813" lon="6.99069">
        <ele>2316.2</ele>
        <time>2022-02-25T12:20:13Z</time>
      </trkpt>
      <trkpt lat="44.79813" lon="6.99071">
        <ele>2316.5</ele>
        <time>2022-02-25T12:20:14Z</time>
      </trkpt>
      <trkpt lat="44.79813" lon="6.99071">
        <ele>2316.5</ele>
        <time>2022-02-25T12:20:15Z</time>
      </trkpt>
      <trkpt lat="44.79813" lon="6.99071">
        <ele>2316.5</ele>
        <time>2022-02-25T12:20:16Z</time>
      </trkpt>
      <trkpt lat="44.79812" lon="6.99074">
        <ele>2317.1</ele>
        <time>2022-02-25T12:20:17Z</time>
      </trkpt>
      <trkpt lat="44.79812" lon="6.99074">
        <ele>2317.1</ele>
        <time>2022-02-25T12:20:18Z</time>
      </trkpt>
      <trkpt lat="44.79812" lon="6.99074">
        <ele>2317.1</ele>
        <time>2022-02-25T12:20:19Z</time>
      </trkpt>
      <trkpt lat="44.7981" lon="6.99076">
        <ele>2317.5</ele>
        <time>2022-02-25T12:20:20Z</time>
      </trkpt>
      <trkpt lat="44.7981" lon="6.99076">
        <ele>2317.5</ele>
        <time>2022-02-25T12:20:21Z</time>
      </trkpt>
      <trkpt lat="44.7981" lon="6.99076">
        <ele>2317.5</ele>
        <time>2022-02-25T12:20:22Z</time>
      </trkpt>
      <trkpt lat="44.7981" lon="6.99076">
        <ele>2317.5</ele>
        <time>2022-02-25T12:20:23Z</time>
      </trkpt>
      <trkpt lat="44.79809" lon="6.99079">
        <ele>2318.1</ele>
        <time>2022-02-25T12:20:24Z</time>
      </trkpt>
      <trkpt lat="44.79809" lon="6.99079">
        <ele>2318.1</ele>
        <time>2022-02-25T12:20:25Z</time>
      </trkpt>
      <trkpt lat="44.79809" lon="6.99079">
        <ele>2318.1</ele>
        <time>2022-02-25T12:20:26Z</time>
      </trkpt>
      <trkpt lat="44.79808" lon="6.99081">
        <ele>2318.5</ele>
        <time>2022-02-25T12:20:27Z</time>
      </trkpt>
      <trkpt lat="44.79808" lon="6.99081">
        <ele>2318.5</ele>
        <time>2022-02-25T12:20:28Z</time>
      </trkpt>
      <trkpt lat="44.79808" lon="6.99081">
        <ele>2318.5</ele>
        <time>2022-02-25T12:20:29Z</time>
      </trkpt>
      <trkpt lat="44.79808" lon="6.99084">
        <ele>2319</ele>
        <time>2022-02-25T12:20:30Z</time>
      </trkpt>
      <trkpt lat="44.79808" lon="6.99084">
        <ele>2319</ele>
        <time>2022-02-25T12:20:31Z</time>
      </trkpt>
      <trkpt lat="44.79808" lon="6.99084">
        <ele>2319</ele>
        <time>2022-02-25T12:20:32Z</time>
      </trkpt>
      <trkpt lat="44.79807" lon="6.99086">
        <ele>2319.3</ele>
        <time>2022-02-25T12:20:33Z</time>
      </trkpt>
      <trkpt lat="44.79807" lon="6.99086">
        <ele>2319.3</ele>
        <time>2022-02-25T12:20:34Z</time>
      </trkpt>
      <trkpt lat="44.79807" lon="6.99086">
        <ele>2319.3</ele>
        <time>2022-02-25T12:20:35Z</time>
      </trkpt>
      <trkpt lat="44.79806" lon="6.99089">
        <ele>2319.8</ele>
        <time>2022-02-25T12:20:36Z</time>
      </trkpt>
      <trkpt lat="44.79806" lon="6.99089">
        <ele>2319.8</ele>
        <time>2022-02-25T12:20:37Z</time>
      </trkpt>
      <trkpt lat="44.79806" lon="6.99089">
        <ele>2319.8</ele>
        <time>2022-02-25T12:20:38Z</time>
      </trkpt>
      <trkpt lat="44.79805" lon="6.99092">
        <ele>2320.2</ele>
        <time>2022-02-25T12:20:39Z</time>
      </trkpt>
      <trkpt lat="44.79805" lon="6.99092">
        <ele>2320.2</ele>
        <time>2022-02-25T12:20:40Z</time>
      </trkpt>
      <trkpt lat="44.79805" lon="6.99092">
        <ele>2320.2</ele>
        <time>2022-02-25T12:20:41Z</time>
      </trkpt>
      <trkpt lat="44.79804" lon="6.99095">
        <ele>2320.5</ele>
        <time>2022-02-25T12:20:42Z</time>
      </trkpt>
      <trkpt lat="44.79804" lon="6.99095">
        <ele>2320.5</ele>
        <time>2022-02-25T12:20:43Z</time>
      </trkpt>
      <trkpt lat="44.79804" lon="6.99095">
        <ele>2320.5</ele>
        <time>2022-02-25T12:20:44Z</time>
      </trkpt>
      <trkpt lat="44.79802" lon="6.99097">
        <ele>2320.6</ele>
        <time>2022-02-25T12:20:45Z</time>
      </trkpt>
      <trkpt lat="44.79802" lon="6.99097">
        <ele>2320.6</ele>
        <time>2022-02-25T12:20:46Z</time>
      </trkpt>
      <trkpt lat="44.79802" lon="6.99097">
        <ele>2320.6</ele>
        <time>2022-02-25T12:20:47Z</time>
      </trkpt>
      <trkpt lat="44.79802" lon="6.99097">
        <ele>2320.6</ele>
        <time>2022-02-25T12:20:48Z</time>
      </trkpt>
      <trkpt lat="44.79801" lon="6.99099">
        <ele>2320.8</ele>
        <time>2022-02-25T12:20:49Z</time>
      </trkpt>
      <trkpt lat="44.79801" lon="6.99099">
        <ele>2320.8</ele>
        <time>2022-02-25T12:20:50Z</time>
      </trkpt>
      <trkpt lat="44.79801" lon="6.99099">
        <ele>2320.8</ele>
        <time>2022-02-25T12:20:51Z</time>
      </trkpt>
      <trkpt lat="44.79801" lon="6.99099">
        <ele>2320.8</ele>
        <time>2022-02-25T12:20:52Z</time>
      </trkpt>
      <trkpt lat="44.798" lon="6.99102">
        <ele>2321.1</ele>
        <time>2022-02-25T12:20:53Z</time>
      </trkpt>
      <trkpt lat="44.798" lon="6.99102">
        <ele>2321.1</ele>
        <time>2022-02-25T12:20:54Z</time>
      </trkpt>
      <trkpt lat="44.798" lon="6.99102">
        <ele>2321.1</ele>
        <time>2022-02-25T12:20:55Z</time>
      </trkpt>
      <trkpt lat="44.798" lon="6.99102">
        <ele>2321.1</ele>
        <time>2022-02-25T12:20:56Z</time>
      </trkpt>
      <trkpt lat="44.798" lon="6.99102">
        <ele>2321.1</ele>
        <time>2022-02-25T12:20:57Z</time>
      </trkpt>
      <trkpt lat="44.798" lon="6.99102">
        <ele>2321.1</ele>
        <time>2022-02-25T12:20:58Z</time>
      </trkpt>
      <trkpt lat="44.798" lon="6.99102">
        <ele>2321.1</ele>
        <time>2022-02-25T12:20:59Z</time>
      </trkpt>
      <trkpt lat="44.798" lon="6.99102">
        <ele>2321.1</ele>
        <time>2022-02-25T12:21:00Z</time>
      </trkpt>
      <trkpt lat="44.798" lon="6.99102">
        <ele>2321.1</ele>
        <time>2022-02-25T12:21:01Z</time>
      </trkpt>
      <trkpt lat="44.798" lon="6.99102">
        <ele>2321.1</ele>
        <time>2022-02-25T12:21:02Z</time>
      </trkpt>
      <trkpt lat="44.798" lon="6.99102">
        <ele>2321.1</ele>
        <time>2022-02-25T12:21:03Z</time>
      </trkpt>
      <trkpt lat="44.798" lon="6.99102">
        <ele>2321.1</ele>
        <time>2022-02-25T12:21:04Z</time>
      </trkpt>
      <trkpt lat="44.798" lon="6.99102">
        <ele>2321.1</ele>
        <time>2022-02-25T12:21:05Z</time>
      </trkpt>
      <trkpt lat="44.798" lon="6.99102">
        <ele>2321.1</ele>
        <time>2022-02-25T12:21:06Z</time>
      </trkpt>
      <trkpt lat="44.798" lon="6.99102">
        <ele>2321.1</ele>
        <time>2022-02-25T12:21:07Z</time>
      </trkpt>
      <trkpt lat="44.798" lon="6.99102">
        <ele>2321.1</ele>
        <time>2022-02-25T12:21:08Z</time>
      </trkpt>
      <trkpt lat="44.798" lon="6.99102">
        <ele>2321.1</ele>
        <time>2022-02-25T12:21:09Z</time>
      </trkpt>
      <trkpt lat="44.798" lon="6.99102">
        <ele>2321.1</ele>
        <time>2022-02-25T12:21:10Z</time>
      </trkpt>
      <trkpt lat="44.798" lon="6.99102">
        <ele>2321.1</ele>
        <time>2022-02-25T12:21:11Z</time>
      </trkpt>
      <trkpt lat="44.798" lon="6.99102">
        <ele>2321.1</ele>
        <time>2022-02-25T12:21:12Z</time>
      </trkpt>
      <trkpt lat="44.798" lon="6.99102">
        <ele>2321.1</ele>
        <time>2022-02-25T12:21:13Z</time>
      </trkpt>
      <trkpt lat="44.798" lon="6.99102">
        <ele>2321.1</ele>
        <time>2022-02-25T12:21:14Z</time>
      </trkpt>
      <trkpt lat="44.798" lon="6.99102">
        <ele>2321.1</ele>
        <time>2022-02-25T12:21:15Z</time>
      </trkpt>
      <trkpt lat="44.798" lon="6.99102">
        <ele>2321.1</ele>
        <time>2022-02-25T12:21:16Z</time>
      </trkpt>
      <trkpt lat="44.798" lon="6.99102">
        <ele>2321.1</ele>
        <time>2022-02-25T12:21:17Z</time>
      </trkpt>
      <trkpt lat="44.798" lon="6.99102">
        <ele>2321.1</ele>
        <time>2022-02-25T12:21:18Z</time>
      </trkpt>
      <trkpt lat="44.798" lon="6.99102">
        <ele>2321.1</ele>
        <time>2022-02-25T12:21:19Z</time>
      </trkpt>
      <trkpt lat="44.798" lon="6.99102">
        <ele>2321.1</ele>
        <time>2022-02-25T12:21:20Z</time>
      </trkpt>
      <trkpt lat="44.798" lon="6.99102">
        <ele>2321.1</ele>
        <time>2022-02-25T12:21:21Z</time>
      </trkpt>
      <trkpt lat="44.798" lon="6.99102">
        <ele>2321.1</ele>
        <time>2022-02-25T12:21:22Z</time>
      </trkpt>
      <trkpt lat="44.798" lon="6.99102">
        <ele>2321.1</ele>
        <time>2022-02-25T12:21:23Z</time>
      </trkpt>
      <trkpt lat="44.798" lon="6.99102">
        <ele>2321.1</ele>
        <time>2022-02-25T12:21:24Z</time>
      </trkpt>
      <trkpt lat="44.798" lon="6.99102">
        <ele>2321.1</ele>
        <time>2022-02-25T12:21:25Z</time>
      </trkpt>
      <trkpt lat="44.798" lon="6.99102">
        <ele>2321.1</ele>
        <time>2022-02-25T12:21:26Z</time>
      </trkpt>
      <trkpt lat="44.798" lon="6.99102">
        <ele>2321.1</ele>
        <time>2022-02-25T12:21:27Z</time>
      </trkpt>
      <trkpt lat="44.798" lon="6.99102">
        <ele>2321.1</ele>
        <time>2022-02-25T12:21:28Z</time>
      </trkpt>
      <trkpt lat="44.798" lon="6.99102">
        <ele>2321.1</ele>
        <time>2022-02-25T12:21:29Z</time>
      </trkpt>
      <trkpt lat="44.798" lon="6.99102">
        <ele>2321.1</ele>
        <time>2022-02-25T12:21:30Z</time>
      </trkpt>
      <trkpt lat="44.798" lon="6.99102">
        <ele>2321.1</ele>
        <time>2022-02-25T12:21:31Z</time>
      </trkpt>
      <trkpt lat="44.798" lon="6.99102">
        <ele>2321.1</ele>
        <time>2022-02-25T12:21:32Z</time>
      </trkpt>
      <trkpt lat="44.798" lon="6.99102">
        <ele>2321.1</ele>
        <time>2022-02-25T12:21:33Z</time>
      </trkpt>
      <trkpt lat="44.798" lon="6.99102">
        <ele>2321.1</ele>
        <time>2022-02-25T12:21:34Z</time>
      </trkpt>
      <trkpt lat="44.798" lon="6.99102">
        <ele>2321.1</ele>
        <time>2022-02-25T12:21:35Z</time>
      </trkpt>
      <trkpt lat="44.798" lon="6.99102">
        <ele>2321.1</ele>
        <time>2022-02-25T12:21:36Z</time>
      </trkpt>
      <trkpt lat="44.798" lon="6.99102">
        <ele>2321.1</ele>
        <time>2022-02-25T12:21:37Z</time>
      </trkpt>
      <trkpt lat="44.798" lon="6.99102">
        <ele>2321.1</ele>
        <time>2022-02-25T12:21:38Z</time>
      </trkpt>
      <trkpt lat="44.79798" lon="6.99106">
        <ele>2321.4</ele>
        <time>2022-02-25T12:21:39Z</time>
      </trkpt>
      <trkpt lat="44.79798" lon="6.99106">
        <ele>2321.4</ele>
        <time>2022-02-25T12:21:40Z</time>
      </trkpt>
      <trkpt lat="44.79797" lon="6.9911">
        <ele>2321.9</ele>
        <time>2022-02-25T12:21:41Z</time>
      </trkpt>
      <trkpt lat="44.79797" lon="6.9911">
        <ele>2321.9</ele>
        <time>2022-02-25T12:21:42Z</time>
      </trkpt>
      <trkpt lat="44.79796" lon="6.99114">
        <ele>2322.3</ele>
        <time>2022-02-25T12:21:43Z</time>
      </trkpt>
      <trkpt lat="44.79796" lon="6.99114">
        <ele>2322.3</ele>
        <time>2022-02-25T12:21:44Z</time>
      </trkpt>
      <trkpt lat="44.79796" lon="6.99118">
        <ele>2322.9</ele>
        <time>2022-02-25T12:21:45Z</time>
      </trkpt>
      <trkpt lat="44.79796" lon="6.99118">
        <ele>2322.9</ele>
        <time>2022-02-25T12:21:46Z</time>
      </trkpt>
      <trkpt lat="44.79794" lon="6.99121">
        <ele>2323</ele>
        <time>2022-02-25T12:21:47Z</time>
      </trkpt>
      <trkpt lat="44.79794" lon="6.99121">
        <ele>2323</ele>
        <time>2022-02-25T12:21:48Z</time>
      </trkpt>
      <trkpt lat="44.79794" lon="6.99124">
        <ele>2323.4</ele>
        <time>2022-02-25T12:21:49Z</time>
      </trkpt>
      <trkpt lat="44.79794" lon="6.99124">
        <ele>2323.4</ele>
        <time>2022-02-25T12:21:50Z</time>
      </trkpt>
      <trkpt lat="44.79794" lon="6.99124">
        <ele>2323.4</ele>
        <time>2022-02-25T12:21:51Z</time>
      </trkpt>
      <trkpt lat="44.79794" lon="6.99124">
        <ele>2323.4</ele>
        <time>2022-02-25T12:21:52Z</time>
      </trkpt>
      <trkpt lat="44.79794" lon="6.99127">
        <ele>2323.8</ele>
        <time>2022-02-25T12:21:53Z</time>
      </trkpt>
      <trkpt lat="44.79794" lon="6.99127">
        <ele>2323.8</ele>
        <time>2022-02-25T12:21:54Z</time>
      </trkpt>
      <trkpt lat="44.79794" lon="6.99127">
        <ele>2323.8</ele>
        <time>2022-02-25T12:21:55Z</time>
      </trkpt>
      <trkpt lat="44.79792" lon="6.99129">
        <ele>2323.8</ele>
        <time>2022-02-25T12:21:56Z</time>
      </trkpt>
      <trkpt lat="44.79792" lon="6.99129">
        <ele>2323.8</ele>
        <time>2022-02-25T12:21:57Z</time>
      </trkpt>
      <trkpt lat="44.79792" lon="6.99129">
        <ele>2323.8</ele>
        <time>2022-02-25T12:21:58Z</time>
      </trkpt>
      <trkpt lat="44.79792" lon="6.99129">
        <ele>2323.8</ele>
        <time>2022-02-25T12:21:59Z</time>
      </trkpt>
      <trkpt lat="44.79792" lon="6.99129">
        <ele>2323.8</ele>
        <time>2022-02-25T12:22:00Z</time>
      </trkpt>
      <trkpt lat="44.79792" lon="6.99129">
        <ele>2323.8</ele>
        <time>2022-02-25T12:22:01Z</time>
      </trkpt>
      <trkpt lat="44.79792" lon="6.99129">
        <ele>2323.8</ele>
        <time>2022-02-25T12:22:02Z</time>
      </trkpt>
      <trkpt lat="44.79792" lon="6.99129">
        <ele>2323.8</ele>
        <time>2022-02-25T12:22:03Z</time>
      </trkpt>
      <trkpt lat="44.79792" lon="6.99129">
        <ele>2323.8</ele>
        <time>2022-02-25T12:22:04Z</time>
      </trkpt>
      <trkpt lat="44.79792" lon="6.99129">
        <ele>2323.8</ele>
        <time>2022-02-25T12:22:05Z</time>
      </trkpt>
      <trkpt lat="44.79792" lon="6.99129">
        <ele>2323.8</ele>
        <time>2022-02-25T12:22:06Z</time>
      </trkpt>
      <trkpt lat="44.79792" lon="6.99129">
        <ele>2323.8</ele>
        <time>2022-02-25T12:22:07Z</time>
      </trkpt>
      <trkpt lat="44.79792" lon="6.99129">
        <ele>2323.8</ele>
        <time>2022-02-25T12:22:08Z</time>
      </trkpt>
      <trkpt lat="44.79792" lon="6.99129">
        <ele>2323.8</ele>
        <time>2022-02-25T12:22:09Z</time>
      </trkpt>
      <trkpt lat="44.79792" lon="6.99129">
        <ele>2323.8</ele>
        <time>2022-02-25T12:22:10Z</time>
      </trkpt>
      <trkpt lat="44.79792" lon="6.99129">
        <ele>2323.8</ele>
        <time>2022-02-25T12:22:11Z</time>
      </trkpt>
      <trkpt lat="44.79792" lon="6.99129">
        <ele>2323.8</ele>
        <time>2022-02-25T12:22:12Z</time>
      </trkpt>
      <trkpt lat="44.79792" lon="6.99129">
        <ele>2323.8</ele>
        <time>2022-02-25T12:22:13Z</time>
      </trkpt>
      <trkpt lat="44.79792" lon="6.99129">
        <ele>2323.8</ele>
        <time>2022-02-25T12:22:14Z</time>
      </trkpt>
      <trkpt lat="44.79792" lon="6.99129">
        <ele>2323.8</ele>
        <time>2022-02-25T12:22:15Z</time>
      </trkpt>
      <trkpt lat="44.79792" lon="6.99129">
        <ele>2323.8</ele>
        <time>2022-02-25T12:22:16Z</time>
      </trkpt>
      <trkpt lat="44.79792" lon="6.99129">
        <ele>2323.8</ele>
        <time>2022-02-25T12:22:17Z</time>
      </trkpt>
      <trkpt lat="44.79792" lon="6.99129">
        <ele>2323.8</ele>
        <time>2022-02-25T12:22:18Z</time>
      </trkpt>
      <trkpt lat="44.79792" lon="6.99129">
        <ele>2323.8</ele>
        <time>2022-02-25T12:22:19Z</time>
      </trkpt>
      <trkpt lat="44.79792" lon="6.99129">
        <ele>2323.8</ele>
        <time>2022-02-25T12:22:20Z</time>
      </trkpt>
      <trkpt lat="44.79792" lon="6.99129">
        <ele>2323.8</ele>
        <time>2022-02-25T12:22:21Z</time>
      </trkpt>
      <trkpt lat="44.79792" lon="6.99129">
        <ele>2323.8</ele>
        <time>2022-02-25T12:22:22Z</time>
      </trkpt>
      <trkpt lat="44.79792" lon="6.99129">
        <ele>2323.8</ele>
        <time>2022-02-25T12:22:23Z</time>
      </trkpt>
      <trkpt lat="44.79792" lon="6.99129">
        <ele>2323.8</ele>
        <time>2022-02-25T12:22:24Z</time>
      </trkpt>
      <trkpt lat="44.79792" lon="6.99132">
        <ele>2324.2</ele>
        <time>2022-02-25T12:22:25Z</time>
      </trkpt>
      <trkpt lat="44.79792" lon="6.99132">
        <ele>2324.2</ele>
        <time>2022-02-25T12:22:26Z</time>
      </trkpt>
      <trkpt lat="44.79791" lon="6.99135">
        <ele>2324.4</ele>
        <time>2022-02-25T12:22:27Z</time>
      </trkpt>
      <trkpt lat="44.79791" lon="6.99135">
        <ele>2324.4</ele>
        <time>2022-02-25T12:22:28Z</time>
      </trkpt>
      <trkpt lat="44.79791" lon="6.99139">
        <ele>2324.9</ele>
        <time>2022-02-25T12:22:29Z</time>
      </trkpt>
      <trkpt lat="44.79791" lon="6.99139">
        <ele>2324.9</ele>
        <time>2022-02-25T12:22:30Z</time>
      </trkpt>
      <trkpt lat="44.79791" lon="6.99142">
        <ele>2325.1</ele>
        <time>2022-02-25T12:22:31Z</time>
      </trkpt>
      <trkpt lat="44.79791" lon="6.99142">
        <ele>2325.1</ele>
        <time>2022-02-25T12:22:32Z</time>
      </trkpt>
      <trkpt lat="44.79791" lon="6.99145">
        <ele>2325.3</ele>
        <time>2022-02-25T12:22:33Z</time>
      </trkpt>
      <trkpt lat="44.79791" lon="6.99145">
        <ele>2325.3</ele>
        <time>2022-02-25T12:22:34Z</time>
      </trkpt>
      <trkpt lat="44.79791" lon="6.99145">
        <ele>2325.3</ele>
        <time>2022-02-25T12:22:35Z</time>
      </trkpt>
      <trkpt lat="44.79792" lon="6.99148">
        <ele>2325.7</ele>
        <time>2022-02-25T12:22:36Z</time>
      </trkpt>
      <trkpt lat="44.79792" lon="6.99148">
        <ele>2325.7</ele>
        <time>2022-02-25T12:22:37Z</time>
      </trkpt>
      <trkpt lat="44.79792" lon="6.99148">
        <ele>2325.7</ele>
        <time>2022-02-25T12:22:38Z</time>
      </trkpt>
      <trkpt lat="44.79793" lon="6.9915">
        <ele>2326</ele>
        <time>2022-02-25T12:22:39Z</time>
      </trkpt>
      <trkpt lat="44.79793" lon="6.9915">
        <ele>2326</ele>
        <time>2022-02-25T12:22:40Z</time>
      </trkpt>
      <trkpt lat="44.79793" lon="6.9915">
        <ele>2326</ele>
        <time>2022-02-25T12:22:41Z</time>
      </trkpt>
      <trkpt lat="44.79793" lon="6.9915">
        <ele>2326</ele>
        <time>2022-02-25T12:22:42Z</time>
      </trkpt>
      <trkpt lat="44.79794" lon="6.99153">
        <ele>2326.4</ele>
        <time>2022-02-25T12:22:43Z</time>
      </trkpt>
      <trkpt lat="44.79794" lon="6.99153">
        <ele>2326.4</ele>
        <time>2022-02-25T12:22:44Z</time>
      </trkpt>
      <trkpt lat="44.79794" lon="6.99153">
        <ele>2326.4</ele>
        <time>2022-02-25T12:22:45Z</time>
      </trkpt>
      <trkpt lat="44.79795" lon="6.99155">
        <ele>2326.6</ele>
        <time>2022-02-25T12:22:46Z</time>
      </trkpt>
      <trkpt lat="44.79795" lon="6.99155">
        <ele>2326.6</ele>
        <time>2022-02-25T12:22:47Z</time>
      </trkpt>
      <trkpt lat="44.79795" lon="6.99155">
        <ele>2326.6</ele>
        <time>2022-02-25T12:22:48Z</time>
      </trkpt>
      <trkpt lat="44.79795" lon="6.99155">
        <ele>2326.6</ele>
        <time>2022-02-25T12:22:49Z</time>
      </trkpt>
      <trkpt lat="44.79796" lon="6.99157">
        <ele>2326.9</ele>
        <time>2022-02-25T12:22:50Z</time>
      </trkpt>
      <trkpt lat="44.79796" lon="6.99157">
        <ele>2326.9</ele>
        <time>2022-02-25T12:22:51Z</time>
      </trkpt>
      <trkpt lat="44.79796" lon="6.99157">
        <ele>2326.9</ele>
        <time>2022-02-25T12:22:52Z</time>
      </trkpt>
      <trkpt lat="44.79796" lon="6.99157">
        <ele>2326.9</ele>
        <time>2022-02-25T12:22:53Z</time>
      </trkpt>
      <trkpt lat="44.79797" lon="6.99159">
        <ele>2327.2</ele>
        <time>2022-02-25T12:22:54Z</time>
      </trkpt>
      <trkpt lat="44.79797" lon="6.99159">
        <ele>2327.2</ele>
        <time>2022-02-25T12:22:55Z</time>
      </trkpt>
      <trkpt lat="44.79797" lon="6.99159">
        <ele>2327.2</ele>
        <time>2022-02-25T12:22:56Z</time>
      </trkpt>
      <trkpt lat="44.79797" lon="6.99162">
        <ele>2327.4</ele>
        <time>2022-02-25T12:22:57Z</time>
      </trkpt>
      <trkpt lat="44.79797" lon="6.99162">
        <ele>2327.4</ele>
        <time>2022-02-25T12:22:58Z</time>
      </trkpt>
      <trkpt lat="44.79797" lon="6.99162">
        <ele>2327.4</ele>
        <time>2022-02-25T12:22:59Z</time>
      </trkpt>
      <trkpt lat="44.79797" lon="6.99162">
        <ele>2327.4</ele>
        <time>2022-02-25T12:23:00Z</time>
      </trkpt>
      <trkpt lat="44.79797" lon="6.99165">
        <ele>2327.6</ele>
        <time>2022-02-25T12:23:01Z</time>
      </trkpt>
      <trkpt lat="44.79797" lon="6.99165">
        <ele>2327.6</ele>
        <time>2022-02-25T12:23:02Z</time>
      </trkpt>
      <trkpt lat="44.79797" lon="6.99165">
        <ele>2327.6</ele>
        <time>2022-02-25T12:23:03Z</time>
      </trkpt>
      <trkpt lat="44.79798" lon="6.99167">
        <ele>2327.9</ele>
        <time>2022-02-25T12:23:04Z</time>
      </trkpt>
      <trkpt lat="44.79798" lon="6.99167">
        <ele>2327.9</ele>
        <time>2022-02-25T12:23:05Z</time>
      </trkpt>
      <trkpt lat="44.79798" lon="6.99167">
        <ele>2327.9</ele>
        <time>2022-02-25T12:23:06Z</time>
      </trkpt>
      <trkpt lat="44.79798" lon="6.99167">
        <ele>2327.9</ele>
        <time>2022-02-25T12:23:07Z</time>
      </trkpt>
      <trkpt lat="44.79798" lon="6.9917">
        <ele>2328.2</ele>
        <time>2022-02-25T12:23:08Z</time>
      </trkpt>
      <trkpt lat="44.79798" lon="6.9917">
        <ele>2328.2</ele>
        <time>2022-02-25T12:23:09Z</time>
      </trkpt>
      <trkpt lat="44.79798" lon="6.9917">
        <ele>2328.2</ele>
        <time>2022-02-25T12:23:10Z</time>
      </trkpt>
      <trkpt lat="44.798" lon="6.99172">
        <ele>2328.7</ele>
        <time>2022-02-25T12:23:11Z</time>
      </trkpt>
      <trkpt lat="44.798" lon="6.99172">
        <ele>2328.7</ele>
        <time>2022-02-25T12:23:12Z</time>
      </trkpt>
      <trkpt lat="44.798" lon="6.99172">
        <ele>2328.7</ele>
        <time>2022-02-25T12:23:13Z</time>
      </trkpt>
      <trkpt lat="44.79801" lon="6.99175">
        <ele>2329</ele>
        <time>2022-02-25T12:23:14Z</time>
      </trkpt>
      <trkpt lat="44.79801" lon="6.99175">
        <ele>2329</ele>
        <time>2022-02-25T12:23:15Z</time>
      </trkpt>
      <trkpt lat="44.79801" lon="6.99175">
        <ele>2329</ele>
        <time>2022-02-25T12:23:16Z</time>
      </trkpt>
      <trkpt lat="44.79801" lon="6.99175">
        <ele>2329</ele>
        <time>2022-02-25T12:23:17Z</time>
      </trkpt>
      <trkpt lat="44.79801" lon="6.99178">
        <ele>2329.3</ele>
        <time>2022-02-25T12:23:18Z</time>
      </trkpt>
      <trkpt lat="44.79801" lon="6.99178">
        <ele>2329.3</ele>
        <time>2022-02-25T12:23:19Z</time>
      </trkpt>
      <trkpt lat="44.79801" lon="6.99178">
        <ele>2329.3</ele>
        <time>2022-02-25T12:23:20Z</time>
      </trkpt>
      <trkpt lat="44.79801" lon="6.99178">
        <ele>2329.3</ele>
        <time>2022-02-25T12:23:21Z</time>
      </trkpt>
      <trkpt lat="44.79802" lon="6.99181">
        <ele>2329.7</ele>
        <time>2022-02-25T12:23:22Z</time>
      </trkpt>
      <trkpt lat="44.79802" lon="6.99181">
        <ele>2329.7</ele>
        <time>2022-02-25T12:23:23Z</time>
      </trkpt>
      <trkpt lat="44.79802" lon="6.99181">
        <ele>2329.7</ele>
        <time>2022-02-25T12:23:24Z</time>
      </trkpt>
      <trkpt lat="44.79802" lon="6.99181">
        <ele>2329.7</ele>
        <time>2022-02-25T12:23:25Z</time>
      </trkpt>
      <trkpt lat="44.79802" lon="6.99184">
        <ele>2329.9</ele>
        <time>2022-02-25T12:23:26Z</time>
      </trkpt>
      <trkpt lat="44.79802" lon="6.99184">
        <ele>2329.9</ele>
        <time>2022-02-25T12:23:27Z</time>
      </trkpt>
      <trkpt lat="44.79802" lon="6.99184">
        <ele>2329.9</ele>
        <time>2022-02-25T12:23:28Z</time>
      </trkpt>
      <trkpt lat="44.79803" lon="6.99186">
        <ele>2330.2</ele>
        <time>2022-02-25T12:23:29Z</time>
      </trkpt>
      <trkpt lat="44.79803" lon="6.99186">
        <ele>2330.2</ele>
        <time>2022-02-25T12:23:30Z</time>
      </trkpt>
      <trkpt lat="44.79803" lon="6.99186">
        <ele>2330.2</ele>
        <time>2022-02-25T12:23:31Z</time>
      </trkpt>
      <trkpt lat="44.79804" lon="6.99189">
        <ele>2330.5</ele>
        <time>2022-02-25T12:23:32Z</time>
      </trkpt>
      <trkpt lat="44.79804" lon="6.99189">
        <ele>2330.5</ele>
        <time>2022-02-25T12:23:33Z</time>
      </trkpt>
      <trkpt lat="44.79804" lon="6.99189">
        <ele>2330.5</ele>
        <time>2022-02-25T12:23:34Z</time>
      </trkpt>
      <trkpt lat="44.79804" lon="6.99189">
        <ele>2330.5</ele>
        <time>2022-02-25T12:23:35Z</time>
      </trkpt>
      <trkpt lat="44.79805" lon="6.99192">
        <ele>2330.8</ele>
        <time>2022-02-25T12:23:36Z</time>
      </trkpt>
      <trkpt lat="44.79805" lon="6.99192">
        <ele>2330.8</ele>
        <time>2022-02-25T12:23:37Z</time>
      </trkpt>
      <trkpt lat="44.79805" lon="6.99192">
        <ele>2330.8</ele>
        <time>2022-02-25T12:23:38Z</time>
      </trkpt>
      <trkpt lat="44.79806" lon="6.99194">
        <ele>2331</ele>
        <time>2022-02-25T12:23:39Z</time>
      </trkpt>
      <trkpt lat="44.79806" lon="6.99194">
        <ele>2331</ele>
        <time>2022-02-25T12:23:40Z</time>
      </trkpt>
      <trkpt lat="44.79806" lon="6.99194">
        <ele>2331</ele>
        <time>2022-02-25T12:23:41Z</time>
      </trkpt>
      <trkpt lat="44.79806" lon="6.99197">
        <ele>2331.3</ele>
        <time>2022-02-25T12:23:42Z</time>
      </trkpt>
      <trkpt lat="44.79806" lon="6.99197">
        <ele>2331.3</ele>
        <time>2022-02-25T12:23:43Z</time>
      </trkpt>
      <trkpt lat="44.79806" lon="6.99197">
        <ele>2331.3</ele>
        <time>2022-02-25T12:23:44Z</time>
      </trkpt>
      <trkpt lat="44.79806" lon="6.992">
        <ele>2331.6</ele>
        <time>2022-02-25T12:23:45Z</time>
      </trkpt>
      <trkpt lat="44.79806" lon="6.992">
        <ele>2331.6</ele>
        <time>2022-02-25T12:23:46Z</time>
      </trkpt>
      <trkpt lat="44.79806" lon="6.992">
        <ele>2331.6</ele>
        <time>2022-02-25T12:23:47Z</time>
      </trkpt>
      <trkpt lat="44.79806" lon="6.99203">
        <ele>2331.9</ele>
        <time>2022-02-25T12:23:48Z</time>
      </trkpt>
      <trkpt lat="44.79806" lon="6.99203">
        <ele>2331.9</ele>
        <time>2022-02-25T12:23:49Z</time>
      </trkpt>
      <trkpt lat="44.79806" lon="6.99203">
        <ele>2331.9</ele>
        <time>2022-02-25T12:23:50Z</time>
      </trkpt>
      <trkpt lat="44.79806" lon="6.99206">
        <ele>2332.3</ele>
        <time>2022-02-25T12:23:51Z</time>
      </trkpt>
      <trkpt lat="44.79806" lon="6.99206">
        <ele>2332.3</ele>
        <time>2022-02-25T12:23:52Z</time>
      </trkpt>
      <trkpt lat="44.79806" lon="6.99206">
        <ele>2332.3</ele>
        <time>2022-02-25T12:23:53Z</time>
      </trkpt>
      <trkpt lat="44.79807" lon="6.99209">
        <ele>2332.6</ele>
        <time>2022-02-25T12:23:54Z</time>
      </trkpt>
      <trkpt lat="44.79807" lon="6.99209">
        <ele>2332.6</ele>
        <time>2022-02-25T12:23:55Z</time>
      </trkpt>
      <trkpt lat="44.79807" lon="6.99209">
        <ele>2332.6</ele>
        <time>2022-02-25T12:23:56Z</time>
      </trkpt>
      <trkpt lat="44.79807" lon="6.99212">
        <ele>2332.9</ele>
        <time>2022-02-25T12:23:57Z</time>
      </trkpt>
      <trkpt lat="44.79807" lon="6.99212">
        <ele>2332.9</ele>
        <time>2022-02-25T12:23:58Z</time>
      </trkpt>
      <trkpt lat="44.79807" lon="6.99212">
        <ele>2332.9</ele>
        <time>2022-02-25T12:23:59Z</time>
      </trkpt>
      <trkpt lat="44.79807" lon="6.99215">
        <ele>2333.2</ele>
        <time>2022-02-25T12:24:00Z</time>
      </trkpt>
      <trkpt lat="44.79807" lon="6.99215">
        <ele>2333.2</ele>
        <time>2022-02-25T12:24:01Z</time>
      </trkpt>
      <trkpt lat="44.79807" lon="6.99215">
        <ele>2333.2</ele>
        <time>2022-02-25T12:24:02Z</time>
      </trkpt>
      <trkpt lat="44.79807" lon="6.99218">
        <ele>2333.6</ele>
        <time>2022-02-25T12:24:03Z</time>
      </trkpt>
      <trkpt lat="44.79807" lon="6.99218">
        <ele>2333.6</ele>
        <time>2022-02-25T12:24:04Z</time>
      </trkpt>
      <trkpt lat="44.79807" lon="6.99218">
        <ele>2333.6</ele>
        <time>2022-02-25T12:24:05Z</time>
      </trkpt>
      <trkpt lat="44.79806" lon="6.99221">
        <ele>2333.9</ele>
        <time>2022-02-25T12:24:06Z</time>
      </trkpt>
      <trkpt lat="44.79806" lon="6.99221">
        <ele>2333.9</ele>
        <time>2022-02-25T12:24:07Z</time>
      </trkpt>
      <trkpt lat="44.79806" lon="6.99221">
        <ele>2333.9</ele>
        <time>2022-02-25T12:24:08Z</time>
      </trkpt>
      <trkpt lat="44.79806" lon="6.99224">
        <ele>2334.1</ele>
        <time>2022-02-25T12:24:09Z</time>
      </trkpt>
      <trkpt lat="44.79806" lon="6.99224">
        <ele>2334.1</ele>
        <time>2022-02-25T12:24:10Z</time>
      </trkpt>
      <trkpt lat="44.79806" lon="6.99224">
        <ele>2334.1</ele>
        <time>2022-02-25T12:24:11Z</time>
      </trkpt>
      <trkpt lat="44.79806" lon="6.99228">
        <ele>2334.4</ele>
        <time>2022-02-25T12:24:12Z</time>
      </trkpt>
      <trkpt lat="44.79806" lon="6.99228">
        <ele>2334.4</ele>
        <time>2022-02-25T12:24:13Z</time>
      </trkpt>
      <trkpt lat="44.79806" lon="6.99228">
        <ele>2334.4</ele>
        <time>2022-02-25T12:24:14Z</time>
      </trkpt>
      <trkpt lat="44.79805" lon="6.99231">
        <ele>2334.6</ele>
        <time>2022-02-25T12:24:15Z</time>
      </trkpt>
      <trkpt lat="44.79805" lon="6.99231">
        <ele>2334.6</ele>
        <time>2022-02-25T12:24:16Z</time>
      </trkpt>
      <trkpt lat="44.79805" lon="6.99231">
        <ele>2334.6</ele>
        <time>2022-02-25T12:24:17Z</time>
      </trkpt>
      <trkpt lat="44.79804" lon="6.99234">
        <ele>2334.8</ele>
        <time>2022-02-25T12:24:18Z</time>
      </trkpt>
      <trkpt lat="44.79804" lon="6.99234">
        <ele>2334.8</ele>
        <time>2022-02-25T12:24:19Z</time>
      </trkpt>
      <trkpt lat="44.79804" lon="6.99234">
        <ele>2334.8</ele>
        <time>2022-02-25T12:24:20Z</time>
      </trkpt>
      <trkpt lat="44.79803" lon="6.99237">
        <ele>2334.9</ele>
        <time>2022-02-25T12:24:21Z</time>
      </trkpt>
      <trkpt lat="44.79803" lon="6.99237">
        <ele>2334.9</ele>
        <time>2022-02-25T12:24:22Z</time>
      </trkpt>
      <trkpt lat="44.79803" lon="6.99237">
        <ele>2334.9</ele>
        <time>2022-02-25T12:24:23Z</time>
      </trkpt>
      <trkpt lat="44.79802" lon="6.99239">
        <ele>2335</ele>
        <time>2022-02-25T12:24:24Z</time>
      </trkpt>
      <trkpt lat="44.79802" lon="6.99239">
        <ele>2335</ele>
        <time>2022-02-25T12:24:25Z</time>
      </trkpt>
      <trkpt lat="44.79802" lon="6.99239">
        <ele>2335</ele>
        <time>2022-02-25T12:24:26Z</time>
      </trkpt>
      <trkpt lat="44.79801" lon="6.99242">
        <ele>2335.2</ele>
        <time>2022-02-25T12:24:27Z</time>
      </trkpt>
      <trkpt lat="44.79801" lon="6.99242">
        <ele>2335.2</ele>
        <time>2022-02-25T12:24:28Z</time>
      </trkpt>
      <trkpt lat="44.79801" lon="6.99242">
        <ele>2335.2</ele>
        <time>2022-02-25T12:24:29Z</time>
      </trkpt>
      <trkpt lat="44.798" lon="6.99245">
        <ele>2335.4</ele>
        <time>2022-02-25T12:24:30Z</time>
      </trkpt>
      <trkpt lat="44.798" lon="6.99245">
        <ele>2335.4</ele>
        <time>2022-02-25T12:24:31Z</time>
      </trkpt>
      <trkpt lat="44.798" lon="6.99245">
        <ele>2335.4</ele>
        <time>2022-02-25T12:24:32Z</time>
      </trkpt>
      <trkpt lat="44.79798" lon="6.99248">
        <ele>2335.6</ele>
        <time>2022-02-25T12:24:33Z</time>
      </trkpt>
      <trkpt lat="44.79798" lon="6.99248">
        <ele>2335.6</ele>
        <time>2022-02-25T12:24:34Z</time>
      </trkpt>
      <trkpt lat="44.79798" lon="6.99248">
        <ele>2335.6</ele>
        <time>2022-02-25T12:24:35Z</time>
      </trkpt>
      <trkpt lat="44.79797" lon="6.9925">
        <ele>2335.7</ele>
        <time>2022-02-25T12:24:36Z</time>
      </trkpt>
      <trkpt lat="44.79797" lon="6.9925">
        <ele>2335.7</ele>
        <time>2022-02-25T12:24:37Z</time>
      </trkpt>
      <trkpt lat="44.79797" lon="6.9925">
        <ele>2335.7</ele>
        <time>2022-02-25T12:24:38Z</time>
      </trkpt>
      <trkpt lat="44.79797" lon="6.99253">
        <ele>2336</ele>
        <time>2022-02-25T12:24:39Z</time>
      </trkpt>
      <trkpt lat="44.79797" lon="6.99253">
        <ele>2336</ele>
        <time>2022-02-25T12:24:40Z</time>
      </trkpt>
      <trkpt lat="44.79797" lon="6.99253">
        <ele>2336</ele>
        <time>2022-02-25T12:24:41Z</time>
      </trkpt>
      <trkpt lat="44.79796" lon="6.99256">
        <ele>2336.3</ele>
        <time>2022-02-25T12:24:42Z</time>
      </trkpt>
      <trkpt lat="44.79796" lon="6.99256">
        <ele>2336.3</ele>
        <time>2022-02-25T12:24:43Z</time>
      </trkpt>
      <trkpt lat="44.79796" lon="6.99256">
        <ele>2336.3</ele>
        <time>2022-02-25T12:24:44Z</time>
      </trkpt>
      <trkpt lat="44.79795" lon="6.99259">
        <ele>2336.6</ele>
        <time>2022-02-25T12:24:45Z</time>
      </trkpt>
      <trkpt lat="44.79795" lon="6.99259">
        <ele>2336.6</ele>
        <time>2022-02-25T12:24:46Z</time>
      </trkpt>
      <trkpt lat="44.79795" lon="6.99259">
        <ele>2336.6</ele>
        <time>2022-02-25T12:24:47Z</time>
      </trkpt>
      <trkpt lat="44.79794" lon="6.99261">
        <ele>2336.8</ele>
        <time>2022-02-25T12:24:48Z</time>
      </trkpt>
      <trkpt lat="44.79794" lon="6.99261">
        <ele>2336.8</ele>
        <time>2022-02-25T12:24:49Z</time>
      </trkpt>
      <trkpt lat="44.79793" lon="6.99263">
        <ele>2337</ele>
        <time>2022-02-25T12:24:50Z</time>
      </trkpt>
      <trkpt lat="44.79793" lon="6.99263">
        <ele>2337</ele>
        <time>2022-02-25T12:24:51Z</time>
      </trkpt>
      <trkpt lat="44.79793" lon="6.99263">
        <ele>2337</ele>
        <time>2022-02-25T12:24:52Z</time>
      </trkpt>
      <trkpt lat="44.79791" lon="6.99266">
        <ele>2337.2</ele>
        <time>2022-02-25T12:24:53Z</time>
      </trkpt>
      <trkpt lat="44.79791" lon="6.99266">
        <ele>2337.2</ele>
        <time>2022-02-25T12:24:54Z</time>
      </trkpt>
      <trkpt lat="44.79791" lon="6.99266">
        <ele>2337.2</ele>
        <time>2022-02-25T12:24:55Z</time>
      </trkpt>
      <trkpt lat="44.7979" lon="6.99269">
        <ele>2337.5</ele>
        <time>2022-02-25T12:24:56Z</time>
      </trkpt>
      <trkpt lat="44.7979" lon="6.99269">
        <ele>2337.5</ele>
        <time>2022-02-25T12:24:57Z</time>
      </trkpt>
      <trkpt lat="44.79789" lon="6.99271">
        <ele>2337.7</ele>
        <time>2022-02-25T12:24:58Z</time>
      </trkpt>
      <trkpt lat="44.79789" lon="6.99271">
        <ele>2337.7</ele>
        <time>2022-02-25T12:24:59Z</time>
      </trkpt>
      <trkpt lat="44.79789" lon="6.99271">
        <ele>2337.7</ele>
        <time>2022-02-25T12:25:00Z</time>
      </trkpt>
      <trkpt lat="44.79789" lon="6.99271">
        <ele>2337.7</ele>
        <time>2022-02-25T12:25:01Z</time>
      </trkpt>
      <trkpt lat="44.79787" lon="6.99273">
        <ele>2337.8</ele>
        <time>2022-02-25T12:25:02Z</time>
      </trkpt>
      <trkpt lat="44.79787" lon="6.99273">
        <ele>2337.8</ele>
        <time>2022-02-25T12:25:03Z</time>
      </trkpt>
      <trkpt lat="44.79787" lon="6.99273">
        <ele>2337.8</ele>
        <time>2022-02-25T12:25:04Z</time>
      </trkpt>
      <trkpt lat="44.79785" lon="6.99275">
        <ele>2338</ele>
        <time>2022-02-25T12:25:05Z</time>
      </trkpt>
      <trkpt lat="44.79785" lon="6.99275">
        <ele>2338</ele>
        <time>2022-02-25T12:25:06Z</time>
      </trkpt>
      <trkpt lat="44.79785" lon="6.99275">
        <ele>2338</ele>
        <time>2022-02-25T12:25:07Z</time>
      </trkpt>
      <trkpt lat="44.79785" lon="6.99275">
        <ele>2338</ele>
        <time>2022-02-25T12:25:08Z</time>
      </trkpt>
      <trkpt lat="44.79784" lon="6.99277">
        <ele>2338.1</ele>
        <time>2022-02-25T12:25:09Z</time>
      </trkpt>
      <trkpt lat="44.79784" lon="6.99277">
        <ele>2338.1</ele>
        <time>2022-02-25T12:25:10Z</time>
      </trkpt>
      <trkpt lat="44.79784" lon="6.99277">
        <ele>2338.1</ele>
        <time>2022-02-25T12:25:11Z</time>
      </trkpt>
      <trkpt lat="44.79782" lon="6.99279">
        <ele>2338.3</ele>
        <time>2022-02-25T12:25:12Z</time>
      </trkpt>
      <trkpt lat="44.79782" lon="6.99279">
        <ele>2338.3</ele>
        <time>2022-02-25T12:25:13Z</time>
      </trkpt>
      <trkpt lat="44.79782" lon="6.99279">
        <ele>2338.3</ele>
        <time>2022-02-25T12:25:14Z</time>
      </trkpt>
      <trkpt lat="44.7978" lon="6.99281">
        <ele>2338.5</ele>
        <time>2022-02-25T12:25:15Z</time>
      </trkpt>
      <trkpt lat="44.7978" lon="6.99281">
        <ele>2338.5</ele>
        <time>2022-02-25T12:25:16Z</time>
      </trkpt>
      <trkpt lat="44.7978" lon="6.99281">
        <ele>2338.5</ele>
        <time>2022-02-25T12:25:17Z</time>
      </trkpt>
      <trkpt lat="44.7978" lon="6.99281">
        <ele>2338.5</ele>
        <time>2022-02-25T12:25:18Z</time>
      </trkpt>
      <trkpt lat="44.79779" lon="6.99284">
        <ele>2338.9</ele>
        <time>2022-02-25T12:25:19Z</time>
      </trkpt>
      <trkpt lat="44.79779" lon="6.99284">
        <ele>2338.9</ele>
        <time>2022-02-25T12:25:20Z</time>
      </trkpt>
      <trkpt lat="44.79779" lon="6.99284">
        <ele>2338.9</ele>
        <time>2022-02-25T12:25:21Z</time>
      </trkpt>
      <trkpt lat="44.79778" lon="6.99287">
        <ele>2339.3</ele>
        <time>2022-02-25T12:25:22Z</time>
      </trkpt>
      <trkpt lat="44.79778" lon="6.99287">
        <ele>2339.3</ele>
        <time>2022-02-25T12:25:23Z</time>
      </trkpt>
      <trkpt lat="44.79778" lon="6.99287">
        <ele>2339.3</ele>
        <time>2022-02-25T12:25:24Z</time>
      </trkpt>
      <trkpt lat="44.79777" lon="6.9929">
        <ele>2339.8</ele>
        <time>2022-02-25T12:25:25Z</time>
      </trkpt>
      <trkpt lat="44.79777" lon="6.9929">
        <ele>2339.8</ele>
        <time>2022-02-25T12:25:26Z</time>
      </trkpt>
      <trkpt lat="44.79777" lon="6.9929">
        <ele>2339.8</ele>
        <time>2022-02-25T12:25:27Z</time>
      </trkpt>
      <trkpt lat="44.79776" lon="6.99292">
        <ele>2340.2</ele>
        <time>2022-02-25T12:25:28Z</time>
      </trkpt>
      <trkpt lat="44.79776" lon="6.99292">
        <ele>2340.2</ele>
        <time>2022-02-25T12:25:29Z</time>
      </trkpt>
      <trkpt lat="44.79776" lon="6.99292">
        <ele>2340.2</ele>
        <time>2022-02-25T12:25:30Z</time>
      </trkpt>
      <trkpt lat="44.79774" lon="6.99295">
        <ele>2340.8</ele>
        <time>2022-02-25T12:25:31Z</time>
      </trkpt>
      <trkpt lat="44.79774" lon="6.99295">
        <ele>2340.8</ele>
        <time>2022-02-25T12:25:32Z</time>
      </trkpt>
      <trkpt lat="44.79774" lon="6.99295">
        <ele>2340.8</ele>
        <time>2022-02-25T12:25:33Z</time>
      </trkpt>
      <trkpt lat="44.79773" lon="6.99297">
        <ele>2341.2</ele>
        <time>2022-02-25T12:25:34Z</time>
      </trkpt>
      <trkpt lat="44.79773" lon="6.99297">
        <ele>2341.2</ele>
        <time>2022-02-25T12:25:35Z</time>
      </trkpt>
      <trkpt lat="44.79773" lon="6.99297">
        <ele>2341.2</ele>
        <time>2022-02-25T12:25:36Z</time>
      </trkpt>
      <trkpt lat="44.79773" lon="6.99297">
        <ele>2341.2</ele>
        <time>2022-02-25T12:25:37Z</time>
      </trkpt>
      <trkpt lat="44.79771" lon="6.99299">
        <ele>2341.6</ele>
        <time>2022-02-25T12:25:38Z</time>
      </trkpt>
      <trkpt lat="44.79771" lon="6.99299">
        <ele>2341.6</ele>
        <time>2022-02-25T12:25:39Z</time>
      </trkpt>
      <trkpt lat="44.79771" lon="6.99299">
        <ele>2341.6</ele>
        <time>2022-02-25T12:25:40Z</time>
      </trkpt>
      <trkpt lat="44.79771" lon="6.99299">
        <ele>2341.6</ele>
        <time>2022-02-25T12:25:41Z</time>
      </trkpt>
      <trkpt lat="44.79769" lon="6.99301">
        <ele>2342</ele>
        <time>2022-02-25T12:25:42Z</time>
      </trkpt>
      <trkpt lat="44.79769" lon="6.99301">
        <ele>2342</ele>
        <time>2022-02-25T12:25:43Z</time>
      </trkpt>
      <trkpt lat="44.79769" lon="6.99301">
        <ele>2342</ele>
        <time>2022-02-25T12:25:44Z</time>
      </trkpt>
      <trkpt lat="44.79768" lon="6.99304">
        <ele>2342.5</ele>
        <time>2022-02-25T12:25:45Z</time>
      </trkpt>
      <trkpt lat="44.79768" lon="6.99304">
        <ele>2342.5</ele>
        <time>2022-02-25T12:25:46Z</time>
      </trkpt>
      <trkpt lat="44.79768" lon="6.99304">
        <ele>2342.5</ele>
        <time>2022-02-25T12:25:47Z</time>
      </trkpt>
      <trkpt lat="44.79766" lon="6.99306">
        <ele>2342.9</ele>
        <time>2022-02-25T12:25:48Z</time>
      </trkpt>
      <trkpt lat="44.79766" lon="6.99306">
        <ele>2342.9</ele>
        <time>2022-02-25T12:25:49Z</time>
      </trkpt>
      <trkpt lat="44.79766" lon="6.99306">
        <ele>2342.9</ele>
        <time>2022-02-25T12:25:50Z</time>
      </trkpt>
      <trkpt lat="44.79765" lon="6.99308">
        <ele>2343.2</ele>
        <time>2022-02-25T12:25:51Z</time>
      </trkpt>
      <trkpt lat="44.79765" lon="6.99308">
        <ele>2343.2</ele>
        <time>2022-02-25T12:25:52Z</time>
      </trkpt>
      <trkpt lat="44.79765" lon="6.99308">
        <ele>2343.2</ele>
        <time>2022-02-25T12:25:53Z</time>
      </trkpt>
      <trkpt lat="44.79765" lon="6.99308">
        <ele>2343.2</ele>
        <time>2022-02-25T12:25:54Z</time>
      </trkpt>
      <trkpt lat="44.79764" lon="6.9931">
        <ele>2343.6</ele>
        <time>2022-02-25T12:25:55Z</time>
      </trkpt>
      <trkpt lat="44.79764" lon="6.9931">
        <ele>2343.6</ele>
        <time>2022-02-25T12:25:56Z</time>
      </trkpt>
      <trkpt lat="44.79764" lon="6.9931">
        <ele>2343.6</ele>
        <time>2022-02-25T12:25:57Z</time>
      </trkpt>
      <trkpt lat="44.79763" lon="6.99313">
        <ele>2344</ele>
        <time>2022-02-25T12:25:58Z</time>
      </trkpt>
      <trkpt lat="44.79763" lon="6.99313">
        <ele>2344</ele>
        <time>2022-02-25T12:25:59Z</time>
      </trkpt>
      <trkpt lat="44.79763" lon="6.99313">
        <ele>2344</ele>
        <time>2022-02-25T12:26:00Z</time>
      </trkpt>
      <trkpt lat="44.79762" lon="6.99315">
        <ele>2344.3</ele>
        <time>2022-02-25T12:26:01Z</time>
      </trkpt>
      <trkpt lat="44.79762" lon="6.99315">
        <ele>2344.3</ele>
        <time>2022-02-25T12:26:02Z</time>
      </trkpt>
      <trkpt lat="44.79762" lon="6.99315">
        <ele>2344.3</ele>
        <time>2022-02-25T12:26:03Z</time>
      </trkpt>
      <trkpt lat="44.79762" lon="6.99315">
        <ele>2344.3</ele>
        <time>2022-02-25T12:26:04Z</time>
      </trkpt>
      <trkpt lat="44.7976" lon="6.99318">
        <ele>2344.8</ele>
        <time>2022-02-25T12:26:05Z</time>
      </trkpt>
      <trkpt lat="44.7976" lon="6.99318">
        <ele>2344.8</ele>
        <time>2022-02-25T12:26:06Z</time>
      </trkpt>
      <trkpt lat="44.7976" lon="6.99318">
        <ele>2344.8</ele>
        <time>2022-02-25T12:26:07Z</time>
      </trkpt>
      <trkpt lat="44.7976" lon="6.99318">
        <ele>2344.8</ele>
        <time>2022-02-25T12:26:08Z</time>
      </trkpt>
      <trkpt lat="44.7976" lon="6.99321">
        <ele>2345.1</ele>
        <time>2022-02-25T12:26:09Z</time>
      </trkpt>
      <trkpt lat="44.7976" lon="6.99321">
        <ele>2345.1</ele>
        <time>2022-02-25T12:26:10Z</time>
      </trkpt>
      <trkpt lat="44.7976" lon="6.99321">
        <ele>2345.1</ele>
        <time>2022-02-25T12:26:11Z</time>
      </trkpt>
      <trkpt lat="44.79759" lon="6.99324">
        <ele>2345.6</ele>
        <time>2022-02-25T12:26:12Z</time>
      </trkpt>
      <trkpt lat="44.79759" lon="6.99324">
        <ele>2345.6</ele>
        <time>2022-02-25T12:26:13Z</time>
      </trkpt>
      <trkpt lat="44.79759" lon="6.99324">
        <ele>2345.6</ele>
        <time>2022-02-25T12:26:14Z</time>
      </trkpt>
      <trkpt lat="44.79759" lon="6.99324">
        <ele>2345.6</ele>
        <time>2022-02-25T12:26:15Z</time>
      </trkpt>
      <trkpt lat="44.79758" lon="6.99327">
        <ele>2346</ele>
        <time>2022-02-25T12:26:16Z</time>
      </trkpt>
      <trkpt lat="44.79758" lon="6.99327">
        <ele>2346</ele>
        <time>2022-02-25T12:26:17Z</time>
      </trkpt>
      <trkpt lat="44.79758" lon="6.99327">
        <ele>2346</ele>
        <time>2022-02-25T12:26:18Z</time>
      </trkpt>
      <trkpt lat="44.79758" lon="6.99327">
        <ele>2346</ele>
        <time>2022-02-25T12:26:19Z</time>
      </trkpt>
      <trkpt lat="44.79757" lon="6.9933">
        <ele>2346.4</ele>
        <time>2022-02-25T12:26:20Z</time>
      </trkpt>
      <trkpt lat="44.79757" lon="6.9933">
        <ele>2346.4</ele>
        <time>2022-02-25T12:26:21Z</time>
      </trkpt>
      <trkpt lat="44.79757" lon="6.9933">
        <ele>2346.4</ele>
        <time>2022-02-25T12:26:22Z</time>
      </trkpt>
      <trkpt lat="44.79757" lon="6.99333">
        <ele>2346.7</ele>
        <time>2022-02-25T12:26:23Z</time>
      </trkpt>
      <trkpt lat="44.79757" lon="6.99333">
        <ele>2346.7</ele>
        <time>2022-02-25T12:26:24Z</time>
      </trkpt>
      <trkpt lat="44.79757" lon="6.99333">
        <ele>2346.7</ele>
        <time>2022-02-25T12:26:25Z</time>
      </trkpt>
      <trkpt lat="44.79756" lon="6.99336">
        <ele>2347.2</ele>
        <time>2022-02-25T12:26:26Z</time>
      </trkpt>
      <trkpt lat="44.79756" lon="6.99336">
        <ele>2347.2</ele>
        <time>2022-02-25T12:26:27Z</time>
      </trkpt>
      <trkpt lat="44.79756" lon="6.99336">
        <ele>2347.2</ele>
        <time>2022-02-25T12:26:28Z</time>
      </trkpt>
      <trkpt lat="44.79755" lon="6.99338">
        <ele>2347.5</ele>
        <time>2022-02-25T12:26:29Z</time>
      </trkpt>
      <trkpt lat="44.79755" lon="6.99338">
        <ele>2347.5</ele>
        <time>2022-02-25T12:26:30Z</time>
      </trkpt>
      <trkpt lat="44.79755" lon="6.99338">
        <ele>2347.5</ele>
        <time>2022-02-25T12:26:31Z</time>
      </trkpt>
      <trkpt lat="44.79754" lon="6.99341">
        <ele>2348</ele>
        <time>2022-02-25T12:26:32Z</time>
      </trkpt>
      <trkpt lat="44.79754" lon="6.99341">
        <ele>2348</ele>
        <time>2022-02-25T12:26:33Z</time>
      </trkpt>
      <trkpt lat="44.79754" lon="6.99341">
        <ele>2348</ele>
        <time>2022-02-25T12:26:34Z</time>
      </trkpt>
      <trkpt lat="44.79754" lon="6.99341">
        <ele>2348</ele>
        <time>2022-02-25T12:26:35Z</time>
      </trkpt>
      <trkpt lat="44.79753" lon="6.99344">
        <ele>2348.4</ele>
        <time>2022-02-25T12:26:36Z</time>
      </trkpt>
      <trkpt lat="44.79753" lon="6.99344">
        <ele>2348.4</ele>
        <time>2022-02-25T12:26:37Z</time>
      </trkpt>
      <trkpt lat="44.79753" lon="6.99344">
        <ele>2348.4</ele>
        <time>2022-02-25T12:26:38Z</time>
      </trkpt>
      <trkpt lat="44.79753" lon="6.99344">
        <ele>2348.4</ele>
        <time>2022-02-25T12:26:39Z</time>
      </trkpt>
      <trkpt lat="44.79752" lon="6.99347">
        <ele>2348.9</ele>
        <time>2022-02-25T12:26:40Z</time>
      </trkpt>
      <trkpt lat="44.79752" lon="6.99347">
        <ele>2348.9</ele>
        <time>2022-02-25T12:26:41Z</time>
      </trkpt>
      <trkpt lat="44.79752" lon="6.99347">
        <ele>2348.9</ele>
        <time>2022-02-25T12:26:42Z</time>
      </trkpt>
      <trkpt lat="44.79752" lon="6.99347">
        <ele>2348.9</ele>
        <time>2022-02-25T12:26:43Z</time>
      </trkpt>
      <trkpt lat="44.79752" lon="6.9935">
        <ele>2349.3</ele>
        <time>2022-02-25T12:26:44Z</time>
      </trkpt>
      <trkpt lat="44.79752" lon="6.9935">
        <ele>2349.3</ele>
        <time>2022-02-25T12:26:45Z</time>
      </trkpt>
      <trkpt lat="44.79752" lon="6.9935">
        <ele>2349.3</ele>
        <time>2022-02-25T12:26:46Z</time>
      </trkpt>
      <trkpt lat="44.79752" lon="6.9935">
        <ele>2349.3</ele>
        <time>2022-02-25T12:26:47Z</time>
      </trkpt>
      <trkpt lat="44.79752" lon="6.99353">
        <ele>2349.8</ele>
        <time>2022-02-25T12:26:48Z</time>
      </trkpt>
      <trkpt lat="44.79752" lon="6.99353">
        <ele>2349.8</ele>
        <time>2022-02-25T12:26:49Z</time>
      </trkpt>
      <trkpt lat="44.79752" lon="6.99353">
        <ele>2349.8</ele>
        <time>2022-02-25T12:26:50Z</time>
      </trkpt>
      <trkpt lat="44.79752" lon="6.99356">
        <ele>2350.2</ele>
        <time>2022-02-25T12:26:51Z</time>
      </trkpt>
      <trkpt lat="44.79752" lon="6.99356">
        <ele>2350.2</ele>
        <time>2022-02-25T12:26:52Z</time>
      </trkpt>
      <trkpt lat="44.79752" lon="6.99356">
        <ele>2350.2</ele>
        <time>2022-02-25T12:26:53Z</time>
      </trkpt>
      <trkpt lat="44.7975" lon="6.99358">
        <ele>2350.6</ele>
        <time>2022-02-25T12:26:54Z</time>
      </trkpt>
      <trkpt lat="44.7975" lon="6.99358">
        <ele>2350.6</ele>
        <time>2022-02-25T12:26:55Z</time>
      </trkpt>
      <trkpt lat="44.7975" lon="6.99358">
        <ele>2350.6</ele>
        <time>2022-02-25T12:26:56Z</time>
      </trkpt>
      <trkpt lat="44.7975" lon="6.99361">
        <ele>2351</ele>
        <time>2022-02-25T12:26:57Z</time>
      </trkpt>
      <trkpt lat="44.7975" lon="6.99361">
        <ele>2351</ele>
        <time>2022-02-25T12:26:58Z</time>
      </trkpt>
      <trkpt lat="44.7975" lon="6.99361">
        <ele>2351</ele>
        <time>2022-02-25T12:26:59Z</time>
      </trkpt>
      <trkpt lat="44.7975" lon="6.99363">
        <ele>2351.3</ele>
        <time>2022-02-25T12:27:00Z</time>
      </trkpt>
      <trkpt lat="44.7975" lon="6.99363">
        <ele>2351.3</ele>
        <time>2022-02-25T12:27:01Z</time>
      </trkpt>
      <trkpt lat="44.7975" lon="6.99363">
        <ele>2351.3</ele>
        <time>2022-02-25T12:27:02Z</time>
      </trkpt>
      <trkpt lat="44.7975" lon="6.99363">
        <ele>2351.3</ele>
        <time>2022-02-25T12:27:03Z</time>
      </trkpt>
      <trkpt lat="44.79749" lon="6.99366">
        <ele>2351.8</ele>
        <time>2022-02-25T12:27:04Z</time>
      </trkpt>
      <trkpt lat="44.79749" lon="6.99366">
        <ele>2351.8</ele>
        <time>2022-02-25T12:27:05Z</time>
      </trkpt>
      <trkpt lat="44.79749" lon="6.99366">
        <ele>2351.8</ele>
        <time>2022-02-25T12:27:06Z</time>
      </trkpt>
      <trkpt lat="44.79749" lon="6.99369">
        <ele>2352.2</ele>
        <time>2022-02-25T12:27:07Z</time>
      </trkpt>
      <trkpt lat="44.79749" lon="6.99369">
        <ele>2352.2</ele>
        <time>2022-02-25T12:27:08Z</time>
      </trkpt>
      <trkpt lat="44.79749" lon="6.99369">
        <ele>2352.2</ele>
        <time>2022-02-25T12:27:09Z</time>
      </trkpt>
      <trkpt lat="44.79749" lon="6.99369">
        <ele>2352.2</ele>
        <time>2022-02-25T12:27:10Z</time>
      </trkpt>
      <trkpt lat="44.79748" lon="6.99372">
        <ele>2352.7</ele>
        <time>2022-02-25T12:27:11Z</time>
      </trkpt>
      <trkpt lat="44.79748" lon="6.99372">
        <ele>2352.7</ele>
        <time>2022-02-25T12:27:12Z</time>
      </trkpt>
      <trkpt lat="44.79748" lon="6.99372">
        <ele>2352.7</ele>
        <time>2022-02-25T12:27:13Z</time>
      </trkpt>
      <trkpt lat="44.79749" lon="6.99374">
        <ele>2352.9</ele>
        <time>2022-02-25T12:27:14Z</time>
      </trkpt>
      <trkpt lat="44.79749" lon="6.99374">
        <ele>2352.9</ele>
        <time>2022-02-25T12:27:15Z</time>
      </trkpt>
      <trkpt lat="44.79749" lon="6.99374">
        <ele>2352.9</ele>
        <time>2022-02-25T12:27:16Z</time>
      </trkpt>
      <trkpt lat="44.79749" lon="6.99374">
        <ele>2352.9</ele>
        <time>2022-02-25T12:27:17Z</time>
      </trkpt>
      <trkpt lat="44.79749" lon="6.99374">
        <ele>2352.9</ele>
        <time>2022-02-25T12:27:18Z</time>
      </trkpt>
      <trkpt lat="44.7975" lon="6.99377">
        <ele>2353.3</ele>
        <time>2022-02-25T12:27:19Z</time>
      </trkpt>
      <trkpt lat="44.7975" lon="6.99377">
        <ele>2353.3</ele>
        <time>2022-02-25T12:27:20Z</time>
      </trkpt>
      <trkpt lat="44.7975" lon="6.99377">
        <ele>2353.3</ele>
        <time>2022-02-25T12:27:21Z</time>
      </trkpt>
      <trkpt lat="44.7975" lon="6.99377">
        <ele>2353.3</ele>
        <time>2022-02-25T12:27:22Z</time>
      </trkpt>
      <trkpt lat="44.7975" lon="6.9938">
        <ele>2353.7</ele>
        <time>2022-02-25T12:27:23Z</time>
      </trkpt>
      <trkpt lat="44.7975" lon="6.9938">
        <ele>2353.7</ele>
        <time>2022-02-25T12:27:24Z</time>
      </trkpt>
      <trkpt lat="44.7975" lon="6.9938">
        <ele>2353.7</ele>
        <time>2022-02-25T12:27:25Z</time>
      </trkpt>
      <trkpt lat="44.7975" lon="6.9938">
        <ele>2353.7</ele>
        <time>2022-02-25T12:27:26Z</time>
      </trkpt>
      <trkpt lat="44.79749" lon="6.99384">
        <ele>2354.4</ele>
        <time>2022-02-25T12:27:27Z</time>
      </trkpt>
      <trkpt lat="44.79749" lon="6.99384">
        <ele>2354.4</ele>
        <time>2022-02-25T12:27:28Z</time>
      </trkpt>
      <trkpt lat="44.79749" lon="6.99384">
        <ele>2354.4</ele>
        <time>2022-02-25T12:27:29Z</time>
      </trkpt>
      <trkpt lat="44.79748" lon="6.99386">
        <ele>2354.7</ele>
        <time>2022-02-25T12:27:30Z</time>
      </trkpt>
      <trkpt lat="44.79748" lon="6.99386">
        <ele>2354.7</ele>
        <time>2022-02-25T12:27:31Z</time>
      </trkpt>
      <trkpt lat="44.79748" lon="6.99386">
        <ele>2354.7</ele>
        <time>2022-02-25T12:27:32Z</time>
      </trkpt>
      <trkpt lat="44.79748" lon="6.99386">
        <ele>2354.7</ele>
        <time>2022-02-25T12:27:33Z</time>
      </trkpt>
      <trkpt lat="44.79748" lon="6.99386">
        <ele>2354.7</ele>
        <time>2022-02-25T12:27:34Z</time>
      </trkpt>
      <trkpt lat="44.79748" lon="6.99388">
        <ele>2355</ele>
        <time>2022-02-25T12:27:35Z</time>
      </trkpt>
      <trkpt lat="44.79748" lon="6.99388">
        <ele>2355</ele>
        <time>2022-02-25T12:27:36Z</time>
      </trkpt>
      <trkpt lat="44.79748" lon="6.99388">
        <ele>2355</ele>
        <time>2022-02-25T12:27:37Z</time>
      </trkpt>
      <trkpt lat="44.79748" lon="6.99388">
        <ele>2355</ele>
        <time>2022-02-25T12:27:38Z</time>
      </trkpt>
      <trkpt lat="44.79748" lon="6.99388">
        <ele>2355</ele>
        <time>2022-02-25T12:27:39Z</time>
      </trkpt>
      <trkpt lat="44.79748" lon="6.99391">
        <ele>2355.4</ele>
        <time>2022-02-25T12:27:40Z</time>
      </trkpt>
      <trkpt lat="44.79748" lon="6.99391">
        <ele>2355.4</ele>
        <time>2022-02-25T12:27:41Z</time>
      </trkpt>
      <trkpt lat="44.79748" lon="6.99391">
        <ele>2355.4</ele>
        <time>2022-02-25T12:27:42Z</time>
      </trkpt>
      <trkpt lat="44.79748" lon="6.99394">
        <ele>2355.9</ele>
        <time>2022-02-25T12:27:43Z</time>
      </trkpt>
      <trkpt lat="44.79748" lon="6.99394">
        <ele>2355.9</ele>
        <time>2022-02-25T12:27:44Z</time>
      </trkpt>
      <trkpt lat="44.79748" lon="6.99394">
        <ele>2355.9</ele>
        <time>2022-02-25T12:27:45Z</time>
      </trkpt>
      <trkpt lat="44.79748" lon="6.99394">
        <ele>2355.9</ele>
        <time>2022-02-25T12:27:46Z</time>
      </trkpt>
      <trkpt lat="44.79748" lon="6.99397">
        <ele>2356.3</ele>
        <time>2022-02-25T12:27:47Z</time>
      </trkpt>
      <trkpt lat="44.79748" lon="6.99397">
        <ele>2356.3</ele>
        <time>2022-02-25T12:27:48Z</time>
      </trkpt>
      <trkpt lat="44.79748" lon="6.99397">
        <ele>2356.3</ele>
        <time>2022-02-25T12:27:49Z</time>
      </trkpt>
      <trkpt lat="44.79748" lon="6.99397">
        <ele>2356.3</ele>
        <time>2022-02-25T12:27:50Z</time>
      </trkpt>
      <trkpt lat="44.79748" lon="6.994">
        <ele>2356.7</ele>
        <time>2022-02-25T12:27:51Z</time>
      </trkpt>
      <trkpt lat="44.79748" lon="6.994">
        <ele>2356.7</ele>
        <time>2022-02-25T12:27:52Z</time>
      </trkpt>
      <trkpt lat="44.79748" lon="6.994">
        <ele>2356.7</ele>
        <time>2022-02-25T12:27:53Z</time>
      </trkpt>
      <trkpt lat="44.79748" lon="6.994">
        <ele>2356.7</ele>
        <time>2022-02-25T12:27:54Z</time>
      </trkpt>
      <trkpt lat="44.79747" lon="6.99403">
        <ele>2357.2</ele>
        <time>2022-02-25T12:27:55Z</time>
      </trkpt>
      <trkpt lat="44.79747" lon="6.99403">
        <ele>2357.2</ele>
        <time>2022-02-25T12:27:56Z</time>
      </trkpt>
      <trkpt lat="44.79747" lon="6.99403">
        <ele>2357.2</ele>
        <time>2022-02-25T12:27:57Z</time>
      </trkpt>
      <trkpt lat="44.79747" lon="6.99403">
        <ele>2357.2</ele>
        <time>2022-02-25T12:27:58Z</time>
      </trkpt>
      <trkpt lat="44.79746" lon="6.99406">
        <ele>2357.8</ele>
        <time>2022-02-25T12:27:59Z</time>
      </trkpt>
      <trkpt lat="44.79746" lon="6.99406">
        <ele>2357.8</ele>
        <time>2022-02-25T12:28:00Z</time>
      </trkpt>
      <trkpt lat="44.79746" lon="6.99406">
        <ele>2357.8</ele>
        <time>2022-02-25T12:28:01Z</time>
      </trkpt>
      <trkpt lat="44.79746" lon="6.99406">
        <ele>2357.8</ele>
        <time>2022-02-25T12:28:02Z</time>
      </trkpt>
      <trkpt lat="44.79745" lon="6.99409">
        <ele>2358.3</ele>
        <time>2022-02-25T12:28:03Z</time>
      </trkpt>
      <trkpt lat="44.79745" lon="6.99409">
        <ele>2358.3</ele>
        <time>2022-02-25T12:28:04Z</time>
      </trkpt>
      <trkpt lat="44.79745" lon="6.99409">
        <ele>2358.3</ele>
        <time>2022-02-25T12:28:05Z</time>
      </trkpt>
      <trkpt lat="44.79745" lon="6.99409">
        <ele>2358.3</ele>
        <time>2022-02-25T12:28:06Z</time>
      </trkpt>
      <trkpt lat="44.79744" lon="6.99412">
        <ele>2358.8</ele>
        <time>2022-02-25T12:28:07Z</time>
      </trkpt>
      <trkpt lat="44.79744" lon="6.99412">
        <ele>2358.8</ele>
        <time>2022-02-25T12:28:08Z</time>
      </trkpt>
      <trkpt lat="44.79744" lon="6.99412">
        <ele>2358.8</ele>
        <time>2022-02-25T12:28:09Z</time>
      </trkpt>
      <trkpt lat="44.79744" lon="6.99412">
        <ele>2358.8</ele>
        <time>2022-02-25T12:28:10Z</time>
      </trkpt>
      <trkpt lat="44.79743" lon="6.99414">
        <ele>2359.1</ele>
        <time>2022-02-25T12:28:11Z</time>
      </trkpt>
      <trkpt lat="44.79743" lon="6.99414">
        <ele>2359.1</ele>
        <time>2022-02-25T12:28:12Z</time>
      </trkpt>
      <trkpt lat="44.79743" lon="6.99414">
        <ele>2359.1</ele>
        <time>2022-02-25T12:28:13Z</time>
      </trkpt>
      <trkpt lat="44.79743" lon="6.99414">
        <ele>2359.1</ele>
        <time>2022-02-25T12:28:14Z</time>
      </trkpt>
      <trkpt lat="44.79742" lon="6.99417">
        <ele>2359.6</ele>
        <time>2022-02-25T12:28:15Z</time>
      </trkpt>
      <trkpt lat="44.79742" lon="6.99417">
        <ele>2359.6</ele>
        <time>2022-02-25T12:28:16Z</time>
      </trkpt>
      <trkpt lat="44.79742" lon="6.99417">
        <ele>2359.6</ele>
        <time>2022-02-25T12:28:17Z</time>
      </trkpt>
      <trkpt lat="44.79742" lon="6.99417">
        <ele>2359.6</ele>
        <time>2022-02-25T12:28:18Z</time>
      </trkpt>
      <trkpt lat="44.79742" lon="6.99417">
        <ele>2359.6</ele>
        <time>2022-02-25T12:28:19Z</time>
      </trkpt>
      <trkpt lat="44.79741" lon="6.9942">
        <ele>2360.4</ele>
        <time>2022-02-25T12:28:20Z</time>
      </trkpt>
      <trkpt lat="44.79741" lon="6.9942">
        <ele>2360.4</ele>
        <time>2022-02-25T12:28:21Z</time>
      </trkpt>
      <trkpt lat="44.79741" lon="6.9942">
        <ele>2360.4</ele>
        <time>2022-02-25T12:28:22Z</time>
      </trkpt>
      <trkpt lat="44.79741" lon="6.9942">
        <ele>2360.4</ele>
        <time>2022-02-25T12:28:23Z</time>
      </trkpt>
      <trkpt lat="44.7974" lon="6.99422">
        <ele>2360.9</ele>
        <time>2022-02-25T12:28:24Z</time>
      </trkpt>
      <trkpt lat="44.7974" lon="6.99422">
        <ele>2360.9</ele>
        <time>2022-02-25T12:28:25Z</time>
      </trkpt>
      <trkpt lat="44.7974" lon="6.99422">
        <ele>2360.9</ele>
        <time>2022-02-25T12:28:26Z</time>
      </trkpt>
      <trkpt lat="44.7974" lon="6.99422">
        <ele>2360.9</ele>
        <time>2022-02-25T12:28:27Z</time>
      </trkpt>
      <trkpt lat="44.79739" lon="6.99424">
        <ele>2361.3</ele>
        <time>2022-02-25T12:28:28Z</time>
      </trkpt>
      <trkpt lat="44.79739" lon="6.99424">
        <ele>2361.3</ele>
        <time>2022-02-25T12:28:29Z</time>
      </trkpt>
      <trkpt lat="44.79739" lon="6.99424">
        <ele>2361.3</ele>
        <time>2022-02-25T12:28:30Z</time>
      </trkpt>
      <trkpt lat="44.79739" lon="6.99424">
        <ele>2361.3</ele>
        <time>2022-02-25T12:28:31Z</time>
      </trkpt>
      <trkpt lat="44.79739" lon="6.99427">
        <ele>2362</ele>
        <time>2022-02-25T12:28:32Z</time>
      </trkpt>
      <trkpt lat="44.79739" lon="6.99427">
        <ele>2362</ele>
        <time>2022-02-25T12:28:33Z</time>
      </trkpt>
      <trkpt lat="44.79739" lon="6.99427">
        <ele>2362</ele>
        <time>2022-02-25T12:28:34Z</time>
      </trkpt>
      <trkpt lat="44.79739" lon="6.9943">
        <ele>2362.6</ele>
        <time>2022-02-25T12:28:35Z</time>
      </trkpt>
      <trkpt lat="44.79739" lon="6.9943">
        <ele>2362.6</ele>
        <time>2022-02-25T12:28:36Z</time>
      </trkpt>
      <trkpt lat="44.79739" lon="6.9943">
        <ele>2362.6</ele>
        <time>2022-02-25T12:28:37Z</time>
      </trkpt>
      <trkpt lat="44.79739" lon="6.9943">
        <ele>2362.6</ele>
        <time>2022-02-25T12:28:38Z</time>
      </trkpt>
      <trkpt lat="44.79738" lon="6.99432">
        <ele>2363</ele>
        <time>2022-02-25T12:28:39Z</time>
      </trkpt>
      <trkpt lat="44.79738" lon="6.99432">
        <ele>2363</ele>
        <time>2022-02-25T12:28:40Z</time>
      </trkpt>
      <trkpt lat="44.79738" lon="6.99432">
        <ele>2363</ele>
        <time>2022-02-25T12:28:41Z</time>
      </trkpt>
      <trkpt lat="44.79738" lon="6.99432">
        <ele>2363</ele>
        <time>2022-02-25T12:28:42Z</time>
      </trkpt>
      <trkpt lat="44.79737" lon="6.99435">
        <ele>2363.6</ele>
        <time>2022-02-25T12:28:43Z</time>
      </trkpt>
      <trkpt lat="44.79737" lon="6.99435">
        <ele>2363.6</ele>
        <time>2022-02-25T12:28:44Z</time>
      </trkpt>
      <trkpt lat="44.79737" lon="6.99435">
        <ele>2363.6</ele>
        <time>2022-02-25T12:28:45Z</time>
      </trkpt>
      <trkpt lat="44.79737" lon="6.99435">
        <ele>2363.6</ele>
        <time>2022-02-25T12:28:46Z</time>
      </trkpt>
      <trkpt lat="44.79736" lon="6.99438">
        <ele>2364.2</ele>
        <time>2022-02-25T12:28:47Z</time>
      </trkpt>
      <trkpt lat="44.79736" lon="6.99438">
        <ele>2364.2</ele>
        <time>2022-02-25T12:28:48Z</time>
      </trkpt>
      <trkpt lat="44.79736" lon="6.99438">
        <ele>2364.2</ele>
        <time>2022-02-25T12:28:49Z</time>
      </trkpt>
      <trkpt lat="44.79736" lon="6.99438">
        <ele>2364.2</ele>
        <time>2022-02-25T12:28:50Z</time>
      </trkpt>
      <trkpt lat="44.79736" lon="6.99441">
        <ele>2364.8</ele>
        <time>2022-02-25T12:28:51Z</time>
      </trkpt>
      <trkpt lat="44.79736" lon="6.99441">
        <ele>2364.8</ele>
        <time>2022-02-25T12:28:52Z</time>
      </trkpt>
      <trkpt lat="44.79736" lon="6.99441">
        <ele>2364.8</ele>
        <time>2022-02-25T12:28:53Z</time>
      </trkpt>
      <trkpt lat="44.79736" lon="6.99441">
        <ele>2364.8</ele>
        <time>2022-02-25T12:28:54Z</time>
      </trkpt>
      <trkpt lat="44.79735" lon="6.99444">
        <ele>2365.4</ele>
        <time>2022-02-25T12:28:55Z</time>
      </trkpt>
      <trkpt lat="44.79735" lon="6.99444">
        <ele>2365.4</ele>
        <time>2022-02-25T12:28:56Z</time>
      </trkpt>
      <trkpt lat="44.79735" lon="6.99444">
        <ele>2365.4</ele>
        <time>2022-02-25T12:28:57Z</time>
      </trkpt>
      <trkpt lat="44.79735" lon="6.99444">
        <ele>2365.4</ele>
        <time>2022-02-25T12:28:58Z</time>
      </trkpt>
      <trkpt lat="44.79735" lon="6.99444">
        <ele>2365.4</ele>
        <time>2022-02-25T12:28:59Z</time>
      </trkpt>
      <trkpt lat="44.79734" lon="6.99446">
        <ele>2365.7</ele>
        <time>2022-02-25T12:29:00Z</time>
      </trkpt>
      <trkpt lat="44.79734" lon="6.99446">
        <ele>2365.7</ele>
        <time>2022-02-25T12:29:01Z</time>
      </trkpt>
      <trkpt lat="44.79734" lon="6.99446">
        <ele>2365.7</ele>
        <time>2022-02-25T12:29:02Z</time>
      </trkpt>
      <trkpt lat="44.79734" lon="6.99446">
        <ele>2365.7</ele>
        <time>2022-02-25T12:29:03Z</time>
      </trkpt>
      <trkpt lat="44.79733" lon="6.99449">
        <ele>2366.1</ele>
        <time>2022-02-25T12:29:04Z</time>
      </trkpt>
      <trkpt lat="44.79733" lon="6.99449">
        <ele>2366.1</ele>
        <time>2022-02-25T12:29:05Z</time>
      </trkpt>
      <trkpt lat="44.79733" lon="6.99449">
        <ele>2366.1</ele>
        <time>2022-02-25T12:29:06Z</time>
      </trkpt>
      <trkpt lat="44.79733" lon="6.99449">
        <ele>2366.1</ele>
        <time>2022-02-25T12:29:07Z</time>
      </trkpt>
      <trkpt lat="44.79732" lon="6.99451">
        <ele>2366.4</ele>
        <time>2022-02-25T12:29:08Z</time>
      </trkpt>
      <trkpt lat="44.79732" lon="6.99451">
        <ele>2366.4</ele>
        <time>2022-02-25T12:29:09Z</time>
      </trkpt>
      <trkpt lat="44.79732" lon="6.99451">
        <ele>2366.4</ele>
        <time>2022-02-25T12:29:10Z</time>
      </trkpt>
      <trkpt lat="44.79732" lon="6.99451">
        <ele>2366.4</ele>
        <time>2022-02-25T12:29:11Z</time>
      </trkpt>
      <trkpt lat="44.79731" lon="6.99453">
        <ele>2366.6</ele>
        <time>2022-02-25T12:29:12Z</time>
      </trkpt>
      <trkpt lat="44.79731" lon="6.99453">
        <ele>2366.6</ele>
        <time>2022-02-25T12:29:13Z</time>
      </trkpt>
      <trkpt lat="44.79731" lon="6.99453">
        <ele>2366.6</ele>
        <time>2022-02-25T12:29:14Z</time>
      </trkpt>
      <trkpt lat="44.79731" lon="6.99453">
        <ele>2366.6</ele>
        <time>2022-02-25T12:29:15Z</time>
      </trkpt>
      <trkpt lat="44.79731" lon="6.99453">
        <ele>2366.6</ele>
        <time>2022-02-25T12:29:16Z</time>
      </trkpt>
      <trkpt lat="44.7973" lon="6.99456">
        <ele>2367</ele>
        <time>2022-02-25T12:29:17Z</time>
      </trkpt>
      <trkpt lat="44.7973" lon="6.99456">
        <ele>2367</ele>
        <time>2022-02-25T12:29:18Z</time>
      </trkpt>
      <trkpt lat="44.7973" lon="6.99456">
        <ele>2367</ele>
        <time>2022-02-25T12:29:19Z</time>
      </trkpt>
      <trkpt lat="44.7973" lon="6.99456">
        <ele>2367</ele>
        <time>2022-02-25T12:29:20Z</time>
      </trkpt>
      <trkpt lat="44.7973" lon="6.99459">
        <ele>2367.4</ele>
        <time>2022-02-25T12:29:21Z</time>
      </trkpt>
      <trkpt lat="44.7973" lon="6.99459">
        <ele>2367.4</ele>
        <time>2022-02-25T12:29:22Z</time>
      </trkpt>
      <trkpt lat="44.7973" lon="6.99459">
        <ele>2367.4</ele>
        <time>2022-02-25T12:29:23Z</time>
      </trkpt>
      <trkpt lat="44.7973" lon="6.99459">
        <ele>2367.4</ele>
        <time>2022-02-25T12:29:24Z</time>
      </trkpt>
      <trkpt lat="44.79728" lon="6.99462">
        <ele>2367.6</ele>
        <time>2022-02-25T12:29:25Z</time>
      </trkpt>
      <trkpt lat="44.79728" lon="6.99462">
        <ele>2367.6</ele>
        <time>2022-02-25T12:29:26Z</time>
      </trkpt>
      <trkpt lat="44.79728" lon="6.99462">
        <ele>2367.6</ele>
        <time>2022-02-25T12:29:27Z</time>
      </trkpt>
      <trkpt lat="44.79728" lon="6.99462">
        <ele>2367.6</ele>
        <time>2022-02-25T12:29:28Z</time>
      </trkpt>
      <trkpt lat="44.79728" lon="6.99462">
        <ele>2367.6</ele>
        <time>2022-02-25T12:29:29Z</time>
      </trkpt>
      <trkpt lat="44.79727" lon="6.99464">
        <ele>2367.8</ele>
        <time>2022-02-25T12:29:30Z</time>
      </trkpt>
      <trkpt lat="44.79727" lon="6.99464">
        <ele>2367.8</ele>
        <time>2022-02-25T12:29:31Z</time>
      </trkpt>
      <trkpt lat="44.79727" lon="6.99464">
        <ele>2367.8</ele>
        <time>2022-02-25T12:29:32Z</time>
      </trkpt>
      <trkpt lat="44.79727" lon="6.99464">
        <ele>2367.8</ele>
        <time>2022-02-25T12:29:33Z</time>
      </trkpt>
      <trkpt lat="44.79727" lon="6.99464">
        <ele>2367.8</ele>
        <time>2022-02-25T12:29:34Z</time>
      </trkpt>
      <trkpt lat="44.79726" lon="6.99468">
        <ele>2368.1</ele>
        <time>2022-02-25T12:29:35Z</time>
      </trkpt>
      <trkpt lat="44.79726" lon="6.99468">
        <ele>2368.1</ele>
        <time>2022-02-25T12:29:36Z</time>
      </trkpt>
      <trkpt lat="44.79726" lon="6.99468">
        <ele>2368.1</ele>
        <time>2022-02-25T12:29:37Z</time>
      </trkpt>
      <trkpt lat="44.79726" lon="6.99468">
        <ele>2368.1</ele>
        <time>2022-02-25T12:29:38Z</time>
      </trkpt>
      <trkpt lat="44.79727" lon="6.99471">
        <ele>2368.7</ele>
        <time>2022-02-25T12:29:39Z</time>
      </trkpt>
      <trkpt lat="44.79727" lon="6.99471">
        <ele>2368.7</ele>
        <time>2022-02-25T12:29:40Z</time>
      </trkpt>
      <trkpt lat="44.79727" lon="6.99471">
        <ele>2368.7</ele>
        <time>2022-02-25T12:29:41Z</time>
      </trkpt>
      <trkpt lat="44.79727" lon="6.99471">
        <ele>2368.7</ele>
        <time>2022-02-25T12:29:42Z</time>
      </trkpt>
      <trkpt lat="44.79726" lon="6.99474">
        <ele>2369.1</ele>
        <time>2022-02-25T12:29:43Z</time>
      </trkpt>
      <trkpt lat="44.79726" lon="6.99474">
        <ele>2369.1</ele>
        <time>2022-02-25T12:29:44Z</time>
      </trkpt>
      <trkpt lat="44.79726" lon="6.99474">
        <ele>2369.1</ele>
        <time>2022-02-25T12:29:45Z</time>
      </trkpt>
      <trkpt lat="44.79725" lon="6.99476">
        <ele>2369.4</ele>
        <time>2022-02-25T12:29:46Z</time>
      </trkpt>
      <trkpt lat="44.79725" lon="6.99476">
        <ele>2369.4</ele>
        <time>2022-02-25T12:29:47Z</time>
      </trkpt>
      <trkpt lat="44.79725" lon="6.99476">
        <ele>2369.4</ele>
        <time>2022-02-25T12:29:48Z</time>
      </trkpt>
      <trkpt lat="44.79724" lon="6.99479">
        <ele>2370</ele>
        <time>2022-02-25T12:29:49Z</time>
      </trkpt>
      <trkpt lat="44.79724" lon="6.99479">
        <ele>2370</ele>
        <time>2022-02-25T12:29:50Z</time>
      </trkpt>
      <trkpt lat="44.79724" lon="6.99479">
        <ele>2370</ele>
        <time>2022-02-25T12:29:51Z</time>
      </trkpt>
      <trkpt lat="44.79723" lon="6.99481">
        <ele>2370.3</ele>
        <time>2022-02-25T12:29:52Z</time>
      </trkpt>
      <trkpt lat="44.79723" lon="6.99481">
        <ele>2370.3</ele>
        <time>2022-02-25T12:29:53Z</time>
      </trkpt>
      <trkpt lat="44.79723" lon="6.99481">
        <ele>2370.3</ele>
        <time>2022-02-25T12:29:54Z</time>
      </trkpt>
      <trkpt lat="44.79723" lon="6.99481">
        <ele>2370.3</ele>
        <time>2022-02-25T12:29:55Z</time>
      </trkpt>
      <trkpt lat="44.79721" lon="6.99483">
        <ele>2370.7</ele>
        <time>2022-02-25T12:29:56Z</time>
      </trkpt>
      <trkpt lat="44.79721" lon="6.99483">
        <ele>2370.7</ele>
        <time>2022-02-25T12:29:57Z</time>
      </trkpt>
      <trkpt lat="44.79721" lon="6.99483">
        <ele>2370.7</ele>
        <time>2022-02-25T12:29:58Z</time>
      </trkpt>
      <trkpt lat="44.79721" lon="6.99483">
        <ele>2370.7</ele>
        <time>2022-02-25T12:29:59Z</time>
      </trkpt>
      <trkpt lat="44.7972" lon="6.99485">
        <ele>2371.1</ele>
        <time>2022-02-25T12:30:00Z</time>
      </trkpt>
      <trkpt lat="44.7972" lon="6.99485">
        <ele>2371.1</ele>
        <time>2022-02-25T12:30:01Z</time>
      </trkpt>
      <trkpt lat="44.7972" lon="6.99485">
        <ele>2371.1</ele>
        <time>2022-02-25T12:30:02Z</time>
      </trkpt>
      <trkpt lat="44.7972" lon="6.99485">
        <ele>2371.1</ele>
        <time>2022-02-25T12:30:03Z</time>
      </trkpt>
      <trkpt lat="44.7972" lon="6.99488">
        <ele>2371.9</ele>
        <time>2022-02-25T12:30:04Z</time>
      </trkpt>
      <trkpt lat="44.7972" lon="6.99488">
        <ele>2371.9</ele>
        <time>2022-02-25T12:30:05Z</time>
      </trkpt>
      <trkpt lat="44.7972" lon="6.99488">
        <ele>2371.9</ele>
        <time>2022-02-25T12:30:06Z</time>
      </trkpt>
      <trkpt lat="44.7972" lon="6.99488">
        <ele>2371.9</ele>
        <time>2022-02-25T12:30:07Z</time>
      </trkpt>
      <trkpt lat="44.79718" lon="6.9949">
        <ele>2372.2</ele>
        <time>2022-02-25T12:30:08Z</time>
      </trkpt>
      <trkpt lat="44.79718" lon="6.9949">
        <ele>2372.2</ele>
        <time>2022-02-25T12:30:09Z</time>
      </trkpt>
      <trkpt lat="44.79718" lon="6.9949">
        <ele>2372.2</ele>
        <time>2022-02-25T12:30:10Z</time>
      </trkpt>
      <trkpt lat="44.79718" lon="6.9949">
        <ele>2372.2</ele>
        <time>2022-02-25T12:30:11Z</time>
      </trkpt>
      <trkpt lat="44.79716" lon="6.99492">
        <ele>2372.6</ele>
        <time>2022-02-25T12:30:12Z</time>
      </trkpt>
      <trkpt lat="44.79716" lon="6.99492">
        <ele>2372.6</ele>
        <time>2022-02-25T12:30:13Z</time>
      </trkpt>
      <trkpt lat="44.79716" lon="6.99492">
        <ele>2372.6</ele>
        <time>2022-02-25T12:30:14Z</time>
      </trkpt>
      <trkpt lat="44.79716" lon="6.99492">
        <ele>2372.6</ele>
        <time>2022-02-25T12:30:15Z</time>
      </trkpt>
      <trkpt lat="44.79715" lon="6.99494">
        <ele>2373</ele>
        <time>2022-02-25T12:30:16Z</time>
      </trkpt>
      <trkpt lat="44.79715" lon="6.99494">
        <ele>2373</ele>
        <time>2022-02-25T12:30:17Z</time>
      </trkpt>
      <trkpt lat="44.79715" lon="6.99494">
        <ele>2373</ele>
        <time>2022-02-25T12:30:18Z</time>
      </trkpt>
      <trkpt lat="44.79715" lon="6.99494">
        <ele>2373</ele>
        <time>2022-02-25T12:30:19Z</time>
      </trkpt>
      <trkpt lat="44.79713" lon="6.99495">
        <ele>2373.1</ele>
        <time>2022-02-25T12:30:20Z</time>
      </trkpt>
      <trkpt lat="44.79713" lon="6.99495">
        <ele>2373.1</ele>
        <time>2022-02-25T12:30:21Z</time>
      </trkpt>
      <trkpt lat="44.79713" lon="6.99495">
        <ele>2373.1</ele>
        <time>2022-02-25T12:30:22Z</time>
      </trkpt>
      <trkpt lat="44.79713" lon="6.99495">
        <ele>2373.1</ele>
        <time>2022-02-25T12:30:23Z</time>
      </trkpt>
      <trkpt lat="44.79711" lon="6.99497">
        <ele>2373.5</ele>
        <time>2022-02-25T12:30:24Z</time>
      </trkpt>
      <trkpt lat="44.79711" lon="6.99497">
        <ele>2373.5</ele>
        <time>2022-02-25T12:30:25Z</time>
      </trkpt>
      <trkpt lat="44.79711" lon="6.99497">
        <ele>2373.5</ele>
        <time>2022-02-25T12:30:26Z</time>
      </trkpt>
      <trkpt lat="44.7971" lon="6.99499">
        <ele>2373.9</ele>
        <time>2022-02-25T12:30:27Z</time>
      </trkpt>
      <trkpt lat="44.7971" lon="6.99499">
        <ele>2373.9</ele>
        <time>2022-02-25T12:30:28Z</time>
      </trkpt>
      <trkpt lat="44.7971" lon="6.99499">
        <ele>2373.9</ele>
        <time>2022-02-25T12:30:29Z</time>
      </trkpt>
      <trkpt lat="44.79708" lon="6.995">
        <ele>2374</ele>
        <time>2022-02-25T12:30:30Z</time>
      </trkpt>
      <trkpt lat="44.79708" lon="6.995">
        <ele>2374</ele>
        <time>2022-02-25T12:30:31Z</time>
      </trkpt>
      <trkpt lat="44.79708" lon="6.995">
        <ele>2374</ele>
        <time>2022-02-25T12:30:32Z</time>
      </trkpt>
      <trkpt lat="44.79706" lon="6.99502">
        <ele>2374.4</ele>
        <time>2022-02-25T12:30:33Z</time>
      </trkpt>
      <trkpt lat="44.79706" lon="6.99502">
        <ele>2374.4</ele>
        <time>2022-02-25T12:30:34Z</time>
      </trkpt>
      <trkpt lat="44.79706" lon="6.99502">
        <ele>2374.4</ele>
        <time>2022-02-25T12:30:35Z</time>
      </trkpt>
      <trkpt lat="44.79706" lon="6.99502">
        <ele>2374.4</ele>
        <time>2022-02-25T12:30:36Z</time>
      </trkpt>
      <trkpt lat="44.79706" lon="6.99502">
        <ele>2374.4</ele>
        <time>2022-02-25T12:30:37Z</time>
      </trkpt>
      <trkpt lat="44.79706" lon="6.99502">
        <ele>2374.4</ele>
        <time>2022-02-25T12:30:38Z</time>
      </trkpt>
      <trkpt lat="44.79706" lon="6.99502">
        <ele>2374.4</ele>
        <time>2022-02-25T12:30:39Z</time>
      </trkpt>
      <trkpt lat="44.79706" lon="6.99502">
        <ele>2374.4</ele>
        <time>2022-02-25T12:30:40Z</time>
      </trkpt>
      <trkpt lat="44.79706" lon="6.99502">
        <ele>2374.4</ele>
        <time>2022-02-25T12:30:41Z</time>
      </trkpt>
      <trkpt lat="44.79706" lon="6.99502">
        <ele>2374.4</ele>
        <time>2022-02-25T12:30:42Z</time>
      </trkpt>
      <trkpt lat="44.79706" lon="6.99502">
        <ele>2374.4</ele>
        <time>2022-02-25T12:30:43Z</time>
      </trkpt>
      <trkpt lat="44.79706" lon="6.99502">
        <ele>2374.4</ele>
        <time>2022-02-25T12:30:44Z</time>
      </trkpt>
      <trkpt lat="44.79706" lon="6.99502">
        <ele>2374.4</ele>
        <time>2022-02-25T12:30:45Z</time>
      </trkpt>
      <trkpt lat="44.79706" lon="6.99502">
        <ele>2374.4</ele>
        <time>2022-02-25T12:30:46Z</time>
      </trkpt>
      <trkpt lat="44.79706" lon="6.99502">
        <ele>2374.4</ele>
        <time>2022-02-25T12:30:47Z</time>
      </trkpt>
      <trkpt lat="44.79706" lon="6.99502">
        <ele>2374.4</ele>
        <time>2022-02-25T12:30:48Z</time>
      </trkpt>
      <trkpt lat="44.79706" lon="6.99502">
        <ele>2374.4</ele>
        <time>2022-02-25T12:30:49Z</time>
      </trkpt>
      <trkpt lat="44.79706" lon="6.99502">
        <ele>2374.4</ele>
        <time>2022-02-25T12:30:50Z</time>
      </trkpt>
      <trkpt lat="44.79706" lon="6.99502">
        <ele>2374.4</ele>
        <time>2022-02-25T12:30:51Z</time>
      </trkpt>
      <trkpt lat="44.79705" lon="6.99502">
        <ele>2374.3</ele>
        <time>2022-02-25T12:30:52Z</time>
      </trkpt>
      <trkpt lat="44.79705" lon="6.99502">
        <ele>2374.3</ele>
        <time>2022-02-25T12:30:53Z</time>
      </trkpt>
      <trkpt lat="44.79705" lon="6.99502">
        <ele>2374.3</ele>
        <time>2022-02-25T12:30:54Z</time>
      </trkpt>
      <trkpt lat="44.79705" lon="6.99502">
        <ele>2374.3</ele>
        <time>2022-02-25T12:30:55Z</time>
      </trkpt>
      <trkpt lat="44.79705" lon="6.99502">
        <ele>2374.3</ele>
        <time>2022-02-25T12:30:56Z</time>
      </trkpt>
      <trkpt lat="44.79705" lon="6.99502">
        <ele>2374.3</ele>
        <time>2022-02-25T12:30:57Z</time>
      </trkpt>
      <trkpt lat="44.79705" lon="6.99502">
        <ele>2374.3</ele>
        <time>2022-02-25T12:30:58Z</time>
      </trkpt>
      <trkpt lat="44.79705" lon="6.99502">
        <ele>2374.3</ele>
        <time>2022-02-25T12:30:59Z</time>
      </trkpt>
      <trkpt lat="44.79705" lon="6.99502">
        <ele>2374.3</ele>
        <time>2022-02-25T12:31:00Z</time>
      </trkpt>
      <trkpt lat="44.79705" lon="6.99502">
        <ele>2374.3</ele>
        <time>2022-02-25T12:31:01Z</time>
      </trkpt>
      <trkpt lat="44.79705" lon="6.99502">
        <ele>2374.3</ele>
        <time>2022-02-25T12:31:02Z</time>
      </trkpt>
      <trkpt lat="44.79705" lon="6.99502">
        <ele>2374.3</ele>
        <time>2022-02-25T12:31:03Z</time>
      </trkpt>
      <trkpt lat="44.79705" lon="6.99502">
        <ele>2374.3</ele>
        <time>2022-02-25T12:31:04Z</time>
      </trkpt>
      <trkpt lat="44.79705" lon="6.99502">
        <ele>2374.3</ele>
        <time>2022-02-25T12:31:05Z</time>
      </trkpt>
      <trkpt lat="44.79705" lon="6.99502">
        <ele>2374.3</ele>
        <time>2022-02-25T12:31:06Z</time>
      </trkpt>
      <trkpt lat="44.79705" lon="6.99502">
        <ele>2374.3</ele>
        <time>2022-02-25T12:31:07Z</time>
      </trkpt>
      <trkpt lat="44.79705" lon="6.99502">
        <ele>2374.3</ele>
        <time>2022-02-25T12:31:08Z</time>
      </trkpt>
      <trkpt lat="44.79705" lon="6.99502">
        <ele>2374.3</ele>
        <time>2022-02-25T12:31:09Z</time>
      </trkpt>
      <trkpt lat="44.79705" lon="6.99502">
        <ele>2374.3</ele>
        <time>2022-02-25T12:31:10Z</time>
      </trkpt>
      <trkpt lat="44.79705" lon="6.99503">
        <ele>2374.6</ele>
        <time>2022-02-25T12:31:11Z</time>
      </trkpt>
      <trkpt lat="44.79705" lon="6.99503">
        <ele>2374.6</ele>
        <time>2022-02-25T12:31:12Z</time>
      </trkpt>
      <trkpt lat="44.79704" lon="6.99503">
        <ele>2374.5</ele>
        <time>2022-02-25T12:31:13Z</time>
      </trkpt>
      <trkpt lat="44.79704" lon="6.99503">
        <ele>2374.5</ele>
        <time>2022-02-25T12:31:14Z</time>
      </trkpt>
      <trkpt lat="44.79704" lon="6.99503">
        <ele>2374.5</ele>
        <time>2022-02-25T12:31:15Z</time>
      </trkpt>
      <trkpt lat="44.79704" lon="6.99503">
        <ele>2374.5</ele>
        <time>2022-02-25T12:31:16Z</time>
      </trkpt>
      <trkpt lat="44.79704" lon="6.99503">
        <ele>2374.5</ele>
        <time>2022-02-25T12:31:17Z</time>
      </trkpt>
      <trkpt lat="44.79704" lon="6.99503">
        <ele>2374.5</ele>
        <time>2022-02-25T12:31:18Z</time>
      </trkpt>
      <trkpt lat="44.79704" lon="6.99503">
        <ele>2374.5</ele>
        <time>2022-02-25T12:31:19Z</time>
      </trkpt>
      <trkpt lat="44.79704" lon="6.99503">
        <ele>2374.5</ele>
        <time>2022-02-25T12:31:20Z</time>
      </trkpt>
      <trkpt lat="44.79704" lon="6.99503">
        <ele>2374.5</ele>
        <time>2022-02-25T12:31:21Z</time>
      </trkpt>
      <trkpt lat="44.79704" lon="6.99503">
        <ele>2374.5</ele>
        <time>2022-02-25T12:31:22Z</time>
      </trkpt>
      <trkpt lat="44.79704" lon="6.99503">
        <ele>2374.5</ele>
        <time>2022-02-25T12:31:23Z</time>
      </trkpt>
      <trkpt lat="44.79704" lon="6.99503">
        <ele>2374.5</ele>
        <time>2022-02-25T12:31:24Z</time>
      </trkpt>
      <trkpt lat="44.79704" lon="6.99503">
        <ele>2374.5</ele>
        <time>2022-02-25T12:31:25Z</time>
      </trkpt>
      <trkpt lat="44.79704" lon="6.99503">
        <ele>2374.5</ele>
        <time>2022-02-25T12:31:26Z</time>
      </trkpt>
      <trkpt lat="44.79704" lon="6.99503">
        <ele>2374.5</ele>
        <time>2022-02-25T12:31:27Z</time>
      </trkpt>
      <trkpt lat="44.79704" lon="6.99503">
        <ele>2374.5</ele>
        <time>2022-02-25T12:31:28Z</time>
      </trkpt>
      <trkpt lat="44.79704" lon="6.99503">
        <ele>2374.5</ele>
        <time>2022-02-25T12:31:29Z</time>
      </trkpt>
      <trkpt lat="44.79704" lon="6.99503">
        <ele>2374.5</ele>
        <time>2022-02-25T12:31:30Z</time>
      </trkpt>
      <trkpt lat="44.79704" lon="6.99503">
        <ele>2374.5</ele>
        <time>2022-02-25T12:31:31Z</time>
      </trkpt>
      <trkpt lat="44.79704" lon="6.99503">
        <ele>2374.5</ele>
        <time>2022-02-25T12:31:32Z</time>
      </trkpt>
      <trkpt lat="44.79704" lon="6.99503">
        <ele>2374.5</ele>
        <time>2022-02-25T12:31:33Z</time>
      </trkpt>
      <trkpt lat="44.79703" lon="6.99503">
        <ele>2374.4</ele>
        <time>2022-02-25T12:31:34Z</time>
      </trkpt>
      <trkpt lat="44.79703" lon="6.99503">
        <ele>2374.4</ele>
        <time>2022-02-25T12:31:35Z</time>
      </trkpt>
      <trkpt lat="44.79703" lon="6.99503">
        <ele>2374.4</ele>
        <time>2022-02-25T12:31:36Z</time>
      </trkpt>
      <trkpt lat="44.79703" lon="6.99503">
        <ele>2374.4</ele>
        <time>2022-02-25T12:31:37Z</time>
      </trkpt>
      <trkpt lat="44.79703" lon="6.99503">
        <ele>2374.4</ele>
        <time>2022-02-25T12:31:38Z</time>
      </trkpt>
      <trkpt lat="44.79703" lon="6.99503">
        <ele>2374.4</ele>
        <time>2022-02-25T12:31:39Z</time>
      </trkpt>
      <trkpt lat="44.79703" lon="6.99503">
        <ele>2374.4</ele>
        <time>2022-02-25T12:31:40Z</time>
      </trkpt>
      <trkpt lat="44.79703" lon="6.99503">
        <ele>2374.4</ele>
        <time>2022-02-25T12:31:41Z</time>
      </trkpt>
      <trkpt lat="44.79703" lon="6.99503">
        <ele>2374.4</ele>
        <time>2022-02-25T12:31:42Z</time>
      </trkpt>
      <trkpt lat="44.79703" lon="6.99503">
        <ele>2374.4</ele>
        <time>2022-02-25T12:31:43Z</time>
      </trkpt>
      <trkpt lat="44.79703" lon="6.99503">
        <ele>2374.4</ele>
        <time>2022-02-25T12:31:44Z</time>
      </trkpt>
      <trkpt lat="44.79703" lon="6.99503">
        <ele>2374.4</ele>
        <time>2022-02-25T12:31:45Z</time>
      </trkpt>
      <trkpt lat="44.79703" lon="6.99503">
        <ele>2374.4</ele>
        <time>2022-02-25T12:31:46Z</time>
      </trkpt>
      <trkpt lat="44.79703" lon="6.99503">
        <ele>2374.4</ele>
        <time>2022-02-25T12:31:47Z</time>
      </trkpt>
      <trkpt lat="44.79703" lon="6.99503">
        <ele>2374.4</ele>
        <time>2022-02-25T12:31:48Z</time>
      </trkpt>
      <trkpt lat="44.79703" lon="6.99503">
        <ele>2374.4</ele>
        <time>2022-02-25T12:31:49Z</time>
      </trkpt>
      <trkpt lat="44.79703" lon="6.99503">
        <ele>2374.4</ele>
        <time>2022-02-25T12:31:50Z</time>
      </trkpt>
      <trkpt lat="44.79703" lon="6.99503">
        <ele>2374.4</ele>
        <time>2022-02-25T12:31:51Z</time>
      </trkpt>
      <trkpt lat="44.79703" lon="6.99503">
        <ele>2374.4</ele>
        <time>2022-02-25T12:31:52Z</time>
      </trkpt>
      <trkpt lat="44.79703" lon="6.99503">
        <ele>2374.4</ele>
        <time>2022-02-25T12:31:53Z</time>
      </trkpt>
      <trkpt lat="44.79703" lon="6.99503">
        <ele>2374.4</ele>
        <time>2022-02-25T12:31:54Z</time>
      </trkpt>
      <trkpt lat="44.79703" lon="6.99503">
        <ele>2374.4</ele>
        <time>2022-02-25T12:31:55Z</time>
      </trkpt>
      <trkpt lat="44.79702" lon="6.99503">
        <ele>2374.4</ele>
        <time>2022-02-25T12:31:56Z</time>
      </trkpt>
      <trkpt lat="44.79702" lon="6.99503">
        <ele>2374.4</ele>
        <time>2022-02-25T12:31:57Z</time>
      </trkpt>
      <trkpt lat="44.79702" lon="6.99503">
        <ele>2374.4</ele>
        <time>2022-02-25T12:31:58Z</time>
      </trkpt>
      <trkpt lat="44.79702" lon="6.99503">
        <ele>2374.4</ele>
        <time>2022-02-25T12:31:59Z</time>
      </trkpt>
      <trkpt lat="44.79702" lon="6.99503">
        <ele>2374.4</ele>
        <time>2022-02-25T12:32:00Z</time>
      </trkpt>
      <trkpt lat="44.79702" lon="6.99503">
        <ele>2374.4</ele>
        <time>2022-02-25T12:32:01Z</time>
      </trkpt>
      <trkpt lat="44.79702" lon="6.99503">
        <ele>2374.4</ele>
        <time>2022-02-25T12:32:02Z</time>
      </trkpt>
      <trkpt lat="44.79702" lon="6.99503">
        <ele>2374.4</ele>
        <time>2022-02-25T12:32:03Z</time>
      </trkpt>
      <trkpt lat="44.79702" lon="6.99503">
        <ele>2374.4</ele>
        <time>2022-02-25T12:32:04Z</time>
      </trkpt>
      <trkpt lat="44.79702" lon="6.99503">
        <ele>2374.4</ele>
        <time>2022-02-25T12:32:05Z</time>
      </trkpt>
      <trkpt lat="44.79702" lon="6.99503">
        <ele>2374.4</ele>
        <time>2022-02-25T12:32:06Z</time>
      </trkpt>
      <trkpt lat="44.79702" lon="6.99503">
        <ele>2374.4</ele>
        <time>2022-02-25T12:32:07Z</time>
      </trkpt>
      <trkpt lat="44.79702" lon="6.99504">
        <ele>2374.6</ele>
        <time>2022-02-25T12:32:08Z</time>
      </trkpt>
      <trkpt lat="44.79702" lon="6.99504">
        <ele>2374.6</ele>
        <time>2022-02-25T12:32:09Z</time>
      </trkpt>
      <trkpt lat="44.79702" lon="6.99504">
        <ele>2374.6</ele>
        <time>2022-02-25T12:32:10Z</time>
      </trkpt>
      <trkpt lat="44.79702" lon="6.99504">
        <ele>2374.6</ele>
        <time>2022-02-25T12:32:11Z</time>
      </trkpt>
      <trkpt lat="44.79702" lon="6.99504">
        <ele>2374.6</ele>
        <time>2022-02-25T12:32:12Z</time>
      </trkpt>
      <trkpt lat="44.79702" lon="6.99504">
        <ele>2374.6</ele>
        <time>2022-02-25T12:32:13Z</time>
      </trkpt>
      <trkpt lat="44.79702" lon="6.99504">
        <ele>2374.6</ele>
        <time>2022-02-25T12:32:14Z</time>
      </trkpt>
      <trkpt lat="44.79702" lon="6.99504">
        <ele>2374.6</ele>
        <time>2022-02-25T12:32:15Z</time>
      </trkpt>
      <trkpt lat="44.79702" lon="6.99504">
        <ele>2374.6</ele>
        <time>2022-02-25T12:32:16Z</time>
      </trkpt>
      <trkpt lat="44.79701" lon="6.99504">
        <ele>2374.5</ele>
        <time>2022-02-25T12:32:17Z</time>
      </trkpt>
      <trkpt lat="44.79701" lon="6.99504">
        <ele>2374.5</ele>
        <time>2022-02-25T12:32:18Z</time>
      </trkpt>
      <trkpt lat="44.79701" lon="6.99504">
        <ele>2374.5</ele>
        <time>2022-02-25T12:32:19Z</time>
      </trkpt>
      <trkpt lat="44.79701" lon="6.99504">
        <ele>2374.5</ele>
        <time>2022-02-25T12:32:20Z</time>
      </trkpt>
      <trkpt lat="44.79701" lon="6.99504">
        <ele>2374.5</ele>
        <time>2022-02-25T12:32:21Z</time>
      </trkpt>
      <trkpt lat="44.79701" lon="6.99504">
        <ele>2374.5</ele>
        <time>2022-02-25T12:32:22Z</time>
      </trkpt>
      <trkpt lat="44.79701" lon="6.99504">
        <ele>2374.5</ele>
        <time>2022-02-25T12:32:23Z</time>
      </trkpt>
      <trkpt lat="44.79701" lon="6.99504">
        <ele>2374.5</ele>
        <time>2022-02-25T12:32:24Z</time>
      </trkpt>
      <trkpt lat="44.79701" lon="6.99504">
        <ele>2374.5</ele>
        <time>2022-02-25T12:32:25Z</time>
      </trkpt>
      <trkpt lat="44.79701" lon="6.99504">
        <ele>2374.5</ele>
        <time>2022-02-25T12:32:26Z</time>
      </trkpt>
      <trkpt lat="44.79701" lon="6.99504">
        <ele>2374.5</ele>
        <time>2022-02-25T12:32:27Z</time>
      </trkpt>
      <trkpt lat="44.79701" lon="6.99504">
        <ele>2374.5</ele>
        <time>2022-02-25T12:32:28Z</time>
      </trkpt>
      <trkpt lat="44.79701" lon="6.99504">
        <ele>2374.5</ele>
        <time>2022-02-25T12:32:29Z</time>
      </trkpt>
      <trkpt lat="44.79701" lon="6.99504">
        <ele>2374.5</ele>
        <time>2022-02-25T12:32:30Z</time>
      </trkpt>
      <trkpt lat="44.79701" lon="6.99504">
        <ele>2374.5</ele>
        <time>2022-02-25T12:32:31Z</time>
      </trkpt>
      <trkpt lat="44.79701" lon="6.99504">
        <ele>2374.5</ele>
        <time>2022-02-25T12:32:32Z</time>
      </trkpt>
      <trkpt lat="44.79701" lon="6.99504">
        <ele>2374.5</ele>
        <time>2022-02-25T12:32:33Z</time>
      </trkpt>
      <trkpt lat="44.79701" lon="6.99504">
        <ele>2374.5</ele>
        <time>2022-02-25T12:32:34Z</time>
      </trkpt>
      <trkpt lat="44.79701" lon="6.99504">
        <ele>2374.5</ele>
        <time>2022-02-25T12:32:35Z</time>
      </trkpt>
      <trkpt lat="44.79701" lon="6.99504">
        <ele>2374.5</ele>
        <time>2022-02-25T12:32:36Z</time>
      </trkpt>
      <trkpt lat="44.79701" lon="6.99504">
        <ele>2374.5</ele>
        <time>2022-02-25T12:32:37Z</time>
      </trkpt>
      <trkpt lat="44.79701" lon="6.99504">
        <ele>2374.5</ele>
        <time>2022-02-25T12:32:38Z</time>
      </trkpt>
      <trkpt lat="44.79701" lon="6.99504">
        <ele>2374.5</ele>
        <time>2022-02-25T12:32:39Z</time>
      </trkpt>
      <trkpt lat="44.79701" lon="6.99504">
        <ele>2374.5</ele>
        <time>2022-02-25T12:32:40Z</time>
      </trkpt>
      <trkpt lat="44.79701" lon="6.99504">
        <ele>2374.5</ele>
        <time>2022-02-25T12:32:41Z</time>
      </trkpt>
      <trkpt lat="44.79701" lon="6.99504">
        <ele>2374.5</ele>
        <time>2022-02-25T12:32:42Z</time>
      </trkpt>
      <trkpt lat="44.79701" lon="6.99504">
        <ele>2374.5</ele>
        <time>2022-02-25T12:32:43Z</time>
      </trkpt>
      <trkpt lat="44.79701" lon="6.99504">
        <ele>2374.5</ele>
        <time>2022-02-25T12:32:44Z</time>
      </trkpt>
      <trkpt lat="44.79701" lon="6.99504">
        <ele>2374.5</ele>
        <time>2022-02-25T12:32:45Z</time>
      </trkpt>
      <trkpt lat="44.79701" lon="6.99504">
        <ele>2374.5</ele>
        <time>2022-02-25T12:32:46Z</time>
      </trkpt>
      <trkpt lat="44.79701" lon="6.99504">
        <ele>2374.5</ele>
        <time>2022-02-25T12:32:47Z</time>
      </trkpt>
      <trkpt lat="44.79701" lon="6.99504">
        <ele>2374.5</ele>
        <time>2022-02-25T12:32:48Z</time>
      </trkpt>
      <trkpt lat="44.79701" lon="6.99504">
        <ele>2374.5</ele>
        <time>2022-02-25T12:32:49Z</time>
      </trkpt>
      <trkpt lat="44.79701" lon="6.99504">
        <ele>2374.5</ele>
        <time>2022-02-25T12:32:50Z</time>
      </trkpt>
      <trkpt lat="44.79701" lon="6.99504">
        <ele>2374.5</ele>
        <time>2022-02-25T12:32:51Z</time>
      </trkpt>
      <trkpt lat="44.79701" lon="6.99504">
        <ele>2374.5</ele>
        <time>2022-02-25T12:32:52Z</time>
      </trkpt>
      <trkpt lat="44.79701" lon="6.99504">
        <ele>2374.5</ele>
        <time>2022-02-25T12:32:53Z</time>
      </trkpt>
      <trkpt lat="44.79701" lon="6.99504">
        <ele>2374.5</ele>
        <time>2022-02-25T12:32:54Z</time>
      </trkpt>
      <trkpt lat="44.79701" lon="6.99504">
        <ele>2374.5</ele>
        <time>2022-02-25T12:32:55Z</time>
      </trkpt>
      <trkpt lat="44.79701" lon="6.99504">
        <ele>2374.5</ele>
        <time>2022-02-25T12:32:56Z</time>
      </trkpt>
      <trkpt lat="44.79701" lon="6.99504">
        <ele>2374.5</ele>
        <time>2022-02-25T12:32:57Z</time>
      </trkpt>
      <trkpt lat="44.79701" lon="6.99504">
        <ele>2374.5</ele>
        <time>2022-02-25T12:32:58Z</time>
      </trkpt>
      <trkpt lat="44.79701" lon="6.99504">
        <ele>2374.5</ele>
        <time>2022-02-25T12:32:59Z</time>
      </trkpt>
      <trkpt lat="44.79701" lon="6.99504">
        <ele>2374.5</ele>
        <time>2022-02-25T12:33:00Z</time>
      </trkpt>
      <trkpt lat="44.79701" lon="6.99504">
        <ele>2374.5</ele>
        <time>2022-02-25T12:33:01Z</time>
      </trkpt>
      <trkpt lat="44.79701" lon="6.99504">
        <ele>2374.5</ele>
        <time>2022-02-25T12:33:02Z</time>
      </trkpt>
      <trkpt lat="44.79701" lon="6.99504">
        <ele>2374.5</ele>
        <time>2022-02-25T12:33:03Z</time>
      </trkpt>
      <trkpt lat="44.79701" lon="6.99504">
        <ele>2374.5</ele>
        <time>2022-02-25T12:33:04Z</time>
      </trkpt>
      <trkpt lat="44.79701" lon="6.99504">
        <ele>2374.5</ele>
        <time>2022-02-25T12:33:05Z</time>
      </trkpt>
      <trkpt lat="44.79701" lon="6.99504">
        <ele>2374.5</ele>
        <time>2022-02-25T12:33:06Z</time>
      </trkpt>
      <trkpt lat="44.79701" lon="6.99504">
        <ele>2374.5</ele>
        <time>2022-02-25T12:33:07Z</time>
      </trkpt>
      <trkpt lat="44.79701" lon="6.99504">
        <ele>2374.5</ele>
        <time>2022-02-25T12:33:08Z</time>
      </trkpt>
      <trkpt lat="44.79701" lon="6.99504">
        <ele>2374.5</ele>
        <time>2022-02-25T12:33:09Z</time>
      </trkpt>
      <trkpt lat="44.79701" lon="6.99504">
        <ele>2374.5</ele>
        <time>2022-02-25T12:33:10Z</time>
      </trkpt>
      <trkpt lat="44.79701" lon="6.99504">
        <ele>2374.5</ele>
        <time>2022-02-25T12:33:11Z</time>
      </trkpt>
      <trkpt lat="44.79701" lon="6.99504">
        <ele>2374.5</ele>
        <time>2022-02-25T12:33:12Z</time>
      </trkpt>
      <trkpt lat="44.79701" lon="6.99504">
        <ele>2374.5</ele>
        <time>2022-02-25T12:33:13Z</time>
      </trkpt>
      <trkpt lat="44.79701" lon="6.99504">
        <ele>2374.5</ele>
        <time>2022-02-25T12:33:14Z</time>
      </trkpt>
      <trkpt lat="44.79701" lon="6.99504">
        <ele>2374.5</ele>
        <time>2022-02-25T12:33:15Z</time>
      </trkpt>
      <trkpt lat="44.79701" lon="6.99504">
        <ele>2374.5</ele>
        <time>2022-02-25T12:33:16Z</time>
      </trkpt>
      <trkpt lat="44.79701" lon="6.99504">
        <ele>2374.5</ele>
        <time>2022-02-25T12:33:17Z</time>
      </trkpt>
      <trkpt lat="44.79701" lon="6.99504">
        <ele>2374.5</ele>
        <time>2022-02-25T12:33:18Z</time>
      </trkpt>
      <trkpt lat="44.79701" lon="6.99504">
        <ele>2374.5</ele>
        <time>2022-02-25T12:33:19Z</time>
      </trkpt>
      <trkpt lat="44.79701" lon="6.99504">
        <ele>2374.5</ele>
        <time>2022-02-25T12:33:20Z</time>
      </trkpt>
      <trkpt lat="44.79701" lon="6.99504">
        <ele>2374.5</ele>
        <time>2022-02-25T12:33:21Z</time>
      </trkpt>
      <trkpt lat="44.79701" lon="6.99504">
        <ele>2374.5</ele>
        <time>2022-02-25T12:33:22Z</time>
      </trkpt>
      <trkpt lat="44.79701" lon="6.99504">
        <ele>2374.5</ele>
        <time>2022-02-25T12:33:23Z</time>
      </trkpt>
      <trkpt lat="44.79701" lon="6.99504">
        <ele>2374.5</ele>
        <time>2022-02-25T12:33:24Z</time>
      </trkpt>
      <trkpt lat="44.79701" lon="6.99504">
        <ele>2374.5</ele>
        <time>2022-02-25T12:33:25Z</time>
      </trkpt>
      <trkpt lat="44.79701" lon="6.99504">
        <ele>2374.5</ele>
        <time>2022-02-25T12:33:26Z</time>
      </trkpt>
      <trkpt lat="44.79701" lon="6.99504">
        <ele>2374.5</ele>
        <time>2022-02-25T12:33:27Z</time>
      </trkpt>
      <trkpt lat="44.79701" lon="6.99504">
        <ele>2374.5</ele>
        <time>2022-02-25T12:33:28Z</time>
      </trkpt>
      <trkpt lat="44.79701" lon="6.99504">
        <ele>2374.5</ele>
        <time>2022-02-25T12:33:29Z</time>
      </trkpt>
      <trkpt lat="44.79701" lon="6.99504">
        <ele>2374.5</ele>
        <time>2022-02-25T12:33:30Z</time>
      </trkpt>
      <trkpt lat="44.79701" lon="6.99504">
        <ele>2374.5</ele>
        <time>2022-02-25T12:33:31Z</time>
      </trkpt>
      <trkpt lat="44.79701" lon="6.99504">
        <ele>2374.5</ele>
        <time>2022-02-25T12:33:32Z</time>
      </trkpt>
      <trkpt lat="44.79701" lon="6.99504">
        <ele>2374.5</ele>
        <time>2022-02-25T12:33:33Z</time>
      </trkpt>
      <trkpt lat="44.79701" lon="6.99504">
        <ele>2374.5</ele>
        <time>2022-02-25T12:33:34Z</time>
      </trkpt>
      <trkpt lat="44.79701" lon="6.99504">
        <ele>2374.5</ele>
        <time>2022-02-25T12:33:35Z</time>
      </trkpt>
      <trkpt lat="44.79701" lon="6.99504">
        <ele>2374.5</ele>
        <time>2022-02-25T12:33:36Z</time>
      </trkpt>
      <trkpt lat="44.79701" lon="6.99504">
        <ele>2374.5</ele>
        <time>2022-02-25T12:33:37Z</time>
      </trkpt>
      <trkpt lat="44.79701" lon="6.99504">
        <ele>2374.5</ele>
        <time>2022-02-25T12:33:38Z</time>
      </trkpt>
      <trkpt lat="44.79701" lon="6.99504">
        <ele>2374.5</ele>
        <time>2022-02-25T12:33:39Z</time>
      </trkpt>
      <trkpt lat="44.79701" lon="6.99504">
        <ele>2374.5</ele>
        <time>2022-02-25T12:33:40Z</time>
      </trkpt>
      <trkpt lat="44.79701" lon="6.99504">
        <ele>2374.5</ele>
        <time>2022-02-25T12:33:41Z</time>
      </trkpt>
      <trkpt lat="44.79701" lon="6.99504">
        <ele>2374.5</ele>
        <time>2022-02-25T12:33:42Z</time>
      </trkpt>
      <trkpt lat="44.79701" lon="6.99504">
        <ele>2374.5</ele>
        <time>2022-02-25T12:33:43Z</time>
      </trkpt>
      <trkpt lat="44.79701" lon="6.99504">
        <ele>2374.5</ele>
        <time>2022-02-25T12:33:44Z</time>
      </trkpt>
      <trkpt lat="44.79701" lon="6.99504">
        <ele>2374.5</ele>
        <time>2022-02-25T12:33:45Z</time>
      </trkpt>
      <trkpt lat="44.79701" lon="6.99504">
        <ele>2374.5</ele>
        <time>2022-02-25T12:33:46Z</time>
      </trkpt>
      <trkpt lat="44.79701" lon="6.99504">
        <ele>2374.5</ele>
        <time>2022-02-25T12:33:47Z</time>
      </trkpt>
      <trkpt lat="44.79701" lon="6.99504">
        <ele>2374.5</ele>
        <time>2022-02-25T12:33:48Z</time>
      </trkpt>
      <trkpt lat="44.79701" lon="6.99504">
        <ele>2374.5</ele>
        <time>2022-02-25T12:33:49Z</time>
      </trkpt>
      <trkpt lat="44.79701" lon="6.99504">
        <ele>2374.5</ele>
        <time>2022-02-25T12:33:50Z</time>
      </trkpt>
      <trkpt lat="44.79701" lon="6.99504">
        <ele>2374.5</ele>
        <time>2022-02-25T12:33:51Z</time>
      </trkpt>
      <trkpt lat="44.79701" lon="6.99504">
        <ele>2374.5</ele>
        <time>2022-02-25T12:33:52Z</time>
      </trkpt>
      <trkpt lat="44.79701" lon="6.99504">
        <ele>2374.5</ele>
        <time>2022-02-25T12:33:53Z</time>
      </trkpt>
      <trkpt lat="44.79701" lon="6.99504">
        <ele>2374.5</ele>
        <time>2022-02-25T12:33:54Z</time>
      </trkpt>
      <trkpt lat="44.79701" lon="6.99504">
        <ele>2374.5</ele>
        <time>2022-02-25T12:33:55Z</time>
      </trkpt>
      <trkpt lat="44.79701" lon="6.99504">
        <ele>2374.5</ele>
        <time>2022-02-25T12:33:56Z</time>
      </trkpt>
      <trkpt lat="44.79701" lon="6.99504">
        <ele>2374.5</ele>
        <time>2022-02-25T12:33:57Z</time>
      </trkpt>
      <trkpt lat="44.79701" lon="6.99504">
        <ele>2374.5</ele>
        <time>2022-02-25T12:33:58Z</time>
      </trkpt>
      <trkpt lat="44.79701" lon="6.99504">
        <ele>2374.5</ele>
        <time>2022-02-25T12:33:59Z</time>
      </trkpt>
      <trkpt lat="44.79701" lon="6.99504">
        <ele>2374.5</ele>
        <time>2022-02-25T12:34:00Z</time>
      </trkpt>
      <trkpt lat="44.79701" lon="6.99504">
        <ele>2374.5</ele>
        <time>2022-02-25T12:34:01Z</time>
      </trkpt>
      <trkpt lat="44.79701" lon="6.99504">
        <ele>2374.5</ele>
        <time>2022-02-25T12:34:02Z</time>
      </trkpt>
      <trkpt lat="44.79701" lon="6.99504">
        <ele>2374.5</ele>
        <time>2022-02-25T12:34:03Z</time>
      </trkpt>
      <trkpt lat="44.79701" lon="6.99504">
        <ele>2374.5</ele>
        <time>2022-02-25T12:34:04Z</time>
      </trkpt>
      <trkpt lat="44.79701" lon="6.99504">
        <ele>2374.5</ele>
        <time>2022-02-25T12:34:05Z</time>
      </trkpt>
      <trkpt lat="44.79701" lon="6.99504">
        <ele>2374.5</ele>
        <time>2022-02-25T12:34:06Z</time>
      </trkpt>
      <trkpt lat="44.79701" lon="6.99504">
        <ele>2374.5</ele>
        <time>2022-02-25T12:34:07Z</time>
      </trkpt>
      <trkpt lat="44.79701" lon="6.99504">
        <ele>2374.5</ele>
        <time>2022-02-25T12:34:08Z</time>
      </trkpt>
      <trkpt lat="44.79701" lon="6.99504">
        <ele>2374.5</ele>
        <time>2022-02-25T12:34:09Z</time>
      </trkpt>
      <trkpt lat="44.79701" lon="6.99504">
        <ele>2374.5</ele>
        <time>2022-02-25T12:34:10Z</time>
      </trkpt>
      <trkpt lat="44.79701" lon="6.99504">
        <ele>2374.5</ele>
        <time>2022-02-25T12:34:11Z</time>
      </trkpt>
      <trkpt lat="44.79701" lon="6.99504">
        <ele>2374.5</ele>
        <time>2022-02-25T12:34:12Z</time>
      </trkpt>
      <trkpt lat="44.79701" lon="6.99504">
        <ele>2374.5</ele>
        <time>2022-02-25T12:34:13Z</time>
      </trkpt>
      <trkpt lat="44.79701" lon="6.99504">
        <ele>2374.5</ele>
        <time>2022-02-25T12:34:14Z</time>
      </trkpt>
      <trkpt lat="44.79701" lon="6.99504">
        <ele>2374.5</ele>
        <time>2022-02-25T12:34:15Z</time>
      </trkpt>
      <trkpt lat="44.79701" lon="6.99504">
        <ele>2374.5</ele>
        <time>2022-02-25T12:34:16Z</time>
      </trkpt>
      <trkpt lat="44.79701" lon="6.99504">
        <ele>2374.5</ele>
        <time>2022-02-25T12:34:17Z</time>
      </trkpt>
      <trkpt lat="44.79701" lon="6.99504">
        <ele>2374.5</ele>
        <time>2022-02-25T12:34:18Z</time>
      </trkpt>
      <trkpt lat="44.79701" lon="6.99504">
        <ele>2374.5</ele>
        <time>2022-02-25T12:34:19Z</time>
      </trkpt>
      <trkpt lat="44.79701" lon="6.99504">
        <ele>2374.5</ele>
        <time>2022-02-25T12:34:20Z</time>
      </trkpt>
      <trkpt lat="44.79701" lon="6.99504">
        <ele>2374.5</ele>
        <time>2022-02-25T12:34:21Z</time>
      </trkpt>
      <trkpt lat="44.79699" lon="6.99506">
        <ele>2374.9</ele>
        <time>2022-02-25T12:34:22Z</time>
      </trkpt>
      <trkpt lat="44.79699" lon="6.99506">
        <ele>2374.9</ele>
        <time>2022-02-25T12:34:23Z</time>
      </trkpt>
      <trkpt lat="44.79698" lon="6.99509">
        <ele>2375.6</ele>
        <time>2022-02-25T12:34:24Z</time>
      </trkpt>
      <trkpt lat="44.79698" lon="6.99509">
        <ele>2375.6</ele>
        <time>2022-02-25T12:34:25Z</time>
      </trkpt>
      <trkpt lat="44.79697" lon="6.99512">
        <ele>2376.3</ele>
        <time>2022-02-25T12:34:26Z</time>
      </trkpt>
      <trkpt lat="44.79697" lon="6.99512">
        <ele>2376.3</ele>
        <time>2022-02-25T12:34:27Z</time>
      </trkpt>
      <trkpt lat="44.79695" lon="6.99515">
        <ele>2376.8</ele>
        <time>2022-02-25T12:34:28Z</time>
      </trkpt>
      <trkpt lat="44.79695" lon="6.99515">
        <ele>2376.8</ele>
        <time>2022-02-25T12:34:29Z</time>
      </trkpt>
      <trkpt lat="44.79694" lon="6.99518">
        <ele>2377.5</ele>
        <time>2022-02-25T12:34:30Z</time>
      </trkpt>
      <trkpt lat="44.79694" lon="6.99518">
        <ele>2377.5</ele>
        <time>2022-02-25T12:34:31Z</time>
      </trkpt>
      <trkpt lat="44.79694" lon="6.99518">
        <ele>2377.5</ele>
        <time>2022-02-25T12:34:32Z</time>
      </trkpt>
      <trkpt lat="44.79693" lon="6.99521">
        <ele>2378</ele>
        <time>2022-02-25T12:34:33Z</time>
      </trkpt>
      <trkpt lat="44.79693" lon="6.99521">
        <ele>2378</ele>
        <time>2022-02-25T12:34:34Z</time>
      </trkpt>
      <trkpt lat="44.79693" lon="6.99521">
        <ele>2378</ele>
        <time>2022-02-25T12:34:35Z</time>
      </trkpt>
      <trkpt lat="44.79692" lon="6.99524">
        <ele>2378.6</ele>
        <time>2022-02-25T12:34:36Z</time>
      </trkpt>
      <trkpt lat="44.79692" lon="6.99524">
        <ele>2378.6</ele>
        <time>2022-02-25T12:34:37Z</time>
      </trkpt>
      <trkpt lat="44.79692" lon="6.99524">
        <ele>2378.6</ele>
        <time>2022-02-25T12:34:38Z</time>
      </trkpt>
      <trkpt lat="44.79691" lon="6.99527">
        <ele>2379.1</ele>
        <time>2022-02-25T12:34:39Z</time>
      </trkpt>
      <trkpt lat="44.79691" lon="6.99527">
        <ele>2379.1</ele>
        <time>2022-02-25T12:34:40Z</time>
      </trkpt>
      <trkpt lat="44.79691" lon="6.99527">
        <ele>2379.1</ele>
        <time>2022-02-25T12:34:41Z</time>
      </trkpt>
      <trkpt lat="44.79691" lon="6.99529">
        <ele>2379.6</ele>
        <time>2022-02-25T12:34:42Z</time>
      </trkpt>
      <trkpt lat="44.79691" lon="6.99529">
        <ele>2379.6</ele>
        <time>2022-02-25T12:34:43Z</time>
      </trkpt>
      <trkpt lat="44.79691" lon="6.99529">
        <ele>2379.6</ele>
        <time>2022-02-25T12:34:44Z</time>
      </trkpt>
      <trkpt lat="44.7969" lon="6.99532">
        <ele>2380.2</ele>
        <time>2022-02-25T12:34:45Z</time>
      </trkpt>
      <trkpt lat="44.7969" lon="6.99532">
        <ele>2380.2</ele>
        <time>2022-02-25T12:34:46Z</time>
      </trkpt>
      <trkpt lat="44.7969" lon="6.99532">
        <ele>2380.2</ele>
        <time>2022-02-25T12:34:47Z</time>
      </trkpt>
      <trkpt lat="44.7969" lon="6.99532">
        <ele>2380.2</ele>
        <time>2022-02-25T12:34:48Z</time>
      </trkpt>
      <trkpt lat="44.79689" lon="6.99535">
        <ele>2380.8</ele>
        <time>2022-02-25T12:34:49Z</time>
      </trkpt>
      <trkpt lat="44.79689" lon="6.99535">
        <ele>2380.8</ele>
        <time>2022-02-25T12:34:50Z</time>
      </trkpt>
      <trkpt lat="44.79689" lon="6.99535">
        <ele>2380.8</ele>
        <time>2022-02-25T12:34:51Z</time>
      </trkpt>
      <trkpt lat="44.79688" lon="6.99538">
        <ele>2381.3</ele>
        <time>2022-02-25T12:34:52Z</time>
      </trkpt>
      <trkpt lat="44.79688" lon="6.99538">
        <ele>2381.3</ele>
        <time>2022-02-25T12:34:53Z</time>
      </trkpt>
      <trkpt lat="44.79688" lon="6.99538">
        <ele>2381.3</ele>
        <time>2022-02-25T12:34:54Z</time>
      </trkpt>
      <trkpt lat="44.79687" lon="6.99541">
        <ele>2381.8</ele>
        <time>2022-02-25T12:34:55Z</time>
      </trkpt>
      <trkpt lat="44.79687" lon="6.99541">
        <ele>2381.8</ele>
        <time>2022-02-25T12:34:56Z</time>
      </trkpt>
      <trkpt lat="44.79687" lon="6.99541">
        <ele>2381.8</ele>
        <time>2022-02-25T12:34:57Z</time>
      </trkpt>
      <trkpt lat="44.79686" lon="6.99543">
        <ele>2382.1</ele>
        <time>2022-02-25T12:34:58Z</time>
      </trkpt>
      <trkpt lat="44.79686" lon="6.99543">
        <ele>2382.1</ele>
        <time>2022-02-25T12:34:59Z</time>
      </trkpt>
      <trkpt lat="44.79686" lon="6.99543">
        <ele>2382.1</ele>
        <time>2022-02-25T12:35:00Z</time>
      </trkpt>
      <trkpt lat="44.79685" lon="6.99545">
        <ele>2382.3</ele>
        <time>2022-02-25T12:35:01Z</time>
      </trkpt>
      <trkpt lat="44.79685" lon="6.99545">
        <ele>2382.3</ele>
        <time>2022-02-25T12:35:02Z</time>
      </trkpt>
      <trkpt lat="44.79685" lon="6.99545">
        <ele>2382.3</ele>
        <time>2022-02-25T12:35:03Z</time>
      </trkpt>
      <trkpt lat="44.79684" lon="6.99548">
        <ele>2382.7</ele>
        <time>2022-02-25T12:35:04Z</time>
      </trkpt>
      <trkpt lat="44.79684" lon="6.99548">
        <ele>2382.7</ele>
        <time>2022-02-25T12:35:05Z</time>
      </trkpt>
      <trkpt lat="44.79684" lon="6.99548">
        <ele>2382.7</ele>
        <time>2022-02-25T12:35:06Z</time>
      </trkpt>
      <trkpt lat="44.79683" lon="6.9955">
        <ele>2382.9</ele>
        <time>2022-02-25T12:35:07Z</time>
      </trkpt>
      <trkpt lat="44.79683" lon="6.9955">
        <ele>2382.9</ele>
        <time>2022-02-25T12:35:08Z</time>
      </trkpt>
      <trkpt lat="44.79683" lon="6.9955">
        <ele>2382.9</ele>
        <time>2022-02-25T12:35:09Z</time>
      </trkpt>
      <trkpt lat="44.79682" lon="6.99553">
        <ele>2383.4</ele>
        <time>2022-02-25T12:35:10Z</time>
      </trkpt>
      <trkpt lat="44.79682" lon="6.99553">
        <ele>2383.4</ele>
        <time>2022-02-25T12:35:11Z</time>
      </trkpt>
      <trkpt lat="44.79682" lon="6.99553">
        <ele>2383.4</ele>
        <time>2022-02-25T12:35:12Z</time>
      </trkpt>
      <trkpt lat="44.79681" lon="6.99555">
        <ele>2383.5</ele>
        <time>2022-02-25T12:35:13Z</time>
      </trkpt>
      <trkpt lat="44.79681" lon="6.99555">
        <ele>2383.5</ele>
        <time>2022-02-25T12:35:14Z</time>
      </trkpt>
      <trkpt lat="44.79681" lon="6.99555">
        <ele>2383.5</ele>
        <time>2022-02-25T12:35:15Z</time>
      </trkpt>
      <trkpt lat="44.7968" lon="6.99558">
        <ele>2384</ele>
        <time>2022-02-25T12:35:16Z</time>
      </trkpt>
      <trkpt lat="44.7968" lon="6.99558">
        <ele>2384</ele>
        <time>2022-02-25T12:35:17Z</time>
      </trkpt>
      <trkpt lat="44.7968" lon="6.99558">
        <ele>2384</ele>
        <time>2022-02-25T12:35:18Z</time>
      </trkpt>
      <trkpt lat="44.79679" lon="6.9956">
        <ele>2384.2</ele>
        <time>2022-02-25T12:35:19Z</time>
      </trkpt>
      <trkpt lat="44.79679" lon="6.9956">
        <ele>2384.2</ele>
        <time>2022-02-25T12:35:20Z</time>
      </trkpt>
      <trkpt lat="44.79679" lon="6.9956">
        <ele>2384.2</ele>
        <time>2022-02-25T12:35:21Z</time>
      </trkpt>
      <trkpt lat="44.79679" lon="6.9956">
        <ele>2384.2</ele>
        <time>2022-02-25T12:35:22Z</time>
      </trkpt>
      <trkpt lat="44.79678" lon="6.99563">
        <ele>2384.6</ele>
        <time>2022-02-25T12:35:23Z</time>
      </trkpt>
      <trkpt lat="44.79678" lon="6.99563">
        <ele>2384.6</ele>
        <time>2022-02-25T12:35:24Z</time>
      </trkpt>
      <trkpt lat="44.79678" lon="6.99563">
        <ele>2384.6</ele>
        <time>2022-02-25T12:35:25Z</time>
      </trkpt>
      <trkpt lat="44.79677" lon="6.99566">
        <ele>2385</ele>
        <time>2022-02-25T12:35:26Z</time>
      </trkpt>
      <trkpt lat="44.79677" lon="6.99566">
        <ele>2385</ele>
        <time>2022-02-25T12:35:27Z</time>
      </trkpt>
      <trkpt lat="44.79677" lon="6.99566">
        <ele>2385</ele>
        <time>2022-02-25T12:35:28Z</time>
      </trkpt>
      <trkpt lat="44.79675" lon="6.99568">
        <ele>2384.8</ele>
        <time>2022-02-25T12:35:29Z</time>
      </trkpt>
      <trkpt lat="44.79675" lon="6.99568">
        <ele>2384.8</ele>
        <time>2022-02-25T12:35:30Z</time>
      </trkpt>
      <trkpt lat="44.79675" lon="6.99568">
        <ele>2384.8</ele>
        <time>2022-02-25T12:35:31Z</time>
      </trkpt>
      <trkpt lat="44.79674" lon="6.99571">
        <ele>2385.2</ele>
        <time>2022-02-25T12:35:32Z</time>
      </trkpt>
      <trkpt lat="44.79674" lon="6.99571">
        <ele>2385.2</ele>
        <time>2022-02-25T12:35:33Z</time>
      </trkpt>
      <trkpt lat="44.79674" lon="6.99571">
        <ele>2385.2</ele>
        <time>2022-02-25T12:35:34Z</time>
      </trkpt>
      <trkpt lat="44.79673" lon="6.99573">
        <ele>2385.2</ele>
        <time>2022-02-25T12:35:35Z</time>
      </trkpt>
      <trkpt lat="44.79673" lon="6.99573">
        <ele>2385.2</ele>
        <time>2022-02-25T12:35:36Z</time>
      </trkpt>
      <trkpt lat="44.79673" lon="6.99573">
        <ele>2385.2</ele>
        <time>2022-02-25T12:35:37Z</time>
      </trkpt>
      <trkpt lat="44.79672" lon="6.99575">
        <ele>2385.3</ele>
        <time>2022-02-25T12:35:38Z</time>
      </trkpt>
      <trkpt lat="44.79672" lon="6.99575">
        <ele>2385.3</ele>
        <time>2022-02-25T12:35:39Z</time>
      </trkpt>
      <trkpt lat="44.79672" lon="6.99575">
        <ele>2385.3</ele>
        <time>2022-02-25T12:35:40Z</time>
      </trkpt>
      <trkpt lat="44.79672" lon="6.99575">
        <ele>2385.3</ele>
        <time>2022-02-25T12:35:41Z</time>
      </trkpt>
      <trkpt lat="44.7967" lon="6.99578">
        <ele>2385.2</ele>
        <time>2022-02-25T12:35:42Z</time>
      </trkpt>
      <trkpt lat="44.7967" lon="6.99578">
        <ele>2385.2</ele>
        <time>2022-02-25T12:35:43Z</time>
      </trkpt>
      <trkpt lat="44.7967" lon="6.99578">
        <ele>2385.2</ele>
        <time>2022-02-25T12:35:44Z</time>
      </trkpt>
      <trkpt lat="44.79669" lon="6.9958">
        <ele>2385.3</ele>
        <time>2022-02-25T12:35:45Z</time>
      </trkpt>
      <trkpt lat="44.79669" lon="6.9958">
        <ele>2385.3</ele>
        <time>2022-02-25T12:35:46Z</time>
      </trkpt>
      <trkpt lat="44.79669" lon="6.9958">
        <ele>2385.3</ele>
        <time>2022-02-25T12:35:47Z</time>
      </trkpt>
      <trkpt lat="44.79669" lon="6.9958">
        <ele>2385.3</ele>
        <time>2022-02-25T12:35:48Z</time>
      </trkpt>
      <trkpt lat="44.79669" lon="6.9958">
        <ele>2385.3</ele>
        <time>2022-02-25T12:35:49Z</time>
      </trkpt>
      <trkpt lat="44.79669" lon="6.99582">
        <ele>2385.7</ele>
        <time>2022-02-25T12:35:50Z</time>
      </trkpt>
      <trkpt lat="44.79669" lon="6.99582">
        <ele>2385.7</ele>
        <time>2022-02-25T12:35:51Z</time>
      </trkpt>
      <trkpt lat="44.79669" lon="6.99582">
        <ele>2385.7</ele>
        <time>2022-02-25T12:35:52Z</time>
      </trkpt>
      <trkpt lat="44.79669" lon="6.99582">
        <ele>2385.7</ele>
        <time>2022-02-25T12:35:53Z</time>
      </trkpt>
      <trkpt lat="44.79669" lon="6.99582">
        <ele>2385.7</ele>
        <time>2022-02-25T12:35:54Z</time>
      </trkpt>
      <trkpt lat="44.79669" lon="6.99585">
        <ele>2386.5</ele>
        <time>2022-02-25T12:35:55Z</time>
      </trkpt>
      <trkpt lat="44.79669" lon="6.99585">
        <ele>2386.5</ele>
        <time>2022-02-25T12:35:56Z</time>
      </trkpt>
      <trkpt lat="44.79669" lon="6.99585">
        <ele>2386.5</ele>
        <time>2022-02-25T12:35:57Z</time>
      </trkpt>
      <trkpt lat="44.79669" lon="6.99585">
        <ele>2386.5</ele>
        <time>2022-02-25T12:35:58Z</time>
      </trkpt>
      <trkpt lat="44.79668" lon="6.99588">
        <ele>2387.1</ele>
        <time>2022-02-25T12:35:59Z</time>
      </trkpt>
      <trkpt lat="44.79668" lon="6.99588">
        <ele>2387.1</ele>
        <time>2022-02-25T12:36:00Z</time>
      </trkpt>
      <trkpt lat="44.79668" lon="6.99588">
        <ele>2387.1</ele>
        <time>2022-02-25T12:36:01Z</time>
      </trkpt>
      <trkpt lat="44.79668" lon="6.99588">
        <ele>2387.1</ele>
        <time>2022-02-25T12:36:02Z</time>
      </trkpt>
      <trkpt lat="44.79667" lon="6.99591">
        <ele>2387.6</ele>
        <time>2022-02-25T12:36:03Z</time>
      </trkpt>
      <trkpt lat="44.79667" lon="6.99591">
        <ele>2387.6</ele>
        <time>2022-02-25T12:36:04Z</time>
      </trkpt>
      <trkpt lat="44.79667" lon="6.99591">
        <ele>2387.6</ele>
        <time>2022-02-25T12:36:05Z</time>
      </trkpt>
      <trkpt lat="44.79667" lon="6.99591">
        <ele>2387.6</ele>
        <time>2022-02-25T12:36:06Z</time>
      </trkpt>
      <trkpt lat="44.79666" lon="6.99594">
        <ele>2388.5</ele>
        <time>2022-02-25T12:36:07Z</time>
      </trkpt>
      <trkpt lat="44.79666" lon="6.99594">
        <ele>2388.5</ele>
        <time>2022-02-25T12:36:08Z</time>
      </trkpt>
      <trkpt lat="44.79666" lon="6.99594">
        <ele>2388.5</ele>
        <time>2022-02-25T12:36:09Z</time>
      </trkpt>
      <trkpt lat="44.79666" lon="6.99594">
        <ele>2388.5</ele>
        <time>2022-02-25T12:36:10Z</time>
      </trkpt>
      <trkpt lat="44.79666" lon="6.99597">
        <ele>2389.4</ele>
        <time>2022-02-25T12:36:11Z</time>
      </trkpt>
      <trkpt lat="44.79666" lon="6.99597">
        <ele>2389.4</ele>
        <time>2022-02-25T12:36:12Z</time>
      </trkpt>
      <trkpt lat="44.79666" lon="6.99597">
        <ele>2389.4</ele>
        <time>2022-02-25T12:36:13Z</time>
      </trkpt>
      <trkpt lat="44.79666" lon="6.99597">
        <ele>2389.4</ele>
        <time>2022-02-25T12:36:14Z</time>
      </trkpt>
      <trkpt lat="44.79665" lon="6.99599">
        <ele>2390.1</ele>
        <time>2022-02-25T12:36:15Z</time>
      </trkpt>
      <trkpt lat="44.79665" lon="6.99599">
        <ele>2390.1</ele>
        <time>2022-02-25T12:36:16Z</time>
      </trkpt>
      <trkpt lat="44.79665" lon="6.99599">
        <ele>2390.1</ele>
        <time>2022-02-25T12:36:17Z</time>
      </trkpt>
      <trkpt lat="44.79665" lon="6.99599">
        <ele>2390.1</ele>
        <time>2022-02-25T12:36:18Z</time>
      </trkpt>
      <trkpt lat="44.79665" lon="6.99599">
        <ele>2390.1</ele>
        <time>2022-02-25T12:36:19Z</time>
      </trkpt>
      <trkpt lat="44.79663" lon="6.99602">
        <ele>2391</ele>
        <time>2022-02-25T12:36:20Z</time>
      </trkpt>
      <trkpt lat="44.79663" lon="6.99602">
        <ele>2391</ele>
        <time>2022-02-25T12:36:21Z</time>
      </trkpt>
      <trkpt lat="44.79663" lon="6.99602">
        <ele>2391</ele>
        <time>2022-02-25T12:36:22Z</time>
      </trkpt>
      <trkpt lat="44.79663" lon="6.99602">
        <ele>2391</ele>
        <time>2022-02-25T12:36:23Z</time>
      </trkpt>
      <trkpt lat="44.79662" lon="6.99605">
        <ele>2391.8</ele>
        <time>2022-02-25T12:36:24Z</time>
      </trkpt>
      <trkpt lat="44.79662" lon="6.99605">
        <ele>2391.8</ele>
        <time>2022-02-25T12:36:25Z</time>
      </trkpt>
      <trkpt lat="44.79662" lon="6.99605">
        <ele>2391.8</ele>
        <time>2022-02-25T12:36:26Z</time>
      </trkpt>
      <trkpt lat="44.79662" lon="6.99605">
        <ele>2391.8</ele>
        <time>2022-02-25T12:36:27Z</time>
      </trkpt>
      <trkpt lat="44.79661" lon="6.99607">
        <ele>2392.4</ele>
        <time>2022-02-25T12:36:28Z</time>
      </trkpt>
      <trkpt lat="44.79661" lon="6.99607">
        <ele>2392.4</ele>
        <time>2022-02-25T12:36:29Z</time>
      </trkpt>
      <trkpt lat="44.79661" lon="6.99607">
        <ele>2392.4</ele>
        <time>2022-02-25T12:36:30Z</time>
      </trkpt>
      <trkpt lat="44.79661" lon="6.99607">
        <ele>2392.4</ele>
        <time>2022-02-25T12:36:31Z</time>
      </trkpt>
      <trkpt lat="44.79661" lon="6.9961">
        <ele>2393.3</ele>
        <time>2022-02-25T12:36:32Z</time>
      </trkpt>
      <trkpt lat="44.79661" lon="6.9961">
        <ele>2393.3</ele>
        <time>2022-02-25T12:36:33Z</time>
      </trkpt>
      <trkpt lat="44.79661" lon="6.9961">
        <ele>2393.3</ele>
        <time>2022-02-25T12:36:34Z</time>
      </trkpt>
      <trkpt lat="44.7966" lon="6.99612">
        <ele>2393.7</ele>
        <time>2022-02-25T12:36:35Z</time>
      </trkpt>
      <trkpt lat="44.7966" lon="6.99612">
        <ele>2393.7</ele>
        <time>2022-02-25T12:36:36Z</time>
      </trkpt>
      <trkpt lat="44.7966" lon="6.99612">
        <ele>2393.7</ele>
        <time>2022-02-25T12:36:37Z</time>
      </trkpt>
      <trkpt lat="44.7966" lon="6.99612">
        <ele>2393.7</ele>
        <time>2022-02-25T12:36:38Z</time>
      </trkpt>
      <trkpt lat="44.79659" lon="6.99615">
        <ele>2394.2</ele>
        <time>2022-02-25T12:36:39Z</time>
      </trkpt>
      <trkpt lat="44.79659" lon="6.99615">
        <ele>2394.2</ele>
        <time>2022-02-25T12:36:40Z</time>
      </trkpt>
      <trkpt lat="44.79659" lon="6.99615">
        <ele>2394.2</ele>
        <time>2022-02-25T12:36:41Z</time>
      </trkpt>
      <trkpt lat="44.79659" lon="6.99615">
        <ele>2394.2</ele>
        <time>2022-02-25T12:36:42Z</time>
      </trkpt>
      <trkpt lat="44.79659" lon="6.99617">
        <ele>2394.7</ele>
        <time>2022-02-25T12:36:43Z</time>
      </trkpt>
      <trkpt lat="44.79659" lon="6.99617">
        <ele>2394.7</ele>
        <time>2022-02-25T12:36:44Z</time>
      </trkpt>
      <trkpt lat="44.79659" lon="6.99617">
        <ele>2394.7</ele>
        <time>2022-02-25T12:36:45Z</time>
      </trkpt>
      <trkpt lat="44.79657" lon="6.99619">
        <ele>2394.9</ele>
        <time>2022-02-25T12:36:46Z</time>
      </trkpt>
      <trkpt lat="44.79657" lon="6.99619">
        <ele>2394.9</ele>
        <time>2022-02-25T12:36:47Z</time>
      </trkpt>
      <trkpt lat="44.79657" lon="6.99619">
        <ele>2394.9</ele>
        <time>2022-02-25T12:36:48Z</time>
      </trkpt>
      <trkpt lat="44.79657" lon="6.99619">
        <ele>2394.9</ele>
        <time>2022-02-25T12:36:49Z</time>
      </trkpt>
      <trkpt lat="44.79657" lon="6.99622">
        <ele>2395.5</ele>
        <time>2022-02-25T12:36:50Z</time>
      </trkpt>
      <trkpt lat="44.79657" lon="6.99622">
        <ele>2395.5</ele>
        <time>2022-02-25T12:36:51Z</time>
      </trkpt>
      <trkpt lat="44.79657" lon="6.99622">
        <ele>2395.5</ele>
        <time>2022-02-25T12:36:52Z</time>
      </trkpt>
      <trkpt lat="44.79655" lon="6.99624">
        <ele>2395.7</ele>
        <time>2022-02-25T12:36:53Z</time>
      </trkpt>
      <trkpt lat="44.79655" lon="6.99624">
        <ele>2395.7</ele>
        <time>2022-02-25T12:36:54Z</time>
      </trkpt>
      <trkpt lat="44.79655" lon="6.99624">
        <ele>2395.7</ele>
        <time>2022-02-25T12:36:55Z</time>
      </trkpt>
      <trkpt lat="44.79655" lon="6.99624">
        <ele>2395.7</ele>
        <time>2022-02-25T12:36:56Z</time>
      </trkpt>
      <trkpt lat="44.79654" lon="6.99627">
        <ele>2396.3</ele>
        <time>2022-02-25T12:36:57Z</time>
      </trkpt>
      <trkpt lat="44.79654" lon="6.99627">
        <ele>2396.3</ele>
        <time>2022-02-25T12:36:58Z</time>
      </trkpt>
      <trkpt lat="44.79654" lon="6.99627">
        <ele>2396.3</ele>
        <time>2022-02-25T12:36:59Z</time>
      </trkpt>
      <trkpt lat="44.79654" lon="6.9963">
        <ele>2396.9</ele>
        <time>2022-02-25T12:37:00Z</time>
      </trkpt>
      <trkpt lat="44.79654" lon="6.9963">
        <ele>2396.9</ele>
        <time>2022-02-25T12:37:01Z</time>
      </trkpt>
      <trkpt lat="44.79654" lon="6.9963">
        <ele>2396.9</ele>
        <time>2022-02-25T12:37:02Z</time>
      </trkpt>
      <trkpt lat="44.79654" lon="6.9963">
        <ele>2396.9</ele>
        <time>2022-02-25T12:37:03Z</time>
      </trkpt>
      <trkpt lat="44.79653" lon="6.99632">
        <ele>2397.2</ele>
        <time>2022-02-25T12:37:04Z</time>
      </trkpt>
      <trkpt lat="44.79653" lon="6.99632">
        <ele>2397.2</ele>
        <time>2022-02-25T12:37:05Z</time>
      </trkpt>
      <trkpt lat="44.79653" lon="6.99632">
        <ele>2397.2</ele>
        <time>2022-02-25T12:37:06Z</time>
      </trkpt>
      <trkpt lat="44.79653" lon="6.99632">
        <ele>2397.2</ele>
        <time>2022-02-25T12:37:07Z</time>
      </trkpt>
      <trkpt lat="44.79653" lon="6.99636">
        <ele>2398</ele>
        <time>2022-02-25T12:37:08Z</time>
      </trkpt>
      <trkpt lat="44.79653" lon="6.99636">
        <ele>2398</ele>
        <time>2022-02-25T12:37:09Z</time>
      </trkpt>
      <trkpt lat="44.79653" lon="6.99636">
        <ele>2398</ele>
        <time>2022-02-25T12:37:10Z</time>
      </trkpt>
      <trkpt lat="44.79653" lon="6.99638">
        <ele>2398.3</ele>
        <time>2022-02-25T12:37:11Z</time>
      </trkpt>
      <trkpt lat="44.79653" lon="6.99638">
        <ele>2398.3</ele>
        <time>2022-02-25T12:37:12Z</time>
      </trkpt>
      <trkpt lat="44.79653" lon="6.99638">
        <ele>2398.3</ele>
        <time>2022-02-25T12:37:13Z</time>
      </trkpt>
      <trkpt lat="44.79653" lon="6.99638">
        <ele>2398.3</ele>
        <time>2022-02-25T12:37:14Z</time>
      </trkpt>
      <trkpt lat="44.79653" lon="6.99641">
        <ele>2398.9</ele>
        <time>2022-02-25T12:37:15Z</time>
      </trkpt>
      <trkpt lat="44.79653" lon="6.99641">
        <ele>2398.9</ele>
        <time>2022-02-25T12:37:16Z</time>
      </trkpt>
      <trkpt lat="44.79653" lon="6.99641">
        <ele>2398.9</ele>
        <time>2022-02-25T12:37:17Z</time>
      </trkpt>
      <trkpt lat="44.79653" lon="6.99641">
        <ele>2398.9</ele>
        <time>2022-02-25T12:37:18Z</time>
      </trkpt>
      <trkpt lat="44.79653" lon="6.99644">
        <ele>2399.4</ele>
        <time>2022-02-25T12:37:19Z</time>
      </trkpt>
      <trkpt lat="44.79653" lon="6.99644">
        <ele>2399.4</ele>
        <time>2022-02-25T12:37:20Z</time>
      </trkpt>
      <trkpt lat="44.79653" lon="6.99644">
        <ele>2399.4</ele>
        <time>2022-02-25T12:37:21Z</time>
      </trkpt>
      <trkpt lat="44.79653" lon="6.99644">
        <ele>2399.4</ele>
        <time>2022-02-25T12:37:22Z</time>
      </trkpt>
      <trkpt lat="44.79654" lon="6.99646">
        <ele>2399.9</ele>
        <time>2022-02-25T12:37:23Z</time>
      </trkpt>
      <trkpt lat="44.79654" lon="6.99646">
        <ele>2399.9</ele>
        <time>2022-02-25T12:37:24Z</time>
      </trkpt>
      <trkpt lat="44.79654" lon="6.99646">
        <ele>2399.9</ele>
        <time>2022-02-25T12:37:25Z</time>
      </trkpt>
      <trkpt lat="44.79654" lon="6.99646">
        <ele>2399.9</ele>
        <time>2022-02-25T12:37:26Z</time>
      </trkpt>
      <trkpt lat="44.79655" lon="6.99649">
        <ele>2400.5</ele>
        <time>2022-02-25T12:37:27Z</time>
      </trkpt>
      <trkpt lat="44.79655" lon="6.99649">
        <ele>2400.5</ele>
        <time>2022-02-25T12:37:28Z</time>
      </trkpt>
      <trkpt lat="44.79655" lon="6.99649">
        <ele>2400.5</ele>
        <time>2022-02-25T12:37:29Z</time>
      </trkpt>
      <trkpt lat="44.79655" lon="6.99649">
        <ele>2400.5</ele>
        <time>2022-02-25T12:37:30Z</time>
      </trkpt>
      <trkpt lat="44.79655" lon="6.99652">
        <ele>2401</ele>
        <time>2022-02-25T12:37:31Z</time>
      </trkpt>
      <trkpt lat="44.79655" lon="6.99652">
        <ele>2401</ele>
        <time>2022-02-25T12:37:32Z</time>
      </trkpt>
      <trkpt lat="44.79655" lon="6.99652">
        <ele>2401</ele>
        <time>2022-02-25T12:37:33Z</time>
      </trkpt>
      <trkpt lat="44.79655" lon="6.99652">
        <ele>2401</ele>
        <time>2022-02-25T12:37:34Z</time>
      </trkpt>
      <trkpt lat="44.79655" lon="6.99655">
        <ele>2401.5</ele>
        <time>2022-02-25T12:37:35Z</time>
      </trkpt>
      <trkpt lat="44.79655" lon="6.99655">
        <ele>2401.5</ele>
        <time>2022-02-25T12:37:36Z</time>
      </trkpt>
      <trkpt lat="44.79655" lon="6.99655">
        <ele>2401.5</ele>
        <time>2022-02-25T12:37:37Z</time>
      </trkpt>
      <trkpt lat="44.79655" lon="6.99655">
        <ele>2401.5</ele>
        <time>2022-02-25T12:37:38Z</time>
      </trkpt>
      <trkpt lat="44.79657" lon="6.99657">
        <ele>2402</ele>
        <time>2022-02-25T12:37:39Z</time>
      </trkpt>
      <trkpt lat="44.79657" lon="6.99657">
        <ele>2402</ele>
        <time>2022-02-25T12:37:40Z</time>
      </trkpt>
      <trkpt lat="44.79657" lon="6.99657">
        <ele>2402</ele>
        <time>2022-02-25T12:37:41Z</time>
      </trkpt>
      <trkpt lat="44.79657" lon="6.99657">
        <ele>2402</ele>
        <time>2022-02-25T12:37:42Z</time>
      </trkpt>
      <trkpt lat="44.79658" lon="6.9966">
        <ele>2402.6</ele>
        <time>2022-02-25T12:37:43Z</time>
      </trkpt>
      <trkpt lat="44.79658" lon="6.9966">
        <ele>2402.6</ele>
        <time>2022-02-25T12:37:44Z</time>
      </trkpt>
      <trkpt lat="44.79658" lon="6.9966">
        <ele>2402.6</ele>
        <time>2022-02-25T12:37:45Z</time>
      </trkpt>
      <trkpt lat="44.79658" lon="6.9966">
        <ele>2402.6</ele>
        <time>2022-02-25T12:37:46Z</time>
      </trkpt>
      <trkpt lat="44.79658" lon="6.99662">
        <ele>2402.9</ele>
        <time>2022-02-25T12:37:47Z</time>
      </trkpt>
      <trkpt lat="44.79658" lon="6.99662">
        <ele>2402.9</ele>
        <time>2022-02-25T12:37:48Z</time>
      </trkpt>
      <trkpt lat="44.79658" lon="6.99662">
        <ele>2402.9</ele>
        <time>2022-02-25T12:37:49Z</time>
      </trkpt>
      <trkpt lat="44.79658" lon="6.99662">
        <ele>2402.9</ele>
        <time>2022-02-25T12:37:50Z</time>
      </trkpt>
      <trkpt lat="44.79659" lon="6.99665">
        <ele>2403.5</ele>
        <time>2022-02-25T12:37:51Z</time>
      </trkpt>
      <trkpt lat="44.79659" lon="6.99665">
        <ele>2403.5</ele>
        <time>2022-02-25T12:37:52Z</time>
      </trkpt>
      <trkpt lat="44.79659" lon="6.99665">
        <ele>2403.5</ele>
        <time>2022-02-25T12:37:53Z</time>
      </trkpt>
      <trkpt lat="44.79659" lon="6.99665">
        <ele>2403.5</ele>
        <time>2022-02-25T12:37:54Z</time>
      </trkpt>
      <trkpt lat="44.79659" lon="6.99668">
        <ele>2404</ele>
        <time>2022-02-25T12:37:55Z</time>
      </trkpt>
      <trkpt lat="44.79659" lon="6.99668">
        <ele>2404</ele>
        <time>2022-02-25T12:37:56Z</time>
      </trkpt>
      <trkpt lat="44.79659" lon="6.99668">
        <ele>2404</ele>
        <time>2022-02-25T12:37:57Z</time>
      </trkpt>
      <trkpt lat="44.79658" lon="6.99671">
        <ele>2404.5</ele>
        <time>2022-02-25T12:37:58Z</time>
      </trkpt>
      <trkpt lat="44.79658" lon="6.99671">
        <ele>2404.5</ele>
        <time>2022-02-25T12:37:59Z</time>
      </trkpt>
      <trkpt lat="44.79658" lon="6.99671">
        <ele>2404.5</ele>
        <time>2022-02-25T12:38:00Z</time>
      </trkpt>
      <trkpt lat="44.79656" lon="6.99672">
        <ele>2404.6</ele>
        <time>2022-02-25T12:38:01Z</time>
      </trkpt>
      <trkpt lat="44.79656" lon="6.99672">
        <ele>2404.6</ele>
        <time>2022-02-25T12:38:02Z</time>
      </trkpt>
      <trkpt lat="44.79656" lon="6.99672">
        <ele>2404.6</ele>
        <time>2022-02-25T12:38:03Z</time>
      </trkpt>
      <trkpt lat="44.79656" lon="6.99672">
        <ele>2404.6</ele>
        <time>2022-02-25T12:38:04Z</time>
      </trkpt>
      <trkpt lat="44.79654" lon="6.99672">
        <ele>2404.6</ele>
        <time>2022-02-25T12:38:05Z</time>
      </trkpt>
      <trkpt lat="44.79654" lon="6.99672">
        <ele>2404.6</ele>
        <time>2022-02-25T12:38:06Z</time>
      </trkpt>
      <trkpt lat="44.79654" lon="6.99672">
        <ele>2404.6</ele>
        <time>2022-02-25T12:38:07Z</time>
      </trkpt>
      <trkpt lat="44.79654" lon="6.99672">
        <ele>2404.6</ele>
        <time>2022-02-25T12:38:08Z</time>
      </trkpt>
      <trkpt lat="44.79652" lon="6.99672">
        <ele>2404.5</ele>
        <time>2022-02-25T12:38:09Z</time>
      </trkpt>
      <trkpt lat="44.79652" lon="6.99672">
        <ele>2404.5</ele>
        <time>2022-02-25T12:38:10Z</time>
      </trkpt>
      <trkpt lat="44.79652" lon="6.99672">
        <ele>2404.5</ele>
        <time>2022-02-25T12:38:11Z</time>
      </trkpt>
      <trkpt lat="44.79652" lon="6.99672">
        <ele>2404.5</ele>
        <time>2022-02-25T12:38:12Z</time>
      </trkpt>
      <trkpt lat="44.7965" lon="6.99672">
        <ele>2404.5</ele>
        <time>2022-02-25T12:38:13Z</time>
      </trkpt>
      <trkpt lat="44.7965" lon="6.99672">
        <ele>2404.5</ele>
        <time>2022-02-25T12:38:14Z</time>
      </trkpt>
      <trkpt lat="44.7965" lon="6.99672">
        <ele>2404.5</ele>
        <time>2022-02-25T12:38:15Z</time>
      </trkpt>
      <trkpt lat="44.7965" lon="6.99672">
        <ele>2404.5</ele>
        <time>2022-02-25T12:38:16Z</time>
      </trkpt>
      <trkpt lat="44.79648" lon="6.99673">
        <ele>2404.7</ele>
        <time>2022-02-25T12:38:17Z</time>
      </trkpt>
      <trkpt lat="44.79648" lon="6.99673">
        <ele>2404.7</ele>
        <time>2022-02-25T12:38:18Z</time>
      </trkpt>
      <trkpt lat="44.79648" lon="6.99673">
        <ele>2404.7</ele>
        <time>2022-02-25T12:38:19Z</time>
      </trkpt>
      <trkpt lat="44.79648" lon="6.99673">
        <ele>2404.7</ele>
        <time>2022-02-25T12:38:20Z</time>
      </trkpt>
      <trkpt lat="44.79648" lon="6.99673">
        <ele>2404.7</ele>
        <time>2022-02-25T12:38:21Z</time>
      </trkpt>
      <trkpt lat="44.79645" lon="6.99673">
        <ele>2404.7</ele>
        <time>2022-02-25T12:38:22Z</time>
      </trkpt>
      <trkpt lat="44.79645" lon="6.99673">
        <ele>2404.7</ele>
        <time>2022-02-25T12:38:23Z</time>
      </trkpt>
      <trkpt lat="44.79645" lon="6.99673">
        <ele>2404.7</ele>
        <time>2022-02-25T12:38:24Z</time>
      </trkpt>
      <trkpt lat="44.79645" lon="6.99673">
        <ele>2404.7</ele>
        <time>2022-02-25T12:38:25Z</time>
      </trkpt>
      <trkpt lat="44.79645" lon="6.99673">
        <ele>2404.7</ele>
        <time>2022-02-25T12:38:26Z</time>
      </trkpt>
      <trkpt lat="44.79645" lon="6.99673">
        <ele>2404.7</ele>
        <time>2022-02-25T12:38:27Z</time>
      </trkpt>
      <trkpt lat="44.79644" lon="6.99674">
        <ele>2404.9</ele>
        <time>2022-02-25T12:38:28Z</time>
      </trkpt>
      <trkpt lat="44.79644" lon="6.99674">
        <ele>2404.9</ele>
        <time>2022-02-25T12:38:29Z</time>
      </trkpt>
      <trkpt lat="44.79644" lon="6.99674">
        <ele>2404.9</ele>
        <time>2022-02-25T12:38:30Z</time>
      </trkpt>
      <trkpt lat="44.79644" lon="6.99674">
        <ele>2404.9</ele>
        <time>2022-02-25T12:38:31Z</time>
      </trkpt>
      <trkpt lat="44.79644" lon="6.99674">
        <ele>2404.9</ele>
        <time>2022-02-25T12:38:32Z</time>
      </trkpt>
      <trkpt lat="44.79641" lon="6.99676">
        <ele>2405.4</ele>
        <time>2022-02-25T12:38:33Z</time>
      </trkpt>
      <trkpt lat="44.79641" lon="6.99676">
        <ele>2405.4</ele>
        <time>2022-02-25T12:38:34Z</time>
      </trkpt>
      <trkpt lat="44.79641" lon="6.99676">
        <ele>2405.4</ele>
        <time>2022-02-25T12:38:35Z</time>
      </trkpt>
      <trkpt lat="44.79641" lon="6.99676">
        <ele>2405.4</ele>
        <time>2022-02-25T12:38:36Z</time>
      </trkpt>
      <trkpt lat="44.7964" lon="6.99677">
        <ele>2405.6</ele>
        <time>2022-02-25T12:38:37Z</time>
      </trkpt>
      <trkpt lat="44.7964" lon="6.99677">
        <ele>2405.6</ele>
        <time>2022-02-25T12:38:38Z</time>
      </trkpt>
      <trkpt lat="44.7964" lon="6.99677">
        <ele>2405.6</ele>
        <time>2022-02-25T12:38:39Z</time>
      </trkpt>
      <trkpt lat="44.7964" lon="6.99677">
        <ele>2405.6</ele>
        <time>2022-02-25T12:38:40Z</time>
      </trkpt>
      <trkpt lat="44.7964" lon="6.99677">
        <ele>2405.6</ele>
        <time>2022-02-25T12:38:41Z</time>
      </trkpt>
      <trkpt lat="44.7964" lon="6.99677">
        <ele>2405.6</ele>
        <time>2022-02-25T12:38:42Z</time>
      </trkpt>
      <trkpt lat="44.79637" lon="6.99679">
        <ele>2406</ele>
        <time>2022-02-25T12:38:43Z</time>
      </trkpt>
      <trkpt lat="44.79637" lon="6.99679">
        <ele>2406</ele>
        <time>2022-02-25T12:38:44Z</time>
      </trkpt>
      <trkpt lat="44.79637" lon="6.99679">
        <ele>2406</ele>
        <time>2022-02-25T12:38:45Z</time>
      </trkpt>
      <trkpt lat="44.79637" lon="6.99679">
        <ele>2406</ele>
        <time>2022-02-25T12:38:46Z</time>
      </trkpt>
      <trkpt lat="44.79637" lon="6.99679">
        <ele>2406</ele>
        <time>2022-02-25T12:38:47Z</time>
      </trkpt>
      <trkpt lat="44.79636" lon="6.99681">
        <ele>2406.4</ele>
        <time>2022-02-25T12:38:48Z</time>
      </trkpt>
      <trkpt lat="44.79636" lon="6.99681">
        <ele>2406.4</ele>
        <time>2022-02-25T12:38:49Z</time>
      </trkpt>
      <trkpt lat="44.79636" lon="6.99681">
        <ele>2406.4</ele>
        <time>2022-02-25T12:38:50Z</time>
      </trkpt>
      <trkpt lat="44.79636" lon="6.99681">
        <ele>2406.4</ele>
        <time>2022-02-25T12:38:51Z</time>
      </trkpt>
      <trkpt lat="44.79634" lon="6.99682">
        <ele>2406.5</ele>
        <time>2022-02-25T12:38:52Z</time>
      </trkpt>
      <trkpt lat="44.79634" lon="6.99682">
        <ele>2406.5</ele>
        <time>2022-02-25T12:38:53Z</time>
      </trkpt>
      <trkpt lat="44.79634" lon="6.99682">
        <ele>2406.5</ele>
        <time>2022-02-25T12:38:54Z</time>
      </trkpt>
      <trkpt lat="44.79634" lon="6.99682">
        <ele>2406.5</ele>
        <time>2022-02-25T12:38:55Z</time>
      </trkpt>
      <trkpt lat="44.79634" lon="6.99682">
        <ele>2406.5</ele>
        <time>2022-02-25T12:38:56Z</time>
      </trkpt>
      <trkpt lat="44.79632" lon="6.99683">
        <ele>2406.6</ele>
        <time>2022-02-25T12:38:57Z</time>
      </trkpt>
      <trkpt lat="44.79632" lon="6.99683">
        <ele>2406.6</ele>
        <time>2022-02-25T12:38:58Z</time>
      </trkpt>
      <trkpt lat="44.79632" lon="6.99683">
        <ele>2406.6</ele>
        <time>2022-02-25T12:38:59Z</time>
      </trkpt>
      <trkpt lat="44.79632" lon="6.99683">
        <ele>2406.6</ele>
        <time>2022-02-25T12:39:00Z</time>
      </trkpt>
      <trkpt lat="44.7963" lon="6.99685">
        <ele>2407</ele>
        <time>2022-02-25T12:39:01Z</time>
      </trkpt>
      <trkpt lat="44.7963" lon="6.99685">
        <ele>2407</ele>
        <time>2022-02-25T12:39:02Z</time>
      </trkpt>
      <trkpt lat="44.7963" lon="6.99685">
        <ele>2407</ele>
        <time>2022-02-25T12:39:03Z</time>
      </trkpt>
      <trkpt lat="44.7963" lon="6.99685">
        <ele>2407</ele>
        <time>2022-02-25T12:39:04Z</time>
      </trkpt>
      <trkpt lat="44.79629" lon="6.99687">
        <ele>2407.4</ele>
        <time>2022-02-25T12:39:05Z</time>
      </trkpt>
      <trkpt lat="44.79629" lon="6.99687">
        <ele>2407.4</ele>
        <time>2022-02-25T12:39:06Z</time>
      </trkpt>
      <trkpt lat="44.79629" lon="6.99687">
        <ele>2407.4</ele>
        <time>2022-02-25T12:39:07Z</time>
      </trkpt>
      <trkpt lat="44.79629" lon="6.99687">
        <ele>2407.4</ele>
        <time>2022-02-25T12:39:08Z</time>
      </trkpt>
      <trkpt lat="44.79629" lon="6.99687">
        <ele>2407.4</ele>
        <time>2022-02-25T12:39:09Z</time>
      </trkpt>
      <trkpt lat="44.79627" lon="6.99689">
        <ele>2407.8</ele>
        <time>2022-02-25T12:39:10Z</time>
      </trkpt>
      <trkpt lat="44.79627" lon="6.99689">
        <ele>2407.8</ele>
        <time>2022-02-25T12:39:11Z</time>
      </trkpt>
      <trkpt lat="44.79627" lon="6.99689">
        <ele>2407.8</ele>
        <time>2022-02-25T12:39:12Z</time>
      </trkpt>
      <trkpt lat="44.79627" lon="6.99689">
        <ele>2407.8</ele>
        <time>2022-02-25T12:39:13Z</time>
      </trkpt>
      <trkpt lat="44.79627" lon="6.99689">
        <ele>2407.8</ele>
        <time>2022-02-25T12:39:14Z</time>
      </trkpt>
      <trkpt lat="44.79626" lon="6.99691">
        <ele>2408.2</ele>
        <time>2022-02-25T12:39:15Z</time>
      </trkpt>
      <trkpt lat="44.79626" lon="6.99691">
        <ele>2408.2</ele>
        <time>2022-02-25T12:39:16Z</time>
      </trkpt>
      <trkpt lat="44.79626" lon="6.99691">
        <ele>2408.2</ele>
        <time>2022-02-25T12:39:17Z</time>
      </trkpt>
      <trkpt lat="44.79626" lon="6.99691">
        <ele>2408.2</ele>
        <time>2022-02-25T12:39:18Z</time>
      </trkpt>
      <trkpt lat="44.79625" lon="6.99693">
        <ele>2408.6</ele>
        <time>2022-02-25T12:39:19Z</time>
      </trkpt>
      <trkpt lat="44.79625" lon="6.99693">
        <ele>2408.6</ele>
        <time>2022-02-25T12:39:20Z</time>
      </trkpt>
      <trkpt lat="44.79625" lon="6.99693">
        <ele>2408.6</ele>
        <time>2022-02-25T12:39:21Z</time>
      </trkpt>
      <trkpt lat="44.79625" lon="6.99693">
        <ele>2408.6</ele>
        <time>2022-02-25T12:39:22Z</time>
      </trkpt>
      <trkpt lat="44.79623" lon="6.99695">
        <ele>2409.1</ele>
        <time>2022-02-25T12:39:23Z</time>
      </trkpt>
      <trkpt lat="44.79623" lon="6.99695">
        <ele>2409.1</ele>
        <time>2022-02-25T12:39:24Z</time>
      </trkpt>
      <trkpt lat="44.79623" lon="6.99695">
        <ele>2409.1</ele>
        <time>2022-02-25T12:39:25Z</time>
      </trkpt>
      <trkpt lat="44.79623" lon="6.99695">
        <ele>2409.1</ele>
        <time>2022-02-25T12:39:26Z</time>
      </trkpt>
      <trkpt lat="44.79623" lon="6.99695">
        <ele>2409.1</ele>
        <time>2022-02-25T12:39:27Z</time>
      </trkpt>
      <trkpt lat="44.79621" lon="6.99696">
        <ele>2409.3</ele>
        <time>2022-02-25T12:39:28Z</time>
      </trkpt>
      <trkpt lat="44.79621" lon="6.99696">
        <ele>2409.3</ele>
        <time>2022-02-25T12:39:29Z</time>
      </trkpt>
      <trkpt lat="44.79621" lon="6.99696">
        <ele>2409.3</ele>
        <time>2022-02-25T12:39:30Z</time>
      </trkpt>
      <trkpt lat="44.79621" lon="6.99696">
        <ele>2409.3</ele>
        <time>2022-02-25T12:39:31Z</time>
      </trkpt>
      <trkpt lat="44.79621" lon="6.99698">
        <ele>2410.1</ele>
        <time>2022-02-25T12:39:32Z</time>
      </trkpt>
      <trkpt lat="44.79621" lon="6.99698">
        <ele>2410.1</ele>
        <time>2022-02-25T12:39:33Z</time>
      </trkpt>
      <trkpt lat="44.79621" lon="6.99698">
        <ele>2410.1</ele>
        <time>2022-02-25T12:39:34Z</time>
      </trkpt>
      <trkpt lat="44.79621" lon="6.99698">
        <ele>2410.1</ele>
        <time>2022-02-25T12:39:35Z</time>
      </trkpt>
      <trkpt lat="44.79621" lon="6.99698">
        <ele>2410.1</ele>
        <time>2022-02-25T12:39:36Z</time>
      </trkpt>
      <trkpt lat="44.79619" lon="6.997">
        <ele>2410.7</ele>
        <time>2022-02-25T12:39:37Z</time>
      </trkpt>
      <trkpt lat="44.79619" lon="6.997">
        <ele>2410.7</ele>
        <time>2022-02-25T12:39:38Z</time>
      </trkpt>
      <trkpt lat="44.79619" lon="6.997">
        <ele>2410.7</ele>
        <time>2022-02-25T12:39:39Z</time>
      </trkpt>
      <trkpt lat="44.79619" lon="6.997">
        <ele>2410.7</ele>
        <time>2022-02-25T12:39:40Z</time>
      </trkpt>
      <trkpt lat="44.79619" lon="6.997">
        <ele>2410.7</ele>
        <time>2022-02-25T12:39:41Z</time>
      </trkpt>
      <trkpt lat="44.79618" lon="6.99702">
        <ele>2411.4</ele>
        <time>2022-02-25T12:39:42Z</time>
      </trkpt>
      <trkpt lat="44.79618" lon="6.99702">
        <ele>2411.4</ele>
        <time>2022-02-25T12:39:43Z</time>
      </trkpt>
      <trkpt lat="44.79618" lon="6.99702">
        <ele>2411.4</ele>
        <time>2022-02-25T12:39:44Z</time>
      </trkpt>
      <trkpt lat="44.79618" lon="6.99702">
        <ele>2411.4</ele>
        <time>2022-02-25T12:39:45Z</time>
      </trkpt>
      <trkpt lat="44.79618" lon="6.99702">
        <ele>2411.4</ele>
        <time>2022-02-25T12:39:46Z</time>
      </trkpt>
      <trkpt lat="44.79617" lon="6.99704">
        <ele>2412.1</ele>
        <time>2022-02-25T12:39:47Z</time>
      </trkpt>
      <trkpt lat="44.79617" lon="6.99704">
        <ele>2412.1</ele>
        <time>2022-02-25T12:39:48Z</time>
      </trkpt>
      <trkpt lat="44.79617" lon="6.99704">
        <ele>2412.1</ele>
        <time>2022-02-25T12:39:49Z</time>
      </trkpt>
      <trkpt lat="44.79617" lon="6.99704">
        <ele>2412.1</ele>
        <time>2022-02-25T12:39:50Z</time>
      </trkpt>
      <trkpt lat="44.79617" lon="6.99704">
        <ele>2412.1</ele>
        <time>2022-02-25T12:39:51Z</time>
      </trkpt>
      <trkpt lat="44.79617" lon="6.99704">
        <ele>2412.1</ele>
        <time>2022-02-25T12:39:52Z</time>
      </trkpt>
      <trkpt lat="44.79617" lon="6.99704">
        <ele>2412.1</ele>
        <time>2022-02-25T12:39:53Z</time>
      </trkpt>
      <trkpt lat="44.79617" lon="6.99704">
        <ele>2412.1</ele>
        <time>2022-02-25T12:39:54Z</time>
      </trkpt>
      <trkpt lat="44.79617" lon="6.99704">
        <ele>2412.1</ele>
        <time>2022-02-25T12:39:55Z</time>
      </trkpt>
      <trkpt lat="44.79617" lon="6.99704">
        <ele>2412.1</ele>
        <time>2022-02-25T12:39:56Z</time>
      </trkpt>
      <trkpt lat="44.79617" lon="6.99704">
        <ele>2412.1</ele>
        <time>2022-02-25T12:39:57Z</time>
      </trkpt>
      <trkpt lat="44.79617" lon="6.99704">
        <ele>2412.1</ele>
        <time>2022-02-25T12:39:58Z</time>
      </trkpt>
      <trkpt lat="44.79617" lon="6.99704">
        <ele>2412.1</ele>
        <time>2022-02-25T12:39:59Z</time>
      </trkpt>
      <trkpt lat="44.79617" lon="6.99704">
        <ele>2412.1</ele>
        <time>2022-02-25T12:40:00Z</time>
      </trkpt>
      <trkpt lat="44.79617" lon="6.99704">
        <ele>2412.1</ele>
        <time>2022-02-25T12:40:01Z</time>
      </trkpt>
      <trkpt lat="44.79617" lon="6.99704">
        <ele>2412.1</ele>
        <time>2022-02-25T12:40:02Z</time>
      </trkpt>
      <trkpt lat="44.79617" lon="6.99704">
        <ele>2412.1</ele>
        <time>2022-02-25T12:40:03Z</time>
      </trkpt>
      <trkpt lat="44.79617" lon="6.99704">
        <ele>2412.1</ele>
        <time>2022-02-25T12:40:04Z</time>
      </trkpt>
      <trkpt lat="44.79617" lon="6.99704">
        <ele>2412.1</ele>
        <time>2022-02-25T12:40:05Z</time>
      </trkpt>
      <trkpt lat="44.79617" lon="6.99704">
        <ele>2412.1</ele>
        <time>2022-02-25T12:40:06Z</time>
      </trkpt>
      <trkpt lat="44.79617" lon="6.99704">
        <ele>2412.1</ele>
        <time>2022-02-25T12:40:07Z</time>
      </trkpt>
      <trkpt lat="44.79617" lon="6.99704">
        <ele>2412.1</ele>
        <time>2022-02-25T12:40:08Z</time>
      </trkpt>
      <trkpt lat="44.79617" lon="6.99704">
        <ele>2412.1</ele>
        <time>2022-02-25T12:40:09Z</time>
      </trkpt>
      <trkpt lat="44.79617" lon="6.99704">
        <ele>2412.1</ele>
        <time>2022-02-25T12:40:10Z</time>
      </trkpt>
      <trkpt lat="44.79617" lon="6.99704">
        <ele>2412.1</ele>
        <time>2022-02-25T12:40:11Z</time>
      </trkpt>
      <trkpt lat="44.79615" lon="6.99706">
        <ele>2412.8</ele>
        <time>2022-02-25T12:40:12Z</time>
      </trkpt>
      <trkpt lat="44.79615" lon="6.99706">
        <ele>2412.8</ele>
        <time>2022-02-25T12:40:13Z</time>
      </trkpt>
      <trkpt lat="44.79613" lon="6.99709">
        <ele>2413.9</ele>
        <time>2022-02-25T12:40:14Z</time>
      </trkpt>
      <trkpt lat="44.79613" lon="6.99709">
        <ele>2413.9</ele>
        <time>2022-02-25T12:40:15Z</time>
      </trkpt>
      <trkpt lat="44.79612" lon="6.99711">
        <ele>2414.6</ele>
        <time>2022-02-25T12:40:16Z</time>
      </trkpt>
      <trkpt lat="44.79612" lon="6.99711">
        <ele>2414.6</ele>
        <time>2022-02-25T12:40:17Z</time>
      </trkpt>
      <trkpt lat="44.79612" lon="6.99711">
        <ele>2414.6</ele>
        <time>2022-02-25T12:40:18Z</time>
      </trkpt>
      <trkpt lat="44.7961" lon="6.99713">
        <ele>2415.3</ele>
        <time>2022-02-25T12:40:19Z</time>
      </trkpt>
      <trkpt lat="44.7961" lon="6.99713">
        <ele>2415.3</ele>
        <time>2022-02-25T12:40:20Z</time>
      </trkpt>
      <trkpt lat="44.7961" lon="6.99713">
        <ele>2415.3</ele>
        <time>2022-02-25T12:40:21Z</time>
      </trkpt>
      <trkpt lat="44.7961" lon="6.99713">
        <ele>2415.3</ele>
        <time>2022-02-25T12:40:22Z</time>
      </trkpt>
      <trkpt lat="44.7961" lon="6.99713">
        <ele>2415.3</ele>
        <time>2022-02-25T12:40:23Z</time>
      </trkpt>
      <trkpt lat="44.7961" lon="6.99713">
        <ele>2415.3</ele>
        <time>2022-02-25T12:40:24Z</time>
      </trkpt>
      <trkpt lat="44.7961" lon="6.99713">
        <ele>2415.3</ele>
        <time>2022-02-25T12:40:25Z</time>
      </trkpt>
      <trkpt lat="44.7961" lon="6.99713">
        <ele>2415.3</ele>
        <time>2022-02-25T12:40:26Z</time>
      </trkpt>
      <trkpt lat="44.7961" lon="6.99713">
        <ele>2415.3</ele>
        <time>2022-02-25T12:40:27Z</time>
      </trkpt>
      <trkpt lat="44.7961" lon="6.99713">
        <ele>2415.3</ele>
        <time>2022-02-25T12:40:28Z</time>
      </trkpt>
      <trkpt lat="44.7961" lon="6.99713">
        <ele>2415.3</ele>
        <time>2022-02-25T12:40:29Z</time>
      </trkpt>
      <trkpt lat="44.7961" lon="6.99713">
        <ele>2415.3</ele>
        <time>2022-02-25T12:40:30Z</time>
      </trkpt>
      <trkpt lat="44.7961" lon="6.99713">
        <ele>2415.3</ele>
        <time>2022-02-25T12:40:31Z</time>
      </trkpt>
      <trkpt lat="44.7961" lon="6.99713">
        <ele>2415.3</ele>
        <time>2022-02-25T12:40:32Z</time>
      </trkpt>
      <trkpt lat="44.7961" lon="6.99713">
        <ele>2415.3</ele>
        <time>2022-02-25T12:40:33Z</time>
      </trkpt>
      <trkpt lat="44.7961" lon="6.99713">
        <ele>2415.3</ele>
        <time>2022-02-25T12:40:34Z</time>
      </trkpt>
      <trkpt lat="44.7961" lon="6.99713">
        <ele>2415.3</ele>
        <time>2022-02-25T12:40:35Z</time>
      </trkpt>
      <trkpt lat="44.7961" lon="6.99713">
        <ele>2415.3</ele>
        <time>2022-02-25T12:40:36Z</time>
      </trkpt>
      <trkpt lat="44.7961" lon="6.99713">
        <ele>2415.3</ele>
        <time>2022-02-25T12:40:37Z</time>
      </trkpt>
      <trkpt lat="44.7961" lon="6.99713">
        <ele>2415.3</ele>
        <time>2022-02-25T12:40:38Z</time>
      </trkpt>
      <trkpt lat="44.7961" lon="6.99713">
        <ele>2415.3</ele>
        <time>2022-02-25T12:40:39Z</time>
      </trkpt>
      <trkpt lat="44.7961" lon="6.99713">
        <ele>2415.3</ele>
        <time>2022-02-25T12:40:40Z</time>
      </trkpt>
      <trkpt lat="44.7961" lon="6.99713">
        <ele>2415.3</ele>
        <time>2022-02-25T12:40:41Z</time>
      </trkpt>
      <trkpt lat="44.7961" lon="6.99713">
        <ele>2415.3</ele>
        <time>2022-02-25T12:40:42Z</time>
      </trkpt>
      <trkpt lat="44.7961" lon="6.99713">
        <ele>2415.3</ele>
        <time>2022-02-25T12:40:43Z</time>
      </trkpt>
      <trkpt lat="44.7961" lon="6.99713">
        <ele>2415.3</ele>
        <time>2022-02-25T12:40:44Z</time>
      </trkpt>
      <trkpt lat="44.7961" lon="6.99713">
        <ele>2415.3</ele>
        <time>2022-02-25T12:40:45Z</time>
      </trkpt>
      <trkpt lat="44.7961" lon="6.99713">
        <ele>2415.3</ele>
        <time>2022-02-25T12:40:46Z</time>
      </trkpt>
      <trkpt lat="44.7961" lon="6.99713">
        <ele>2415.3</ele>
        <time>2022-02-25T12:40:47Z</time>
      </trkpt>
      <trkpt lat="44.7961" lon="6.99713">
        <ele>2415.3</ele>
        <time>2022-02-25T12:40:48Z</time>
      </trkpt>
      <trkpt lat="44.7961" lon="6.99713">
        <ele>2415.3</ele>
        <time>2022-02-25T12:40:49Z</time>
      </trkpt>
      <trkpt lat="44.7961" lon="6.99713">
        <ele>2415.3</ele>
        <time>2022-02-25T12:40:50Z</time>
      </trkpt>
      <trkpt lat="44.7961" lon="6.99713">
        <ele>2415.3</ele>
        <time>2022-02-25T12:40:51Z</time>
      </trkpt>
      <trkpt lat="44.7961" lon="6.99713">
        <ele>2415.3</ele>
        <time>2022-02-25T12:40:52Z</time>
      </trkpt>
      <trkpt lat="44.7961" lon="6.99713">
        <ele>2415.3</ele>
        <time>2022-02-25T12:40:53Z</time>
      </trkpt>
      <trkpt lat="44.79609" lon="6.99719">
        <ele>2417.6</ele>
        <time>2022-02-25T12:40:54Z</time>
      </trkpt>
      <trkpt lat="44.79609" lon="6.99719">
        <ele>2417.6</ele>
        <time>2022-02-25T12:40:55Z</time>
      </trkpt>
      <trkpt lat="44.79611" lon="6.99723">
        <ele>2419.1</ele>
        <time>2022-02-25T12:40:56Z</time>
      </trkpt>
      <trkpt lat="44.79611" lon="6.99723">
        <ele>2419.1</ele>
        <time>2022-02-25T12:40:57Z</time>
      </trkpt>
      <trkpt lat="44.79611" lon="6.99726">
        <ele>2419.5</ele>
        <time>2022-02-25T12:40:58Z</time>
      </trkpt>
      <trkpt lat="44.79611" lon="6.99726">
        <ele>2419.5</ele>
        <time>2022-02-25T12:40:59Z</time>
      </trkpt>
      <trkpt lat="44.79612" lon="6.99729">
        <ele>2420</ele>
        <time>2022-02-25T12:41:00Z</time>
      </trkpt>
      <trkpt lat="44.79612" lon="6.99729">
        <ele>2420</ele>
        <time>2022-02-25T12:41:01Z</time>
      </trkpt>
      <trkpt lat="44.79613" lon="6.99732">
        <ele>2420.5</ele>
        <time>2022-02-25T12:41:02Z</time>
      </trkpt>
      <trkpt lat="44.79613" lon="6.99732">
        <ele>2420.5</ele>
        <time>2022-02-25T12:41:03Z</time>
      </trkpt>
      <trkpt lat="44.79613" lon="6.99732">
        <ele>2420.5</ele>
        <time>2022-02-25T12:41:04Z</time>
      </trkpt>
      <trkpt lat="44.79614" lon="6.99735">
        <ele>2420.9</ele>
        <time>2022-02-25T12:41:05Z</time>
      </trkpt>
      <trkpt lat="44.79614" lon="6.99735">
        <ele>2420.9</ele>
        <time>2022-02-25T12:41:06Z</time>
      </trkpt>
      <trkpt lat="44.79614" lon="6.99735">
        <ele>2420.9</ele>
        <time>2022-02-25T12:41:07Z</time>
      </trkpt>
      <trkpt lat="44.79615" lon="6.99737">
        <ele>2421.2</ele>
        <time>2022-02-25T12:41:08Z</time>
      </trkpt>
      <trkpt lat="44.79615" lon="6.99737">
        <ele>2421.2</ele>
        <time>2022-02-25T12:41:09Z</time>
      </trkpt>
      <trkpt lat="44.79615" lon="6.99737">
        <ele>2421.2</ele>
        <time>2022-02-25T12:41:10Z</time>
      </trkpt>
      <trkpt lat="44.79616" lon="6.99739">
        <ele>2421.5</ele>
        <time>2022-02-25T12:41:11Z</time>
      </trkpt>
      <trkpt lat="44.79616" lon="6.99739">
        <ele>2421.5</ele>
        <time>2022-02-25T12:41:12Z</time>
      </trkpt>
      <trkpt lat="44.79616" lon="6.99739">
        <ele>2421.5</ele>
        <time>2022-02-25T12:41:13Z</time>
      </trkpt>
      <trkpt lat="44.79617" lon="6.99742">
        <ele>2421.9</ele>
        <time>2022-02-25T12:41:14Z</time>
      </trkpt>
      <trkpt lat="44.79617" lon="6.99742">
        <ele>2421.9</ele>
        <time>2022-02-25T12:41:15Z</time>
      </trkpt>
      <trkpt lat="44.79617" lon="6.99742">
        <ele>2421.9</ele>
        <time>2022-02-25T12:41:16Z</time>
      </trkpt>
      <trkpt lat="44.79617" lon="6.99742">
        <ele>2421.9</ele>
        <time>2022-02-25T12:41:17Z</time>
      </trkpt>
      <trkpt lat="44.79618" lon="6.99745">
        <ele>2422.3</ele>
        <time>2022-02-25T12:41:18Z</time>
      </trkpt>
      <trkpt lat="44.79618" lon="6.99745">
        <ele>2422.3</ele>
        <time>2022-02-25T12:41:19Z</time>
      </trkpt>
      <trkpt lat="44.79618" lon="6.99745">
        <ele>2422.3</ele>
        <time>2022-02-25T12:41:20Z</time>
      </trkpt>
      <trkpt lat="44.79619" lon="6.99747">
        <ele>2422.6</ele>
        <time>2022-02-25T12:41:21Z</time>
      </trkpt>
      <trkpt lat="44.79619" lon="6.99747">
        <ele>2422.6</ele>
        <time>2022-02-25T12:41:22Z</time>
      </trkpt>
      <trkpt lat="44.79619" lon="6.99747">
        <ele>2422.6</ele>
        <time>2022-02-25T12:41:23Z</time>
      </trkpt>
      <trkpt lat="44.79619" lon="6.99747">
        <ele>2422.6</ele>
        <time>2022-02-25T12:41:24Z</time>
      </trkpt>
      <trkpt lat="44.79621" lon="6.9975">
        <ele>2423</ele>
        <time>2022-02-25T12:41:25Z</time>
      </trkpt>
      <trkpt lat="44.79621" lon="6.9975">
        <ele>2423</ele>
        <time>2022-02-25T12:41:26Z</time>
      </trkpt>
      <trkpt lat="44.79621" lon="6.9975">
        <ele>2423</ele>
        <time>2022-02-25T12:41:27Z</time>
      </trkpt>
      <trkpt lat="44.79621" lon="6.9975">
        <ele>2423</ele>
        <time>2022-02-25T12:41:28Z</time>
      </trkpt>
      <trkpt lat="44.79621" lon="6.99753">
        <ele>2423.4</ele>
        <time>2022-02-25T12:41:29Z</time>
      </trkpt>
      <trkpt lat="44.79621" lon="6.99753">
        <ele>2423.4</ele>
        <time>2022-02-25T12:41:30Z</time>
      </trkpt>
      <trkpt lat="44.79621" lon="6.99753">
        <ele>2423.4</ele>
        <time>2022-02-25T12:41:31Z</time>
      </trkpt>
      <trkpt lat="44.79621" lon="6.99753">
        <ele>2423.4</ele>
        <time>2022-02-25T12:41:32Z</time>
      </trkpt>
      <trkpt lat="44.79621" lon="6.99757">
        <ele>2424</ele>
        <time>2022-02-25T12:41:33Z</time>
      </trkpt>
      <trkpt lat="44.79621" lon="6.99757">
        <ele>2424</ele>
        <time>2022-02-25T12:41:34Z</time>
      </trkpt>
      <trkpt lat="44.79621" lon="6.99757">
        <ele>2424</ele>
        <time>2022-02-25T12:41:35Z</time>
      </trkpt>
      <trkpt lat="44.79622" lon="6.99759">
        <ele>2424.3</ele>
        <time>2022-02-25T12:41:36Z</time>
      </trkpt>
      <trkpt lat="44.79622" lon="6.99759">
        <ele>2424.3</ele>
        <time>2022-02-25T12:41:37Z</time>
      </trkpt>
      <trkpt lat="44.79622" lon="6.99759">
        <ele>2424.3</ele>
        <time>2022-02-25T12:41:38Z</time>
      </trkpt>
      <trkpt lat="44.79622" lon="6.99759">
        <ele>2424.3</ele>
        <time>2022-02-25T12:41:39Z</time>
      </trkpt>
      <trkpt lat="44.79623" lon="6.99761">
        <ele>2424.6</ele>
        <time>2022-02-25T12:41:40Z</time>
      </trkpt>
      <trkpt lat="44.79623" lon="6.99761">
        <ele>2424.6</ele>
        <time>2022-02-25T12:41:41Z</time>
      </trkpt>
      <trkpt lat="44.79623" lon="6.99761">
        <ele>2424.6</ele>
        <time>2022-02-25T12:41:42Z</time>
      </trkpt>
      <trkpt lat="44.79623" lon="6.99761">
        <ele>2424.6</ele>
        <time>2022-02-25T12:41:43Z</time>
      </trkpt>
      <trkpt lat="44.79624" lon="6.99764">
        <ele>2425</ele>
        <time>2022-02-25T12:41:44Z</time>
      </trkpt>
      <trkpt lat="44.79624" lon="6.99764">
        <ele>2425</ele>
        <time>2022-02-25T12:41:45Z</time>
      </trkpt>
      <trkpt lat="44.79624" lon="6.99764">
        <ele>2425</ele>
        <time>2022-02-25T12:41:46Z</time>
      </trkpt>
      <trkpt lat="44.79625" lon="6.99766">
        <ele>2425.3</ele>
        <time>2022-02-25T12:41:47Z</time>
      </trkpt>
      <trkpt lat="44.79625" lon="6.99766">
        <ele>2425.3</ele>
        <time>2022-02-25T12:41:48Z</time>
      </trkpt>
      <trkpt lat="44.79625" lon="6.99766">
        <ele>2425.3</ele>
        <time>2022-02-25T12:41:49Z</time>
      </trkpt>
      <trkpt lat="44.79625" lon="6.99766">
        <ele>2425.3</ele>
        <time>2022-02-25T12:41:50Z</time>
      </trkpt>
      <trkpt lat="44.79625" lon="6.9977">
        <ele>2425.9</ele>
        <time>2022-02-25T12:41:51Z</time>
      </trkpt>
      <trkpt lat="44.79625" lon="6.9977">
        <ele>2425.9</ele>
        <time>2022-02-25T12:41:52Z</time>
      </trkpt>
      <trkpt lat="44.79625" lon="6.9977">
        <ele>2425.9</ele>
        <time>2022-02-25T12:41:53Z</time>
      </trkpt>
      <trkpt lat="44.79625" lon="6.9977">
        <ele>2425.9</ele>
        <time>2022-02-25T12:41:54Z</time>
      </trkpt>
      <trkpt lat="44.79626" lon="6.99773">
        <ele>2426.3</ele>
        <time>2022-02-25T12:41:55Z</time>
      </trkpt>
      <trkpt lat="44.79626" lon="6.99773">
        <ele>2426.3</ele>
        <time>2022-02-25T12:41:56Z</time>
      </trkpt>
      <trkpt lat="44.79626" lon="6.99773">
        <ele>2426.3</ele>
        <time>2022-02-25T12:41:57Z</time>
      </trkpt>
      <trkpt lat="44.79627" lon="6.99775">
        <ele>2426.6</ele>
        <time>2022-02-25T12:41:58Z</time>
      </trkpt>
      <trkpt lat="44.79627" lon="6.99775">
        <ele>2426.6</ele>
        <time>2022-02-25T12:41:59Z</time>
      </trkpt>
      <trkpt lat="44.79627" lon="6.99775">
        <ele>2426.6</ele>
        <time>2022-02-25T12:42:00Z</time>
      </trkpt>
      <trkpt lat="44.79627" lon="6.99775">
        <ele>2426.6</ele>
        <time>2022-02-25T12:42:01Z</time>
      </trkpt>
      <trkpt lat="44.79627" lon="6.99778">
        <ele>2427</ele>
        <time>2022-02-25T12:42:02Z</time>
      </trkpt>
      <trkpt lat="44.79627" lon="6.99778">
        <ele>2427</ele>
        <time>2022-02-25T12:42:03Z</time>
      </trkpt>
      <trkpt lat="44.79627" lon="6.99778">
        <ele>2427</ele>
        <time>2022-02-25T12:42:04Z</time>
      </trkpt>
      <trkpt lat="44.79627" lon="6.99778">
        <ele>2427</ele>
        <time>2022-02-25T12:42:05Z</time>
      </trkpt>
      <trkpt lat="44.79627" lon="6.99781">
        <ele>2427.6</ele>
        <time>2022-02-25T12:42:06Z</time>
      </trkpt>
      <trkpt lat="44.79627" lon="6.99781">
        <ele>2427.6</ele>
        <time>2022-02-25T12:42:07Z</time>
      </trkpt>
      <trkpt lat="44.79627" lon="6.99781">
        <ele>2427.6</ele>
        <time>2022-02-25T12:42:08Z</time>
      </trkpt>
      <trkpt lat="44.79627" lon="6.99781">
        <ele>2427.6</ele>
        <time>2022-02-25T12:42:09Z</time>
      </trkpt>
      <trkpt lat="44.79628" lon="6.99784">
        <ele>2428.2</ele>
        <time>2022-02-25T12:42:10Z</time>
      </trkpt>
      <trkpt lat="44.79628" lon="6.99784">
        <ele>2428.2</ele>
        <time>2022-02-25T12:42:11Z</time>
      </trkpt>
      <trkpt lat="44.79628" lon="6.99784">
        <ele>2428.2</ele>
        <time>2022-02-25T12:42:12Z</time>
      </trkpt>
      <trkpt lat="44.79628" lon="6.99784">
        <ele>2428.2</ele>
        <time>2022-02-25T12:42:13Z</time>
      </trkpt>
      <trkpt lat="44.79628" lon="6.99787">
        <ele>2428.8</ele>
        <time>2022-02-25T12:42:14Z</time>
      </trkpt>
      <trkpt lat="44.79628" lon="6.99787">
        <ele>2428.8</ele>
        <time>2022-02-25T12:42:15Z</time>
      </trkpt>
      <trkpt lat="44.79628" lon="6.99787">
        <ele>2428.8</ele>
        <time>2022-02-25T12:42:16Z</time>
      </trkpt>
      <trkpt lat="44.79629" lon="6.99789">
        <ele>2429.2</ele>
        <time>2022-02-25T12:42:17Z</time>
      </trkpt>
      <trkpt lat="44.79629" lon="6.99789">
        <ele>2429.2</ele>
        <time>2022-02-25T12:42:18Z</time>
      </trkpt>
      <trkpt lat="44.79629" lon="6.99789">
        <ele>2429.2</ele>
        <time>2022-02-25T12:42:19Z</time>
      </trkpt>
      <trkpt lat="44.79629" lon="6.99789">
        <ele>2429.2</ele>
        <time>2022-02-25T12:42:20Z</time>
      </trkpt>
      <trkpt lat="44.79629" lon="6.99792">
        <ele>2429.7</ele>
        <time>2022-02-25T12:42:21Z</time>
      </trkpt>
      <trkpt lat="44.79629" lon="6.99792">
        <ele>2429.7</ele>
        <time>2022-02-25T12:42:22Z</time>
      </trkpt>
      <trkpt lat="44.79629" lon="6.99792">
        <ele>2429.7</ele>
        <time>2022-02-25T12:42:23Z</time>
      </trkpt>
      <trkpt lat="44.79629" lon="6.99792">
        <ele>2429.7</ele>
        <time>2022-02-25T12:42:24Z</time>
      </trkpt>
      <trkpt lat="44.79629" lon="6.99795">
        <ele>2430.3</ele>
        <time>2022-02-25T12:42:25Z</time>
      </trkpt>
      <trkpt lat="44.79629" lon="6.99795">
        <ele>2430.3</ele>
        <time>2022-02-25T12:42:26Z</time>
      </trkpt>
      <trkpt lat="44.79629" lon="6.99795">
        <ele>2430.3</ele>
        <time>2022-02-25T12:42:27Z</time>
      </trkpt>
      <trkpt lat="44.79629" lon="6.99795">
        <ele>2430.3</ele>
        <time>2022-02-25T12:42:28Z</time>
      </trkpt>
      <trkpt lat="44.7963" lon="6.99797">
        <ele>2430.7</ele>
        <time>2022-02-25T12:42:29Z</time>
      </trkpt>
      <trkpt lat="44.7963" lon="6.99797">
        <ele>2430.7</ele>
        <time>2022-02-25T12:42:30Z</time>
      </trkpt>
      <trkpt lat="44.7963" lon="6.99797">
        <ele>2430.7</ele>
        <time>2022-02-25T12:42:31Z</time>
      </trkpt>
      <trkpt lat="44.7963" lon="6.99797">
        <ele>2430.7</ele>
        <time>2022-02-25T12:42:32Z</time>
      </trkpt>
      <trkpt lat="44.7963" lon="6.99797">
        <ele>2430.7</ele>
        <time>2022-02-25T12:42:33Z</time>
      </trkpt>
      <trkpt lat="44.79631" lon="6.99801">
        <ele>2431.4</ele>
        <time>2022-02-25T12:42:34Z</time>
      </trkpt>
      <trkpt lat="44.79631" lon="6.99801">
        <ele>2431.4</ele>
        <time>2022-02-25T12:42:35Z</time>
      </trkpt>
      <trkpt lat="44.79631" lon="6.99801">
        <ele>2431.4</ele>
        <time>2022-02-25T12:42:36Z</time>
      </trkpt>
      <trkpt lat="44.79631" lon="6.99801">
        <ele>2431.4</ele>
        <time>2022-02-25T12:42:37Z</time>
      </trkpt>
      <trkpt lat="44.79631" lon="6.99801">
        <ele>2431.4</ele>
        <time>2022-02-25T12:42:38Z</time>
      </trkpt>
      <trkpt lat="44.79631" lon="6.99803">
        <ele>2431.8</ele>
        <time>2022-02-25T12:42:39Z</time>
      </trkpt>
      <trkpt lat="44.79631" lon="6.99803">
        <ele>2431.8</ele>
        <time>2022-02-25T12:42:40Z</time>
      </trkpt>
      <trkpt lat="44.79631" lon="6.99803">
        <ele>2431.8</ele>
        <time>2022-02-25T12:42:41Z</time>
      </trkpt>
      <trkpt lat="44.79631" lon="6.99803">
        <ele>2431.8</ele>
        <time>2022-02-25T12:42:42Z</time>
      </trkpt>
      <trkpt lat="44.79632" lon="6.99806">
        <ele>2432.3</ele>
        <time>2022-02-25T12:42:43Z</time>
      </trkpt>
      <trkpt lat="44.79632" lon="6.99806">
        <ele>2432.3</ele>
        <time>2022-02-25T12:42:44Z</time>
      </trkpt>
      <trkpt lat="44.79632" lon="6.99806">
        <ele>2432.3</ele>
        <time>2022-02-25T12:42:45Z</time>
      </trkpt>
      <trkpt lat="44.79632" lon="6.99806">
        <ele>2432.3</ele>
        <time>2022-02-25T12:42:46Z</time>
      </trkpt>
      <trkpt lat="44.79632" lon="6.99808">
        <ele>2432.8</ele>
        <time>2022-02-25T12:42:47Z</time>
      </trkpt>
      <trkpt lat="44.79632" lon="6.99808">
        <ele>2432.8</ele>
        <time>2022-02-25T12:42:48Z</time>
      </trkpt>
      <trkpt lat="44.79632" lon="6.99808">
        <ele>2432.8</ele>
        <time>2022-02-25T12:42:49Z</time>
      </trkpt>
      <trkpt lat="44.79632" lon="6.99808">
        <ele>2432.8</ele>
        <time>2022-02-25T12:42:50Z</time>
      </trkpt>
      <trkpt lat="44.79633" lon="6.99811">
        <ele>2433.4</ele>
        <time>2022-02-25T12:42:51Z</time>
      </trkpt>
      <trkpt lat="44.79633" lon="6.99811">
        <ele>2433.4</ele>
        <time>2022-02-25T12:42:52Z</time>
      </trkpt>
      <trkpt lat="44.79633" lon="6.99811">
        <ele>2433.4</ele>
        <time>2022-02-25T12:42:53Z</time>
      </trkpt>
      <trkpt lat="44.79633" lon="6.99811">
        <ele>2433.4</ele>
        <time>2022-02-25T12:42:54Z</time>
      </trkpt>
      <trkpt lat="44.79633" lon="6.99813">
        <ele>2433.9</ele>
        <time>2022-02-25T12:42:55Z</time>
      </trkpt>
      <trkpt lat="44.79633" lon="6.99813">
        <ele>2433.9</ele>
        <time>2022-02-25T12:42:56Z</time>
      </trkpt>
      <trkpt lat="44.79633" lon="6.99813">
        <ele>2433.9</ele>
        <time>2022-02-25T12:42:57Z</time>
      </trkpt>
      <trkpt lat="44.79633" lon="6.99813">
        <ele>2433.9</ele>
        <time>2022-02-25T12:42:58Z</time>
      </trkpt>
      <trkpt lat="44.79634" lon="6.99816">
        <ele>2434.5</ele>
        <time>2022-02-25T12:42:59Z</time>
      </trkpt>
      <trkpt lat="44.79634" lon="6.99816">
        <ele>2434.5</ele>
        <time>2022-02-25T12:43:00Z</time>
      </trkpt>
      <trkpt lat="44.79634" lon="6.99816">
        <ele>2434.5</ele>
        <time>2022-02-25T12:43:01Z</time>
      </trkpt>
      <trkpt lat="44.79634" lon="6.99816">
        <ele>2434.5</ele>
        <time>2022-02-25T12:43:02Z</time>
      </trkpt>
      <trkpt lat="44.79635" lon="6.99819">
        <ele>2435.1</ele>
        <time>2022-02-25T12:43:03Z</time>
      </trkpt>
      <trkpt lat="44.79635" lon="6.99819">
        <ele>2435.1</ele>
        <time>2022-02-25T12:43:04Z</time>
      </trkpt>
      <trkpt lat="44.79635" lon="6.99819">
        <ele>2435.1</ele>
        <time>2022-02-25T12:43:05Z</time>
      </trkpt>
      <trkpt lat="44.79635" lon="6.99819">
        <ele>2435.1</ele>
        <time>2022-02-25T12:43:06Z</time>
      </trkpt>
      <trkpt lat="44.79635" lon="6.99822">
        <ele>2435.8</ele>
        <time>2022-02-25T12:43:07Z</time>
      </trkpt>
      <trkpt lat="44.79635" lon="6.99822">
        <ele>2435.8</ele>
        <time>2022-02-25T12:43:08Z</time>
      </trkpt>
      <trkpt lat="44.79635" lon="6.99822">
        <ele>2435.8</ele>
        <time>2022-02-25T12:43:09Z</time>
      </trkpt>
      <trkpt lat="44.79636" lon="6.99824">
        <ele>2436.2</ele>
        <time>2022-02-25T12:43:10Z</time>
      </trkpt>
      <trkpt lat="44.79636" lon="6.99824">
        <ele>2436.2</ele>
        <time>2022-02-25T12:43:11Z</time>
      </trkpt>
      <trkpt lat="44.79636" lon="6.99824">
        <ele>2436.2</ele>
        <time>2022-02-25T12:43:12Z</time>
      </trkpt>
      <trkpt lat="44.79636" lon="6.99824">
        <ele>2436.2</ele>
        <time>2022-02-25T12:43:13Z</time>
      </trkpt>
      <trkpt lat="44.79636" lon="6.99827">
        <ele>2436.8</ele>
        <time>2022-02-25T12:43:14Z</time>
      </trkpt>
      <trkpt lat="44.79636" lon="6.99827">
        <ele>2436.8</ele>
        <time>2022-02-25T12:43:15Z</time>
      </trkpt>
      <trkpt lat="44.79636" lon="6.99827">
        <ele>2436.8</ele>
        <time>2022-02-25T12:43:16Z</time>
      </trkpt>
      <trkpt lat="44.79636" lon="6.99827">
        <ele>2436.8</ele>
        <time>2022-02-25T12:43:17Z</time>
      </trkpt>
      <trkpt lat="44.79637" lon="6.99829">
        <ele>2437.2</ele>
        <time>2022-02-25T12:43:18Z</time>
      </trkpt>
      <trkpt lat="44.79637" lon="6.99829">
        <ele>2437.2</ele>
        <time>2022-02-25T12:43:19Z</time>
      </trkpt>
      <trkpt lat="44.79637" lon="6.99829">
        <ele>2437.2</ele>
        <time>2022-02-25T12:43:20Z</time>
      </trkpt>
      <trkpt lat="44.79637" lon="6.99829">
        <ele>2437.2</ele>
        <time>2022-02-25T12:43:21Z</time>
      </trkpt>
      <trkpt lat="44.79637" lon="6.99832">
        <ele>2437.8</ele>
        <time>2022-02-25T12:43:22Z</time>
      </trkpt>
      <trkpt lat="44.79637" lon="6.99832">
        <ele>2437.8</ele>
        <time>2022-02-25T12:43:23Z</time>
      </trkpt>
      <trkpt lat="44.79637" lon="6.99832">
        <ele>2437.8</ele>
        <time>2022-02-25T12:43:24Z</time>
      </trkpt>
      <trkpt lat="44.79637" lon="6.99832">
        <ele>2437.8</ele>
        <time>2022-02-25T12:43:25Z</time>
      </trkpt>
      <trkpt lat="44.79637" lon="6.99832">
        <ele>2437.8</ele>
        <time>2022-02-25T12:43:26Z</time>
      </trkpt>
      <trkpt lat="44.79637" lon="6.99835">
        <ele>2438.4</ele>
        <time>2022-02-25T12:43:27Z</time>
      </trkpt>
      <trkpt lat="44.79637" lon="6.99835">
        <ele>2438.4</ele>
        <time>2022-02-25T12:43:28Z</time>
      </trkpt>
      <trkpt lat="44.79637" lon="6.99835">
        <ele>2438.4</ele>
        <time>2022-02-25T12:43:29Z</time>
      </trkpt>
      <trkpt lat="44.79637" lon="6.99835">
        <ele>2438.4</ele>
        <time>2022-02-25T12:43:30Z</time>
      </trkpt>
      <trkpt lat="44.79638" lon="6.99838">
        <ele>2438.9</ele>
        <time>2022-02-25T12:43:31Z</time>
      </trkpt>
      <trkpt lat="44.79638" lon="6.99838">
        <ele>2438.9</ele>
        <time>2022-02-25T12:43:32Z</time>
      </trkpt>
      <trkpt lat="44.79638" lon="6.99838">
        <ele>2438.9</ele>
        <time>2022-02-25T12:43:33Z</time>
      </trkpt>
      <trkpt lat="44.79639" lon="6.9984">
        <ele>2439.2</ele>
        <time>2022-02-25T12:43:34Z</time>
      </trkpt>
      <trkpt lat="44.79639" lon="6.9984">
        <ele>2439.2</ele>
        <time>2022-02-25T12:43:35Z</time>
      </trkpt>
      <trkpt lat="44.79639" lon="6.9984">
        <ele>2439.2</ele>
        <time>2022-02-25T12:43:36Z</time>
      </trkpt>
      <trkpt lat="44.79639" lon="6.9984">
        <ele>2439.2</ele>
        <time>2022-02-25T12:43:37Z</time>
      </trkpt>
      <trkpt lat="44.79639" lon="6.99843">
        <ele>2439.7</ele>
        <time>2022-02-25T12:43:38Z</time>
      </trkpt>
      <trkpt lat="44.79639" lon="6.99843">
        <ele>2439.7</ele>
        <time>2022-02-25T12:43:39Z</time>
      </trkpt>
      <trkpt lat="44.79639" lon="6.99843">
        <ele>2439.7</ele>
        <time>2022-02-25T12:43:40Z</time>
      </trkpt>
      <trkpt lat="44.79639" lon="6.99843">
        <ele>2439.7</ele>
        <time>2022-02-25T12:43:41Z</time>
      </trkpt>
      <trkpt lat="44.79639" lon="6.99846">
        <ele>2440.3</ele>
        <time>2022-02-25T12:43:42Z</time>
      </trkpt>
      <trkpt lat="44.79639" lon="6.99846">
        <ele>2440.3</ele>
        <time>2022-02-25T12:43:43Z</time>
      </trkpt>
      <trkpt lat="44.79639" lon="6.99846">
        <ele>2440.3</ele>
        <time>2022-02-25T12:43:44Z</time>
      </trkpt>
      <trkpt lat="44.79639" lon="6.99846">
        <ele>2440.3</ele>
        <time>2022-02-25T12:43:45Z</time>
      </trkpt>
      <trkpt lat="44.7964" lon="6.99849">
        <ele>2440.7</ele>
        <time>2022-02-25T12:43:46Z</time>
      </trkpt>
      <trkpt lat="44.7964" lon="6.99849">
        <ele>2440.7</ele>
        <time>2022-02-25T12:43:47Z</time>
      </trkpt>
      <trkpt lat="44.7964" lon="6.99849">
        <ele>2440.7</ele>
        <time>2022-02-25T12:43:48Z</time>
      </trkpt>
      <trkpt lat="44.7964" lon="6.99852">
        <ele>2441.3</ele>
        <time>2022-02-25T12:43:49Z</time>
      </trkpt>
      <trkpt lat="44.7964" lon="6.99852">
        <ele>2441.3</ele>
        <time>2022-02-25T12:43:50Z</time>
      </trkpt>
      <trkpt lat="44.7964" lon="6.99852">
        <ele>2441.3</ele>
        <time>2022-02-25T12:43:51Z</time>
      </trkpt>
      <trkpt lat="44.7964" lon="6.99852">
        <ele>2441.3</ele>
        <time>2022-02-25T12:43:52Z</time>
      </trkpt>
      <trkpt lat="44.7964" lon="6.99855">
        <ele>2441.8</ele>
        <time>2022-02-25T12:43:53Z</time>
      </trkpt>
      <trkpt lat="44.7964" lon="6.99855">
        <ele>2441.8</ele>
        <time>2022-02-25T12:43:54Z</time>
      </trkpt>
      <trkpt lat="44.7964" lon="6.99855">
        <ele>2441.8</ele>
        <time>2022-02-25T12:43:55Z</time>
      </trkpt>
      <trkpt lat="44.7964" lon="6.99855">
        <ele>2441.8</ele>
        <time>2022-02-25T12:43:56Z</time>
      </trkpt>
      <trkpt lat="44.7964" lon="6.99858">
        <ele>2442.3</ele>
        <time>2022-02-25T12:43:57Z</time>
      </trkpt>
      <trkpt lat="44.7964" lon="6.99858">
        <ele>2442.3</ele>
        <time>2022-02-25T12:43:58Z</time>
      </trkpt>
      <trkpt lat="44.7964" lon="6.99858">
        <ele>2442.3</ele>
        <time>2022-02-25T12:43:59Z</time>
      </trkpt>
      <trkpt lat="44.7964" lon="6.99858">
        <ele>2442.3</ele>
        <time>2022-02-25T12:44:00Z</time>
      </trkpt>
      <trkpt lat="44.7964" lon="6.99861">
        <ele>2442.9</ele>
        <time>2022-02-25T12:44:01Z</time>
      </trkpt>
      <trkpt lat="44.7964" lon="6.99861">
        <ele>2442.9</ele>
        <time>2022-02-25T12:44:02Z</time>
      </trkpt>
      <trkpt lat="44.7964" lon="6.99861">
        <ele>2442.9</ele>
        <time>2022-02-25T12:44:03Z</time>
      </trkpt>
      <trkpt lat="44.7964" lon="6.99861">
        <ele>2442.9</ele>
        <time>2022-02-25T12:44:04Z</time>
      </trkpt>
      <trkpt lat="44.79641" lon="6.99864">
        <ele>2443.2</ele>
        <time>2022-02-25T12:44:05Z</time>
      </trkpt>
      <trkpt lat="44.79641" lon="6.99864">
        <ele>2443.2</ele>
        <time>2022-02-25T12:44:06Z</time>
      </trkpt>
      <trkpt lat="44.79641" lon="6.99864">
        <ele>2443.2</ele>
        <time>2022-02-25T12:44:07Z</time>
      </trkpt>
      <trkpt lat="44.79641" lon="6.99864">
        <ele>2443.2</ele>
        <time>2022-02-25T12:44:08Z</time>
      </trkpt>
      <trkpt lat="44.7964" lon="6.99867">
        <ele>2443.7</ele>
        <time>2022-02-25T12:44:09Z</time>
      </trkpt>
      <trkpt lat="44.7964" lon="6.99867">
        <ele>2443.7</ele>
        <time>2022-02-25T12:44:10Z</time>
      </trkpt>
      <trkpt lat="44.7964" lon="6.99867">
        <ele>2443.7</ele>
        <time>2022-02-25T12:44:11Z</time>
      </trkpt>
      <trkpt lat="44.7964" lon="6.99867">
        <ele>2443.7</ele>
        <time>2022-02-25T12:44:12Z</time>
      </trkpt>
      <trkpt lat="44.7964" lon="6.9987">
        <ele>2444.2</ele>
        <time>2022-02-25T12:44:13Z</time>
      </trkpt>
      <trkpt lat="44.7964" lon="6.9987">
        <ele>2444.2</ele>
        <time>2022-02-25T12:44:14Z</time>
      </trkpt>
      <trkpt lat="44.7964" lon="6.9987">
        <ele>2444.2</ele>
        <time>2022-02-25T12:44:15Z</time>
      </trkpt>
      <trkpt lat="44.7964" lon="6.9987">
        <ele>2444.2</ele>
        <time>2022-02-25T12:44:16Z</time>
      </trkpt>
      <trkpt lat="44.79639" lon="6.99873">
        <ele>2444.7</ele>
        <time>2022-02-25T12:44:17Z</time>
      </trkpt>
      <trkpt lat="44.79639" lon="6.99873">
        <ele>2444.7</ele>
        <time>2022-02-25T12:44:18Z</time>
      </trkpt>
      <trkpt lat="44.79639" lon="6.99873">
        <ele>2444.7</ele>
        <time>2022-02-25T12:44:19Z</time>
      </trkpt>
      <trkpt lat="44.79641" lon="6.99875">
        <ele>2444.8</ele>
        <time>2022-02-25T12:44:20Z</time>
      </trkpt>
      <trkpt lat="44.79641" lon="6.99875">
        <ele>2444.8</ele>
        <time>2022-02-25T12:44:21Z</time>
      </trkpt>
      <trkpt lat="44.79641" lon="6.99875">
        <ele>2444.8</ele>
        <time>2022-02-25T12:44:22Z</time>
      </trkpt>
      <trkpt lat="44.79641" lon="6.99875">
        <ele>2444.8</ele>
        <time>2022-02-25T12:44:23Z</time>
      </trkpt>
      <trkpt lat="44.79641" lon="6.99878">
        <ele>2445.3</ele>
        <time>2022-02-25T12:44:24Z</time>
      </trkpt>
      <trkpt lat="44.79641" lon="6.99878">
        <ele>2445.3</ele>
        <time>2022-02-25T12:44:25Z</time>
      </trkpt>
      <trkpt lat="44.79641" lon="6.99878">
        <ele>2445.3</ele>
        <time>2022-02-25T12:44:26Z</time>
      </trkpt>
      <trkpt lat="44.79641" lon="6.99878">
        <ele>2445.3</ele>
        <time>2022-02-25T12:44:27Z</time>
      </trkpt>
      <trkpt lat="44.7964" lon="6.99881">
        <ele>2445.8</ele>
        <time>2022-02-25T12:44:28Z</time>
      </trkpt>
      <trkpt lat="44.7964" lon="6.99881">
        <ele>2445.8</ele>
        <time>2022-02-25T12:44:29Z</time>
      </trkpt>
      <trkpt lat="44.7964" lon="6.99881">
        <ele>2445.8</ele>
        <time>2022-02-25T12:44:30Z</time>
      </trkpt>
      <trkpt lat="44.7964" lon="6.99881">
        <ele>2445.8</ele>
        <time>2022-02-25T12:44:31Z</time>
      </trkpt>
      <trkpt lat="44.7964" lon="6.99884">
        <ele>2446.2</ele>
        <time>2022-02-25T12:44:32Z</time>
      </trkpt>
      <trkpt lat="44.7964" lon="6.99884">
        <ele>2446.2</ele>
        <time>2022-02-25T12:44:33Z</time>
      </trkpt>
      <trkpt lat="44.7964" lon="6.99884">
        <ele>2446.2</ele>
        <time>2022-02-25T12:44:34Z</time>
      </trkpt>
      <trkpt lat="44.79639" lon="6.99886">
        <ele>2446.6</ele>
        <time>2022-02-25T12:44:35Z</time>
      </trkpt>
      <trkpt lat="44.79639" lon="6.99886">
        <ele>2446.6</ele>
        <time>2022-02-25T12:44:36Z</time>
      </trkpt>
      <trkpt lat="44.79639" lon="6.99886">
        <ele>2446.6</ele>
        <time>2022-02-25T12:44:37Z</time>
      </trkpt>
      <trkpt lat="44.79639" lon="6.99889">
        <ele>2447</ele>
        <time>2022-02-25T12:44:38Z</time>
      </trkpt>
      <trkpt lat="44.79639" lon="6.99889">
        <ele>2447</ele>
        <time>2022-02-25T12:44:39Z</time>
      </trkpt>
      <trkpt lat="44.79639" lon="6.99889">
        <ele>2447</ele>
        <time>2022-02-25T12:44:40Z</time>
      </trkpt>
      <trkpt lat="44.79639" lon="6.99892">
        <ele>2447.2</ele>
        <time>2022-02-25T12:44:41Z</time>
      </trkpt>
      <trkpt lat="44.79639" lon="6.99892">
        <ele>2447.2</ele>
        <time>2022-02-25T12:44:42Z</time>
      </trkpt>
      <trkpt lat="44.79639" lon="6.99892">
        <ele>2447.2</ele>
        <time>2022-02-25T12:44:43Z</time>
      </trkpt>
      <trkpt lat="44.79639" lon="6.99895">
        <ele>2447.4</ele>
        <time>2022-02-25T12:44:44Z</time>
      </trkpt>
      <trkpt lat="44.79639" lon="6.99895">
        <ele>2447.4</ele>
        <time>2022-02-25T12:44:45Z</time>
      </trkpt>
      <trkpt lat="44.79639" lon="6.99895">
        <ele>2447.4</ele>
        <time>2022-02-25T12:44:46Z</time>
      </trkpt>
      <trkpt lat="44.79639" lon="6.99898">
        <ele>2447.7</ele>
        <time>2022-02-25T12:44:47Z</time>
      </trkpt>
      <trkpt lat="44.79639" lon="6.99898">
        <ele>2447.7</ele>
        <time>2022-02-25T12:44:48Z</time>
      </trkpt>
      <trkpt lat="44.79639" lon="6.99898">
        <ele>2447.7</ele>
        <time>2022-02-25T12:44:49Z</time>
      </trkpt>
      <trkpt lat="44.79639" lon="6.99898">
        <ele>2447.7</ele>
        <time>2022-02-25T12:44:50Z</time>
      </trkpt>
      <trkpt lat="44.79639" lon="6.99901">
        <ele>2447.9</ele>
        <time>2022-02-25T12:44:51Z</time>
      </trkpt>
      <trkpt lat="44.79639" lon="6.99901">
        <ele>2447.9</ele>
        <time>2022-02-25T12:44:52Z</time>
      </trkpt>
      <trkpt lat="44.79639" lon="6.99901">
        <ele>2447.9</ele>
        <time>2022-02-25T12:44:53Z</time>
      </trkpt>
      <trkpt lat="44.79639" lon="6.99901">
        <ele>2447.9</ele>
        <time>2022-02-25T12:44:54Z</time>
      </trkpt>
      <trkpt lat="44.79638" lon="6.99905">
        <ele>2448.2</ele>
        <time>2022-02-25T12:44:55Z</time>
      </trkpt>
      <trkpt lat="44.79638" lon="6.99905">
        <ele>2448.2</ele>
        <time>2022-02-25T12:44:56Z</time>
      </trkpt>
      <trkpt lat="44.79638" lon="6.99905">
        <ele>2448.2</ele>
        <time>2022-02-25T12:44:57Z</time>
      </trkpt>
      <trkpt lat="44.79638" lon="6.99907">
        <ele>2448.3</ele>
        <time>2022-02-25T12:44:58Z</time>
      </trkpt>
      <trkpt lat="44.79638" lon="6.99907">
        <ele>2448.3</ele>
        <time>2022-02-25T12:44:59Z</time>
      </trkpt>
      <trkpt lat="44.79638" lon="6.99907">
        <ele>2448.3</ele>
        <time>2022-02-25T12:45:00Z</time>
      </trkpt>
      <trkpt lat="44.79638" lon="6.99907">
        <ele>2448.3</ele>
        <time>2022-02-25T12:45:01Z</time>
      </trkpt>
      <trkpt lat="44.79637" lon="6.99911">
        <ele>2448.6</ele>
        <time>2022-02-25T12:45:02Z</time>
      </trkpt>
      <trkpt lat="44.79637" lon="6.99911">
        <ele>2448.6</ele>
        <time>2022-02-25T12:45:03Z</time>
      </trkpt>
      <trkpt lat="44.79637" lon="6.99911">
        <ele>2448.6</ele>
        <time>2022-02-25T12:45:04Z</time>
      </trkpt>
      <trkpt lat="44.79637" lon="6.99913">
        <ele>2448.8</ele>
        <time>2022-02-25T12:45:05Z</time>
      </trkpt>
      <trkpt lat="44.79637" lon="6.99913">
        <ele>2448.8</ele>
        <time>2022-02-25T12:45:06Z</time>
      </trkpt>
      <trkpt lat="44.79637" lon="6.99913">
        <ele>2448.8</ele>
        <time>2022-02-25T12:45:07Z</time>
      </trkpt>
      <trkpt lat="44.79637" lon="6.99916">
        <ele>2449</ele>
        <time>2022-02-25T12:45:08Z</time>
      </trkpt>
      <trkpt lat="44.79637" lon="6.99916">
        <ele>2449</ele>
        <time>2022-02-25T12:45:09Z</time>
      </trkpt>
      <trkpt lat="44.79637" lon="6.99916">
        <ele>2449</ele>
        <time>2022-02-25T12:45:10Z</time>
      </trkpt>
      <trkpt lat="44.79637" lon="6.99916">
        <ele>2449</ele>
        <time>2022-02-25T12:45:11Z</time>
      </trkpt>
      <trkpt lat="44.79636" lon="6.99919">
        <ele>2449.2</ele>
        <time>2022-02-25T12:45:12Z</time>
      </trkpt>
      <trkpt lat="44.79636" lon="6.99919">
        <ele>2449.2</ele>
        <time>2022-02-25T12:45:13Z</time>
      </trkpt>
      <trkpt lat="44.79636" lon="6.99919">
        <ele>2449.2</ele>
        <time>2022-02-25T12:45:14Z</time>
      </trkpt>
      <trkpt lat="44.79635" lon="6.99922">
        <ele>2449.4</ele>
        <time>2022-02-25T12:45:15Z</time>
      </trkpt>
      <trkpt lat="44.79635" lon="6.99922">
        <ele>2449.4</ele>
        <time>2022-02-25T12:45:16Z</time>
      </trkpt>
      <trkpt lat="44.79635" lon="6.99922">
        <ele>2449.4</ele>
        <time>2022-02-25T12:45:17Z</time>
      </trkpt>
      <trkpt lat="44.79634" lon="6.99924">
        <ele>2449.5</ele>
        <time>2022-02-25T12:45:18Z</time>
      </trkpt>
      <trkpt lat="44.79634" lon="6.99924">
        <ele>2449.5</ele>
        <time>2022-02-25T12:45:19Z</time>
      </trkpt>
      <trkpt lat="44.79634" lon="6.99924">
        <ele>2449.5</ele>
        <time>2022-02-25T12:45:20Z</time>
      </trkpt>
      <trkpt lat="44.79633" lon="6.99926">
        <ele>2449.7</ele>
        <time>2022-02-25T12:45:21Z</time>
      </trkpt>
      <trkpt lat="44.79633" lon="6.99926">
        <ele>2449.7</ele>
        <time>2022-02-25T12:45:22Z</time>
      </trkpt>
      <trkpt lat="44.79633" lon="6.99926">
        <ele>2449.7</ele>
        <time>2022-02-25T12:45:23Z</time>
      </trkpt>
      <trkpt lat="44.79632" lon="6.99929">
        <ele>2449.9</ele>
        <time>2022-02-25T12:45:24Z</time>
      </trkpt>
      <trkpt lat="44.79632" lon="6.99929">
        <ele>2449.9</ele>
        <time>2022-02-25T12:45:25Z</time>
      </trkpt>
      <trkpt lat="44.79632" lon="6.99929">
        <ele>2449.9</ele>
        <time>2022-02-25T12:45:26Z</time>
      </trkpt>
      <trkpt lat="44.79631" lon="6.99931">
        <ele>2450.1</ele>
        <time>2022-02-25T12:45:27Z</time>
      </trkpt>
      <trkpt lat="44.79631" lon="6.99931">
        <ele>2450.1</ele>
        <time>2022-02-25T12:45:28Z</time>
      </trkpt>
      <trkpt lat="44.79631" lon="6.99931">
        <ele>2450.1</ele>
        <time>2022-02-25T12:45:29Z</time>
      </trkpt>
      <trkpt lat="44.7963" lon="6.99933">
        <ele>2450.3</ele>
        <time>2022-02-25T12:45:30Z</time>
      </trkpt>
      <trkpt lat="44.7963" lon="6.99933">
        <ele>2450.3</ele>
        <time>2022-02-25T12:45:31Z</time>
      </trkpt>
      <trkpt lat="44.7963" lon="6.99933">
        <ele>2450.3</ele>
        <time>2022-02-25T12:45:32Z</time>
      </trkpt>
      <trkpt lat="44.7963" lon="6.99933">
        <ele>2450.3</ele>
        <time>2022-02-25T12:45:33Z</time>
      </trkpt>
      <trkpt lat="44.79629" lon="6.99936">
        <ele>2450.5</ele>
        <time>2022-02-25T12:45:34Z</time>
      </trkpt>
      <trkpt lat="44.79629" lon="6.99936">
        <ele>2450.5</ele>
        <time>2022-02-25T12:45:35Z</time>
      </trkpt>
      <trkpt lat="44.79629" lon="6.99936">
        <ele>2450.5</ele>
        <time>2022-02-25T12:45:36Z</time>
      </trkpt>
      <trkpt lat="44.79628" lon="6.99939">
        <ele>2450.8</ele>
        <time>2022-02-25T12:45:37Z</time>
      </trkpt>
      <trkpt lat="44.79628" lon="6.99939">
        <ele>2450.8</ele>
        <time>2022-02-25T12:45:38Z</time>
      </trkpt>
      <trkpt lat="44.79628" lon="6.99939">
        <ele>2450.8</ele>
        <time>2022-02-25T12:45:39Z</time>
      </trkpt>
      <trkpt lat="44.79627" lon="6.99941">
        <ele>2451.1</ele>
        <time>2022-02-25T12:45:40Z</time>
      </trkpt>
      <trkpt lat="44.79627" lon="6.99941">
        <ele>2451.1</ele>
        <time>2022-02-25T12:45:41Z</time>
      </trkpt>
      <trkpt lat="44.79627" lon="6.99941">
        <ele>2451.1</ele>
        <time>2022-02-25T12:45:42Z</time>
      </trkpt>
      <trkpt lat="44.79625" lon="6.99944">
        <ele>2451.5</ele>
        <time>2022-02-25T12:45:43Z</time>
      </trkpt>
      <trkpt lat="44.79625" lon="6.99944">
        <ele>2451.5</ele>
        <time>2022-02-25T12:45:44Z</time>
      </trkpt>
      <trkpt lat="44.79625" lon="6.99944">
        <ele>2451.5</ele>
        <time>2022-02-25T12:45:45Z</time>
      </trkpt>
      <trkpt lat="44.79625" lon="6.99947">
        <ele>2451.7</ele>
        <time>2022-02-25T12:45:46Z</time>
      </trkpt>
      <trkpt lat="44.79625" lon="6.99947">
        <ele>2451.7</ele>
        <time>2022-02-25T12:45:47Z</time>
      </trkpt>
      <trkpt lat="44.79625" lon="6.99947">
        <ele>2451.7</ele>
        <time>2022-02-25T12:45:48Z</time>
      </trkpt>
      <trkpt lat="44.79624" lon="6.9995">
        <ele>2452</ele>
        <time>2022-02-25T12:45:49Z</time>
      </trkpt>
      <trkpt lat="44.79624" lon="6.9995">
        <ele>2452</ele>
        <time>2022-02-25T12:45:50Z</time>
      </trkpt>
      <trkpt lat="44.79624" lon="6.9995">
        <ele>2452</ele>
        <time>2022-02-25T12:45:51Z</time>
      </trkpt>
      <trkpt lat="44.79622" lon="6.99953">
        <ele>2452.4</ele>
        <time>2022-02-25T12:45:52Z</time>
      </trkpt>
      <trkpt lat="44.79622" lon="6.99953">
        <ele>2452.4</ele>
        <time>2022-02-25T12:45:53Z</time>
      </trkpt>
      <trkpt lat="44.79622" lon="6.99953">
        <ele>2452.4</ele>
        <time>2022-02-25T12:45:54Z</time>
      </trkpt>
      <trkpt lat="44.79621" lon="6.99956">
        <ele>2452.6</ele>
        <time>2022-02-25T12:45:55Z</time>
      </trkpt>
      <trkpt lat="44.79621" lon="6.99956">
        <ele>2452.6</ele>
        <time>2022-02-25T12:45:56Z</time>
      </trkpt>
      <trkpt lat="44.79621" lon="6.99956">
        <ele>2452.6</ele>
        <time>2022-02-25T12:45:57Z</time>
      </trkpt>
      <trkpt lat="44.79621" lon="6.99959">
        <ele>2452.8</ele>
        <time>2022-02-25T12:45:58Z</time>
      </trkpt>
      <trkpt lat="44.79621" lon="6.99959">
        <ele>2452.8</ele>
        <time>2022-02-25T12:45:59Z</time>
      </trkpt>
      <trkpt lat="44.79621" lon="6.99959">
        <ele>2452.8</ele>
        <time>2022-02-25T12:46:00Z</time>
      </trkpt>
      <trkpt lat="44.7962" lon="6.99962">
        <ele>2453.1</ele>
        <time>2022-02-25T12:46:01Z</time>
      </trkpt>
      <trkpt lat="44.7962" lon="6.99962">
        <ele>2453.1</ele>
        <time>2022-02-25T12:46:02Z</time>
      </trkpt>
      <trkpt lat="44.7962" lon="6.99962">
        <ele>2453.1</ele>
        <time>2022-02-25T12:46:03Z</time>
      </trkpt>
      <trkpt lat="44.79619" lon="6.99965">
        <ele>2453.3</ele>
        <time>2022-02-25T12:46:04Z</time>
      </trkpt>
      <trkpt lat="44.79619" lon="6.99965">
        <ele>2453.3</ele>
        <time>2022-02-25T12:46:05Z</time>
      </trkpt>
      <trkpt lat="44.79619" lon="6.99965">
        <ele>2453.3</ele>
        <time>2022-02-25T12:46:06Z</time>
      </trkpt>
      <trkpt lat="44.79618" lon="6.99968">
        <ele>2453.5</ele>
        <time>2022-02-25T12:46:07Z</time>
      </trkpt>
      <trkpt lat="44.79618" lon="6.99968">
        <ele>2453.5</ele>
        <time>2022-02-25T12:46:08Z</time>
      </trkpt>
      <trkpt lat="44.79618" lon="6.99968">
        <ele>2453.5</ele>
        <time>2022-02-25T12:46:09Z</time>
      </trkpt>
      <trkpt lat="44.79617" lon="6.99971">
        <ele>2453.7</ele>
        <time>2022-02-25T12:46:10Z</time>
      </trkpt>
      <trkpt lat="44.79617" lon="6.99971">
        <ele>2453.7</ele>
        <time>2022-02-25T12:46:11Z</time>
      </trkpt>
      <trkpt lat="44.79617" lon="6.99971">
        <ele>2453.7</ele>
        <time>2022-02-25T12:46:12Z</time>
      </trkpt>
      <trkpt lat="44.79616" lon="6.99974">
        <ele>2454</ele>
        <time>2022-02-25T12:46:13Z</time>
      </trkpt>
      <trkpt lat="44.79616" lon="6.99974">
        <ele>2454</ele>
        <time>2022-02-25T12:46:14Z</time>
      </trkpt>
      <trkpt lat="44.79615" lon="6.99976">
        <ele>2454.2</ele>
        <time>2022-02-25T12:46:15Z</time>
      </trkpt>
      <trkpt lat="44.79615" lon="6.99976">
        <ele>2454.2</ele>
        <time>2022-02-25T12:46:16Z</time>
      </trkpt>
      <trkpt lat="44.79615" lon="6.99976">
        <ele>2454.2</ele>
        <time>2022-02-25T12:46:17Z</time>
      </trkpt>
      <trkpt lat="44.79615" lon="6.99979">
        <ele>2454.5</ele>
        <time>2022-02-25T12:46:18Z</time>
      </trkpt>
      <trkpt lat="44.79615" lon="6.99979">
        <ele>2454.5</ele>
        <time>2022-02-25T12:46:19Z</time>
      </trkpt>
      <trkpt lat="44.79615" lon="6.99979">
        <ele>2454.5</ele>
        <time>2022-02-25T12:46:20Z</time>
      </trkpt>
      <trkpt lat="44.79613" lon="6.99981">
        <ele>2454.7</ele>
        <time>2022-02-25T12:46:21Z</time>
      </trkpt>
      <trkpt lat="44.79613" lon="6.99981">
        <ele>2454.7</ele>
        <time>2022-02-25T12:46:22Z</time>
      </trkpt>
      <trkpt lat="44.79613" lon="6.99981">
        <ele>2454.7</ele>
        <time>2022-02-25T12:46:23Z</time>
      </trkpt>
      <trkpt lat="44.79613" lon="6.99981">
        <ele>2454.7</ele>
        <time>2022-02-25T12:46:24Z</time>
      </trkpt>
      <trkpt lat="44.79612" lon="6.99984">
        <ele>2454.9</ele>
        <time>2022-02-25T12:46:25Z</time>
      </trkpt>
      <trkpt lat="44.79612" lon="6.99984">
        <ele>2454.9</ele>
        <time>2022-02-25T12:46:26Z</time>
      </trkpt>
      <trkpt lat="44.79612" lon="6.99984">
        <ele>2454.9</ele>
        <time>2022-02-25T12:46:27Z</time>
      </trkpt>
      <trkpt lat="44.79611" lon="6.99986">
        <ele>2455</ele>
        <time>2022-02-25T12:46:28Z</time>
      </trkpt>
      <trkpt lat="44.79611" lon="6.99986">
        <ele>2455</ele>
        <time>2022-02-25T12:46:29Z</time>
      </trkpt>
      <trkpt lat="44.79611" lon="6.99986">
        <ele>2455</ele>
        <time>2022-02-25T12:46:30Z</time>
      </trkpt>
      <trkpt lat="44.79611" lon="6.99986">
        <ele>2455</ele>
        <time>2022-02-25T12:46:31Z</time>
      </trkpt>
      <trkpt lat="44.79611" lon="6.99989">
        <ele>2455.3</ele>
        <time>2022-02-25T12:46:32Z</time>
      </trkpt>
      <trkpt lat="44.79611" lon="6.99989">
        <ele>2455.3</ele>
        <time>2022-02-25T12:46:33Z</time>
      </trkpt>
      <trkpt lat="44.79611" lon="6.99989">
        <ele>2455.3</ele>
        <time>2022-02-25T12:46:34Z</time>
      </trkpt>
      <trkpt lat="44.7961" lon="6.99992">
        <ele>2455.9</ele>
        <time>2022-02-25T12:46:35Z</time>
      </trkpt>
      <trkpt lat="44.7961" lon="6.99992">
        <ele>2455.9</ele>
        <time>2022-02-25T12:46:36Z</time>
      </trkpt>
      <trkpt lat="44.7961" lon="6.99992">
        <ele>2455.9</ele>
        <time>2022-02-25T12:46:37Z</time>
      </trkpt>
      <trkpt lat="44.79609" lon="6.99994">
        <ele>2456.4</ele>
        <time>2022-02-25T12:46:38Z</time>
      </trkpt>
      <trkpt lat="44.79609" lon="6.99994">
        <ele>2456.4</ele>
        <time>2022-02-25T12:46:39Z</time>
      </trkpt>
      <trkpt lat="44.79609" lon="6.99994">
        <ele>2456.4</ele>
        <time>2022-02-25T12:46:40Z</time>
      </trkpt>
      <trkpt lat="44.79609" lon="6.99994">
        <ele>2456.4</ele>
        <time>2022-02-25T12:46:41Z</time>
      </trkpt>
      <trkpt lat="44.79608" lon="6.99997">
        <ele>2457</ele>
        <time>2022-02-25T12:46:42Z</time>
      </trkpt>
      <trkpt lat="44.79608" lon="6.99997">
        <ele>2457</ele>
        <time>2022-02-25T12:46:43Z</time>
      </trkpt>
      <trkpt lat="44.79608" lon="6.99997">
        <ele>2457</ele>
        <time>2022-02-25T12:46:44Z</time>
      </trkpt>
      <trkpt lat="44.79607" lon="7">
        <ele>2457.6</ele>
        <time>2022-02-25T12:46:45Z</time>
      </trkpt>
      <trkpt lat="44.79607" lon="7">
        <ele>2457.6</ele>
        <time>2022-02-25T12:46:46Z</time>
      </trkpt>
      <trkpt lat="44.79607" lon="7">
        <ele>2457.6</ele>
        <time>2022-02-25T12:46:47Z</time>
      </trkpt>
      <trkpt lat="44.79607" lon="7.00003">
        <ele>2458</ele>
        <time>2022-02-25T12:46:48Z</time>
      </trkpt>
      <trkpt lat="44.79607" lon="7.00003">
        <ele>2458</ele>
        <time>2022-02-25T12:46:49Z</time>
      </trkpt>
      <trkpt lat="44.79607" lon="7.00003">
        <ele>2458</ele>
        <time>2022-02-25T12:46:50Z</time>
      </trkpt>
      <trkpt lat="44.79607" lon="7.00006">
        <ele>2458.4</ele>
        <time>2022-02-25T12:46:51Z</time>
      </trkpt>
      <trkpt lat="44.79607" lon="7.00006">
        <ele>2458.4</ele>
        <time>2022-02-25T12:46:52Z</time>
      </trkpt>
      <trkpt lat="44.79607" lon="7.00006">
        <ele>2458.4</ele>
        <time>2022-02-25T12:46:53Z</time>
      </trkpt>
      <trkpt lat="44.79606" lon="7.00008">
        <ele>2459</ele>
        <time>2022-02-25T12:46:54Z</time>
      </trkpt>
      <trkpt lat="44.79606" lon="7.00008">
        <ele>2459</ele>
        <time>2022-02-25T12:46:55Z</time>
      </trkpt>
      <trkpt lat="44.79606" lon="7.00008">
        <ele>2459</ele>
        <time>2022-02-25T12:46:56Z</time>
      </trkpt>
      <trkpt lat="44.79605" lon="7.00011">
        <ele>2459.7</ele>
        <time>2022-02-25T12:46:57Z</time>
      </trkpt>
      <trkpt lat="44.79605" lon="7.00011">
        <ele>2459.7</ele>
        <time>2022-02-25T12:46:58Z</time>
      </trkpt>
      <trkpt lat="44.79605" lon="7.00011">
        <ele>2459.7</ele>
        <time>2022-02-25T12:46:59Z</time>
      </trkpt>
      <trkpt lat="44.79605" lon="7.00011">
        <ele>2459.7</ele>
        <time>2022-02-25T12:47:00Z</time>
      </trkpt>
      <trkpt lat="44.79605" lon="7.00014">
        <ele>2460.1</ele>
        <time>2022-02-25T12:47:01Z</time>
      </trkpt>
      <trkpt lat="44.79605" lon="7.00014">
        <ele>2460.1</ele>
        <time>2022-02-25T12:47:02Z</time>
      </trkpt>
      <trkpt lat="44.79605" lon="7.00014">
        <ele>2460.1</ele>
        <time>2022-02-25T12:47:03Z</time>
      </trkpt>
      <trkpt lat="44.79605" lon="7.00014">
        <ele>2460.1</ele>
        <time>2022-02-25T12:47:04Z</time>
      </trkpt>
      <trkpt lat="44.79605" lon="7.00017">
        <ele>2460.5</ele>
        <time>2022-02-25T12:47:05Z</time>
      </trkpt>
      <trkpt lat="44.79605" lon="7.00017">
        <ele>2460.5</ele>
        <time>2022-02-25T12:47:06Z</time>
      </trkpt>
      <trkpt lat="44.79605" lon="7.00017">
        <ele>2460.5</ele>
        <time>2022-02-25T12:47:07Z</time>
      </trkpt>
      <trkpt lat="44.79605" lon="7.00017">
        <ele>2460.5</ele>
        <time>2022-02-25T12:47:08Z</time>
      </trkpt>
      <trkpt lat="44.79605" lon="7.00019">
        <ele>2460.7</ele>
        <time>2022-02-25T12:47:09Z</time>
      </trkpt>
      <trkpt lat="44.79605" lon="7.00019">
        <ele>2460.7</ele>
        <time>2022-02-25T12:47:10Z</time>
      </trkpt>
      <trkpt lat="44.79605" lon="7.00019">
        <ele>2460.7</ele>
        <time>2022-02-25T12:47:11Z</time>
      </trkpt>
      <trkpt lat="44.79605" lon="7.00019">
        <ele>2460.7</ele>
        <time>2022-02-25T12:47:12Z</time>
      </trkpt>
      <trkpt lat="44.79604" lon="7.00023">
        <ele>2461.5</ele>
        <time>2022-02-25T12:47:13Z</time>
      </trkpt>
      <trkpt lat="44.79604" lon="7.00023">
        <ele>2461.5</ele>
        <time>2022-02-25T12:47:14Z</time>
      </trkpt>
      <trkpt lat="44.79604" lon="7.00023">
        <ele>2461.5</ele>
        <time>2022-02-25T12:47:15Z</time>
      </trkpt>
      <trkpt lat="44.79604" lon="7.00023">
        <ele>2461.5</ele>
        <time>2022-02-25T12:47:16Z</time>
      </trkpt>
      <trkpt lat="44.79604" lon="7.00026">
        <ele>2461.8</ele>
        <time>2022-02-25T12:47:17Z</time>
      </trkpt>
      <trkpt lat="44.79604" lon="7.00026">
        <ele>2461.8</ele>
        <time>2022-02-25T12:47:18Z</time>
      </trkpt>
      <trkpt lat="44.79604" lon="7.00026">
        <ele>2461.8</ele>
        <time>2022-02-25T12:47:19Z</time>
      </trkpt>
      <trkpt lat="44.79604" lon="7.00026">
        <ele>2461.8</ele>
        <time>2022-02-25T12:47:20Z</time>
      </trkpt>
      <trkpt lat="44.79603" lon="7.00029">
        <ele>2462.5</ele>
        <time>2022-02-25T12:47:21Z</time>
      </trkpt>
      <trkpt lat="44.79603" lon="7.00029">
        <ele>2462.5</ele>
        <time>2022-02-25T12:47:22Z</time>
      </trkpt>
      <trkpt lat="44.79603" lon="7.00029">
        <ele>2462.5</ele>
        <time>2022-02-25T12:47:23Z</time>
      </trkpt>
      <trkpt lat="44.79603" lon="7.00029">
        <ele>2462.5</ele>
        <time>2022-02-25T12:47:24Z</time>
      </trkpt>
      <trkpt lat="44.79603" lon="7.00032">
        <ele>2462.8</ele>
        <time>2022-02-25T12:47:25Z</time>
      </trkpt>
      <trkpt lat="44.79603" lon="7.00032">
        <ele>2462.8</ele>
        <time>2022-02-25T12:47:26Z</time>
      </trkpt>
      <trkpt lat="44.79603" lon="7.00032">
        <ele>2462.8</ele>
        <time>2022-02-25T12:47:27Z</time>
      </trkpt>
      <trkpt lat="44.79602" lon="7.00034">
        <ele>2463.3</ele>
        <time>2022-02-25T12:47:28Z</time>
      </trkpt>
      <trkpt lat="44.79602" lon="7.00034">
        <ele>2463.3</ele>
        <time>2022-02-25T12:47:29Z</time>
      </trkpt>
      <trkpt lat="44.79602" lon="7.00034">
        <ele>2463.3</ele>
        <time>2022-02-25T12:47:30Z</time>
      </trkpt>
      <trkpt lat="44.79602" lon="7.00034">
        <ele>2463.3</ele>
        <time>2022-02-25T12:47:31Z</time>
      </trkpt>
      <trkpt lat="44.79601" lon="7.00036">
        <ele>2463.7</ele>
        <time>2022-02-25T12:47:32Z</time>
      </trkpt>
      <trkpt lat="44.79601" lon="7.00036">
        <ele>2463.7</ele>
        <time>2022-02-25T12:47:33Z</time>
      </trkpt>
      <trkpt lat="44.79601" lon="7.00036">
        <ele>2463.7</ele>
        <time>2022-02-25T12:47:34Z</time>
      </trkpt>
      <trkpt lat="44.79599" lon="7.00038">
        <ele>2464.3</ele>
        <time>2022-02-25T12:47:35Z</time>
      </trkpt>
      <trkpt lat="44.79599" lon="7.00038">
        <ele>2464.3</ele>
        <time>2022-02-25T12:47:36Z</time>
      </trkpt>
      <trkpt lat="44.79599" lon="7.00038">
        <ele>2464.3</ele>
        <time>2022-02-25T12:47:37Z</time>
      </trkpt>
      <trkpt lat="44.79597" lon="7.0004">
        <ele>2464.7</ele>
        <time>2022-02-25T12:47:38Z</time>
      </trkpt>
      <trkpt lat="44.79597" lon="7.0004">
        <ele>2464.7</ele>
        <time>2022-02-25T12:47:39Z</time>
      </trkpt>
      <trkpt lat="44.79597" lon="7.0004">
        <ele>2464.7</ele>
        <time>2022-02-25T12:47:40Z</time>
      </trkpt>
      <trkpt lat="44.79597" lon="7.0004">
        <ele>2464.7</ele>
        <time>2022-02-25T12:47:41Z</time>
      </trkpt>
      <trkpt lat="44.79597" lon="7.00043">
        <ele>2464.8</ele>
        <time>2022-02-25T12:47:42Z</time>
      </trkpt>
      <trkpt lat="44.79597" lon="7.00043">
        <ele>2464.8</ele>
        <time>2022-02-25T12:47:43Z</time>
      </trkpt>
      <trkpt lat="44.79597" lon="7.00043">
        <ele>2464.8</ele>
        <time>2022-02-25T12:47:44Z</time>
      </trkpt>
      <trkpt lat="44.79595" lon="7.00046">
        <ele>2465.2</ele>
        <time>2022-02-25T12:47:45Z</time>
      </trkpt>
      <trkpt lat="44.79595" lon="7.00046">
        <ele>2465.2</ele>
        <time>2022-02-25T12:47:46Z</time>
      </trkpt>
      <trkpt lat="44.79595" lon="7.00046">
        <ele>2465.2</ele>
        <time>2022-02-25T12:47:47Z</time>
      </trkpt>
      <trkpt lat="44.79594" lon="7.00048">
        <ele>2465.3</ele>
        <time>2022-02-25T12:47:48Z</time>
      </trkpt>
      <trkpt lat="44.79594" lon="7.00048">
        <ele>2465.3</ele>
        <time>2022-02-25T12:47:49Z</time>
      </trkpt>
      <trkpt lat="44.79594" lon="7.00048">
        <ele>2465.3</ele>
        <time>2022-02-25T12:47:50Z</time>
      </trkpt>
      <trkpt lat="44.79592" lon="7.0005">
        <ele>2465.4</ele>
        <time>2022-02-25T12:47:51Z</time>
      </trkpt>
      <trkpt lat="44.79592" lon="7.0005">
        <ele>2465.4</ele>
        <time>2022-02-25T12:47:52Z</time>
      </trkpt>
      <trkpt lat="44.79592" lon="7.0005">
        <ele>2465.4</ele>
        <time>2022-02-25T12:47:53Z</time>
      </trkpt>
      <trkpt lat="44.79591" lon="7.00053">
        <ele>2465.3</ele>
        <time>2022-02-25T12:47:54Z</time>
      </trkpt>
      <trkpt lat="44.79591" lon="7.00053">
        <ele>2465.3</ele>
        <time>2022-02-25T12:47:55Z</time>
      </trkpt>
      <trkpt lat="44.79591" lon="7.00053">
        <ele>2465.3</ele>
        <time>2022-02-25T12:47:56Z</time>
      </trkpt>
      <trkpt lat="44.7959" lon="7.00055">
        <ele>2465.3</ele>
        <time>2022-02-25T12:47:57Z</time>
      </trkpt>
      <trkpt lat="44.7959" lon="7.00055">
        <ele>2465.3</ele>
        <time>2022-02-25T12:47:58Z</time>
      </trkpt>
      <trkpt lat="44.7959" lon="7.00055">
        <ele>2465.3</ele>
        <time>2022-02-25T12:47:59Z</time>
      </trkpt>
      <trkpt lat="44.79589" lon="7.00058">
        <ele>2465.4</ele>
        <time>2022-02-25T12:48:00Z</time>
      </trkpt>
      <trkpt lat="44.79589" lon="7.00058">
        <ele>2465.4</ele>
        <time>2022-02-25T12:48:01Z</time>
      </trkpt>
      <trkpt lat="44.79589" lon="7.00058">
        <ele>2465.4</ele>
        <time>2022-02-25T12:48:02Z</time>
      </trkpt>
      <trkpt lat="44.79588" lon="7.00061">
        <ele>2465.6</ele>
        <time>2022-02-25T12:48:03Z</time>
      </trkpt>
      <trkpt lat="44.79588" lon="7.00061">
        <ele>2465.6</ele>
        <time>2022-02-25T12:48:04Z</time>
      </trkpt>
      <trkpt lat="44.79588" lon="7.00061">
        <ele>2465.6</ele>
        <time>2022-02-25T12:48:05Z</time>
      </trkpt>
      <trkpt lat="44.79587" lon="7.00063">
        <ele>2465.6</ele>
        <time>2022-02-25T12:48:06Z</time>
      </trkpt>
      <trkpt lat="44.79587" lon="7.00063">
        <ele>2465.6</ele>
        <time>2022-02-25T12:48:07Z</time>
      </trkpt>
      <trkpt lat="44.79587" lon="7.00063">
        <ele>2465.6</ele>
        <time>2022-02-25T12:48:08Z</time>
      </trkpt>
      <trkpt lat="44.79586" lon="7.00065">
        <ele>2465.7</ele>
        <time>2022-02-25T12:48:09Z</time>
      </trkpt>
      <trkpt lat="44.79586" lon="7.00065">
        <ele>2465.7</ele>
        <time>2022-02-25T12:48:10Z</time>
      </trkpt>
      <trkpt lat="44.79586" lon="7.00065">
        <ele>2465.7</ele>
        <time>2022-02-25T12:48:11Z</time>
      </trkpt>
      <trkpt lat="44.79584" lon="7.00067">
        <ele>2465.5</ele>
        <time>2022-02-25T12:48:12Z</time>
      </trkpt>
      <trkpt lat="44.79584" lon="7.00067">
        <ele>2465.5</ele>
        <time>2022-02-25T12:48:13Z</time>
      </trkpt>
      <trkpt lat="44.79584" lon="7.00067">
        <ele>2465.5</ele>
        <time>2022-02-25T12:48:14Z</time>
      </trkpt>
      <trkpt lat="44.79583" lon="7.0007">
        <ele>2465.6</ele>
        <time>2022-02-25T12:48:15Z</time>
      </trkpt>
      <trkpt lat="44.79583" lon="7.0007">
        <ele>2465.6</ele>
        <time>2022-02-25T12:48:16Z</time>
      </trkpt>
      <trkpt lat="44.79583" lon="7.0007">
        <ele>2465.6</ele>
        <time>2022-02-25T12:48:17Z</time>
      </trkpt>
      <trkpt lat="44.79583" lon="7.0007">
        <ele>2465.6</ele>
        <time>2022-02-25T12:48:18Z</time>
      </trkpt>
      <trkpt lat="44.79583" lon="7.00073">
        <ele>2465.7</ele>
        <time>2022-02-25T12:48:19Z</time>
      </trkpt>
      <trkpt lat="44.79583" lon="7.00073">
        <ele>2465.7</ele>
        <time>2022-02-25T12:48:20Z</time>
      </trkpt>
      <trkpt lat="44.79583" lon="7.00073">
        <ele>2465.7</ele>
        <time>2022-02-25T12:48:21Z</time>
      </trkpt>
      <trkpt lat="44.79582" lon="7.00076">
        <ele>2466.1</ele>
        <time>2022-02-25T12:48:22Z</time>
      </trkpt>
      <trkpt lat="44.79582" lon="7.00076">
        <ele>2466.1</ele>
        <time>2022-02-25T12:48:23Z</time>
      </trkpt>
      <trkpt lat="44.79582" lon="7.00076">
        <ele>2466.1</ele>
        <time>2022-02-25T12:48:24Z</time>
      </trkpt>
      <trkpt lat="44.79581" lon="7.00079">
        <ele>2466.5</ele>
        <time>2022-02-25T12:48:25Z</time>
      </trkpt>
      <trkpt lat="44.79581" lon="7.00079">
        <ele>2466.5</ele>
        <time>2022-02-25T12:48:26Z</time>
      </trkpt>
      <trkpt lat="44.79581" lon="7.00079">
        <ele>2466.5</ele>
        <time>2022-02-25T12:48:27Z</time>
      </trkpt>
      <trkpt lat="44.79581" lon="7.00082">
        <ele>2466.5</ele>
        <time>2022-02-25T12:48:28Z</time>
      </trkpt>
      <trkpt lat="44.79581" lon="7.00082">
        <ele>2466.5</ele>
        <time>2022-02-25T12:48:29Z</time>
      </trkpt>
      <trkpt lat="44.79581" lon="7.00082">
        <ele>2466.5</ele>
        <time>2022-02-25T12:48:30Z</time>
      </trkpt>
      <trkpt lat="44.7958" lon="7.00085">
        <ele>2467.1</ele>
        <time>2022-02-25T12:48:31Z</time>
      </trkpt>
      <trkpt lat="44.7958" lon="7.00085">
        <ele>2467.1</ele>
        <time>2022-02-25T12:48:32Z</time>
      </trkpt>
      <trkpt lat="44.7958" lon="7.00085">
        <ele>2467.1</ele>
        <time>2022-02-25T12:48:33Z</time>
      </trkpt>
      <trkpt lat="44.7958" lon="7.00087">
        <ele>2467.5</ele>
        <time>2022-02-25T12:48:34Z</time>
      </trkpt>
      <trkpt lat="44.7958" lon="7.00087">
        <ele>2467.5</ele>
        <time>2022-02-25T12:48:35Z</time>
      </trkpt>
      <trkpt lat="44.7958" lon="7.00087">
        <ele>2467.5</ele>
        <time>2022-02-25T12:48:36Z</time>
      </trkpt>
      <trkpt lat="44.7958" lon="7.00087">
        <ele>2467.5</ele>
        <time>2022-02-25T12:48:37Z</time>
      </trkpt>
      <trkpt lat="44.79578" lon="7.00089">
        <ele>2468.2</ele>
        <time>2022-02-25T12:48:38Z</time>
      </trkpt>
      <trkpt lat="44.79578" lon="7.00089">
        <ele>2468.2</ele>
        <time>2022-02-25T12:48:39Z</time>
      </trkpt>
      <trkpt lat="44.79578" lon="7.00089">
        <ele>2468.2</ele>
        <time>2022-02-25T12:48:40Z</time>
      </trkpt>
      <trkpt lat="44.79578" lon="7.00089">
        <ele>2468.2</ele>
        <time>2022-02-25T12:48:41Z</time>
      </trkpt>
      <trkpt lat="44.79577" lon="7.00092">
        <ele>2468.9</ele>
        <time>2022-02-25T12:48:42Z</time>
      </trkpt>
      <trkpt lat="44.79577" lon="7.00092">
        <ele>2468.9</ele>
        <time>2022-02-25T12:48:43Z</time>
      </trkpt>
      <trkpt lat="44.79577" lon="7.00092">
        <ele>2468.9</ele>
        <time>2022-02-25T12:48:44Z</time>
      </trkpt>
      <trkpt lat="44.79577" lon="7.00095">
        <ele>2469.4</ele>
        <time>2022-02-25T12:48:45Z</time>
      </trkpt>
      <trkpt lat="44.79577" lon="7.00095">
        <ele>2469.4</ele>
        <time>2022-02-25T12:48:46Z</time>
      </trkpt>
      <trkpt lat="44.79577" lon="7.00095">
        <ele>2469.4</ele>
        <time>2022-02-25T12:48:47Z</time>
      </trkpt>
      <trkpt lat="44.79577" lon="7.00095">
        <ele>2469.4</ele>
        <time>2022-02-25T12:48:48Z</time>
      </trkpt>
      <trkpt lat="44.79575" lon="7.00098">
        <ele>2470.3</ele>
        <time>2022-02-25T12:48:49Z</time>
      </trkpt>
      <trkpt lat="44.79575" lon="7.00098">
        <ele>2470.3</ele>
        <time>2022-02-25T12:48:50Z</time>
      </trkpt>
      <trkpt lat="44.79575" lon="7.00098">
        <ele>2470.3</ele>
        <time>2022-02-25T12:48:51Z</time>
      </trkpt>
      <trkpt lat="44.79574" lon="7.001">
        <ele>2470.7</ele>
        <time>2022-02-25T12:48:52Z</time>
      </trkpt>
      <trkpt lat="44.79574" lon="7.001">
        <ele>2470.7</ele>
        <time>2022-02-25T12:48:53Z</time>
      </trkpt>
      <trkpt lat="44.79574" lon="7.001">
        <ele>2470.7</ele>
        <time>2022-02-25T12:48:54Z</time>
      </trkpt>
      <trkpt lat="44.79574" lon="7.001">
        <ele>2470.7</ele>
        <time>2022-02-25T12:48:55Z</time>
      </trkpt>
      <trkpt lat="44.79573" lon="7.00102">
        <ele>2471.2</ele>
        <time>2022-02-25T12:48:56Z</time>
      </trkpt>
      <trkpt lat="44.79573" lon="7.00102">
        <ele>2471.2</ele>
        <time>2022-02-25T12:48:57Z</time>
      </trkpt>
      <trkpt lat="44.79573" lon="7.00102">
        <ele>2471.2</ele>
        <time>2022-02-25T12:48:58Z</time>
      </trkpt>
      <trkpt lat="44.79573" lon="7.00102">
        <ele>2471.2</ele>
        <time>2022-02-25T12:48:59Z</time>
      </trkpt>
      <trkpt lat="44.79572" lon="7.00105">
        <ele>2471.8</ele>
        <time>2022-02-25T12:49:00Z</time>
      </trkpt>
      <trkpt lat="44.79572" lon="7.00105">
        <ele>2471.8</ele>
        <time>2022-02-25T12:49:01Z</time>
      </trkpt>
      <trkpt lat="44.79572" lon="7.00105">
        <ele>2471.8</ele>
        <time>2022-02-25T12:49:02Z</time>
      </trkpt>
      <trkpt lat="44.79571" lon="7.00107">
        <ele>2472.2</ele>
        <time>2022-02-25T12:49:03Z</time>
      </trkpt>
      <trkpt lat="44.79571" lon="7.00107">
        <ele>2472.2</ele>
        <time>2022-02-25T12:49:04Z</time>
      </trkpt>
      <trkpt lat="44.79571" lon="7.00107">
        <ele>2472.2</ele>
        <time>2022-02-25T12:49:05Z</time>
      </trkpt>
      <trkpt lat="44.79571" lon="7.00107">
        <ele>2472.2</ele>
        <time>2022-02-25T12:49:06Z</time>
      </trkpt>
      <trkpt lat="44.79569" lon="7.00109">
        <ele>2472.8</ele>
        <time>2022-02-25T12:49:07Z</time>
      </trkpt>
      <trkpt lat="44.79569" lon="7.00109">
        <ele>2472.8</ele>
        <time>2022-02-25T12:49:08Z</time>
      </trkpt>
      <trkpt lat="44.79569" lon="7.00109">
        <ele>2472.8</ele>
        <time>2022-02-25T12:49:09Z</time>
      </trkpt>
      <trkpt lat="44.79569" lon="7.00109">
        <ele>2472.8</ele>
        <time>2022-02-25T12:49:10Z</time>
      </trkpt>
      <trkpt lat="44.79568" lon="7.00111">
        <ele>2473.2</ele>
        <time>2022-02-25T12:49:11Z</time>
      </trkpt>
      <trkpt lat="44.79568" lon="7.00111">
        <ele>2473.2</ele>
        <time>2022-02-25T12:49:12Z</time>
      </trkpt>
      <trkpt lat="44.79568" lon="7.00111">
        <ele>2473.2</ele>
        <time>2022-02-25T12:49:13Z</time>
      </trkpt>
      <trkpt lat="44.79568" lon="7.00111">
        <ele>2473.2</ele>
        <time>2022-02-25T12:49:14Z</time>
      </trkpt>
      <trkpt lat="44.79568" lon="7.00111">
        <ele>2473.2</ele>
        <time>2022-02-25T12:49:15Z</time>
      </trkpt>
      <trkpt lat="44.79567" lon="7.00114">
        <ele>2474.1</ele>
        <time>2022-02-25T12:49:16Z</time>
      </trkpt>
      <trkpt lat="44.79567" lon="7.00114">
        <ele>2474.1</ele>
        <time>2022-02-25T12:49:17Z</time>
      </trkpt>
      <trkpt lat="44.79567" lon="7.00114">
        <ele>2474.1</ele>
        <time>2022-02-25T12:49:18Z</time>
      </trkpt>
      <trkpt lat="44.79567" lon="7.00114">
        <ele>2474.1</ele>
        <time>2022-02-25T12:49:19Z</time>
      </trkpt>
      <trkpt lat="44.79567" lon="7.00114">
        <ele>2474.1</ele>
        <time>2022-02-25T12:49:20Z</time>
      </trkpt>
      <trkpt lat="44.79564" lon="7.00114">
        <ele>2474.5</ele>
        <time>2022-02-25T12:49:21Z</time>
      </trkpt>
      <trkpt lat="44.79564" lon="7.00114">
        <ele>2474.5</ele>
        <time>2022-02-25T12:49:22Z</time>
      </trkpt>
      <trkpt lat="44.79564" lon="7.00114">
        <ele>2474.5</ele>
        <time>2022-02-25T12:49:23Z</time>
      </trkpt>
      <trkpt lat="44.79562" lon="7.00115">
        <ele>2475.1</ele>
        <time>2022-02-25T12:49:24Z</time>
      </trkpt>
      <trkpt lat="44.79562" lon="7.00115">
        <ele>2475.1</ele>
        <time>2022-02-25T12:49:25Z</time>
      </trkpt>
      <trkpt lat="44.79562" lon="7.00115">
        <ele>2475.1</ele>
        <time>2022-02-25T12:49:26Z</time>
      </trkpt>
      <trkpt lat="44.79562" lon="7.00115">
        <ele>2475.1</ele>
        <time>2022-02-25T12:49:27Z</time>
      </trkpt>
      <trkpt lat="44.7956" lon="7.00115">
        <ele>2475.3</ele>
        <time>2022-02-25T12:49:28Z</time>
      </trkpt>
      <trkpt lat="44.7956" lon="7.00115">
        <ele>2475.3</ele>
        <time>2022-02-25T12:49:29Z</time>
      </trkpt>
      <trkpt lat="44.7956" lon="7.00115">
        <ele>2475.3</ele>
        <time>2022-02-25T12:49:30Z</time>
      </trkpt>
      <trkpt lat="44.7956" lon="7.00115">
        <ele>2475.3</ele>
        <time>2022-02-25T12:49:31Z</time>
      </trkpt>
      <trkpt lat="44.7956" lon="7.00115">
        <ele>2475.3</ele>
        <time>2022-02-25T12:49:32Z</time>
      </trkpt>
      <trkpt lat="44.7956" lon="7.00115">
        <ele>2475.3</ele>
        <time>2022-02-25T12:49:33Z</time>
      </trkpt>
      <trkpt lat="44.79558" lon="7.00116">
        <ele>2475.9</ele>
        <time>2022-02-25T12:49:34Z</time>
      </trkpt>
      <trkpt lat="44.79558" lon="7.00116">
        <ele>2475.9</ele>
        <time>2022-02-25T12:49:35Z</time>
      </trkpt>
      <trkpt lat="44.79558" lon="7.00116">
        <ele>2475.9</ele>
        <time>2022-02-25T12:49:36Z</time>
      </trkpt>
      <trkpt lat="44.79558" lon="7.00116">
        <ele>2475.9</ele>
        <time>2022-02-25T12:49:37Z</time>
      </trkpt>
      <trkpt lat="44.79558" lon="7.00116">
        <ele>2475.9</ele>
        <time>2022-02-25T12:49:38Z</time>
      </trkpt>
      <trkpt lat="44.79556" lon="7.00118">
        <ele>2476.7</ele>
        <time>2022-02-25T12:49:39Z</time>
      </trkpt>
      <trkpt lat="44.79556" lon="7.00118">
        <ele>2476.7</ele>
        <time>2022-02-25T12:49:40Z</time>
      </trkpt>
      <trkpt lat="44.79556" lon="7.00118">
        <ele>2476.7</ele>
        <time>2022-02-25T12:49:41Z</time>
      </trkpt>
      <trkpt lat="44.79556" lon="7.00118">
        <ele>2476.7</ele>
        <time>2022-02-25T12:49:42Z</time>
      </trkpt>
      <trkpt lat="44.79554" lon="7.00119">
        <ele>2477.3</ele>
        <time>2022-02-25T12:49:43Z</time>
      </trkpt>
      <trkpt lat="44.79554" lon="7.00119">
        <ele>2477.3</ele>
        <time>2022-02-25T12:49:44Z</time>
      </trkpt>
      <trkpt lat="44.79554" lon="7.00119">
        <ele>2477.3</ele>
        <time>2022-02-25T12:49:45Z</time>
      </trkpt>
      <trkpt lat="44.79554" lon="7.00119">
        <ele>2477.3</ele>
        <time>2022-02-25T12:49:46Z</time>
      </trkpt>
      <trkpt lat="44.79554" lon="7.00119">
        <ele>2477.3</ele>
        <time>2022-02-25T12:49:47Z</time>
      </trkpt>
      <trkpt lat="44.79552" lon="7.0012">
        <ele>2477.9</ele>
        <time>2022-02-25T12:49:48Z</time>
      </trkpt>
      <trkpt lat="44.79552" lon="7.0012">
        <ele>2477.9</ele>
        <time>2022-02-25T12:49:49Z</time>
      </trkpt>
      <trkpt lat="44.79552" lon="7.0012">
        <ele>2477.9</ele>
        <time>2022-02-25T12:49:50Z</time>
      </trkpt>
      <trkpt lat="44.79552" lon="7.0012">
        <ele>2477.9</ele>
        <time>2022-02-25T12:49:51Z</time>
      </trkpt>
      <trkpt lat="44.79552" lon="7.0012">
        <ele>2477.9</ele>
        <time>2022-02-25T12:49:52Z</time>
      </trkpt>
      <trkpt lat="44.7955" lon="7.00122">
        <ele>2478.7</ele>
        <time>2022-02-25T12:49:53Z</time>
      </trkpt>
      <trkpt lat="44.7955" lon="7.00122">
        <ele>2478.7</ele>
        <time>2022-02-25T12:49:54Z</time>
      </trkpt>
      <trkpt lat="44.7955" lon="7.00122">
        <ele>2478.7</ele>
        <time>2022-02-25T12:49:55Z</time>
      </trkpt>
      <trkpt lat="44.7955" lon="7.00122">
        <ele>2478.7</ele>
        <time>2022-02-25T12:49:56Z</time>
      </trkpt>
      <trkpt lat="44.7955" lon="7.00122">
        <ele>2478.7</ele>
        <time>2022-02-25T12:49:57Z</time>
      </trkpt>
      <trkpt lat="44.79548" lon="7.00124">
        <ele>2479.5</ele>
        <time>2022-02-25T12:49:58Z</time>
      </trkpt>
      <trkpt lat="44.79548" lon="7.00124">
        <ele>2479.5</ele>
        <time>2022-02-25T12:49:59Z</time>
      </trkpt>
      <trkpt lat="44.79548" lon="7.00124">
        <ele>2479.5</ele>
        <time>2022-02-25T12:50:00Z</time>
      </trkpt>
      <trkpt lat="44.79548" lon="7.00124">
        <ele>2479.5</ele>
        <time>2022-02-25T12:50:01Z</time>
      </trkpt>
      <trkpt lat="44.79546" lon="7.00125">
        <ele>2480</ele>
        <time>2022-02-25T12:50:02Z</time>
      </trkpt>
      <trkpt lat="44.79546" lon="7.00125">
        <ele>2480</ele>
        <time>2022-02-25T12:50:03Z</time>
      </trkpt>
      <trkpt lat="44.79546" lon="7.00125">
        <ele>2480</ele>
        <time>2022-02-25T12:50:04Z</time>
      </trkpt>
      <trkpt lat="44.79546" lon="7.00125">
        <ele>2480</ele>
        <time>2022-02-25T12:50:05Z</time>
      </trkpt>
      <trkpt lat="44.79544" lon="7.00126">
        <ele>2480.6</ele>
        <time>2022-02-25T12:50:06Z</time>
      </trkpt>
      <trkpt lat="44.79544" lon="7.00126">
        <ele>2480.6</ele>
        <time>2022-02-25T12:50:07Z</time>
      </trkpt>
      <trkpt lat="44.79544" lon="7.00126">
        <ele>2480.6</ele>
        <time>2022-02-25T12:50:08Z</time>
      </trkpt>
      <trkpt lat="44.79544" lon="7.00126">
        <ele>2480.6</ele>
        <time>2022-02-25T12:50:09Z</time>
      </trkpt>
      <trkpt lat="44.79544" lon="7.00126">
        <ele>2480.6</ele>
        <time>2022-02-25T12:50:10Z</time>
      </trkpt>
      <trkpt lat="44.79542" lon="7.00127">
        <ele>2481.1</ele>
        <time>2022-02-25T12:50:11Z</time>
      </trkpt>
      <trkpt lat="44.79542" lon="7.00127">
        <ele>2481.1</ele>
        <time>2022-02-25T12:50:12Z</time>
      </trkpt>
      <trkpt lat="44.79542" lon="7.00127">
        <ele>2481.1</ele>
        <time>2022-02-25T12:50:13Z</time>
      </trkpt>
      <trkpt lat="44.79542" lon="7.00127">
        <ele>2481.1</ele>
        <time>2022-02-25T12:50:14Z</time>
      </trkpt>
      <trkpt lat="44.79541" lon="7.00129">
        <ele>2481.6</ele>
        <time>2022-02-25T12:50:15Z</time>
      </trkpt>
      <trkpt lat="44.79541" lon="7.00129">
        <ele>2481.6</ele>
        <time>2022-02-25T12:50:16Z</time>
      </trkpt>
      <trkpt lat="44.79541" lon="7.00129">
        <ele>2481.6</ele>
        <time>2022-02-25T12:50:17Z</time>
      </trkpt>
      <trkpt lat="44.79541" lon="7.00129">
        <ele>2481.6</ele>
        <time>2022-02-25T12:50:18Z</time>
      </trkpt>
      <trkpt lat="44.79541" lon="7.00129">
        <ele>2481.6</ele>
        <time>2022-02-25T12:50:19Z</time>
      </trkpt>
      <trkpt lat="44.79539" lon="7.00131">
        <ele>2482.3</ele>
        <time>2022-02-25T12:50:20Z</time>
      </trkpt>
      <trkpt lat="44.79539" lon="7.00131">
        <ele>2482.3</ele>
        <time>2022-02-25T12:50:21Z</time>
      </trkpt>
      <trkpt lat="44.79539" lon="7.00131">
        <ele>2482.3</ele>
        <time>2022-02-25T12:50:22Z</time>
      </trkpt>
      <trkpt lat="44.79539" lon="7.00131">
        <ele>2482.3</ele>
        <time>2022-02-25T12:50:23Z</time>
      </trkpt>
      <trkpt lat="44.79538" lon="7.00132">
        <ele>2482.6</ele>
        <time>2022-02-25T12:50:24Z</time>
      </trkpt>
      <trkpt lat="44.79538" lon="7.00132">
        <ele>2482.6</ele>
        <time>2022-02-25T12:50:25Z</time>
      </trkpt>
      <trkpt lat="44.79538" lon="7.00132">
        <ele>2482.6</ele>
        <time>2022-02-25T12:50:26Z</time>
      </trkpt>
      <trkpt lat="44.79538" lon="7.00132">
        <ele>2482.6</ele>
        <time>2022-02-25T12:50:27Z</time>
      </trkpt>
      <trkpt lat="44.79536" lon="7.00134">
        <ele>2483.3</ele>
        <time>2022-02-25T12:50:28Z</time>
      </trkpt>
      <trkpt lat="44.79536" lon="7.00134">
        <ele>2483.3</ele>
        <time>2022-02-25T12:50:29Z</time>
      </trkpt>
      <trkpt lat="44.79536" lon="7.00134">
        <ele>2483.3</ele>
        <time>2022-02-25T12:50:30Z</time>
      </trkpt>
      <trkpt lat="44.79536" lon="7.00134">
        <ele>2483.3</ele>
        <time>2022-02-25T12:50:31Z</time>
      </trkpt>
      <trkpt lat="44.79534" lon="7.00136">
        <ele>2483.8</ele>
        <time>2022-02-25T12:50:32Z</time>
      </trkpt>
      <trkpt lat="44.79534" lon="7.00136">
        <ele>2483.8</ele>
        <time>2022-02-25T12:50:33Z</time>
      </trkpt>
      <trkpt lat="44.79534" lon="7.00136">
        <ele>2483.8</ele>
        <time>2022-02-25T12:50:34Z</time>
      </trkpt>
      <trkpt lat="44.79534" lon="7.00136">
        <ele>2483.8</ele>
        <time>2022-02-25T12:50:35Z</time>
      </trkpt>
      <trkpt lat="44.79534" lon="7.00136">
        <ele>2483.8</ele>
        <time>2022-02-25T12:50:36Z</time>
      </trkpt>
      <trkpt lat="44.79533" lon="7.00138">
        <ele>2484.3</ele>
        <time>2022-02-25T12:50:37Z</time>
      </trkpt>
      <trkpt lat="44.79533" lon="7.00138">
        <ele>2484.3</ele>
        <time>2022-02-25T12:50:38Z</time>
      </trkpt>
      <trkpt lat="44.79533" lon="7.00138">
        <ele>2484.3</ele>
        <time>2022-02-25T12:50:39Z</time>
      </trkpt>
      <trkpt lat="44.79533" lon="7.00138">
        <ele>2484.3</ele>
        <time>2022-02-25T12:50:40Z</time>
      </trkpt>
      <trkpt lat="44.79532" lon="7.0014">
        <ele>2484.8</ele>
        <time>2022-02-25T12:50:41Z</time>
      </trkpt>
      <trkpt lat="44.79532" lon="7.0014">
        <ele>2484.8</ele>
        <time>2022-02-25T12:50:42Z</time>
      </trkpt>
      <trkpt lat="44.79532" lon="7.0014">
        <ele>2484.8</ele>
        <time>2022-02-25T12:50:43Z</time>
      </trkpt>
      <trkpt lat="44.79532" lon="7.0014">
        <ele>2484.8</ele>
        <time>2022-02-25T12:50:44Z</time>
      </trkpt>
      <trkpt lat="44.7953" lon="7.00143">
        <ele>2485.5</ele>
        <time>2022-02-25T12:50:45Z</time>
      </trkpt>
      <trkpt lat="44.7953" lon="7.00143">
        <ele>2485.5</ele>
        <time>2022-02-25T12:50:46Z</time>
      </trkpt>
      <trkpt lat="44.7953" lon="7.00143">
        <ele>2485.5</ele>
        <time>2022-02-25T12:50:47Z</time>
      </trkpt>
      <trkpt lat="44.7953" lon="7.00143">
        <ele>2485.5</ele>
        <time>2022-02-25T12:50:48Z</time>
      </trkpt>
      <trkpt lat="44.7953" lon="7.00143">
        <ele>2485.5</ele>
        <time>2022-02-25T12:50:49Z</time>
      </trkpt>
      <trkpt lat="44.79529" lon="7.00145">
        <ele>2486</ele>
        <time>2022-02-25T12:50:50Z</time>
      </trkpt>
      <trkpt lat="44.79529" lon="7.00145">
        <ele>2486</ele>
        <time>2022-02-25T12:50:51Z</time>
      </trkpt>
      <trkpt lat="44.79529" lon="7.00145">
        <ele>2486</ele>
        <time>2022-02-25T12:50:52Z</time>
      </trkpt>
      <trkpt lat="44.79529" lon="7.00145">
        <ele>2486</ele>
        <time>2022-02-25T12:50:53Z</time>
      </trkpt>
      <trkpt lat="44.79527" lon="7.00147">
        <ele>2486.6</ele>
        <time>2022-02-25T12:50:54Z</time>
      </trkpt>
      <trkpt lat="44.79527" lon="7.00147">
        <ele>2486.6</ele>
        <time>2022-02-25T12:50:55Z</time>
      </trkpt>
      <trkpt lat="44.79527" lon="7.00147">
        <ele>2486.6</ele>
        <time>2022-02-25T12:50:56Z</time>
      </trkpt>
      <trkpt lat="44.79526" lon="7.00148">
        <ele>2486.9</ele>
        <time>2022-02-25T12:50:57Z</time>
      </trkpt>
      <trkpt lat="44.79526" lon="7.00148">
        <ele>2486.9</ele>
        <time>2022-02-25T12:50:58Z</time>
      </trkpt>
      <trkpt lat="44.79526" lon="7.00148">
        <ele>2486.9</ele>
        <time>2022-02-25T12:50:59Z</time>
      </trkpt>
      <trkpt lat="44.79526" lon="7.00148">
        <ele>2486.9</ele>
        <time>2022-02-25T12:51:00Z</time>
      </trkpt>
      <trkpt lat="44.79526" lon="7.00148">
        <ele>2486.9</ele>
        <time>2022-02-25T12:51:01Z</time>
      </trkpt>
      <trkpt lat="44.79525" lon="7.00151">
        <ele>2487.5</ele>
        <time>2022-02-25T12:51:02Z</time>
      </trkpt>
      <trkpt lat="44.79525" lon="7.00151">
        <ele>2487.5</ele>
        <time>2022-02-25T12:51:03Z</time>
      </trkpt>
      <trkpt lat="44.79525" lon="7.00151">
        <ele>2487.5</ele>
        <time>2022-02-25T12:51:04Z</time>
      </trkpt>
      <trkpt lat="44.79524" lon="7.00154">
        <ele>2488.1</ele>
        <time>2022-02-25T12:51:05Z</time>
      </trkpt>
      <trkpt lat="44.79524" lon="7.00154">
        <ele>2488.1</ele>
        <time>2022-02-25T12:51:06Z</time>
      </trkpt>
      <trkpt lat="44.79524" lon="7.00154">
        <ele>2488.1</ele>
        <time>2022-02-25T12:51:07Z</time>
      </trkpt>
      <trkpt lat="44.79524" lon="7.00154">
        <ele>2488.1</ele>
        <time>2022-02-25T12:51:08Z</time>
      </trkpt>
      <trkpt lat="44.79524" lon="7.00154">
        <ele>2488.1</ele>
        <time>2022-02-25T12:51:09Z</time>
      </trkpt>
      <trkpt lat="44.79523" lon="7.00157">
        <ele>2488.7</ele>
        <time>2022-02-25T12:51:10Z</time>
      </trkpt>
      <trkpt lat="44.79523" lon="7.00157">
        <ele>2488.7</ele>
        <time>2022-02-25T12:51:11Z</time>
      </trkpt>
      <trkpt lat="44.79523" lon="7.00157">
        <ele>2488.7</ele>
        <time>2022-02-25T12:51:12Z</time>
      </trkpt>
      <trkpt lat="44.79523" lon="7.00157">
        <ele>2488.7</ele>
        <time>2022-02-25T12:51:13Z</time>
      </trkpt>
      <trkpt lat="44.79522" lon="7.00159">
        <ele>2489.2</ele>
        <time>2022-02-25T12:51:14Z</time>
      </trkpt>
      <trkpt lat="44.79522" lon="7.00159">
        <ele>2489.2</ele>
        <time>2022-02-25T12:51:15Z</time>
      </trkpt>
      <trkpt lat="44.79522" lon="7.00159">
        <ele>2489.2</ele>
        <time>2022-02-25T12:51:16Z</time>
      </trkpt>
      <trkpt lat="44.79522" lon="7.00159">
        <ele>2489.2</ele>
        <time>2022-02-25T12:51:17Z</time>
      </trkpt>
      <trkpt lat="44.79522" lon="7.00159">
        <ele>2489.2</ele>
        <time>2022-02-25T12:51:18Z</time>
      </trkpt>
      <trkpt lat="44.79521" lon="7.00162">
        <ele>2489.7</ele>
        <time>2022-02-25T12:51:19Z</time>
      </trkpt>
      <trkpt lat="44.79521" lon="7.00162">
        <ele>2489.7</ele>
        <time>2022-02-25T12:51:20Z</time>
      </trkpt>
      <trkpt lat="44.79521" lon="7.00162">
        <ele>2489.7</ele>
        <time>2022-02-25T12:51:21Z</time>
      </trkpt>
      <trkpt lat="44.79521" lon="7.00162">
        <ele>2489.7</ele>
        <time>2022-02-25T12:51:22Z</time>
      </trkpt>
      <trkpt lat="44.7952" lon="7.00164">
        <ele>2490.1</ele>
        <time>2022-02-25T12:51:23Z</time>
      </trkpt>
      <trkpt lat="44.7952" lon="7.00164">
        <ele>2490.1</ele>
        <time>2022-02-25T12:51:24Z</time>
      </trkpt>
      <trkpt lat="44.7952" lon="7.00164">
        <ele>2490.1</ele>
        <time>2022-02-25T12:51:25Z</time>
      </trkpt>
      <trkpt lat="44.7952" lon="7.00164">
        <ele>2490.1</ele>
        <time>2022-02-25T12:51:26Z</time>
      </trkpt>
      <trkpt lat="44.7952" lon="7.00164">
        <ele>2490.1</ele>
        <time>2022-02-25T12:51:27Z</time>
      </trkpt>
      <trkpt lat="44.7952" lon="7.00167">
        <ele>2490.6</ele>
        <time>2022-02-25T12:51:28Z</time>
      </trkpt>
      <trkpt lat="44.7952" lon="7.00167">
        <ele>2490.6</ele>
        <time>2022-02-25T12:51:29Z</time>
      </trkpt>
      <trkpt lat="44.7952" lon="7.00167">
        <ele>2490.6</ele>
        <time>2022-02-25T12:51:30Z</time>
      </trkpt>
      <trkpt lat="44.7952" lon="7.00167">
        <ele>2490.6</ele>
        <time>2022-02-25T12:51:31Z</time>
      </trkpt>
      <trkpt lat="44.79518" lon="7.00169">
        <ele>2491.1</ele>
        <time>2022-02-25T12:51:32Z</time>
      </trkpt>
      <trkpt lat="44.79518" lon="7.00169">
        <ele>2491.1</ele>
        <time>2022-02-25T12:51:33Z</time>
      </trkpt>
      <trkpt lat="44.79518" lon="7.00169">
        <ele>2491.1</ele>
        <time>2022-02-25T12:51:34Z</time>
      </trkpt>
      <trkpt lat="44.79518" lon="7.00169">
        <ele>2491.1</ele>
        <time>2022-02-25T12:51:35Z</time>
      </trkpt>
      <trkpt lat="44.79518" lon="7.00172">
        <ele>2491.6</ele>
        <time>2022-02-25T12:51:36Z</time>
      </trkpt>
      <trkpt lat="44.79518" lon="7.00172">
        <ele>2491.6</ele>
        <time>2022-02-25T12:51:37Z</time>
      </trkpt>
      <trkpt lat="44.79518" lon="7.00172">
        <ele>2491.6</ele>
        <time>2022-02-25T12:51:38Z</time>
      </trkpt>
      <trkpt lat="44.79518" lon="7.00172">
        <ele>2491.6</ele>
        <time>2022-02-25T12:51:39Z</time>
      </trkpt>
      <trkpt lat="44.79517" lon="7.00174">
        <ele>2492</ele>
        <time>2022-02-25T12:51:40Z</time>
      </trkpt>
      <trkpt lat="44.79517" lon="7.00174">
        <ele>2492</ele>
        <time>2022-02-25T12:51:41Z</time>
      </trkpt>
      <trkpt lat="44.79517" lon="7.00174">
        <ele>2492</ele>
        <time>2022-02-25T12:51:42Z</time>
      </trkpt>
      <trkpt lat="44.79516" lon="7.00176">
        <ele>2492.5</ele>
        <time>2022-02-25T12:51:43Z</time>
      </trkpt>
      <trkpt lat="44.79516" lon="7.00176">
        <ele>2492.5</ele>
        <time>2022-02-25T12:51:44Z</time>
      </trkpt>
      <trkpt lat="44.79516" lon="7.00176">
        <ele>2492.5</ele>
        <time>2022-02-25T12:51:45Z</time>
      </trkpt>
      <trkpt lat="44.79516" lon="7.00176">
        <ele>2492.5</ele>
        <time>2022-02-25T12:51:46Z</time>
      </trkpt>
      <trkpt lat="44.79515" lon="7.00179">
        <ele>2493.1</ele>
        <time>2022-02-25T12:51:47Z</time>
      </trkpt>
      <trkpt lat="44.79515" lon="7.00179">
        <ele>2493.1</ele>
        <time>2022-02-25T12:51:48Z</time>
      </trkpt>
      <trkpt lat="44.79515" lon="7.00179">
        <ele>2493.1</ele>
        <time>2022-02-25T12:51:49Z</time>
      </trkpt>
      <trkpt lat="44.79516" lon="7.00181">
        <ele>2493.3</ele>
        <time>2022-02-25T12:51:50Z</time>
      </trkpt>
      <trkpt lat="44.79516" lon="7.00181">
        <ele>2493.3</ele>
        <time>2022-02-25T12:51:51Z</time>
      </trkpt>
      <trkpt lat="44.79516" lon="7.00181">
        <ele>2493.3</ele>
        <time>2022-02-25T12:51:52Z</time>
      </trkpt>
      <trkpt lat="44.79516" lon="7.00181">
        <ele>2493.3</ele>
        <time>2022-02-25T12:51:53Z</time>
      </trkpt>
      <trkpt lat="44.79516" lon="7.00184">
        <ele>2493.9</ele>
        <time>2022-02-25T12:51:54Z</time>
      </trkpt>
      <trkpt lat="44.79516" lon="7.00184">
        <ele>2493.9</ele>
        <time>2022-02-25T12:51:55Z</time>
      </trkpt>
      <trkpt lat="44.79516" lon="7.00184">
        <ele>2493.9</ele>
        <time>2022-02-25T12:51:56Z</time>
      </trkpt>
      <trkpt lat="44.79516" lon="7.00187">
        <ele>2494.4</ele>
        <time>2022-02-25T12:51:57Z</time>
      </trkpt>
      <trkpt lat="44.79516" lon="7.00187">
        <ele>2494.4</ele>
        <time>2022-02-25T12:51:58Z</time>
      </trkpt>
      <trkpt lat="44.79516" lon="7.00187">
        <ele>2494.4</ele>
        <time>2022-02-25T12:51:59Z</time>
      </trkpt>
      <trkpt lat="44.79516" lon="7.00187">
        <ele>2494.4</ele>
        <time>2022-02-25T12:52:00Z</time>
      </trkpt>
      <trkpt lat="44.79515" lon="7.00189">
        <ele>2494.9</ele>
        <time>2022-02-25T12:52:01Z</time>
      </trkpt>
      <trkpt lat="44.79515" lon="7.00189">
        <ele>2494.9</ele>
        <time>2022-02-25T12:52:02Z</time>
      </trkpt>
      <trkpt lat="44.79515" lon="7.00189">
        <ele>2494.9</ele>
        <time>2022-02-25T12:52:03Z</time>
      </trkpt>
      <trkpt lat="44.79515" lon="7.00189">
        <ele>2494.9</ele>
        <time>2022-02-25T12:52:04Z</time>
      </trkpt>
      <trkpt lat="44.79514" lon="7.00192">
        <ele>2495.5</ele>
        <time>2022-02-25T12:52:05Z</time>
      </trkpt>
      <trkpt lat="44.79514" lon="7.00192">
        <ele>2495.5</ele>
        <time>2022-02-25T12:52:06Z</time>
      </trkpt>
      <trkpt lat="44.79514" lon="7.00192">
        <ele>2495.5</ele>
        <time>2022-02-25T12:52:07Z</time>
      </trkpt>
      <trkpt lat="44.79514" lon="7.00192">
        <ele>2495.5</ele>
        <time>2022-02-25T12:52:08Z</time>
      </trkpt>
      <trkpt lat="44.79514" lon="7.00195">
        <ele>2496.1</ele>
        <time>2022-02-25T12:52:09Z</time>
      </trkpt>
      <trkpt lat="44.79514" lon="7.00195">
        <ele>2496.1</ele>
        <time>2022-02-25T12:52:10Z</time>
      </trkpt>
      <trkpt lat="44.79514" lon="7.00195">
        <ele>2496.1</ele>
        <time>2022-02-25T12:52:11Z</time>
      </trkpt>
      <trkpt lat="44.79514" lon="7.00195">
        <ele>2496.1</ele>
        <time>2022-02-25T12:52:12Z</time>
      </trkpt>
      <trkpt lat="44.79514" lon="7.00198">
        <ele>2496.6</ele>
        <time>2022-02-25T12:52:13Z</time>
      </trkpt>
      <trkpt lat="44.79514" lon="7.00198">
        <ele>2496.6</ele>
        <time>2022-02-25T12:52:14Z</time>
      </trkpt>
      <trkpt lat="44.79514" lon="7.00198">
        <ele>2496.6</ele>
        <time>2022-02-25T12:52:15Z</time>
      </trkpt>
      <trkpt lat="44.79514" lon="7.00198">
        <ele>2496.6</ele>
        <time>2022-02-25T12:52:16Z</time>
      </trkpt>
      <trkpt lat="44.79514" lon="7.002">
        <ele>2496.9</ele>
        <time>2022-02-25T12:52:17Z</time>
      </trkpt>
      <trkpt lat="44.79514" lon="7.002">
        <ele>2496.9</ele>
        <time>2022-02-25T12:52:18Z</time>
      </trkpt>
      <trkpt lat="44.79514" lon="7.002">
        <ele>2496.9</ele>
        <time>2022-02-25T12:52:19Z</time>
      </trkpt>
      <trkpt lat="44.79514" lon="7.002">
        <ele>2496.9</ele>
        <time>2022-02-25T12:52:20Z</time>
      </trkpt>
      <trkpt lat="44.79514" lon="7.00203">
        <ele>2497.4</ele>
        <time>2022-02-25T12:52:21Z</time>
      </trkpt>
      <trkpt lat="44.79514" lon="7.00203">
        <ele>2497.4</ele>
        <time>2022-02-25T12:52:22Z</time>
      </trkpt>
      <trkpt lat="44.79514" lon="7.00203">
        <ele>2497.4</ele>
        <time>2022-02-25T12:52:23Z</time>
      </trkpt>
      <trkpt lat="44.79514" lon="7.00203">
        <ele>2497.4</ele>
        <time>2022-02-25T12:52:24Z</time>
      </trkpt>
      <trkpt lat="44.79513" lon="7.00206">
        <ele>2498</ele>
        <time>2022-02-25T12:52:25Z</time>
      </trkpt>
      <trkpt lat="44.79513" lon="7.00206">
        <ele>2498</ele>
        <time>2022-02-25T12:52:26Z</time>
      </trkpt>
      <trkpt lat="44.79513" lon="7.00206">
        <ele>2498</ele>
        <time>2022-02-25T12:52:27Z</time>
      </trkpt>
      <trkpt lat="44.79513" lon="7.00206">
        <ele>2498</ele>
        <time>2022-02-25T12:52:28Z</time>
      </trkpt>
      <trkpt lat="44.79512" lon="7.00208">
        <ele>2498.4</ele>
        <time>2022-02-25T12:52:29Z</time>
      </trkpt>
      <trkpt lat="44.79512" lon="7.00208">
        <ele>2498.4</ele>
        <time>2022-02-25T12:52:30Z</time>
      </trkpt>
      <trkpt lat="44.79512" lon="7.00208">
        <ele>2498.4</ele>
        <time>2022-02-25T12:52:31Z</time>
      </trkpt>
      <trkpt lat="44.79512" lon="7.00208">
        <ele>2498.4</ele>
        <time>2022-02-25T12:52:32Z</time>
      </trkpt>
      <trkpt lat="44.79511" lon="7.00211">
        <ele>2499</ele>
        <time>2022-02-25T12:52:33Z</time>
      </trkpt>
      <trkpt lat="44.79511" lon="7.00211">
        <ele>2499</ele>
        <time>2022-02-25T12:52:34Z</time>
      </trkpt>
      <trkpt lat="44.79511" lon="7.00211">
        <ele>2499</ele>
        <time>2022-02-25T12:52:35Z</time>
      </trkpt>
      <trkpt lat="44.79511" lon="7.00211">
        <ele>2499</ele>
        <time>2022-02-25T12:52:36Z</time>
      </trkpt>
      <trkpt lat="44.79512" lon="7.00214">
        <ele>2499.4</ele>
        <time>2022-02-25T12:52:37Z</time>
      </trkpt>
      <trkpt lat="44.79512" lon="7.00214">
        <ele>2499.4</ele>
        <time>2022-02-25T12:52:38Z</time>
      </trkpt>
      <trkpt lat="44.79512" lon="7.00214">
        <ele>2499.4</ele>
        <time>2022-02-25T12:52:39Z</time>
      </trkpt>
      <trkpt lat="44.79512" lon="7.00214">
        <ele>2499.4</ele>
        <time>2022-02-25T12:52:40Z</time>
      </trkpt>
      <trkpt lat="44.79512" lon="7.00214">
        <ele>2499.4</ele>
        <time>2022-02-25T12:52:41Z</time>
      </trkpt>
      <trkpt lat="44.79511" lon="7.00217">
        <ele>2500</ele>
        <time>2022-02-25T12:52:42Z</time>
      </trkpt>
      <trkpt lat="44.79511" lon="7.00217">
        <ele>2500</ele>
        <time>2022-02-25T12:52:43Z</time>
      </trkpt>
      <trkpt lat="44.79511" lon="7.00217">
        <ele>2500</ele>
        <time>2022-02-25T12:52:44Z</time>
      </trkpt>
      <trkpt lat="44.79511" lon="7.00217">
        <ele>2500</ele>
        <time>2022-02-25T12:52:45Z</time>
      </trkpt>
      <trkpt lat="44.7951" lon="7.00219">
        <ele>2500.4</ele>
        <time>2022-02-25T12:52:46Z</time>
      </trkpt>
      <trkpt lat="44.7951" lon="7.00219">
        <ele>2500.4</ele>
        <time>2022-02-25T12:52:47Z</time>
      </trkpt>
      <trkpt lat="44.7951" lon="7.00219">
        <ele>2500.4</ele>
        <time>2022-02-25T12:52:48Z</time>
      </trkpt>
      <trkpt lat="44.7951" lon="7.00219">
        <ele>2500.4</ele>
        <time>2022-02-25T12:52:49Z</time>
      </trkpt>
      <trkpt lat="44.79511" lon="7.00222">
        <ele>2500.8</ele>
        <time>2022-02-25T12:52:50Z</time>
      </trkpt>
      <trkpt lat="44.79511" lon="7.00222">
        <ele>2500.8</ele>
        <time>2022-02-25T12:52:51Z</time>
      </trkpt>
      <trkpt lat="44.79511" lon="7.00222">
        <ele>2500.8</ele>
        <time>2022-02-25T12:52:52Z</time>
      </trkpt>
      <trkpt lat="44.79511" lon="7.00222">
        <ele>2500.8</ele>
        <time>2022-02-25T12:52:53Z</time>
      </trkpt>
      <trkpt lat="44.79511" lon="7.00222">
        <ele>2500.8</ele>
        <time>2022-02-25T12:52:54Z</time>
      </trkpt>
      <trkpt lat="44.79511" lon="7.00222">
        <ele>2500.8</ele>
        <time>2022-02-25T12:52:55Z</time>
      </trkpt>
      <trkpt lat="44.79512" lon="7.00225">
        <ele>2501.2</ele>
        <time>2022-02-25T12:52:56Z</time>
      </trkpt>
      <trkpt lat="44.79512" lon="7.00225">
        <ele>2501.2</ele>
        <time>2022-02-25T12:52:57Z</time>
      </trkpt>
      <trkpt lat="44.79512" lon="7.00225">
        <ele>2501.2</ele>
        <time>2022-02-25T12:52:58Z</time>
      </trkpt>
      <trkpt lat="44.79513" lon="7.00227">
        <ele>2501.5</ele>
        <time>2022-02-25T12:52:59Z</time>
      </trkpt>
      <trkpt lat="44.79513" lon="7.00227">
        <ele>2501.5</ele>
        <time>2022-02-25T12:53:00Z</time>
      </trkpt>
      <trkpt lat="44.79513" lon="7.00227">
        <ele>2501.5</ele>
        <time>2022-02-25T12:53:01Z</time>
      </trkpt>
      <trkpt lat="44.79513" lon="7.00227">
        <ele>2501.5</ele>
        <time>2022-02-25T12:53:02Z</time>
      </trkpt>
      <trkpt lat="44.79512" lon="7.0023">
        <ele>2502.2</ele>
        <time>2022-02-25T12:53:03Z</time>
      </trkpt>
      <trkpt lat="44.79512" lon="7.0023">
        <ele>2502.2</ele>
        <time>2022-02-25T12:53:04Z</time>
      </trkpt>
      <trkpt lat="44.79512" lon="7.0023">
        <ele>2502.2</ele>
        <time>2022-02-25T12:53:05Z</time>
      </trkpt>
      <trkpt lat="44.79512" lon="7.0023">
        <ele>2502.2</ele>
        <time>2022-02-25T12:53:06Z</time>
      </trkpt>
      <trkpt lat="44.79511" lon="7.00233">
        <ele>2502.9</ele>
        <time>2022-02-25T12:53:07Z</time>
      </trkpt>
      <trkpt lat="44.79511" lon="7.00233">
        <ele>2502.9</ele>
        <time>2022-02-25T12:53:08Z</time>
      </trkpt>
      <trkpt lat="44.79511" lon="7.00233">
        <ele>2502.9</ele>
        <time>2022-02-25T12:53:09Z</time>
      </trkpt>
      <trkpt lat="44.79511" lon="7.00233">
        <ele>2502.9</ele>
        <time>2022-02-25T12:53:10Z</time>
      </trkpt>
      <trkpt lat="44.7951" lon="7.00236">
        <ele>2503.6</ele>
        <time>2022-02-25T12:53:11Z</time>
      </trkpt>
      <trkpt lat="44.7951" lon="7.00236">
        <ele>2503.6</ele>
        <time>2022-02-25T12:53:12Z</time>
      </trkpt>
      <trkpt lat="44.7951" lon="7.00236">
        <ele>2503.6</ele>
        <time>2022-02-25T12:53:13Z</time>
      </trkpt>
      <trkpt lat="44.7951" lon="7.00236">
        <ele>2503.6</ele>
        <time>2022-02-25T12:53:14Z</time>
      </trkpt>
      <trkpt lat="44.79509" lon="7.00238">
        <ele>2504.1</ele>
        <time>2022-02-25T12:53:15Z</time>
      </trkpt>
      <trkpt lat="44.79509" lon="7.00238">
        <ele>2504.1</ele>
        <time>2022-02-25T12:53:16Z</time>
      </trkpt>
      <trkpt lat="44.79509" lon="7.00238">
        <ele>2504.1</ele>
        <time>2022-02-25T12:53:17Z</time>
      </trkpt>
      <trkpt lat="44.79508" lon="7.00241">
        <ele>2504.7</ele>
        <time>2022-02-25T12:53:18Z</time>
      </trkpt>
      <trkpt lat="44.79508" lon="7.00241">
        <ele>2504.7</ele>
        <time>2022-02-25T12:53:19Z</time>
      </trkpt>
      <trkpt lat="44.79508" lon="7.00241">
        <ele>2504.7</ele>
        <time>2022-02-25T12:53:20Z</time>
      </trkpt>
      <trkpt lat="44.79508" lon="7.00241">
        <ele>2504.7</ele>
        <time>2022-02-25T12:53:21Z</time>
      </trkpt>
      <trkpt lat="44.79508" lon="7.00241">
        <ele>2504.7</ele>
        <time>2022-02-25T12:53:22Z</time>
      </trkpt>
      <trkpt lat="44.79507" lon="7.00243">
        <ele>2505.2</ele>
        <time>2022-02-25T12:53:23Z</time>
      </trkpt>
      <trkpt lat="44.79507" lon="7.00243">
        <ele>2505.2</ele>
        <time>2022-02-25T12:53:24Z</time>
      </trkpt>
      <trkpt lat="44.79507" lon="7.00243">
        <ele>2505.2</ele>
        <time>2022-02-25T12:53:25Z</time>
      </trkpt>
      <trkpt lat="44.79507" lon="7.00243">
        <ele>2505.2</ele>
        <time>2022-02-25T12:53:26Z</time>
      </trkpt>
      <trkpt lat="44.79506" lon="7.00245">
        <ele>2505.6</ele>
        <time>2022-02-25T12:53:27Z</time>
      </trkpt>
      <trkpt lat="44.79506" lon="7.00245">
        <ele>2505.6</ele>
        <time>2022-02-25T12:53:28Z</time>
      </trkpt>
      <trkpt lat="44.79506" lon="7.00245">
        <ele>2505.6</ele>
        <time>2022-02-25T12:53:29Z</time>
      </trkpt>
      <trkpt lat="44.79506" lon="7.00245">
        <ele>2505.6</ele>
        <time>2022-02-25T12:53:30Z</time>
      </trkpt>
      <trkpt lat="44.79505" lon="7.00247">
        <ele>2506.1</ele>
        <time>2022-02-25T12:53:31Z</time>
      </trkpt>
      <trkpt lat="44.79505" lon="7.00247">
        <ele>2506.1</ele>
        <time>2022-02-25T12:53:32Z</time>
      </trkpt>
      <trkpt lat="44.79505" lon="7.00247">
        <ele>2506.1</ele>
        <time>2022-02-25T12:53:33Z</time>
      </trkpt>
      <trkpt lat="44.79505" lon="7.00247">
        <ele>2506.1</ele>
        <time>2022-02-25T12:53:34Z</time>
      </trkpt>
      <trkpt lat="44.79505" lon="7.00247">
        <ele>2506.1</ele>
        <time>2022-02-25T12:53:35Z</time>
      </trkpt>
      <trkpt lat="44.79503" lon="7.00249">
        <ele>2506.6</ele>
        <time>2022-02-25T12:53:36Z</time>
      </trkpt>
      <trkpt lat="44.79503" lon="7.00249">
        <ele>2506.6</ele>
        <time>2022-02-25T12:53:37Z</time>
      </trkpt>
      <trkpt lat="44.79503" lon="7.00249">
        <ele>2506.6</ele>
        <time>2022-02-25T12:53:38Z</time>
      </trkpt>
      <trkpt lat="44.79503" lon="7.00249">
        <ele>2506.6</ele>
        <time>2022-02-25T12:53:39Z</time>
      </trkpt>
      <trkpt lat="44.79501" lon="7.00251">
        <ele>2507.1</ele>
        <time>2022-02-25T12:53:40Z</time>
      </trkpt>
      <trkpt lat="44.79501" lon="7.00251">
        <ele>2507.1</ele>
        <time>2022-02-25T12:53:41Z</time>
      </trkpt>
      <trkpt lat="44.79501" lon="7.00251">
        <ele>2507.1</ele>
        <time>2022-02-25T12:53:42Z</time>
      </trkpt>
      <trkpt lat="44.795" lon="7.00252">
        <ele>2507.4</ele>
        <time>2022-02-25T12:53:43Z</time>
      </trkpt>
      <trkpt lat="44.795" lon="7.00252">
        <ele>2507.4</ele>
        <time>2022-02-25T12:53:44Z</time>
      </trkpt>
      <trkpt lat="44.795" lon="7.00252">
        <ele>2507.4</ele>
        <time>2022-02-25T12:53:45Z</time>
      </trkpt>
      <trkpt lat="44.795" lon="7.00252">
        <ele>2507.4</ele>
        <time>2022-02-25T12:53:46Z</time>
      </trkpt>
      <trkpt lat="44.79498" lon="7.00254">
        <ele>2508</ele>
        <time>2022-02-25T12:53:47Z</time>
      </trkpt>
      <trkpt lat="44.79498" lon="7.00254">
        <ele>2508</ele>
        <time>2022-02-25T12:53:48Z</time>
      </trkpt>
      <trkpt lat="44.79498" lon="7.00254">
        <ele>2508</ele>
        <time>2022-02-25T12:53:49Z</time>
      </trkpt>
      <trkpt lat="44.79498" lon="7.00254">
        <ele>2508</ele>
        <time>2022-02-25T12:53:50Z</time>
      </trkpt>
      <trkpt lat="44.79498" lon="7.00254">
        <ele>2508</ele>
        <time>2022-02-25T12:53:51Z</time>
      </trkpt>
      <trkpt lat="44.79498" lon="7.00254">
        <ele>2508</ele>
        <time>2022-02-25T12:53:52Z</time>
      </trkpt>
      <trkpt lat="44.79497" lon="7.00257">
        <ele>2508.6</ele>
        <time>2022-02-25T12:53:53Z</time>
      </trkpt>
      <trkpt lat="44.79497" lon="7.00257">
        <ele>2508.6</ele>
        <time>2022-02-25T12:53:54Z</time>
      </trkpt>
      <trkpt lat="44.79497" lon="7.00257">
        <ele>2508.6</ele>
        <time>2022-02-25T12:53:55Z</time>
      </trkpt>
      <trkpt lat="44.79497" lon="7.00257">
        <ele>2508.6</ele>
        <time>2022-02-25T12:53:56Z</time>
      </trkpt>
      <trkpt lat="44.79496" lon="7.00259">
        <ele>2509.1</ele>
        <time>2022-02-25T12:53:57Z</time>
      </trkpt>
      <trkpt lat="44.79496" lon="7.00259">
        <ele>2509.1</ele>
        <time>2022-02-25T12:53:58Z</time>
      </trkpt>
      <trkpt lat="44.79496" lon="7.00259">
        <ele>2509.1</ele>
        <time>2022-02-25T12:53:59Z</time>
      </trkpt>
      <trkpt lat="44.79494" lon="7.0026">
        <ele>2509.4</ele>
        <time>2022-02-25T12:54:00Z</time>
      </trkpt>
      <trkpt lat="44.79494" lon="7.0026">
        <ele>2509.4</ele>
        <time>2022-02-25T12:54:01Z</time>
      </trkpt>
      <trkpt lat="44.79494" lon="7.0026">
        <ele>2509.4</ele>
        <time>2022-02-25T12:54:02Z</time>
      </trkpt>
      <trkpt lat="44.79494" lon="7.0026">
        <ele>2509.4</ele>
        <time>2022-02-25T12:54:03Z</time>
      </trkpt>
      <trkpt lat="44.79493" lon="7.00261">
        <ele>2509.6</ele>
        <time>2022-02-25T12:54:04Z</time>
      </trkpt>
      <trkpt lat="44.79493" lon="7.00261">
        <ele>2509.6</ele>
        <time>2022-02-25T12:54:05Z</time>
      </trkpt>
      <trkpt lat="44.79493" lon="7.00261">
        <ele>2509.6</ele>
        <time>2022-02-25T12:54:06Z</time>
      </trkpt>
      <trkpt lat="44.79493" lon="7.00261">
        <ele>2509.6</ele>
        <time>2022-02-25T12:54:07Z</time>
      </trkpt>
      <trkpt lat="44.79491" lon="7.00263">
        <ele>2510</ele>
        <time>2022-02-25T12:54:08Z</time>
      </trkpt>
      <trkpt lat="44.79491" lon="7.00263">
        <ele>2510</ele>
        <time>2022-02-25T12:54:09Z</time>
      </trkpt>
      <trkpt lat="44.79491" lon="7.00263">
        <ele>2510</ele>
        <time>2022-02-25T12:54:10Z</time>
      </trkpt>
      <trkpt lat="44.79491" lon="7.00263">
        <ele>2510</ele>
        <time>2022-02-25T12:54:11Z</time>
      </trkpt>
      <trkpt lat="44.7949" lon="7.00266">
        <ele>2510.6</ele>
        <time>2022-02-25T12:54:12Z</time>
      </trkpt>
      <trkpt lat="44.7949" lon="7.00266">
        <ele>2510.6</ele>
        <time>2022-02-25T12:54:13Z</time>
      </trkpt>
      <trkpt lat="44.7949" lon="7.00266">
        <ele>2510.6</ele>
        <time>2022-02-25T12:54:14Z</time>
      </trkpt>
      <trkpt lat="44.7949" lon="7.00266">
        <ele>2510.6</ele>
        <time>2022-02-25T12:54:15Z</time>
      </trkpt>
      <trkpt lat="44.79487" lon="7.00267">
        <ele>2510.7</ele>
        <time>2022-02-25T12:54:16Z</time>
      </trkpt>
      <trkpt lat="44.79487" lon="7.00267">
        <ele>2510.7</ele>
        <time>2022-02-25T12:54:17Z</time>
      </trkpt>
      <trkpt lat="44.79487" lon="7.00267">
        <ele>2510.7</ele>
        <time>2022-02-25T12:54:18Z</time>
      </trkpt>
      <trkpt lat="44.79487" lon="7.00267">
        <ele>2510.7</ele>
        <time>2022-02-25T12:54:19Z</time>
      </trkpt>
      <trkpt lat="44.79486" lon="7.00269">
        <ele>2511.1</ele>
        <time>2022-02-25T12:54:20Z</time>
      </trkpt>
      <trkpt lat="44.79486" lon="7.00269">
        <ele>2511.1</ele>
        <time>2022-02-25T12:54:21Z</time>
      </trkpt>
      <trkpt lat="44.79486" lon="7.00269">
        <ele>2511.1</ele>
        <time>2022-02-25T12:54:22Z</time>
      </trkpt>
      <trkpt lat="44.79485" lon="7.00271">
        <ele>2511.4</ele>
        <time>2022-02-25T12:54:23Z</time>
      </trkpt>
      <trkpt lat="44.79485" lon="7.00271">
        <ele>2511.4</ele>
        <time>2022-02-25T12:54:24Z</time>
      </trkpt>
      <trkpt lat="44.79485" lon="7.00271">
        <ele>2511.4</ele>
        <time>2022-02-25T12:54:25Z</time>
      </trkpt>
      <trkpt lat="44.79485" lon="7.00271">
        <ele>2511.4</ele>
        <time>2022-02-25T12:54:26Z</time>
      </trkpt>
      <trkpt lat="44.79483" lon="7.00274">
        <ele>2511.8</ele>
        <time>2022-02-25T12:54:27Z</time>
      </trkpt>
      <trkpt lat="44.79483" lon="7.00274">
        <ele>2511.8</ele>
        <time>2022-02-25T12:54:28Z</time>
      </trkpt>
      <trkpt lat="44.79483" lon="7.00274">
        <ele>2511.8</ele>
        <time>2022-02-25T12:54:29Z</time>
      </trkpt>
      <trkpt lat="44.79483" lon="7.00274">
        <ele>2511.8</ele>
        <time>2022-02-25T12:54:30Z</time>
      </trkpt>
      <trkpt lat="44.79482" lon="7.00276">
        <ele>2512.1</ele>
        <time>2022-02-25T12:54:31Z</time>
      </trkpt>
      <trkpt lat="44.79482" lon="7.00276">
        <ele>2512.1</ele>
        <time>2022-02-25T12:54:32Z</time>
      </trkpt>
      <trkpt lat="44.79482" lon="7.00276">
        <ele>2512.1</ele>
        <time>2022-02-25T12:54:33Z</time>
      </trkpt>
      <trkpt lat="44.7948" lon="7.00277">
        <ele>2512.2</ele>
        <time>2022-02-25T12:54:34Z</time>
      </trkpt>
      <trkpt lat="44.7948" lon="7.00277">
        <ele>2512.2</ele>
        <time>2022-02-25T12:54:35Z</time>
      </trkpt>
      <trkpt lat="44.7948" lon="7.00277">
        <ele>2512.2</ele>
        <time>2022-02-25T12:54:36Z</time>
      </trkpt>
      <trkpt lat="44.7948" lon="7.00277">
        <ele>2512.2</ele>
        <time>2022-02-25T12:54:37Z</time>
      </trkpt>
      <trkpt lat="44.79479" lon="7.0028">
        <ele>2513</ele>
        <time>2022-02-25T12:54:38Z</time>
      </trkpt>
      <trkpt lat="44.79479" lon="7.0028">
        <ele>2513</ele>
        <time>2022-02-25T12:54:39Z</time>
      </trkpt>
      <trkpt lat="44.79479" lon="7.0028">
        <ele>2513</ele>
        <time>2022-02-25T12:54:40Z</time>
      </trkpt>
      <trkpt lat="44.79477" lon="7.0028">
        <ele>2513</ele>
        <time>2022-02-25T12:54:41Z</time>
      </trkpt>
      <trkpt lat="44.79477" lon="7.0028">
        <ele>2513</ele>
        <time>2022-02-25T12:54:42Z</time>
      </trkpt>
      <trkpt lat="44.79477" lon="7.0028">
        <ele>2513</ele>
        <time>2022-02-25T12:54:43Z</time>
      </trkpt>
      <trkpt lat="44.79477" lon="7.0028">
        <ele>2513</ele>
        <time>2022-02-25T12:54:44Z</time>
      </trkpt>
      <trkpt lat="44.79475" lon="7.00282">
        <ele>2513.6</ele>
        <time>2022-02-25T12:54:45Z</time>
      </trkpt>
      <trkpt lat="44.79475" lon="7.00282">
        <ele>2513.6</ele>
        <time>2022-02-25T12:54:46Z</time>
      </trkpt>
      <trkpt lat="44.79475" lon="7.00282">
        <ele>2513.6</ele>
        <time>2022-02-25T12:54:47Z</time>
      </trkpt>
      <trkpt lat="44.79473" lon="7.00283">
        <ele>2513.9</ele>
        <time>2022-02-25T12:54:48Z</time>
      </trkpt>
      <trkpt lat="44.79473" lon="7.00283">
        <ele>2513.9</ele>
        <time>2022-02-25T12:54:49Z</time>
      </trkpt>
      <trkpt lat="44.79473" lon="7.00283">
        <ele>2513.9</ele>
        <time>2022-02-25T12:54:50Z</time>
      </trkpt>
      <trkpt lat="44.79471" lon="7.00285">
        <ele>2514.8</ele>
        <time>2022-02-25T12:54:51Z</time>
      </trkpt>
      <trkpt lat="44.79471" lon="7.00285">
        <ele>2514.8</ele>
        <time>2022-02-25T12:54:52Z</time>
      </trkpt>
      <trkpt lat="44.79471" lon="7.00285">
        <ele>2514.8</ele>
        <time>2022-02-25T12:54:53Z</time>
      </trkpt>
      <trkpt lat="44.7947" lon="7.00288">
        <ele>2515.9</ele>
        <time>2022-02-25T12:54:54Z</time>
      </trkpt>
      <trkpt lat="44.7947" lon="7.00288">
        <ele>2515.9</ele>
        <time>2022-02-25T12:54:55Z</time>
      </trkpt>
      <trkpt lat="44.7947" lon="7.00288">
        <ele>2515.9</ele>
        <time>2022-02-25T12:54:56Z</time>
      </trkpt>
      <trkpt lat="44.79468" lon="7.00289">
        <ele>2516.4</ele>
        <time>2022-02-25T12:54:57Z</time>
      </trkpt>
      <trkpt lat="44.79468" lon="7.00289">
        <ele>2516.4</ele>
        <time>2022-02-25T12:54:58Z</time>
      </trkpt>
      <trkpt lat="44.79468" lon="7.00289">
        <ele>2516.4</ele>
        <time>2022-02-25T12:54:59Z</time>
      </trkpt>
      <trkpt lat="44.79467" lon="7.00292">
        <ele>2517.4</ele>
        <time>2022-02-25T12:55:00Z</time>
      </trkpt>
      <trkpt lat="44.79467" lon="7.00292">
        <ele>2517.4</ele>
        <time>2022-02-25T12:55:01Z</time>
      </trkpt>
      <trkpt lat="44.79467" lon="7.00292">
        <ele>2517.4</ele>
        <time>2022-02-25T12:55:02Z</time>
      </trkpt>
      <trkpt lat="44.79467" lon="7.00292">
        <ele>2517.4</ele>
        <time>2022-02-25T12:55:03Z</time>
      </trkpt>
      <trkpt lat="44.79467" lon="7.00292">
        <ele>2517.4</ele>
        <time>2022-02-25T12:55:04Z</time>
      </trkpt>
      <trkpt lat="44.79467" lon="7.00292">
        <ele>2517.4</ele>
        <time>2022-02-25T12:55:05Z</time>
      </trkpt>
      <trkpt lat="44.79467" lon="7.00292">
        <ele>2517.4</ele>
        <time>2022-02-25T12:55:06Z</time>
      </trkpt>
      <trkpt lat="44.79467" lon="7.00292">
        <ele>2517.4</ele>
        <time>2022-02-25T12:55:07Z</time>
      </trkpt>
      <trkpt lat="44.79465" lon="7.00294">
        <ele>2518</ele>
        <time>2022-02-25T12:55:08Z</time>
      </trkpt>
      <trkpt lat="44.79465" lon="7.00294">
        <ele>2518</ele>
        <time>2022-02-25T12:55:09Z</time>
      </trkpt>
      <trkpt lat="44.79465" lon="7.00294">
        <ele>2518</ele>
        <time>2022-02-25T12:55:10Z</time>
      </trkpt>
      <trkpt lat="44.79465" lon="7.00294">
        <ele>2518</ele>
        <time>2022-02-25T12:55:11Z</time>
      </trkpt>
      <trkpt lat="44.79465" lon="7.00297">
        <ele>2518.8</ele>
        <time>2022-02-25T12:55:12Z</time>
      </trkpt>
      <trkpt lat="44.79465" lon="7.00297">
        <ele>2518.8</ele>
        <time>2022-02-25T12:55:13Z</time>
      </trkpt>
      <trkpt lat="44.79465" lon="7.00297">
        <ele>2518.8</ele>
        <time>2022-02-25T12:55:14Z</time>
      </trkpt>
      <trkpt lat="44.79465" lon="7.00297">
        <ele>2518.8</ele>
        <time>2022-02-25T12:55:15Z</time>
      </trkpt>
      <trkpt lat="44.79463" lon="7.003">
        <ele>2519.4</ele>
        <time>2022-02-25T12:55:16Z</time>
      </trkpt>
      <trkpt lat="44.79463" lon="7.003">
        <ele>2519.4</ele>
        <time>2022-02-25T12:55:17Z</time>
      </trkpt>
      <trkpt lat="44.79463" lon="7.003">
        <ele>2519.4</ele>
        <time>2022-02-25T12:55:18Z</time>
      </trkpt>
      <trkpt lat="44.79463" lon="7.003">
        <ele>2519.4</ele>
        <time>2022-02-25T12:55:19Z</time>
      </trkpt>
      <trkpt lat="44.79461" lon="7.00302">
        <ele>2519.7</ele>
        <time>2022-02-25T12:55:20Z</time>
      </trkpt>
      <trkpt lat="44.79461" lon="7.00302">
        <ele>2519.7</ele>
        <time>2022-02-25T12:55:21Z</time>
      </trkpt>
      <trkpt lat="44.79461" lon="7.00302">
        <ele>2519.7</ele>
        <time>2022-02-25T12:55:22Z</time>
      </trkpt>
      <trkpt lat="44.79461" lon="7.00304">
        <ele>2520.1</ele>
        <time>2022-02-25T12:55:23Z</time>
      </trkpt>
      <trkpt lat="44.79461" lon="7.00304">
        <ele>2520.1</ele>
        <time>2022-02-25T12:55:24Z</time>
      </trkpt>
      <trkpt lat="44.79461" lon="7.00304">
        <ele>2520.1</ele>
        <time>2022-02-25T12:55:25Z</time>
      </trkpt>
      <trkpt lat="44.79461" lon="7.00304">
        <ele>2520.1</ele>
        <time>2022-02-25T12:55:26Z</time>
      </trkpt>
      <trkpt lat="44.79459" lon="7.00307">
        <ele>2520.4</ele>
        <time>2022-02-25T12:55:27Z</time>
      </trkpt>
      <trkpt lat="44.79459" lon="7.00307">
        <ele>2520.4</ele>
        <time>2022-02-25T12:55:28Z</time>
      </trkpt>
      <trkpt lat="44.79459" lon="7.00307">
        <ele>2520.4</ele>
        <time>2022-02-25T12:55:29Z</time>
      </trkpt>
      <trkpt lat="44.79459" lon="7.00307">
        <ele>2520.4</ele>
        <time>2022-02-25T12:55:30Z</time>
      </trkpt>
      <trkpt lat="44.79459" lon="7.00307">
        <ele>2520.4</ele>
        <time>2022-02-25T12:55:31Z</time>
      </trkpt>
      <trkpt lat="44.79458" lon="7.00309">
        <ele>2520.7</ele>
        <time>2022-02-25T12:55:32Z</time>
      </trkpt>
      <trkpt lat="44.79458" lon="7.00309">
        <ele>2520.7</ele>
        <time>2022-02-25T12:55:33Z</time>
      </trkpt>
      <trkpt lat="44.79458" lon="7.00309">
        <ele>2520.7</ele>
        <time>2022-02-25T12:55:34Z</time>
      </trkpt>
      <trkpt lat="44.79458" lon="7.00309">
        <ele>2520.7</ele>
        <time>2022-02-25T12:55:35Z</time>
      </trkpt>
      <trkpt lat="44.79458" lon="7.00309">
        <ele>2520.7</ele>
        <time>2022-02-25T12:55:36Z</time>
      </trkpt>
      <trkpt lat="44.79457" lon="7.00312">
        <ele>2521.2</ele>
        <time>2022-02-25T12:55:37Z</time>
      </trkpt>
      <trkpt lat="44.79457" lon="7.00312">
        <ele>2521.2</ele>
        <time>2022-02-25T12:55:38Z</time>
      </trkpt>
      <trkpt lat="44.79457" lon="7.00312">
        <ele>2521.2</ele>
        <time>2022-02-25T12:55:39Z</time>
      </trkpt>
      <trkpt lat="44.79457" lon="7.00312">
        <ele>2521.2</ele>
        <time>2022-02-25T12:55:40Z</time>
      </trkpt>
      <trkpt lat="44.79457" lon="7.00312">
        <ele>2521.2</ele>
        <time>2022-02-25T12:55:41Z</time>
      </trkpt>
      <trkpt lat="44.79457" lon="7.00312">
        <ele>2521.2</ele>
        <time>2022-02-25T12:55:42Z</time>
      </trkpt>
      <trkpt lat="44.79456" lon="7.00315">
        <ele>2521.7</ele>
        <time>2022-02-25T12:55:43Z</time>
      </trkpt>
      <trkpt lat="44.79456" lon="7.00315">
        <ele>2521.7</ele>
        <time>2022-02-25T12:55:44Z</time>
      </trkpt>
      <trkpt lat="44.79456" lon="7.00315">
        <ele>2521.7</ele>
        <time>2022-02-25T12:55:45Z</time>
      </trkpt>
      <trkpt lat="44.79455" lon="7.00317">
        <ele>2521.9</ele>
        <time>2022-02-25T12:55:46Z</time>
      </trkpt>
      <trkpt lat="44.79455" lon="7.00317">
        <ele>2521.9</ele>
        <time>2022-02-25T12:55:47Z</time>
      </trkpt>
      <trkpt lat="44.79455" lon="7.00317">
        <ele>2521.9</ele>
        <time>2022-02-25T12:55:48Z</time>
      </trkpt>
      <trkpt lat="44.79455" lon="7.00317">
        <ele>2521.9</ele>
        <time>2022-02-25T12:55:49Z</time>
      </trkpt>
      <trkpt lat="44.79454" lon="7.00319">
        <ele>2522</ele>
        <time>2022-02-25T12:55:50Z</time>
      </trkpt>
      <trkpt lat="44.79454" lon="7.00319">
        <ele>2522</ele>
        <time>2022-02-25T12:55:51Z</time>
      </trkpt>
      <trkpt lat="44.79454" lon="7.00319">
        <ele>2522</ele>
        <time>2022-02-25T12:55:52Z</time>
      </trkpt>
      <trkpt lat="44.79453" lon="7.00321">
        <ele>2522.1</ele>
        <time>2022-02-25T12:55:53Z</time>
      </trkpt>
      <trkpt lat="44.79453" lon="7.00321">
        <ele>2522.1</ele>
        <time>2022-02-25T12:55:54Z</time>
      </trkpt>
      <trkpt lat="44.79453" lon="7.00321">
        <ele>2522.1</ele>
        <time>2022-02-25T12:55:55Z</time>
      </trkpt>
      <trkpt lat="44.79453" lon="7.00321">
        <ele>2522.1</ele>
        <time>2022-02-25T12:55:56Z</time>
      </trkpt>
      <trkpt lat="44.79453" lon="7.00321">
        <ele>2522.1</ele>
        <time>2022-02-25T12:55:57Z</time>
      </trkpt>
      <trkpt lat="44.79452" lon="7.00324">
        <ele>2522.3</ele>
        <time>2022-02-25T12:55:58Z</time>
      </trkpt>
      <trkpt lat="44.79452" lon="7.00324">
        <ele>2522.3</ele>
        <time>2022-02-25T12:55:59Z</time>
      </trkpt>
      <trkpt lat="44.79452" lon="7.00324">
        <ele>2522.3</ele>
        <time>2022-02-25T12:56:00Z</time>
      </trkpt>
      <trkpt lat="44.79452" lon="7.00324">
        <ele>2522.3</ele>
        <time>2022-02-25T12:56:01Z</time>
      </trkpt>
      <trkpt lat="44.79452" lon="7.00326">
        <ele>2522.7</ele>
        <time>2022-02-25T12:56:02Z</time>
      </trkpt>
      <trkpt lat="44.79452" lon="7.00326">
        <ele>2522.7</ele>
        <time>2022-02-25T12:56:03Z</time>
      </trkpt>
      <trkpt lat="44.79452" lon="7.00326">
        <ele>2522.7</ele>
        <time>2022-02-25T12:56:04Z</time>
      </trkpt>
      <trkpt lat="44.79452" lon="7.00326">
        <ele>2522.7</ele>
        <time>2022-02-25T12:56:05Z</time>
      </trkpt>
      <trkpt lat="44.79452" lon="7.00326">
        <ele>2522.7</ele>
        <time>2022-02-25T12:56:06Z</time>
      </trkpt>
      <trkpt lat="44.79451" lon="7.00329">
        <ele>2522.9</ele>
        <time>2022-02-25T12:56:07Z</time>
      </trkpt>
      <trkpt lat="44.79451" lon="7.00329">
        <ele>2522.9</ele>
        <time>2022-02-25T12:56:08Z</time>
      </trkpt>
      <trkpt lat="44.79451" lon="7.00329">
        <ele>2522.9</ele>
        <time>2022-02-25T12:56:09Z</time>
      </trkpt>
      <trkpt lat="44.79451" lon="7.00329">
        <ele>2522.9</ele>
        <time>2022-02-25T12:56:10Z</time>
      </trkpt>
      <trkpt lat="44.7945" lon="7.00331">
        <ele>2522.8</ele>
        <time>2022-02-25T12:56:11Z</time>
      </trkpt>
      <trkpt lat="44.7945" lon="7.00331">
        <ele>2522.8</ele>
        <time>2022-02-25T12:56:12Z</time>
      </trkpt>
      <trkpt lat="44.7945" lon="7.00331">
        <ele>2522.8</ele>
        <time>2022-02-25T12:56:13Z</time>
      </trkpt>
      <trkpt lat="44.79448" lon="7.00333">
        <ele>2522.4</ele>
        <time>2022-02-25T12:56:14Z</time>
      </trkpt>
      <trkpt lat="44.79448" lon="7.00333">
        <ele>2522.4</ele>
        <time>2022-02-25T12:56:15Z</time>
      </trkpt>
      <trkpt lat="44.79448" lon="7.00333">
        <ele>2522.4</ele>
        <time>2022-02-25T12:56:16Z</time>
      </trkpt>
      <trkpt lat="44.79446" lon="7.00335">
        <ele>2522</ele>
        <time>2022-02-25T12:56:17Z</time>
      </trkpt>
      <trkpt lat="44.79446" lon="7.00335">
        <ele>2522</ele>
        <time>2022-02-25T12:56:18Z</time>
      </trkpt>
      <trkpt lat="44.79446" lon="7.00335">
        <ele>2522</ele>
        <time>2022-02-25T12:56:19Z</time>
      </trkpt>
      <trkpt lat="44.79444" lon="7.00336">
        <ele>2521.7</ele>
        <time>2022-02-25T12:56:20Z</time>
      </trkpt>
      <trkpt lat="44.79444" lon="7.00336">
        <ele>2521.7</ele>
        <time>2022-02-25T12:56:21Z</time>
      </trkpt>
      <trkpt lat="44.79444" lon="7.00336">
        <ele>2521.7</ele>
        <time>2022-02-25T12:56:22Z</time>
      </trkpt>
      <trkpt lat="44.79443" lon="7.00339">
        <ele>2522.5</ele>
        <time>2022-02-25T12:56:23Z</time>
      </trkpt>
      <trkpt lat="44.79443" lon="7.00339">
        <ele>2522.5</ele>
        <time>2022-02-25T12:56:24Z</time>
      </trkpt>
      <trkpt lat="44.79443" lon="7.00339">
        <ele>2522.5</ele>
        <time>2022-02-25T12:56:25Z</time>
      </trkpt>
      <trkpt lat="44.79442" lon="7.00342">
        <ele>2523.3</ele>
        <time>2022-02-25T12:56:26Z</time>
      </trkpt>
      <trkpt lat="44.79442" lon="7.00342">
        <ele>2523.3</ele>
        <time>2022-02-25T12:56:27Z</time>
      </trkpt>
      <trkpt lat="44.79442" lon="7.00342">
        <ele>2523.3</ele>
        <time>2022-02-25T12:56:28Z</time>
      </trkpt>
      <trkpt lat="44.79442" lon="7.00345">
        <ele>2523.9</ele>
        <time>2022-02-25T12:56:29Z</time>
      </trkpt>
      <trkpt lat="44.79442" lon="7.00345">
        <ele>2523.9</ele>
        <time>2022-02-25T12:56:30Z</time>
      </trkpt>
      <trkpt lat="44.79442" lon="7.00345">
        <ele>2523.9</ele>
        <time>2022-02-25T12:56:31Z</time>
      </trkpt>
      <trkpt lat="44.79442" lon="7.00345">
        <ele>2523.9</ele>
        <time>2022-02-25T12:56:32Z</time>
      </trkpt>
      <trkpt lat="44.79442" lon="7.00348">
        <ele>2524.5</ele>
        <time>2022-02-25T12:56:33Z</time>
      </trkpt>
      <trkpt lat="44.79442" lon="7.00348">
        <ele>2524.5</ele>
        <time>2022-02-25T12:56:34Z</time>
      </trkpt>
      <trkpt lat="44.79442" lon="7.00348">
        <ele>2524.5</ele>
        <time>2022-02-25T12:56:35Z</time>
      </trkpt>
      <trkpt lat="44.79442" lon="7.00348">
        <ele>2524.5</ele>
        <time>2022-02-25T12:56:36Z</time>
      </trkpt>
      <trkpt lat="44.79442" lon="7.00351">
        <ele>2525</ele>
        <time>2022-02-25T12:56:37Z</time>
      </trkpt>
      <trkpt lat="44.79442" lon="7.00351">
        <ele>2525</ele>
        <time>2022-02-25T12:56:38Z</time>
      </trkpt>
      <trkpt lat="44.79442" lon="7.00351">
        <ele>2525</ele>
        <time>2022-02-25T12:56:39Z</time>
      </trkpt>
      <trkpt lat="44.79442" lon="7.00351">
        <ele>2525</ele>
        <time>2022-02-25T12:56:40Z</time>
      </trkpt>
      <trkpt lat="44.79442" lon="7.00354">
        <ele>2525.6</ele>
        <time>2022-02-25T12:56:41Z</time>
      </trkpt>
      <trkpt lat="44.79442" lon="7.00354">
        <ele>2525.6</ele>
        <time>2022-02-25T12:56:42Z</time>
      </trkpt>
      <trkpt lat="44.79442" lon="7.00354">
        <ele>2525.6</ele>
        <time>2022-02-25T12:56:43Z</time>
      </trkpt>
      <trkpt lat="44.79442" lon="7.00357">
        <ele>2526.1</ele>
        <time>2022-02-25T12:56:44Z</time>
      </trkpt>
      <trkpt lat="44.79442" lon="7.00357">
        <ele>2526.1</ele>
        <time>2022-02-25T12:56:45Z</time>
      </trkpt>
      <trkpt lat="44.79442" lon="7.00357">
        <ele>2526.1</ele>
        <time>2022-02-25T12:56:46Z</time>
      </trkpt>
      <trkpt lat="44.79442" lon="7.0036">
        <ele>2526.7</ele>
        <time>2022-02-25T12:56:47Z</time>
      </trkpt>
      <trkpt lat="44.79442" lon="7.0036">
        <ele>2526.7</ele>
        <time>2022-02-25T12:56:48Z</time>
      </trkpt>
      <trkpt lat="44.79442" lon="7.0036">
        <ele>2526.7</ele>
        <time>2022-02-25T12:56:49Z</time>
      </trkpt>
      <trkpt lat="44.79442" lon="7.0036">
        <ele>2526.7</ele>
        <time>2022-02-25T12:56:50Z</time>
      </trkpt>
      <trkpt lat="44.79441" lon="7.00362">
        <ele>2526.9</ele>
        <time>2022-02-25T12:56:51Z</time>
      </trkpt>
      <trkpt lat="44.79441" lon="7.00362">
        <ele>2526.9</ele>
        <time>2022-02-25T12:56:52Z</time>
      </trkpt>
      <trkpt lat="44.79441" lon="7.00362">
        <ele>2526.9</ele>
        <time>2022-02-25T12:56:53Z</time>
      </trkpt>
      <trkpt lat="44.79441" lon="7.00362">
        <ele>2526.9</ele>
        <time>2022-02-25T12:56:54Z</time>
      </trkpt>
      <trkpt lat="44.79441" lon="7.00365">
        <ele>2527</ele>
        <time>2022-02-25T12:56:55Z</time>
      </trkpt>
      <trkpt lat="44.79441" lon="7.00365">
        <ele>2527</ele>
        <time>2022-02-25T12:56:56Z</time>
      </trkpt>
      <trkpt lat="44.79441" lon="7.00365">
        <ele>2527</ele>
        <time>2022-02-25T12:56:57Z</time>
      </trkpt>
      <trkpt lat="44.79441" lon="7.00365">
        <ele>2527</ele>
        <time>2022-02-25T12:56:58Z</time>
      </trkpt>
      <trkpt lat="44.79441" lon="7.00368">
        <ele>2527.1</ele>
        <time>2022-02-25T12:56:59Z</time>
      </trkpt>
      <trkpt lat="44.79441" lon="7.00368">
        <ele>2527.1</ele>
        <time>2022-02-25T12:57:00Z</time>
      </trkpt>
      <trkpt lat="44.79441" lon="7.00368">
        <ele>2527.1</ele>
        <time>2022-02-25T12:57:01Z</time>
      </trkpt>
      <trkpt lat="44.79441" lon="7.00368">
        <ele>2527.1</ele>
        <time>2022-02-25T12:57:02Z</time>
      </trkpt>
      <trkpt lat="44.7944" lon="7.00371">
        <ele>2527.1</ele>
        <time>2022-02-25T12:57:03Z</time>
      </trkpt>
      <trkpt lat="44.7944" lon="7.00371">
        <ele>2527.1</ele>
        <time>2022-02-25T12:57:04Z</time>
      </trkpt>
      <trkpt lat="44.7944" lon="7.00371">
        <ele>2527.1</ele>
        <time>2022-02-25T12:57:05Z</time>
      </trkpt>
      <trkpt lat="44.7944" lon="7.00373">
        <ele>2527.2</ele>
        <time>2022-02-25T12:57:06Z</time>
      </trkpt>
      <trkpt lat="44.7944" lon="7.00373">
        <ele>2527.2</ele>
        <time>2022-02-25T12:57:07Z</time>
      </trkpt>
      <trkpt lat="44.7944" lon="7.00373">
        <ele>2527.2</ele>
        <time>2022-02-25T12:57:08Z</time>
      </trkpt>
      <trkpt lat="44.7944" lon="7.00373">
        <ele>2527.2</ele>
        <time>2022-02-25T12:57:09Z</time>
      </trkpt>
      <trkpt lat="44.7944" lon="7.00376">
        <ele>2527.3</ele>
        <time>2022-02-25T12:57:10Z</time>
      </trkpt>
      <trkpt lat="44.7944" lon="7.00376">
        <ele>2527.3</ele>
        <time>2022-02-25T12:57:11Z</time>
      </trkpt>
      <trkpt lat="44.7944" lon="7.00376">
        <ele>2527.3</ele>
        <time>2022-02-25T12:57:12Z</time>
      </trkpt>
      <trkpt lat="44.79439" lon="7.00378">
        <ele>2527.3</ele>
        <time>2022-02-25T12:57:13Z</time>
      </trkpt>
      <trkpt lat="44.79439" lon="7.00378">
        <ele>2527.3</ele>
        <time>2022-02-25T12:57:14Z</time>
      </trkpt>
      <trkpt lat="44.79439" lon="7.00378">
        <ele>2527.3</ele>
        <time>2022-02-25T12:57:15Z</time>
      </trkpt>
      <trkpt lat="44.79438" lon="7.00381">
        <ele>2527.3</ele>
        <time>2022-02-25T12:57:16Z</time>
      </trkpt>
      <trkpt lat="44.79438" lon="7.00381">
        <ele>2527.3</ele>
        <time>2022-02-25T12:57:17Z</time>
      </trkpt>
      <trkpt lat="44.79438" lon="7.00381">
        <ele>2527.3</ele>
        <time>2022-02-25T12:57:18Z</time>
      </trkpt>
      <trkpt lat="44.79437" lon="7.00383">
        <ele>2527.3</ele>
        <time>2022-02-25T12:57:19Z</time>
      </trkpt>
      <trkpt lat="44.79437" lon="7.00383">
        <ele>2527.3</ele>
        <time>2022-02-25T12:57:20Z</time>
      </trkpt>
      <trkpt lat="44.79437" lon="7.00383">
        <ele>2527.3</ele>
        <time>2022-02-25T12:57:21Z</time>
      </trkpt>
      <trkpt lat="44.79435" lon="7.00385">
        <ele>2527.2</ele>
        <time>2022-02-25T12:57:22Z</time>
      </trkpt>
      <trkpt lat="44.79435" lon="7.00385">
        <ele>2527.2</ele>
        <time>2022-02-25T12:57:23Z</time>
      </trkpt>
      <trkpt lat="44.79435" lon="7.00385">
        <ele>2527.2</ele>
        <time>2022-02-25T12:57:24Z</time>
      </trkpt>
      <trkpt lat="44.79435" lon="7.00385">
        <ele>2527.2</ele>
        <time>2022-02-25T12:57:25Z</time>
      </trkpt>
      <trkpt lat="44.79434" lon="7.00388">
        <ele>2527.2</ele>
        <time>2022-02-25T12:57:26Z</time>
      </trkpt>
      <trkpt lat="44.79434" lon="7.00388">
        <ele>2527.2</ele>
        <time>2022-02-25T12:57:27Z</time>
      </trkpt>
      <trkpt lat="44.79434" lon="7.00388">
        <ele>2527.2</ele>
        <time>2022-02-25T12:57:28Z</time>
      </trkpt>
      <trkpt lat="44.79432" lon="7.0039">
        <ele>2527.3</ele>
        <time>2022-02-25T12:57:29Z</time>
      </trkpt>
      <trkpt lat="44.79432" lon="7.0039">
        <ele>2527.3</ele>
        <time>2022-02-25T12:57:30Z</time>
      </trkpt>
      <trkpt lat="44.79432" lon="7.0039">
        <ele>2527.3</ele>
        <time>2022-02-25T12:57:31Z</time>
      </trkpt>
      <trkpt lat="44.7943" lon="7.00392">
        <ele>2527.6</ele>
        <time>2022-02-25T12:57:32Z</time>
      </trkpt>
      <trkpt lat="44.7943" lon="7.00392">
        <ele>2527.6</ele>
        <time>2022-02-25T12:57:33Z</time>
      </trkpt>
      <trkpt lat="44.7943" lon="7.00392">
        <ele>2527.6</ele>
        <time>2022-02-25T12:57:34Z</time>
      </trkpt>
      <trkpt lat="44.79429" lon="7.00394">
        <ele>2527.8</ele>
        <time>2022-02-25T12:57:35Z</time>
      </trkpt>
      <trkpt lat="44.79429" lon="7.00394">
        <ele>2527.8</ele>
        <time>2022-02-25T12:57:36Z</time>
      </trkpt>
      <trkpt lat="44.79429" lon="7.00394">
        <ele>2527.8</ele>
        <time>2022-02-25T12:57:37Z</time>
      </trkpt>
      <trkpt lat="44.79427" lon="7.00396">
        <ele>2527.9</ele>
        <time>2022-02-25T12:57:38Z</time>
      </trkpt>
      <trkpt lat="44.79427" lon="7.00396">
        <ele>2527.9</ele>
        <time>2022-02-25T12:57:39Z</time>
      </trkpt>
      <trkpt lat="44.79427" lon="7.00396">
        <ele>2527.9</ele>
        <time>2022-02-25T12:57:40Z</time>
      </trkpt>
      <trkpt lat="44.79425" lon="7.00399">
        <ele>2528.1</ele>
        <time>2022-02-25T12:57:41Z</time>
      </trkpt>
      <trkpt lat="44.79425" lon="7.00399">
        <ele>2528.1</ele>
        <time>2022-02-25T12:57:42Z</time>
      </trkpt>
      <trkpt lat="44.79425" lon="7.00399">
        <ele>2528.1</ele>
        <time>2022-02-25T12:57:43Z</time>
      </trkpt>
      <trkpt lat="44.79424" lon="7.00401">
        <ele>2528.2</ele>
        <time>2022-02-25T12:57:44Z</time>
      </trkpt>
      <trkpt lat="44.79424" lon="7.00401">
        <ele>2528.2</ele>
        <time>2022-02-25T12:57:45Z</time>
      </trkpt>
      <trkpt lat="44.79424" lon="7.00401">
        <ele>2528.2</ele>
        <time>2022-02-25T12:57:46Z</time>
      </trkpt>
      <trkpt lat="44.79424" lon="7.00401">
        <ele>2528.2</ele>
        <time>2022-02-25T12:57:47Z</time>
      </trkpt>
      <trkpt lat="44.79422" lon="7.00403">
        <ele>2528.1</ele>
        <time>2022-02-25T12:57:48Z</time>
      </trkpt>
      <trkpt lat="44.79422" lon="7.00403">
        <ele>2528.1</ele>
        <time>2022-02-25T12:57:49Z</time>
      </trkpt>
      <trkpt lat="44.79422" lon="7.00403">
        <ele>2528.1</ele>
        <time>2022-02-25T12:57:50Z</time>
      </trkpt>
      <trkpt lat="44.7942" lon="7.00405">
        <ele>2527.9</ele>
        <time>2022-02-25T12:57:51Z</time>
      </trkpt>
      <trkpt lat="44.7942" lon="7.00405">
        <ele>2527.9</ele>
        <time>2022-02-25T12:57:52Z</time>
      </trkpt>
      <trkpt lat="44.7942" lon="7.00405">
        <ele>2527.9</ele>
        <time>2022-02-25T12:57:53Z</time>
      </trkpt>
      <trkpt lat="44.7942" lon="7.00405">
        <ele>2527.9</ele>
        <time>2022-02-25T12:57:54Z</time>
      </trkpt>
      <trkpt lat="44.7942" lon="7.00405">
        <ele>2527.9</ele>
        <time>2022-02-25T12:57:55Z</time>
      </trkpt>
      <trkpt lat="44.79419" lon="7.00407">
        <ele>2527.9</ele>
        <time>2022-02-25T12:57:56Z</time>
      </trkpt>
      <trkpt lat="44.79419" lon="7.00407">
        <ele>2527.9</ele>
        <time>2022-02-25T12:57:57Z</time>
      </trkpt>
      <trkpt lat="44.79417" lon="7.00408">
        <ele>2527.5</ele>
        <time>2022-02-25T12:57:58Z</time>
      </trkpt>
      <trkpt lat="44.79417" lon="7.00408">
        <ele>2527.5</ele>
        <time>2022-02-25T12:57:59Z</time>
      </trkpt>
      <trkpt lat="44.79417" lon="7.00408">
        <ele>2527.5</ele>
        <time>2022-02-25T12:58:00Z</time>
      </trkpt>
      <trkpt lat="44.79415" lon="7.00409">
        <ele>2527.7</ele>
        <time>2022-02-25T12:58:01Z</time>
      </trkpt>
      <trkpt lat="44.79415" lon="7.00409">
        <ele>2527.7</ele>
        <time>2022-02-25T12:58:02Z</time>
      </trkpt>
      <trkpt lat="44.79415" lon="7.00409">
        <ele>2527.7</ele>
        <time>2022-02-25T12:58:03Z</time>
      </trkpt>
      <trkpt lat="44.79415" lon="7.00409">
        <ele>2527.7</ele>
        <time>2022-02-25T12:58:04Z</time>
      </trkpt>
      <trkpt lat="44.79415" lon="7.00409">
        <ele>2527.7</ele>
        <time>2022-02-25T12:58:05Z</time>
      </trkpt>
      <trkpt lat="44.79413" lon="7.0041">
        <ele>2527.9</ele>
        <time>2022-02-25T12:58:06Z</time>
      </trkpt>
      <trkpt lat="44.79413" lon="7.0041">
        <ele>2527.9</ele>
        <time>2022-02-25T12:58:07Z</time>
      </trkpt>
      <trkpt lat="44.79413" lon="7.0041">
        <ele>2527.9</ele>
        <time>2022-02-25T12:58:08Z</time>
      </trkpt>
      <trkpt lat="44.79413" lon="7.0041">
        <ele>2527.9</ele>
        <time>2022-02-25T12:58:09Z</time>
      </trkpt>
      <trkpt lat="44.79413" lon="7.0041">
        <ele>2527.9</ele>
        <time>2022-02-25T12:58:10Z</time>
      </trkpt>
      <trkpt lat="44.79413" lon="7.0041">
        <ele>2527.9</ele>
        <time>2022-02-25T12:58:11Z</time>
      </trkpt>
      <trkpt lat="44.79411" lon="7.00411">
        <ele>2528.2</ele>
        <time>2022-02-25T12:58:12Z</time>
      </trkpt>
      <trkpt lat="44.79411" lon="7.00411">
        <ele>2528.2</ele>
        <time>2022-02-25T12:58:13Z</time>
      </trkpt>
      <trkpt lat="44.79411" lon="7.00411">
        <ele>2528.2</ele>
        <time>2022-02-25T12:58:14Z</time>
      </trkpt>
      <trkpt lat="44.79411" lon="7.00411">
        <ele>2528.2</ele>
        <time>2022-02-25T12:58:15Z</time>
      </trkpt>
      <trkpt lat="44.79411" lon="7.00411">
        <ele>2528.2</ele>
        <time>2022-02-25T12:58:16Z</time>
      </trkpt>
      <trkpt lat="44.79411" lon="7.00412">
        <ele>2528.2</ele>
        <time>2022-02-25T12:58:17Z</time>
      </trkpt>
      <trkpt lat="44.79411" lon="7.00412">
        <ele>2528.2</ele>
        <time>2022-02-25T12:58:18Z</time>
      </trkpt>
      <trkpt lat="44.79411" lon="7.00412">
        <ele>2528.2</ele>
        <time>2022-02-25T12:58:19Z</time>
      </trkpt>
      <trkpt lat="44.79411" lon="7.00412">
        <ele>2528.2</ele>
        <time>2022-02-25T12:58:20Z</time>
      </trkpt>
      <trkpt lat="44.79411" lon="7.00412">
        <ele>2528.2</ele>
        <time>2022-02-25T12:58:21Z</time>
      </trkpt>
      <trkpt lat="44.79411" lon="7.00412">
        <ele>2528.2</ele>
        <time>2022-02-25T12:58:22Z</time>
      </trkpt>
      <trkpt lat="44.79411" lon="7.00412">
        <ele>2528.2</ele>
        <time>2022-02-25T12:58:23Z</time>
      </trkpt>
      <trkpt lat="44.79411" lon="7.00412">
        <ele>2528.2</ele>
        <time>2022-02-25T12:58:24Z</time>
      </trkpt>
      <trkpt lat="44.79411" lon="7.00412">
        <ele>2528.2</ele>
        <time>2022-02-25T12:58:25Z</time>
      </trkpt>
      <trkpt lat="44.79411" lon="7.00412">
        <ele>2528.2</ele>
        <time>2022-02-25T12:58:26Z</time>
      </trkpt>
      <trkpt lat="44.79411" lon="7.00412">
        <ele>2528.2</ele>
        <time>2022-02-25T12:58:27Z</time>
      </trkpt>
      <trkpt lat="44.79411" lon="7.00413">
        <ele>2528.2</ele>
        <time>2022-02-25T12:58:28Z</time>
      </trkpt>
      <trkpt lat="44.79411" lon="7.00413">
        <ele>2528.2</ele>
        <time>2022-02-25T12:58:29Z</time>
      </trkpt>
      <trkpt lat="44.79411" lon="7.00413">
        <ele>2528.2</ele>
        <time>2022-02-25T12:58:30Z</time>
      </trkpt>
      <trkpt lat="44.79411" lon="7.00413">
        <ele>2528.2</ele>
        <time>2022-02-25T12:58:31Z</time>
      </trkpt>
      <trkpt lat="44.79411" lon="7.00413">
        <ele>2528.2</ele>
        <time>2022-02-25T12:58:32Z</time>
      </trkpt>
      <trkpt lat="44.79411" lon="7.00413">
        <ele>2528.2</ele>
        <time>2022-02-25T12:58:33Z</time>
      </trkpt>
      <trkpt lat="44.79411" lon="7.00413">
        <ele>2528.2</ele>
        <time>2022-02-25T12:58:34Z</time>
      </trkpt>
      <trkpt lat="44.79411" lon="7.00413">
        <ele>2528.2</ele>
        <time>2022-02-25T12:58:35Z</time>
      </trkpt>
      <trkpt lat="44.7941" lon="7.00413">
        <ele>2528.3</ele>
        <time>2022-02-25T12:58:36Z</time>
      </trkpt>
      <trkpt lat="44.7941" lon="7.00413">
        <ele>2528.3</ele>
        <time>2022-02-25T12:58:37Z</time>
      </trkpt>
      <trkpt lat="44.7941" lon="7.00414">
        <ele>2528.3</ele>
        <time>2022-02-25T12:58:38Z</time>
      </trkpt>
      <trkpt lat="44.7941" lon="7.00414">
        <ele>2528.3</ele>
        <time>2022-02-25T12:58:39Z</time>
      </trkpt>
      <trkpt lat="44.7941" lon="7.00414">
        <ele>2528.3</ele>
        <time>2022-02-25T12:58:40Z</time>
      </trkpt>
      <trkpt lat="44.7941" lon="7.00414">
        <ele>2528.3</ele>
        <time>2022-02-25T12:58:41Z</time>
      </trkpt>
      <trkpt lat="44.7941" lon="7.00414">
        <ele>2528.3</ele>
        <time>2022-02-25T12:58:42Z</time>
      </trkpt>
      <trkpt lat="44.7941" lon="7.00414">
        <ele>2528.3</ele>
        <time>2022-02-25T12:58:43Z</time>
      </trkpt>
      <trkpt lat="44.7941" lon="7.00414">
        <ele>2528.3</ele>
        <time>2022-02-25T12:58:44Z</time>
      </trkpt>
      <trkpt lat="44.7941" lon="7.00414">
        <ele>2528.3</ele>
        <time>2022-02-25T12:58:45Z</time>
      </trkpt>
      <trkpt lat="44.7941" lon="7.00414">
        <ele>2528.3</ele>
        <time>2022-02-25T12:58:46Z</time>
      </trkpt>
      <trkpt lat="44.7941" lon="7.00414">
        <ele>2528.3</ele>
        <time>2022-02-25T12:58:47Z</time>
      </trkpt>
      <trkpt lat="44.7941" lon="7.00414">
        <ele>2528.3</ele>
        <time>2022-02-25T12:58:48Z</time>
      </trkpt>
      <trkpt lat="44.7941" lon="7.00415">
        <ele>2528.2</ele>
        <time>2022-02-25T12:58:49Z</time>
      </trkpt>
      <trkpt lat="44.7941" lon="7.00415">
        <ele>2528.2</ele>
        <time>2022-02-25T12:58:50Z</time>
      </trkpt>
      <trkpt lat="44.7941" lon="7.00415">
        <ele>2528.2</ele>
        <time>2022-02-25T12:58:51Z</time>
      </trkpt>
      <trkpt lat="44.7941" lon="7.00415">
        <ele>2528.2</ele>
        <time>2022-02-25T12:58:52Z</time>
      </trkpt>
      <trkpt lat="44.7941" lon="7.00415">
        <ele>2528.2</ele>
        <time>2022-02-25T12:58:53Z</time>
      </trkpt>
      <trkpt lat="44.7941" lon="7.00415">
        <ele>2528.2</ele>
        <time>2022-02-25T12:58:54Z</time>
      </trkpt>
      <trkpt lat="44.7941" lon="7.00415">
        <ele>2528.2</ele>
        <time>2022-02-25T12:58:55Z</time>
      </trkpt>
      <trkpt lat="44.7941" lon="7.00415">
        <ele>2528.2</ele>
        <time>2022-02-25T12:58:56Z</time>
      </trkpt>
      <trkpt lat="44.7941" lon="7.00415">
        <ele>2528.2</ele>
        <time>2022-02-25T12:58:57Z</time>
      </trkpt>
      <trkpt lat="44.7941" lon="7.00415">
        <ele>2528.2</ele>
        <time>2022-02-25T12:58:58Z</time>
      </trkpt>
      <trkpt lat="44.7941" lon="7.00415">
        <ele>2528.2</ele>
        <time>2022-02-25T12:58:59Z</time>
      </trkpt>
      <trkpt lat="44.7941" lon="7.00416">
        <ele>2528.2</ele>
        <time>2022-02-25T12:59:00Z</time>
      </trkpt>
      <trkpt lat="44.7941" lon="7.00416">
        <ele>2528.2</ele>
        <time>2022-02-25T12:59:01Z</time>
      </trkpt>
      <trkpt lat="44.7941" lon="7.00416">
        <ele>2528.2</ele>
        <time>2022-02-25T12:59:02Z</time>
      </trkpt>
      <trkpt lat="44.7941" lon="7.00416">
        <ele>2528.2</ele>
        <time>2022-02-25T12:59:03Z</time>
      </trkpt>
      <trkpt lat="44.7941" lon="7.00416">
        <ele>2528.2</ele>
        <time>2022-02-25T12:59:04Z</time>
      </trkpt>
      <trkpt lat="44.79409" lon="7.00416">
        <ele>2528.3</ele>
        <time>2022-02-25T12:59:05Z</time>
      </trkpt>
      <trkpt lat="44.79409" lon="7.00416">
        <ele>2528.3</ele>
        <time>2022-02-25T12:59:06Z</time>
      </trkpt>
      <trkpt lat="44.79409" lon="7.00416">
        <ele>2528.3</ele>
        <time>2022-02-25T12:59:07Z</time>
      </trkpt>
      <trkpt lat="44.79409" lon="7.00416">
        <ele>2528.3</ele>
        <time>2022-02-25T12:59:08Z</time>
      </trkpt>
      <trkpt lat="44.79409" lon="7.00416">
        <ele>2528.3</ele>
        <time>2022-02-25T12:59:09Z</time>
      </trkpt>
      <trkpt lat="44.79409" lon="7.00417">
        <ele>2528.3</ele>
        <time>2022-02-25T12:59:10Z</time>
      </trkpt>
      <trkpt lat="44.79409" lon="7.00417">
        <ele>2528.3</ele>
        <time>2022-02-25T12:59:11Z</time>
      </trkpt>
      <trkpt lat="44.79409" lon="7.00417">
        <ele>2528.3</ele>
        <time>2022-02-25T12:59:12Z</time>
      </trkpt>
      <trkpt lat="44.79409" lon="7.00417">
        <ele>2528.3</ele>
        <time>2022-02-25T12:59:13Z</time>
      </trkpt>
      <trkpt lat="44.79409" lon="7.00417">
        <ele>2528.3</ele>
        <time>2022-02-25T12:59:14Z</time>
      </trkpt>
      <trkpt lat="44.79409" lon="7.00417">
        <ele>2528.3</ele>
        <time>2022-02-25T12:59:15Z</time>
      </trkpt>
      <trkpt lat="44.79409" lon="7.00417">
        <ele>2528.3</ele>
        <time>2022-02-25T12:59:16Z</time>
      </trkpt>
      <trkpt lat="44.79409" lon="7.00417">
        <ele>2528.3</ele>
        <time>2022-02-25T12:59:17Z</time>
      </trkpt>
      <trkpt lat="44.79409" lon="7.00417">
        <ele>2528.3</ele>
        <time>2022-02-25T12:59:18Z</time>
      </trkpt>
      <trkpt lat="44.79409" lon="7.00417">
        <ele>2528.3</ele>
        <time>2022-02-25T12:59:19Z</time>
      </trkpt>
      <trkpt lat="44.79409" lon="7.00417">
        <ele>2528.3</ele>
        <time>2022-02-25T12:59:20Z</time>
      </trkpt>
      <trkpt lat="44.79409" lon="7.00418">
        <ele>2528.4</ele>
        <time>2022-02-25T12:59:21Z</time>
      </trkpt>
      <trkpt lat="44.79409" lon="7.00418">
        <ele>2528.4</ele>
        <time>2022-02-25T12:59:22Z</time>
      </trkpt>
      <trkpt lat="44.79409" lon="7.00418">
        <ele>2528.4</ele>
        <time>2022-02-25T12:59:23Z</time>
      </trkpt>
      <trkpt lat="44.79409" lon="7.00418">
        <ele>2528.4</ele>
        <time>2022-02-25T12:59:24Z</time>
      </trkpt>
      <trkpt lat="44.79409" lon="7.00418">
        <ele>2528.4</ele>
        <time>2022-02-25T12:59:25Z</time>
      </trkpt>
      <trkpt lat="44.79409" lon="7.00418">
        <ele>2528.4</ele>
        <time>2022-02-25T12:59:26Z</time>
      </trkpt>
      <trkpt lat="44.79409" lon="7.00418">
        <ele>2528.4</ele>
        <time>2022-02-25T12:59:27Z</time>
      </trkpt>
      <trkpt lat="44.79409" lon="7.00418">
        <ele>2528.4</ele>
        <time>2022-02-25T12:59:28Z</time>
      </trkpt>
      <trkpt lat="44.79409" lon="7.00418">
        <ele>2528.4</ele>
        <time>2022-02-25T12:59:29Z</time>
      </trkpt>
      <trkpt lat="44.79409" lon="7.00418">
        <ele>2528.4</ele>
        <time>2022-02-25T12:59:30Z</time>
      </trkpt>
      <trkpt lat="44.79409" lon="7.00419">
        <ele>2528.4</ele>
        <time>2022-02-25T12:59:31Z</time>
      </trkpt>
      <trkpt lat="44.79409" lon="7.00419">
        <ele>2528.4</ele>
        <time>2022-02-25T12:59:32Z</time>
      </trkpt>
      <trkpt lat="44.79409" lon="7.00419">
        <ele>2528.4</ele>
        <time>2022-02-25T12:59:33Z</time>
      </trkpt>
      <trkpt lat="44.79408" lon="7.00419">
        <ele>2528.4</ele>
        <time>2022-02-25T12:59:34Z</time>
      </trkpt>
      <trkpt lat="44.79408" lon="7.00419">
        <ele>2528.4</ele>
        <time>2022-02-25T12:59:35Z</time>
      </trkpt>
      <trkpt lat="44.79408" lon="7.00419">
        <ele>2528.4</ele>
        <time>2022-02-25T12:59:36Z</time>
      </trkpt>
      <trkpt lat="44.79408" lon="7.00419">
        <ele>2528.4</ele>
        <time>2022-02-25T12:59:37Z</time>
      </trkpt>
      <trkpt lat="44.79408" lon="7.00419">
        <ele>2528.4</ele>
        <time>2022-02-25T12:59:38Z</time>
      </trkpt>
      <trkpt lat="44.79408" lon="7.00419">
        <ele>2528.4</ele>
        <time>2022-02-25T12:59:39Z</time>
      </trkpt>
      <trkpt lat="44.79408" lon="7.00419">
        <ele>2528.4</ele>
        <time>2022-02-25T12:59:40Z</time>
      </trkpt>
      <trkpt lat="44.79408" lon="7.00419">
        <ele>2528.4</ele>
        <time>2022-02-25T12:59:41Z</time>
      </trkpt>
      <trkpt lat="44.79408" lon="7.0042">
        <ele>2528.5</ele>
        <time>2022-02-25T12:59:42Z</time>
      </trkpt>
      <trkpt lat="44.79408" lon="7.0042">
        <ele>2528.5</ele>
        <time>2022-02-25T12:59:43Z</time>
      </trkpt>
      <trkpt lat="44.79408" lon="7.0042">
        <ele>2528.5</ele>
        <time>2022-02-25T12:59:44Z</time>
      </trkpt>
      <trkpt lat="44.79408" lon="7.0042">
        <ele>2528.5</ele>
        <time>2022-02-25T12:59:45Z</time>
      </trkpt>
      <trkpt lat="44.79408" lon="7.0042">
        <ele>2528.5</ele>
        <time>2022-02-25T12:59:46Z</time>
      </trkpt>
      <trkpt lat="44.79408" lon="7.0042">
        <ele>2528.5</ele>
        <time>2022-02-25T12:59:47Z</time>
      </trkpt>
      <trkpt lat="44.79408" lon="7.0042">
        <ele>2528.5</ele>
        <time>2022-02-25T12:59:48Z</time>
      </trkpt>
      <trkpt lat="44.79408" lon="7.0042">
        <ele>2528.5</ele>
        <time>2022-02-25T12:59:49Z</time>
      </trkpt>
      <trkpt lat="44.79408" lon="7.0042">
        <ele>2528.5</ele>
        <time>2022-02-25T12:59:50Z</time>
      </trkpt>
      <trkpt lat="44.79408" lon="7.0042">
        <ele>2528.5</ele>
        <time>2022-02-25T12:59:51Z</time>
      </trkpt>
      <trkpt lat="44.79408" lon="7.0042">
        <ele>2528.5</ele>
        <time>2022-02-25T12:59:52Z</time>
      </trkpt>
      <trkpt lat="44.79408" lon="7.00421">
        <ele>2528.5</ele>
        <time>2022-02-25T12:59:53Z</time>
      </trkpt>
      <trkpt lat="44.79408" lon="7.00421">
        <ele>2528.5</ele>
        <time>2022-02-25T12:59:54Z</time>
      </trkpt>
      <trkpt lat="44.79408" lon="7.00421">
        <ele>2528.5</ele>
        <time>2022-02-25T12:59:55Z</time>
      </trkpt>
      <trkpt lat="44.79408" lon="7.00421">
        <ele>2528.5</ele>
        <time>2022-02-25T12:59:56Z</time>
      </trkpt>
      <trkpt lat="44.79408" lon="7.00421">
        <ele>2528.5</ele>
        <time>2022-02-25T12:59:57Z</time>
      </trkpt>
      <trkpt lat="44.79408" lon="7.00421">
        <ele>2528.5</ele>
        <time>2022-02-25T12:59:58Z</time>
      </trkpt>
      <trkpt lat="44.79408" lon="7.00421">
        <ele>2528.5</ele>
        <time>2022-02-25T12:59:59Z</time>
      </trkpt>
      <trkpt lat="44.79408" lon="7.00421">
        <ele>2528.5</ele>
        <time>2022-02-25T13:00:00Z</time>
      </trkpt>
      <trkpt lat="44.79408" lon="7.00421">
        <ele>2528.5</ele>
        <time>2022-02-25T13:00:01Z</time>
      </trkpt>
      <trkpt lat="44.79408" lon="7.00421">
        <ele>2528.5</ele>
        <time>2022-02-25T13:00:02Z</time>
      </trkpt>
      <trkpt lat="44.79407" lon="7.00422">
        <ele>2528.5</ele>
        <time>2022-02-25T13:00:03Z</time>
      </trkpt>
      <trkpt lat="44.79407" lon="7.00422">
        <ele>2528.5</ele>
        <time>2022-02-25T13:00:04Z</time>
      </trkpt>
      <trkpt lat="44.79407" lon="7.00422">
        <ele>2528.5</ele>
        <time>2022-02-25T13:00:05Z</time>
      </trkpt>
      <trkpt lat="44.79407" lon="7.00422">
        <ele>2528.5</ele>
        <time>2022-02-25T13:00:06Z</time>
      </trkpt>
      <trkpt lat="44.79407" lon="7.00422">
        <ele>2528.5</ele>
        <time>2022-02-25T13:00:07Z</time>
      </trkpt>
      <trkpt lat="44.79407" lon="7.00422">
        <ele>2528.5</ele>
        <time>2022-02-25T13:00:08Z</time>
      </trkpt>
      <trkpt lat="44.79407" lon="7.00422">
        <ele>2528.5</ele>
        <time>2022-02-25T13:00:09Z</time>
      </trkpt>
      <trkpt lat="44.79407" lon="7.00422">
        <ele>2528.5</ele>
        <time>2022-02-25T13:00:10Z</time>
      </trkpt>
      <trkpt lat="44.79407" lon="7.00422">
        <ele>2528.5</ele>
        <time>2022-02-25T13:00:11Z</time>
      </trkpt>
      <trkpt lat="44.79407" lon="7.00422">
        <ele>2528.5</ele>
        <time>2022-02-25T13:00:12Z</time>
      </trkpt>
      <trkpt lat="44.79407" lon="7.00422">
        <ele>2528.5</ele>
        <time>2022-02-25T13:00:13Z</time>
      </trkpt>
      <trkpt lat="44.79407" lon="7.00422">
        <ele>2528.5</ele>
        <time>2022-02-25T13:00:14Z</time>
      </trkpt>
      <trkpt lat="44.79407" lon="7.00422">
        <ele>2528.5</ele>
        <time>2022-02-25T13:00:15Z</time>
      </trkpt>
      <trkpt lat="44.79407" lon="7.00422">
        <ele>2528.5</ele>
        <time>2022-02-25T13:00:16Z</time>
      </trkpt>
      <trkpt lat="44.79407" lon="7.00422">
        <ele>2528.5</ele>
        <time>2022-02-25T13:00:17Z</time>
      </trkpt>
      <trkpt lat="44.79407" lon="7.00422">
        <ele>2528.5</ele>
        <time>2022-02-25T13:00:18Z</time>
      </trkpt>
      <trkpt lat="44.79407" lon="7.00422">
        <ele>2528.5</ele>
        <time>2022-02-25T13:00:19Z</time>
      </trkpt>
      <trkpt lat="44.79407" lon="7.00422">
        <ele>2528.5</ele>
        <time>2022-02-25T13:00:20Z</time>
      </trkpt>
      <trkpt lat="44.79407" lon="7.00422">
        <ele>2528.5</ele>
        <time>2022-02-25T13:00:21Z</time>
      </trkpt>
      <trkpt lat="44.79407" lon="7.00422">
        <ele>2528.5</ele>
        <time>2022-02-25T13:00:22Z</time>
      </trkpt>
      <trkpt lat="44.79407" lon="7.00422">
        <ele>2528.5</ele>
        <time>2022-02-25T13:00:23Z</time>
      </trkpt>
      <trkpt lat="44.79407" lon="7.00422">
        <ele>2528.5</ele>
        <time>2022-02-25T13:00:24Z</time>
      </trkpt>
      <trkpt lat="44.79407" lon="7.00422">
        <ele>2528.5</ele>
        <time>2022-02-25T13:00:25Z</time>
      </trkpt>
      <trkpt lat="44.79407" lon="7.00422">
        <ele>2528.5</ele>
        <time>2022-02-25T13:00:26Z</time>
      </trkpt>
      <trkpt lat="44.79407" lon="7.00422">
        <ele>2528.5</ele>
        <time>2022-02-25T13:00:27Z</time>
      </trkpt>
      <trkpt lat="44.79407" lon="7.00422">
        <ele>2528.5</ele>
        <time>2022-02-25T13:00:28Z</time>
      </trkpt>
      <trkpt lat="44.79407" lon="7.00422">
        <ele>2528.5</ele>
        <time>2022-02-25T13:00:29Z</time>
      </trkpt>
      <trkpt lat="44.79407" lon="7.00422">
        <ele>2528.5</ele>
        <time>2022-02-25T13:00:30Z</time>
      </trkpt>
      <trkpt lat="44.79407" lon="7.00422">
        <ele>2528.5</ele>
        <time>2022-02-25T13:00:31Z</time>
      </trkpt>
      <trkpt lat="44.79407" lon="7.00422">
        <ele>2528.5</ele>
        <time>2022-02-25T13:00:32Z</time>
      </trkpt>
      <trkpt lat="44.79407" lon="7.00422">
        <ele>2528.5</ele>
        <time>2022-02-25T13:00:33Z</time>
      </trkpt>
      <trkpt lat="44.79407" lon="7.00422">
        <ele>2528.5</ele>
        <time>2022-02-25T13:00:34Z</time>
      </trkpt>
      <trkpt lat="44.79407" lon="7.00422">
        <ele>2528.5</ele>
        <time>2022-02-25T13:00:35Z</time>
      </trkpt>
      <trkpt lat="44.79407" lon="7.00422">
        <ele>2528.5</ele>
        <time>2022-02-25T13:00:36Z</time>
      </trkpt>
      <trkpt lat="44.79407" lon="7.00422">
        <ele>2528.5</ele>
        <time>2022-02-25T13:00:37Z</time>
      </trkpt>
      <trkpt lat="44.79407" lon="7.00422">
        <ele>2528.5</ele>
        <time>2022-02-25T13:00:38Z</time>
      </trkpt>
      <trkpt lat="44.79407" lon="7.00422">
        <ele>2528.5</ele>
        <time>2022-02-25T13:00:39Z</time>
      </trkpt>
      <trkpt lat="44.79407" lon="7.00422">
        <ele>2528.5</ele>
        <time>2022-02-25T13:00:40Z</time>
      </trkpt>
      <trkpt lat="44.79407" lon="7.00422">
        <ele>2528.5</ele>
        <time>2022-02-25T13:00:41Z</time>
      </trkpt>
      <trkpt lat="44.79407" lon="7.00422">
        <ele>2528.5</ele>
        <time>2022-02-25T13:00:42Z</time>
      </trkpt>
      <trkpt lat="44.79407" lon="7.00422">
        <ele>2528.5</ele>
        <time>2022-02-25T13:00:43Z</time>
      </trkpt>
      <trkpt lat="44.79407" lon="7.00422">
        <ele>2528.5</ele>
        <time>2022-02-25T13:00:44Z</time>
      </trkpt>
      <trkpt lat="44.79407" lon="7.00422">
        <ele>2528.5</ele>
        <time>2022-02-25T13:00:45Z</time>
      </trkpt>
      <trkpt lat="44.79407" lon="7.00422">
        <ele>2528.5</ele>
        <time>2022-02-25T13:00:46Z</time>
      </trkpt>
      <trkpt lat="44.79407" lon="7.00422">
        <ele>2528.5</ele>
        <time>2022-02-25T13:00:47Z</time>
      </trkpt>
      <trkpt lat="44.79407" lon="7.00422">
        <ele>2528.5</ele>
        <time>2022-02-25T13:00:48Z</time>
      </trkpt>
      <trkpt lat="44.79407" lon="7.00422">
        <ele>2528.5</ele>
        <time>2022-02-25T13:00:49Z</time>
      </trkpt>
      <trkpt lat="44.79407" lon="7.00422">
        <ele>2528.5</ele>
        <time>2022-02-25T13:00:50Z</time>
      </trkpt>
      <trkpt lat="44.79407" lon="7.00422">
        <ele>2528.5</ele>
        <time>2022-02-25T13:00:51Z</time>
      </trkpt>
      <trkpt lat="44.79407" lon="7.00422">
        <ele>2528.5</ele>
        <time>2022-02-25T13:00:52Z</time>
      </trkpt>
      <trkpt lat="44.79407" lon="7.00422">
        <ele>2528.5</ele>
        <time>2022-02-25T13:00:53Z</time>
      </trkpt>
      <trkpt lat="44.79407" lon="7.00422">
        <ele>2528.5</ele>
        <time>2022-02-25T13:00:54Z</time>
      </trkpt>
      <trkpt lat="44.79407" lon="7.00422">
        <ele>2528.5</ele>
        <time>2022-02-25T13:00:55Z</time>
      </trkpt>
      <trkpt lat="44.79407" lon="7.00422">
        <ele>2528.5</ele>
        <time>2022-02-25T13:00:56Z</time>
      </trkpt>
      <trkpt lat="44.79407" lon="7.00422">
        <ele>2528.5</ele>
        <time>2022-02-25T13:00:57Z</time>
      </trkpt>
      <trkpt lat="44.79407" lon="7.00422">
        <ele>2528.5</ele>
        <time>2022-02-25T13:00:58Z</time>
      </trkpt>
      <trkpt lat="44.79407" lon="7.00422">
        <ele>2528.5</ele>
        <time>2022-02-25T13:00:59Z</time>
      </trkpt>
      <trkpt lat="44.79407" lon="7.00422">
        <ele>2528.5</ele>
        <time>2022-02-25T13:01:00Z</time>
      </trkpt>
      <trkpt lat="44.79407" lon="7.00422">
        <ele>2528.5</ele>
        <time>2022-02-25T13:01:01Z</time>
      </trkpt>
      <trkpt lat="44.79407" lon="7.00422">
        <ele>2528.5</ele>
        <time>2022-02-25T13:01:02Z</time>
      </trkpt>
      <trkpt lat="44.79407" lon="7.00422">
        <ele>2528.5</ele>
        <time>2022-02-25T13:01:03Z</time>
      </trkpt>
      <trkpt lat="44.79407" lon="7.00422">
        <ele>2528.5</ele>
        <time>2022-02-25T13:01:04Z</time>
      </trkpt>
      <trkpt lat="44.79407" lon="7.00422">
        <ele>2528.5</ele>
        <time>2022-02-25T13:01:05Z</time>
      </trkpt>
      <trkpt lat="44.79407" lon="7.00422">
        <ele>2528.5</ele>
        <time>2022-02-25T13:01:06Z</time>
      </trkpt>
      <trkpt lat="44.79407" lon="7.00422">
        <ele>2528.5</ele>
        <time>2022-02-25T13:01:07Z</time>
      </trkpt>
      <trkpt lat="44.79407" lon="7.00422">
        <ele>2528.5</ele>
        <time>2022-02-25T13:01:08Z</time>
      </trkpt>
      <trkpt lat="44.79407" lon="7.00422">
        <ele>2528.5</ele>
        <time>2022-02-25T13:01:09Z</time>
      </trkpt>
      <trkpt lat="44.79407" lon="7.00422">
        <ele>2528.5</ele>
        <time>2022-02-25T13:01:10Z</time>
      </trkpt>
      <trkpt lat="44.79407" lon="7.00422">
        <ele>2528.5</ele>
        <time>2022-02-25T13:01:11Z</time>
      </trkpt>
      <trkpt lat="44.79407" lon="7.00422">
        <ele>2528.5</ele>
        <time>2022-02-25T13:01:12Z</time>
      </trkpt>
      <trkpt lat="44.79407" lon="7.00422">
        <ele>2528.5</ele>
        <time>2022-02-25T13:01:13Z</time>
      </trkpt>
      <trkpt lat="44.79407" lon="7.00422">
        <ele>2528.5</ele>
        <time>2022-02-25T13:01:14Z</time>
      </trkpt>
      <trkpt lat="44.79407" lon="7.00422">
        <ele>2528.5</ele>
        <time>2022-02-25T13:01:15Z</time>
      </trkpt>
      <trkpt lat="44.79407" lon="7.00422">
        <ele>2528.5</ele>
        <time>2022-02-25T13:01:16Z</time>
      </trkpt>
      <trkpt lat="44.79407" lon="7.00422">
        <ele>2528.5</ele>
        <time>2022-02-25T13:01:17Z</time>
      </trkpt>
      <trkpt lat="44.79407" lon="7.00422">
        <ele>2528.5</ele>
        <time>2022-02-25T13:01:18Z</time>
      </trkpt>
      <trkpt lat="44.79407" lon="7.00422">
        <ele>2528.5</ele>
        <time>2022-02-25T13:01:19Z</time>
      </trkpt>
      <trkpt lat="44.79407" lon="7.00422">
        <ele>2528.5</ele>
        <time>2022-02-25T13:01:20Z</time>
      </trkpt>
      <trkpt lat="44.79407" lon="7.00422">
        <ele>2528.5</ele>
        <time>2022-02-25T13:01:21Z</time>
      </trkpt>
      <trkpt lat="44.79407" lon="7.00422">
        <ele>2528.5</ele>
        <time>2022-02-25T13:01:22Z</time>
      </trkpt>
      <trkpt lat="44.79407" lon="7.00422">
        <ele>2528.5</ele>
        <time>2022-02-25T13:01:23Z</time>
      </trkpt>
      <trkpt lat="44.79407" lon="7.00427">
        <ele>2528.6</ele>
        <time>2022-02-25T13:01:24Z</time>
      </trkpt>
      <trkpt lat="44.79407" lon="7.00427">
        <ele>2528.6</ele>
        <time>2022-02-25T13:01:25Z</time>
      </trkpt>
      <trkpt lat="44.79407" lon="7.00427">
        <ele>2528.6</ele>
        <time>2022-02-25T13:01:26Z</time>
      </trkpt>
      <trkpt lat="44.79407" lon="7.00427">
        <ele>2528.6</ele>
        <time>2022-02-25T13:01:27Z</time>
      </trkpt>
      <trkpt lat="44.79407" lon="7.0043">
        <ele>2528.7</ele>
        <time>2022-02-25T13:01:28Z</time>
      </trkpt>
      <trkpt lat="44.79407" lon="7.0043">
        <ele>2528.7</ele>
        <time>2022-02-25T13:01:29Z</time>
      </trkpt>
      <trkpt lat="44.79407" lon="7.0043">
        <ele>2528.7</ele>
        <time>2022-02-25T13:01:30Z</time>
      </trkpt>
      <trkpt lat="44.79407" lon="7.0043">
        <ele>2528.7</ele>
        <time>2022-02-25T13:01:31Z</time>
      </trkpt>
      <trkpt lat="44.79407" lon="7.0043">
        <ele>2528.7</ele>
        <time>2022-02-25T13:01:32Z</time>
      </trkpt>
      <trkpt lat="44.79407" lon="7.0043">
        <ele>2528.7</ele>
        <time>2022-02-25T13:01:33Z</time>
      </trkpt>
      <trkpt lat="44.79407" lon="7.0043">
        <ele>2528.7</ele>
        <time>2022-02-25T13:01:34Z</time>
      </trkpt>
      <trkpt lat="44.79407" lon="7.0043">
        <ele>2528.7</ele>
        <time>2022-02-25T13:01:35Z</time>
      </trkpt>
      <trkpt lat="44.79407" lon="7.0043">
        <ele>2528.7</ele>
        <time>2022-02-25T13:01:36Z</time>
      </trkpt>
      <trkpt lat="44.79407" lon="7.00429">
        <ele>2528.7</ele>
        <time>2022-02-25T13:01:37Z</time>
      </trkpt>
      <trkpt lat="44.79407" lon="7.00429">
        <ele>2528.7</ele>
        <time>2022-02-25T13:01:38Z</time>
      </trkpt>
      <trkpt lat="44.79407" lon="7.00429">
        <ele>2528.7</ele>
        <time>2022-02-25T13:01:39Z</time>
      </trkpt>
      <trkpt lat="44.79407" lon="7.00429">
        <ele>2528.7</ele>
        <time>2022-02-25T13:01:40Z</time>
      </trkpt>
      <trkpt lat="44.79407" lon="7.00429">
        <ele>2528.7</ele>
        <time>2022-02-25T13:01:41Z</time>
      </trkpt>
      <trkpt lat="44.79408" lon="7.00429">
        <ele>2528.9</ele>
        <time>2022-02-25T13:01:42Z</time>
      </trkpt>
      <trkpt lat="44.79408" lon="7.00429">
        <ele>2528.9</ele>
        <time>2022-02-25T13:01:43Z</time>
      </trkpt>
      <trkpt lat="44.79408" lon="7.00429">
        <ele>2528.9</ele>
        <time>2022-02-25T13:01:44Z</time>
      </trkpt>
      <trkpt lat="44.79408" lon="7.00428">
        <ele>2528.9</ele>
        <time>2022-02-25T13:01:45Z</time>
      </trkpt>
      <trkpt lat="44.79408" lon="7.00428">
        <ele>2528.9</ele>
        <time>2022-02-25T13:01:46Z</time>
      </trkpt>
      <trkpt lat="44.79408" lon="7.00428">
        <ele>2528.9</ele>
        <time>2022-02-25T13:01:47Z</time>
      </trkpt>
      <trkpt lat="44.79408" lon="7.00428">
        <ele>2528.9</ele>
        <time>2022-02-25T13:01:48Z</time>
      </trkpt>
      <trkpt lat="44.79408" lon="7.00428">
        <ele>2528.9</ele>
        <time>2022-02-25T13:01:49Z</time>
      </trkpt>
      <trkpt lat="44.79408" lon="7.00428">
        <ele>2528.9</ele>
        <time>2022-02-25T13:01:50Z</time>
      </trkpt>
      <trkpt lat="44.79408" lon="7.00428">
        <ele>2528.9</ele>
        <time>2022-02-25T13:01:51Z</time>
      </trkpt>
      <trkpt lat="44.79408" lon="7.00428">
        <ele>2528.9</ele>
        <time>2022-02-25T13:01:52Z</time>
      </trkpt>
      <trkpt lat="44.79408" lon="7.00428">
        <ele>2528.9</ele>
        <time>2022-02-25T13:01:53Z</time>
      </trkpt>
      <trkpt lat="44.79408" lon="7.00427">
        <ele>2528.8</ele>
        <time>2022-02-25T13:01:54Z</time>
      </trkpt>
      <trkpt lat="44.79408" lon="7.00427">
        <ele>2528.8</ele>
        <time>2022-02-25T13:01:55Z</time>
      </trkpt>
      <trkpt lat="44.79408" lon="7.00427">
        <ele>2528.8</ele>
        <time>2022-02-25T13:01:56Z</time>
      </trkpt>
      <trkpt lat="44.79408" lon="7.00427">
        <ele>2528.8</ele>
        <time>2022-02-25T13:01:57Z</time>
      </trkpt>
      <trkpt lat="44.79408" lon="7.00427">
        <ele>2528.8</ele>
        <time>2022-02-25T13:01:58Z</time>
      </trkpt>
      <trkpt lat="44.79408" lon="7.00427">
        <ele>2528.8</ele>
        <time>2022-02-25T13:01:59Z</time>
      </trkpt>
      <trkpt lat="44.79408" lon="7.00427">
        <ele>2528.8</ele>
        <time>2022-02-25T13:02:00Z</time>
      </trkpt>
      <trkpt lat="44.79408" lon="7.00427">
        <ele>2528.8</ele>
        <time>2022-02-25T13:02:01Z</time>
      </trkpt>
      <trkpt lat="44.79408" lon="7.00426">
        <ele>2528.8</ele>
        <time>2022-02-25T13:02:02Z</time>
      </trkpt>
      <trkpt lat="44.79408" lon="7.00426">
        <ele>2528.8</ele>
        <time>2022-02-25T13:02:03Z</time>
      </trkpt>
      <trkpt lat="44.79408" lon="7.00426">
        <ele>2528.8</ele>
        <time>2022-02-25T13:02:04Z</time>
      </trkpt>
      <trkpt lat="44.79408" lon="7.00426">
        <ele>2528.8</ele>
        <time>2022-02-25T13:02:05Z</time>
      </trkpt>
      <trkpt lat="44.79408" lon="7.00426">
        <ele>2528.8</ele>
        <time>2022-02-25T13:02:06Z</time>
      </trkpt>
      <trkpt lat="44.79408" lon="7.00426">
        <ele>2528.8</ele>
        <time>2022-02-25T13:02:07Z</time>
      </trkpt>
      <trkpt lat="44.79408" lon="7.00426">
        <ele>2528.8</ele>
        <time>2022-02-25T13:02:08Z</time>
      </trkpt>
      <trkpt lat="44.79408" lon="7.00426">
        <ele>2528.8</ele>
        <time>2022-02-25T13:02:09Z</time>
      </trkpt>
      <trkpt lat="44.79408" lon="7.00426">
        <ele>2528.8</ele>
        <time>2022-02-25T13:02:10Z</time>
      </trkpt>
      <trkpt lat="44.79408" lon="7.00425">
        <ele>2528.7</ele>
        <time>2022-02-25T13:02:11Z</time>
      </trkpt>
      <trkpt lat="44.79408" lon="7.00425">
        <ele>2528.7</ele>
        <time>2022-02-25T13:02:12Z</time>
      </trkpt>
      <trkpt lat="44.79408" lon="7.00425">
        <ele>2528.7</ele>
        <time>2022-02-25T13:02:13Z</time>
      </trkpt>
      <trkpt lat="44.79408" lon="7.00425">
        <ele>2528.7</ele>
        <time>2022-02-25T13:02:14Z</time>
      </trkpt>
      <trkpt lat="44.79408" lon="7.00425">
        <ele>2528.7</ele>
        <time>2022-02-25T13:02:15Z</time>
      </trkpt>
      <trkpt lat="44.79408" lon="7.00425">
        <ele>2528.7</ele>
        <time>2022-02-25T13:02:16Z</time>
      </trkpt>
      <trkpt lat="44.79408" lon="7.00425">
        <ele>2528.7</ele>
        <time>2022-02-25T13:02:17Z</time>
      </trkpt>
      <trkpt lat="44.79408" lon="7.00425">
        <ele>2528.7</ele>
        <time>2022-02-25T13:02:18Z</time>
      </trkpt>
      <trkpt lat="44.79408" lon="7.00425">
        <ele>2528.7</ele>
        <time>2022-02-25T13:02:19Z</time>
      </trkpt>
      <trkpt lat="44.79408" lon="7.00424">
        <ele>2528.7</ele>
        <time>2022-02-25T13:02:20Z</time>
      </trkpt>
      <trkpt lat="44.79408" lon="7.00424">
        <ele>2528.7</ele>
        <time>2022-02-25T13:02:21Z</time>
      </trkpt>
      <trkpt lat="44.79408" lon="7.00424">
        <ele>2528.7</ele>
        <time>2022-02-25T13:02:22Z</time>
      </trkpt>
      <trkpt lat="44.79408" lon="7.00424">
        <ele>2528.7</ele>
        <time>2022-02-25T13:02:23Z</time>
      </trkpt>
      <trkpt lat="44.79408" lon="7.00424">
        <ele>2528.7</ele>
        <time>2022-02-25T13:02:24Z</time>
      </trkpt>
      <trkpt lat="44.79408" lon="7.00424">
        <ele>2528.7</ele>
        <time>2022-02-25T13:02:25Z</time>
      </trkpt>
      <trkpt lat="44.79408" lon="7.00424">
        <ele>2528.7</ele>
        <time>2022-02-25T13:02:26Z</time>
      </trkpt>
      <trkpt lat="44.79408" lon="7.00424">
        <ele>2528.7</ele>
        <time>2022-02-25T13:02:27Z</time>
      </trkpt>
      <trkpt lat="44.79408" lon="7.00423">
        <ele>2528.6</ele>
        <time>2022-02-25T13:02:28Z</time>
      </trkpt>
      <trkpt lat="44.79408" lon="7.00423">
        <ele>2528.6</ele>
        <time>2022-02-25T13:02:29Z</time>
      </trkpt>
      <trkpt lat="44.79408" lon="7.00423">
        <ele>2528.6</ele>
        <time>2022-02-25T13:02:30Z</time>
      </trkpt>
      <trkpt lat="44.79408" lon="7.00423">
        <ele>2528.6</ele>
        <time>2022-02-25T13:02:31Z</time>
      </trkpt>
      <trkpt lat="44.79408" lon="7.00423">
        <ele>2528.6</ele>
        <time>2022-02-25T13:02:32Z</time>
      </trkpt>
      <trkpt lat="44.79408" lon="7.00423">
        <ele>2528.6</ele>
        <time>2022-02-25T13:02:33Z</time>
      </trkpt>
      <trkpt lat="44.79408" lon="7.00423">
        <ele>2528.6</ele>
        <time>2022-02-25T13:02:34Z</time>
      </trkpt>
      <trkpt lat="44.79408" lon="7.00423">
        <ele>2528.6</ele>
        <time>2022-02-25T13:02:35Z</time>
      </trkpt>
      <trkpt lat="44.79408" lon="7.00423">
        <ele>2528.6</ele>
        <time>2022-02-25T13:02:36Z</time>
      </trkpt>
      <trkpt lat="44.79408" lon="7.00422">
        <ele>2528.6</ele>
        <time>2022-02-25T13:02:37Z</time>
      </trkpt>
      <trkpt lat="44.79408" lon="7.00422">
        <ele>2528.6</ele>
        <time>2022-02-25T13:02:38Z</time>
      </trkpt>
      <trkpt lat="44.79408" lon="7.00422">
        <ele>2528.6</ele>
        <time>2022-02-25T13:02:39Z</time>
      </trkpt>
      <trkpt lat="44.79408" lon="7.00422">
        <ele>2528.6</ele>
        <time>2022-02-25T13:02:40Z</time>
      </trkpt>
      <trkpt lat="44.79408" lon="7.00422">
        <ele>2528.6</ele>
        <time>2022-02-25T13:02:41Z</time>
      </trkpt>
      <trkpt lat="44.79408" lon="7.00422">
        <ele>2528.6</ele>
        <time>2022-02-25T13:02:42Z</time>
      </trkpt>
      <trkpt lat="44.79408" lon="7.00422">
        <ele>2528.6</ele>
        <time>2022-02-25T13:02:43Z</time>
      </trkpt>
      <trkpt lat="44.79408" lon="7.00422">
        <ele>2528.6</ele>
        <time>2022-02-25T13:02:44Z</time>
      </trkpt>
      <trkpt lat="44.79408" lon="7.00422">
        <ele>2528.6</ele>
        <time>2022-02-25T13:02:45Z</time>
      </trkpt>
      <trkpt lat="44.79408" lon="7.00421">
        <ele>2528.5</ele>
        <time>2022-02-25T13:02:46Z</time>
      </trkpt>
      <trkpt lat="44.79408" lon="7.00421">
        <ele>2528.5</ele>
        <time>2022-02-25T13:02:47Z</time>
      </trkpt>
      <trkpt lat="44.79408" lon="7.00421">
        <ele>2528.5</ele>
        <time>2022-02-25T13:02:48Z</time>
      </trkpt>
      <trkpt lat="44.79408" lon="7.00421">
        <ele>2528.5</ele>
        <time>2022-02-25T13:02:49Z</time>
      </trkpt>
      <trkpt lat="44.79408" lon="7.00421">
        <ele>2528.5</ele>
        <time>2022-02-25T13:02:50Z</time>
      </trkpt>
      <trkpt lat="44.79408" lon="7.00421">
        <ele>2528.5</ele>
        <time>2022-02-25T13:02:51Z</time>
      </trkpt>
      <trkpt lat="44.79408" lon="7.00421">
        <ele>2528.5</ele>
        <time>2022-02-25T13:02:52Z</time>
      </trkpt>
      <trkpt lat="44.79408" lon="7.00421">
        <ele>2528.5</ele>
        <time>2022-02-25T13:02:53Z</time>
      </trkpt>
      <trkpt lat="44.79408" lon="7.00421">
        <ele>2528.5</ele>
        <time>2022-02-25T13:02:54Z</time>
      </trkpt>
      <trkpt lat="44.79408" lon="7.00421">
        <ele>2528.5</ele>
        <time>2022-02-25T13:02:55Z</time>
      </trkpt>
      <trkpt lat="44.79408" lon="7.00421">
        <ele>2528.5</ele>
        <time>2022-02-25T13:02:56Z</time>
      </trkpt>
      <trkpt lat="44.79408" lon="7.00421">
        <ele>2528.5</ele>
        <time>2022-02-25T13:02:57Z</time>
      </trkpt>
      <trkpt lat="44.79408" lon="7.00421">
        <ele>2528.5</ele>
        <time>2022-02-25T13:02:58Z</time>
      </trkpt>
      <trkpt lat="44.79408" lon="7.00421">
        <ele>2528.5</ele>
        <time>2022-02-25T13:02:59Z</time>
      </trkpt>
      <trkpt lat="44.79408" lon="7.00421">
        <ele>2528.5</ele>
        <time>2022-02-25T13:03:00Z</time>
      </trkpt>
      <trkpt lat="44.79408" lon="7.00421">
        <ele>2528.5</ele>
        <time>2022-02-25T13:03:01Z</time>
      </trkpt>
      <trkpt lat="44.79408" lon="7.00421">
        <ele>2528.5</ele>
        <time>2022-02-25T13:03:02Z</time>
      </trkpt>
      <trkpt lat="44.79408" lon="7.00421">
        <ele>2528.5</ele>
        <time>2022-02-25T13:03:03Z</time>
      </trkpt>
      <trkpt lat="44.79408" lon="7.00421">
        <ele>2528.5</ele>
        <time>2022-02-25T13:03:04Z</time>
      </trkpt>
      <trkpt lat="44.79408" lon="7.00421">
        <ele>2528.5</ele>
        <time>2022-02-25T13:03:05Z</time>
      </trkpt>
      <trkpt lat="44.79408" lon="7.00421">
        <ele>2528.5</ele>
        <time>2022-02-25T13:03:06Z</time>
      </trkpt>
      <trkpt lat="44.79408" lon="7.00421">
        <ele>2528.5</ele>
        <time>2022-02-25T13:03:07Z</time>
      </trkpt>
      <trkpt lat="44.79408" lon="7.00421">
        <ele>2528.5</ele>
        <time>2022-02-25T13:03:08Z</time>
      </trkpt>
      <trkpt lat="44.79408" lon="7.00421">
        <ele>2528.5</ele>
        <time>2022-02-25T13:03:09Z</time>
      </trkpt>
      <trkpt lat="44.79408" lon="7.00421">
        <ele>2528.5</ele>
        <time>2022-02-25T13:03:10Z</time>
      </trkpt>
      <trkpt lat="44.79408" lon="7.00421">
        <ele>2528.5</ele>
        <time>2022-02-25T13:03:11Z</time>
      </trkpt>
      <trkpt lat="44.79408" lon="7.00421">
        <ele>2528.5</ele>
        <time>2022-02-25T13:03:12Z</time>
      </trkpt>
      <trkpt lat="44.79408" lon="7.00421">
        <ele>2528.5</ele>
        <time>2022-02-25T13:03:13Z</time>
      </trkpt>
      <trkpt lat="44.79408" lon="7.00421">
        <ele>2528.5</ele>
        <time>2022-02-25T13:03:14Z</time>
      </trkpt>
      <trkpt lat="44.79408" lon="7.00421">
        <ele>2528.5</ele>
        <time>2022-02-25T13:03:15Z</time>
      </trkpt>
      <trkpt lat="44.79408" lon="7.00421">
        <ele>2528.5</ele>
        <time>2022-02-25T13:03:16Z</time>
      </trkpt>
      <trkpt lat="44.79408" lon="7.00421">
        <ele>2528.5</ele>
        <time>2022-02-25T13:03:17Z</time>
      </trkpt>
      <trkpt lat="44.79408" lon="7.00421">
        <ele>2528.5</ele>
        <time>2022-02-25T13:03:18Z</time>
      </trkpt>
      <trkpt lat="44.79408" lon="7.00421">
        <ele>2528.5</ele>
        <time>2022-02-25T13:03:19Z</time>
      </trkpt>
      <trkpt lat="44.79408" lon="7.00421">
        <ele>2528.5</ele>
        <time>2022-02-25T13:03:20Z</time>
      </trkpt>
      <trkpt lat="44.79408" lon="7.00421">
        <ele>2528.5</ele>
        <time>2022-02-25T13:03:21Z</time>
      </trkpt>
      <trkpt lat="44.79408" lon="7.00421">
        <ele>2528.5</ele>
        <time>2022-02-25T13:03:22Z</time>
      </trkpt>
      <trkpt lat="44.79408" lon="7.00421">
        <ele>2528.5</ele>
        <time>2022-02-25T13:03:23Z</time>
      </trkpt>
      <trkpt lat="44.79408" lon="7.00421">
        <ele>2528.5</ele>
        <time>2022-02-25T13:03:24Z</time>
      </trkpt>
      <trkpt lat="44.79408" lon="7.00421">
        <ele>2528.5</ele>
        <time>2022-02-25T13:03:25Z</time>
      </trkpt>
      <trkpt lat="44.79408" lon="7.00421">
        <ele>2528.5</ele>
        <time>2022-02-25T13:03:26Z</time>
      </trkpt>
      <trkpt lat="44.79408" lon="7.00421">
        <ele>2528.5</ele>
        <time>2022-02-25T13:03:27Z</time>
      </trkpt>
      <trkpt lat="44.79408" lon="7.00421">
        <ele>2528.5</ele>
        <time>2022-02-25T13:03:28Z</time>
      </trkpt>
      <trkpt lat="44.79408" lon="7.00421">
        <ele>2528.5</ele>
        <time>2022-02-25T13:03:29Z</time>
      </trkpt>
      <trkpt lat="44.79408" lon="7.00421">
        <ele>2528.5</ele>
        <time>2022-02-25T13:03:30Z</time>
      </trkpt>
      <trkpt lat="44.79408" lon="7.00421">
        <ele>2528.5</ele>
        <time>2022-02-25T13:03:31Z</time>
      </trkpt>
      <trkpt lat="44.79408" lon="7.00421">
        <ele>2528.5</ele>
        <time>2022-02-25T13:03:32Z</time>
      </trkpt>
      <trkpt lat="44.79408" lon="7.00421">
        <ele>2528.5</ele>
        <time>2022-02-25T13:03:33Z</time>
      </trkpt>
      <trkpt lat="44.79408" lon="7.00421">
        <ele>2528.5</ele>
        <time>2022-02-25T13:03:34Z</time>
      </trkpt>
      <trkpt lat="44.79408" lon="7.00421">
        <ele>2528.5</ele>
        <time>2022-02-25T13:03:35Z</time>
      </trkpt>
      <trkpt lat="44.79408" lon="7.00421">
        <ele>2528.5</ele>
        <time>2022-02-25T13:03:36Z</time>
      </trkpt>
      <trkpt lat="44.79408" lon="7.00421">
        <ele>2528.5</ele>
        <time>2022-02-25T13:03:37Z</time>
      </trkpt>
      <trkpt lat="44.79408" lon="7.00421">
        <ele>2528.5</ele>
        <time>2022-02-25T13:03:38Z</time>
      </trkpt>
      <trkpt lat="44.79408" lon="7.00421">
        <ele>2528.5</ele>
        <time>2022-02-25T13:03:39Z</time>
      </trkpt>
      <trkpt lat="44.79408" lon="7.00421">
        <ele>2528.5</ele>
        <time>2022-02-25T13:03:40Z</time>
      </trkpt>
      <trkpt lat="44.79408" lon="7.00421">
        <ele>2528.5</ele>
        <time>2022-02-25T13:03:41Z</time>
      </trkpt>
      <trkpt lat="44.79408" lon="7.00421">
        <ele>2528.5</ele>
        <time>2022-02-25T13:03:42Z</time>
      </trkpt>
      <trkpt lat="44.79408" lon="7.00421">
        <ele>2528.5</ele>
        <time>2022-02-25T13:03:43Z</time>
      </trkpt>
      <trkpt lat="44.79408" lon="7.00421">
        <ele>2528.5</ele>
        <time>2022-02-25T13:03:44Z</time>
      </trkpt>
      <trkpt lat="44.79408" lon="7.00421">
        <ele>2528.5</ele>
        <time>2022-02-25T13:03:45Z</time>
      </trkpt>
      <trkpt lat="44.79408" lon="7.00421">
        <ele>2528.5</ele>
        <time>2022-02-25T13:03:46Z</time>
      </trkpt>
      <trkpt lat="44.79408" lon="7.00421">
        <ele>2528.5</ele>
        <time>2022-02-25T13:03:47Z</time>
      </trkpt>
      <trkpt lat="44.79408" lon="7.00421">
        <ele>2528.5</ele>
        <time>2022-02-25T13:03:48Z</time>
      </trkpt>
      <trkpt lat="44.79408" lon="7.00421">
        <ele>2528.5</ele>
        <time>2022-02-25T13:03:49Z</time>
      </trkpt>
      <trkpt lat="44.79408" lon="7.00421">
        <ele>2528.5</ele>
        <time>2022-02-25T13:03:50Z</time>
      </trkpt>
      <trkpt lat="44.79408" lon="7.00421">
        <ele>2528.5</ele>
        <time>2022-02-25T13:03:51Z</time>
      </trkpt>
      <trkpt lat="44.79408" lon="7.00421">
        <ele>2528.5</ele>
        <time>2022-02-25T13:03:52Z</time>
      </trkpt>
      <trkpt lat="44.79408" lon="7.00421">
        <ele>2528.5</ele>
        <time>2022-02-25T13:03:53Z</time>
      </trkpt>
      <trkpt lat="44.79408" lon="7.00421">
        <ele>2528.5</ele>
        <time>2022-02-25T13:03:54Z</time>
      </trkpt>
      <trkpt lat="44.79408" lon="7.00421">
        <ele>2528.5</ele>
        <time>2022-02-25T13:03:55Z</time>
      </trkpt>
      <trkpt lat="44.79408" lon="7.00421">
        <ele>2528.5</ele>
        <time>2022-02-25T13:03:56Z</time>
      </trkpt>
      <trkpt lat="44.79408" lon="7.00421">
        <ele>2528.5</ele>
        <time>2022-02-25T13:03:57Z</time>
      </trkpt>
      <trkpt lat="44.79408" lon="7.00421">
        <ele>2528.5</ele>
        <time>2022-02-25T13:03:58Z</time>
      </trkpt>
      <trkpt lat="44.79408" lon="7.00421">
        <ele>2528.5</ele>
        <time>2022-02-25T13:03:59Z</time>
      </trkpt>
      <trkpt lat="44.79408" lon="7.00421">
        <ele>2528.5</ele>
        <time>2022-02-25T13:04:00Z</time>
      </trkpt>
      <trkpt lat="44.79408" lon="7.00421">
        <ele>2528.5</ele>
        <time>2022-02-25T13:04:01Z</time>
      </trkpt>
      <trkpt lat="44.79408" lon="7.00421">
        <ele>2528.5</ele>
        <time>2022-02-25T13:04:02Z</time>
      </trkpt>
      <trkpt lat="44.79408" lon="7.00421">
        <ele>2528.5</ele>
        <time>2022-02-25T13:04:03Z</time>
      </trkpt>
      <trkpt lat="44.79408" lon="7.00421">
        <ele>2528.5</ele>
        <time>2022-02-25T13:04:04Z</time>
      </trkpt>
      <trkpt lat="44.79408" lon="7.00421">
        <ele>2528.5</ele>
        <time>2022-02-25T13:04:05Z</time>
      </trkpt>
      <trkpt lat="44.79408" lon="7.00421">
        <ele>2528.5</ele>
        <time>2022-02-25T13:04:06Z</time>
      </trkpt>
      <trkpt lat="44.79408" lon="7.00421">
        <ele>2528.5</ele>
        <time>2022-02-25T13:04:07Z</time>
      </trkpt>
      <trkpt lat="44.79408" lon="7.00421">
        <ele>2528.5</ele>
        <time>2022-02-25T13:04:08Z</time>
      </trkpt>
      <trkpt lat="44.79408" lon="7.00421">
        <ele>2528.5</ele>
        <time>2022-02-25T13:04:09Z</time>
      </trkpt>
      <trkpt lat="44.79408" lon="7.00421">
        <ele>2528.5</ele>
        <time>2022-02-25T13:04:10Z</time>
      </trkpt>
      <trkpt lat="44.79408" lon="7.00421">
        <ele>2528.5</ele>
        <time>2022-02-25T13:04:11Z</time>
      </trkpt>
      <trkpt lat="44.79408" lon="7.00421">
        <ele>2528.5</ele>
        <time>2022-02-25T13:04:12Z</time>
      </trkpt>
      <trkpt lat="44.79408" lon="7.00421">
        <ele>2528.5</ele>
        <time>2022-02-25T13:04:13Z</time>
      </trkpt>
      <trkpt lat="44.79408" lon="7.00421">
        <ele>2528.5</ele>
        <time>2022-02-25T13:04:14Z</time>
      </trkpt>
      <trkpt lat="44.79408" lon="7.00421">
        <ele>2528.5</ele>
        <time>2022-02-25T13:04:15Z</time>
      </trkpt>
      <trkpt lat="44.79408" lon="7.00421">
        <ele>2528.5</ele>
        <time>2022-02-25T13:04:16Z</time>
      </trkpt>
      <trkpt lat="44.79408" lon="7.00421">
        <ele>2528.5</ele>
        <time>2022-02-25T13:04:17Z</time>
      </trkpt>
      <trkpt lat="44.79408" lon="7.00421">
        <ele>2528.5</ele>
        <time>2022-02-25T13:04:18Z</time>
      </trkpt>
      <trkpt lat="44.79408" lon="7.00421">
        <ele>2528.5</ele>
        <time>2022-02-25T13:04:19Z</time>
      </trkpt>
      <trkpt lat="44.79408" lon="7.00421">
        <ele>2528.5</ele>
        <time>2022-02-25T13:04:20Z</time>
      </trkpt>
      <trkpt lat="44.79408" lon="7.00421">
        <ele>2528.5</ele>
        <time>2022-02-25T13:04:21Z</time>
      </trkpt>
      <trkpt lat="44.79408" lon="7.00421">
        <ele>2528.5</ele>
        <time>2022-02-25T13:04:22Z</time>
      </trkpt>
      <trkpt lat="44.79408" lon="7.00421">
        <ele>2528.5</ele>
        <time>2022-02-25T13:04:23Z</time>
      </trkpt>
      <trkpt lat="44.79408" lon="7.00421">
        <ele>2528.5</ele>
        <time>2022-02-25T13:04:24Z</time>
      </trkpt>
      <trkpt lat="44.79408" lon="7.00421">
        <ele>2528.5</ele>
        <time>2022-02-25T13:04:25Z</time>
      </trkpt>
      <trkpt lat="44.79408" lon="7.00421">
        <ele>2528.5</ele>
        <time>2022-02-25T13:04:26Z</time>
      </trkpt>
      <trkpt lat="44.79408" lon="7.00421">
        <ele>2528.5</ele>
        <time>2022-02-25T13:04:27Z</time>
      </trkpt>
      <trkpt lat="44.79408" lon="7.00421">
        <ele>2528.5</ele>
        <time>2022-02-25T13:04:28Z</time>
      </trkpt>
      <trkpt lat="44.79408" lon="7.00421">
        <ele>2528.5</ele>
        <time>2022-02-25T13:04:29Z</time>
      </trkpt>
      <trkpt lat="44.79408" lon="7.00421">
        <ele>2528.5</ele>
        <time>2022-02-25T13:04:30Z</time>
      </trkpt>
      <trkpt lat="44.79408" lon="7.00421">
        <ele>2528.5</ele>
        <time>2022-02-25T13:04:31Z</time>
      </trkpt>
      <trkpt lat="44.79408" lon="7.00421">
        <ele>2528.5</ele>
        <time>2022-02-25T13:04:32Z</time>
      </trkpt>
      <trkpt lat="44.79408" lon="7.00421">
        <ele>2528.5</ele>
        <time>2022-02-25T13:04:33Z</time>
      </trkpt>
      <trkpt lat="44.79408" lon="7.00421">
        <ele>2528.5</ele>
        <time>2022-02-25T13:04:34Z</time>
      </trkpt>
      <trkpt lat="44.79408" lon="7.00421">
        <ele>2528.5</ele>
        <time>2022-02-25T13:04:35Z</time>
      </trkpt>
      <trkpt lat="44.79408" lon="7.00421">
        <ele>2528.5</ele>
        <time>2022-02-25T13:04:36Z</time>
      </trkpt>
      <trkpt lat="44.79408" lon="7.00421">
        <ele>2528.5</ele>
        <time>2022-02-25T13:04:37Z</time>
      </trkpt>
      <trkpt lat="44.79408" lon="7.00421">
        <ele>2528.5</ele>
        <time>2022-02-25T13:04:38Z</time>
      </trkpt>
      <trkpt lat="44.79408" lon="7.00421">
        <ele>2528.5</ele>
        <time>2022-02-25T13:04:39Z</time>
      </trkpt>
      <trkpt lat="44.79408" lon="7.00421">
        <ele>2528.5</ele>
        <time>2022-02-25T13:04:40Z</time>
      </trkpt>
      <trkpt lat="44.79408" lon="7.00421">
        <ele>2528.5</ele>
        <time>2022-02-25T13:04:41Z</time>
      </trkpt>
      <trkpt lat="44.79408" lon="7.00421">
        <ele>2528.5</ele>
        <time>2022-02-25T13:04:42Z</time>
      </trkpt>
      <trkpt lat="44.79408" lon="7.00421">
        <ele>2528.5</ele>
        <time>2022-02-25T13:04:43Z</time>
      </trkpt>
      <trkpt lat="44.79408" lon="7.00421">
        <ele>2528.5</ele>
        <time>2022-02-25T13:04:44Z</time>
      </trkpt>
      <trkpt lat="44.79408" lon="7.00421">
        <ele>2528.5</ele>
        <time>2022-02-25T13:04:45Z</time>
      </trkpt>
      <trkpt lat="44.79408" lon="7.00421">
        <ele>2528.5</ele>
        <time>2022-02-25T13:04:46Z</time>
      </trkpt>
      <trkpt lat="44.79408" lon="7.00421">
        <ele>2528.5</ele>
        <time>2022-02-25T13:04:47Z</time>
      </trkpt>
      <trkpt lat="44.79408" lon="7.00421">
        <ele>2528.5</ele>
        <time>2022-02-25T13:04:48Z</time>
      </trkpt>
      <trkpt lat="44.79408" lon="7.00421">
        <ele>2528.5</ele>
        <time>2022-02-25T13:04:49Z</time>
      </trkpt>
      <trkpt lat="44.79408" lon="7.00421">
        <ele>2528.5</ele>
        <time>2022-02-25T13:04:50Z</time>
      </trkpt>
      <trkpt lat="44.79408" lon="7.00421">
        <ele>2528.5</ele>
        <time>2022-02-25T13:04:51Z</time>
      </trkpt>
      <trkpt lat="44.79408" lon="7.00421">
        <ele>2528.5</ele>
        <time>2022-02-25T13:04:52Z</time>
      </trkpt>
      <trkpt lat="44.79408" lon="7.00421">
        <ele>2528.5</ele>
        <time>2022-02-25T13:04:53Z</time>
      </trkpt>
      <trkpt lat="44.79408" lon="7.00421">
        <ele>2528.5</ele>
        <time>2022-02-25T13:04:54Z</time>
      </trkpt>
      <trkpt lat="44.79408" lon="7.00421">
        <ele>2528.5</ele>
        <time>2022-02-25T13:04:55Z</time>
      </trkpt>
      <trkpt lat="44.79408" lon="7.00421">
        <ele>2528.5</ele>
        <time>2022-02-25T13:04:56Z</time>
      </trkpt>
      <trkpt lat="44.79408" lon="7.00421">
        <ele>2528.5</ele>
        <time>2022-02-25T13:04:57Z</time>
      </trkpt>
      <trkpt lat="44.79408" lon="7.00421">
        <ele>2528.5</ele>
        <time>2022-02-25T13:04:58Z</time>
      </trkpt>
      <trkpt lat="44.79408" lon="7.00421">
        <ele>2528.5</ele>
        <time>2022-02-25T13:04:59Z</time>
      </trkpt>
      <trkpt lat="44.79408" lon="7.00421">
        <ele>2528.5</ele>
        <time>2022-02-25T13:05:00Z</time>
      </trkpt>
      <trkpt lat="44.79408" lon="7.00421">
        <ele>2528.5</ele>
        <time>2022-02-25T13:05:01Z</time>
      </trkpt>
      <trkpt lat="44.79408" lon="7.00421">
        <ele>2528.5</ele>
        <time>2022-02-25T13:05:02Z</time>
      </trkpt>
      <trkpt lat="44.79408" lon="7.00421">
        <ele>2528.5</ele>
        <time>2022-02-25T13:05:03Z</time>
      </trkpt>
      <trkpt lat="44.79408" lon="7.00421">
        <ele>2528.5</ele>
        <time>2022-02-25T13:05:04Z</time>
      </trkpt>
      <trkpt lat="44.79408" lon="7.00421">
        <ele>2528.5</ele>
        <time>2022-02-25T13:05:05Z</time>
      </trkpt>
      <trkpt lat="44.79408" lon="7.00421">
        <ele>2528.5</ele>
        <time>2022-02-25T13:05:06Z</time>
      </trkpt>
      <trkpt lat="44.79408" lon="7.00421">
        <ele>2528.5</ele>
        <time>2022-02-25T13:05:07Z</time>
      </trkpt>
      <trkpt lat="44.79408" lon="7.00421">
        <ele>2528.5</ele>
        <time>2022-02-25T13:05:08Z</time>
      </trkpt>
      <trkpt lat="44.79408" lon="7.00421">
        <ele>2528.5</ele>
        <time>2022-02-25T13:05:09Z</time>
      </trkpt>
      <trkpt lat="44.79408" lon="7.00421">
        <ele>2528.5</ele>
        <time>2022-02-25T13:05:10Z</time>
      </trkpt>
      <trkpt lat="44.79408" lon="7.00421">
        <ele>2528.5</ele>
        <time>2022-02-25T13:05:11Z</time>
      </trkpt>
      <trkpt lat="44.79408" lon="7.00421">
        <ele>2528.5</ele>
        <time>2022-02-25T13:05:12Z</time>
      </trkpt>
      <trkpt lat="44.79408" lon="7.00421">
        <ele>2528.5</ele>
        <time>2022-02-25T13:05:13Z</time>
      </trkpt>
      <trkpt lat="44.79408" lon="7.00421">
        <ele>2528.5</ele>
        <time>2022-02-25T13:05:14Z</time>
      </trkpt>
      <trkpt lat="44.79408" lon="7.00421">
        <ele>2528.5</ele>
        <time>2022-02-25T13:05:15Z</time>
      </trkpt>
      <trkpt lat="44.79408" lon="7.00421">
        <ele>2528.5</ele>
        <time>2022-02-25T13:05:16Z</time>
      </trkpt>
      <trkpt lat="44.79408" lon="7.00421">
        <ele>2528.5</ele>
        <time>2022-02-25T13:05:17Z</time>
      </trkpt>
      <trkpt lat="44.79408" lon="7.00421">
        <ele>2528.5</ele>
        <time>2022-02-25T13:05:18Z</time>
      </trkpt>
      <trkpt lat="44.79408" lon="7.00421">
        <ele>2528.5</ele>
        <time>2022-02-25T13:05:19Z</time>
      </trkpt>
      <trkpt lat="44.79408" lon="7.00421">
        <ele>2528.5</ele>
        <time>2022-02-25T13:05:20Z</time>
      </trkpt>
      <trkpt lat="44.79408" lon="7.00421">
        <ele>2528.5</ele>
        <time>2022-02-25T13:05:21Z</time>
      </trkpt>
      <trkpt lat="44.79408" lon="7.00421">
        <ele>2528.5</ele>
        <time>2022-02-25T13:05:22Z</time>
      </trkpt>
      <trkpt lat="44.79408" lon="7.00421">
        <ele>2528.5</ele>
        <time>2022-02-25T13:05:23Z</time>
      </trkpt>
      <trkpt lat="44.79408" lon="7.00421">
        <ele>2528.5</ele>
        <time>2022-02-25T13:05:24Z</time>
      </trkpt>
      <trkpt lat="44.79408" lon="7.00421">
        <ele>2528.5</ele>
        <time>2022-02-25T13:05:25Z</time>
      </trkpt>
      <trkpt lat="44.79408" lon="7.00421">
        <ele>2528.5</ele>
        <time>2022-02-25T13:05:26Z</time>
      </trkpt>
      <trkpt lat="44.79408" lon="7.00421">
        <ele>2528.5</ele>
        <time>2022-02-25T13:05:27Z</time>
      </trkpt>
      <trkpt lat="44.79408" lon="7.00421">
        <ele>2528.5</ele>
        <time>2022-02-25T13:05:28Z</time>
      </trkpt>
      <trkpt lat="44.79408" lon="7.00421">
        <ele>2528.5</ele>
        <time>2022-02-25T13:05:29Z</time>
      </trkpt>
      <trkpt lat="44.79408" lon="7.00421">
        <ele>2528.5</ele>
        <time>2022-02-25T13:05:30Z</time>
      </trkpt>
      <trkpt lat="44.79408" lon="7.00421">
        <ele>2528.5</ele>
        <time>2022-02-25T13:05:31Z</time>
      </trkpt>
      <trkpt lat="44.79408" lon="7.00421">
        <ele>2528.5</ele>
        <time>2022-02-25T13:05:32Z</time>
      </trkpt>
      <trkpt lat="44.79408" lon="7.00421">
        <ele>2528.5</ele>
        <time>2022-02-25T13:05:33Z</time>
      </trkpt>
      <trkpt lat="44.79408" lon="7.00421">
        <ele>2528.5</ele>
        <time>2022-02-25T13:05:34Z</time>
      </trkpt>
      <trkpt lat="44.79408" lon="7.00421">
        <ele>2528.5</ele>
        <time>2022-02-25T13:05:35Z</time>
      </trkpt>
      <trkpt lat="44.79408" lon="7.00421">
        <ele>2528.5</ele>
        <time>2022-02-25T13:05:36Z</time>
      </trkpt>
      <trkpt lat="44.79408" lon="7.00421">
        <ele>2528.5</ele>
        <time>2022-02-25T13:05:37Z</time>
      </trkpt>
      <trkpt lat="44.79408" lon="7.00421">
        <ele>2528.5</ele>
        <time>2022-02-25T13:05:38Z</time>
      </trkpt>
      <trkpt lat="44.79408" lon="7.00421">
        <ele>2528.5</ele>
        <time>2022-02-25T13:05:39Z</time>
      </trkpt>
      <trkpt lat="44.79408" lon="7.00421">
        <ele>2528.5</ele>
        <time>2022-02-25T13:05:40Z</time>
      </trkpt>
      <trkpt lat="44.79408" lon="7.00421">
        <ele>2528.5</ele>
        <time>2022-02-25T13:05:41Z</time>
      </trkpt>
      <trkpt lat="44.79408" lon="7.00421">
        <ele>2528.5</ele>
        <time>2022-02-25T13:05:42Z</time>
      </trkpt>
      <trkpt lat="44.79408" lon="7.00421">
        <ele>2528.5</ele>
        <time>2022-02-25T13:05:43Z</time>
      </trkpt>
      <trkpt lat="44.79408" lon="7.00421">
        <ele>2528.5</ele>
        <time>2022-02-25T13:05:44Z</time>
      </trkpt>
      <trkpt lat="44.79408" lon="7.00421">
        <ele>2528.5</ele>
        <time>2022-02-25T13:05:45Z</time>
      </trkpt>
      <trkpt lat="44.79408" lon="7.00421">
        <ele>2528.5</ele>
        <time>2022-02-25T13:05:46Z</time>
      </trkpt>
      <trkpt lat="44.79408" lon="7.00421">
        <ele>2528.5</ele>
        <time>2022-02-25T13:05:47Z</time>
      </trkpt>
      <trkpt lat="44.79408" lon="7.00421">
        <ele>2528.5</ele>
        <time>2022-02-25T13:05:48Z</time>
      </trkpt>
      <trkpt lat="44.79408" lon="7.00421">
        <ele>2528.5</ele>
        <time>2022-02-25T13:05:49Z</time>
      </trkpt>
      <trkpt lat="44.79408" lon="7.00421">
        <ele>2528.5</ele>
        <time>2022-02-25T13:05:50Z</time>
      </trkpt>
      <trkpt lat="44.79408" lon="7.00421">
        <ele>2528.5</ele>
        <time>2022-02-25T13:05:51Z</time>
      </trkpt>
      <trkpt lat="44.79408" lon="7.00421">
        <ele>2528.5</ele>
        <time>2022-02-25T13:05:52Z</time>
      </trkpt>
      <trkpt lat="44.79408" lon="7.00421">
        <ele>2528.5</ele>
        <time>2022-02-25T13:05:53Z</time>
      </trkpt>
      <trkpt lat="44.79408" lon="7.00421">
        <ele>2528.5</ele>
        <time>2022-02-25T13:05:54Z</time>
      </trkpt>
      <trkpt lat="44.79408" lon="7.00421">
        <ele>2528.5</ele>
        <time>2022-02-25T13:05:55Z</time>
      </trkpt>
      <trkpt lat="44.79408" lon="7.00421">
        <ele>2528.5</ele>
        <time>2022-02-25T13:05:56Z</time>
      </trkpt>
      <trkpt lat="44.79408" lon="7.00421">
        <ele>2528.5</ele>
        <time>2022-02-25T13:05:57Z</time>
      </trkpt>
      <trkpt lat="44.79408" lon="7.00421">
        <ele>2528.5</ele>
        <time>2022-02-25T13:05:58Z</time>
      </trkpt>
      <trkpt lat="44.79408" lon="7.00421">
        <ele>2528.5</ele>
        <time>2022-02-25T13:05:59Z</time>
      </trkpt>
      <trkpt lat="44.79408" lon="7.00421">
        <ele>2528.5</ele>
        <time>2022-02-25T13:06:00Z</time>
      </trkpt>
      <trkpt lat="44.79408" lon="7.00421">
        <ele>2528.5</ele>
        <time>2022-02-25T13:06:01Z</time>
      </trkpt>
      <trkpt lat="44.79408" lon="7.00421">
        <ele>2528.5</ele>
        <time>2022-02-25T13:06:02Z</time>
      </trkpt>
      <trkpt lat="44.79408" lon="7.00421">
        <ele>2528.5</ele>
        <time>2022-02-25T13:06:03Z</time>
      </trkpt>
      <trkpt lat="44.79408" lon="7.00421">
        <ele>2528.5</ele>
        <time>2022-02-25T13:06:04Z</time>
      </trkpt>
      <trkpt lat="44.79408" lon="7.00421">
        <ele>2528.5</ele>
        <time>2022-02-25T13:06:05Z</time>
      </trkpt>
      <trkpt lat="44.79408" lon="7.00421">
        <ele>2528.5</ele>
        <time>2022-02-25T13:06:06Z</time>
      </trkpt>
      <trkpt lat="44.79408" lon="7.00421">
        <ele>2528.5</ele>
        <time>2022-02-25T13:06:07Z</time>
      </trkpt>
      <trkpt lat="44.79408" lon="7.00421">
        <ele>2528.5</ele>
        <time>2022-02-25T13:06:08Z</time>
      </trkpt>
      <trkpt lat="44.79408" lon="7.00421">
        <ele>2528.5</ele>
        <time>2022-02-25T13:06:09Z</time>
      </trkpt>
      <trkpt lat="44.79408" lon="7.00421">
        <ele>2528.5</ele>
        <time>2022-02-25T13:06:10Z</time>
      </trkpt>
      <trkpt lat="44.79408" lon="7.00421">
        <ele>2528.5</ele>
        <time>2022-02-25T13:06:11Z</time>
      </trkpt>
      <trkpt lat="44.79408" lon="7.00421">
        <ele>2528.5</ele>
        <time>2022-02-25T13:06:12Z</time>
      </trkpt>
      <trkpt lat="44.79408" lon="7.00421">
        <ele>2528.5</ele>
        <time>2022-02-25T13:06:13Z</time>
      </trkpt>
      <trkpt lat="44.79408" lon="7.00421">
        <ele>2528.5</ele>
        <time>2022-02-25T13:06:14Z</time>
      </trkpt>
      <trkpt lat="44.79408" lon="7.00421">
        <ele>2528.5</ele>
        <time>2022-02-25T13:06:15Z</time>
      </trkpt>
      <trkpt lat="44.79408" lon="7.00421">
        <ele>2528.5</ele>
        <time>2022-02-25T13:06:16Z</time>
      </trkpt>
      <trkpt lat="44.79408" lon="7.00421">
        <ele>2528.5</ele>
        <time>2022-02-25T13:06:17Z</time>
      </trkpt>
      <trkpt lat="44.79408" lon="7.00421">
        <ele>2528.5</ele>
        <time>2022-02-25T13:06:18Z</time>
      </trkpt>
      <trkpt lat="44.79408" lon="7.00421">
        <ele>2528.5</ele>
        <time>2022-02-25T13:06:19Z</time>
      </trkpt>
      <trkpt lat="44.79408" lon="7.00421">
        <ele>2528.5</ele>
        <time>2022-02-25T13:06:20Z</time>
      </trkpt>
      <trkpt lat="44.79408" lon="7.00421">
        <ele>2528.5</ele>
        <time>2022-02-25T13:06:21Z</time>
      </trkpt>
      <trkpt lat="44.79408" lon="7.00421">
        <ele>2528.5</ele>
        <time>2022-02-25T13:06:22Z</time>
      </trkpt>
      <trkpt lat="44.79408" lon="7.00421">
        <ele>2528.5</ele>
        <time>2022-02-25T13:06:23Z</time>
      </trkpt>
      <trkpt lat="44.79408" lon="7.00421">
        <ele>2528.5</ele>
        <time>2022-02-25T13:06:24Z</time>
      </trkpt>
      <trkpt lat="44.79408" lon="7.00421">
        <ele>2528.5</ele>
        <time>2022-02-25T13:06:25Z</time>
      </trkpt>
      <trkpt lat="44.79408" lon="7.00421">
        <ele>2528.5</ele>
        <time>2022-02-25T13:06:26Z</time>
      </trkpt>
      <trkpt lat="44.79408" lon="7.00421">
        <ele>2528.5</ele>
        <time>2022-02-25T13:06:27Z</time>
      </trkpt>
      <trkpt lat="44.79408" lon="7.00421">
        <ele>2528.5</ele>
        <time>2022-02-25T13:06:28Z</time>
      </trkpt>
      <trkpt lat="44.79408" lon="7.00421">
        <ele>2528.5</ele>
        <time>2022-02-25T13:06:29Z</time>
      </trkpt>
      <trkpt lat="44.79408" lon="7.00421">
        <ele>2528.5</ele>
        <time>2022-02-25T13:06:30Z</time>
      </trkpt>
      <trkpt lat="44.79408" lon="7.00421">
        <ele>2528.5</ele>
        <time>2022-02-25T13:06:31Z</time>
      </trkpt>
      <trkpt lat="44.79408" lon="7.00421">
        <ele>2528.5</ele>
        <time>2022-02-25T13:06:32Z</time>
      </trkpt>
      <trkpt lat="44.79408" lon="7.00421">
        <ele>2528.5</ele>
        <time>2022-02-25T13:06:33Z</time>
      </trkpt>
      <trkpt lat="44.79408" lon="7.00421">
        <ele>2528.5</ele>
        <time>2022-02-25T13:06:34Z</time>
      </trkpt>
      <trkpt lat="44.79408" lon="7.00421">
        <ele>2528.5</ele>
        <time>2022-02-25T13:06:35Z</time>
      </trkpt>
      <trkpt lat="44.79408" lon="7.00421">
        <ele>2528.5</ele>
        <time>2022-02-25T13:06:36Z</time>
      </trkpt>
      <trkpt lat="44.79408" lon="7.00421">
        <ele>2528.5</ele>
        <time>2022-02-25T13:06:37Z</time>
      </trkpt>
      <trkpt lat="44.79408" lon="7.00421">
        <ele>2528.5</ele>
        <time>2022-02-25T13:06:38Z</time>
      </trkpt>
      <trkpt lat="44.79408" lon="7.00421">
        <ele>2528.5</ele>
        <time>2022-02-25T13:06:39Z</time>
      </trkpt>
      <trkpt lat="44.79408" lon="7.00421">
        <ele>2528.5</ele>
        <time>2022-02-25T13:06:40Z</time>
      </trkpt>
      <trkpt lat="44.79408" lon="7.00421">
        <ele>2528.5</ele>
        <time>2022-02-25T13:06:41Z</time>
      </trkpt>
      <trkpt lat="44.79408" lon="7.00421">
        <ele>2528.5</ele>
        <time>2022-02-25T13:06:42Z</time>
      </trkpt>
      <trkpt lat="44.79408" lon="7.00421">
        <ele>2528.5</ele>
        <time>2022-02-25T13:06:43Z</time>
      </trkpt>
      <trkpt lat="44.79408" lon="7.00421">
        <ele>2528.5</ele>
        <time>2022-02-25T13:06:44Z</time>
      </trkpt>
      <trkpt lat="44.79408" lon="7.00421">
        <ele>2528.5</ele>
        <time>2022-02-25T13:06:45Z</time>
      </trkpt>
      <trkpt lat="44.79408" lon="7.00421">
        <ele>2528.5</ele>
        <time>2022-02-25T13:06:46Z</time>
      </trkpt>
      <trkpt lat="44.79408" lon="7.00421">
        <ele>2528.5</ele>
        <time>2022-02-25T13:06:47Z</time>
      </trkpt>
      <trkpt lat="44.79408" lon="7.00421">
        <ele>2528.5</ele>
        <time>2022-02-25T13:06:48Z</time>
      </trkpt>
      <trkpt lat="44.79408" lon="7.00421">
        <ele>2528.5</ele>
        <time>2022-02-25T13:06:49Z</time>
      </trkpt>
      <trkpt lat="44.79408" lon="7.00421">
        <ele>2528.5</ele>
        <time>2022-02-25T13:06:50Z</time>
      </trkpt>
      <trkpt lat="44.79408" lon="7.00421">
        <ele>2528.5</ele>
        <time>2022-02-25T13:06:51Z</time>
      </trkpt>
      <trkpt lat="44.79408" lon="7.00421">
        <ele>2528.5</ele>
        <time>2022-02-25T13:06:52Z</time>
      </trkpt>
      <trkpt lat="44.79408" lon="7.00421">
        <ele>2528.5</ele>
        <time>2022-02-25T13:06:53Z</time>
      </trkpt>
      <trkpt lat="44.79408" lon="7.00421">
        <ele>2528.5</ele>
        <time>2022-02-25T13:06:54Z</time>
      </trkpt>
      <trkpt lat="44.79408" lon="7.00421">
        <ele>2528.5</ele>
        <time>2022-02-25T13:06:55Z</time>
      </trkpt>
      <trkpt lat="44.79408" lon="7.00421">
        <ele>2528.5</ele>
        <time>2022-02-25T13:06:56Z</time>
      </trkpt>
      <trkpt lat="44.79408" lon="7.00421">
        <ele>2528.5</ele>
        <time>2022-02-25T13:06:57Z</time>
      </trkpt>
      <trkpt lat="44.79408" lon="7.00421">
        <ele>2528.5</ele>
        <time>2022-02-25T13:06:58Z</time>
      </trkpt>
      <trkpt lat="44.79408" lon="7.00421">
        <ele>2528.5</ele>
        <time>2022-02-25T13:06:59Z</time>
      </trkpt>
      <trkpt lat="44.79408" lon="7.00421">
        <ele>2528.5</ele>
        <time>2022-02-25T13:07:00Z</time>
      </trkpt>
      <trkpt lat="44.79408" lon="7.00421">
        <ele>2528.5</ele>
        <time>2022-02-25T13:07:01Z</time>
      </trkpt>
      <trkpt lat="44.79408" lon="7.00421">
        <ele>2528.5</ele>
        <time>2022-02-25T13:07:02Z</time>
      </trkpt>
      <trkpt lat="44.79408" lon="7.00421">
        <ele>2528.5</ele>
        <time>2022-02-25T13:07:03Z</time>
      </trkpt>
      <trkpt lat="44.79408" lon="7.00421">
        <ele>2528.5</ele>
        <time>2022-02-25T13:07:04Z</time>
      </trkpt>
      <trkpt lat="44.79408" lon="7.00421">
        <ele>2528.5</ele>
        <time>2022-02-25T13:07:05Z</time>
      </trkpt>
      <trkpt lat="44.79408" lon="7.00421">
        <ele>2528.5</ele>
        <time>2022-02-25T13:07:06Z</time>
      </trkpt>
      <trkpt lat="44.79408" lon="7.00421">
        <ele>2528.5</ele>
        <time>2022-02-25T13:07:07Z</time>
      </trkpt>
      <trkpt lat="44.79408" lon="7.00421">
        <ele>2528.5</ele>
        <time>2022-02-25T13:07:08Z</time>
      </trkpt>
      <trkpt lat="44.79408" lon="7.00421">
        <ele>2528.5</ele>
        <time>2022-02-25T13:07:09Z</time>
      </trkpt>
      <trkpt lat="44.79408" lon="7.00421">
        <ele>2528.5</ele>
        <time>2022-02-25T13:07:10Z</time>
      </trkpt>
      <trkpt lat="44.79408" lon="7.00421">
        <ele>2528.5</ele>
        <time>2022-02-25T13:07:11Z</time>
      </trkpt>
      <trkpt lat="44.79408" lon="7.00421">
        <ele>2528.5</ele>
        <time>2022-02-25T13:07:12Z</time>
      </trkpt>
      <trkpt lat="44.79408" lon="7.00421">
        <ele>2528.5</ele>
        <time>2022-02-25T13:07:13Z</time>
      </trkpt>
      <trkpt lat="44.79408" lon="7.00421">
        <ele>2528.5</ele>
        <time>2022-02-25T13:07:14Z</time>
      </trkpt>
      <trkpt lat="44.79408" lon="7.00421">
        <ele>2528.5</ele>
        <time>2022-02-25T13:07:15Z</time>
      </trkpt>
      <trkpt lat="44.79408" lon="7.00421">
        <ele>2528.5</ele>
        <time>2022-02-25T13:07:16Z</time>
      </trkpt>
      <trkpt lat="44.79408" lon="7.00421">
        <ele>2528.5</ele>
        <time>2022-02-25T13:07:17Z</time>
      </trkpt>
      <trkpt lat="44.79408" lon="7.00421">
        <ele>2528.5</ele>
        <time>2022-02-25T13:07:18Z</time>
      </trkpt>
      <trkpt lat="44.79408" lon="7.00421">
        <ele>2528.5</ele>
        <time>2022-02-25T13:07:19Z</time>
      </trkpt>
      <trkpt lat="44.79408" lon="7.00421">
        <ele>2528.5</ele>
        <time>2022-02-25T13:07:20Z</time>
      </trkpt>
      <trkpt lat="44.79408" lon="7.00421">
        <ele>2528.5</ele>
        <time>2022-02-25T13:07:21Z</time>
      </trkpt>
      <trkpt lat="44.79408" lon="7.00421">
        <ele>2528.5</ele>
        <time>2022-02-25T13:07:22Z</time>
      </trkpt>
      <trkpt lat="44.79408" lon="7.00421">
        <ele>2528.5</ele>
        <time>2022-02-25T13:07:23Z</time>
      </trkpt>
      <trkpt lat="44.79408" lon="7.00421">
        <ele>2528.5</ele>
        <time>2022-02-25T13:07:24Z</time>
      </trkpt>
      <trkpt lat="44.79408" lon="7.00421">
        <ele>2528.5</ele>
        <time>2022-02-25T13:07:25Z</time>
      </trkpt>
      <trkpt lat="44.79408" lon="7.00421">
        <ele>2528.5</ele>
        <time>2022-02-25T13:07:26Z</time>
      </trkpt>
      <trkpt lat="44.79408" lon="7.00421">
        <ele>2528.5</ele>
        <time>2022-02-25T13:07:27Z</time>
      </trkpt>
      <trkpt lat="44.79408" lon="7.00421">
        <ele>2528.5</ele>
        <time>2022-02-25T13:07:28Z</time>
      </trkpt>
      <trkpt lat="44.79408" lon="7.00421">
        <ele>2528.5</ele>
        <time>2022-02-25T13:07:29Z</time>
      </trkpt>
      <trkpt lat="44.79408" lon="7.00421">
        <ele>2528.5</ele>
        <time>2022-02-25T13:07:30Z</time>
      </trkpt>
      <trkpt lat="44.79408" lon="7.00421">
        <ele>2528.5</ele>
        <time>2022-02-25T13:07:31Z</time>
      </trkpt>
      <trkpt lat="44.79408" lon="7.00421">
        <ele>2528.5</ele>
        <time>2022-02-25T13:07:32Z</time>
      </trkpt>
      <trkpt lat="44.79408" lon="7.00421">
        <ele>2528.5</ele>
        <time>2022-02-25T13:07:33Z</time>
      </trkpt>
      <trkpt lat="44.79408" lon="7.00421">
        <ele>2528.5</ele>
        <time>2022-02-25T13:07:34Z</time>
      </trkpt>
      <trkpt lat="44.79408" lon="7.00421">
        <ele>2528.5</ele>
        <time>2022-02-25T13:07:35Z</time>
      </trkpt>
      <trkpt lat="44.79408" lon="7.00421">
        <ele>2528.5</ele>
        <time>2022-02-25T13:07:36Z</time>
      </trkpt>
      <trkpt lat="44.79408" lon="7.00421">
        <ele>2528.5</ele>
        <time>2022-02-25T13:07:37Z</time>
      </trkpt>
      <trkpt lat="44.79408" lon="7.00421">
        <ele>2528.5</ele>
        <time>2022-02-25T13:07:38Z</time>
      </trkpt>
      <trkpt lat="44.79408" lon="7.00421">
        <ele>2528.5</ele>
        <time>2022-02-25T13:07:39Z</time>
      </trkpt>
      <trkpt lat="44.79408" lon="7.00421">
        <ele>2528.5</ele>
        <time>2022-02-25T13:07:40Z</time>
      </trkpt>
      <trkpt lat="44.79408" lon="7.00421">
        <ele>2528.5</ele>
        <time>2022-02-25T13:07:41Z</time>
      </trkpt>
      <trkpt lat="44.79408" lon="7.00421">
        <ele>2528.5</ele>
        <time>2022-02-25T13:07:42Z</time>
      </trkpt>
      <trkpt lat="44.79408" lon="7.00421">
        <ele>2528.5</ele>
        <time>2022-02-25T13:07:43Z</time>
      </trkpt>
      <trkpt lat="44.79408" lon="7.00421">
        <ele>2528.5</ele>
        <time>2022-02-25T13:07:44Z</time>
      </trkpt>
      <trkpt lat="44.79408" lon="7.00421">
        <ele>2528.5</ele>
        <time>2022-02-25T13:07:45Z</time>
      </trkpt>
      <trkpt lat="44.79408" lon="7.00421">
        <ele>2528.5</ele>
        <time>2022-02-25T13:07:46Z</time>
      </trkpt>
      <trkpt lat="44.79408" lon="7.00421">
        <ele>2528.5</ele>
        <time>2022-02-25T13:07:47Z</time>
      </trkpt>
      <trkpt lat="44.79408" lon="7.00421">
        <ele>2528.5</ele>
        <time>2022-02-25T13:07:48Z</time>
      </trkpt>
      <trkpt lat="44.79408" lon="7.00421">
        <ele>2528.5</ele>
        <time>2022-02-25T13:07:49Z</time>
      </trkpt>
      <trkpt lat="44.79408" lon="7.00421">
        <ele>2528.5</ele>
        <time>2022-02-25T13:07:50Z</time>
      </trkpt>
      <trkpt lat="44.79408" lon="7.00421">
        <ele>2528.5</ele>
        <time>2022-02-25T13:07:51Z</time>
      </trkpt>
      <trkpt lat="44.79408" lon="7.00421">
        <ele>2528.5</ele>
        <time>2022-02-25T13:07:52Z</time>
      </trkpt>
      <trkpt lat="44.79408" lon="7.00421">
        <ele>2528.5</ele>
        <time>2022-02-25T13:07:53Z</time>
      </trkpt>
      <trkpt lat="44.79408" lon="7.00421">
        <ele>2528.5</ele>
        <time>2022-02-25T13:07:54Z</time>
      </trkpt>
      <trkpt lat="44.79408" lon="7.00421">
        <ele>2528.5</ele>
        <time>2022-02-25T13:07:55Z</time>
      </trkpt>
      <trkpt lat="44.79408" lon="7.00421">
        <ele>2528.5</ele>
        <time>2022-02-25T13:07:56Z</time>
      </trkpt>
      <trkpt lat="44.79408" lon="7.00421">
        <ele>2528.5</ele>
        <time>2022-02-25T13:07:57Z</time>
      </trkpt>
      <trkpt lat="44.79408" lon="7.00421">
        <ele>2528.5</ele>
        <time>2022-02-25T13:07:58Z</time>
      </trkpt>
      <trkpt lat="44.79408" lon="7.00421">
        <ele>2528.5</ele>
        <time>2022-02-25T13:07:59Z</time>
      </trkpt>
      <trkpt lat="44.79408" lon="7.00421">
        <ele>2528.5</ele>
        <time>2022-02-25T13:08:00Z</time>
      </trkpt>
      <trkpt lat="44.79408" lon="7.00421">
        <ele>2528.5</ele>
        <time>2022-02-25T13:08:01Z</time>
      </trkpt>
      <trkpt lat="44.79408" lon="7.00421">
        <ele>2528.5</ele>
        <time>2022-02-25T13:08:02Z</time>
      </trkpt>
      <trkpt lat="44.79408" lon="7.00421">
        <ele>2528.5</ele>
        <time>2022-02-25T13:08:03Z</time>
      </trkpt>
      <trkpt lat="44.79408" lon="7.00421">
        <ele>2528.5</ele>
        <time>2022-02-25T13:08:04Z</time>
      </trkpt>
      <trkpt lat="44.79408" lon="7.00421">
        <ele>2528.5</ele>
        <time>2022-02-25T13:08:05Z</time>
      </trkpt>
      <trkpt lat="44.79408" lon="7.00421">
        <ele>2528.5</ele>
        <time>2022-02-25T13:08:06Z</time>
      </trkpt>
      <trkpt lat="44.79408" lon="7.00421">
        <ele>2528.5</ele>
        <time>2022-02-25T13:08:07Z</time>
      </trkpt>
      <trkpt lat="44.79408" lon="7.00421">
        <ele>2528.5</ele>
        <time>2022-02-25T13:08:08Z</time>
      </trkpt>
      <trkpt lat="44.79408" lon="7.00421">
        <ele>2528.5</ele>
        <time>2022-02-25T13:08:09Z</time>
      </trkpt>
      <trkpt lat="44.79408" lon="7.00421">
        <ele>2528.5</ele>
        <time>2022-02-25T13:08:10Z</time>
      </trkpt>
      <trkpt lat="44.79408" lon="7.00421">
        <ele>2528.5</ele>
        <time>2022-02-25T13:08:11Z</time>
      </trkpt>
      <trkpt lat="44.79408" lon="7.00421">
        <ele>2528.5</ele>
        <time>2022-02-25T13:08:12Z</time>
      </trkpt>
      <trkpt lat="44.79408" lon="7.00421">
        <ele>2528.5</ele>
        <time>2022-02-25T13:08:13Z</time>
      </trkpt>
      <trkpt lat="44.79408" lon="7.00421">
        <ele>2528.5</ele>
        <time>2022-02-25T13:08:14Z</time>
      </trkpt>
      <trkpt lat="44.79408" lon="7.00421">
        <ele>2528.5</ele>
        <time>2022-02-25T13:08:15Z</time>
      </trkpt>
      <trkpt lat="44.79408" lon="7.00421">
        <ele>2528.5</ele>
        <time>2022-02-25T13:08:16Z</time>
      </trkpt>
      <trkpt lat="44.79408" lon="7.00421">
        <ele>2528.5</ele>
        <time>2022-02-25T13:08:17Z</time>
      </trkpt>
      <trkpt lat="44.79408" lon="7.00421">
        <ele>2528.5</ele>
        <time>2022-02-25T13:08:18Z</time>
      </trkpt>
      <trkpt lat="44.79408" lon="7.00421">
        <ele>2528.5</ele>
        <time>2022-02-25T13:08:19Z</time>
      </trkpt>
      <trkpt lat="44.79408" lon="7.00421">
        <ele>2528.5</ele>
        <time>2022-02-25T13:08:20Z</time>
      </trkpt>
      <trkpt lat="44.79408" lon="7.00421">
        <ele>2528.5</ele>
        <time>2022-02-25T13:08:21Z</time>
      </trkpt>
      <trkpt lat="44.79408" lon="7.00421">
        <ele>2528.5</ele>
        <time>2022-02-25T13:08:22Z</time>
      </trkpt>
      <trkpt lat="44.79408" lon="7.00421">
        <ele>2528.5</ele>
        <time>2022-02-25T13:08:23Z</time>
      </trkpt>
      <trkpt lat="44.79408" lon="7.00421">
        <ele>2528.5</ele>
        <time>2022-02-25T13:08:24Z</time>
      </trkpt>
      <trkpt lat="44.79408" lon="7.00421">
        <ele>2528.5</ele>
        <time>2022-02-25T13:08:25Z</time>
      </trkpt>
      <trkpt lat="44.79408" lon="7.00421">
        <ele>2528.5</ele>
        <time>2022-02-25T13:08:26Z</time>
      </trkpt>
      <trkpt lat="44.79408" lon="7.00421">
        <ele>2528.5</ele>
        <time>2022-02-25T13:08:27Z</time>
      </trkpt>
      <trkpt lat="44.79408" lon="7.00421">
        <ele>2528.5</ele>
        <time>2022-02-25T13:08:28Z</time>
      </trkpt>
      <trkpt lat="44.79408" lon="7.00421">
        <ele>2528.5</ele>
        <time>2022-02-25T13:08:29Z</time>
      </trkpt>
      <trkpt lat="44.79408" lon="7.00421">
        <ele>2528.5</ele>
        <time>2022-02-25T13:08:30Z</time>
      </trkpt>
      <trkpt lat="44.79408" lon="7.00421">
        <ele>2528.5</ele>
        <time>2022-02-25T13:08:31Z</time>
      </trkpt>
      <trkpt lat="44.79408" lon="7.00421">
        <ele>2528.5</ele>
        <time>2022-02-25T13:08:32Z</time>
      </trkpt>
      <trkpt lat="44.79408" lon="7.00421">
        <ele>2528.5</ele>
        <time>2022-02-25T13:08:33Z</time>
      </trkpt>
      <trkpt lat="44.79408" lon="7.00421">
        <ele>2528.5</ele>
        <time>2022-02-25T13:08:34Z</time>
      </trkpt>
      <trkpt lat="44.79408" lon="7.00421">
        <ele>2528.5</ele>
        <time>2022-02-25T13:08:35Z</time>
      </trkpt>
      <trkpt lat="44.79408" lon="7.00421">
        <ele>2528.5</ele>
        <time>2022-02-25T13:08:36Z</time>
      </trkpt>
      <trkpt lat="44.79408" lon="7.00421">
        <ele>2528.5</ele>
        <time>2022-02-25T13:08:37Z</time>
      </trkpt>
      <trkpt lat="44.79408" lon="7.00421">
        <ele>2528.5</ele>
        <time>2022-02-25T13:08:38Z</time>
      </trkpt>
      <trkpt lat="44.79408" lon="7.00421">
        <ele>2528.5</ele>
        <time>2022-02-25T13:08:39Z</time>
      </trkpt>
      <trkpt lat="44.79408" lon="7.00421">
        <ele>2528.5</ele>
        <time>2022-02-25T13:08:40Z</time>
      </trkpt>
      <trkpt lat="44.79408" lon="7.00421">
        <ele>2528.5</ele>
        <time>2022-02-25T13:08:41Z</time>
      </trkpt>
      <trkpt lat="44.79408" lon="7.00421">
        <ele>2528.5</ele>
        <time>2022-02-25T13:08:42Z</time>
      </trkpt>
      <trkpt lat="44.79408" lon="7.00421">
        <ele>2528.5</ele>
        <time>2022-02-25T13:08:43Z</time>
      </trkpt>
      <trkpt lat="44.79408" lon="7.00421">
        <ele>2528.5</ele>
        <time>2022-02-25T13:08:44Z</time>
      </trkpt>
      <trkpt lat="44.79408" lon="7.00421">
        <ele>2528.5</ele>
        <time>2022-02-25T13:08:45Z</time>
      </trkpt>
      <trkpt lat="44.79408" lon="7.00421">
        <ele>2528.5</ele>
        <time>2022-02-25T13:08:46Z</time>
      </trkpt>
      <trkpt lat="44.79408" lon="7.00421">
        <ele>2528.5</ele>
        <time>2022-02-25T13:08:47Z</time>
      </trkpt>
      <trkpt lat="44.79408" lon="7.00421">
        <ele>2528.5</ele>
        <time>2022-02-25T13:08:48Z</time>
      </trkpt>
      <trkpt lat="44.79408" lon="7.00421">
        <ele>2528.5</ele>
        <time>2022-02-25T13:08:49Z</time>
      </trkpt>
      <trkpt lat="44.79408" lon="7.00421">
        <ele>2528.5</ele>
        <time>2022-02-25T13:08:50Z</time>
      </trkpt>
      <trkpt lat="44.79408" lon="7.00421">
        <ele>2528.5</ele>
        <time>2022-02-25T13:08:51Z</time>
      </trkpt>
      <trkpt lat="44.79408" lon="7.00421">
        <ele>2528.5</ele>
        <time>2022-02-25T13:08:52Z</time>
      </trkpt>
      <trkpt lat="44.79408" lon="7.00421">
        <ele>2528.5</ele>
        <time>2022-02-25T13:08:53Z</time>
      </trkpt>
      <trkpt lat="44.79408" lon="7.00421">
        <ele>2528.5</ele>
        <time>2022-02-25T13:08:54Z</time>
      </trkpt>
      <trkpt lat="44.79408" lon="7.00421">
        <ele>2528.5</ele>
        <time>2022-02-25T13:08:55Z</time>
      </trkpt>
      <trkpt lat="44.79408" lon="7.00421">
        <ele>2528.5</ele>
        <time>2022-02-25T13:08:56Z</time>
      </trkpt>
      <trkpt lat="44.79408" lon="7.00421">
        <ele>2528.5</ele>
        <time>2022-02-25T13:08:57Z</time>
      </trkpt>
      <trkpt lat="44.79408" lon="7.00421">
        <ele>2528.5</ele>
        <time>2022-02-25T13:08:58Z</time>
      </trkpt>
      <trkpt lat="44.79408" lon="7.00421">
        <ele>2528.5</ele>
        <time>2022-02-25T13:08:59Z</time>
      </trkpt>
      <trkpt lat="44.79408" lon="7.00421">
        <ele>2528.5</ele>
        <time>2022-02-25T13:09:00Z</time>
      </trkpt>
      <trkpt lat="44.79408" lon="7.00421">
        <ele>2528.5</ele>
        <time>2022-02-25T13:09:01Z</time>
      </trkpt>
      <trkpt lat="44.79408" lon="7.00421">
        <ele>2528.5</ele>
        <time>2022-02-25T13:09:02Z</time>
      </trkpt>
      <trkpt lat="44.79408" lon="7.00421">
        <ele>2528.5</ele>
        <time>2022-02-25T13:09:03Z</time>
      </trkpt>
      <trkpt lat="44.79408" lon="7.00421">
        <ele>2528.5</ele>
        <time>2022-02-25T13:09:04Z</time>
      </trkpt>
      <trkpt lat="44.79408" lon="7.00421">
        <ele>2528.5</ele>
        <time>2022-02-25T13:09:05Z</time>
      </trkpt>
      <trkpt lat="44.79408" lon="7.00421">
        <ele>2528.5</ele>
        <time>2022-02-25T13:09:06Z</time>
      </trkpt>
      <trkpt lat="44.79408" lon="7.00421">
        <ele>2528.5</ele>
        <time>2022-02-25T13:09:07Z</time>
      </trkpt>
      <trkpt lat="44.79408" lon="7.00421">
        <ele>2528.5</ele>
        <time>2022-02-25T13:09:08Z</time>
      </trkpt>
      <trkpt lat="44.79408" lon="7.00421">
        <ele>2528.5</ele>
        <time>2022-02-25T13:09:09Z</time>
      </trkpt>
      <trkpt lat="44.79408" lon="7.00421">
        <ele>2528.5</ele>
        <time>2022-02-25T13:09:10Z</time>
      </trkpt>
      <trkpt lat="44.79408" lon="7.00421">
        <ele>2528.5</ele>
        <time>2022-02-25T13:09:11Z</time>
      </trkpt>
      <trkpt lat="44.79408" lon="7.00421">
        <ele>2528.5</ele>
        <time>2022-02-25T13:09:12Z</time>
      </trkpt>
      <trkpt lat="44.79408" lon="7.00421">
        <ele>2528.5</ele>
        <time>2022-02-25T13:09:13Z</time>
      </trkpt>
      <trkpt lat="44.79408" lon="7.00421">
        <ele>2528.5</ele>
        <time>2022-02-25T13:09:14Z</time>
      </trkpt>
      <trkpt lat="44.79408" lon="7.00421">
        <ele>2528.5</ele>
        <time>2022-02-25T13:09:15Z</time>
      </trkpt>
      <trkpt lat="44.79408" lon="7.00421">
        <ele>2528.5</ele>
        <time>2022-02-25T13:09:16Z</time>
      </trkpt>
      <trkpt lat="44.79408" lon="7.00421">
        <ele>2528.5</ele>
        <time>2022-02-25T13:09:17Z</time>
      </trkpt>
      <trkpt lat="44.79408" lon="7.00421">
        <ele>2528.5</ele>
        <time>2022-02-25T13:09:18Z</time>
      </trkpt>
      <trkpt lat="44.79408" lon="7.00421">
        <ele>2528.5</ele>
        <time>2022-02-25T13:09:19Z</time>
      </trkpt>
      <trkpt lat="44.79408" lon="7.00421">
        <ele>2528.5</ele>
        <time>2022-02-25T13:09:20Z</time>
      </trkpt>
      <trkpt lat="44.79408" lon="7.00421">
        <ele>2528.5</ele>
        <time>2022-02-25T13:09:21Z</time>
      </trkpt>
      <trkpt lat="44.79408" lon="7.00421">
        <ele>2528.5</ele>
        <time>2022-02-25T13:09:22Z</time>
      </trkpt>
      <trkpt lat="44.79408" lon="7.00421">
        <ele>2528.5</ele>
        <time>2022-02-25T13:09:23Z</time>
      </trkpt>
      <trkpt lat="44.79408" lon="7.00421">
        <ele>2528.5</ele>
        <time>2022-02-25T13:09:24Z</time>
      </trkpt>
      <trkpt lat="44.79408" lon="7.00421">
        <ele>2528.5</ele>
        <time>2022-02-25T13:09:25Z</time>
      </trkpt>
      <trkpt lat="44.79408" lon="7.00421">
        <ele>2528.5</ele>
        <time>2022-02-25T13:09:26Z</time>
      </trkpt>
      <trkpt lat="44.79408" lon="7.00421">
        <ele>2528.5</ele>
        <time>2022-02-25T13:09:27Z</time>
      </trkpt>
      <trkpt lat="44.79408" lon="7.00421">
        <ele>2528.5</ele>
        <time>2022-02-25T13:09:28Z</time>
      </trkpt>
      <trkpt lat="44.79408" lon="7.00421">
        <ele>2528.5</ele>
        <time>2022-02-25T13:09:29Z</time>
      </trkpt>
      <trkpt lat="44.79408" lon="7.00421">
        <ele>2528.5</ele>
        <time>2022-02-25T13:09:30Z</time>
      </trkpt>
      <trkpt lat="44.79408" lon="7.00421">
        <ele>2528.5</ele>
        <time>2022-02-25T13:09:31Z</time>
      </trkpt>
      <trkpt lat="44.79408" lon="7.00421">
        <ele>2528.5</ele>
        <time>2022-02-25T13:09:32Z</time>
      </trkpt>
      <trkpt lat="44.79408" lon="7.00421">
        <ele>2528.5</ele>
        <time>2022-02-25T13:09:33Z</time>
      </trkpt>
      <trkpt lat="44.79408" lon="7.00421">
        <ele>2528.5</ele>
        <time>2022-02-25T13:09:34Z</time>
      </trkpt>
      <trkpt lat="44.79408" lon="7.00421">
        <ele>2528.5</ele>
        <time>2022-02-25T13:09:35Z</time>
      </trkpt>
      <trkpt lat="44.79408" lon="7.00421">
        <ele>2528.5</ele>
        <time>2022-02-25T13:09:36Z</time>
      </trkpt>
      <trkpt lat="44.79408" lon="7.00421">
        <ele>2528.5</ele>
        <time>2022-02-25T13:09:37Z</time>
      </trkpt>
      <trkpt lat="44.79408" lon="7.00421">
        <ele>2528.5</ele>
        <time>2022-02-25T13:09:38Z</time>
      </trkpt>
      <trkpt lat="44.79408" lon="7.00421">
        <ele>2528.5</ele>
        <time>2022-02-25T13:09:39Z</time>
      </trkpt>
      <trkpt lat="44.79408" lon="7.00421">
        <ele>2528.5</ele>
        <time>2022-02-25T13:09:40Z</time>
      </trkpt>
      <trkpt lat="44.79408" lon="7.00421">
        <ele>2528.5</ele>
        <time>2022-02-25T13:09:41Z</time>
      </trkpt>
      <trkpt lat="44.79408" lon="7.00421">
        <ele>2528.5</ele>
        <time>2022-02-25T13:09:42Z</time>
      </trkpt>
      <trkpt lat="44.79408" lon="7.00421">
        <ele>2528.5</ele>
        <time>2022-02-25T13:09:43Z</time>
      </trkpt>
      <trkpt lat="44.79408" lon="7.00421">
        <ele>2528.5</ele>
        <time>2022-02-25T13:09:44Z</time>
      </trkpt>
      <trkpt lat="44.79408" lon="7.00421">
        <ele>2528.5</ele>
        <time>2022-02-25T13:09:45Z</time>
      </trkpt>
      <trkpt lat="44.79408" lon="7.00421">
        <ele>2528.5</ele>
        <time>2022-02-25T13:09:46Z</time>
      </trkpt>
      <trkpt lat="44.79408" lon="7.00421">
        <ele>2528.5</ele>
        <time>2022-02-25T13:09:47Z</time>
      </trkpt>
      <trkpt lat="44.79408" lon="7.00421">
        <ele>2528.5</ele>
        <time>2022-02-25T13:09:48Z</time>
      </trkpt>
      <trkpt lat="44.79408" lon="7.00421">
        <ele>2528.5</ele>
        <time>2022-02-25T13:09:49Z</time>
      </trkpt>
      <trkpt lat="44.79408" lon="7.00421">
        <ele>2528.5</ele>
        <time>2022-02-25T13:09:50Z</time>
      </trkpt>
      <trkpt lat="44.79408" lon="7.00421">
        <ele>2528.5</ele>
        <time>2022-02-25T13:09:51Z</time>
      </trkpt>
      <trkpt lat="44.79408" lon="7.00421">
        <ele>2528.5</ele>
        <time>2022-02-25T13:09:52Z</time>
      </trkpt>
      <trkpt lat="44.79408" lon="7.00421">
        <ele>2528.5</ele>
        <time>2022-02-25T13:09:53Z</time>
      </trkpt>
      <trkpt lat="44.79408" lon="7.00421">
        <ele>2528.5</ele>
        <time>2022-02-25T13:09:54Z</time>
      </trkpt>
      <trkpt lat="44.79408" lon="7.00421">
        <ele>2528.5</ele>
        <time>2022-02-25T13:09:55Z</time>
      </trkpt>
      <trkpt lat="44.79408" lon="7.00421">
        <ele>2528.5</ele>
        <time>2022-02-25T13:09:56Z</time>
      </trkpt>
      <trkpt lat="44.79408" lon="7.00421">
        <ele>2528.5</ele>
        <time>2022-02-25T13:09:57Z</time>
      </trkpt>
      <trkpt lat="44.79408" lon="7.00421">
        <ele>2528.5</ele>
        <time>2022-02-25T13:09:58Z</time>
      </trkpt>
      <trkpt lat="44.79408" lon="7.00421">
        <ele>2528.5</ele>
        <time>2022-02-25T13:09:59Z</time>
      </trkpt>
      <trkpt lat="44.79408" lon="7.00421">
        <ele>2528.5</ele>
        <time>2022-02-25T13:10:00Z</time>
      </trkpt>
      <trkpt lat="44.79408" lon="7.00421">
        <ele>2528.5</ele>
        <time>2022-02-25T13:10:01Z</time>
      </trkpt>
      <trkpt lat="44.79408" lon="7.00421">
        <ele>2528.5</ele>
        <time>2022-02-25T13:10:02Z</time>
      </trkpt>
      <trkpt lat="44.79408" lon="7.00421">
        <ele>2528.5</ele>
        <time>2022-02-25T13:10:03Z</time>
      </trkpt>
      <trkpt lat="44.79408" lon="7.00421">
        <ele>2528.5</ele>
        <time>2022-02-25T13:10:04Z</time>
      </trkpt>
      <trkpt lat="44.79408" lon="7.00421">
        <ele>2528.5</ele>
        <time>2022-02-25T13:10:05Z</time>
      </trkpt>
      <trkpt lat="44.79408" lon="7.00421">
        <ele>2528.5</ele>
        <time>2022-02-25T13:10:06Z</time>
      </trkpt>
      <trkpt lat="44.79408" lon="7.00421">
        <ele>2528.5</ele>
        <time>2022-02-25T13:10:07Z</time>
      </trkpt>
      <trkpt lat="44.79408" lon="7.00421">
        <ele>2528.5</ele>
        <time>2022-02-25T13:10:08Z</time>
      </trkpt>
      <trkpt lat="44.79408" lon="7.00421">
        <ele>2528.5</ele>
        <time>2022-02-25T13:10:09Z</time>
      </trkpt>
      <trkpt lat="44.79408" lon="7.00421">
        <ele>2528.5</ele>
        <time>2022-02-25T13:10:10Z</time>
      </trkpt>
      <trkpt lat="44.79408" lon="7.00421">
        <ele>2528.5</ele>
        <time>2022-02-25T13:10:11Z</time>
      </trkpt>
      <trkpt lat="44.79408" lon="7.00421">
        <ele>2528.5</ele>
        <time>2022-02-25T13:10:12Z</time>
      </trkpt>
      <trkpt lat="44.79408" lon="7.00421">
        <ele>2528.5</ele>
        <time>2022-02-25T13:10:13Z</time>
      </trkpt>
      <trkpt lat="44.79408" lon="7.00421">
        <ele>2528.5</ele>
        <time>2022-02-25T13:10:14Z</time>
      </trkpt>
      <trkpt lat="44.79408" lon="7.00421">
        <ele>2528.5</ele>
        <time>2022-02-25T13:10:15Z</time>
      </trkpt>
      <trkpt lat="44.79408" lon="7.00421">
        <ele>2528.5</ele>
        <time>2022-02-25T13:10:16Z</time>
      </trkpt>
      <trkpt lat="44.79408" lon="7.00421">
        <ele>2528.5</ele>
        <time>2022-02-25T13:10:17Z</time>
      </trkpt>
      <trkpt lat="44.79408" lon="7.00421">
        <ele>2528.5</ele>
        <time>2022-02-25T13:10:18Z</time>
      </trkpt>
      <trkpt lat="44.79408" lon="7.00421">
        <ele>2528.5</ele>
        <time>2022-02-25T13:10:19Z</time>
      </trkpt>
      <trkpt lat="44.79408" lon="7.00421">
        <ele>2528.5</ele>
        <time>2022-02-25T13:10:20Z</time>
      </trkpt>
      <trkpt lat="44.79408" lon="7.00421">
        <ele>2528.5</ele>
        <time>2022-02-25T13:10:21Z</time>
      </trkpt>
      <trkpt lat="44.79408" lon="7.00421">
        <ele>2528.5</ele>
        <time>2022-02-25T13:10:22Z</time>
      </trkpt>
      <trkpt lat="44.79408" lon="7.00421">
        <ele>2528.5</ele>
        <time>2022-02-25T13:10:23Z</time>
      </trkpt>
      <trkpt lat="44.79408" lon="7.00421">
        <ele>2528.5</ele>
        <time>2022-02-25T13:10:24Z</time>
      </trkpt>
      <trkpt lat="44.79408" lon="7.00421">
        <ele>2528.5</ele>
        <time>2022-02-25T13:10:25Z</time>
      </trkpt>
      <trkpt lat="44.79408" lon="7.00421">
        <ele>2528.5</ele>
        <time>2022-02-25T13:10:26Z</time>
      </trkpt>
      <trkpt lat="44.79408" lon="7.00421">
        <ele>2528.5</ele>
        <time>2022-02-25T13:10:27Z</time>
      </trkpt>
      <trkpt lat="44.79408" lon="7.00421">
        <ele>2528.5</ele>
        <time>2022-02-25T13:10:28Z</time>
      </trkpt>
      <trkpt lat="44.79408" lon="7.00421">
        <ele>2528.5</ele>
        <time>2022-02-25T13:10:29Z</time>
      </trkpt>
      <trkpt lat="44.79408" lon="7.00421">
        <ele>2528.5</ele>
        <time>2022-02-25T13:10:30Z</time>
      </trkpt>
      <trkpt lat="44.79408" lon="7.00421">
        <ele>2528.5</ele>
        <time>2022-02-25T13:10:31Z</time>
      </trkpt>
      <trkpt lat="44.79408" lon="7.00421">
        <ele>2528.5</ele>
        <time>2022-02-25T13:10:32Z</time>
      </trkpt>
      <trkpt lat="44.79408" lon="7.00421">
        <ele>2528.5</ele>
        <time>2022-02-25T13:10:33Z</time>
      </trkpt>
      <trkpt lat="44.79408" lon="7.00421">
        <ele>2528.5</ele>
        <time>2022-02-25T13:10:34Z</time>
      </trkpt>
      <trkpt lat="44.79408" lon="7.00421">
        <ele>2528.5</ele>
        <time>2022-02-25T13:10:35Z</time>
      </trkpt>
      <trkpt lat="44.79408" lon="7.00421">
        <ele>2528.5</ele>
        <time>2022-02-25T13:10:36Z</time>
      </trkpt>
      <trkpt lat="44.79408" lon="7.00421">
        <ele>2528.5</ele>
        <time>2022-02-25T13:10:37Z</time>
      </trkpt>
      <trkpt lat="44.79408" lon="7.00421">
        <ele>2528.5</ele>
        <time>2022-02-25T13:10:38Z</time>
      </trkpt>
      <trkpt lat="44.79408" lon="7.00421">
        <ele>2528.5</ele>
        <time>2022-02-25T13:10:39Z</time>
      </trkpt>
      <trkpt lat="44.79408" lon="7.00421">
        <ele>2528.5</ele>
        <time>2022-02-25T13:10:40Z</time>
      </trkpt>
      <trkpt lat="44.79408" lon="7.00421">
        <ele>2528.5</ele>
        <time>2022-02-25T13:10:41Z</time>
      </trkpt>
      <trkpt lat="44.79408" lon="7.00421">
        <ele>2528.5</ele>
        <time>2022-02-25T13:10:42Z</time>
      </trkpt>
      <trkpt lat="44.79408" lon="7.00421">
        <ele>2528.5</ele>
        <time>2022-02-25T13:10:43Z</time>
      </trkpt>
      <trkpt lat="44.79408" lon="7.00421">
        <ele>2528.5</ele>
        <time>2022-02-25T13:10:44Z</time>
      </trkpt>
      <trkpt lat="44.79408" lon="7.00421">
        <ele>2528.5</ele>
        <time>2022-02-25T13:10:45Z</time>
      </trkpt>
      <trkpt lat="44.79408" lon="7.00421">
        <ele>2528.5</ele>
        <time>2022-02-25T13:10:46Z</time>
      </trkpt>
      <trkpt lat="44.79408" lon="7.00421">
        <ele>2528.5</ele>
        <time>2022-02-25T13:10:47Z</time>
      </trkpt>
      <trkpt lat="44.79408" lon="7.00421">
        <ele>2528.5</ele>
        <time>2022-02-25T13:10:48Z</time>
      </trkpt>
      <trkpt lat="44.79408" lon="7.00421">
        <ele>2528.5</ele>
        <time>2022-02-25T13:10:49Z</time>
      </trkpt>
      <trkpt lat="44.79408" lon="7.00421">
        <ele>2528.5</ele>
        <time>2022-02-25T13:10:50Z</time>
      </trkpt>
      <trkpt lat="44.79408" lon="7.00421">
        <ele>2528.5</ele>
        <time>2022-02-25T13:10:51Z</time>
      </trkpt>
      <trkpt lat="44.79408" lon="7.00421">
        <ele>2528.5</ele>
        <time>2022-02-25T13:10:52Z</time>
      </trkpt>
      <trkpt lat="44.79408" lon="7.00421">
        <ele>2528.5</ele>
        <time>2022-02-25T13:10:53Z</time>
      </trkpt>
      <trkpt lat="44.79408" lon="7.00421">
        <ele>2528.5</ele>
        <time>2022-02-25T13:10:54Z</time>
      </trkpt>
      <trkpt lat="44.79408" lon="7.00421">
        <ele>2528.5</ele>
        <time>2022-02-25T13:10:55Z</time>
      </trkpt>
      <trkpt lat="44.79408" lon="7.00421">
        <ele>2528.5</ele>
        <time>2022-02-25T13:10:56Z</time>
      </trkpt>
      <trkpt lat="44.79408" lon="7.00421">
        <ele>2528.5</ele>
        <time>2022-02-25T13:10:57Z</time>
      </trkpt>
      <trkpt lat="44.79408" lon="7.00421">
        <ele>2528.5</ele>
        <time>2022-02-25T13:10:58Z</time>
      </trkpt>
      <trkpt lat="44.79408" lon="7.00421">
        <ele>2528.5</ele>
        <time>2022-02-25T13:10:59Z</time>
      </trkpt>
      <trkpt lat="44.79408" lon="7.00421">
        <ele>2528.5</ele>
        <time>2022-02-25T13:11:00Z</time>
      </trkpt>
      <trkpt lat="44.79408" lon="7.00421">
        <ele>2528.5</ele>
        <time>2022-02-25T13:11:01Z</time>
      </trkpt>
      <trkpt lat="44.79408" lon="7.00421">
        <ele>2528.5</ele>
        <time>2022-02-25T13:11:02Z</time>
      </trkpt>
      <trkpt lat="44.79408" lon="7.00421">
        <ele>2528.5</ele>
        <time>2022-02-25T13:11:03Z</time>
      </trkpt>
      <trkpt lat="44.79408" lon="7.00421">
        <ele>2528.5</ele>
        <time>2022-02-25T13:11:04Z</time>
      </trkpt>
      <trkpt lat="44.79408" lon="7.00421">
        <ele>2528.5</ele>
        <time>2022-02-25T13:11:05Z</time>
      </trkpt>
      <trkpt lat="44.79408" lon="7.00421">
        <ele>2528.5</ele>
        <time>2022-02-25T13:11:06Z</time>
      </trkpt>
      <trkpt lat="44.79408" lon="7.00421">
        <ele>2528.5</ele>
        <time>2022-02-25T13:11:07Z</time>
      </trkpt>
      <trkpt lat="44.79408" lon="7.00421">
        <ele>2528.5</ele>
        <time>2022-02-25T13:11:08Z</time>
      </trkpt>
      <trkpt lat="44.79408" lon="7.00421">
        <ele>2528.5</ele>
        <time>2022-02-25T13:11:09Z</time>
      </trkpt>
      <trkpt lat="44.79408" lon="7.00421">
        <ele>2528.5</ele>
        <time>2022-02-25T13:11:10Z</time>
      </trkpt>
      <trkpt lat="44.79408" lon="7.00421">
        <ele>2528.5</ele>
        <time>2022-02-25T13:11:11Z</time>
      </trkpt>
      <trkpt lat="44.79408" lon="7.00421">
        <ele>2528.5</ele>
        <time>2022-02-25T13:11:12Z</time>
      </trkpt>
      <trkpt lat="44.79408" lon="7.00421">
        <ele>2528.5</ele>
        <time>2022-02-25T13:11:13Z</time>
      </trkpt>
      <trkpt lat="44.79408" lon="7.00421">
        <ele>2528.5</ele>
        <time>2022-02-25T13:11:14Z</time>
      </trkpt>
      <trkpt lat="44.79408" lon="7.00421">
        <ele>2528.5</ele>
        <time>2022-02-25T13:11:15Z</time>
      </trkpt>
      <trkpt lat="44.79408" lon="7.00421">
        <ele>2528.5</ele>
        <time>2022-02-25T13:11:16Z</time>
      </trkpt>
      <trkpt lat="44.79408" lon="7.00421">
        <ele>2528.5</ele>
        <time>2022-02-25T13:11:17Z</time>
      </trkpt>
      <trkpt lat="44.79408" lon="7.00421">
        <ele>2528.5</ele>
        <time>2022-02-25T13:11:18Z</time>
      </trkpt>
      <trkpt lat="44.79408" lon="7.00421">
        <ele>2528.5</ele>
        <time>2022-02-25T13:11:19Z</time>
      </trkpt>
      <trkpt lat="44.79408" lon="7.00421">
        <ele>2528.5</ele>
        <time>2022-02-25T13:11:20Z</time>
      </trkpt>
      <trkpt lat="44.79408" lon="7.00421">
        <ele>2528.5</ele>
        <time>2022-02-25T13:11:21Z</time>
      </trkpt>
      <trkpt lat="44.79408" lon="7.00421">
        <ele>2528.5</ele>
        <time>2022-02-25T13:11:22Z</time>
      </trkpt>
      <trkpt lat="44.79408" lon="7.00421">
        <ele>2528.5</ele>
        <time>2022-02-25T13:11:23Z</time>
      </trkpt>
      <trkpt lat="44.79408" lon="7.00421">
        <ele>2528.5</ele>
        <time>2022-02-25T13:11:24Z</time>
      </trkpt>
      <trkpt lat="44.79408" lon="7.00421">
        <ele>2528.5</ele>
        <time>2022-02-25T13:11:25Z</time>
      </trkpt>
      <trkpt lat="44.79408" lon="7.00421">
        <ele>2528.5</ele>
        <time>2022-02-25T13:11:26Z</time>
      </trkpt>
      <trkpt lat="44.79408" lon="7.00421">
        <ele>2528.5</ele>
        <time>2022-02-25T13:11:27Z</time>
      </trkpt>
      <trkpt lat="44.79408" lon="7.00421">
        <ele>2528.5</ele>
        <time>2022-02-25T13:11:28Z</time>
      </trkpt>
      <trkpt lat="44.79408" lon="7.00421">
        <ele>2528.5</ele>
        <time>2022-02-25T13:11:29Z</time>
      </trkpt>
      <trkpt lat="44.79408" lon="7.00421">
        <ele>2528.5</ele>
        <time>2022-02-25T13:11:30Z</time>
      </trkpt>
      <trkpt lat="44.79408" lon="7.00421">
        <ele>2528.5</ele>
        <time>2022-02-25T13:11:31Z</time>
      </trkpt>
      <trkpt lat="44.79408" lon="7.00421">
        <ele>2528.5</ele>
        <time>2022-02-25T13:11:32Z</time>
      </trkpt>
      <trkpt lat="44.79408" lon="7.00421">
        <ele>2528.5</ele>
        <time>2022-02-25T13:11:33Z</time>
      </trkpt>
      <trkpt lat="44.79408" lon="7.00421">
        <ele>2528.5</ele>
        <time>2022-02-25T13:11:34Z</time>
      </trkpt>
      <trkpt lat="44.79408" lon="7.00421">
        <ele>2528.5</ele>
        <time>2022-02-25T13:11:35Z</time>
      </trkpt>
      <trkpt lat="44.79408" lon="7.00421">
        <ele>2528.5</ele>
        <time>2022-02-25T13:11:36Z</time>
      </trkpt>
      <trkpt lat="44.79408" lon="7.00421">
        <ele>2528.5</ele>
        <time>2022-02-25T13:11:37Z</time>
      </trkpt>
      <trkpt lat="44.79408" lon="7.00421">
        <ele>2528.5</ele>
        <time>2022-02-25T13:11:38Z</time>
      </trkpt>
      <trkpt lat="44.79408" lon="7.00421">
        <ele>2528.5</ele>
        <time>2022-02-25T13:11:39Z</time>
      </trkpt>
      <trkpt lat="44.79408" lon="7.00421">
        <ele>2528.5</ele>
        <time>2022-02-25T13:11:40Z</time>
      </trkpt>
      <trkpt lat="44.79408" lon="7.00421">
        <ele>2528.5</ele>
        <time>2022-02-25T13:11:41Z</time>
      </trkpt>
      <trkpt lat="44.79408" lon="7.00421">
        <ele>2528.5</ele>
        <time>2022-02-25T13:11:42Z</time>
      </trkpt>
      <trkpt lat="44.79408" lon="7.00421">
        <ele>2528.5</ele>
        <time>2022-02-25T13:11:43Z</time>
      </trkpt>
      <trkpt lat="44.79408" lon="7.00421">
        <ele>2528.5</ele>
        <time>2022-02-25T13:11:44Z</time>
      </trkpt>
      <trkpt lat="44.79408" lon="7.00421">
        <ele>2528.5</ele>
        <time>2022-02-25T13:11:45Z</time>
      </trkpt>
      <trkpt lat="44.79408" lon="7.00421">
        <ele>2528.5</ele>
        <time>2022-02-25T13:11:46Z</time>
      </trkpt>
      <trkpt lat="44.79408" lon="7.00421">
        <ele>2528.5</ele>
        <time>2022-02-25T13:11:47Z</time>
      </trkpt>
      <trkpt lat="44.79408" lon="7.00421">
        <ele>2528.5</ele>
        <time>2022-02-25T13:11:48Z</time>
      </trkpt>
      <trkpt lat="44.79408" lon="7.00421">
        <ele>2528.5</ele>
        <time>2022-02-25T13:11:49Z</time>
      </trkpt>
      <trkpt lat="44.79408" lon="7.00421">
        <ele>2528.5</ele>
        <time>2022-02-25T13:11:50Z</time>
      </trkpt>
      <trkpt lat="44.79408" lon="7.00421">
        <ele>2528.5</ele>
        <time>2022-02-25T13:11:51Z</time>
      </trkpt>
      <trkpt lat="44.79408" lon="7.00421">
        <ele>2528.5</ele>
        <time>2022-02-25T13:11:52Z</time>
      </trkpt>
      <trkpt lat="44.79408" lon="7.00421">
        <ele>2528.5</ele>
        <time>2022-02-25T13:11:53Z</time>
      </trkpt>
      <trkpt lat="44.79408" lon="7.00421">
        <ele>2528.5</ele>
        <time>2022-02-25T13:11:54Z</time>
      </trkpt>
      <trkpt lat="44.79408" lon="7.00421">
        <ele>2528.5</ele>
        <time>2022-02-25T13:11:55Z</time>
      </trkpt>
      <trkpt lat="44.79408" lon="7.00421">
        <ele>2528.5</ele>
        <time>2022-02-25T13:11:56Z</time>
      </trkpt>
      <trkpt lat="44.79408" lon="7.00421">
        <ele>2528.5</ele>
        <time>2022-02-25T13:11:57Z</time>
      </trkpt>
      <trkpt lat="44.79408" lon="7.00421">
        <ele>2528.5</ele>
        <time>2022-02-25T13:11:58Z</time>
      </trkpt>
      <trkpt lat="44.79408" lon="7.00421">
        <ele>2528.5</ele>
        <time>2022-02-25T13:11:59Z</time>
      </trkpt>
      <trkpt lat="44.79408" lon="7.00421">
        <ele>2528.5</ele>
        <time>2022-02-25T13:12:00Z</time>
      </trkpt>
      <trkpt lat="44.79408" lon="7.00421">
        <ele>2528.5</ele>
        <time>2022-02-25T13:12:01Z</time>
      </trkpt>
      <trkpt lat="44.79408" lon="7.00421">
        <ele>2528.5</ele>
        <time>2022-02-25T13:12:02Z</time>
      </trkpt>
      <trkpt lat="44.79408" lon="7.00421">
        <ele>2528.5</ele>
        <time>2022-02-25T13:12:03Z</time>
      </trkpt>
      <trkpt lat="44.79408" lon="7.00421">
        <ele>2528.5</ele>
        <time>2022-02-25T13:12:04Z</time>
      </trkpt>
      <trkpt lat="44.79408" lon="7.00421">
        <ele>2528.5</ele>
        <time>2022-02-25T13:12:05Z</time>
      </trkpt>
      <trkpt lat="44.79408" lon="7.00421">
        <ele>2528.5</ele>
        <time>2022-02-25T13:12:06Z</time>
      </trkpt>
      <trkpt lat="44.79408" lon="7.00421">
        <ele>2528.5</ele>
        <time>2022-02-25T13:12:07Z</time>
      </trkpt>
      <trkpt lat="44.79408" lon="7.00421">
        <ele>2528.5</ele>
        <time>2022-02-25T13:12:08Z</time>
      </trkpt>
      <trkpt lat="44.79408" lon="7.00421">
        <ele>2528.5</ele>
        <time>2022-02-25T13:12:09Z</time>
      </trkpt>
      <trkpt lat="44.79408" lon="7.00421">
        <ele>2528.5</ele>
        <time>2022-02-25T13:12:10Z</time>
      </trkpt>
      <trkpt lat="44.79408" lon="7.00421">
        <ele>2528.5</ele>
        <time>2022-02-25T13:12:11Z</time>
      </trkpt>
      <trkpt lat="44.79408" lon="7.00421">
        <ele>2528.5</ele>
        <time>2022-02-25T13:12:12Z</time>
      </trkpt>
      <trkpt lat="44.79408" lon="7.00421">
        <ele>2528.5</ele>
        <time>2022-02-25T13:12:13Z</time>
      </trkpt>
      <trkpt lat="44.79408" lon="7.00421">
        <ele>2528.5</ele>
        <time>2022-02-25T13:12:14Z</time>
      </trkpt>
      <trkpt lat="44.79408" lon="7.00421">
        <ele>2528.5</ele>
        <time>2022-02-25T13:12:15Z</time>
      </trkpt>
      <trkpt lat="44.79408" lon="7.00421">
        <ele>2528.5</ele>
        <time>2022-02-25T13:12:16Z</time>
      </trkpt>
      <trkpt lat="44.79408" lon="7.00421">
        <ele>2528.5</ele>
        <time>2022-02-25T13:12:17Z</time>
      </trkpt>
      <trkpt lat="44.79408" lon="7.00421">
        <ele>2528.5</ele>
        <time>2022-02-25T13:12:18Z</time>
      </trkpt>
      <trkpt lat="44.79408" lon="7.00421">
        <ele>2528.5</ele>
        <time>2022-02-25T13:12:19Z</time>
      </trkpt>
      <trkpt lat="44.79408" lon="7.00421">
        <ele>2528.5</ele>
        <time>2022-02-25T13:12:20Z</time>
      </trkpt>
      <trkpt lat="44.79408" lon="7.00421">
        <ele>2528.5</ele>
        <time>2022-02-25T13:12:21Z</time>
      </trkpt>
      <trkpt lat="44.79408" lon="7.00421">
        <ele>2528.5</ele>
        <time>2022-02-25T13:12:22Z</time>
      </trkpt>
      <trkpt lat="44.79408" lon="7.00421">
        <ele>2528.5</ele>
        <time>2022-02-25T13:12:23Z</time>
      </trkpt>
      <trkpt lat="44.79408" lon="7.00421">
        <ele>2528.5</ele>
        <time>2022-02-25T13:12:24Z</time>
      </trkpt>
      <trkpt lat="44.79408" lon="7.00421">
        <ele>2528.5</ele>
        <time>2022-02-25T13:12:25Z</time>
      </trkpt>
      <trkpt lat="44.79408" lon="7.00421">
        <ele>2528.5</ele>
        <time>2022-02-25T13:12:26Z</time>
      </trkpt>
      <trkpt lat="44.79408" lon="7.00421">
        <ele>2528.5</ele>
        <time>2022-02-25T13:12:27Z</time>
      </trkpt>
      <trkpt lat="44.79408" lon="7.00421">
        <ele>2528.5</ele>
        <time>2022-02-25T13:12:28Z</time>
      </trkpt>
      <trkpt lat="44.79408" lon="7.00421">
        <ele>2528.5</ele>
        <time>2022-02-25T13:12:29Z</time>
      </trkpt>
      <trkpt lat="44.79408" lon="7.00421">
        <ele>2528.5</ele>
        <time>2022-02-25T13:12:30Z</time>
      </trkpt>
      <trkpt lat="44.79408" lon="7.00421">
        <ele>2528.5</ele>
        <time>2022-02-25T13:12:31Z</time>
      </trkpt>
      <trkpt lat="44.79408" lon="7.00421">
        <ele>2528.5</ele>
        <time>2022-02-25T13:12:32Z</time>
      </trkpt>
      <trkpt lat="44.79408" lon="7.00421">
        <ele>2528.5</ele>
        <time>2022-02-25T13:12:33Z</time>
      </trkpt>
      <trkpt lat="44.79408" lon="7.00421">
        <ele>2528.5</ele>
        <time>2022-02-25T13:12:34Z</time>
      </trkpt>
      <trkpt lat="44.79408" lon="7.00421">
        <ele>2528.5</ele>
        <time>2022-02-25T13:12:35Z</time>
      </trkpt>
      <trkpt lat="44.79408" lon="7.00421">
        <ele>2528.5</ele>
        <time>2022-02-25T13:12:36Z</time>
      </trkpt>
      <trkpt lat="44.79408" lon="7.00421">
        <ele>2528.5</ele>
        <time>2022-02-25T13:12:37Z</time>
      </trkpt>
      <trkpt lat="44.79408" lon="7.00421">
        <ele>2528.5</ele>
        <time>2022-02-25T13:12:38Z</time>
      </trkpt>
      <trkpt lat="44.79408" lon="7.00421">
        <ele>2528.5</ele>
        <time>2022-02-25T13:12:39Z</time>
      </trkpt>
      <trkpt lat="44.79408" lon="7.00421">
        <ele>2528.5</ele>
        <time>2022-02-25T13:12:40Z</time>
      </trkpt>
      <trkpt lat="44.79408" lon="7.00421">
        <ele>2528.5</ele>
        <time>2022-02-25T13:12:41Z</time>
      </trkpt>
      <trkpt lat="44.79408" lon="7.00421">
        <ele>2528.5</ele>
        <time>2022-02-25T13:12:42Z</time>
      </trkpt>
      <trkpt lat="44.79408" lon="7.00421">
        <ele>2528.5</ele>
        <time>2022-02-25T13:12:43Z</time>
      </trkpt>
      <trkpt lat="44.79408" lon="7.00421">
        <ele>2528.5</ele>
        <time>2022-02-25T13:12:44Z</time>
      </trkpt>
      <trkpt lat="44.79408" lon="7.00421">
        <ele>2528.5</ele>
        <time>2022-02-25T13:12:45Z</time>
      </trkpt>
      <trkpt lat="44.79408" lon="7.00421">
        <ele>2528.5</ele>
        <time>2022-02-25T13:12:46Z</time>
      </trkpt>
      <trkpt lat="44.79408" lon="7.00421">
        <ele>2528.5</ele>
        <time>2022-02-25T13:12:47Z</time>
      </trkpt>
      <trkpt lat="44.79408" lon="7.00421">
        <ele>2528.5</ele>
        <time>2022-02-25T13:12:48Z</time>
      </trkpt>
      <trkpt lat="44.79408" lon="7.00421">
        <ele>2528.5</ele>
        <time>2022-02-25T13:12:49Z</time>
      </trkpt>
      <trkpt lat="44.79408" lon="7.00421">
        <ele>2528.5</ele>
        <time>2022-02-25T13:12:50Z</time>
      </trkpt>
      <trkpt lat="44.79408" lon="7.00421">
        <ele>2528.5</ele>
        <time>2022-02-25T13:12:51Z</time>
      </trkpt>
      <trkpt lat="44.79408" lon="7.00421">
        <ele>2528.5</ele>
        <time>2022-02-25T13:12:52Z</time>
      </trkpt>
      <trkpt lat="44.79408" lon="7.00421">
        <ele>2528.5</ele>
        <time>2022-02-25T13:12:53Z</time>
      </trkpt>
      <trkpt lat="44.79408" lon="7.00421">
        <ele>2528.5</ele>
        <time>2022-02-25T13:12:54Z</time>
      </trkpt>
      <trkpt lat="44.79408" lon="7.00421">
        <ele>2528.5</ele>
        <time>2022-02-25T13:12:55Z</time>
      </trkpt>
      <trkpt lat="44.79408" lon="7.00421">
        <ele>2528.5</ele>
        <time>2022-02-25T13:12:56Z</time>
      </trkpt>
      <trkpt lat="44.79408" lon="7.00421">
        <ele>2528.5</ele>
        <time>2022-02-25T13:12:57Z</time>
      </trkpt>
      <trkpt lat="44.79408" lon="7.00421">
        <ele>2528.5</ele>
        <time>2022-02-25T13:12:58Z</time>
      </trkpt>
      <trkpt lat="44.79408" lon="7.00421">
        <ele>2528.5</ele>
        <time>2022-02-25T13:12:59Z</time>
      </trkpt>
      <trkpt lat="44.79408" lon="7.00421">
        <ele>2528.5</ele>
        <time>2022-02-25T13:13:00Z</time>
      </trkpt>
      <trkpt lat="44.79408" lon="7.00421">
        <ele>2528.5</ele>
        <time>2022-02-25T13:13:01Z</time>
      </trkpt>
      <trkpt lat="44.79408" lon="7.00421">
        <ele>2528.5</ele>
        <time>2022-02-25T13:13:02Z</time>
      </trkpt>
      <trkpt lat="44.79408" lon="7.00421">
        <ele>2528.5</ele>
        <time>2022-02-25T13:13:03Z</time>
      </trkpt>
      <trkpt lat="44.79408" lon="7.00421">
        <ele>2528.5</ele>
        <time>2022-02-25T13:13:04Z</time>
      </trkpt>
      <trkpt lat="44.79408" lon="7.00421">
        <ele>2528.5</ele>
        <time>2022-02-25T13:13:05Z</time>
      </trkpt>
      <trkpt lat="44.79408" lon="7.00421">
        <ele>2528.5</ele>
        <time>2022-02-25T13:13:06Z</time>
      </trkpt>
      <trkpt lat="44.79408" lon="7.00421">
        <ele>2528.5</ele>
        <time>2022-02-25T13:13:07Z</time>
      </trkpt>
      <trkpt lat="44.79408" lon="7.00421">
        <ele>2528.5</ele>
        <time>2022-02-25T13:13:08Z</time>
      </trkpt>
      <trkpt lat="44.79408" lon="7.00421">
        <ele>2528.5</ele>
        <time>2022-02-25T13:13:09Z</time>
      </trkpt>
      <trkpt lat="44.79408" lon="7.00421">
        <ele>2528.5</ele>
        <time>2022-02-25T13:13:10Z</time>
      </trkpt>
      <trkpt lat="44.79408" lon="7.00421">
        <ele>2528.5</ele>
        <time>2022-02-25T13:13:11Z</time>
      </trkpt>
      <trkpt lat="44.79408" lon="7.00421">
        <ele>2528.5</ele>
        <time>2022-02-25T13:13:12Z</time>
      </trkpt>
      <trkpt lat="44.79408" lon="7.00421">
        <ele>2528.5</ele>
        <time>2022-02-25T13:13:13Z</time>
      </trkpt>
      <trkpt lat="44.79408" lon="7.00421">
        <ele>2528.5</ele>
        <time>2022-02-25T13:13:14Z</time>
      </trkpt>
      <trkpt lat="44.79408" lon="7.00421">
        <ele>2528.5</ele>
        <time>2022-02-25T13:13:15Z</time>
      </trkpt>
      <trkpt lat="44.79408" lon="7.00421">
        <ele>2528.5</ele>
        <time>2022-02-25T13:13:16Z</time>
      </trkpt>
      <trkpt lat="44.79408" lon="7.00421">
        <ele>2528.5</ele>
        <time>2022-02-25T13:13:17Z</time>
      </trkpt>
      <trkpt lat="44.79408" lon="7.00421">
        <ele>2528.5</ele>
        <time>2022-02-25T13:13:18Z</time>
      </trkpt>
      <trkpt lat="44.79408" lon="7.00421">
        <ele>2528.5</ele>
        <time>2022-02-25T13:13:19Z</time>
      </trkpt>
      <trkpt lat="44.79408" lon="7.00421">
        <ele>2528.5</ele>
        <time>2022-02-25T13:13:20Z</time>
      </trkpt>
      <trkpt lat="44.79408" lon="7.00421">
        <ele>2528.5</ele>
        <time>2022-02-25T13:13:21Z</time>
      </trkpt>
      <trkpt lat="44.79408" lon="7.00421">
        <ele>2528.5</ele>
        <time>2022-02-25T13:13:22Z</time>
      </trkpt>
      <trkpt lat="44.79408" lon="7.00421">
        <ele>2528.5</ele>
        <time>2022-02-25T13:13:23Z</time>
      </trkpt>
      <trkpt lat="44.79408" lon="7.00421">
        <ele>2528.5</ele>
        <time>2022-02-25T13:13:24Z</time>
      </trkpt>
      <trkpt lat="44.79408" lon="7.00421">
        <ele>2528.5</ele>
        <time>2022-02-25T13:13:25Z</time>
      </trkpt>
      <trkpt lat="44.79408" lon="7.00421">
        <ele>2528.5</ele>
        <time>2022-02-25T13:13:26Z</time>
      </trkpt>
      <trkpt lat="44.79408" lon="7.00421">
        <ele>2528.5</ele>
        <time>2022-02-25T13:13:27Z</time>
      </trkpt>
      <trkpt lat="44.79408" lon="7.00421">
        <ele>2528.5</ele>
        <time>2022-02-25T13:13:28Z</time>
      </trkpt>
      <trkpt lat="44.79408" lon="7.00421">
        <ele>2528.5</ele>
        <time>2022-02-25T13:13:29Z</time>
      </trkpt>
      <trkpt lat="44.79408" lon="7.00421">
        <ele>2528.5</ele>
        <time>2022-02-25T13:13:30Z</time>
      </trkpt>
      <trkpt lat="44.79408" lon="7.00421">
        <ele>2528.5</ele>
        <time>2022-02-25T13:13:31Z</time>
      </trkpt>
      <trkpt lat="44.79408" lon="7.00421">
        <ele>2528.5</ele>
        <time>2022-02-25T13:13:32Z</time>
      </trkpt>
      <trkpt lat="44.79408" lon="7.00421">
        <ele>2528.5</ele>
        <time>2022-02-25T13:13:33Z</time>
      </trkpt>
      <trkpt lat="44.79408" lon="7.00421">
        <ele>2528.5</ele>
        <time>2022-02-25T13:13:34Z</time>
      </trkpt>
      <trkpt lat="44.79408" lon="7.00421">
        <ele>2528.5</ele>
        <time>2022-02-25T13:13:35Z</time>
      </trkpt>
      <trkpt lat="44.79408" lon="7.00421">
        <ele>2528.5</ele>
        <time>2022-02-25T13:13:36Z</time>
      </trkpt>
      <trkpt lat="44.79408" lon="7.00421">
        <ele>2528.5</ele>
        <time>2022-02-25T13:13:37Z</time>
      </trkpt>
      <trkpt lat="44.79408" lon="7.00421">
        <ele>2528.5</ele>
        <time>2022-02-25T13:13:38Z</time>
      </trkpt>
      <trkpt lat="44.79408" lon="7.00421">
        <ele>2528.5</ele>
        <time>2022-02-25T13:13:39Z</time>
      </trkpt>
      <trkpt lat="44.79408" lon="7.00421">
        <ele>2528.5</ele>
        <time>2022-02-25T13:13:40Z</time>
      </trkpt>
      <trkpt lat="44.79408" lon="7.00421">
        <ele>2528.5</ele>
        <time>2022-02-25T13:13:41Z</time>
      </trkpt>
      <trkpt lat="44.79408" lon="7.00421">
        <ele>2528.5</ele>
        <time>2022-02-25T13:13:42Z</time>
      </trkpt>
      <trkpt lat="44.79408" lon="7.00421">
        <ele>2528.5</ele>
        <time>2022-02-25T13:13:43Z</time>
      </trkpt>
      <trkpt lat="44.79408" lon="7.00421">
        <ele>2528.5</ele>
        <time>2022-02-25T13:13:44Z</time>
      </trkpt>
      <trkpt lat="44.79408" lon="7.00421">
        <ele>2528.5</ele>
        <time>2022-02-25T13:13:45Z</time>
      </trkpt>
      <trkpt lat="44.79408" lon="7.00421">
        <ele>2528.5</ele>
        <time>2022-02-25T13:13:46Z</time>
      </trkpt>
      <trkpt lat="44.79408" lon="7.00421">
        <ele>2528.5</ele>
        <time>2022-02-25T13:13:47Z</time>
      </trkpt>
      <trkpt lat="44.79408" lon="7.00421">
        <ele>2528.5</ele>
        <time>2022-02-25T13:13:48Z</time>
      </trkpt>
      <trkpt lat="44.79408" lon="7.00421">
        <ele>2528.5</ele>
        <time>2022-02-25T13:13:49Z</time>
      </trkpt>
      <trkpt lat="44.79408" lon="7.00421">
        <ele>2528.5</ele>
        <time>2022-02-25T13:13:50Z</time>
      </trkpt>
      <trkpt lat="44.79408" lon="7.00421">
        <ele>2528.5</ele>
        <time>2022-02-25T13:13:51Z</time>
      </trkpt>
      <trkpt lat="44.79408" lon="7.00421">
        <ele>2528.5</ele>
        <time>2022-02-25T13:13:52Z</time>
      </trkpt>
      <trkpt lat="44.79408" lon="7.00421">
        <ele>2528.5</ele>
        <time>2022-02-25T13:13:53Z</time>
      </trkpt>
      <trkpt lat="44.79408" lon="7.00421">
        <ele>2528.5</ele>
        <time>2022-02-25T13:13:54Z</time>
      </trkpt>
      <trkpt lat="44.79408" lon="7.00421">
        <ele>2528.5</ele>
        <time>2022-02-25T13:13:55Z</time>
      </trkpt>
      <trkpt lat="44.79408" lon="7.00421">
        <ele>2528.5</ele>
        <time>2022-02-25T13:13:56Z</time>
      </trkpt>
      <trkpt lat="44.79408" lon="7.00421">
        <ele>2528.5</ele>
        <time>2022-02-25T13:13:57Z</time>
      </trkpt>
      <trkpt lat="44.79408" lon="7.00421">
        <ele>2528.5</ele>
        <time>2022-02-25T13:13:58Z</time>
      </trkpt>
      <trkpt lat="44.79408" lon="7.00421">
        <ele>2528.5</ele>
        <time>2022-02-25T13:13:59Z</time>
      </trkpt>
      <trkpt lat="44.79408" lon="7.00421">
        <ele>2528.5</ele>
        <time>2022-02-25T13:14:00Z</time>
      </trkpt>
      <trkpt lat="44.79408" lon="7.00421">
        <ele>2528.5</ele>
        <time>2022-02-25T13:14:01Z</time>
      </trkpt>
      <trkpt lat="44.79408" lon="7.00421">
        <ele>2528.5</ele>
        <time>2022-02-25T13:14:02Z</time>
      </trkpt>
      <trkpt lat="44.79408" lon="7.00421">
        <ele>2528.5</ele>
        <time>2022-02-25T13:14:03Z</time>
      </trkpt>
      <trkpt lat="44.79408" lon="7.00421">
        <ele>2528.5</ele>
        <time>2022-02-25T13:14:04Z</time>
      </trkpt>
      <trkpt lat="44.79408" lon="7.00421">
        <ele>2528.5</ele>
        <time>2022-02-25T13:14:05Z</time>
      </trkpt>
      <trkpt lat="44.79408" lon="7.00421">
        <ele>2528.5</ele>
        <time>2022-02-25T13:14:06Z</time>
      </trkpt>
      <trkpt lat="44.79408" lon="7.00421">
        <ele>2528.5</ele>
        <time>2022-02-25T13:14:07Z</time>
      </trkpt>
      <trkpt lat="44.79408" lon="7.00421">
        <ele>2528.5</ele>
        <time>2022-02-25T13:14:08Z</time>
      </trkpt>
      <trkpt lat="44.79408" lon="7.00421">
        <ele>2528.5</ele>
        <time>2022-02-25T13:14:09Z</time>
      </trkpt>
      <trkpt lat="44.79408" lon="7.00421">
        <ele>2528.5</ele>
        <time>2022-02-25T13:14:10Z</time>
      </trkpt>
      <trkpt lat="44.79408" lon="7.00421">
        <ele>2528.5</ele>
        <time>2022-02-25T13:14:11Z</time>
      </trkpt>
      <trkpt lat="44.79408" lon="7.00421">
        <ele>2528.5</ele>
        <time>2022-02-25T13:14:12Z</time>
      </trkpt>
      <trkpt lat="44.79408" lon="7.00421">
        <ele>2528.5</ele>
        <time>2022-02-25T13:14:13Z</time>
      </trkpt>
      <trkpt lat="44.79408" lon="7.00421">
        <ele>2528.5</ele>
        <time>2022-02-25T13:14:14Z</time>
      </trkpt>
      <trkpt lat="44.79408" lon="7.00421">
        <ele>2528.5</ele>
        <time>2022-02-25T13:14:15Z</time>
      </trkpt>
      <trkpt lat="44.79408" lon="7.00421">
        <ele>2528.5</ele>
        <time>2022-02-25T13:14:16Z</time>
      </trkpt>
      <trkpt lat="44.79408" lon="7.00421">
        <ele>2528.5</ele>
        <time>2022-02-25T13:14:17Z</time>
      </trkpt>
      <trkpt lat="44.79408" lon="7.00421">
        <ele>2528.5</ele>
        <time>2022-02-25T13:14:18Z</time>
      </trkpt>
      <trkpt lat="44.79408" lon="7.00421">
        <ele>2528.5</ele>
        <time>2022-02-25T13:14:19Z</time>
      </trkpt>
      <trkpt lat="44.79408" lon="7.00421">
        <ele>2528.5</ele>
        <time>2022-02-25T13:14:20Z</time>
      </trkpt>
      <trkpt lat="44.79408" lon="7.00421">
        <ele>2528.5</ele>
        <time>2022-02-25T13:14:21Z</time>
      </trkpt>
      <trkpt lat="44.79408" lon="7.00421">
        <ele>2528.5</ele>
        <time>2022-02-25T13:14:22Z</time>
      </trkpt>
      <trkpt lat="44.79408" lon="7.00421">
        <ele>2528.5</ele>
        <time>2022-02-25T13:14:23Z</time>
      </trkpt>
      <trkpt lat="44.79408" lon="7.00421">
        <ele>2528.5</ele>
        <time>2022-02-25T13:14:24Z</time>
      </trkpt>
      <trkpt lat="44.79408" lon="7.00421">
        <ele>2528.5</ele>
        <time>2022-02-25T13:14:25Z</time>
      </trkpt>
      <trkpt lat="44.79408" lon="7.00421">
        <ele>2528.5</ele>
        <time>2022-02-25T13:14:26Z</time>
      </trkpt>
      <trkpt lat="44.79408" lon="7.00421">
        <ele>2528.5</ele>
        <time>2022-02-25T13:14:27Z</time>
      </trkpt>
      <trkpt lat="44.79408" lon="7.00421">
        <ele>2528.5</ele>
        <time>2022-02-25T13:14:28Z</time>
      </trkpt>
      <trkpt lat="44.79408" lon="7.00421">
        <ele>2528.5</ele>
        <time>2022-02-25T13:14:29Z</time>
      </trkpt>
      <trkpt lat="44.79408" lon="7.00421">
        <ele>2528.5</ele>
        <time>2022-02-25T13:14:30Z</time>
      </trkpt>
      <trkpt lat="44.79408" lon="7.00421">
        <ele>2528.5</ele>
        <time>2022-02-25T13:14:31Z</time>
      </trkpt>
      <trkpt lat="44.79408" lon="7.00421">
        <ele>2528.5</ele>
        <time>2022-02-25T13:14:32Z</time>
      </trkpt>
      <trkpt lat="44.79408" lon="7.00421">
        <ele>2528.5</ele>
        <time>2022-02-25T13:14:33Z</time>
      </trkpt>
      <trkpt lat="44.79408" lon="7.00421">
        <ele>2528.5</ele>
        <time>2022-02-25T13:14:34Z</time>
      </trkpt>
      <trkpt lat="44.79408" lon="7.00421">
        <ele>2528.5</ele>
        <time>2022-02-25T13:14:35Z</time>
      </trkpt>
      <trkpt lat="44.79408" lon="7.00421">
        <ele>2528.5</ele>
        <time>2022-02-25T13:14:36Z</time>
      </trkpt>
      <trkpt lat="44.79408" lon="7.00421">
        <ele>2528.5</ele>
        <time>2022-02-25T13:14:37Z</time>
      </trkpt>
      <trkpt lat="44.79408" lon="7.00421">
        <ele>2528.5</ele>
        <time>2022-02-25T13:14:38Z</time>
      </trkpt>
      <trkpt lat="44.79408" lon="7.00421">
        <ele>2528.5</ele>
        <time>2022-02-25T13:14:39Z</time>
      </trkpt>
      <trkpt lat="44.79408" lon="7.00421">
        <ele>2528.5</ele>
        <time>2022-02-25T13:14:40Z</time>
      </trkpt>
      <trkpt lat="44.79408" lon="7.00421">
        <ele>2528.5</ele>
        <time>2022-02-25T13:14:41Z</time>
      </trkpt>
      <trkpt lat="44.79408" lon="7.00421">
        <ele>2528.5</ele>
        <time>2022-02-25T13:14:42Z</time>
      </trkpt>
      <trkpt lat="44.79408" lon="7.00421">
        <ele>2528.5</ele>
        <time>2022-02-25T13:14:43Z</time>
      </trkpt>
      <trkpt lat="44.79408" lon="7.00421">
        <ele>2528.5</ele>
        <time>2022-02-25T13:14:44Z</time>
      </trkpt>
      <trkpt lat="44.79408" lon="7.00421">
        <ele>2528.5</ele>
        <time>2022-02-25T13:14:45Z</time>
      </trkpt>
      <trkpt lat="44.79408" lon="7.00421">
        <ele>2528.5</ele>
        <time>2022-02-25T13:14:46Z</time>
      </trkpt>
      <trkpt lat="44.79408" lon="7.00421">
        <ele>2528.5</ele>
        <time>2022-02-25T13:14:47Z</time>
      </trkpt>
      <trkpt lat="44.79408" lon="7.00421">
        <ele>2528.5</ele>
        <time>2022-02-25T13:14:48Z</time>
      </trkpt>
      <trkpt lat="44.79408" lon="7.00421">
        <ele>2528.5</ele>
        <time>2022-02-25T13:14:49Z</time>
      </trkpt>
      <trkpt lat="44.79408" lon="7.00421">
        <ele>2528.5</ele>
        <time>2022-02-25T13:14:50Z</time>
      </trkpt>
      <trkpt lat="44.79408" lon="7.00421">
        <ele>2528.5</ele>
        <time>2022-02-25T13:14:51Z</time>
      </trkpt>
      <trkpt lat="44.79408" lon="7.00421">
        <ele>2528.5</ele>
        <time>2022-02-25T13:14:52Z</time>
      </trkpt>
      <trkpt lat="44.79408" lon="7.00421">
        <ele>2528.5</ele>
        <time>2022-02-25T13:14:53Z</time>
      </trkpt>
      <trkpt lat="44.79408" lon="7.00421">
        <ele>2528.5</ele>
        <time>2022-02-25T13:14:54Z</time>
      </trkpt>
      <trkpt lat="44.79408" lon="7.00421">
        <ele>2528.5</ele>
        <time>2022-02-25T13:14:55Z</time>
      </trkpt>
      <trkpt lat="44.79408" lon="7.00421">
        <ele>2528.5</ele>
        <time>2022-02-25T13:14:56Z</time>
      </trkpt>
      <trkpt lat="44.79408" lon="7.00421">
        <ele>2528.5</ele>
        <time>2022-02-25T13:14:57Z</time>
      </trkpt>
      <trkpt lat="44.79408" lon="7.00421">
        <ele>2528.5</ele>
        <time>2022-02-25T13:14:58Z</time>
      </trkpt>
      <trkpt lat="44.79408" lon="7.00421">
        <ele>2528.5</ele>
        <time>2022-02-25T13:14:59Z</time>
      </trkpt>
      <trkpt lat="44.79408" lon="7.00421">
        <ele>2528.5</ele>
        <time>2022-02-25T13:15:00Z</time>
      </trkpt>
      <trkpt lat="44.79408" lon="7.00421">
        <ele>2528.5</ele>
        <time>2022-02-25T13:15:01Z</time>
      </trkpt>
      <trkpt lat="44.79408" lon="7.00421">
        <ele>2528.5</ele>
        <time>2022-02-25T13:15:02Z</time>
      </trkpt>
      <trkpt lat="44.79408" lon="7.00421">
        <ele>2528.5</ele>
        <time>2022-02-25T13:15:03Z</time>
      </trkpt>
      <trkpt lat="44.79408" lon="7.00421">
        <ele>2528.5</ele>
        <time>2022-02-25T13:15:04Z</time>
      </trkpt>
      <trkpt lat="44.79408" lon="7.00421">
        <ele>2528.5</ele>
        <time>2022-02-25T13:15:05Z</time>
      </trkpt>
      <trkpt lat="44.79408" lon="7.00421">
        <ele>2528.5</ele>
        <time>2022-02-25T13:15:06Z</time>
      </trkpt>
      <trkpt lat="44.79408" lon="7.00421">
        <ele>2528.5</ele>
        <time>2022-02-25T13:15:07Z</time>
      </trkpt>
      <trkpt lat="44.79408" lon="7.00421">
        <ele>2528.5</ele>
        <time>2022-02-25T13:15:08Z</time>
      </trkpt>
      <trkpt lat="44.79408" lon="7.00421">
        <ele>2528.5</ele>
        <time>2022-02-25T13:15:09Z</time>
      </trkpt>
      <trkpt lat="44.79408" lon="7.00421">
        <ele>2528.5</ele>
        <time>2022-02-25T13:15:10Z</time>
      </trkpt>
      <trkpt lat="44.79408" lon="7.00421">
        <ele>2528.5</ele>
        <time>2022-02-25T13:15:11Z</time>
      </trkpt>
      <trkpt lat="44.79408" lon="7.00421">
        <ele>2528.5</ele>
        <time>2022-02-25T13:15:12Z</time>
      </trkpt>
      <trkpt lat="44.79408" lon="7.00421">
        <ele>2528.5</ele>
        <time>2022-02-25T13:15:13Z</time>
      </trkpt>
      <trkpt lat="44.79408" lon="7.00421">
        <ele>2528.5</ele>
        <time>2022-02-25T13:15:14Z</time>
      </trkpt>
      <trkpt lat="44.79408" lon="7.00421">
        <ele>2528.5</ele>
        <time>2022-02-25T13:15:15Z</time>
      </trkpt>
      <trkpt lat="44.79408" lon="7.00421">
        <ele>2528.5</ele>
        <time>2022-02-25T13:15:16Z</time>
      </trkpt>
      <trkpt lat="44.79408" lon="7.00421">
        <ele>2528.5</ele>
        <time>2022-02-25T13:15:17Z</time>
      </trkpt>
      <trkpt lat="44.79408" lon="7.00421">
        <ele>2528.5</ele>
        <time>2022-02-25T13:15:18Z</time>
      </trkpt>
      <trkpt lat="44.79408" lon="7.00421">
        <ele>2528.5</ele>
        <time>2022-02-25T13:15:19Z</time>
      </trkpt>
      <trkpt lat="44.79408" lon="7.00421">
        <ele>2528.5</ele>
        <time>2022-02-25T13:15:20Z</time>
      </trkpt>
      <trkpt lat="44.79408" lon="7.00421">
        <ele>2528.5</ele>
        <time>2022-02-25T13:15:21Z</time>
      </trkpt>
      <trkpt lat="44.79408" lon="7.00421">
        <ele>2528.5</ele>
        <time>2022-02-25T13:15:22Z</time>
      </trkpt>
      <trkpt lat="44.79408" lon="7.00421">
        <ele>2528.5</ele>
        <time>2022-02-25T13:15:23Z</time>
      </trkpt>
      <trkpt lat="44.79408" lon="7.00421">
        <ele>2528.5</ele>
        <time>2022-02-25T13:15:24Z</time>
      </trkpt>
      <trkpt lat="44.79408" lon="7.00421">
        <ele>2528.5</ele>
        <time>2022-02-25T13:15:25Z</time>
      </trkpt>
      <trkpt lat="44.79408" lon="7.00421">
        <ele>2528.5</ele>
        <time>2022-02-25T13:15:26Z</time>
      </trkpt>
      <trkpt lat="44.79408" lon="7.00421">
        <ele>2528.5</ele>
        <time>2022-02-25T13:15:27Z</time>
      </trkpt>
      <trkpt lat="44.79408" lon="7.00421">
        <ele>2528.5</ele>
        <time>2022-02-25T13:15:28Z</time>
      </trkpt>
      <trkpt lat="44.79408" lon="7.00421">
        <ele>2528.5</ele>
        <time>2022-02-25T13:15:29Z</time>
      </trkpt>
      <trkpt lat="44.79408" lon="7.00421">
        <ele>2528.5</ele>
        <time>2022-02-25T13:15:30Z</time>
      </trkpt>
      <trkpt lat="44.79408" lon="7.00421">
        <ele>2528.5</ele>
        <time>2022-02-25T13:15:31Z</time>
      </trkpt>
      <trkpt lat="44.79408" lon="7.00421">
        <ele>2528.5</ele>
        <time>2022-02-25T13:15:32Z</time>
      </trkpt>
      <trkpt lat="44.79408" lon="7.00421">
        <ele>2528.5</ele>
        <time>2022-02-25T13:15:33Z</time>
      </trkpt>
      <trkpt lat="44.79408" lon="7.00421">
        <ele>2528.5</ele>
        <time>2022-02-25T13:15:34Z</time>
      </trkpt>
      <trkpt lat="44.79408" lon="7.00421">
        <ele>2528.5</ele>
        <time>2022-02-25T13:15:35Z</time>
      </trkpt>
      <trkpt lat="44.79408" lon="7.00421">
        <ele>2528.5</ele>
        <time>2022-02-25T13:15:36Z</time>
      </trkpt>
      <trkpt lat="44.79408" lon="7.00421">
        <ele>2528.5</ele>
        <time>2022-02-25T13:15:37Z</time>
      </trkpt>
      <trkpt lat="44.79408" lon="7.00421">
        <ele>2528.5</ele>
        <time>2022-02-25T13:15:38Z</time>
      </trkpt>
      <trkpt lat="44.79408" lon="7.00421">
        <ele>2528.5</ele>
        <time>2022-02-25T13:15:39Z</time>
      </trkpt>
      <trkpt lat="44.79408" lon="7.00421">
        <ele>2528.5</ele>
        <time>2022-02-25T13:15:40Z</time>
      </trkpt>
      <trkpt lat="44.79408" lon="7.00421">
        <ele>2528.5</ele>
        <time>2022-02-25T13:15:41Z</time>
      </trkpt>
      <trkpt lat="44.79408" lon="7.00421">
        <ele>2528.5</ele>
        <time>2022-02-25T13:15:42Z</time>
      </trkpt>
      <trkpt lat="44.79408" lon="7.00421">
        <ele>2528.5</ele>
        <time>2022-02-25T13:15:43Z</time>
      </trkpt>
      <trkpt lat="44.79408" lon="7.00421">
        <ele>2528.5</ele>
        <time>2022-02-25T13:15:44Z</time>
      </trkpt>
      <trkpt lat="44.79408" lon="7.00421">
        <ele>2528.5</ele>
        <time>2022-02-25T13:15:45Z</time>
      </trkpt>
      <trkpt lat="44.79408" lon="7.00421">
        <ele>2528.5</ele>
        <time>2022-02-25T13:15:46Z</time>
      </trkpt>
      <trkpt lat="44.79408" lon="7.00421">
        <ele>2528.5</ele>
        <time>2022-02-25T13:15:47Z</time>
      </trkpt>
      <trkpt lat="44.79408" lon="7.00421">
        <ele>2528.5</ele>
        <time>2022-02-25T13:15:48Z</time>
      </trkpt>
      <trkpt lat="44.79408" lon="7.00421">
        <ele>2528.5</ele>
        <time>2022-02-25T13:15:49Z</time>
      </trkpt>
      <trkpt lat="44.79408" lon="7.00421">
        <ele>2528.5</ele>
        <time>2022-02-25T13:15:50Z</time>
      </trkpt>
      <trkpt lat="44.79408" lon="7.00421">
        <ele>2528.5</ele>
        <time>2022-02-25T13:15:51Z</time>
      </trkpt>
      <trkpt lat="44.79408" lon="7.00421">
        <ele>2528.5</ele>
        <time>2022-02-25T13:15:52Z</time>
      </trkpt>
      <trkpt lat="44.79408" lon="7.00421">
        <ele>2528.5</ele>
        <time>2022-02-25T13:15:53Z</time>
      </trkpt>
      <trkpt lat="44.79408" lon="7.00421">
        <ele>2528.5</ele>
        <time>2022-02-25T13:15:54Z</time>
      </trkpt>
      <trkpt lat="44.79408" lon="7.00421">
        <ele>2528.5</ele>
        <time>2022-02-25T13:15:55Z</time>
      </trkpt>
      <trkpt lat="44.79408" lon="7.00421">
        <ele>2528.5</ele>
        <time>2022-02-25T13:15:56Z</time>
      </trkpt>
      <trkpt lat="44.79408" lon="7.00421">
        <ele>2528.5</ele>
        <time>2022-02-25T13:15:57Z</time>
      </trkpt>
      <trkpt lat="44.79408" lon="7.00421">
        <ele>2528.5</ele>
        <time>2022-02-25T13:15:58Z</time>
      </trkpt>
      <trkpt lat="44.79408" lon="7.00421">
        <ele>2528.5</ele>
        <time>2022-02-25T13:15:59Z</time>
      </trkpt>
      <trkpt lat="44.79408" lon="7.00421">
        <ele>2528.5</ele>
        <time>2022-02-25T13:16:00Z</time>
      </trkpt>
      <trkpt lat="44.79408" lon="7.00421">
        <ele>2528.5</ele>
        <time>2022-02-25T13:16:01Z</time>
      </trkpt>
      <trkpt lat="44.79408" lon="7.00421">
        <ele>2528.5</ele>
        <time>2022-02-25T13:16:02Z</time>
      </trkpt>
      <trkpt lat="44.79408" lon="7.00421">
        <ele>2528.5</ele>
        <time>2022-02-25T13:16:03Z</time>
      </trkpt>
      <trkpt lat="44.79408" lon="7.00421">
        <ele>2528.5</ele>
        <time>2022-02-25T13:16:04Z</time>
      </trkpt>
      <trkpt lat="44.79408" lon="7.00421">
        <ele>2528.5</ele>
        <time>2022-02-25T13:16:05Z</time>
      </trkpt>
      <trkpt lat="44.79408" lon="7.00421">
        <ele>2528.5</ele>
        <time>2022-02-25T13:16:06Z</time>
      </trkpt>
      <trkpt lat="44.79408" lon="7.00421">
        <ele>2528.5</ele>
        <time>2022-02-25T13:16:07Z</time>
      </trkpt>
      <trkpt lat="44.79408" lon="7.00421">
        <ele>2528.5</ele>
        <time>2022-02-25T13:16:08Z</time>
      </trkpt>
      <trkpt lat="44.79408" lon="7.00421">
        <ele>2528.5</ele>
        <time>2022-02-25T13:16:09Z</time>
      </trkpt>
      <trkpt lat="44.79408" lon="7.00421">
        <ele>2528.5</ele>
        <time>2022-02-25T13:16:10Z</time>
      </trkpt>
      <trkpt lat="44.79408" lon="7.00421">
        <ele>2528.5</ele>
        <time>2022-02-25T13:16:11Z</time>
      </trkpt>
      <trkpt lat="44.79408" lon="7.00421">
        <ele>2528.5</ele>
        <time>2022-02-25T13:16:12Z</time>
      </trkpt>
      <trkpt lat="44.79408" lon="7.00421">
        <ele>2528.5</ele>
        <time>2022-02-25T13:16:13Z</time>
      </trkpt>
      <trkpt lat="44.79408" lon="7.00421">
        <ele>2528.5</ele>
        <time>2022-02-25T13:16:14Z</time>
      </trkpt>
      <trkpt lat="44.79408" lon="7.00421">
        <ele>2528.5</ele>
        <time>2022-02-25T13:16:15Z</time>
      </trkpt>
      <trkpt lat="44.79408" lon="7.00421">
        <ele>2528.5</ele>
        <time>2022-02-25T13:16:16Z</time>
      </trkpt>
      <trkpt lat="44.79408" lon="7.00421">
        <ele>2528.5</ele>
        <time>2022-02-25T13:16:17Z</time>
      </trkpt>
      <trkpt lat="44.79408" lon="7.00421">
        <ele>2528.5</ele>
        <time>2022-02-25T13:16:18Z</time>
      </trkpt>
      <trkpt lat="44.79408" lon="7.00421">
        <ele>2528.5</ele>
        <time>2022-02-25T13:16:19Z</time>
      </trkpt>
      <trkpt lat="44.79408" lon="7.00421">
        <ele>2528.5</ele>
        <time>2022-02-25T13:16:20Z</time>
      </trkpt>
      <trkpt lat="44.79408" lon="7.00421">
        <ele>2528.5</ele>
        <time>2022-02-25T13:16:21Z</time>
      </trkpt>
      <trkpt lat="44.79408" lon="7.00421">
        <ele>2528.5</ele>
        <time>2022-02-25T13:16:22Z</time>
      </trkpt>
      <trkpt lat="44.79408" lon="7.00421">
        <ele>2528.5</ele>
        <time>2022-02-25T13:16:23Z</time>
      </trkpt>
      <trkpt lat="44.79408" lon="7.00421">
        <ele>2528.5</ele>
        <time>2022-02-25T13:16:24Z</time>
      </trkpt>
      <trkpt lat="44.79408" lon="7.00421">
        <ele>2528.5</ele>
        <time>2022-02-25T13:16:25Z</time>
      </trkpt>
      <trkpt lat="44.79408" lon="7.00421">
        <ele>2528.5</ele>
        <time>2022-02-25T13:16:26Z</time>
      </trkpt>
      <trkpt lat="44.79408" lon="7.00421">
        <ele>2528.5</ele>
        <time>2022-02-25T13:16:27Z</time>
      </trkpt>
      <trkpt lat="44.79408" lon="7.00421">
        <ele>2528.5</ele>
        <time>2022-02-25T13:16:28Z</time>
      </trkpt>
      <trkpt lat="44.79408" lon="7.00421">
        <ele>2528.5</ele>
        <time>2022-02-25T13:16:29Z</time>
      </trkpt>
      <trkpt lat="44.79408" lon="7.00421">
        <ele>2528.5</ele>
        <time>2022-02-25T13:16:30Z</time>
      </trkpt>
      <trkpt lat="44.79408" lon="7.00421">
        <ele>2528.5</ele>
        <time>2022-02-25T13:16:31Z</time>
      </trkpt>
      <trkpt lat="44.79408" lon="7.00421">
        <ele>2528.5</ele>
        <time>2022-02-25T13:16:32Z</time>
      </trkpt>
      <trkpt lat="44.79408" lon="7.00421">
        <ele>2528.5</ele>
        <time>2022-02-25T13:16:33Z</time>
      </trkpt>
      <trkpt lat="44.79408" lon="7.00421">
        <ele>2528.5</ele>
        <time>2022-02-25T13:16:34Z</time>
      </trkpt>
      <trkpt lat="44.79408" lon="7.00421">
        <ele>2528.5</ele>
        <time>2022-02-25T13:16:35Z</time>
      </trkpt>
      <trkpt lat="44.79408" lon="7.00421">
        <ele>2528.5</ele>
        <time>2022-02-25T13:16:36Z</time>
      </trkpt>
      <trkpt lat="44.79408" lon="7.00421">
        <ele>2528.5</ele>
        <time>2022-02-25T13:16:37Z</time>
      </trkpt>
      <trkpt lat="44.79408" lon="7.00421">
        <ele>2528.5</ele>
        <time>2022-02-25T13:16:38Z</time>
      </trkpt>
      <trkpt lat="44.79408" lon="7.00421">
        <ele>2528.5</ele>
        <time>2022-02-25T13:16:39Z</time>
      </trkpt>
      <trkpt lat="44.79408" lon="7.00421">
        <ele>2528.5</ele>
        <time>2022-02-25T13:16:40Z</time>
      </trkpt>
      <trkpt lat="44.79408" lon="7.00421">
        <ele>2528.5</ele>
        <time>2022-02-25T13:16:41Z</time>
      </trkpt>
      <trkpt lat="44.79408" lon="7.00421">
        <ele>2528.5</ele>
        <time>2022-02-25T13:16:42Z</time>
      </trkpt>
      <trkpt lat="44.79408" lon="7.00421">
        <ele>2528.5</ele>
        <time>2022-02-25T13:16:43Z</time>
      </trkpt>
      <trkpt lat="44.79408" lon="7.00421">
        <ele>2528.5</ele>
        <time>2022-02-25T13:16:44Z</time>
      </trkpt>
      <trkpt lat="44.79408" lon="7.00421">
        <ele>2528.5</ele>
        <time>2022-02-25T13:16:45Z</time>
      </trkpt>
      <trkpt lat="44.79408" lon="7.00421">
        <ele>2528.5</ele>
        <time>2022-02-25T13:16:46Z</time>
      </trkpt>
      <trkpt lat="44.79408" lon="7.00421">
        <ele>2528.5</ele>
        <time>2022-02-25T13:16:47Z</time>
      </trkpt>
      <trkpt lat="44.79408" lon="7.00421">
        <ele>2528.5</ele>
        <time>2022-02-25T13:16:48Z</time>
      </trkpt>
      <trkpt lat="44.79408" lon="7.00421">
        <ele>2528.5</ele>
        <time>2022-02-25T13:16:49Z</time>
      </trkpt>
      <trkpt lat="44.79408" lon="7.00421">
        <ele>2528.5</ele>
        <time>2022-02-25T13:16:50Z</time>
      </trkpt>
      <trkpt lat="44.79408" lon="7.00421">
        <ele>2528.5</ele>
        <time>2022-02-25T13:16:51Z</time>
      </trkpt>
      <trkpt lat="44.79408" lon="7.00421">
        <ele>2528.5</ele>
        <time>2022-02-25T13:16:52Z</time>
      </trkpt>
      <trkpt lat="44.79408" lon="7.00421">
        <ele>2528.5</ele>
        <time>2022-02-25T13:16:53Z</time>
      </trkpt>
      <trkpt lat="44.79408" lon="7.00421">
        <ele>2528.5</ele>
        <time>2022-02-25T13:16:54Z</time>
      </trkpt>
      <trkpt lat="44.79408" lon="7.00421">
        <ele>2528.5</ele>
        <time>2022-02-25T13:16:55Z</time>
      </trkpt>
      <trkpt lat="44.79408" lon="7.00421">
        <ele>2528.5</ele>
        <time>2022-02-25T13:16:56Z</time>
      </trkpt>
      <trkpt lat="44.79408" lon="7.00421">
        <ele>2528.5</ele>
        <time>2022-02-25T13:16:57Z</time>
      </trkpt>
      <trkpt lat="44.79408" lon="7.00421">
        <ele>2528.5</ele>
        <time>2022-02-25T13:16:58Z</time>
      </trkpt>
      <trkpt lat="44.79408" lon="7.00421">
        <ele>2528.5</ele>
        <time>2022-02-25T13:16:59Z</time>
      </trkpt>
      <trkpt lat="44.79408" lon="7.00421">
        <ele>2528.5</ele>
        <time>2022-02-25T13:17:00Z</time>
      </trkpt>
      <trkpt lat="44.79408" lon="7.00421">
        <ele>2528.5</ele>
        <time>2022-02-25T13:17:01Z</time>
      </trkpt>
      <trkpt lat="44.79408" lon="7.00421">
        <ele>2528.5</ele>
        <time>2022-02-25T13:17:02Z</time>
      </trkpt>
      <trkpt lat="44.79408" lon="7.00421">
        <ele>2528.5</ele>
        <time>2022-02-25T13:17:03Z</time>
      </trkpt>
      <trkpt lat="44.79408" lon="7.00421">
        <ele>2528.5</ele>
        <time>2022-02-25T13:17:04Z</time>
      </trkpt>
      <trkpt lat="44.79408" lon="7.00421">
        <ele>2528.5</ele>
        <time>2022-02-25T13:17:05Z</time>
      </trkpt>
      <trkpt lat="44.79408" lon="7.00421">
        <ele>2528.5</ele>
        <time>2022-02-25T13:17:06Z</time>
      </trkpt>
      <trkpt lat="44.79408" lon="7.00421">
        <ele>2528.5</ele>
        <time>2022-02-25T13:17:07Z</time>
      </trkpt>
      <trkpt lat="44.79408" lon="7.00421">
        <ele>2528.5</ele>
        <time>2022-02-25T13:17:08Z</time>
      </trkpt>
      <trkpt lat="44.79408" lon="7.00421">
        <ele>2528.5</ele>
        <time>2022-02-25T13:17:09Z</time>
      </trkpt>
      <trkpt lat="44.79408" lon="7.00421">
        <ele>2528.5</ele>
        <time>2022-02-25T13:17:10Z</time>
      </trkpt>
      <trkpt lat="44.79408" lon="7.00421">
        <ele>2528.5</ele>
        <time>2022-02-25T13:17:11Z</time>
      </trkpt>
      <trkpt lat="44.79408" lon="7.00421">
        <ele>2528.5</ele>
        <time>2022-02-25T13:17:12Z</time>
      </trkpt>
      <trkpt lat="44.79408" lon="7.00421">
        <ele>2528.5</ele>
        <time>2022-02-25T13:17:13Z</time>
      </trkpt>
      <trkpt lat="44.79408" lon="7.00421">
        <ele>2528.5</ele>
        <time>2022-02-25T13:17:14Z</time>
      </trkpt>
      <trkpt lat="44.79408" lon="7.00421">
        <ele>2528.5</ele>
        <time>2022-02-25T13:17:15Z</time>
      </trkpt>
      <trkpt lat="44.79408" lon="7.00421">
        <ele>2528.5</ele>
        <time>2022-02-25T13:17:16Z</time>
      </trkpt>
      <trkpt lat="44.79408" lon="7.00421">
        <ele>2528.5</ele>
        <time>2022-02-25T13:17:17Z</time>
      </trkpt>
      <trkpt lat="44.79408" lon="7.00421">
        <ele>2528.5</ele>
        <time>2022-02-25T13:17:18Z</time>
      </trkpt>
      <trkpt lat="44.79408" lon="7.00421">
        <ele>2528.5</ele>
        <time>2022-02-25T13:17:19Z</time>
      </trkpt>
      <trkpt lat="44.79408" lon="7.00421">
        <ele>2528.5</ele>
        <time>2022-02-25T13:17:20Z</time>
      </trkpt>
      <trkpt lat="44.79408" lon="7.00421">
        <ele>2528.5</ele>
        <time>2022-02-25T13:17:21Z</time>
      </trkpt>
      <trkpt lat="44.79408" lon="7.00421">
        <ele>2528.5</ele>
        <time>2022-02-25T13:17:22Z</time>
      </trkpt>
      <trkpt lat="44.79408" lon="7.00421">
        <ele>2528.5</ele>
        <time>2022-02-25T13:17:23Z</time>
      </trkpt>
      <trkpt lat="44.79408" lon="7.00421">
        <ele>2528.5</ele>
        <time>2022-02-25T13:17:24Z</time>
      </trkpt>
      <trkpt lat="44.79408" lon="7.00421">
        <ele>2528.5</ele>
        <time>2022-02-25T13:17:25Z</time>
      </trkpt>
      <trkpt lat="44.79408" lon="7.00421">
        <ele>2528.5</ele>
        <time>2022-02-25T13:17:26Z</time>
      </trkpt>
      <trkpt lat="44.79408" lon="7.00421">
        <ele>2528.5</ele>
        <time>2022-02-25T13:17:27Z</time>
      </trkpt>
      <trkpt lat="44.79408" lon="7.00421">
        <ele>2528.5</ele>
        <time>2022-02-25T13:17:28Z</time>
      </trkpt>
      <trkpt lat="44.79408" lon="7.00421">
        <ele>2528.5</ele>
        <time>2022-02-25T13:17:29Z</time>
      </trkpt>
      <trkpt lat="44.79408" lon="7.00421">
        <ele>2528.5</ele>
        <time>2022-02-25T13:17:30Z</time>
      </trkpt>
      <trkpt lat="44.79408" lon="7.00421">
        <ele>2528.5</ele>
        <time>2022-02-25T13:17:31Z</time>
      </trkpt>
      <trkpt lat="44.79408" lon="7.00421">
        <ele>2528.5</ele>
        <time>2022-02-25T13:17:32Z</time>
      </trkpt>
      <trkpt lat="44.79408" lon="7.00421">
        <ele>2528.5</ele>
        <time>2022-02-25T13:17:33Z</time>
      </trkpt>
      <trkpt lat="44.79408" lon="7.00421">
        <ele>2528.5</ele>
        <time>2022-02-25T13:17:34Z</time>
      </trkpt>
      <trkpt lat="44.79408" lon="7.00421">
        <ele>2528.5</ele>
        <time>2022-02-25T13:17:35Z</time>
      </trkpt>
      <trkpt lat="44.79408" lon="7.00421">
        <ele>2528.5</ele>
        <time>2022-02-25T13:17:36Z</time>
      </trkpt>
      <trkpt lat="44.79408" lon="7.00421">
        <ele>2528.5</ele>
        <time>2022-02-25T13:17:37Z</time>
      </trkpt>
      <trkpt lat="44.79408" lon="7.00421">
        <ele>2528.5</ele>
        <time>2022-02-25T13:17:38Z</time>
      </trkpt>
      <trkpt lat="44.79408" lon="7.00421">
        <ele>2528.5</ele>
        <time>2022-02-25T13:17:39Z</time>
      </trkpt>
      <trkpt lat="44.79408" lon="7.00421">
        <ele>2528.5</ele>
        <time>2022-02-25T13:17:40Z</time>
      </trkpt>
      <trkpt lat="44.79408" lon="7.00421">
        <ele>2528.5</ele>
        <time>2022-02-25T13:17:41Z</time>
      </trkpt>
      <trkpt lat="44.79408" lon="7.00421">
        <ele>2528.5</ele>
        <time>2022-02-25T13:17:42Z</time>
      </trkpt>
      <trkpt lat="44.79408" lon="7.00421">
        <ele>2528.5</ele>
        <time>2022-02-25T13:17:43Z</time>
      </trkpt>
      <trkpt lat="44.79408" lon="7.00421">
        <ele>2528.5</ele>
        <time>2022-02-25T13:17:44Z</time>
      </trkpt>
      <trkpt lat="44.79408" lon="7.00421">
        <ele>2528.5</ele>
        <time>2022-02-25T13:17:45Z</time>
      </trkpt>
      <trkpt lat="44.79408" lon="7.00421">
        <ele>2528.5</ele>
        <time>2022-02-25T13:17:46Z</time>
      </trkpt>
      <trkpt lat="44.79408" lon="7.00421">
        <ele>2528.5</ele>
        <time>2022-02-25T13:17:47Z</time>
      </trkpt>
      <trkpt lat="44.79408" lon="7.00421">
        <ele>2528.5</ele>
        <time>2022-02-25T13:17:48Z</time>
      </trkpt>
      <trkpt lat="44.79408" lon="7.00421">
        <ele>2528.5</ele>
        <time>2022-02-25T13:17:49Z</time>
      </trkpt>
      <trkpt lat="44.79408" lon="7.00421">
        <ele>2528.5</ele>
        <time>2022-02-25T13:17:50Z</time>
      </trkpt>
      <trkpt lat="44.79408" lon="7.00421">
        <ele>2528.5</ele>
        <time>2022-02-25T13:17:51Z</time>
      </trkpt>
      <trkpt lat="44.79408" lon="7.00421">
        <ele>2528.5</ele>
        <time>2022-02-25T13:17:52Z</time>
      </trkpt>
      <trkpt lat="44.79408" lon="7.00421">
        <ele>2528.5</ele>
        <time>2022-02-25T13:17:53Z</time>
      </trkpt>
      <trkpt lat="44.79408" lon="7.00421">
        <ele>2528.5</ele>
        <time>2022-02-25T13:17:54Z</time>
      </trkpt>
      <trkpt lat="44.79408" lon="7.00421">
        <ele>2528.5</ele>
        <time>2022-02-25T13:17:55Z</time>
      </trkpt>
      <trkpt lat="44.7941" lon="7.0042">
        <ele>2528.5</ele>
        <time>2022-02-25T13:17:56Z</time>
      </trkpt>
      <trkpt lat="44.7941" lon="7.0042">
        <ele>2528.5</ele>
        <time>2022-02-25T13:17:57Z</time>
      </trkpt>
      <trkpt lat="44.7941" lon="7.0042">
        <ele>2528.5</ele>
        <time>2022-02-25T13:17:58Z</time>
      </trkpt>
      <trkpt lat="44.7941" lon="7.0042">
        <ele>2528.5</ele>
        <time>2022-02-25T13:17:59Z</time>
      </trkpt>
      <trkpt lat="44.7941" lon="7.0042">
        <ele>2528.5</ele>
        <time>2022-02-25T13:18:00Z</time>
      </trkpt>
      <trkpt lat="44.79411" lon="7.00415">
        <ele>2528.2</ele>
        <time>2022-02-25T13:18:01Z</time>
      </trkpt>
      <trkpt lat="44.79411" lon="7.00415">
        <ele>2528.2</ele>
        <time>2022-02-25T13:18:02Z</time>
      </trkpt>
      <trkpt lat="44.79411" lon="7.00415">
        <ele>2528.2</ele>
        <time>2022-02-25T13:18:03Z</time>
      </trkpt>
      <trkpt lat="44.7941" lon="7.00412">
        <ele>2528.3</ele>
        <time>2022-02-25T13:18:04Z</time>
      </trkpt>
      <trkpt lat="44.7941" lon="7.00412">
        <ele>2528.3</ele>
        <time>2022-02-25T13:18:05Z</time>
      </trkpt>
      <trkpt lat="44.7941" lon="7.00412">
        <ele>2528.3</ele>
        <time>2022-02-25T13:18:06Z</time>
      </trkpt>
      <trkpt lat="44.7941" lon="7.00412">
        <ele>2528.3</ele>
        <time>2022-02-25T13:18:07Z</time>
      </trkpt>
      <trkpt lat="44.7941" lon="7.00412">
        <ele>2528.3</ele>
        <time>2022-02-25T13:18:08Z</time>
      </trkpt>
      <trkpt lat="44.7941" lon="7.00409">
        <ele>2528.3</ele>
        <time>2022-02-25T13:18:09Z</time>
      </trkpt>
      <trkpt lat="44.7941" lon="7.00409">
        <ele>2528.3</ele>
        <time>2022-02-25T13:18:10Z</time>
      </trkpt>
      <trkpt lat="44.7941" lon="7.00409">
        <ele>2528.3</ele>
        <time>2022-02-25T13:18:11Z</time>
      </trkpt>
      <trkpt lat="44.7941" lon="7.00409">
        <ele>2528.3</ele>
        <time>2022-02-25T13:18:12Z</time>
      </trkpt>
      <trkpt lat="44.7941" lon="7.00409">
        <ele>2528.3</ele>
        <time>2022-02-25T13:18:13Z</time>
      </trkpt>
      <trkpt lat="44.7941" lon="7.00409">
        <ele>2528.3</ele>
        <time>2022-02-25T13:18:14Z</time>
      </trkpt>
      <trkpt lat="44.79412" lon="7.00407">
        <ele>2528</ele>
        <time>2022-02-25T13:18:15Z</time>
      </trkpt>
      <trkpt lat="44.79412" lon="7.00407">
        <ele>2528</ele>
        <time>2022-02-25T13:18:16Z</time>
      </trkpt>
      <trkpt lat="44.79412" lon="7.00407">
        <ele>2528</ele>
        <time>2022-02-25T13:18:17Z</time>
      </trkpt>
      <trkpt lat="44.79412" lon="7.00407">
        <ele>2528</ele>
        <time>2022-02-25T13:18:18Z</time>
      </trkpt>
      <trkpt lat="44.79413" lon="7.00404">
        <ele>2527.8</ele>
        <time>2022-02-25T13:18:19Z</time>
      </trkpt>
      <trkpt lat="44.79413" lon="7.00404">
        <ele>2527.8</ele>
        <time>2022-02-25T13:18:20Z</time>
      </trkpt>
      <trkpt lat="44.79413" lon="7.00404">
        <ele>2527.8</ele>
        <time>2022-02-25T13:18:21Z</time>
      </trkpt>
      <trkpt lat="44.79415" lon="7.00403">
        <ele>2527.3</ele>
        <time>2022-02-25T13:18:22Z</time>
      </trkpt>
      <trkpt lat="44.79415" lon="7.00403">
        <ele>2527.3</ele>
        <time>2022-02-25T13:18:23Z</time>
      </trkpt>
      <trkpt lat="44.79415" lon="7.00403">
        <ele>2527.3</ele>
        <time>2022-02-25T13:18:24Z</time>
      </trkpt>
      <trkpt lat="44.79417" lon="7.00401">
        <ele>2526.9</ele>
        <time>2022-02-25T13:18:25Z</time>
      </trkpt>
      <trkpt lat="44.79417" lon="7.00401">
        <ele>2526.9</ele>
        <time>2022-02-25T13:18:26Z</time>
      </trkpt>
      <trkpt lat="44.79417" lon="7.00401">
        <ele>2526.9</ele>
        <time>2022-02-25T13:18:27Z</time>
      </trkpt>
      <trkpt lat="44.79418" lon="7.00399">
        <ele>2526.9</ele>
        <time>2022-02-25T13:18:28Z</time>
      </trkpt>
      <trkpt lat="44.79418" lon="7.00399">
        <ele>2526.9</ele>
        <time>2022-02-25T13:18:29Z</time>
      </trkpt>
      <trkpt lat="44.79418" lon="7.00399">
        <ele>2526.9</ele>
        <time>2022-02-25T13:18:30Z</time>
      </trkpt>
      <trkpt lat="44.7942" lon="7.00398">
        <ele>2527.2</ele>
        <time>2022-02-25T13:18:31Z</time>
      </trkpt>
      <trkpt lat="44.7942" lon="7.00398">
        <ele>2527.2</ele>
        <time>2022-02-25T13:18:32Z</time>
      </trkpt>
      <trkpt lat="44.7942" lon="7.00398">
        <ele>2527.2</ele>
        <time>2022-02-25T13:18:33Z</time>
      </trkpt>
      <trkpt lat="44.7942" lon="7.00398">
        <ele>2527.2</ele>
        <time>2022-02-25T13:18:34Z</time>
      </trkpt>
      <trkpt lat="44.7942" lon="7.00397">
        <ele>2527.1</ele>
        <time>2022-02-25T13:18:35Z</time>
      </trkpt>
      <trkpt lat="44.7942" lon="7.00397">
        <ele>2527.1</ele>
        <time>2022-02-25T13:18:36Z</time>
      </trkpt>
      <trkpt lat="44.7942" lon="7.00397">
        <ele>2527.1</ele>
        <time>2022-02-25T13:18:37Z</time>
      </trkpt>
      <trkpt lat="44.7942" lon="7.00397">
        <ele>2527.1</ele>
        <time>2022-02-25T13:18:38Z</time>
      </trkpt>
      <trkpt lat="44.7942" lon="7.00397">
        <ele>2527.1</ele>
        <time>2022-02-25T13:18:39Z</time>
      </trkpt>
      <trkpt lat="44.7942" lon="7.00397">
        <ele>2527.1</ele>
        <time>2022-02-25T13:18:40Z</time>
      </trkpt>
      <trkpt lat="44.79421" lon="7.00397">
        <ele>2527.2</ele>
        <time>2022-02-25T13:18:41Z</time>
      </trkpt>
      <trkpt lat="44.79421" lon="7.00396">
        <ele>2527.1</ele>
        <time>2022-02-25T13:18:42Z</time>
      </trkpt>
      <trkpt lat="44.79421" lon="7.00396">
        <ele>2527.1</ele>
        <time>2022-02-25T13:18:43Z</time>
      </trkpt>
      <trkpt lat="44.79421" lon="7.00396">
        <ele>2527.1</ele>
        <time>2022-02-25T13:18:44Z</time>
      </trkpt>
      <trkpt lat="44.79421" lon="7.00396">
        <ele>2527.1</ele>
        <time>2022-02-25T13:18:45Z</time>
      </trkpt>
      <trkpt lat="44.79421" lon="7.00396">
        <ele>2527.1</ele>
        <time>2022-02-25T13:18:46Z</time>
      </trkpt>
      <trkpt lat="44.79421" lon="7.00396">
        <ele>2527.1</ele>
        <time>2022-02-25T13:18:47Z</time>
      </trkpt>
      <trkpt lat="44.79421" lon="7.00396">
        <ele>2527.1</ele>
        <time>2022-02-25T13:18:48Z</time>
      </trkpt>
      <trkpt lat="44.79421" lon="7.00395">
        <ele>2527</ele>
        <time>2022-02-25T13:18:49Z</time>
      </trkpt>
      <trkpt lat="44.79421" lon="7.00395">
        <ele>2527</ele>
        <time>2022-02-25T13:18:50Z</time>
      </trkpt>
      <trkpt lat="44.79421" lon="7.00395">
        <ele>2527</ele>
        <time>2022-02-25T13:18:51Z</time>
      </trkpt>
      <trkpt lat="44.79421" lon="7.00395">
        <ele>2527</ele>
        <time>2022-02-25T13:18:52Z</time>
      </trkpt>
      <trkpt lat="44.79421" lon="7.00395">
        <ele>2527</ele>
        <time>2022-02-25T13:18:53Z</time>
      </trkpt>
      <trkpt lat="44.79422" lon="7.00395">
        <ele>2527.1</ele>
        <time>2022-02-25T13:18:54Z</time>
      </trkpt>
      <trkpt lat="44.79422" lon="7.00395">
        <ele>2527.1</ele>
        <time>2022-02-25T13:18:55Z</time>
      </trkpt>
      <trkpt lat="44.79422" lon="7.00394">
        <ele>2527</ele>
        <time>2022-02-25T13:18:56Z</time>
      </trkpt>
      <trkpt lat="44.79422" lon="7.00394">
        <ele>2527</ele>
        <time>2022-02-25T13:18:57Z</time>
      </trkpt>
      <trkpt lat="44.79422" lon="7.00394">
        <ele>2527</ele>
        <time>2022-02-25T13:18:58Z</time>
      </trkpt>
      <trkpt lat="44.79422" lon="7.00394">
        <ele>2527</ele>
        <time>2022-02-25T13:18:59Z</time>
      </trkpt>
      <trkpt lat="44.79422" lon="7.00394">
        <ele>2527</ele>
        <time>2022-02-25T13:19:00Z</time>
      </trkpt>
      <trkpt lat="44.79422" lon="7.00394">
        <ele>2527</ele>
        <time>2022-02-25T13:19:01Z</time>
      </trkpt>
      <trkpt lat="44.79422" lon="7.00394">
        <ele>2527</ele>
        <time>2022-02-25T13:19:02Z</time>
      </trkpt>
      <trkpt lat="44.79422" lon="7.00393">
        <ele>2526.9</ele>
        <time>2022-02-25T13:19:03Z</time>
      </trkpt>
      <trkpt lat="44.79422" lon="7.00393">
        <ele>2526.9</ele>
        <time>2022-02-25T13:19:04Z</time>
      </trkpt>
      <trkpt lat="44.79422" lon="7.00393">
        <ele>2526.9</ele>
        <time>2022-02-25T13:19:05Z</time>
      </trkpt>
      <trkpt lat="44.79422" lon="7.00393">
        <ele>2526.9</ele>
        <time>2022-02-25T13:19:06Z</time>
      </trkpt>
      <trkpt lat="44.79423" lon="7.00393">
        <ele>2527</ele>
        <time>2022-02-25T13:19:07Z</time>
      </trkpt>
      <trkpt lat="44.79423" lon="7.00393">
        <ele>2527</ele>
        <time>2022-02-25T13:19:08Z</time>
      </trkpt>
      <trkpt lat="44.79423" lon="7.00393">
        <ele>2527</ele>
        <time>2022-02-25T13:19:09Z</time>
      </trkpt>
      <trkpt lat="44.79423" lon="7.00392">
        <ele>2526.9</ele>
        <time>2022-02-25T13:19:10Z</time>
      </trkpt>
      <trkpt lat="44.79423" lon="7.00392">
        <ele>2526.9</ele>
        <time>2022-02-25T13:19:11Z</time>
      </trkpt>
      <trkpt lat="44.79423" lon="7.00392">
        <ele>2526.9</ele>
        <time>2022-02-25T13:19:12Z</time>
      </trkpt>
      <trkpt lat="44.79423" lon="7.00392">
        <ele>2526.9</ele>
        <time>2022-02-25T13:19:13Z</time>
      </trkpt>
      <trkpt lat="44.79423" lon="7.00392">
        <ele>2526.9</ele>
        <time>2022-02-25T13:19:14Z</time>
      </trkpt>
      <trkpt lat="44.79423" lon="7.00392">
        <ele>2526.9</ele>
        <time>2022-02-25T13:19:15Z</time>
      </trkpt>
      <trkpt lat="44.79423" lon="7.00392">
        <ele>2526.9</ele>
        <time>2022-02-25T13:19:16Z</time>
      </trkpt>
      <trkpt lat="44.79423" lon="7.00391">
        <ele>2526.7</ele>
        <time>2022-02-25T13:19:17Z</time>
      </trkpt>
      <trkpt lat="44.79423" lon="7.00391">
        <ele>2526.7</ele>
        <time>2022-02-25T13:19:18Z</time>
      </trkpt>
      <trkpt lat="44.79424" lon="7.00391">
        <ele>2526.8</ele>
        <time>2022-02-25T13:19:19Z</time>
      </trkpt>
      <trkpt lat="44.79424" lon="7.00391">
        <ele>2526.8</ele>
        <time>2022-02-25T13:19:20Z</time>
      </trkpt>
      <trkpt lat="44.79424" lon="7.00391">
        <ele>2526.8</ele>
        <time>2022-02-25T13:19:21Z</time>
      </trkpt>
      <trkpt lat="44.79424" lon="7.00391">
        <ele>2526.8</ele>
        <time>2022-02-25T13:19:22Z</time>
      </trkpt>
      <trkpt lat="44.79424" lon="7.00391">
        <ele>2526.8</ele>
        <time>2022-02-25T13:19:23Z</time>
      </trkpt>
      <trkpt lat="44.79424" lon="7.0039">
        <ele>2526.7</ele>
        <time>2022-02-25T13:19:24Z</time>
      </trkpt>
      <trkpt lat="44.79424" lon="7.0039">
        <ele>2526.7</ele>
        <time>2022-02-25T13:19:25Z</time>
      </trkpt>
      <trkpt lat="44.79424" lon="7.0039">
        <ele>2526.7</ele>
        <time>2022-02-25T13:19:26Z</time>
      </trkpt>
      <trkpt lat="44.79424" lon="7.0039">
        <ele>2526.7</ele>
        <time>2022-02-25T13:19:27Z</time>
      </trkpt>
      <trkpt lat="44.79424" lon="7.0039">
        <ele>2526.7</ele>
        <time>2022-02-25T13:19:28Z</time>
      </trkpt>
      <trkpt lat="44.79424" lon="7.0039">
        <ele>2526.7</ele>
        <time>2022-02-25T13:19:29Z</time>
      </trkpt>
      <trkpt lat="44.79424" lon="7.0039">
        <ele>2526.7</ele>
        <time>2022-02-25T13:19:30Z</time>
      </trkpt>
      <trkpt lat="44.79425" lon="7.00387">
        <ele>2526.6</ele>
        <time>2022-02-25T13:19:31Z</time>
      </trkpt>
      <trkpt lat="44.79426" lon="7.00385">
        <ele>2526.6</ele>
        <time>2022-02-25T13:19:32Z</time>
      </trkpt>
      <trkpt lat="44.79426" lon="7.00385">
        <ele>2526.6</ele>
        <time>2022-02-25T13:19:33Z</time>
      </trkpt>
      <trkpt lat="44.79429" lon="7.00382">
        <ele>2526.8</ele>
        <time>2022-02-25T13:19:34Z</time>
      </trkpt>
      <trkpt lat="44.79429" lon="7.00382">
        <ele>2526.8</ele>
        <time>2022-02-25T13:19:35Z</time>
      </trkpt>
      <trkpt lat="44.7943" lon="7.00379">
        <ele>2526.8</ele>
        <time>2022-02-25T13:19:36Z</time>
      </trkpt>
      <trkpt lat="44.7943" lon="7.00379">
        <ele>2526.8</ele>
        <time>2022-02-25T13:19:37Z</time>
      </trkpt>
      <trkpt lat="44.7943" lon="7.00379">
        <ele>2526.8</ele>
        <time>2022-02-25T13:19:38Z</time>
      </trkpt>
      <trkpt lat="44.7943" lon="7.00379">
        <ele>2526.8</ele>
        <time>2022-02-25T13:19:39Z</time>
      </trkpt>
      <trkpt lat="44.7943" lon="7.00379">
        <ele>2526.8</ele>
        <time>2022-02-25T13:19:40Z</time>
      </trkpt>
      <trkpt lat="44.7943" lon="7.00379">
        <ele>2526.8</ele>
        <time>2022-02-25T13:19:41Z</time>
      </trkpt>
      <trkpt lat="44.7943" lon="7.00379">
        <ele>2526.8</ele>
        <time>2022-02-25T13:19:42Z</time>
      </trkpt>
      <trkpt lat="44.7943" lon="7.00379">
        <ele>2526.8</ele>
        <time>2022-02-25T13:19:43Z</time>
      </trkpt>
      <trkpt lat="44.7943" lon="7.00379">
        <ele>2526.8</ele>
        <time>2022-02-25T13:19:44Z</time>
      </trkpt>
      <trkpt lat="44.79432" lon="7.00377">
        <ele>2526.9</ele>
        <time>2022-02-25T13:19:45Z</time>
      </trkpt>
      <trkpt lat="44.79432" lon="7.00377">
        <ele>2526.9</ele>
        <time>2022-02-25T13:19:46Z</time>
      </trkpt>
      <trkpt lat="44.79432" lon="7.00377">
        <ele>2526.9</ele>
        <time>2022-02-25T13:19:47Z</time>
      </trkpt>
      <trkpt lat="44.79434" lon="7.00376">
        <ele>2527</ele>
        <time>2022-02-25T13:19:48Z</time>
      </trkpt>
      <trkpt lat="44.79434" lon="7.00376">
        <ele>2527</ele>
        <time>2022-02-25T13:19:49Z</time>
      </trkpt>
      <trkpt lat="44.79434" lon="7.00376">
        <ele>2527</ele>
        <time>2022-02-25T13:19:50Z</time>
      </trkpt>
      <trkpt lat="44.79435" lon="7.00373">
        <ele>2526.9</ele>
        <time>2022-02-25T13:19:51Z</time>
      </trkpt>
      <trkpt lat="44.79436" lon="7.0037">
        <ele>2526.9</ele>
        <time>2022-02-25T13:19:52Z</time>
      </trkpt>
      <trkpt lat="44.79438" lon="7.00368">
        <ele>2527</ele>
        <time>2022-02-25T13:19:53Z</time>
      </trkpt>
      <trkpt lat="44.79438" lon="7.00368">
        <ele>2527</ele>
        <time>2022-02-25T13:19:54Z</time>
      </trkpt>
      <trkpt lat="44.79438" lon="7.00365">
        <ele>2526.9</ele>
        <time>2022-02-25T13:19:55Z</time>
      </trkpt>
      <trkpt lat="44.79438" lon="7.00365">
        <ele>2526.9</ele>
        <time>2022-02-25T13:19:56Z</time>
      </trkpt>
      <trkpt lat="44.79438" lon="7.00362">
        <ele>2526.8</ele>
        <time>2022-02-25T13:19:57Z</time>
      </trkpt>
      <trkpt lat="44.79439" lon="7.00359">
        <ele>2526.5</ele>
        <time>2022-02-25T13:19:58Z</time>
      </trkpt>
      <trkpt lat="44.79439" lon="7.00355">
        <ele>2525.9</ele>
        <time>2022-02-25T13:19:59Z</time>
      </trkpt>
      <trkpt lat="44.7944" lon="7.00352">
        <ele>2525.3</ele>
        <time>2022-02-25T13:20:00Z</time>
      </trkpt>
      <trkpt lat="44.7944" lon="7.00352">
        <ele>2525.3</ele>
        <time>2022-02-25T13:20:01Z</time>
      </trkpt>
      <trkpt lat="44.7944" lon="7.00348">
        <ele>2524.7</ele>
        <time>2022-02-25T13:20:02Z</time>
      </trkpt>
      <trkpt lat="44.7944" lon="7.00348">
        <ele>2524.7</ele>
        <time>2022-02-25T13:20:03Z</time>
      </trkpt>
      <trkpt lat="44.7944" lon="7.00348">
        <ele>2524.7</ele>
        <time>2022-02-25T13:20:04Z</time>
      </trkpt>
      <trkpt lat="44.7944" lon="7.00348">
        <ele>2524.7</ele>
        <time>2022-02-25T13:20:05Z</time>
      </trkpt>
      <trkpt lat="44.7944" lon="7.00348">
        <ele>2524.7</ele>
        <time>2022-02-25T13:20:06Z</time>
      </trkpt>
      <trkpt lat="44.79439" lon="7.00345">
        <ele>2524.3</ele>
        <time>2022-02-25T13:20:07Z</time>
      </trkpt>
      <trkpt lat="44.79439" lon="7.00345">
        <ele>2524.3</ele>
        <time>2022-02-25T13:20:08Z</time>
      </trkpt>
      <trkpt lat="44.79439" lon="7.00345">
        <ele>2524.3</ele>
        <time>2022-02-25T13:20:09Z</time>
      </trkpt>
      <trkpt lat="44.79439" lon="7.00345">
        <ele>2524.3</ele>
        <time>2022-02-25T13:20:10Z</time>
      </trkpt>
      <trkpt lat="44.7944" lon="7.00342">
        <ele>2523.7</ele>
        <time>2022-02-25T13:20:11Z</time>
      </trkpt>
      <trkpt lat="44.7944" lon="7.00342">
        <ele>2523.7</ele>
        <time>2022-02-25T13:20:12Z</time>
      </trkpt>
      <trkpt lat="44.79442" lon="7.00337">
        <ele>2522.4</ele>
        <time>2022-02-25T13:20:13Z</time>
      </trkpt>
      <trkpt lat="44.79444" lon="7.00335">
        <ele>2521.5</ele>
        <time>2022-02-25T13:20:14Z</time>
      </trkpt>
      <trkpt lat="44.79444" lon="7.00335">
        <ele>2521.5</ele>
        <time>2022-02-25T13:20:15Z</time>
      </trkpt>
      <trkpt lat="44.79446" lon="7.00332">
        <ele>2521.5</ele>
        <time>2022-02-25T13:20:16Z</time>
      </trkpt>
      <trkpt lat="44.79446" lon="7.00332">
        <ele>2521.5</ele>
        <time>2022-02-25T13:20:17Z</time>
      </trkpt>
      <trkpt lat="44.79446" lon="7.00332">
        <ele>2521.5</ele>
        <time>2022-02-25T13:20:18Z</time>
      </trkpt>
      <trkpt lat="44.79446" lon="7.00332">
        <ele>2521.5</ele>
        <time>2022-02-25T13:20:19Z</time>
      </trkpt>
      <trkpt lat="44.79446" lon="7.00332">
        <ele>2521.5</ele>
        <time>2022-02-25T13:20:20Z</time>
      </trkpt>
      <trkpt lat="44.79448" lon="7.0033">
        <ele>2521.9</ele>
        <time>2022-02-25T13:20:21Z</time>
      </trkpt>
      <trkpt lat="44.79448" lon="7.0033">
        <ele>2521.9</ele>
        <time>2022-02-25T13:20:22Z</time>
      </trkpt>
      <trkpt lat="44.79448" lon="7.0033">
        <ele>2521.9</ele>
        <time>2022-02-25T13:20:23Z</time>
      </trkpt>
      <trkpt lat="44.79448" lon="7.0033">
        <ele>2521.9</ele>
        <time>2022-02-25T13:20:24Z</time>
      </trkpt>
      <trkpt lat="44.79448" lon="7.0033">
        <ele>2521.9</ele>
        <time>2022-02-25T13:20:25Z</time>
      </trkpt>
      <trkpt lat="44.79448" lon="7.0033">
        <ele>2521.9</ele>
        <time>2022-02-25T13:20:26Z</time>
      </trkpt>
      <trkpt lat="44.79448" lon="7.0033">
        <ele>2521.9</ele>
        <time>2022-02-25T13:20:27Z</time>
      </trkpt>
      <trkpt lat="44.79448" lon="7.0033">
        <ele>2521.9</ele>
        <time>2022-02-25T13:20:28Z</time>
      </trkpt>
      <trkpt lat="44.79448" lon="7.0033">
        <ele>2521.9</ele>
        <time>2022-02-25T13:20:29Z</time>
      </trkpt>
      <trkpt lat="44.79448" lon="7.0033">
        <ele>2521.9</ele>
        <time>2022-02-25T13:20:30Z</time>
      </trkpt>
      <trkpt lat="44.79448" lon="7.0033">
        <ele>2521.9</ele>
        <time>2022-02-25T13:20:31Z</time>
      </trkpt>
      <trkpt lat="44.79448" lon="7.0033">
        <ele>2521.9</ele>
        <time>2022-02-25T13:20:32Z</time>
      </trkpt>
      <trkpt lat="44.79448" lon="7.0033">
        <ele>2521.9</ele>
        <time>2022-02-25T13:20:33Z</time>
      </trkpt>
      <trkpt lat="44.79448" lon="7.0033">
        <ele>2521.9</ele>
        <time>2022-02-25T13:20:34Z</time>
      </trkpt>
      <trkpt lat="44.79448" lon="7.0033">
        <ele>2521.9</ele>
        <time>2022-02-25T13:20:35Z</time>
      </trkpt>
      <trkpt lat="44.79448" lon="7.0033">
        <ele>2521.9</ele>
        <time>2022-02-25T13:20:36Z</time>
      </trkpt>
      <trkpt lat="44.79448" lon="7.0033">
        <ele>2521.9</ele>
        <time>2022-02-25T13:20:37Z</time>
      </trkpt>
      <trkpt lat="44.79448" lon="7.0033">
        <ele>2521.9</ele>
        <time>2022-02-25T13:20:38Z</time>
      </trkpt>
      <trkpt lat="44.79448" lon="7.0033">
        <ele>2521.9</ele>
        <time>2022-02-25T13:20:39Z</time>
      </trkpt>
      <trkpt lat="44.79448" lon="7.0033">
        <ele>2521.9</ele>
        <time>2022-02-25T13:20:40Z</time>
      </trkpt>
      <trkpt lat="44.79448" lon="7.0033">
        <ele>2521.9</ele>
        <time>2022-02-25T13:20:41Z</time>
      </trkpt>
      <trkpt lat="44.79448" lon="7.0033">
        <ele>2521.9</ele>
        <time>2022-02-25T13:20:42Z</time>
      </trkpt>
      <trkpt lat="44.79448" lon="7.0033">
        <ele>2521.9</ele>
        <time>2022-02-25T13:20:43Z</time>
      </trkpt>
      <trkpt lat="44.79448" lon="7.0033">
        <ele>2521.9</ele>
        <time>2022-02-25T13:20:44Z</time>
      </trkpt>
      <trkpt lat="44.79448" lon="7.0033">
        <ele>2521.9</ele>
        <time>2022-02-25T13:20:45Z</time>
      </trkpt>
      <trkpt lat="44.79448" lon="7.0033">
        <ele>2521.9</ele>
        <time>2022-02-25T13:20:46Z</time>
      </trkpt>
      <trkpt lat="44.79448" lon="7.0033">
        <ele>2521.9</ele>
        <time>2022-02-25T13:20:47Z</time>
      </trkpt>
      <trkpt lat="44.79448" lon="7.0033">
        <ele>2521.9</ele>
        <time>2022-02-25T13:20:48Z</time>
      </trkpt>
      <trkpt lat="44.79448" lon="7.0033">
        <ele>2521.9</ele>
        <time>2022-02-25T13:20:49Z</time>
      </trkpt>
      <trkpt lat="44.79448" lon="7.0033">
        <ele>2521.9</ele>
        <time>2022-02-25T13:20:50Z</time>
      </trkpt>
      <trkpt lat="44.79448" lon="7.0033">
        <ele>2521.9</ele>
        <time>2022-02-25T13:20:51Z</time>
      </trkpt>
      <trkpt lat="44.79448" lon="7.0033">
        <ele>2521.9</ele>
        <time>2022-02-25T13:20:52Z</time>
      </trkpt>
      <trkpt lat="44.79448" lon="7.0033">
        <ele>2521.9</ele>
        <time>2022-02-25T13:20:53Z</time>
      </trkpt>
      <trkpt lat="44.79448" lon="7.0033">
        <ele>2521.9</ele>
        <time>2022-02-25T13:20:54Z</time>
      </trkpt>
      <trkpt lat="44.79448" lon="7.0033">
        <ele>2521.9</ele>
        <time>2022-02-25T13:20:55Z</time>
      </trkpt>
      <trkpt lat="44.79448" lon="7.0033">
        <ele>2521.9</ele>
        <time>2022-02-25T13:20:56Z</time>
      </trkpt>
      <trkpt lat="44.79448" lon="7.0033">
        <ele>2521.9</ele>
        <time>2022-02-25T13:20:57Z</time>
      </trkpt>
      <trkpt lat="44.79448" lon="7.0033">
        <ele>2521.9</ele>
        <time>2022-02-25T13:20:58Z</time>
      </trkpt>
      <trkpt lat="44.79448" lon="7.0033">
        <ele>2521.9</ele>
        <time>2022-02-25T13:20:59Z</time>
      </trkpt>
      <trkpt lat="44.7945" lon="7.00327">
        <ele>2522.2</ele>
        <time>2022-02-25T13:21:00Z</time>
      </trkpt>
      <trkpt lat="44.7945" lon="7.00327">
        <ele>2522.2</ele>
        <time>2022-02-25T13:21:01Z</time>
      </trkpt>
      <trkpt lat="44.7945" lon="7.00327">
        <ele>2522.2</ele>
        <time>2022-02-25T13:21:02Z</time>
      </trkpt>
      <trkpt lat="44.79451" lon="7.00323">
        <ele>2521.9</ele>
        <time>2022-02-25T13:21:03Z</time>
      </trkpt>
      <trkpt lat="44.79451" lon="7.00323">
        <ele>2521.9</ele>
        <time>2022-02-25T13:21:04Z</time>
      </trkpt>
      <trkpt lat="44.79452" lon="7.00321">
        <ele>2521.8</ele>
        <time>2022-02-25T13:21:05Z</time>
      </trkpt>
      <trkpt lat="44.79452" lon="7.00321">
        <ele>2521.8</ele>
        <time>2022-02-25T13:21:06Z</time>
      </trkpt>
      <trkpt lat="44.79454" lon="7.00316">
        <ele>2521.4</ele>
        <time>2022-02-25T13:21:07Z</time>
      </trkpt>
      <trkpt lat="44.79457" lon="7.00311">
        <ele>2521</ele>
        <time>2022-02-25T13:21:08Z</time>
      </trkpt>
      <trkpt lat="44.79458" lon="7.0031">
        <ele>2521</ele>
        <time>2022-02-25T13:21:09Z</time>
      </trkpt>
      <trkpt lat="44.79458" lon="7.0031">
        <ele>2521</ele>
        <time>2022-02-25T13:21:10Z</time>
      </trkpt>
      <trkpt lat="44.7946" lon="7.00305">
        <ele>2520.1</ele>
        <time>2022-02-25T13:21:11Z</time>
      </trkpt>
      <trkpt lat="44.79463" lon="7.00301">
        <ele>2519.6</ele>
        <time>2022-02-25T13:21:12Z</time>
      </trkpt>
      <trkpt lat="44.79464" lon="7.00299">
        <ele>2519.2</ele>
        <time>2022-02-25T13:21:13Z</time>
      </trkpt>
      <trkpt lat="44.79466" lon="7.00297">
        <ele>2518.8</ele>
        <time>2022-02-25T13:21:14Z</time>
      </trkpt>
      <trkpt lat="44.79467" lon="7.00295">
        <ele>2518.2</ele>
        <time>2022-02-25T13:21:15Z</time>
      </trkpt>
      <trkpt lat="44.79468" lon="7.00292">
        <ele>2517.3</ele>
        <time>2022-02-25T13:21:16Z</time>
      </trkpt>
      <trkpt lat="44.79469" lon="7.0029">
        <ele>2516.7</ele>
        <time>2022-02-25T13:21:17Z</time>
      </trkpt>
      <trkpt lat="44.79469" lon="7.0029">
        <ele>2516.7</ele>
        <time>2022-02-25T13:21:18Z</time>
      </trkpt>
      <trkpt lat="44.79471" lon="7.00288">
        <ele>2515.8</ele>
        <time>2022-02-25T13:21:19Z</time>
      </trkpt>
      <trkpt lat="44.79471" lon="7.00288">
        <ele>2515.8</ele>
        <time>2022-02-25T13:21:20Z</time>
      </trkpt>
      <trkpt lat="44.79471" lon="7.00288">
        <ele>2515.8</ele>
        <time>2022-02-25T13:21:21Z</time>
      </trkpt>
      <trkpt lat="44.79473" lon="7.00285">
        <ele>2514.6</ele>
        <time>2022-02-25T13:21:22Z</time>
      </trkpt>
      <trkpt lat="44.79473" lon="7.00285">
        <ele>2514.6</ele>
        <time>2022-02-25T13:21:23Z</time>
      </trkpt>
      <trkpt lat="44.79476" lon="7.00283">
        <ele>2514</ele>
        <time>2022-02-25T13:21:24Z</time>
      </trkpt>
      <trkpt lat="44.79476" lon="7.00283">
        <ele>2514</ele>
        <time>2022-02-25T13:21:25Z</time>
      </trkpt>
      <trkpt lat="44.79478" lon="7.00281">
        <ele>2513.4</ele>
        <time>2022-02-25T13:21:26Z</time>
      </trkpt>
      <trkpt lat="44.79478" lon="7.00281">
        <ele>2513.4</ele>
        <time>2022-02-25T13:21:27Z</time>
      </trkpt>
      <trkpt lat="44.79481" lon="7.00279">
        <ele>2512.8</ele>
        <time>2022-02-25T13:21:28Z</time>
      </trkpt>
      <trkpt lat="44.79481" lon="7.00279">
        <ele>2512.8</ele>
        <time>2022-02-25T13:21:29Z</time>
      </trkpt>
      <trkpt lat="44.79484" lon="7.00277">
        <ele>2512.3</ele>
        <time>2022-02-25T13:21:30Z</time>
      </trkpt>
      <trkpt lat="44.79484" lon="7.00277">
        <ele>2512.3</ele>
        <time>2022-02-25T13:21:31Z</time>
      </trkpt>
      <trkpt lat="44.79486" lon="7.00276">
        <ele>2512.2</ele>
        <time>2022-02-25T13:21:32Z</time>
      </trkpt>
      <trkpt lat="44.79486" lon="7.00276">
        <ele>2512.2</ele>
        <time>2022-02-25T13:21:33Z</time>
      </trkpt>
      <trkpt lat="44.79486" lon="7.00276">
        <ele>2512.2</ele>
        <time>2022-02-25T13:21:34Z</time>
      </trkpt>
      <trkpt lat="44.79486" lon="7.00276">
        <ele>2512.2</ele>
        <time>2022-02-25T13:21:35Z</time>
      </trkpt>
      <trkpt lat="44.79486" lon="7.00276">
        <ele>2512.2</ele>
        <time>2022-02-25T13:21:36Z</time>
      </trkpt>
      <trkpt lat="44.79486" lon="7.00276">
        <ele>2512.2</ele>
        <time>2022-02-25T13:21:37Z</time>
      </trkpt>
      <trkpt lat="44.79486" lon="7.00276">
        <ele>2512.2</ele>
        <time>2022-02-25T13:21:38Z</time>
      </trkpt>
      <trkpt lat="44.79486" lon="7.00276">
        <ele>2512.2</ele>
        <time>2022-02-25T13:21:39Z</time>
      </trkpt>
      <trkpt lat="44.79487" lon="7.00273">
        <ele>2511.7</ele>
        <time>2022-02-25T13:21:40Z</time>
      </trkpt>
      <trkpt lat="44.79487" lon="7.00273">
        <ele>2511.7</ele>
        <time>2022-02-25T13:21:41Z</time>
      </trkpt>
      <trkpt lat="44.79487" lon="7.00273">
        <ele>2511.7</ele>
        <time>2022-02-25T13:21:42Z</time>
      </trkpt>
      <trkpt lat="44.79489" lon="7.00272">
        <ele>2511.6</ele>
        <time>2022-02-25T13:21:43Z</time>
      </trkpt>
      <trkpt lat="44.79489" lon="7.00272">
        <ele>2511.6</ele>
        <time>2022-02-25T13:21:44Z</time>
      </trkpt>
      <trkpt lat="44.79489" lon="7.00272">
        <ele>2511.6</ele>
        <time>2022-02-25T13:21:45Z</time>
      </trkpt>
      <trkpt lat="44.79489" lon="7.00272">
        <ele>2511.6</ele>
        <time>2022-02-25T13:21:46Z</time>
      </trkpt>
      <trkpt lat="44.79492" lon="7.0027">
        <ele>2511.3</ele>
        <time>2022-02-25T13:21:47Z</time>
      </trkpt>
      <trkpt lat="44.79493" lon="7.00268">
        <ele>2510.9</ele>
        <time>2022-02-25T13:21:48Z</time>
      </trkpt>
      <trkpt lat="44.79493" lon="7.00268">
        <ele>2510.9</ele>
        <time>2022-02-25T13:21:49Z</time>
      </trkpt>
      <trkpt lat="44.79497" lon="7.00266">
        <ele>2510.5</ele>
        <time>2022-02-25T13:21:50Z</time>
      </trkpt>
      <trkpt lat="44.79499" lon="7.00265">
        <ele>2510.3</ele>
        <time>2022-02-25T13:21:51Z</time>
      </trkpt>
      <trkpt lat="44.79499" lon="7.00265">
        <ele>2510.3</ele>
        <time>2022-02-25T13:21:52Z</time>
      </trkpt>
      <trkpt lat="44.79502" lon="7.00264">
        <ele>2510</ele>
        <time>2022-02-25T13:21:53Z</time>
      </trkpt>
      <trkpt lat="44.79502" lon="7.00264">
        <ele>2510</ele>
        <time>2022-02-25T13:21:54Z</time>
      </trkpt>
      <trkpt lat="44.79505" lon="7.00262">
        <ele>2509.4</ele>
        <time>2022-02-25T13:21:55Z</time>
      </trkpt>
      <trkpt lat="44.79507" lon="7.00261">
        <ele>2509.1</ele>
        <time>2022-02-25T13:21:56Z</time>
      </trkpt>
      <trkpt lat="44.7951" lon="7.0026">
        <ele>2508.7</ele>
        <time>2022-02-25T13:21:57Z</time>
      </trkpt>
      <trkpt lat="44.79512" lon="7.00259">
        <ele>2508.4</ele>
        <time>2022-02-25T13:21:58Z</time>
      </trkpt>
      <trkpt lat="44.79514" lon="7.00259">
        <ele>2508.3</ele>
        <time>2022-02-25T13:21:59Z</time>
      </trkpt>
      <trkpt lat="44.79514" lon="7.00259">
        <ele>2508.3</ele>
        <time>2022-02-25T13:22:00Z</time>
      </trkpt>
      <trkpt lat="44.79516" lon="7.00258">
        <ele>2507.9</ele>
        <time>2022-02-25T13:22:01Z</time>
      </trkpt>
      <trkpt lat="44.79516" lon="7.00258">
        <ele>2507.9</ele>
        <time>2022-02-25T13:22:02Z</time>
      </trkpt>
      <trkpt lat="44.79519" lon="7.00257">
        <ele>2507.5</ele>
        <time>2022-02-25T13:22:03Z</time>
      </trkpt>
      <trkpt lat="44.79519" lon="7.00257">
        <ele>2507.5</ele>
        <time>2022-02-25T13:22:04Z</time>
      </trkpt>
      <trkpt lat="44.79519" lon="7.00257">
        <ele>2507.5</ele>
        <time>2022-02-25T13:22:05Z</time>
      </trkpt>
      <trkpt lat="44.79519" lon="7.00257">
        <ele>2507.5</ele>
        <time>2022-02-25T13:22:06Z</time>
      </trkpt>
      <trkpt lat="44.79519" lon="7.00257">
        <ele>2507.5</ele>
        <time>2022-02-25T13:22:07Z</time>
      </trkpt>
      <trkpt lat="44.79519" lon="7.00257">
        <ele>2507.5</ele>
        <time>2022-02-25T13:22:08Z</time>
      </trkpt>
      <trkpt lat="44.79521" lon="7.00256">
        <ele>2507.1</ele>
        <time>2022-02-25T13:22:09Z</time>
      </trkpt>
      <trkpt lat="44.79521" lon="7.00256">
        <ele>2507.1</ele>
        <time>2022-02-25T13:22:10Z</time>
      </trkpt>
      <trkpt lat="44.79521" lon="7.00256">
        <ele>2507.1</ele>
        <time>2022-02-25T13:22:11Z</time>
      </trkpt>
      <trkpt lat="44.79524" lon="7.00254">
        <ele>2506.4</ele>
        <time>2022-02-25T13:22:12Z</time>
      </trkpt>
      <trkpt lat="44.79524" lon="7.00254">
        <ele>2506.4</ele>
        <time>2022-02-25T13:22:13Z</time>
      </trkpt>
      <trkpt lat="44.79524" lon="7.00254">
        <ele>2506.4</ele>
        <time>2022-02-25T13:22:14Z</time>
      </trkpt>
      <trkpt lat="44.79525" lon="7.00253">
        <ele>2506</ele>
        <time>2022-02-25T13:22:15Z</time>
      </trkpt>
      <trkpt lat="44.79525" lon="7.00253">
        <ele>2506</ele>
        <time>2022-02-25T13:22:16Z</time>
      </trkpt>
      <trkpt lat="44.79525" lon="7.00253">
        <ele>2506</ele>
        <time>2022-02-25T13:22:17Z</time>
      </trkpt>
      <trkpt lat="44.79527" lon="7.00251">
        <ele>2505.3</ele>
        <time>2022-02-25T13:22:18Z</time>
      </trkpt>
      <trkpt lat="44.79527" lon="7.00251">
        <ele>2505.3</ele>
        <time>2022-02-25T13:22:19Z</time>
      </trkpt>
      <trkpt lat="44.79527" lon="7.00251">
        <ele>2505.3</ele>
        <time>2022-02-25T13:22:20Z</time>
      </trkpt>
      <trkpt lat="44.79528" lon="7.00248">
        <ele>2504.5</ele>
        <time>2022-02-25T13:22:21Z</time>
      </trkpt>
      <trkpt lat="44.79528" lon="7.00248">
        <ele>2504.5</ele>
        <time>2022-02-25T13:22:22Z</time>
      </trkpt>
      <trkpt lat="44.7953" lon="7.00246">
        <ele>2503.9</ele>
        <time>2022-02-25T13:22:23Z</time>
      </trkpt>
      <trkpt lat="44.7953" lon="7.00246">
        <ele>2503.9</ele>
        <time>2022-02-25T13:22:24Z</time>
      </trkpt>
      <trkpt lat="44.79533" lon="7.00245">
        <ele>2503.4</ele>
        <time>2022-02-25T13:22:25Z</time>
      </trkpt>
      <trkpt lat="44.79533" lon="7.00245">
        <ele>2503.4</ele>
        <time>2022-02-25T13:22:26Z</time>
      </trkpt>
      <trkpt lat="44.79536" lon="7.00244">
        <ele>2502.8</ele>
        <time>2022-02-25T13:22:27Z</time>
      </trkpt>
      <trkpt lat="44.79539" lon="7.00243">
        <ele>2502.3</ele>
        <time>2022-02-25T13:22:28Z</time>
      </trkpt>
      <trkpt lat="44.79541" lon="7.00243">
        <ele>2502.1</ele>
        <time>2022-02-25T13:22:29Z</time>
      </trkpt>
      <trkpt lat="44.79541" lon="7.00243">
        <ele>2502.1</ele>
        <time>2022-02-25T13:22:30Z</time>
      </trkpt>
      <trkpt lat="44.79544" lon="7.00241">
        <ele>2501.3</ele>
        <time>2022-02-25T13:22:31Z</time>
      </trkpt>
      <trkpt lat="44.79546" lon="7.0024">
        <ele>2500.9</ele>
        <time>2022-02-25T13:22:32Z</time>
      </trkpt>
      <trkpt lat="44.79548" lon="7.00238">
        <ele>2500.2</ele>
        <time>2022-02-25T13:22:33Z</time>
      </trkpt>
      <trkpt lat="44.7955" lon="7.00237">
        <ele>2499.8</ele>
        <time>2022-02-25T13:22:34Z</time>
      </trkpt>
      <trkpt lat="44.79553" lon="7.00235">
        <ele>2499</ele>
        <time>2022-02-25T13:22:35Z</time>
      </trkpt>
      <trkpt lat="44.79556" lon="7.00233">
        <ele>2498.4</ele>
        <time>2022-02-25T13:22:36Z</time>
      </trkpt>
      <trkpt lat="44.79559" lon="7.00231">
        <ele>2498.6</ele>
        <time>2022-02-25T13:22:37Z</time>
      </trkpt>
      <trkpt lat="44.79562" lon="7.0023">
        <ele>2499</ele>
        <time>2022-02-25T13:22:38Z</time>
      </trkpt>
      <trkpt lat="44.79562" lon="7.0023">
        <ele>2499</ele>
        <time>2022-02-25T13:22:39Z</time>
      </trkpt>
      <trkpt lat="44.79564" lon="7.00228">
        <ele>2499</ele>
        <time>2022-02-25T13:22:40Z</time>
      </trkpt>
      <trkpt lat="44.79564" lon="7.00228">
        <ele>2499</ele>
        <time>2022-02-25T13:22:41Z</time>
      </trkpt>
      <trkpt lat="44.79564" lon="7.00228">
        <ele>2499</ele>
        <time>2022-02-25T13:22:42Z</time>
      </trkpt>
      <trkpt lat="44.79564" lon="7.00228">
        <ele>2499</ele>
        <time>2022-02-25T13:22:43Z</time>
      </trkpt>
      <trkpt lat="44.79564" lon="7.00228">
        <ele>2499</ele>
        <time>2022-02-25T13:22:44Z</time>
      </trkpt>
      <trkpt lat="44.79564" lon="7.00228">
        <ele>2499</ele>
        <time>2022-02-25T13:22:45Z</time>
      </trkpt>
      <trkpt lat="44.79564" lon="7.00228">
        <ele>2499</ele>
        <time>2022-02-25T13:22:46Z</time>
      </trkpt>
      <trkpt lat="44.79564" lon="7.00228">
        <ele>2499</ele>
        <time>2022-02-25T13:22:47Z</time>
      </trkpt>
      <trkpt lat="44.79564" lon="7.00228">
        <ele>2499</ele>
        <time>2022-02-25T13:22:48Z</time>
      </trkpt>
      <trkpt lat="44.79564" lon="7.00228">
        <ele>2499</ele>
        <time>2022-02-25T13:22:49Z</time>
      </trkpt>
      <trkpt lat="44.79564" lon="7.00228">
        <ele>2499</ele>
        <time>2022-02-25T13:22:50Z</time>
      </trkpt>
      <trkpt lat="44.79564" lon="7.00228">
        <ele>2499</ele>
        <time>2022-02-25T13:22:51Z</time>
      </trkpt>
      <trkpt lat="44.79564" lon="7.00228">
        <ele>2499</ele>
        <time>2022-02-25T13:22:52Z</time>
      </trkpt>
      <trkpt lat="44.79564" lon="7.00228">
        <ele>2499</ele>
        <time>2022-02-25T13:22:53Z</time>
      </trkpt>
      <trkpt lat="44.79564" lon="7.00228">
        <ele>2499</ele>
        <time>2022-02-25T13:22:54Z</time>
      </trkpt>
      <trkpt lat="44.79564" lon="7.00228">
        <ele>2499</ele>
        <time>2022-02-25T13:22:55Z</time>
      </trkpt>
      <trkpt lat="44.79566" lon="7.00225">
        <ele>2498.6</ele>
        <time>2022-02-25T13:22:56Z</time>
      </trkpt>
      <trkpt lat="44.79567" lon="7.00223">
        <ele>2498.3</ele>
        <time>2022-02-25T13:22:57Z</time>
      </trkpt>
      <trkpt lat="44.79567" lon="7.00223">
        <ele>2498.3</ele>
        <time>2022-02-25T13:22:58Z</time>
      </trkpt>
      <trkpt lat="44.79569" lon="7.0022">
        <ele>2498</ele>
        <time>2022-02-25T13:22:59Z</time>
      </trkpt>
      <trkpt lat="44.7957" lon="7.00217">
        <ele>2497.5</ele>
        <time>2022-02-25T13:23:00Z</time>
      </trkpt>
      <trkpt lat="44.7957" lon="7.00217">
        <ele>2497.5</ele>
        <time>2022-02-25T13:23:01Z</time>
      </trkpt>
      <trkpt lat="44.79572" lon="7.00213">
        <ele>2496.9</ele>
        <time>2022-02-25T13:23:02Z</time>
      </trkpt>
      <trkpt lat="44.79573" lon="7.00211">
        <ele>2496.6</ele>
        <time>2022-02-25T13:23:03Z</time>
      </trkpt>
      <trkpt lat="44.79573" lon="7.00211">
        <ele>2496.6</ele>
        <time>2022-02-25T13:23:04Z</time>
      </trkpt>
      <trkpt lat="44.79576" lon="7.00208">
        <ele>2496</ele>
        <time>2022-02-25T13:23:05Z</time>
      </trkpt>
      <trkpt lat="44.79577" lon="7.00207">
        <ele>2495.8</ele>
        <time>2022-02-25T13:23:06Z</time>
      </trkpt>
      <trkpt lat="44.79577" lon="7.00207">
        <ele>2495.8</ele>
        <time>2022-02-25T13:23:07Z</time>
      </trkpt>
      <trkpt lat="44.79579" lon="7.00204">
        <ele>2495</ele>
        <time>2022-02-25T13:23:08Z</time>
      </trkpt>
      <trkpt lat="44.79581" lon="7.00201">
        <ele>2494.2</ele>
        <time>2022-02-25T13:23:09Z</time>
      </trkpt>
      <trkpt lat="44.79582" lon="7.00199">
        <ele>2493.5</ele>
        <time>2022-02-25T13:23:10Z</time>
      </trkpt>
      <trkpt lat="44.79584" lon="7.00196">
        <ele>2492.6</ele>
        <time>2022-02-25T13:23:11Z</time>
      </trkpt>
      <trkpt lat="44.79586" lon="7.00194">
        <ele>2492.1</ele>
        <time>2022-02-25T13:23:12Z</time>
      </trkpt>
      <trkpt lat="44.79588" lon="7.00192">
        <ele>2491.7</ele>
        <time>2022-02-25T13:23:13Z</time>
      </trkpt>
      <trkpt lat="44.79589" lon="7.0019">
        <ele>2491.2</ele>
        <time>2022-02-25T13:23:14Z</time>
      </trkpt>
      <trkpt lat="44.79591" lon="7.00188">
        <ele>2490.9</ele>
        <time>2022-02-25T13:23:15Z</time>
      </trkpt>
      <trkpt lat="44.79593" lon="7.00186">
        <ele>2490.6</ele>
        <time>2022-02-25T13:23:16Z</time>
      </trkpt>
      <trkpt lat="44.79593" lon="7.00186">
        <ele>2490.6</ele>
        <time>2022-02-25T13:23:17Z</time>
      </trkpt>
      <trkpt lat="44.79595" lon="7.00184">
        <ele>2490.3</ele>
        <time>2022-02-25T13:23:18Z</time>
      </trkpt>
      <trkpt lat="44.79595" lon="7.00184">
        <ele>2490.3</ele>
        <time>2022-02-25T13:23:19Z</time>
      </trkpt>
      <trkpt lat="44.79597" lon="7.00181">
        <ele>2489.8</ele>
        <time>2022-02-25T13:23:20Z</time>
      </trkpt>
      <trkpt lat="44.79597" lon="7.00181">
        <ele>2489.8</ele>
        <time>2022-02-25T13:23:21Z</time>
      </trkpt>
      <trkpt lat="44.79597" lon="7.00177">
        <ele>2488.9</ele>
        <time>2022-02-25T13:23:22Z</time>
      </trkpt>
      <trkpt lat="44.79597" lon="7.00177">
        <ele>2488.9</ele>
        <time>2022-02-25T13:23:23Z</time>
      </trkpt>
      <trkpt lat="44.79597" lon="7.00177">
        <ele>2488.9</ele>
        <time>2022-02-25T13:23:24Z</time>
      </trkpt>
      <trkpt lat="44.79597" lon="7.00177">
        <ele>2488.9</ele>
        <time>2022-02-25T13:23:25Z</time>
      </trkpt>
      <trkpt lat="44.79597" lon="7.00177">
        <ele>2488.9</ele>
        <time>2022-02-25T13:23:26Z</time>
      </trkpt>
      <trkpt lat="44.79597" lon="7.00177">
        <ele>2488.9</ele>
        <time>2022-02-25T13:23:27Z</time>
      </trkpt>
      <trkpt lat="44.79595" lon="7.00175">
        <ele>2488.1</ele>
        <time>2022-02-25T13:23:28Z</time>
      </trkpt>
      <trkpt lat="44.79595" lon="7.00172">
        <ele>2487.4</ele>
        <time>2022-02-25T13:23:29Z</time>
      </trkpt>
      <trkpt lat="44.79595" lon="7.00169">
        <ele>2486.7</ele>
        <time>2022-02-25T13:23:30Z</time>
      </trkpt>
      <trkpt lat="44.79595" lon="7.00169">
        <ele>2486.7</ele>
        <time>2022-02-25T13:23:31Z</time>
      </trkpt>
      <trkpt lat="44.79597" lon="7.00167">
        <ele>2486.5</ele>
        <time>2022-02-25T13:23:32Z</time>
      </trkpt>
      <trkpt lat="44.79597" lon="7.00167">
        <ele>2486.5</ele>
        <time>2022-02-25T13:23:33Z</time>
      </trkpt>
      <trkpt lat="44.796" lon="7.00166">
        <ele>2486.9</ele>
        <time>2022-02-25T13:23:34Z</time>
      </trkpt>
      <trkpt lat="44.796" lon="7.00166">
        <ele>2486.9</ele>
        <time>2022-02-25T13:23:35Z</time>
      </trkpt>
      <trkpt lat="44.796" lon="7.00166">
        <ele>2486.9</ele>
        <time>2022-02-25T13:23:36Z</time>
      </trkpt>
      <trkpt lat="44.796" lon="7.00166">
        <ele>2486.9</ele>
        <time>2022-02-25T13:23:37Z</time>
      </trkpt>
      <trkpt lat="44.796" lon="7.00166">
        <ele>2486.9</ele>
        <time>2022-02-25T13:23:38Z</time>
      </trkpt>
      <trkpt lat="44.796" lon="7.00166">
        <ele>2486.9</ele>
        <time>2022-02-25T13:23:39Z</time>
      </trkpt>
      <trkpt lat="44.79601" lon="7.00164">
        <ele>2486.8</ele>
        <time>2022-02-25T13:23:40Z</time>
      </trkpt>
      <trkpt lat="44.79601" lon="7.00164">
        <ele>2486.8</ele>
        <time>2022-02-25T13:23:41Z</time>
      </trkpt>
      <trkpt lat="44.796" lon="7.0016">
        <ele>2486</ele>
        <time>2022-02-25T13:23:42Z</time>
      </trkpt>
      <trkpt lat="44.79599" lon="7.00158">
        <ele>2485.5</ele>
        <time>2022-02-25T13:23:43Z</time>
      </trkpt>
      <trkpt lat="44.79599" lon="7.00158">
        <ele>2485.5</ele>
        <time>2022-02-25T13:23:44Z</time>
      </trkpt>
      <trkpt lat="44.79601" lon="7.00155">
        <ele>2485.5</ele>
        <time>2022-02-25T13:23:45Z</time>
      </trkpt>
      <trkpt lat="44.79601" lon="7.00155">
        <ele>2485.5</ele>
        <time>2022-02-25T13:23:46Z</time>
      </trkpt>
      <trkpt lat="44.79601" lon="7.00155">
        <ele>2485.5</ele>
        <time>2022-02-25T13:23:47Z</time>
      </trkpt>
      <trkpt lat="44.79601" lon="7.00155">
        <ele>2485.5</ele>
        <time>2022-02-25T13:23:48Z</time>
      </trkpt>
      <trkpt lat="44.79601" lon="7.00155">
        <ele>2485.5</ele>
        <time>2022-02-25T13:23:49Z</time>
      </trkpt>
      <trkpt lat="44.796" lon="7.00153">
        <ele>2484.9</ele>
        <time>2022-02-25T13:23:50Z</time>
      </trkpt>
      <trkpt lat="44.796" lon="7.00153">
        <ele>2484.9</ele>
        <time>2022-02-25T13:23:51Z</time>
      </trkpt>
      <trkpt lat="44.79597" lon="7.0015">
        <ele>2483.7</ele>
        <time>2022-02-25T13:23:52Z</time>
      </trkpt>
      <trkpt lat="44.79596" lon="7.00149">
        <ele>2483.3</ele>
        <time>2022-02-25T13:23:53Z</time>
      </trkpt>
      <trkpt lat="44.79596" lon="7.00149">
        <ele>2483.3</ele>
        <time>2022-02-25T13:23:54Z</time>
      </trkpt>
      <trkpt lat="44.79593" lon="7.0015">
        <ele>2482.8</ele>
        <time>2022-02-25T13:23:55Z</time>
      </trkpt>
      <trkpt lat="44.79593" lon="7.0015">
        <ele>2482.8</ele>
        <time>2022-02-25T13:23:56Z</time>
      </trkpt>
      <trkpt lat="44.79593" lon="7.0015">
        <ele>2482.8</ele>
        <time>2022-02-25T13:23:57Z</time>
      </trkpt>
      <trkpt lat="44.79593" lon="7.0015">
        <ele>2482.8</ele>
        <time>2022-02-25T13:23:58Z</time>
      </trkpt>
      <trkpt lat="44.79593" lon="7.0015">
        <ele>2482.8</ele>
        <time>2022-02-25T13:23:59Z</time>
      </trkpt>
      <trkpt lat="44.79593" lon="7.0015">
        <ele>2482.8</ele>
        <time>2022-02-25T13:24:00Z</time>
      </trkpt>
      <trkpt lat="44.79593" lon="7.0015">
        <ele>2482.8</ele>
        <time>2022-02-25T13:24:01Z</time>
      </trkpt>
      <trkpt lat="44.7959" lon="7.00149">
        <ele>2481.8</ele>
        <time>2022-02-25T13:24:02Z</time>
      </trkpt>
      <trkpt lat="44.79589" lon="7.00147">
        <ele>2481.2</ele>
        <time>2022-02-25T13:24:03Z</time>
      </trkpt>
      <trkpt lat="44.79589" lon="7.00147">
        <ele>2481.2</ele>
        <time>2022-02-25T13:24:04Z</time>
      </trkpt>
      <trkpt lat="44.79589" lon="7.00144">
        <ele>2480.6</ele>
        <time>2022-02-25T13:24:05Z</time>
      </trkpt>
      <trkpt lat="44.79589" lon="7.00144">
        <ele>2480.6</ele>
        <time>2022-02-25T13:24:06Z</time>
      </trkpt>
      <trkpt lat="44.79589" lon="7.00144">
        <ele>2480.6</ele>
        <time>2022-02-25T13:24:07Z</time>
      </trkpt>
      <trkpt lat="44.79589" lon="7.00144">
        <ele>2480.6</ele>
        <time>2022-02-25T13:24:08Z</time>
      </trkpt>
      <trkpt lat="44.79589" lon="7.00144">
        <ele>2480.6</ele>
        <time>2022-02-25T13:24:09Z</time>
      </trkpt>
      <trkpt lat="44.79589" lon="7.0014">
        <ele>2479.8</ele>
        <time>2022-02-25T13:24:10Z</time>
      </trkpt>
      <trkpt lat="44.79589" lon="7.0014">
        <ele>2479.8</ele>
        <time>2022-02-25T13:24:11Z</time>
      </trkpt>
      <trkpt lat="44.79588" lon="7.00136">
        <ele>2478.7</ele>
        <time>2022-02-25T13:24:12Z</time>
      </trkpt>
      <trkpt lat="44.79588" lon="7.00136">
        <ele>2478.7</ele>
        <time>2022-02-25T13:24:13Z</time>
      </trkpt>
      <trkpt lat="44.79587" lon="7.00133">
        <ele>2477.6</ele>
        <time>2022-02-25T13:24:14Z</time>
      </trkpt>
      <trkpt lat="44.79586" lon="7.00131">
        <ele>2476.8</ele>
        <time>2022-02-25T13:24:15Z</time>
      </trkpt>
      <trkpt lat="44.79584" lon="7.00129">
        <ele>2475.7</ele>
        <time>2022-02-25T13:24:16Z</time>
      </trkpt>
      <trkpt lat="44.79583" lon="7.00127">
        <ele>2475.1</ele>
        <time>2022-02-25T13:24:17Z</time>
      </trkpt>
      <trkpt lat="44.79583" lon="7.00127">
        <ele>2475.1</ele>
        <time>2022-02-25T13:24:18Z</time>
      </trkpt>
      <trkpt lat="44.79585" lon="7.00123">
        <ele>2474.5</ele>
        <time>2022-02-25T13:24:19Z</time>
      </trkpt>
      <trkpt lat="44.79585" lon="7.00123">
        <ele>2474.5</ele>
        <time>2022-02-25T13:24:20Z</time>
      </trkpt>
      <trkpt lat="44.79587" lon="7.00123">
        <ele>2475.2</ele>
        <time>2022-02-25T13:24:21Z</time>
      </trkpt>
      <trkpt lat="44.79587" lon="7.00123">
        <ele>2475.2</ele>
        <time>2022-02-25T13:24:22Z</time>
      </trkpt>
      <trkpt lat="44.79587" lon="7.00123">
        <ele>2475.2</ele>
        <time>2022-02-25T13:24:23Z</time>
      </trkpt>
      <trkpt lat="44.79587" lon="7.00123">
        <ele>2475.2</ele>
        <time>2022-02-25T13:24:24Z</time>
      </trkpt>
      <trkpt lat="44.79587" lon="7.00123">
        <ele>2475.2</ele>
        <time>2022-02-25T13:24:25Z</time>
      </trkpt>
      <trkpt lat="44.79588" lon="7.00121">
        <ele>2475.1</ele>
        <time>2022-02-25T13:24:26Z</time>
      </trkpt>
      <trkpt lat="44.79588" lon="7.00121">
        <ele>2475.1</ele>
        <time>2022-02-25T13:24:27Z</time>
      </trkpt>
      <trkpt lat="44.79588" lon="7.00121">
        <ele>2475.1</ele>
        <time>2022-02-25T13:24:28Z</time>
      </trkpt>
      <trkpt lat="44.79589" lon="7.00118">
        <ele>2474.7</ele>
        <time>2022-02-25T13:24:29Z</time>
      </trkpt>
      <trkpt lat="44.79589" lon="7.00118">
        <ele>2474.7</ele>
        <time>2022-02-25T13:24:30Z</time>
      </trkpt>
      <trkpt lat="44.79587" lon="7.00117">
        <ele>2473.7</ele>
        <time>2022-02-25T13:24:31Z</time>
      </trkpt>
      <trkpt lat="44.79587" lon="7.00117">
        <ele>2473.7</ele>
        <time>2022-02-25T13:24:32Z</time>
      </trkpt>
      <trkpt lat="44.79587" lon="7.00117">
        <ele>2473.7</ele>
        <time>2022-02-25T13:24:33Z</time>
      </trkpt>
      <trkpt lat="44.79587" lon="7.00117">
        <ele>2473.7</ele>
        <time>2022-02-25T13:24:34Z</time>
      </trkpt>
      <trkpt lat="44.79587" lon="7.00117">
        <ele>2473.7</ele>
        <time>2022-02-25T13:24:35Z</time>
      </trkpt>
      <trkpt lat="44.79587" lon="7.00117">
        <ele>2473.7</ele>
        <time>2022-02-25T13:24:36Z</time>
      </trkpt>
      <trkpt lat="44.79587" lon="7.00117">
        <ele>2473.7</ele>
        <time>2022-02-25T13:24:37Z</time>
      </trkpt>
      <trkpt lat="44.79586" lon="7.00114">
        <ele>2472.7</ele>
        <time>2022-02-25T13:24:38Z</time>
      </trkpt>
      <trkpt lat="44.79585" lon="7.00112">
        <ele>2471.8</ele>
        <time>2022-02-25T13:24:39Z</time>
      </trkpt>
      <trkpt lat="44.79583" lon="7.00109">
        <ele>2470.7</ele>
        <time>2022-02-25T13:24:40Z</time>
      </trkpt>
      <trkpt lat="44.79581" lon="7.00106">
        <ele>2470.5</ele>
        <time>2022-02-25T13:24:41Z</time>
      </trkpt>
      <trkpt lat="44.79581" lon="7.00106">
        <ele>2470.5</ele>
        <time>2022-02-25T13:24:42Z</time>
      </trkpt>
      <trkpt lat="44.7958" lon="7.00104">
        <ele>2470.3</ele>
        <time>2022-02-25T13:24:43Z</time>
      </trkpt>
      <trkpt lat="44.7958" lon="7.00104">
        <ele>2470.3</ele>
        <time>2022-02-25T13:24:44Z</time>
      </trkpt>
      <trkpt lat="44.7958" lon="7.00104">
        <ele>2470.3</ele>
        <time>2022-02-25T13:24:45Z</time>
      </trkpt>
      <trkpt lat="44.7958" lon="7.00104">
        <ele>2470.3</ele>
        <time>2022-02-25T13:24:46Z</time>
      </trkpt>
      <trkpt lat="44.7958" lon="7.00104">
        <ele>2470.3</ele>
        <time>2022-02-25T13:24:47Z</time>
      </trkpt>
      <trkpt lat="44.7958" lon="7.00104">
        <ele>2470.3</ele>
        <time>2022-02-25T13:24:48Z</time>
      </trkpt>
      <trkpt lat="44.7958" lon="7.00104">
        <ele>2470.3</ele>
        <time>2022-02-25T13:24:49Z</time>
      </trkpt>
      <trkpt lat="44.7958" lon="7.00104">
        <ele>2470.3</ele>
        <time>2022-02-25T13:24:50Z</time>
      </trkpt>
      <trkpt lat="44.7958" lon="7.00104">
        <ele>2470.3</ele>
        <time>2022-02-25T13:24:51Z</time>
      </trkpt>
      <trkpt lat="44.7958" lon="7.00104">
        <ele>2470.3</ele>
        <time>2022-02-25T13:24:52Z</time>
      </trkpt>
      <trkpt lat="44.7958" lon="7.00104">
        <ele>2470.3</ele>
        <time>2022-02-25T13:24:53Z</time>
      </trkpt>
      <trkpt lat="44.7958" lon="7.00104">
        <ele>2470.3</ele>
        <time>2022-02-25T13:24:54Z</time>
      </trkpt>
      <trkpt lat="44.7958" lon="7.00104">
        <ele>2470.3</ele>
        <time>2022-02-25T13:24:55Z</time>
      </trkpt>
      <trkpt lat="44.7958" lon="7.00104">
        <ele>2470.3</ele>
        <time>2022-02-25T13:24:56Z</time>
      </trkpt>
      <trkpt lat="44.7958" lon="7.00104">
        <ele>2470.3</ele>
        <time>2022-02-25T13:24:57Z</time>
      </trkpt>
      <trkpt lat="44.7958" lon="7.00104">
        <ele>2470.3</ele>
        <time>2022-02-25T13:24:58Z</time>
      </trkpt>
      <trkpt lat="44.7958" lon="7.00104">
        <ele>2470.3</ele>
        <time>2022-02-25T13:24:59Z</time>
      </trkpt>
      <trkpt lat="44.7958" lon="7.00104">
        <ele>2470.3</ele>
        <time>2022-02-25T13:25:00Z</time>
      </trkpt>
      <trkpt lat="44.79581" lon="7.001">
        <ele>2469.4</ele>
        <time>2022-02-25T13:25:01Z</time>
      </trkpt>
      <trkpt lat="44.79583" lon="7.00098">
        <ele>2468.7</ele>
        <time>2022-02-25T13:25:02Z</time>
      </trkpt>
      <trkpt lat="44.79585" lon="7.00096">
        <ele>2468.8</ele>
        <time>2022-02-25T13:25:03Z</time>
      </trkpt>
      <trkpt lat="44.79586" lon="7.00093">
        <ele>2468.6</ele>
        <time>2022-02-25T13:25:04Z</time>
      </trkpt>
      <trkpt lat="44.79587" lon="7.00089">
        <ele>2468.1</ele>
        <time>2022-02-25T13:25:05Z</time>
      </trkpt>
      <trkpt lat="44.79587" lon="7.00085">
        <ele>2467.4</ele>
        <time>2022-02-25T13:25:06Z</time>
      </trkpt>
      <trkpt lat="44.79587" lon="7.0008">
        <ele>2466.8</ele>
        <time>2022-02-25T13:25:07Z</time>
      </trkpt>
      <trkpt lat="44.79589" lon="7.00075">
        <ele>2466.9</ele>
        <time>2022-02-25T13:25:08Z</time>
      </trkpt>
      <trkpt lat="44.79591" lon="7.00071">
        <ele>2466.9</ele>
        <time>2022-02-25T13:25:09Z</time>
      </trkpt>
      <trkpt lat="44.79591" lon="7.00067">
        <ele>2466.5</ele>
        <time>2022-02-25T13:25:10Z</time>
      </trkpt>
      <trkpt lat="44.79591" lon="7.00062">
        <ele>2466</ele>
        <time>2022-02-25T13:25:11Z</time>
      </trkpt>
      <trkpt lat="44.79592" lon="7.00058">
        <ele>2465.6</ele>
        <time>2022-02-25T13:25:12Z</time>
      </trkpt>
      <trkpt lat="44.79594" lon="7.00054">
        <ele>2465.4</ele>
        <time>2022-02-25T13:25:13Z</time>
      </trkpt>
      <trkpt lat="44.79595" lon="7.0005">
        <ele>2465.3</ele>
        <time>2022-02-25T13:25:14Z</time>
      </trkpt>
      <trkpt lat="44.79597" lon="7.00046">
        <ele>2465</ele>
        <time>2022-02-25T13:25:15Z</time>
      </trkpt>
      <trkpt lat="44.79597" lon="7.00043">
        <ele>2464.8</ele>
        <time>2022-02-25T13:25:16Z</time>
      </trkpt>
      <trkpt lat="44.79599" lon="7.00039">
        <ele>2464.3</ele>
        <time>2022-02-25T13:25:17Z</time>
      </trkpt>
      <trkpt lat="44.796" lon="7.00036">
        <ele>2463.9</ele>
        <time>2022-02-25T13:25:18Z</time>
      </trkpt>
      <trkpt lat="44.79601" lon="7.00033">
        <ele>2463.4</ele>
        <time>2022-02-25T13:25:19Z</time>
      </trkpt>
      <trkpt lat="44.79603" lon="7.00029">
        <ele>2462.5</ele>
        <time>2022-02-25T13:25:20Z</time>
      </trkpt>
      <trkpt lat="44.79604" lon="7.00024">
        <ele>2461.6</ele>
        <time>2022-02-25T13:25:21Z</time>
      </trkpt>
      <trkpt lat="44.79605" lon="7.00019">
        <ele>2460.7</ele>
        <time>2022-02-25T13:25:22Z</time>
      </trkpt>
      <trkpt lat="44.79605" lon="7.00014">
        <ele>2460.1</ele>
        <time>2022-02-25T13:25:23Z</time>
      </trkpt>
      <trkpt lat="44.79605" lon="7.00009">
        <ele>2459.5</ele>
        <time>2022-02-25T13:25:24Z</time>
      </trkpt>
      <trkpt lat="44.79605" lon="7.00003">
        <ele>2458.8</ele>
        <time>2022-02-25T13:25:25Z</time>
      </trkpt>
      <trkpt lat="44.79605" lon="6.99997">
        <ele>2458.2</ele>
        <time>2022-02-25T13:25:26Z</time>
      </trkpt>
      <trkpt lat="44.79607" lon="6.99992">
        <ele>2457</ele>
        <time>2022-02-25T13:25:27Z</time>
      </trkpt>
      <trkpt lat="44.79609" lon="6.99987">
        <ele>2455.9</ele>
        <time>2022-02-25T13:25:28Z</time>
      </trkpt>
      <trkpt lat="44.79611" lon="6.99981">
        <ele>2454.7</ele>
        <time>2022-02-25T13:25:29Z</time>
      </trkpt>
      <trkpt lat="44.79612" lon="6.99975">
        <ele>2454.2</ele>
        <time>2022-02-25T13:25:30Z</time>
      </trkpt>
      <trkpt lat="44.79615" lon="6.9997">
        <ele>2453.8</ele>
        <time>2022-02-25T13:25:31Z</time>
      </trkpt>
      <trkpt lat="44.79617" lon="6.99965">
        <ele>2453.4</ele>
        <time>2022-02-25T13:25:32Z</time>
      </trkpt>
      <trkpt lat="44.79619" lon="6.99959">
        <ele>2453</ele>
        <time>2022-02-25T13:25:33Z</time>
      </trkpt>
      <trkpt lat="44.7962" lon="6.99953">
        <ele>2452.5</ele>
        <time>2022-02-25T13:25:34Z</time>
      </trkpt>
      <trkpt lat="44.79621" lon="6.99948">
        <ele>2452.2</ele>
        <time>2022-02-25T13:25:35Z</time>
      </trkpt>
      <trkpt lat="44.79624" lon="6.99944">
        <ele>2451.6</ele>
        <time>2022-02-25T13:25:36Z</time>
      </trkpt>
      <trkpt lat="44.79626" lon="6.9994">
        <ele>2451.1</ele>
        <time>2022-02-25T13:25:37Z</time>
      </trkpt>
      <trkpt lat="44.79627" lon="6.99936">
        <ele>2450.7</ele>
        <time>2022-02-25T13:25:38Z</time>
      </trkpt>
      <trkpt lat="44.79626" lon="6.99932">
        <ele>2450.5</ele>
        <time>2022-02-25T13:25:39Z</time>
      </trkpt>
      <trkpt lat="44.79625" lon="6.99927">
        <ele>2450.2</ele>
        <time>2022-02-25T13:25:40Z</time>
      </trkpt>
      <trkpt lat="44.79625" lon="6.99923">
        <ele>2450</ele>
        <time>2022-02-25T13:25:41Z</time>
      </trkpt>
      <trkpt lat="44.79626" lon="6.99921">
        <ele>2449.8</ele>
        <time>2022-02-25T13:25:42Z</time>
      </trkpt>
      <trkpt lat="44.79626" lon="6.99921">
        <ele>2449.8</ele>
        <time>2022-02-25T13:25:43Z</time>
      </trkpt>
      <trkpt lat="44.79626" lon="6.99921">
        <ele>2449.8</ele>
        <time>2022-02-25T13:25:44Z</time>
      </trkpt>
      <trkpt lat="44.79626" lon="6.99921">
        <ele>2449.8</ele>
        <time>2022-02-25T13:25:45Z</time>
      </trkpt>
      <trkpt lat="44.79626" lon="6.99921">
        <ele>2449.8</ele>
        <time>2022-02-25T13:25:46Z</time>
      </trkpt>
      <trkpt lat="44.79626" lon="6.99921">
        <ele>2449.8</ele>
        <time>2022-02-25T13:25:47Z</time>
      </trkpt>
      <trkpt lat="44.79626" lon="6.99921">
        <ele>2449.8</ele>
        <time>2022-02-25T13:25:48Z</time>
      </trkpt>
      <trkpt lat="44.79626" lon="6.99921">
        <ele>2449.8</ele>
        <time>2022-02-25T13:25:49Z</time>
      </trkpt>
      <trkpt lat="44.79626" lon="6.99921">
        <ele>2449.8</ele>
        <time>2022-02-25T13:25:50Z</time>
      </trkpt>
      <trkpt lat="44.79626" lon="6.99921">
        <ele>2449.8</ele>
        <time>2022-02-25T13:25:51Z</time>
      </trkpt>
      <trkpt lat="44.79626" lon="6.99921">
        <ele>2449.8</ele>
        <time>2022-02-25T13:25:52Z</time>
      </trkpt>
      <trkpt lat="44.79626" lon="6.99921">
        <ele>2449.8</ele>
        <time>2022-02-25T13:25:53Z</time>
      </trkpt>
      <trkpt lat="44.79626" lon="6.99921">
        <ele>2449.8</ele>
        <time>2022-02-25T13:25:54Z</time>
      </trkpt>
      <trkpt lat="44.79626" lon="6.99921">
        <ele>2449.8</ele>
        <time>2022-02-25T13:25:55Z</time>
      </trkpt>
      <trkpt lat="44.79626" lon="6.99921">
        <ele>2449.8</ele>
        <time>2022-02-25T13:25:56Z</time>
      </trkpt>
      <trkpt lat="44.79626" lon="6.99921">
        <ele>2449.8</ele>
        <time>2022-02-25T13:25:57Z</time>
      </trkpt>
      <trkpt lat="44.79627" lon="6.99919">
        <ele>2449.6</ele>
        <time>2022-02-25T13:25:58Z</time>
      </trkpt>
      <trkpt lat="44.79627" lon="6.99919">
        <ele>2449.6</ele>
        <time>2022-02-25T13:25:59Z</time>
      </trkpt>
      <trkpt lat="44.79627" lon="6.99919">
        <ele>2449.6</ele>
        <time>2022-02-25T13:26:00Z</time>
      </trkpt>
      <trkpt lat="44.79629" lon="6.99915">
        <ele>2449.2</ele>
        <time>2022-02-25T13:26:01Z</time>
      </trkpt>
      <trkpt lat="44.79629" lon="6.99915">
        <ele>2449.2</ele>
        <time>2022-02-25T13:26:02Z</time>
      </trkpt>
      <trkpt lat="44.7963" lon="6.99912">
        <ele>2448.9</ele>
        <time>2022-02-25T13:26:03Z</time>
      </trkpt>
      <trkpt lat="44.7963" lon="6.99912">
        <ele>2448.9</ele>
        <time>2022-02-25T13:26:04Z</time>
      </trkpt>
      <trkpt lat="44.79631" lon="6.99909">
        <ele>2448.7</ele>
        <time>2022-02-25T13:26:05Z</time>
      </trkpt>
      <trkpt lat="44.79631" lon="6.99909">
        <ele>2448.7</ele>
        <time>2022-02-25T13:26:06Z</time>
      </trkpt>
      <trkpt lat="44.79633" lon="6.99905">
        <ele>2448.3</ele>
        <time>2022-02-25T13:26:07Z</time>
      </trkpt>
      <trkpt lat="44.79634" lon="6.99904">
        <ele>2448.2</ele>
        <time>2022-02-25T13:26:08Z</time>
      </trkpt>
      <trkpt lat="44.79635" lon="6.99903">
        <ele>2448.1</ele>
        <time>2022-02-25T13:26:09Z</time>
      </trkpt>
      <trkpt lat="44.79635" lon="6.99903">
        <ele>2448.1</ele>
        <time>2022-02-25T13:26:10Z</time>
      </trkpt>
      <trkpt lat="44.79635" lon="6.99903">
        <ele>2448.1</ele>
        <time>2022-02-25T13:26:11Z</time>
      </trkpt>
      <trkpt lat="44.79635" lon="6.99903">
        <ele>2448.1</ele>
        <time>2022-02-25T13:26:12Z</time>
      </trkpt>
      <trkpt lat="44.79637" lon="6.99902">
        <ele>2448</ele>
        <time>2022-02-25T13:26:13Z</time>
      </trkpt>
      <trkpt lat="44.79637" lon="6.99902">
        <ele>2448</ele>
        <time>2022-02-25T13:26:14Z</time>
      </trkpt>
      <trkpt lat="44.79637" lon="6.99902">
        <ele>2448</ele>
        <time>2022-02-25T13:26:15Z</time>
      </trkpt>
      <trkpt lat="44.79637" lon="6.99902">
        <ele>2448</ele>
        <time>2022-02-25T13:26:16Z</time>
      </trkpt>
      <trkpt lat="44.79637" lon="6.99902">
        <ele>2448</ele>
        <time>2022-02-25T13:26:17Z</time>
      </trkpt>
      <trkpt lat="44.79637" lon="6.99902">
        <ele>2448</ele>
        <time>2022-02-25T13:26:18Z</time>
      </trkpt>
      <trkpt lat="44.79639" lon="6.99902">
        <ele>2447.9</ele>
        <time>2022-02-25T13:26:19Z</time>
      </trkpt>
      <trkpt lat="44.79639" lon="6.99902">
        <ele>2447.9</ele>
        <time>2022-02-25T13:26:20Z</time>
      </trkpt>
      <trkpt lat="44.79639" lon="6.99902">
        <ele>2447.9</ele>
        <time>2022-02-25T13:26:21Z</time>
      </trkpt>
      <trkpt lat="44.79642" lon="6.99903">
        <ele>2448</ele>
        <time>2022-02-25T13:26:22Z</time>
      </trkpt>
      <trkpt lat="44.79642" lon="6.99903">
        <ele>2448</ele>
        <time>2022-02-25T13:26:23Z</time>
      </trkpt>
      <trkpt lat="44.79645" lon="6.99901">
        <ele>2447.7</ele>
        <time>2022-02-25T13:26:24Z</time>
      </trkpt>
      <trkpt lat="44.79646" lon="6.99898">
        <ele>2447.4</ele>
        <time>2022-02-25T13:26:25Z</time>
      </trkpt>
      <trkpt lat="44.79646" lon="6.99898">
        <ele>2447.4</ele>
        <time>2022-02-25T13:26:26Z</time>
      </trkpt>
      <trkpt lat="44.79651" lon="6.99898">
        <ele>2447.2</ele>
        <time>2022-02-25T13:26:27Z</time>
      </trkpt>
      <trkpt lat="44.79652" lon="6.99897">
        <ele>2447.1</ele>
        <time>2022-02-25T13:26:28Z</time>
      </trkpt>
      <trkpt lat="44.79653" lon="6.99896">
        <ele>2446.9</ele>
        <time>2022-02-25T13:26:29Z</time>
      </trkpt>
      <trkpt lat="44.79653" lon="6.99893">
        <ele>2446.5</ele>
        <time>2022-02-25T13:26:30Z</time>
      </trkpt>
      <trkpt lat="44.79653" lon="6.99889">
        <ele>2446</ele>
        <time>2022-02-25T13:26:31Z</time>
      </trkpt>
      <trkpt lat="44.79654" lon="6.99885">
        <ele>2445.3</ele>
        <time>2022-02-25T13:26:32Z</time>
      </trkpt>
      <trkpt lat="44.79654" lon="6.99879">
        <ele>2444.3</ele>
        <time>2022-02-25T13:26:33Z</time>
      </trkpt>
      <trkpt lat="44.79654" lon="6.99875">
        <ele>2443.6</ele>
        <time>2022-02-25T13:26:34Z</time>
      </trkpt>
      <trkpt lat="44.79654" lon="6.99871">
        <ele>2443</ele>
        <time>2022-02-25T13:26:35Z</time>
      </trkpt>
      <trkpt lat="44.79655" lon="6.99867">
        <ele>2442.2</ele>
        <time>2022-02-25T13:26:36Z</time>
      </trkpt>
      <trkpt lat="44.79655" lon="6.99862">
        <ele>2441.4</ele>
        <time>2022-02-25T13:26:37Z</time>
      </trkpt>
      <trkpt lat="44.79656" lon="6.99857">
        <ele>2440.5</ele>
        <time>2022-02-25T13:26:38Z</time>
      </trkpt>
      <trkpt lat="44.79657" lon="6.99852">
        <ele>2439.6</ele>
        <time>2022-02-25T13:26:39Z</time>
      </trkpt>
      <trkpt lat="44.79657" lon="6.99848">
        <ele>2439</ele>
        <time>2022-02-25T13:26:40Z</time>
      </trkpt>
      <trkpt lat="44.79656" lon="6.99845">
        <ele>2438.6</ele>
        <time>2022-02-25T13:26:41Z</time>
      </trkpt>
      <trkpt lat="44.79656" lon="6.99845">
        <ele>2438.6</ele>
        <time>2022-02-25T13:26:42Z</time>
      </trkpt>
      <trkpt lat="44.79656" lon="6.99845">
        <ele>2438.6</ele>
        <time>2022-02-25T13:26:43Z</time>
      </trkpt>
      <trkpt lat="44.79656" lon="6.99845">
        <ele>2438.6</ele>
        <time>2022-02-25T13:26:44Z</time>
      </trkpt>
      <trkpt lat="44.79656" lon="6.99845">
        <ele>2438.6</ele>
        <time>2022-02-25T13:26:45Z</time>
      </trkpt>
      <trkpt lat="44.79656" lon="6.99845">
        <ele>2438.6</ele>
        <time>2022-02-25T13:26:46Z</time>
      </trkpt>
      <trkpt lat="44.79656" lon="6.99845">
        <ele>2438.6</ele>
        <time>2022-02-25T13:26:47Z</time>
      </trkpt>
      <trkpt lat="44.79656" lon="6.99845">
        <ele>2438.6</ele>
        <time>2022-02-25T13:26:48Z</time>
      </trkpt>
      <trkpt lat="44.79656" lon="6.99845">
        <ele>2438.6</ele>
        <time>2022-02-25T13:26:49Z</time>
      </trkpt>
      <trkpt lat="44.79656" lon="6.99845">
        <ele>2438.6</ele>
        <time>2022-02-25T13:26:50Z</time>
      </trkpt>
      <trkpt lat="44.79656" lon="6.99845">
        <ele>2438.6</ele>
        <time>2022-02-25T13:26:51Z</time>
      </trkpt>
      <trkpt lat="44.79656" lon="6.99845">
        <ele>2438.6</ele>
        <time>2022-02-25T13:26:52Z</time>
      </trkpt>
      <trkpt lat="44.79656" lon="6.99845">
        <ele>2438.6</ele>
        <time>2022-02-25T13:26:53Z</time>
      </trkpt>
      <trkpt lat="44.79656" lon="6.99845">
        <ele>2438.6</ele>
        <time>2022-02-25T13:26:54Z</time>
      </trkpt>
      <trkpt lat="44.79656" lon="6.99845">
        <ele>2438.6</ele>
        <time>2022-02-25T13:26:55Z</time>
      </trkpt>
      <trkpt lat="44.79656" lon="6.99845">
        <ele>2438.6</ele>
        <time>2022-02-25T13:26:56Z</time>
      </trkpt>
      <trkpt lat="44.79656" lon="6.99845">
        <ele>2438.6</ele>
        <time>2022-02-25T13:26:57Z</time>
      </trkpt>
      <trkpt lat="44.79656" lon="6.99845">
        <ele>2438.6</ele>
        <time>2022-02-25T13:26:58Z</time>
      </trkpt>
      <trkpt lat="44.79656" lon="6.99845">
        <ele>2438.6</ele>
        <time>2022-02-25T13:26:59Z</time>
      </trkpt>
      <trkpt lat="44.79656" lon="6.99845">
        <ele>2438.6</ele>
        <time>2022-02-25T13:27:00Z</time>
      </trkpt>
      <trkpt lat="44.79656" lon="6.99845">
        <ele>2438.6</ele>
        <time>2022-02-25T13:27:01Z</time>
      </trkpt>
      <trkpt lat="44.79656" lon="6.99845">
        <ele>2438.6</ele>
        <time>2022-02-25T13:27:02Z</time>
      </trkpt>
      <trkpt lat="44.79656" lon="6.99845">
        <ele>2438.6</ele>
        <time>2022-02-25T13:27:03Z</time>
      </trkpt>
      <trkpt lat="44.79655" lon="6.99843">
        <ele>2438.4</ele>
        <time>2022-02-25T13:27:04Z</time>
      </trkpt>
      <trkpt lat="44.79655" lon="6.99843">
        <ele>2438.4</ele>
        <time>2022-02-25T13:27:05Z</time>
      </trkpt>
      <trkpt lat="44.79655" lon="6.99843">
        <ele>2438.4</ele>
        <time>2022-02-25T13:27:06Z</time>
      </trkpt>
      <trkpt lat="44.79655" lon="6.99843">
        <ele>2438.4</ele>
        <time>2022-02-25T13:27:07Z</time>
      </trkpt>
      <trkpt lat="44.79655" lon="6.99843">
        <ele>2438.4</ele>
        <time>2022-02-25T13:27:08Z</time>
      </trkpt>
      <trkpt lat="44.79655" lon="6.99843">
        <ele>2438.4</ele>
        <time>2022-02-25T13:27:09Z</time>
      </trkpt>
      <trkpt lat="44.79655" lon="6.99842">
        <ele>2438.2</ele>
        <time>2022-02-25T13:27:10Z</time>
      </trkpt>
      <trkpt lat="44.79655" lon="6.99842">
        <ele>2438.2</ele>
        <time>2022-02-25T13:27:11Z</time>
      </trkpt>
      <trkpt lat="44.79655" lon="6.99842">
        <ele>2438.2</ele>
        <time>2022-02-25T13:27:12Z</time>
      </trkpt>
      <trkpt lat="44.79655" lon="6.99842">
        <ele>2438.2</ele>
        <time>2022-02-25T13:27:13Z</time>
      </trkpt>
      <trkpt lat="44.79655" lon="6.99842">
        <ele>2438.2</ele>
        <time>2022-02-25T13:27:14Z</time>
      </trkpt>
      <trkpt lat="44.79655" lon="6.99842">
        <ele>2438.2</ele>
        <time>2022-02-25T13:27:15Z</time>
      </trkpt>
      <trkpt lat="44.79655" lon="6.99842">
        <ele>2438.2</ele>
        <time>2022-02-25T13:27:16Z</time>
      </trkpt>
      <trkpt lat="44.79655" lon="6.99842">
        <ele>2438.2</ele>
        <time>2022-02-25T13:27:17Z</time>
      </trkpt>
      <trkpt lat="44.79655" lon="6.99842">
        <ele>2438.2</ele>
        <time>2022-02-25T13:27:18Z</time>
      </trkpt>
      <trkpt lat="44.79655" lon="6.99842">
        <ele>2438.2</ele>
        <time>2022-02-25T13:27:19Z</time>
      </trkpt>
      <trkpt lat="44.79655" lon="6.99842">
        <ele>2438.2</ele>
        <time>2022-02-25T13:27:20Z</time>
      </trkpt>
      <trkpt lat="44.79655" lon="6.99842">
        <ele>2438.2</ele>
        <time>2022-02-25T13:27:21Z</time>
      </trkpt>
      <trkpt lat="44.79655" lon="6.99842">
        <ele>2438.2</ele>
        <time>2022-02-25T13:27:22Z</time>
      </trkpt>
      <trkpt lat="44.79655" lon="6.99842">
        <ele>2438.2</ele>
        <time>2022-02-25T13:27:23Z</time>
      </trkpt>
      <trkpt lat="44.79655" lon="6.99842">
        <ele>2438.2</ele>
        <time>2022-02-25T13:27:24Z</time>
      </trkpt>
      <trkpt lat="44.79654" lon="6.99842">
        <ele>2438.3</ele>
        <time>2022-02-25T13:27:25Z</time>
      </trkpt>
      <trkpt lat="44.79654" lon="6.99842">
        <ele>2438.3</ele>
        <time>2022-02-25T13:27:26Z</time>
      </trkpt>
      <trkpt lat="44.79654" lon="6.99841">
        <ele>2438.1</ele>
        <time>2022-02-25T13:27:27Z</time>
      </trkpt>
      <trkpt lat="44.79654" lon="6.99841">
        <ele>2438.1</ele>
        <time>2022-02-25T13:27:28Z</time>
      </trkpt>
      <trkpt lat="44.79654" lon="6.99841">
        <ele>2438.1</ele>
        <time>2022-02-25T13:27:29Z</time>
      </trkpt>
      <trkpt lat="44.79654" lon="6.99841">
        <ele>2438.1</ele>
        <time>2022-02-25T13:27:30Z</time>
      </trkpt>
      <trkpt lat="44.79654" lon="6.99841">
        <ele>2438.1</ele>
        <time>2022-02-25T13:27:31Z</time>
      </trkpt>
      <trkpt lat="44.79654" lon="6.99841">
        <ele>2438.1</ele>
        <time>2022-02-25T13:27:32Z</time>
      </trkpt>
      <trkpt lat="44.79654" lon="6.99841">
        <ele>2438.1</ele>
        <time>2022-02-25T13:27:33Z</time>
      </trkpt>
      <trkpt lat="44.79654" lon="6.99841">
        <ele>2438.1</ele>
        <time>2022-02-25T13:27:34Z</time>
      </trkpt>
      <trkpt lat="44.79654" lon="6.99841">
        <ele>2438.1</ele>
        <time>2022-02-25T13:27:35Z</time>
      </trkpt>
      <trkpt lat="44.79654" lon="6.99841">
        <ele>2438.1</ele>
        <time>2022-02-25T13:27:36Z</time>
      </trkpt>
      <trkpt lat="44.79654" lon="6.99841">
        <ele>2438.1</ele>
        <time>2022-02-25T13:27:37Z</time>
      </trkpt>
      <trkpt lat="44.79654" lon="6.99841">
        <ele>2438.1</ele>
        <time>2022-02-25T13:27:38Z</time>
      </trkpt>
      <trkpt lat="44.79654" lon="6.99841">
        <ele>2438.1</ele>
        <time>2022-02-25T13:27:39Z</time>
      </trkpt>
      <trkpt lat="44.79654" lon="6.99841">
        <ele>2438.1</ele>
        <time>2022-02-25T13:27:40Z</time>
      </trkpt>
      <trkpt lat="44.79654" lon="6.99841">
        <ele>2438.1</ele>
        <time>2022-02-25T13:27:41Z</time>
      </trkpt>
      <trkpt lat="44.79654" lon="6.99841">
        <ele>2438.1</ele>
        <time>2022-02-25T13:27:42Z</time>
      </trkpt>
      <trkpt lat="44.79654" lon="6.99841">
        <ele>2438.1</ele>
        <time>2022-02-25T13:27:43Z</time>
      </trkpt>
      <trkpt lat="44.79654" lon="6.99841">
        <ele>2438.1</ele>
        <time>2022-02-25T13:27:44Z</time>
      </trkpt>
      <trkpt lat="44.79654" lon="6.9984">
        <ele>2438</ele>
        <time>2022-02-25T13:27:45Z</time>
      </trkpt>
      <trkpt lat="44.79654" lon="6.9984">
        <ele>2438</ele>
        <time>2022-02-25T13:27:46Z</time>
      </trkpt>
      <trkpt lat="44.79654" lon="6.9984">
        <ele>2438</ele>
        <time>2022-02-25T13:27:47Z</time>
      </trkpt>
      <trkpt lat="44.79654" lon="6.9984">
        <ele>2438</ele>
        <time>2022-02-25T13:27:48Z</time>
      </trkpt>
      <trkpt lat="44.79654" lon="6.9984">
        <ele>2438</ele>
        <time>2022-02-25T13:27:49Z</time>
      </trkpt>
      <trkpt lat="44.79654" lon="6.9984">
        <ele>2438</ele>
        <time>2022-02-25T13:27:50Z</time>
      </trkpt>
      <trkpt lat="44.79654" lon="6.9984">
        <ele>2438</ele>
        <time>2022-02-25T13:27:51Z</time>
      </trkpt>
      <trkpt lat="44.79654" lon="6.9984">
        <ele>2438</ele>
        <time>2022-02-25T13:27:52Z</time>
      </trkpt>
      <trkpt lat="44.79654" lon="6.9984">
        <ele>2438</ele>
        <time>2022-02-25T13:27:53Z</time>
      </trkpt>
      <trkpt lat="44.79654" lon="6.9984">
        <ele>2438</ele>
        <time>2022-02-25T13:27:54Z</time>
      </trkpt>
      <trkpt lat="44.79654" lon="6.9984">
        <ele>2438</ele>
        <time>2022-02-25T13:27:55Z</time>
      </trkpt>
      <trkpt lat="44.79654" lon="6.9984">
        <ele>2438</ele>
        <time>2022-02-25T13:27:56Z</time>
      </trkpt>
      <trkpt lat="44.79653" lon="6.9984">
        <ele>2438.1</ele>
        <time>2022-02-25T13:27:57Z</time>
      </trkpt>
      <trkpt lat="44.79653" lon="6.9984">
        <ele>2438.1</ele>
        <time>2022-02-25T13:27:58Z</time>
      </trkpt>
      <trkpt lat="44.79653" lon="6.9984">
        <ele>2438.1</ele>
        <time>2022-02-25T13:27:59Z</time>
      </trkpt>
      <trkpt lat="44.79653" lon="6.9984">
        <ele>2438.1</ele>
        <time>2022-02-25T13:28:00Z</time>
      </trkpt>
      <trkpt lat="44.79653" lon="6.9984">
        <ele>2438.1</ele>
        <time>2022-02-25T13:28:01Z</time>
      </trkpt>
      <trkpt lat="44.79653" lon="6.99839">
        <ele>2437.9</ele>
        <time>2022-02-25T13:28:02Z</time>
      </trkpt>
      <trkpt lat="44.79653" lon="6.99839">
        <ele>2437.9</ele>
        <time>2022-02-25T13:28:03Z</time>
      </trkpt>
      <trkpt lat="44.79653" lon="6.99839">
        <ele>2437.9</ele>
        <time>2022-02-25T13:28:04Z</time>
      </trkpt>
      <trkpt lat="44.79653" lon="6.99839">
        <ele>2437.9</ele>
        <time>2022-02-25T13:28:05Z</time>
      </trkpt>
      <trkpt lat="44.79653" lon="6.99839">
        <ele>2437.9</ele>
        <time>2022-02-25T13:28:06Z</time>
      </trkpt>
      <trkpt lat="44.79653" lon="6.99839">
        <ele>2437.9</ele>
        <time>2022-02-25T13:28:07Z</time>
      </trkpt>
      <trkpt lat="44.79653" lon="6.99839">
        <ele>2437.9</ele>
        <time>2022-02-25T13:28:08Z</time>
      </trkpt>
      <trkpt lat="44.79653" lon="6.99839">
        <ele>2437.9</ele>
        <time>2022-02-25T13:28:09Z</time>
      </trkpt>
      <trkpt lat="44.79653" lon="6.99839">
        <ele>2437.9</ele>
        <time>2022-02-25T13:28:10Z</time>
      </trkpt>
      <trkpt lat="44.79653" lon="6.99839">
        <ele>2437.9</ele>
        <time>2022-02-25T13:28:11Z</time>
      </trkpt>
      <trkpt lat="44.79653" lon="6.99839">
        <ele>2437.9</ele>
        <time>2022-02-25T13:28:12Z</time>
      </trkpt>
      <trkpt lat="44.79653" lon="6.99839">
        <ele>2437.9</ele>
        <time>2022-02-25T13:28:13Z</time>
      </trkpt>
      <trkpt lat="44.79653" lon="6.99839">
        <ele>2437.9</ele>
        <time>2022-02-25T13:28:14Z</time>
      </trkpt>
      <trkpt lat="44.79653" lon="6.99839">
        <ele>2437.9</ele>
        <time>2022-02-25T13:28:15Z</time>
      </trkpt>
      <trkpt lat="44.79653" lon="6.99839">
        <ele>2437.9</ele>
        <time>2022-02-25T13:28:16Z</time>
      </trkpt>
      <trkpt lat="44.79653" lon="6.99839">
        <ele>2437.9</ele>
        <time>2022-02-25T13:28:17Z</time>
      </trkpt>
      <trkpt lat="44.79653" lon="6.99839">
        <ele>2437.9</ele>
        <time>2022-02-25T13:28:18Z</time>
      </trkpt>
      <trkpt lat="44.79653" lon="6.99839">
        <ele>2437.9</ele>
        <time>2022-02-25T13:28:19Z</time>
      </trkpt>
      <trkpt lat="44.79653" lon="6.99838">
        <ele>2437.7</ele>
        <time>2022-02-25T13:28:20Z</time>
      </trkpt>
      <trkpt lat="44.79653" lon="6.99838">
        <ele>2437.7</ele>
        <time>2022-02-25T13:28:21Z</time>
      </trkpt>
      <trkpt lat="44.79653" lon="6.99838">
        <ele>2437.7</ele>
        <time>2022-02-25T13:28:22Z</time>
      </trkpt>
      <trkpt lat="44.79653" lon="6.99838">
        <ele>2437.7</ele>
        <time>2022-02-25T13:28:23Z</time>
      </trkpt>
      <trkpt lat="44.79653" lon="6.99838">
        <ele>2437.7</ele>
        <time>2022-02-25T13:28:24Z</time>
      </trkpt>
      <trkpt lat="44.79653" lon="6.99838">
        <ele>2437.7</ele>
        <time>2022-02-25T13:28:25Z</time>
      </trkpt>
      <trkpt lat="44.79653" lon="6.99838">
        <ele>2437.7</ele>
        <time>2022-02-25T13:28:26Z</time>
      </trkpt>
      <trkpt lat="44.79653" lon="6.99838">
        <ele>2437.7</ele>
        <time>2022-02-25T13:28:27Z</time>
      </trkpt>
      <trkpt lat="44.79652" lon="6.99838">
        <ele>2437.8</ele>
        <time>2022-02-25T13:28:28Z</time>
      </trkpt>
      <trkpt lat="44.79652" lon="6.99838">
        <ele>2437.8</ele>
        <time>2022-02-25T13:28:29Z</time>
      </trkpt>
      <trkpt lat="44.79652" lon="6.99838">
        <ele>2437.8</ele>
        <time>2022-02-25T13:28:30Z</time>
      </trkpt>
      <trkpt lat="44.79652" lon="6.99838">
        <ele>2437.8</ele>
        <time>2022-02-25T13:28:31Z</time>
      </trkpt>
      <trkpt lat="44.79652" lon="6.99838">
        <ele>2437.8</ele>
        <time>2022-02-25T13:28:32Z</time>
      </trkpt>
      <trkpt lat="44.79652" lon="6.99838">
        <ele>2437.8</ele>
        <time>2022-02-25T13:28:33Z</time>
      </trkpt>
      <trkpt lat="44.79652" lon="6.99838">
        <ele>2437.8</ele>
        <time>2022-02-25T13:28:34Z</time>
      </trkpt>
      <trkpt lat="44.79652" lon="6.99838">
        <ele>2437.8</ele>
        <time>2022-02-25T13:28:35Z</time>
      </trkpt>
      <trkpt lat="44.79652" lon="6.99838">
        <ele>2437.8</ele>
        <time>2022-02-25T13:28:36Z</time>
      </trkpt>
      <trkpt lat="44.79652" lon="6.99838">
        <ele>2437.8</ele>
        <time>2022-02-25T13:28:37Z</time>
      </trkpt>
      <trkpt lat="44.79652" lon="6.99837">
        <ele>2437.7</ele>
        <time>2022-02-25T13:28:38Z</time>
      </trkpt>
      <trkpt lat="44.79652" lon="6.99837">
        <ele>2437.7</ele>
        <time>2022-02-25T13:28:39Z</time>
      </trkpt>
      <trkpt lat="44.79652" lon="6.99837">
        <ele>2437.7</ele>
        <time>2022-02-25T13:28:40Z</time>
      </trkpt>
      <trkpt lat="44.79652" lon="6.99837">
        <ele>2437.7</ele>
        <time>2022-02-25T13:28:41Z</time>
      </trkpt>
      <trkpt lat="44.79652" lon="6.99837">
        <ele>2437.7</ele>
        <time>2022-02-25T13:28:42Z</time>
      </trkpt>
      <trkpt lat="44.79652" lon="6.99837">
        <ele>2437.7</ele>
        <time>2022-02-25T13:28:43Z</time>
      </trkpt>
      <trkpt lat="44.79652" lon="6.99837">
        <ele>2437.7</ele>
        <time>2022-02-25T13:28:44Z</time>
      </trkpt>
      <trkpt lat="44.79652" lon="6.99837">
        <ele>2437.7</ele>
        <time>2022-02-25T13:28:45Z</time>
      </trkpt>
      <trkpt lat="44.79652" lon="6.99837">
        <ele>2437.7</ele>
        <time>2022-02-25T13:28:46Z</time>
      </trkpt>
      <trkpt lat="44.79652" lon="6.99837">
        <ele>2437.7</ele>
        <time>2022-02-25T13:28:47Z</time>
      </trkpt>
      <trkpt lat="44.79652" lon="6.99837">
        <ele>2437.7</ele>
        <time>2022-02-25T13:28:48Z</time>
      </trkpt>
      <trkpt lat="44.79652" lon="6.99837">
        <ele>2437.7</ele>
        <time>2022-02-25T13:28:49Z</time>
      </trkpt>
      <trkpt lat="44.79652" lon="6.99837">
        <ele>2437.7</ele>
        <time>2022-02-25T13:28:50Z</time>
      </trkpt>
      <trkpt lat="44.79652" lon="6.99837">
        <ele>2437.7</ele>
        <time>2022-02-25T13:28:51Z</time>
      </trkpt>
      <trkpt lat="44.79652" lon="6.99837">
        <ele>2437.7</ele>
        <time>2022-02-25T13:28:52Z</time>
      </trkpt>
      <trkpt lat="44.79652" lon="6.99837">
        <ele>2437.7</ele>
        <time>2022-02-25T13:28:53Z</time>
      </trkpt>
      <trkpt lat="44.79652" lon="6.99837">
        <ele>2437.7</ele>
        <time>2022-02-25T13:28:54Z</time>
      </trkpt>
      <trkpt lat="44.79652" lon="6.99836">
        <ele>2437.5</ele>
        <time>2022-02-25T13:28:55Z</time>
      </trkpt>
      <trkpt lat="44.79652" lon="6.99836">
        <ele>2437.5</ele>
        <time>2022-02-25T13:28:56Z</time>
      </trkpt>
      <trkpt lat="44.79652" lon="6.99836">
        <ele>2437.5</ele>
        <time>2022-02-25T13:28:57Z</time>
      </trkpt>
      <trkpt lat="44.79652" lon="6.99836">
        <ele>2437.5</ele>
        <time>2022-02-25T13:28:58Z</time>
      </trkpt>
      <trkpt lat="44.79652" lon="6.99836">
        <ele>2437.5</ele>
        <time>2022-02-25T13:28:59Z</time>
      </trkpt>
      <trkpt lat="44.79651" lon="6.99836">
        <ele>2437.6</ele>
        <time>2022-02-25T13:29:00Z</time>
      </trkpt>
      <trkpt lat="44.79651" lon="6.99836">
        <ele>2437.6</ele>
        <time>2022-02-25T13:29:01Z</time>
      </trkpt>
      <trkpt lat="44.79651" lon="6.99836">
        <ele>2437.6</ele>
        <time>2022-02-25T13:29:02Z</time>
      </trkpt>
      <trkpt lat="44.79651" lon="6.99836">
        <ele>2437.6</ele>
        <time>2022-02-25T13:29:03Z</time>
      </trkpt>
      <trkpt lat="44.79651" lon="6.99836">
        <ele>2437.6</ele>
        <time>2022-02-25T13:29:04Z</time>
      </trkpt>
      <trkpt lat="44.79651" lon="6.99836">
        <ele>2437.6</ele>
        <time>2022-02-25T13:29:05Z</time>
      </trkpt>
      <trkpt lat="44.79651" lon="6.99836">
        <ele>2437.6</ele>
        <time>2022-02-25T13:29:06Z</time>
      </trkpt>
      <trkpt lat="44.79651" lon="6.99836">
        <ele>2437.6</ele>
        <time>2022-02-25T13:29:07Z</time>
      </trkpt>
      <trkpt lat="44.79651" lon="6.99836">
        <ele>2437.6</ele>
        <time>2022-02-25T13:29:08Z</time>
      </trkpt>
      <trkpt lat="44.79651" lon="6.99836">
        <ele>2437.6</ele>
        <time>2022-02-25T13:29:09Z</time>
      </trkpt>
      <trkpt lat="44.79651" lon="6.99836">
        <ele>2437.6</ele>
        <time>2022-02-25T13:29:10Z</time>
      </trkpt>
      <trkpt lat="44.79651" lon="6.99836">
        <ele>2437.6</ele>
        <time>2022-02-25T13:29:11Z</time>
      </trkpt>
      <trkpt lat="44.79651" lon="6.99836">
        <ele>2437.6</ele>
        <time>2022-02-25T13:29:12Z</time>
      </trkpt>
      <trkpt lat="44.79651" lon="6.99835">
        <ele>2437.4</ele>
        <time>2022-02-25T13:29:13Z</time>
      </trkpt>
      <trkpt lat="44.79651" lon="6.99835">
        <ele>2437.4</ele>
        <time>2022-02-25T13:29:14Z</time>
      </trkpt>
      <trkpt lat="44.79651" lon="6.99835">
        <ele>2437.4</ele>
        <time>2022-02-25T13:29:15Z</time>
      </trkpt>
      <trkpt lat="44.79651" lon="6.99835">
        <ele>2437.4</ele>
        <time>2022-02-25T13:29:16Z</time>
      </trkpt>
      <trkpt lat="44.79651" lon="6.99835">
        <ele>2437.4</ele>
        <time>2022-02-25T13:29:17Z</time>
      </trkpt>
      <trkpt lat="44.79651" lon="6.99835">
        <ele>2437.4</ele>
        <time>2022-02-25T13:29:18Z</time>
      </trkpt>
      <trkpt lat="44.79651" lon="6.99835">
        <ele>2437.4</ele>
        <time>2022-02-25T13:29:19Z</time>
      </trkpt>
      <trkpt lat="44.79651" lon="6.99835">
        <ele>2437.4</ele>
        <time>2022-02-25T13:29:20Z</time>
      </trkpt>
      <trkpt lat="44.79651" lon="6.99835">
        <ele>2437.4</ele>
        <time>2022-02-25T13:29:21Z</time>
      </trkpt>
      <trkpt lat="44.79651" lon="6.99835">
        <ele>2437.4</ele>
        <time>2022-02-25T13:29:22Z</time>
      </trkpt>
      <trkpt lat="44.79651" lon="6.99835">
        <ele>2437.4</ele>
        <time>2022-02-25T13:29:23Z</time>
      </trkpt>
      <trkpt lat="44.79651" lon="6.99835">
        <ele>2437.4</ele>
        <time>2022-02-25T13:29:24Z</time>
      </trkpt>
      <trkpt lat="44.79651" lon="6.99835">
        <ele>2437.4</ele>
        <time>2022-02-25T13:29:25Z</time>
      </trkpt>
      <trkpt lat="44.79651" lon="6.99835">
        <ele>2437.4</ele>
        <time>2022-02-25T13:29:26Z</time>
      </trkpt>
      <trkpt lat="44.79651" lon="6.99835">
        <ele>2437.4</ele>
        <time>2022-02-25T13:29:27Z</time>
      </trkpt>
      <trkpt lat="44.79651" lon="6.99835">
        <ele>2437.4</ele>
        <time>2022-02-25T13:29:28Z</time>
      </trkpt>
      <trkpt lat="44.79651" lon="6.99835">
        <ele>2437.4</ele>
        <time>2022-02-25T13:29:29Z</time>
      </trkpt>
      <trkpt lat="44.79651" lon="6.99834">
        <ele>2437.2</ele>
        <time>2022-02-25T13:29:30Z</time>
      </trkpt>
      <trkpt lat="44.7965" lon="6.99834">
        <ele>2437.3</ele>
        <time>2022-02-25T13:29:31Z</time>
      </trkpt>
      <trkpt lat="44.7965" lon="6.99834">
        <ele>2437.3</ele>
        <time>2022-02-25T13:29:32Z</time>
      </trkpt>
      <trkpt lat="44.7965" lon="6.99834">
        <ele>2437.3</ele>
        <time>2022-02-25T13:29:33Z</time>
      </trkpt>
      <trkpt lat="44.7965" lon="6.99834">
        <ele>2437.3</ele>
        <time>2022-02-25T13:29:34Z</time>
      </trkpt>
      <trkpt lat="44.7965" lon="6.99834">
        <ele>2437.3</ele>
        <time>2022-02-25T13:29:35Z</time>
      </trkpt>
      <trkpt lat="44.7965" lon="6.99834">
        <ele>2437.3</ele>
        <time>2022-02-25T13:29:36Z</time>
      </trkpt>
      <trkpt lat="44.7965" lon="6.99834">
        <ele>2437.3</ele>
        <time>2022-02-25T13:29:37Z</time>
      </trkpt>
      <trkpt lat="44.7965" lon="6.99834">
        <ele>2437.3</ele>
        <time>2022-02-25T13:29:38Z</time>
      </trkpt>
      <trkpt lat="44.7965" lon="6.99834">
        <ele>2437.3</ele>
        <time>2022-02-25T13:29:39Z</time>
      </trkpt>
      <trkpt lat="44.7965" lon="6.99834">
        <ele>2437.3</ele>
        <time>2022-02-25T13:29:40Z</time>
      </trkpt>
      <trkpt lat="44.7965" lon="6.99834">
        <ele>2437.3</ele>
        <time>2022-02-25T13:29:41Z</time>
      </trkpt>
      <trkpt lat="44.7965" lon="6.99834">
        <ele>2437.3</ele>
        <time>2022-02-25T13:29:42Z</time>
      </trkpt>
      <trkpt lat="44.7965" lon="6.99834">
        <ele>2437.3</ele>
        <time>2022-02-25T13:29:43Z</time>
      </trkpt>
      <trkpt lat="44.7965" lon="6.99834">
        <ele>2437.3</ele>
        <time>2022-02-25T13:29:44Z</time>
      </trkpt>
      <trkpt lat="44.7965" lon="6.99834">
        <ele>2437.3</ele>
        <time>2022-02-25T13:29:45Z</time>
      </trkpt>
      <trkpt lat="44.7965" lon="6.99834">
        <ele>2437.3</ele>
        <time>2022-02-25T13:29:46Z</time>
      </trkpt>
      <trkpt lat="44.7965" lon="6.99834">
        <ele>2437.3</ele>
        <time>2022-02-25T13:29:47Z</time>
      </trkpt>
      <trkpt lat="44.7965" lon="6.99833">
        <ele>2437.1</ele>
        <time>2022-02-25T13:29:48Z</time>
      </trkpt>
      <trkpt lat="44.7965" lon="6.99833">
        <ele>2437.1</ele>
        <time>2022-02-25T13:29:49Z</time>
      </trkpt>
      <trkpt lat="44.7965" lon="6.99833">
        <ele>2437.1</ele>
        <time>2022-02-25T13:29:50Z</time>
      </trkpt>
      <trkpt lat="44.7965" lon="6.99833">
        <ele>2437.1</ele>
        <time>2022-02-25T13:29:51Z</time>
      </trkpt>
      <trkpt lat="44.7965" lon="6.99833">
        <ele>2437.1</ele>
        <time>2022-02-25T13:29:52Z</time>
      </trkpt>
      <trkpt lat="44.7965" lon="6.99833">
        <ele>2437.1</ele>
        <time>2022-02-25T13:29:53Z</time>
      </trkpt>
      <trkpt lat="44.7965" lon="6.99833">
        <ele>2437.1</ele>
        <time>2022-02-25T13:29:54Z</time>
      </trkpt>
      <trkpt lat="44.7965" lon="6.99833">
        <ele>2437.1</ele>
        <time>2022-02-25T13:29:55Z</time>
      </trkpt>
      <trkpt lat="44.7965" lon="6.99833">
        <ele>2437.1</ele>
        <time>2022-02-25T13:29:56Z</time>
      </trkpt>
      <trkpt lat="44.7965" lon="6.99833">
        <ele>2437.1</ele>
        <time>2022-02-25T13:29:57Z</time>
      </trkpt>
      <trkpt lat="44.7965" lon="6.99833">
        <ele>2437.1</ele>
        <time>2022-02-25T13:29:58Z</time>
      </trkpt>
      <trkpt lat="44.7965" lon="6.99833">
        <ele>2437.1</ele>
        <time>2022-02-25T13:29:59Z</time>
      </trkpt>
      <trkpt lat="44.7965" lon="6.99833">
        <ele>2437.1</ele>
        <time>2022-02-25T13:30:00Z</time>
      </trkpt>
      <trkpt lat="44.7965" lon="6.99833">
        <ele>2437.1</ele>
        <time>2022-02-25T13:30:01Z</time>
      </trkpt>
      <trkpt lat="44.7965" lon="6.99833">
        <ele>2437.1</ele>
        <time>2022-02-25T13:30:02Z</time>
      </trkpt>
      <trkpt lat="44.79649" lon="6.99833">
        <ele>2437.2</ele>
        <time>2022-02-25T13:30:03Z</time>
      </trkpt>
      <trkpt lat="44.79649" lon="6.99833">
        <ele>2437.2</ele>
        <time>2022-02-25T13:30:04Z</time>
      </trkpt>
      <trkpt lat="44.79649" lon="6.99832">
        <ele>2437</ele>
        <time>2022-02-25T13:30:05Z</time>
      </trkpt>
      <trkpt lat="44.79649" lon="6.99832">
        <ele>2437</ele>
        <time>2022-02-25T13:30:06Z</time>
      </trkpt>
      <trkpt lat="44.79649" lon="6.99832">
        <ele>2437</ele>
        <time>2022-02-25T13:30:07Z</time>
      </trkpt>
      <trkpt lat="44.79649" lon="6.99832">
        <ele>2437</ele>
        <time>2022-02-25T13:30:08Z</time>
      </trkpt>
      <trkpt lat="44.79649" lon="6.99832">
        <ele>2437</ele>
        <time>2022-02-25T13:30:09Z</time>
      </trkpt>
      <trkpt lat="44.79649" lon="6.99832">
        <ele>2437</ele>
        <time>2022-02-25T13:30:10Z</time>
      </trkpt>
      <trkpt lat="44.79649" lon="6.99832">
        <ele>2437</ele>
        <time>2022-02-25T13:30:11Z</time>
      </trkpt>
      <trkpt lat="44.79649" lon="6.99832">
        <ele>2437</ele>
        <time>2022-02-25T13:30:12Z</time>
      </trkpt>
      <trkpt lat="44.79649" lon="6.99832">
        <ele>2437</ele>
        <time>2022-02-25T13:30:13Z</time>
      </trkpt>
      <trkpt lat="44.79649" lon="6.99832">
        <ele>2437</ele>
        <time>2022-02-25T13:30:14Z</time>
      </trkpt>
      <trkpt lat="44.79649" lon="6.99832">
        <ele>2437</ele>
        <time>2022-02-25T13:30:15Z</time>
      </trkpt>
      <trkpt lat="44.79649" lon="6.99832">
        <ele>2437</ele>
        <time>2022-02-25T13:30:16Z</time>
      </trkpt>
      <trkpt lat="44.79649" lon="6.99832">
        <ele>2437</ele>
        <time>2022-02-25T13:30:17Z</time>
      </trkpt>
      <trkpt lat="44.79649" lon="6.99832">
        <ele>2437</ele>
        <time>2022-02-25T13:30:18Z</time>
      </trkpt>
      <trkpt lat="44.79649" lon="6.99832">
        <ele>2437</ele>
        <time>2022-02-25T13:30:19Z</time>
      </trkpt>
      <trkpt lat="44.79649" lon="6.99832">
        <ele>2437</ele>
        <time>2022-02-25T13:30:20Z</time>
      </trkpt>
      <trkpt lat="44.79649" lon="6.99832">
        <ele>2437</ele>
        <time>2022-02-25T13:30:21Z</time>
      </trkpt>
      <trkpt lat="44.79649" lon="6.99832">
        <ele>2437</ele>
        <time>2022-02-25T13:30:22Z</time>
      </trkpt>
      <trkpt lat="44.79649" lon="6.99831">
        <ele>2436.8</ele>
        <time>2022-02-25T13:30:23Z</time>
      </trkpt>
      <trkpt lat="44.79649" lon="6.99831">
        <ele>2436.8</ele>
        <time>2022-02-25T13:30:24Z</time>
      </trkpt>
      <trkpt lat="44.79649" lon="6.99831">
        <ele>2436.8</ele>
        <time>2022-02-25T13:30:25Z</time>
      </trkpt>
      <trkpt lat="44.79649" lon="6.99831">
        <ele>2436.8</ele>
        <time>2022-02-25T13:30:26Z</time>
      </trkpt>
      <trkpt lat="44.79649" lon="6.99831">
        <ele>2436.8</ele>
        <time>2022-02-25T13:30:27Z</time>
      </trkpt>
      <trkpt lat="44.79649" lon="6.99831">
        <ele>2436.8</ele>
        <time>2022-02-25T13:30:28Z</time>
      </trkpt>
      <trkpt lat="44.79649" lon="6.99831">
        <ele>2436.8</ele>
        <time>2022-02-25T13:30:29Z</time>
      </trkpt>
      <trkpt lat="44.79649" lon="6.99831">
        <ele>2436.8</ele>
        <time>2022-02-25T13:30:30Z</time>
      </trkpt>
      <trkpt lat="44.79647" lon="6.99829">
        <ele>2436.5</ele>
        <time>2022-02-25T13:30:31Z</time>
      </trkpt>
      <trkpt lat="44.79647" lon="6.99829">
        <ele>2436.5</ele>
        <time>2022-02-25T13:30:32Z</time>
      </trkpt>
      <trkpt lat="44.79647" lon="6.99829">
        <ele>2436.5</ele>
        <time>2022-02-25T13:30:33Z</time>
      </trkpt>
      <trkpt lat="44.79647" lon="6.99829">
        <ele>2436.5</ele>
        <time>2022-02-25T13:30:34Z</time>
      </trkpt>
      <trkpt lat="44.79647" lon="6.99829">
        <ele>2436.5</ele>
        <time>2022-02-25T13:30:35Z</time>
      </trkpt>
      <trkpt lat="44.79647" lon="6.99829">
        <ele>2436.5</ele>
        <time>2022-02-25T13:30:36Z</time>
      </trkpt>
      <trkpt lat="44.79647" lon="6.99829">
        <ele>2436.5</ele>
        <time>2022-02-25T13:30:37Z</time>
      </trkpt>
      <trkpt lat="44.79645" lon="6.99828">
        <ele>2436.4</ele>
        <time>2022-02-25T13:30:38Z</time>
      </trkpt>
      <trkpt lat="44.79645" lon="6.99828">
        <ele>2436.4</ele>
        <time>2022-02-25T13:30:39Z</time>
      </trkpt>
      <trkpt lat="44.79645" lon="6.99828">
        <ele>2436.4</ele>
        <time>2022-02-25T13:30:40Z</time>
      </trkpt>
      <trkpt lat="44.79645" lon="6.99828">
        <ele>2436.4</ele>
        <time>2022-02-25T13:30:41Z</time>
      </trkpt>
      <trkpt lat="44.79645" lon="6.99828">
        <ele>2436.4</ele>
        <time>2022-02-25T13:30:42Z</time>
      </trkpt>
      <trkpt lat="44.79645" lon="6.99828">
        <ele>2436.4</ele>
        <time>2022-02-25T13:30:43Z</time>
      </trkpt>
      <trkpt lat="44.79645" lon="6.99828">
        <ele>2436.4</ele>
        <time>2022-02-25T13:30:44Z</time>
      </trkpt>
      <trkpt lat="44.79645" lon="6.99828">
        <ele>2436.4</ele>
        <time>2022-02-25T13:30:45Z</time>
      </trkpt>
      <trkpt lat="44.79645" lon="6.99828">
        <ele>2436.4</ele>
        <time>2022-02-25T13:30:46Z</time>
      </trkpt>
      <trkpt lat="44.79645" lon="6.99828">
        <ele>2436.4</ele>
        <time>2022-02-25T13:30:47Z</time>
      </trkpt>
      <trkpt lat="44.79645" lon="6.99828">
        <ele>2436.4</ele>
        <time>2022-02-25T13:30:48Z</time>
      </trkpt>
      <trkpt lat="44.79645" lon="6.99828">
        <ele>2436.4</ele>
        <time>2022-02-25T13:30:49Z</time>
      </trkpt>
      <trkpt lat="44.79645" lon="6.99828">
        <ele>2436.4</ele>
        <time>2022-02-25T13:30:50Z</time>
      </trkpt>
      <trkpt lat="44.79645" lon="6.99828">
        <ele>2436.4</ele>
        <time>2022-02-25T13:30:51Z</time>
      </trkpt>
      <trkpt lat="44.79645" lon="6.99828">
        <ele>2436.4</ele>
        <time>2022-02-25T13:30:52Z</time>
      </trkpt>
      <trkpt lat="44.79645" lon="6.99828">
        <ele>2436.4</ele>
        <time>2022-02-25T13:30:53Z</time>
      </trkpt>
      <trkpt lat="44.79645" lon="6.99828">
        <ele>2436.4</ele>
        <time>2022-02-25T13:30:54Z</time>
      </trkpt>
      <trkpt lat="44.79645" lon="6.99828">
        <ele>2436.4</ele>
        <time>2022-02-25T13:30:55Z</time>
      </trkpt>
      <trkpt lat="44.79645" lon="6.99828">
        <ele>2436.4</ele>
        <time>2022-02-25T13:30:56Z</time>
      </trkpt>
      <trkpt lat="44.79645" lon="6.99828">
        <ele>2436.4</ele>
        <time>2022-02-25T13:30:57Z</time>
      </trkpt>
      <trkpt lat="44.79645" lon="6.99828">
        <ele>2436.4</ele>
        <time>2022-02-25T13:30:58Z</time>
      </trkpt>
      <trkpt lat="44.79645" lon="6.99828">
        <ele>2436.4</ele>
        <time>2022-02-25T13:30:59Z</time>
      </trkpt>
      <trkpt lat="44.79645" lon="6.99828">
        <ele>2436.4</ele>
        <time>2022-02-25T13:31:00Z</time>
      </trkpt>
      <trkpt lat="44.79645" lon="6.99828">
        <ele>2436.4</ele>
        <time>2022-02-25T13:31:01Z</time>
      </trkpt>
      <trkpt lat="44.79645" lon="6.99828">
        <ele>2436.4</ele>
        <time>2022-02-25T13:31:02Z</time>
      </trkpt>
      <trkpt lat="44.79645" lon="6.99828">
        <ele>2436.4</ele>
        <time>2022-02-25T13:31:03Z</time>
      </trkpt>
      <trkpt lat="44.79645" lon="6.99824">
        <ele>2435.5</ele>
        <time>2022-02-25T13:31:04Z</time>
      </trkpt>
      <trkpt lat="44.79643" lon="6.99821">
        <ele>2435</ele>
        <time>2022-02-25T13:31:05Z</time>
      </trkpt>
      <trkpt lat="44.79643" lon="6.99818">
        <ele>2434.4</ele>
        <time>2022-02-25T13:31:06Z</time>
      </trkpt>
      <trkpt lat="44.79643" lon="6.99818">
        <ele>2434.4</ele>
        <time>2022-02-25T13:31:07Z</time>
      </trkpt>
      <trkpt lat="44.79643" lon="6.99818">
        <ele>2434.4</ele>
        <time>2022-02-25T13:31:08Z</time>
      </trkpt>
      <trkpt lat="44.79643" lon="6.99815">
        <ele>2433.7</ele>
        <time>2022-02-25T13:31:09Z</time>
      </trkpt>
      <trkpt lat="44.79643" lon="6.99815">
        <ele>2433.7</ele>
        <time>2022-02-25T13:31:10Z</time>
      </trkpt>
      <trkpt lat="44.79643" lon="6.99815">
        <ele>2433.7</ele>
        <time>2022-02-25T13:31:11Z</time>
      </trkpt>
      <trkpt lat="44.79643" lon="6.99815">
        <ele>2433.7</ele>
        <time>2022-02-25T13:31:12Z</time>
      </trkpt>
      <trkpt lat="44.79644" lon="6.99813">
        <ele>2433.2</ele>
        <time>2022-02-25T13:31:13Z</time>
      </trkpt>
      <trkpt lat="44.79644" lon="6.99813">
        <ele>2433.2</ele>
        <time>2022-02-25T13:31:14Z</time>
      </trkpt>
      <trkpt lat="44.79647" lon="6.99809">
        <ele>2432.2</ele>
        <time>2022-02-25T13:31:15Z</time>
      </trkpt>
      <trkpt lat="44.79649" lon="6.99807">
        <ele>2431.6</ele>
        <time>2022-02-25T13:31:16Z</time>
      </trkpt>
      <trkpt lat="44.7965" lon="6.99804">
        <ele>2430.9</ele>
        <time>2022-02-25T13:31:17Z</time>
      </trkpt>
      <trkpt lat="44.79649" lon="6.99801">
        <ele>2430.4</ele>
        <time>2022-02-25T13:31:18Z</time>
      </trkpt>
      <trkpt lat="44.79649" lon="6.99797">
        <ele>2429.6</ele>
        <time>2022-02-25T13:31:19Z</time>
      </trkpt>
      <trkpt lat="44.7965" lon="6.99793">
        <ele>2428.8</ele>
        <time>2022-02-25T13:31:20Z</time>
      </trkpt>
      <trkpt lat="44.79651" lon="6.9979">
        <ele>2428.1</ele>
        <time>2022-02-25T13:31:21Z</time>
      </trkpt>
      <trkpt lat="44.79653" lon="6.99787">
        <ele>2427.3</ele>
        <time>2022-02-25T13:31:22Z</time>
      </trkpt>
      <trkpt lat="44.79655" lon="6.99783">
        <ele>2426.3</ele>
        <time>2022-02-25T13:31:23Z</time>
      </trkpt>
      <trkpt lat="44.79656" lon="6.9978">
        <ele>2425.6</ele>
        <time>2022-02-25T13:31:24Z</time>
      </trkpt>
      <trkpt lat="44.79654" lon="6.99776">
        <ele>2425.2</ele>
        <time>2022-02-25T13:31:25Z</time>
      </trkpt>
      <trkpt lat="44.79653" lon="6.99771">
        <ele>2424.7</ele>
        <time>2022-02-25T13:31:26Z</time>
      </trkpt>
      <trkpt lat="44.79653" lon="6.99767">
        <ele>2424.3</ele>
        <time>2022-02-25T13:31:27Z</time>
      </trkpt>
      <trkpt lat="44.79655" lon="6.99763">
        <ele>2423.7</ele>
        <time>2022-02-25T13:31:28Z</time>
      </trkpt>
      <trkpt lat="44.79657" lon="6.99758">
        <ele>2423.1</ele>
        <time>2022-02-25T13:31:29Z</time>
      </trkpt>
      <trkpt lat="44.79659" lon="6.99752">
        <ele>2422.5</ele>
        <time>2022-02-25T13:31:30Z</time>
      </trkpt>
      <trkpt lat="44.79661" lon="6.99748">
        <ele>2421.9</ele>
        <time>2022-02-25T13:31:31Z</time>
      </trkpt>
      <trkpt lat="44.7966" lon="6.99744">
        <ele>2421.4</ele>
        <time>2022-02-25T13:31:32Z</time>
      </trkpt>
      <trkpt lat="44.79659" lon="6.99742">
        <ele>2421.2</ele>
        <time>2022-02-25T13:31:33Z</time>
      </trkpt>
      <trkpt lat="44.79659" lon="6.99742">
        <ele>2421.2</ele>
        <time>2022-02-25T13:31:34Z</time>
      </trkpt>
      <trkpt lat="44.79657" lon="6.99739">
        <ele>2420.9</ele>
        <time>2022-02-25T13:31:35Z</time>
      </trkpt>
      <trkpt lat="44.79657" lon="6.99739">
        <ele>2420.9</ele>
        <time>2022-02-25T13:31:36Z</time>
      </trkpt>
      <trkpt lat="44.79655" lon="6.99738">
        <ele>2420.9</ele>
        <time>2022-02-25T13:31:37Z</time>
      </trkpt>
      <trkpt lat="44.79655" lon="6.99738">
        <ele>2420.9</ele>
        <time>2022-02-25T13:31:38Z</time>
      </trkpt>
      <trkpt lat="44.79655" lon="6.99738">
        <ele>2420.9</ele>
        <time>2022-02-25T13:31:39Z</time>
      </trkpt>
      <trkpt lat="44.79655" lon="6.99738">
        <ele>2420.9</ele>
        <time>2022-02-25T13:31:40Z</time>
      </trkpt>
      <trkpt lat="44.79655" lon="6.99738">
        <ele>2420.9</ele>
        <time>2022-02-25T13:31:41Z</time>
      </trkpt>
      <trkpt lat="44.79655" lon="6.99738">
        <ele>2420.9</ele>
        <time>2022-02-25T13:31:42Z</time>
      </trkpt>
      <trkpt lat="44.79655" lon="6.99738">
        <ele>2420.9</ele>
        <time>2022-02-25T13:31:43Z</time>
      </trkpt>
      <trkpt lat="44.79653" lon="6.99736">
        <ele>2420.7</ele>
        <time>2022-02-25T13:31:44Z</time>
      </trkpt>
      <trkpt lat="44.79653" lon="6.99736">
        <ele>2420.7</ele>
        <time>2022-02-25T13:31:45Z</time>
      </trkpt>
      <trkpt lat="44.79653" lon="6.99736">
        <ele>2420.7</ele>
        <time>2022-02-25T13:31:46Z</time>
      </trkpt>
      <trkpt lat="44.7965" lon="6.99735">
        <ele>2420.8</ele>
        <time>2022-02-25T13:31:47Z</time>
      </trkpt>
      <trkpt lat="44.79648" lon="6.99734">
        <ele>2420.8</ele>
        <time>2022-02-25T13:31:48Z</time>
      </trkpt>
      <trkpt lat="44.79648" lon="6.99734">
        <ele>2420.8</ele>
        <time>2022-02-25T13:31:49Z</time>
      </trkpt>
      <trkpt lat="44.79644" lon="6.99732">
        <ele>2420.8</ele>
        <time>2022-02-25T13:31:50Z</time>
      </trkpt>
      <trkpt lat="44.79643" lon="6.99731">
        <ele>2420.7</ele>
        <time>2022-02-25T13:31:51Z</time>
      </trkpt>
      <trkpt lat="44.79641" lon="6.99731">
        <ele>2420.8</ele>
        <time>2022-02-25T13:31:52Z</time>
      </trkpt>
      <trkpt lat="44.79639" lon="6.99731">
        <ele>2420.9</ele>
        <time>2022-02-25T13:31:53Z</time>
      </trkpt>
      <trkpt lat="44.79637" lon="6.9973">
        <ele>2420.8</ele>
        <time>2022-02-25T13:31:54Z</time>
      </trkpt>
      <trkpt lat="44.79635" lon="6.99729">
        <ele>2420.6</ele>
        <time>2022-02-25T13:31:55Z</time>
      </trkpt>
      <trkpt lat="44.79633" lon="6.99728">
        <ele>2420.5</ele>
        <time>2022-02-25T13:31:56Z</time>
      </trkpt>
      <trkpt lat="44.79631" lon="6.99727">
        <ele>2420.3</ele>
        <time>2022-02-25T13:31:57Z</time>
      </trkpt>
      <trkpt lat="44.79631" lon="6.99727">
        <ele>2420.3</ele>
        <time>2022-02-25T13:31:58Z</time>
      </trkpt>
      <trkpt lat="44.79627" lon="6.99725">
        <ele>2419.9</ele>
        <time>2022-02-25T13:31:59Z</time>
      </trkpt>
      <trkpt lat="44.79626" lon="6.99723">
        <ele>2419.6</ele>
        <time>2022-02-25T13:32:00Z</time>
      </trkpt>
      <trkpt lat="44.79625" lon="6.99721">
        <ele>2419</ele>
        <time>2022-02-25T13:32:01Z</time>
      </trkpt>
      <trkpt lat="44.79624" lon="6.99719">
        <ele>2418.2</ele>
        <time>2022-02-25T13:32:02Z</time>
      </trkpt>
      <trkpt lat="44.79624" lon="6.99719">
        <ele>2418.2</ele>
        <time>2022-02-25T13:32:03Z</time>
      </trkpt>
      <trkpt lat="44.79621" lon="6.99717">
        <ele>2417.4</ele>
        <time>2022-02-25T13:32:04Z</time>
      </trkpt>
      <trkpt lat="44.79621" lon="6.99717">
        <ele>2417.4</ele>
        <time>2022-02-25T13:32:05Z</time>
      </trkpt>
      <trkpt lat="44.79621" lon="6.99717">
        <ele>2417.4</ele>
        <time>2022-02-25T13:32:06Z</time>
      </trkpt>
      <trkpt lat="44.79621" lon="6.99717">
        <ele>2417.4</ele>
        <time>2022-02-25T13:32:07Z</time>
      </trkpt>
      <trkpt lat="44.79621" lon="6.99717">
        <ele>2417.4</ele>
        <time>2022-02-25T13:32:08Z</time>
      </trkpt>
      <trkpt lat="44.79621" lon="6.99717">
        <ele>2417.4</ele>
        <time>2022-02-25T13:32:09Z</time>
      </trkpt>
      <trkpt lat="44.79621" lon="6.99717">
        <ele>2417.4</ele>
        <time>2022-02-25T13:32:10Z</time>
      </trkpt>
      <trkpt lat="44.79621" lon="6.99717">
        <ele>2417.4</ele>
        <time>2022-02-25T13:32:11Z</time>
      </trkpt>
      <trkpt lat="44.79621" lon="6.99717">
        <ele>2417.4</ele>
        <time>2022-02-25T13:32:12Z</time>
      </trkpt>
      <trkpt lat="44.79621" lon="6.99717">
        <ele>2417.4</ele>
        <time>2022-02-25T13:32:13Z</time>
      </trkpt>
      <trkpt lat="44.79621" lon="6.99717">
        <ele>2417.4</ele>
        <time>2022-02-25T13:32:14Z</time>
      </trkpt>
      <trkpt lat="44.79621" lon="6.99717">
        <ele>2417.4</ele>
        <time>2022-02-25T13:32:15Z</time>
      </trkpt>
      <trkpt lat="44.79621" lon="6.99717">
        <ele>2417.4</ele>
        <time>2022-02-25T13:32:16Z</time>
      </trkpt>
      <trkpt lat="44.79621" lon="6.99717">
        <ele>2417.4</ele>
        <time>2022-02-25T13:32:17Z</time>
      </trkpt>
      <trkpt lat="44.79621" lon="6.99717">
        <ele>2417.4</ele>
        <time>2022-02-25T13:32:18Z</time>
      </trkpt>
      <trkpt lat="44.79621" lon="6.99717">
        <ele>2417.4</ele>
        <time>2022-02-25T13:32:19Z</time>
      </trkpt>
      <trkpt lat="44.79621" lon="6.99717">
        <ele>2417.4</ele>
        <time>2022-02-25T13:32:20Z</time>
      </trkpt>
      <trkpt lat="44.7962" lon="6.99715">
        <ele>2416.5</ele>
        <time>2022-02-25T13:32:21Z</time>
      </trkpt>
      <trkpt lat="44.7962" lon="6.99715">
        <ele>2416.5</ele>
        <time>2022-02-25T13:32:22Z</time>
      </trkpt>
      <trkpt lat="44.7962" lon="6.99715">
        <ele>2416.5</ele>
        <time>2022-02-25T13:32:23Z</time>
      </trkpt>
      <trkpt lat="44.7962" lon="6.99715">
        <ele>2416.5</ele>
        <time>2022-02-25T13:32:24Z</time>
      </trkpt>
      <trkpt lat="44.7962" lon="6.99715">
        <ele>2416.5</ele>
        <time>2022-02-25T13:32:25Z</time>
      </trkpt>
      <trkpt lat="44.79618" lon="6.99713">
        <ele>2415.7</ele>
        <time>2022-02-25T13:32:26Z</time>
      </trkpt>
      <trkpt lat="44.79618" lon="6.99713">
        <ele>2415.7</ele>
        <time>2022-02-25T13:32:27Z</time>
      </trkpt>
      <trkpt lat="44.79615" lon="6.99712">
        <ele>2415.1</ele>
        <time>2022-02-25T13:32:28Z</time>
      </trkpt>
      <trkpt lat="44.79613" lon="6.99711">
        <ele>2414.7</ele>
        <time>2022-02-25T13:32:29Z</time>
      </trkpt>
      <trkpt lat="44.79613" lon="6.99711">
        <ele>2414.7</ele>
        <time>2022-02-25T13:32:30Z</time>
      </trkpt>
      <trkpt lat="44.79614" lon="6.99707">
        <ele>2413.1</ele>
        <time>2022-02-25T13:32:31Z</time>
      </trkpt>
      <trkpt lat="44.79614" lon="6.99707">
        <ele>2413.1</ele>
        <time>2022-02-25T13:32:32Z</time>
      </trkpt>
      <trkpt lat="44.79616" lon="6.99704">
        <ele>2412.1</ele>
        <time>2022-02-25T13:32:33Z</time>
      </trkpt>
      <trkpt lat="44.79616" lon="6.99704">
        <ele>2412.1</ele>
        <time>2022-02-25T13:32:34Z</time>
      </trkpt>
      <trkpt lat="44.79615" lon="6.99701">
        <ele>2410.8</ele>
        <time>2022-02-25T13:32:35Z</time>
      </trkpt>
      <trkpt lat="44.79616" lon="6.99699">
        <ele>2410.1</ele>
        <time>2022-02-25T13:32:36Z</time>
      </trkpt>
      <trkpt lat="44.79617" lon="6.99696">
        <ele>2409</ele>
        <time>2022-02-25T13:32:37Z</time>
      </trkpt>
      <trkpt lat="44.79617" lon="6.99696">
        <ele>2409</ele>
        <time>2022-02-25T13:32:38Z</time>
      </trkpt>
      <trkpt lat="44.79619" lon="6.99693">
        <ele>2408.2</ele>
        <time>2022-02-25T13:32:39Z</time>
      </trkpt>
      <trkpt lat="44.79621" lon="6.9969">
        <ele>2407.6</ele>
        <time>2022-02-25T13:32:40Z</time>
      </trkpt>
      <trkpt lat="44.79619" lon="6.99688">
        <ele>2406.9</ele>
        <time>2022-02-25T13:32:41Z</time>
      </trkpt>
      <trkpt lat="44.79619" lon="6.99685">
        <ele>2406.2</ele>
        <time>2022-02-25T13:32:42Z</time>
      </trkpt>
      <trkpt lat="44.79619" lon="6.99685">
        <ele>2406.2</ele>
        <time>2022-02-25T13:32:43Z</time>
      </trkpt>
      <trkpt lat="44.79621" lon="6.99682">
        <ele>2405.6</ele>
        <time>2022-02-25T13:32:44Z</time>
      </trkpt>
      <trkpt lat="44.79621" lon="6.99682">
        <ele>2405.6</ele>
        <time>2022-02-25T13:32:45Z</time>
      </trkpt>
      <trkpt lat="44.79622" lon="6.99679">
        <ele>2404.9</ele>
        <time>2022-02-25T13:32:46Z</time>
      </trkpt>
      <trkpt lat="44.79622" lon="6.99679">
        <ele>2404.9</ele>
        <time>2022-02-25T13:32:47Z</time>
      </trkpt>
      <trkpt lat="44.79624" lon="6.99675">
        <ele>2404</ele>
        <time>2022-02-25T13:32:48Z</time>
      </trkpt>
      <trkpt lat="44.79625" lon="6.99672">
        <ele>2403.3</ele>
        <time>2022-02-25T13:32:49Z</time>
      </trkpt>
      <trkpt lat="44.79624" lon="6.99668">
        <ele>2402.3</ele>
        <time>2022-02-25T13:32:50Z</time>
      </trkpt>
      <trkpt lat="44.79625" lon="6.99665">
        <ele>2401.6</ele>
        <time>2022-02-25T13:32:51Z</time>
      </trkpt>
      <trkpt lat="44.79627" lon="6.99662">
        <ele>2401.1</ele>
        <time>2022-02-25T13:32:52Z</time>
      </trkpt>
      <trkpt lat="44.79629" lon="6.9966">
        <ele>2400.8</ele>
        <time>2022-02-25T13:32:53Z</time>
      </trkpt>
      <trkpt lat="44.7963" lon="6.99657">
        <ele>2400.2</ele>
        <time>2022-02-25T13:32:54Z</time>
      </trkpt>
      <trkpt lat="44.7963" lon="6.99653">
        <ele>2399.3</ele>
        <time>2022-02-25T13:32:55Z</time>
      </trkpt>
      <trkpt lat="44.79631" lon="6.99648">
        <ele>2398.2</ele>
        <time>2022-02-25T13:32:56Z</time>
      </trkpt>
      <trkpt lat="44.79634" lon="6.99645">
        <ele>2397.8</ele>
        <time>2022-02-25T13:32:57Z</time>
      </trkpt>
      <trkpt lat="44.79636" lon="6.99644">
        <ele>2397.8</ele>
        <time>2022-02-25T13:32:58Z</time>
      </trkpt>
      <trkpt lat="44.79636" lon="6.99644">
        <ele>2397.8</ele>
        <time>2022-02-25T13:32:59Z</time>
      </trkpt>
      <trkpt lat="44.79636" lon="6.99644">
        <ele>2397.8</ele>
        <time>2022-02-25T13:33:00Z</time>
      </trkpt>
      <trkpt lat="44.79638" lon="6.99645">
        <ele>2398.2</ele>
        <time>2022-02-25T13:33:01Z</time>
      </trkpt>
      <trkpt lat="44.79638" lon="6.99645">
        <ele>2398.2</ele>
        <time>2022-02-25T13:33:02Z</time>
      </trkpt>
      <trkpt lat="44.79638" lon="6.99645">
        <ele>2398.2</ele>
        <time>2022-02-25T13:33:03Z</time>
      </trkpt>
      <trkpt lat="44.79638" lon="6.99645">
        <ele>2398.2</ele>
        <time>2022-02-25T13:33:04Z</time>
      </trkpt>
      <trkpt lat="44.79638" lon="6.99645">
        <ele>2398.2</ele>
        <time>2022-02-25T13:33:05Z</time>
      </trkpt>
      <trkpt lat="44.79638" lon="6.99645">
        <ele>2398.2</ele>
        <time>2022-02-25T13:33:06Z</time>
      </trkpt>
      <trkpt lat="44.79638" lon="6.99645">
        <ele>2398.2</ele>
        <time>2022-02-25T13:33:07Z</time>
      </trkpt>
      <trkpt lat="44.79638" lon="6.99645">
        <ele>2398.2</ele>
        <time>2022-02-25T13:33:08Z</time>
      </trkpt>
      <trkpt lat="44.79638" lon="6.99645">
        <ele>2398.2</ele>
        <time>2022-02-25T13:33:09Z</time>
      </trkpt>
      <trkpt lat="44.79638" lon="6.99645">
        <ele>2398.2</ele>
        <time>2022-02-25T13:33:10Z</time>
      </trkpt>
      <trkpt lat="44.79638" lon="6.99645">
        <ele>2398.2</ele>
        <time>2022-02-25T13:33:11Z</time>
      </trkpt>
      <trkpt lat="44.79638" lon="6.99645">
        <ele>2398.2</ele>
        <time>2022-02-25T13:33:12Z</time>
      </trkpt>
      <trkpt lat="44.79638" lon="6.99645">
        <ele>2398.2</ele>
        <time>2022-02-25T13:33:13Z</time>
      </trkpt>
      <trkpt lat="44.79639" lon="6.9964">
        <ele>2397.3</ele>
        <time>2022-02-25T13:33:14Z</time>
      </trkpt>
      <trkpt lat="44.79639" lon="6.99637">
        <ele>2396.7</ele>
        <time>2022-02-25T13:33:15Z</time>
      </trkpt>
      <trkpt lat="44.79638" lon="6.99632">
        <ele>2395.7</ele>
        <time>2022-02-25T13:33:16Z</time>
      </trkpt>
      <trkpt lat="44.79639" lon="6.99627">
        <ele>2394.9</ele>
        <time>2022-02-25T13:33:17Z</time>
      </trkpt>
      <trkpt lat="44.7964" lon="6.99623">
        <ele>2394.2</ele>
        <time>2022-02-25T13:33:18Z</time>
      </trkpt>
      <trkpt lat="44.7964" lon="6.99619">
        <ele>2393.5</ele>
        <time>2022-02-25T13:33:19Z</time>
      </trkpt>
      <trkpt lat="44.79641" lon="6.99615">
        <ele>2392.9</ele>
        <time>2022-02-25T13:33:20Z</time>
      </trkpt>
      <trkpt lat="44.79643" lon="6.99611">
        <ele>2392.3</ele>
        <time>2022-02-25T13:33:21Z</time>
      </trkpt>
      <trkpt lat="44.79645" lon="6.99607">
        <ele>2391.6</ele>
        <time>2022-02-25T13:33:22Z</time>
      </trkpt>
      <trkpt lat="44.79647" lon="6.99603">
        <ele>2390.8</ele>
        <time>2022-02-25T13:33:23Z</time>
      </trkpt>
      <trkpt lat="44.79647" lon="6.99598">
        <ele>2389.7</ele>
        <time>2022-02-25T13:33:24Z</time>
      </trkpt>
      <trkpt lat="44.79648" lon="6.99593">
        <ele>2388.5</ele>
        <time>2022-02-25T13:33:25Z</time>
      </trkpt>
      <trkpt lat="44.7965" lon="6.99589">
        <ele>2387.5</ele>
        <time>2022-02-25T13:33:26Z</time>
      </trkpt>
      <trkpt lat="44.79652" lon="6.99586">
        <ele>2386.7</ele>
        <time>2022-02-25T13:33:27Z</time>
      </trkpt>
      <trkpt lat="44.79653" lon="6.99583">
        <ele>2385.9</ele>
        <time>2022-02-25T13:33:28Z</time>
      </trkpt>
      <trkpt lat="44.79653" lon="6.9958">
        <ele>2385.4</ele>
        <time>2022-02-25T13:33:29Z</time>
      </trkpt>
      <trkpt lat="44.79652" lon="6.99577">
        <ele>2384.9</ele>
        <time>2022-02-25T13:33:30Z</time>
      </trkpt>
      <trkpt lat="44.79652" lon="6.99574">
        <ele>2384.4</ele>
        <time>2022-02-25T13:33:31Z</time>
      </trkpt>
      <trkpt lat="44.79652" lon="6.99574">
        <ele>2384.4</ele>
        <time>2022-02-25T13:33:32Z</time>
      </trkpt>
      <trkpt lat="44.79652" lon="6.99571">
        <ele>2383.9</ele>
        <time>2022-02-25T13:33:33Z</time>
      </trkpt>
      <trkpt lat="44.79652" lon="6.99571">
        <ele>2383.9</ele>
        <time>2022-02-25T13:33:34Z</time>
      </trkpt>
      <trkpt lat="44.79652" lon="6.99571">
        <ele>2383.9</ele>
        <time>2022-02-25T13:33:35Z</time>
      </trkpt>
      <trkpt lat="44.79652" lon="6.99571">
        <ele>2383.9</ele>
        <time>2022-02-25T13:33:36Z</time>
      </trkpt>
      <trkpt lat="44.79652" lon="6.99571">
        <ele>2383.9</ele>
        <time>2022-02-25T13:33:37Z</time>
      </trkpt>
      <trkpt lat="44.79652" lon="6.99571">
        <ele>2383.9</ele>
        <time>2022-02-25T13:33:38Z</time>
      </trkpt>
      <trkpt lat="44.79652" lon="6.99571">
        <ele>2383.9</ele>
        <time>2022-02-25T13:33:39Z</time>
      </trkpt>
      <trkpt lat="44.79652" lon="6.99571">
        <ele>2383.9</ele>
        <time>2022-02-25T13:33:40Z</time>
      </trkpt>
      <trkpt lat="44.79652" lon="6.99571">
        <ele>2383.9</ele>
        <time>2022-02-25T13:33:41Z</time>
      </trkpt>
      <trkpt lat="44.79652" lon="6.99571">
        <ele>2383.9</ele>
        <time>2022-02-25T13:33:42Z</time>
      </trkpt>
      <trkpt lat="44.79652" lon="6.99571">
        <ele>2383.9</ele>
        <time>2022-02-25T13:33:43Z</time>
      </trkpt>
      <trkpt lat="44.79652" lon="6.99571">
        <ele>2383.9</ele>
        <time>2022-02-25T13:33:44Z</time>
      </trkpt>
      <trkpt lat="44.79652" lon="6.99571">
        <ele>2383.9</ele>
        <time>2022-02-25T13:33:45Z</time>
      </trkpt>
      <trkpt lat="44.79652" lon="6.99571">
        <ele>2383.9</ele>
        <time>2022-02-25T13:33:46Z</time>
      </trkpt>
      <trkpt lat="44.79652" lon="6.99571">
        <ele>2383.9</ele>
        <time>2022-02-25T13:33:47Z</time>
      </trkpt>
      <trkpt lat="44.79652" lon="6.99571">
        <ele>2383.9</ele>
        <time>2022-02-25T13:33:48Z</time>
      </trkpt>
      <trkpt lat="44.79652" lon="6.99571">
        <ele>2383.9</ele>
        <time>2022-02-25T13:33:49Z</time>
      </trkpt>
      <trkpt lat="44.79652" lon="6.99571">
        <ele>2383.9</ele>
        <time>2022-02-25T13:33:50Z</time>
      </trkpt>
      <trkpt lat="44.79652" lon="6.99571">
        <ele>2383.9</ele>
        <time>2022-02-25T13:33:51Z</time>
      </trkpt>
      <trkpt lat="44.79652" lon="6.99571">
        <ele>2383.9</ele>
        <time>2022-02-25T13:33:52Z</time>
      </trkpt>
      <trkpt lat="44.79652" lon="6.99571">
        <ele>2383.9</ele>
        <time>2022-02-25T13:33:53Z</time>
      </trkpt>
      <trkpt lat="44.79652" lon="6.99571">
        <ele>2383.9</ele>
        <time>2022-02-25T13:33:54Z</time>
      </trkpt>
      <trkpt lat="44.79652" lon="6.99571">
        <ele>2383.9</ele>
        <time>2022-02-25T13:33:55Z</time>
      </trkpt>
      <trkpt lat="44.79652" lon="6.99571">
        <ele>2383.9</ele>
        <time>2022-02-25T13:33:56Z</time>
      </trkpt>
      <trkpt lat="44.79652" lon="6.99571">
        <ele>2383.9</ele>
        <time>2022-02-25T13:33:57Z</time>
      </trkpt>
      <trkpt lat="44.79652" lon="6.99571">
        <ele>2383.9</ele>
        <time>2022-02-25T13:33:58Z</time>
      </trkpt>
      <trkpt lat="44.79653" lon="6.99567">
        <ele>2383</ele>
        <time>2022-02-25T13:33:59Z</time>
      </trkpt>
      <trkpt lat="44.79652" lon="6.99563">
        <ele>2382.4</ele>
        <time>2022-02-25T13:34:00Z</time>
      </trkpt>
      <trkpt lat="44.79652" lon="6.99559">
        <ele>2381.7</ele>
        <time>2022-02-25T13:34:01Z</time>
      </trkpt>
      <trkpt lat="44.79653" lon="6.99554">
        <ele>2380.7</ele>
        <time>2022-02-25T13:34:02Z</time>
      </trkpt>
      <trkpt lat="44.79652" lon="6.9955">
        <ele>2380.1</ele>
        <time>2022-02-25T13:34:03Z</time>
      </trkpt>
      <trkpt lat="44.79652" lon="6.9955">
        <ele>2380.1</ele>
        <time>2022-02-25T13:34:04Z</time>
      </trkpt>
      <trkpt lat="44.79651" lon="6.99547">
        <ele>2379.7</ele>
        <time>2022-02-25T13:34:05Z</time>
      </trkpt>
      <trkpt lat="44.79651" lon="6.99547">
        <ele>2379.7</ele>
        <time>2022-02-25T13:34:06Z</time>
      </trkpt>
      <trkpt lat="44.79651" lon="6.99547">
        <ele>2379.7</ele>
        <time>2022-02-25T13:34:07Z</time>
      </trkpt>
      <trkpt lat="44.79651" lon="6.99547">
        <ele>2379.7</ele>
        <time>2022-02-25T13:34:08Z</time>
      </trkpt>
      <trkpt lat="44.79651" lon="6.99547">
        <ele>2379.7</ele>
        <time>2022-02-25T13:34:09Z</time>
      </trkpt>
      <trkpt lat="44.79651" lon="6.99547">
        <ele>2379.7</ele>
        <time>2022-02-25T13:34:10Z</time>
      </trkpt>
      <trkpt lat="44.79651" lon="6.99547">
        <ele>2379.7</ele>
        <time>2022-02-25T13:34:11Z</time>
      </trkpt>
      <trkpt lat="44.79651" lon="6.99547">
        <ele>2379.7</ele>
        <time>2022-02-25T13:34:12Z</time>
      </trkpt>
      <trkpt lat="44.79651" lon="6.99547">
        <ele>2379.7</ele>
        <time>2022-02-25T13:34:13Z</time>
      </trkpt>
      <trkpt lat="44.79651" lon="6.99547">
        <ele>2379.7</ele>
        <time>2022-02-25T13:34:14Z</time>
      </trkpt>
      <trkpt lat="44.79651" lon="6.99547">
        <ele>2379.7</ele>
        <time>2022-02-25T13:34:15Z</time>
      </trkpt>
      <trkpt lat="44.79651" lon="6.99547">
        <ele>2379.7</ele>
        <time>2022-02-25T13:34:16Z</time>
      </trkpt>
      <trkpt lat="44.79651" lon="6.99547">
        <ele>2379.7</ele>
        <time>2022-02-25T13:34:17Z</time>
      </trkpt>
      <trkpt lat="44.79651" lon="6.99547">
        <ele>2379.7</ele>
        <time>2022-02-25T13:34:18Z</time>
      </trkpt>
      <trkpt lat="44.79651" lon="6.99547">
        <ele>2379.7</ele>
        <time>2022-02-25T13:34:19Z</time>
      </trkpt>
      <trkpt lat="44.79651" lon="6.99547">
        <ele>2379.7</ele>
        <time>2022-02-25T13:34:20Z</time>
      </trkpt>
      <trkpt lat="44.79651" lon="6.99547">
        <ele>2379.7</ele>
        <time>2022-02-25T13:34:21Z</time>
      </trkpt>
      <trkpt lat="44.79651" lon="6.99547">
        <ele>2379.7</ele>
        <time>2022-02-25T13:34:22Z</time>
      </trkpt>
      <trkpt lat="44.79651" lon="6.99547">
        <ele>2379.7</ele>
        <time>2022-02-25T13:34:23Z</time>
      </trkpt>
      <trkpt lat="44.79651" lon="6.99547">
        <ele>2379.7</ele>
        <time>2022-02-25T13:34:24Z</time>
      </trkpt>
      <trkpt lat="44.79651" lon="6.99547">
        <ele>2379.7</ele>
        <time>2022-02-25T13:34:25Z</time>
      </trkpt>
      <trkpt lat="44.79651" lon="6.99547">
        <ele>2379.7</ele>
        <time>2022-02-25T13:34:26Z</time>
      </trkpt>
      <trkpt lat="44.79651" lon="6.99547">
        <ele>2379.7</ele>
        <time>2022-02-25T13:34:27Z</time>
      </trkpt>
      <trkpt lat="44.79651" lon="6.99547">
        <ele>2379.7</ele>
        <time>2022-02-25T13:34:28Z</time>
      </trkpt>
      <trkpt lat="44.79651" lon="6.99547">
        <ele>2379.7</ele>
        <time>2022-02-25T13:34:29Z</time>
      </trkpt>
      <trkpt lat="44.79651" lon="6.99547">
        <ele>2379.7</ele>
        <time>2022-02-25T13:34:30Z</time>
      </trkpt>
      <trkpt lat="44.7965" lon="6.99545">
        <ele>2379.5</ele>
        <time>2022-02-25T13:34:31Z</time>
      </trkpt>
      <trkpt lat="44.79647" lon="6.99544">
        <ele>2379.8</ele>
        <time>2022-02-25T13:34:32Z</time>
      </trkpt>
      <trkpt lat="44.79645" lon="6.99542">
        <ele>2379.7</ele>
        <time>2022-02-25T13:34:33Z</time>
      </trkpt>
      <trkpt lat="44.79645" lon="6.99539">
        <ele>2379.1</ele>
        <time>2022-02-25T13:34:34Z</time>
      </trkpt>
      <trkpt lat="44.79645" lon="6.99535">
        <ele>2378.4</ele>
        <time>2022-02-25T13:34:35Z</time>
      </trkpt>
      <trkpt lat="44.79644" lon="6.99531">
        <ele>2377.8</ele>
        <time>2022-02-25T13:34:36Z</time>
      </trkpt>
      <trkpt lat="44.79644" lon="6.99527">
        <ele>2377.1</ele>
        <time>2022-02-25T13:34:37Z</time>
      </trkpt>
      <trkpt lat="44.79644" lon="6.99523">
        <ele>2376.4</ele>
        <time>2022-02-25T13:34:38Z</time>
      </trkpt>
      <trkpt lat="44.79645" lon="6.99518">
        <ele>2375.4</ele>
        <time>2022-02-25T13:34:39Z</time>
      </trkpt>
      <trkpt lat="44.79645" lon="6.99514">
        <ele>2374.7</ele>
        <time>2022-02-25T13:34:40Z</time>
      </trkpt>
      <trkpt lat="44.79645" lon="6.9951">
        <ele>2374.1</ele>
        <time>2022-02-25T13:34:41Z</time>
      </trkpt>
      <trkpt lat="44.79645" lon="6.99504">
        <ele>2373</ele>
        <time>2022-02-25T13:34:42Z</time>
      </trkpt>
      <trkpt lat="44.79647" lon="6.995">
        <ele>2372.1</ele>
        <time>2022-02-25T13:34:43Z</time>
      </trkpt>
      <trkpt lat="44.79648" lon="6.99495">
        <ele>2371.4</ele>
        <time>2022-02-25T13:34:44Z</time>
      </trkpt>
      <trkpt lat="44.79647" lon="6.99491">
        <ele>2370.9</ele>
        <time>2022-02-25T13:34:45Z</time>
      </trkpt>
      <trkpt lat="44.79645" lon="6.99487">
        <ele>2370.6</ele>
        <time>2022-02-25T13:34:46Z</time>
      </trkpt>
      <trkpt lat="44.79643" lon="6.99486">
        <ele>2370.6</ele>
        <time>2022-02-25T13:34:47Z</time>
      </trkpt>
      <trkpt lat="44.79643" lon="6.99486">
        <ele>2370.6</ele>
        <time>2022-02-25T13:34:48Z</time>
      </trkpt>
      <trkpt lat="44.79641" lon="6.99487">
        <ele>2370.9</ele>
        <time>2022-02-25T13:34:49Z</time>
      </trkpt>
      <trkpt lat="44.79641" lon="6.99487">
        <ele>2370.9</ele>
        <time>2022-02-25T13:34:50Z</time>
      </trkpt>
      <trkpt lat="44.79641" lon="6.99487">
        <ele>2370.9</ele>
        <time>2022-02-25T13:34:51Z</time>
      </trkpt>
      <trkpt lat="44.79641" lon="6.99487">
        <ele>2370.9</ele>
        <time>2022-02-25T13:34:52Z</time>
      </trkpt>
      <trkpt lat="44.79641" lon="6.99487">
        <ele>2370.9</ele>
        <time>2022-02-25T13:34:53Z</time>
      </trkpt>
      <trkpt lat="44.79641" lon="6.99487">
        <ele>2370.9</ele>
        <time>2022-02-25T13:34:54Z</time>
      </trkpt>
      <trkpt lat="44.79641" lon="6.99487">
        <ele>2370.9</ele>
        <time>2022-02-25T13:34:55Z</time>
      </trkpt>
      <trkpt lat="44.79641" lon="6.99487">
        <ele>2370.9</ele>
        <time>2022-02-25T13:34:56Z</time>
      </trkpt>
      <trkpt lat="44.79641" lon="6.99487">
        <ele>2370.9</ele>
        <time>2022-02-25T13:34:57Z</time>
      </trkpt>
      <trkpt lat="44.79641" lon="6.99487">
        <ele>2370.9</ele>
        <time>2022-02-25T13:34:58Z</time>
      </trkpt>
      <trkpt lat="44.79641" lon="6.99487">
        <ele>2370.9</ele>
        <time>2022-02-25T13:34:59Z</time>
      </trkpt>
      <trkpt lat="44.79641" lon="6.99487">
        <ele>2370.9</ele>
        <time>2022-02-25T13:35:00Z</time>
      </trkpt>
      <trkpt lat="44.79641" lon="6.99487">
        <ele>2370.9</ele>
        <time>2022-02-25T13:35:01Z</time>
      </trkpt>
      <trkpt lat="44.79641" lon="6.99487">
        <ele>2370.9</ele>
        <time>2022-02-25T13:35:02Z</time>
      </trkpt>
      <trkpt lat="44.79641" lon="6.99487">
        <ele>2370.9</ele>
        <time>2022-02-25T13:35:03Z</time>
      </trkpt>
      <trkpt lat="44.79641" lon="6.99487">
        <ele>2370.9</ele>
        <time>2022-02-25T13:35:04Z</time>
      </trkpt>
      <trkpt lat="44.79641" lon="6.99487">
        <ele>2370.9</ele>
        <time>2022-02-25T13:35:05Z</time>
      </trkpt>
      <trkpt lat="44.79641" lon="6.99487">
        <ele>2370.9</ele>
        <time>2022-02-25T13:35:06Z</time>
      </trkpt>
      <trkpt lat="44.79641" lon="6.99487">
        <ele>2370.9</ele>
        <time>2022-02-25T13:35:07Z</time>
      </trkpt>
      <trkpt lat="44.79641" lon="6.99487">
        <ele>2370.9</ele>
        <time>2022-02-25T13:35:08Z</time>
      </trkpt>
      <trkpt lat="44.79641" lon="6.99487">
        <ele>2370.9</ele>
        <time>2022-02-25T13:35:09Z</time>
      </trkpt>
      <trkpt lat="44.79641" lon="6.99487">
        <ele>2370.9</ele>
        <time>2022-02-25T13:35:10Z</time>
      </trkpt>
      <trkpt lat="44.79641" lon="6.99484">
        <ele>2370.5</ele>
        <time>2022-02-25T13:35:11Z</time>
      </trkpt>
      <trkpt lat="44.79641" lon="6.99481">
        <ele>2370.1</ele>
        <time>2022-02-25T13:35:12Z</time>
      </trkpt>
      <trkpt lat="44.79642" lon="6.99478">
        <ele>2369.6</ele>
        <time>2022-02-25T13:35:13Z</time>
      </trkpt>
      <trkpt lat="44.79641" lon="6.99475">
        <ele>2369.2</ele>
        <time>2022-02-25T13:35:14Z</time>
      </trkpt>
      <trkpt lat="44.79639" lon="6.99472">
        <ele>2369</ele>
        <time>2022-02-25T13:35:15Z</time>
      </trkpt>
      <trkpt lat="44.79637" lon="6.99468">
        <ele>2368.1</ele>
        <time>2022-02-25T13:35:16Z</time>
      </trkpt>
      <trkpt lat="44.79639" lon="6.99464">
        <ele>2367.8</ele>
        <time>2022-02-25T13:35:17Z</time>
      </trkpt>
      <trkpt lat="44.7964" lon="6.99461">
        <ele>2367.3</ele>
        <time>2022-02-25T13:35:18Z</time>
      </trkpt>
      <trkpt lat="44.79641" lon="6.99456">
        <ele>2366.5</ele>
        <time>2022-02-25T13:35:19Z</time>
      </trkpt>
      <trkpt lat="44.79643" lon="6.99452">
        <ele>2365.7</ele>
        <time>2022-02-25T13:35:20Z</time>
      </trkpt>
      <trkpt lat="44.79643" lon="6.99448">
        <ele>2365.1</ele>
        <time>2022-02-25T13:35:21Z</time>
      </trkpt>
      <trkpt lat="44.79643" lon="6.99444">
        <ele>2364.5</ele>
        <time>2022-02-25T13:35:22Z</time>
      </trkpt>
      <trkpt lat="44.79642" lon="6.99439">
        <ele>2363.9</ele>
        <time>2022-02-25T13:35:23Z</time>
      </trkpt>
      <trkpt lat="44.79643" lon="6.99434">
        <ele>2363.1</ele>
        <time>2022-02-25T13:35:24Z</time>
      </trkpt>
      <trkpt lat="44.79644" lon="6.9943">
        <ele>2362.4</ele>
        <time>2022-02-25T13:35:25Z</time>
      </trkpt>
      <trkpt lat="44.79645" lon="6.99428">
        <ele>2362</ele>
        <time>2022-02-25T13:35:26Z</time>
      </trkpt>
      <trkpt lat="44.79645" lon="6.99428">
        <ele>2362</ele>
        <time>2022-02-25T13:35:27Z</time>
      </trkpt>
      <trkpt lat="44.79645" lon="6.99428">
        <ele>2362</ele>
        <time>2022-02-25T13:35:28Z</time>
      </trkpt>
      <trkpt lat="44.79645" lon="6.99428">
        <ele>2362</ele>
        <time>2022-02-25T13:35:29Z</time>
      </trkpt>
      <trkpt lat="44.79645" lon="6.99428">
        <ele>2362</ele>
        <time>2022-02-25T13:35:30Z</time>
      </trkpt>
      <trkpt lat="44.79645" lon="6.99428">
        <ele>2362</ele>
        <time>2022-02-25T13:35:31Z</time>
      </trkpt>
      <trkpt lat="44.79645" lon="6.99428">
        <ele>2362</ele>
        <time>2022-02-25T13:35:32Z</time>
      </trkpt>
      <trkpt lat="44.79645" lon="6.99428">
        <ele>2362</ele>
        <time>2022-02-25T13:35:33Z</time>
      </trkpt>
      <trkpt lat="44.79645" lon="6.99428">
        <ele>2362</ele>
        <time>2022-02-25T13:35:34Z</time>
      </trkpt>
      <trkpt lat="44.79645" lon="6.99428">
        <ele>2362</ele>
        <time>2022-02-25T13:35:35Z</time>
      </trkpt>
      <trkpt lat="44.79645" lon="6.99428">
        <ele>2362</ele>
        <time>2022-02-25T13:35:36Z</time>
      </trkpt>
      <trkpt lat="44.79645" lon="6.99428">
        <ele>2362</ele>
        <time>2022-02-25T13:35:37Z</time>
      </trkpt>
      <trkpt lat="44.79645" lon="6.99428">
        <ele>2362</ele>
        <time>2022-02-25T13:35:38Z</time>
      </trkpt>
      <trkpt lat="44.79645" lon="6.99428">
        <ele>2362</ele>
        <time>2022-02-25T13:35:39Z</time>
      </trkpt>
      <trkpt lat="44.79645" lon="6.99428">
        <ele>2362</ele>
        <time>2022-02-25T13:35:40Z</time>
      </trkpt>
      <trkpt lat="44.79645" lon="6.99428">
        <ele>2362</ele>
        <time>2022-02-25T13:35:41Z</time>
      </trkpt>
      <trkpt lat="44.79645" lon="6.99428">
        <ele>2362</ele>
        <time>2022-02-25T13:35:42Z</time>
      </trkpt>
      <trkpt lat="44.79645" lon="6.99428">
        <ele>2362</ele>
        <time>2022-02-25T13:35:43Z</time>
      </trkpt>
      <trkpt lat="44.79645" lon="6.99428">
        <ele>2362</ele>
        <time>2022-02-25T13:35:44Z</time>
      </trkpt>
      <trkpt lat="44.79645" lon="6.99428">
        <ele>2362</ele>
        <time>2022-02-25T13:35:45Z</time>
      </trkpt>
      <trkpt lat="44.79645" lon="6.99428">
        <ele>2362</ele>
        <time>2022-02-25T13:35:46Z</time>
      </trkpt>
      <trkpt lat="44.79645" lon="6.99428">
        <ele>2362</ele>
        <time>2022-02-25T13:35:47Z</time>
      </trkpt>
      <trkpt lat="44.79645" lon="6.99428">
        <ele>2362</ele>
        <time>2022-02-25T13:35:48Z</time>
      </trkpt>
      <trkpt lat="44.79645" lon="6.99428">
        <ele>2362</ele>
        <time>2022-02-25T13:35:49Z</time>
      </trkpt>
      <trkpt lat="44.79645" lon="6.99428">
        <ele>2362</ele>
        <time>2022-02-25T13:35:50Z</time>
      </trkpt>
      <trkpt lat="44.79645" lon="6.99428">
        <ele>2362</ele>
        <time>2022-02-25T13:35:51Z</time>
      </trkpt>
      <trkpt lat="44.79645" lon="6.99428">
        <ele>2362</ele>
        <time>2022-02-25T13:35:52Z</time>
      </trkpt>
      <trkpt lat="44.79645" lon="6.99428">
        <ele>2362</ele>
        <time>2022-02-25T13:35:53Z</time>
      </trkpt>
      <trkpt lat="44.79645" lon="6.99428">
        <ele>2362</ele>
        <time>2022-02-25T13:35:54Z</time>
      </trkpt>
      <trkpt lat="44.79645" lon="6.99428">
        <ele>2362</ele>
        <time>2022-02-25T13:35:55Z</time>
      </trkpt>
      <trkpt lat="44.79645" lon="6.99428">
        <ele>2362</ele>
        <time>2022-02-25T13:35:56Z</time>
      </trkpt>
      <trkpt lat="44.79645" lon="6.99428">
        <ele>2362</ele>
        <time>2022-02-25T13:35:57Z</time>
      </trkpt>
      <trkpt lat="44.79645" lon="6.99428">
        <ele>2362</ele>
        <time>2022-02-25T13:35:58Z</time>
      </trkpt>
      <trkpt lat="44.79645" lon="6.99428">
        <ele>2362</ele>
        <time>2022-02-25T13:35:59Z</time>
      </trkpt>
      <trkpt lat="44.79645" lon="6.99428">
        <ele>2362</ele>
        <time>2022-02-25T13:36:00Z</time>
      </trkpt>
      <trkpt lat="44.79645" lon="6.99428">
        <ele>2362</ele>
        <time>2022-02-25T13:36:01Z</time>
      </trkpt>
      <trkpt lat="44.79645" lon="6.99428">
        <ele>2362</ele>
        <time>2022-02-25T13:36:02Z</time>
      </trkpt>
      <trkpt lat="44.79645" lon="6.99428">
        <ele>2362</ele>
        <time>2022-02-25T13:36:03Z</time>
      </trkpt>
      <trkpt lat="44.79645" lon="6.99428">
        <ele>2362</ele>
        <time>2022-02-25T13:36:04Z</time>
      </trkpt>
      <trkpt lat="44.79645" lon="6.99428">
        <ele>2362</ele>
        <time>2022-02-25T13:36:05Z</time>
      </trkpt>
      <trkpt lat="44.79645" lon="6.99425">
        <ele>2361.5</ele>
        <time>2022-02-25T13:36:06Z</time>
      </trkpt>
      <trkpt lat="44.79645" lon="6.99425">
        <ele>2361.5</ele>
        <time>2022-02-25T13:36:07Z</time>
      </trkpt>
      <trkpt lat="44.79643" lon="6.99423">
        <ele>2361.5</ele>
        <time>2022-02-25T13:36:08Z</time>
      </trkpt>
      <trkpt lat="44.79643" lon="6.99423">
        <ele>2361.5</ele>
        <time>2022-02-25T13:36:09Z</time>
      </trkpt>
      <trkpt lat="44.7964" lon="6.99422">
        <ele>2361.6</ele>
        <time>2022-02-25T13:36:10Z</time>
      </trkpt>
      <trkpt lat="44.7964" lon="6.99422">
        <ele>2361.6</ele>
        <time>2022-02-25T13:36:11Z</time>
      </trkpt>
      <trkpt lat="44.7964" lon="6.99422">
        <ele>2361.6</ele>
        <time>2022-02-25T13:36:12Z</time>
      </trkpt>
      <trkpt lat="44.7964" lon="6.99422">
        <ele>2361.6</ele>
        <time>2022-02-25T13:36:13Z</time>
      </trkpt>
      <trkpt lat="44.79639" lon="6.9942">
        <ele>2361.5</ele>
        <time>2022-02-25T13:36:14Z</time>
      </trkpt>
      <trkpt lat="44.79639" lon="6.9942">
        <ele>2361.5</ele>
        <time>2022-02-25T13:36:15Z</time>
      </trkpt>
      <trkpt lat="44.79639" lon="6.9942">
        <ele>2361.5</ele>
        <time>2022-02-25T13:36:16Z</time>
      </trkpt>
      <trkpt lat="44.79639" lon="6.9942">
        <ele>2361.5</ele>
        <time>2022-02-25T13:36:17Z</time>
      </trkpt>
      <trkpt lat="44.79639" lon="6.9942">
        <ele>2361.5</ele>
        <time>2022-02-25T13:36:18Z</time>
      </trkpt>
      <trkpt lat="44.79639" lon="6.9942">
        <ele>2361.5</ele>
        <time>2022-02-25T13:36:19Z</time>
      </trkpt>
      <trkpt lat="44.79639" lon="6.9942">
        <ele>2361.5</ele>
        <time>2022-02-25T13:36:20Z</time>
      </trkpt>
      <trkpt lat="44.79639" lon="6.9942">
        <ele>2361.5</ele>
        <time>2022-02-25T13:36:21Z</time>
      </trkpt>
      <trkpt lat="44.79639" lon="6.9942">
        <ele>2361.5</ele>
        <time>2022-02-25T13:36:22Z</time>
      </trkpt>
      <trkpt lat="44.79639" lon="6.9942">
        <ele>2361.5</ele>
        <time>2022-02-25T13:36:23Z</time>
      </trkpt>
      <trkpt lat="44.79639" lon="6.9942">
        <ele>2361.5</ele>
        <time>2022-02-25T13:36:24Z</time>
      </trkpt>
      <trkpt lat="44.79639" lon="6.9942">
        <ele>2361.5</ele>
        <time>2022-02-25T13:36:25Z</time>
      </trkpt>
      <trkpt lat="44.79639" lon="6.9942">
        <ele>2361.5</ele>
        <time>2022-02-25T13:36:26Z</time>
      </trkpt>
      <trkpt lat="44.79639" lon="6.9942">
        <ele>2361.5</ele>
        <time>2022-02-25T13:36:27Z</time>
      </trkpt>
      <trkpt lat="44.79639" lon="6.9942">
        <ele>2361.5</ele>
        <time>2022-02-25T13:36:28Z</time>
      </trkpt>
      <trkpt lat="44.79639" lon="6.9942">
        <ele>2361.5</ele>
        <time>2022-02-25T13:36:29Z</time>
      </trkpt>
      <trkpt lat="44.79639" lon="6.9942">
        <ele>2361.5</ele>
        <time>2022-02-25T13:36:30Z</time>
      </trkpt>
      <trkpt lat="44.79639" lon="6.9942">
        <ele>2361.5</ele>
        <time>2022-02-25T13:36:31Z</time>
      </trkpt>
      <trkpt lat="44.79639" lon="6.9942">
        <ele>2361.5</ele>
        <time>2022-02-25T13:36:32Z</time>
      </trkpt>
      <trkpt lat="44.79639" lon="6.9942">
        <ele>2361.5</ele>
        <time>2022-02-25T13:36:33Z</time>
      </trkpt>
      <trkpt lat="44.79639" lon="6.9942">
        <ele>2361.5</ele>
        <time>2022-02-25T13:36:34Z</time>
      </trkpt>
      <trkpt lat="44.79639" lon="6.9942">
        <ele>2361.5</ele>
        <time>2022-02-25T13:36:35Z</time>
      </trkpt>
      <trkpt lat="44.79639" lon="6.9942">
        <ele>2361.5</ele>
        <time>2022-02-25T13:36:36Z</time>
      </trkpt>
      <trkpt lat="44.79639" lon="6.9942">
        <ele>2361.5</ele>
        <time>2022-02-25T13:36:37Z</time>
      </trkpt>
      <trkpt lat="44.79639" lon="6.9942">
        <ele>2361.5</ele>
        <time>2022-02-25T13:36:38Z</time>
      </trkpt>
      <trkpt lat="44.79637" lon="6.99419">
        <ele>2361</ele>
        <time>2022-02-25T13:36:39Z</time>
      </trkpt>
      <trkpt lat="44.79637" lon="6.99419">
        <ele>2361</ele>
        <time>2022-02-25T13:36:40Z</time>
      </trkpt>
      <trkpt lat="44.79635" lon="6.99419">
        <ele>2360.6</ele>
        <time>2022-02-25T13:36:41Z</time>
      </trkpt>
      <trkpt lat="44.79635" lon="6.99419">
        <ele>2360.6</ele>
        <time>2022-02-25T13:36:42Z</time>
      </trkpt>
      <trkpt lat="44.79632" lon="6.9942">
        <ele>2360.2</ele>
        <time>2022-02-25T13:36:43Z</time>
      </trkpt>
      <trkpt lat="44.79632" lon="6.9942">
        <ele>2360.2</ele>
        <time>2022-02-25T13:36:44Z</time>
      </trkpt>
      <trkpt lat="44.79632" lon="6.9942">
        <ele>2360.2</ele>
        <time>2022-02-25T13:36:45Z</time>
      </trkpt>
      <trkpt lat="44.79629" lon="6.9942">
        <ele>2359.7</ele>
        <time>2022-02-25T13:36:46Z</time>
      </trkpt>
      <trkpt lat="44.79629" lon="6.9942">
        <ele>2359.7</ele>
        <time>2022-02-25T13:36:47Z</time>
      </trkpt>
      <trkpt lat="44.79629" lon="6.9942">
        <ele>2359.7</ele>
        <time>2022-02-25T13:36:48Z</time>
      </trkpt>
      <trkpt lat="44.79629" lon="6.9942">
        <ele>2359.7</ele>
        <time>2022-02-25T13:36:49Z</time>
      </trkpt>
      <trkpt lat="44.79629" lon="6.9942">
        <ele>2359.7</ele>
        <time>2022-02-25T13:36:50Z</time>
      </trkpt>
      <trkpt lat="44.79629" lon="6.9942">
        <ele>2359.7</ele>
        <time>2022-02-25T13:36:51Z</time>
      </trkpt>
      <trkpt lat="44.79629" lon="6.9942">
        <ele>2359.7</ele>
        <time>2022-02-25T13:36:52Z</time>
      </trkpt>
      <trkpt lat="44.79629" lon="6.9942">
        <ele>2359.7</ele>
        <time>2022-02-25T13:36:53Z</time>
      </trkpt>
      <trkpt lat="44.79629" lon="6.9942">
        <ele>2359.7</ele>
        <time>2022-02-25T13:36:54Z</time>
      </trkpt>
      <trkpt lat="44.79629" lon="6.9942">
        <ele>2359.7</ele>
        <time>2022-02-25T13:36:55Z</time>
      </trkpt>
      <trkpt lat="44.79629" lon="6.9942">
        <ele>2359.7</ele>
        <time>2022-02-25T13:36:56Z</time>
      </trkpt>
      <trkpt lat="44.79629" lon="6.9942">
        <ele>2359.7</ele>
        <time>2022-02-25T13:36:57Z</time>
      </trkpt>
      <trkpt lat="44.79629" lon="6.9942">
        <ele>2359.7</ele>
        <time>2022-02-25T13:36:58Z</time>
      </trkpt>
      <trkpt lat="44.79629" lon="6.9942">
        <ele>2359.7</ele>
        <time>2022-02-25T13:36:59Z</time>
      </trkpt>
      <trkpt lat="44.79629" lon="6.9942">
        <ele>2359.7</ele>
        <time>2022-02-25T13:37:00Z</time>
      </trkpt>
      <trkpt lat="44.79629" lon="6.9942">
        <ele>2359.7</ele>
        <time>2022-02-25T13:37:01Z</time>
      </trkpt>
      <trkpt lat="44.79629" lon="6.9942">
        <ele>2359.7</ele>
        <time>2022-02-25T13:37:02Z</time>
      </trkpt>
      <trkpt lat="44.79629" lon="6.9942">
        <ele>2359.7</ele>
        <time>2022-02-25T13:37:03Z</time>
      </trkpt>
      <trkpt lat="44.79629" lon="6.9942">
        <ele>2359.7</ele>
        <time>2022-02-25T13:37:04Z</time>
      </trkpt>
      <trkpt lat="44.79629" lon="6.9942">
        <ele>2359.7</ele>
        <time>2022-02-25T13:37:05Z</time>
      </trkpt>
      <trkpt lat="44.79629" lon="6.9942">
        <ele>2359.7</ele>
        <time>2022-02-25T13:37:06Z</time>
      </trkpt>
      <trkpt lat="44.79629" lon="6.9942">
        <ele>2359.7</ele>
        <time>2022-02-25T13:37:07Z</time>
      </trkpt>
      <trkpt lat="44.79629" lon="6.9942">
        <ele>2359.7</ele>
        <time>2022-02-25T13:37:08Z</time>
      </trkpt>
      <trkpt lat="44.79629" lon="6.9942">
        <ele>2359.7</ele>
        <time>2022-02-25T13:37:09Z</time>
      </trkpt>
      <trkpt lat="44.79629" lon="6.9942">
        <ele>2359.7</ele>
        <time>2022-02-25T13:37:10Z</time>
      </trkpt>
      <trkpt lat="44.79629" lon="6.9942">
        <ele>2359.7</ele>
        <time>2022-02-25T13:37:11Z</time>
      </trkpt>
      <trkpt lat="44.79629" lon="6.9942">
        <ele>2359.7</ele>
        <time>2022-02-25T13:37:12Z</time>
      </trkpt>
      <trkpt lat="44.79629" lon="6.9942">
        <ele>2359.7</ele>
        <time>2022-02-25T13:37:13Z</time>
      </trkpt>
      <trkpt lat="44.79629" lon="6.9942">
        <ele>2359.7</ele>
        <time>2022-02-25T13:37:14Z</time>
      </trkpt>
      <trkpt lat="44.79626" lon="6.99421">
        <ele>2359.3</ele>
        <time>2022-02-25T13:37:15Z</time>
      </trkpt>
      <trkpt lat="44.79623" lon="6.99422">
        <ele>2358.9</ele>
        <time>2022-02-25T13:37:16Z</time>
      </trkpt>
      <trkpt lat="44.79621" lon="6.99423">
        <ele>2358.7</ele>
        <time>2022-02-25T13:37:17Z</time>
      </trkpt>
      <trkpt lat="44.79618" lon="6.99424">
        <ele>2358.3</ele>
        <time>2022-02-25T13:37:18Z</time>
      </trkpt>
      <trkpt lat="44.79615" lon="6.99427">
        <ele>2358.2</ele>
        <time>2022-02-25T13:37:19Z</time>
      </trkpt>
      <trkpt lat="44.79612" lon="6.99429">
        <ele>2357.9</ele>
        <time>2022-02-25T13:37:20Z</time>
      </trkpt>
      <trkpt lat="44.79608" lon="6.99431">
        <ele>2357.3</ele>
        <time>2022-02-25T13:37:21Z</time>
      </trkpt>
      <trkpt lat="44.79605" lon="6.99433">
        <ele>2356.9</ele>
        <time>2022-02-25T13:37:22Z</time>
      </trkpt>
      <trkpt lat="44.79603" lon="6.99434">
        <ele>2356.5</ele>
        <time>2022-02-25T13:37:23Z</time>
      </trkpt>
      <trkpt lat="44.79603" lon="6.99434">
        <ele>2356.5</ele>
        <time>2022-02-25T13:37:24Z</time>
      </trkpt>
      <trkpt lat="44.796" lon="6.99437">
        <ele>2356.3</ele>
        <time>2022-02-25T13:37:25Z</time>
      </trkpt>
      <trkpt lat="44.796" lon="6.99437">
        <ele>2356.3</ele>
        <time>2022-02-25T13:37:26Z</time>
      </trkpt>
      <trkpt lat="44.79597" lon="6.99438">
        <ele>2355.8</ele>
        <time>2022-02-25T13:37:27Z</time>
      </trkpt>
      <trkpt lat="44.79595" lon="6.9944">
        <ele>2355.7</ele>
        <time>2022-02-25T13:37:28Z</time>
      </trkpt>
      <trkpt lat="44.79592" lon="6.99441">
        <ele>2355.2</ele>
        <time>2022-02-25T13:37:29Z</time>
      </trkpt>
      <trkpt lat="44.7959" lon="6.99443">
        <ele>2355.2</ele>
        <time>2022-02-25T13:37:30Z</time>
      </trkpt>
      <trkpt lat="44.79588" lon="6.99446">
        <ele>2355.3</ele>
        <time>2022-02-25T13:37:31Z</time>
      </trkpt>
      <trkpt lat="44.79586" lon="6.99448">
        <ele>2355.2</ele>
        <time>2022-02-25T13:37:32Z</time>
      </trkpt>
      <trkpt lat="44.79584" lon="6.9945">
        <ele>2355.1</ele>
        <time>2022-02-25T13:37:33Z</time>
      </trkpt>
      <trkpt lat="44.79582" lon="6.99453">
        <ele>2355.4</ele>
        <time>2022-02-25T13:37:34Z</time>
      </trkpt>
      <trkpt lat="44.7958" lon="6.99455">
        <ele>2355.5</ele>
        <time>2022-02-25T13:37:35Z</time>
      </trkpt>
      <trkpt lat="44.79578" lon="6.99456">
        <ele>2355.5</ele>
        <time>2022-02-25T13:37:36Z</time>
      </trkpt>
      <trkpt lat="44.79578" lon="6.99456">
        <ele>2355.5</ele>
        <time>2022-02-25T13:37:37Z</time>
      </trkpt>
      <trkpt lat="44.79575" lon="6.9946">
        <ele>2355.9</ele>
        <time>2022-02-25T13:37:38Z</time>
      </trkpt>
      <trkpt lat="44.79573" lon="6.99461">
        <ele>2355.9</ele>
        <time>2022-02-25T13:37:39Z</time>
      </trkpt>
      <trkpt lat="44.79573" lon="6.99461">
        <ele>2355.9</ele>
        <time>2022-02-25T13:37:40Z</time>
      </trkpt>
      <trkpt lat="44.7957" lon="6.99463">
        <ele>2355.9</ele>
        <time>2022-02-25T13:37:41Z</time>
      </trkpt>
      <trkpt lat="44.7957" lon="6.99463">
        <ele>2355.9</ele>
        <time>2022-02-25T13:37:42Z</time>
      </trkpt>
      <trkpt lat="44.7957" lon="6.99463">
        <ele>2355.9</ele>
        <time>2022-02-25T13:37:43Z</time>
      </trkpt>
      <trkpt lat="44.7957" lon="6.99463">
        <ele>2355.9</ele>
        <time>2022-02-25T13:37:44Z</time>
      </trkpt>
      <trkpt lat="44.79568" lon="6.99461">
        <ele>2355.3</ele>
        <time>2022-02-25T13:37:45Z</time>
      </trkpt>
      <trkpt lat="44.79568" lon="6.99461">
        <ele>2355.3</ele>
        <time>2022-02-25T13:37:46Z</time>
      </trkpt>
      <trkpt lat="44.79569" lon="6.99457">
        <ele>2354.7</ele>
        <time>2022-02-25T13:37:47Z</time>
      </trkpt>
      <trkpt lat="44.7957" lon="6.99454">
        <ele>2354.3</ele>
        <time>2022-02-25T13:37:48Z</time>
      </trkpt>
      <trkpt lat="44.79571" lon="6.99452">
        <ele>2354</ele>
        <time>2022-02-25T13:37:49Z</time>
      </trkpt>
      <trkpt lat="44.79572" lon="6.99449">
        <ele>2353.6</ele>
        <time>2022-02-25T13:37:50Z</time>
      </trkpt>
      <trkpt lat="44.79572" lon="6.99445">
        <ele>2352.9</ele>
        <time>2022-02-25T13:37:51Z</time>
      </trkpt>
      <trkpt lat="44.79571" lon="6.99441">
        <ele>2352</ele>
        <time>2022-02-25T13:37:52Z</time>
      </trkpt>
      <trkpt lat="44.79572" lon="6.99436">
        <ele>2351.2</ele>
        <time>2022-02-25T13:37:53Z</time>
      </trkpt>
      <trkpt lat="44.79572" lon="6.99432">
        <ele>2350.5</ele>
        <time>2022-02-25T13:37:54Z</time>
      </trkpt>
      <trkpt lat="44.79572" lon="6.99427">
        <ele>2349.5</ele>
        <time>2022-02-25T13:37:55Z</time>
      </trkpt>
      <trkpt lat="44.79571" lon="6.99423">
        <ele>2348.7</ele>
        <time>2022-02-25T13:37:56Z</time>
      </trkpt>
      <trkpt lat="44.79572" lon="6.99418">
        <ele>2347.8</ele>
        <time>2022-02-25T13:37:57Z</time>
      </trkpt>
      <trkpt lat="44.79571" lon="6.99414">
        <ele>2347</ele>
        <time>2022-02-25T13:37:58Z</time>
      </trkpt>
      <trkpt lat="44.7957" lon="6.99411">
        <ele>2346.3</ele>
        <time>2022-02-25T13:37:59Z</time>
      </trkpt>
      <trkpt lat="44.79567" lon="6.99408">
        <ele>2345.5</ele>
        <time>2022-02-25T13:38:00Z</time>
      </trkpt>
      <trkpt lat="44.79567" lon="6.99403">
        <ele>2344.5</ele>
        <time>2022-02-25T13:38:01Z</time>
      </trkpt>
      <trkpt lat="44.79568" lon="6.99399">
        <ele>2343.6</ele>
        <time>2022-02-25T13:38:02Z</time>
      </trkpt>
      <trkpt lat="44.79569" lon="6.99396">
        <ele>2343</ele>
        <time>2022-02-25T13:38:03Z</time>
      </trkpt>
      <trkpt lat="44.7957" lon="6.99392">
        <ele>2342.2</ele>
        <time>2022-02-25T13:38:04Z</time>
      </trkpt>
      <trkpt lat="44.79569" lon="6.99388">
        <ele>2341.3</ele>
        <time>2022-02-25T13:38:05Z</time>
      </trkpt>
      <trkpt lat="44.79569" lon="6.99384">
        <ele>2340.6</ele>
        <time>2022-02-25T13:38:06Z</time>
      </trkpt>
      <trkpt lat="44.7957" lon="6.9938">
        <ele>2339.9</ele>
        <time>2022-02-25T13:38:07Z</time>
      </trkpt>
      <trkpt lat="44.79571" lon="6.99376">
        <ele>2339.3</ele>
        <time>2022-02-25T13:38:08Z</time>
      </trkpt>
      <trkpt lat="44.7957" lon="6.99372">
        <ele>2338.5</ele>
        <time>2022-02-25T13:38:09Z</time>
      </trkpt>
      <trkpt lat="44.79569" lon="6.99368">
        <ele>2337.7</ele>
        <time>2022-02-25T13:38:10Z</time>
      </trkpt>
      <trkpt lat="44.7957" lon="6.99363">
        <ele>2336.9</ele>
        <time>2022-02-25T13:38:11Z</time>
      </trkpt>
      <trkpt lat="44.7957" lon="6.99359">
        <ele>2336.2</ele>
        <time>2022-02-25T13:38:12Z</time>
      </trkpt>
      <trkpt lat="44.7957" lon="6.99355">
        <ele>2335.5</ele>
        <time>2022-02-25T13:38:13Z</time>
      </trkpt>
      <trkpt lat="44.7957" lon="6.99355">
        <ele>2335.5</ele>
        <time>2022-02-25T13:38:14Z</time>
      </trkpt>
      <trkpt lat="44.79569" lon="6.99352">
        <ele>2334.8</ele>
        <time>2022-02-25T13:38:15Z</time>
      </trkpt>
      <trkpt lat="44.79569" lon="6.99352">
        <ele>2334.8</ele>
        <time>2022-02-25T13:38:16Z</time>
      </trkpt>
      <trkpt lat="44.79569" lon="6.99352">
        <ele>2334.8</ele>
        <time>2022-02-25T13:38:17Z</time>
      </trkpt>
      <trkpt lat="44.79569" lon="6.99352">
        <ele>2334.8</ele>
        <time>2022-02-25T13:38:18Z</time>
      </trkpt>
      <trkpt lat="44.79569" lon="6.99352">
        <ele>2334.8</ele>
        <time>2022-02-25T13:38:19Z</time>
      </trkpt>
      <trkpt lat="44.79569" lon="6.99352">
        <ele>2334.8</ele>
        <time>2022-02-25T13:38:20Z</time>
      </trkpt>
      <trkpt lat="44.79568" lon="6.9935">
        <ele>2334.3</ele>
        <time>2022-02-25T13:38:21Z</time>
      </trkpt>
      <trkpt lat="44.79568" lon="6.9935">
        <ele>2334.3</ele>
        <time>2022-02-25T13:38:22Z</time>
      </trkpt>
      <trkpt lat="44.79569" lon="6.99345">
        <ele>2333.6</ele>
        <time>2022-02-25T13:38:23Z</time>
      </trkpt>
      <trkpt lat="44.79569" lon="6.99341">
        <ele>2332.8</ele>
        <time>2022-02-25T13:38:24Z</time>
      </trkpt>
      <trkpt lat="44.79569" lon="6.99337">
        <ele>2332.1</ele>
        <time>2022-02-25T13:38:25Z</time>
      </trkpt>
      <trkpt lat="44.79568" lon="6.99334">
        <ele>2331.5</ele>
        <time>2022-02-25T13:38:26Z</time>
      </trkpt>
      <trkpt lat="44.79566" lon="6.99332">
        <ele>2330.9</ele>
        <time>2022-02-25T13:38:27Z</time>
      </trkpt>
      <trkpt lat="44.79564" lon="6.99329">
        <ele>2330.3</ele>
        <time>2022-02-25T13:38:28Z</time>
      </trkpt>
      <trkpt lat="44.79561" lon="6.99325">
        <ele>2329.4</ele>
        <time>2022-02-25T13:38:29Z</time>
      </trkpt>
      <trkpt lat="44.79558" lon="6.99321">
        <ele>2328.5</ele>
        <time>2022-02-25T13:38:30Z</time>
      </trkpt>
      <trkpt lat="44.79556" lon="6.99318">
        <ele>2327.8</ele>
        <time>2022-02-25T13:38:31Z</time>
      </trkpt>
      <trkpt lat="44.79554" lon="6.99314">
        <ele>2327.5</ele>
        <time>2022-02-25T13:38:32Z</time>
      </trkpt>
      <trkpt lat="44.79552" lon="6.9931">
        <ele>2327.1</ele>
        <time>2022-02-25T13:38:33Z</time>
      </trkpt>
      <trkpt lat="44.79551" lon="6.99306">
        <ele>2326.6</ele>
        <time>2022-02-25T13:38:34Z</time>
      </trkpt>
      <trkpt lat="44.79551" lon="6.99301">
        <ele>2325.8</ele>
        <time>2022-02-25T13:38:35Z</time>
      </trkpt>
      <trkpt lat="44.79551" lon="6.99296">
        <ele>2325.1</ele>
        <time>2022-02-25T13:38:36Z</time>
      </trkpt>
      <trkpt lat="44.79551" lon="6.99291">
        <ele>2324.4</ele>
        <time>2022-02-25T13:38:37Z</time>
      </trkpt>
      <trkpt lat="44.79551" lon="6.99286">
        <ele>2323.7</ele>
        <time>2022-02-25T13:38:38Z</time>
      </trkpt>
      <trkpt lat="44.79551" lon="6.99282">
        <ele>2323.1</ele>
        <time>2022-02-25T13:38:39Z</time>
      </trkpt>
      <trkpt lat="44.79551" lon="6.99277">
        <ele>2322.4</ele>
        <time>2022-02-25T13:38:40Z</time>
      </trkpt>
      <trkpt lat="44.79552" lon="6.99273">
        <ele>2321.9</ele>
        <time>2022-02-25T13:38:41Z</time>
      </trkpt>
      <trkpt lat="44.79552" lon="6.99269">
        <ele>2321.4</ele>
        <time>2022-02-25T13:38:42Z</time>
      </trkpt>
      <trkpt lat="44.79552" lon="6.99266">
        <ele>2321.1</ele>
        <time>2022-02-25T13:38:43Z</time>
      </trkpt>
      <trkpt lat="44.79552" lon="6.99263">
        <ele>2320.8</ele>
        <time>2022-02-25T13:38:44Z</time>
      </trkpt>
      <trkpt lat="44.79551" lon="6.9926">
        <ele>2320.6</ele>
        <time>2022-02-25T13:38:45Z</time>
      </trkpt>
      <trkpt lat="44.79551" lon="6.9926">
        <ele>2320.6</ele>
        <time>2022-02-25T13:38:46Z</time>
      </trkpt>
      <trkpt lat="44.7955" lon="6.99257">
        <ele>2320.4</ele>
        <time>2022-02-25T13:38:47Z</time>
      </trkpt>
      <trkpt lat="44.7955" lon="6.99257">
        <ele>2320.4</ele>
        <time>2022-02-25T13:38:48Z</time>
      </trkpt>
      <trkpt lat="44.7955" lon="6.99257">
        <ele>2320.4</ele>
        <time>2022-02-25T13:38:49Z</time>
      </trkpt>
      <trkpt lat="44.7955" lon="6.99257">
        <ele>2320.4</ele>
        <time>2022-02-25T13:38:50Z</time>
      </trkpt>
      <trkpt lat="44.7955" lon="6.99257">
        <ele>2320.4</ele>
        <time>2022-02-25T13:38:51Z</time>
      </trkpt>
      <trkpt lat="44.7955" lon="6.99257">
        <ele>2320.4</ele>
        <time>2022-02-25T13:38:52Z</time>
      </trkpt>
      <trkpt lat="44.7955" lon="6.99257">
        <ele>2320.4</ele>
        <time>2022-02-25T13:38:53Z</time>
      </trkpt>
      <trkpt lat="44.7955" lon="6.99257">
        <ele>2320.4</ele>
        <time>2022-02-25T13:38:54Z</time>
      </trkpt>
      <trkpt lat="44.7955" lon="6.99257">
        <ele>2320.4</ele>
        <time>2022-02-25T13:38:55Z</time>
      </trkpt>
      <trkpt lat="44.7955" lon="6.99257">
        <ele>2320.4</ele>
        <time>2022-02-25T13:38:56Z</time>
      </trkpt>
      <trkpt lat="44.7955" lon="6.99257">
        <ele>2320.4</ele>
        <time>2022-02-25T13:38:57Z</time>
      </trkpt>
      <trkpt lat="44.79549" lon="6.99255">
        <ele>2320.2</ele>
        <time>2022-02-25T13:38:58Z</time>
      </trkpt>
      <trkpt lat="44.79549" lon="6.99255">
        <ele>2320.2</ele>
        <time>2022-02-25T13:38:59Z</time>
      </trkpt>
      <trkpt lat="44.79548" lon="6.99253">
        <ele>2320.1</ele>
        <time>2022-02-25T13:39:00Z</time>
      </trkpt>
      <trkpt lat="44.79548" lon="6.99253">
        <ele>2320.1</ele>
        <time>2022-02-25T13:39:01Z</time>
      </trkpt>
      <trkpt lat="44.79548" lon="6.99253">
        <ele>2320.1</ele>
        <time>2022-02-25T13:39:02Z</time>
      </trkpt>
      <trkpt lat="44.79546" lon="6.9925">
        <ele>2320</ele>
        <time>2022-02-25T13:39:03Z</time>
      </trkpt>
      <trkpt lat="44.79546" lon="6.9925">
        <ele>2320</ele>
        <time>2022-02-25T13:39:04Z</time>
      </trkpt>
      <trkpt lat="44.79544" lon="6.99248">
        <ele>2320</ele>
        <time>2022-02-25T13:39:05Z</time>
      </trkpt>
      <trkpt lat="44.79544" lon="6.99248">
        <ele>2320</ele>
        <time>2022-02-25T13:39:06Z</time>
      </trkpt>
      <trkpt lat="44.79543" lon="6.99243">
        <ele>2319.6</ele>
        <time>2022-02-25T13:39:07Z</time>
      </trkpt>
      <trkpt lat="44.79542" lon="6.9924">
        <ele>2319.4</ele>
        <time>2022-02-25T13:39:08Z</time>
      </trkpt>
      <trkpt lat="44.79542" lon="6.99235">
        <ele>2318.8</ele>
        <time>2022-02-25T13:39:09Z</time>
      </trkpt>
      <trkpt lat="44.79543" lon="6.99232">
        <ele>2318.3</ele>
        <time>2022-02-25T13:39:10Z</time>
      </trkpt>
      <trkpt lat="44.79545" lon="6.9923">
        <ele>2317.6</ele>
        <time>2022-02-25T13:39:11Z</time>
      </trkpt>
      <trkpt lat="44.79545" lon="6.9923">
        <ele>2317.6</ele>
        <time>2022-02-25T13:39:12Z</time>
      </trkpt>
      <trkpt lat="44.79546" lon="6.99227">
        <ele>2317</ele>
        <time>2022-02-25T13:39:13Z</time>
      </trkpt>
      <trkpt lat="44.79548" lon="6.99224">
        <ele>2316.2</ele>
        <time>2022-02-25T13:39:14Z</time>
      </trkpt>
      <trkpt lat="44.7955" lon="6.99222">
        <ele>2315.4</ele>
        <time>2022-02-25T13:39:15Z</time>
      </trkpt>
      <trkpt lat="44.79552" lon="6.99221">
        <ele>2314.7</ele>
        <time>2022-02-25T13:39:16Z</time>
      </trkpt>
      <trkpt lat="44.79552" lon="6.99221">
        <ele>2314.7</ele>
        <time>2022-02-25T13:39:17Z</time>
      </trkpt>
      <trkpt lat="44.79553" lon="6.99218">
        <ele>2313.8</ele>
        <time>2022-02-25T13:39:18Z</time>
      </trkpt>
      <trkpt lat="44.79553" lon="6.99215">
        <ele>2313.2</ele>
        <time>2022-02-25T13:39:19Z</time>
      </trkpt>
      <trkpt lat="44.79553" lon="6.99212">
        <ele>2312.6</ele>
        <time>2022-02-25T13:39:20Z</time>
      </trkpt>
      <trkpt lat="44.79553" lon="6.99212">
        <ele>2312.6</ele>
        <time>2022-02-25T13:39:21Z</time>
      </trkpt>
      <trkpt lat="44.79553" lon="6.99212">
        <ele>2312.6</ele>
        <time>2022-02-25T13:39:22Z</time>
      </trkpt>
      <trkpt lat="44.79553" lon="6.99212">
        <ele>2312.6</ele>
        <time>2022-02-25T13:39:23Z</time>
      </trkpt>
      <trkpt lat="44.79553" lon="6.99212">
        <ele>2312.6</ele>
        <time>2022-02-25T13:39:24Z</time>
      </trkpt>
      <trkpt lat="44.79553" lon="6.99212">
        <ele>2312.6</ele>
        <time>2022-02-25T13:39:25Z</time>
      </trkpt>
      <trkpt lat="44.79554" lon="6.99209">
        <ele>2311.6</ele>
        <time>2022-02-25T13:39:26Z</time>
      </trkpt>
      <trkpt lat="44.79554" lon="6.99209">
        <ele>2311.6</ele>
        <time>2022-02-25T13:39:27Z</time>
      </trkpt>
      <trkpt lat="44.79556" lon="6.99205">
        <ele>2310.4</ele>
        <time>2022-02-25T13:39:28Z</time>
      </trkpt>
      <trkpt lat="44.79558" lon="6.99202">
        <ele>2310.3</ele>
        <time>2022-02-25T13:39:29Z</time>
      </trkpt>
      <trkpt lat="44.79558" lon="6.99202">
        <ele>2310.3</ele>
        <time>2022-02-25T13:39:30Z</time>
      </trkpt>
      <trkpt lat="44.79558" lon="6.99197">
        <ele>2309.2</ele>
        <time>2022-02-25T13:39:31Z</time>
      </trkpt>
      <trkpt lat="44.79558" lon="6.99194">
        <ele>2308.7</ele>
        <time>2022-02-25T13:39:32Z</time>
      </trkpt>
      <trkpt lat="44.79557" lon="6.99191">
        <ele>2308</ele>
        <time>2022-02-25T13:39:33Z</time>
      </trkpt>
      <trkpt lat="44.79557" lon="6.99187">
        <ele>2307.6</ele>
        <time>2022-02-25T13:39:34Z</time>
      </trkpt>
      <trkpt lat="44.79557" lon="6.99184">
        <ele>2307.2</ele>
        <time>2022-02-25T13:39:35Z</time>
      </trkpt>
      <trkpt lat="44.79558" lon="6.99181">
        <ele>2307.1</ele>
        <time>2022-02-25T13:39:36Z</time>
      </trkpt>
      <trkpt lat="44.7956" lon="6.99179">
        <ele>2307.3</ele>
        <time>2022-02-25T13:39:37Z</time>
      </trkpt>
      <trkpt lat="44.7956" lon="6.99179">
        <ele>2307.3</ele>
        <time>2022-02-25T13:39:38Z</time>
      </trkpt>
      <trkpt lat="44.7956" lon="6.99179">
        <ele>2307.3</ele>
        <time>2022-02-25T13:39:39Z</time>
      </trkpt>
      <trkpt lat="44.7956" lon="6.99179">
        <ele>2307.3</ele>
        <time>2022-02-25T13:39:40Z</time>
      </trkpt>
      <trkpt lat="44.7956" lon="6.99179">
        <ele>2307.3</ele>
        <time>2022-02-25T13:39:41Z</time>
      </trkpt>
      <trkpt lat="44.7956" lon="6.99179">
        <ele>2307.3</ele>
        <time>2022-02-25T13:39:42Z</time>
      </trkpt>
      <trkpt lat="44.79562" lon="6.99178">
        <ele>2307.5</ele>
        <time>2022-02-25T13:39:43Z</time>
      </trkpt>
      <trkpt lat="44.79562" lon="6.99178">
        <ele>2307.5</ele>
        <time>2022-02-25T13:39:44Z</time>
      </trkpt>
      <trkpt lat="44.79562" lon="6.99178">
        <ele>2307.5</ele>
        <time>2022-02-25T13:39:45Z</time>
      </trkpt>
      <trkpt lat="44.79562" lon="6.99178">
        <ele>2307.5</ele>
        <time>2022-02-25T13:39:46Z</time>
      </trkpt>
      <trkpt lat="44.79563" lon="6.99174">
        <ele>2307.1</ele>
        <time>2022-02-25T13:39:47Z</time>
      </trkpt>
      <trkpt lat="44.79562" lon="6.99172">
        <ele>2306.7</ele>
        <time>2022-02-25T13:39:48Z</time>
      </trkpt>
      <trkpt lat="44.79561" lon="6.99169">
        <ele>2306.1</ele>
        <time>2022-02-25T13:39:49Z</time>
      </trkpt>
      <trkpt lat="44.79561" lon="6.99166">
        <ele>2305.6</ele>
        <time>2022-02-25T13:39:50Z</time>
      </trkpt>
      <trkpt lat="44.79562" lon="6.99163">
        <ele>2305</ele>
        <time>2022-02-25T13:39:51Z</time>
      </trkpt>
      <trkpt lat="44.79562" lon="6.99163">
        <ele>2305</ele>
        <time>2022-02-25T13:39:52Z</time>
      </trkpt>
      <trkpt lat="44.79563" lon="6.99161">
        <ele>2304.7</ele>
        <time>2022-02-25T13:39:53Z</time>
      </trkpt>
      <trkpt lat="44.79563" lon="6.99161">
        <ele>2304.7</ele>
        <time>2022-02-25T13:39:54Z</time>
      </trkpt>
      <trkpt lat="44.79563" lon="6.99161">
        <ele>2304.7</ele>
        <time>2022-02-25T13:39:55Z</time>
      </trkpt>
      <trkpt lat="44.79563" lon="6.9916">
        <ele>2304.4</ele>
        <time>2022-02-25T13:39:56Z</time>
      </trkpt>
      <trkpt lat="44.79563" lon="6.99158">
        <ele>2303.9</ele>
        <time>2022-02-25T13:39:57Z</time>
      </trkpt>
      <trkpt lat="44.79563" lon="6.99156">
        <ele>2303.4</ele>
        <time>2022-02-25T13:39:58Z</time>
      </trkpt>
      <trkpt lat="44.79564" lon="6.99155">
        <ele>2303.4</ele>
        <time>2022-02-25T13:39:59Z</time>
      </trkpt>
      <trkpt lat="44.79564" lon="6.99153">
        <ele>2302.9</ele>
        <time>2022-02-25T13:40:00Z</time>
      </trkpt>
      <trkpt lat="44.79564" lon="6.99152">
        <ele>2302.6</ele>
        <time>2022-02-25T13:40:01Z</time>
      </trkpt>
      <trkpt lat="44.79564" lon="6.9915">
        <ele>2302.1</ele>
        <time>2022-02-25T13:40:02Z</time>
      </trkpt>
      <trkpt lat="44.79564" lon="6.99148">
        <ele>2301.7</ele>
        <time>2022-02-25T13:40:03Z</time>
      </trkpt>
      <trkpt lat="44.79564" lon="6.99148">
        <ele>2301.7</ele>
        <time>2022-02-25T13:40:04Z</time>
      </trkpt>
      <trkpt lat="44.79564" lon="6.99148">
        <ele>2301.7</ele>
        <time>2022-02-25T13:40:05Z</time>
      </trkpt>
      <trkpt lat="44.79564" lon="6.99148">
        <ele>2301.7</ele>
        <time>2022-02-25T13:40:06Z</time>
      </trkpt>
      <trkpt lat="44.79564" lon="6.99148">
        <ele>2301.7</ele>
        <time>2022-02-25T13:40:07Z</time>
      </trkpt>
      <trkpt lat="44.79564" lon="6.99148">
        <ele>2301.7</ele>
        <time>2022-02-25T13:40:08Z</time>
      </trkpt>
      <trkpt lat="44.79564" lon="6.99148">
        <ele>2301.7</ele>
        <time>2022-02-25T13:40:09Z</time>
      </trkpt>
      <trkpt lat="44.79565" lon="6.99147">
        <ele>2301.7</ele>
        <time>2022-02-25T13:40:10Z</time>
      </trkpt>
      <trkpt lat="44.79565" lon="6.99147">
        <ele>2301.7</ele>
        <time>2022-02-25T13:40:11Z</time>
      </trkpt>
      <trkpt lat="44.79566" lon="6.99143">
        <ele>2301</ele>
        <time>2022-02-25T13:40:12Z</time>
      </trkpt>
      <trkpt lat="44.79566" lon="6.99143">
        <ele>2301</ele>
        <time>2022-02-25T13:40:13Z</time>
      </trkpt>
      <trkpt lat="44.79563" lon="6.99142">
        <ele>2299.9</ele>
        <time>2022-02-25T13:40:14Z</time>
      </trkpt>
      <trkpt lat="44.79561" lon="6.9914">
        <ele>2298.9</ele>
        <time>2022-02-25T13:40:15Z</time>
      </trkpt>
      <trkpt lat="44.7956" lon="6.99137">
        <ele>2297.9</ele>
        <time>2022-02-25T13:40:16Z</time>
      </trkpt>
      <trkpt lat="44.7956" lon="6.99134">
        <ele>2297.3</ele>
        <time>2022-02-25T13:40:17Z</time>
      </trkpt>
      <trkpt lat="44.7956" lon="6.99134">
        <ele>2297.3</ele>
        <time>2022-02-25T13:40:18Z</time>
      </trkpt>
      <trkpt lat="44.7956" lon="6.99134">
        <ele>2297.3</ele>
        <time>2022-02-25T13:40:19Z</time>
      </trkpt>
      <trkpt lat="44.7956" lon="6.99131">
        <ele>2296.7</ele>
        <time>2022-02-25T13:40:20Z</time>
      </trkpt>
      <trkpt lat="44.7956" lon="6.99131">
        <ele>2296.7</ele>
        <time>2022-02-25T13:40:21Z</time>
      </trkpt>
      <trkpt lat="44.7956" lon="6.99127">
        <ele>2295.9</ele>
        <time>2022-02-25T13:40:22Z</time>
      </trkpt>
      <trkpt lat="44.79561" lon="6.99125">
        <ele>2295.8</ele>
        <time>2022-02-25T13:40:23Z</time>
      </trkpt>
      <trkpt lat="44.79561" lon="6.99125">
        <ele>2295.8</ele>
        <time>2022-02-25T13:40:24Z</time>
      </trkpt>
      <trkpt lat="44.79561" lon="6.99125">
        <ele>2295.8</ele>
        <time>2022-02-25T13:40:25Z</time>
      </trkpt>
      <trkpt lat="44.79561" lon="6.99125">
        <ele>2295.8</ele>
        <time>2022-02-25T13:40:26Z</time>
      </trkpt>
      <trkpt lat="44.79561" lon="6.99125">
        <ele>2295.8</ele>
        <time>2022-02-25T13:40:27Z</time>
      </trkpt>
      <trkpt lat="44.79561" lon="6.99125">
        <ele>2295.8</ele>
        <time>2022-02-25T13:40:28Z</time>
      </trkpt>
      <trkpt lat="44.79561" lon="6.99125">
        <ele>2295.8</ele>
        <time>2022-02-25T13:40:29Z</time>
      </trkpt>
      <trkpt lat="44.79561" lon="6.99125">
        <ele>2295.8</ele>
        <time>2022-02-25T13:40:30Z</time>
      </trkpt>
      <trkpt lat="44.79561" lon="6.99125">
        <ele>2295.8</ele>
        <time>2022-02-25T13:40:31Z</time>
      </trkpt>
      <trkpt lat="44.79561" lon="6.99125">
        <ele>2295.8</ele>
        <time>2022-02-25T13:40:32Z</time>
      </trkpt>
      <trkpt lat="44.79561" lon="6.99125">
        <ele>2295.8</ele>
        <time>2022-02-25T13:40:33Z</time>
      </trkpt>
      <trkpt lat="44.79561" lon="6.99125">
        <ele>2295.8</ele>
        <time>2022-02-25T13:40:34Z</time>
      </trkpt>
      <trkpt lat="44.79561" lon="6.99125">
        <ele>2295.8</ele>
        <time>2022-02-25T13:40:35Z</time>
      </trkpt>
      <trkpt lat="44.79563" lon="6.99125">
        <ele>2296.2</ele>
        <time>2022-02-25T13:40:36Z</time>
      </trkpt>
      <trkpt lat="44.79563" lon="6.99125">
        <ele>2296.2</ele>
        <time>2022-02-25T13:40:37Z</time>
      </trkpt>
      <trkpt lat="44.79563" lon="6.99125">
        <ele>2296.2</ele>
        <time>2022-02-25T13:40:38Z</time>
      </trkpt>
      <trkpt lat="44.79563" lon="6.99125">
        <ele>2296.2</ele>
        <time>2022-02-25T13:40:39Z</time>
      </trkpt>
      <trkpt lat="44.79563" lon="6.99125">
        <ele>2296.2</ele>
        <time>2022-02-25T13:40:40Z</time>
      </trkpt>
      <trkpt lat="44.79563" lon="6.99125">
        <ele>2296.2</ele>
        <time>2022-02-25T13:40:41Z</time>
      </trkpt>
      <trkpt lat="44.79563" lon="6.99125">
        <ele>2296.2</ele>
        <time>2022-02-25T13:40:42Z</time>
      </trkpt>
      <trkpt lat="44.79563" lon="6.99125">
        <ele>2296.2</ele>
        <time>2022-02-25T13:40:43Z</time>
      </trkpt>
      <trkpt lat="44.79563" lon="6.99125">
        <ele>2296.2</ele>
        <time>2022-02-25T13:40:44Z</time>
      </trkpt>
      <trkpt lat="44.79563" lon="6.99125">
        <ele>2296.2</ele>
        <time>2022-02-25T13:40:45Z</time>
      </trkpt>
      <trkpt lat="44.79563" lon="6.99125">
        <ele>2296.2</ele>
        <time>2022-02-25T13:40:46Z</time>
      </trkpt>
      <trkpt lat="44.79563" lon="6.99125">
        <ele>2296.2</ele>
        <time>2022-02-25T13:40:47Z</time>
      </trkpt>
      <trkpt lat="44.79563" lon="6.99125">
        <ele>2296.2</ele>
        <time>2022-02-25T13:40:48Z</time>
      </trkpt>
      <trkpt lat="44.79563" lon="6.99125">
        <ele>2296.2</ele>
        <time>2022-02-25T13:40:49Z</time>
      </trkpt>
      <trkpt lat="44.79563" lon="6.99125">
        <ele>2296.2</ele>
        <time>2022-02-25T13:40:50Z</time>
      </trkpt>
      <trkpt lat="44.79563" lon="6.99125">
        <ele>2296.2</ele>
        <time>2022-02-25T13:40:51Z</time>
      </trkpt>
      <trkpt lat="44.79563" lon="6.99125">
        <ele>2296.2</ele>
        <time>2022-02-25T13:40:52Z</time>
      </trkpt>
      <trkpt lat="44.79563" lon="6.99125">
        <ele>2296.2</ele>
        <time>2022-02-25T13:40:53Z</time>
      </trkpt>
      <trkpt lat="44.79563" lon="6.99125">
        <ele>2296.2</ele>
        <time>2022-02-25T13:40:54Z</time>
      </trkpt>
      <trkpt lat="44.79563" lon="6.99125">
        <ele>2296.2</ele>
        <time>2022-02-25T13:40:55Z</time>
      </trkpt>
      <trkpt lat="44.79563" lon="6.99125">
        <ele>2296.2</ele>
        <time>2022-02-25T13:40:56Z</time>
      </trkpt>
      <trkpt lat="44.79563" lon="6.99125">
        <ele>2296.2</ele>
        <time>2022-02-25T13:40:57Z</time>
      </trkpt>
      <trkpt lat="44.79563" lon="6.99125">
        <ele>2296.2</ele>
        <time>2022-02-25T13:40:58Z</time>
      </trkpt>
      <trkpt lat="44.79563" lon="6.99125">
        <ele>2296.2</ele>
        <time>2022-02-25T13:40:59Z</time>
      </trkpt>
      <trkpt lat="44.79563" lon="6.99125">
        <ele>2296.2</ele>
        <time>2022-02-25T13:41:00Z</time>
      </trkpt>
      <trkpt lat="44.79563" lon="6.99125">
        <ele>2296.2</ele>
        <time>2022-02-25T13:41:01Z</time>
      </trkpt>
      <trkpt lat="44.79563" lon="6.99125">
        <ele>2296.2</ele>
        <time>2022-02-25T13:41:02Z</time>
      </trkpt>
      <trkpt lat="44.79563" lon="6.99125">
        <ele>2296.2</ele>
        <time>2022-02-25T13:41:03Z</time>
      </trkpt>
      <trkpt lat="44.79563" lon="6.99125">
        <ele>2296.2</ele>
        <time>2022-02-25T13:41:04Z</time>
      </trkpt>
      <trkpt lat="44.79563" lon="6.99125">
        <ele>2296.2</ele>
        <time>2022-02-25T13:41:05Z</time>
      </trkpt>
      <trkpt lat="44.79563" lon="6.99125">
        <ele>2296.2</ele>
        <time>2022-02-25T13:41:06Z</time>
      </trkpt>
      <trkpt lat="44.79563" lon="6.99125">
        <ele>2296.2</ele>
        <time>2022-02-25T13:41:07Z</time>
      </trkpt>
      <trkpt lat="44.79563" lon="6.99125">
        <ele>2296.2</ele>
        <time>2022-02-25T13:41:08Z</time>
      </trkpt>
      <trkpt lat="44.79563" lon="6.99125">
        <ele>2296.2</ele>
        <time>2022-02-25T13:41:09Z</time>
      </trkpt>
      <trkpt lat="44.79563" lon="6.99125">
        <ele>2296.2</ele>
        <time>2022-02-25T13:41:10Z</time>
      </trkpt>
      <trkpt lat="44.79563" lon="6.99125">
        <ele>2296.2</ele>
        <time>2022-02-25T13:41:11Z</time>
      </trkpt>
      <trkpt lat="44.79563" lon="6.99125">
        <ele>2296.2</ele>
        <time>2022-02-25T13:41:12Z</time>
      </trkpt>
      <trkpt lat="44.79564" lon="6.9912">
        <ele>2295.4</ele>
        <time>2022-02-25T13:41:13Z</time>
      </trkpt>
      <trkpt lat="44.79564" lon="6.9912">
        <ele>2295.4</ele>
        <time>2022-02-25T13:41:14Z</time>
      </trkpt>
      <trkpt lat="44.79564" lon="6.9912">
        <ele>2295.4</ele>
        <time>2022-02-25T13:41:15Z</time>
      </trkpt>
      <trkpt lat="44.79564" lon="6.99116">
        <ele>2294.6</ele>
        <time>2022-02-25T13:41:16Z</time>
      </trkpt>
      <trkpt lat="44.79564" lon="6.99116">
        <ele>2294.6</ele>
        <time>2022-02-25T13:41:17Z</time>
      </trkpt>
      <trkpt lat="44.79564" lon="6.99113">
        <ele>2293.9</ele>
        <time>2022-02-25T13:41:18Z</time>
      </trkpt>
      <trkpt lat="44.79564" lon="6.99113">
        <ele>2293.9</ele>
        <time>2022-02-25T13:41:19Z</time>
      </trkpt>
      <trkpt lat="44.79564" lon="6.9911">
        <ele>2293.2</ele>
        <time>2022-02-25T13:41:20Z</time>
      </trkpt>
      <trkpt lat="44.79564" lon="6.9911">
        <ele>2293.2</ele>
        <time>2022-02-25T13:41:21Z</time>
      </trkpt>
      <trkpt lat="44.79564" lon="6.99106">
        <ele>2292.1</ele>
        <time>2022-02-25T13:41:22Z</time>
      </trkpt>
      <trkpt lat="44.79564" lon="6.99106">
        <ele>2292.1</ele>
        <time>2022-02-25T13:41:23Z</time>
      </trkpt>
      <trkpt lat="44.79562" lon="6.99102">
        <ele>2290.6</ele>
        <time>2022-02-25T13:41:24Z</time>
      </trkpt>
      <trkpt lat="44.79562" lon="6.99102">
        <ele>2290.6</ele>
        <time>2022-02-25T13:41:25Z</time>
      </trkpt>
      <trkpt lat="44.79563" lon="6.99099">
        <ele>2290</ele>
        <time>2022-02-25T13:41:26Z</time>
      </trkpt>
      <trkpt lat="44.79563" lon="6.99099">
        <ele>2290</ele>
        <time>2022-02-25T13:41:27Z</time>
      </trkpt>
      <trkpt lat="44.79565" lon="6.99095">
        <ele>2289.3</ele>
        <time>2022-02-25T13:41:28Z</time>
      </trkpt>
      <trkpt lat="44.79566" lon="6.99093">
        <ele>2288.9</ele>
        <time>2022-02-25T13:41:29Z</time>
      </trkpt>
      <trkpt lat="44.79567" lon="6.9909">
        <ele>2288.3</ele>
        <time>2022-02-25T13:41:30Z</time>
      </trkpt>
      <trkpt lat="44.79568" lon="6.99087">
        <ele>2287.7</ele>
        <time>2022-02-25T13:41:31Z</time>
      </trkpt>
      <trkpt lat="44.79568" lon="6.99087">
        <ele>2287.7</ele>
        <time>2022-02-25T13:41:32Z</time>
      </trkpt>
      <trkpt lat="44.79567" lon="6.99083">
        <ele>2286.4</ele>
        <time>2022-02-25T13:41:33Z</time>
      </trkpt>
      <trkpt lat="44.79567" lon="6.99083">
        <ele>2286.4</ele>
        <time>2022-02-25T13:41:34Z</time>
      </trkpt>
      <trkpt lat="44.79566" lon="6.99079">
        <ele>2285.4</ele>
        <time>2022-02-25T13:41:35Z</time>
      </trkpt>
      <trkpt lat="44.79567" lon="6.99076">
        <ele>2285.1</ele>
        <time>2022-02-25T13:41:36Z</time>
      </trkpt>
      <trkpt lat="44.79567" lon="6.99072">
        <ele>2284.4</ele>
        <time>2022-02-25T13:41:37Z</time>
      </trkpt>
      <trkpt lat="44.79567" lon="6.99069">
        <ele>2283.8</ele>
        <time>2022-02-25T13:41:38Z</time>
      </trkpt>
      <trkpt lat="44.79567" lon="6.99064">
        <ele>2282.9</ele>
        <time>2022-02-25T13:41:39Z</time>
      </trkpt>
      <trkpt lat="44.79566" lon="6.99061">
        <ele>2282</ele>
        <time>2022-02-25T13:41:40Z</time>
      </trkpt>
      <trkpt lat="44.79566" lon="6.99061">
        <ele>2282</ele>
        <time>2022-02-25T13:41:41Z</time>
      </trkpt>
      <trkpt lat="44.79566" lon="6.99058">
        <ele>2281.5</ele>
        <time>2022-02-25T13:41:42Z</time>
      </trkpt>
      <trkpt lat="44.79566" lon="6.99058">
        <ele>2281.5</ele>
        <time>2022-02-25T13:41:43Z</time>
      </trkpt>
      <trkpt lat="44.79565" lon="6.99053">
        <ele>2280.3</ele>
        <time>2022-02-25T13:41:44Z</time>
      </trkpt>
      <trkpt lat="44.79564" lon="6.99049">
        <ele>2279.4</ele>
        <time>2022-02-25T13:41:45Z</time>
      </trkpt>
      <trkpt lat="44.79564" lon="6.99046">
        <ele>2279</ele>
        <time>2022-02-25T13:41:46Z</time>
      </trkpt>
      <trkpt lat="44.79564" lon="6.99043">
        <ele>2278.5</ele>
        <time>2022-02-25T13:41:47Z</time>
      </trkpt>
      <trkpt lat="44.79563" lon="6.9904">
        <ele>2277.8</ele>
        <time>2022-02-25T13:41:48Z</time>
      </trkpt>
      <trkpt lat="44.79562" lon="6.99035">
        <ele>2276.7</ele>
        <time>2022-02-25T13:41:49Z</time>
      </trkpt>
      <trkpt lat="44.7956" lon="6.99031">
        <ele>2275.6</ele>
        <time>2022-02-25T13:41:50Z</time>
      </trkpt>
      <trkpt lat="44.79559" lon="6.99028">
        <ele>2274.9</ele>
        <time>2022-02-25T13:41:51Z</time>
      </trkpt>
      <trkpt lat="44.79557" lon="6.99024">
        <ele>2273.7</ele>
        <time>2022-02-25T13:41:52Z</time>
      </trkpt>
      <trkpt lat="44.79557" lon="6.99021">
        <ele>2273.1</ele>
        <time>2022-02-25T13:41:53Z</time>
      </trkpt>
      <trkpt lat="44.79557" lon="6.99016">
        <ele>2272.2</ele>
        <time>2022-02-25T13:41:54Z</time>
      </trkpt>
      <trkpt lat="44.79558" lon="6.99014">
        <ele>2272.1</ele>
        <time>2022-02-25T13:41:55Z</time>
      </trkpt>
      <trkpt lat="44.79559" lon="6.99012">
        <ele>2272</ele>
        <time>2022-02-25T13:41:56Z</time>
      </trkpt>
      <trkpt lat="44.79561" lon="6.99011">
        <ele>2272.2</ele>
        <time>2022-02-25T13:41:57Z</time>
      </trkpt>
      <trkpt lat="44.79563" lon="6.99009">
        <ele>2272.3</ele>
        <time>2022-02-25T13:41:58Z</time>
      </trkpt>
      <trkpt lat="44.79562" lon="6.99006">
        <ele>2271.5</ele>
        <time>2022-02-25T13:41:59Z</time>
      </trkpt>
      <trkpt lat="44.79561" lon="6.99003">
        <ele>2270.7</ele>
        <time>2022-02-25T13:42:00Z</time>
      </trkpt>
      <trkpt lat="44.79559" lon="6.98999">
        <ele>2269.6</ele>
        <time>2022-02-25T13:42:01Z</time>
      </trkpt>
      <trkpt lat="44.79558" lon="6.98993">
        <ele>2268.7</ele>
        <time>2022-02-25T13:42:02Z</time>
      </trkpt>
      <trkpt lat="44.79556" lon="6.98987">
        <ele>2267.7</ele>
        <time>2022-02-25T13:42:03Z</time>
      </trkpt>
      <trkpt lat="44.79556" lon="6.9898">
        <ele>2266.9</ele>
        <time>2022-02-25T13:42:04Z</time>
      </trkpt>
      <trkpt lat="44.79555" lon="6.98973">
        <ele>2266.3</ele>
        <time>2022-02-25T13:42:05Z</time>
      </trkpt>
      <trkpt lat="44.79555" lon="6.98966">
        <ele>2265.5</ele>
        <time>2022-02-25T13:42:06Z</time>
      </trkpt>
      <trkpt lat="44.79556" lon="6.98959">
        <ele>2264.6</ele>
        <time>2022-02-25T13:42:07Z</time>
      </trkpt>
      <trkpt lat="44.79556" lon="6.98952">
        <ele>2263.9</ele>
        <time>2022-02-25T13:42:08Z</time>
      </trkpt>
      <trkpt lat="44.79557" lon="6.98945">
        <ele>2263.2</ele>
        <time>2022-02-25T13:42:09Z</time>
      </trkpt>
      <trkpt lat="44.79557" lon="6.98938">
        <ele>2261.7</ele>
        <time>2022-02-25T13:42:10Z</time>
      </trkpt>
      <trkpt lat="44.79557" lon="6.98938">
        <ele>2261.7</ele>
        <time>2022-02-25T13:42:11Z</time>
      </trkpt>
      <trkpt lat="44.79557" lon="6.98924">
        <ele>2258.8</ele>
        <time>2022-02-25T13:42:12Z</time>
      </trkpt>
      <trkpt lat="44.79558" lon="6.98914">
        <ele>2256.8</ele>
        <time>2022-02-25T13:42:13Z</time>
      </trkpt>
      <trkpt lat="44.79559" lon="6.98911">
        <ele>2256.3</ele>
        <time>2022-02-25T13:42:14Z</time>
      </trkpt>
      <trkpt lat="44.79559" lon="6.98904">
        <ele>2254.9</ele>
        <time>2022-02-25T13:42:15Z</time>
      </trkpt>
      <trkpt lat="44.79559" lon="6.98898">
        <ele>2253.6</ele>
        <time>2022-02-25T13:42:16Z</time>
      </trkpt>
      <trkpt lat="44.79558" lon="6.98891">
        <ele>2252</ele>
        <time>2022-02-25T13:42:17Z</time>
      </trkpt>
      <trkpt lat="44.79557" lon="6.98884">
        <ele>2250.6</ele>
        <time>2022-02-25T13:42:18Z</time>
      </trkpt>
      <trkpt lat="44.79556" lon="6.98876">
        <ele>2249.2</ele>
        <time>2022-02-25T13:42:19Z</time>
      </trkpt>
      <trkpt lat="44.79554" lon="6.98868">
        <ele>2249</ele>
        <time>2022-02-25T13:42:20Z</time>
      </trkpt>
      <trkpt lat="44.79553" lon="6.98859">
        <ele>2248.8</ele>
        <time>2022-02-25T13:42:21Z</time>
      </trkpt>
      <trkpt lat="44.79553" lon="6.9885">
        <ele>2249</ele>
        <time>2022-02-25T13:42:22Z</time>
      </trkpt>
      <trkpt lat="44.79553" lon="6.98843">
        <ele>2249.1</ele>
        <time>2022-02-25T13:42:23Z</time>
      </trkpt>
      <trkpt lat="44.79553" lon="6.98838">
        <ele>2249.2</ele>
        <time>2022-02-25T13:42:24Z</time>
      </trkpt>
      <trkpt lat="44.79554" lon="6.98833">
        <ele>2248.8</ele>
        <time>2022-02-25T13:42:25Z</time>
      </trkpt>
      <trkpt lat="44.79554" lon="6.98829">
        <ele>2248.6</ele>
        <time>2022-02-25T13:42:26Z</time>
      </trkpt>
      <trkpt lat="44.79554" lon="6.98826">
        <ele>2248.5</ele>
        <time>2022-02-25T13:42:27Z</time>
      </trkpt>
      <trkpt lat="44.79553" lon="6.98822">
        <ele>2248.8</ele>
        <time>2022-02-25T13:42:28Z</time>
      </trkpt>
      <trkpt lat="44.79552" lon="6.98817">
        <ele>2249.1</ele>
        <time>2022-02-25T13:42:29Z</time>
      </trkpt>
      <trkpt lat="44.79551" lon="6.98812">
        <ele>2249.4</ele>
        <time>2022-02-25T13:42:30Z</time>
      </trkpt>
      <trkpt lat="44.79551" lon="6.98805">
        <ele>2249.1</ele>
        <time>2022-02-25T13:42:31Z</time>
      </trkpt>
      <trkpt lat="44.7955" lon="6.98798">
        <ele>2248.8</ele>
        <time>2022-02-25T13:42:32Z</time>
      </trkpt>
      <trkpt lat="44.7955" lon="6.98791">
        <ele>2248.1</ele>
        <time>2022-02-25T13:42:33Z</time>
      </trkpt>
      <trkpt lat="44.79549" lon="6.98784">
        <ele>2247.8</ele>
        <time>2022-02-25T13:42:34Z</time>
      </trkpt>
      <trkpt lat="44.79549" lon="6.98778">
        <ele>2247.1</ele>
        <time>2022-02-25T13:42:35Z</time>
      </trkpt>
      <trkpt lat="44.79548" lon="6.98772">
        <ele>2247.1</ele>
        <time>2022-02-25T13:42:36Z</time>
      </trkpt>
      <trkpt lat="44.79546" lon="6.98765">
        <ele>2247.3</ele>
        <time>2022-02-25T13:42:37Z</time>
      </trkpt>
      <trkpt lat="44.79546" lon="6.98759">
        <ele>2247</ele>
        <time>2022-02-25T13:42:38Z</time>
      </trkpt>
      <trkpt lat="44.79545" lon="6.98753">
        <ele>2246.9</ele>
        <time>2022-02-25T13:42:39Z</time>
      </trkpt>
      <trkpt lat="44.79546" lon="6.98748">
        <ele>2246.5</ele>
        <time>2022-02-25T13:42:40Z</time>
      </trkpt>
      <trkpt lat="44.79547" lon="6.98742">
        <ele>2246.5</ele>
        <time>2022-02-25T13:42:41Z</time>
      </trkpt>
      <trkpt lat="44.79548" lon="6.98738">
        <ele>2246.5</ele>
        <time>2022-02-25T13:42:42Z</time>
      </trkpt>
      <trkpt lat="44.79549" lon="6.98734">
        <ele>2246.4</ele>
        <time>2022-02-25T13:42:43Z</time>
      </trkpt>
      <trkpt lat="44.7955" lon="6.98731">
        <ele>2246.2</ele>
        <time>2022-02-25T13:42:44Z</time>
      </trkpt>
      <trkpt lat="44.79551" lon="6.98728">
        <ele>2246.1</ele>
        <time>2022-02-25T13:42:45Z</time>
      </trkpt>
      <trkpt lat="44.79552" lon="6.98724">
        <ele>2246</ele>
        <time>2022-02-25T13:42:46Z</time>
      </trkpt>
      <trkpt lat="44.79554" lon="6.9872">
        <ele>2245.7</ele>
        <time>2022-02-25T13:42:47Z</time>
      </trkpt>
      <trkpt lat="44.79556" lon="6.98715">
        <ele>2245.7</ele>
        <time>2022-02-25T13:42:48Z</time>
      </trkpt>
      <trkpt lat="44.79557" lon="6.98712">
        <ele>2245.8</ele>
        <time>2022-02-25T13:42:49Z</time>
      </trkpt>
      <trkpt lat="44.79557" lon="6.98709">
        <ele>2246.1</ele>
        <time>2022-02-25T13:42:50Z</time>
      </trkpt>
      <trkpt lat="44.79558" lon="6.98706">
        <ele>2246.2</ele>
        <time>2022-02-25T13:42:51Z</time>
      </trkpt>
      <trkpt lat="44.79559" lon="6.98704">
        <ele>2246.1</ele>
        <time>2022-02-25T13:42:52Z</time>
      </trkpt>
      <trkpt lat="44.79559" lon="6.98704">
        <ele>2246.1</ele>
        <time>2022-02-25T13:42:53Z</time>
      </trkpt>
      <trkpt lat="44.7956" lon="6.98701">
        <ele>2246.1</ele>
        <time>2022-02-25T13:42:54Z</time>
      </trkpt>
      <trkpt lat="44.7956" lon="6.98701">
        <ele>2246.1</ele>
        <time>2022-02-25T13:42:55Z</time>
      </trkpt>
      <trkpt lat="44.7956" lon="6.98701">
        <ele>2246.1</ele>
        <time>2022-02-25T13:42:56Z</time>
      </trkpt>
      <trkpt lat="44.7956" lon="6.98701">
        <ele>2246.1</ele>
        <time>2022-02-25T13:42:57Z</time>
      </trkpt>
      <trkpt lat="44.7956" lon="6.98701">
        <ele>2246.1</ele>
        <time>2022-02-25T13:42:58Z</time>
      </trkpt>
      <trkpt lat="44.79561" lon="6.98699">
        <ele>2246</ele>
        <time>2022-02-25T13:42:59Z</time>
      </trkpt>
      <trkpt lat="44.79561" lon="6.98699">
        <ele>2246</ele>
        <time>2022-02-25T13:43:00Z</time>
      </trkpt>
      <trkpt lat="44.79561" lon="6.98699">
        <ele>2246</ele>
        <time>2022-02-25T13:43:01Z</time>
      </trkpt>
      <trkpt lat="44.79562" lon="6.98696">
        <ele>2246</ele>
        <time>2022-02-25T13:43:02Z</time>
      </trkpt>
      <trkpt lat="44.79562" lon="6.98696">
        <ele>2246</ele>
        <time>2022-02-25T13:43:03Z</time>
      </trkpt>
      <trkpt lat="44.79563" lon="6.98694">
        <ele>2245.9</ele>
        <time>2022-02-25T13:43:04Z</time>
      </trkpt>
      <trkpt lat="44.79563" lon="6.98694">
        <ele>2245.9</ele>
        <time>2022-02-25T13:43:05Z</time>
      </trkpt>
      <trkpt lat="44.79563" lon="6.98694">
        <ele>2245.9</ele>
        <time>2022-02-25T13:43:06Z</time>
      </trkpt>
      <trkpt lat="44.79563" lon="6.98694">
        <ele>2245.9</ele>
        <time>2022-02-25T13:43:07Z</time>
      </trkpt>
      <trkpt lat="44.79564" lon="6.98691">
        <ele>2245.9</ele>
        <time>2022-02-25T13:43:08Z</time>
      </trkpt>
      <trkpt lat="44.79564" lon="6.98691">
        <ele>2245.9</ele>
        <time>2022-02-25T13:43:09Z</time>
      </trkpt>
      <trkpt lat="44.79564" lon="6.98691">
        <ele>2245.9</ele>
        <time>2022-02-25T13:43:10Z</time>
      </trkpt>
      <trkpt lat="44.79564" lon="6.98691">
        <ele>2245.9</ele>
        <time>2022-02-25T13:43:11Z</time>
      </trkpt>
      <trkpt lat="44.79564" lon="6.98688">
        <ele>2246.1</ele>
        <time>2022-02-25T13:43:12Z</time>
      </trkpt>
      <trkpt lat="44.79564" lon="6.98688">
        <ele>2246.1</ele>
        <time>2022-02-25T13:43:13Z</time>
      </trkpt>
      <trkpt lat="44.79564" lon="6.98688">
        <ele>2246.1</ele>
        <time>2022-02-25T13:43:14Z</time>
      </trkpt>
      <trkpt lat="44.79564" lon="6.98684">
        <ele>2246.5</ele>
        <time>2022-02-25T13:43:15Z</time>
      </trkpt>
      <trkpt lat="44.79564" lon="6.98684">
        <ele>2246.5</ele>
        <time>2022-02-25T13:43:16Z</time>
      </trkpt>
      <trkpt lat="44.79564" lon="6.9868">
        <ele>2246.8</ele>
        <time>2022-02-25T13:43:17Z</time>
      </trkpt>
      <trkpt lat="44.79564" lon="6.9868">
        <ele>2246.8</ele>
        <time>2022-02-25T13:43:18Z</time>
      </trkpt>
      <trkpt lat="44.79565" lon="6.98677">
        <ele>2246.7</ele>
        <time>2022-02-25T13:43:19Z</time>
      </trkpt>
      <trkpt lat="44.79565" lon="6.98677">
        <ele>2246.7</ele>
        <time>2022-02-25T13:43:20Z</time>
      </trkpt>
      <trkpt lat="44.79565" lon="6.98677">
        <ele>2246.7</ele>
        <time>2022-02-25T13:43:21Z</time>
      </trkpt>
      <trkpt lat="44.79566" lon="6.98675">
        <ele>2246.6</ele>
        <time>2022-02-25T13:43:22Z</time>
      </trkpt>
      <trkpt lat="44.79566" lon="6.98675">
        <ele>2246.6</ele>
        <time>2022-02-25T13:43:23Z</time>
      </trkpt>
      <trkpt lat="44.79566" lon="6.98675">
        <ele>2246.6</ele>
        <time>2022-02-25T13:43:24Z</time>
      </trkpt>
      <trkpt lat="44.79567" lon="6.98671">
        <ele>2246.5</ele>
        <time>2022-02-25T13:43:25Z</time>
      </trkpt>
      <trkpt lat="44.79567" lon="6.98671">
        <ele>2246.5</ele>
        <time>2022-02-25T13:43:26Z</time>
      </trkpt>
      <trkpt lat="44.79567" lon="6.98671">
        <ele>2246.5</ele>
        <time>2022-02-25T13:43:27Z</time>
      </trkpt>
      <trkpt lat="44.79568" lon="6.98668">
        <ele>2246.4</ele>
        <time>2022-02-25T13:43:28Z</time>
      </trkpt>
      <trkpt lat="44.79568" lon="6.98668">
        <ele>2246.4</ele>
        <time>2022-02-25T13:43:29Z</time>
      </trkpt>
      <trkpt lat="44.79568" lon="6.98668">
        <ele>2246.4</ele>
        <time>2022-02-25T13:43:30Z</time>
      </trkpt>
      <trkpt lat="44.79568" lon="6.98668">
        <ele>2246.4</ele>
        <time>2022-02-25T13:43:31Z</time>
      </trkpt>
      <trkpt lat="44.79569" lon="6.98667">
        <ele>2246.1</ele>
        <time>2022-02-25T13:43:32Z</time>
      </trkpt>
      <trkpt lat="44.79569" lon="6.98667">
        <ele>2246.1</ele>
        <time>2022-02-25T13:43:33Z</time>
      </trkpt>
      <trkpt lat="44.79569" lon="6.98667">
        <ele>2246.1</ele>
        <time>2022-02-25T13:43:34Z</time>
      </trkpt>
      <trkpt lat="44.79569" lon="6.98667">
        <ele>2246.1</ele>
        <time>2022-02-25T13:43:35Z</time>
      </trkpt>
      <trkpt lat="44.79571" lon="6.98664">
        <ele>2245.8</ele>
        <time>2022-02-25T13:43:36Z</time>
      </trkpt>
      <trkpt lat="44.79571" lon="6.98664">
        <ele>2245.8</ele>
        <time>2022-02-25T13:43:37Z</time>
      </trkpt>
      <trkpt lat="44.79571" lon="6.98664">
        <ele>2245.8</ele>
        <time>2022-02-25T13:43:38Z</time>
      </trkpt>
      <trkpt lat="44.79571" lon="6.98664">
        <ele>2245.8</ele>
        <time>2022-02-25T13:43:39Z</time>
      </trkpt>
      <trkpt lat="44.79573" lon="6.98662">
        <ele>2245.3</ele>
        <time>2022-02-25T13:43:40Z</time>
      </trkpt>
      <trkpt lat="44.79573" lon="6.98662">
        <ele>2245.3</ele>
        <time>2022-02-25T13:43:41Z</time>
      </trkpt>
      <trkpt lat="44.79573" lon="6.98662">
        <ele>2245.3</ele>
        <time>2022-02-25T13:43:42Z</time>
      </trkpt>
      <trkpt lat="44.79574" lon="6.98659">
        <ele>2245.3</ele>
        <time>2022-02-25T13:43:43Z</time>
      </trkpt>
      <trkpt lat="44.79574" lon="6.98659">
        <ele>2245.3</ele>
        <time>2022-02-25T13:43:44Z</time>
      </trkpt>
      <trkpt lat="44.79574" lon="6.98659">
        <ele>2245.3</ele>
        <time>2022-02-25T13:43:45Z</time>
      </trkpt>
      <trkpt lat="44.79574" lon="6.98659">
        <ele>2245.3</ele>
        <time>2022-02-25T13:43:46Z</time>
      </trkpt>
      <trkpt lat="44.79575" lon="6.98657">
        <ele>2245.1</ele>
        <time>2022-02-25T13:43:47Z</time>
      </trkpt>
      <trkpt lat="44.79575" lon="6.98657">
        <ele>2245.1</ele>
        <time>2022-02-25T13:43:48Z</time>
      </trkpt>
      <trkpt lat="44.79575" lon="6.98654">
        <ele>2245.5</ele>
        <time>2022-02-25T13:43:49Z</time>
      </trkpt>
      <trkpt lat="44.79575" lon="6.98654">
        <ele>2245.5</ele>
        <time>2022-02-25T13:43:50Z</time>
      </trkpt>
      <trkpt lat="44.79575" lon="6.98654">
        <ele>2245.5</ele>
        <time>2022-02-25T13:43:51Z</time>
      </trkpt>
      <trkpt lat="44.79575" lon="6.98654">
        <ele>2245.5</ele>
        <time>2022-02-25T13:43:52Z</time>
      </trkpt>
      <trkpt lat="44.79575" lon="6.98654">
        <ele>2245.5</ele>
        <time>2022-02-25T13:43:53Z</time>
      </trkpt>
      <trkpt lat="44.79575" lon="6.98652">
        <ele>2245.7</ele>
        <time>2022-02-25T13:43:54Z</time>
      </trkpt>
      <trkpt lat="44.79575" lon="6.98652">
        <ele>2245.7</ele>
        <time>2022-02-25T13:43:55Z</time>
      </trkpt>
      <trkpt lat="44.79575" lon="6.98652">
        <ele>2245.7</ele>
        <time>2022-02-25T13:43:56Z</time>
      </trkpt>
      <trkpt lat="44.79575" lon="6.98652">
        <ele>2245.7</ele>
        <time>2022-02-25T13:43:57Z</time>
      </trkpt>
      <trkpt lat="44.79575" lon="6.98652">
        <ele>2245.7</ele>
        <time>2022-02-25T13:43:58Z</time>
      </trkpt>
      <trkpt lat="44.79576" lon="6.98648">
        <ele>2245.8</ele>
        <time>2022-02-25T13:43:59Z</time>
      </trkpt>
      <trkpt lat="44.79576" lon="6.98648">
        <ele>2245.8</ele>
        <time>2022-02-25T13:44:00Z</time>
      </trkpt>
      <trkpt lat="44.79576" lon="6.98648">
        <ele>2245.8</ele>
        <time>2022-02-25T13:44:01Z</time>
      </trkpt>
      <trkpt lat="44.79576" lon="6.98648">
        <ele>2245.8</ele>
        <time>2022-02-25T13:44:02Z</time>
      </trkpt>
      <trkpt lat="44.79576" lon="6.98645">
        <ele>2246.2</ele>
        <time>2022-02-25T13:44:03Z</time>
      </trkpt>
      <trkpt lat="44.79576" lon="6.98645">
        <ele>2246.2</ele>
        <time>2022-02-25T13:44:04Z</time>
      </trkpt>
      <trkpt lat="44.79576" lon="6.98645">
        <ele>2246.2</ele>
        <time>2022-02-25T13:44:05Z</time>
      </trkpt>
      <trkpt lat="44.79577" lon="6.98642">
        <ele>2246.1</ele>
        <time>2022-02-25T13:44:06Z</time>
      </trkpt>
      <trkpt lat="44.79577" lon="6.98642">
        <ele>2246.1</ele>
        <time>2022-02-25T13:44:07Z</time>
      </trkpt>
      <trkpt lat="44.79577" lon="6.98642">
        <ele>2246.1</ele>
        <time>2022-02-25T13:44:08Z</time>
      </trkpt>
      <trkpt lat="44.79577" lon="6.98639">
        <ele>2246.5</ele>
        <time>2022-02-25T13:44:09Z</time>
      </trkpt>
      <trkpt lat="44.79577" lon="6.98639">
        <ele>2246.5</ele>
        <time>2022-02-25T13:44:10Z</time>
      </trkpt>
      <trkpt lat="44.79577" lon="6.98639">
        <ele>2246.5</ele>
        <time>2022-02-25T13:44:11Z</time>
      </trkpt>
      <trkpt lat="44.79577" lon="6.98639">
        <ele>2246.5</ele>
        <time>2022-02-25T13:44:12Z</time>
      </trkpt>
      <trkpt lat="44.79578" lon="6.98637">
        <ele>2246.4</ele>
        <time>2022-02-25T13:44:13Z</time>
      </trkpt>
      <trkpt lat="44.79578" lon="6.98637">
        <ele>2246.4</ele>
        <time>2022-02-25T13:44:14Z</time>
      </trkpt>
      <trkpt lat="44.79578" lon="6.98637">
        <ele>2246.4</ele>
        <time>2022-02-25T13:44:15Z</time>
      </trkpt>
      <trkpt lat="44.79578" lon="6.98637">
        <ele>2246.4</ele>
        <time>2022-02-25T13:44:16Z</time>
      </trkpt>
      <trkpt lat="44.79578" lon="6.98637">
        <ele>2246.4</ele>
        <time>2022-02-25T13:44:17Z</time>
      </trkpt>
      <trkpt lat="44.79578" lon="6.98633">
        <ele>2246.9</ele>
        <time>2022-02-25T13:44:18Z</time>
      </trkpt>
      <trkpt lat="44.79578" lon="6.98633">
        <ele>2246.9</ele>
        <time>2022-02-25T13:44:19Z</time>
      </trkpt>
      <trkpt lat="44.79578" lon="6.98633">
        <ele>2246.9</ele>
        <time>2022-02-25T13:44:20Z</time>
      </trkpt>
      <trkpt lat="44.79578" lon="6.98633">
        <ele>2246.9</ele>
        <time>2022-02-25T13:44:21Z</time>
      </trkpt>
      <trkpt lat="44.79578" lon="6.98633">
        <ele>2246.9</ele>
        <time>2022-02-25T13:44:22Z</time>
      </trkpt>
      <trkpt lat="44.79578" lon="6.98633">
        <ele>2246.9</ele>
        <time>2022-02-25T13:44:23Z</time>
      </trkpt>
      <trkpt lat="44.79578" lon="6.98633">
        <ele>2246.9</ele>
        <time>2022-02-25T13:44:24Z</time>
      </trkpt>
      <trkpt lat="44.79578" lon="6.98633">
        <ele>2246.9</ele>
        <time>2022-02-25T13:44:25Z</time>
      </trkpt>
      <trkpt lat="44.79578" lon="6.98633">
        <ele>2246.9</ele>
        <time>2022-02-25T13:44:26Z</time>
      </trkpt>
      <trkpt lat="44.79578" lon="6.98633">
        <ele>2246.9</ele>
        <time>2022-02-25T13:44:27Z</time>
      </trkpt>
      <trkpt lat="44.79579" lon="6.98631">
        <ele>2246.7</ele>
        <time>2022-02-25T13:44:28Z</time>
      </trkpt>
      <trkpt lat="44.79579" lon="6.98631">
        <ele>2246.7</ele>
        <time>2022-02-25T13:44:29Z</time>
      </trkpt>
      <trkpt lat="44.79579" lon="6.98631">
        <ele>2246.7</ele>
        <time>2022-02-25T13:44:30Z</time>
      </trkpt>
      <trkpt lat="44.7958" lon="6.98628">
        <ele>2246.6</ele>
        <time>2022-02-25T13:44:31Z</time>
      </trkpt>
      <trkpt lat="44.7958" lon="6.98628">
        <ele>2246.6</ele>
        <time>2022-02-25T13:44:32Z</time>
      </trkpt>
      <trkpt lat="44.7958" lon="6.98628">
        <ele>2246.6</ele>
        <time>2022-02-25T13:44:33Z</time>
      </trkpt>
      <trkpt lat="44.79581" lon="6.98625">
        <ele>2246.5</ele>
        <time>2022-02-25T13:44:34Z</time>
      </trkpt>
      <trkpt lat="44.79581" lon="6.98625">
        <ele>2246.5</ele>
        <time>2022-02-25T13:44:35Z</time>
      </trkpt>
      <trkpt lat="44.79581" lon="6.98625">
        <ele>2246.5</ele>
        <time>2022-02-25T13:44:36Z</time>
      </trkpt>
      <trkpt lat="44.79581" lon="6.98625">
        <ele>2246.5</ele>
        <time>2022-02-25T13:44:37Z</time>
      </trkpt>
      <trkpt lat="44.79581" lon="6.98625">
        <ele>2246.5</ele>
        <time>2022-02-25T13:44:38Z</time>
      </trkpt>
      <trkpt lat="44.79581" lon="6.98622">
        <ele>2246.9</ele>
        <time>2022-02-25T13:44:39Z</time>
      </trkpt>
      <trkpt lat="44.79581" lon="6.98622">
        <ele>2246.9</ele>
        <time>2022-02-25T13:44:40Z</time>
      </trkpt>
      <trkpt lat="44.79581" lon="6.98622">
        <ele>2246.9</ele>
        <time>2022-02-25T13:44:41Z</time>
      </trkpt>
      <trkpt lat="44.79581" lon="6.98622">
        <ele>2246.9</ele>
        <time>2022-02-25T13:44:42Z</time>
      </trkpt>
      <trkpt lat="44.79581" lon="6.98622">
        <ele>2246.9</ele>
        <time>2022-02-25T13:44:43Z</time>
      </trkpt>
      <trkpt lat="44.79582" lon="6.98619">
        <ele>2246.8</ele>
        <time>2022-02-25T13:44:44Z</time>
      </trkpt>
      <trkpt lat="44.79582" lon="6.98619">
        <ele>2246.8</ele>
        <time>2022-02-25T13:44:45Z</time>
      </trkpt>
      <trkpt lat="44.79582" lon="6.98619">
        <ele>2246.8</ele>
        <time>2022-02-25T13:44:46Z</time>
      </trkpt>
      <trkpt lat="44.79582" lon="6.98619">
        <ele>2246.8</ele>
        <time>2022-02-25T13:44:47Z</time>
      </trkpt>
      <trkpt lat="44.79582" lon="6.98616">
        <ele>2247.1</ele>
        <time>2022-02-25T13:44:48Z</time>
      </trkpt>
      <trkpt lat="44.79582" lon="6.98616">
        <ele>2247.1</ele>
        <time>2022-02-25T13:44:49Z</time>
      </trkpt>
      <trkpt lat="44.79582" lon="6.98612">
        <ele>2247.6</ele>
        <time>2022-02-25T13:44:50Z</time>
      </trkpt>
      <trkpt lat="44.79583" lon="6.98609">
        <ele>2247.2</ele>
        <time>2022-02-25T13:44:51Z</time>
      </trkpt>
      <trkpt lat="44.79583" lon="6.98606">
        <ele>2247.4</ele>
        <time>2022-02-25T13:44:52Z</time>
      </trkpt>
      <trkpt lat="44.79585" lon="6.98602">
        <ele>2246.6</ele>
        <time>2022-02-25T13:44:53Z</time>
      </trkpt>
      <trkpt lat="44.79586" lon="6.98597">
        <ele>2246.4</ele>
        <time>2022-02-25T13:44:54Z</time>
      </trkpt>
      <trkpt lat="44.79587" lon="6.98592">
        <ele>2246.2</ele>
        <time>2022-02-25T13:44:55Z</time>
      </trkpt>
      <trkpt lat="44.79589" lon="6.98585">
        <ele>2245.7</ele>
        <time>2022-02-25T13:44:56Z</time>
      </trkpt>
      <trkpt lat="44.79592" lon="6.98579">
        <ele>2244.9</ele>
        <time>2022-02-25T13:44:57Z</time>
      </trkpt>
      <trkpt lat="44.79594" lon="6.98573">
        <ele>2244.6</ele>
        <time>2022-02-25T13:44:58Z</time>
      </trkpt>
      <trkpt lat="44.79596" lon="6.98568">
        <ele>2244.3</ele>
        <time>2022-02-25T13:44:59Z</time>
      </trkpt>
      <trkpt lat="44.79597" lon="6.98565">
        <ele>2244.2</ele>
        <time>2022-02-25T13:45:00Z</time>
      </trkpt>
      <trkpt lat="44.79597" lon="6.98565">
        <ele>2244.2</ele>
        <time>2022-02-25T13:45:01Z</time>
      </trkpt>
      <trkpt lat="44.79597" lon="6.98562">
        <ele>2244.5</ele>
        <time>2022-02-25T13:45:02Z</time>
      </trkpt>
      <trkpt lat="44.79597" lon="6.98562">
        <ele>2244.5</ele>
        <time>2022-02-25T13:45:03Z</time>
      </trkpt>
      <trkpt lat="44.79597" lon="6.98562">
        <ele>2244.5</ele>
        <time>2022-02-25T13:45:04Z</time>
      </trkpt>
      <trkpt lat="44.79597" lon="6.98562">
        <ele>2244.5</ele>
        <time>2022-02-25T13:45:05Z</time>
      </trkpt>
      <trkpt lat="44.79597" lon="6.98559">
        <ele>2244.8</ele>
        <time>2022-02-25T13:45:06Z</time>
      </trkpt>
      <trkpt lat="44.79597" lon="6.98559">
        <ele>2244.8</ele>
        <time>2022-02-25T13:45:07Z</time>
      </trkpt>
      <trkpt lat="44.79597" lon="6.98559">
        <ele>2244.8</ele>
        <time>2022-02-25T13:45:08Z</time>
      </trkpt>
      <trkpt lat="44.79597" lon="6.98559">
        <ele>2244.8</ele>
        <time>2022-02-25T13:45:09Z</time>
      </trkpt>
      <trkpt lat="44.79597" lon="6.98559">
        <ele>2244.8</ele>
        <time>2022-02-25T13:45:10Z</time>
      </trkpt>
      <trkpt lat="44.79597" lon="6.98559">
        <ele>2244.8</ele>
        <time>2022-02-25T13:45:11Z</time>
      </trkpt>
      <trkpt lat="44.79597" lon="6.98557">
        <ele>2244.9</ele>
        <time>2022-02-25T13:45:12Z</time>
      </trkpt>
      <trkpt lat="44.79597" lon="6.98557">
        <ele>2244.9</ele>
        <time>2022-02-25T13:45:13Z</time>
      </trkpt>
      <trkpt lat="44.79597" lon="6.98557">
        <ele>2244.9</ele>
        <time>2022-02-25T13:45:14Z</time>
      </trkpt>
      <trkpt lat="44.79597" lon="6.98557">
        <ele>2244.9</ele>
        <time>2022-02-25T13:45:15Z</time>
      </trkpt>
      <trkpt lat="44.79597" lon="6.98557">
        <ele>2244.9</ele>
        <time>2022-02-25T13:45:16Z</time>
      </trkpt>
      <trkpt lat="44.79595" lon="6.98555">
        <ele>2245.7</ele>
        <time>2022-02-25T13:45:17Z</time>
      </trkpt>
      <trkpt lat="44.79595" lon="6.98555">
        <ele>2245.7</ele>
        <time>2022-02-25T13:45:18Z</time>
      </trkpt>
      <trkpt lat="44.79595" lon="6.98555">
        <ele>2245.7</ele>
        <time>2022-02-25T13:45:19Z</time>
      </trkpt>
      <trkpt lat="44.79595" lon="6.98555">
        <ele>2245.7</ele>
        <time>2022-02-25T13:45:20Z</time>
      </trkpt>
      <trkpt lat="44.79595" lon="6.98555">
        <ele>2245.7</ele>
        <time>2022-02-25T13:45:21Z</time>
      </trkpt>
      <trkpt lat="44.79595" lon="6.98555">
        <ele>2245.7</ele>
        <time>2022-02-25T13:45:22Z</time>
      </trkpt>
      <trkpt lat="44.79595" lon="6.98552">
        <ele>2245.9</ele>
        <time>2022-02-25T13:45:23Z</time>
      </trkpt>
      <trkpt lat="44.79595" lon="6.98552">
        <ele>2245.9</ele>
        <time>2022-02-25T13:45:24Z</time>
      </trkpt>
      <trkpt lat="44.79595" lon="6.98552">
        <ele>2245.9</ele>
        <time>2022-02-25T13:45:25Z</time>
      </trkpt>
      <trkpt lat="44.79595" lon="6.98552">
        <ele>2245.9</ele>
        <time>2022-02-25T13:45:26Z</time>
      </trkpt>
      <trkpt lat="44.79593" lon="6.98549">
        <ele>2246.8</ele>
        <time>2022-02-25T13:45:27Z</time>
      </trkpt>
      <trkpt lat="44.79593" lon="6.98549">
        <ele>2246.8</ele>
        <time>2022-02-25T13:45:28Z</time>
      </trkpt>
      <trkpt lat="44.79593" lon="6.98549">
        <ele>2246.8</ele>
        <time>2022-02-25T13:45:29Z</time>
      </trkpt>
      <trkpt lat="44.79593" lon="6.98546">
        <ele>2247</ele>
        <time>2022-02-25T13:45:30Z</time>
      </trkpt>
      <trkpt lat="44.79593" lon="6.98546">
        <ele>2247</ele>
        <time>2022-02-25T13:45:31Z</time>
      </trkpt>
      <trkpt lat="44.79593" lon="6.98546">
        <ele>2247</ele>
        <time>2022-02-25T13:45:32Z</time>
      </trkpt>
      <trkpt lat="44.79593" lon="6.98546">
        <ele>2247</ele>
        <time>2022-02-25T13:45:33Z</time>
      </trkpt>
      <trkpt lat="44.79593" lon="6.98544">
        <ele>2247.2</ele>
        <time>2022-02-25T13:45:34Z</time>
      </trkpt>
      <trkpt lat="44.79593" lon="6.98544">
        <ele>2247.2</ele>
        <time>2022-02-25T13:45:35Z</time>
      </trkpt>
      <trkpt lat="44.79593" lon="6.98544">
        <ele>2247.2</ele>
        <time>2022-02-25T13:45:36Z</time>
      </trkpt>
      <trkpt lat="44.79593" lon="6.98544">
        <ele>2247.2</ele>
        <time>2022-02-25T13:45:37Z</time>
      </trkpt>
      <trkpt lat="44.79593" lon="6.98544">
        <ele>2247.2</ele>
        <time>2022-02-25T13:45:38Z</time>
      </trkpt>
      <trkpt lat="44.79594" lon="6.98541">
        <ele>2247.2</ele>
        <time>2022-02-25T13:45:39Z</time>
      </trkpt>
      <trkpt lat="44.79594" lon="6.98541">
        <ele>2247.2</ele>
        <time>2022-02-25T13:45:40Z</time>
      </trkpt>
      <trkpt lat="44.79594" lon="6.98541">
        <ele>2247.2</ele>
        <time>2022-02-25T13:45:41Z</time>
      </trkpt>
      <trkpt lat="44.79595" lon="6.98538">
        <ele>2247.2</ele>
        <time>2022-02-25T13:45:42Z</time>
      </trkpt>
      <trkpt lat="44.79595" lon="6.98538">
        <ele>2247.2</ele>
        <time>2022-02-25T13:45:43Z</time>
      </trkpt>
      <trkpt lat="44.79596" lon="6.98536">
        <ele>2247.1</ele>
        <time>2022-02-25T13:45:44Z</time>
      </trkpt>
      <trkpt lat="44.79597" lon="6.98533">
        <ele>2247.1</ele>
        <time>2022-02-25T13:45:45Z</time>
      </trkpt>
      <trkpt lat="44.79597" lon="6.98533">
        <ele>2247.1</ele>
        <time>2022-02-25T13:45:46Z</time>
      </trkpt>
      <trkpt lat="44.79599" lon="6.98528">
        <ele>2247</ele>
        <time>2022-02-25T13:45:47Z</time>
      </trkpt>
      <trkpt lat="44.796" lon="6.98526">
        <ele>2247.1</ele>
        <time>2022-02-25T13:45:48Z</time>
      </trkpt>
      <trkpt lat="44.796" lon="6.98526">
        <ele>2247.1</ele>
        <time>2022-02-25T13:45:49Z</time>
      </trkpt>
      <trkpt lat="44.79602" lon="6.98522">
        <ele>2247.1</ele>
        <time>2022-02-25T13:45:50Z</time>
      </trkpt>
      <trkpt lat="44.79602" lon="6.98522">
        <ele>2247.1</ele>
        <time>2022-02-25T13:45:51Z</time>
      </trkpt>
      <trkpt lat="44.79603" lon="6.9852">
        <ele>2247.1</ele>
        <time>2022-02-25T13:45:52Z</time>
      </trkpt>
      <trkpt lat="44.79603" lon="6.9852">
        <ele>2247.1</ele>
        <time>2022-02-25T13:45:53Z</time>
      </trkpt>
      <trkpt lat="44.79605" lon="6.98518">
        <ele>2246.7</ele>
        <time>2022-02-25T13:45:54Z</time>
      </trkpt>
      <trkpt lat="44.79605" lon="6.98518">
        <ele>2246.7</ele>
        <time>2022-02-25T13:45:55Z</time>
      </trkpt>
      <trkpt lat="44.79605" lon="6.98513">
        <ele>2247.3</ele>
        <time>2022-02-25T13:45:56Z</time>
      </trkpt>
      <trkpt lat="44.79605" lon="6.98513">
        <ele>2247.3</ele>
        <time>2022-02-25T13:45:57Z</time>
      </trkpt>
      <trkpt lat="44.79605" lon="6.98513">
        <ele>2247.3</ele>
        <time>2022-02-25T13:45:58Z</time>
      </trkpt>
      <trkpt lat="44.79606" lon="6.9851">
        <ele>2247.3</ele>
        <time>2022-02-25T13:45:59Z</time>
      </trkpt>
      <trkpt lat="44.79606" lon="6.9851">
        <ele>2247.3</ele>
        <time>2022-02-25T13:46:00Z</time>
      </trkpt>
      <trkpt lat="44.79606" lon="6.9851">
        <ele>2247.3</ele>
        <time>2022-02-25T13:46:01Z</time>
      </trkpt>
      <trkpt lat="44.79607" lon="6.98507">
        <ele>2247.2</ele>
        <time>2022-02-25T13:46:02Z</time>
      </trkpt>
      <trkpt lat="44.79607" lon="6.98507">
        <ele>2247.2</ele>
        <time>2022-02-25T13:46:03Z</time>
      </trkpt>
      <trkpt lat="44.79607" lon="6.98507">
        <ele>2247.2</ele>
        <time>2022-02-25T13:46:04Z</time>
      </trkpt>
      <trkpt lat="44.79607" lon="6.98507">
        <ele>2247.2</ele>
        <time>2022-02-25T13:46:05Z</time>
      </trkpt>
      <trkpt lat="44.79608" lon="6.98504">
        <ele>2247.1</ele>
        <time>2022-02-25T13:46:06Z</time>
      </trkpt>
      <trkpt lat="44.79608" lon="6.98504">
        <ele>2247.1</ele>
        <time>2022-02-25T13:46:07Z</time>
      </trkpt>
      <trkpt lat="44.79608" lon="6.98504">
        <ele>2247.1</ele>
        <time>2022-02-25T13:46:08Z</time>
      </trkpt>
      <trkpt lat="44.79609" lon="6.98501">
        <ele>2246.9</ele>
        <time>2022-02-25T13:46:09Z</time>
      </trkpt>
      <trkpt lat="44.79609" lon="6.98501">
        <ele>2246.9</ele>
        <time>2022-02-25T13:46:10Z</time>
      </trkpt>
      <trkpt lat="44.79609" lon="6.98501">
        <ele>2246.9</ele>
        <time>2022-02-25T13:46:11Z</time>
      </trkpt>
      <trkpt lat="44.79609" lon="6.98501">
        <ele>2246.9</ele>
        <time>2022-02-25T13:46:12Z</time>
      </trkpt>
      <trkpt lat="44.79609" lon="6.98501">
        <ele>2246.9</ele>
        <time>2022-02-25T13:46:13Z</time>
      </trkpt>
      <trkpt lat="44.79609" lon="6.98501">
        <ele>2246.9</ele>
        <time>2022-02-25T13:46:14Z</time>
      </trkpt>
      <trkpt lat="44.79609" lon="6.98501">
        <ele>2246.9</ele>
        <time>2022-02-25T13:46:15Z</time>
      </trkpt>
      <trkpt lat="44.79609" lon="6.98501">
        <ele>2246.9</ele>
        <time>2022-02-25T13:46:16Z</time>
      </trkpt>
      <trkpt lat="44.79609" lon="6.98501">
        <ele>2246.9</ele>
        <time>2022-02-25T13:46:17Z</time>
      </trkpt>
      <trkpt lat="44.7961" lon="6.98498">
        <ele>2246.6</ele>
        <time>2022-02-25T13:46:18Z</time>
      </trkpt>
      <trkpt lat="44.7961" lon="6.98498">
        <ele>2246.6</ele>
        <time>2022-02-25T13:46:19Z</time>
      </trkpt>
      <trkpt lat="44.79611" lon="6.98496">
        <ele>2246.2</ele>
        <time>2022-02-25T13:46:20Z</time>
      </trkpt>
      <trkpt lat="44.79611" lon="6.98496">
        <ele>2246.2</ele>
        <time>2022-02-25T13:46:21Z</time>
      </trkpt>
      <trkpt lat="44.79612" lon="6.98494">
        <ele>2246.1</ele>
        <time>2022-02-25T13:46:22Z</time>
      </trkpt>
      <trkpt lat="44.79612" lon="6.98494">
        <ele>2246.1</ele>
        <time>2022-02-25T13:46:23Z</time>
      </trkpt>
      <trkpt lat="44.79613" lon="6.98491">
        <ele>2246</ele>
        <time>2022-02-25T13:46:24Z</time>
      </trkpt>
      <trkpt lat="44.79613" lon="6.98491">
        <ele>2246</ele>
        <time>2022-02-25T13:46:25Z</time>
      </trkpt>
      <trkpt lat="44.79615" lon="6.98488">
        <ele>2245.7</ele>
        <time>2022-02-25T13:46:26Z</time>
      </trkpt>
      <trkpt lat="44.79615" lon="6.98488">
        <ele>2245.7</ele>
        <time>2022-02-25T13:46:27Z</time>
      </trkpt>
      <trkpt lat="44.79616" lon="6.98486">
        <ele>2245.6</ele>
        <time>2022-02-25T13:46:28Z</time>
      </trkpt>
      <trkpt lat="44.79617" lon="6.98484">
        <ele>2245.5</ele>
        <time>2022-02-25T13:46:29Z</time>
      </trkpt>
      <trkpt lat="44.79617" lon="6.98484">
        <ele>2245.5</ele>
        <time>2022-02-25T13:46:30Z</time>
      </trkpt>
      <trkpt lat="44.79619" lon="6.9848">
        <ele>2245.3</ele>
        <time>2022-02-25T13:46:31Z</time>
      </trkpt>
      <trkpt lat="44.79619" lon="6.9848">
        <ele>2245.3</ele>
        <time>2022-02-25T13:46:32Z</time>
      </trkpt>
      <trkpt lat="44.79621" lon="6.98477">
        <ele>2245</ele>
        <time>2022-02-25T13:46:33Z</time>
      </trkpt>
      <trkpt lat="44.79623" lon="6.98476">
        <ele>2244.7</ele>
        <time>2022-02-25T13:46:34Z</time>
      </trkpt>
      <trkpt lat="44.79623" lon="6.98476">
        <ele>2244.7</ele>
        <time>2022-02-25T13:46:35Z</time>
      </trkpt>
      <trkpt lat="44.79624" lon="6.98474">
        <ele>2244.6</ele>
        <time>2022-02-25T13:46:36Z</time>
      </trkpt>
      <trkpt lat="44.79624" lon="6.98474">
        <ele>2244.6</ele>
        <time>2022-02-25T13:46:37Z</time>
      </trkpt>
      <trkpt lat="44.79624" lon="6.98474">
        <ele>2244.6</ele>
        <time>2022-02-25T13:46:38Z</time>
      </trkpt>
      <trkpt lat="44.79624" lon="6.98474">
        <ele>2244.6</ele>
        <time>2022-02-25T13:46:39Z</time>
      </trkpt>
      <trkpt lat="44.79626" lon="6.98471">
        <ele>2244.4</ele>
        <time>2022-02-25T13:46:40Z</time>
      </trkpt>
      <trkpt lat="44.79626" lon="6.98471">
        <ele>2244.4</ele>
        <time>2022-02-25T13:46:41Z</time>
      </trkpt>
      <trkpt lat="44.79627" lon="6.98468">
        <ele>2244.6</ele>
        <time>2022-02-25T13:46:42Z</time>
      </trkpt>
      <trkpt lat="44.79627" lon="6.98468">
        <ele>2244.6</ele>
        <time>2022-02-25T13:46:43Z</time>
      </trkpt>
      <trkpt lat="44.79629" lon="6.98465">
        <ele>2244.4</ele>
        <time>2022-02-25T13:46:44Z</time>
      </trkpt>
      <trkpt lat="44.79629" lon="6.98465">
        <ele>2244.4</ele>
        <time>2022-02-25T13:46:45Z</time>
      </trkpt>
      <trkpt lat="44.79631" lon="6.98462">
        <ele>2244.2</ele>
        <time>2022-02-25T13:46:46Z</time>
      </trkpt>
      <trkpt lat="44.79632" lon="6.9846">
        <ele>2244.1</ele>
        <time>2022-02-25T13:46:47Z</time>
      </trkpt>
      <trkpt lat="44.79633" lon="6.98457">
        <ele>2244.1</ele>
        <time>2022-02-25T13:46:48Z</time>
      </trkpt>
      <trkpt lat="44.79635" lon="6.98454">
        <ele>2243.7</ele>
        <time>2022-02-25T13:46:49Z</time>
      </trkpt>
      <trkpt lat="44.79636" lon="6.9845">
        <ele>2243.7</ele>
        <time>2022-02-25T13:46:50Z</time>
      </trkpt>
      <trkpt lat="44.79638" lon="6.98446">
        <ele>2243.2</ele>
        <time>2022-02-25T13:46:51Z</time>
      </trkpt>
      <trkpt lat="44.7964" lon="6.98442">
        <ele>2243.3</ele>
        <time>2022-02-25T13:46:52Z</time>
      </trkpt>
      <trkpt lat="44.79642" lon="6.98438">
        <ele>2243.6</ele>
        <time>2022-02-25T13:46:53Z</time>
      </trkpt>
      <trkpt lat="44.79643" lon="6.98435">
        <ele>2244</ele>
        <time>2022-02-25T13:46:54Z</time>
      </trkpt>
      <trkpt lat="44.79643" lon="6.98435">
        <ele>2244</ele>
        <time>2022-02-25T13:46:55Z</time>
      </trkpt>
      <trkpt lat="44.79645" lon="6.98433">
        <ele>2243.8</ele>
        <time>2022-02-25T13:46:56Z</time>
      </trkpt>
      <trkpt lat="44.79645" lon="6.98433">
        <ele>2243.8</ele>
        <time>2022-02-25T13:46:57Z</time>
      </trkpt>
      <trkpt lat="44.79645" lon="6.98433">
        <ele>2243.8</ele>
        <time>2022-02-25T13:46:58Z</time>
      </trkpt>
      <trkpt lat="44.79646" lon="6.98431">
        <ele>2243.8</ele>
        <time>2022-02-25T13:46:59Z</time>
      </trkpt>
      <trkpt lat="44.79646" lon="6.98431">
        <ele>2243.8</ele>
        <time>2022-02-25T13:47:00Z</time>
      </trkpt>
      <trkpt lat="44.79646" lon="6.98431">
        <ele>2243.8</ele>
        <time>2022-02-25T13:47:01Z</time>
      </trkpt>
      <trkpt lat="44.79646" lon="6.98431">
        <ele>2243.8</ele>
        <time>2022-02-25T13:47:02Z</time>
      </trkpt>
      <trkpt lat="44.79646" lon="6.98431">
        <ele>2243.8</ele>
        <time>2022-02-25T13:47:03Z</time>
      </trkpt>
      <trkpt lat="44.79647" lon="6.98429">
        <ele>2243.9</ele>
        <time>2022-02-25T13:47:04Z</time>
      </trkpt>
      <trkpt lat="44.79647" lon="6.98429">
        <ele>2243.9</ele>
        <time>2022-02-25T13:47:05Z</time>
      </trkpt>
      <trkpt lat="44.79647" lon="6.98429">
        <ele>2243.9</ele>
        <time>2022-02-25T13:47:06Z</time>
      </trkpt>
      <trkpt lat="44.79647" lon="6.98429">
        <ele>2243.9</ele>
        <time>2022-02-25T13:47:07Z</time>
      </trkpt>
      <trkpt lat="44.79647" lon="6.98426">
        <ele>2244.5</ele>
        <time>2022-02-25T13:47:08Z</time>
      </trkpt>
      <trkpt lat="44.79647" lon="6.98426">
        <ele>2244.5</ele>
        <time>2022-02-25T13:47:09Z</time>
      </trkpt>
      <trkpt lat="44.79649" lon="6.98425">
        <ele>2244</ele>
        <time>2022-02-25T13:47:10Z</time>
      </trkpt>
      <trkpt lat="44.79649" lon="6.98425">
        <ele>2244</ele>
        <time>2022-02-25T13:47:11Z</time>
      </trkpt>
      <trkpt lat="44.79649" lon="6.98425">
        <ele>2244</ele>
        <time>2022-02-25T13:47:12Z</time>
      </trkpt>
      <trkpt lat="44.79649" lon="6.98422">
        <ele>2244.6</ele>
        <time>2022-02-25T13:47:13Z</time>
      </trkpt>
      <trkpt lat="44.79649" lon="6.98422">
        <ele>2244.6</ele>
        <time>2022-02-25T13:47:14Z</time>
      </trkpt>
      <trkpt lat="44.79649" lon="6.98422">
        <ele>2244.6</ele>
        <time>2022-02-25T13:47:15Z</time>
      </trkpt>
      <trkpt lat="44.7965" lon="6.98419">
        <ele>2244.7</ele>
        <time>2022-02-25T13:47:16Z</time>
      </trkpt>
      <trkpt lat="44.7965" lon="6.98419">
        <ele>2244.7</ele>
        <time>2022-02-25T13:47:17Z</time>
      </trkpt>
      <trkpt lat="44.7965" lon="6.98419">
        <ele>2244.7</ele>
        <time>2022-02-25T13:47:18Z</time>
      </trkpt>
      <trkpt lat="44.7965" lon="6.98419">
        <ele>2244.7</ele>
        <time>2022-02-25T13:47:19Z</time>
      </trkpt>
      <trkpt lat="44.7965" lon="6.98419">
        <ele>2244.7</ele>
        <time>2022-02-25T13:47:20Z</time>
      </trkpt>
      <trkpt lat="44.7965" lon="6.98419">
        <ele>2244.7</ele>
        <time>2022-02-25T13:47:21Z</time>
      </trkpt>
      <trkpt lat="44.7965" lon="6.98419">
        <ele>2244.7</ele>
        <time>2022-02-25T13:47:22Z</time>
      </trkpt>
      <trkpt lat="44.7965" lon="6.98419">
        <ele>2244.7</ele>
        <time>2022-02-25T13:47:23Z</time>
      </trkpt>
      <trkpt lat="44.79651" lon="6.98417">
        <ele>2244.7</ele>
        <time>2022-02-25T13:47:24Z</time>
      </trkpt>
      <trkpt lat="44.79651" lon="6.98417">
        <ele>2244.7</ele>
        <time>2022-02-25T13:47:25Z</time>
      </trkpt>
      <trkpt lat="44.79651" lon="6.98417">
        <ele>2244.7</ele>
        <time>2022-02-25T13:47:26Z</time>
      </trkpt>
      <trkpt lat="44.79651" lon="6.98417">
        <ele>2244.7</ele>
        <time>2022-02-25T13:47:27Z</time>
      </trkpt>
      <trkpt lat="44.79651" lon="6.98417">
        <ele>2244.7</ele>
        <time>2022-02-25T13:47:28Z</time>
      </trkpt>
      <trkpt lat="44.79651" lon="6.98417">
        <ele>2244.7</ele>
        <time>2022-02-25T13:47:29Z</time>
      </trkpt>
      <trkpt lat="44.79652" lon="6.98414">
        <ele>2244.5</ele>
        <time>2022-02-25T13:47:30Z</time>
      </trkpt>
      <trkpt lat="44.79652" lon="6.98414">
        <ele>2244.5</ele>
        <time>2022-02-25T13:47:31Z</time>
      </trkpt>
      <trkpt lat="44.79652" lon="6.98414">
        <ele>2244.5</ele>
        <time>2022-02-25T13:47:32Z</time>
      </trkpt>
      <trkpt lat="44.79653" lon="6.98411">
        <ele>2244.3</ele>
        <time>2022-02-25T13:47:33Z</time>
      </trkpt>
      <trkpt lat="44.79653" lon="6.98411">
        <ele>2244.3</ele>
        <time>2022-02-25T13:47:34Z</time>
      </trkpt>
      <trkpt lat="44.79653" lon="6.98411">
        <ele>2244.3</ele>
        <time>2022-02-25T13:47:35Z</time>
      </trkpt>
      <trkpt lat="44.79655" lon="6.98408">
        <ele>2243.6</ele>
        <time>2022-02-25T13:47:36Z</time>
      </trkpt>
      <trkpt lat="44.79657" lon="6.98406">
        <ele>2242.8</ele>
        <time>2022-02-25T13:47:37Z</time>
      </trkpt>
      <trkpt lat="44.79659" lon="6.98403">
        <ele>2242.1</ele>
        <time>2022-02-25T13:47:38Z</time>
      </trkpt>
      <trkpt lat="44.79662" lon="6.98397">
        <ele>2241</ele>
        <time>2022-02-25T13:47:39Z</time>
      </trkpt>
      <trkpt lat="44.79663" lon="6.98395">
        <ele>2240.6</ele>
        <time>2022-02-25T13:47:40Z</time>
      </trkpt>
      <trkpt lat="44.79665" lon="6.98391">
        <ele>2239.8</ele>
        <time>2022-02-25T13:47:41Z</time>
      </trkpt>
      <trkpt lat="44.79665" lon="6.98387">
        <ele>2240</ele>
        <time>2022-02-25T13:47:42Z</time>
      </trkpt>
      <trkpt lat="44.79666" lon="6.98384">
        <ele>2239.7</ele>
        <time>2022-02-25T13:47:43Z</time>
      </trkpt>
      <trkpt lat="44.79666" lon="6.9838">
        <ele>2240</ele>
        <time>2022-02-25T13:47:44Z</time>
      </trkpt>
      <trkpt lat="44.79667" lon="6.98377">
        <ele>2239.8</ele>
        <time>2022-02-25T13:47:45Z</time>
      </trkpt>
      <trkpt lat="44.79667" lon="6.98377">
        <ele>2239.8</ele>
        <time>2022-02-25T13:47:46Z</time>
      </trkpt>
      <trkpt lat="44.79667" lon="6.98374">
        <ele>2240</ele>
        <time>2022-02-25T13:47:47Z</time>
      </trkpt>
      <trkpt lat="44.79667" lon="6.98374">
        <ele>2240</ele>
        <time>2022-02-25T13:47:48Z</time>
      </trkpt>
      <trkpt lat="44.79668" lon="6.98371">
        <ele>2240</ele>
        <time>2022-02-25T13:47:49Z</time>
      </trkpt>
      <trkpt lat="44.79668" lon="6.98371">
        <ele>2240</ele>
        <time>2022-02-25T13:47:50Z</time>
      </trkpt>
      <trkpt lat="44.79669" lon="6.98369">
        <ele>2240</ele>
        <time>2022-02-25T13:47:51Z</time>
      </trkpt>
      <trkpt lat="44.79669" lon="6.98369">
        <ele>2240</ele>
        <time>2022-02-25T13:47:52Z</time>
      </trkpt>
      <trkpt lat="44.79669" lon="6.98365">
        <ele>2240.3</ele>
        <time>2022-02-25T13:47:53Z</time>
      </trkpt>
      <trkpt lat="44.79669" lon="6.98365">
        <ele>2240.3</ele>
        <time>2022-02-25T13:47:54Z</time>
      </trkpt>
      <trkpt lat="44.79669" lon="6.98365">
        <ele>2240.3</ele>
        <time>2022-02-25T13:47:55Z</time>
      </trkpt>
      <trkpt lat="44.7967" lon="6.98362">
        <ele>2240.3</ele>
        <time>2022-02-25T13:47:56Z</time>
      </trkpt>
      <trkpt lat="44.7967" lon="6.98362">
        <ele>2240.3</ele>
        <time>2022-02-25T13:47:57Z</time>
      </trkpt>
      <trkpt lat="44.7967" lon="6.98362">
        <ele>2240.3</ele>
        <time>2022-02-25T13:47:58Z</time>
      </trkpt>
      <trkpt lat="44.7967" lon="6.98362">
        <ele>2240.3</ele>
        <time>2022-02-25T13:47:59Z</time>
      </trkpt>
      <trkpt lat="44.7967" lon="6.98362">
        <ele>2240.3</ele>
        <time>2022-02-25T13:48:00Z</time>
      </trkpt>
      <trkpt lat="44.7967" lon="6.98362">
        <ele>2240.3</ele>
        <time>2022-02-25T13:48:01Z</time>
      </trkpt>
      <trkpt lat="44.79671" lon="6.98359">
        <ele>2240.4</ele>
        <time>2022-02-25T13:48:02Z</time>
      </trkpt>
      <trkpt lat="44.79671" lon="6.98359">
        <ele>2240.4</ele>
        <time>2022-02-25T13:48:03Z</time>
      </trkpt>
      <trkpt lat="44.79671" lon="6.98359">
        <ele>2240.4</ele>
        <time>2022-02-25T13:48:04Z</time>
      </trkpt>
      <trkpt lat="44.79671" lon="6.98356">
        <ele>2240.7</ele>
        <time>2022-02-25T13:48:05Z</time>
      </trkpt>
      <trkpt lat="44.79671" lon="6.98356">
        <ele>2240.7</ele>
        <time>2022-02-25T13:48:06Z</time>
      </trkpt>
      <trkpt lat="44.79671" lon="6.98356">
        <ele>2240.7</ele>
        <time>2022-02-25T13:48:07Z</time>
      </trkpt>
      <trkpt lat="44.79671" lon="6.98353">
        <ele>2241</ele>
        <time>2022-02-25T13:48:08Z</time>
      </trkpt>
      <trkpt lat="44.79671" lon="6.98353">
        <ele>2241</ele>
        <time>2022-02-25T13:48:09Z</time>
      </trkpt>
      <trkpt lat="44.79671" lon="6.98353">
        <ele>2241</ele>
        <time>2022-02-25T13:48:10Z</time>
      </trkpt>
      <trkpt lat="44.79671" lon="6.98353">
        <ele>2241</ele>
        <time>2022-02-25T13:48:11Z</time>
      </trkpt>
      <trkpt lat="44.79671" lon="6.98353">
        <ele>2241</ele>
        <time>2022-02-25T13:48:12Z</time>
      </trkpt>
      <trkpt lat="44.79671" lon="6.98353">
        <ele>2241</ele>
        <time>2022-02-25T13:48:13Z</time>
      </trkpt>
      <trkpt lat="44.79671" lon="6.98353">
        <ele>2241</ele>
        <time>2022-02-25T13:48:14Z</time>
      </trkpt>
      <trkpt lat="44.79671" lon="6.98353">
        <ele>2241</ele>
        <time>2022-02-25T13:48:15Z</time>
      </trkpt>
      <trkpt lat="44.79671" lon="6.98353">
        <ele>2241</ele>
        <time>2022-02-25T13:48:16Z</time>
      </trkpt>
      <trkpt lat="44.79673" lon="6.98351">
        <ele>2240.8</ele>
        <time>2022-02-25T13:48:17Z</time>
      </trkpt>
      <trkpt lat="44.79673" lon="6.98351">
        <ele>2240.8</ele>
        <time>2022-02-25T13:48:18Z</time>
      </trkpt>
      <trkpt lat="44.79673" lon="6.98351">
        <ele>2240.8</ele>
        <time>2022-02-25T13:48:19Z</time>
      </trkpt>
      <trkpt lat="44.79673" lon="6.98351">
        <ele>2240.8</ele>
        <time>2022-02-25T13:48:20Z</time>
      </trkpt>
      <trkpt lat="44.79673" lon="6.98351">
        <ele>2240.8</ele>
        <time>2022-02-25T13:48:21Z</time>
      </trkpt>
      <trkpt lat="44.79673" lon="6.98351">
        <ele>2240.8</ele>
        <time>2022-02-25T13:48:22Z</time>
      </trkpt>
      <trkpt lat="44.79673" lon="6.98351">
        <ele>2240.8</ele>
        <time>2022-02-25T13:48:23Z</time>
      </trkpt>
      <trkpt lat="44.79673" lon="6.98351">
        <ele>2240.8</ele>
        <time>2022-02-25T13:48:24Z</time>
      </trkpt>
      <trkpt lat="44.79673" lon="6.98351">
        <ele>2240.8</ele>
        <time>2022-02-25T13:48:25Z</time>
      </trkpt>
      <trkpt lat="44.79673" lon="6.98351">
        <ele>2240.8</ele>
        <time>2022-02-25T13:48:26Z</time>
      </trkpt>
      <trkpt lat="44.79673" lon="6.98349">
        <ele>2241</ele>
        <time>2022-02-25T13:48:27Z</time>
      </trkpt>
      <trkpt lat="44.79673" lon="6.98349">
        <ele>2241</ele>
        <time>2022-02-25T13:48:28Z</time>
      </trkpt>
      <trkpt lat="44.79673" lon="6.98349">
        <ele>2241</ele>
        <time>2022-02-25T13:48:29Z</time>
      </trkpt>
      <trkpt lat="44.79673" lon="6.98349">
        <ele>2241</ele>
        <time>2022-02-25T13:48:30Z</time>
      </trkpt>
      <trkpt lat="44.79673" lon="6.98349">
        <ele>2241</ele>
        <time>2022-02-25T13:48:31Z</time>
      </trkpt>
      <trkpt lat="44.79673" lon="6.98349">
        <ele>2241</ele>
        <time>2022-02-25T13:48:32Z</time>
      </trkpt>
      <trkpt lat="44.79673" lon="6.98349">
        <ele>2241</ele>
        <time>2022-02-25T13:48:33Z</time>
      </trkpt>
      <trkpt lat="44.79673" lon="6.98349">
        <ele>2241</ele>
        <time>2022-02-25T13:48:34Z</time>
      </trkpt>
      <trkpt lat="44.79673" lon="6.98349">
        <ele>2241</ele>
        <time>2022-02-25T13:48:35Z</time>
      </trkpt>
      <trkpt lat="44.79673" lon="6.98349">
        <ele>2241</ele>
        <time>2022-02-25T13:48:36Z</time>
      </trkpt>
      <trkpt lat="44.79673" lon="6.98349">
        <ele>2241</ele>
        <time>2022-02-25T13:48:37Z</time>
      </trkpt>
      <trkpt lat="44.79673" lon="6.98349">
        <ele>2241</ele>
        <time>2022-02-25T13:48:38Z</time>
      </trkpt>
      <trkpt lat="44.79673" lon="6.98349">
        <ele>2241</ele>
        <time>2022-02-25T13:48:39Z</time>
      </trkpt>
      <trkpt lat="44.79673" lon="6.98349">
        <ele>2241</ele>
        <time>2022-02-25T13:48:40Z</time>
      </trkpt>
      <trkpt lat="44.79673" lon="6.98349">
        <ele>2241</ele>
        <time>2022-02-25T13:48:41Z</time>
      </trkpt>
      <trkpt lat="44.79673" lon="6.98349">
        <ele>2241</ele>
        <time>2022-02-25T13:48:42Z</time>
      </trkpt>
      <trkpt lat="44.79673" lon="6.98349">
        <ele>2241</ele>
        <time>2022-02-25T13:48:43Z</time>
      </trkpt>
      <trkpt lat="44.79673" lon="6.98349">
        <ele>2241</ele>
        <time>2022-02-25T13:48:44Z</time>
      </trkpt>
      <trkpt lat="44.79673" lon="6.98349">
        <ele>2241</ele>
        <time>2022-02-25T13:48:45Z</time>
      </trkpt>
      <trkpt lat="44.79673" lon="6.98349">
        <ele>2241</ele>
        <time>2022-02-25T13:48:46Z</time>
      </trkpt>
      <trkpt lat="44.79673" lon="6.98349">
        <ele>2241</ele>
        <time>2022-02-25T13:48:47Z</time>
      </trkpt>
      <trkpt lat="44.79674" lon="6.98345">
        <ele>2241.1</ele>
        <time>2022-02-25T13:48:48Z</time>
      </trkpt>
      <trkpt lat="44.79674" lon="6.98345">
        <ele>2241.1</ele>
        <time>2022-02-25T13:48:49Z</time>
      </trkpt>
      <trkpt lat="44.79674" lon="6.98342">
        <ele>2241.4</ele>
        <time>2022-02-25T13:48:50Z</time>
      </trkpt>
      <trkpt lat="44.79674" lon="6.98342">
        <ele>2241.4</ele>
        <time>2022-02-25T13:48:51Z</time>
      </trkpt>
      <trkpt lat="44.79674" lon="6.98339">
        <ele>2241.6</ele>
        <time>2022-02-25T13:48:52Z</time>
      </trkpt>
      <trkpt lat="44.79674" lon="6.98339">
        <ele>2241.6</ele>
        <time>2022-02-25T13:48:53Z</time>
      </trkpt>
      <trkpt lat="44.79674" lon="6.98339">
        <ele>2241.6</ele>
        <time>2022-02-25T13:48:54Z</time>
      </trkpt>
      <trkpt lat="44.79674" lon="6.98336">
        <ele>2241.9</ele>
        <time>2022-02-25T13:48:55Z</time>
      </trkpt>
      <trkpt lat="44.79674" lon="6.98336">
        <ele>2241.9</ele>
        <time>2022-02-25T13:48:56Z</time>
      </trkpt>
      <trkpt lat="44.79674" lon="6.98336">
        <ele>2241.9</ele>
        <time>2022-02-25T13:48:57Z</time>
      </trkpt>
      <trkpt lat="44.79674" lon="6.98336">
        <ele>2241.9</ele>
        <time>2022-02-25T13:48:58Z</time>
      </trkpt>
      <trkpt lat="44.79674" lon="6.98336">
        <ele>2241.9</ele>
        <time>2022-02-25T13:48:59Z</time>
      </trkpt>
      <trkpt lat="44.79674" lon="6.98333">
        <ele>2242.2</ele>
        <time>2022-02-25T13:49:00Z</time>
      </trkpt>
      <trkpt lat="44.79674" lon="6.98333">
        <ele>2242.2</ele>
        <time>2022-02-25T13:49:01Z</time>
      </trkpt>
      <trkpt lat="44.79674" lon="6.98333">
        <ele>2242.2</ele>
        <time>2022-02-25T13:49:02Z</time>
      </trkpt>
      <trkpt lat="44.79674" lon="6.98333">
        <ele>2242.2</ele>
        <time>2022-02-25T13:49:03Z</time>
      </trkpt>
      <trkpt lat="44.79674" lon="6.98333">
        <ele>2242.2</ele>
        <time>2022-02-25T13:49:04Z</time>
      </trkpt>
      <trkpt lat="44.79674" lon="6.98333">
        <ele>2242.2</ele>
        <time>2022-02-25T13:49:05Z</time>
      </trkpt>
      <trkpt lat="44.79674" lon="6.98333">
        <ele>2242.2</ele>
        <time>2022-02-25T13:49:06Z</time>
      </trkpt>
      <trkpt lat="44.79673" lon="6.98329">
        <ele>2242.9</ele>
        <time>2022-02-25T13:49:07Z</time>
      </trkpt>
      <trkpt lat="44.79673" lon="6.98329">
        <ele>2242.9</ele>
        <time>2022-02-25T13:49:08Z</time>
      </trkpt>
      <trkpt lat="44.79673" lon="6.98329">
        <ele>2242.9</ele>
        <time>2022-02-25T13:49:09Z</time>
      </trkpt>
      <trkpt lat="44.79674" lon="6.98326">
        <ele>2243</ele>
        <time>2022-02-25T13:49:10Z</time>
      </trkpt>
      <trkpt lat="44.79674" lon="6.98326">
        <ele>2243</ele>
        <time>2022-02-25T13:49:11Z</time>
      </trkpt>
      <trkpt lat="44.79676" lon="6.98324">
        <ele>2242.7</ele>
        <time>2022-02-25T13:49:12Z</time>
      </trkpt>
      <trkpt lat="44.79676" lon="6.98324">
        <ele>2242.7</ele>
        <time>2022-02-25T13:49:13Z</time>
      </trkpt>
      <trkpt lat="44.79677" lon="6.98321">
        <ele>2242.7</ele>
        <time>2022-02-25T13:49:14Z</time>
      </trkpt>
      <trkpt lat="44.79677" lon="6.98321">
        <ele>2242.7</ele>
        <time>2022-02-25T13:49:15Z</time>
      </trkpt>
      <trkpt lat="44.79678" lon="6.98318">
        <ele>2242.7</ele>
        <time>2022-02-25T13:49:16Z</time>
      </trkpt>
      <trkpt lat="44.79678" lon="6.98318">
        <ele>2242.7</ele>
        <time>2022-02-25T13:49:17Z</time>
      </trkpt>
      <trkpt lat="44.79679" lon="6.98314">
        <ele>2242.7</ele>
        <time>2022-02-25T13:49:18Z</time>
      </trkpt>
      <trkpt lat="44.79679" lon="6.98314">
        <ele>2242.7</ele>
        <time>2022-02-25T13:49:19Z</time>
      </trkpt>
      <trkpt lat="44.7968" lon="6.9831">
        <ele>2242.8</ele>
        <time>2022-02-25T13:49:20Z</time>
      </trkpt>
      <trkpt lat="44.7968" lon="6.9831">
        <ele>2242.8</ele>
        <time>2022-02-25T13:49:21Z</time>
      </trkpt>
      <trkpt lat="44.79681" lon="6.98305">
        <ele>2242.9</ele>
        <time>2022-02-25T13:49:22Z</time>
      </trkpt>
      <trkpt lat="44.79681" lon="6.98305">
        <ele>2242.9</ele>
        <time>2022-02-25T13:49:23Z</time>
      </trkpt>
      <trkpt lat="44.79682" lon="6.98301">
        <ele>2243</ele>
        <time>2022-02-25T13:49:24Z</time>
      </trkpt>
      <trkpt lat="44.79682" lon="6.98301">
        <ele>2243</ele>
        <time>2022-02-25T13:49:25Z</time>
      </trkpt>
      <trkpt lat="44.79684" lon="6.98297">
        <ele>2242.7</ele>
        <time>2022-02-25T13:49:26Z</time>
      </trkpt>
      <trkpt lat="44.79684" lon="6.98297">
        <ele>2242.7</ele>
        <time>2022-02-25T13:49:27Z</time>
      </trkpt>
      <trkpt lat="44.79684" lon="6.98297">
        <ele>2242.7</ele>
        <time>2022-02-25T13:49:28Z</time>
      </trkpt>
      <trkpt lat="44.79685" lon="6.98295">
        <ele>2242.5</ele>
        <time>2022-02-25T13:49:29Z</time>
      </trkpt>
      <trkpt lat="44.79685" lon="6.98295">
        <ele>2242.5</ele>
        <time>2022-02-25T13:49:30Z</time>
      </trkpt>
      <trkpt lat="44.79685" lon="6.98295">
        <ele>2242.5</ele>
        <time>2022-02-25T13:49:31Z</time>
      </trkpt>
      <trkpt lat="44.79685" lon="6.98291">
        <ele>2243</ele>
        <time>2022-02-25T13:49:32Z</time>
      </trkpt>
      <trkpt lat="44.79685" lon="6.98291">
        <ele>2243</ele>
        <time>2022-02-25T13:49:33Z</time>
      </trkpt>
      <trkpt lat="44.79687" lon="6.98288">
        <ele>2242.6</ele>
        <time>2022-02-25T13:49:34Z</time>
      </trkpt>
      <trkpt lat="44.79687" lon="6.98288">
        <ele>2242.6</ele>
        <time>2022-02-25T13:49:35Z</time>
      </trkpt>
      <trkpt lat="44.79687" lon="6.98288">
        <ele>2242.6</ele>
        <time>2022-02-25T13:49:36Z</time>
      </trkpt>
      <trkpt lat="44.79687" lon="6.98288">
        <ele>2242.6</ele>
        <time>2022-02-25T13:49:37Z</time>
      </trkpt>
      <trkpt lat="44.79687" lon="6.98286">
        <ele>2242.8</ele>
        <time>2022-02-25T13:49:38Z</time>
      </trkpt>
      <trkpt lat="44.79687" lon="6.98286">
        <ele>2242.8</ele>
        <time>2022-02-25T13:49:39Z</time>
      </trkpt>
      <trkpt lat="44.79687" lon="6.98286">
        <ele>2242.8</ele>
        <time>2022-02-25T13:49:40Z</time>
      </trkpt>
      <trkpt lat="44.79688" lon="6.98283">
        <ele>2242.8</ele>
        <time>2022-02-25T13:49:41Z</time>
      </trkpt>
      <trkpt lat="44.79688" lon="6.98283">
        <ele>2242.8</ele>
        <time>2022-02-25T13:49:42Z</time>
      </trkpt>
      <trkpt lat="44.79688" lon="6.98283">
        <ele>2242.8</ele>
        <time>2022-02-25T13:49:43Z</time>
      </trkpt>
      <trkpt lat="44.79689" lon="6.9828">
        <ele>2242.7</ele>
        <time>2022-02-25T13:49:44Z</time>
      </trkpt>
      <trkpt lat="44.79689" lon="6.9828">
        <ele>2242.7</ele>
        <time>2022-02-25T13:49:45Z</time>
      </trkpt>
      <trkpt lat="44.79688" lon="6.98277">
        <ele>2243.4</ele>
        <time>2022-02-25T13:49:46Z</time>
      </trkpt>
      <trkpt lat="44.79688" lon="6.98277">
        <ele>2243.4</ele>
        <time>2022-02-25T13:49:47Z</time>
      </trkpt>
      <trkpt lat="44.79689" lon="6.98274">
        <ele>2243.1</ele>
        <time>2022-02-25T13:49:48Z</time>
      </trkpt>
      <trkpt lat="44.79689" lon="6.98274">
        <ele>2243.1</ele>
        <time>2022-02-25T13:49:49Z</time>
      </trkpt>
      <trkpt lat="44.79689" lon="6.98274">
        <ele>2243.1</ele>
        <time>2022-02-25T13:49:50Z</time>
      </trkpt>
      <trkpt lat="44.79689" lon="6.98271">
        <ele>2243.3</ele>
        <time>2022-02-25T13:49:51Z</time>
      </trkpt>
      <trkpt lat="44.79689" lon="6.98271">
        <ele>2243.3</ele>
        <time>2022-02-25T13:49:52Z</time>
      </trkpt>
      <trkpt lat="44.79689" lon="6.98271">
        <ele>2243.3</ele>
        <time>2022-02-25T13:49:53Z</time>
      </trkpt>
      <trkpt lat="44.79689" lon="6.98268">
        <ele>2243.4</ele>
        <time>2022-02-25T13:49:54Z</time>
      </trkpt>
      <trkpt lat="44.79689" lon="6.98268">
        <ele>2243.4</ele>
        <time>2022-02-25T13:49:55Z</time>
      </trkpt>
      <trkpt lat="44.79689" lon="6.98268">
        <ele>2243.4</ele>
        <time>2022-02-25T13:49:56Z</time>
      </trkpt>
      <trkpt lat="44.79689" lon="6.98268">
        <ele>2243.4</ele>
        <time>2022-02-25T13:49:57Z</time>
      </trkpt>
      <trkpt lat="44.79689" lon="6.98266">
        <ele>2243.5</ele>
        <time>2022-02-25T13:49:58Z</time>
      </trkpt>
      <trkpt lat="44.79689" lon="6.98266">
        <ele>2243.5</ele>
        <time>2022-02-25T13:49:59Z</time>
      </trkpt>
      <trkpt lat="44.79689" lon="6.98266">
        <ele>2243.5</ele>
        <time>2022-02-25T13:50:00Z</time>
      </trkpt>
      <trkpt lat="44.79689" lon="6.98266">
        <ele>2243.5</ele>
        <time>2022-02-25T13:50:01Z</time>
      </trkpt>
      <trkpt lat="44.7969" lon="6.98263">
        <ele>2243.2</ele>
        <time>2022-02-25T13:50:02Z</time>
      </trkpt>
      <trkpt lat="44.7969" lon="6.98263">
        <ele>2243.2</ele>
        <time>2022-02-25T13:50:03Z</time>
      </trkpt>
      <trkpt lat="44.7969" lon="6.98263">
        <ele>2243.2</ele>
        <time>2022-02-25T13:50:04Z</time>
      </trkpt>
      <trkpt lat="44.7969" lon="6.98263">
        <ele>2243.2</ele>
        <time>2022-02-25T13:50:05Z</time>
      </trkpt>
      <trkpt lat="44.7969" lon="6.98263">
        <ele>2243.2</ele>
        <time>2022-02-25T13:50:06Z</time>
      </trkpt>
      <trkpt lat="44.7969" lon="6.98259">
        <ele>2243.4</ele>
        <time>2022-02-25T13:50:07Z</time>
      </trkpt>
      <trkpt lat="44.7969" lon="6.98259">
        <ele>2243.4</ele>
        <time>2022-02-25T13:50:08Z</time>
      </trkpt>
      <trkpt lat="44.7969" lon="6.98259">
        <ele>2243.4</ele>
        <time>2022-02-25T13:50:09Z</time>
      </trkpt>
      <trkpt lat="44.79691" lon="6.98255">
        <ele>2243.2</ele>
        <time>2022-02-25T13:50:10Z</time>
      </trkpt>
      <trkpt lat="44.7969" lon="6.98252">
        <ele>2243.7</ele>
        <time>2022-02-25T13:50:11Z</time>
      </trkpt>
      <trkpt lat="44.7969" lon="6.98252">
        <ele>2243.7</ele>
        <time>2022-02-25T13:50:12Z</time>
      </trkpt>
      <trkpt lat="44.79691" lon="6.98247">
        <ele>2243.6</ele>
        <time>2022-02-25T13:50:13Z</time>
      </trkpt>
      <trkpt lat="44.79691" lon="6.98245">
        <ele>2243.7</ele>
        <time>2022-02-25T13:50:14Z</time>
      </trkpt>
      <trkpt lat="44.79692" lon="6.98243">
        <ele>2243.5</ele>
        <time>2022-02-25T13:50:15Z</time>
      </trkpt>
      <trkpt lat="44.79692" lon="6.98243">
        <ele>2243.5</ele>
        <time>2022-02-25T13:50:16Z</time>
      </trkpt>
      <trkpt lat="44.79693" lon="6.98239">
        <ele>2243.4</ele>
        <time>2022-02-25T13:50:17Z</time>
      </trkpt>
      <trkpt lat="44.79693" lon="6.98239">
        <ele>2243.4</ele>
        <time>2022-02-25T13:50:18Z</time>
      </trkpt>
      <trkpt lat="44.79693" lon="6.98235">
        <ele>2243.7</ele>
        <time>2022-02-25T13:50:19Z</time>
      </trkpt>
      <trkpt lat="44.79694" lon="6.98232">
        <ele>2243.5</ele>
        <time>2022-02-25T13:50:20Z</time>
      </trkpt>
      <trkpt lat="44.79695" lon="6.9823">
        <ele>2243.3</ele>
        <time>2022-02-25T13:50:21Z</time>
      </trkpt>
      <trkpt lat="44.79696" lon="6.98227">
        <ele>2243.3</ele>
        <time>2022-02-25T13:50:22Z</time>
      </trkpt>
      <trkpt lat="44.79697" lon="6.98224">
        <ele>2243.2</ele>
        <time>2022-02-25T13:50:23Z</time>
      </trkpt>
      <trkpt lat="44.79697" lon="6.98221">
        <ele>2243.5</ele>
        <time>2022-02-25T13:50:24Z</time>
      </trkpt>
      <trkpt lat="44.79697" lon="6.98218">
        <ele>2243.8</ele>
        <time>2022-02-25T13:50:25Z</time>
      </trkpt>
      <trkpt lat="44.79698" lon="6.98216">
        <ele>2243.7</ele>
        <time>2022-02-25T13:50:26Z</time>
      </trkpt>
      <trkpt lat="44.79698" lon="6.98216">
        <ele>2243.7</ele>
        <time>2022-02-25T13:50:27Z</time>
      </trkpt>
      <trkpt lat="44.79698" lon="6.98211">
        <ele>2244.3</ele>
        <time>2022-02-25T13:50:28Z</time>
      </trkpt>
      <trkpt lat="44.79698" lon="6.98211">
        <ele>2244.3</ele>
        <time>2022-02-25T13:50:29Z</time>
      </trkpt>
      <trkpt lat="44.79699" lon="6.98207">
        <ele>2244.4</ele>
        <time>2022-02-25T13:50:30Z</time>
      </trkpt>
      <trkpt lat="44.79699" lon="6.98207">
        <ele>2244.4</ele>
        <time>2022-02-25T13:50:31Z</time>
      </trkpt>
      <trkpt lat="44.797" lon="6.98204">
        <ele>2244.4</ele>
        <time>2022-02-25T13:50:32Z</time>
      </trkpt>
      <trkpt lat="44.797" lon="6.98204">
        <ele>2244.4</ele>
        <time>2022-02-25T13:50:33Z</time>
      </trkpt>
      <trkpt lat="44.797" lon="6.98204">
        <ele>2244.4</ele>
        <time>2022-02-25T13:50:34Z</time>
      </trkpt>
      <trkpt lat="44.79701" lon="6.98201">
        <ele>2244.5</ele>
        <time>2022-02-25T13:50:35Z</time>
      </trkpt>
      <trkpt lat="44.79701" lon="6.98201">
        <ele>2244.5</ele>
        <time>2022-02-25T13:50:36Z</time>
      </trkpt>
      <trkpt lat="44.79701" lon="6.98201">
        <ele>2244.5</ele>
        <time>2022-02-25T13:50:37Z</time>
      </trkpt>
      <trkpt lat="44.79702" lon="6.98199">
        <ele>2244.4</ele>
        <time>2022-02-25T13:50:38Z</time>
      </trkpt>
      <trkpt lat="44.79702" lon="6.98199">
        <ele>2244.4</ele>
        <time>2022-02-25T13:50:39Z</time>
      </trkpt>
      <trkpt lat="44.79704" lon="6.98197">
        <ele>2244</ele>
        <time>2022-02-25T13:50:40Z</time>
      </trkpt>
      <trkpt lat="44.79704" lon="6.98197">
        <ele>2244</ele>
        <time>2022-02-25T13:50:41Z</time>
      </trkpt>
      <trkpt lat="44.79705" lon="6.98194">
        <ele>2244</ele>
        <time>2022-02-25T13:50:42Z</time>
      </trkpt>
      <trkpt lat="44.79705" lon="6.98194">
        <ele>2244</ele>
        <time>2022-02-25T13:50:43Z</time>
      </trkpt>
      <trkpt lat="44.79707" lon="6.9819">
        <ele>2243.6</ele>
        <time>2022-02-25T13:50:44Z</time>
      </trkpt>
      <trkpt lat="44.79708" lon="6.98188">
        <ele>2243.4</ele>
        <time>2022-02-25T13:50:45Z</time>
      </trkpt>
      <trkpt lat="44.79709" lon="6.98186">
        <ele>2243.3</ele>
        <time>2022-02-25T13:50:46Z</time>
      </trkpt>
      <trkpt lat="44.79709" lon="6.98186">
        <ele>2243.3</ele>
        <time>2022-02-25T13:50:47Z</time>
      </trkpt>
      <trkpt lat="44.7971" lon="6.98183">
        <ele>2243.2</ele>
        <time>2022-02-25T13:50:48Z</time>
      </trkpt>
      <trkpt lat="44.7971" lon="6.98183">
        <ele>2243.2</ele>
        <time>2022-02-25T13:50:49Z</time>
      </trkpt>
      <trkpt lat="44.79712" lon="6.9818">
        <ele>2242.8</ele>
        <time>2022-02-25T13:50:50Z</time>
      </trkpt>
      <trkpt lat="44.79712" lon="6.9818">
        <ele>2242.8</ele>
        <time>2022-02-25T13:50:51Z</time>
      </trkpt>
      <trkpt lat="44.79712" lon="6.9818">
        <ele>2242.8</ele>
        <time>2022-02-25T13:50:52Z</time>
      </trkpt>
      <trkpt lat="44.79712" lon="6.9818">
        <ele>2242.8</ele>
        <time>2022-02-25T13:50:53Z</time>
      </trkpt>
      <trkpt lat="44.79713" lon="6.98177">
        <ele>2242.7</ele>
        <time>2022-02-25T13:50:54Z</time>
      </trkpt>
      <trkpt lat="44.79713" lon="6.98177">
        <ele>2242.7</ele>
        <time>2022-02-25T13:50:55Z</time>
      </trkpt>
      <trkpt lat="44.79713" lon="6.98177">
        <ele>2242.7</ele>
        <time>2022-02-25T13:50:56Z</time>
      </trkpt>
      <trkpt lat="44.79713" lon="6.98177">
        <ele>2242.7</ele>
        <time>2022-02-25T13:50:57Z</time>
      </trkpt>
      <trkpt lat="44.79715" lon="6.98174">
        <ele>2242.4</ele>
        <time>2022-02-25T13:50:58Z</time>
      </trkpt>
      <trkpt lat="44.79715" lon="6.98174">
        <ele>2242.4</ele>
        <time>2022-02-25T13:50:59Z</time>
      </trkpt>
      <trkpt lat="44.79715" lon="6.98174">
        <ele>2242.4</ele>
        <time>2022-02-25T13:51:00Z</time>
      </trkpt>
      <trkpt lat="44.79716" lon="6.98171">
        <ele>2242.3</ele>
        <time>2022-02-25T13:51:01Z</time>
      </trkpt>
      <trkpt lat="44.79716" lon="6.98171">
        <ele>2242.3</ele>
        <time>2022-02-25T13:51:02Z</time>
      </trkpt>
      <trkpt lat="44.79716" lon="6.98171">
        <ele>2242.3</ele>
        <time>2022-02-25T13:51:03Z</time>
      </trkpt>
      <trkpt lat="44.79717" lon="6.98168">
        <ele>2242.2</ele>
        <time>2022-02-25T13:51:04Z</time>
      </trkpt>
      <trkpt lat="44.79717" lon="6.98168">
        <ele>2242.2</ele>
        <time>2022-02-25T13:51:05Z</time>
      </trkpt>
      <trkpt lat="44.79717" lon="6.98168">
        <ele>2242.2</ele>
        <time>2022-02-25T13:51:06Z</time>
      </trkpt>
      <trkpt lat="44.79718" lon="6.98166">
        <ele>2242.1</ele>
        <time>2022-02-25T13:51:07Z</time>
      </trkpt>
      <trkpt lat="44.79718" lon="6.98166">
        <ele>2242.1</ele>
        <time>2022-02-25T13:51:08Z</time>
      </trkpt>
      <trkpt lat="44.79718" lon="6.98166">
        <ele>2242.1</ele>
        <time>2022-02-25T13:51:09Z</time>
      </trkpt>
      <trkpt lat="44.79718" lon="6.98166">
        <ele>2242.1</ele>
        <time>2022-02-25T13:51:10Z</time>
      </trkpt>
      <trkpt lat="44.79718" lon="6.98166">
        <ele>2242.1</ele>
        <time>2022-02-25T13:51:11Z</time>
      </trkpt>
      <trkpt lat="44.79718" lon="6.98166">
        <ele>2242.1</ele>
        <time>2022-02-25T13:51:12Z</time>
      </trkpt>
      <trkpt lat="44.79718" lon="6.98166">
        <ele>2242.1</ele>
        <time>2022-02-25T13:51:13Z</time>
      </trkpt>
      <trkpt lat="44.79718" lon="6.98166">
        <ele>2242.1</ele>
        <time>2022-02-25T13:51:14Z</time>
      </trkpt>
      <trkpt lat="44.7972" lon="6.98164">
        <ele>2241.7</ele>
        <time>2022-02-25T13:51:15Z</time>
      </trkpt>
      <trkpt lat="44.7972" lon="6.98164">
        <ele>2241.7</ele>
        <time>2022-02-25T13:51:16Z</time>
      </trkpt>
      <trkpt lat="44.7972" lon="6.98164">
        <ele>2241.7</ele>
        <time>2022-02-25T13:51:17Z</time>
      </trkpt>
      <trkpt lat="44.7972" lon="6.98164">
        <ele>2241.7</ele>
        <time>2022-02-25T13:51:18Z</time>
      </trkpt>
      <trkpt lat="44.79722" lon="6.98162">
        <ele>2241.2</ele>
        <time>2022-02-25T13:51:19Z</time>
      </trkpt>
      <trkpt lat="44.79722" lon="6.98162">
        <ele>2241.2</ele>
        <time>2022-02-25T13:51:20Z</time>
      </trkpt>
      <trkpt lat="44.79722" lon="6.98162">
        <ele>2241.2</ele>
        <time>2022-02-25T13:51:21Z</time>
      </trkpt>
      <trkpt lat="44.79722" lon="6.98162">
        <ele>2241.2</ele>
        <time>2022-02-25T13:51:22Z</time>
      </trkpt>
      <trkpt lat="44.79723" lon="6.98159">
        <ele>2241.1</ele>
        <time>2022-02-25T13:51:23Z</time>
      </trkpt>
      <trkpt lat="44.79723" lon="6.98159">
        <ele>2241.1</ele>
        <time>2022-02-25T13:51:24Z</time>
      </trkpt>
      <trkpt lat="44.79723" lon="6.98159">
        <ele>2241.1</ele>
        <time>2022-02-25T13:51:25Z</time>
      </trkpt>
      <trkpt lat="44.79723" lon="6.98159">
        <ele>2241.1</ele>
        <time>2022-02-25T13:51:26Z</time>
      </trkpt>
      <trkpt lat="44.79723" lon="6.98159">
        <ele>2241.1</ele>
        <time>2022-02-25T13:51:27Z</time>
      </trkpt>
      <trkpt lat="44.79724" lon="6.98157">
        <ele>2240.9</ele>
        <time>2022-02-25T13:51:28Z</time>
      </trkpt>
      <trkpt lat="44.79724" lon="6.98157">
        <ele>2240.9</ele>
        <time>2022-02-25T13:51:29Z</time>
      </trkpt>
      <trkpt lat="44.79724" lon="6.98157">
        <ele>2240.9</ele>
        <time>2022-02-25T13:51:30Z</time>
      </trkpt>
      <trkpt lat="44.79724" lon="6.98157">
        <ele>2240.9</ele>
        <time>2022-02-25T13:51:31Z</time>
      </trkpt>
      <trkpt lat="44.79724" lon="6.98157">
        <ele>2240.9</ele>
        <time>2022-02-25T13:51:32Z</time>
      </trkpt>
      <trkpt lat="44.79725" lon="6.98154">
        <ele>2240.8</ele>
        <time>2022-02-25T13:51:33Z</time>
      </trkpt>
      <trkpt lat="44.79725" lon="6.98154">
        <ele>2240.8</ele>
        <time>2022-02-25T13:51:34Z</time>
      </trkpt>
      <trkpt lat="44.79725" lon="6.98154">
        <ele>2240.8</ele>
        <time>2022-02-25T13:51:35Z</time>
      </trkpt>
      <trkpt lat="44.79726" lon="6.98152">
        <ele>2240.6</ele>
        <time>2022-02-25T13:51:36Z</time>
      </trkpt>
      <trkpt lat="44.79726" lon="6.98152">
        <ele>2240.6</ele>
        <time>2022-02-25T13:51:37Z</time>
      </trkpt>
      <trkpt lat="44.79726" lon="6.98152">
        <ele>2240.6</ele>
        <time>2022-02-25T13:51:38Z</time>
      </trkpt>
      <trkpt lat="44.79726" lon="6.98148">
        <ele>2240.8</ele>
        <time>2022-02-25T13:51:39Z</time>
      </trkpt>
      <trkpt lat="44.79726" lon="6.98148">
        <ele>2240.8</ele>
        <time>2022-02-25T13:51:40Z</time>
      </trkpt>
      <trkpt lat="44.79726" lon="6.98148">
        <ele>2240.8</ele>
        <time>2022-02-25T13:51:41Z</time>
      </trkpt>
      <trkpt lat="44.79726" lon="6.98148">
        <ele>2240.8</ele>
        <time>2022-02-25T13:51:42Z</time>
      </trkpt>
      <trkpt lat="44.79726" lon="6.98147">
        <ele>2240.9</ele>
        <time>2022-02-25T13:51:43Z</time>
      </trkpt>
      <trkpt lat="44.79727" lon="6.98147">
        <ele>2240.6</ele>
        <time>2022-02-25T13:51:44Z</time>
      </trkpt>
      <trkpt lat="44.79727" lon="6.98147">
        <ele>2240.6</ele>
        <time>2022-02-25T13:51:45Z</time>
      </trkpt>
      <trkpt lat="44.79727" lon="6.98146">
        <ele>2240.7</ele>
        <time>2022-02-25T13:51:46Z</time>
      </trkpt>
      <trkpt lat="44.79727" lon="6.98146">
        <ele>2240.7</ele>
        <time>2022-02-25T13:51:47Z</time>
      </trkpt>
      <trkpt lat="44.79727" lon="6.98146">
        <ele>2240.7</ele>
        <time>2022-02-25T13:51:48Z</time>
      </trkpt>
      <trkpt lat="44.79728" lon="6.98145">
        <ele>2240.5</ele>
        <time>2022-02-25T13:51:49Z</time>
      </trkpt>
      <trkpt lat="44.79728" lon="6.98145">
        <ele>2240.5</ele>
        <time>2022-02-25T13:51:50Z</time>
      </trkpt>
      <trkpt lat="44.79728" lon="6.98145">
        <ele>2240.5</ele>
        <time>2022-02-25T13:51:51Z</time>
      </trkpt>
      <trkpt lat="44.79728" lon="6.98144">
        <ele>2240.5</ele>
        <time>2022-02-25T13:51:52Z</time>
      </trkpt>
      <trkpt lat="44.79728" lon="6.98144">
        <ele>2240.5</ele>
        <time>2022-02-25T13:51:53Z</time>
      </trkpt>
      <trkpt lat="44.79728" lon="6.98144">
        <ele>2240.5</ele>
        <time>2022-02-25T13:51:54Z</time>
      </trkpt>
      <trkpt lat="44.79729" lon="6.98143">
        <ele>2240.4</ele>
        <time>2022-02-25T13:51:55Z</time>
      </trkpt>
      <trkpt lat="44.79729" lon="6.98143">
        <ele>2240.4</ele>
        <time>2022-02-25T13:51:56Z</time>
      </trkpt>
      <trkpt lat="44.79729" lon="6.98143">
        <ele>2240.4</ele>
        <time>2022-02-25T13:51:57Z</time>
      </trkpt>
      <trkpt lat="44.79729" lon="6.98142">
        <ele>2240.4</ele>
        <time>2022-02-25T13:51:58Z</time>
      </trkpt>
      <trkpt lat="44.79729" lon="6.98142">
        <ele>2240.4</ele>
        <time>2022-02-25T13:51:59Z</time>
      </trkpt>
      <trkpt lat="44.79729" lon="6.98142">
        <ele>2240.4</ele>
        <time>2022-02-25T13:52:00Z</time>
      </trkpt>
      <trkpt lat="44.7973" lon="6.98141">
        <ele>2240.2</ele>
        <time>2022-02-25T13:52:01Z</time>
      </trkpt>
      <trkpt lat="44.7973" lon="6.98141">
        <ele>2240.2</ele>
        <time>2022-02-25T13:52:02Z</time>
      </trkpt>
      <trkpt lat="44.7973" lon="6.98141">
        <ele>2240.2</ele>
        <time>2022-02-25T13:52:03Z</time>
      </trkpt>
      <trkpt lat="44.7973" lon="6.9814">
        <ele>2240.3</ele>
        <time>2022-02-25T13:52:04Z</time>
      </trkpt>
      <trkpt lat="44.7973" lon="6.9814">
        <ele>2240.3</ele>
        <time>2022-02-25T13:52:05Z</time>
      </trkpt>
      <trkpt lat="44.79731" lon="6.9814">
        <ele>2240.1</ele>
        <time>2022-02-25T13:52:06Z</time>
      </trkpt>
      <trkpt lat="44.79731" lon="6.98139">
        <ele>2240.1</ele>
        <time>2022-02-25T13:52:07Z</time>
      </trkpt>
      <trkpt lat="44.79731" lon="6.98139">
        <ele>2240.1</ele>
        <time>2022-02-25T13:52:08Z</time>
      </trkpt>
      <trkpt lat="44.79731" lon="6.98139">
        <ele>2240.1</ele>
        <time>2022-02-25T13:52:09Z</time>
      </trkpt>
      <trkpt lat="44.79731" lon="6.98138">
        <ele>2240.2</ele>
        <time>2022-02-25T13:52:10Z</time>
      </trkpt>
      <trkpt lat="44.79731" lon="6.98138">
        <ele>2240.2</ele>
        <time>2022-02-25T13:52:11Z</time>
      </trkpt>
      <trkpt lat="44.79732" lon="6.98137">
        <ele>2240</ele>
        <time>2022-02-25T13:52:12Z</time>
      </trkpt>
      <trkpt lat="44.79733" lon="6.98134">
        <ele>2240.1</ele>
        <time>2022-02-25T13:52:13Z</time>
      </trkpt>
      <trkpt lat="44.79735" lon="6.9813">
        <ele>2239.9</ele>
        <time>2022-02-25T13:52:14Z</time>
      </trkpt>
      <trkpt lat="44.79738" lon="6.98126">
        <ele>2239.5</ele>
        <time>2022-02-25T13:52:15Z</time>
      </trkpt>
      <trkpt lat="44.79738" lon="6.98126">
        <ele>2239.5</ele>
        <time>2022-02-25T13:52:16Z</time>
      </trkpt>
      <trkpt lat="44.79742" lon="6.98117">
        <ele>2239</ele>
        <time>2022-02-25T13:52:17Z</time>
      </trkpt>
      <trkpt lat="44.79746" lon="6.9811">
        <ele>2238.2</ele>
        <time>2022-02-25T13:52:18Z</time>
      </trkpt>
      <trkpt lat="44.79747" lon="6.98108">
        <ele>2237.9</ele>
        <time>2022-02-25T13:52:19Z</time>
      </trkpt>
      <trkpt lat="44.79749" lon="6.98104">
        <ele>2237.3</ele>
        <time>2022-02-25T13:52:20Z</time>
      </trkpt>
      <trkpt lat="44.79751" lon="6.981">
        <ele>2236.7</ele>
        <time>2022-02-25T13:52:21Z</time>
      </trkpt>
      <trkpt lat="44.79753" lon="6.98096">
        <ele>2236.1</ele>
        <time>2022-02-25T13:52:22Z</time>
      </trkpt>
      <trkpt lat="44.79754" lon="6.98091">
        <ele>2235.7</ele>
        <time>2022-02-25T13:52:23Z</time>
      </trkpt>
      <trkpt lat="44.79756" lon="6.98087">
        <ele>2235.1</ele>
        <time>2022-02-25T13:52:24Z</time>
      </trkpt>
      <trkpt lat="44.79757" lon="6.98082">
        <ele>2234.7</ele>
        <time>2022-02-25T13:52:25Z</time>
      </trkpt>
      <trkpt lat="44.79758" lon="6.98077">
        <ele>2234.4</ele>
        <time>2022-02-25T13:52:26Z</time>
      </trkpt>
      <trkpt lat="44.79759" lon="6.98073">
        <ele>2234.1</ele>
        <time>2022-02-25T13:52:27Z</time>
      </trkpt>
      <trkpt lat="44.79761" lon="6.98068">
        <ele>2233.4</ele>
        <time>2022-02-25T13:52:28Z</time>
      </trkpt>
      <trkpt lat="44.79763" lon="6.98064">
        <ele>2232.8</ele>
        <time>2022-02-25T13:52:29Z</time>
      </trkpt>
      <trkpt lat="44.79765" lon="6.9806">
        <ele>2232.1</ele>
        <time>2022-02-25T13:52:30Z</time>
      </trkpt>
      <trkpt lat="44.79766" lon="6.98056">
        <ele>2231.8</ele>
        <time>2022-02-25T13:52:31Z</time>
      </trkpt>
      <trkpt lat="44.79768" lon="6.98053">
        <ele>2231.2</ele>
        <time>2022-02-25T13:52:32Z</time>
      </trkpt>
      <trkpt lat="44.7977" lon="6.9805">
        <ele>2230.6</ele>
        <time>2022-02-25T13:52:33Z</time>
      </trkpt>
      <trkpt lat="44.79771" lon="6.98046">
        <ele>2230.4</ele>
        <time>2022-02-25T13:52:34Z</time>
      </trkpt>
      <trkpt lat="44.79772" lon="6.98042">
        <ele>2230.2</ele>
        <time>2022-02-25T13:52:35Z</time>
      </trkpt>
      <trkpt lat="44.79773" lon="6.98038">
        <ele>2230</ele>
        <time>2022-02-25T13:52:36Z</time>
      </trkpt>
      <trkpt lat="44.79773" lon="6.98035">
        <ele>2230</ele>
        <time>2022-02-25T13:52:37Z</time>
      </trkpt>
      <trkpt lat="44.79773" lon="6.98032">
        <ele>2230.1</ele>
        <time>2022-02-25T13:52:38Z</time>
      </trkpt>
      <trkpt lat="44.79774" lon="6.98029">
        <ele>2229.9</ele>
        <time>2022-02-25T13:52:39Z</time>
      </trkpt>
      <trkpt lat="44.79774" lon="6.98029">
        <ele>2229.9</ele>
        <time>2022-02-25T13:52:40Z</time>
      </trkpt>
      <trkpt lat="44.79773" lon="6.98024">
        <ele>2229.9</ele>
        <time>2022-02-25T13:52:41Z</time>
      </trkpt>
      <trkpt lat="44.79773" lon="6.98024">
        <ele>2229.9</ele>
        <time>2022-02-25T13:52:42Z</time>
      </trkpt>
      <trkpt lat="44.79772" lon="6.98022">
        <ele>2230</ele>
        <time>2022-02-25T13:52:43Z</time>
      </trkpt>
      <trkpt lat="44.79772" lon="6.98022">
        <ele>2230</ele>
        <time>2022-02-25T13:52:44Z</time>
      </trkpt>
      <trkpt lat="44.79772" lon="6.98022">
        <ele>2230</ele>
        <time>2022-02-25T13:52:45Z</time>
      </trkpt>
      <trkpt lat="44.79772" lon="6.98022">
        <ele>2230</ele>
        <time>2022-02-25T13:52:46Z</time>
      </trkpt>
      <trkpt lat="44.79772" lon="6.98022">
        <ele>2230</ele>
        <time>2022-02-25T13:52:47Z</time>
      </trkpt>
      <trkpt lat="44.79772" lon="6.98022">
        <ele>2230</ele>
        <time>2022-02-25T13:52:48Z</time>
      </trkpt>
      <trkpt lat="44.79772" lon="6.98022">
        <ele>2230</ele>
        <time>2022-02-25T13:52:49Z</time>
      </trkpt>
      <trkpt lat="44.79771" lon="6.9802">
        <ele>2230.1</ele>
        <time>2022-02-25T13:52:50Z</time>
      </trkpt>
      <trkpt lat="44.79771" lon="6.9802">
        <ele>2230.1</ele>
        <time>2022-02-25T13:52:51Z</time>
      </trkpt>
      <trkpt lat="44.79771" lon="6.9802">
        <ele>2230.1</ele>
        <time>2022-02-25T13:52:52Z</time>
      </trkpt>
      <trkpt lat="44.7977" lon="6.98018">
        <ele>2230.3</ele>
        <time>2022-02-25T13:52:53Z</time>
      </trkpt>
      <trkpt lat="44.7977" lon="6.98018">
        <ele>2230.3</ele>
        <time>2022-02-25T13:52:54Z</time>
      </trkpt>
      <trkpt lat="44.79769" lon="6.98015">
        <ele>2230.3</ele>
        <time>2022-02-25T13:52:55Z</time>
      </trkpt>
      <trkpt lat="44.79769" lon="6.98015">
        <ele>2230.3</ele>
        <time>2022-02-25T13:52:56Z</time>
      </trkpt>
      <trkpt lat="44.79769" lon="6.98015">
        <ele>2230.3</ele>
        <time>2022-02-25T13:52:57Z</time>
      </trkpt>
      <trkpt lat="44.79767" lon="6.98011">
        <ele>2230.5</ele>
        <time>2022-02-25T13:52:58Z</time>
      </trkpt>
      <trkpt lat="44.79767" lon="6.9801">
        <ele>2230.4</ele>
        <time>2022-02-25T13:52:59Z</time>
      </trkpt>
      <trkpt lat="44.79767" lon="6.9801">
        <ele>2230.4</ele>
        <time>2022-02-25T13:53:00Z</time>
      </trkpt>
      <trkpt lat="44.79767" lon="6.9801">
        <ele>2230.4</ele>
        <time>2022-02-25T13:53:01Z</time>
      </trkpt>
      <trkpt lat="44.79767" lon="6.9801">
        <ele>2230.4</ele>
        <time>2022-02-25T13:53:02Z</time>
      </trkpt>
      <trkpt lat="44.79767" lon="6.9801">
        <ele>2230.4</ele>
        <time>2022-02-25T13:53:03Z</time>
      </trkpt>
      <trkpt lat="44.79767" lon="6.9801">
        <ele>2230.4</ele>
        <time>2022-02-25T13:53:04Z</time>
      </trkpt>
      <trkpt lat="44.79765" lon="6.98008">
        <ele>2230.8</ele>
        <time>2022-02-25T13:53:05Z</time>
      </trkpt>
      <trkpt lat="44.79765" lon="6.98008">
        <ele>2230.8</ele>
        <time>2022-02-25T13:53:06Z</time>
      </trkpt>
      <trkpt lat="44.79765" lon="6.98008">
        <ele>2230.8</ele>
        <time>2022-02-25T13:53:07Z</time>
      </trkpt>
      <trkpt lat="44.79764" lon="6.98006">
        <ele>2230.9</ele>
        <time>2022-02-25T13:53:08Z</time>
      </trkpt>
      <trkpt lat="44.79764" lon="6.98006">
        <ele>2230.9</ele>
        <time>2022-02-25T13:53:09Z</time>
      </trkpt>
      <trkpt lat="44.79762" lon="6.98003">
        <ele>2231.2</ele>
        <time>2022-02-25T13:53:10Z</time>
      </trkpt>
      <trkpt lat="44.79762" lon="6.98003">
        <ele>2231.2</ele>
        <time>2022-02-25T13:53:11Z</time>
      </trkpt>
      <trkpt lat="44.7976" lon="6.98">
        <ele>2231.5</ele>
        <time>2022-02-25T13:53:12Z</time>
      </trkpt>
      <trkpt lat="44.7976" lon="6.98">
        <ele>2231.5</ele>
        <time>2022-02-25T13:53:13Z</time>
      </trkpt>
      <trkpt lat="44.7976" lon="6.98">
        <ele>2231.5</ele>
        <time>2022-02-25T13:53:14Z</time>
      </trkpt>
      <trkpt lat="44.79759" lon="6.97997">
        <ele>2231.4</ele>
        <time>2022-02-25T13:53:15Z</time>
      </trkpt>
      <trkpt lat="44.79759" lon="6.97997">
        <ele>2231.4</ele>
        <time>2022-02-25T13:53:16Z</time>
      </trkpt>
      <trkpt lat="44.79759" lon="6.97997">
        <ele>2231.4</ele>
        <time>2022-02-25T13:53:17Z</time>
      </trkpt>
      <trkpt lat="44.79759" lon="6.97997">
        <ele>2231.4</ele>
        <time>2022-02-25T13:53:18Z</time>
      </trkpt>
      <trkpt lat="44.79758" lon="6.97995">
        <ele>2231.4</ele>
        <time>2022-02-25T13:53:19Z</time>
      </trkpt>
      <trkpt lat="44.79758" lon="6.97995">
        <ele>2231.4</ele>
        <time>2022-02-25T13:53:20Z</time>
      </trkpt>
      <trkpt lat="44.79758" lon="6.97995">
        <ele>2231.4</ele>
        <time>2022-02-25T13:53:21Z</time>
      </trkpt>
      <trkpt lat="44.79757" lon="6.97993">
        <ele>2231.5</ele>
        <time>2022-02-25T13:53:22Z</time>
      </trkpt>
      <trkpt lat="44.79757" lon="6.97993">
        <ele>2231.5</ele>
        <time>2022-02-25T13:53:23Z</time>
      </trkpt>
      <trkpt lat="44.79757" lon="6.97993">
        <ele>2231.5</ele>
        <time>2022-02-25T13:53:24Z</time>
      </trkpt>
      <trkpt lat="44.79756" lon="6.97993">
        <ele>2231.7</ele>
        <time>2022-02-25T13:53:25Z</time>
      </trkpt>
      <trkpt lat="44.79756" lon="6.97993">
        <ele>2231.7</ele>
        <time>2022-02-25T13:53:26Z</time>
      </trkpt>
      <trkpt lat="44.79756" lon="6.97993">
        <ele>2231.7</ele>
        <time>2022-02-25T13:53:27Z</time>
      </trkpt>
      <trkpt lat="44.79756" lon="6.97993">
        <ele>2231.7</ele>
        <time>2022-02-25T13:53:28Z</time>
      </trkpt>
      <trkpt lat="44.79756" lon="6.97992">
        <ele>2231.6</ele>
        <time>2022-02-25T13:53:29Z</time>
      </trkpt>
      <trkpt lat="44.79756" lon="6.97992">
        <ele>2231.6</ele>
        <time>2022-02-25T13:53:30Z</time>
      </trkpt>
      <trkpt lat="44.79756" lon="6.97992">
        <ele>2231.6</ele>
        <time>2022-02-25T13:53:31Z</time>
      </trkpt>
      <trkpt lat="44.79756" lon="6.97992">
        <ele>2231.6</ele>
        <time>2022-02-25T13:53:32Z</time>
      </trkpt>
      <trkpt lat="44.79756" lon="6.97992">
        <ele>2231.6</ele>
        <time>2022-02-25T13:53:33Z</time>
      </trkpt>
      <trkpt lat="44.79756" lon="6.97991">
        <ele>2231.5</ele>
        <time>2022-02-25T13:53:34Z</time>
      </trkpt>
      <trkpt lat="44.79756" lon="6.97991">
        <ele>2231.5</ele>
        <time>2022-02-25T13:53:35Z</time>
      </trkpt>
      <trkpt lat="44.79756" lon="6.97991">
        <ele>2231.5</ele>
        <time>2022-02-25T13:53:36Z</time>
      </trkpt>
      <trkpt lat="44.79756" lon="6.97991">
        <ele>2231.5</ele>
        <time>2022-02-25T13:53:37Z</time>
      </trkpt>
      <trkpt lat="44.79756" lon="6.97991">
        <ele>2231.5</ele>
        <time>2022-02-25T13:53:38Z</time>
      </trkpt>
      <trkpt lat="44.79756" lon="6.97991">
        <ele>2231.5</ele>
        <time>2022-02-25T13:53:39Z</time>
      </trkpt>
      <trkpt lat="44.79755" lon="6.9799">
        <ele>2231.7</ele>
        <time>2022-02-25T13:53:40Z</time>
      </trkpt>
      <trkpt lat="44.79755" lon="6.9799">
        <ele>2231.7</ele>
        <time>2022-02-25T13:53:41Z</time>
      </trkpt>
      <trkpt lat="44.79755" lon="6.9799">
        <ele>2231.7</ele>
        <time>2022-02-25T13:53:42Z</time>
      </trkpt>
      <trkpt lat="44.79755" lon="6.9799">
        <ele>2231.7</ele>
        <time>2022-02-25T13:53:43Z</time>
      </trkpt>
      <trkpt lat="44.79755" lon="6.9799">
        <ele>2231.7</ele>
        <time>2022-02-25T13:53:44Z</time>
      </trkpt>
      <trkpt lat="44.79755" lon="6.9799">
        <ele>2231.7</ele>
        <time>2022-02-25T13:53:45Z</time>
      </trkpt>
      <trkpt lat="44.79755" lon="6.97989">
        <ele>2231.6</ele>
        <time>2022-02-25T13:53:46Z</time>
      </trkpt>
      <trkpt lat="44.79755" lon="6.97989">
        <ele>2231.6</ele>
        <time>2022-02-25T13:53:47Z</time>
      </trkpt>
      <trkpt lat="44.79755" lon="6.97989">
        <ele>2231.6</ele>
        <time>2022-02-25T13:53:48Z</time>
      </trkpt>
      <trkpt lat="44.79755" lon="6.97989">
        <ele>2231.6</ele>
        <time>2022-02-25T13:53:49Z</time>
      </trkpt>
      <trkpt lat="44.79755" lon="6.97989">
        <ele>2231.6</ele>
        <time>2022-02-25T13:53:50Z</time>
      </trkpt>
      <trkpt lat="44.79755" lon="6.97988">
        <ele>2231.4</ele>
        <time>2022-02-25T13:53:51Z</time>
      </trkpt>
      <trkpt lat="44.79755" lon="6.97988">
        <ele>2231.4</ele>
        <time>2022-02-25T13:53:52Z</time>
      </trkpt>
      <trkpt lat="44.79755" lon="6.97988">
        <ele>2231.4</ele>
        <time>2022-02-25T13:53:53Z</time>
      </trkpt>
      <trkpt lat="44.79755" lon="6.97988">
        <ele>2231.4</ele>
        <time>2022-02-25T13:53:54Z</time>
      </trkpt>
      <trkpt lat="44.79754" lon="6.97988">
        <ele>2231.7</ele>
        <time>2022-02-25T13:53:55Z</time>
      </trkpt>
      <trkpt lat="44.79754" lon="6.97988">
        <ele>2231.7</ele>
        <time>2022-02-25T13:53:56Z</time>
      </trkpt>
      <trkpt lat="44.79754" lon="6.97987">
        <ele>2231.6</ele>
        <time>2022-02-25T13:53:57Z</time>
      </trkpt>
      <trkpt lat="44.79754" lon="6.97987">
        <ele>2231.6</ele>
        <time>2022-02-25T13:53:58Z</time>
      </trkpt>
      <trkpt lat="44.79754" lon="6.97987">
        <ele>2231.6</ele>
        <time>2022-02-25T13:53:59Z</time>
      </trkpt>
      <trkpt lat="44.79754" lon="6.97987">
        <ele>2231.6</ele>
        <time>2022-02-25T13:54:00Z</time>
      </trkpt>
      <trkpt lat="44.79754" lon="6.97987">
        <ele>2231.6</ele>
        <time>2022-02-25T13:54:01Z</time>
      </trkpt>
      <trkpt lat="44.79754" lon="6.97987">
        <ele>2231.6</ele>
        <time>2022-02-25T13:54:02Z</time>
      </trkpt>
      <trkpt lat="44.79754" lon="6.97986">
        <ele>2231.5</ele>
        <time>2022-02-25T13:54:03Z</time>
      </trkpt>
      <trkpt lat="44.79754" lon="6.97986">
        <ele>2231.5</ele>
        <time>2022-02-25T13:54:04Z</time>
      </trkpt>
      <trkpt lat="44.79754" lon="6.97986">
        <ele>2231.5</ele>
        <time>2022-02-25T13:54:05Z</time>
      </trkpt>
      <trkpt lat="44.79754" lon="6.97986">
        <ele>2231.5</ele>
        <time>2022-02-25T13:54:06Z</time>
      </trkpt>
      <trkpt lat="44.79754" lon="6.97986">
        <ele>2231.5</ele>
        <time>2022-02-25T13:54:07Z</time>
      </trkpt>
      <trkpt lat="44.79754" lon="6.97985">
        <ele>2231.4</ele>
        <time>2022-02-25T13:54:08Z</time>
      </trkpt>
      <trkpt lat="44.79754" lon="6.97985">
        <ele>2231.4</ele>
        <time>2022-02-25T13:54:09Z</time>
      </trkpt>
      <trkpt lat="44.79753" lon="6.97985">
        <ele>2231.6</ele>
        <time>2022-02-25T13:54:10Z</time>
      </trkpt>
      <trkpt lat="44.79753" lon="6.97985">
        <ele>2231.6</ele>
        <time>2022-02-25T13:54:11Z</time>
      </trkpt>
      <trkpt lat="44.79753" lon="6.97985">
        <ele>2231.6</ele>
        <time>2022-02-25T13:54:12Z</time>
      </trkpt>
      <trkpt lat="44.79753" lon="6.97985">
        <ele>2231.6</ele>
        <time>2022-02-25T13:54:13Z</time>
      </trkpt>
      <trkpt lat="44.79753" lon="6.97984">
        <ele>2231.5</ele>
        <time>2022-02-25T13:54:14Z</time>
      </trkpt>
      <trkpt lat="44.79753" lon="6.97984">
        <ele>2231.5</ele>
        <time>2022-02-25T13:54:15Z</time>
      </trkpt>
      <trkpt lat="44.79753" lon="6.97984">
        <ele>2231.5</ele>
        <time>2022-02-25T13:54:16Z</time>
      </trkpt>
      <trkpt lat="44.79753" lon="6.97984">
        <ele>2231.5</ele>
        <time>2022-02-25T13:54:17Z</time>
      </trkpt>
      <trkpt lat="44.79753" lon="6.97984">
        <ele>2231.5</ele>
        <time>2022-02-25T13:54:18Z</time>
      </trkpt>
      <trkpt lat="44.79753" lon="6.97984">
        <ele>2231.5</ele>
        <time>2022-02-25T13:54:19Z</time>
      </trkpt>
      <trkpt lat="44.79753" lon="6.97983">
        <ele>2231.4</ele>
        <time>2022-02-25T13:54:20Z</time>
      </trkpt>
      <trkpt lat="44.79753" lon="6.97983">
        <ele>2231.4</ele>
        <time>2022-02-25T13:54:21Z</time>
      </trkpt>
      <trkpt lat="44.79753" lon="6.97983">
        <ele>2231.4</ele>
        <time>2022-02-25T13:54:22Z</time>
      </trkpt>
      <trkpt lat="44.79753" lon="6.97983">
        <ele>2231.4</ele>
        <time>2022-02-25T13:54:23Z</time>
      </trkpt>
      <trkpt lat="44.79753" lon="6.9798">
        <ele>2231.1</ele>
        <time>2022-02-25T13:54:24Z</time>
      </trkpt>
      <trkpt lat="44.79753" lon="6.9798">
        <ele>2231.1</ele>
        <time>2022-02-25T13:54:25Z</time>
      </trkpt>
      <trkpt lat="44.79753" lon="6.9798">
        <ele>2231.1</ele>
        <time>2022-02-25T13:54:26Z</time>
      </trkpt>
      <trkpt lat="44.79753" lon="6.97977">
        <ele>2230.8</ele>
        <time>2022-02-25T13:54:27Z</time>
      </trkpt>
      <trkpt lat="44.79753" lon="6.97977">
        <ele>2230.8</ele>
        <time>2022-02-25T13:54:28Z</time>
      </trkpt>
      <trkpt lat="44.79753" lon="6.97977">
        <ele>2230.8</ele>
        <time>2022-02-25T13:54:29Z</time>
      </trkpt>
      <trkpt lat="44.79753" lon="6.97977">
        <ele>2230.8</ele>
        <time>2022-02-25T13:54:30Z</time>
      </trkpt>
      <trkpt lat="44.79753" lon="6.97977">
        <ele>2230.8</ele>
        <time>2022-02-25T13:54:31Z</time>
      </trkpt>
      <trkpt lat="44.79754" lon="6.97974">
        <ele>2230.2</ele>
        <time>2022-02-25T13:54:32Z</time>
      </trkpt>
      <trkpt lat="44.79754" lon="6.97974">
        <ele>2230.2</ele>
        <time>2022-02-25T13:54:33Z</time>
      </trkpt>
      <trkpt lat="44.79754" lon="6.97971">
        <ele>2230</ele>
        <time>2022-02-25T13:54:34Z</time>
      </trkpt>
      <trkpt lat="44.79754" lon="6.97971">
        <ele>2230</ele>
        <time>2022-02-25T13:54:35Z</time>
      </trkpt>
      <trkpt lat="44.79755" lon="6.97968">
        <ele>2229.8</ele>
        <time>2022-02-25T13:54:36Z</time>
      </trkpt>
      <trkpt lat="44.79755" lon="6.97968">
        <ele>2229.8</ele>
        <time>2022-02-25T13:54:37Z</time>
      </trkpt>
      <trkpt lat="44.79755" lon="6.97968">
        <ele>2229.8</ele>
        <time>2022-02-25T13:54:38Z</time>
      </trkpt>
      <trkpt lat="44.79757" lon="6.97962">
        <ele>2229.4</ele>
        <time>2022-02-25T13:54:39Z</time>
      </trkpt>
      <trkpt lat="44.79757" lon="6.97962">
        <ele>2229.4</ele>
        <time>2022-02-25T13:54:40Z</time>
      </trkpt>
      <trkpt lat="44.79758" lon="6.97958">
        <ele>2229.2</ele>
        <time>2022-02-25T13:54:41Z</time>
      </trkpt>
      <trkpt lat="44.79758" lon="6.97958">
        <ele>2229.2</ele>
        <time>2022-02-25T13:54:42Z</time>
      </trkpt>
      <trkpt lat="44.79759" lon="6.97954">
        <ele>2229</ele>
        <time>2022-02-25T13:54:43Z</time>
      </trkpt>
      <trkpt lat="44.79759" lon="6.97952">
        <ele>2229</ele>
        <time>2022-02-25T13:54:44Z</time>
      </trkpt>
      <trkpt lat="44.79759" lon="6.97952">
        <ele>2229</ele>
        <time>2022-02-25T13:54:45Z</time>
      </trkpt>
      <trkpt lat="44.7976" lon="6.97948">
        <ele>2228.7</ele>
        <time>2022-02-25T13:54:46Z</time>
      </trkpt>
      <trkpt lat="44.7976" lon="6.97948">
        <ele>2228.7</ele>
        <time>2022-02-25T13:54:47Z</time>
      </trkpt>
      <trkpt lat="44.7976" lon="6.97948">
        <ele>2228.7</ele>
        <time>2022-02-25T13:54:48Z</time>
      </trkpt>
      <trkpt lat="44.7976" lon="6.97944">
        <ele>2228.7</ele>
        <time>2022-02-25T13:54:49Z</time>
      </trkpt>
      <trkpt lat="44.79761" lon="6.97942">
        <ele>2228.3</ele>
        <time>2022-02-25T13:54:50Z</time>
      </trkpt>
      <trkpt lat="44.79761" lon="6.97942">
        <ele>2228.3</ele>
        <time>2022-02-25T13:54:51Z</time>
      </trkpt>
      <trkpt lat="44.79761" lon="6.97942">
        <ele>2228.3</ele>
        <time>2022-02-25T13:54:52Z</time>
      </trkpt>
      <trkpt lat="44.79761" lon="6.97933">
        <ele>2227.9</ele>
        <time>2022-02-25T13:54:53Z</time>
      </trkpt>
      <trkpt lat="44.79762" lon="6.97932">
        <ele>2227.6</ele>
        <time>2022-02-25T13:54:54Z</time>
      </trkpt>
      <trkpt lat="44.79762" lon="6.97931">
        <ele>2227.6</ele>
        <time>2022-02-25T13:54:55Z</time>
      </trkpt>
      <trkpt lat="44.79762" lon="6.97925">
        <ele>2227.3</ele>
        <time>2022-02-25T13:54:56Z</time>
      </trkpt>
      <trkpt lat="44.79762" lon="6.97925">
        <ele>2227.3</ele>
        <time>2022-02-25T13:54:57Z</time>
      </trkpt>
      <trkpt lat="44.79762" lon="6.97921">
        <ele>2227.2</ele>
        <time>2022-02-25T13:54:58Z</time>
      </trkpt>
      <trkpt lat="44.79762" lon="6.97921">
        <ele>2227.2</ele>
        <time>2022-02-25T13:54:59Z</time>
      </trkpt>
      <trkpt lat="44.79762" lon="6.97918">
        <ele>2227</ele>
        <time>2022-02-25T13:55:00Z</time>
      </trkpt>
      <trkpt lat="44.79762" lon="6.97918">
        <ele>2227</ele>
        <time>2022-02-25T13:55:01Z</time>
      </trkpt>
      <trkpt lat="44.79762" lon="6.97918">
        <ele>2227</ele>
        <time>2022-02-25T13:55:02Z</time>
      </trkpt>
      <trkpt lat="44.79762" lon="6.97918">
        <ele>2227</ele>
        <time>2022-02-25T13:55:03Z</time>
      </trkpt>
      <trkpt lat="44.79762" lon="6.97918">
        <ele>2227</ele>
        <time>2022-02-25T13:55:04Z</time>
      </trkpt>
      <trkpt lat="44.79762" lon="6.97918">
        <ele>2227</ele>
        <time>2022-02-25T13:55:05Z</time>
      </trkpt>
      <trkpt lat="44.79762" lon="6.97918">
        <ele>2227</ele>
        <time>2022-02-25T13:55:06Z</time>
      </trkpt>
      <trkpt lat="44.79762" lon="6.97918">
        <ele>2227</ele>
        <time>2022-02-25T13:55:07Z</time>
      </trkpt>
      <trkpt lat="44.79762" lon="6.97918">
        <ele>2227</ele>
        <time>2022-02-25T13:55:08Z</time>
      </trkpt>
      <trkpt lat="44.79762" lon="6.97918">
        <ele>2227</ele>
        <time>2022-02-25T13:55:09Z</time>
      </trkpt>
      <trkpt lat="44.79762" lon="6.97918">
        <ele>2227</ele>
        <time>2022-02-25T13:55:10Z</time>
      </trkpt>
      <trkpt lat="44.79762" lon="6.97918">
        <ele>2227</ele>
        <time>2022-02-25T13:55:11Z</time>
      </trkpt>
      <trkpt lat="44.79762" lon="6.97918">
        <ele>2227</ele>
        <time>2022-02-25T13:55:12Z</time>
      </trkpt>
      <trkpt lat="44.79762" lon="6.97918">
        <ele>2227</ele>
        <time>2022-02-25T13:55:13Z</time>
      </trkpt>
      <trkpt lat="44.79762" lon="6.97918">
        <ele>2227</ele>
        <time>2022-02-25T13:55:14Z</time>
      </trkpt>
      <trkpt lat="44.79762" lon="6.97918">
        <ele>2227</ele>
        <time>2022-02-25T13:55:15Z</time>
      </trkpt>
      <trkpt lat="44.79762" lon="6.97918">
        <ele>2227</ele>
        <time>2022-02-25T13:55:16Z</time>
      </trkpt>
      <trkpt lat="44.79762" lon="6.97918">
        <ele>2227</ele>
        <time>2022-02-25T13:55:17Z</time>
      </trkpt>
      <trkpt lat="44.79762" lon="6.97918">
        <ele>2227</ele>
        <time>2022-02-25T13:55:18Z</time>
      </trkpt>
      <trkpt lat="44.79762" lon="6.97918">
        <ele>2227</ele>
        <time>2022-02-25T13:55:19Z</time>
      </trkpt>
      <trkpt lat="44.79762" lon="6.97918">
        <ele>2227</ele>
        <time>2022-02-25T13:55:20Z</time>
      </trkpt>
      <trkpt lat="44.79762" lon="6.97918">
        <ele>2227</ele>
        <time>2022-02-25T13:55:21Z</time>
      </trkpt>
      <trkpt lat="44.79762" lon="6.97918">
        <ele>2227</ele>
        <time>2022-02-25T13:55:22Z</time>
      </trkpt>
      <trkpt lat="44.79762" lon="6.97918">
        <ele>2227</ele>
        <time>2022-02-25T13:55:23Z</time>
      </trkpt>
      <trkpt lat="44.79762" lon="6.97918">
        <ele>2227</ele>
        <time>2022-02-25T13:55:24Z</time>
      </trkpt>
      <trkpt lat="44.79762" lon="6.97918">
        <ele>2227</ele>
        <time>2022-02-25T13:55:25Z</time>
      </trkpt>
      <trkpt lat="44.79762" lon="6.97913">
        <ele>2226.9</ele>
        <time>2022-02-25T13:55:26Z</time>
      </trkpt>
      <trkpt lat="44.79762" lon="6.97913">
        <ele>2226.9</ele>
        <time>2022-02-25T13:55:27Z</time>
      </trkpt>
      <trkpt lat="44.79762" lon="6.97909">
        <ele>2226.8</ele>
        <time>2022-02-25T13:55:28Z</time>
      </trkpt>
      <trkpt lat="44.79762" lon="6.97909">
        <ele>2226.8</ele>
        <time>2022-02-25T13:55:29Z</time>
      </trkpt>
      <trkpt lat="44.79762" lon="6.97909">
        <ele>2226.8</ele>
        <time>2022-02-25T13:55:30Z</time>
      </trkpt>
      <trkpt lat="44.79762" lon="6.97906">
        <ele>2226.7</ele>
        <time>2022-02-25T13:55:31Z</time>
      </trkpt>
      <trkpt lat="44.79762" lon="6.97906">
        <ele>2226.7</ele>
        <time>2022-02-25T13:55:32Z</time>
      </trkpt>
      <trkpt lat="44.79762" lon="6.97906">
        <ele>2226.7</ele>
        <time>2022-02-25T13:55:33Z</time>
      </trkpt>
      <trkpt lat="44.79762" lon="6.97906">
        <ele>2226.7</ele>
        <time>2022-02-25T13:55:34Z</time>
      </trkpt>
      <trkpt lat="44.79762" lon="6.97906">
        <ele>2226.7</ele>
        <time>2022-02-25T13:55:35Z</time>
      </trkpt>
      <trkpt lat="44.79762" lon="6.97906">
        <ele>2226.7</ele>
        <time>2022-02-25T13:55:36Z</time>
      </trkpt>
      <trkpt lat="44.79762" lon="6.97906">
        <ele>2226.7</ele>
        <time>2022-02-25T13:55:37Z</time>
      </trkpt>
      <trkpt lat="44.79762" lon="6.97906">
        <ele>2226.7</ele>
        <time>2022-02-25T13:55:38Z</time>
      </trkpt>
      <trkpt lat="44.79762" lon="6.97906">
        <ele>2226.7</ele>
        <time>2022-02-25T13:55:39Z</time>
      </trkpt>
      <trkpt lat="44.79762" lon="6.97906">
        <ele>2226.7</ele>
        <time>2022-02-25T13:55:40Z</time>
      </trkpt>
      <trkpt lat="44.79762" lon="6.97906">
        <ele>2226.7</ele>
        <time>2022-02-25T13:55:41Z</time>
      </trkpt>
      <trkpt lat="44.79762" lon="6.97906">
        <ele>2226.7</ele>
        <time>2022-02-25T13:55:42Z</time>
      </trkpt>
      <trkpt lat="44.79762" lon="6.97906">
        <ele>2226.7</ele>
        <time>2022-02-25T13:55:43Z</time>
      </trkpt>
      <trkpt lat="44.79762" lon="6.97906">
        <ele>2226.7</ele>
        <time>2022-02-25T13:55:44Z</time>
      </trkpt>
      <trkpt lat="44.79762" lon="6.97906">
        <ele>2226.7</ele>
        <time>2022-02-25T13:55:45Z</time>
      </trkpt>
      <trkpt lat="44.79762" lon="6.97906">
        <ele>2226.7</ele>
        <time>2022-02-25T13:55:46Z</time>
      </trkpt>
      <trkpt lat="44.79762" lon="6.97906">
        <ele>2226.7</ele>
        <time>2022-02-25T13:55:47Z</time>
      </trkpt>
      <trkpt lat="44.79762" lon="6.97906">
        <ele>2226.7</ele>
        <time>2022-02-25T13:55:48Z</time>
      </trkpt>
      <trkpt lat="44.79762" lon="6.97906">
        <ele>2226.7</ele>
        <time>2022-02-25T13:55:49Z</time>
      </trkpt>
      <trkpt lat="44.79762" lon="6.97906">
        <ele>2226.7</ele>
        <time>2022-02-25T13:55:50Z</time>
      </trkpt>
      <trkpt lat="44.79762" lon="6.97906">
        <ele>2226.7</ele>
        <time>2022-02-25T13:55:51Z</time>
      </trkpt>
      <trkpt lat="44.79762" lon="6.97906">
        <ele>2226.7</ele>
        <time>2022-02-25T13:55:52Z</time>
      </trkpt>
      <trkpt lat="44.79762" lon="6.97906">
        <ele>2226.7</ele>
        <time>2022-02-25T13:55:53Z</time>
      </trkpt>
      <trkpt lat="44.79762" lon="6.97906">
        <ele>2226.7</ele>
        <time>2022-02-25T13:55:54Z</time>
      </trkpt>
      <trkpt lat="44.79762" lon="6.97906">
        <ele>2226.7</ele>
        <time>2022-02-25T13:55:55Z</time>
      </trkpt>
      <trkpt lat="44.79762" lon="6.97903">
        <ele>2226.6</ele>
        <time>2022-02-25T13:55:56Z</time>
      </trkpt>
      <trkpt lat="44.79762" lon="6.97903">
        <ele>2226.6</ele>
        <time>2022-02-25T13:55:57Z</time>
      </trkpt>
      <trkpt lat="44.79762" lon="6.97903">
        <ele>2226.6</ele>
        <time>2022-02-25T13:55:58Z</time>
      </trkpt>
      <trkpt lat="44.79762" lon="6.97899">
        <ele>2226.5</ele>
        <time>2022-02-25T13:55:59Z</time>
      </trkpt>
      <trkpt lat="44.79762" lon="6.97899">
        <ele>2226.5</ele>
        <time>2022-02-25T13:56:00Z</time>
      </trkpt>
      <trkpt lat="44.79763" lon="6.97895">
        <ele>2226.3</ele>
        <time>2022-02-25T13:56:01Z</time>
      </trkpt>
      <trkpt lat="44.79763" lon="6.97895">
        <ele>2226.3</ele>
        <time>2022-02-25T13:56:02Z</time>
      </trkpt>
      <trkpt lat="44.79763" lon="6.9789">
        <ele>2226.2</ele>
        <time>2022-02-25T13:56:03Z</time>
      </trkpt>
      <trkpt lat="44.79764" lon="6.97887">
        <ele>2225.9</ele>
        <time>2022-02-25T13:56:04Z</time>
      </trkpt>
      <trkpt lat="44.79764" lon="6.97884">
        <ele>2225.7</ele>
        <time>2022-02-25T13:56:05Z</time>
      </trkpt>
      <trkpt lat="44.79764" lon="6.97884">
        <ele>2225.7</ele>
        <time>2022-02-25T13:56:06Z</time>
      </trkpt>
      <trkpt lat="44.79764" lon="6.97884">
        <ele>2225.7</ele>
        <time>2022-02-25T13:56:07Z</time>
      </trkpt>
      <trkpt lat="44.79764" lon="6.97881">
        <ele>2225.6</ele>
        <time>2022-02-25T13:56:08Z</time>
      </trkpt>
      <trkpt lat="44.79764" lon="6.97881">
        <ele>2225.6</ele>
        <time>2022-02-25T13:56:09Z</time>
      </trkpt>
      <trkpt lat="44.79764" lon="6.97881">
        <ele>2225.6</ele>
        <time>2022-02-25T13:56:10Z</time>
      </trkpt>
      <trkpt lat="44.79764" lon="6.97881">
        <ele>2225.6</ele>
        <time>2022-02-25T13:56:11Z</time>
      </trkpt>
      <trkpt lat="44.79764" lon="6.97881">
        <ele>2225.6</ele>
        <time>2022-02-25T13:56:12Z</time>
      </trkpt>
      <trkpt lat="44.79764" lon="6.97881">
        <ele>2225.6</ele>
        <time>2022-02-25T13:56:13Z</time>
      </trkpt>
      <trkpt lat="44.79764" lon="6.97881">
        <ele>2225.6</ele>
        <time>2022-02-25T13:56:14Z</time>
      </trkpt>
      <trkpt lat="44.79764" lon="6.97881">
        <ele>2225.6</ele>
        <time>2022-02-25T13:56:15Z</time>
      </trkpt>
      <trkpt lat="44.79764" lon="6.97881">
        <ele>2225.6</ele>
        <time>2022-02-25T13:56:16Z</time>
      </trkpt>
      <trkpt lat="44.79764" lon="6.97881">
        <ele>2225.6</ele>
        <time>2022-02-25T13:56:17Z</time>
      </trkpt>
      <trkpt lat="44.79764" lon="6.97881">
        <ele>2225.6</ele>
        <time>2022-02-25T13:56:18Z</time>
      </trkpt>
      <trkpt lat="44.79764" lon="6.97881">
        <ele>2225.6</ele>
        <time>2022-02-25T13:56:19Z</time>
      </trkpt>
      <trkpt lat="44.79764" lon="6.97881">
        <ele>2225.6</ele>
        <time>2022-02-25T13:56:20Z</time>
      </trkpt>
      <trkpt lat="44.79764" lon="6.97881">
        <ele>2225.6</ele>
        <time>2022-02-25T13:56:21Z</time>
      </trkpt>
      <trkpt lat="44.79764" lon="6.97881">
        <ele>2225.6</ele>
        <time>2022-02-25T13:56:22Z</time>
      </trkpt>
      <trkpt lat="44.79764" lon="6.97881">
        <ele>2225.6</ele>
        <time>2022-02-25T13:56:23Z</time>
      </trkpt>
      <trkpt lat="44.79764" lon="6.97881">
        <ele>2225.6</ele>
        <time>2022-02-25T13:56:24Z</time>
      </trkpt>
      <trkpt lat="44.79764" lon="6.97881">
        <ele>2225.6</ele>
        <time>2022-02-25T13:56:25Z</time>
      </trkpt>
      <trkpt lat="44.79764" lon="6.97881">
        <ele>2225.6</ele>
        <time>2022-02-25T13:56:26Z</time>
      </trkpt>
      <trkpt lat="44.79764" lon="6.97881">
        <ele>2225.6</ele>
        <time>2022-02-25T13:56:27Z</time>
      </trkpt>
      <trkpt lat="44.79764" lon="6.97881">
        <ele>2225.6</ele>
        <time>2022-02-25T13:56:28Z</time>
      </trkpt>
      <trkpt lat="44.79764" lon="6.97881">
        <ele>2225.6</ele>
        <time>2022-02-25T13:56:29Z</time>
      </trkpt>
      <trkpt lat="44.79764" lon="6.97881">
        <ele>2225.6</ele>
        <time>2022-02-25T13:56:30Z</time>
      </trkpt>
      <trkpt lat="44.79764" lon="6.97881">
        <ele>2225.6</ele>
        <time>2022-02-25T13:56:31Z</time>
      </trkpt>
      <trkpt lat="44.79765" lon="6.97878">
        <ele>2225.3</ele>
        <time>2022-02-25T13:56:32Z</time>
      </trkpt>
      <trkpt lat="44.79765" lon="6.97878">
        <ele>2225.3</ele>
        <time>2022-02-25T13:56:33Z</time>
      </trkpt>
      <trkpt lat="44.79764" lon="6.97873">
        <ele>2225.1</ele>
        <time>2022-02-25T13:56:34Z</time>
      </trkpt>
      <trkpt lat="44.79764" lon="6.9787">
        <ele>2225</ele>
        <time>2022-02-25T13:56:35Z</time>
      </trkpt>
      <trkpt lat="44.79764" lon="6.97867">
        <ele>2224.8</ele>
        <time>2022-02-25T13:56:36Z</time>
      </trkpt>
      <trkpt lat="44.79764" lon="6.97865">
        <ele>2224.7</ele>
        <time>2022-02-25T13:56:37Z</time>
      </trkpt>
      <trkpt lat="44.79763" lon="6.97863">
        <ele>2224.7</ele>
        <time>2022-02-25T13:56:38Z</time>
      </trkpt>
      <trkpt lat="44.79763" lon="6.97863">
        <ele>2224.7</ele>
        <time>2022-02-25T13:56:39Z</time>
      </trkpt>
      <trkpt lat="44.79761" lon="6.97859">
        <ele>2224.7</ele>
        <time>2022-02-25T13:56:40Z</time>
      </trkpt>
      <trkpt lat="44.79761" lon="6.97859">
        <ele>2224.7</ele>
        <time>2022-02-25T13:56:41Z</time>
      </trkpt>
      <trkpt lat="44.7976" lon="6.97858">
        <ele>2224.7</ele>
        <time>2022-02-25T13:56:42Z</time>
      </trkpt>
      <trkpt lat="44.7976" lon="6.97858">
        <ele>2224.7</ele>
        <time>2022-02-25T13:56:43Z</time>
      </trkpt>
      <trkpt lat="44.79758" lon="6.97857">
        <ele>2224.9</ele>
        <time>2022-02-25T13:56:44Z</time>
      </trkpt>
      <trkpt lat="44.79758" lon="6.97857">
        <ele>2224.9</ele>
        <time>2022-02-25T13:56:45Z</time>
      </trkpt>
      <trkpt lat="44.79758" lon="6.97857">
        <ele>2224.9</ele>
        <time>2022-02-25T13:56:46Z</time>
      </trkpt>
      <trkpt lat="44.79755" lon="6.97856">
        <ele>2225.1</ele>
        <time>2022-02-25T13:56:47Z</time>
      </trkpt>
      <trkpt lat="44.79755" lon="6.97856">
        <ele>2225.1</ele>
        <time>2022-02-25T13:56:48Z</time>
      </trkpt>
      <trkpt lat="44.79753" lon="6.97855">
        <ele>2225.3</ele>
        <time>2022-02-25T13:56:49Z</time>
      </trkpt>
      <trkpt lat="44.79753" lon="6.97855">
        <ele>2225.3</ele>
        <time>2022-02-25T13:56:50Z</time>
      </trkpt>
      <trkpt lat="44.79753" lon="6.97855">
        <ele>2225.3</ele>
        <time>2022-02-25T13:56:51Z</time>
      </trkpt>
      <trkpt lat="44.79752" lon="6.97852">
        <ele>2225.2</ele>
        <time>2022-02-25T13:56:52Z</time>
      </trkpt>
      <trkpt lat="44.79752" lon="6.97852">
        <ele>2225.2</ele>
        <time>2022-02-25T13:56:53Z</time>
      </trkpt>
      <trkpt lat="44.79752" lon="6.97852">
        <ele>2225.2</ele>
        <time>2022-02-25T13:56:54Z</time>
      </trkpt>
      <trkpt lat="44.79751" lon="6.9785">
        <ele>2225.1</ele>
        <time>2022-02-25T13:56:55Z</time>
      </trkpt>
      <trkpt lat="44.79751" lon="6.9785">
        <ele>2225.1</ele>
        <time>2022-02-25T13:56:56Z</time>
      </trkpt>
      <trkpt lat="44.79751" lon="6.9785">
        <ele>2225.1</ele>
        <time>2022-02-25T13:56:57Z</time>
      </trkpt>
      <trkpt lat="44.79751" lon="6.9785">
        <ele>2225.1</ele>
        <time>2022-02-25T13:56:58Z</time>
      </trkpt>
      <trkpt lat="44.79749" lon="6.97848">
        <ele>2225.1</ele>
        <time>2022-02-25T13:56:59Z</time>
      </trkpt>
      <trkpt lat="44.79749" lon="6.97848">
        <ele>2225.1</ele>
        <time>2022-02-25T13:57:00Z</time>
      </trkpt>
      <trkpt lat="44.79748" lon="6.97847">
        <ele>2225.1</ele>
        <time>2022-02-25T13:57:01Z</time>
      </trkpt>
      <trkpt lat="44.79748" lon="6.97847">
        <ele>2225.1</ele>
        <time>2022-02-25T13:57:02Z</time>
      </trkpt>
      <trkpt lat="44.79748" lon="6.97847">
        <ele>2225.1</ele>
        <time>2022-02-25T13:57:03Z</time>
      </trkpt>
      <trkpt lat="44.79746" lon="6.97846">
        <ele>2225.2</ele>
        <time>2022-02-25T13:57:04Z</time>
      </trkpt>
      <trkpt lat="44.79746" lon="6.97846">
        <ele>2225.2</ele>
        <time>2022-02-25T13:57:05Z</time>
      </trkpt>
      <trkpt lat="44.79746" lon="6.97846">
        <ele>2225.2</ele>
        <time>2022-02-25T13:57:06Z</time>
      </trkpt>
      <trkpt lat="44.79745" lon="6.97844">
        <ele>2225.1</ele>
        <time>2022-02-25T13:57:07Z</time>
      </trkpt>
      <trkpt lat="44.79745" lon="6.97844">
        <ele>2225.1</ele>
        <time>2022-02-25T13:57:08Z</time>
      </trkpt>
      <trkpt lat="44.79745" lon="6.97844">
        <ele>2225.1</ele>
        <time>2022-02-25T13:57:09Z</time>
      </trkpt>
      <trkpt lat="44.79745" lon="6.97844">
        <ele>2225.1</ele>
        <time>2022-02-25T13:57:10Z</time>
      </trkpt>
      <trkpt lat="44.79743" lon="6.97841">
        <ele>2225.1</ele>
        <time>2022-02-25T13:57:11Z</time>
      </trkpt>
      <trkpt lat="44.79743" lon="6.97841">
        <ele>2225.1</ele>
        <time>2022-02-25T13:57:12Z</time>
      </trkpt>
      <trkpt lat="44.79743" lon="6.97841">
        <ele>2225.1</ele>
        <time>2022-02-25T13:57:13Z</time>
      </trkpt>
      <trkpt lat="44.79742" lon="6.97839">
        <ele>2225</ele>
        <time>2022-02-25T13:57:14Z</time>
      </trkpt>
      <trkpt lat="44.79742" lon="6.97839">
        <ele>2225</ele>
        <time>2022-02-25T13:57:15Z</time>
      </trkpt>
      <trkpt lat="44.79742" lon="6.97839">
        <ele>2225</ele>
        <time>2022-02-25T13:57:16Z</time>
      </trkpt>
      <trkpt lat="44.7974" lon="6.97837">
        <ele>2225</ele>
        <time>2022-02-25T13:57:17Z</time>
      </trkpt>
      <trkpt lat="44.7974" lon="6.97837">
        <ele>2225</ele>
        <time>2022-02-25T13:57:18Z</time>
      </trkpt>
      <trkpt lat="44.79738" lon="6.97835">
        <ele>2225</ele>
        <time>2022-02-25T13:57:19Z</time>
      </trkpt>
      <trkpt lat="44.79738" lon="6.97835">
        <ele>2225</ele>
        <time>2022-02-25T13:57:20Z</time>
      </trkpt>
      <trkpt lat="44.79736" lon="6.97833">
        <ele>2225</ele>
        <time>2022-02-25T13:57:21Z</time>
      </trkpt>
      <trkpt lat="44.79736" lon="6.97833">
        <ele>2225</ele>
        <time>2022-02-25T13:57:22Z</time>
      </trkpt>
      <trkpt lat="44.79733" lon="6.97831">
        <ele>2225</ele>
        <time>2022-02-25T13:57:23Z</time>
      </trkpt>
      <trkpt lat="44.79731" lon="6.97829">
        <ele>2224.9</ele>
        <time>2022-02-25T13:57:24Z</time>
      </trkpt>
      <trkpt lat="44.79729" lon="6.97826">
        <ele>2224.8</ele>
        <time>2022-02-25T13:57:25Z</time>
      </trkpt>
      <trkpt lat="44.79727" lon="6.97823">
        <ele>2224.6</ele>
        <time>2022-02-25T13:57:26Z</time>
      </trkpt>
      <trkpt lat="44.79727" lon="6.97823">
        <ele>2224.6</ele>
        <time>2022-02-25T13:57:27Z</time>
      </trkpt>
      <trkpt lat="44.79726" lon="6.97821">
        <ele>2224.5</ele>
        <time>2022-02-25T13:57:28Z</time>
      </trkpt>
      <trkpt lat="44.79726" lon="6.97821">
        <ele>2224.5</ele>
        <time>2022-02-25T13:57:29Z</time>
      </trkpt>
      <trkpt lat="44.79726" lon="6.97821">
        <ele>2224.5</ele>
        <time>2022-02-25T13:57:30Z</time>
      </trkpt>
      <trkpt lat="44.79725" lon="6.97818">
        <ele>2224.2</ele>
        <time>2022-02-25T13:57:31Z</time>
      </trkpt>
      <trkpt lat="44.79725" lon="6.97818">
        <ele>2224.2</ele>
        <time>2022-02-25T13:57:32Z</time>
      </trkpt>
      <trkpt lat="44.79725" lon="6.97818">
        <ele>2224.2</ele>
        <time>2022-02-25T13:57:33Z</time>
      </trkpt>
      <trkpt lat="44.79725" lon="6.97815">
        <ele>2223.9</ele>
        <time>2022-02-25T13:57:34Z</time>
      </trkpt>
      <trkpt lat="44.79725" lon="6.97815">
        <ele>2223.9</ele>
        <time>2022-02-25T13:57:35Z</time>
      </trkpt>
      <trkpt lat="44.79725" lon="6.97815">
        <ele>2223.9</ele>
        <time>2022-02-25T13:57:36Z</time>
      </trkpt>
      <trkpt lat="44.79725" lon="6.97815">
        <ele>2223.9</ele>
        <time>2022-02-25T13:57:37Z</time>
      </trkpt>
      <trkpt lat="44.79725" lon="6.97815">
        <ele>2223.9</ele>
        <time>2022-02-25T13:57:38Z</time>
      </trkpt>
      <trkpt lat="44.79725" lon="6.97813">
        <ele>2223.7</ele>
        <time>2022-02-25T13:57:39Z</time>
      </trkpt>
      <trkpt lat="44.79725" lon="6.97813">
        <ele>2223.7</ele>
        <time>2022-02-25T13:57:40Z</time>
      </trkpt>
      <trkpt lat="44.79723" lon="6.9781">
        <ele>2223.4</ele>
        <time>2022-02-25T13:57:41Z</time>
      </trkpt>
      <trkpt lat="44.79723" lon="6.9781">
        <ele>2223.4</ele>
        <time>2022-02-25T13:57:42Z</time>
      </trkpt>
      <trkpt lat="44.79721" lon="6.97805">
        <ele>2223.2</ele>
        <time>2022-02-25T13:57:43Z</time>
      </trkpt>
      <trkpt lat="44.7972" lon="6.978">
        <ele>2222.9</ele>
        <time>2022-02-25T13:57:44Z</time>
      </trkpt>
      <trkpt lat="44.79719" lon="6.97793">
        <ele>2222.4</ele>
        <time>2022-02-25T13:57:45Z</time>
      </trkpt>
      <trkpt lat="44.79719" lon="6.9779">
        <ele>2222.1</ele>
        <time>2022-02-25T13:57:46Z</time>
      </trkpt>
      <trkpt lat="44.79719" lon="6.97785">
        <ele>2221.6</ele>
        <time>2022-02-25T13:57:47Z</time>
      </trkpt>
      <trkpt lat="44.79718" lon="6.97781">
        <ele>2221.4</ele>
        <time>2022-02-25T13:57:48Z</time>
      </trkpt>
      <trkpt lat="44.79718" lon="6.97778">
        <ele>2221.1</ele>
        <time>2022-02-25T13:57:49Z</time>
      </trkpt>
      <trkpt lat="44.79718" lon="6.97775">
        <ele>2221</ele>
        <time>2022-02-25T13:57:50Z</time>
      </trkpt>
      <trkpt lat="44.79718" lon="6.97775">
        <ele>2221</ele>
        <time>2022-02-25T13:57:51Z</time>
      </trkpt>
      <trkpt lat="44.79718" lon="6.97771">
        <ele>2220.8</ele>
        <time>2022-02-25T13:57:52Z</time>
      </trkpt>
      <trkpt lat="44.79718" lon="6.97771">
        <ele>2220.8</ele>
        <time>2022-02-25T13:57:53Z</time>
      </trkpt>
      <trkpt lat="44.79718" lon="6.97771">
        <ele>2220.8</ele>
        <time>2022-02-25T13:57:54Z</time>
      </trkpt>
      <trkpt lat="44.79718" lon="6.97771">
        <ele>2220.8</ele>
        <time>2022-02-25T13:57:55Z</time>
      </trkpt>
      <trkpt lat="44.79718" lon="6.97768">
        <ele>2220.7</ele>
        <time>2022-02-25T13:57:56Z</time>
      </trkpt>
      <trkpt lat="44.79718" lon="6.97768">
        <ele>2220.7</ele>
        <time>2022-02-25T13:57:57Z</time>
      </trkpt>
      <trkpt lat="44.79718" lon="6.97768">
        <ele>2220.7</ele>
        <time>2022-02-25T13:57:58Z</time>
      </trkpt>
      <trkpt lat="44.79718" lon="6.97768">
        <ele>2220.7</ele>
        <time>2022-02-25T13:57:59Z</time>
      </trkpt>
      <trkpt lat="44.79718" lon="6.97768">
        <ele>2220.7</ele>
        <time>2022-02-25T13:58:00Z</time>
      </trkpt>
      <trkpt lat="44.79718" lon="6.97768">
        <ele>2220.7</ele>
        <time>2022-02-25T13:58:01Z</time>
      </trkpt>
      <trkpt lat="44.79718" lon="6.97768">
        <ele>2220.7</ele>
        <time>2022-02-25T13:58:02Z</time>
      </trkpt>
      <trkpt lat="44.79718" lon="6.97768">
        <ele>2220.7</ele>
        <time>2022-02-25T13:58:03Z</time>
      </trkpt>
      <trkpt lat="44.79718" lon="6.97768">
        <ele>2220.7</ele>
        <time>2022-02-25T13:58:04Z</time>
      </trkpt>
      <trkpt lat="44.79718" lon="6.97768">
        <ele>2220.7</ele>
        <time>2022-02-25T13:58:05Z</time>
      </trkpt>
      <trkpt lat="44.79718" lon="6.97768">
        <ele>2220.7</ele>
        <time>2022-02-25T13:58:06Z</time>
      </trkpt>
      <trkpt lat="44.79718" lon="6.97768">
        <ele>2220.7</ele>
        <time>2022-02-25T13:58:07Z</time>
      </trkpt>
      <trkpt lat="44.79718" lon="6.97768">
        <ele>2220.7</ele>
        <time>2022-02-25T13:58:08Z</time>
      </trkpt>
      <trkpt lat="44.79718" lon="6.97768">
        <ele>2220.7</ele>
        <time>2022-02-25T13:58:09Z</time>
      </trkpt>
      <trkpt lat="44.79718" lon="6.97768">
        <ele>2220.7</ele>
        <time>2022-02-25T13:58:10Z</time>
      </trkpt>
      <trkpt lat="44.79718" lon="6.97768">
        <ele>2220.7</ele>
        <time>2022-02-25T13:58:11Z</time>
      </trkpt>
      <trkpt lat="44.79718" lon="6.97768">
        <ele>2220.7</ele>
        <time>2022-02-25T13:58:12Z</time>
      </trkpt>
      <trkpt lat="44.79718" lon="6.97768">
        <ele>2220.7</ele>
        <time>2022-02-25T13:58:13Z</time>
      </trkpt>
      <trkpt lat="44.79718" lon="6.97768">
        <ele>2220.7</ele>
        <time>2022-02-25T13:58:14Z</time>
      </trkpt>
      <trkpt lat="44.79718" lon="6.97768">
        <ele>2220.7</ele>
        <time>2022-02-25T13:58:15Z</time>
      </trkpt>
      <trkpt lat="44.79718" lon="6.97768">
        <ele>2220.7</ele>
        <time>2022-02-25T13:58:16Z</time>
      </trkpt>
      <trkpt lat="44.79718" lon="6.97768">
        <ele>2220.7</ele>
        <time>2022-02-25T13:58:17Z</time>
      </trkpt>
      <trkpt lat="44.79718" lon="6.97768">
        <ele>2220.7</ele>
        <time>2022-02-25T13:58:18Z</time>
      </trkpt>
      <trkpt lat="44.79718" lon="6.97768">
        <ele>2220.7</ele>
        <time>2022-02-25T13:58:19Z</time>
      </trkpt>
      <trkpt lat="44.79718" lon="6.97768">
        <ele>2220.7</ele>
        <time>2022-02-25T13:58:20Z</time>
      </trkpt>
      <trkpt lat="44.79718" lon="6.97768">
        <ele>2220.7</ele>
        <time>2022-02-25T13:58:21Z</time>
      </trkpt>
      <trkpt lat="44.79718" lon="6.97768">
        <ele>2220.7</ele>
        <time>2022-02-25T13:58:22Z</time>
      </trkpt>
      <trkpt lat="44.79718" lon="6.97768">
        <ele>2220.7</ele>
        <time>2022-02-25T13:58:23Z</time>
      </trkpt>
      <trkpt lat="44.79718" lon="6.97768">
        <ele>2220.7</ele>
        <time>2022-02-25T13:58:24Z</time>
      </trkpt>
      <trkpt lat="44.79718" lon="6.97768">
        <ele>2220.7</ele>
        <time>2022-02-25T13:58:25Z</time>
      </trkpt>
      <trkpt lat="44.79718" lon="6.97768">
        <ele>2220.7</ele>
        <time>2022-02-25T13:58:26Z</time>
      </trkpt>
      <trkpt lat="44.79718" lon="6.97768">
        <ele>2220.7</ele>
        <time>2022-02-25T13:58:27Z</time>
      </trkpt>
      <trkpt lat="44.79718" lon="6.97768">
        <ele>2220.7</ele>
        <time>2022-02-25T13:58:28Z</time>
      </trkpt>
      <trkpt lat="44.79718" lon="6.97768">
        <ele>2220.7</ele>
        <time>2022-02-25T13:58:29Z</time>
      </trkpt>
      <trkpt lat="44.79718" lon="6.97768">
        <ele>2220.7</ele>
        <time>2022-02-25T13:58:30Z</time>
      </trkpt>
      <trkpt lat="44.79718" lon="6.97768">
        <ele>2220.7</ele>
        <time>2022-02-25T13:58:31Z</time>
      </trkpt>
      <trkpt lat="44.79718" lon="6.97768">
        <ele>2220.7</ele>
        <time>2022-02-25T13:58:32Z</time>
      </trkpt>
      <trkpt lat="44.79718" lon="6.97768">
        <ele>2220.7</ele>
        <time>2022-02-25T13:58:33Z</time>
      </trkpt>
      <trkpt lat="44.79718" lon="6.97768">
        <ele>2220.7</ele>
        <time>2022-02-25T13:58:34Z</time>
      </trkpt>
      <trkpt lat="44.79718" lon="6.97768">
        <ele>2220.7</ele>
        <time>2022-02-25T13:58:35Z</time>
      </trkpt>
      <trkpt lat="44.79718" lon="6.97768">
        <ele>2220.7</ele>
        <time>2022-02-25T13:58:36Z</time>
      </trkpt>
      <trkpt lat="44.79718" lon="6.97768">
        <ele>2220.7</ele>
        <time>2022-02-25T13:58:37Z</time>
      </trkpt>
      <trkpt lat="44.79718" lon="6.97768">
        <ele>2220.7</ele>
        <time>2022-02-25T13:58:38Z</time>
      </trkpt>
      <trkpt lat="44.79718" lon="6.97768">
        <ele>2220.7</ele>
        <time>2022-02-25T13:58:39Z</time>
      </trkpt>
      <trkpt lat="44.79718" lon="6.97768">
        <ele>2220.7</ele>
        <time>2022-02-25T13:58:40Z</time>
      </trkpt>
      <trkpt lat="44.79718" lon="6.97768">
        <ele>2220.7</ele>
        <time>2022-02-25T13:58:41Z</time>
      </trkpt>
      <trkpt lat="44.79718" lon="6.97768">
        <ele>2220.7</ele>
        <time>2022-02-25T13:58:42Z</time>
      </trkpt>
      <trkpt lat="44.79718" lon="6.97768">
        <ele>2220.7</ele>
        <time>2022-02-25T13:58:43Z</time>
      </trkpt>
      <trkpt lat="44.79718" lon="6.97768">
        <ele>2220.7</ele>
        <time>2022-02-25T13:58:44Z</time>
      </trkpt>
      <trkpt lat="44.79718" lon="6.97768">
        <ele>2220.7</ele>
        <time>2022-02-25T13:58:45Z</time>
      </trkpt>
      <trkpt lat="44.79718" lon="6.97768">
        <ele>2220.7</ele>
        <time>2022-02-25T13:58:46Z</time>
      </trkpt>
      <trkpt lat="44.79718" lon="6.97768">
        <ele>2220.7</ele>
        <time>2022-02-25T13:58:47Z</time>
      </trkpt>
      <trkpt lat="44.79718" lon="6.97768">
        <ele>2220.7</ele>
        <time>2022-02-25T13:58:48Z</time>
      </trkpt>
      <trkpt lat="44.79718" lon="6.97768">
        <ele>2220.7</ele>
        <time>2022-02-25T13:58:49Z</time>
      </trkpt>
      <trkpt lat="44.79718" lon="6.97768">
        <ele>2220.7</ele>
        <time>2022-02-25T13:58:50Z</time>
      </trkpt>
      <trkpt lat="44.79718" lon="6.97768">
        <ele>2220.7</ele>
        <time>2022-02-25T13:58:51Z</time>
      </trkpt>
      <trkpt lat="44.79718" lon="6.97768">
        <ele>2220.7</ele>
        <time>2022-02-25T13:58:52Z</time>
      </trkpt>
      <trkpt lat="44.79718" lon="6.97768">
        <ele>2220.7</ele>
        <time>2022-02-25T13:58:53Z</time>
      </trkpt>
      <trkpt lat="44.79718" lon="6.97768">
        <ele>2220.7</ele>
        <time>2022-02-25T13:58:54Z</time>
      </trkpt>
      <trkpt lat="44.79718" lon="6.97768">
        <ele>2220.7</ele>
        <time>2022-02-25T13:58:55Z</time>
      </trkpt>
      <trkpt lat="44.79718" lon="6.97768">
        <ele>2220.7</ele>
        <time>2022-02-25T13:58:56Z</time>
      </trkpt>
      <trkpt lat="44.79718" lon="6.97768">
        <ele>2220.7</ele>
        <time>2022-02-25T13:58:57Z</time>
      </trkpt>
      <trkpt lat="44.79718" lon="6.97763">
        <ele>2220.5</ele>
        <time>2022-02-25T13:58:58Z</time>
      </trkpt>
      <trkpt lat="44.79719" lon="6.9776">
        <ele>2220.2</ele>
        <time>2022-02-25T13:58:59Z</time>
      </trkpt>
      <trkpt lat="44.7972" lon="6.97756">
        <ele>2219.8</ele>
        <time>2022-02-25T13:59:00Z</time>
      </trkpt>
      <trkpt lat="44.79721" lon="6.97752">
        <ele>2219.4</ele>
        <time>2022-02-25T13:59:01Z</time>
      </trkpt>
      <trkpt lat="44.79722" lon="6.97749">
        <ele>2219.1</ele>
        <time>2022-02-25T13:59:02Z</time>
      </trkpt>
      <trkpt lat="44.79723" lon="6.97745">
        <ele>2219.1</ele>
        <time>2022-02-25T13:59:03Z</time>
      </trkpt>
      <trkpt lat="44.79725" lon="6.97741">
        <ele>2218.9</ele>
        <time>2022-02-25T13:59:04Z</time>
      </trkpt>
      <trkpt lat="44.79726" lon="6.97737">
        <ele>2218.9</ele>
        <time>2022-02-25T13:59:05Z</time>
      </trkpt>
      <trkpt lat="44.79728" lon="6.97734">
        <ele>2218.6</ele>
        <time>2022-02-25T13:59:06Z</time>
      </trkpt>
      <trkpt lat="44.79729" lon="6.97733">
        <ele>2218.5</ele>
        <time>2022-02-25T13:59:07Z</time>
      </trkpt>
      <trkpt lat="44.79729" lon="6.97733">
        <ele>2218.5</ele>
        <time>2022-02-25T13:59:08Z</time>
      </trkpt>
      <trkpt lat="44.79732" lon="6.97729">
        <ele>2218.1</ele>
        <time>2022-02-25T13:59:09Z</time>
      </trkpt>
      <trkpt lat="44.79732" lon="6.97729">
        <ele>2218.1</ele>
        <time>2022-02-25T13:59:10Z</time>
      </trkpt>
      <trkpt lat="44.79733" lon="6.97727">
        <ele>2218</ele>
        <time>2022-02-25T13:59:11Z</time>
      </trkpt>
      <trkpt lat="44.79733" lon="6.97727">
        <ele>2218</ele>
        <time>2022-02-25T13:59:12Z</time>
      </trkpt>
      <trkpt lat="44.79734" lon="6.97725">
        <ele>2217.8</ele>
        <time>2022-02-25T13:59:13Z</time>
      </trkpt>
      <trkpt lat="44.79734" lon="6.97725">
        <ele>2217.8</ele>
        <time>2022-02-25T13:59:14Z</time>
      </trkpt>
      <trkpt lat="44.79736" lon="6.97722">
        <ele>2217.5</ele>
        <time>2022-02-25T13:59:15Z</time>
      </trkpt>
      <trkpt lat="44.79736" lon="6.97722">
        <ele>2217.5</ele>
        <time>2022-02-25T13:59:16Z</time>
      </trkpt>
      <trkpt lat="44.79736" lon="6.97722">
        <ele>2217.5</ele>
        <time>2022-02-25T13:59:17Z</time>
      </trkpt>
      <trkpt lat="44.79738" lon="6.9772">
        <ele>2217.2</ele>
        <time>2022-02-25T13:59:18Z</time>
      </trkpt>
      <trkpt lat="44.79738" lon="6.9772">
        <ele>2217.2</ele>
        <time>2022-02-25T13:59:19Z</time>
      </trkpt>
      <trkpt lat="44.79739" lon="6.97717">
        <ele>2217</ele>
        <time>2022-02-25T13:59:20Z</time>
      </trkpt>
      <trkpt lat="44.79739" lon="6.97717">
        <ele>2217</ele>
        <time>2022-02-25T13:59:21Z</time>
      </trkpt>
      <trkpt lat="44.7974" lon="6.97715">
        <ele>2216.8</ele>
        <time>2022-02-25T13:59:22Z</time>
      </trkpt>
      <trkpt lat="44.79742" lon="6.97713">
        <ele>2216.4</ele>
        <time>2022-02-25T13:59:23Z</time>
      </trkpt>
      <trkpt lat="44.79743" lon="6.9771">
        <ele>2216.3</ele>
        <time>2022-02-25T13:59:24Z</time>
      </trkpt>
      <trkpt lat="44.79744" lon="6.97708">
        <ele>2216.1</ele>
        <time>2022-02-25T13:59:25Z</time>
      </trkpt>
      <trkpt lat="44.79745" lon="6.97705">
        <ele>2215.9</ele>
        <time>2022-02-25T13:59:26Z</time>
      </trkpt>
      <trkpt lat="44.79745" lon="6.97705">
        <ele>2215.9</ele>
        <time>2022-02-25T13:59:27Z</time>
      </trkpt>
      <trkpt lat="44.79746" lon="6.97703">
        <ele>2215.7</ele>
        <time>2022-02-25T13:59:28Z</time>
      </trkpt>
      <trkpt lat="44.79746" lon="6.97703">
        <ele>2215.7</ele>
        <time>2022-02-25T13:59:29Z</time>
      </trkpt>
      <trkpt lat="44.79746" lon="6.97703">
        <ele>2215.7</ele>
        <time>2022-02-25T13:59:30Z</time>
      </trkpt>
      <trkpt lat="44.79746" lon="6.97703">
        <ele>2215.7</ele>
        <time>2022-02-25T13:59:31Z</time>
      </trkpt>
      <trkpt lat="44.79746" lon="6.97703">
        <ele>2215.7</ele>
        <time>2022-02-25T13:59:32Z</time>
      </trkpt>
      <trkpt lat="44.79746" lon="6.97703">
        <ele>2215.7</ele>
        <time>2022-02-25T13:59:33Z</time>
      </trkpt>
      <trkpt lat="44.79746" lon="6.97703">
        <ele>2215.7</ele>
        <time>2022-02-25T13:59:34Z</time>
      </trkpt>
      <trkpt lat="44.79746" lon="6.97703">
        <ele>2215.7</ele>
        <time>2022-02-25T13:59:35Z</time>
      </trkpt>
      <trkpt lat="44.79746" lon="6.97703">
        <ele>2215.7</ele>
        <time>2022-02-25T13:59:36Z</time>
      </trkpt>
      <trkpt lat="44.79746" lon="6.97703">
        <ele>2215.7</ele>
        <time>2022-02-25T13:59:37Z</time>
      </trkpt>
      <trkpt lat="44.79746" lon="6.97703">
        <ele>2215.7</ele>
        <time>2022-02-25T13:59:38Z</time>
      </trkpt>
      <trkpt lat="44.79746" lon="6.97703">
        <ele>2215.7</ele>
        <time>2022-02-25T13:59:39Z</time>
      </trkpt>
      <trkpt lat="44.79746" lon="6.97703">
        <ele>2215.7</ele>
        <time>2022-02-25T13:59:40Z</time>
      </trkpt>
      <trkpt lat="44.79746" lon="6.97703">
        <ele>2215.7</ele>
        <time>2022-02-25T13:59:41Z</time>
      </trkpt>
      <trkpt lat="44.79746" lon="6.97703">
        <ele>2215.7</ele>
        <time>2022-02-25T13:59:42Z</time>
      </trkpt>
      <trkpt lat="44.79746" lon="6.97703">
        <ele>2215.7</ele>
        <time>2022-02-25T13:59:43Z</time>
      </trkpt>
      <trkpt lat="44.79746" lon="6.97703">
        <ele>2215.7</ele>
        <time>2022-02-25T13:59:44Z</time>
      </trkpt>
      <trkpt lat="44.79746" lon="6.97703">
        <ele>2215.7</ele>
        <time>2022-02-25T13:59:45Z</time>
      </trkpt>
      <trkpt lat="44.79746" lon="6.97703">
        <ele>2215.7</ele>
        <time>2022-02-25T13:59:46Z</time>
      </trkpt>
      <trkpt lat="44.79746" lon="6.97703">
        <ele>2215.7</ele>
        <time>2022-02-25T13:59:47Z</time>
      </trkpt>
      <trkpt lat="44.79746" lon="6.97703">
        <ele>2215.7</ele>
        <time>2022-02-25T13:59:48Z</time>
      </trkpt>
      <trkpt lat="44.79746" lon="6.97703">
        <ele>2215.7</ele>
        <time>2022-02-25T13:59:49Z</time>
      </trkpt>
      <trkpt lat="44.79746" lon="6.97703">
        <ele>2215.7</ele>
        <time>2022-02-25T13:59:50Z</time>
      </trkpt>
      <trkpt lat="44.79746" lon="6.97703">
        <ele>2215.7</ele>
        <time>2022-02-25T13:59:51Z</time>
      </trkpt>
      <trkpt lat="44.79746" lon="6.97703">
        <ele>2215.7</ele>
        <time>2022-02-25T13:59:52Z</time>
      </trkpt>
      <trkpt lat="44.79746" lon="6.97703">
        <ele>2215.7</ele>
        <time>2022-02-25T13:59:53Z</time>
      </trkpt>
      <trkpt lat="44.79746" lon="6.97703">
        <ele>2215.7</ele>
        <time>2022-02-25T13:59:54Z</time>
      </trkpt>
      <trkpt lat="44.79746" lon="6.97703">
        <ele>2215.7</ele>
        <time>2022-02-25T13:59:55Z</time>
      </trkpt>
      <trkpt lat="44.79746" lon="6.97703">
        <ele>2215.7</ele>
        <time>2022-02-25T13:59:56Z</time>
      </trkpt>
      <trkpt lat="44.79746" lon="6.97703">
        <ele>2215.7</ele>
        <time>2022-02-25T13:59:57Z</time>
      </trkpt>
      <trkpt lat="44.79746" lon="6.97703">
        <ele>2215.7</ele>
        <time>2022-02-25T13:59:58Z</time>
      </trkpt>
      <trkpt lat="44.79746" lon="6.97703">
        <ele>2215.7</ele>
        <time>2022-02-25T13:59:59Z</time>
      </trkpt>
      <trkpt lat="44.79746" lon="6.97703">
        <ele>2215.7</ele>
        <time>2022-02-25T14:00:00Z</time>
      </trkpt>
      <trkpt lat="44.79746" lon="6.97703">
        <ele>2215.7</ele>
        <time>2022-02-25T14:00:01Z</time>
      </trkpt>
      <trkpt lat="44.79746" lon="6.97703">
        <ele>2215.7</ele>
        <time>2022-02-25T14:00:02Z</time>
      </trkpt>
      <trkpt lat="44.79746" lon="6.97703">
        <ele>2215.7</ele>
        <time>2022-02-25T14:00:03Z</time>
      </trkpt>
      <trkpt lat="44.79746" lon="6.97703">
        <ele>2215.7</ele>
        <time>2022-02-25T14:00:04Z</time>
      </trkpt>
      <trkpt lat="44.79746" lon="6.97703">
        <ele>2215.7</ele>
        <time>2022-02-25T14:00:05Z</time>
      </trkpt>
      <trkpt lat="44.79746" lon="6.97703">
        <ele>2215.7</ele>
        <time>2022-02-25T14:00:06Z</time>
      </trkpt>
      <trkpt lat="44.79746" lon="6.97703">
        <ele>2215.7</ele>
        <time>2022-02-25T14:00:07Z</time>
      </trkpt>
      <trkpt lat="44.79748" lon="6.97702">
        <ele>2215.4</ele>
        <time>2022-02-25T14:00:08Z</time>
      </trkpt>
      <trkpt lat="44.79748" lon="6.97702">
        <ele>2215.4</ele>
        <time>2022-02-25T14:00:09Z</time>
      </trkpt>
      <trkpt lat="44.79751" lon="6.97698">
        <ele>2214.9</ele>
        <time>2022-02-25T14:00:10Z</time>
      </trkpt>
      <trkpt lat="44.79753" lon="6.97695">
        <ele>2214.6</ele>
        <time>2022-02-25T14:00:11Z</time>
      </trkpt>
      <trkpt lat="44.79756" lon="6.97691">
        <ele>2214</ele>
        <time>2022-02-25T14:00:12Z</time>
      </trkpt>
      <trkpt lat="44.79758" lon="6.9769">
        <ele>2213.6</ele>
        <time>2022-02-25T14:00:13Z</time>
      </trkpt>
      <trkpt lat="44.7976" lon="6.97688">
        <ele>2213.2</ele>
        <time>2022-02-25T14:00:14Z</time>
      </trkpt>
      <trkpt lat="44.79764" lon="6.97686">
        <ele>2212.5</ele>
        <time>2022-02-25T14:00:15Z</time>
      </trkpt>
      <trkpt lat="44.79766" lon="6.97684">
        <ele>2212.1</ele>
        <time>2022-02-25T14:00:16Z</time>
      </trkpt>
      <trkpt lat="44.7977" lon="6.97681">
        <ele>2211.3</ele>
        <time>2022-02-25T14:00:17Z</time>
      </trkpt>
      <trkpt lat="44.79772" lon="6.97679">
        <ele>2210.8</ele>
        <time>2022-02-25T14:00:18Z</time>
      </trkpt>
      <trkpt lat="44.79775" lon="6.97678">
        <ele>2210.3</ele>
        <time>2022-02-25T14:00:19Z</time>
      </trkpt>
      <trkpt lat="44.79778" lon="6.97675">
        <ele>2209.5</ele>
        <time>2022-02-25T14:00:20Z</time>
      </trkpt>
      <trkpt lat="44.79781" lon="6.97675">
        <ele>2208.7</ele>
        <time>2022-02-25T14:00:21Z</time>
      </trkpt>
      <trkpt lat="44.79785" lon="6.97675">
        <ele>2207.6</ele>
        <time>2022-02-25T14:00:22Z</time>
      </trkpt>
      <trkpt lat="44.79789" lon="6.97676">
        <ele>2206.6</ele>
        <time>2022-02-25T14:00:23Z</time>
      </trkpt>
      <trkpt lat="44.79792" lon="6.97676">
        <ele>2205.7</ele>
        <time>2022-02-25T14:00:24Z</time>
      </trkpt>
      <trkpt lat="44.79795" lon="6.97675">
        <ele>2204.8</ele>
        <time>2022-02-25T14:00:25Z</time>
      </trkpt>
      <trkpt lat="44.79799" lon="6.97673">
        <ele>2203.5</ele>
        <time>2022-02-25T14:00:26Z</time>
      </trkpt>
      <trkpt lat="44.79802" lon="6.97671">
        <ele>2202.5</ele>
        <time>2022-02-25T14:00:27Z</time>
      </trkpt>
      <trkpt lat="44.79805" lon="6.97668">
        <ele>2201.3</ele>
        <time>2022-02-25T14:00:28Z</time>
      </trkpt>
      <trkpt lat="44.79808" lon="6.97665">
        <ele>2200.4</ele>
        <time>2022-02-25T14:00:29Z</time>
      </trkpt>
      <trkpt lat="44.7981" lon="6.97661">
        <ele>2199.8</ele>
        <time>2022-02-25T14:00:30Z</time>
      </trkpt>
      <trkpt lat="44.79813" lon="6.97658">
        <ele>2199</ele>
        <time>2022-02-25T14:00:31Z</time>
      </trkpt>
      <trkpt lat="44.79817" lon="6.97657">
        <ele>2198.2</ele>
        <time>2022-02-25T14:00:32Z</time>
      </trkpt>
      <trkpt lat="44.79821" lon="6.97656">
        <ele>2197.5</ele>
        <time>2022-02-25T14:00:33Z</time>
      </trkpt>
      <trkpt lat="44.79824" lon="6.97654">
        <ele>2196.8</ele>
        <time>2022-02-25T14:00:34Z</time>
      </trkpt>
      <trkpt lat="44.79825" lon="6.9765">
        <ele>2196.3</ele>
        <time>2022-02-25T14:00:35Z</time>
      </trkpt>
      <trkpt lat="44.79824" lon="6.97648">
        <ele>2196.3</ele>
        <time>2022-02-25T14:00:36Z</time>
      </trkpt>
      <trkpt lat="44.79824" lon="6.97648">
        <ele>2196.3</ele>
        <time>2022-02-25T14:00:37Z</time>
      </trkpt>
      <trkpt lat="44.79824" lon="6.97645">
        <ele>2196.1</ele>
        <time>2022-02-25T14:00:38Z</time>
      </trkpt>
      <trkpt lat="44.79824" lon="6.97645">
        <ele>2196.1</ele>
        <time>2022-02-25T14:00:39Z</time>
      </trkpt>
      <trkpt lat="44.79824" lon="6.97645">
        <ele>2196.1</ele>
        <time>2022-02-25T14:00:40Z</time>
      </trkpt>
      <trkpt lat="44.79824" lon="6.97645">
        <ele>2196.1</ele>
        <time>2022-02-25T14:00:41Z</time>
      </trkpt>
      <trkpt lat="44.79824" lon="6.97645">
        <ele>2196.1</ele>
        <time>2022-02-25T14:00:42Z</time>
      </trkpt>
      <trkpt lat="44.79824" lon="6.97645">
        <ele>2196.1</ele>
        <time>2022-02-25T14:00:43Z</time>
      </trkpt>
      <trkpt lat="44.79824" lon="6.97645">
        <ele>2196.1</ele>
        <time>2022-02-25T14:00:44Z</time>
      </trkpt>
      <trkpt lat="44.79824" lon="6.97645">
        <ele>2196.1</ele>
        <time>2022-02-25T14:00:45Z</time>
      </trkpt>
      <trkpt lat="44.79824" lon="6.97645">
        <ele>2196.1</ele>
        <time>2022-02-25T14:00:46Z</time>
      </trkpt>
      <trkpt lat="44.79824" lon="6.97645">
        <ele>2196.1</ele>
        <time>2022-02-25T14:00:47Z</time>
      </trkpt>
      <trkpt lat="44.79824" lon="6.97645">
        <ele>2196.1</ele>
        <time>2022-02-25T14:00:48Z</time>
      </trkpt>
      <trkpt lat="44.79825" lon="6.97643">
        <ele>2195.8</ele>
        <time>2022-02-25T14:00:49Z</time>
      </trkpt>
      <trkpt lat="44.79828" lon="6.97642">
        <ele>2195.2</ele>
        <time>2022-02-25T14:00:50Z</time>
      </trkpt>
      <trkpt lat="44.7983" lon="6.97639">
        <ele>2194.6</ele>
        <time>2022-02-25T14:00:51Z</time>
      </trkpt>
      <trkpt lat="44.79832" lon="6.97636">
        <ele>2194</ele>
        <time>2022-02-25T14:00:52Z</time>
      </trkpt>
      <trkpt lat="44.79836" lon="6.97633">
        <ele>2193.1</ele>
        <time>2022-02-25T14:00:53Z</time>
      </trkpt>
      <trkpt lat="44.79838" lon="6.9763">
        <ele>2192.5</ele>
        <time>2022-02-25T14:00:54Z</time>
      </trkpt>
      <trkpt lat="44.7984" lon="6.97626">
        <ele>2191.8</ele>
        <time>2022-02-25T14:00:55Z</time>
      </trkpt>
      <trkpt lat="44.79842" lon="6.97622">
        <ele>2191</ele>
        <time>2022-02-25T14:00:56Z</time>
      </trkpt>
      <trkpt lat="44.79843" lon="6.97619">
        <ele>2190.6</ele>
        <time>2022-02-25T14:00:57Z</time>
      </trkpt>
      <trkpt lat="44.79844" lon="6.97615">
        <ele>2190</ele>
        <time>2022-02-25T14:00:58Z</time>
      </trkpt>
      <trkpt lat="44.79844" lon="6.97612">
        <ele>2189.8</ele>
        <time>2022-02-25T14:00:59Z</time>
      </trkpt>
      <trkpt lat="44.79844" lon="6.97609">
        <ele>2189.5</ele>
        <time>2022-02-25T14:01:00Z</time>
      </trkpt>
      <trkpt lat="44.79843" lon="6.97606">
        <ele>2189.4</ele>
        <time>2022-02-25T14:01:01Z</time>
      </trkpt>
      <trkpt lat="44.79843" lon="6.97603">
        <ele>2189.1</ele>
        <time>2022-02-25T14:01:02Z</time>
      </trkpt>
      <trkpt lat="44.79843" lon="6.97599">
        <ele>2188.7</ele>
        <time>2022-02-25T14:01:03Z</time>
      </trkpt>
      <trkpt lat="44.79844" lon="6.97596">
        <ele>2188.2</ele>
        <time>2022-02-25T14:01:04Z</time>
      </trkpt>
      <trkpt lat="44.79843" lon="6.97593">
        <ele>2188.2</ele>
        <time>2022-02-25T14:01:05Z</time>
      </trkpt>
      <trkpt lat="44.79843" lon="6.9759">
        <ele>2187.9</ele>
        <time>2022-02-25T14:01:06Z</time>
      </trkpt>
      <trkpt lat="44.79843" lon="6.9759">
        <ele>2187.9</ele>
        <time>2022-02-25T14:01:07Z</time>
      </trkpt>
      <trkpt lat="44.79844" lon="6.97587">
        <ele>2187.3</ele>
        <time>2022-02-25T14:01:08Z</time>
      </trkpt>
      <trkpt lat="44.79844" lon="6.97587">
        <ele>2187.3</ele>
        <time>2022-02-25T14:01:09Z</time>
      </trkpt>
      <trkpt lat="44.79844" lon="6.97587">
        <ele>2187.3</ele>
        <time>2022-02-25T14:01:10Z</time>
      </trkpt>
      <trkpt lat="44.79844" lon="6.97585">
        <ele>2187.1</ele>
        <time>2022-02-25T14:01:11Z</time>
      </trkpt>
      <trkpt lat="44.79844" lon="6.97585">
        <ele>2187.1</ele>
        <time>2022-02-25T14:01:12Z</time>
      </trkpt>
      <trkpt lat="44.79844" lon="6.97585">
        <ele>2187.1</ele>
        <time>2022-02-25T14:01:13Z</time>
      </trkpt>
      <trkpt lat="44.79845" lon="6.97581">
        <ele>2186.5</ele>
        <time>2022-02-25T14:01:14Z</time>
      </trkpt>
      <trkpt lat="44.79845" lon="6.97581">
        <ele>2186.5</ele>
        <time>2022-02-25T14:01:15Z</time>
      </trkpt>
      <trkpt lat="44.79847" lon="6.97576">
        <ele>2185.7</ele>
        <time>2022-02-25T14:01:16Z</time>
      </trkpt>
      <trkpt lat="44.79847" lon="6.97576">
        <ele>2185.7</ele>
        <time>2022-02-25T14:01:17Z</time>
      </trkpt>
      <trkpt lat="44.79849" lon="6.97573">
        <ele>2184.9</ele>
        <time>2022-02-25T14:01:18Z</time>
      </trkpt>
      <trkpt lat="44.79849" lon="6.97573">
        <ele>2184.9</ele>
        <time>2022-02-25T14:01:19Z</time>
      </trkpt>
      <trkpt lat="44.79849" lon="6.97573">
        <ele>2184.9</ele>
        <time>2022-02-25T14:01:20Z</time>
      </trkpt>
      <trkpt lat="44.79849" lon="6.97573">
        <ele>2184.9</ele>
        <time>2022-02-25T14:01:21Z</time>
      </trkpt>
      <trkpt lat="44.79849" lon="6.97573">
        <ele>2184.9</ele>
        <time>2022-02-25T14:01:22Z</time>
      </trkpt>
      <trkpt lat="44.79849" lon="6.97573">
        <ele>2184.9</ele>
        <time>2022-02-25T14:01:23Z</time>
      </trkpt>
      <trkpt lat="44.79849" lon="6.97573">
        <ele>2184.9</ele>
        <time>2022-02-25T14:01:24Z</time>
      </trkpt>
      <trkpt lat="44.79849" lon="6.97573">
        <ele>2184.9</ele>
        <time>2022-02-25T14:01:25Z</time>
      </trkpt>
      <trkpt lat="44.79849" lon="6.97573">
        <ele>2184.9</ele>
        <time>2022-02-25T14:01:26Z</time>
      </trkpt>
      <trkpt lat="44.7985" lon="6.97571">
        <ele>2184.5</ele>
        <time>2022-02-25T14:01:27Z</time>
      </trkpt>
      <trkpt lat="44.7985" lon="6.97571">
        <ele>2184.5</ele>
        <time>2022-02-25T14:01:28Z</time>
      </trkpt>
      <trkpt lat="44.7985" lon="6.97571">
        <ele>2184.5</ele>
        <time>2022-02-25T14:01:29Z</time>
      </trkpt>
      <trkpt lat="44.79852" lon="6.9757">
        <ele>2183.8</ele>
        <time>2022-02-25T14:01:30Z</time>
      </trkpt>
      <trkpt lat="44.79852" lon="6.9757">
        <ele>2183.8</ele>
        <time>2022-02-25T14:01:31Z</time>
      </trkpt>
      <trkpt lat="44.79855" lon="6.97571">
        <ele>2183</ele>
        <time>2022-02-25T14:01:32Z</time>
      </trkpt>
      <trkpt lat="44.79855" lon="6.97571">
        <ele>2183</ele>
        <time>2022-02-25T14:01:33Z</time>
      </trkpt>
      <trkpt lat="44.79857" lon="6.97569">
        <ele>2182.2</ele>
        <time>2022-02-25T14:01:34Z</time>
      </trkpt>
      <trkpt lat="44.79857" lon="6.97569">
        <ele>2182.2</ele>
        <time>2022-02-25T14:01:35Z</time>
      </trkpt>
      <trkpt lat="44.79857" lon="6.97569">
        <ele>2182.2</ele>
        <time>2022-02-25T14:01:36Z</time>
      </trkpt>
      <trkpt lat="44.79857" lon="6.97569">
        <ele>2182.2</ele>
        <time>2022-02-25T14:01:37Z</time>
      </trkpt>
      <trkpt lat="44.79859" lon="6.97567">
        <ele>2181.5</ele>
        <time>2022-02-25T14:01:38Z</time>
      </trkpt>
      <trkpt lat="44.79859" lon="6.97567">
        <ele>2181.5</ele>
        <time>2022-02-25T14:01:39Z</time>
      </trkpt>
      <trkpt lat="44.79861" lon="6.97565">
        <ele>2180.7</ele>
        <time>2022-02-25T14:01:40Z</time>
      </trkpt>
      <trkpt lat="44.79863" lon="6.97564">
        <ele>2180.1</ele>
        <time>2022-02-25T14:01:41Z</time>
      </trkpt>
      <trkpt lat="44.79865" lon="6.97564">
        <ele>2179.6</ele>
        <time>2022-02-25T14:01:42Z</time>
      </trkpt>
      <trkpt lat="44.79865" lon="6.97564">
        <ele>2179.6</ele>
        <time>2022-02-25T14:01:43Z</time>
      </trkpt>
      <trkpt lat="44.79868" lon="6.97565">
        <ele>2178.9</ele>
        <time>2022-02-25T14:01:44Z</time>
      </trkpt>
      <trkpt lat="44.79871" lon="6.97565">
        <ele>2178.1</ele>
        <time>2022-02-25T14:01:45Z</time>
      </trkpt>
      <trkpt lat="44.79873" lon="6.97564">
        <ele>2177.4</ele>
        <time>2022-02-25T14:01:46Z</time>
      </trkpt>
      <trkpt lat="44.79876" lon="6.97563">
        <ele>2176.5</ele>
        <time>2022-02-25T14:01:47Z</time>
      </trkpt>
      <trkpt lat="44.79876" lon="6.97563">
        <ele>2176.5</ele>
        <time>2022-02-25T14:01:48Z</time>
      </trkpt>
      <trkpt lat="44.79877" lon="6.9756">
        <ele>2175.9</ele>
        <time>2022-02-25T14:01:49Z</time>
      </trkpt>
      <trkpt lat="44.79877" lon="6.9756">
        <ele>2175.9</ele>
        <time>2022-02-25T14:01:50Z</time>
      </trkpt>
      <trkpt lat="44.79877" lon="6.9756">
        <ele>2175.9</ele>
        <time>2022-02-25T14:01:51Z</time>
      </trkpt>
      <trkpt lat="44.79877" lon="6.97557">
        <ele>2175.6</ele>
        <time>2022-02-25T14:01:52Z</time>
      </trkpt>
      <trkpt lat="44.79877" lon="6.97557">
        <ele>2175.6</ele>
        <time>2022-02-25T14:01:53Z</time>
      </trkpt>
      <trkpt lat="44.79877" lon="6.97554">
        <ele>2175.3</ele>
        <time>2022-02-25T14:01:54Z</time>
      </trkpt>
      <trkpt lat="44.79877" lon="6.97551">
        <ele>2175</ele>
        <time>2022-02-25T14:01:55Z</time>
      </trkpt>
      <trkpt lat="44.79879" lon="6.97548">
        <ele>2174.1</ele>
        <time>2022-02-25T14:01:56Z</time>
      </trkpt>
      <trkpt lat="44.79879" lon="6.97548">
        <ele>2174.1</ele>
        <time>2022-02-25T14:01:57Z</time>
      </trkpt>
      <trkpt lat="44.7988" lon="6.97545">
        <ele>2173.5</ele>
        <time>2022-02-25T14:01:58Z</time>
      </trkpt>
      <trkpt lat="44.7988" lon="6.97545">
        <ele>2173.5</ele>
        <time>2022-02-25T14:01:59Z</time>
      </trkpt>
      <trkpt lat="44.7988" lon="6.97545">
        <ele>2173.5</ele>
        <time>2022-02-25T14:02:00Z</time>
      </trkpt>
      <trkpt lat="44.7988" lon="6.97545">
        <ele>2173.5</ele>
        <time>2022-02-25T14:02:01Z</time>
      </trkpt>
      <trkpt lat="44.7988" lon="6.97545">
        <ele>2173.5</ele>
        <time>2022-02-25T14:02:02Z</time>
      </trkpt>
      <trkpt lat="44.7988" lon="6.97545">
        <ele>2173.5</ele>
        <time>2022-02-25T14:02:03Z</time>
      </trkpt>
      <trkpt lat="44.7988" lon="6.97545">
        <ele>2173.5</ele>
        <time>2022-02-25T14:02:04Z</time>
      </trkpt>
      <trkpt lat="44.7988" lon="6.97542">
        <ele>2173.3</ele>
        <time>2022-02-25T14:02:05Z</time>
      </trkpt>
      <trkpt lat="44.7988" lon="6.97542">
        <ele>2173.3</ele>
        <time>2022-02-25T14:02:06Z</time>
      </trkpt>
      <trkpt lat="44.7988" lon="6.97542">
        <ele>2173.3</ele>
        <time>2022-02-25T14:02:07Z</time>
      </trkpt>
      <trkpt lat="44.7988" lon="6.97542">
        <ele>2173.3</ele>
        <time>2022-02-25T14:02:08Z</time>
      </trkpt>
      <trkpt lat="44.7988" lon="6.97542">
        <ele>2173.3</ele>
        <time>2022-02-25T14:02:09Z</time>
      </trkpt>
      <trkpt lat="44.7988" lon="6.97542">
        <ele>2173.3</ele>
        <time>2022-02-25T14:02:10Z</time>
      </trkpt>
      <trkpt lat="44.7988" lon="6.97542">
        <ele>2173.3</ele>
        <time>2022-02-25T14:02:11Z</time>
      </trkpt>
      <trkpt lat="44.7988" lon="6.97542">
        <ele>2173.3</ele>
        <time>2022-02-25T14:02:12Z</time>
      </trkpt>
      <trkpt lat="44.79879" lon="6.9754">
        <ele>2173.4</ele>
        <time>2022-02-25T14:02:13Z</time>
      </trkpt>
      <trkpt lat="44.79879" lon="6.9754">
        <ele>2173.4</ele>
        <time>2022-02-25T14:02:14Z</time>
      </trkpt>
      <trkpt lat="44.79879" lon="6.97535">
        <ele>2172.9</ele>
        <time>2022-02-25T14:02:15Z</time>
      </trkpt>
      <trkpt lat="44.79879" lon="6.97532">
        <ele>2172.6</ele>
        <time>2022-02-25T14:02:16Z</time>
      </trkpt>
      <trkpt lat="44.79879" lon="6.97532">
        <ele>2172.6</ele>
        <time>2022-02-25T14:02:17Z</time>
      </trkpt>
      <trkpt lat="44.79879" lon="6.97532">
        <ele>2172.6</ele>
        <time>2022-02-25T14:02:18Z</time>
      </trkpt>
      <trkpt lat="44.79879" lon="6.97532">
        <ele>2172.6</ele>
        <time>2022-02-25T14:02:19Z</time>
      </trkpt>
      <trkpt lat="44.79879" lon="6.9753">
        <ele>2172.4</ele>
        <time>2022-02-25T14:02:20Z</time>
      </trkpt>
      <trkpt lat="44.79879" lon="6.9753">
        <ele>2172.4</ele>
        <time>2022-02-25T14:02:21Z</time>
      </trkpt>
      <trkpt lat="44.79879" lon="6.9753">
        <ele>2172.4</ele>
        <time>2022-02-25T14:02:22Z</time>
      </trkpt>
      <trkpt lat="44.79879" lon="6.9753">
        <ele>2172.4</ele>
        <time>2022-02-25T14:02:23Z</time>
      </trkpt>
      <trkpt lat="44.79879" lon="6.9753">
        <ele>2172.4</ele>
        <time>2022-02-25T14:02:24Z</time>
      </trkpt>
      <trkpt lat="44.79879" lon="6.9753">
        <ele>2172.4</ele>
        <time>2022-02-25T14:02:25Z</time>
      </trkpt>
      <trkpt lat="44.79879" lon="6.9753">
        <ele>2172.4</ele>
        <time>2022-02-25T14:02:26Z</time>
      </trkpt>
      <trkpt lat="44.79881" lon="6.97528">
        <ele>2171.6</ele>
        <time>2022-02-25T14:02:27Z</time>
      </trkpt>
      <trkpt lat="44.79881" lon="6.97528">
        <ele>2171.6</ele>
        <time>2022-02-25T14:02:28Z</time>
      </trkpt>
      <trkpt lat="44.79881" lon="6.97528">
        <ele>2171.6</ele>
        <time>2022-02-25T14:02:29Z</time>
      </trkpt>
      <trkpt lat="44.79881" lon="6.97528">
        <ele>2171.6</ele>
        <time>2022-02-25T14:02:30Z</time>
      </trkpt>
      <trkpt lat="44.79881" lon="6.97528">
        <ele>2171.6</ele>
        <time>2022-02-25T14:02:31Z</time>
      </trkpt>
      <trkpt lat="44.79881" lon="6.97528">
        <ele>2171.6</ele>
        <time>2022-02-25T14:02:32Z</time>
      </trkpt>
      <trkpt lat="44.79881" lon="6.97528">
        <ele>2171.6</ele>
        <time>2022-02-25T14:02:33Z</time>
      </trkpt>
      <trkpt lat="44.79881" lon="6.97528">
        <ele>2171.6</ele>
        <time>2022-02-25T14:02:34Z</time>
      </trkpt>
      <trkpt lat="44.79881" lon="6.97528">
        <ele>2171.6</ele>
        <time>2022-02-25T14:02:35Z</time>
      </trkpt>
      <trkpt lat="44.79881" lon="6.97528">
        <ele>2171.6</ele>
        <time>2022-02-25T14:02:36Z</time>
      </trkpt>
      <trkpt lat="44.79881" lon="6.97528">
        <ele>2171.6</ele>
        <time>2022-02-25T14:02:37Z</time>
      </trkpt>
      <trkpt lat="44.79881" lon="6.97528">
        <ele>2171.6</ele>
        <time>2022-02-25T14:02:38Z</time>
      </trkpt>
      <trkpt lat="44.79881" lon="6.97528">
        <ele>2171.6</ele>
        <time>2022-02-25T14:02:39Z</time>
      </trkpt>
      <trkpt lat="44.79881" lon="6.97528">
        <ele>2171.6</ele>
        <time>2022-02-25T14:02:40Z</time>
      </trkpt>
      <trkpt lat="44.79881" lon="6.97528">
        <ele>2171.6</ele>
        <time>2022-02-25T14:02:41Z</time>
      </trkpt>
      <trkpt lat="44.79881" lon="6.97528">
        <ele>2171.6</ele>
        <time>2022-02-25T14:02:42Z</time>
      </trkpt>
      <trkpt lat="44.79881" lon="6.97528">
        <ele>2171.6</ele>
        <time>2022-02-25T14:02:43Z</time>
      </trkpt>
      <trkpt lat="44.79881" lon="6.97528">
        <ele>2171.6</ele>
        <time>2022-02-25T14:02:44Z</time>
      </trkpt>
      <trkpt lat="44.79881" lon="6.97528">
        <ele>2171.6</ele>
        <time>2022-02-25T14:02:45Z</time>
      </trkpt>
      <trkpt lat="44.79881" lon="6.97528">
        <ele>2171.6</ele>
        <time>2022-02-25T14:02:46Z</time>
      </trkpt>
      <trkpt lat="44.79881" lon="6.97528">
        <ele>2171.6</ele>
        <time>2022-02-25T14:02:47Z</time>
      </trkpt>
      <trkpt lat="44.79881" lon="6.97528">
        <ele>2171.6</ele>
        <time>2022-02-25T14:02:48Z</time>
      </trkpt>
      <trkpt lat="44.79881" lon="6.97528">
        <ele>2171.6</ele>
        <time>2022-02-25T14:02:49Z</time>
      </trkpt>
      <trkpt lat="44.79881" lon="6.97528">
        <ele>2171.6</ele>
        <time>2022-02-25T14:02:50Z</time>
      </trkpt>
      <trkpt lat="44.79881" lon="6.97528">
        <ele>2171.6</ele>
        <time>2022-02-25T14:02:51Z</time>
      </trkpt>
      <trkpt lat="44.79882" lon="6.97525">
        <ele>2171.1</ele>
        <time>2022-02-25T14:02:52Z</time>
      </trkpt>
      <trkpt lat="44.79882" lon="6.97525">
        <ele>2171.1</ele>
        <time>2022-02-25T14:02:53Z</time>
      </trkpt>
      <trkpt lat="44.79882" lon="6.97519">
        <ele>2170.9</ele>
        <time>2022-02-25T14:02:54Z</time>
      </trkpt>
      <trkpt lat="44.79882" lon="6.97516">
        <ele>2170.8</ele>
        <time>2022-02-25T14:02:55Z</time>
      </trkpt>
      <trkpt lat="44.79883" lon="6.97509">
        <ele>2170.2</ele>
        <time>2022-02-25T14:02:56Z</time>
      </trkpt>
      <trkpt lat="44.79883" lon="6.97507">
        <ele>2170.2</ele>
        <time>2022-02-25T14:02:57Z</time>
      </trkpt>
      <trkpt lat="44.79884" lon="6.97502">
        <ele>2169.7</ele>
        <time>2022-02-25T14:02:58Z</time>
      </trkpt>
      <trkpt lat="44.79885" lon="6.97496">
        <ele>2169.1</ele>
        <time>2022-02-25T14:02:59Z</time>
      </trkpt>
      <trkpt lat="44.79886" lon="6.97491">
        <ele>2168.6</ele>
        <time>2022-02-25T14:03:00Z</time>
      </trkpt>
      <trkpt lat="44.79887" lon="6.97488">
        <ele>2168.2</ele>
        <time>2022-02-25T14:03:01Z</time>
      </trkpt>
      <trkpt lat="44.79887" lon="6.97488">
        <ele>2168.2</ele>
        <time>2022-02-25T14:03:02Z</time>
      </trkpt>
      <trkpt lat="44.79887" lon="6.97485">
        <ele>2168.1</ele>
        <time>2022-02-25T14:03:03Z</time>
      </trkpt>
      <trkpt lat="44.79887" lon="6.97485">
        <ele>2168.1</ele>
        <time>2022-02-25T14:03:04Z</time>
      </trkpt>
      <trkpt lat="44.79885" lon="6.97483">
        <ele>2168.7</ele>
        <time>2022-02-25T14:03:05Z</time>
      </trkpt>
      <trkpt lat="44.79886" lon="6.9748">
        <ele>2168.3</ele>
        <time>2022-02-25T14:03:06Z</time>
      </trkpt>
      <trkpt lat="44.79887" lon="6.97477">
        <ele>2167.8</ele>
        <time>2022-02-25T14:03:07Z</time>
      </trkpt>
      <trkpt lat="44.79889" lon="6.97475">
        <ele>2167.1</ele>
        <time>2022-02-25T14:03:08Z</time>
      </trkpt>
      <trkpt lat="44.7989" lon="6.97472">
        <ele>2166.6</ele>
        <time>2022-02-25T14:03:09Z</time>
      </trkpt>
      <trkpt lat="44.79891" lon="6.9747">
        <ele>2166.2</ele>
        <time>2022-02-25T14:03:10Z</time>
      </trkpt>
      <trkpt lat="44.79891" lon="6.9747">
        <ele>2166.2</ele>
        <time>2022-02-25T14:03:11Z</time>
      </trkpt>
      <trkpt lat="44.79891" lon="6.9747">
        <ele>2166.2</ele>
        <time>2022-02-25T14:03:12Z</time>
      </trkpt>
      <trkpt lat="44.79891" lon="6.9747">
        <ele>2166.2</ele>
        <time>2022-02-25T14:03:13Z</time>
      </trkpt>
      <trkpt lat="44.79891" lon="6.9747">
        <ele>2166.2</ele>
        <time>2022-02-25T14:03:14Z</time>
      </trkpt>
      <trkpt lat="44.79891" lon="6.9747">
        <ele>2166.2</ele>
        <time>2022-02-25T14:03:15Z</time>
      </trkpt>
      <trkpt lat="44.79891" lon="6.9747">
        <ele>2166.2</ele>
        <time>2022-02-25T14:03:16Z</time>
      </trkpt>
      <trkpt lat="44.79891" lon="6.9747">
        <ele>2166.2</ele>
        <time>2022-02-25T14:03:17Z</time>
      </trkpt>
      <trkpt lat="44.79891" lon="6.9747">
        <ele>2166.2</ele>
        <time>2022-02-25T14:03:18Z</time>
      </trkpt>
      <trkpt lat="44.79891" lon="6.9747">
        <ele>2166.2</ele>
        <time>2022-02-25T14:03:19Z</time>
      </trkpt>
      <trkpt lat="44.79891" lon="6.9747">
        <ele>2166.2</ele>
        <time>2022-02-25T14:03:20Z</time>
      </trkpt>
      <trkpt lat="44.79891" lon="6.9747">
        <ele>2166.2</ele>
        <time>2022-02-25T14:03:21Z</time>
      </trkpt>
      <trkpt lat="44.79891" lon="6.9747">
        <ele>2166.2</ele>
        <time>2022-02-25T14:03:22Z</time>
      </trkpt>
      <trkpt lat="44.79892" lon="6.97468">
        <ele>2165.8</ele>
        <time>2022-02-25T14:03:23Z</time>
      </trkpt>
      <trkpt lat="44.79892" lon="6.97468">
        <ele>2165.8</ele>
        <time>2022-02-25T14:03:24Z</time>
      </trkpt>
      <trkpt lat="44.79892" lon="6.97468">
        <ele>2165.8</ele>
        <time>2022-02-25T14:03:25Z</time>
      </trkpt>
      <trkpt lat="44.79892" lon="6.97468">
        <ele>2165.8</ele>
        <time>2022-02-25T14:03:26Z</time>
      </trkpt>
      <trkpt lat="44.79892" lon="6.97468">
        <ele>2165.8</ele>
        <time>2022-02-25T14:03:27Z</time>
      </trkpt>
      <trkpt lat="44.79892" lon="6.97468">
        <ele>2165.8</ele>
        <time>2022-02-25T14:03:28Z</time>
      </trkpt>
      <trkpt lat="44.79892" lon="6.97468">
        <ele>2165.8</ele>
        <time>2022-02-25T14:03:29Z</time>
      </trkpt>
      <trkpt lat="44.79892" lon="6.97468">
        <ele>2165.8</ele>
        <time>2022-02-25T14:03:30Z</time>
      </trkpt>
      <trkpt lat="44.79892" lon="6.97468">
        <ele>2165.8</ele>
        <time>2022-02-25T14:03:31Z</time>
      </trkpt>
      <trkpt lat="44.79892" lon="6.97468">
        <ele>2165.8</ele>
        <time>2022-02-25T14:03:32Z</time>
      </trkpt>
      <trkpt lat="44.79892" lon="6.97468">
        <ele>2165.8</ele>
        <time>2022-02-25T14:03:33Z</time>
      </trkpt>
      <trkpt lat="44.79892" lon="6.97468">
        <ele>2165.8</ele>
        <time>2022-02-25T14:03:34Z</time>
      </trkpt>
      <trkpt lat="44.79892" lon="6.97468">
        <ele>2165.8</ele>
        <time>2022-02-25T14:03:35Z</time>
      </trkpt>
      <trkpt lat="44.79892" lon="6.97468">
        <ele>2165.8</ele>
        <time>2022-02-25T14:03:36Z</time>
      </trkpt>
      <trkpt lat="44.79892" lon="6.97468">
        <ele>2165.8</ele>
        <time>2022-02-25T14:03:37Z</time>
      </trkpt>
      <trkpt lat="44.79892" lon="6.97468">
        <ele>2165.8</ele>
        <time>2022-02-25T14:03:38Z</time>
      </trkpt>
      <trkpt lat="44.79892" lon="6.97468">
        <ele>2165.8</ele>
        <time>2022-02-25T14:03:39Z</time>
      </trkpt>
      <trkpt lat="44.79892" lon="6.97468">
        <ele>2165.8</ele>
        <time>2022-02-25T14:03:40Z</time>
      </trkpt>
      <trkpt lat="44.79892" lon="6.97468">
        <ele>2165.8</ele>
        <time>2022-02-25T14:03:41Z</time>
      </trkpt>
      <trkpt lat="44.79892" lon="6.97468">
        <ele>2165.8</ele>
        <time>2022-02-25T14:03:42Z</time>
      </trkpt>
      <trkpt lat="44.79892" lon="6.97468">
        <ele>2165.8</ele>
        <time>2022-02-25T14:03:43Z</time>
      </trkpt>
      <trkpt lat="44.79892" lon="6.97468">
        <ele>2165.8</ele>
        <time>2022-02-25T14:03:44Z</time>
      </trkpt>
      <trkpt lat="44.79892" lon="6.97468">
        <ele>2165.8</ele>
        <time>2022-02-25T14:03:45Z</time>
      </trkpt>
      <trkpt lat="44.79892" lon="6.97468">
        <ele>2165.8</ele>
        <time>2022-02-25T14:03:46Z</time>
      </trkpt>
      <trkpt lat="44.79892" lon="6.97468">
        <ele>2165.8</ele>
        <time>2022-02-25T14:03:47Z</time>
      </trkpt>
      <trkpt lat="44.79892" lon="6.97468">
        <ele>2165.8</ele>
        <time>2022-02-25T14:03:48Z</time>
      </trkpt>
      <trkpt lat="44.79892" lon="6.97468">
        <ele>2165.8</ele>
        <time>2022-02-25T14:03:49Z</time>
      </trkpt>
      <trkpt lat="44.79892" lon="6.97465">
        <ele>2165.7</ele>
        <time>2022-02-25T14:03:50Z</time>
      </trkpt>
      <trkpt lat="44.79892" lon="6.97465">
        <ele>2165.7</ele>
        <time>2022-02-25T14:03:51Z</time>
      </trkpt>
      <trkpt lat="44.79892" lon="6.97462">
        <ele>2165.6</ele>
        <time>2022-02-25T14:03:52Z</time>
      </trkpt>
      <trkpt lat="44.79892" lon="6.97462">
        <ele>2165.6</ele>
        <time>2022-02-25T14:03:53Z</time>
      </trkpt>
      <trkpt lat="44.79892" lon="6.97462">
        <ele>2165.6</ele>
        <time>2022-02-25T14:03:54Z</time>
      </trkpt>
      <trkpt lat="44.79892" lon="6.97462">
        <ele>2165.6</ele>
        <time>2022-02-25T14:03:55Z</time>
      </trkpt>
      <trkpt lat="44.79892" lon="6.97462">
        <ele>2165.6</ele>
        <time>2022-02-25T14:03:56Z</time>
      </trkpt>
      <trkpt lat="44.79892" lon="6.97462">
        <ele>2165.6</ele>
        <time>2022-02-25T14:03:57Z</time>
      </trkpt>
      <trkpt lat="44.79892" lon="6.97462">
        <ele>2165.6</ele>
        <time>2022-02-25T14:03:58Z</time>
      </trkpt>
      <trkpt lat="44.79892" lon="6.97462">
        <ele>2165.6</ele>
        <time>2022-02-25T14:03:59Z</time>
      </trkpt>
      <trkpt lat="44.79892" lon="6.97462">
        <ele>2165.6</ele>
        <time>2022-02-25T14:04:00Z</time>
      </trkpt>
      <trkpt lat="44.79892" lon="6.97462">
        <ele>2165.6</ele>
        <time>2022-02-25T14:04:01Z</time>
      </trkpt>
      <trkpt lat="44.79892" lon="6.97462">
        <ele>2165.6</ele>
        <time>2022-02-25T14:04:02Z</time>
      </trkpt>
      <trkpt lat="44.79892" lon="6.97462">
        <ele>2165.6</ele>
        <time>2022-02-25T14:04:03Z</time>
      </trkpt>
      <trkpt lat="44.79892" lon="6.97462">
        <ele>2165.6</ele>
        <time>2022-02-25T14:04:04Z</time>
      </trkpt>
      <trkpt lat="44.79892" lon="6.97462">
        <ele>2165.6</ele>
        <time>2022-02-25T14:04:05Z</time>
      </trkpt>
      <trkpt lat="44.79892" lon="6.97462">
        <ele>2165.6</ele>
        <time>2022-02-25T14:04:06Z</time>
      </trkpt>
      <trkpt lat="44.79892" lon="6.97462">
        <ele>2165.6</ele>
        <time>2022-02-25T14:04:07Z</time>
      </trkpt>
      <trkpt lat="44.79892" lon="6.97462">
        <ele>2165.6</ele>
        <time>2022-02-25T14:04:08Z</time>
      </trkpt>
      <trkpt lat="44.79892" lon="6.97462">
        <ele>2165.6</ele>
        <time>2022-02-25T14:04:09Z</time>
      </trkpt>
      <trkpt lat="44.79892" lon="6.97462">
        <ele>2165.6</ele>
        <time>2022-02-25T14:04:10Z</time>
      </trkpt>
      <trkpt lat="44.79892" lon="6.97462">
        <ele>2165.6</ele>
        <time>2022-02-25T14:04:11Z</time>
      </trkpt>
      <trkpt lat="44.79892" lon="6.97462">
        <ele>2165.6</ele>
        <time>2022-02-25T14:04:12Z</time>
      </trkpt>
      <trkpt lat="44.79892" lon="6.97462">
        <ele>2165.6</ele>
        <time>2022-02-25T14:04:13Z</time>
      </trkpt>
      <trkpt lat="44.79892" lon="6.97462">
        <ele>2165.6</ele>
        <time>2022-02-25T14:04:14Z</time>
      </trkpt>
      <trkpt lat="44.79892" lon="6.97462">
        <ele>2165.6</ele>
        <time>2022-02-25T14:04:15Z</time>
      </trkpt>
      <trkpt lat="44.79892" lon="6.97462">
        <ele>2165.6</ele>
        <time>2022-02-25T14:04:16Z</time>
      </trkpt>
      <trkpt lat="44.79892" lon="6.97462">
        <ele>2165.6</ele>
        <time>2022-02-25T14:04:17Z</time>
      </trkpt>
      <trkpt lat="44.79892" lon="6.97462">
        <ele>2165.6</ele>
        <time>2022-02-25T14:04:18Z</time>
      </trkpt>
      <trkpt lat="44.79892" lon="6.97462">
        <ele>2165.6</ele>
        <time>2022-02-25T14:04:19Z</time>
      </trkpt>
      <trkpt lat="44.79892" lon="6.97462">
        <ele>2165.6</ele>
        <time>2022-02-25T14:04:20Z</time>
      </trkpt>
      <trkpt lat="44.79892" lon="6.97462">
        <ele>2165.6</ele>
        <time>2022-02-25T14:04:21Z</time>
      </trkpt>
      <trkpt lat="44.79892" lon="6.97462">
        <ele>2165.6</ele>
        <time>2022-02-25T14:04:22Z</time>
      </trkpt>
      <trkpt lat="44.79892" lon="6.97462">
        <ele>2165.6</ele>
        <time>2022-02-25T14:04:23Z</time>
      </trkpt>
      <trkpt lat="44.7989" lon="6.97458">
        <ele>2166.1</ele>
        <time>2022-02-25T14:04:24Z</time>
      </trkpt>
      <trkpt lat="44.7989" lon="6.97458">
        <ele>2166.1</ele>
        <time>2022-02-25T14:04:25Z</time>
      </trkpt>
      <trkpt lat="44.79893" lon="6.97455">
        <ele>2165</ele>
        <time>2022-02-25T14:04:26Z</time>
      </trkpt>
      <trkpt lat="44.79894" lon="6.97453">
        <ele>2164.5</ele>
        <time>2022-02-25T14:04:27Z</time>
      </trkpt>
      <trkpt lat="44.79896" lon="6.97451">
        <ele>2163.7</ele>
        <time>2022-02-25T14:04:28Z</time>
      </trkpt>
      <trkpt lat="44.79896" lon="6.97451">
        <ele>2163.7</ele>
        <time>2022-02-25T14:04:29Z</time>
      </trkpt>
      <trkpt lat="44.799" lon="6.97449">
        <ele>2162.2</ele>
        <time>2022-02-25T14:04:30Z</time>
      </trkpt>
      <trkpt lat="44.799" lon="6.97449">
        <ele>2162.2</ele>
        <time>2022-02-25T14:04:31Z</time>
      </trkpt>
      <trkpt lat="44.799" lon="6.97449">
        <ele>2162.2</ele>
        <time>2022-02-25T14:04:32Z</time>
      </trkpt>
      <trkpt lat="44.79901" lon="6.97447">
        <ele>2161.8</ele>
        <time>2022-02-25T14:04:33Z</time>
      </trkpt>
      <trkpt lat="44.79901" lon="6.97447">
        <ele>2161.8</ele>
        <time>2022-02-25T14:04:34Z</time>
      </trkpt>
      <trkpt lat="44.79903" lon="6.97445">
        <ele>2161</ele>
        <time>2022-02-25T14:04:35Z</time>
      </trkpt>
      <trkpt lat="44.79903" lon="6.97445">
        <ele>2161</ele>
        <time>2022-02-25T14:04:36Z</time>
      </trkpt>
      <trkpt lat="44.79907" lon="6.97443">
        <ele>2159.5</ele>
        <time>2022-02-25T14:04:37Z</time>
      </trkpt>
      <trkpt lat="44.79909" lon="6.97441">
        <ele>2158.7</ele>
        <time>2022-02-25T14:04:38Z</time>
      </trkpt>
      <trkpt lat="44.7991" lon="6.97438">
        <ele>2158.3</ele>
        <time>2022-02-25T14:04:39Z</time>
      </trkpt>
      <trkpt lat="44.79911" lon="6.97435">
        <ele>2158</ele>
        <time>2022-02-25T14:04:40Z</time>
      </trkpt>
      <trkpt lat="44.79913" lon="6.97433">
        <ele>2157.3</ele>
        <time>2022-02-25T14:04:41Z</time>
      </trkpt>
      <trkpt lat="44.79916" lon="6.97432">
        <ele>2156.2</ele>
        <time>2022-02-25T14:04:42Z</time>
      </trkpt>
      <trkpt lat="44.79918" lon="6.97429">
        <ele>2155.6</ele>
        <time>2022-02-25T14:04:43Z</time>
      </trkpt>
      <trkpt lat="44.7992" lon="6.97425">
        <ele>2155.1</ele>
        <time>2022-02-25T14:04:44Z</time>
      </trkpt>
      <trkpt lat="44.79921" lon="6.97421">
        <ele>2154.8</ele>
        <time>2022-02-25T14:04:45Z</time>
      </trkpt>
      <trkpt lat="44.79922" lon="6.97418">
        <ele>2154.5</ele>
        <time>2022-02-25T14:04:46Z</time>
      </trkpt>
      <trkpt lat="44.79922" lon="6.97418">
        <ele>2154.5</ele>
        <time>2022-02-25T14:04:47Z</time>
      </trkpt>
      <trkpt lat="44.79923" lon="6.97415">
        <ele>2154.2</ele>
        <time>2022-02-25T14:04:48Z</time>
      </trkpt>
      <trkpt lat="44.79923" lon="6.97415">
        <ele>2154.2</ele>
        <time>2022-02-25T14:04:49Z</time>
      </trkpt>
      <trkpt lat="44.79923" lon="6.97415">
        <ele>2154.2</ele>
        <time>2022-02-25T14:04:50Z</time>
      </trkpt>
      <trkpt lat="44.79923" lon="6.97415">
        <ele>2154.2</ele>
        <time>2022-02-25T14:04:51Z</time>
      </trkpt>
      <trkpt lat="44.79923" lon="6.97415">
        <ele>2154.2</ele>
        <time>2022-02-25T14:04:52Z</time>
      </trkpt>
      <trkpt lat="44.79923" lon="6.97415">
        <ele>2154.2</ele>
        <time>2022-02-25T14:04:53Z</time>
      </trkpt>
      <trkpt lat="44.79923" lon="6.97415">
        <ele>2154.2</ele>
        <time>2022-02-25T14:04:54Z</time>
      </trkpt>
      <trkpt lat="44.79923" lon="6.97415">
        <ele>2154.2</ele>
        <time>2022-02-25T14:04:55Z</time>
      </trkpt>
      <trkpt lat="44.79923" lon="6.97415">
        <ele>2154.2</ele>
        <time>2022-02-25T14:04:56Z</time>
      </trkpt>
      <trkpt lat="44.79923" lon="6.97415">
        <ele>2154.2</ele>
        <time>2022-02-25T14:04:57Z</time>
      </trkpt>
      <trkpt lat="44.79923" lon="6.97415">
        <ele>2154.2</ele>
        <time>2022-02-25T14:04:58Z</time>
      </trkpt>
      <trkpt lat="44.79923" lon="6.97415">
        <ele>2154.2</ele>
        <time>2022-02-25T14:04:59Z</time>
      </trkpt>
      <trkpt lat="44.79923" lon="6.97415">
        <ele>2154.2</ele>
        <time>2022-02-25T14:05:00Z</time>
      </trkpt>
      <trkpt lat="44.79923" lon="6.97415">
        <ele>2154.2</ele>
        <time>2022-02-25T14:05:01Z</time>
      </trkpt>
      <trkpt lat="44.79923" lon="6.97415">
        <ele>2154.2</ele>
        <time>2022-02-25T14:05:02Z</time>
      </trkpt>
      <trkpt lat="44.79923" lon="6.97415">
        <ele>2154.2</ele>
        <time>2022-02-25T14:05:03Z</time>
      </trkpt>
      <trkpt lat="44.79923" lon="6.97415">
        <ele>2154.2</ele>
        <time>2022-02-25T14:05:04Z</time>
      </trkpt>
      <trkpt lat="44.79923" lon="6.97415">
        <ele>2154.2</ele>
        <time>2022-02-25T14:05:05Z</time>
      </trkpt>
      <trkpt lat="44.79923" lon="6.97415">
        <ele>2154.2</ele>
        <time>2022-02-25T14:05:06Z</time>
      </trkpt>
      <trkpt lat="44.79923" lon="6.97415">
        <ele>2154.2</ele>
        <time>2022-02-25T14:05:07Z</time>
      </trkpt>
      <trkpt lat="44.79923" lon="6.97415">
        <ele>2154.2</ele>
        <time>2022-02-25T14:05:08Z</time>
      </trkpt>
      <trkpt lat="44.79923" lon="6.97415">
        <ele>2154.2</ele>
        <time>2022-02-25T14:05:09Z</time>
      </trkpt>
      <trkpt lat="44.79923" lon="6.97415">
        <ele>2154.2</ele>
        <time>2022-02-25T14:05:10Z</time>
      </trkpt>
      <trkpt lat="44.79923" lon="6.97415">
        <ele>2154.2</ele>
        <time>2022-02-25T14:05:11Z</time>
      </trkpt>
      <trkpt lat="44.79923" lon="6.97415">
        <ele>2154.2</ele>
        <time>2022-02-25T14:05:12Z</time>
      </trkpt>
      <trkpt lat="44.79923" lon="6.97415">
        <ele>2154.2</ele>
        <time>2022-02-25T14:05:13Z</time>
      </trkpt>
      <trkpt lat="44.79923" lon="6.97415">
        <ele>2154.2</ele>
        <time>2022-02-25T14:05:14Z</time>
      </trkpt>
      <trkpt lat="44.79923" lon="6.97415">
        <ele>2154.2</ele>
        <time>2022-02-25T14:05:15Z</time>
      </trkpt>
      <trkpt lat="44.79923" lon="6.97415">
        <ele>2154.2</ele>
        <time>2022-02-25T14:05:16Z</time>
      </trkpt>
      <trkpt lat="44.79923" lon="6.97415">
        <ele>2154.2</ele>
        <time>2022-02-25T14:05:17Z</time>
      </trkpt>
      <trkpt lat="44.79923" lon="6.97415">
        <ele>2154.2</ele>
        <time>2022-02-25T14:05:18Z</time>
      </trkpt>
      <trkpt lat="44.79923" lon="6.97415">
        <ele>2154.2</ele>
        <time>2022-02-25T14:05:19Z</time>
      </trkpt>
      <trkpt lat="44.79923" lon="6.97415">
        <ele>2154.2</ele>
        <time>2022-02-25T14:05:20Z</time>
      </trkpt>
      <trkpt lat="44.79923" lon="6.97415">
        <ele>2154.2</ele>
        <time>2022-02-25T14:05:21Z</time>
      </trkpt>
      <trkpt lat="44.79923" lon="6.97415">
        <ele>2154.2</ele>
        <time>2022-02-25T14:05:22Z</time>
      </trkpt>
      <trkpt lat="44.79923" lon="6.97415">
        <ele>2154.2</ele>
        <time>2022-02-25T14:05:23Z</time>
      </trkpt>
      <trkpt lat="44.79923" lon="6.97415">
        <ele>2154.2</ele>
        <time>2022-02-25T14:05:24Z</time>
      </trkpt>
      <trkpt lat="44.79923" lon="6.97415">
        <ele>2154.2</ele>
        <time>2022-02-25T14:05:25Z</time>
      </trkpt>
      <trkpt lat="44.79923" lon="6.97415">
        <ele>2154.2</ele>
        <time>2022-02-25T14:05:26Z</time>
      </trkpt>
      <trkpt lat="44.79923" lon="6.97415">
        <ele>2154.2</ele>
        <time>2022-02-25T14:05:27Z</time>
      </trkpt>
      <trkpt lat="44.79923" lon="6.97415">
        <ele>2154.2</ele>
        <time>2022-02-25T14:05:28Z</time>
      </trkpt>
      <trkpt lat="44.79923" lon="6.97415">
        <ele>2154.2</ele>
        <time>2022-02-25T14:05:29Z</time>
      </trkpt>
      <trkpt lat="44.79923" lon="6.97415">
        <ele>2154.2</ele>
        <time>2022-02-25T14:05:30Z</time>
      </trkpt>
      <trkpt lat="44.79925" lon="6.97415">
        <ele>2153.6</ele>
        <time>2022-02-25T14:05:31Z</time>
      </trkpt>
      <trkpt lat="44.79925" lon="6.97411">
        <ele>2153.7</ele>
        <time>2022-02-25T14:05:32Z</time>
      </trkpt>
      <trkpt lat="44.79925" lon="6.97409">
        <ele>2153.7</ele>
        <time>2022-02-25T14:05:33Z</time>
      </trkpt>
      <trkpt lat="44.79925" lon="6.97409">
        <ele>2153.7</ele>
        <time>2022-02-25T14:05:34Z</time>
      </trkpt>
      <trkpt lat="44.79925" lon="6.97404">
        <ele>2153.7</ele>
        <time>2022-02-25T14:05:35Z</time>
      </trkpt>
      <trkpt lat="44.79925" lon="6.97401">
        <ele>2153.8</ele>
        <time>2022-02-25T14:05:36Z</time>
      </trkpt>
      <trkpt lat="44.79925" lon="6.97398">
        <ele>2153.8</ele>
        <time>2022-02-25T14:05:37Z</time>
      </trkpt>
      <trkpt lat="44.79925" lon="6.97398">
        <ele>2153.8</ele>
        <time>2022-02-25T14:05:38Z</time>
      </trkpt>
      <trkpt lat="44.79925" lon="6.97395">
        <ele>2153.8</ele>
        <time>2022-02-25T14:05:39Z</time>
      </trkpt>
      <trkpt lat="44.79925" lon="6.97395">
        <ele>2153.8</ele>
        <time>2022-02-25T14:05:40Z</time>
      </trkpt>
      <trkpt lat="44.79925" lon="6.97395">
        <ele>2153.8</ele>
        <time>2022-02-25T14:05:41Z</time>
      </trkpt>
      <trkpt lat="44.79925" lon="6.97395">
        <ele>2153.8</ele>
        <time>2022-02-25T14:05:42Z</time>
      </trkpt>
      <trkpt lat="44.79925" lon="6.97395">
        <ele>2153.8</ele>
        <time>2022-02-25T14:05:43Z</time>
      </trkpt>
      <trkpt lat="44.79925" lon="6.97395">
        <ele>2153.8</ele>
        <time>2022-02-25T14:05:44Z</time>
      </trkpt>
      <trkpt lat="44.79924" lon="6.97392">
        <ele>2154.1</ele>
        <time>2022-02-25T14:05:45Z</time>
      </trkpt>
      <trkpt lat="44.79924" lon="6.97392">
        <ele>2154.1</ele>
        <time>2022-02-25T14:05:46Z</time>
      </trkpt>
      <trkpt lat="44.79924" lon="6.97392">
        <ele>2154.1</ele>
        <time>2022-02-25T14:05:47Z</time>
      </trkpt>
      <trkpt lat="44.79926" lon="6.97389">
        <ele>2153.6</ele>
        <time>2022-02-25T14:05:48Z</time>
      </trkpt>
      <trkpt lat="44.79929" lon="6.9739">
        <ele>2152.9</ele>
        <time>2022-02-25T14:05:49Z</time>
      </trkpt>
      <trkpt lat="44.79932" lon="6.97392">
        <ele>2152.1</ele>
        <time>2022-02-25T14:05:50Z</time>
      </trkpt>
      <trkpt lat="44.79935" lon="6.97394">
        <ele>2151.3</ele>
        <time>2022-02-25T14:05:51Z</time>
      </trkpt>
      <trkpt lat="44.79939" lon="6.97395">
        <ele>2150.2</ele>
        <time>2022-02-25T14:05:52Z</time>
      </trkpt>
      <trkpt lat="44.79943" lon="6.97397">
        <ele>2149.1</ele>
        <time>2022-02-25T14:05:53Z</time>
      </trkpt>
      <trkpt lat="44.79947" lon="6.97397">
        <ele>2148.1</ele>
        <time>2022-02-25T14:05:54Z</time>
      </trkpt>
      <trkpt lat="44.7995" lon="6.97398">
        <ele>2147.3</ele>
        <time>2022-02-25T14:05:55Z</time>
      </trkpt>
      <trkpt lat="44.79953" lon="6.97399">
        <ele>2146.5</ele>
        <time>2022-02-25T14:05:56Z</time>
      </trkpt>
      <trkpt lat="44.79955" lon="6.97399">
        <ele>2146</ele>
        <time>2022-02-25T14:05:57Z</time>
      </trkpt>
      <trkpt lat="44.79958" lon="6.97399">
        <ele>2145.2</ele>
        <time>2022-02-25T14:05:58Z</time>
      </trkpt>
      <trkpt lat="44.79961" lon="6.97399">
        <ele>2144.5</ele>
        <time>2022-02-25T14:05:59Z</time>
      </trkpt>
      <trkpt lat="44.79964" lon="6.97398">
        <ele>2143.7</ele>
        <time>2022-02-25T14:06:00Z</time>
      </trkpt>
      <trkpt lat="44.79967" lon="6.97396">
        <ele>2143.1</ele>
        <time>2022-02-25T14:06:01Z</time>
      </trkpt>
      <trkpt lat="44.79969" lon="6.97394">
        <ele>2142.6</ele>
        <time>2022-02-25T14:06:02Z</time>
      </trkpt>
      <trkpt lat="44.79972" lon="6.97391">
        <ele>2142</ele>
        <time>2022-02-25T14:06:03Z</time>
      </trkpt>
      <trkpt lat="44.79974" lon="6.97388">
        <ele>2141.6</ele>
        <time>2022-02-25T14:06:04Z</time>
      </trkpt>
      <trkpt lat="44.79977" lon="6.97385">
        <ele>2140.9</ele>
        <time>2022-02-25T14:06:05Z</time>
      </trkpt>
      <trkpt lat="44.79979" lon="6.97383">
        <ele>2140.5</ele>
        <time>2022-02-25T14:06:06Z</time>
      </trkpt>
      <trkpt lat="44.79979" lon="6.97383">
        <ele>2140.5</ele>
        <time>2022-02-25T14:06:07Z</time>
      </trkpt>
      <trkpt lat="44.79981" lon="6.97382">
        <ele>2140</ele>
        <time>2022-02-25T14:06:08Z</time>
      </trkpt>
      <trkpt lat="44.79981" lon="6.97382">
        <ele>2140</ele>
        <time>2022-02-25T14:06:09Z</time>
      </trkpt>
      <trkpt lat="44.79981" lon="6.97382">
        <ele>2140</ele>
        <time>2022-02-25T14:06:10Z</time>
      </trkpt>
      <trkpt lat="44.79981" lon="6.97382">
        <ele>2140</ele>
        <time>2022-02-25T14:06:11Z</time>
      </trkpt>
      <trkpt lat="44.79983" lon="6.9738">
        <ele>2139.5</ele>
        <time>2022-02-25T14:06:12Z</time>
      </trkpt>
      <trkpt lat="44.79983" lon="6.9738">
        <ele>2139.5</ele>
        <time>2022-02-25T14:06:13Z</time>
      </trkpt>
      <trkpt lat="44.79983" lon="6.9738">
        <ele>2139.5</ele>
        <time>2022-02-25T14:06:14Z</time>
      </trkpt>
      <trkpt lat="44.79983" lon="6.9738">
        <ele>2139.5</ele>
        <time>2022-02-25T14:06:15Z</time>
      </trkpt>
      <trkpt lat="44.79984" lon="6.97378">
        <ele>2139.4</ele>
        <time>2022-02-25T14:06:16Z</time>
      </trkpt>
      <trkpt lat="44.79984" lon="6.97378">
        <ele>2139.4</ele>
        <time>2022-02-25T14:06:17Z</time>
      </trkpt>
      <trkpt lat="44.79986" lon="6.97375">
        <ele>2139</ele>
        <time>2022-02-25T14:06:18Z</time>
      </trkpt>
      <trkpt lat="44.79986" lon="6.97375">
        <ele>2139</ele>
        <time>2022-02-25T14:06:19Z</time>
      </trkpt>
      <trkpt lat="44.79986" lon="6.97375">
        <ele>2139</ele>
        <time>2022-02-25T14:06:20Z</time>
      </trkpt>
      <trkpt lat="44.79986" lon="6.97375">
        <ele>2139</ele>
        <time>2022-02-25T14:06:21Z</time>
      </trkpt>
      <trkpt lat="44.79986" lon="6.97375">
        <ele>2139</ele>
        <time>2022-02-25T14:06:22Z</time>
      </trkpt>
      <trkpt lat="44.79986" lon="6.97375">
        <ele>2139</ele>
        <time>2022-02-25T14:06:23Z</time>
      </trkpt>
      <trkpt lat="44.79986" lon="6.97375">
        <ele>2139</ele>
        <time>2022-02-25T14:06:24Z</time>
      </trkpt>
      <trkpt lat="44.79986" lon="6.97375">
        <ele>2139</ele>
        <time>2022-02-25T14:06:25Z</time>
      </trkpt>
      <trkpt lat="44.79986" lon="6.97375">
        <ele>2139</ele>
        <time>2022-02-25T14:06:26Z</time>
      </trkpt>
      <trkpt lat="44.79986" lon="6.97375">
        <ele>2139</ele>
        <time>2022-02-25T14:06:27Z</time>
      </trkpt>
      <trkpt lat="44.79986" lon="6.97375">
        <ele>2139</ele>
        <time>2022-02-25T14:06:28Z</time>
      </trkpt>
      <trkpt lat="44.79986" lon="6.97375">
        <ele>2139</ele>
        <time>2022-02-25T14:06:29Z</time>
      </trkpt>
      <trkpt lat="44.79986" lon="6.97375">
        <ele>2139</ele>
        <time>2022-02-25T14:06:30Z</time>
      </trkpt>
      <trkpt lat="44.79986" lon="6.97375">
        <ele>2139</ele>
        <time>2022-02-25T14:06:31Z</time>
      </trkpt>
      <trkpt lat="44.79989" lon="6.97373">
        <ele>2138.3</ele>
        <time>2022-02-25T14:06:32Z</time>
      </trkpt>
      <trkpt lat="44.79989" lon="6.97373">
        <ele>2138.3</ele>
        <time>2022-02-25T14:06:33Z</time>
      </trkpt>
      <trkpt lat="44.79989" lon="6.97373">
        <ele>2138.3</ele>
        <time>2022-02-25T14:06:34Z</time>
      </trkpt>
      <trkpt lat="44.79989" lon="6.97373">
        <ele>2138.3</ele>
        <time>2022-02-25T14:06:35Z</time>
      </trkpt>
      <trkpt lat="44.79989" lon="6.97373">
        <ele>2138.3</ele>
        <time>2022-02-25T14:06:36Z</time>
      </trkpt>
      <trkpt lat="44.79989" lon="6.97373">
        <ele>2138.3</ele>
        <time>2022-02-25T14:06:37Z</time>
      </trkpt>
      <trkpt lat="44.79989" lon="6.97373">
        <ele>2138.3</ele>
        <time>2022-02-25T14:06:38Z</time>
      </trkpt>
      <trkpt lat="44.79989" lon="6.97373">
        <ele>2138.3</ele>
        <time>2022-02-25T14:06:39Z</time>
      </trkpt>
      <trkpt lat="44.79989" lon="6.97373">
        <ele>2138.3</ele>
        <time>2022-02-25T14:06:40Z</time>
      </trkpt>
      <trkpt lat="44.7999" lon="6.97373">
        <ele>2138</ele>
        <time>2022-02-25T14:06:41Z</time>
      </trkpt>
      <trkpt lat="44.7999" lon="6.97373">
        <ele>2138</ele>
        <time>2022-02-25T14:06:42Z</time>
      </trkpt>
      <trkpt lat="44.7999" lon="6.97373">
        <ele>2138</ele>
        <time>2022-02-25T14:06:43Z</time>
      </trkpt>
      <trkpt lat="44.7999" lon="6.97373">
        <ele>2138</ele>
        <time>2022-02-25T14:06:44Z</time>
      </trkpt>
      <trkpt lat="44.7999" lon="6.97373">
        <ele>2138</ele>
        <time>2022-02-25T14:06:45Z</time>
      </trkpt>
      <trkpt lat="44.7999" lon="6.97373">
        <ele>2138</ele>
        <time>2022-02-25T14:06:46Z</time>
      </trkpt>
      <trkpt lat="44.7999" lon="6.97373">
        <ele>2138</ele>
        <time>2022-02-25T14:06:47Z</time>
      </trkpt>
      <trkpt lat="44.7999" lon="6.97373">
        <ele>2138</ele>
        <time>2022-02-25T14:06:48Z</time>
      </trkpt>
      <trkpt lat="44.7999" lon="6.97373">
        <ele>2138</ele>
        <time>2022-02-25T14:06:49Z</time>
      </trkpt>
      <trkpt lat="44.7999" lon="6.97373">
        <ele>2138</ele>
        <time>2022-02-25T14:06:50Z</time>
      </trkpt>
      <trkpt lat="44.7999" lon="6.97373">
        <ele>2138</ele>
        <time>2022-02-25T14:06:51Z</time>
      </trkpt>
      <trkpt lat="44.7999" lon="6.97373">
        <ele>2138</ele>
        <time>2022-02-25T14:06:52Z</time>
      </trkpt>
      <trkpt lat="44.79993" lon="6.97372">
        <ele>2137.2</ele>
        <time>2022-02-25T14:06:53Z</time>
      </trkpt>
      <trkpt lat="44.79993" lon="6.97372">
        <ele>2137.2</ele>
        <time>2022-02-25T14:06:54Z</time>
      </trkpt>
      <trkpt lat="44.79993" lon="6.97372">
        <ele>2137.2</ele>
        <time>2022-02-25T14:06:55Z</time>
      </trkpt>
      <trkpt lat="44.79993" lon="6.97372">
        <ele>2137.2</ele>
        <time>2022-02-25T14:06:56Z</time>
      </trkpt>
      <trkpt lat="44.79993" lon="6.97372">
        <ele>2137.2</ele>
        <time>2022-02-25T14:06:57Z</time>
      </trkpt>
      <trkpt lat="44.79993" lon="6.97372">
        <ele>2137.2</ele>
        <time>2022-02-25T14:06:58Z</time>
      </trkpt>
      <trkpt lat="44.79993" lon="6.97372">
        <ele>2137.2</ele>
        <time>2022-02-25T14:06:59Z</time>
      </trkpt>
      <trkpt lat="44.79993" lon="6.97372">
        <ele>2137.2</ele>
        <time>2022-02-25T14:07:00Z</time>
      </trkpt>
      <trkpt lat="44.79993" lon="6.97372">
        <ele>2137.2</ele>
        <time>2022-02-25T14:07:01Z</time>
      </trkpt>
      <trkpt lat="44.79993" lon="6.97372">
        <ele>2137.2</ele>
        <time>2022-02-25T14:07:02Z</time>
      </trkpt>
      <trkpt lat="44.79993" lon="6.97372">
        <ele>2137.2</ele>
        <time>2022-02-25T14:07:03Z</time>
      </trkpt>
      <trkpt lat="44.79993" lon="6.97372">
        <ele>2137.2</ele>
        <time>2022-02-25T14:07:04Z</time>
      </trkpt>
      <trkpt lat="44.79993" lon="6.97372">
        <ele>2137.2</ele>
        <time>2022-02-25T14:07:05Z</time>
      </trkpt>
      <trkpt lat="44.79993" lon="6.97372">
        <ele>2137.2</ele>
        <time>2022-02-25T14:07:06Z</time>
      </trkpt>
      <trkpt lat="44.79993" lon="6.97372">
        <ele>2137.2</ele>
        <time>2022-02-25T14:07:07Z</time>
      </trkpt>
      <trkpt lat="44.79993" lon="6.97372">
        <ele>2137.2</ele>
        <time>2022-02-25T14:07:08Z</time>
      </trkpt>
      <trkpt lat="44.79995" lon="6.97371">
        <ele>2136.7</ele>
        <time>2022-02-25T14:07:09Z</time>
      </trkpt>
      <trkpt lat="44.79995" lon="6.97371">
        <ele>2136.7</ele>
        <time>2022-02-25T14:07:10Z</time>
      </trkpt>
      <trkpt lat="44.79996" lon="6.97373">
        <ele>2136.3</ele>
        <time>2022-02-25T14:07:11Z</time>
      </trkpt>
      <trkpt lat="44.79996" lon="6.97373">
        <ele>2136.3</ele>
        <time>2022-02-25T14:07:12Z</time>
      </trkpt>
      <trkpt lat="44.79996" lon="6.97373">
        <ele>2136.3</ele>
        <time>2022-02-25T14:07:13Z</time>
      </trkpt>
      <trkpt lat="44.79998" lon="6.97374">
        <ele>2135.6</ele>
        <time>2022-02-25T14:07:14Z</time>
      </trkpt>
      <trkpt lat="44.79998" lon="6.97374">
        <ele>2135.6</ele>
        <time>2022-02-25T14:07:15Z</time>
      </trkpt>
      <trkpt lat="44.79998" lon="6.97374">
        <ele>2135.6</ele>
        <time>2022-02-25T14:07:16Z</time>
      </trkpt>
      <trkpt lat="44.79998" lon="6.97374">
        <ele>2135.6</ele>
        <time>2022-02-25T14:07:17Z</time>
      </trkpt>
      <trkpt lat="44.8" lon="6.97374">
        <ele>2135.1</ele>
        <time>2022-02-25T14:07:18Z</time>
      </trkpt>
      <trkpt lat="44.8" lon="6.97374">
        <ele>2135.1</ele>
        <time>2022-02-25T14:07:19Z</time>
      </trkpt>
      <trkpt lat="44.8" lon="6.97377">
        <ele>2134.9</ele>
        <time>2022-02-25T14:07:20Z</time>
      </trkpt>
      <trkpt lat="44.8" lon="6.97377">
        <ele>2134.9</ele>
        <time>2022-02-25T14:07:21Z</time>
      </trkpt>
      <trkpt lat="44.80001" lon="6.9738">
        <ele>2134.4</ele>
        <time>2022-02-25T14:07:22Z</time>
      </trkpt>
      <trkpt lat="44.80001" lon="6.9738">
        <ele>2134.4</ele>
        <time>2022-02-25T14:07:23Z</time>
      </trkpt>
      <trkpt lat="44.80001" lon="6.9738">
        <ele>2134.4</ele>
        <time>2022-02-25T14:07:24Z</time>
      </trkpt>
      <trkpt lat="44.80001" lon="6.9738">
        <ele>2134.4</ele>
        <time>2022-02-25T14:07:25Z</time>
      </trkpt>
      <trkpt lat="44.80001" lon="6.9738">
        <ele>2134.4</ele>
        <time>2022-02-25T14:07:26Z</time>
      </trkpt>
      <trkpt lat="44.80001" lon="6.9738">
        <ele>2134.4</ele>
        <time>2022-02-25T14:07:27Z</time>
      </trkpt>
      <trkpt lat="44.80002" lon="6.97382">
        <ele>2133.9</ele>
        <time>2022-02-25T14:07:28Z</time>
      </trkpt>
      <trkpt lat="44.80002" lon="6.97382">
        <ele>2133.9</ele>
        <time>2022-02-25T14:07:29Z</time>
      </trkpt>
      <trkpt lat="44.80002" lon="6.97382">
        <ele>2133.9</ele>
        <time>2022-02-25T14:07:30Z</time>
      </trkpt>
      <trkpt lat="44.80005" lon="6.9738">
        <ele>2133.2</ele>
        <time>2022-02-25T14:07:31Z</time>
      </trkpt>
      <trkpt lat="44.80006" lon="6.97378">
        <ele>2133.1</ele>
        <time>2022-02-25T14:07:32Z</time>
      </trkpt>
      <trkpt lat="44.80006" lon="6.97378">
        <ele>2133.1</ele>
        <time>2022-02-25T14:07:33Z</time>
      </trkpt>
      <trkpt lat="44.80007" lon="6.97375">
        <ele>2133</ele>
        <time>2022-02-25T14:07:34Z</time>
      </trkpt>
      <trkpt lat="44.80008" lon="6.97372">
        <ele>2132.9</ele>
        <time>2022-02-25T14:07:35Z</time>
      </trkpt>
      <trkpt lat="44.80011" lon="6.97367">
        <ele>2132.4</ele>
        <time>2022-02-25T14:07:36Z</time>
      </trkpt>
      <trkpt lat="44.80011" lon="6.97362">
        <ele>2132.8</ele>
        <time>2022-02-25T14:07:37Z</time>
      </trkpt>
      <trkpt lat="44.80012" lon="6.97358">
        <ele>2132.9</ele>
        <time>2022-02-25T14:07:38Z</time>
      </trkpt>
      <trkpt lat="44.80013" lon="6.97353">
        <ele>2133.1</ele>
        <time>2022-02-25T14:07:39Z</time>
      </trkpt>
      <trkpt lat="44.80014" lon="6.97349">
        <ele>2133.3</ele>
        <time>2022-02-25T14:07:40Z</time>
      </trkpt>
      <trkpt lat="44.80016" lon="6.97346">
        <ele>2133</ele>
        <time>2022-02-25T14:07:41Z</time>
      </trkpt>
      <trkpt lat="44.80018" lon="6.97344">
        <ele>2132.7</ele>
        <time>2022-02-25T14:07:42Z</time>
      </trkpt>
      <trkpt lat="44.80018" lon="6.97344">
        <ele>2132.7</ele>
        <time>2022-02-25T14:07:43Z</time>
      </trkpt>
      <trkpt lat="44.8002" lon="6.97341">
        <ele>2132.4</ele>
        <time>2022-02-25T14:07:44Z</time>
      </trkpt>
      <trkpt lat="44.8002" lon="6.97341">
        <ele>2132.4</ele>
        <time>2022-02-25T14:07:45Z</time>
      </trkpt>
      <trkpt lat="44.80022" lon="6.97337">
        <ele>2132.3</ele>
        <time>2022-02-25T14:07:46Z</time>
      </trkpt>
      <trkpt lat="44.80024" lon="6.97335">
        <ele>2131.9</ele>
        <time>2022-02-25T14:07:47Z</time>
      </trkpt>
      <trkpt lat="44.80026" lon="6.97334">
        <ele>2131.4</ele>
        <time>2022-02-25T14:07:48Z</time>
      </trkpt>
      <trkpt lat="44.80028" lon="6.97332">
        <ele>2131.1</ele>
        <time>2022-02-25T14:07:49Z</time>
      </trkpt>
      <trkpt lat="44.8003" lon="6.97331">
        <ele>2130.8</ele>
        <time>2022-02-25T14:07:50Z</time>
      </trkpt>
      <trkpt lat="44.80031" lon="6.97329">
        <ele>2130.8</ele>
        <time>2022-02-25T14:07:51Z</time>
      </trkpt>
      <trkpt lat="44.80031" lon="6.97329">
        <ele>2130.8</ele>
        <time>2022-02-25T14:07:52Z</time>
      </trkpt>
      <trkpt lat="44.80033" lon="6.97325">
        <ele>2130.9</ele>
        <time>2022-02-25T14:07:53Z</time>
      </trkpt>
      <trkpt lat="44.80033" lon="6.97325">
        <ele>2130.9</ele>
        <time>2022-02-25T14:07:54Z</time>
      </trkpt>
      <trkpt lat="44.80035" lon="6.97322">
        <ele>2130.8</ele>
        <time>2022-02-25T14:07:55Z</time>
      </trkpt>
      <trkpt lat="44.80036" lon="6.9732">
        <ele>2130.8</ele>
        <time>2022-02-25T14:07:56Z</time>
      </trkpt>
      <trkpt lat="44.80037" lon="6.97317">
        <ele>2131</ele>
        <time>2022-02-25T14:07:57Z</time>
      </trkpt>
      <trkpt lat="44.80038" lon="6.97313">
        <ele>2131.4</ele>
        <time>2022-02-25T14:07:58Z</time>
      </trkpt>
      <trkpt lat="44.80041" lon="6.9731">
        <ele>2131</ele>
        <time>2022-02-25T14:07:59Z</time>
      </trkpt>
      <trkpt lat="44.80043" lon="6.97306">
        <ele>2131.1</ele>
        <time>2022-02-25T14:08:00Z</time>
      </trkpt>
      <trkpt lat="44.80046" lon="6.97303">
        <ele>2130.7</ele>
        <time>2022-02-25T14:08:01Z</time>
      </trkpt>
      <trkpt lat="44.80047" lon="6.973">
        <ele>2130.7</ele>
        <time>2022-02-25T14:08:02Z</time>
      </trkpt>
      <trkpt lat="44.80048" lon="6.97297">
        <ele>2130.7</ele>
        <time>2022-02-25T14:08:03Z</time>
      </trkpt>
      <trkpt lat="44.80049" lon="6.97294">
        <ele>2130.8</ele>
        <time>2022-02-25T14:08:04Z</time>
      </trkpt>
      <trkpt lat="44.80048" lon="6.97292">
        <ele>2131.2</ele>
        <time>2022-02-25T14:08:05Z</time>
      </trkpt>
      <trkpt lat="44.80049" lon="6.97289">
        <ele>2131.3</ele>
        <time>2022-02-25T14:08:06Z</time>
      </trkpt>
      <trkpt lat="44.80049" lon="6.97289">
        <ele>2131.3</ele>
        <time>2022-02-25T14:08:07Z</time>
      </trkpt>
      <trkpt lat="44.8005" lon="6.97284">
        <ele>2131.6</ele>
        <time>2022-02-25T14:08:08Z</time>
      </trkpt>
      <trkpt lat="44.80052" lon="6.97282">
        <ele>2131.3</ele>
        <time>2022-02-25T14:08:09Z</time>
      </trkpt>
      <trkpt lat="44.80052" lon="6.97282">
        <ele>2131.3</ele>
        <time>2022-02-25T14:08:10Z</time>
      </trkpt>
      <trkpt lat="44.80053" lon="6.97278">
        <ele>2131.5</ele>
        <time>2022-02-25T14:08:11Z</time>
      </trkpt>
      <trkpt lat="44.80053" lon="6.97278">
        <ele>2131.5</ele>
        <time>2022-02-25T14:08:12Z</time>
      </trkpt>
      <trkpt lat="44.80053" lon="6.97275">
        <ele>2131.9</ele>
        <time>2022-02-25T14:08:13Z</time>
      </trkpt>
      <trkpt lat="44.80053" lon="6.97275">
        <ele>2131.9</ele>
        <time>2022-02-25T14:08:14Z</time>
      </trkpt>
      <trkpt lat="44.80054" lon="6.9727">
        <ele>2132.2</ele>
        <time>2022-02-25T14:08:15Z</time>
      </trkpt>
      <trkpt lat="44.80054" lon="6.9727">
        <ele>2132.2</ele>
        <time>2022-02-25T14:08:16Z</time>
      </trkpt>
      <trkpt lat="44.80054" lon="6.9727">
        <ele>2132.2</ele>
        <time>2022-02-25T14:08:17Z</time>
      </trkpt>
      <trkpt lat="44.80053" lon="6.97268">
        <ele>2132.6</ele>
        <time>2022-02-25T14:08:18Z</time>
      </trkpt>
      <trkpt lat="44.80053" lon="6.97268">
        <ele>2132.6</ele>
        <time>2022-02-25T14:08:19Z</time>
      </trkpt>
      <trkpt lat="44.80053" lon="6.97268">
        <ele>2132.6</ele>
        <time>2022-02-25T14:08:20Z</time>
      </trkpt>
      <trkpt lat="44.80053" lon="6.97264">
        <ele>2133</ele>
        <time>2022-02-25T14:08:21Z</time>
      </trkpt>
      <trkpt lat="44.80053" lon="6.97264">
        <ele>2133</ele>
        <time>2022-02-25T14:08:22Z</time>
      </trkpt>
      <trkpt lat="44.80054" lon="6.9726">
        <ele>2133.3</ele>
        <time>2022-02-25T14:08:23Z</time>
      </trkpt>
      <trkpt lat="44.80054" lon="6.9726">
        <ele>2133.3</ele>
        <time>2022-02-25T14:08:24Z</time>
      </trkpt>
      <trkpt lat="44.80056" lon="6.97257">
        <ele>2133.1</ele>
        <time>2022-02-25T14:08:25Z</time>
      </trkpt>
      <trkpt lat="44.80057" lon="6.97255">
        <ele>2133.1</ele>
        <time>2022-02-25T14:08:26Z</time>
      </trkpt>
      <trkpt lat="44.80057" lon="6.97255">
        <ele>2133.1</ele>
        <time>2022-02-25T14:08:27Z</time>
      </trkpt>
      <trkpt lat="44.80058" lon="6.97251">
        <ele>2133.4</ele>
        <time>2022-02-25T14:08:28Z</time>
      </trkpt>
      <trkpt lat="44.80058" lon="6.97251">
        <ele>2133.4</ele>
        <time>2022-02-25T14:08:29Z</time>
      </trkpt>
      <trkpt lat="44.80059" lon="6.97247">
        <ele>2133.5</ele>
        <time>2022-02-25T14:08:30Z</time>
      </trkpt>
      <trkpt lat="44.8006" lon="6.97246">
        <ele>2133.3</ele>
        <time>2022-02-25T14:08:31Z</time>
      </trkpt>
      <trkpt lat="44.8006" lon="6.97246">
        <ele>2133.3</ele>
        <time>2022-02-25T14:08:32Z</time>
      </trkpt>
      <trkpt lat="44.8006" lon="6.97246">
        <ele>2133.3</ele>
        <time>2022-02-25T14:08:33Z</time>
      </trkpt>
      <trkpt lat="44.8006" lon="6.97246">
        <ele>2133.3</ele>
        <time>2022-02-25T14:08:34Z</time>
      </trkpt>
      <trkpt lat="44.8006" lon="6.97246">
        <ele>2133.3</ele>
        <time>2022-02-25T14:08:35Z</time>
      </trkpt>
      <trkpt lat="44.8006" lon="6.97246">
        <ele>2133.3</ele>
        <time>2022-02-25T14:08:36Z</time>
      </trkpt>
      <trkpt lat="44.8006" lon="6.97246">
        <ele>2133.3</ele>
        <time>2022-02-25T14:08:37Z</time>
      </trkpt>
      <trkpt lat="44.8006" lon="6.97246">
        <ele>2133.3</ele>
        <time>2022-02-25T14:08:38Z</time>
      </trkpt>
      <trkpt lat="44.8006" lon="6.97246">
        <ele>2133.3</ele>
        <time>2022-02-25T14:08:39Z</time>
      </trkpt>
      <trkpt lat="44.8006" lon="6.97246">
        <ele>2133.3</ele>
        <time>2022-02-25T14:08:40Z</time>
      </trkpt>
      <trkpt lat="44.8006" lon="6.97246">
        <ele>2133.3</ele>
        <time>2022-02-25T14:08:41Z</time>
      </trkpt>
      <trkpt lat="44.8006" lon="6.97246">
        <ele>2133.3</ele>
        <time>2022-02-25T14:08:42Z</time>
      </trkpt>
      <trkpt lat="44.8006" lon="6.97246">
        <ele>2133.3</ele>
        <time>2022-02-25T14:08:43Z</time>
      </trkpt>
      <trkpt lat="44.8006" lon="6.97246">
        <ele>2133.3</ele>
        <time>2022-02-25T14:08:44Z</time>
      </trkpt>
      <trkpt lat="44.8006" lon="6.97246">
        <ele>2133.3</ele>
        <time>2022-02-25T14:08:45Z</time>
      </trkpt>
      <trkpt lat="44.8006" lon="6.97246">
        <ele>2133.3</ele>
        <time>2022-02-25T14:08:46Z</time>
      </trkpt>
      <trkpt lat="44.8006" lon="6.97246">
        <ele>2133.3</ele>
        <time>2022-02-25T14:08:47Z</time>
      </trkpt>
      <trkpt lat="44.8006" lon="6.97246">
        <ele>2133.3</ele>
        <time>2022-02-25T14:08:48Z</time>
      </trkpt>
      <trkpt lat="44.8006" lon="6.97246">
        <ele>2133.3</ele>
        <time>2022-02-25T14:08:49Z</time>
      </trkpt>
      <trkpt lat="44.8006" lon="6.97246">
        <ele>2133.3</ele>
        <time>2022-02-25T14:08:50Z</time>
      </trkpt>
      <trkpt lat="44.8006" lon="6.97246">
        <ele>2133.3</ele>
        <time>2022-02-25T14:08:51Z</time>
      </trkpt>
      <trkpt lat="44.8006" lon="6.97246">
        <ele>2133.3</ele>
        <time>2022-02-25T14:08:52Z</time>
      </trkpt>
      <trkpt lat="44.80062" lon="6.97245">
        <ele>2133</ele>
        <time>2022-02-25T14:08:53Z</time>
      </trkpt>
      <trkpt lat="44.80064" lon="6.97243">
        <ele>2132.7</ele>
        <time>2022-02-25T14:08:54Z</time>
      </trkpt>
      <trkpt lat="44.80064" lon="6.97243">
        <ele>2132.7</ele>
        <time>2022-02-25T14:08:55Z</time>
      </trkpt>
      <trkpt lat="44.80064" lon="6.97243">
        <ele>2132.7</ele>
        <time>2022-02-25T14:08:56Z</time>
      </trkpt>
      <trkpt lat="44.80064" lon="6.97243">
        <ele>2132.7</ele>
        <time>2022-02-25T14:08:57Z</time>
      </trkpt>
      <trkpt lat="44.80066" lon="6.9724">
        <ele>2132.5</ele>
        <time>2022-02-25T14:08:58Z</time>
      </trkpt>
      <trkpt lat="44.80066" lon="6.9724">
        <ele>2132.5</ele>
        <time>2022-02-25T14:08:59Z</time>
      </trkpt>
      <trkpt lat="44.80066" lon="6.9724">
        <ele>2132.5</ele>
        <time>2022-02-25T14:09:00Z</time>
      </trkpt>
      <trkpt lat="44.80066" lon="6.9724">
        <ele>2132.5</ele>
        <time>2022-02-25T14:09:01Z</time>
      </trkpt>
      <trkpt lat="44.80066" lon="6.9724">
        <ele>2132.5</ele>
        <time>2022-02-25T14:09:02Z</time>
      </trkpt>
      <trkpt lat="44.80066" lon="6.9724">
        <ele>2132.5</ele>
        <time>2022-02-25T14:09:03Z</time>
      </trkpt>
      <trkpt lat="44.80066" lon="6.9724">
        <ele>2132.5</ele>
        <time>2022-02-25T14:09:04Z</time>
      </trkpt>
      <trkpt lat="44.80067" lon="6.97237">
        <ele>2132.5</ele>
        <time>2022-02-25T14:09:05Z</time>
      </trkpt>
      <trkpt lat="44.80067" lon="6.97237">
        <ele>2132.5</ele>
        <time>2022-02-25T14:09:06Z</time>
      </trkpt>
      <trkpt lat="44.80067" lon="6.97237">
        <ele>2132.5</ele>
        <time>2022-02-25T14:09:07Z</time>
      </trkpt>
      <trkpt lat="44.80067" lon="6.97237">
        <ele>2132.5</ele>
        <time>2022-02-25T14:09:08Z</time>
      </trkpt>
      <trkpt lat="44.80067" lon="6.97237">
        <ele>2132.5</ele>
        <time>2022-02-25T14:09:09Z</time>
      </trkpt>
      <trkpt lat="44.80067" lon="6.97237">
        <ele>2132.5</ele>
        <time>2022-02-25T14:09:10Z</time>
      </trkpt>
      <trkpt lat="44.80067" lon="6.97237">
        <ele>2132.5</ele>
        <time>2022-02-25T14:09:11Z</time>
      </trkpt>
      <trkpt lat="44.80067" lon="6.97237">
        <ele>2132.5</ele>
        <time>2022-02-25T14:09:12Z</time>
      </trkpt>
      <trkpt lat="44.80067" lon="6.97237">
        <ele>2132.5</ele>
        <time>2022-02-25T14:09:13Z</time>
      </trkpt>
      <trkpt lat="44.80067" lon="6.97237">
        <ele>2132.5</ele>
        <time>2022-02-25T14:09:14Z</time>
      </trkpt>
      <trkpt lat="44.80067" lon="6.97237">
        <ele>2132.5</ele>
        <time>2022-02-25T14:09:15Z</time>
      </trkpt>
      <trkpt lat="44.80067" lon="6.97237">
        <ele>2132.5</ele>
        <time>2022-02-25T14:09:16Z</time>
      </trkpt>
      <trkpt lat="44.80067" lon="6.97237">
        <ele>2132.5</ele>
        <time>2022-02-25T14:09:17Z</time>
      </trkpt>
      <trkpt lat="44.80067" lon="6.97237">
        <ele>2132.5</ele>
        <time>2022-02-25T14:09:18Z</time>
      </trkpt>
      <trkpt lat="44.80067" lon="6.97237">
        <ele>2132.5</ele>
        <time>2022-02-25T14:09:19Z</time>
      </trkpt>
      <trkpt lat="44.80067" lon="6.97237">
        <ele>2132.5</ele>
        <time>2022-02-25T14:09:20Z</time>
      </trkpt>
      <trkpt lat="44.80067" lon="6.97237">
        <ele>2132.5</ele>
        <time>2022-02-25T14:09:21Z</time>
      </trkpt>
      <trkpt lat="44.80067" lon="6.97237">
        <ele>2132.5</ele>
        <time>2022-02-25T14:09:22Z</time>
      </trkpt>
      <trkpt lat="44.80067" lon="6.97237">
        <ele>2132.5</ele>
        <time>2022-02-25T14:09:23Z</time>
      </trkpt>
      <trkpt lat="44.80067" lon="6.97237">
        <ele>2132.5</ele>
        <time>2022-02-25T14:09:24Z</time>
      </trkpt>
      <trkpt lat="44.80067" lon="6.97237">
        <ele>2132.5</ele>
        <time>2022-02-25T14:09:25Z</time>
      </trkpt>
      <trkpt lat="44.80067" lon="6.97237">
        <ele>2132.5</ele>
        <time>2022-02-25T14:09:26Z</time>
      </trkpt>
      <trkpt lat="44.80067" lon="6.97237">
        <ele>2132.5</ele>
        <time>2022-02-25T14:09:27Z</time>
      </trkpt>
      <trkpt lat="44.80067" lon="6.97237">
        <ele>2132.5</ele>
        <time>2022-02-25T14:09:28Z</time>
      </trkpt>
      <trkpt lat="44.80067" lon="6.97237">
        <ele>2132.5</ele>
        <time>2022-02-25T14:09:29Z</time>
      </trkpt>
      <trkpt lat="44.80067" lon="6.97237">
        <ele>2132.5</ele>
        <time>2022-02-25T14:09:30Z</time>
      </trkpt>
      <trkpt lat="44.80067" lon="6.97237">
        <ele>2132.5</ele>
        <time>2022-02-25T14:09:31Z</time>
      </trkpt>
      <trkpt lat="44.80068" lon="6.97234">
        <ele>2132.5</ele>
        <time>2022-02-25T14:09:32Z</time>
      </trkpt>
      <trkpt lat="44.80068" lon="6.97234">
        <ele>2132.5</ele>
        <time>2022-02-25T14:09:33Z</time>
      </trkpt>
      <trkpt lat="44.8007" lon="6.97231">
        <ele>2132.2</ele>
        <time>2022-02-25T14:09:34Z</time>
      </trkpt>
      <trkpt lat="44.8007" lon="6.97231">
        <ele>2132.2</ele>
        <time>2022-02-25T14:09:35Z</time>
      </trkpt>
      <trkpt lat="44.8007" lon="6.97231">
        <ele>2132.2</ele>
        <time>2022-02-25T14:09:36Z</time>
      </trkpt>
      <trkpt lat="44.8007" lon="6.97231">
        <ele>2132.2</ele>
        <time>2022-02-25T14:09:37Z</time>
      </trkpt>
      <trkpt lat="44.80072" lon="6.97226">
        <ele>2132.2</ele>
        <time>2022-02-25T14:09:38Z</time>
      </trkpt>
      <trkpt lat="44.80072" lon="6.97226">
        <ele>2132.2</ele>
        <time>2022-02-25T14:09:39Z</time>
      </trkpt>
      <trkpt lat="44.80072" lon="6.97226">
        <ele>2132.2</ele>
        <time>2022-02-25T14:09:40Z</time>
      </trkpt>
      <trkpt lat="44.80072" lon="6.97226">
        <ele>2132.2</ele>
        <time>2022-02-25T14:09:41Z</time>
      </trkpt>
      <trkpt lat="44.80072" lon="6.97226">
        <ele>2132.2</ele>
        <time>2022-02-25T14:09:42Z</time>
      </trkpt>
      <trkpt lat="44.80072" lon="6.97226">
        <ele>2132.2</ele>
        <time>2022-02-25T14:09:43Z</time>
      </trkpt>
      <trkpt lat="44.80072" lon="6.97226">
        <ele>2132.2</ele>
        <time>2022-02-25T14:09:44Z</time>
      </trkpt>
      <trkpt lat="44.80072" lon="6.97226">
        <ele>2132.2</ele>
        <time>2022-02-25T14:09:45Z</time>
      </trkpt>
      <trkpt lat="44.80072" lon="6.97226">
        <ele>2132.2</ele>
        <time>2022-02-25T14:09:46Z</time>
      </trkpt>
      <trkpt lat="44.80073" lon="6.97224">
        <ele>2132.1</ele>
        <time>2022-02-25T14:09:47Z</time>
      </trkpt>
      <trkpt lat="44.80073" lon="6.97224">
        <ele>2132.1</ele>
        <time>2022-02-25T14:09:48Z</time>
      </trkpt>
      <trkpt lat="44.80073" lon="6.97224">
        <ele>2132.1</ele>
        <time>2022-02-25T14:09:49Z</time>
      </trkpt>
      <trkpt lat="44.80075" lon="6.97222">
        <ele>2131.8</ele>
        <time>2022-02-25T14:09:50Z</time>
      </trkpt>
      <trkpt lat="44.80075" lon="6.97222">
        <ele>2131.8</ele>
        <time>2022-02-25T14:09:51Z</time>
      </trkpt>
      <trkpt lat="44.80076" lon="6.97218">
        <ele>2131.9</ele>
        <time>2022-02-25T14:09:52Z</time>
      </trkpt>
      <trkpt lat="44.80077" lon="6.97215">
        <ele>2131.9</ele>
        <time>2022-02-25T14:09:53Z</time>
      </trkpt>
      <trkpt lat="44.80077" lon="6.97215">
        <ele>2131.9</ele>
        <time>2022-02-25T14:09:54Z</time>
      </trkpt>
      <trkpt lat="44.80078" lon="6.97211">
        <ele>2132</ele>
        <time>2022-02-25T14:09:55Z</time>
      </trkpt>
      <trkpt lat="44.80078" lon="6.97211">
        <ele>2132</ele>
        <time>2022-02-25T14:09:56Z</time>
      </trkpt>
      <trkpt lat="44.80078" lon="6.97211">
        <ele>2132</ele>
        <time>2022-02-25T14:09:57Z</time>
      </trkpt>
      <trkpt lat="44.80078" lon="6.97209">
        <ele>2132.1</ele>
        <time>2022-02-25T14:09:58Z</time>
      </trkpt>
      <trkpt lat="44.80078" lon="6.97209">
        <ele>2132.1</ele>
        <time>2022-02-25T14:09:59Z</time>
      </trkpt>
      <trkpt lat="44.80078" lon="6.97209">
        <ele>2132.1</ele>
        <time>2022-02-25T14:10:00Z</time>
      </trkpt>
      <trkpt lat="44.80079" lon="6.97205">
        <ele>2132.2</ele>
        <time>2022-02-25T14:10:01Z</time>
      </trkpt>
      <trkpt lat="44.80079" lon="6.97205">
        <ele>2132.2</ele>
        <time>2022-02-25T14:10:02Z</time>
      </trkpt>
      <trkpt lat="44.80081" lon="6.97201">
        <ele>2132</ele>
        <time>2022-02-25T14:10:03Z</time>
      </trkpt>
      <trkpt lat="44.80082" lon="6.97199">
        <ele>2132</ele>
        <time>2022-02-25T14:10:04Z</time>
      </trkpt>
      <trkpt lat="44.80082" lon="6.97199">
        <ele>2132</ele>
        <time>2022-02-25T14:10:05Z</time>
      </trkpt>
      <trkpt lat="44.80084" lon="6.97195">
        <ele>2131.8</ele>
        <time>2022-02-25T14:10:06Z</time>
      </trkpt>
      <trkpt lat="44.80084" lon="6.97195">
        <ele>2131.8</ele>
        <time>2022-02-25T14:10:07Z</time>
      </trkpt>
      <trkpt lat="44.80084" lon="6.97195">
        <ele>2131.8</ele>
        <time>2022-02-25T14:10:08Z</time>
      </trkpt>
      <trkpt lat="44.80086" lon="6.97194">
        <ele>2131.5</ele>
        <time>2022-02-25T14:10:09Z</time>
      </trkpt>
      <trkpt lat="44.80086" lon="6.97194">
        <ele>2131.5</ele>
        <time>2022-02-25T14:10:10Z</time>
      </trkpt>
      <trkpt lat="44.80086" lon="6.97194">
        <ele>2131.5</ele>
        <time>2022-02-25T14:10:11Z</time>
      </trkpt>
      <trkpt lat="44.80087" lon="6.9719">
        <ele>2131.5</ele>
        <time>2022-02-25T14:10:12Z</time>
      </trkpt>
      <trkpt lat="44.80087" lon="6.9719">
        <ele>2131.5</ele>
        <time>2022-02-25T14:10:13Z</time>
      </trkpt>
      <trkpt lat="44.80089" lon="6.97186">
        <ele>2131.4</ele>
        <time>2022-02-25T14:10:14Z</time>
      </trkpt>
      <trkpt lat="44.8009" lon="6.97183">
        <ele>2131.4</ele>
        <time>2022-02-25T14:10:15Z</time>
      </trkpt>
      <trkpt lat="44.8009" lon="6.97183">
        <ele>2131.4</ele>
        <time>2022-02-25T14:10:16Z</time>
      </trkpt>
      <trkpt lat="44.80092" lon="6.97181">
        <ele>2131.1</ele>
        <time>2022-02-25T14:10:17Z</time>
      </trkpt>
      <trkpt lat="44.80092" lon="6.97181">
        <ele>2131.1</ele>
        <time>2022-02-25T14:10:18Z</time>
      </trkpt>
      <trkpt lat="44.80092" lon="6.97181">
        <ele>2131.1</ele>
        <time>2022-02-25T14:10:19Z</time>
      </trkpt>
      <trkpt lat="44.80092" lon="6.97181">
        <ele>2131.1</ele>
        <time>2022-02-25T14:10:20Z</time>
      </trkpt>
      <trkpt lat="44.80092" lon="6.97181">
        <ele>2131.1</ele>
        <time>2022-02-25T14:10:21Z</time>
      </trkpt>
      <trkpt lat="44.80092" lon="6.97181">
        <ele>2131.1</ele>
        <time>2022-02-25T14:10:22Z</time>
      </trkpt>
      <trkpt lat="44.80092" lon="6.97177">
        <ele>2131.4</ele>
        <time>2022-02-25T14:10:23Z</time>
      </trkpt>
      <trkpt lat="44.80092" lon="6.97177">
        <ele>2131.4</ele>
        <time>2022-02-25T14:10:24Z</time>
      </trkpt>
      <trkpt lat="44.80093" lon="6.97174">
        <ele>2131.4</ele>
        <time>2022-02-25T14:10:25Z</time>
      </trkpt>
      <trkpt lat="44.80093" lon="6.97174">
        <ele>2131.4</ele>
        <time>2022-02-25T14:10:26Z</time>
      </trkpt>
      <trkpt lat="44.80093" lon="6.97174">
        <ele>2131.4</ele>
        <time>2022-02-25T14:10:27Z</time>
      </trkpt>
      <trkpt lat="44.80095" lon="6.97172">
        <ele>2131.1</ele>
        <time>2022-02-25T14:10:28Z</time>
      </trkpt>
      <trkpt lat="44.80095" lon="6.97172">
        <ele>2131.1</ele>
        <time>2022-02-25T14:10:29Z</time>
      </trkpt>
      <trkpt lat="44.80095" lon="6.97172">
        <ele>2131.1</ele>
        <time>2022-02-25T14:10:30Z</time>
      </trkpt>
      <trkpt lat="44.80095" lon="6.97172">
        <ele>2131.1</ele>
        <time>2022-02-25T14:10:31Z</time>
      </trkpt>
      <trkpt lat="44.80096" lon="6.97169">
        <ele>2131.1</ele>
        <time>2022-02-25T14:10:32Z</time>
      </trkpt>
      <trkpt lat="44.80096" lon="6.97169">
        <ele>2131.1</ele>
        <time>2022-02-25T14:10:33Z</time>
      </trkpt>
      <trkpt lat="44.80096" lon="6.97169">
        <ele>2131.1</ele>
        <time>2022-02-25T14:10:34Z</time>
      </trkpt>
      <trkpt lat="44.80098" lon="6.97166">
        <ele>2130.9</ele>
        <time>2022-02-25T14:10:35Z</time>
      </trkpt>
      <trkpt lat="44.80098" lon="6.97166">
        <ele>2130.9</ele>
        <time>2022-02-25T14:10:36Z</time>
      </trkpt>
      <trkpt lat="44.80099" lon="6.97163">
        <ele>2130.8</ele>
        <time>2022-02-25T14:10:37Z</time>
      </trkpt>
      <trkpt lat="44.80099" lon="6.97163">
        <ele>2130.8</ele>
        <time>2022-02-25T14:10:38Z</time>
      </trkpt>
      <trkpt lat="44.80099" lon="6.97163">
        <ele>2130.8</ele>
        <time>2022-02-25T14:10:39Z</time>
      </trkpt>
      <trkpt lat="44.801" lon="6.97161">
        <ele>2130.7</ele>
        <time>2022-02-25T14:10:40Z</time>
      </trkpt>
      <trkpt lat="44.80102" lon="6.97161">
        <ele>2130.3</ele>
        <time>2022-02-25T14:10:41Z</time>
      </trkpt>
      <trkpt lat="44.80102" lon="6.97161">
        <ele>2130.3</ele>
        <time>2022-02-25T14:10:42Z</time>
      </trkpt>
      <trkpt lat="44.80102" lon="6.97161">
        <ele>2130.3</ele>
        <time>2022-02-25T14:10:43Z</time>
      </trkpt>
      <trkpt lat="44.80104" lon="6.97159">
        <ele>2130</ele>
        <time>2022-02-25T14:10:44Z</time>
      </trkpt>
      <trkpt lat="44.80104" lon="6.97159">
        <ele>2130</ele>
        <time>2022-02-25T14:10:45Z</time>
      </trkpt>
      <trkpt lat="44.80104" lon="6.97159">
        <ele>2130</ele>
        <time>2022-02-25T14:10:46Z</time>
      </trkpt>
      <trkpt lat="44.80105" lon="6.97157">
        <ele>2129.9</ele>
        <time>2022-02-25T14:10:47Z</time>
      </trkpt>
      <trkpt lat="44.80105" lon="6.97157">
        <ele>2129.9</ele>
        <time>2022-02-25T14:10:48Z</time>
      </trkpt>
      <trkpt lat="44.80105" lon="6.97157">
        <ele>2129.9</ele>
        <time>2022-02-25T14:10:49Z</time>
      </trkpt>
      <trkpt lat="44.80105" lon="6.97157">
        <ele>2129.9</ele>
        <time>2022-02-25T14:10:50Z</time>
      </trkpt>
      <trkpt lat="44.80107" lon="6.97154">
        <ele>2129.7</ele>
        <time>2022-02-25T14:10:51Z</time>
      </trkpt>
      <trkpt lat="44.80107" lon="6.97154">
        <ele>2129.7</ele>
        <time>2022-02-25T14:10:52Z</time>
      </trkpt>
      <trkpt lat="44.80107" lon="6.97154">
        <ele>2129.7</ele>
        <time>2022-02-25T14:10:53Z</time>
      </trkpt>
      <trkpt lat="44.80107" lon="6.97154">
        <ele>2129.7</ele>
        <time>2022-02-25T14:10:54Z</time>
      </trkpt>
      <trkpt lat="44.80108" lon="6.9715">
        <ele>2129.8</ele>
        <time>2022-02-25T14:10:55Z</time>
      </trkpt>
      <trkpt lat="44.80108" lon="6.9715">
        <ele>2129.8</ele>
        <time>2022-02-25T14:10:56Z</time>
      </trkpt>
      <trkpt lat="44.80109" lon="6.97148">
        <ele>2129.7</ele>
        <time>2022-02-25T14:10:57Z</time>
      </trkpt>
      <trkpt lat="44.80109" lon="6.97148">
        <ele>2129.7</ele>
        <time>2022-02-25T14:10:58Z</time>
      </trkpt>
      <trkpt lat="44.80109" lon="6.97148">
        <ele>2129.7</ele>
        <time>2022-02-25T14:10:59Z</time>
      </trkpt>
      <trkpt lat="44.80109" lon="6.97148">
        <ele>2129.7</ele>
        <time>2022-02-25T14:11:00Z</time>
      </trkpt>
      <trkpt lat="44.8011" lon="6.97145">
        <ele>2129.8</ele>
        <time>2022-02-25T14:11:01Z</time>
      </trkpt>
      <trkpt lat="44.8011" lon="6.97145">
        <ele>2129.8</ele>
        <time>2022-02-25T14:11:02Z</time>
      </trkpt>
      <trkpt lat="44.8011" lon="6.97145">
        <ele>2129.8</ele>
        <time>2022-02-25T14:11:03Z</time>
      </trkpt>
      <trkpt lat="44.8011" lon="6.97145">
        <ele>2129.8</ele>
        <time>2022-02-25T14:11:04Z</time>
      </trkpt>
      <trkpt lat="44.80111" lon="6.97143">
        <ele>2129.7</ele>
        <time>2022-02-25T14:11:05Z</time>
      </trkpt>
      <trkpt lat="44.80111" lon="6.97143">
        <ele>2129.7</ele>
        <time>2022-02-25T14:11:06Z</time>
      </trkpt>
      <trkpt lat="44.80112" lon="6.9714">
        <ele>2129.7</ele>
        <time>2022-02-25T14:11:07Z</time>
      </trkpt>
      <trkpt lat="44.80112" lon="6.9714">
        <ele>2129.7</ele>
        <time>2022-02-25T14:11:08Z</time>
      </trkpt>
      <trkpt lat="44.80114" lon="6.97138">
        <ele>2129.4</ele>
        <time>2022-02-25T14:11:09Z</time>
      </trkpt>
      <trkpt lat="44.80114" lon="6.97138">
        <ele>2129.4</ele>
        <time>2022-02-25T14:11:10Z</time>
      </trkpt>
      <trkpt lat="44.80114" lon="6.97138">
        <ele>2129.4</ele>
        <time>2022-02-25T14:11:11Z</time>
      </trkpt>
      <trkpt lat="44.80115" lon="6.97135">
        <ele>2129.3</ele>
        <time>2022-02-25T14:11:12Z</time>
      </trkpt>
      <trkpt lat="44.80115" lon="6.97135">
        <ele>2129.3</ele>
        <time>2022-02-25T14:11:13Z</time>
      </trkpt>
      <trkpt lat="44.80115" lon="6.97132">
        <ele>2129.4</ele>
        <time>2022-02-25T14:11:14Z</time>
      </trkpt>
      <trkpt lat="44.80115" lon="6.97132">
        <ele>2129.4</ele>
        <time>2022-02-25T14:11:15Z</time>
      </trkpt>
      <trkpt lat="44.80116" lon="6.97129">
        <ele>2129.4</ele>
        <time>2022-02-25T14:11:16Z</time>
      </trkpt>
      <trkpt lat="44.80116" lon="6.97129">
        <ele>2129.4</ele>
        <time>2022-02-25T14:11:17Z</time>
      </trkpt>
      <trkpt lat="44.80117" lon="6.97126">
        <ele>2129.3</ele>
        <time>2022-02-25T14:11:18Z</time>
      </trkpt>
      <trkpt lat="44.80119" lon="6.97124">
        <ele>2129</ele>
        <time>2022-02-25T14:11:19Z</time>
      </trkpt>
      <trkpt lat="44.8012" lon="6.97121">
        <ele>2128.9</ele>
        <time>2022-02-25T14:11:20Z</time>
      </trkpt>
      <trkpt lat="44.80122" lon="6.97119">
        <ele>2128.6</ele>
        <time>2022-02-25T14:11:21Z</time>
      </trkpt>
      <trkpt lat="44.80122" lon="6.97119">
        <ele>2128.6</ele>
        <time>2022-02-25T14:11:22Z</time>
      </trkpt>
      <trkpt lat="44.80123" lon="6.97117">
        <ele>2128.6</ele>
        <time>2022-02-25T14:11:23Z</time>
      </trkpt>
      <trkpt lat="44.80123" lon="6.97117">
        <ele>2128.6</ele>
        <time>2022-02-25T14:11:24Z</time>
      </trkpt>
      <trkpt lat="44.80123" lon="6.97117">
        <ele>2128.6</ele>
        <time>2022-02-25T14:11:25Z</time>
      </trkpt>
      <trkpt lat="44.80125" lon="6.97115">
        <ele>2128.3</ele>
        <time>2022-02-25T14:11:26Z</time>
      </trkpt>
      <trkpt lat="44.80125" lon="6.97115">
        <ele>2128.3</ele>
        <time>2022-02-25T14:11:27Z</time>
      </trkpt>
      <trkpt lat="44.80125" lon="6.97115">
        <ele>2128.3</ele>
        <time>2022-02-25T14:11:28Z</time>
      </trkpt>
      <trkpt lat="44.80125" lon="6.97115">
        <ele>2128.3</ele>
        <time>2022-02-25T14:11:29Z</time>
      </trkpt>
      <trkpt lat="44.80127" lon="6.97112">
        <ele>2128.1</ele>
        <time>2022-02-25T14:11:30Z</time>
      </trkpt>
      <trkpt lat="44.80127" lon="6.97112">
        <ele>2128.1</ele>
        <time>2022-02-25T14:11:31Z</time>
      </trkpt>
      <trkpt lat="44.80128" lon="6.97111">
        <ele>2128</ele>
        <time>2022-02-25T14:11:32Z</time>
      </trkpt>
      <trkpt lat="44.80128" lon="6.97111">
        <ele>2128</ele>
        <time>2022-02-25T14:11:33Z</time>
      </trkpt>
      <trkpt lat="44.8013" lon="6.97108">
        <ele>2127.8</ele>
        <time>2022-02-25T14:11:34Z</time>
      </trkpt>
      <trkpt lat="44.8013" lon="6.97108">
        <ele>2127.8</ele>
        <time>2022-02-25T14:11:35Z</time>
      </trkpt>
      <trkpt lat="44.80131" lon="6.97106">
        <ele>2127.8</ele>
        <time>2022-02-25T14:11:36Z</time>
      </trkpt>
      <trkpt lat="44.80131" lon="6.97106">
        <ele>2127.8</ele>
        <time>2022-02-25T14:11:37Z</time>
      </trkpt>
      <trkpt lat="44.80131" lon="6.97106">
        <ele>2127.8</ele>
        <time>2022-02-25T14:11:38Z</time>
      </trkpt>
      <trkpt lat="44.80133" lon="6.97105">
        <ele>2127.5</ele>
        <time>2022-02-25T14:11:39Z</time>
      </trkpt>
      <trkpt lat="44.80133" lon="6.97105">
        <ele>2127.5</ele>
        <time>2022-02-25T14:11:40Z</time>
      </trkpt>
      <trkpt lat="44.80133" lon="6.97105">
        <ele>2127.5</ele>
        <time>2022-02-25T14:11:41Z</time>
      </trkpt>
      <trkpt lat="44.80133" lon="6.97105">
        <ele>2127.5</ele>
        <time>2022-02-25T14:11:42Z</time>
      </trkpt>
      <trkpt lat="44.80133" lon="6.97105">
        <ele>2127.5</ele>
        <time>2022-02-25T14:11:43Z</time>
      </trkpt>
      <trkpt lat="44.80134" lon="6.97103">
        <ele>2127.5</ele>
        <time>2022-02-25T14:11:44Z</time>
      </trkpt>
      <trkpt lat="44.80134" lon="6.97103">
        <ele>2127.5</ele>
        <time>2022-02-25T14:11:45Z</time>
      </trkpt>
      <trkpt lat="44.80134" lon="6.97103">
        <ele>2127.5</ele>
        <time>2022-02-25T14:11:46Z</time>
      </trkpt>
      <trkpt lat="44.80134" lon="6.97103">
        <ele>2127.5</ele>
        <time>2022-02-25T14:11:47Z</time>
      </trkpt>
      <trkpt lat="44.80134" lon="6.97103">
        <ele>2127.5</ele>
        <time>2022-02-25T14:11:48Z</time>
      </trkpt>
      <trkpt lat="44.80135" lon="6.97101">
        <ele>2127.4</ele>
        <time>2022-02-25T14:11:49Z</time>
      </trkpt>
      <trkpt lat="44.80135" lon="6.97101">
        <ele>2127.4</ele>
        <time>2022-02-25T14:11:50Z</time>
      </trkpt>
      <trkpt lat="44.80135" lon="6.97101">
        <ele>2127.4</ele>
        <time>2022-02-25T14:11:51Z</time>
      </trkpt>
      <trkpt lat="44.80135" lon="6.97101">
        <ele>2127.4</ele>
        <time>2022-02-25T14:11:52Z</time>
      </trkpt>
      <trkpt lat="44.80135" lon="6.97101">
        <ele>2127.4</ele>
        <time>2022-02-25T14:11:53Z</time>
      </trkpt>
      <trkpt lat="44.80135" lon="6.97101">
        <ele>2127.4</ele>
        <time>2022-02-25T14:11:54Z</time>
      </trkpt>
      <trkpt lat="44.80137" lon="6.97098">
        <ele>2127.3</ele>
        <time>2022-02-25T14:11:55Z</time>
      </trkpt>
      <trkpt lat="44.80137" lon="6.97098">
        <ele>2127.3</ele>
        <time>2022-02-25T14:11:56Z</time>
      </trkpt>
      <trkpt lat="44.80137" lon="6.97098">
        <ele>2127.3</ele>
        <time>2022-02-25T14:11:57Z</time>
      </trkpt>
      <trkpt lat="44.80137" lon="6.97098">
        <ele>2127.3</ele>
        <time>2022-02-25T14:11:58Z</time>
      </trkpt>
      <trkpt lat="44.80137" lon="6.97098">
        <ele>2127.3</ele>
        <time>2022-02-25T14:11:59Z</time>
      </trkpt>
      <trkpt lat="44.80137" lon="6.97098">
        <ele>2127.3</ele>
        <time>2022-02-25T14:12:00Z</time>
      </trkpt>
      <trkpt lat="44.80137" lon="6.97098">
        <ele>2127.3</ele>
        <time>2022-02-25T14:12:01Z</time>
      </trkpt>
      <trkpt lat="44.80137" lon="6.97098">
        <ele>2127.3</ele>
        <time>2022-02-25T14:12:02Z</time>
      </trkpt>
      <trkpt lat="44.80137" lon="6.97096">
        <ele>2127.4</ele>
        <time>2022-02-25T14:12:03Z</time>
      </trkpt>
      <trkpt lat="44.80137" lon="6.97096">
        <ele>2127.4</ele>
        <time>2022-02-25T14:12:04Z</time>
      </trkpt>
      <trkpt lat="44.80137" lon="6.97096">
        <ele>2127.4</ele>
        <time>2022-02-25T14:12:05Z</time>
      </trkpt>
      <trkpt lat="44.80137" lon="6.97096">
        <ele>2127.4</ele>
        <time>2022-02-25T14:12:06Z</time>
      </trkpt>
      <trkpt lat="44.80137" lon="6.97096">
        <ele>2127.4</ele>
        <time>2022-02-25T14:12:07Z</time>
      </trkpt>
      <trkpt lat="44.80137" lon="6.97096">
        <ele>2127.4</ele>
        <time>2022-02-25T14:12:08Z</time>
      </trkpt>
      <trkpt lat="44.80137" lon="6.97096">
        <ele>2127.4</ele>
        <time>2022-02-25T14:12:09Z</time>
      </trkpt>
      <trkpt lat="44.80137" lon="6.97096">
        <ele>2127.4</ele>
        <time>2022-02-25T14:12:10Z</time>
      </trkpt>
      <trkpt lat="44.80138" lon="6.97093">
        <ele>2127.5</ele>
        <time>2022-02-25T14:12:11Z</time>
      </trkpt>
      <trkpt lat="44.80138" lon="6.97093">
        <ele>2127.5</ele>
        <time>2022-02-25T14:12:12Z</time>
      </trkpt>
      <trkpt lat="44.80138" lon="6.97093">
        <ele>2127.5</ele>
        <time>2022-02-25T14:12:13Z</time>
      </trkpt>
      <trkpt lat="44.80138" lon="6.97093">
        <ele>2127.5</ele>
        <time>2022-02-25T14:12:14Z</time>
      </trkpt>
      <trkpt lat="44.80138" lon="6.97093">
        <ele>2127.5</ele>
        <time>2022-02-25T14:12:15Z</time>
      </trkpt>
      <trkpt lat="44.80138" lon="6.97093">
        <ele>2127.5</ele>
        <time>2022-02-25T14:12:16Z</time>
      </trkpt>
      <trkpt lat="44.80139" lon="6.97091">
        <ele>2127.4</ele>
        <time>2022-02-25T14:12:17Z</time>
      </trkpt>
      <trkpt lat="44.80139" lon="6.97091">
        <ele>2127.4</ele>
        <time>2022-02-25T14:12:18Z</time>
      </trkpt>
      <trkpt lat="44.80139" lon="6.97091">
        <ele>2127.4</ele>
        <time>2022-02-25T14:12:19Z</time>
      </trkpt>
      <trkpt lat="44.80139" lon="6.97091">
        <ele>2127.4</ele>
        <time>2022-02-25T14:12:20Z</time>
      </trkpt>
      <trkpt lat="44.80139" lon="6.97091">
        <ele>2127.4</ele>
        <time>2022-02-25T14:12:21Z</time>
      </trkpt>
      <trkpt lat="44.80139" lon="6.97087">
        <ele>2127.7</ele>
        <time>2022-02-25T14:12:22Z</time>
      </trkpt>
      <trkpt lat="44.80139" lon="6.97087">
        <ele>2127.7</ele>
        <time>2022-02-25T14:12:23Z</time>
      </trkpt>
      <trkpt lat="44.80139" lon="6.97087">
        <ele>2127.7</ele>
        <time>2022-02-25T14:12:24Z</time>
      </trkpt>
      <trkpt lat="44.80139" lon="6.97087">
        <ele>2127.7</ele>
        <time>2022-02-25T14:12:25Z</time>
      </trkpt>
      <trkpt lat="44.80139" lon="6.97087">
        <ele>2127.7</ele>
        <time>2022-02-25T14:12:26Z</time>
      </trkpt>
      <trkpt lat="44.8014" lon="6.97085">
        <ele>2127.6</ele>
        <time>2022-02-25T14:12:27Z</time>
      </trkpt>
      <trkpt lat="44.8014" lon="6.97085">
        <ele>2127.6</ele>
        <time>2022-02-25T14:12:28Z</time>
      </trkpt>
      <trkpt lat="44.8014" lon="6.97085">
        <ele>2127.6</ele>
        <time>2022-02-25T14:12:29Z</time>
      </trkpt>
      <trkpt lat="44.8014" lon="6.97085">
        <ele>2127.6</ele>
        <time>2022-02-25T14:12:30Z</time>
      </trkpt>
      <trkpt lat="44.8014" lon="6.97085">
        <ele>2127.6</ele>
        <time>2022-02-25T14:12:31Z</time>
      </trkpt>
      <trkpt lat="44.8014" lon="6.97085">
        <ele>2127.6</ele>
        <time>2022-02-25T14:12:32Z</time>
      </trkpt>
      <trkpt lat="44.8014" lon="6.97084">
        <ele>2127.7</ele>
        <time>2022-02-25T14:12:33Z</time>
      </trkpt>
      <trkpt lat="44.8014" lon="6.97084">
        <ele>2127.7</ele>
        <time>2022-02-25T14:12:34Z</time>
      </trkpt>
      <trkpt lat="44.8014" lon="6.97084">
        <ele>2127.7</ele>
        <time>2022-02-25T14:12:35Z</time>
      </trkpt>
      <trkpt lat="44.8014" lon="6.97084">
        <ele>2127.7</ele>
        <time>2022-02-25T14:12:36Z</time>
      </trkpt>
      <trkpt lat="44.8014" lon="6.97084">
        <ele>2127.7</ele>
        <time>2022-02-25T14:12:37Z</time>
      </trkpt>
      <trkpt lat="44.8014" lon="6.97084">
        <ele>2127.7</ele>
        <time>2022-02-25T14:12:38Z</time>
      </trkpt>
      <trkpt lat="44.8014" lon="6.97084">
        <ele>2127.7</ele>
        <time>2022-02-25T14:12:39Z</time>
      </trkpt>
      <trkpt lat="44.8014" lon="6.97084">
        <ele>2127.7</ele>
        <time>2022-02-25T14:12:40Z</time>
      </trkpt>
      <trkpt lat="44.8014" lon="6.97084">
        <ele>2127.7</ele>
        <time>2022-02-25T14:12:41Z</time>
      </trkpt>
      <trkpt lat="44.8014" lon="6.97084">
        <ele>2127.7</ele>
        <time>2022-02-25T14:12:42Z</time>
      </trkpt>
      <trkpt lat="44.8014" lon="6.97084">
        <ele>2127.7</ele>
        <time>2022-02-25T14:12:43Z</time>
      </trkpt>
      <trkpt lat="44.8014" lon="6.97084">
        <ele>2127.7</ele>
        <time>2022-02-25T14:12:44Z</time>
      </trkpt>
      <trkpt lat="44.8014" lon="6.97084">
        <ele>2127.7</ele>
        <time>2022-02-25T14:12:45Z</time>
      </trkpt>
      <trkpt lat="44.8014" lon="6.97084">
        <ele>2127.7</ele>
        <time>2022-02-25T14:12:46Z</time>
      </trkpt>
      <trkpt lat="44.8014" lon="6.97084">
        <ele>2127.7</ele>
        <time>2022-02-25T14:12:47Z</time>
      </trkpt>
      <trkpt lat="44.8014" lon="6.97084">
        <ele>2127.7</ele>
        <time>2022-02-25T14:12:48Z</time>
      </trkpt>
      <trkpt lat="44.8014" lon="6.97084">
        <ele>2127.7</ele>
        <time>2022-02-25T14:12:49Z</time>
      </trkpt>
      <trkpt lat="44.8014" lon="6.97084">
        <ele>2127.7</ele>
        <time>2022-02-25T14:12:50Z</time>
      </trkpt>
      <trkpt lat="44.8014" lon="6.97084">
        <ele>2127.7</ele>
        <time>2022-02-25T14:12:51Z</time>
      </trkpt>
      <trkpt lat="44.8014" lon="6.97083">
        <ele>2127.8</ele>
        <time>2022-02-25T14:12:52Z</time>
      </trkpt>
      <trkpt lat="44.8014" lon="6.97083">
        <ele>2127.8</ele>
        <time>2022-02-25T14:12:53Z</time>
      </trkpt>
      <trkpt lat="44.8014" lon="6.97083">
        <ele>2127.8</ele>
        <time>2022-02-25T14:12:54Z</time>
      </trkpt>
      <trkpt lat="44.8014" lon="6.97083">
        <ele>2127.8</ele>
        <time>2022-02-25T14:12:55Z</time>
      </trkpt>
      <trkpt lat="44.8014" lon="6.97083">
        <ele>2127.8</ele>
        <time>2022-02-25T14:12:56Z</time>
      </trkpt>
      <trkpt lat="44.8014" lon="6.97083">
        <ele>2127.8</ele>
        <time>2022-02-25T14:12:57Z</time>
      </trkpt>
      <trkpt lat="44.8014" lon="6.97083">
        <ele>2127.8</ele>
        <time>2022-02-25T14:12:58Z</time>
      </trkpt>
      <trkpt lat="44.8014" lon="6.97083">
        <ele>2127.8</ele>
        <time>2022-02-25T14:12:59Z</time>
      </trkpt>
      <trkpt lat="44.8014" lon="6.97083">
        <ele>2127.8</ele>
        <time>2022-02-25T14:13:00Z</time>
      </trkpt>
      <trkpt lat="44.8014" lon="6.97083">
        <ele>2127.8</ele>
        <time>2022-02-25T14:13:01Z</time>
      </trkpt>
      <trkpt lat="44.8014" lon="6.97083">
        <ele>2127.8</ele>
        <time>2022-02-25T14:13:02Z</time>
      </trkpt>
      <trkpt lat="44.8014" lon="6.97083">
        <ele>2127.8</ele>
        <time>2022-02-25T14:13:03Z</time>
      </trkpt>
      <trkpt lat="44.8014" lon="6.97083">
        <ele>2127.8</ele>
        <time>2022-02-25T14:13:04Z</time>
      </trkpt>
      <trkpt lat="44.80141" lon="6.97083">
        <ele>2127.6</ele>
        <time>2022-02-25T14:13:05Z</time>
      </trkpt>
      <trkpt lat="44.80141" lon="6.97083">
        <ele>2127.6</ele>
        <time>2022-02-25T14:13:06Z</time>
      </trkpt>
      <trkpt lat="44.80141" lon="6.97083">
        <ele>2127.6</ele>
        <time>2022-02-25T14:13:07Z</time>
      </trkpt>
      <trkpt lat="44.80141" lon="6.97083">
        <ele>2127.6</ele>
        <time>2022-02-25T14:13:08Z</time>
      </trkpt>
      <trkpt lat="44.80141" lon="6.97083">
        <ele>2127.6</ele>
        <time>2022-02-25T14:13:09Z</time>
      </trkpt>
      <trkpt lat="44.80141" lon="6.97083">
        <ele>2127.6</ele>
        <time>2022-02-25T14:13:10Z</time>
      </trkpt>
      <trkpt lat="44.80141" lon="6.97083">
        <ele>2127.6</ele>
        <time>2022-02-25T14:13:11Z</time>
      </trkpt>
      <trkpt lat="44.80141" lon="6.97082">
        <ele>2127.6</ele>
        <time>2022-02-25T14:13:12Z</time>
      </trkpt>
      <trkpt lat="44.80141" lon="6.97082">
        <ele>2127.6</ele>
        <time>2022-02-25T14:13:13Z</time>
      </trkpt>
      <trkpt lat="44.80141" lon="6.97082">
        <ele>2127.6</ele>
        <time>2022-02-25T14:13:14Z</time>
      </trkpt>
      <trkpt lat="44.80141" lon="6.97082">
        <ele>2127.6</ele>
        <time>2022-02-25T14:13:15Z</time>
      </trkpt>
      <trkpt lat="44.80141" lon="6.97082">
        <ele>2127.6</ele>
        <time>2022-02-25T14:13:16Z</time>
      </trkpt>
      <trkpt lat="44.80141" lon="6.97082">
        <ele>2127.6</ele>
        <time>2022-02-25T14:13:17Z</time>
      </trkpt>
      <trkpt lat="44.80141" lon="6.97082">
        <ele>2127.6</ele>
        <time>2022-02-25T14:13:18Z</time>
      </trkpt>
      <trkpt lat="44.80141" lon="6.97082">
        <ele>2127.6</ele>
        <time>2022-02-25T14:13:19Z</time>
      </trkpt>
      <trkpt lat="44.80141" lon="6.97082">
        <ele>2127.6</ele>
        <time>2022-02-25T14:13:20Z</time>
      </trkpt>
      <trkpt lat="44.80141" lon="6.97082">
        <ele>2127.6</ele>
        <time>2022-02-25T14:13:21Z</time>
      </trkpt>
      <trkpt lat="44.80141" lon="6.97082">
        <ele>2127.6</ele>
        <time>2022-02-25T14:13:22Z</time>
      </trkpt>
      <trkpt lat="44.80141" lon="6.97082">
        <ele>2127.6</ele>
        <time>2022-02-25T14:13:23Z</time>
      </trkpt>
      <trkpt lat="44.80141" lon="6.97082">
        <ele>2127.6</ele>
        <time>2022-02-25T14:13:24Z</time>
      </trkpt>
      <trkpt lat="44.80141" lon="6.97082">
        <ele>2127.6</ele>
        <time>2022-02-25T14:13:25Z</time>
      </trkpt>
      <trkpt lat="44.80141" lon="6.97082">
        <ele>2127.6</ele>
        <time>2022-02-25T14:13:26Z</time>
      </trkpt>
      <trkpt lat="44.80141" lon="6.97082">
        <ele>2127.6</ele>
        <time>2022-02-25T14:13:27Z</time>
      </trkpt>
      <trkpt lat="44.80141" lon="6.97082">
        <ele>2127.6</ele>
        <time>2022-02-25T14:13:28Z</time>
      </trkpt>
      <trkpt lat="44.80141" lon="6.97082">
        <ele>2127.6</ele>
        <time>2022-02-25T14:13:29Z</time>
      </trkpt>
      <trkpt lat="44.80141" lon="6.97082">
        <ele>2127.6</ele>
        <time>2022-02-25T14:13:30Z</time>
      </trkpt>
      <trkpt lat="44.80141" lon="6.97081">
        <ele>2127.6</ele>
        <time>2022-02-25T14:13:31Z</time>
      </trkpt>
      <trkpt lat="44.80141" lon="6.97081">
        <ele>2127.6</ele>
        <time>2022-02-25T14:13:32Z</time>
      </trkpt>
      <trkpt lat="44.80141" lon="6.97081">
        <ele>2127.6</ele>
        <time>2022-02-25T14:13:33Z</time>
      </trkpt>
      <trkpt lat="44.80141" lon="6.97081">
        <ele>2127.6</ele>
        <time>2022-02-25T14:13:34Z</time>
      </trkpt>
      <trkpt lat="44.80141" lon="6.97081">
        <ele>2127.6</ele>
        <time>2022-02-25T14:13:35Z</time>
      </trkpt>
      <trkpt lat="44.80141" lon="6.97081">
        <ele>2127.6</ele>
        <time>2022-02-25T14:13:36Z</time>
      </trkpt>
      <trkpt lat="44.80141" lon="6.97081">
        <ele>2127.6</ele>
        <time>2022-02-25T14:13:37Z</time>
      </trkpt>
      <trkpt lat="44.80141" lon="6.97081">
        <ele>2127.6</ele>
        <time>2022-02-25T14:13:38Z</time>
      </trkpt>
      <trkpt lat="44.80141" lon="6.97081">
        <ele>2127.6</ele>
        <time>2022-02-25T14:13:39Z</time>
      </trkpt>
      <trkpt lat="44.80141" lon="6.97081">
        <ele>2127.6</ele>
        <time>2022-02-25T14:13:40Z</time>
      </trkpt>
      <trkpt lat="44.80141" lon="6.97081">
        <ele>2127.6</ele>
        <time>2022-02-25T14:13:41Z</time>
      </trkpt>
      <trkpt lat="44.80141" lon="6.97081">
        <ele>2127.6</ele>
        <time>2022-02-25T14:13:42Z</time>
      </trkpt>
      <trkpt lat="44.80142" lon="6.97081">
        <ele>2127.4</ele>
        <time>2022-02-25T14:13:43Z</time>
      </trkpt>
      <trkpt lat="44.80142" lon="6.97081">
        <ele>2127.4</ele>
        <time>2022-02-25T14:13:44Z</time>
      </trkpt>
      <trkpt lat="44.80142" lon="6.97081">
        <ele>2127.4</ele>
        <time>2022-02-25T14:13:45Z</time>
      </trkpt>
      <trkpt lat="44.80142" lon="6.97081">
        <ele>2127.4</ele>
        <time>2022-02-25T14:13:46Z</time>
      </trkpt>
      <trkpt lat="44.80142" lon="6.97081">
        <ele>2127.4</ele>
        <time>2022-02-25T14:13:47Z</time>
      </trkpt>
      <trkpt lat="44.80142" lon="6.97081">
        <ele>2127.4</ele>
        <time>2022-02-25T14:13:48Z</time>
      </trkpt>
      <trkpt lat="44.80142" lon="6.97081">
        <ele>2127.4</ele>
        <time>2022-02-25T14:13:49Z</time>
      </trkpt>
      <trkpt lat="44.80142" lon="6.97081">
        <ele>2127.4</ele>
        <time>2022-02-25T14:13:50Z</time>
      </trkpt>
      <trkpt lat="44.80142" lon="6.9708">
        <ele>2127.4</ele>
        <time>2022-02-25T14:13:51Z</time>
      </trkpt>
      <trkpt lat="44.80142" lon="6.9708">
        <ele>2127.4</ele>
        <time>2022-02-25T14:13:52Z</time>
      </trkpt>
      <trkpt lat="44.80142" lon="6.9708">
        <ele>2127.4</ele>
        <time>2022-02-25T14:13:53Z</time>
      </trkpt>
      <trkpt lat="44.80142" lon="6.9708">
        <ele>2127.4</ele>
        <time>2022-02-25T14:13:54Z</time>
      </trkpt>
      <trkpt lat="44.80142" lon="6.9708">
        <ele>2127.4</ele>
        <time>2022-02-25T14:13:55Z</time>
      </trkpt>
      <trkpt lat="44.80142" lon="6.9708">
        <ele>2127.4</ele>
        <time>2022-02-25T14:13:56Z</time>
      </trkpt>
      <trkpt lat="44.80142" lon="6.9708">
        <ele>2127.4</ele>
        <time>2022-02-25T14:13:57Z</time>
      </trkpt>
      <trkpt lat="44.80142" lon="6.9708">
        <ele>2127.4</ele>
        <time>2022-02-25T14:13:58Z</time>
      </trkpt>
      <trkpt lat="44.80142" lon="6.9708">
        <ele>2127.4</ele>
        <time>2022-02-25T14:13:59Z</time>
      </trkpt>
      <trkpt lat="44.80142" lon="6.9708">
        <ele>2127.4</ele>
        <time>2022-02-25T14:14:00Z</time>
      </trkpt>
      <trkpt lat="44.80142" lon="6.9708">
        <ele>2127.4</ele>
        <time>2022-02-25T14:14:01Z</time>
      </trkpt>
      <trkpt lat="44.80142" lon="6.9708">
        <ele>2127.4</ele>
        <time>2022-02-25T14:14:02Z</time>
      </trkpt>
      <trkpt lat="44.80142" lon="6.9708">
        <ele>2127.4</ele>
        <time>2022-02-25T14:14:03Z</time>
      </trkpt>
      <trkpt lat="44.80142" lon="6.9708">
        <ele>2127.4</ele>
        <time>2022-02-25T14:14:04Z</time>
      </trkpt>
      <trkpt lat="44.80142" lon="6.9708">
        <ele>2127.4</ele>
        <time>2022-02-25T14:14:05Z</time>
      </trkpt>
      <trkpt lat="44.80142" lon="6.9708">
        <ele>2127.4</ele>
        <time>2022-02-25T14:14:06Z</time>
      </trkpt>
      <trkpt lat="44.80142" lon="6.9708">
        <ele>2127.4</ele>
        <time>2022-02-25T14:14:07Z</time>
      </trkpt>
      <trkpt lat="44.80142" lon="6.9708">
        <ele>2127.4</ele>
        <time>2022-02-25T14:14:08Z</time>
      </trkpt>
      <trkpt lat="44.80142" lon="6.9708">
        <ele>2127.4</ele>
        <time>2022-02-25T14:14:09Z</time>
      </trkpt>
      <trkpt lat="44.80142" lon="6.9708">
        <ele>2127.4</ele>
        <time>2022-02-25T14:14:10Z</time>
      </trkpt>
      <trkpt lat="44.80142" lon="6.97079">
        <ele>2127.5</ele>
        <time>2022-02-25T14:14:11Z</time>
      </trkpt>
      <trkpt lat="44.80142" lon="6.97079">
        <ele>2127.5</ele>
        <time>2022-02-25T14:14:12Z</time>
      </trkpt>
      <trkpt lat="44.80142" lon="6.97079">
        <ele>2127.5</ele>
        <time>2022-02-25T14:14:13Z</time>
      </trkpt>
      <trkpt lat="44.80142" lon="6.97079">
        <ele>2127.5</ele>
        <time>2022-02-25T14:14:14Z</time>
      </trkpt>
      <trkpt lat="44.80142" lon="6.97079">
        <ele>2127.5</ele>
        <time>2022-02-25T14:14:15Z</time>
      </trkpt>
      <trkpt lat="44.80142" lon="6.97079">
        <ele>2127.5</ele>
        <time>2022-02-25T14:14:16Z</time>
      </trkpt>
      <trkpt lat="44.80142" lon="6.97079">
        <ele>2127.5</ele>
        <time>2022-02-25T14:14:17Z</time>
      </trkpt>
      <trkpt lat="44.80142" lon="6.97079">
        <ele>2127.5</ele>
        <time>2022-02-25T14:14:18Z</time>
      </trkpt>
      <trkpt lat="44.80142" lon="6.97079">
        <ele>2127.5</ele>
        <time>2022-02-25T14:14:19Z</time>
      </trkpt>
      <trkpt lat="44.80143" lon="6.97079">
        <ele>2127.3</ele>
        <time>2022-02-25T14:14:20Z</time>
      </trkpt>
      <trkpt lat="44.80143" lon="6.97079">
        <ele>2127.3</ele>
        <time>2022-02-25T14:14:21Z</time>
      </trkpt>
      <trkpt lat="44.80143" lon="6.97079">
        <ele>2127.3</ele>
        <time>2022-02-25T14:14:22Z</time>
      </trkpt>
      <trkpt lat="44.80143" lon="6.97079">
        <ele>2127.3</ele>
        <time>2022-02-25T14:14:23Z</time>
      </trkpt>
      <trkpt lat="44.80143" lon="6.97079">
        <ele>2127.3</ele>
        <time>2022-02-25T14:14:24Z</time>
      </trkpt>
      <trkpt lat="44.80143" lon="6.97079">
        <ele>2127.3</ele>
        <time>2022-02-25T14:14:25Z</time>
      </trkpt>
      <trkpt lat="44.80143" lon="6.97079">
        <ele>2127.3</ele>
        <time>2022-02-25T14:14:26Z</time>
      </trkpt>
      <trkpt lat="44.80143" lon="6.97079">
        <ele>2127.3</ele>
        <time>2022-02-25T14:14:27Z</time>
      </trkpt>
      <trkpt lat="44.80143" lon="6.97079">
        <ele>2127.3</ele>
        <time>2022-02-25T14:14:28Z</time>
      </trkpt>
      <trkpt lat="44.80143" lon="6.97079">
        <ele>2127.3</ele>
        <time>2022-02-25T14:14:29Z</time>
      </trkpt>
      <trkpt lat="44.80143" lon="6.97078">
        <ele>2127.3</ele>
        <time>2022-02-25T14:14:30Z</time>
      </trkpt>
      <trkpt lat="44.80143" lon="6.97078">
        <ele>2127.3</ele>
        <time>2022-02-25T14:14:31Z</time>
      </trkpt>
      <trkpt lat="44.80143" lon="6.97078">
        <ele>2127.3</ele>
        <time>2022-02-25T14:14:32Z</time>
      </trkpt>
      <trkpt lat="44.80143" lon="6.97078">
        <ele>2127.3</ele>
        <time>2022-02-25T14:14:33Z</time>
      </trkpt>
      <trkpt lat="44.80143" lon="6.97078">
        <ele>2127.3</ele>
        <time>2022-02-25T14:14:34Z</time>
      </trkpt>
      <trkpt lat="44.80143" lon="6.97078">
        <ele>2127.3</ele>
        <time>2022-02-25T14:14:35Z</time>
      </trkpt>
      <trkpt lat="44.80143" lon="6.97078">
        <ele>2127.3</ele>
        <time>2022-02-25T14:14:36Z</time>
      </trkpt>
      <trkpt lat="44.80143" lon="6.97078">
        <ele>2127.3</ele>
        <time>2022-02-25T14:14:37Z</time>
      </trkpt>
      <trkpt lat="44.80143" lon="6.97078">
        <ele>2127.3</ele>
        <time>2022-02-25T14:14:38Z</time>
      </trkpt>
      <trkpt lat="44.80143" lon="6.97078">
        <ele>2127.3</ele>
        <time>2022-02-25T14:14:39Z</time>
      </trkpt>
      <trkpt lat="44.80143" lon="6.97078">
        <ele>2127.3</ele>
        <time>2022-02-25T14:14:40Z</time>
      </trkpt>
      <trkpt lat="44.80143" lon="6.97078">
        <ele>2127.3</ele>
        <time>2022-02-25T14:14:41Z</time>
      </trkpt>
      <trkpt lat="44.80143" lon="6.97078">
        <ele>2127.3</ele>
        <time>2022-02-25T14:14:42Z</time>
      </trkpt>
      <trkpt lat="44.80143" lon="6.97078">
        <ele>2127.3</ele>
        <time>2022-02-25T14:14:43Z</time>
      </trkpt>
      <trkpt lat="44.80143" lon="6.97078">
        <ele>2127.3</ele>
        <time>2022-02-25T14:14:44Z</time>
      </trkpt>
      <trkpt lat="44.80143" lon="6.97078">
        <ele>2127.3</ele>
        <time>2022-02-25T14:14:45Z</time>
      </trkpt>
      <trkpt lat="44.80143" lon="6.97078">
        <ele>2127.3</ele>
        <time>2022-02-25T14:14:46Z</time>
      </trkpt>
      <trkpt lat="44.80143" lon="6.97078">
        <ele>2127.3</ele>
        <time>2022-02-25T14:14:47Z</time>
      </trkpt>
      <trkpt lat="44.80143" lon="6.97078">
        <ele>2127.3</ele>
        <time>2022-02-25T14:14:48Z</time>
      </trkpt>
      <trkpt lat="44.80143" lon="6.97078">
        <ele>2127.3</ele>
        <time>2022-02-25T14:14:49Z</time>
      </trkpt>
      <trkpt lat="44.80143" lon="6.97077">
        <ele>2127.3</ele>
        <time>2022-02-25T14:14:50Z</time>
      </trkpt>
      <trkpt lat="44.80143" lon="6.97077">
        <ele>2127.3</ele>
        <time>2022-02-25T14:14:51Z</time>
      </trkpt>
      <trkpt lat="44.80143" lon="6.97077">
        <ele>2127.3</ele>
        <time>2022-02-25T14:14:52Z</time>
      </trkpt>
      <trkpt lat="44.80143" lon="6.97077">
        <ele>2127.3</ele>
        <time>2022-02-25T14:14:53Z</time>
      </trkpt>
      <trkpt lat="44.80143" lon="6.97077">
        <ele>2127.3</ele>
        <time>2022-02-25T14:14:54Z</time>
      </trkpt>
      <trkpt lat="44.80143" lon="6.97077">
        <ele>2127.3</ele>
        <time>2022-02-25T14:14:55Z</time>
      </trkpt>
      <trkpt lat="44.80143" lon="6.97077">
        <ele>2127.3</ele>
        <time>2022-02-25T14:14:56Z</time>
      </trkpt>
      <trkpt lat="44.80143" lon="6.97077">
        <ele>2127.3</ele>
        <time>2022-02-25T14:14:57Z</time>
      </trkpt>
      <trkpt lat="44.80144" lon="6.97077">
        <ele>2127.1</ele>
        <time>2022-02-25T14:14:58Z</time>
      </trkpt>
      <trkpt lat="44.80144" lon="6.97077">
        <ele>2127.1</ele>
        <time>2022-02-25T14:14:59Z</time>
      </trkpt>
      <trkpt lat="44.80144" lon="6.97077">
        <ele>2127.1</ele>
        <time>2022-02-25T14:15:00Z</time>
      </trkpt>
      <trkpt lat="44.80144" lon="6.97077">
        <ele>2127.1</ele>
        <time>2022-02-25T14:15:01Z</time>
      </trkpt>
      <trkpt lat="44.80144" lon="6.97077">
        <ele>2127.1</ele>
        <time>2022-02-25T14:15:02Z</time>
      </trkpt>
      <trkpt lat="44.80144" lon="6.97077">
        <ele>2127.1</ele>
        <time>2022-02-25T14:15:03Z</time>
      </trkpt>
      <trkpt lat="44.80144" lon="6.97077">
        <ele>2127.1</ele>
        <time>2022-02-25T14:15:04Z</time>
      </trkpt>
      <trkpt lat="44.80144" lon="6.97077">
        <ele>2127.1</ele>
        <time>2022-02-25T14:15:05Z</time>
      </trkpt>
      <trkpt lat="44.80144" lon="6.97077">
        <ele>2127.1</ele>
        <time>2022-02-25T14:15:06Z</time>
      </trkpt>
      <trkpt lat="44.80144" lon="6.97077">
        <ele>2127.1</ele>
        <time>2022-02-25T14:15:07Z</time>
      </trkpt>
      <trkpt lat="44.80144" lon="6.97077">
        <ele>2127.1</ele>
        <time>2022-02-25T14:15:08Z</time>
      </trkpt>
      <trkpt lat="44.80144" lon="6.97077">
        <ele>2127.1</ele>
        <time>2022-02-25T14:15:09Z</time>
      </trkpt>
      <trkpt lat="44.80144" lon="6.97076">
        <ele>2127.2</ele>
        <time>2022-02-25T14:15:10Z</time>
      </trkpt>
      <trkpt lat="44.80144" lon="6.97076">
        <ele>2127.2</ele>
        <time>2022-02-25T14:15:11Z</time>
      </trkpt>
      <trkpt lat="44.80144" lon="6.97076">
        <ele>2127.2</ele>
        <time>2022-02-25T14:15:12Z</time>
      </trkpt>
      <trkpt lat="44.80144" lon="6.97076">
        <ele>2127.2</ele>
        <time>2022-02-25T14:15:13Z</time>
      </trkpt>
      <trkpt lat="44.80144" lon="6.97076">
        <ele>2127.2</ele>
        <time>2022-02-25T14:15:14Z</time>
      </trkpt>
      <trkpt lat="44.80144" lon="6.97076">
        <ele>2127.2</ele>
        <time>2022-02-25T14:15:15Z</time>
      </trkpt>
      <trkpt lat="44.80144" lon="6.97076">
        <ele>2127.2</ele>
        <time>2022-02-25T14:15:16Z</time>
      </trkpt>
      <trkpt lat="44.80144" lon="6.97076">
        <ele>2127.2</ele>
        <time>2022-02-25T14:15:17Z</time>
      </trkpt>
      <trkpt lat="44.80144" lon="6.97076">
        <ele>2127.2</ele>
        <time>2022-02-25T14:15:18Z</time>
      </trkpt>
      <trkpt lat="44.80144" lon="6.97073">
        <ele>2127.3</ele>
        <time>2022-02-25T14:15:19Z</time>
      </trkpt>
      <trkpt lat="44.80144" lon="6.97073">
        <ele>2127.3</ele>
        <time>2022-02-25T14:15:20Z</time>
      </trkpt>
      <trkpt lat="44.80145" lon="6.97069">
        <ele>2127.2</ele>
        <time>2022-02-25T14:15:21Z</time>
      </trkpt>
      <trkpt lat="44.80145" lon="6.97069">
        <ele>2127.2</ele>
        <time>2022-02-25T14:15:22Z</time>
      </trkpt>
      <trkpt lat="44.80147" lon="6.97065">
        <ele>2126.9</ele>
        <time>2022-02-25T14:15:23Z</time>
      </trkpt>
      <trkpt lat="44.80147" lon="6.97065">
        <ele>2126.9</ele>
        <time>2022-02-25T14:15:24Z</time>
      </trkpt>
      <trkpt lat="44.80147" lon="6.97063">
        <ele>2127</ele>
        <time>2022-02-25T14:15:25Z</time>
      </trkpt>
      <trkpt lat="44.80147" lon="6.97063">
        <ele>2127</ele>
        <time>2022-02-25T14:15:26Z</time>
      </trkpt>
      <trkpt lat="44.80147" lon="6.97063">
        <ele>2127</ele>
        <time>2022-02-25T14:15:27Z</time>
      </trkpt>
      <trkpt lat="44.80147" lon="6.97063">
        <ele>2127</ele>
        <time>2022-02-25T14:15:28Z</time>
      </trkpt>
      <trkpt lat="44.80147" lon="6.97063">
        <ele>2127</ele>
        <time>2022-02-25T14:15:29Z</time>
      </trkpt>
      <trkpt lat="44.80148" lon="6.97061">
        <ele>2126.8</ele>
        <time>2022-02-25T14:15:30Z</time>
      </trkpt>
      <trkpt lat="44.80148" lon="6.97061">
        <ele>2126.8</ele>
        <time>2022-02-25T14:15:31Z</time>
      </trkpt>
      <trkpt lat="44.80148" lon="6.97061">
        <ele>2126.8</ele>
        <time>2022-02-25T14:15:32Z</time>
      </trkpt>
      <trkpt lat="44.80148" lon="6.97061">
        <ele>2126.8</ele>
        <time>2022-02-25T14:15:33Z</time>
      </trkpt>
      <trkpt lat="44.80149" lon="6.97058">
        <ele>2126.7</ele>
        <time>2022-02-25T14:15:34Z</time>
      </trkpt>
      <trkpt lat="44.80149" lon="6.97058">
        <ele>2126.7</ele>
        <time>2022-02-25T14:15:35Z</time>
      </trkpt>
      <trkpt lat="44.80149" lon="6.97058">
        <ele>2126.7</ele>
        <time>2022-02-25T14:15:36Z</time>
      </trkpt>
      <trkpt lat="44.80151" lon="6.97055">
        <ele>2126.4</ele>
        <time>2022-02-25T14:15:37Z</time>
      </trkpt>
      <trkpt lat="44.80151" lon="6.97055">
        <ele>2126.4</ele>
        <time>2022-02-25T14:15:38Z</time>
      </trkpt>
      <trkpt lat="44.80151" lon="6.97055">
        <ele>2126.4</ele>
        <time>2022-02-25T14:15:39Z</time>
      </trkpt>
      <trkpt lat="44.80152" lon="6.97053">
        <ele>2126.4</ele>
        <time>2022-02-25T14:15:40Z</time>
      </trkpt>
      <trkpt lat="44.80152" lon="6.97053">
        <ele>2126.4</ele>
        <time>2022-02-25T14:15:41Z</time>
      </trkpt>
      <trkpt lat="44.80152" lon="6.97053">
        <ele>2126.4</ele>
        <time>2022-02-25T14:15:42Z</time>
      </trkpt>
      <trkpt lat="44.80152" lon="6.97053">
        <ele>2126.4</ele>
        <time>2022-02-25T14:15:43Z</time>
      </trkpt>
      <trkpt lat="44.80153" lon="6.9705">
        <ele>2126.4</ele>
        <time>2022-02-25T14:15:44Z</time>
      </trkpt>
      <trkpt lat="44.80153" lon="6.9705">
        <ele>2126.4</ele>
        <time>2022-02-25T14:15:45Z</time>
      </trkpt>
      <trkpt lat="44.80153" lon="6.9705">
        <ele>2126.4</ele>
        <time>2022-02-25T14:15:46Z</time>
      </trkpt>
      <trkpt lat="44.80153" lon="6.9705">
        <ele>2126.4</ele>
        <time>2022-02-25T14:15:47Z</time>
      </trkpt>
      <trkpt lat="44.80154" lon="6.97048">
        <ele>2126.3</ele>
        <time>2022-02-25T14:15:48Z</time>
      </trkpt>
      <trkpt lat="44.80154" lon="6.97048">
        <ele>2126.3</ele>
        <time>2022-02-25T14:15:49Z</time>
      </trkpt>
      <trkpt lat="44.80154" lon="6.97048">
        <ele>2126.3</ele>
        <time>2022-02-25T14:15:50Z</time>
      </trkpt>
      <trkpt lat="44.80154" lon="6.97048">
        <ele>2126.3</ele>
        <time>2022-02-25T14:15:51Z</time>
      </trkpt>
      <trkpt lat="44.80154" lon="6.97048">
        <ele>2126.3</ele>
        <time>2022-02-25T14:15:52Z</time>
      </trkpt>
      <trkpt lat="44.80154" lon="6.97048">
        <ele>2126.3</ele>
        <time>2022-02-25T14:15:53Z</time>
      </trkpt>
      <trkpt lat="44.80154" lon="6.97045">
        <ele>2126.5</ele>
        <time>2022-02-25T14:15:54Z</time>
      </trkpt>
      <trkpt lat="44.80154" lon="6.97045">
        <ele>2126.5</ele>
        <time>2022-02-25T14:15:55Z</time>
      </trkpt>
      <trkpt lat="44.80154" lon="6.97045">
        <ele>2126.5</ele>
        <time>2022-02-25T14:15:56Z</time>
      </trkpt>
      <trkpt lat="44.80154" lon="6.97042">
        <ele>2126.7</ele>
        <time>2022-02-25T14:15:57Z</time>
      </trkpt>
      <trkpt lat="44.80154" lon="6.97042">
        <ele>2126.7</ele>
        <time>2022-02-25T14:15:58Z</time>
      </trkpt>
      <trkpt lat="44.80154" lon="6.97042">
        <ele>2126.7</ele>
        <time>2022-02-25T14:15:59Z</time>
      </trkpt>
      <trkpt lat="44.80154" lon="6.97042">
        <ele>2126.7</ele>
        <time>2022-02-25T14:16:00Z</time>
      </trkpt>
      <trkpt lat="44.80154" lon="6.97039">
        <ele>2126.9</ele>
        <time>2022-02-25T14:16:01Z</time>
      </trkpt>
      <trkpt lat="44.80154" lon="6.97039">
        <ele>2126.9</ele>
        <time>2022-02-25T14:16:02Z</time>
      </trkpt>
      <trkpt lat="44.80154" lon="6.97039">
        <ele>2126.9</ele>
        <time>2022-02-25T14:16:03Z</time>
      </trkpt>
      <trkpt lat="44.80154" lon="6.97039">
        <ele>2126.9</ele>
        <time>2022-02-25T14:16:04Z</time>
      </trkpt>
      <trkpt lat="44.80154" lon="6.97039">
        <ele>2126.9</ele>
        <time>2022-02-25T14:16:05Z</time>
      </trkpt>
      <trkpt lat="44.80154" lon="6.97039">
        <ele>2126.9</ele>
        <time>2022-02-25T14:16:06Z</time>
      </trkpt>
      <trkpt lat="44.80154" lon="6.97039">
        <ele>2126.9</ele>
        <time>2022-02-25T14:16:07Z</time>
      </trkpt>
      <trkpt lat="44.80154" lon="6.97039">
        <ele>2126.9</ele>
        <time>2022-02-25T14:16:08Z</time>
      </trkpt>
      <trkpt lat="44.80154" lon="6.97039">
        <ele>2126.9</ele>
        <time>2022-02-25T14:16:09Z</time>
      </trkpt>
      <trkpt lat="44.80154" lon="6.97039">
        <ele>2126.9</ele>
        <time>2022-02-25T14:16:10Z</time>
      </trkpt>
      <trkpt lat="44.80154" lon="6.97039">
        <ele>2126.9</ele>
        <time>2022-02-25T14:16:11Z</time>
      </trkpt>
      <trkpt lat="44.80154" lon="6.97039">
        <ele>2126.9</ele>
        <time>2022-02-25T14:16:12Z</time>
      </trkpt>
      <trkpt lat="44.80154" lon="6.97039">
        <ele>2126.9</ele>
        <time>2022-02-25T14:16:13Z</time>
      </trkpt>
      <trkpt lat="44.80154" lon="6.97037">
        <ele>2127.1</ele>
        <time>2022-02-25T14:16:14Z</time>
      </trkpt>
      <trkpt lat="44.80154" lon="6.97037">
        <ele>2127.1</ele>
        <time>2022-02-25T14:16:15Z</time>
      </trkpt>
      <trkpt lat="44.80155" lon="6.97034">
        <ele>2127.1</ele>
        <time>2022-02-25T14:16:16Z</time>
      </trkpt>
      <trkpt lat="44.80155" lon="6.97034">
        <ele>2127.1</ele>
        <time>2022-02-25T14:16:17Z</time>
      </trkpt>
      <trkpt lat="44.80157" lon="6.9703">
        <ele>2126.9</ele>
        <time>2022-02-25T14:16:18Z</time>
      </trkpt>
      <trkpt lat="44.80157" lon="6.9703">
        <ele>2126.9</ele>
        <time>2022-02-25T14:16:19Z</time>
      </trkpt>
      <trkpt lat="44.80159" lon="6.97028">
        <ele>2126.6</ele>
        <time>2022-02-25T14:16:20Z</time>
      </trkpt>
      <trkpt lat="44.80159" lon="6.97028">
        <ele>2126.6</ele>
        <time>2022-02-25T14:16:21Z</time>
      </trkpt>
      <trkpt lat="44.80159" lon="6.97028">
        <ele>2126.6</ele>
        <time>2022-02-25T14:16:22Z</time>
      </trkpt>
      <trkpt lat="44.80159" lon="6.97028">
        <ele>2126.6</ele>
        <time>2022-02-25T14:16:23Z</time>
      </trkpt>
      <trkpt lat="44.80159" lon="6.97027">
        <ele>2126.7</ele>
        <time>2022-02-25T14:16:24Z</time>
      </trkpt>
      <trkpt lat="44.80159" lon="6.97027">
        <ele>2126.7</ele>
        <time>2022-02-25T14:16:25Z</time>
      </trkpt>
      <trkpt lat="44.80159" lon="6.97027">
        <ele>2126.7</ele>
        <time>2022-02-25T14:16:26Z</time>
      </trkpt>
      <trkpt lat="44.80159" lon="6.97027">
        <ele>2126.7</ele>
        <time>2022-02-25T14:16:27Z</time>
      </trkpt>
      <trkpt lat="44.80159" lon="6.97027">
        <ele>2126.7</ele>
        <time>2022-02-25T14:16:28Z</time>
      </trkpt>
      <trkpt lat="44.80159" lon="6.97027">
        <ele>2126.7</ele>
        <time>2022-02-25T14:16:29Z</time>
      </trkpt>
      <trkpt lat="44.80159" lon="6.97027">
        <ele>2126.7</ele>
        <time>2022-02-25T14:16:30Z</time>
      </trkpt>
      <trkpt lat="44.80159" lon="6.97027">
        <ele>2126.7</ele>
        <time>2022-02-25T14:16:31Z</time>
      </trkpt>
      <trkpt lat="44.80159" lon="6.97027">
        <ele>2126.7</ele>
        <time>2022-02-25T14:16:32Z</time>
      </trkpt>
      <trkpt lat="44.80159" lon="6.97027">
        <ele>2126.7</ele>
        <time>2022-02-25T14:16:33Z</time>
      </trkpt>
      <trkpt lat="44.80159" lon="6.97027">
        <ele>2126.7</ele>
        <time>2022-02-25T14:16:34Z</time>
      </trkpt>
      <trkpt lat="44.8016" lon="6.97027">
        <ele>2126.5</ele>
        <time>2022-02-25T14:16:35Z</time>
      </trkpt>
      <trkpt lat="44.8016" lon="6.97026">
        <ele>2126.5</ele>
        <time>2022-02-25T14:16:36Z</time>
      </trkpt>
      <trkpt lat="44.8016" lon="6.97026">
        <ele>2126.5</ele>
        <time>2022-02-25T14:16:37Z</time>
      </trkpt>
      <trkpt lat="44.8016" lon="6.97026">
        <ele>2126.5</ele>
        <time>2022-02-25T14:16:38Z</time>
      </trkpt>
      <trkpt lat="44.8016" lon="6.97026">
        <ele>2126.5</ele>
        <time>2022-02-25T14:16:39Z</time>
      </trkpt>
      <trkpt lat="44.8016" lon="6.97026">
        <ele>2126.5</ele>
        <time>2022-02-25T14:16:40Z</time>
      </trkpt>
      <trkpt lat="44.8016" lon="6.97026">
        <ele>2126.5</ele>
        <time>2022-02-25T14:16:41Z</time>
      </trkpt>
      <trkpt lat="44.8016" lon="6.97026">
        <ele>2126.5</ele>
        <time>2022-02-25T14:16:42Z</time>
      </trkpt>
      <trkpt lat="44.8016" lon="6.97026">
        <ele>2126.5</ele>
        <time>2022-02-25T14:16:43Z</time>
      </trkpt>
      <trkpt lat="44.8016" lon="6.97026">
        <ele>2126.5</ele>
        <time>2022-02-25T14:16:44Z</time>
      </trkpt>
      <trkpt lat="44.8016" lon="6.97026">
        <ele>2126.5</ele>
        <time>2022-02-25T14:16:45Z</time>
      </trkpt>
      <trkpt lat="44.8016" lon="6.97026">
        <ele>2126.5</ele>
        <time>2022-02-25T14:16:46Z</time>
      </trkpt>
      <trkpt lat="44.8016" lon="6.97025">
        <ele>2126.6</ele>
        <time>2022-02-25T14:16:47Z</time>
      </trkpt>
      <trkpt lat="44.8016" lon="6.97025">
        <ele>2126.6</ele>
        <time>2022-02-25T14:16:48Z</time>
      </trkpt>
      <trkpt lat="44.8016" lon="6.97025">
        <ele>2126.6</ele>
        <time>2022-02-25T14:16:49Z</time>
      </trkpt>
      <trkpt lat="44.8016" lon="6.97025">
        <ele>2126.6</ele>
        <time>2022-02-25T14:16:50Z</time>
      </trkpt>
      <trkpt lat="44.8016" lon="6.97025">
        <ele>2126.6</ele>
        <time>2022-02-25T14:16:51Z</time>
      </trkpt>
      <trkpt lat="44.8016" lon="6.97025">
        <ele>2126.6</ele>
        <time>2022-02-25T14:16:52Z</time>
      </trkpt>
      <trkpt lat="44.8016" lon="6.97025">
        <ele>2126.6</ele>
        <time>2022-02-25T14:16:53Z</time>
      </trkpt>
      <trkpt lat="44.8016" lon="6.97025">
        <ele>2126.6</ele>
        <time>2022-02-25T14:16:54Z</time>
      </trkpt>
      <trkpt lat="44.8016" lon="6.97025">
        <ele>2126.6</ele>
        <time>2022-02-25T14:16:55Z</time>
      </trkpt>
      <trkpt lat="44.8016" lon="6.97025">
        <ele>2126.6</ele>
        <time>2022-02-25T14:16:56Z</time>
      </trkpt>
      <trkpt lat="44.8016" lon="6.97025">
        <ele>2126.6</ele>
        <time>2022-02-25T14:16:57Z</time>
      </trkpt>
      <trkpt lat="44.8016" lon="6.97025">
        <ele>2126.6</ele>
        <time>2022-02-25T14:16:58Z</time>
      </trkpt>
      <trkpt lat="44.8016" lon="6.97024">
        <ele>2126.6</ele>
        <time>2022-02-25T14:16:59Z</time>
      </trkpt>
      <trkpt lat="44.8016" lon="6.97024">
        <ele>2126.6</ele>
        <time>2022-02-25T14:17:00Z</time>
      </trkpt>
      <trkpt lat="44.8016" lon="6.97024">
        <ele>2126.6</ele>
        <time>2022-02-25T14:17:01Z</time>
      </trkpt>
      <trkpt lat="44.8016" lon="6.97024">
        <ele>2126.6</ele>
        <time>2022-02-25T14:17:02Z</time>
      </trkpt>
      <trkpt lat="44.8016" lon="6.97024">
        <ele>2126.6</ele>
        <time>2022-02-25T14:17:03Z</time>
      </trkpt>
      <trkpt lat="44.80161" lon="6.97024">
        <ele>2126.4</ele>
        <time>2022-02-25T14:17:04Z</time>
      </trkpt>
      <trkpt lat="44.80161" lon="6.97024">
        <ele>2126.4</ele>
        <time>2022-02-25T14:17:05Z</time>
      </trkpt>
      <trkpt lat="44.80161" lon="6.97024">
        <ele>2126.4</ele>
        <time>2022-02-25T14:17:06Z</time>
      </trkpt>
      <trkpt lat="44.80161" lon="6.97024">
        <ele>2126.4</ele>
        <time>2022-02-25T14:17:07Z</time>
      </trkpt>
      <trkpt lat="44.80161" lon="6.97024">
        <ele>2126.4</ele>
        <time>2022-02-25T14:17:08Z</time>
      </trkpt>
      <trkpt lat="44.80161" lon="6.97024">
        <ele>2126.4</ele>
        <time>2022-02-25T14:17:09Z</time>
      </trkpt>
      <trkpt lat="44.80161" lon="6.97023">
        <ele>2126.5</ele>
        <time>2022-02-25T14:17:10Z</time>
      </trkpt>
      <trkpt lat="44.80161" lon="6.97023">
        <ele>2126.5</ele>
        <time>2022-02-25T14:17:11Z</time>
      </trkpt>
      <trkpt lat="44.80161" lon="6.97023">
        <ele>2126.5</ele>
        <time>2022-02-25T14:17:12Z</time>
      </trkpt>
      <trkpt lat="44.80161" lon="6.97023">
        <ele>2126.5</ele>
        <time>2022-02-25T14:17:13Z</time>
      </trkpt>
      <trkpt lat="44.80161" lon="6.97023">
        <ele>2126.5</ele>
        <time>2022-02-25T14:17:14Z</time>
      </trkpt>
      <trkpt lat="44.80161" lon="6.97023">
        <ele>2126.5</ele>
        <time>2022-02-25T14:17:15Z</time>
      </trkpt>
      <trkpt lat="44.80161" lon="6.97023">
        <ele>2126.5</ele>
        <time>2022-02-25T14:17:16Z</time>
      </trkpt>
      <trkpt lat="44.80161" lon="6.97023">
        <ele>2126.5</ele>
        <time>2022-02-25T14:17:17Z</time>
      </trkpt>
      <trkpt lat="44.80161" lon="6.97023">
        <ele>2126.5</ele>
        <time>2022-02-25T14:17:18Z</time>
      </trkpt>
      <trkpt lat="44.80161" lon="6.97023">
        <ele>2126.5</ele>
        <time>2022-02-25T14:17:19Z</time>
      </trkpt>
      <trkpt lat="44.80161" lon="6.97023">
        <ele>2126.5</ele>
        <time>2022-02-25T14:17:20Z</time>
      </trkpt>
      <trkpt lat="44.80161" lon="6.97023">
        <ele>2126.5</ele>
        <time>2022-02-25T14:17:21Z</time>
      </trkpt>
      <trkpt lat="44.80161" lon="6.97022">
        <ele>2126.5</ele>
        <time>2022-02-25T14:17:22Z</time>
      </trkpt>
      <trkpt lat="44.80161" lon="6.97022">
        <ele>2126.5</ele>
        <time>2022-02-25T14:17:23Z</time>
      </trkpt>
      <trkpt lat="44.80161" lon="6.97022">
        <ele>2126.5</ele>
        <time>2022-02-25T14:17:24Z</time>
      </trkpt>
      <trkpt lat="44.80161" lon="6.97022">
        <ele>2126.5</ele>
        <time>2022-02-25T14:17:25Z</time>
      </trkpt>
      <trkpt lat="44.80161" lon="6.97022">
        <ele>2126.5</ele>
        <time>2022-02-25T14:17:26Z</time>
      </trkpt>
      <trkpt lat="44.80161" lon="6.97022">
        <ele>2126.5</ele>
        <time>2022-02-25T14:17:27Z</time>
      </trkpt>
      <trkpt lat="44.80161" lon="6.97022">
        <ele>2126.5</ele>
        <time>2022-02-25T14:17:28Z</time>
      </trkpt>
      <trkpt lat="44.80161" lon="6.97022">
        <ele>2126.5</ele>
        <time>2022-02-25T14:17:29Z</time>
      </trkpt>
      <trkpt lat="44.80161" lon="6.97022">
        <ele>2126.5</ele>
        <time>2022-02-25T14:17:30Z</time>
      </trkpt>
      <trkpt lat="44.80161" lon="6.97022">
        <ele>2126.5</ele>
        <time>2022-02-25T14:17:31Z</time>
      </trkpt>
      <trkpt lat="44.80161" lon="6.97022">
        <ele>2126.5</ele>
        <time>2022-02-25T14:17:32Z</time>
      </trkpt>
      <trkpt lat="44.80162" lon="6.97021">
        <ele>2126.3</ele>
        <time>2022-02-25T14:17:33Z</time>
      </trkpt>
      <trkpt lat="44.80162" lon="6.97021">
        <ele>2126.3</ele>
        <time>2022-02-25T14:17:34Z</time>
      </trkpt>
      <trkpt lat="44.80162" lon="6.97021">
        <ele>2126.3</ele>
        <time>2022-02-25T14:17:35Z</time>
      </trkpt>
      <trkpt lat="44.80162" lon="6.97021">
        <ele>2126.3</ele>
        <time>2022-02-25T14:17:36Z</time>
      </trkpt>
      <trkpt lat="44.80162" lon="6.97021">
        <ele>2126.3</ele>
        <time>2022-02-25T14:17:37Z</time>
      </trkpt>
      <trkpt lat="44.80162" lon="6.97021">
        <ele>2126.3</ele>
        <time>2022-02-25T14:17:38Z</time>
      </trkpt>
      <trkpt lat="44.80162" lon="6.97021">
        <ele>2126.3</ele>
        <time>2022-02-25T14:17:39Z</time>
      </trkpt>
      <trkpt lat="44.80162" lon="6.97021">
        <ele>2126.3</ele>
        <time>2022-02-25T14:17:40Z</time>
      </trkpt>
      <trkpt lat="44.80162" lon="6.97021">
        <ele>2126.3</ele>
        <time>2022-02-25T14:17:41Z</time>
      </trkpt>
      <trkpt lat="44.80162" lon="6.97021">
        <ele>2126.3</ele>
        <time>2022-02-25T14:17:42Z</time>
      </trkpt>
      <trkpt lat="44.80162" lon="6.97021">
        <ele>2126.3</ele>
        <time>2022-02-25T14:17:43Z</time>
      </trkpt>
      <trkpt lat="44.80162" lon="6.97021">
        <ele>2126.3</ele>
        <time>2022-02-25T14:17:44Z</time>
      </trkpt>
      <trkpt lat="44.80162" lon="6.9702">
        <ele>2126.4</ele>
        <time>2022-02-25T14:17:45Z</time>
      </trkpt>
      <trkpt lat="44.80162" lon="6.9702">
        <ele>2126.4</ele>
        <time>2022-02-25T14:17:46Z</time>
      </trkpt>
      <trkpt lat="44.80162" lon="6.9702">
        <ele>2126.4</ele>
        <time>2022-02-25T14:17:47Z</time>
      </trkpt>
      <trkpt lat="44.80162" lon="6.9702">
        <ele>2126.4</ele>
        <time>2022-02-25T14:17:48Z</time>
      </trkpt>
      <trkpt lat="44.80162" lon="6.9702">
        <ele>2126.4</ele>
        <time>2022-02-25T14:17:49Z</time>
      </trkpt>
      <trkpt lat="44.80162" lon="6.9702">
        <ele>2126.4</ele>
        <time>2022-02-25T14:17:50Z</time>
      </trkpt>
      <trkpt lat="44.80162" lon="6.9702">
        <ele>2126.4</ele>
        <time>2022-02-25T14:17:51Z</time>
      </trkpt>
      <trkpt lat="44.80162" lon="6.9702">
        <ele>2126.4</ele>
        <time>2022-02-25T14:17:52Z</time>
      </trkpt>
      <trkpt lat="44.80162" lon="6.9702">
        <ele>2126.4</ele>
        <time>2022-02-25T14:17:53Z</time>
      </trkpt>
      <trkpt lat="44.80162" lon="6.9702">
        <ele>2126.4</ele>
        <time>2022-02-25T14:17:54Z</time>
      </trkpt>
      <trkpt lat="44.80162" lon="6.9702">
        <ele>2126.4</ele>
        <time>2022-02-25T14:17:55Z</time>
      </trkpt>
      <trkpt lat="44.80162" lon="6.97019">
        <ele>2126.4</ele>
        <time>2022-02-25T14:17:56Z</time>
      </trkpt>
      <trkpt lat="44.80162" lon="6.97019">
        <ele>2126.4</ele>
        <time>2022-02-25T14:17:57Z</time>
      </trkpt>
      <trkpt lat="44.80162" lon="6.97019">
        <ele>2126.4</ele>
        <time>2022-02-25T14:17:58Z</time>
      </trkpt>
      <trkpt lat="44.80162" lon="6.97019">
        <ele>2126.4</ele>
        <time>2022-02-25T14:17:59Z</time>
      </trkpt>
      <trkpt lat="44.80162" lon="6.97019">
        <ele>2126.4</ele>
        <time>2022-02-25T14:18:00Z</time>
      </trkpt>
      <trkpt lat="44.80162" lon="6.97019">
        <ele>2126.4</ele>
        <time>2022-02-25T14:18:01Z</time>
      </trkpt>
      <trkpt lat="44.80163" lon="6.97019">
        <ele>2126.2</ele>
        <time>2022-02-25T14:18:02Z</time>
      </trkpt>
      <trkpt lat="44.80163" lon="6.97019">
        <ele>2126.2</ele>
        <time>2022-02-25T14:18:03Z</time>
      </trkpt>
      <trkpt lat="44.80163" lon="6.97019">
        <ele>2126.2</ele>
        <time>2022-02-25T14:18:04Z</time>
      </trkpt>
      <trkpt lat="44.80163" lon="6.97019">
        <ele>2126.2</ele>
        <time>2022-02-25T14:18:05Z</time>
      </trkpt>
      <trkpt lat="44.80163" lon="6.97019">
        <ele>2126.2</ele>
        <time>2022-02-25T14:18:06Z</time>
      </trkpt>
      <trkpt lat="44.80163" lon="6.97019">
        <ele>2126.2</ele>
        <time>2022-02-25T14:18:07Z</time>
      </trkpt>
      <trkpt lat="44.80163" lon="6.97018">
        <ele>2126.2</ele>
        <time>2022-02-25T14:18:08Z</time>
      </trkpt>
      <trkpt lat="44.80163" lon="6.97018">
        <ele>2126.2</ele>
        <time>2022-02-25T14:18:09Z</time>
      </trkpt>
      <trkpt lat="44.80163" lon="6.97018">
        <ele>2126.2</ele>
        <time>2022-02-25T14:18:10Z</time>
      </trkpt>
      <trkpt lat="44.80163" lon="6.97018">
        <ele>2126.2</ele>
        <time>2022-02-25T14:18:11Z</time>
      </trkpt>
      <trkpt lat="44.80163" lon="6.97018">
        <ele>2126.2</ele>
        <time>2022-02-25T14:18:12Z</time>
      </trkpt>
      <trkpt lat="44.80163" lon="6.97018">
        <ele>2126.2</ele>
        <time>2022-02-25T14:18:13Z</time>
      </trkpt>
      <trkpt lat="44.80163" lon="6.97018">
        <ele>2126.2</ele>
        <time>2022-02-25T14:18:14Z</time>
      </trkpt>
      <trkpt lat="44.80163" lon="6.97018">
        <ele>2126.2</ele>
        <time>2022-02-25T14:18:15Z</time>
      </trkpt>
      <trkpt lat="44.80163" lon="6.97018">
        <ele>2126.2</ele>
        <time>2022-02-25T14:18:16Z</time>
      </trkpt>
      <trkpt lat="44.80163" lon="6.97018">
        <ele>2126.2</ele>
        <time>2022-02-25T14:18:17Z</time>
      </trkpt>
      <trkpt lat="44.80163" lon="6.97018">
        <ele>2126.2</ele>
        <time>2022-02-25T14:18:18Z</time>
      </trkpt>
      <trkpt lat="44.80163" lon="6.97017">
        <ele>2126.3</ele>
        <time>2022-02-25T14:18:19Z</time>
      </trkpt>
      <trkpt lat="44.80163" lon="6.97017">
        <ele>2126.3</ele>
        <time>2022-02-25T14:18:20Z</time>
      </trkpt>
      <trkpt lat="44.80163" lon="6.97017">
        <ele>2126.3</ele>
        <time>2022-02-25T14:18:21Z</time>
      </trkpt>
      <trkpt lat="44.80163" lon="6.97017">
        <ele>2126.3</ele>
        <time>2022-02-25T14:18:22Z</time>
      </trkpt>
      <trkpt lat="44.80163" lon="6.97017">
        <ele>2126.3</ele>
        <time>2022-02-25T14:18:23Z</time>
      </trkpt>
      <trkpt lat="44.80163" lon="6.97017">
        <ele>2126.3</ele>
        <time>2022-02-25T14:18:24Z</time>
      </trkpt>
      <trkpt lat="44.80163" lon="6.97017">
        <ele>2126.3</ele>
        <time>2022-02-25T14:18:25Z</time>
      </trkpt>
      <trkpt lat="44.80163" lon="6.97017">
        <ele>2126.3</ele>
        <time>2022-02-25T14:18:26Z</time>
      </trkpt>
      <trkpt lat="44.80163" lon="6.97017">
        <ele>2126.3</ele>
        <time>2022-02-25T14:18:27Z</time>
      </trkpt>
      <trkpt lat="44.80163" lon="6.97017">
        <ele>2126.3</ele>
        <time>2022-02-25T14:18:28Z</time>
      </trkpt>
      <trkpt lat="44.80163" lon="6.97017">
        <ele>2126.3</ele>
        <time>2022-02-25T14:18:29Z</time>
      </trkpt>
      <trkpt lat="44.80164" lon="6.97017">
        <ele>2126</ele>
        <time>2022-02-25T14:18:30Z</time>
      </trkpt>
      <trkpt lat="44.80164" lon="6.97016">
        <ele>2126.1</ele>
        <time>2022-02-25T14:18:31Z</time>
      </trkpt>
      <trkpt lat="44.80164" lon="6.97016">
        <ele>2126.1</ele>
        <time>2022-02-25T14:18:32Z</time>
      </trkpt>
      <trkpt lat="44.80164" lon="6.97013">
        <ele>2126.2</ele>
        <time>2022-02-25T14:18:33Z</time>
      </trkpt>
      <trkpt lat="44.80164" lon="6.97013">
        <ele>2126.2</ele>
        <time>2022-02-25T14:18:34Z</time>
      </trkpt>
      <trkpt lat="44.80165" lon="6.97009">
        <ele>2126.1</ele>
        <time>2022-02-25T14:18:35Z</time>
      </trkpt>
      <trkpt lat="44.80165" lon="6.97009">
        <ele>2126.1</ele>
        <time>2022-02-25T14:18:36Z</time>
      </trkpt>
      <trkpt lat="44.80165" lon="6.97009">
        <ele>2126.1</ele>
        <time>2022-02-25T14:18:37Z</time>
      </trkpt>
      <trkpt lat="44.80165" lon="6.97009">
        <ele>2126.1</ele>
        <time>2022-02-25T14:18:38Z</time>
      </trkpt>
      <trkpt lat="44.80165" lon="6.97009">
        <ele>2126.1</ele>
        <time>2022-02-25T14:18:39Z</time>
      </trkpt>
      <trkpt lat="44.80165" lon="6.97009">
        <ele>2126.1</ele>
        <time>2022-02-25T14:18:40Z</time>
      </trkpt>
      <trkpt lat="44.80165" lon="6.97009">
        <ele>2126.1</ele>
        <time>2022-02-25T14:18:41Z</time>
      </trkpt>
      <trkpt lat="44.80166" lon="6.97006">
        <ele>2126</ele>
        <time>2022-02-25T14:18:42Z</time>
      </trkpt>
      <trkpt lat="44.80166" lon="6.97006">
        <ele>2126</ele>
        <time>2022-02-25T14:18:43Z</time>
      </trkpt>
      <trkpt lat="44.80166" lon="6.97006">
        <ele>2126</ele>
        <time>2022-02-25T14:18:44Z</time>
      </trkpt>
      <trkpt lat="44.80166" lon="6.97006">
        <ele>2126</ele>
        <time>2022-02-25T14:18:45Z</time>
      </trkpt>
      <trkpt lat="44.80166" lon="6.97006">
        <ele>2126</ele>
        <time>2022-02-25T14:18:46Z</time>
      </trkpt>
      <trkpt lat="44.80166" lon="6.97006">
        <ele>2126</ele>
        <time>2022-02-25T14:18:47Z</time>
      </trkpt>
      <trkpt lat="44.80166" lon="6.97006">
        <ele>2126</ele>
        <time>2022-02-25T14:18:48Z</time>
      </trkpt>
      <trkpt lat="44.80166" lon="6.97006">
        <ele>2126</ele>
        <time>2022-02-25T14:18:49Z</time>
      </trkpt>
      <trkpt lat="44.80166" lon="6.97006">
        <ele>2126</ele>
        <time>2022-02-25T14:18:50Z</time>
      </trkpt>
      <trkpt lat="44.80166" lon="6.97006">
        <ele>2126</ele>
        <time>2022-02-25T14:18:51Z</time>
      </trkpt>
      <trkpt lat="44.80166" lon="6.97006">
        <ele>2126</ele>
        <time>2022-02-25T14:18:52Z</time>
      </trkpt>
      <trkpt lat="44.80166" lon="6.97006">
        <ele>2126</ele>
        <time>2022-02-25T14:18:53Z</time>
      </trkpt>
      <trkpt lat="44.80166" lon="6.97006">
        <ele>2126</ele>
        <time>2022-02-25T14:18:54Z</time>
      </trkpt>
      <trkpt lat="44.80166" lon="6.97006">
        <ele>2126</ele>
        <time>2022-02-25T14:18:55Z</time>
      </trkpt>
      <trkpt lat="44.80166" lon="6.97006">
        <ele>2126</ele>
        <time>2022-02-25T14:18:56Z</time>
      </trkpt>
      <trkpt lat="44.80166" lon="6.97006">
        <ele>2126</ele>
        <time>2022-02-25T14:18:57Z</time>
      </trkpt>
      <trkpt lat="44.80166" lon="6.97006">
        <ele>2126</ele>
        <time>2022-02-25T14:18:58Z</time>
      </trkpt>
      <trkpt lat="44.80166" lon="6.97006">
        <ele>2126</ele>
        <time>2022-02-25T14:18:59Z</time>
      </trkpt>
      <trkpt lat="44.80166" lon="6.97006">
        <ele>2126</ele>
        <time>2022-02-25T14:19:00Z</time>
      </trkpt>
      <trkpt lat="44.80166" lon="6.97006">
        <ele>2126</ele>
        <time>2022-02-25T14:19:01Z</time>
      </trkpt>
      <trkpt lat="44.80166" lon="6.97006">
        <ele>2126</ele>
        <time>2022-02-25T14:19:02Z</time>
      </trkpt>
      <trkpt lat="44.80166" lon="6.97006">
        <ele>2126</ele>
        <time>2022-02-25T14:19:03Z</time>
      </trkpt>
      <trkpt lat="44.80166" lon="6.97006">
        <ele>2126</ele>
        <time>2022-02-25T14:19:04Z</time>
      </trkpt>
      <trkpt lat="44.80166" lon="6.97006">
        <ele>2126</ele>
        <time>2022-02-25T14:19:05Z</time>
      </trkpt>
      <trkpt lat="44.80166" lon="6.97006">
        <ele>2126</ele>
        <time>2022-02-25T14:19:06Z</time>
      </trkpt>
      <trkpt lat="44.80166" lon="6.97006">
        <ele>2126</ele>
        <time>2022-02-25T14:19:07Z</time>
      </trkpt>
      <trkpt lat="44.80166" lon="6.97006">
        <ele>2126</ele>
        <time>2022-02-25T14:19:08Z</time>
      </trkpt>
      <trkpt lat="44.80166" lon="6.97006">
        <ele>2126</ele>
        <time>2022-02-25T14:19:09Z</time>
      </trkpt>
      <trkpt lat="44.80166" lon="6.97006">
        <ele>2126</ele>
        <time>2022-02-25T14:19:10Z</time>
      </trkpt>
      <trkpt lat="44.80166" lon="6.97006">
        <ele>2126</ele>
        <time>2022-02-25T14:19:11Z</time>
      </trkpt>
      <trkpt lat="44.80166" lon="6.97006">
        <ele>2126</ele>
        <time>2022-02-25T14:19:12Z</time>
      </trkpt>
      <trkpt lat="44.80167" lon="6.97003">
        <ele>2125.8</ele>
        <time>2022-02-25T14:19:13Z</time>
      </trkpt>
      <trkpt lat="44.80167" lon="6.97003">
        <ele>2125.8</ele>
        <time>2022-02-25T14:19:14Z</time>
      </trkpt>
      <trkpt lat="44.80169" lon="6.96998">
        <ele>2125.5</ele>
        <time>2022-02-25T14:19:15Z</time>
      </trkpt>
      <trkpt lat="44.8017" lon="6.96995">
        <ele>2125.4</ele>
        <time>2022-02-25T14:19:16Z</time>
      </trkpt>
      <trkpt lat="44.80172" lon="6.96988">
        <ele>2125.2</ele>
        <time>2022-02-25T14:19:17Z</time>
      </trkpt>
      <trkpt lat="44.80173" lon="6.96986">
        <ele>2125.1</ele>
        <time>2022-02-25T14:19:18Z</time>
      </trkpt>
      <trkpt lat="44.80175" lon="6.9698">
        <ele>2124.8</ele>
        <time>2022-02-25T14:19:19Z</time>
      </trkpt>
      <trkpt lat="44.80177" lon="6.96974">
        <ele>2124.5</ele>
        <time>2022-02-25T14:19:20Z</time>
      </trkpt>
      <trkpt lat="44.80179" lon="6.96969">
        <ele>2124.2</ele>
        <time>2022-02-25T14:19:21Z</time>
      </trkpt>
      <trkpt lat="44.8018" lon="6.96964">
        <ele>2124.1</ele>
        <time>2022-02-25T14:19:22Z</time>
      </trkpt>
      <trkpt lat="44.80181" lon="6.96961">
        <ele>2124</ele>
        <time>2022-02-25T14:19:23Z</time>
      </trkpt>
      <trkpt lat="44.80182" lon="6.96957">
        <ele>2123.8</ele>
        <time>2022-02-25T14:19:24Z</time>
      </trkpt>
      <trkpt lat="44.80184" lon="6.96953">
        <ele>2123.3</ele>
        <time>2022-02-25T14:19:25Z</time>
      </trkpt>
      <trkpt lat="44.80187" lon="6.96948">
        <ele>2122.5</ele>
        <time>2022-02-25T14:19:26Z</time>
      </trkpt>
      <trkpt lat="44.80189" lon="6.96944">
        <ele>2122</ele>
        <time>2022-02-25T14:19:27Z</time>
      </trkpt>
      <trkpt lat="44.80192" lon="6.9694">
        <ele>2121.1</ele>
        <time>2022-02-25T14:19:28Z</time>
      </trkpt>
      <trkpt lat="44.80194" lon="6.96938">
        <ele>2120.4</ele>
        <time>2022-02-25T14:19:29Z</time>
      </trkpt>
      <trkpt lat="44.80195" lon="6.96935">
        <ele>2120.2</ele>
        <time>2022-02-25T14:19:30Z</time>
      </trkpt>
      <trkpt lat="44.80197" lon="6.96933">
        <ele>2119.6</ele>
        <time>2022-02-25T14:19:31Z</time>
      </trkpt>
      <trkpt lat="44.80197" lon="6.96933">
        <ele>2119.6</ele>
        <time>2022-02-25T14:19:32Z</time>
      </trkpt>
      <trkpt lat="44.80197" lon="6.96929">
        <ele>2119.8</ele>
        <time>2022-02-25T14:19:33Z</time>
      </trkpt>
      <trkpt lat="44.80197" lon="6.96929">
        <ele>2119.8</ele>
        <time>2022-02-25T14:19:34Z</time>
      </trkpt>
      <trkpt lat="44.80197" lon="6.96929">
        <ele>2119.8</ele>
        <time>2022-02-25T14:19:35Z</time>
      </trkpt>
      <trkpt lat="44.80197" lon="6.96929">
        <ele>2119.8</ele>
        <time>2022-02-25T14:19:36Z</time>
      </trkpt>
      <trkpt lat="44.80197" lon="6.96929">
        <ele>2119.8</ele>
        <time>2022-02-25T14:19:37Z</time>
      </trkpt>
      <trkpt lat="44.80197" lon="6.96929">
        <ele>2119.8</ele>
        <time>2022-02-25T14:19:38Z</time>
      </trkpt>
      <trkpt lat="44.80197" lon="6.96929">
        <ele>2119.8</ele>
        <time>2022-02-25T14:19:39Z</time>
      </trkpt>
      <trkpt lat="44.80197" lon="6.96929">
        <ele>2119.8</ele>
        <time>2022-02-25T14:19:40Z</time>
      </trkpt>
      <trkpt lat="44.80197" lon="6.96929">
        <ele>2119.8</ele>
        <time>2022-02-25T14:19:41Z</time>
      </trkpt>
      <trkpt lat="44.80197" lon="6.96929">
        <ele>2119.8</ele>
        <time>2022-02-25T14:19:42Z</time>
      </trkpt>
      <trkpt lat="44.80197" lon="6.96929">
        <ele>2119.8</ele>
        <time>2022-02-25T14:19:43Z</time>
      </trkpt>
      <trkpt lat="44.80197" lon="6.96929">
        <ele>2119.8</ele>
        <time>2022-02-25T14:19:44Z</time>
      </trkpt>
      <trkpt lat="44.80197" lon="6.96929">
        <ele>2119.8</ele>
        <time>2022-02-25T14:19:45Z</time>
      </trkpt>
      <trkpt lat="44.80197" lon="6.96929">
        <ele>2119.8</ele>
        <time>2022-02-25T14:19:46Z</time>
      </trkpt>
      <trkpt lat="44.80197" lon="6.96929">
        <ele>2119.8</ele>
        <time>2022-02-25T14:19:47Z</time>
      </trkpt>
      <trkpt lat="44.80197" lon="6.96929">
        <ele>2119.8</ele>
        <time>2022-02-25T14:19:48Z</time>
      </trkpt>
      <trkpt lat="44.80197" lon="6.96929">
        <ele>2119.8</ele>
        <time>2022-02-25T14:19:49Z</time>
      </trkpt>
      <trkpt lat="44.80197" lon="6.96929">
        <ele>2119.8</ele>
        <time>2022-02-25T14:19:50Z</time>
      </trkpt>
      <trkpt lat="44.80197" lon="6.96929">
        <ele>2119.8</ele>
        <time>2022-02-25T14:19:51Z</time>
      </trkpt>
      <trkpt lat="44.80197" lon="6.96929">
        <ele>2119.8</ele>
        <time>2022-02-25T14:19:52Z</time>
      </trkpt>
      <trkpt lat="44.80197" lon="6.96929">
        <ele>2119.8</ele>
        <time>2022-02-25T14:19:53Z</time>
      </trkpt>
      <trkpt lat="44.80197" lon="6.96929">
        <ele>2119.8</ele>
        <time>2022-02-25T14:19:54Z</time>
      </trkpt>
      <trkpt lat="44.80197" lon="6.96929">
        <ele>2119.8</ele>
        <time>2022-02-25T14:19:55Z</time>
      </trkpt>
      <trkpt lat="44.80197" lon="6.96929">
        <ele>2119.8</ele>
        <time>2022-02-25T14:19:56Z</time>
      </trkpt>
      <trkpt lat="44.80197" lon="6.96929">
        <ele>2119.8</ele>
        <time>2022-02-25T14:19:57Z</time>
      </trkpt>
      <trkpt lat="44.80197" lon="6.96929">
        <ele>2119.8</ele>
        <time>2022-02-25T14:19:58Z</time>
      </trkpt>
      <trkpt lat="44.80197" lon="6.96929">
        <ele>2119.8</ele>
        <time>2022-02-25T14:19:59Z</time>
      </trkpt>
      <trkpt lat="44.80197" lon="6.96929">
        <ele>2119.8</ele>
        <time>2022-02-25T14:20:00Z</time>
      </trkpt>
      <trkpt lat="44.80197" lon="6.96929">
        <ele>2119.8</ele>
        <time>2022-02-25T14:20:01Z</time>
      </trkpt>
      <trkpt lat="44.80197" lon="6.96929">
        <ele>2119.8</ele>
        <time>2022-02-25T14:20:02Z</time>
      </trkpt>
      <trkpt lat="44.80197" lon="6.96929">
        <ele>2119.8</ele>
        <time>2022-02-25T14:20:03Z</time>
      </trkpt>
      <trkpt lat="44.80197" lon="6.96929">
        <ele>2119.8</ele>
        <time>2022-02-25T14:20:04Z</time>
      </trkpt>
      <trkpt lat="44.80197" lon="6.96929">
        <ele>2119.8</ele>
        <time>2022-02-25T14:20:05Z</time>
      </trkpt>
      <trkpt lat="44.80197" lon="6.96929">
        <ele>2119.8</ele>
        <time>2022-02-25T14:20:06Z</time>
      </trkpt>
      <trkpt lat="44.80197" lon="6.96929">
        <ele>2119.8</ele>
        <time>2022-02-25T14:20:07Z</time>
      </trkpt>
      <trkpt lat="44.80197" lon="6.96929">
        <ele>2119.8</ele>
        <time>2022-02-25T14:20:08Z</time>
      </trkpt>
      <trkpt lat="44.80197" lon="6.96929">
        <ele>2119.8</ele>
        <time>2022-02-25T14:20:09Z</time>
      </trkpt>
      <trkpt lat="44.80197" lon="6.96929">
        <ele>2119.8</ele>
        <time>2022-02-25T14:20:10Z</time>
      </trkpt>
      <trkpt lat="44.80197" lon="6.96929">
        <ele>2119.8</ele>
        <time>2022-02-25T14:20:11Z</time>
      </trkpt>
      <trkpt lat="44.80197" lon="6.96929">
        <ele>2119.8</ele>
        <time>2022-02-25T14:20:12Z</time>
      </trkpt>
      <trkpt lat="44.80197" lon="6.96929">
        <ele>2119.8</ele>
        <time>2022-02-25T14:20:13Z</time>
      </trkpt>
      <trkpt lat="44.80197" lon="6.96929">
        <ele>2119.8</ele>
        <time>2022-02-25T14:20:14Z</time>
      </trkpt>
      <trkpt lat="44.80197" lon="6.96929">
        <ele>2119.8</ele>
        <time>2022-02-25T14:20:15Z</time>
      </trkpt>
      <trkpt lat="44.80197" lon="6.96929">
        <ele>2119.8</ele>
        <time>2022-02-25T14:20:16Z</time>
      </trkpt>
      <trkpt lat="44.80194" lon="6.96927">
        <ele>2120.8</ele>
        <time>2022-02-25T14:20:17Z</time>
      </trkpt>
      <trkpt lat="44.80194" lon="6.96927">
        <ele>2120.8</ele>
        <time>2022-02-25T14:20:18Z</time>
      </trkpt>
      <trkpt lat="44.80194" lon="6.96927">
        <ele>2120.8</ele>
        <time>2022-02-25T14:20:19Z</time>
      </trkpt>
      <trkpt lat="44.80194" lon="6.96923">
        <ele>2121</ele>
        <time>2022-02-25T14:20:20Z</time>
      </trkpt>
      <trkpt lat="44.80194" lon="6.96923">
        <ele>2121</ele>
        <time>2022-02-25T14:20:21Z</time>
      </trkpt>
      <trkpt lat="44.80196" lon="6.96919">
        <ele>2120.5</ele>
        <time>2022-02-25T14:20:22Z</time>
      </trkpt>
      <trkpt lat="44.80196" lon="6.96919">
        <ele>2120.5</ele>
        <time>2022-02-25T14:20:23Z</time>
      </trkpt>
      <trkpt lat="44.80197" lon="6.96916">
        <ele>2120.3</ele>
        <time>2022-02-25T14:20:24Z</time>
      </trkpt>
      <trkpt lat="44.80197" lon="6.96916">
        <ele>2120.3</ele>
        <time>2022-02-25T14:20:25Z</time>
      </trkpt>
      <trkpt lat="44.80197" lon="6.96916">
        <ele>2120.3</ele>
        <time>2022-02-25T14:20:26Z</time>
      </trkpt>
      <trkpt lat="44.80197" lon="6.96916">
        <ele>2120.3</ele>
        <time>2022-02-25T14:20:27Z</time>
      </trkpt>
      <trkpt lat="44.80197" lon="6.96914">
        <ele>2120.5</ele>
        <time>2022-02-25T14:20:28Z</time>
      </trkpt>
      <trkpt lat="44.80197" lon="6.96914">
        <ele>2120.5</ele>
        <time>2022-02-25T14:20:29Z</time>
      </trkpt>
      <trkpt lat="44.80197" lon="6.96914">
        <ele>2120.5</ele>
        <time>2022-02-25T14:20:30Z</time>
      </trkpt>
      <trkpt lat="44.80199" lon="6.96911">
        <ele>2120.3</ele>
        <time>2022-02-25T14:20:31Z</time>
      </trkpt>
      <trkpt lat="44.80199" lon="6.96911">
        <ele>2120.3</ele>
        <time>2022-02-25T14:20:32Z</time>
      </trkpt>
      <trkpt lat="44.80201" lon="6.96909">
        <ele>2119.9</ele>
        <time>2022-02-25T14:20:33Z</time>
      </trkpt>
      <trkpt lat="44.80203" lon="6.96906">
        <ele>2119.6</ele>
        <time>2022-02-25T14:20:34Z</time>
      </trkpt>
      <trkpt lat="44.80205" lon="6.96904">
        <ele>2119.2</ele>
        <time>2022-02-25T14:20:35Z</time>
      </trkpt>
      <trkpt lat="44.80205" lon="6.96904">
        <ele>2119.2</ele>
        <time>2022-02-25T14:20:36Z</time>
      </trkpt>
      <trkpt lat="44.80207" lon="6.969">
        <ele>2118.9</ele>
        <time>2022-02-25T14:20:37Z</time>
      </trkpt>
      <trkpt lat="44.80208" lon="6.96897">
        <ele>2118.9</ele>
        <time>2022-02-25T14:20:38Z</time>
      </trkpt>
      <trkpt lat="44.80209" lon="6.96895">
        <ele>2118.7</ele>
        <time>2022-02-25T14:20:39Z</time>
      </trkpt>
      <trkpt lat="44.80209" lon="6.96892">
        <ele>2119</ele>
        <time>2022-02-25T14:20:40Z</time>
      </trkpt>
      <trkpt lat="44.80209" lon="6.96892">
        <ele>2119</ele>
        <time>2022-02-25T14:20:41Z</time>
      </trkpt>
      <trkpt lat="44.8021" lon="6.96887">
        <ele>2119.1</ele>
        <time>2022-02-25T14:20:42Z</time>
      </trkpt>
      <trkpt lat="44.80211" lon="6.96884">
        <ele>2119.1</ele>
        <time>2022-02-25T14:20:43Z</time>
      </trkpt>
      <trkpt lat="44.80212" lon="6.96881">
        <ele>2119</ele>
        <time>2022-02-25T14:20:44Z</time>
      </trkpt>
      <trkpt lat="44.80214" lon="6.96877">
        <ele>2118.6</ele>
        <time>2022-02-25T14:20:45Z</time>
      </trkpt>
      <trkpt lat="44.80217" lon="6.96873">
        <ele>2117.9</ele>
        <time>2022-02-25T14:20:46Z</time>
      </trkpt>
      <trkpt lat="44.80219" lon="6.96869">
        <ele>2117.6</ele>
        <time>2022-02-25T14:20:47Z</time>
      </trkpt>
      <trkpt lat="44.8022" lon="6.96866">
        <ele>2117.4</ele>
        <time>2022-02-25T14:20:48Z</time>
      </trkpt>
      <trkpt lat="44.80222" lon="6.96864">
        <ele>2116.9</ele>
        <time>2022-02-25T14:20:49Z</time>
      </trkpt>
      <trkpt lat="44.80223" lon="6.9686">
        <ele>2116.9</ele>
        <time>2022-02-25T14:20:50Z</time>
      </trkpt>
      <trkpt lat="44.80224" lon="6.96857">
        <ele>2117</ele>
        <time>2022-02-25T14:20:51Z</time>
      </trkpt>
      <trkpt lat="44.80225" lon="6.96855">
        <ele>2116.9</ele>
        <time>2022-02-25T14:20:52Z</time>
      </trkpt>
      <trkpt lat="44.80225" lon="6.96855">
        <ele>2116.9</ele>
        <time>2022-02-25T14:20:53Z</time>
      </trkpt>
      <trkpt lat="44.80228" lon="6.96852">
        <ele>2116.5</ele>
        <time>2022-02-25T14:20:54Z</time>
      </trkpt>
      <trkpt lat="44.80228" lon="6.96852">
        <ele>2116.5</ele>
        <time>2022-02-25T14:20:55Z</time>
      </trkpt>
      <trkpt lat="44.80229" lon="6.96849">
        <ele>2116.5</ele>
        <time>2022-02-25T14:20:56Z</time>
      </trkpt>
      <trkpt lat="44.80229" lon="6.96849">
        <ele>2116.5</ele>
        <time>2022-02-25T14:20:57Z</time>
      </trkpt>
      <trkpt lat="44.8023" lon="6.96846">
        <ele>2116.5</ele>
        <time>2022-02-25T14:20:58Z</time>
      </trkpt>
      <trkpt lat="44.8023" lon="6.96846">
        <ele>2116.5</ele>
        <time>2022-02-25T14:20:59Z</time>
      </trkpt>
      <trkpt lat="44.80231" lon="6.96843">
        <ele>2116.5</ele>
        <time>2022-02-25T14:21:00Z</time>
      </trkpt>
      <trkpt lat="44.80233" lon="6.9684">
        <ele>2116.3</ele>
        <time>2022-02-25T14:21:01Z</time>
      </trkpt>
      <trkpt lat="44.80234" lon="6.96838">
        <ele>2116.2</ele>
        <time>2022-02-25T14:21:02Z</time>
      </trkpt>
      <trkpt lat="44.80234" lon="6.96838">
        <ele>2116.2</ele>
        <time>2022-02-25T14:21:03Z</time>
      </trkpt>
      <trkpt lat="44.80234" lon="6.96834">
        <ele>2116.5</ele>
        <time>2022-02-25T14:21:04Z</time>
      </trkpt>
      <trkpt lat="44.80234" lon="6.96834">
        <ele>2116.5</ele>
        <time>2022-02-25T14:21:05Z</time>
      </trkpt>
      <trkpt lat="44.80235" lon="6.96829">
        <ele>2116.8</ele>
        <time>2022-02-25T14:21:06Z</time>
      </trkpt>
      <trkpt lat="44.80236" lon="6.96826">
        <ele>2116.8</ele>
        <time>2022-02-25T14:21:07Z</time>
      </trkpt>
      <trkpt lat="44.80236" lon="6.96826">
        <ele>2116.8</ele>
        <time>2022-02-25T14:21:08Z</time>
      </trkpt>
      <trkpt lat="44.80237" lon="6.96823">
        <ele>2116.9</ele>
        <time>2022-02-25T14:21:09Z</time>
      </trkpt>
      <trkpt lat="44.80237" lon="6.96823">
        <ele>2116.9</ele>
        <time>2022-02-25T14:21:10Z</time>
      </trkpt>
      <trkpt lat="44.80239" lon="6.96822">
        <ele>2116.4</ele>
        <time>2022-02-25T14:21:11Z</time>
      </trkpt>
      <trkpt lat="44.80239" lon="6.96822">
        <ele>2116.4</ele>
        <time>2022-02-25T14:21:12Z</time>
      </trkpt>
      <trkpt lat="44.80239" lon="6.96822">
        <ele>2116.4</ele>
        <time>2022-02-25T14:21:13Z</time>
      </trkpt>
      <trkpt lat="44.80241" lon="6.96819">
        <ele>2116.1</ele>
        <time>2022-02-25T14:21:14Z</time>
      </trkpt>
      <trkpt lat="44.80241" lon="6.96819">
        <ele>2116.1</ele>
        <time>2022-02-25T14:21:15Z</time>
      </trkpt>
      <trkpt lat="44.80244" lon="6.96817">
        <ele>2115.5</ele>
        <time>2022-02-25T14:21:16Z</time>
      </trkpt>
      <trkpt lat="44.80244" lon="6.96817">
        <ele>2115.5</ele>
        <time>2022-02-25T14:21:17Z</time>
      </trkpt>
      <trkpt lat="44.80246" lon="6.96815">
        <ele>2115.1</ele>
        <time>2022-02-25T14:21:18Z</time>
      </trkpt>
      <trkpt lat="44.80246" lon="6.96815">
        <ele>2115.1</ele>
        <time>2022-02-25T14:21:19Z</time>
      </trkpt>
      <trkpt lat="44.80248" lon="6.96813">
        <ele>2114.8</ele>
        <time>2022-02-25T14:21:20Z</time>
      </trkpt>
      <trkpt lat="44.80248" lon="6.96813">
        <ele>2114.8</ele>
        <time>2022-02-25T14:21:21Z</time>
      </trkpt>
      <trkpt lat="44.8025" lon="6.96811">
        <ele>2114.4</ele>
        <time>2022-02-25T14:21:22Z</time>
      </trkpt>
      <trkpt lat="44.80252" lon="6.96809">
        <ele>2114.1</ele>
        <time>2022-02-25T14:21:23Z</time>
      </trkpt>
      <trkpt lat="44.80252" lon="6.96809">
        <ele>2114.1</ele>
        <time>2022-02-25T14:21:24Z</time>
      </trkpt>
      <trkpt lat="44.80254" lon="6.96807">
        <ele>2113.8</ele>
        <time>2022-02-25T14:21:25Z</time>
      </trkpt>
      <trkpt lat="44.80254" lon="6.96807">
        <ele>2113.8</ele>
        <time>2022-02-25T14:21:26Z</time>
      </trkpt>
      <trkpt lat="44.80257" lon="6.96805">
        <ele>2113.3</ele>
        <time>2022-02-25T14:21:27Z</time>
      </trkpt>
      <trkpt lat="44.80257" lon="6.96805">
        <ele>2113.3</ele>
        <time>2022-02-25T14:21:28Z</time>
      </trkpt>
      <trkpt lat="44.8026" lon="6.96803">
        <ele>2112.7</ele>
        <time>2022-02-25T14:21:29Z</time>
      </trkpt>
      <trkpt lat="44.80262" lon="6.96801">
        <ele>2112.4</ele>
        <time>2022-02-25T14:21:30Z</time>
      </trkpt>
      <trkpt lat="44.80262" lon="6.96801">
        <ele>2112.4</ele>
        <time>2022-02-25T14:21:31Z</time>
      </trkpt>
      <trkpt lat="44.80265" lon="6.96798">
        <ele>2111.9</ele>
        <time>2022-02-25T14:21:32Z</time>
      </trkpt>
      <trkpt lat="44.80265" lon="6.96798">
        <ele>2111.9</ele>
        <time>2022-02-25T14:21:33Z</time>
      </trkpt>
      <trkpt lat="44.80266" lon="6.96793">
        <ele>2112.1</ele>
        <time>2022-02-25T14:21:34Z</time>
      </trkpt>
      <trkpt lat="44.80268" lon="6.96792">
        <ele>2111.6</ele>
        <time>2022-02-25T14:21:35Z</time>
      </trkpt>
      <trkpt lat="44.8027" lon="6.9679">
        <ele>2111.2</ele>
        <time>2022-02-25T14:21:36Z</time>
      </trkpt>
      <trkpt lat="44.8027" lon="6.9679">
        <ele>2111.2</ele>
        <time>2022-02-25T14:21:37Z</time>
      </trkpt>
      <trkpt lat="44.80273" lon="6.96787">
        <ele>2110.7</ele>
        <time>2022-02-25T14:21:38Z</time>
      </trkpt>
      <trkpt lat="44.80273" lon="6.96787">
        <ele>2110.7</ele>
        <time>2022-02-25T14:21:39Z</time>
      </trkpt>
      <trkpt lat="44.80276" lon="6.96785">
        <ele>2110</ele>
        <time>2022-02-25T14:21:40Z</time>
      </trkpt>
      <trkpt lat="44.80278" lon="6.96783">
        <ele>2109.6</ele>
        <time>2022-02-25T14:21:41Z</time>
      </trkpt>
      <trkpt lat="44.80278" lon="6.96783">
        <ele>2109.6</ele>
        <time>2022-02-25T14:21:42Z</time>
      </trkpt>
      <trkpt lat="44.8028" lon="6.9678">
        <ele>2109.4</ele>
        <time>2022-02-25T14:21:43Z</time>
      </trkpt>
      <trkpt lat="44.80282" lon="6.96779">
        <ele>2109</ele>
        <time>2022-02-25T14:21:44Z</time>
      </trkpt>
      <trkpt lat="44.80283" lon="6.96778">
        <ele>2108.9</ele>
        <time>2022-02-25T14:21:45Z</time>
      </trkpt>
      <trkpt lat="44.80285" lon="6.96776">
        <ele>2108.7</ele>
        <time>2022-02-25T14:21:46Z</time>
      </trkpt>
      <trkpt lat="44.80286" lon="6.96774">
        <ele>2108.8</ele>
        <time>2022-02-25T14:21:47Z</time>
      </trkpt>
      <trkpt lat="44.80288" lon="6.96772">
        <ele>2108.7</ele>
        <time>2022-02-25T14:21:48Z</time>
      </trkpt>
      <trkpt lat="44.8029" lon="6.96769">
        <ele>2108.8</ele>
        <time>2022-02-25T14:21:49Z</time>
      </trkpt>
      <trkpt lat="44.80292" lon="6.96765">
        <ele>2109</ele>
        <time>2022-02-25T14:21:50Z</time>
      </trkpt>
      <trkpt lat="44.80293" lon="6.96763">
        <ele>2109.1</ele>
        <time>2022-02-25T14:21:51Z</time>
      </trkpt>
      <trkpt lat="44.80293" lon="6.96763">
        <ele>2109.1</ele>
        <time>2022-02-25T14:21:52Z</time>
      </trkpt>
      <trkpt lat="44.80294" lon="6.96761">
        <ele>2109.3</ele>
        <time>2022-02-25T14:21:53Z</time>
      </trkpt>
      <trkpt lat="44.80294" lon="6.96761">
        <ele>2109.3</ele>
        <time>2022-02-25T14:21:54Z</time>
      </trkpt>
      <trkpt lat="44.80294" lon="6.96761">
        <ele>2109.3</ele>
        <time>2022-02-25T14:21:55Z</time>
      </trkpt>
      <trkpt lat="44.80294" lon="6.96761">
        <ele>2109.3</ele>
        <time>2022-02-25T14:21:56Z</time>
      </trkpt>
      <trkpt lat="44.80294" lon="6.96761">
        <ele>2109.3</ele>
        <time>2022-02-25T14:21:57Z</time>
      </trkpt>
      <trkpt lat="44.80295" lon="6.96762">
        <ele>2108.9</ele>
        <time>2022-02-25T14:21:58Z</time>
      </trkpt>
      <trkpt lat="44.80296" lon="6.96762">
        <ele>2108.7</ele>
        <time>2022-02-25T14:21:59Z</time>
      </trkpt>
      <trkpt lat="44.80297" lon="6.96762">
        <ele>2108.5</ele>
        <time>2022-02-25T14:22:00Z</time>
      </trkpt>
      <trkpt lat="44.80297" lon="6.96762">
        <ele>2108.5</ele>
        <time>2022-02-25T14:22:01Z</time>
      </trkpt>
      <trkpt lat="44.80298" lon="6.96763">
        <ele>2108.1</ele>
        <time>2022-02-25T14:22:02Z</time>
      </trkpt>
      <trkpt lat="44.80299" lon="6.96763">
        <ele>2108</ele>
        <time>2022-02-25T14:22:03Z</time>
      </trkpt>
      <trkpt lat="44.80299" lon="6.96763">
        <ele>2108</ele>
        <time>2022-02-25T14:22:04Z</time>
      </trkpt>
      <trkpt lat="44.803" lon="6.96763">
        <ele>2107.8</ele>
        <time>2022-02-25T14:22:05Z</time>
      </trkpt>
      <trkpt lat="44.80301" lon="6.96764">
        <ele>2107.4</ele>
        <time>2022-02-25T14:22:06Z</time>
      </trkpt>
      <trkpt lat="44.80301" lon="6.96764">
        <ele>2107.4</ele>
        <time>2022-02-25T14:22:07Z</time>
      </trkpt>
      <trkpt lat="44.80302" lon="6.96764">
        <ele>2107.2</ele>
        <time>2022-02-25T14:22:08Z</time>
      </trkpt>
      <trkpt lat="44.80303" lon="6.96765">
        <ele>2106.8</ele>
        <time>2022-02-25T14:22:09Z</time>
      </trkpt>
      <trkpt lat="44.80303" lon="6.96765">
        <ele>2106.8</ele>
        <time>2022-02-25T14:22:10Z</time>
      </trkpt>
      <trkpt lat="44.80304" lon="6.96765">
        <ele>2106.6</ele>
        <time>2022-02-25T14:22:11Z</time>
      </trkpt>
      <trkpt lat="44.80305" lon="6.96765">
        <ele>2106.4</ele>
        <time>2022-02-25T14:22:12Z</time>
      </trkpt>
      <trkpt lat="44.80305" lon="6.96766">
        <ele>2106.2</ele>
        <time>2022-02-25T14:22:13Z</time>
      </trkpt>
      <trkpt lat="44.80306" lon="6.96766">
        <ele>2106</ele>
        <time>2022-02-25T14:22:14Z</time>
      </trkpt>
      <trkpt lat="44.80307" lon="6.96766">
        <ele>2105.8</ele>
        <time>2022-02-25T14:22:15Z</time>
      </trkpt>
      <trkpt lat="44.80307" lon="6.96766">
        <ele>2105.8</ele>
        <time>2022-02-25T14:22:16Z</time>
      </trkpt>
      <trkpt lat="44.80308" lon="6.96767">
        <ele>2105.4</ele>
        <time>2022-02-25T14:22:17Z</time>
      </trkpt>
      <trkpt lat="44.80309" lon="6.96767">
        <ele>2105.2</ele>
        <time>2022-02-25T14:22:18Z</time>
      </trkpt>
      <trkpt lat="44.80309" lon="6.96767">
        <ele>2105.2</ele>
        <time>2022-02-25T14:22:19Z</time>
      </trkpt>
      <trkpt lat="44.8031" lon="6.96767">
        <ele>2105</ele>
        <time>2022-02-25T14:22:20Z</time>
      </trkpt>
      <trkpt lat="44.80314" lon="6.96769">
        <ele>2103.9</ele>
        <time>2022-02-25T14:22:21Z</time>
      </trkpt>
      <trkpt lat="44.80318" lon="6.96771">
        <ele>2102.6</ele>
        <time>2022-02-25T14:22:22Z</time>
      </trkpt>
      <trkpt lat="44.80323" lon="6.96774">
        <ele>2101</ele>
        <time>2022-02-25T14:22:23Z</time>
      </trkpt>
      <trkpt lat="44.80332" lon="6.96775">
        <ele>2098.9</ele>
        <time>2022-02-25T14:22:24Z</time>
      </trkpt>
      <trkpt lat="44.80339" lon="6.96778">
        <ele>2097.2</ele>
        <time>2022-02-25T14:22:25Z</time>
      </trkpt>
      <trkpt lat="44.80344" lon="6.96781">
        <ele>2096</ele>
        <time>2022-02-25T14:22:26Z</time>
      </trkpt>
      <trkpt lat="44.80348" lon="6.96786">
        <ele>2094.5</ele>
        <time>2022-02-25T14:22:27Z</time>
      </trkpt>
      <trkpt lat="44.80353" lon="6.96788">
        <ele>2093.4</ele>
        <time>2022-02-25T14:22:28Z</time>
      </trkpt>
      <trkpt lat="44.80358" lon="6.96788">
        <ele>2092.6</ele>
        <time>2022-02-25T14:22:29Z</time>
      </trkpt>
      <trkpt lat="44.80361" lon="6.96789">
        <ele>2092</ele>
        <time>2022-02-25T14:22:30Z</time>
      </trkpt>
      <trkpt lat="44.80364" lon="6.96792">
        <ele>2091</ele>
        <time>2022-02-25T14:22:31Z</time>
      </trkpt>
      <trkpt lat="44.80366" lon="6.96795">
        <ele>2090.1</ele>
        <time>2022-02-25T14:22:32Z</time>
      </trkpt>
      <trkpt lat="44.8037" lon="6.96798">
        <ele>2088.8</ele>
        <time>2022-02-25T14:22:33Z</time>
      </trkpt>
      <trkpt lat="44.80373" lon="6.96798">
        <ele>2088.3</ele>
        <time>2022-02-25T14:22:34Z</time>
      </trkpt>
      <trkpt lat="44.80375" lon="6.96796">
        <ele>2088.4</ele>
        <time>2022-02-25T14:22:35Z</time>
      </trkpt>
      <trkpt lat="44.80378" lon="6.96796">
        <ele>2087.9</ele>
        <time>2022-02-25T14:22:36Z</time>
      </trkpt>
      <trkpt lat="44.80381" lon="6.96797">
        <ele>2087.2</ele>
        <time>2022-02-25T14:22:37Z</time>
      </trkpt>
      <trkpt lat="44.80384" lon="6.96799">
        <ele>2086.3</ele>
        <time>2022-02-25T14:22:38Z</time>
      </trkpt>
      <trkpt lat="44.80386" lon="6.96801">
        <ele>2085.5</ele>
        <time>2022-02-25T14:22:39Z</time>
      </trkpt>
      <trkpt lat="44.80388" lon="6.96801">
        <ele>2085.1</ele>
        <time>2022-02-25T14:22:40Z</time>
      </trkpt>
      <trkpt lat="44.8039" lon="6.96802">
        <ele>2084.6</ele>
        <time>2022-02-25T14:22:41Z</time>
      </trkpt>
      <trkpt lat="44.80393" lon="6.96806">
        <ele>2083.2</ele>
        <time>2022-02-25T14:22:42Z</time>
      </trkpt>
      <trkpt lat="44.80394" lon="6.9681">
        <ele>2082.3</ele>
        <time>2022-02-25T14:22:43Z</time>
      </trkpt>
      <trkpt lat="44.80397" lon="6.96812">
        <ele>2081.3</ele>
        <time>2022-02-25T14:22:44Z</time>
      </trkpt>
      <trkpt lat="44.804" lon="6.96813">
        <ele>2080.6</ele>
        <time>2022-02-25T14:22:45Z</time>
      </trkpt>
      <trkpt lat="44.80405" lon="6.96814">
        <ele>2079.4</ele>
        <time>2022-02-25T14:22:46Z</time>
      </trkpt>
      <trkpt lat="44.8041" lon="6.96817">
        <ele>2077.8</ele>
        <time>2022-02-25T14:22:47Z</time>
      </trkpt>
      <trkpt lat="44.80414" lon="6.96822">
        <ele>2076</ele>
        <time>2022-02-25T14:22:48Z</time>
      </trkpt>
      <trkpt lat="44.80418" lon="6.96824">
        <ele>2074.8</ele>
        <time>2022-02-25T14:22:49Z</time>
      </trkpt>
      <trkpt lat="44.80422" lon="6.96825">
        <ele>2073.8</ele>
        <time>2022-02-25T14:22:50Z</time>
      </trkpt>
      <trkpt lat="44.80426" lon="6.96826">
        <ele>2072.7</ele>
        <time>2022-02-25T14:22:51Z</time>
      </trkpt>
      <trkpt lat="44.80429" lon="6.96829">
        <ele>2071.4</ele>
        <time>2022-02-25T14:22:52Z</time>
      </trkpt>
      <trkpt lat="44.80431" lon="6.96834">
        <ele>2069.8</ele>
        <time>2022-02-25T14:22:53Z</time>
      </trkpt>
      <trkpt lat="44.80433" lon="6.96838">
        <ele>2068.5</ele>
        <time>2022-02-25T14:22:54Z</time>
      </trkpt>
      <trkpt lat="44.80437" lon="6.96841">
        <ele>2067</ele>
        <time>2022-02-25T14:22:55Z</time>
      </trkpt>
      <trkpt lat="44.8044" lon="6.96842">
        <ele>2066.1</ele>
        <time>2022-02-25T14:22:56Z</time>
      </trkpt>
      <trkpt lat="44.80443" lon="6.96845">
        <ele>2064.8</ele>
        <time>2022-02-25T14:22:57Z</time>
      </trkpt>
      <trkpt lat="44.80445" lon="6.9685">
        <ele>2063.3</ele>
        <time>2022-02-25T14:22:58Z</time>
      </trkpt>
      <trkpt lat="44.80447" lon="6.96855">
        <ele>2061.7</ele>
        <time>2022-02-25T14:22:59Z</time>
      </trkpt>
      <trkpt lat="44.8045" lon="6.96857">
        <ele>2060.5</ele>
        <time>2022-02-25T14:23:00Z</time>
      </trkpt>
      <trkpt lat="44.80456" lon="6.96859">
        <ele>2058.6</ele>
        <time>2022-02-25T14:23:01Z</time>
      </trkpt>
      <trkpt lat="44.80461" lon="6.96862">
        <ele>2056.6</ele>
        <time>2022-02-25T14:23:02Z</time>
      </trkpt>
      <trkpt lat="44.80463" lon="6.96867">
        <ele>2055.1</ele>
        <time>2022-02-25T14:23:03Z</time>
      </trkpt>
      <trkpt lat="44.80464" lon="6.96873">
        <ele>2053.5</ele>
        <time>2022-02-25T14:23:04Z</time>
      </trkpt>
      <trkpt lat="44.80468" lon="6.96877">
        <ele>2051.6</ele>
        <time>2022-02-25T14:23:05Z</time>
      </trkpt>
      <trkpt lat="44.80471" lon="6.96878">
        <ele>2050.7</ele>
        <time>2022-02-25T14:23:06Z</time>
      </trkpt>
      <trkpt lat="44.80475" lon="6.9688">
        <ele>2049.4</ele>
        <time>2022-02-25T14:23:07Z</time>
      </trkpt>
      <trkpt lat="44.80479" lon="6.96883">
        <ele>2048.1</ele>
        <time>2022-02-25T14:23:08Z</time>
      </trkpt>
      <trkpt lat="44.80481" lon="6.96887">
        <ele>2046.8</ele>
        <time>2022-02-25T14:23:09Z</time>
      </trkpt>
      <trkpt lat="44.80484" lon="6.96892">
        <ele>2045.3</ele>
        <time>2022-02-25T14:23:10Z</time>
      </trkpt>
      <trkpt lat="44.80489" lon="6.96895">
        <ele>2043.7</ele>
        <time>2022-02-25T14:23:11Z</time>
      </trkpt>
      <trkpt lat="44.80493" lon="6.96898">
        <ele>2042.4</ele>
        <time>2022-02-25T14:23:12Z</time>
      </trkpt>
      <trkpt lat="44.80497" lon="6.96902">
        <ele>2040.8</ele>
        <time>2022-02-25T14:23:13Z</time>
      </trkpt>
      <trkpt lat="44.805" lon="6.96907">
        <ele>2039.1</ele>
        <time>2022-02-25T14:23:14Z</time>
      </trkpt>
      <trkpt lat="44.80501" lon="6.96912">
        <ele>2037.8</ele>
        <time>2022-02-25T14:23:15Z</time>
      </trkpt>
      <trkpt lat="44.80504" lon="6.96915">
        <ele>2036.6</ele>
        <time>2022-02-25T14:23:16Z</time>
      </trkpt>
      <trkpt lat="44.80507" lon="6.96916">
        <ele>2035.9</ele>
        <time>2022-02-25T14:23:17Z</time>
      </trkpt>
      <trkpt lat="44.80512" lon="6.96917">
        <ele>2034.8</ele>
        <time>2022-02-25T14:23:18Z</time>
      </trkpt>
      <trkpt lat="44.80515" lon="6.96921">
        <ele>2033.4</ele>
        <time>2022-02-25T14:23:19Z</time>
      </trkpt>
      <trkpt lat="44.80516" lon="6.96927">
        <ele>2032</ele>
        <time>2022-02-25T14:23:20Z</time>
      </trkpt>
      <trkpt lat="44.80517" lon="6.96932">
        <ele>2030.8</ele>
        <time>2022-02-25T14:23:21Z</time>
      </trkpt>
      <trkpt lat="44.8052" lon="6.96936">
        <ele>2029.4</ele>
        <time>2022-02-25T14:23:22Z</time>
      </trkpt>
      <trkpt lat="44.80525" lon="6.9694">
        <ele>2027.5</ele>
        <time>2022-02-25T14:23:23Z</time>
      </trkpt>
      <trkpt lat="44.80529" lon="6.96944">
        <ele>2025.8</ele>
        <time>2022-02-25T14:23:24Z</time>
      </trkpt>
      <trkpt lat="44.80532" lon="6.96948">
        <ele>2024.4</ele>
        <time>2022-02-25T14:23:25Z</time>
      </trkpt>
      <trkpt lat="44.80534" lon="6.9695">
        <ele>2023.6</ele>
        <time>2022-02-25T14:23:26Z</time>
      </trkpt>
      <trkpt lat="44.80536" lon="6.9695">
        <ele>2023.2</ele>
        <time>2022-02-25T14:23:27Z</time>
      </trkpt>
      <trkpt lat="44.80536" lon="6.9695">
        <ele>2023.2</ele>
        <time>2022-02-25T14:23:28Z</time>
      </trkpt>
      <trkpt lat="44.80536" lon="6.9695">
        <ele>2023.2</ele>
        <time>2022-02-25T14:23:29Z</time>
      </trkpt>
      <trkpt lat="44.80536" lon="6.9695">
        <ele>2023.2</ele>
        <time>2022-02-25T14:23:30Z</time>
      </trkpt>
      <trkpt lat="44.80536" lon="6.9695">
        <ele>2023.2</ele>
        <time>2022-02-25T14:23:31Z</time>
      </trkpt>
      <trkpt lat="44.80536" lon="6.9695">
        <ele>2023.2</ele>
        <time>2022-02-25T14:23:32Z</time>
      </trkpt>
      <trkpt lat="44.80536" lon="6.9695">
        <ele>2023.2</ele>
        <time>2022-02-25T14:23:33Z</time>
      </trkpt>
      <trkpt lat="44.80536" lon="6.9695">
        <ele>2023.2</ele>
        <time>2022-02-25T14:23:34Z</time>
      </trkpt>
      <trkpt lat="44.80536" lon="6.9695">
        <ele>2023.2</ele>
        <time>2022-02-25T14:23:35Z</time>
      </trkpt>
      <trkpt lat="44.80539" lon="6.9695">
        <ele>2022.5</ele>
        <time>2022-02-25T14:23:36Z</time>
      </trkpt>
      <trkpt lat="44.80539" lon="6.9695">
        <ele>2022.5</ele>
        <time>2022-02-25T14:23:37Z</time>
      </trkpt>
      <trkpt lat="44.80539" lon="6.9695">
        <ele>2022.5</ele>
        <time>2022-02-25T14:23:38Z</time>
      </trkpt>
      <trkpt lat="44.80539" lon="6.9695">
        <ele>2022.5</ele>
        <time>2022-02-25T14:23:39Z</time>
      </trkpt>
      <trkpt lat="44.80539" lon="6.9695">
        <ele>2022.5</ele>
        <time>2022-02-25T14:23:40Z</time>
      </trkpt>
      <trkpt lat="44.80539" lon="6.9695">
        <ele>2022.5</ele>
        <time>2022-02-25T14:23:41Z</time>
      </trkpt>
      <trkpt lat="44.80539" lon="6.9695">
        <ele>2022.5</ele>
        <time>2022-02-25T14:23:42Z</time>
      </trkpt>
      <trkpt lat="44.80539" lon="6.9695">
        <ele>2022.5</ele>
        <time>2022-02-25T14:23:43Z</time>
      </trkpt>
      <trkpt lat="44.8054" lon="6.9695">
        <ele>2022.3</ele>
        <time>2022-02-25T14:23:44Z</time>
      </trkpt>
      <trkpt lat="44.8054" lon="6.9695">
        <ele>2022.3</ele>
        <time>2022-02-25T14:23:45Z</time>
      </trkpt>
      <trkpt lat="44.8054" lon="6.9695">
        <ele>2022.3</ele>
        <time>2022-02-25T14:23:46Z</time>
      </trkpt>
      <trkpt lat="44.8054" lon="6.9695">
        <ele>2022.3</ele>
        <time>2022-02-25T14:23:47Z</time>
      </trkpt>
      <trkpt lat="44.8054" lon="6.9695">
        <ele>2022.3</ele>
        <time>2022-02-25T14:23:48Z</time>
      </trkpt>
      <trkpt lat="44.80541" lon="6.9695">
        <ele>2022</ele>
        <time>2022-02-25T14:23:49Z</time>
      </trkpt>
      <trkpt lat="44.80541" lon="6.9695">
        <ele>2022</ele>
        <time>2022-02-25T14:23:50Z</time>
      </trkpt>
      <trkpt lat="44.80541" lon="6.9695">
        <ele>2022</ele>
        <time>2022-02-25T14:23:51Z</time>
      </trkpt>
      <trkpt lat="44.80541" lon="6.9695">
        <ele>2022</ele>
        <time>2022-02-25T14:23:52Z</time>
      </trkpt>
      <trkpt lat="44.80541" lon="6.9695">
        <ele>2022</ele>
        <time>2022-02-25T14:23:53Z</time>
      </trkpt>
      <trkpt lat="44.80541" lon="6.9695">
        <ele>2022</ele>
        <time>2022-02-25T14:23:54Z</time>
      </trkpt>
      <trkpt lat="44.80542" lon="6.9695">
        <ele>2021.8</ele>
        <time>2022-02-25T14:23:55Z</time>
      </trkpt>
      <trkpt lat="44.80542" lon="6.9695">
        <ele>2021.8</ele>
        <time>2022-02-25T14:23:56Z</time>
      </trkpt>
      <trkpt lat="44.80542" lon="6.9695">
        <ele>2021.8</ele>
        <time>2022-02-25T14:23:57Z</time>
      </trkpt>
      <trkpt lat="44.80542" lon="6.96949">
        <ele>2022</ele>
        <time>2022-02-25T14:23:58Z</time>
      </trkpt>
      <trkpt lat="44.80542" lon="6.96949">
        <ele>2022</ele>
        <time>2022-02-25T14:23:59Z</time>
      </trkpt>
      <trkpt lat="44.80543" lon="6.96949">
        <ele>2021.8</ele>
        <time>2022-02-25T14:24:00Z</time>
      </trkpt>
      <trkpt lat="44.80543" lon="6.96949">
        <ele>2021.8</ele>
        <time>2022-02-25T14:24:01Z</time>
      </trkpt>
      <trkpt lat="44.80543" lon="6.96949">
        <ele>2021.8</ele>
        <time>2022-02-25T14:24:02Z</time>
      </trkpt>
      <trkpt lat="44.80543" lon="6.96949">
        <ele>2021.8</ele>
        <time>2022-02-25T14:24:03Z</time>
      </trkpt>
      <trkpt lat="44.80543" lon="6.96949">
        <ele>2021.8</ele>
        <time>2022-02-25T14:24:04Z</time>
      </trkpt>
      <trkpt lat="44.80544" lon="6.96949">
        <ele>2021.6</ele>
        <time>2022-02-25T14:24:05Z</time>
      </trkpt>
      <trkpt lat="44.80544" lon="6.96949">
        <ele>2021.6</ele>
        <time>2022-02-25T14:24:06Z</time>
      </trkpt>
      <trkpt lat="44.80544" lon="6.96949">
        <ele>2021.6</ele>
        <time>2022-02-25T14:24:07Z</time>
      </trkpt>
      <trkpt lat="44.80544" lon="6.96949">
        <ele>2021.6</ele>
        <time>2022-02-25T14:24:08Z</time>
      </trkpt>
      <trkpt lat="44.80544" lon="6.96949">
        <ele>2021.6</ele>
        <time>2022-02-25T14:24:09Z</time>
      </trkpt>
      <trkpt lat="44.80545" lon="6.96949">
        <ele>2021.4</ele>
        <time>2022-02-25T14:24:10Z</time>
      </trkpt>
      <trkpt lat="44.80545" lon="6.96949">
        <ele>2021.4</ele>
        <time>2022-02-25T14:24:11Z</time>
      </trkpt>
      <trkpt lat="44.80545" lon="6.96949">
        <ele>2021.4</ele>
        <time>2022-02-25T14:24:12Z</time>
      </trkpt>
      <trkpt lat="44.80545" lon="6.96949">
        <ele>2021.4</ele>
        <time>2022-02-25T14:24:13Z</time>
      </trkpt>
      <trkpt lat="44.80545" lon="6.96949">
        <ele>2021.4</ele>
        <time>2022-02-25T14:24:14Z</time>
      </trkpt>
      <trkpt lat="44.80546" lon="6.96949">
        <ele>2021.1</ele>
        <time>2022-02-25T14:24:15Z</time>
      </trkpt>
      <trkpt lat="44.80546" lon="6.96949">
        <ele>2021.1</ele>
        <time>2022-02-25T14:24:16Z</time>
      </trkpt>
      <trkpt lat="44.80546" lon="6.96949">
        <ele>2021.1</ele>
        <time>2022-02-25T14:24:17Z</time>
      </trkpt>
      <trkpt lat="44.80546" lon="6.96948">
        <ele>2021.3</ele>
        <time>2022-02-25T14:24:18Z</time>
      </trkpt>
      <trkpt lat="44.80546" lon="6.96948">
        <ele>2021.3</ele>
        <time>2022-02-25T14:24:19Z</time>
      </trkpt>
      <trkpt lat="44.80546" lon="6.96948">
        <ele>2021.3</ele>
        <time>2022-02-25T14:24:20Z</time>
      </trkpt>
      <trkpt lat="44.80547" lon="6.96948">
        <ele>2021.1</ele>
        <time>2022-02-25T14:24:21Z</time>
      </trkpt>
      <trkpt lat="44.80547" lon="6.96948">
        <ele>2021.1</ele>
        <time>2022-02-25T14:24:22Z</time>
      </trkpt>
      <trkpt lat="44.80547" lon="6.96948">
        <ele>2021.1</ele>
        <time>2022-02-25T14:24:23Z</time>
      </trkpt>
      <trkpt lat="44.80547" lon="6.96948">
        <ele>2021.1</ele>
        <time>2022-02-25T14:24:24Z</time>
      </trkpt>
      <trkpt lat="44.80547" lon="6.96948">
        <ele>2021.1</ele>
        <time>2022-02-25T14:24:25Z</time>
      </trkpt>
      <trkpt lat="44.80548" lon="6.96948">
        <ele>2020.9</ele>
        <time>2022-02-25T14:24:26Z</time>
      </trkpt>
      <trkpt lat="44.80548" lon="6.96948">
        <ele>2020.9</ele>
        <time>2022-02-25T14:24:27Z</time>
      </trkpt>
      <trkpt lat="44.80548" lon="6.96948">
        <ele>2020.9</ele>
        <time>2022-02-25T14:24:28Z</time>
      </trkpt>
      <trkpt lat="44.80548" lon="6.96948">
        <ele>2020.9</ele>
        <time>2022-02-25T14:24:29Z</time>
      </trkpt>
      <trkpt lat="44.80548" lon="6.96948">
        <ele>2020.9</ele>
        <time>2022-02-25T14:24:30Z</time>
      </trkpt>
      <trkpt lat="44.80549" lon="6.96948">
        <ele>2020.7</ele>
        <time>2022-02-25T14:24:31Z</time>
      </trkpt>
      <trkpt lat="44.80549" lon="6.96948">
        <ele>2020.7</ele>
        <time>2022-02-25T14:24:32Z</time>
      </trkpt>
      <trkpt lat="44.80549" lon="6.96948">
        <ele>2020.7</ele>
        <time>2022-02-25T14:24:33Z</time>
      </trkpt>
      <trkpt lat="44.80549" lon="6.96948">
        <ele>2020.7</ele>
        <time>2022-02-25T14:24:34Z</time>
      </trkpt>
      <trkpt lat="44.80549" lon="6.96948">
        <ele>2020.7</ele>
        <time>2022-02-25T14:24:35Z</time>
      </trkpt>
      <trkpt lat="44.8055" lon="6.96948">
        <ele>2020.5</ele>
        <time>2022-02-25T14:24:36Z</time>
      </trkpt>
      <trkpt lat="44.8055" lon="6.96948">
        <ele>2020.5</ele>
        <time>2022-02-25T14:24:37Z</time>
      </trkpt>
      <trkpt lat="44.8055" lon="6.96948">
        <ele>2020.5</ele>
        <time>2022-02-25T14:24:38Z</time>
      </trkpt>
      <trkpt lat="44.8055" lon="6.96947">
        <ele>2020.7</ele>
        <time>2022-02-25T14:24:39Z</time>
      </trkpt>
      <trkpt lat="44.8055" lon="6.96947">
        <ele>2020.7</ele>
        <time>2022-02-25T14:24:40Z</time>
      </trkpt>
      <trkpt lat="44.80551" lon="6.96947">
        <ele>2020.4</ele>
        <time>2022-02-25T14:24:41Z</time>
      </trkpt>
      <trkpt lat="44.80551" lon="6.96947">
        <ele>2020.4</ele>
        <time>2022-02-25T14:24:42Z</time>
      </trkpt>
      <trkpt lat="44.80551" lon="6.96947">
        <ele>2020.4</ele>
        <time>2022-02-25T14:24:43Z</time>
      </trkpt>
      <trkpt lat="44.80551" lon="6.96947">
        <ele>2020.4</ele>
        <time>2022-02-25T14:24:44Z</time>
      </trkpt>
      <trkpt lat="44.80551" lon="6.96947">
        <ele>2020.4</ele>
        <time>2022-02-25T14:24:45Z</time>
      </trkpt>
      <trkpt lat="44.80551" lon="6.96947">
        <ele>2020.4</ele>
        <time>2022-02-25T14:24:46Z</time>
      </trkpt>
      <trkpt lat="44.80552" lon="6.96947">
        <ele>2020.2</ele>
        <time>2022-02-25T14:24:47Z</time>
      </trkpt>
      <trkpt lat="44.80552" lon="6.96947">
        <ele>2020.2</ele>
        <time>2022-02-25T14:24:48Z</time>
      </trkpt>
      <trkpt lat="44.80552" lon="6.96947">
        <ele>2020.2</ele>
        <time>2022-02-25T14:24:49Z</time>
      </trkpt>
      <trkpt lat="44.80552" lon="6.96947">
        <ele>2020.2</ele>
        <time>2022-02-25T14:24:50Z</time>
      </trkpt>
      <trkpt lat="44.80552" lon="6.96947">
        <ele>2020.2</ele>
        <time>2022-02-25T14:24:51Z</time>
      </trkpt>
      <trkpt lat="44.80553" lon="6.96947">
        <ele>2020</ele>
        <time>2022-02-25T14:24:52Z</time>
      </trkpt>
      <trkpt lat="44.80553" lon="6.96947">
        <ele>2020</ele>
        <time>2022-02-25T14:24:53Z</time>
      </trkpt>
      <trkpt lat="44.80553" lon="6.96947">
        <ele>2020</ele>
        <time>2022-02-25T14:24:54Z</time>
      </trkpt>
      <trkpt lat="44.80553" lon="6.96947">
        <ele>2020</ele>
        <time>2022-02-25T14:24:55Z</time>
      </trkpt>
      <trkpt lat="44.80553" lon="6.96947">
        <ele>2020</ele>
        <time>2022-02-25T14:24:56Z</time>
      </trkpt>
      <trkpt lat="44.80554" lon="6.96947">
        <ele>2019.8</ele>
        <time>2022-02-25T14:24:57Z</time>
      </trkpt>
      <trkpt lat="44.80554" lon="6.96947">
        <ele>2019.8</ele>
        <time>2022-02-25T14:24:58Z</time>
      </trkpt>
      <trkpt lat="44.80554" lon="6.96947">
        <ele>2019.8</ele>
        <time>2022-02-25T14:24:59Z</time>
      </trkpt>
      <trkpt lat="44.80554" lon="6.96946">
        <ele>2020</ele>
        <time>2022-02-25T14:25:00Z</time>
      </trkpt>
      <trkpt lat="44.80554" lon="6.96946">
        <ele>2020</ele>
        <time>2022-02-25T14:25:01Z</time>
      </trkpt>
      <trkpt lat="44.80555" lon="6.96946">
        <ele>2019.8</ele>
        <time>2022-02-25T14:25:02Z</time>
      </trkpt>
      <trkpt lat="44.80555" lon="6.96946">
        <ele>2019.8</ele>
        <time>2022-02-25T14:25:03Z</time>
      </trkpt>
      <trkpt lat="44.80555" lon="6.96946">
        <ele>2019.8</ele>
        <time>2022-02-25T14:25:04Z</time>
      </trkpt>
      <trkpt lat="44.80555" lon="6.96946">
        <ele>2019.8</ele>
        <time>2022-02-25T14:25:05Z</time>
      </trkpt>
      <trkpt lat="44.80555" lon="6.96946">
        <ele>2019.8</ele>
        <time>2022-02-25T14:25:06Z</time>
      </trkpt>
      <trkpt lat="44.80556" lon="6.96946">
        <ele>2019.5</ele>
        <time>2022-02-25T14:25:07Z</time>
      </trkpt>
      <trkpt lat="44.80556" lon="6.96946">
        <ele>2019.5</ele>
        <time>2022-02-25T14:25:08Z</time>
      </trkpt>
      <trkpt lat="44.80556" lon="6.96946">
        <ele>2019.5</ele>
        <time>2022-02-25T14:25:09Z</time>
      </trkpt>
      <trkpt lat="44.8056" lon="6.96945">
        <ele>2018.6</ele>
        <time>2022-02-25T14:25:10Z</time>
      </trkpt>
      <trkpt lat="44.80565" lon="6.96943">
        <ele>2017.5</ele>
        <time>2022-02-25T14:25:11Z</time>
      </trkpt>
      <trkpt lat="44.80571" lon="6.96942">
        <ele>2016</ele>
        <time>2022-02-25T14:25:12Z</time>
      </trkpt>
      <trkpt lat="44.80578" lon="6.96942">
        <ele>2014</ele>
        <time>2022-02-25T14:25:13Z</time>
      </trkpt>
      <trkpt lat="44.80584" lon="6.96942">
        <ele>2012.2</ele>
        <time>2022-02-25T14:25:14Z</time>
      </trkpt>
      <trkpt lat="44.80588" lon="6.96941">
        <ele>2011.3</ele>
        <time>2022-02-25T14:25:15Z</time>
      </trkpt>
      <trkpt lat="44.80592" lon="6.9694">
        <ele>2010.3</ele>
        <time>2022-02-25T14:25:16Z</time>
      </trkpt>
      <trkpt lat="44.80596" lon="6.96939">
        <ele>2009.2</ele>
        <time>2022-02-25T14:25:17Z</time>
      </trkpt>
      <trkpt lat="44.80599" lon="6.96938">
        <ele>2008.5</ele>
        <time>2022-02-25T14:25:18Z</time>
      </trkpt>
      <trkpt lat="44.80602" lon="6.96937">
        <ele>2007.8</ele>
        <time>2022-02-25T14:25:19Z</time>
      </trkpt>
      <trkpt lat="44.80602" lon="6.96937">
        <ele>2007.8</ele>
        <time>2022-02-25T14:25:20Z</time>
      </trkpt>
      <trkpt lat="44.80602" lon="6.96937">
        <ele>2007.8</ele>
        <time>2022-02-25T14:25:21Z</time>
      </trkpt>
      <trkpt lat="44.80602" lon="6.96937">
        <ele>2007.8</ele>
        <time>2022-02-25T14:25:22Z</time>
      </trkpt>
      <trkpt lat="44.80602" lon="6.96937">
        <ele>2007.8</ele>
        <time>2022-02-25T14:25:23Z</time>
      </trkpt>
      <trkpt lat="44.80602" lon="6.96937">
        <ele>2007.8</ele>
        <time>2022-02-25T14:25:24Z</time>
      </trkpt>
      <trkpt lat="44.80602" lon="6.96937">
        <ele>2007.8</ele>
        <time>2022-02-25T14:25:25Z</time>
      </trkpt>
      <trkpt lat="44.80602" lon="6.96937">
        <ele>2007.8</ele>
        <time>2022-02-25T14:25:26Z</time>
      </trkpt>
      <trkpt lat="44.80602" lon="6.96937">
        <ele>2007.8</ele>
        <time>2022-02-25T14:25:27Z</time>
      </trkpt>
      <trkpt lat="44.80602" lon="6.96937">
        <ele>2007.8</ele>
        <time>2022-02-25T14:25:28Z</time>
      </trkpt>
      <trkpt lat="44.80602" lon="6.96937">
        <ele>2007.8</ele>
        <time>2022-02-25T14:25:29Z</time>
      </trkpt>
      <trkpt lat="44.80602" lon="6.96937">
        <ele>2007.8</ele>
        <time>2022-02-25T14:25:30Z</time>
      </trkpt>
      <trkpt lat="44.80602" lon="6.96937">
        <ele>2007.8</ele>
        <time>2022-02-25T14:25:31Z</time>
      </trkpt>
      <trkpt lat="44.80602" lon="6.96937">
        <ele>2007.8</ele>
        <time>2022-02-25T14:25:32Z</time>
      </trkpt>
      <trkpt lat="44.80602" lon="6.96937">
        <ele>2007.8</ele>
        <time>2022-02-25T14:25:33Z</time>
      </trkpt>
      <trkpt lat="44.80602" lon="6.96937">
        <ele>2007.8</ele>
        <time>2022-02-25T14:25:34Z</time>
      </trkpt>
      <trkpt lat="44.80602" lon="6.96937">
        <ele>2007.8</ele>
        <time>2022-02-25T14:25:35Z</time>
      </trkpt>
      <trkpt lat="44.80602" lon="6.96937">
        <ele>2007.8</ele>
        <time>2022-02-25T14:25:36Z</time>
      </trkpt>
      <trkpt lat="44.80604" lon="6.96936">
        <ele>2007.3</ele>
        <time>2022-02-25T14:25:37Z</time>
      </trkpt>
      <trkpt lat="44.80604" lon="6.96936">
        <ele>2007.3</ele>
        <time>2022-02-25T14:25:38Z</time>
      </trkpt>
      <trkpt lat="44.80606" lon="6.96934">
        <ele>2007</ele>
        <time>2022-02-25T14:25:39Z</time>
      </trkpt>
      <trkpt lat="44.80609" lon="6.96934">
        <ele>2006.1</ele>
        <time>2022-02-25T14:25:40Z</time>
      </trkpt>
      <trkpt lat="44.80613" lon="6.96936">
        <ele>2004.6</ele>
        <time>2022-02-25T14:25:41Z</time>
      </trkpt>
      <trkpt lat="44.80617" lon="6.96938">
        <ele>2003</ele>
        <time>2022-02-25T14:25:42Z</time>
      </trkpt>
      <trkpt lat="44.80624" lon="6.96938">
        <ele>2000.8</ele>
        <time>2022-02-25T14:25:43Z</time>
      </trkpt>
      <trkpt lat="44.80629" lon="6.96937">
        <ele>1999.3</ele>
        <time>2022-02-25T14:25:44Z</time>
      </trkpt>
      <trkpt lat="44.80635" lon="6.96937">
        <ele>1997.3</ele>
        <time>2022-02-25T14:25:45Z</time>
      </trkpt>
      <trkpt lat="44.80641" lon="6.96937">
        <ele>1995.5</ele>
        <time>2022-02-25T14:25:46Z</time>
      </trkpt>
      <trkpt lat="44.80648" lon="6.96935">
        <ele>1993.7</ele>
        <time>2022-02-25T14:25:47Z</time>
      </trkpt>
      <trkpt lat="44.80653" lon="6.96932">
        <ele>1992.7</ele>
        <time>2022-02-25T14:25:48Z</time>
      </trkpt>
      <trkpt lat="44.80657" lon="6.9693">
        <ele>1991.9</ele>
        <time>2022-02-25T14:25:49Z</time>
      </trkpt>
      <trkpt lat="44.80662" lon="6.96931">
        <ele>1990.3</ele>
        <time>2022-02-25T14:25:50Z</time>
      </trkpt>
      <trkpt lat="44.80667" lon="6.96931">
        <ele>1988.8</ele>
        <time>2022-02-25T14:25:51Z</time>
      </trkpt>
      <trkpt lat="44.80671" lon="6.96929">
        <ele>1988</ele>
        <time>2022-02-25T14:25:52Z</time>
      </trkpt>
      <trkpt lat="44.80675" lon="6.96927">
        <ele>1987</ele>
        <time>2022-02-25T14:25:53Z</time>
      </trkpt>
      <trkpt lat="44.80678" lon="6.96925">
        <ele>1986.4</ele>
        <time>2022-02-25T14:25:54Z</time>
      </trkpt>
      <trkpt lat="44.8068" lon="6.96921">
        <ele>1986.2</ele>
        <time>2022-02-25T14:25:55Z</time>
      </trkpt>
      <trkpt lat="44.80682" lon="6.96917">
        <ele>1986</ele>
        <time>2022-02-25T14:25:56Z</time>
      </trkpt>
      <trkpt lat="44.80685" lon="6.96913">
        <ele>1985.4</ele>
        <time>2022-02-25T14:25:57Z</time>
      </trkpt>
      <trkpt lat="44.80689" lon="6.96912">
        <ele>1984.1</ele>
        <time>2022-02-25T14:25:58Z</time>
      </trkpt>
      <trkpt lat="44.80694" lon="6.96913">
        <ele>1982.4</ele>
        <time>2022-02-25T14:25:59Z</time>
      </trkpt>
      <trkpt lat="44.807" lon="6.96913">
        <ele>1980.6</ele>
        <time>2022-02-25T14:26:00Z</time>
      </trkpt>
      <trkpt lat="44.80705" lon="6.9691">
        <ele>1979.3</ele>
        <time>2022-02-25T14:26:01Z</time>
      </trkpt>
      <trkpt lat="44.8071" lon="6.96908">
        <ele>1977.8</ele>
        <time>2022-02-25T14:26:02Z</time>
      </trkpt>
      <trkpt lat="44.80715" lon="6.96907">
        <ele>1976.3</ele>
        <time>2022-02-25T14:26:03Z</time>
      </trkpt>
      <trkpt lat="44.80722" lon="6.96907">
        <ele>1974.1</ele>
        <time>2022-02-25T14:26:04Z</time>
      </trkpt>
      <trkpt lat="44.80727" lon="6.96906">
        <ele>1972.5</ele>
        <time>2022-02-25T14:26:05Z</time>
      </trkpt>
      <trkpt lat="44.80732" lon="6.96903">
        <ele>1970.8</ele>
        <time>2022-02-25T14:26:06Z</time>
      </trkpt>
      <trkpt lat="44.80736" lon="6.96901">
        <ele>1969.5</ele>
        <time>2022-02-25T14:26:07Z</time>
      </trkpt>
      <trkpt lat="44.80739" lon="6.96901">
        <ele>1968.5</ele>
        <time>2022-02-25T14:26:08Z</time>
      </trkpt>
      <trkpt lat="44.80744" lon="6.96902">
        <ele>1966.9</ele>
        <time>2022-02-25T14:26:09Z</time>
      </trkpt>
      <trkpt lat="44.80748" lon="6.96901">
        <ele>1965.5</ele>
        <time>2022-02-25T14:26:10Z</time>
      </trkpt>
      <trkpt lat="44.80751" lon="6.96898">
        <ele>1964.3</ele>
        <time>2022-02-25T14:26:11Z</time>
      </trkpt>
      <trkpt lat="44.80755" lon="6.96895">
        <ele>1962.7</ele>
        <time>2022-02-25T14:26:12Z</time>
      </trkpt>
      <trkpt lat="44.80758" lon="6.96893">
        <ele>1961.5</ele>
        <time>2022-02-25T14:26:13Z</time>
      </trkpt>
      <trkpt lat="44.80763" lon="6.96892">
        <ele>1959.6</ele>
        <time>2022-02-25T14:26:14Z</time>
      </trkpt>
      <trkpt lat="44.8077" lon="6.9689">
        <ele>1956.9</ele>
        <time>2022-02-25T14:26:15Z</time>
      </trkpt>
      <trkpt lat="44.80775" lon="6.96888">
        <ele>1954.9</ele>
        <time>2022-02-25T14:26:16Z</time>
      </trkpt>
      <trkpt lat="44.80779" lon="6.96888">
        <ele>1953.5</ele>
        <time>2022-02-25T14:26:17Z</time>
      </trkpt>
      <trkpt lat="44.80784" lon="6.96888">
        <ele>1951.7</ele>
        <time>2022-02-25T14:26:18Z</time>
      </trkpt>
      <trkpt lat="44.8079" lon="6.96888">
        <ele>1949.5</ele>
        <time>2022-02-25T14:26:19Z</time>
      </trkpt>
      <trkpt lat="44.80797" lon="6.96885">
        <ele>1946.7</ele>
        <time>2022-02-25T14:26:20Z</time>
      </trkpt>
      <trkpt lat="44.80801" lon="6.96882">
        <ele>1944.9</ele>
        <time>2022-02-25T14:26:21Z</time>
      </trkpt>
      <trkpt lat="44.80804" lon="6.96879">
        <ele>1943.5</ele>
        <time>2022-02-25T14:26:22Z</time>
      </trkpt>
      <trkpt lat="44.80809" lon="6.96879">
        <ele>1941.6</ele>
        <time>2022-02-25T14:26:23Z</time>
      </trkpt>
      <trkpt lat="44.80813" lon="6.96877">
        <ele>1939.9</ele>
        <time>2022-02-25T14:26:24Z</time>
      </trkpt>
      <trkpt lat="44.80815" lon="6.96872">
        <ele>1938.6</ele>
        <time>2022-02-25T14:26:25Z</time>
      </trkpt>
      <trkpt lat="44.80817" lon="6.96866">
        <ele>1937.1</ele>
        <time>2022-02-25T14:26:26Z</time>
      </trkpt>
      <trkpt lat="44.80818" lon="6.96863">
        <ele>1936.3</ele>
        <time>2022-02-25T14:26:27Z</time>
      </trkpt>
      <trkpt lat="44.80818" lon="6.96863">
        <ele>1936.3</ele>
        <time>2022-02-25T14:26:28Z</time>
      </trkpt>
      <trkpt lat="44.80818" lon="6.9686">
        <ele>1936</ele>
        <time>2022-02-25T14:26:29Z</time>
      </trkpt>
      <trkpt lat="44.80818" lon="6.9686">
        <ele>1936</ele>
        <time>2022-02-25T14:26:30Z</time>
      </trkpt>
      <trkpt lat="44.80818" lon="6.9686">
        <ele>1936</ele>
        <time>2022-02-25T14:26:31Z</time>
      </trkpt>
      <trkpt lat="44.80818" lon="6.9686">
        <ele>1936</ele>
        <time>2022-02-25T14:26:32Z</time>
      </trkpt>
      <trkpt lat="44.80818" lon="6.9686">
        <ele>1936</ele>
        <time>2022-02-25T14:26:33Z</time>
      </trkpt>
      <trkpt lat="44.80818" lon="6.9686">
        <ele>1936</ele>
        <time>2022-02-25T14:26:34Z</time>
      </trkpt>
      <trkpt lat="44.80818" lon="6.9686">
        <ele>1936</ele>
        <time>2022-02-25T14:26:35Z</time>
      </trkpt>
      <trkpt lat="44.80818" lon="6.9686">
        <ele>1936</ele>
        <time>2022-02-25T14:26:36Z</time>
      </trkpt>
      <trkpt lat="44.80818" lon="6.9686">
        <ele>1936</ele>
        <time>2022-02-25T14:26:37Z</time>
      </trkpt>
      <trkpt lat="44.80818" lon="6.9686">
        <ele>1936</ele>
        <time>2022-02-25T14:26:38Z</time>
      </trkpt>
      <trkpt lat="44.80818" lon="6.9686">
        <ele>1936</ele>
        <time>2022-02-25T14:26:39Z</time>
      </trkpt>
      <trkpt lat="44.80818" lon="6.9686">
        <ele>1936</ele>
        <time>2022-02-25T14:26:40Z</time>
      </trkpt>
      <trkpt lat="44.80818" lon="6.9686">
        <ele>1936</ele>
        <time>2022-02-25T14:26:41Z</time>
      </trkpt>
      <trkpt lat="44.80818" lon="6.9686">
        <ele>1936</ele>
        <time>2022-02-25T14:26:42Z</time>
      </trkpt>
      <trkpt lat="44.80818" lon="6.9686">
        <ele>1936</ele>
        <time>2022-02-25T14:26:43Z</time>
      </trkpt>
      <trkpt lat="44.80818" lon="6.9686">
        <ele>1936</ele>
        <time>2022-02-25T14:26:44Z</time>
      </trkpt>
      <trkpt lat="44.80818" lon="6.9686">
        <ele>1936</ele>
        <time>2022-02-25T14:26:45Z</time>
      </trkpt>
      <trkpt lat="44.80818" lon="6.9686">
        <ele>1936</ele>
        <time>2022-02-25T14:26:46Z</time>
      </trkpt>
      <trkpt lat="44.80818" lon="6.9686">
        <ele>1936</ele>
        <time>2022-02-25T14:26:47Z</time>
      </trkpt>
      <trkpt lat="44.80818" lon="6.9686">
        <ele>1936</ele>
        <time>2022-02-25T14:26:48Z</time>
      </trkpt>
      <trkpt lat="44.80818" lon="6.9686">
        <ele>1936</ele>
        <time>2022-02-25T14:26:49Z</time>
      </trkpt>
      <trkpt lat="44.80818" lon="6.9686">
        <ele>1936</ele>
        <time>2022-02-25T14:26:50Z</time>
      </trkpt>
      <trkpt lat="44.80818" lon="6.9686">
        <ele>1936</ele>
        <time>2022-02-25T14:26:51Z</time>
      </trkpt>
      <trkpt lat="44.80818" lon="6.9686">
        <ele>1936</ele>
        <time>2022-02-25T14:26:52Z</time>
      </trkpt>
      <trkpt lat="44.80818" lon="6.9686">
        <ele>1936</ele>
        <time>2022-02-25T14:26:53Z</time>
      </trkpt>
      <trkpt lat="44.80818" lon="6.9686">
        <ele>1936</ele>
        <time>2022-02-25T14:26:54Z</time>
      </trkpt>
      <trkpt lat="44.80818" lon="6.9686">
        <ele>1936</ele>
        <time>2022-02-25T14:26:55Z</time>
      </trkpt>
      <trkpt lat="44.80818" lon="6.9686">
        <ele>1936</ele>
        <time>2022-02-25T14:26:56Z</time>
      </trkpt>
      <trkpt lat="44.80818" lon="6.9686">
        <ele>1936</ele>
        <time>2022-02-25T14:26:57Z</time>
      </trkpt>
      <trkpt lat="44.80818" lon="6.9686">
        <ele>1936</ele>
        <time>2022-02-25T14:26:58Z</time>
      </trkpt>
      <trkpt lat="44.80818" lon="6.9686">
        <ele>1936</ele>
        <time>2022-02-25T14:26:59Z</time>
      </trkpt>
      <trkpt lat="44.80818" lon="6.9686">
        <ele>1936</ele>
        <time>2022-02-25T14:27:00Z</time>
      </trkpt>
      <trkpt lat="44.80818" lon="6.9686">
        <ele>1936</ele>
        <time>2022-02-25T14:27:01Z</time>
      </trkpt>
      <trkpt lat="44.80818" lon="6.9686">
        <ele>1936</ele>
        <time>2022-02-25T14:27:02Z</time>
      </trkpt>
      <trkpt lat="44.80818" lon="6.9686">
        <ele>1936</ele>
        <time>2022-02-25T14:27:03Z</time>
      </trkpt>
      <trkpt lat="44.80818" lon="6.9686">
        <ele>1936</ele>
        <time>2022-02-25T14:27:04Z</time>
      </trkpt>
      <trkpt lat="44.80818" lon="6.9686">
        <ele>1936</ele>
        <time>2022-02-25T14:27:05Z</time>
      </trkpt>
      <trkpt lat="44.80818" lon="6.9686">
        <ele>1936</ele>
        <time>2022-02-25T14:27:06Z</time>
      </trkpt>
      <trkpt lat="44.80818" lon="6.9686">
        <ele>1936</ele>
        <time>2022-02-25T14:27:07Z</time>
      </trkpt>
      <trkpt lat="44.80818" lon="6.9686">
        <ele>1936</ele>
        <time>2022-02-25T14:27:08Z</time>
      </trkpt>
      <trkpt lat="44.80818" lon="6.9686">
        <ele>1936</ele>
        <time>2022-02-25T14:27:09Z</time>
      </trkpt>
      <trkpt lat="44.80822" lon="6.96859">
        <ele>1934.3</ele>
        <time>2022-02-25T14:27:10Z</time>
      </trkpt>
      <trkpt lat="44.80822" lon="6.96859">
        <ele>1934.3</ele>
        <time>2022-02-25T14:27:11Z</time>
      </trkpt>
      <trkpt lat="44.80824" lon="6.96858">
        <ele>1933.4</ele>
        <time>2022-02-25T14:27:12Z</time>
      </trkpt>
      <trkpt lat="44.80826" lon="6.96856">
        <ele>1932.4</ele>
        <time>2022-02-25T14:27:13Z</time>
      </trkpt>
      <trkpt lat="44.80829" lon="6.96857">
        <ele>1931.3</ele>
        <time>2022-02-25T14:27:14Z</time>
      </trkpt>
      <trkpt lat="44.80829" lon="6.96857">
        <ele>1931.3</ele>
        <time>2022-02-25T14:27:15Z</time>
      </trkpt>
      <trkpt lat="44.80832" lon="6.96858">
        <ele>1930.2</ele>
        <time>2022-02-25T14:27:16Z</time>
      </trkpt>
      <trkpt lat="44.80832" lon="6.96858">
        <ele>1930.2</ele>
        <time>2022-02-25T14:27:17Z</time>
      </trkpt>
      <trkpt lat="44.80835" lon="6.96854">
        <ele>1928.5</ele>
        <time>2022-02-25T14:27:18Z</time>
      </trkpt>
      <trkpt lat="44.80838" lon="6.96854">
        <ele>1927.2</ele>
        <time>2022-02-25T14:27:19Z</time>
      </trkpt>
      <trkpt lat="44.80842" lon="6.96853">
        <ele>1925.4</ele>
        <time>2022-02-25T14:27:20Z</time>
      </trkpt>
      <trkpt lat="44.80843" lon="6.96853">
        <ele>1924.9</ele>
        <time>2022-02-25T14:27:21Z</time>
      </trkpt>
      <trkpt lat="44.80845" lon="6.96851">
        <ele>1923.9</ele>
        <time>2022-02-25T14:27:22Z</time>
      </trkpt>
      <trkpt lat="44.80847" lon="6.9685">
        <ele>1922.9</ele>
        <time>2022-02-25T14:27:23Z</time>
      </trkpt>
      <trkpt lat="44.80851" lon="6.96851">
        <ele>1921.3</ele>
        <time>2022-02-25T14:27:24Z</time>
      </trkpt>
      <trkpt lat="44.80853" lon="6.96853">
        <ele>1920.6</ele>
        <time>2022-02-25T14:27:25Z</time>
      </trkpt>
      <trkpt lat="44.80854" lon="6.96855">
        <ele>1920.4</ele>
        <time>2022-02-25T14:27:26Z</time>
      </trkpt>
      <trkpt lat="44.80854" lon="6.96855">
        <ele>1920.4</ele>
        <time>2022-02-25T14:27:27Z</time>
      </trkpt>
      <trkpt lat="44.80854" lon="6.96855">
        <ele>1920.4</ele>
        <time>2022-02-25T14:27:28Z</time>
      </trkpt>
      <trkpt lat="44.80854" lon="6.96855">
        <ele>1920.4</ele>
        <time>2022-02-25T14:27:29Z</time>
      </trkpt>
      <trkpt lat="44.80854" lon="6.96855">
        <ele>1920.4</ele>
        <time>2022-02-25T14:27:30Z</time>
      </trkpt>
      <trkpt lat="44.80854" lon="6.96855">
        <ele>1920.4</ele>
        <time>2022-02-25T14:27:31Z</time>
      </trkpt>
      <trkpt lat="44.80854" lon="6.96855">
        <ele>1920.4</ele>
        <time>2022-02-25T14:27:32Z</time>
      </trkpt>
      <trkpt lat="44.80854" lon="6.96855">
        <ele>1920.4</ele>
        <time>2022-02-25T14:27:33Z</time>
      </trkpt>
      <trkpt lat="44.80854" lon="6.96855">
        <ele>1920.4</ele>
        <time>2022-02-25T14:27:34Z</time>
      </trkpt>
      <trkpt lat="44.80856" lon="6.96855">
        <ele>1919.5</ele>
        <time>2022-02-25T14:27:35Z</time>
      </trkpt>
      <trkpt lat="44.80857" lon="6.96852">
        <ele>1918.8</ele>
        <time>2022-02-25T14:27:36Z</time>
      </trkpt>
      <trkpt lat="44.80857" lon="6.96852">
        <ele>1918.8</ele>
        <time>2022-02-25T14:27:37Z</time>
      </trkpt>
      <trkpt lat="44.80858" lon="6.96847">
        <ele>1917.8</ele>
        <time>2022-02-25T14:27:38Z</time>
      </trkpt>
      <trkpt lat="44.80858" lon="6.96847">
        <ele>1917.8</ele>
        <time>2022-02-25T14:27:39Z</time>
      </trkpt>
      <trkpt lat="44.8086" lon="6.96846">
        <ele>1916.8</ele>
        <time>2022-02-25T14:27:40Z</time>
      </trkpt>
      <trkpt lat="44.8086" lon="6.96846">
        <ele>1916.8</ele>
        <time>2022-02-25T14:27:41Z</time>
      </trkpt>
      <trkpt lat="44.80861" lon="6.96846">
        <ele>1916.4</ele>
        <time>2022-02-25T14:27:42Z</time>
      </trkpt>
      <trkpt lat="44.80863" lon="6.96844">
        <ele>1915.3</ele>
        <time>2022-02-25T14:27:43Z</time>
      </trkpt>
      <trkpt lat="44.80865" lon="6.96842">
        <ele>1914.3</ele>
        <time>2022-02-25T14:27:44Z</time>
      </trkpt>
      <trkpt lat="44.80867" lon="6.96843">
        <ele>1913.5</ele>
        <time>2022-02-25T14:27:45Z</time>
      </trkpt>
      <trkpt lat="44.80869" lon="6.96844">
        <ele>1912.7</ele>
        <time>2022-02-25T14:27:46Z</time>
      </trkpt>
      <trkpt lat="44.80869" lon="6.96844">
        <ele>1912.7</ele>
        <time>2022-02-25T14:27:47Z</time>
      </trkpt>
      <trkpt lat="44.80872" lon="6.96843">
        <ele>1911.3</ele>
        <time>2022-02-25T14:27:48Z</time>
      </trkpt>
      <trkpt lat="44.80874" lon="6.96841">
        <ele>1910.3</ele>
        <time>2022-02-25T14:27:49Z</time>
      </trkpt>
      <trkpt lat="44.80876" lon="6.9684">
        <ele>1909.3</ele>
        <time>2022-02-25T14:27:50Z</time>
      </trkpt>
      <trkpt lat="44.80879" lon="6.96841">
        <ele>1908.1</ele>
        <time>2022-02-25T14:27:51Z</time>
      </trkpt>
      <trkpt lat="44.80879" lon="6.96841">
        <ele>1908.1</ele>
        <time>2022-02-25T14:27:52Z</time>
      </trkpt>
      <trkpt lat="44.80882" lon="6.96841">
        <ele>1906.8</ele>
        <time>2022-02-25T14:27:53Z</time>
      </trkpt>
      <trkpt lat="44.80883" lon="6.96839">
        <ele>1906.2</ele>
        <time>2022-02-25T14:27:54Z</time>
      </trkpt>
      <trkpt lat="44.80885" lon="6.96837">
        <ele>1905.1</ele>
        <time>2022-02-25T14:27:55Z</time>
      </trkpt>
      <trkpt lat="44.80887" lon="6.96838">
        <ele>1904.3</ele>
        <time>2022-02-25T14:27:56Z</time>
      </trkpt>
      <trkpt lat="44.80888" lon="6.9684">
        <ele>1904.1</ele>
        <time>2022-02-25T14:27:57Z</time>
      </trkpt>
      <trkpt lat="44.80888" lon="6.9684">
        <ele>1904.1</ele>
        <time>2022-02-25T14:27:58Z</time>
      </trkpt>
      <trkpt lat="44.80888" lon="6.9684">
        <ele>1904.1</ele>
        <time>2022-02-25T14:27:59Z</time>
      </trkpt>
      <trkpt lat="44.80891" lon="6.96839">
        <ele>1902.8</ele>
        <time>2022-02-25T14:28:00Z</time>
      </trkpt>
      <trkpt lat="44.80892" lon="6.96837">
        <ele>1902.3</ele>
        <time>2022-02-25T14:28:01Z</time>
      </trkpt>
      <trkpt lat="44.80894" lon="6.96837">
        <ele>1901.5</ele>
        <time>2022-02-25T14:28:02Z</time>
      </trkpt>
      <trkpt lat="44.80896" lon="6.96838">
        <ele>1900.9</ele>
        <time>2022-02-25T14:28:03Z</time>
      </trkpt>
      <trkpt lat="44.809" lon="6.96838">
        <ele>1899.4</ele>
        <time>2022-02-25T14:28:04Z</time>
      </trkpt>
      <trkpt lat="44.80902" lon="6.96837">
        <ele>1898.6</ele>
        <time>2022-02-25T14:28:05Z</time>
      </trkpt>
      <trkpt lat="44.80904" lon="6.96835">
        <ele>1897.7</ele>
        <time>2022-02-25T14:28:06Z</time>
      </trkpt>
      <trkpt lat="44.80907" lon="6.96833">
        <ele>1896.4</ele>
        <time>2022-02-25T14:28:07Z</time>
      </trkpt>
      <trkpt lat="44.80907" lon="6.96833">
        <ele>1896.4</ele>
        <time>2022-02-25T14:28:08Z</time>
      </trkpt>
      <trkpt lat="44.80909" lon="6.96834">
        <ele>1895.8</ele>
        <time>2022-02-25T14:28:09Z</time>
      </trkpt>
      <trkpt lat="44.80912" lon="6.96833">
        <ele>1894.6</ele>
        <time>2022-02-25T14:28:10Z</time>
      </trkpt>
      <trkpt lat="44.8091" lon="6.9683">
        <ele>1894.9</ele>
        <time>2022-02-25T14:28:11Z</time>
      </trkpt>
      <trkpt lat="44.8091" lon="6.9683">
        <ele>1894.9</ele>
        <time>2022-02-25T14:28:12Z</time>
      </trkpt>
      <trkpt lat="44.8091" lon="6.96826">
        <ele>1894.2</ele>
        <time>2022-02-25T14:28:13Z</time>
      </trkpt>
      <trkpt lat="44.8091" lon="6.96826">
        <ele>1894.2</ele>
        <time>2022-02-25T14:28:14Z</time>
      </trkpt>
      <trkpt lat="44.8091" lon="6.96826">
        <ele>1894.2</ele>
        <time>2022-02-25T14:28:15Z</time>
      </trkpt>
      <trkpt lat="44.80912" lon="6.96824">
        <ele>1893.1</ele>
        <time>2022-02-25T14:28:16Z</time>
      </trkpt>
      <trkpt lat="44.80912" lon="6.96824">
        <ele>1893.1</ele>
        <time>2022-02-25T14:28:17Z</time>
      </trkpt>
      <trkpt lat="44.80914" lon="6.96823">
        <ele>1892.2</ele>
        <time>2022-02-25T14:28:18Z</time>
      </trkpt>
      <trkpt lat="44.80916" lon="6.96823">
        <ele>1891.4</ele>
        <time>2022-02-25T14:28:19Z</time>
      </trkpt>
      <trkpt lat="44.80916" lon="6.96823">
        <ele>1891.4</ele>
        <time>2022-02-25T14:28:20Z</time>
      </trkpt>
      <trkpt lat="44.80918" lon="6.96824">
        <ele>1890.7</ele>
        <time>2022-02-25T14:28:21Z</time>
      </trkpt>
      <trkpt lat="44.8092" lon="6.96823">
        <ele>1889.7</ele>
        <time>2022-02-25T14:28:22Z</time>
      </trkpt>
      <trkpt lat="44.80923" lon="6.96822">
        <ele>1888.1</ele>
        <time>2022-02-25T14:28:23Z</time>
      </trkpt>
      <trkpt lat="44.80925" lon="6.96821">
        <ele>1887</ele>
        <time>2022-02-25T14:28:24Z</time>
      </trkpt>
      <trkpt lat="44.80928" lon="6.96821">
        <ele>1885.7</ele>
        <time>2022-02-25T14:28:25Z</time>
      </trkpt>
      <trkpt lat="44.8093" lon="6.96819">
        <ele>1884.4</ele>
        <time>2022-02-25T14:28:26Z</time>
      </trkpt>
      <trkpt lat="44.80932" lon="6.96818">
        <ele>1883.3</ele>
        <time>2022-02-25T14:28:27Z</time>
      </trkpt>
      <trkpt lat="44.80932" lon="6.96818">
        <ele>1883.3</ele>
        <time>2022-02-25T14:28:28Z</time>
      </trkpt>
      <trkpt lat="44.80935" lon="6.96817">
        <ele>1881.8</ele>
        <time>2022-02-25T14:28:29Z</time>
      </trkpt>
      <trkpt lat="44.80937" lon="6.96815">
        <ele>1880.4</ele>
        <time>2022-02-25T14:28:30Z</time>
      </trkpt>
      <trkpt lat="44.8094" lon="6.96813">
        <ele>1878.6</ele>
        <time>2022-02-25T14:28:31Z</time>
      </trkpt>
      <trkpt lat="44.80942" lon="6.96812">
        <ele>1877.5</ele>
        <time>2022-02-25T14:28:32Z</time>
      </trkpt>
      <trkpt lat="44.80946" lon="6.96811">
        <ele>1875.7</ele>
        <time>2022-02-25T14:28:33Z</time>
      </trkpt>
      <trkpt lat="44.80949" lon="6.96809">
        <ele>1874.5</ele>
        <time>2022-02-25T14:28:34Z</time>
      </trkpt>
      <trkpt lat="44.80954" lon="6.96807">
        <ele>1872.8</ele>
        <time>2022-02-25T14:28:35Z</time>
      </trkpt>
      <trkpt lat="44.80959" lon="6.96806">
        <ele>1871.4</ele>
        <time>2022-02-25T14:28:36Z</time>
      </trkpt>
      <trkpt lat="44.80967" lon="6.96806">
        <ele>1869.4</ele>
        <time>2022-02-25T14:28:37Z</time>
      </trkpt>
      <trkpt lat="44.80975" lon="6.96805">
        <ele>1867.8</ele>
        <time>2022-02-25T14:28:38Z</time>
      </trkpt>
      <trkpt lat="44.80983" lon="6.96803">
        <ele>1867.2</ele>
        <time>2022-02-25T14:28:39Z</time>
      </trkpt>
      <trkpt lat="44.80992" lon="6.96802">
        <ele>1866.5</ele>
        <time>2022-02-25T14:28:40Z</time>
      </trkpt>
      <trkpt lat="44.81001" lon="6.96801">
        <ele>1865.8</ele>
        <time>2022-02-25T14:28:41Z</time>
      </trkpt>
      <trkpt lat="44.81009" lon="6.96802">
        <ele>1865.5</ele>
        <time>2022-02-25T14:28:42Z</time>
      </trkpt>
      <trkpt lat="44.81017" lon="6.96803">
        <ele>1865.2</ele>
        <time>2022-02-25T14:28:43Z</time>
      </trkpt>
      <trkpt lat="44.81024" lon="6.96806">
        <ele>1865.2</ele>
        <time>2022-02-25T14:28:44Z</time>
      </trkpt>
      <trkpt lat="44.8103" lon="6.96809">
        <ele>1865</ele>
        <time>2022-02-25T14:28:45Z</time>
      </trkpt>
      <trkpt lat="44.81036" lon="6.96811">
        <ele>1864.9</ele>
        <time>2022-02-25T14:28:46Z</time>
      </trkpt>
      <trkpt lat="44.81041" lon="6.96814">
        <ele>1864.8</ele>
        <time>2022-02-25T14:28:47Z</time>
      </trkpt>
      <trkpt lat="44.81047" lon="6.96816">
        <ele>1864.7</ele>
        <time>2022-02-25T14:28:48Z</time>
      </trkpt>
      <trkpt lat="44.81052" lon="6.96818">
        <ele>1864.6</ele>
        <time>2022-02-25T14:28:49Z</time>
      </trkpt>
      <trkpt lat="44.81056" lon="6.96819">
        <ele>1864.5</ele>
        <time>2022-02-25T14:28:50Z</time>
      </trkpt>
      <trkpt lat="44.81059" lon="6.96821">
        <ele>1864.3</ele>
        <time>2022-02-25T14:28:51Z</time>
      </trkpt>
      <trkpt lat="44.81062" lon="6.96823">
        <ele>1864.2</ele>
        <time>2022-02-25T14:28:52Z</time>
      </trkpt>
      <trkpt lat="44.81065" lon="6.96825">
        <ele>1864</ele>
        <time>2022-02-25T14:28:53Z</time>
      </trkpt>
      <trkpt lat="44.81069" lon="6.96827">
        <ele>1863.8</ele>
        <time>2022-02-25T14:28:54Z</time>
      </trkpt>
      <trkpt lat="44.81071" lon="6.96828">
        <ele>1863.7</ele>
        <time>2022-02-25T14:28:55Z</time>
      </trkpt>
      <trkpt lat="44.81075" lon="6.9683">
        <ele>1863.5</ele>
        <time>2022-02-25T14:28:56Z</time>
      </trkpt>
      <trkpt lat="44.81077" lon="6.96831">
        <ele>1863.4</ele>
        <time>2022-02-25T14:28:57Z</time>
      </trkpt>
      <trkpt lat="44.8108" lon="6.96833">
        <ele>1863.2</ele>
        <time>2022-02-25T14:28:58Z</time>
      </trkpt>
      <trkpt lat="44.81084" lon="6.96835">
        <ele>1862.9</ele>
        <time>2022-02-25T14:28:59Z</time>
      </trkpt>
      <trkpt lat="44.81087" lon="6.96836">
        <ele>1862.5</ele>
        <time>2022-02-25T14:29:00Z</time>
      </trkpt>
      <trkpt lat="44.81091" lon="6.96838">
        <ele>1862</ele>
        <time>2022-02-25T14:29:01Z</time>
      </trkpt>
      <trkpt lat="44.81096" lon="6.9684">
        <ele>1861.4</ele>
        <time>2022-02-25T14:29:02Z</time>
      </trkpt>
      <trkpt lat="44.81101" lon="6.96842">
        <ele>1860.8</ele>
        <time>2022-02-25T14:29:03Z</time>
      </trkpt>
      <trkpt lat="44.81106" lon="6.96843">
        <ele>1860.2</ele>
        <time>2022-02-25T14:29:04Z</time>
      </trkpt>
      <trkpt lat="44.81111" lon="6.96844">
        <ele>1859.6</ele>
        <time>2022-02-25T14:29:05Z</time>
      </trkpt>
      <trkpt lat="44.81115" lon="6.96844">
        <ele>1859.1</ele>
        <time>2022-02-25T14:29:06Z</time>
      </trkpt>
      <trkpt lat="44.8112" lon="6.96844">
        <ele>1858.5</ele>
        <time>2022-02-25T14:29:07Z</time>
      </trkpt>
      <trkpt lat="44.81123" lon="6.96843">
        <ele>1858.1</ele>
        <time>2022-02-25T14:29:08Z</time>
      </trkpt>
      <trkpt lat="44.81126" lon="6.96841">
        <ele>1857.7</ele>
        <time>2022-02-25T14:29:09Z</time>
      </trkpt>
      <trkpt lat="44.81128" lon="6.96841">
        <ele>1857.5</ele>
        <time>2022-02-25T14:29:10Z</time>
      </trkpt>
      <trkpt lat="44.81128" lon="6.96841">
        <ele>1857.5</ele>
        <time>2022-02-25T14:29:11Z</time>
      </trkpt>
      <trkpt lat="44.8113" lon="6.9684">
        <ele>1857.2</ele>
        <time>2022-02-25T14:29:12Z</time>
      </trkpt>
      <trkpt lat="44.8113" lon="6.9684">
        <ele>1857.2</ele>
        <time>2022-02-25T14:29:13Z</time>
      </trkpt>
      <trkpt lat="44.8113" lon="6.9684">
        <ele>1857.2</ele>
        <time>2022-02-25T14:29:14Z</time>
      </trkpt>
      <trkpt lat="44.8113" lon="6.9684">
        <ele>1857.2</ele>
        <time>2022-02-25T14:29:15Z</time>
      </trkpt>
      <trkpt lat="44.8113" lon="6.9684">
        <ele>1857.2</ele>
        <time>2022-02-25T14:29:16Z</time>
      </trkpt>
      <trkpt lat="44.8113" lon="6.9684">
        <ele>1857.2</ele>
        <time>2022-02-25T14:29:17Z</time>
      </trkpt>
      <trkpt lat="44.8113" lon="6.9684">
        <ele>1857.2</ele>
        <time>2022-02-25T14:29:18Z</time>
      </trkpt>
      <trkpt lat="44.8113" lon="6.9684">
        <ele>1857.2</ele>
        <time>2022-02-25T14:29:19Z</time>
      </trkpt>
      <trkpt lat="44.8113" lon="6.9684">
        <ele>1857.2</ele>
        <time>2022-02-25T14:29:20Z</time>
      </trkpt>
      <trkpt lat="44.8113" lon="6.9684">
        <ele>1857.2</ele>
        <time>2022-02-25T14:29:21Z</time>
      </trkpt>
      <trkpt lat="44.8113" lon="6.9684">
        <ele>1857.2</ele>
        <time>2022-02-25T14:29:22Z</time>
      </trkpt>
      <trkpt lat="44.8113" lon="6.9684">
        <ele>1857.2</ele>
        <time>2022-02-25T14:29:23Z</time>
      </trkpt>
      <trkpt lat="44.8113" lon="6.9684">
        <ele>1857.2</ele>
        <time>2022-02-25T14:29:24Z</time>
      </trkpt>
      <trkpt lat="44.8113" lon="6.9684">
        <ele>1857.2</ele>
        <time>2022-02-25T14:29:25Z</time>
      </trkpt>
      <trkpt lat="44.8113" lon="6.9684">
        <ele>1857.2</ele>
        <time>2022-02-25T14:29:26Z</time>
      </trkpt>
      <trkpt lat="44.8113" lon="6.9684">
        <ele>1857.2</ele>
        <time>2022-02-25T14:29:27Z</time>
      </trkpt>
      <trkpt lat="44.8113" lon="6.9684">
        <ele>1857.2</ele>
        <time>2022-02-25T14:29:28Z</time>
      </trkpt>
      <trkpt lat="44.8113" lon="6.9684">
        <ele>1857.2</ele>
        <time>2022-02-25T14:29:29Z</time>
      </trkpt>
      <trkpt lat="44.8113" lon="6.9684">
        <ele>1857.2</ele>
        <time>2022-02-25T14:29:30Z</time>
      </trkpt>
      <trkpt lat="44.8113" lon="6.9684">
        <ele>1857.2</ele>
        <time>2022-02-25T14:29:31Z</time>
      </trkpt>
      <trkpt lat="44.8113" lon="6.9684">
        <ele>1857.2</ele>
        <time>2022-02-25T14:29:32Z</time>
      </trkpt>
      <trkpt lat="44.8113" lon="6.9684">
        <ele>1857.2</ele>
        <time>2022-02-25T14:29:33Z</time>
      </trkpt>
      <trkpt lat="44.8113" lon="6.9684">
        <ele>1857.2</ele>
        <time>2022-02-25T14:29:34Z</time>
      </trkpt>
      <trkpt lat="44.8113" lon="6.9684">
        <ele>1857.2</ele>
        <time>2022-02-25T14:29:35Z</time>
      </trkpt>
      <trkpt lat="44.8113" lon="6.9684">
        <ele>1857.2</ele>
        <time>2022-02-25T14:29:36Z</time>
      </trkpt>
      <trkpt lat="44.8113" lon="6.9684">
        <ele>1857.2</ele>
        <time>2022-02-25T14:29:37Z</time>
      </trkpt>
      <trkpt lat="44.8113" lon="6.9684">
        <ele>1857.2</ele>
        <time>2022-02-25T14:29:38Z</time>
      </trkpt>
      <trkpt lat="44.8113" lon="6.9684">
        <ele>1857.2</ele>
        <time>2022-02-25T14:29:39Z</time>
      </trkpt>
      <trkpt lat="44.8113" lon="6.9684">
        <ele>1857.2</ele>
        <time>2022-02-25T14:29:40Z</time>
      </trkpt>
      <trkpt lat="44.8113" lon="6.9684">
        <ele>1857.2</ele>
        <time>2022-02-25T14:29:41Z</time>
      </trkpt>
      <trkpt lat="44.8113" lon="6.9684">
        <ele>1857.2</ele>
        <time>2022-02-25T14:29:42Z</time>
      </trkpt>
      <trkpt lat="44.8113" lon="6.9684">
        <ele>1857.2</ele>
        <time>2022-02-25T14:29:43Z</time>
      </trkpt>
      <trkpt lat="44.8113" lon="6.9684">
        <ele>1857.2</ele>
        <time>2022-02-25T14:29:44Z</time>
      </trkpt>
      <trkpt lat="44.8113" lon="6.9684">
        <ele>1857.2</ele>
        <time>2022-02-25T14:29:45Z</time>
      </trkpt>
      <trkpt lat="44.8113" lon="6.9684">
        <ele>1857.2</ele>
        <time>2022-02-25T14:29:46Z</time>
      </trkpt>
      <trkpt lat="44.8113" lon="6.9684">
        <ele>1857.2</ele>
        <time>2022-02-25T14:29:47Z</time>
      </trkpt>
      <trkpt lat="44.8113" lon="6.9684">
        <ele>1857.2</ele>
        <time>2022-02-25T14:29:48Z</time>
      </trkpt>
      <trkpt lat="44.8113" lon="6.9684">
        <ele>1857.2</ele>
        <time>2022-02-25T14:29:49Z</time>
      </trkpt>
      <trkpt lat="44.8113" lon="6.9684">
        <ele>1857.2</ele>
        <time>2022-02-25T14:29:50Z</time>
      </trkpt>
      <trkpt lat="44.8113" lon="6.9684">
        <ele>1857.2</ele>
        <time>2022-02-25T14:29:51Z</time>
      </trkpt>
      <trkpt lat="44.8113" lon="6.9684">
        <ele>1857.2</ele>
        <time>2022-02-25T14:29:52Z</time>
      </trkpt>
      <trkpt lat="44.8113" lon="6.9684">
        <ele>1857.2</ele>
        <time>2022-02-25T14:29:53Z</time>
      </trkpt>
      <trkpt lat="44.8113" lon="6.9684">
        <ele>1857.2</ele>
        <time>2022-02-25T14:29:54Z</time>
      </trkpt>
      <trkpt lat="44.8113" lon="6.9684">
        <ele>1857.2</ele>
        <time>2022-02-25T14:29:55Z</time>
      </trkpt>
      <trkpt lat="44.8113" lon="6.9684">
        <ele>1857.2</ele>
        <time>2022-02-25T14:29:56Z</time>
      </trkpt>
      <trkpt lat="44.8113" lon="6.9684">
        <ele>1857.2</ele>
        <time>2022-02-25T14:29:57Z</time>
      </trkpt>
      <trkpt lat="44.81131" lon="6.9684">
        <ele>1857.1</ele>
        <time>2022-02-25T14:29:58Z</time>
      </trkpt>
      <trkpt lat="44.81131" lon="6.96841">
        <ele>1857.1</ele>
        <time>2022-02-25T14:29:59Z</time>
      </trkpt>
      <trkpt lat="44.81131" lon="6.96841">
        <ele>1857.1</ele>
        <time>2022-02-25T14:30:00Z</time>
      </trkpt>
      <trkpt lat="44.81131" lon="6.96841">
        <ele>1857.1</ele>
        <time>2022-02-25T14:30:01Z</time>
      </trkpt>
      <trkpt lat="44.81131" lon="6.96841">
        <ele>1857.1</ele>
        <time>2022-02-25T14:30:02Z</time>
      </trkpt>
      <trkpt lat="44.81131" lon="6.96841">
        <ele>1857.1</ele>
        <time>2022-02-25T14:30:03Z</time>
      </trkpt>
      <trkpt lat="44.81131" lon="6.96841">
        <ele>1857.1</ele>
        <time>2022-02-25T14:30:04Z</time>
      </trkpt>
      <trkpt lat="44.81131" lon="6.96841">
        <ele>1857.1</ele>
        <time>2022-02-25T14:30:05Z</time>
      </trkpt>
      <trkpt lat="44.81131" lon="6.96841">
        <ele>1857.1</ele>
        <time>2022-02-25T14:30:06Z</time>
      </trkpt>
      <trkpt lat="44.81131" lon="6.96841">
        <ele>1857.1</ele>
        <time>2022-02-25T14:30:07Z</time>
      </trkpt>
      <trkpt lat="44.81131" lon="6.96841">
        <ele>1857.1</ele>
        <time>2022-02-25T14:30:08Z</time>
      </trkpt>
      <trkpt lat="44.81131" lon="6.96841">
        <ele>1857.1</ele>
        <time>2022-02-25T14:30:09Z</time>
      </trkpt>
      <trkpt lat="44.81131" lon="6.96841">
        <ele>1857.1</ele>
        <time>2022-02-25T14:30:10Z</time>
      </trkpt>
      <trkpt lat="44.81131" lon="6.96841">
        <ele>1857.1</ele>
        <time>2022-02-25T14:30:11Z</time>
      </trkpt>
      <trkpt lat="44.81131" lon="6.96841">
        <ele>1857.1</ele>
        <time>2022-02-25T14:30:12Z</time>
      </trkpt>
      <trkpt lat="44.81131" lon="6.96841">
        <ele>1857.1</ele>
        <time>2022-02-25T14:30:13Z</time>
      </trkpt>
      <trkpt lat="44.81131" lon="6.96841">
        <ele>1857.1</ele>
        <time>2022-02-25T14:30:14Z</time>
      </trkpt>
      <trkpt lat="44.81131" lon="6.96841">
        <ele>1857.1</ele>
        <time>2022-02-25T14:30:15Z</time>
      </trkpt>
      <trkpt lat="44.81131" lon="6.96841">
        <ele>1857.1</ele>
        <time>2022-02-25T14:30:16Z</time>
      </trkpt>
      <trkpt lat="44.81131" lon="6.96841">
        <ele>1857.1</ele>
        <time>2022-02-25T14:30:17Z</time>
      </trkpt>
      <trkpt lat="44.81131" lon="6.96841">
        <ele>1857.1</ele>
        <time>2022-02-25T14:30:18Z</time>
      </trkpt>
      <trkpt lat="44.81131" lon="6.96841">
        <ele>1857.1</ele>
        <time>2022-02-25T14:30:19Z</time>
      </trkpt>
      <trkpt lat="44.81131" lon="6.96841">
        <ele>1857.1</ele>
        <time>2022-02-25T14:30:20Z</time>
      </trkpt>
      <trkpt lat="44.81131" lon="6.96841">
        <ele>1857.1</ele>
        <time>2022-02-25T14:30:21Z</time>
      </trkpt>
      <trkpt lat="44.81131" lon="6.96841">
        <ele>1857.1</ele>
        <time>2022-02-25T14:30:22Z</time>
      </trkpt>
      <trkpt lat="44.81131" lon="6.96841">
        <ele>1857.1</ele>
        <time>2022-02-25T14:30:23Z</time>
      </trkpt>
      <trkpt lat="44.81131" lon="6.96841">
        <ele>1857.1</ele>
        <time>2022-02-25T14:30:24Z</time>
      </trkpt>
      <trkpt lat="44.81131" lon="6.96841">
        <ele>1857.1</ele>
        <time>2022-02-25T14:30:25Z</time>
      </trkpt>
      <trkpt lat="44.81131" lon="6.96841">
        <ele>1857.1</ele>
        <time>2022-02-25T14:30:26Z</time>
      </trkpt>
      <trkpt lat="44.81131" lon="6.96841">
        <ele>1857.1</ele>
        <time>2022-02-25T14:30:27Z</time>
      </trkpt>
      <trkpt lat="44.81131" lon="6.96841">
        <ele>1857.1</ele>
        <time>2022-02-25T14:30:28Z</time>
      </trkpt>
      <trkpt lat="44.81131" lon="6.96841">
        <ele>1857.1</ele>
        <time>2022-02-25T14:30:29Z</time>
      </trkpt>
      <trkpt lat="44.81131" lon="6.96841">
        <ele>1857.1</ele>
        <time>2022-02-25T14:30:30Z</time>
      </trkpt>
      <trkpt lat="44.81131" lon="6.96841">
        <ele>1857.1</ele>
        <time>2022-02-25T14:30:31Z</time>
      </trkpt>
      <trkpt lat="44.81131" lon="6.96841">
        <ele>1857.1</ele>
        <time>2022-02-25T14:30:32Z</time>
      </trkpt>
      <trkpt lat="44.81131" lon="6.96841">
        <ele>1857.1</ele>
        <time>2022-02-25T14:30:33Z</time>
      </trkpt>
      <trkpt lat="44.81131" lon="6.96841">
        <ele>1857.1</ele>
        <time>2022-02-25T14:30:34Z</time>
      </trkpt>
      <trkpt lat="44.81131" lon="6.96841">
        <ele>1857.1</ele>
        <time>2022-02-25T14:30:35Z</time>
      </trkpt>
      <trkpt lat="44.81131" lon="6.96841">
        <ele>1857.1</ele>
        <time>2022-02-25T14:30:36Z</time>
      </trkpt>
      <trkpt lat="44.81131" lon="6.96841">
        <ele>1857.1</ele>
        <time>2022-02-25T14:30:37Z</time>
      </trkpt>
      <trkpt lat="44.81131" lon="6.96841">
        <ele>1857.1</ele>
        <time>2022-02-25T14:30:38Z</time>
      </trkpt>
      <trkpt lat="44.81131" lon="6.96841">
        <ele>1857.1</ele>
        <time>2022-02-25T14:30:39Z</time>
      </trkpt>
      <trkpt lat="44.81131" lon="6.96841">
        <ele>1857.1</ele>
        <time>2022-02-25T14:30:40Z</time>
      </trkpt>
      <trkpt lat="44.81131" lon="6.96841">
        <ele>1857.1</ele>
        <time>2022-02-25T14:30:41Z</time>
      </trkpt>
      <trkpt lat="44.81131" lon="6.96841">
        <ele>1857.1</ele>
        <time>2022-02-25T14:30:42Z</time>
      </trkpt>
      <trkpt lat="44.81131" lon="6.96841">
        <ele>1857.1</ele>
        <time>2022-02-25T14:30:43Z</time>
      </trkpt>
      <trkpt lat="44.81131" lon="6.96841">
        <ele>1857.1</ele>
        <time>2022-02-25T14:30:44Z</time>
      </trkpt>
      <trkpt lat="44.81131" lon="6.96841">
        <ele>1857.1</ele>
        <time>2022-02-25T14:30:45Z</time>
      </trkpt>
      <trkpt lat="44.81131" lon="6.96841">
        <ele>1857.1</ele>
        <time>2022-02-25T14:30:46Z</time>
      </trkpt>
      <trkpt lat="44.81131" lon="6.96841">
        <ele>1857.1</ele>
        <time>2022-02-25T14:30:47Z</time>
      </trkpt>
      <trkpt lat="44.81131" lon="6.96841">
        <ele>1857.1</ele>
        <time>2022-02-25T14:30:48Z</time>
      </trkpt>
      <trkpt lat="44.81131" lon="6.96841">
        <ele>1857.1</ele>
        <time>2022-02-25T14:30:49Z</time>
      </trkpt>
      <trkpt lat="44.81131" lon="6.96841">
        <ele>1857.1</ele>
        <time>2022-02-25T14:30:50Z</time>
      </trkpt>
      <trkpt lat="44.81131" lon="6.96841">
        <ele>1857.1</ele>
        <time>2022-02-25T14:30:51Z</time>
      </trkpt>
      <trkpt lat="44.81131" lon="6.96841">
        <ele>1857.1</ele>
        <time>2022-02-25T14:30:52Z</time>
      </trkpt>
      <trkpt lat="44.81131" lon="6.96841">
        <ele>1857.1</ele>
        <time>2022-02-25T14:30:53Z</time>
      </trkpt>
      <trkpt lat="44.81131" lon="6.96841">
        <ele>1857.1</ele>
        <time>2022-02-25T14:30:54Z</time>
      </trkpt>
      <trkpt lat="44.81131" lon="6.96841">
        <ele>1857.1</ele>
        <time>2022-02-25T14:30:55Z</time>
      </trkpt>
      <trkpt lat="44.81131" lon="6.96841">
        <ele>1857.1</ele>
        <time>2022-02-25T14:30:56Z</time>
      </trkpt>
      <trkpt lat="44.81131" lon="6.96841">
        <ele>1857.1</ele>
        <time>2022-02-25T14:30:57Z</time>
      </trkpt>
      <trkpt lat="44.81131" lon="6.96841">
        <ele>1857.1</ele>
        <time>2022-02-25T14:30:58Z</time>
      </trkpt>
      <trkpt lat="44.81131" lon="6.96841">
        <ele>1857.1</ele>
        <time>2022-02-25T14:30:59Z</time>
      </trkpt>
      <trkpt lat="44.81131" lon="6.96841">
        <ele>1857.1</ele>
        <time>2022-02-25T14:31:00Z</time>
      </trkpt>
      <trkpt lat="44.81131" lon="6.96841">
        <ele>1857.1</ele>
        <time>2022-02-25T14:31:01Z</time>
      </trkpt>
      <trkpt lat="44.81131" lon="6.96841">
        <ele>1857.1</ele>
        <time>2022-02-25T14:31:02Z</time>
      </trkpt>
      <trkpt lat="44.81131" lon="6.96841">
        <ele>1857.1</ele>
        <time>2022-02-25T14:31:03Z</time>
      </trkpt>
      <trkpt lat="44.81131" lon="6.96841">
        <ele>1857.1</ele>
        <time>2022-02-25T14:31:04Z</time>
      </trkpt>
      <trkpt lat="44.81131" lon="6.96841">
        <ele>1857.1</ele>
        <time>2022-02-25T14:31:05Z</time>
      </trkpt>
      <trkpt lat="44.81131" lon="6.96841">
        <ele>1857.1</ele>
        <time>2022-02-25T14:31:06Z</time>
      </trkpt>
      <trkpt lat="44.81131" lon="6.96841">
        <ele>1857.1</ele>
        <time>2022-02-25T14:31:07Z</time>
      </trkpt>
      <trkpt lat="44.81131" lon="6.96841">
        <ele>1857.1</ele>
        <time>2022-02-25T14:31:08Z</time>
      </trkpt>
      <trkpt lat="44.81131" lon="6.96841">
        <ele>1857.1</ele>
        <time>2022-02-25T14:31:09Z</time>
      </trkpt>
      <trkpt lat="44.81131" lon="6.96841">
        <ele>1857.1</ele>
        <time>2022-02-25T14:31:10Z</time>
      </trkpt>
      <trkpt lat="44.81131" lon="6.96841">
        <ele>1857.1</ele>
        <time>2022-02-25T14:31:11Z</time>
      </trkpt>
      <trkpt lat="44.81131" lon="6.96841">
        <ele>1857.1</ele>
        <time>2022-02-25T14:31:12Z</time>
      </trkpt>
      <trkpt lat="44.81131" lon="6.96841">
        <ele>1857.1</ele>
        <time>2022-02-25T14:31:13Z</time>
      </trkpt>
      <trkpt lat="44.81131" lon="6.96841">
        <ele>1857.1</ele>
        <time>2022-02-25T14:31:14Z</time>
      </trkpt>
      <trkpt lat="44.81131" lon="6.96841">
        <ele>1857.1</ele>
        <time>2022-02-25T14:31:15Z</time>
      </trkpt>
      <trkpt lat="44.81131" lon="6.96841">
        <ele>1857.1</ele>
        <time>2022-02-25T14:31:16Z</time>
      </trkpt>
      <trkpt lat="44.81131" lon="6.96841">
        <ele>1857.1</ele>
        <time>2022-02-25T14:31:17Z</time>
      </trkpt>
      <trkpt lat="44.81132" lon="6.96841">
        <ele>1856.9</ele>
        <time>2022-02-25T14:31:18Z</time>
      </trkpt>
      <trkpt lat="44.81132" lon="6.96841">
        <ele>1856.9</ele>
        <time>2022-02-25T14:31:19Z</time>
      </trkpt>
      <trkpt lat="44.81132" lon="6.96841">
        <ele>1856.9</ele>
        <time>2022-02-25T14:31:20Z</time>
      </trkpt>
      <trkpt lat="44.81132" lon="6.96841">
        <ele>1856.9</ele>
        <time>2022-02-25T14:31:21Z</time>
      </trkpt>
      <trkpt lat="44.81132" lon="6.96841">
        <ele>1856.9</ele>
        <time>2022-02-25T14:31:22Z</time>
      </trkpt>
      <trkpt lat="44.81132" lon="6.96841">
        <ele>1856.9</ele>
        <time>2022-02-25T14:31:23Z</time>
      </trkpt>
      <trkpt lat="44.81132" lon="6.96841">
        <ele>1856.9</ele>
        <time>2022-02-25T14:31:24Z</time>
      </trkpt>
      <trkpt lat="44.81132" lon="6.96841">
        <ele>1856.9</ele>
        <time>2022-02-25T14:31:25Z</time>
      </trkpt>
      <trkpt lat="44.81132" lon="6.96841">
        <ele>1856.9</ele>
        <time>2022-02-25T14:31:26Z</time>
      </trkpt>
      <trkpt lat="44.81132" lon="6.96841">
        <ele>1856.9</ele>
        <time>2022-02-25T14:31:27Z</time>
      </trkpt>
      <trkpt lat="44.81132" lon="6.96841">
        <ele>1856.9</ele>
        <time>2022-02-25T14:31:28Z</time>
      </trkpt>
      <trkpt lat="44.81132" lon="6.96841">
        <ele>1856.9</ele>
        <time>2022-02-25T14:31:29Z</time>
      </trkpt>
      <trkpt lat="44.81132" lon="6.96841">
        <ele>1856.9</ele>
        <time>2022-02-25T14:31:30Z</time>
      </trkpt>
      <trkpt lat="44.81132" lon="6.96841">
        <ele>1856.9</ele>
        <time>2022-02-25T14:31:31Z</time>
      </trkpt>
      <trkpt lat="44.81132" lon="6.96841">
        <ele>1856.9</ele>
        <time>2022-02-25T14:31:32Z</time>
      </trkpt>
      <trkpt lat="44.81132" lon="6.96841">
        <ele>1856.9</ele>
        <time>2022-02-25T14:31:33Z</time>
      </trkpt>
      <trkpt lat="44.81132" lon="6.96841">
        <ele>1856.9</ele>
        <time>2022-02-25T14:31:34Z</time>
      </trkpt>
      <trkpt lat="44.81132" lon="6.96841">
        <ele>1856.9</ele>
        <time>2022-02-25T14:31:35Z</time>
      </trkpt>
      <trkpt lat="44.81132" lon="6.96842">
        <ele>1856.9</ele>
        <time>2022-02-25T14:31:36Z</time>
      </trkpt>
      <trkpt lat="44.81132" lon="6.96842">
        <ele>1856.9</ele>
        <time>2022-02-25T14:31:37Z</time>
      </trkpt>
      <trkpt lat="44.81132" lon="6.96842">
        <ele>1856.9</ele>
        <time>2022-02-25T14:31:38Z</time>
      </trkpt>
      <trkpt lat="44.81132" lon="6.96842">
        <ele>1856.9</ele>
        <time>2022-02-25T14:31:39Z</time>
      </trkpt>
      <trkpt lat="44.81132" lon="6.96842">
        <ele>1856.9</ele>
        <time>2022-02-25T14:31:40Z</time>
      </trkpt>
      <trkpt lat="44.81132" lon="6.96842">
        <ele>1856.9</ele>
        <time>2022-02-25T14:31:41Z</time>
      </trkpt>
      <trkpt lat="44.81132" lon="6.96842">
        <ele>1856.9</ele>
        <time>2022-02-25T14:31:42Z</time>
      </trkpt>
      <trkpt lat="44.81132" lon="6.96842">
        <ele>1856.9</ele>
        <time>2022-02-25T14:31:43Z</time>
      </trkpt>
      <trkpt lat="44.81132" lon="6.96842">
        <ele>1856.9</ele>
        <time>2022-02-25T14:31:44Z</time>
      </trkpt>
      <trkpt lat="44.81132" lon="6.96842">
        <ele>1856.9</ele>
        <time>2022-02-25T14:31:45Z</time>
      </trkpt>
      <trkpt lat="44.81132" lon="6.96842">
        <ele>1856.9</ele>
        <time>2022-02-25T14:31:46Z</time>
      </trkpt>
      <trkpt lat="44.81132" lon="6.96842">
        <ele>1856.9</ele>
        <time>2022-02-25T14:31:47Z</time>
      </trkpt>
      <trkpt lat="44.81132" lon="6.96842">
        <ele>1856.9</ele>
        <time>2022-02-25T14:31:48Z</time>
      </trkpt>
      <trkpt lat="44.81132" lon="6.96842">
        <ele>1856.9</ele>
        <time>2022-02-25T14:31:49Z</time>
      </trkpt>
      <trkpt lat="44.81132" lon="6.96842">
        <ele>1856.9</ele>
        <time>2022-02-25T14:31:50Z</time>
      </trkpt>
      <trkpt lat="44.81132" lon="6.96842">
        <ele>1856.9</ele>
        <time>2022-02-25T14:31:51Z</time>
      </trkpt>
      <trkpt lat="44.81132" lon="6.96842">
        <ele>1856.9</ele>
        <time>2022-02-25T14:31:52Z</time>
      </trkpt>
      <trkpt lat="44.81132" lon="6.96842">
        <ele>1856.9</ele>
        <time>2022-02-25T14:31:53Z</time>
      </trkpt>
      <trkpt lat="44.81132" lon="6.96842">
        <ele>1856.9</ele>
        <time>2022-02-25T14:31:54Z</time>
      </trkpt>
      <trkpt lat="44.81132" lon="6.96842">
        <ele>1856.9</ele>
        <time>2022-02-25T14:31:55Z</time>
      </trkpt>
      <trkpt lat="44.81132" lon="6.96842">
        <ele>1856.9</ele>
        <time>2022-02-25T14:31:56Z</time>
      </trkpt>
      <trkpt lat="44.81132" lon="6.96842">
        <ele>1856.9</ele>
        <time>2022-02-25T14:31:57Z</time>
      </trkpt>
      <trkpt lat="44.81132" lon="6.96842">
        <ele>1856.9</ele>
        <time>2022-02-25T14:31:58Z</time>
      </trkpt>
      <trkpt lat="44.81132" lon="6.96842">
        <ele>1856.9</ele>
        <time>2022-02-25T14:31:59Z</time>
      </trkpt>
      <trkpt lat="44.81132" lon="6.96842">
        <ele>1856.9</ele>
        <time>2022-02-25T14:32:00Z</time>
      </trkpt>
      <trkpt lat="44.81132" lon="6.96842">
        <ele>1856.9</ele>
        <time>2022-02-25T14:32:01Z</time>
      </trkpt>
      <trkpt lat="44.81132" lon="6.96842">
        <ele>1856.9</ele>
        <time>2022-02-25T14:32:02Z</time>
      </trkpt>
      <trkpt lat="44.81132" lon="6.96842">
        <ele>1856.9</ele>
        <time>2022-02-25T14:32:03Z</time>
      </trkpt>
      <trkpt lat="44.81132" lon="6.96842">
        <ele>1856.9</ele>
        <time>2022-02-25T14:32:04Z</time>
      </trkpt>
      <trkpt lat="44.81132" lon="6.96842">
        <ele>1856.9</ele>
        <time>2022-02-25T14:32:05Z</time>
      </trkpt>
      <trkpt lat="44.81132" lon="6.96842">
        <ele>1856.9</ele>
        <time>2022-02-25T14:32:06Z</time>
      </trkpt>
      <trkpt lat="44.81132" lon="6.96842">
        <ele>1856.9</ele>
        <time>2022-02-25T14:32:07Z</time>
      </trkpt>
      <trkpt lat="44.81132" lon="6.96842">
        <ele>1856.9</ele>
        <time>2022-02-25T14:32:08Z</time>
      </trkpt>
      <trkpt lat="44.81132" lon="6.96842">
        <ele>1856.9</ele>
        <time>2022-02-25T14:32:09Z</time>
      </trkpt>
      <trkpt lat="44.81132" lon="6.96842">
        <ele>1856.9</ele>
        <time>2022-02-25T14:32:10Z</time>
      </trkpt>
      <trkpt lat="44.81132" lon="6.96842">
        <ele>1856.9</ele>
        <time>2022-02-25T14:32:11Z</time>
      </trkpt>
      <trkpt lat="44.81132" lon="6.96842">
        <ele>1856.9</ele>
        <time>2022-02-25T14:32:12Z</time>
      </trkpt>
      <trkpt lat="44.81132" lon="6.96842">
        <ele>1856.9</ele>
        <time>2022-02-25T14:32:13Z</time>
      </trkpt>
      <trkpt lat="44.81132" lon="6.96842">
        <ele>1856.9</ele>
        <time>2022-02-25T14:32:14Z</time>
      </trkpt>
      <trkpt lat="44.81132" lon="6.96842">
        <ele>1856.9</ele>
        <time>2022-02-25T14:32:15Z</time>
      </trkpt>
      <trkpt lat="44.81132" lon="6.96842">
        <ele>1856.9</ele>
        <time>2022-02-25T14:32:16Z</time>
      </trkpt>
      <trkpt lat="44.81132" lon="6.96842">
        <ele>1856.9</ele>
        <time>2022-02-25T14:32:17Z</time>
      </trkpt>
      <trkpt lat="44.81132" lon="6.96842">
        <ele>1856.9</ele>
        <time>2022-02-25T14:32:18Z</time>
      </trkpt>
      <trkpt lat="44.81132" lon="6.96842">
        <ele>1856.9</ele>
        <time>2022-02-25T14:32:19Z</time>
      </trkpt>
      <trkpt lat="44.81132" lon="6.96842">
        <ele>1856.9</ele>
        <time>2022-02-25T14:32:20Z</time>
      </trkpt>
      <trkpt lat="44.81132" lon="6.96842">
        <ele>1856.9</ele>
        <time>2022-02-25T14:32:21Z</time>
      </trkpt>
      <trkpt lat="44.81132" lon="6.96842">
        <ele>1856.9</ele>
        <time>2022-02-25T14:32:22Z</time>
      </trkpt>
      <trkpt lat="44.81132" lon="6.96842">
        <ele>1856.9</ele>
        <time>2022-02-25T14:32:23Z</time>
      </trkpt>
      <trkpt lat="44.81132" lon="6.96842">
        <ele>1856.9</ele>
        <time>2022-02-25T14:32:24Z</time>
      </trkpt>
      <trkpt lat="44.81132" lon="6.96842">
        <ele>1856.9</ele>
        <time>2022-02-25T14:32:25Z</time>
      </trkpt>
      <trkpt lat="44.81132" lon="6.96842">
        <ele>1856.9</ele>
        <time>2022-02-25T14:32:26Z</time>
      </trkpt>
      <trkpt lat="44.81132" lon="6.96842">
        <ele>1856.9</ele>
        <time>2022-02-25T14:32:27Z</time>
      </trkpt>
      <trkpt lat="44.81132" lon="6.96842">
        <ele>1856.9</ele>
        <time>2022-02-25T14:32:28Z</time>
      </trkpt>
      <trkpt lat="44.81132" lon="6.96842">
        <ele>1856.9</ele>
        <time>2022-02-25T14:32:29Z</time>
      </trkpt>
      <trkpt lat="44.81132" lon="6.96842">
        <ele>1856.9</ele>
        <time>2022-02-25T14:32:30Z</time>
      </trkpt>
      <trkpt lat="44.81132" lon="6.96842">
        <ele>1856.9</ele>
        <time>2022-02-25T14:32:31Z</time>
      </trkpt>
      <trkpt lat="44.81132" lon="6.96842">
        <ele>1856.9</ele>
        <time>2022-02-25T14:32:32Z</time>
      </trkpt>
      <trkpt lat="44.81132" lon="6.96842">
        <ele>1856.9</ele>
        <time>2022-02-25T14:32:33Z</time>
      </trkpt>
      <trkpt lat="44.81132" lon="6.96842">
        <ele>1856.9</ele>
        <time>2022-02-25T14:32:34Z</time>
      </trkpt>
      <trkpt lat="44.81132" lon="6.96842">
        <ele>1856.9</ele>
        <time>2022-02-25T14:32:35Z</time>
      </trkpt>
      <trkpt lat="44.81132" lon="6.96842">
        <ele>1856.9</ele>
        <time>2022-02-25T14:32:36Z</time>
      </trkpt>
      <trkpt lat="44.81132" lon="6.96842">
        <ele>1856.9</ele>
        <time>2022-02-25T14:32:37Z</time>
      </trkpt>
      <trkpt lat="44.81132" lon="6.96842">
        <ele>1856.9</ele>
        <time>2022-02-25T14:32:38Z</time>
      </trkpt>
      <trkpt lat="44.81133" lon="6.96842">
        <ele>1856.8</ele>
        <time>2022-02-25T14:32:39Z</time>
      </trkpt>
      <trkpt lat="44.81133" lon="6.96842">
        <ele>1856.8</ele>
        <time>2022-02-25T14:32:40Z</time>
      </trkpt>
      <trkpt lat="44.81133" lon="6.96842">
        <ele>1856.8</ele>
        <time>2022-02-25T14:32:41Z</time>
      </trkpt>
      <trkpt lat="44.81133" lon="6.96842">
        <ele>1856.8</ele>
        <time>2022-02-25T14:32:42Z</time>
      </trkpt>
      <trkpt lat="44.81133" lon="6.96842">
        <ele>1856.8</ele>
        <time>2022-02-25T14:32:43Z</time>
      </trkpt>
      <trkpt lat="44.81133" lon="6.96842">
        <ele>1856.8</ele>
        <time>2022-02-25T14:32:44Z</time>
      </trkpt>
      <trkpt lat="44.81133" lon="6.96842">
        <ele>1856.8</ele>
        <time>2022-02-25T14:32:45Z</time>
      </trkpt>
      <trkpt lat="44.81133" lon="6.96842">
        <ele>1856.8</ele>
        <time>2022-02-25T14:32:46Z</time>
      </trkpt>
      <trkpt lat="44.81133" lon="6.96842">
        <ele>1856.8</ele>
        <time>2022-02-25T14:32:47Z</time>
      </trkpt>
      <trkpt lat="44.81133" lon="6.96842">
        <ele>1856.8</ele>
        <time>2022-02-25T14:32:48Z</time>
      </trkpt>
      <trkpt lat="44.81133" lon="6.96842">
        <ele>1856.8</ele>
        <time>2022-02-25T14:32:49Z</time>
      </trkpt>
      <trkpt lat="44.81133" lon="6.96842">
        <ele>1856.8</ele>
        <time>2022-02-25T14:32:50Z</time>
      </trkpt>
      <trkpt lat="44.81133" lon="6.96842">
        <ele>1856.8</ele>
        <time>2022-02-25T14:32:51Z</time>
      </trkpt>
      <trkpt lat="44.81133" lon="6.96842">
        <ele>1856.8</ele>
        <time>2022-02-25T14:32:52Z</time>
      </trkpt>
      <trkpt lat="44.81133" lon="6.96842">
        <ele>1856.8</ele>
        <time>2022-02-25T14:32:53Z</time>
      </trkpt>
      <trkpt lat="44.81133" lon="6.96842">
        <ele>1856.8</ele>
        <time>2022-02-25T14:32:54Z</time>
      </trkpt>
      <trkpt lat="44.81133" lon="6.96842">
        <ele>1856.8</ele>
        <time>2022-02-25T14:32:55Z</time>
      </trkpt>
      <trkpt lat="44.81133" lon="6.96842">
        <ele>1856.8</ele>
        <time>2022-02-25T14:32:56Z</time>
      </trkpt>
      <trkpt lat="44.81133" lon="6.96842">
        <ele>1856.8</ele>
        <time>2022-02-25T14:32:57Z</time>
      </trkpt>
      <trkpt lat="44.81133" lon="6.96842">
        <ele>1856.8</ele>
        <time>2022-02-25T14:32:58Z</time>
      </trkpt>
      <trkpt lat="44.81133" lon="6.96842">
        <ele>1856.8</ele>
        <time>2022-02-25T14:32:59Z</time>
      </trkpt>
      <trkpt lat="44.81133" lon="6.96842">
        <ele>1856.8</ele>
        <time>2022-02-25T14:33:00Z</time>
      </trkpt>
      <trkpt lat="44.81133" lon="6.96842">
        <ele>1856.8</ele>
        <time>2022-02-25T14:33:01Z</time>
      </trkpt>
      <trkpt lat="44.81133" lon="6.96842">
        <ele>1856.8</ele>
        <time>2022-02-25T14:33:02Z</time>
      </trkpt>
      <trkpt lat="44.81133" lon="6.96842">
        <ele>1856.8</ele>
        <time>2022-02-25T14:33:03Z</time>
      </trkpt>
      <trkpt lat="44.81133" lon="6.96842">
        <ele>1856.8</ele>
        <time>2022-02-25T14:33:04Z</time>
      </trkpt>
      <trkpt lat="44.81133" lon="6.96842">
        <ele>1856.8</ele>
        <time>2022-02-25T14:33:05Z</time>
      </trkpt>
      <trkpt lat="44.81133" lon="6.96842">
        <ele>1856.8</ele>
        <time>2022-02-25T14:33:06Z</time>
      </trkpt>
      <trkpt lat="44.81133" lon="6.96842">
        <ele>1856.8</ele>
        <time>2022-02-25T14:33:07Z</time>
      </trkpt>
      <trkpt lat="44.81133" lon="6.96842">
        <ele>1856.8</ele>
        <time>2022-02-25T14:33:08Z</time>
      </trkpt>
      <trkpt lat="44.81133" lon="6.96842">
        <ele>1856.8</ele>
        <time>2022-02-25T14:33:09Z</time>
      </trkpt>
      <trkpt lat="44.81133" lon="6.96842">
        <ele>1856.8</ele>
        <time>2022-02-25T14:33:10Z</time>
      </trkpt>
      <trkpt lat="44.81133" lon="6.96842">
        <ele>1856.8</ele>
        <time>2022-02-25T14:33:11Z</time>
      </trkpt>
      <trkpt lat="44.81133" lon="6.96842">
        <ele>1856.8</ele>
        <time>2022-02-25T14:33:12Z</time>
      </trkpt>
      <trkpt lat="44.81133" lon="6.96843">
        <ele>1856.8</ele>
        <time>2022-02-25T14:33:13Z</time>
      </trkpt>
      <trkpt lat="44.81133" lon="6.96843">
        <ele>1856.8</ele>
        <time>2022-02-25T14:33:14Z</time>
      </trkpt>
      <trkpt lat="44.81133" lon="6.96843">
        <ele>1856.8</ele>
        <time>2022-02-25T14:33:15Z</time>
      </trkpt>
      <trkpt lat="44.81133" lon="6.96843">
        <ele>1856.8</ele>
        <time>2022-02-25T14:33:16Z</time>
      </trkpt>
      <trkpt lat="44.81133" lon="6.96843">
        <ele>1856.8</ele>
        <time>2022-02-25T14:33:17Z</time>
      </trkpt>
      <trkpt lat="44.81133" lon="6.96843">
        <ele>1856.8</ele>
        <time>2022-02-25T14:33:18Z</time>
      </trkpt>
      <trkpt lat="44.81133" lon="6.96843">
        <ele>1856.8</ele>
        <time>2022-02-25T14:33:19Z</time>
      </trkpt>
      <trkpt lat="44.81133" lon="6.96843">
        <ele>1856.8</ele>
        <time>2022-02-25T14:33:20Z</time>
      </trkpt>
      <trkpt lat="44.81133" lon="6.96843">
        <ele>1856.8</ele>
        <time>2022-02-25T14:33:21Z</time>
      </trkpt>
      <trkpt lat="44.81133" lon="6.96843">
        <ele>1856.8</ele>
        <time>2022-02-25T14:33:22Z</time>
      </trkpt>
      <trkpt lat="44.81133" lon="6.96843">
        <ele>1856.8</ele>
        <time>2022-02-25T14:33:23Z</time>
      </trkpt>
      <trkpt lat="44.81133" lon="6.96843">
        <ele>1856.8</ele>
        <time>2022-02-25T14:33:24Z</time>
      </trkpt>
      <trkpt lat="44.81133" lon="6.96843">
        <ele>1856.8</ele>
        <time>2022-02-25T14:33:25Z</time>
      </trkpt>
      <trkpt lat="44.81133" lon="6.96843">
        <ele>1856.8</ele>
        <time>2022-02-25T14:33:26Z</time>
      </trkpt>
      <trkpt lat="44.81133" lon="6.96843">
        <ele>1856.8</ele>
        <time>2022-02-25T14:33:27Z</time>
      </trkpt>
      <trkpt lat="44.81133" lon="6.96843">
        <ele>1856.8</ele>
        <time>2022-02-25T14:33:28Z</time>
      </trkpt>
      <trkpt lat="44.81133" lon="6.96843">
        <ele>1856.8</ele>
        <time>2022-02-25T14:33:29Z</time>
      </trkpt>
      <trkpt lat="44.81133" lon="6.96843">
        <ele>1856.8</ele>
        <time>2022-02-25T14:33:30Z</time>
      </trkpt>
      <trkpt lat="44.81133" lon="6.96843">
        <ele>1856.8</ele>
        <time>2022-02-25T14:33:31Z</time>
      </trkpt>
      <trkpt lat="44.81133" lon="6.96843">
        <ele>1856.8</ele>
        <time>2022-02-25T14:33:32Z</time>
      </trkpt>
      <trkpt lat="44.81133" lon="6.96843">
        <ele>1856.8</ele>
        <time>2022-02-25T14:33:33Z</time>
      </trkpt>
      <trkpt lat="44.81133" lon="6.96843">
        <ele>1856.8</ele>
        <time>2022-02-25T14:33:34Z</time>
      </trkpt>
      <trkpt lat="44.81133" lon="6.96843">
        <ele>1856.8</ele>
        <time>2022-02-25T14:33:35Z</time>
      </trkpt>
      <trkpt lat="44.81133" lon="6.96843">
        <ele>1856.8</ele>
        <time>2022-02-25T14:33:36Z</time>
      </trkpt>
      <trkpt lat="44.81133" lon="6.96843">
        <ele>1856.8</ele>
        <time>2022-02-25T14:33:37Z</time>
      </trkpt>
      <trkpt lat="44.81133" lon="6.96843">
        <ele>1856.8</ele>
        <time>2022-02-25T14:33:38Z</time>
      </trkpt>
      <trkpt lat="44.81133" lon="6.96843">
        <ele>1856.8</ele>
        <time>2022-02-25T14:33:39Z</time>
      </trkpt>
      <trkpt lat="44.81133" lon="6.96843">
        <ele>1856.8</ele>
        <time>2022-02-25T14:33:40Z</time>
      </trkpt>
      <trkpt lat="44.81133" lon="6.96843">
        <ele>1856.8</ele>
        <time>2022-02-25T14:33:41Z</time>
      </trkpt>
      <trkpt lat="44.81133" lon="6.96843">
        <ele>1856.8</ele>
        <time>2022-02-25T14:33:42Z</time>
      </trkpt>
      <trkpt lat="44.81133" lon="6.96843">
        <ele>1856.8</ele>
        <time>2022-02-25T14:33:43Z</time>
      </trkpt>
      <trkpt lat="44.81133" lon="6.96843">
        <ele>1856.8</ele>
        <time>2022-02-25T14:33:44Z</time>
      </trkpt>
      <trkpt lat="44.81133" lon="6.96843">
        <ele>1856.8</ele>
        <time>2022-02-25T14:33:45Z</time>
      </trkpt>
      <trkpt lat="44.81133" lon="6.96843">
        <ele>1856.8</ele>
        <time>2022-02-25T14:33:46Z</time>
      </trkpt>
      <trkpt lat="44.81133" lon="6.96843">
        <ele>1856.8</ele>
        <time>2022-02-25T14:33:47Z</time>
      </trkpt>
      <trkpt lat="44.81133" lon="6.96843">
        <ele>1856.8</ele>
        <time>2022-02-25T14:33:48Z</time>
      </trkpt>
      <trkpt lat="44.81133" lon="6.96843">
        <ele>1856.8</ele>
        <time>2022-02-25T14:33:49Z</time>
      </trkpt>
      <trkpt lat="44.81133" lon="6.96843">
        <ele>1856.8</ele>
        <time>2022-02-25T14:33:50Z</time>
      </trkpt>
      <trkpt lat="44.81133" lon="6.96843">
        <ele>1856.8</ele>
        <time>2022-02-25T14:33:51Z</time>
      </trkpt>
      <trkpt lat="44.81133" lon="6.96843">
        <ele>1856.8</ele>
        <time>2022-02-25T14:33:52Z</time>
      </trkpt>
      <trkpt lat="44.81133" lon="6.96843">
        <ele>1856.8</ele>
        <time>2022-02-25T14:33:53Z</time>
      </trkpt>
      <trkpt lat="44.81133" lon="6.96843">
        <ele>1856.8</ele>
        <time>2022-02-25T14:33:54Z</time>
      </trkpt>
      <trkpt lat="44.81133" lon="6.96843">
        <ele>1856.8</ele>
        <time>2022-02-25T14:33:55Z</time>
      </trkpt>
      <trkpt lat="44.81133" lon="6.96843">
        <ele>1856.8</ele>
        <time>2022-02-25T14:33:56Z</time>
      </trkpt>
      <trkpt lat="44.81133" lon="6.96843">
        <ele>1856.8</ele>
        <time>2022-02-25T14:33:57Z</time>
      </trkpt>
      <trkpt lat="44.81133" lon="6.96843">
        <ele>1856.8</ele>
        <time>2022-02-25T14:33:58Z</time>
      </trkpt>
      <trkpt lat="44.81134" lon="6.96843">
        <ele>1856.6</ele>
        <time>2022-02-25T14:33:59Z</time>
      </trkpt>
      <trkpt lat="44.81134" lon="6.96843">
        <ele>1856.6</ele>
        <time>2022-02-25T14:34:00Z</time>
      </trkpt>
      <trkpt lat="44.81134" lon="6.96843">
        <ele>1856.6</ele>
        <time>2022-02-25T14:34:01Z</time>
      </trkpt>
      <trkpt lat="44.81134" lon="6.96843">
        <ele>1856.6</ele>
        <time>2022-02-25T14:34:02Z</time>
      </trkpt>
      <trkpt lat="44.81134" lon="6.96843">
        <ele>1856.6</ele>
        <time>2022-02-25T14:34:03Z</time>
      </trkpt>
      <trkpt lat="44.81134" lon="6.96843">
        <ele>1856.6</ele>
        <time>2022-02-25T14:34:04Z</time>
      </trkpt>
      <trkpt lat="44.81134" lon="6.96843">
        <ele>1856.6</ele>
        <time>2022-02-25T14:34:05Z</time>
      </trkpt>
      <trkpt lat="44.81134" lon="6.96843">
        <ele>1856.6</ele>
        <time>2022-02-25T14:34:06Z</time>
      </trkpt>
      <trkpt lat="44.81134" lon="6.96843">
        <ele>1856.6</ele>
        <time>2022-02-25T14:34:07Z</time>
      </trkpt>
      <trkpt lat="44.81134" lon="6.96843">
        <ele>1856.6</ele>
        <time>2022-02-25T14:34:08Z</time>
      </trkpt>
      <trkpt lat="44.81134" lon="6.96843">
        <ele>1856.6</ele>
        <time>2022-02-25T14:34:09Z</time>
      </trkpt>
      <trkpt lat="44.81134" lon="6.96843">
        <ele>1856.6</ele>
        <time>2022-02-25T14:34:10Z</time>
      </trkpt>
      <trkpt lat="44.81134" lon="6.96843">
        <ele>1856.6</ele>
        <time>2022-02-25T14:34:11Z</time>
      </trkpt>
      <trkpt lat="44.81134" lon="6.96843">
        <ele>1856.6</ele>
        <time>2022-02-25T14:34:12Z</time>
      </trkpt>
      <trkpt lat="44.81134" lon="6.96843">
        <ele>1856.6</ele>
        <time>2022-02-25T14:34:13Z</time>
      </trkpt>
      <trkpt lat="44.81134" lon="6.96843">
        <ele>1856.6</ele>
        <time>2022-02-25T14:34:14Z</time>
      </trkpt>
      <trkpt lat="44.81134" lon="6.96843">
        <ele>1856.6</ele>
        <time>2022-02-25T14:34:15Z</time>
      </trkpt>
      <trkpt lat="44.81134" lon="6.96843">
        <ele>1856.6</ele>
        <time>2022-02-25T14:34:16Z</time>
      </trkpt>
      <trkpt lat="44.81134" lon="6.96843">
        <ele>1856.6</ele>
        <time>2022-02-25T14:34:17Z</time>
      </trkpt>
      <trkpt lat="44.81134" lon="6.96843">
        <ele>1856.6</ele>
        <time>2022-02-25T14:34:18Z</time>
      </trkpt>
      <trkpt lat="44.81134" lon="6.96843">
        <ele>1856.6</ele>
        <time>2022-02-25T14:34:19Z</time>
      </trkpt>
      <trkpt lat="44.81134" lon="6.96843">
        <ele>1856.6</ele>
        <time>2022-02-25T14:34:20Z</time>
      </trkpt>
      <trkpt lat="44.81134" lon="6.96843">
        <ele>1856.6</ele>
        <time>2022-02-25T14:34:21Z</time>
      </trkpt>
      <trkpt lat="44.81134" lon="6.96843">
        <ele>1856.6</ele>
        <time>2022-02-25T14:34:22Z</time>
      </trkpt>
      <trkpt lat="44.81134" lon="6.96843">
        <ele>1856.6</ele>
        <time>2022-02-25T14:34:23Z</time>
      </trkpt>
      <trkpt lat="44.81134" lon="6.96843">
        <ele>1856.6</ele>
        <time>2022-02-25T14:34:24Z</time>
      </trkpt>
      <trkpt lat="44.81134" lon="6.96843">
        <ele>1856.6</ele>
        <time>2022-02-25T14:34:25Z</time>
      </trkpt>
      <trkpt lat="44.81134" lon="6.96843">
        <ele>1856.6</ele>
        <time>2022-02-25T14:34:26Z</time>
      </trkpt>
      <trkpt lat="44.81134" lon="6.96843">
        <ele>1856.6</ele>
        <time>2022-02-25T14:34:27Z</time>
      </trkpt>
      <trkpt lat="44.81134" lon="6.96843">
        <ele>1856.6</ele>
        <time>2022-02-25T14:34:28Z</time>
      </trkpt>
      <trkpt lat="44.81134" lon="6.96843">
        <ele>1856.6</ele>
        <time>2022-02-25T14:34:29Z</time>
      </trkpt>
      <trkpt lat="44.81134" lon="6.96843">
        <ele>1856.6</ele>
        <time>2022-02-25T14:34:30Z</time>
      </trkpt>
      <trkpt lat="44.81134" lon="6.96843">
        <ele>1856.6</ele>
        <time>2022-02-25T14:34:31Z</time>
      </trkpt>
      <trkpt lat="44.81134" lon="6.96843">
        <ele>1856.6</ele>
        <time>2022-02-25T14:34:32Z</time>
      </trkpt>
      <trkpt lat="44.81134" lon="6.96843">
        <ele>1856.6</ele>
        <time>2022-02-25T14:34:33Z</time>
      </trkpt>
      <trkpt lat="44.81134" lon="6.96843">
        <ele>1856.6</ele>
        <time>2022-02-25T14:34:34Z</time>
      </trkpt>
      <trkpt lat="44.81134" lon="6.96843">
        <ele>1856.6</ele>
        <time>2022-02-25T14:34:35Z</time>
      </trkpt>
      <trkpt lat="44.81134" lon="6.96843">
        <ele>1856.6</ele>
        <time>2022-02-25T14:34:36Z</time>
      </trkpt>
      <trkpt lat="44.81134" lon="6.96843">
        <ele>1856.6</ele>
        <time>2022-02-25T14:34:37Z</time>
      </trkpt>
      <trkpt lat="44.81134" lon="6.96843">
        <ele>1856.6</ele>
        <time>2022-02-25T14:34:38Z</time>
      </trkpt>
      <trkpt lat="44.81134" lon="6.96843">
        <ele>1856.6</ele>
        <time>2022-02-25T14:34:39Z</time>
      </trkpt>
      <trkpt lat="44.81134" lon="6.96843">
        <ele>1856.6</ele>
        <time>2022-02-25T14:34:40Z</time>
      </trkpt>
      <trkpt lat="44.81134" lon="6.96843">
        <ele>1856.6</ele>
        <time>2022-02-25T14:34:41Z</time>
      </trkpt>
      <trkpt lat="44.81134" lon="6.96843">
        <ele>1856.6</ele>
        <time>2022-02-25T14:34:42Z</time>
      </trkpt>
      <trkpt lat="44.81134" lon="6.96843">
        <ele>1856.6</ele>
        <time>2022-02-25T14:34:43Z</time>
      </trkpt>
      <trkpt lat="44.81134" lon="6.96843">
        <ele>1856.6</ele>
        <time>2022-02-25T14:34:44Z</time>
      </trkpt>
      <trkpt lat="44.81134" lon="6.96843">
        <ele>1856.6</ele>
        <time>2022-02-25T14:34:45Z</time>
      </trkpt>
      <trkpt lat="44.81134" lon="6.96843">
        <ele>1856.6</ele>
        <time>2022-02-25T14:34:46Z</time>
      </trkpt>
      <trkpt lat="44.81134" lon="6.96843">
        <ele>1856.6</ele>
        <time>2022-02-25T14:34:47Z</time>
      </trkpt>
      <trkpt lat="44.81134" lon="6.96843">
        <ele>1856.6</ele>
        <time>2022-02-25T14:34:48Z</time>
      </trkpt>
      <trkpt lat="44.81134" lon="6.96843">
        <ele>1856.6</ele>
        <time>2022-02-25T14:34:49Z</time>
      </trkpt>
      <trkpt lat="44.81134" lon="6.96844">
        <ele>1856.6</ele>
        <time>2022-02-25T14:34:50Z</time>
      </trkpt>
      <trkpt lat="44.81134" lon="6.96844">
        <ele>1856.6</ele>
        <time>2022-02-25T14:34:51Z</time>
      </trkpt>
      <trkpt lat="44.81134" lon="6.96844">
        <ele>1856.6</ele>
        <time>2022-02-25T14:34:52Z</time>
      </trkpt>
      <trkpt lat="44.81134" lon="6.96844">
        <ele>1856.6</ele>
        <time>2022-02-25T14:34:53Z</time>
      </trkpt>
      <trkpt lat="44.81134" lon="6.96844">
        <ele>1856.6</ele>
        <time>2022-02-25T14:34:54Z</time>
      </trkpt>
      <trkpt lat="44.81134" lon="6.96844">
        <ele>1856.6</ele>
        <time>2022-02-25T14:34:55Z</time>
      </trkpt>
      <trkpt lat="44.81134" lon="6.96844">
        <ele>1856.6</ele>
        <time>2022-02-25T14:34:56Z</time>
      </trkpt>
      <trkpt lat="44.81134" lon="6.96844">
        <ele>1856.6</ele>
        <time>2022-02-25T14:34:57Z</time>
      </trkpt>
      <trkpt lat="44.81134" lon="6.96844">
        <ele>1856.6</ele>
        <time>2022-02-25T14:34:58Z</time>
      </trkpt>
      <trkpt lat="44.81134" lon="6.96844">
        <ele>1856.6</ele>
        <time>2022-02-25T14:34:59Z</time>
      </trkpt>
      <trkpt lat="44.81134" lon="6.96844">
        <ele>1856.6</ele>
        <time>2022-02-25T14:35:00Z</time>
      </trkpt>
      <trkpt lat="44.81134" lon="6.96844">
        <ele>1856.6</ele>
        <time>2022-02-25T14:35:01Z</time>
      </trkpt>
      <trkpt lat="44.81134" lon="6.96844">
        <ele>1856.6</ele>
        <time>2022-02-25T14:35:02Z</time>
      </trkpt>
      <trkpt lat="44.81134" lon="6.96844">
        <ele>1856.6</ele>
        <time>2022-02-25T14:35:03Z</time>
      </trkpt>
      <trkpt lat="44.81134" lon="6.96844">
        <ele>1856.6</ele>
        <time>2022-02-25T14:35:04Z</time>
      </trkpt>
      <trkpt lat="44.81134" lon="6.96844">
        <ele>1856.6</ele>
        <time>2022-02-25T14:35:05Z</time>
      </trkpt>
      <trkpt lat="44.81134" lon="6.96844">
        <ele>1856.6</ele>
        <time>2022-02-25T14:35:06Z</time>
      </trkpt>
      <trkpt lat="44.81134" lon="6.96844">
        <ele>1856.6</ele>
        <time>2022-02-25T14:35:07Z</time>
      </trkpt>
      <trkpt lat="44.81134" lon="6.96844">
        <ele>1856.6</ele>
        <time>2022-02-25T14:35:08Z</time>
      </trkpt>
      <trkpt lat="44.81134" lon="6.96844">
        <ele>1856.6</ele>
        <time>2022-02-25T14:35:09Z</time>
      </trkpt>
      <trkpt lat="44.81134" lon="6.96844">
        <ele>1856.6</ele>
        <time>2022-02-25T14:35:10Z</time>
      </trkpt>
      <trkpt lat="44.81134" lon="6.96844">
        <ele>1856.6</ele>
        <time>2022-02-25T14:35:11Z</time>
      </trkpt>
      <trkpt lat="44.81134" lon="6.96844">
        <ele>1856.6</ele>
        <time>2022-02-25T14:35:12Z</time>
      </trkpt>
      <trkpt lat="44.81134" lon="6.96844">
        <ele>1856.6</ele>
        <time>2022-02-25T14:35:13Z</time>
      </trkpt>
      <trkpt lat="44.81134" lon="6.96844">
        <ele>1856.6</ele>
        <time>2022-02-25T14:35:14Z</time>
      </trkpt>
      <trkpt lat="44.81134" lon="6.96844">
        <ele>1856.6</ele>
        <time>2022-02-25T14:35:15Z</time>
      </trkpt>
      <trkpt lat="44.81134" lon="6.96844">
        <ele>1856.6</ele>
        <time>2022-02-25T14:35:16Z</time>
      </trkpt>
      <trkpt lat="44.81134" lon="6.96844">
        <ele>1856.6</ele>
        <time>2022-02-25T14:35:17Z</time>
      </trkpt>
      <trkpt lat="44.81134" lon="6.96844">
        <ele>1856.6</ele>
        <time>2022-02-25T14:35:18Z</time>
      </trkpt>
      <trkpt lat="44.81134" lon="6.96844">
        <ele>1856.6</ele>
        <time>2022-02-25T14:35:19Z</time>
      </trkpt>
      <trkpt lat="44.81135" lon="6.96844">
        <ele>1856.5</ele>
        <time>2022-02-25T14:35:20Z</time>
      </trkpt>
      <trkpt lat="44.81135" lon="6.96844">
        <ele>1856.5</ele>
        <time>2022-02-25T14:35:21Z</time>
      </trkpt>
      <trkpt lat="44.81135" lon="6.96844">
        <ele>1856.5</ele>
        <time>2022-02-25T14:35:22Z</time>
      </trkpt>
      <trkpt lat="44.81135" lon="6.96844">
        <ele>1856.5</ele>
        <time>2022-02-25T14:35:23Z</time>
      </trkpt>
      <trkpt lat="44.81135" lon="6.96844">
        <ele>1856.5</ele>
        <time>2022-02-25T14:35:24Z</time>
      </trkpt>
      <trkpt lat="44.81135" lon="6.96844">
        <ele>1856.5</ele>
        <time>2022-02-25T14:35:25Z</time>
      </trkpt>
      <trkpt lat="44.81135" lon="6.96844">
        <ele>1856.5</ele>
        <time>2022-02-25T14:35:26Z</time>
      </trkpt>
      <trkpt lat="44.81135" lon="6.96844">
        <ele>1856.5</ele>
        <time>2022-02-25T14:35:27Z</time>
      </trkpt>
      <trkpt lat="44.81135" lon="6.96844">
        <ele>1856.5</ele>
        <time>2022-02-25T14:35:28Z</time>
      </trkpt>
      <trkpt lat="44.81135" lon="6.96844">
        <ele>1856.5</ele>
        <time>2022-02-25T14:35:29Z</time>
      </trkpt>
      <trkpt lat="44.81135" lon="6.96844">
        <ele>1856.5</ele>
        <time>2022-02-25T14:35:30Z</time>
      </trkpt>
      <trkpt lat="44.81135" lon="6.96844">
        <ele>1856.5</ele>
        <time>2022-02-25T14:35:31Z</time>
      </trkpt>
      <trkpt lat="44.81135" lon="6.96844">
        <ele>1856.5</ele>
        <time>2022-02-25T14:35:32Z</time>
      </trkpt>
      <trkpt lat="44.81135" lon="6.96844">
        <ele>1856.5</ele>
        <time>2022-02-25T14:35:33Z</time>
      </trkpt>
      <trkpt lat="44.81135" lon="6.96844">
        <ele>1856.5</ele>
        <time>2022-02-25T14:35:34Z</time>
      </trkpt>
      <trkpt lat="44.81135" lon="6.96844">
        <ele>1856.5</ele>
        <time>2022-02-25T14:35:35Z</time>
      </trkpt>
      <trkpt lat="44.81135" lon="6.96844">
        <ele>1856.5</ele>
        <time>2022-02-25T14:35:36Z</time>
      </trkpt>
      <trkpt lat="44.81135" lon="6.96844">
        <ele>1856.5</ele>
        <time>2022-02-25T14:35:37Z</time>
      </trkpt>
      <trkpt lat="44.81135" lon="6.96844">
        <ele>1856.5</ele>
        <time>2022-02-25T14:35:38Z</time>
      </trkpt>
      <trkpt lat="44.81135" lon="6.96844">
        <ele>1856.5</ele>
        <time>2022-02-25T14:35:39Z</time>
      </trkpt>
      <trkpt lat="44.81135" lon="6.96844">
        <ele>1856.5</ele>
        <time>2022-02-25T14:35:40Z</time>
      </trkpt>
      <trkpt lat="44.81135" lon="6.96844">
        <ele>1856.5</ele>
        <time>2022-02-25T14:35:41Z</time>
      </trkpt>
      <trkpt lat="44.81135" lon="6.96844">
        <ele>1856.5</ele>
        <time>2022-02-25T14:35:42Z</time>
      </trkpt>
      <trkpt lat="44.81135" lon="6.96844">
        <ele>1856.5</ele>
        <time>2022-02-25T14:35:43Z</time>
      </trkpt>
      <trkpt lat="44.81135" lon="6.96844">
        <ele>1856.5</ele>
        <time>2022-02-25T14:35:44Z</time>
      </trkpt>
      <trkpt lat="44.81135" lon="6.96844">
        <ele>1856.5</ele>
        <time>2022-02-25T14:35:45Z</time>
      </trkpt>
      <trkpt lat="44.81135" lon="6.96844">
        <ele>1856.5</ele>
        <time>2022-02-25T14:35:46Z</time>
      </trkpt>
      <trkpt lat="44.81135" lon="6.96844">
        <ele>1856.5</ele>
        <time>2022-02-25T14:35:47Z</time>
      </trkpt>
      <trkpt lat="44.81135" lon="6.96844">
        <ele>1856.5</ele>
        <time>2022-02-25T14:35:48Z</time>
      </trkpt>
      <trkpt lat="44.81135" lon="6.96844">
        <ele>1856.5</ele>
        <time>2022-02-25T14:35:49Z</time>
      </trkpt>
      <trkpt lat="44.81135" lon="6.96844">
        <ele>1856.5</ele>
        <time>2022-02-25T14:35:50Z</time>
      </trkpt>
      <trkpt lat="44.81135" lon="6.96844">
        <ele>1856.5</ele>
        <time>2022-02-25T14:35:51Z</time>
      </trkpt>
      <trkpt lat="44.81135" lon="6.96844">
        <ele>1856.5</ele>
        <time>2022-02-25T14:35:52Z</time>
      </trkpt>
      <trkpt lat="44.81135" lon="6.96844">
        <ele>1856.5</ele>
        <time>2022-02-25T14:35:53Z</time>
      </trkpt>
      <trkpt lat="44.81135" lon="6.96844">
        <ele>1856.5</ele>
        <time>2022-02-25T14:35:54Z</time>
      </trkpt>
      <trkpt lat="44.81135" lon="6.96844">
        <ele>1856.5</ele>
        <time>2022-02-25T14:35:55Z</time>
      </trkpt>
      <trkpt lat="44.81135" lon="6.96844">
        <ele>1856.5</ele>
        <time>2022-02-25T14:35:56Z</time>
      </trkpt>
      <trkpt lat="44.81135" lon="6.96844">
        <ele>1856.5</ele>
        <time>2022-02-25T14:35:57Z</time>
      </trkpt>
      <trkpt lat="44.81135" lon="6.96844">
        <ele>1856.5</ele>
        <time>2022-02-25T14:35:58Z</time>
      </trkpt>
      <trkpt lat="44.81135" lon="6.96844">
        <ele>1856.5</ele>
        <time>2022-02-25T14:35:59Z</time>
      </trkpt>
      <trkpt lat="44.81135" lon="6.96844">
        <ele>1856.5</ele>
        <time>2022-02-25T14:36:00Z</time>
      </trkpt>
      <trkpt lat="44.81135" lon="6.96844">
        <ele>1856.5</ele>
        <time>2022-02-25T14:36:01Z</time>
      </trkpt>
      <trkpt lat="44.81135" lon="6.96844">
        <ele>1856.5</ele>
        <time>2022-02-25T14:36:02Z</time>
      </trkpt>
      <trkpt lat="44.81135" lon="6.96844">
        <ele>1856.5</ele>
        <time>2022-02-25T14:36:03Z</time>
      </trkpt>
      <trkpt lat="44.81135" lon="6.96844">
        <ele>1856.5</ele>
        <time>2022-02-25T14:36:04Z</time>
      </trkpt>
      <trkpt lat="44.81135" lon="6.96844">
        <ele>1856.5</ele>
        <time>2022-02-25T14:36:05Z</time>
      </trkpt>
      <trkpt lat="44.81135" lon="6.96844">
        <ele>1856.5</ele>
        <time>2022-02-25T14:36:06Z</time>
      </trkpt>
      <trkpt lat="44.81135" lon="6.96844">
        <ele>1856.5</ele>
        <time>2022-02-25T14:36:07Z</time>
      </trkpt>
      <trkpt lat="44.81135" lon="6.96844">
        <ele>1856.5</ele>
        <time>2022-02-25T14:36:08Z</time>
      </trkpt>
      <trkpt lat="44.81135" lon="6.96844">
        <ele>1856.5</ele>
        <time>2022-02-25T14:36:09Z</time>
      </trkpt>
      <trkpt lat="44.81135" lon="6.96844">
        <ele>1856.5</ele>
        <time>2022-02-25T14:36:10Z</time>
      </trkpt>
      <trkpt lat="44.81135" lon="6.96844">
        <ele>1856.5</ele>
        <time>2022-02-25T14:36:11Z</time>
      </trkpt>
      <trkpt lat="44.81135" lon="6.96844">
        <ele>1856.5</ele>
        <time>2022-02-25T14:36:12Z</time>
      </trkpt>
      <trkpt lat="44.81135" lon="6.96844">
        <ele>1856.5</ele>
        <time>2022-02-25T14:36:13Z</time>
      </trkpt>
      <trkpt lat="44.81135" lon="6.96844">
        <ele>1856.5</ele>
        <time>2022-02-25T14:36:14Z</time>
      </trkpt>
      <trkpt lat="44.81135" lon="6.96844">
        <ele>1856.5</ele>
        <time>2022-02-25T14:36:15Z</time>
      </trkpt>
      <trkpt lat="44.81135" lon="6.96844">
        <ele>1856.5</ele>
        <time>2022-02-25T14:36:16Z</time>
      </trkpt>
      <trkpt lat="44.81135" lon="6.96844">
        <ele>1856.5</ele>
        <time>2022-02-25T14:36:17Z</time>
      </trkpt>
      <trkpt lat="44.81135" lon="6.96844">
        <ele>1856.5</ele>
        <time>2022-02-25T14:36:18Z</time>
      </trkpt>
      <trkpt lat="44.81135" lon="6.96844">
        <ele>1856.5</ele>
        <time>2022-02-25T14:36:19Z</time>
      </trkpt>
      <trkpt lat="44.81135" lon="6.96844">
        <ele>1856.5</ele>
        <time>2022-02-25T14:36:20Z</time>
      </trkpt>
      <trkpt lat="44.81135" lon="6.96844">
        <ele>1856.5</ele>
        <time>2022-02-25T14:36:21Z</time>
      </trkpt>
      <trkpt lat="44.81135" lon="6.96844">
        <ele>1856.5</ele>
        <time>2022-02-25T14:36:22Z</time>
      </trkpt>
      <trkpt lat="44.81135" lon="6.96844">
        <ele>1856.5</ele>
        <time>2022-02-25T14:36:23Z</time>
      </trkpt>
      <trkpt lat="44.81135" lon="6.96844">
        <ele>1856.5</ele>
        <time>2022-02-25T14:36:24Z</time>
      </trkpt>
      <trkpt lat="44.81135" lon="6.96844">
        <ele>1856.5</ele>
        <time>2022-02-25T14:36:25Z</time>
      </trkpt>
      <trkpt lat="44.81135" lon="6.96844">
        <ele>1856.5</ele>
        <time>2022-02-25T14:36:26Z</time>
      </trkpt>
      <trkpt lat="44.81135" lon="6.96845">
        <ele>1856.5</ele>
        <time>2022-02-25T14:36:27Z</time>
      </trkpt>
      <trkpt lat="44.81135" lon="6.96845">
        <ele>1856.5</ele>
        <time>2022-02-25T14:36:28Z</time>
      </trkpt>
      <trkpt lat="44.81135" lon="6.96845">
        <ele>1856.5</ele>
        <time>2022-02-25T14:36:29Z</time>
      </trkpt>
      <trkpt lat="44.81135" lon="6.96845">
        <ele>1856.5</ele>
        <time>2022-02-25T14:36:30Z</time>
      </trkpt>
      <trkpt lat="44.81135" lon="6.96845">
        <ele>1856.5</ele>
        <time>2022-02-25T14:36:31Z</time>
      </trkpt>
      <trkpt lat="44.81135" lon="6.96845">
        <ele>1856.5</ele>
        <time>2022-02-25T14:36:32Z</time>
      </trkpt>
      <trkpt lat="44.81135" lon="6.96845">
        <ele>1856.5</ele>
        <time>2022-02-25T14:36:33Z</time>
      </trkpt>
      <trkpt lat="44.81135" lon="6.96845">
        <ele>1856.5</ele>
        <time>2022-02-25T14:36:34Z</time>
      </trkpt>
      <trkpt lat="44.81135" lon="6.96845">
        <ele>1856.5</ele>
        <time>2022-02-25T14:36:35Z</time>
      </trkpt>
      <trkpt lat="44.81135" lon="6.96845">
        <ele>1856.5</ele>
        <time>2022-02-25T14:36:36Z</time>
      </trkpt>
      <trkpt lat="44.81135" lon="6.96845">
        <ele>1856.5</ele>
        <time>2022-02-25T14:36:37Z</time>
      </trkpt>
      <trkpt lat="44.81135" lon="6.96845">
        <ele>1856.5</ele>
        <time>2022-02-25T14:36:38Z</time>
      </trkpt>
      <trkpt lat="44.81135" lon="6.96845">
        <ele>1856.5</ele>
        <time>2022-02-25T14:36:39Z</time>
      </trkpt>
      <trkpt lat="44.81136" lon="6.96845">
        <ele>1856.4</ele>
        <time>2022-02-25T14:36:40Z</time>
      </trkpt>
      <trkpt lat="44.81136" lon="6.96845">
        <ele>1856.4</ele>
        <time>2022-02-25T14:36:41Z</time>
      </trkpt>
      <trkpt lat="44.81136" lon="6.96845">
        <ele>1856.4</ele>
        <time>2022-02-25T14:36:42Z</time>
      </trkpt>
      <trkpt lat="44.81136" lon="6.96845">
        <ele>1856.4</ele>
        <time>2022-02-25T14:36:43Z</time>
      </trkpt>
      <trkpt lat="44.81136" lon="6.96845">
        <ele>1856.4</ele>
        <time>2022-02-25T14:36:44Z</time>
      </trkpt>
      <trkpt lat="44.81136" lon="6.96845">
        <ele>1856.4</ele>
        <time>2022-02-25T14:36:45Z</time>
      </trkpt>
      <trkpt lat="44.81136" lon="6.96845">
        <ele>1856.4</ele>
        <time>2022-02-25T14:36:46Z</time>
      </trkpt>
      <trkpt lat="44.81136" lon="6.96845">
        <ele>1856.4</ele>
        <time>2022-02-25T14:36:47Z</time>
      </trkpt>
      <trkpt lat="44.81136" lon="6.96845">
        <ele>1856.4</ele>
        <time>2022-02-25T14:36:48Z</time>
      </trkpt>
      <trkpt lat="44.81136" lon="6.96845">
        <ele>1856.4</ele>
        <time>2022-02-25T14:36:49Z</time>
      </trkpt>
      <trkpt lat="44.81136" lon="6.96845">
        <ele>1856.4</ele>
        <time>2022-02-25T14:36:50Z</time>
      </trkpt>
      <trkpt lat="44.81136" lon="6.96845">
        <ele>1856.4</ele>
        <time>2022-02-25T14:36:51Z</time>
      </trkpt>
      <trkpt lat="44.81136" lon="6.96845">
        <ele>1856.4</ele>
        <time>2022-02-25T14:36:52Z</time>
      </trkpt>
      <trkpt lat="44.81136" lon="6.96845">
        <ele>1856.4</ele>
        <time>2022-02-25T14:36:53Z</time>
      </trkpt>
      <trkpt lat="44.81136" lon="6.96845">
        <ele>1856.4</ele>
        <time>2022-02-25T14:36:54Z</time>
      </trkpt>
      <trkpt lat="44.81136" lon="6.96845">
        <ele>1856.4</ele>
        <time>2022-02-25T14:36:55Z</time>
      </trkpt>
      <trkpt lat="44.81136" lon="6.96845">
        <ele>1856.4</ele>
        <time>2022-02-25T14:36:56Z</time>
      </trkpt>
      <trkpt lat="44.81136" lon="6.96845">
        <ele>1856.4</ele>
        <time>2022-02-25T14:36:57Z</time>
      </trkpt>
      <trkpt lat="44.81136" lon="6.96845">
        <ele>1856.4</ele>
        <time>2022-02-25T14:36:58Z</time>
      </trkpt>
      <trkpt lat="44.81136" lon="6.96845">
        <ele>1856.4</ele>
        <time>2022-02-25T14:36:59Z</time>
      </trkpt>
      <trkpt lat="44.81136" lon="6.96845">
        <ele>1856.4</ele>
        <time>2022-02-25T14:37:00Z</time>
      </trkpt>
      <trkpt lat="44.81136" lon="6.96845">
        <ele>1856.4</ele>
        <time>2022-02-25T14:37:01Z</time>
      </trkpt>
      <trkpt lat="44.81136" lon="6.96845">
        <ele>1856.4</ele>
        <time>2022-02-25T14:37:02Z</time>
      </trkpt>
      <trkpt lat="44.81136" lon="6.96845">
        <ele>1856.4</ele>
        <time>2022-02-25T14:37:03Z</time>
      </trkpt>
      <trkpt lat="44.81136" lon="6.96845">
        <ele>1856.4</ele>
        <time>2022-02-25T14:37:04Z</time>
      </trkpt>
      <trkpt lat="44.81136" lon="6.96845">
        <ele>1856.4</ele>
        <time>2022-02-25T14:37:05Z</time>
      </trkpt>
      <trkpt lat="44.81136" lon="6.96845">
        <ele>1856.4</ele>
        <time>2022-02-25T14:37:06Z</time>
      </trkpt>
      <trkpt lat="44.81136" lon="6.96845">
        <ele>1856.4</ele>
        <time>2022-02-25T14:37:07Z</time>
      </trkpt>
      <trkpt lat="44.81136" lon="6.96845">
        <ele>1856.4</ele>
        <time>2022-02-25T14:37:08Z</time>
      </trkpt>
      <trkpt lat="44.81136" lon="6.96845">
        <ele>1856.4</ele>
        <time>2022-02-25T14:37:09Z</time>
      </trkpt>
      <trkpt lat="44.81136" lon="6.96845">
        <ele>1856.4</ele>
        <time>2022-02-25T14:37:10Z</time>
      </trkpt>
      <trkpt lat="44.81136" lon="6.96845">
        <ele>1856.4</ele>
        <time>2022-02-25T14:37:11Z</time>
      </trkpt>
      <trkpt lat="44.81136" lon="6.96845">
        <ele>1856.4</ele>
        <time>2022-02-25T14:37:12Z</time>
      </trkpt>
      <trkpt lat="44.81136" lon="6.96845">
        <ele>1856.4</ele>
        <time>2022-02-25T14:37:13Z</time>
      </trkpt>
      <trkpt lat="44.81136" lon="6.96845">
        <ele>1856.4</ele>
        <time>2022-02-25T14:37:14Z</time>
      </trkpt>
      <trkpt lat="44.81136" lon="6.96845">
        <ele>1856.4</ele>
        <time>2022-02-25T14:37:15Z</time>
      </trkpt>
      <trkpt lat="44.81136" lon="6.96845">
        <ele>1856.4</ele>
        <time>2022-02-25T14:37:16Z</time>
      </trkpt>
      <trkpt lat="44.81136" lon="6.96845">
        <ele>1856.4</ele>
        <time>2022-02-25T14:37:17Z</time>
      </trkpt>
      <trkpt lat="44.81136" lon="6.96845">
        <ele>1856.4</ele>
        <time>2022-02-25T14:37:18Z</time>
      </trkpt>
      <trkpt lat="44.81136" lon="6.96845">
        <ele>1856.4</ele>
        <time>2022-02-25T14:37:19Z</time>
      </trkpt>
      <trkpt lat="44.81136" lon="6.96845">
        <ele>1856.4</ele>
        <time>2022-02-25T14:37:20Z</time>
      </trkpt>
      <trkpt lat="44.81136" lon="6.96845">
        <ele>1856.4</ele>
        <time>2022-02-25T14:37:21Z</time>
      </trkpt>
      <trkpt lat="44.81136" lon="6.96845">
        <ele>1856.4</ele>
        <time>2022-02-25T14:37:22Z</time>
      </trkpt>
      <trkpt lat="44.81136" lon="6.96845">
        <ele>1856.4</ele>
        <time>2022-02-25T14:37:23Z</time>
      </trkpt>
      <trkpt lat="44.81136" lon="6.96845">
        <ele>1856.4</ele>
        <time>2022-02-25T14:37:24Z</time>
      </trkpt>
      <trkpt lat="44.81136" lon="6.96845">
        <ele>1856.4</ele>
        <time>2022-02-25T14:37:25Z</time>
      </trkpt>
      <trkpt lat="44.81136" lon="6.96845">
        <ele>1856.4</ele>
        <time>2022-02-25T14:37:26Z</time>
      </trkpt>
      <trkpt lat="44.81136" lon="6.96845">
        <ele>1856.4</ele>
        <time>2022-02-25T14:37:27Z</time>
      </trkpt>
      <trkpt lat="44.81136" lon="6.96845">
        <ele>1856.4</ele>
        <time>2022-02-25T14:37:28Z</time>
      </trkpt>
      <trkpt lat="44.81136" lon="6.96845">
        <ele>1856.4</ele>
        <time>2022-02-25T14:37:29Z</time>
      </trkpt>
      <trkpt lat="44.81136" lon="6.96845">
        <ele>1856.4</ele>
        <time>2022-02-25T14:37:30Z</time>
      </trkpt>
      <trkpt lat="44.81136" lon="6.96845">
        <ele>1856.4</ele>
        <time>2022-02-25T14:37:31Z</time>
      </trkpt>
      <trkpt lat="44.81136" lon="6.96845">
        <ele>1856.4</ele>
        <time>2022-02-25T14:37:32Z</time>
      </trkpt>
      <trkpt lat="44.81136" lon="6.96845">
        <ele>1856.4</ele>
        <time>2022-02-25T14:37:33Z</time>
      </trkpt>
      <trkpt lat="44.81136" lon="6.96845">
        <ele>1856.4</ele>
        <time>2022-02-25T14:37:34Z</time>
      </trkpt>
      <trkpt lat="44.81136" lon="6.96845">
        <ele>1856.4</ele>
        <time>2022-02-25T14:37:35Z</time>
      </trkpt>
      <trkpt lat="44.81136" lon="6.96845">
        <ele>1856.4</ele>
        <time>2022-02-25T14:37:36Z</time>
      </trkpt>
      <trkpt lat="44.81136" lon="6.96845">
        <ele>1856.4</ele>
        <time>2022-02-25T14:37:37Z</time>
      </trkpt>
      <trkpt lat="44.81136" lon="6.96845">
        <ele>1856.4</ele>
        <time>2022-02-25T14:37:38Z</time>
      </trkpt>
      <trkpt lat="44.81136" lon="6.96845">
        <ele>1856.4</ele>
        <time>2022-02-25T14:37:39Z</time>
      </trkpt>
      <trkpt lat="44.81136" lon="6.96845">
        <ele>1856.4</ele>
        <time>2022-02-25T14:37:40Z</time>
      </trkpt>
      <trkpt lat="44.81136" lon="6.96845">
        <ele>1856.4</ele>
        <time>2022-02-25T14:37:41Z</time>
      </trkpt>
      <trkpt lat="44.81136" lon="6.96845">
        <ele>1856.4</ele>
        <time>2022-02-25T14:37:42Z</time>
      </trkpt>
      <trkpt lat="44.81136" lon="6.96845">
        <ele>1856.4</ele>
        <time>2022-02-25T14:37:43Z</time>
      </trkpt>
      <trkpt lat="44.81136" lon="6.96845">
        <ele>1856.4</ele>
        <time>2022-02-25T14:37:44Z</time>
      </trkpt>
      <trkpt lat="44.81136" lon="6.96845">
        <ele>1856.4</ele>
        <time>2022-02-25T14:37:45Z</time>
      </trkpt>
      <trkpt lat="44.81136" lon="6.96845">
        <ele>1856.4</ele>
        <time>2022-02-25T14:37:46Z</time>
      </trkpt>
      <trkpt lat="44.81136" lon="6.96845">
        <ele>1856.4</ele>
        <time>2022-02-25T14:37:47Z</time>
      </trkpt>
      <trkpt lat="44.81136" lon="6.96845">
        <ele>1856.4</ele>
        <time>2022-02-25T14:37:48Z</time>
      </trkpt>
      <trkpt lat="44.81136" lon="6.96845">
        <ele>1856.4</ele>
        <time>2022-02-25T14:37:49Z</time>
      </trkpt>
      <trkpt lat="44.81136" lon="6.96845">
        <ele>1856.4</ele>
        <time>2022-02-25T14:37:50Z</time>
      </trkpt>
      <trkpt lat="44.81136" lon="6.96845">
        <ele>1856.4</ele>
        <time>2022-02-25T14:37:51Z</time>
      </trkpt>
      <trkpt lat="44.81136" lon="6.96845">
        <ele>1856.4</ele>
        <time>2022-02-25T14:37:52Z</time>
      </trkpt>
      <trkpt lat="44.81136" lon="6.96845">
        <ele>1856.4</ele>
        <time>2022-02-25T14:37:53Z</time>
      </trkpt>
      <trkpt lat="44.81136" lon="6.96845">
        <ele>1856.4</ele>
        <time>2022-02-25T14:37:54Z</time>
      </trkpt>
      <trkpt lat="44.81136" lon="6.96845">
        <ele>1856.4</ele>
        <time>2022-02-25T14:37:55Z</time>
      </trkpt>
      <trkpt lat="44.81136" lon="6.96845">
        <ele>1856.4</ele>
        <time>2022-02-25T14:37:56Z</time>
      </trkpt>
      <trkpt lat="44.81136" lon="6.96845">
        <ele>1856.4</ele>
        <time>2022-02-25T14:37:57Z</time>
      </trkpt>
      <trkpt lat="44.81136" lon="6.96845">
        <ele>1856.4</ele>
        <time>2022-02-25T14:37:58Z</time>
      </trkpt>
      <trkpt lat="44.81136" lon="6.96845">
        <ele>1856.4</ele>
        <time>2022-02-25T14:37:59Z</time>
      </trkpt>
      <trkpt lat="44.81137" lon="6.96845">
        <ele>1856.2</ele>
        <time>2022-02-25T14:38:00Z</time>
      </trkpt>
      <trkpt lat="44.81137" lon="6.96845">
        <ele>1856.2</ele>
        <time>2022-02-25T14:38:01Z</time>
      </trkpt>
      <trkpt lat="44.81137" lon="6.96845">
        <ele>1856.2</ele>
        <time>2022-02-25T14:38:02Z</time>
      </trkpt>
      <trkpt lat="44.81137" lon="6.96845">
        <ele>1856.2</ele>
        <time>2022-02-25T14:38:03Z</time>
      </trkpt>
      <trkpt lat="44.81137" lon="6.96846">
        <ele>1856.2</ele>
        <time>2022-02-25T14:38:04Z</time>
      </trkpt>
      <trkpt lat="44.81137" lon="6.96846">
        <ele>1856.2</ele>
        <time>2022-02-25T14:38:05Z</time>
      </trkpt>
      <trkpt lat="44.81137" lon="6.96846">
        <ele>1856.2</ele>
        <time>2022-02-25T14:38:06Z</time>
      </trkpt>
      <trkpt lat="44.81137" lon="6.96846">
        <ele>1856.2</ele>
        <time>2022-02-25T14:38:07Z</time>
      </trkpt>
      <trkpt lat="44.81137" lon="6.96846">
        <ele>1856.2</ele>
        <time>2022-02-25T14:38:08Z</time>
      </trkpt>
      <trkpt lat="44.81137" lon="6.96846">
        <ele>1856.2</ele>
        <time>2022-02-25T14:38:09Z</time>
      </trkpt>
      <trkpt lat="44.81137" lon="6.96846">
        <ele>1856.2</ele>
        <time>2022-02-25T14:38:10Z</time>
      </trkpt>
      <trkpt lat="44.81137" lon="6.96846">
        <ele>1856.2</ele>
        <time>2022-02-25T14:38:11Z</time>
      </trkpt>
      <trkpt lat="44.81137" lon="6.96846">
        <ele>1856.2</ele>
        <time>2022-02-25T14:38:12Z</time>
      </trkpt>
      <trkpt lat="44.81137" lon="6.96846">
        <ele>1856.2</ele>
        <time>2022-02-25T14:38:13Z</time>
      </trkpt>
      <trkpt lat="44.81137" lon="6.96846">
        <ele>1856.2</ele>
        <time>2022-02-25T14:38:14Z</time>
      </trkpt>
      <trkpt lat="44.81137" lon="6.96846">
        <ele>1856.2</ele>
        <time>2022-02-25T14:38:15Z</time>
      </trkpt>
      <trkpt lat="44.81137" lon="6.96846">
        <ele>1856.2</ele>
        <time>2022-02-25T14:38:16Z</time>
      </trkpt>
      <trkpt lat="44.81137" lon="6.96846">
        <ele>1856.2</ele>
        <time>2022-02-25T14:38:17Z</time>
      </trkpt>
      <trkpt lat="44.81137" lon="6.96846">
        <ele>1856.2</ele>
        <time>2022-02-25T14:38:18Z</time>
      </trkpt>
      <trkpt lat="44.81137" lon="6.96846">
        <ele>1856.2</ele>
        <time>2022-02-25T14:38:19Z</time>
      </trkpt>
      <trkpt lat="44.81137" lon="6.96846">
        <ele>1856.2</ele>
        <time>2022-02-25T14:38:20Z</time>
      </trkpt>
      <trkpt lat="44.81137" lon="6.96846">
        <ele>1856.2</ele>
        <time>2022-02-25T14:38:21Z</time>
      </trkpt>
      <trkpt lat="44.81137" lon="6.96846">
        <ele>1856.2</ele>
        <time>2022-02-25T14:38:22Z</time>
      </trkpt>
      <trkpt lat="44.81137" lon="6.96846">
        <ele>1856.2</ele>
        <time>2022-02-25T14:38:23Z</time>
      </trkpt>
      <trkpt lat="44.81137" lon="6.96846">
        <ele>1856.2</ele>
        <time>2022-02-25T14:38:24Z</time>
      </trkpt>
      <trkpt lat="44.81137" lon="6.96846">
        <ele>1856.2</ele>
        <time>2022-02-25T14:38:25Z</time>
      </trkpt>
      <trkpt lat="44.81137" lon="6.96846">
        <ele>1856.2</ele>
        <time>2022-02-25T14:38:26Z</time>
      </trkpt>
      <trkpt lat="44.81137" lon="6.96846">
        <ele>1856.2</ele>
        <time>2022-02-25T14:38:27Z</time>
      </trkpt>
      <trkpt lat="44.81137" lon="6.96846">
        <ele>1856.2</ele>
        <time>2022-02-25T14:38:28Z</time>
      </trkpt>
      <trkpt lat="44.81137" lon="6.96846">
        <ele>1856.2</ele>
        <time>2022-02-25T14:38:29Z</time>
      </trkpt>
      <trkpt lat="44.81137" lon="6.96846">
        <ele>1856.2</ele>
        <time>2022-02-25T14:38:30Z</time>
      </trkpt>
      <trkpt lat="44.81137" lon="6.96846">
        <ele>1856.2</ele>
        <time>2022-02-25T14:38:31Z</time>
      </trkpt>
      <trkpt lat="44.81137" lon="6.96846">
        <ele>1856.2</ele>
        <time>2022-02-25T14:38:32Z</time>
      </trkpt>
      <trkpt lat="44.81137" lon="6.96846">
        <ele>1856.2</ele>
        <time>2022-02-25T14:38:33Z</time>
      </trkpt>
      <trkpt lat="44.81137" lon="6.96846">
        <ele>1856.2</ele>
        <time>2022-02-25T14:38:34Z</time>
      </trkpt>
      <trkpt lat="44.81137" lon="6.96846">
        <ele>1856.2</ele>
        <time>2022-02-25T14:38:35Z</time>
      </trkpt>
      <trkpt lat="44.81137" lon="6.96846">
        <ele>1856.2</ele>
        <time>2022-02-25T14:38:36Z</time>
      </trkpt>
      <trkpt lat="44.81137" lon="6.96846">
        <ele>1856.2</ele>
        <time>2022-02-25T14:38:37Z</time>
      </trkpt>
      <trkpt lat="44.81137" lon="6.96846">
        <ele>1856.2</ele>
        <time>2022-02-25T14:38:38Z</time>
      </trkpt>
      <trkpt lat="44.81137" lon="6.96846">
        <ele>1856.2</ele>
        <time>2022-02-25T14:38:39Z</time>
      </trkpt>
      <trkpt lat="44.81137" lon="6.96846">
        <ele>1856.2</ele>
        <time>2022-02-25T14:38:40Z</time>
      </trkpt>
      <trkpt lat="44.81137" lon="6.96846">
        <ele>1856.2</ele>
        <time>2022-02-25T14:38:41Z</time>
      </trkpt>
      <trkpt lat="44.81137" lon="6.96846">
        <ele>1856.2</ele>
        <time>2022-02-25T14:38:42Z</time>
      </trkpt>
      <trkpt lat="44.81137" lon="6.96846">
        <ele>1856.2</ele>
        <time>2022-02-25T14:38:43Z</time>
      </trkpt>
      <trkpt lat="44.81137" lon="6.96846">
        <ele>1856.2</ele>
        <time>2022-02-25T14:38:44Z</time>
      </trkpt>
      <trkpt lat="44.81137" lon="6.96846">
        <ele>1856.2</ele>
        <time>2022-02-25T14:38:45Z</time>
      </trkpt>
      <trkpt lat="44.81137" lon="6.96846">
        <ele>1856.2</ele>
        <time>2022-02-25T14:38:46Z</time>
      </trkpt>
      <trkpt lat="44.81137" lon="6.96846">
        <ele>1856.2</ele>
        <time>2022-02-25T14:38:47Z</time>
      </trkpt>
      <trkpt lat="44.81137" lon="6.96846">
        <ele>1856.2</ele>
        <time>2022-02-25T14:38:48Z</time>
      </trkpt>
      <trkpt lat="44.81137" lon="6.96846">
        <ele>1856.2</ele>
        <time>2022-02-25T14:38:49Z</time>
      </trkpt>
      <trkpt lat="44.81137" lon="6.96846">
        <ele>1856.2</ele>
        <time>2022-02-25T14:38:50Z</time>
      </trkpt>
      <trkpt lat="44.81137" lon="6.96846">
        <ele>1856.2</ele>
        <time>2022-02-25T14:38:51Z</time>
      </trkpt>
      <trkpt lat="44.81137" lon="6.96846">
        <ele>1856.2</ele>
        <time>2022-02-25T14:38:52Z</time>
      </trkpt>
      <trkpt lat="44.81137" lon="6.96846">
        <ele>1856.2</ele>
        <time>2022-02-25T14:38:53Z</time>
      </trkpt>
      <trkpt lat="44.81137" lon="6.96846">
        <ele>1856.2</ele>
        <time>2022-02-25T14:38:54Z</time>
      </trkpt>
      <trkpt lat="44.81137" lon="6.96846">
        <ele>1856.2</ele>
        <time>2022-02-25T14:38:55Z</time>
      </trkpt>
      <trkpt lat="44.81137" lon="6.96846">
        <ele>1856.2</ele>
        <time>2022-02-25T14:38:56Z</time>
      </trkpt>
      <trkpt lat="44.81137" lon="6.96846">
        <ele>1856.2</ele>
        <time>2022-02-25T14:38:57Z</time>
      </trkpt>
      <trkpt lat="44.81137" lon="6.96846">
        <ele>1856.2</ele>
        <time>2022-02-25T14:38:58Z</time>
      </trkpt>
      <trkpt lat="44.81137" lon="6.96846">
        <ele>1856.2</ele>
        <time>2022-02-25T14:38:59Z</time>
      </trkpt>
      <trkpt lat="44.81137" lon="6.96846">
        <ele>1856.2</ele>
        <time>2022-02-25T14:39:00Z</time>
      </trkpt>
      <trkpt lat="44.81137" lon="6.96846">
        <ele>1856.2</ele>
        <time>2022-02-25T14:39:01Z</time>
      </trkpt>
      <trkpt lat="44.81137" lon="6.96846">
        <ele>1856.2</ele>
        <time>2022-02-25T14:39:02Z</time>
      </trkpt>
      <trkpt lat="44.81137" lon="6.96846">
        <ele>1856.2</ele>
        <time>2022-02-25T14:39:03Z</time>
      </trkpt>
      <trkpt lat="44.81137" lon="6.96846">
        <ele>1856.2</ele>
        <time>2022-02-25T14:39:04Z</time>
      </trkpt>
      <trkpt lat="44.81137" lon="6.96846">
        <ele>1856.2</ele>
        <time>2022-02-25T14:39:05Z</time>
      </trkpt>
      <trkpt lat="44.81137" lon="6.96846">
        <ele>1856.2</ele>
        <time>2022-02-25T14:39:06Z</time>
      </trkpt>
      <trkpt lat="44.81137" lon="6.96846">
        <ele>1856.2</ele>
        <time>2022-02-25T14:39:07Z</time>
      </trkpt>
      <trkpt lat="44.81137" lon="6.96846">
        <ele>1856.2</ele>
        <time>2022-02-25T14:39:08Z</time>
      </trkpt>
      <trkpt lat="44.81137" lon="6.96846">
        <ele>1856.2</ele>
        <time>2022-02-25T14:39:09Z</time>
      </trkpt>
      <trkpt lat="44.81137" lon="6.96846">
        <ele>1856.2</ele>
        <time>2022-02-25T14:39:10Z</time>
      </trkpt>
      <trkpt lat="44.81137" lon="6.96846">
        <ele>1856.2</ele>
        <time>2022-02-25T14:39:11Z</time>
      </trkpt>
      <trkpt lat="44.81137" lon="6.96846">
        <ele>1856.2</ele>
        <time>2022-02-25T14:39:12Z</time>
      </trkpt>
      <trkpt lat="44.81137" lon="6.96846">
        <ele>1856.2</ele>
        <time>2022-02-25T14:39:13Z</time>
      </trkpt>
      <trkpt lat="44.81137" lon="6.96846">
        <ele>1856.2</ele>
        <time>2022-02-25T14:39:14Z</time>
      </trkpt>
      <trkpt lat="44.81137" lon="6.96846">
        <ele>1856.2</ele>
        <time>2022-02-25T14:39:15Z</time>
      </trkpt>
      <trkpt lat="44.81137" lon="6.96846">
        <ele>1856.2</ele>
        <time>2022-02-25T14:39:16Z</time>
      </trkpt>
      <trkpt lat="44.81137" lon="6.96846">
        <ele>1856.2</ele>
        <time>2022-02-25T14:39:17Z</time>
      </trkpt>
      <trkpt lat="44.81137" lon="6.96846">
        <ele>1856.2</ele>
        <time>2022-02-25T14:39:18Z</time>
      </trkpt>
      <trkpt lat="44.81137" lon="6.96846">
        <ele>1856.2</ele>
        <time>2022-02-25T14:39:19Z</time>
      </trkpt>
      <trkpt lat="44.81137" lon="6.96846">
        <ele>1856.2</ele>
        <time>2022-02-25T14:39:20Z</time>
      </trkpt>
      <trkpt lat="44.81137" lon="6.96846">
        <ele>1856.2</ele>
        <time>2022-02-25T14:39:21Z</time>
      </trkpt>
      <trkpt lat="44.81137" lon="6.96846">
        <ele>1856.2</ele>
        <time>2022-02-25T14:39:22Z</time>
      </trkpt>
      <trkpt lat="44.81137" lon="6.96846">
        <ele>1856.2</ele>
        <time>2022-02-25T14:39:23Z</time>
      </trkpt>
      <trkpt lat="44.81137" lon="6.96846">
        <ele>1856.2</ele>
        <time>2022-02-25T14:39:24Z</time>
      </trkpt>
      <trkpt lat="44.81137" lon="6.96846">
        <ele>1856.2</ele>
        <time>2022-02-25T14:39:25Z</time>
      </trkpt>
      <trkpt lat="44.81137" lon="6.96846">
        <ele>1856.2</ele>
        <time>2022-02-25T14:39:26Z</time>
      </trkpt>
      <trkpt lat="44.81137" lon="6.96846">
        <ele>1856.2</ele>
        <time>2022-02-25T14:39:27Z</time>
      </trkpt>
      <trkpt lat="44.81137" lon="6.96846">
        <ele>1856.2</ele>
        <time>2022-02-25T14:39:28Z</time>
      </trkpt>
      <trkpt lat="44.81137" lon="6.96846">
        <ele>1856.2</ele>
        <time>2022-02-25T14:39:29Z</time>
      </trkpt>
      <trkpt lat="44.81137" lon="6.96846">
        <ele>1856.2</ele>
        <time>2022-02-25T14:39:30Z</time>
      </trkpt>
      <trkpt lat="44.81137" lon="6.96846">
        <ele>1856.2</ele>
        <time>2022-02-25T14:39:31Z</time>
      </trkpt>
      <trkpt lat="44.81137" lon="6.96846">
        <ele>1856.2</ele>
        <time>2022-02-25T14:39:32Z</time>
      </trkpt>
      <trkpt lat="44.81137" lon="6.96846">
        <ele>1856.2</ele>
        <time>2022-02-25T14:39:33Z</time>
      </trkpt>
      <trkpt lat="44.81137" lon="6.96846">
        <ele>1856.2</ele>
        <time>2022-02-25T14:39:34Z</time>
      </trkpt>
      <trkpt lat="44.81137" lon="6.96846">
        <ele>1856.2</ele>
        <time>2022-02-25T14:39:35Z</time>
      </trkpt>
      <trkpt lat="44.81137" lon="6.96846">
        <ele>1856.2</ele>
        <time>2022-02-25T14:39:36Z</time>
      </trkpt>
      <trkpt lat="44.81137" lon="6.96846">
        <ele>1856.2</ele>
        <time>2022-02-25T14:39:37Z</time>
      </trkpt>
      <trkpt lat="44.81137" lon="6.96846">
        <ele>1856.2</ele>
        <time>2022-02-25T14:39:38Z</time>
      </trkpt>
      <trkpt lat="44.81137" lon="6.96846">
        <ele>1856.2</ele>
        <time>2022-02-25T14:39:39Z</time>
      </trkpt>
      <trkpt lat="44.81137" lon="6.96846">
        <ele>1856.2</ele>
        <time>2022-02-25T14:39:40Z</time>
      </trkpt>
      <trkpt lat="44.81137" lon="6.96846">
        <ele>1856.2</ele>
        <time>2022-02-25T14:39:41Z</time>
      </trkpt>
      <trkpt lat="44.81137" lon="6.96846">
        <ele>1856.2</ele>
        <time>2022-02-25T14:39:42Z</time>
      </trkpt>
      <trkpt lat="44.81137" lon="6.96846">
        <ele>1856.2</ele>
        <time>2022-02-25T14:39:43Z</time>
      </trkpt>
      <trkpt lat="44.81137" lon="6.96846">
        <ele>1856.2</ele>
        <time>2022-02-25T14:39:44Z</time>
      </trkpt>
      <trkpt lat="44.81137" lon="6.96846">
        <ele>1856.2</ele>
        <time>2022-02-25T14:39:45Z</time>
      </trkpt>
      <trkpt lat="44.81137" lon="6.96846">
        <ele>1856.2</ele>
        <time>2022-02-25T14:39:46Z</time>
      </trkpt>
      <trkpt lat="44.81137" lon="6.96846">
        <ele>1856.2</ele>
        <time>2022-02-25T14:39:47Z</time>
      </trkpt>
      <trkpt lat="44.81137" lon="6.96846">
        <ele>1856.2</ele>
        <time>2022-02-25T14:39:48Z</time>
      </trkpt>
      <trkpt lat="44.81137" lon="6.96846">
        <ele>1856.2</ele>
        <time>2022-02-25T14:39:49Z</time>
      </trkpt>
      <trkpt lat="44.81137" lon="6.96846">
        <ele>1856.2</ele>
        <time>2022-02-25T14:39:50Z</time>
      </trkpt>
      <trkpt lat="44.81137" lon="6.96846">
        <ele>1856.2</ele>
        <time>2022-02-25T14:39:51Z</time>
      </trkpt>
      <trkpt lat="44.81137" lon="6.96846">
        <ele>1856.2</ele>
        <time>2022-02-25T14:39:52Z</time>
      </trkpt>
      <trkpt lat="44.81137" lon="6.96846">
        <ele>1856.2</ele>
        <time>2022-02-25T14:39:53Z</time>
      </trkpt>
      <trkpt lat="44.81137" lon="6.96846">
        <ele>1856.2</ele>
        <time>2022-02-25T14:39:54Z</time>
      </trkpt>
      <trkpt lat="44.81137" lon="6.96846">
        <ele>1856.2</ele>
        <time>2022-02-25T14:39:55Z</time>
      </trkpt>
      <trkpt lat="44.81137" lon="6.96846">
        <ele>1856.2</ele>
        <time>2022-02-25T14:39:56Z</time>
      </trkpt>
      <trkpt lat="44.81137" lon="6.96846">
        <ele>1856.2</ele>
        <time>2022-02-25T14:39:57Z</time>
      </trkpt>
      <trkpt lat="44.81137" lon="6.96846">
        <ele>1856.2</ele>
        <time>2022-02-25T14:39:58Z</time>
      </trkpt>
      <trkpt lat="44.81137" lon="6.96846">
        <ele>1856.2</ele>
        <time>2022-02-25T14:39:59Z</time>
      </trkpt>
      <trkpt lat="44.81137" lon="6.96846">
        <ele>1856.2</ele>
        <time>2022-02-25T14:40:00Z</time>
      </trkpt>
      <trkpt lat="44.81137" lon="6.96846">
        <ele>1856.2</ele>
        <time>2022-02-25T14:40:01Z</time>
      </trkpt>
      <trkpt lat="44.81137" lon="6.96846">
        <ele>1856.2</ele>
        <time>2022-02-25T14:40:02Z</time>
      </trkpt>
      <trkpt lat="44.81137" lon="6.96846">
        <ele>1856.2</ele>
        <time>2022-02-25T14:40:03Z</time>
      </trkpt>
      <trkpt lat="44.81137" lon="6.96846">
        <ele>1856.2</ele>
        <time>2022-02-25T14:40:04Z</time>
      </trkpt>
      <trkpt lat="44.81137" lon="6.96846">
        <ele>1856.2</ele>
        <time>2022-02-25T14:40:05Z</time>
      </trkpt>
      <trkpt lat="44.81137" lon="6.96846">
        <ele>1856.2</ele>
        <time>2022-02-25T14:40:06Z</time>
      </trkpt>
      <trkpt lat="44.81137" lon="6.96846">
        <ele>1856.2</ele>
        <time>2022-02-25T14:40:07Z</time>
      </trkpt>
      <trkpt lat="44.81137" lon="6.96846">
        <ele>1856.2</ele>
        <time>2022-02-25T14:40:08Z</time>
      </trkpt>
      <trkpt lat="44.81137" lon="6.96846">
        <ele>1856.2</ele>
        <time>2022-02-25T14:40:09Z</time>
      </trkpt>
      <trkpt lat="44.81137" lon="6.96846">
        <ele>1856.2</ele>
        <time>2022-02-25T14:40:10Z</time>
      </trkpt>
      <trkpt lat="44.81137" lon="6.96846">
        <ele>1856.2</ele>
        <time>2022-02-25T14:40:11Z</time>
      </trkpt>
      <trkpt lat="44.81137" lon="6.96846">
        <ele>1856.2</ele>
        <time>2022-02-25T14:40:12Z</time>
      </trkpt>
      <trkpt lat="44.81137" lon="6.96846">
        <ele>1856.2</ele>
        <time>2022-02-25T14:40:13Z</time>
      </trkpt>
      <trkpt lat="44.81137" lon="6.96846">
        <ele>1856.2</ele>
        <time>2022-02-25T14:40:14Z</time>
      </trkpt>
      <trkpt lat="44.81137" lon="6.96846">
        <ele>1856.2</ele>
        <time>2022-02-25T14:40:15Z</time>
      </trkpt>
      <trkpt lat="44.81137" lon="6.96846">
        <ele>1856.2</ele>
        <time>2022-02-25T14:40:16Z</time>
      </trkpt>
      <trkpt lat="44.81137" lon="6.96846">
        <ele>1856.2</ele>
        <time>2022-02-25T14:40:17Z</time>
      </trkpt>
      <trkpt lat="44.81137" lon="6.96846">
        <ele>1856.2</ele>
        <time>2022-02-25T14:40:18Z</time>
      </trkpt>
      <trkpt lat="44.81137" lon="6.96846">
        <ele>1856.2</ele>
        <time>2022-02-25T14:40:19Z</time>
      </trkpt>
      <trkpt lat="44.81137" lon="6.96846">
        <ele>1856.2</ele>
        <time>2022-02-25T14:40:20Z</time>
      </trkpt>
      <trkpt lat="44.81137" lon="6.96846">
        <ele>1856.2</ele>
        <time>2022-02-25T14:40:21Z</time>
      </trkpt>
      <trkpt lat="44.81137" lon="6.96846">
        <ele>1856.2</ele>
        <time>2022-02-25T14:40:22Z</time>
      </trkpt>
      <trkpt lat="44.81137" lon="6.96846">
        <ele>1856.2</ele>
        <time>2022-02-25T14:40:23Z</time>
      </trkpt>
      <trkpt lat="44.81137" lon="6.96846">
        <ele>1856.2</ele>
        <time>2022-02-25T14:40:24Z</time>
      </trkpt>
      <trkpt lat="44.81137" lon="6.96846">
        <ele>1856.2</ele>
        <time>2022-02-25T14:40:25Z</time>
      </trkpt>
      <trkpt lat="44.81137" lon="6.96846">
        <ele>1856.2</ele>
        <time>2022-02-25T14:40:26Z</time>
      </trkpt>
      <trkpt lat="44.81137" lon="6.96846">
        <ele>1856.2</ele>
        <time>2022-02-25T14:40:27Z</time>
      </trkpt>
      <trkpt lat="44.81137" lon="6.96846">
        <ele>1856.2</ele>
        <time>2022-02-25T14:40:28Z</time>
      </trkpt>
      <trkpt lat="44.81137" lon="6.96846">
        <ele>1856.2</ele>
        <time>2022-02-25T14:40:29Z</time>
      </trkpt>
      <trkpt lat="44.81137" lon="6.96846">
        <ele>1856.2</ele>
        <time>2022-02-25T14:40:30Z</time>
      </trkpt>
      <trkpt lat="44.81137" lon="6.96846">
        <ele>1856.2</ele>
        <time>2022-02-25T14:40:31Z</time>
      </trkpt>
      <trkpt lat="44.81137" lon="6.96846">
        <ele>1856.2</ele>
        <time>2022-02-25T14:40:32Z</time>
      </trkpt>
      <trkpt lat="44.81137" lon="6.96846">
        <ele>1856.2</ele>
        <time>2022-02-25T14:40:33Z</time>
      </trkpt>
      <trkpt lat="44.81137" lon="6.96846">
        <ele>1856.2</ele>
        <time>2022-02-25T14:40:34Z</time>
      </trkpt>
      <trkpt lat="44.81137" lon="6.96846">
        <ele>1856.2</ele>
        <time>2022-02-25T14:40:35Z</time>
      </trkpt>
      <trkpt lat="44.81137" lon="6.96846">
        <ele>1856.2</ele>
        <time>2022-02-25T14:40:36Z</time>
      </trkpt>
      <trkpt lat="44.81137" lon="6.96846">
        <ele>1856.2</ele>
        <time>2022-02-25T14:40:37Z</time>
      </trkpt>
      <trkpt lat="44.81137" lon="6.96846">
        <ele>1856.2</ele>
        <time>2022-02-25T14:40:38Z</time>
      </trkpt>
      <trkpt lat="44.81137" lon="6.96846">
        <ele>1856.2</ele>
        <time>2022-02-25T14:40:39Z</time>
      </trkpt>
      <trkpt lat="44.81137" lon="6.96846">
        <ele>1856.2</ele>
        <time>2022-02-25T14:40:40Z</time>
      </trkpt>
      <trkpt lat="44.81137" lon="6.96846">
        <ele>1856.2</ele>
        <time>2022-02-25T14:40:41Z</time>
      </trkpt>
      <trkpt lat="44.81137" lon="6.96846">
        <ele>1856.2</ele>
        <time>2022-02-25T14:40:42Z</time>
      </trkpt>
      <trkpt lat="44.81137" lon="6.96846">
        <ele>1856.2</ele>
        <time>2022-02-25T14:40:43Z</time>
      </trkpt>
      <trkpt lat="44.81137" lon="6.96846">
        <ele>1856.2</ele>
        <time>2022-02-25T14:40:44Z</time>
      </trkpt>
      <trkpt lat="44.81137" lon="6.96846">
        <ele>1856.2</ele>
        <time>2022-02-25T14:40:45Z</time>
      </trkpt>
      <trkpt lat="44.81137" lon="6.96846">
        <ele>1856.2</ele>
        <time>2022-02-25T14:40:46Z</time>
      </trkpt>
      <trkpt lat="44.81137" lon="6.96846">
        <ele>1856.2</ele>
        <time>2022-02-25T14:40:47Z</time>
      </trkpt>
      <trkpt lat="44.81137" lon="6.96846">
        <ele>1856.2</ele>
        <time>2022-02-25T14:40:48Z</time>
      </trkpt>
      <trkpt lat="44.81137" lon="6.96846">
        <ele>1856.2</ele>
        <time>2022-02-25T14:40:49Z</time>
      </trkpt>
      <trkpt lat="44.81137" lon="6.96846">
        <ele>1856.2</ele>
        <time>2022-02-25T14:40:50Z</time>
      </trkpt>
      <trkpt lat="44.81137" lon="6.96846">
        <ele>1856.2</ele>
        <time>2022-02-25T14:40:51Z</time>
      </trkpt>
      <trkpt lat="44.81137" lon="6.96846">
        <ele>1856.2</ele>
        <time>2022-02-25T14:40:52Z</time>
      </trkpt>
      <trkpt lat="44.81137" lon="6.96846">
        <ele>1856.2</ele>
        <time>2022-02-25T14:40:53Z</time>
      </trkpt>
      <trkpt lat="44.81137" lon="6.96846">
        <ele>1856.2</ele>
        <time>2022-02-25T14:40:54Z</time>
      </trkpt>
      <trkpt lat="44.81137" lon="6.96846">
        <ele>1856.2</ele>
        <time>2022-02-25T14:40:55Z</time>
      </trkpt>
      <trkpt lat="44.81137" lon="6.96846">
        <ele>1856.2</ele>
        <time>2022-02-25T14:40:56Z</time>
      </trkpt>
      <trkpt lat="44.81137" lon="6.96846">
        <ele>1856.2</ele>
        <time>2022-02-25T14:40:57Z</time>
      </trkpt>
      <trkpt lat="44.81137" lon="6.96846">
        <ele>1856.2</ele>
        <time>2022-02-25T14:40:58Z</time>
      </trkpt>
      <trkpt lat="44.81137" lon="6.96846">
        <ele>1856.2</ele>
        <time>2022-02-25T14:40:59Z</time>
      </trkpt>
      <trkpt lat="44.81137" lon="6.96846">
        <ele>1856.2</ele>
        <time>2022-02-25T14:41:00Z</time>
      </trkpt>
      <trkpt lat="44.81137" lon="6.96846">
        <ele>1856.2</ele>
        <time>2022-02-25T14:41:01Z</time>
      </trkpt>
      <trkpt lat="44.81137" lon="6.96846">
        <ele>1856.2</ele>
        <time>2022-02-25T14:41:02Z</time>
      </trkpt>
      <trkpt lat="44.81137" lon="6.96846">
        <ele>1856.2</ele>
        <time>2022-02-25T14:41:03Z</time>
      </trkpt>
      <trkpt lat="44.81137" lon="6.96846">
        <ele>1856.2</ele>
        <time>2022-02-25T14:41:04Z</time>
      </trkpt>
      <trkpt lat="44.81137" lon="6.96846">
        <ele>1856.2</ele>
        <time>2022-02-25T14:41:05Z</time>
      </trkpt>
      <trkpt lat="44.81137" lon="6.96846">
        <ele>1856.2</ele>
        <time>2022-02-25T14:41:06Z</time>
      </trkpt>
      <trkpt lat="44.81137" lon="6.96846">
        <ele>1856.2</ele>
        <time>2022-02-25T14:41:07Z</time>
      </trkpt>
      <trkpt lat="44.81137" lon="6.96846">
        <ele>1856.2</ele>
        <time>2022-02-25T14:41:08Z</time>
      </trkpt>
      <trkpt lat="44.81137" lon="6.96846">
        <ele>1856.2</ele>
        <time>2022-02-25T14:41:09Z</time>
      </trkpt>
      <trkpt lat="44.81137" lon="6.96846">
        <ele>1856.2</ele>
        <time>2022-02-25T14:41:10Z</time>
      </trkpt>
      <trkpt lat="44.81137" lon="6.96846">
        <ele>1856.2</ele>
        <time>2022-02-25T14:41:11Z</time>
      </trkpt>
      <trkpt lat="44.81137" lon="6.96846">
        <ele>1856.2</ele>
        <time>2022-02-25T14:41:12Z</time>
      </trkpt>
      <trkpt lat="44.81137" lon="6.96846">
        <ele>1856.2</ele>
        <time>2022-02-25T14:41:13Z</time>
      </trkpt>
      <trkpt lat="44.81137" lon="6.96846">
        <ele>1856.2</ele>
        <time>2022-02-25T14:41:14Z</time>
      </trkpt>
      <trkpt lat="44.81137" lon="6.96846">
        <ele>1856.2</ele>
        <time>2022-02-25T14:41:15Z</time>
      </trkpt>
      <trkpt lat="44.81137" lon="6.96846">
        <ele>1856.2</ele>
        <time>2022-02-25T14:41:16Z</time>
      </trkpt>
      <trkpt lat="44.81137" lon="6.96846">
        <ele>1856.2</ele>
        <time>2022-02-25T14:41:17Z</time>
      </trkpt>
      <trkpt lat="44.81137" lon="6.96846">
        <ele>1856.2</ele>
        <time>2022-02-25T14:41:18Z</time>
      </trkpt>
      <trkpt lat="44.81137" lon="6.96846">
        <ele>1856.2</ele>
        <time>2022-02-25T14:41:19Z</time>
      </trkpt>
      <trkpt lat="44.81137" lon="6.96846">
        <ele>1856.2</ele>
        <time>2022-02-25T14:41:20Z</time>
      </trkpt>
      <trkpt lat="44.81137" lon="6.96846">
        <ele>1856.2</ele>
        <time>2022-02-25T14:41:21Z</time>
      </trkpt>
      <trkpt lat="44.81137" lon="6.96846">
        <ele>1856.2</ele>
        <time>2022-02-25T14:41:22Z</time>
      </trkpt>
      <trkpt lat="44.81137" lon="6.96846">
        <ele>1856.2</ele>
        <time>2022-02-25T14:41:23Z</time>
      </trkpt>
      <trkpt lat="44.81137" lon="6.96846">
        <ele>1856.2</ele>
        <time>2022-02-25T14:41:24Z</time>
      </trkpt>
      <trkpt lat="44.81137" lon="6.96846">
        <ele>1856.2</ele>
        <time>2022-02-25T14:41:25Z</time>
      </trkpt>
      <trkpt lat="44.81137" lon="6.96846">
        <ele>1856.2</ele>
        <time>2022-02-25T14:41:26Z</time>
      </trkpt>
      <trkpt lat="44.81137" lon="6.96846">
        <ele>1856.2</ele>
        <time>2022-02-25T14:41:27Z</time>
      </trkpt>
      <trkpt lat="44.81137" lon="6.96846">
        <ele>1856.2</ele>
        <time>2022-02-25T14:41:28Z</time>
      </trkpt>
      <trkpt lat="44.81137" lon="6.96846">
        <ele>1856.2</ele>
        <time>2022-02-25T14:41:29Z</time>
      </trkpt>
      <trkpt lat="44.81137" lon="6.96846">
        <ele>1856.2</ele>
        <time>2022-02-25T14:41:30Z</time>
      </trkpt>
      <trkpt lat="44.81137" lon="6.96846">
        <ele>1856.2</ele>
        <time>2022-02-25T14:41:31Z</time>
      </trkpt>
      <trkpt lat="44.81137" lon="6.96846">
        <ele>1856.2</ele>
        <time>2022-02-25T14:41:32Z</time>
      </trkpt>
      <trkpt lat="44.81137" lon="6.96846">
        <ele>1856.2</ele>
        <time>2022-02-25T14:41:33Z</time>
      </trkpt>
      <trkpt lat="44.81137" lon="6.96846">
        <ele>1856.2</ele>
        <time>2022-02-25T14:41:34Z</time>
      </trkpt>
      <trkpt lat="44.81137" lon="6.96846">
        <ele>1856.2</ele>
        <time>2022-02-25T14:41:35Z</time>
      </trkpt>
      <trkpt lat="44.81137" lon="6.96846">
        <ele>1856.2</ele>
        <time>2022-02-25T14:41:36Z</time>
      </trkpt>
      <trkpt lat="44.81137" lon="6.96846">
        <ele>1856.2</ele>
        <time>2022-02-25T14:41:37Z</time>
      </trkpt>
      <trkpt lat="44.81137" lon="6.96846">
        <ele>1856.2</ele>
        <time>2022-02-25T14:41:38Z</time>
      </trkpt>
      <trkpt lat="44.81137" lon="6.96846">
        <ele>1856.2</ele>
        <time>2022-02-25T14:41:39Z</time>
      </trkpt>
      <trkpt lat="44.81137" lon="6.96846">
        <ele>1856.2</ele>
        <time>2022-02-25T14:41:40Z</time>
      </trkpt>
      <trkpt lat="44.81137" lon="6.96846">
        <ele>1856.2</ele>
        <time>2022-02-25T14:41:41Z</time>
      </trkpt>
      <trkpt lat="44.81137" lon="6.96846">
        <ele>1856.2</ele>
        <time>2022-02-25T14:41:42Z</time>
      </trkpt>
      <trkpt lat="44.81137" lon="6.96846">
        <ele>1856.2</ele>
        <time>2022-02-25T14:41:43Z</time>
      </trkpt>
      <trkpt lat="44.81137" lon="6.96846">
        <ele>1856.2</ele>
        <time>2022-02-25T14:41:44Z</time>
      </trkpt>
      <trkpt lat="44.81137" lon="6.96846">
        <ele>1856.2</ele>
        <time>2022-02-25T14:41:45Z</time>
      </trkpt>
      <trkpt lat="44.81137" lon="6.96846">
        <ele>1856.2</ele>
        <time>2022-02-25T14:41:46Z</time>
      </trkpt>
      <trkpt lat="44.81137" lon="6.96846">
        <ele>1856.2</ele>
        <time>2022-02-25T14:41:47Z</time>
      </trkpt>
      <trkpt lat="44.81137" lon="6.96846">
        <ele>1856.2</ele>
        <time>2022-02-25T14:41:48Z</time>
      </trkpt>
      <trkpt lat="44.81137" lon="6.96846">
        <ele>1856.2</ele>
        <time>2022-02-25T14:41:49Z</time>
      </trkpt>
      <trkpt lat="44.81137" lon="6.96846">
        <ele>1856.2</ele>
        <time>2022-02-25T14:41:50Z</time>
      </trkpt>
      <trkpt lat="44.81137" lon="6.96846">
        <ele>1856.2</ele>
        <time>2022-02-25T14:41:51Z</time>
      </trkpt>
      <trkpt lat="44.81137" lon="6.96846">
        <ele>1856.2</ele>
        <time>2022-02-25T14:41:52Z</time>
      </trkpt>
      <trkpt lat="44.81137" lon="6.96846">
        <ele>1856.2</ele>
        <time>2022-02-25T14:41:53Z</time>
      </trkpt>
      <trkpt lat="44.81137" lon="6.96846">
        <ele>1856.2</ele>
        <time>2022-02-25T14:41:54Z</time>
      </trkpt>
      <trkpt lat="44.81137" lon="6.96846">
        <ele>1856.2</ele>
        <time>2022-02-25T14:41:55Z</time>
      </trkpt>
      <trkpt lat="44.81137" lon="6.96846">
        <ele>1856.2</ele>
        <time>2022-02-25T14:41:56Z</time>
      </trkpt>
      <trkpt lat="44.81137" lon="6.96846">
        <ele>1856.2</ele>
        <time>2022-02-25T14:41:57Z</time>
      </trkpt>
      <trkpt lat="44.81137" lon="6.96846">
        <ele>1856.2</ele>
        <time>2022-02-25T14:41:58Z</time>
      </trkpt>
      <trkpt lat="44.81137" lon="6.96846">
        <ele>1856.2</ele>
        <time>2022-02-25T14:41:59Z</time>
      </trkpt>
      <trkpt lat="44.81137" lon="6.96846">
        <ele>1856.2</ele>
        <time>2022-02-25T14:42:00Z</time>
      </trkpt>
      <trkpt lat="44.81137" lon="6.96846">
        <ele>1856.2</ele>
        <time>2022-02-25T14:42:01Z</time>
      </trkpt>
      <trkpt lat="44.81137" lon="6.96846">
        <ele>1856.2</ele>
        <time>2022-02-25T14:42:02Z</time>
      </trkpt>
      <trkpt lat="44.81137" lon="6.96846">
        <ele>1856.2</ele>
        <time>2022-02-25T14:42:03Z</time>
      </trkpt>
      <trkpt lat="44.81137" lon="6.96846">
        <ele>1856.2</ele>
        <time>2022-02-25T14:42:04Z</time>
      </trkpt>
      <trkpt lat="44.81137" lon="6.96846">
        <ele>1856.2</ele>
        <time>2022-02-25T14:42:05Z</time>
      </trkpt>
      <trkpt lat="44.81137" lon="6.96846">
        <ele>1856.2</ele>
        <time>2022-02-25T14:42:06Z</time>
      </trkpt>
      <trkpt lat="44.81137" lon="6.96846">
        <ele>1856.2</ele>
        <time>2022-02-25T14:42:07Z</time>
      </trkpt>
      <trkpt lat="44.81137" lon="6.96846">
        <ele>1856.2</ele>
        <time>2022-02-25T14:42:08Z</time>
      </trkpt>
      <trkpt lat="44.81137" lon="6.96846">
        <ele>1856.2</ele>
        <time>2022-02-25T14:42:09Z</time>
      </trkpt>
      <trkpt lat="44.81137" lon="6.96846">
        <ele>1856.2</ele>
        <time>2022-02-25T14:42:10Z</time>
      </trkpt>
      <trkpt lat="44.81137" lon="6.96846">
        <ele>1856.2</ele>
        <time>2022-02-25T14:42:11Z</time>
      </trkpt>
      <trkpt lat="44.81137" lon="6.96846">
        <ele>1856.2</ele>
        <time>2022-02-25T14:42:12Z</time>
      </trkpt>
      <trkpt lat="44.81137" lon="6.96846">
        <ele>1856.2</ele>
        <time>2022-02-25T14:42:13Z</time>
      </trkpt>
      <trkpt lat="44.81137" lon="6.96846">
        <ele>1856.2</ele>
        <time>2022-02-25T14:42:14Z</time>
      </trkpt>
      <trkpt lat="44.81137" lon="6.96846">
        <ele>1856.2</ele>
        <time>2022-02-25T14:42:15Z</time>
      </trkpt>
      <trkpt lat="44.81137" lon="6.96846">
        <ele>1856.2</ele>
        <time>2022-02-25T14:42:16Z</time>
      </trkpt>
      <trkpt lat="44.81137" lon="6.96846">
        <ele>1856.2</ele>
        <time>2022-02-25T14:42:17Z</time>
      </trkpt>
      <trkpt lat="44.81137" lon="6.96846">
        <ele>1856.2</ele>
        <time>2022-02-25T14:42:18Z</time>
      </trkpt>
      <trkpt lat="44.81137" lon="6.96846">
        <ele>1856.2</ele>
        <time>2022-02-25T14:42:19Z</time>
      </trkpt>
      <trkpt lat="44.81137" lon="6.96846">
        <ele>1856.2</ele>
        <time>2022-02-25T14:42:20Z</time>
      </trkpt>
      <trkpt lat="44.81137" lon="6.96846">
        <ele>1856.2</ele>
        <time>2022-02-25T14:42:21Z</time>
      </trkpt>
      <trkpt lat="44.81137" lon="6.96846">
        <ele>1856.2</ele>
        <time>2022-02-25T14:42:22Z</time>
      </trkpt>
      <trkpt lat="44.81137" lon="6.96846">
        <ele>1856.2</ele>
        <time>2022-02-25T14:42:23Z</time>
      </trkpt>
      <trkpt lat="44.81137" lon="6.96846">
        <ele>1856.2</ele>
        <time>2022-02-25T14:42:24Z</time>
      </trkpt>
      <trkpt lat="44.81137" lon="6.96846">
        <ele>1856.2</ele>
        <time>2022-02-25T14:42:25Z</time>
      </trkpt>
      <trkpt lat="44.81137" lon="6.96846">
        <ele>1856.2</ele>
        <time>2022-02-25T14:42:26Z</time>
      </trkpt>
      <trkpt lat="44.81137" lon="6.96846">
        <ele>1856.2</ele>
        <time>2022-02-25T14:42:27Z</time>
      </trkpt>
      <trkpt lat="44.81137" lon="6.96846">
        <ele>1856.2</ele>
        <time>2022-02-25T14:42:28Z</time>
      </trkpt>
      <trkpt lat="44.81137" lon="6.96846">
        <ele>1856.2</ele>
        <time>2022-02-25T14:42:29Z</time>
      </trkpt>
      <trkpt lat="44.81137" lon="6.96846">
        <ele>1856.2</ele>
        <time>2022-02-25T14:42:30Z</time>
      </trkpt>
      <trkpt lat="44.81137" lon="6.96846">
        <ele>1856.2</ele>
        <time>2022-02-25T14:42:31Z</time>
      </trkpt>
      <trkpt lat="44.81137" lon="6.96846">
        <ele>1856.2</ele>
        <time>2022-02-25T14:42:32Z</time>
      </trkpt>
      <trkpt lat="44.81137" lon="6.96846">
        <ele>1856.2</ele>
        <time>2022-02-25T14:42:33Z</time>
      </trkpt>
      <trkpt lat="44.81137" lon="6.96846">
        <ele>1856.2</ele>
        <time>2022-02-25T14:42:34Z</time>
      </trkpt>
      <trkpt lat="44.81137" lon="6.96846">
        <ele>1856.2</ele>
        <time>2022-02-25T14:42:35Z</time>
      </trkpt>
      <trkpt lat="44.81137" lon="6.96846">
        <ele>1856.2</ele>
        <time>2022-02-25T14:42:36Z</time>
      </trkpt>
      <trkpt lat="44.81137" lon="6.96846">
        <ele>1856.2</ele>
        <time>2022-02-25T14:42:37Z</time>
      </trkpt>
      <trkpt lat="44.81137" lon="6.96846">
        <ele>1856.2</ele>
        <time>2022-02-25T14:42:38Z</time>
      </trkpt>
      <trkpt lat="44.81137" lon="6.96846">
        <ele>1856.2</ele>
        <time>2022-02-25T14:42:39Z</time>
      </trkpt>
      <trkpt lat="44.81137" lon="6.96846">
        <ele>1856.2</ele>
        <time>2022-02-25T14:42:40Z</time>
      </trkpt>
      <trkpt lat="44.81137" lon="6.96846">
        <ele>1856.2</ele>
        <time>2022-02-25T14:42:41Z</time>
      </trkpt>
      <trkpt lat="44.81137" lon="6.96846">
        <ele>1856.2</ele>
        <time>2022-02-25T14:42:42Z</time>
      </trkpt>
      <trkpt lat="44.81137" lon="6.96846">
        <ele>1856.2</ele>
        <time>2022-02-25T14:42:43Z</time>
      </trkpt>
      <trkpt lat="44.81137" lon="6.96846">
        <ele>1856.2</ele>
        <time>2022-02-25T14:42:44Z</time>
      </trkpt>
      <trkpt lat="44.81137" lon="6.96846">
        <ele>1856.2</ele>
        <time>2022-02-25T14:42:45Z</time>
      </trkpt>
      <trkpt lat="44.81137" lon="6.96846">
        <ele>1856.2</ele>
        <time>2022-02-25T14:42:46Z</time>
      </trkpt>
      <trkpt lat="44.81137" lon="6.96846">
        <ele>1856.2</ele>
        <time>2022-02-25T14:42:47Z</time>
      </trkpt>
      <trkpt lat="44.81137" lon="6.96846">
        <ele>1856.2</ele>
        <time>2022-02-25T14:42:48Z</time>
      </trkpt>
      <trkpt lat="44.81137" lon="6.96846">
        <ele>1856.2</ele>
        <time>2022-02-25T14:42:49Z</time>
      </trkpt>
      <trkpt lat="44.81137" lon="6.96846">
        <ele>1856.2</ele>
        <time>2022-02-25T14:42:50Z</time>
      </trkpt>
      <trkpt lat="44.81137" lon="6.96846">
        <ele>1856.2</ele>
        <time>2022-02-25T14:42:51Z</time>
      </trkpt>
      <trkpt lat="44.81137" lon="6.96846">
        <ele>1856.2</ele>
        <time>2022-02-25T14:42:52Z</time>
      </trkpt>
      <trkpt lat="44.81137" lon="6.96846">
        <ele>1856.2</ele>
        <time>2022-02-25T14:42:53Z</time>
      </trkpt>
      <trkpt lat="44.81137" lon="6.96846">
        <ele>1856.2</ele>
        <time>2022-02-25T14:42:54Z</time>
      </trkpt>
      <trkpt lat="44.81137" lon="6.96846">
        <ele>1856.2</ele>
        <time>2022-02-25T14:42:55Z</time>
      </trkpt>
      <trkpt lat="44.81137" lon="6.96846">
        <ele>1856.2</ele>
        <time>2022-02-25T14:42:56Z</time>
      </trkpt>
      <trkpt lat="44.81137" lon="6.96846">
        <ele>1856.2</ele>
        <time>2022-02-25T14:42:57Z</time>
      </trkpt>
      <trkpt lat="44.81137" lon="6.96846">
        <ele>1856.2</ele>
        <time>2022-02-25T14:42:58Z</time>
      </trkpt>
      <trkpt lat="44.81137" lon="6.96846">
        <ele>1856.2</ele>
        <time>2022-02-25T14:42:59Z</time>
      </trkpt>
      <trkpt lat="44.81137" lon="6.96846">
        <ele>1856.2</ele>
        <time>2022-02-25T14:43:00Z</time>
      </trkpt>
      <trkpt lat="44.81137" lon="6.96846">
        <ele>1856.2</ele>
        <time>2022-02-25T14:43:01Z</time>
      </trkpt>
      <trkpt lat="44.81137" lon="6.96846">
        <ele>1856.2</ele>
        <time>2022-02-25T14:43:02Z</time>
      </trkpt>
      <trkpt lat="44.81137" lon="6.96846">
        <ele>1856.2</ele>
        <time>2022-02-25T14:43:03Z</time>
      </trkpt>
      <trkpt lat="44.81137" lon="6.96846">
        <ele>1856.2</ele>
        <time>2022-02-25T14:43:04Z</time>
      </trkpt>
      <trkpt lat="44.81137" lon="6.96846">
        <ele>1856.2</ele>
        <time>2022-02-25T14:43:05Z</time>
      </trkpt>
      <trkpt lat="44.81137" lon="6.96846">
        <ele>1856.2</ele>
        <time>2022-02-25T14:43:06Z</time>
      </trkpt>
      <trkpt lat="44.81137" lon="6.96846">
        <ele>1856.2</ele>
        <time>2022-02-25T14:43:07Z</time>
      </trkpt>
      <trkpt lat="44.81137" lon="6.96846">
        <ele>1856.2</ele>
        <time>2022-02-25T14:43:08Z</time>
      </trkpt>
      <trkpt lat="44.81137" lon="6.96846">
        <ele>1856.2</ele>
        <time>2022-02-25T14:43:09Z</time>
      </trkpt>
      <trkpt lat="44.81137" lon="6.96846">
        <ele>1856.2</ele>
        <time>2022-02-25T14:43:10Z</time>
      </trkpt>
      <trkpt lat="44.81137" lon="6.96846">
        <ele>1856.2</ele>
        <time>2022-02-25T14:43:11Z</time>
      </trkpt>
      <trkpt lat="44.81137" lon="6.96846">
        <ele>1856.2</ele>
        <time>2022-02-25T14:43:12Z</time>
      </trkpt>
      <trkpt lat="44.81137" lon="6.96846">
        <ele>1856.2</ele>
        <time>2022-02-25T14:43:13Z</time>
      </trkpt>
      <trkpt lat="44.81137" lon="6.96846">
        <ele>1856.2</ele>
        <time>2022-02-25T14:43:14Z</time>
      </trkpt>
      <trkpt lat="44.81137" lon="6.96846">
        <ele>1856.2</ele>
        <time>2022-02-25T14:43:15Z</time>
      </trkpt>
      <trkpt lat="44.81137" lon="6.96846">
        <ele>1856.2</ele>
        <time>2022-02-25T14:43:16Z</time>
      </trkpt>
      <trkpt lat="44.81137" lon="6.96846">
        <ele>1856.2</ele>
        <time>2022-02-25T14:43:17Z</time>
      </trkpt>
      <trkpt lat="44.81137" lon="6.96846">
        <ele>1856.2</ele>
        <time>2022-02-25T14:43:18Z</time>
      </trkpt>
      <trkpt lat="44.81137" lon="6.96846">
        <ele>1856.2</ele>
        <time>2022-02-25T14:43:19Z</time>
      </trkpt>
      <trkpt lat="44.81137" lon="6.96846">
        <ele>1856.2</ele>
        <time>2022-02-25T14:43:20Z</time>
      </trkpt>
      <trkpt lat="44.81137" lon="6.96846">
        <ele>1856.2</ele>
        <time>2022-02-25T14:43:21Z</time>
      </trkpt>
      <trkpt lat="44.81137" lon="6.96846">
        <ele>1856.2</ele>
        <time>2022-02-25T14:43:22Z</time>
      </trkpt>
      <trkpt lat="44.81137" lon="6.96846">
        <ele>1856.2</ele>
        <time>2022-02-25T14:43:23Z</time>
      </trkpt>
      <trkpt lat="44.81137" lon="6.96846">
        <ele>1856.2</ele>
        <time>2022-02-25T14:43:24Z</time>
      </trkpt>
      <trkpt lat="44.81137" lon="6.96846">
        <ele>1856.2</ele>
        <time>2022-02-25T14:43:25Z</time>
      </trkpt>
      <trkpt lat="44.81137" lon="6.96846">
        <ele>1856.2</ele>
        <time>2022-02-25T14:43:26Z</time>
      </trkpt>
      <trkpt lat="44.81137" lon="6.96846">
        <ele>1856.2</ele>
        <time>2022-02-25T14:43:27Z</time>
      </trkpt>
      <trkpt lat="44.81137" lon="6.96846">
        <ele>1856.2</ele>
        <time>2022-02-25T14:43:28Z</time>
      </trkpt>
      <trkpt lat="44.81137" lon="6.96846">
        <ele>1856.2</ele>
        <time>2022-02-25T14:43:29Z</time>
      </trkpt>
      <trkpt lat="44.81137" lon="6.96846">
        <ele>1856.2</ele>
        <time>2022-02-25T14:43:30Z</time>
      </trkpt>
      <trkpt lat="44.81137" lon="6.96846">
        <ele>1856.2</ele>
        <time>2022-02-25T14:43:31Z</time>
      </trkpt>
      <trkpt lat="44.81137" lon="6.96846">
        <ele>1856.2</ele>
        <time>2022-02-25T14:43:32Z</time>
      </trkpt>
      <trkpt lat="44.81137" lon="6.96846">
        <ele>1856.2</ele>
        <time>2022-02-25T14:43:33Z</time>
      </trkpt>
      <trkpt lat="44.81137" lon="6.96846">
        <ele>1856.2</ele>
        <time>2022-02-25T14:43:34Z</time>
      </trkpt>
      <trkpt lat="44.81137" lon="6.96846">
        <ele>1856.2</ele>
        <time>2022-02-25T14:43:35Z</time>
      </trkpt>
      <trkpt lat="44.81137" lon="6.96846">
        <ele>1856.2</ele>
        <time>2022-02-25T14:43:36Z</time>
      </trkpt>
      <trkpt lat="44.81137" lon="6.96846">
        <ele>1856.2</ele>
        <time>2022-02-25T14:43:37Z</time>
      </trkpt>
      <trkpt lat="44.81137" lon="6.96846">
        <ele>1856.2</ele>
        <time>2022-02-25T14:43:38Z</time>
      </trkpt>
      <trkpt lat="44.81137" lon="6.96846">
        <ele>1856.2</ele>
        <time>2022-02-25T14:43:39Z</time>
      </trkpt>
      <trkpt lat="44.81137" lon="6.96846">
        <ele>1856.2</ele>
        <time>2022-02-25T14:43:40Z</time>
      </trkpt>
      <trkpt lat="44.81137" lon="6.96846">
        <ele>1856.2</ele>
        <time>2022-02-25T14:43:41Z</time>
      </trkpt>
      <trkpt lat="44.81137" lon="6.96846">
        <ele>1856.2</ele>
        <time>2022-02-25T14:43:42Z</time>
      </trkpt>
      <trkpt lat="44.81137" lon="6.96846">
        <ele>1856.2</ele>
        <time>2022-02-25T14:43:43Z</time>
      </trkpt>
      <trkpt lat="44.81137" lon="6.96846">
        <ele>1856.2</ele>
        <time>2022-02-25T14:43:44Z</time>
      </trkpt>
      <trkpt lat="44.81137" lon="6.96846">
        <ele>1856.2</ele>
        <time>2022-02-25T14:43:45Z</time>
      </trkpt>
      <trkpt lat="44.81137" lon="6.96846">
        <ele>1856.2</ele>
        <time>2022-02-25T14:43:46Z</time>
      </trkpt>
      <trkpt lat="44.81137" lon="6.96846">
        <ele>1856.2</ele>
        <time>2022-02-25T14:43:47Z</time>
      </trkpt>
      <trkpt lat="44.81137" lon="6.96846">
        <ele>1856.2</ele>
        <time>2022-02-25T14:43:48Z</time>
      </trkpt>
      <trkpt lat="44.81137" lon="6.96846">
        <ele>1856.2</ele>
        <time>2022-02-25T14:43:49Z</time>
      </trkpt>
      <trkpt lat="44.81137" lon="6.96846">
        <ele>1856.2</ele>
        <time>2022-02-25T14:43:50Z</time>
      </trkpt>
      <trkpt lat="44.81137" lon="6.96846">
        <ele>1856.2</ele>
        <time>2022-02-25T14:43:51Z</time>
      </trkpt>
      <trkpt lat="44.81137" lon="6.96846">
        <ele>1856.2</ele>
        <time>2022-02-25T14:43:52Z</time>
      </trkpt>
      <trkpt lat="44.81137" lon="6.96846">
        <ele>1856.2</ele>
        <time>2022-02-25T14:43:53Z</time>
      </trkpt>
      <trkpt lat="44.81137" lon="6.96846">
        <ele>1856.2</ele>
        <time>2022-02-25T14:43:54Z</time>
      </trkpt>
      <trkpt lat="44.81137" lon="6.96846">
        <ele>1856.2</ele>
        <time>2022-02-25T14:43:55Z</time>
      </trkpt>
      <trkpt lat="44.81137" lon="6.96846">
        <ele>1856.2</ele>
        <time>2022-02-25T14:43:56Z</time>
      </trkpt>
      <trkpt lat="44.81137" lon="6.96846">
        <ele>1856.2</ele>
        <time>2022-02-25T14:43:57Z</time>
      </trkpt>
      <trkpt lat="44.81137" lon="6.96846">
        <ele>1856.2</ele>
        <time>2022-02-25T14:43:58Z</time>
      </trkpt>
      <trkpt lat="44.81137" lon="6.96846">
        <ele>1856.2</ele>
        <time>2022-02-25T14:43:59Z</time>
      </trkpt>
      <trkpt lat="44.81137" lon="6.96846">
        <ele>1856.2</ele>
        <time>2022-02-25T14:44:00Z</time>
      </trkpt>
      <trkpt lat="44.81137" lon="6.96846">
        <ele>1856.2</ele>
        <time>2022-02-25T14:44:01Z</time>
      </trkpt>
      <trkpt lat="44.81137" lon="6.96846">
        <ele>1856.2</ele>
        <time>2022-02-25T14:44:02Z</time>
      </trkpt>
      <trkpt lat="44.81137" lon="6.96846">
        <ele>1856.2</ele>
        <time>2022-02-25T14:44:03Z</time>
      </trkpt>
      <trkpt lat="44.81137" lon="6.96846">
        <ele>1856.2</ele>
        <time>2022-02-25T14:44:04Z</time>
      </trkpt>
      <trkpt lat="44.81137" lon="6.96846">
        <ele>1856.2</ele>
        <time>2022-02-25T14:44:05Z</time>
      </trkpt>
      <trkpt lat="44.81137" lon="6.96846">
        <ele>1856.2</ele>
        <time>2022-02-25T14:44:06Z</time>
      </trkpt>
      <trkpt lat="44.81137" lon="6.96846">
        <ele>1856.2</ele>
        <time>2022-02-25T14:44:07Z</time>
      </trkpt>
      <trkpt lat="44.81137" lon="6.96846">
        <ele>1856.2</ele>
        <time>2022-02-25T14:44:08Z</time>
      </trkpt>
      <trkpt lat="44.81137" lon="6.96846">
        <ele>1856.2</ele>
        <time>2022-02-25T14:44:09Z</time>
      </trkpt>
      <trkpt lat="44.81137" lon="6.96846">
        <ele>1856.2</ele>
        <time>2022-02-25T14:44:10Z</time>
      </trkpt>
      <trkpt lat="44.8114" lon="6.96842">
        <ele>1855.9</ele>
        <time>2022-02-25T14:44:11Z</time>
      </trkpt>
      <trkpt lat="44.8114" lon="6.96842">
        <ele>1855.9</ele>
        <time>2022-02-25T14:44:12Z</time>
      </trkpt>
      <trkpt lat="44.8114" lon="6.96842">
        <ele>1855.9</ele>
        <time>2022-02-25T14:44:13Z</time>
      </trkpt>
      <trkpt lat="44.8114" lon="6.96842">
        <ele>1855.9</ele>
        <time>2022-02-25T14:44:14Z</time>
      </trkpt>
      <trkpt lat="44.8114" lon="6.96842">
        <ele>1855.9</ele>
        <time>2022-02-25T14:44:15Z</time>
      </trkpt>
      <trkpt lat="44.8114" lon="6.96842">
        <ele>1855.9</ele>
        <time>2022-02-25T14:44:16Z</time>
      </trkpt>
      <trkpt lat="44.8114" lon="6.96842">
        <ele>1855.9</ele>
        <time>2022-02-25T14:44:17Z</time>
      </trkpt>
      <trkpt lat="44.8114" lon="6.96842">
        <ele>1855.9</ele>
        <time>2022-02-25T14:44:18Z</time>
      </trkpt>
      <trkpt lat="44.8114" lon="6.96842">
        <ele>1855.9</ele>
        <time>2022-02-25T14:44:19Z</time>
      </trkpt>
      <trkpt lat="44.8114" lon="6.96842">
        <ele>1855.9</ele>
        <time>2022-02-25T14:44:20Z</time>
      </trkpt>
      <trkpt lat="44.8114" lon="6.96842">
        <ele>1855.9</ele>
        <time>2022-02-25T14:44:21Z</time>
      </trkpt>
      <trkpt lat="44.8114" lon="6.96842">
        <ele>1855.9</ele>
        <time>2022-02-25T14:44:22Z</time>
      </trkpt>
      <trkpt lat="44.8114" lon="6.96842">
        <ele>1855.9</ele>
        <time>2022-02-25T14:44:23Z</time>
      </trkpt>
      <trkpt lat="44.8114" lon="6.96842">
        <ele>1855.9</ele>
        <time>2022-02-25T14:44:24Z</time>
      </trkpt>
      <trkpt lat="44.8114" lon="6.96842">
        <ele>1855.9</ele>
        <time>2022-02-25T14:44:25Z</time>
      </trkpt>
      <trkpt lat="44.8114" lon="6.96842">
        <ele>1855.9</ele>
        <time>2022-02-25T14:44:26Z</time>
      </trkpt>
      <trkpt lat="44.8114" lon="6.96842">
        <ele>1855.9</ele>
        <time>2022-02-25T14:44:27Z</time>
      </trkpt>
      <trkpt lat="44.8114" lon="6.96842">
        <ele>1855.9</ele>
        <time>2022-02-25T14:44:28Z</time>
      </trkpt>
      <trkpt lat="44.8114" lon="6.96842">
        <ele>1855.9</ele>
        <time>2022-02-25T14:44:29Z</time>
      </trkpt>
      <trkpt lat="44.8114" lon="6.96842">
        <ele>1855.9</ele>
        <time>2022-02-25T14:44:30Z</time>
      </trkpt>
      <trkpt lat="44.8114" lon="6.96842">
        <ele>1855.9</ele>
        <time>2022-02-25T14:44:31Z</time>
      </trkpt>
      <trkpt lat="44.8114" lon="6.96842">
        <ele>1855.9</ele>
        <time>2022-02-25T14:44:32Z</time>
      </trkpt>
      <trkpt lat="44.8114" lon="6.96842">
        <ele>1855.9</ele>
        <time>2022-02-25T14:44:33Z</time>
      </trkpt>
      <trkpt lat="44.8114" lon="6.96842">
        <ele>1855.9</ele>
        <time>2022-02-25T14:44:34Z</time>
      </trkpt>
      <trkpt lat="44.8114" lon="6.96842">
        <ele>1855.9</ele>
        <time>2022-02-25T14:44:35Z</time>
      </trkpt>
      <trkpt lat="44.8114" lon="6.96842">
        <ele>1855.9</ele>
        <time>2022-02-25T14:44:36Z</time>
      </trkpt>
      <trkpt lat="44.8114" lon="6.96842">
        <ele>1855.9</ele>
        <time>2022-02-25T14:44:37Z</time>
      </trkpt>
      <trkpt lat="44.8114" lon="6.96842">
        <ele>1855.9</ele>
        <time>2022-02-25T14:44:38Z</time>
      </trkpt>
      <trkpt lat="44.8114" lon="6.96842">
        <ele>1855.9</ele>
        <time>2022-02-25T14:44:39Z</time>
      </trkpt>
      <trkpt lat="44.8114" lon="6.96842">
        <ele>1855.9</ele>
        <time>2022-02-25T14:44:40Z</time>
      </trkpt>
      <trkpt lat="44.8114" lon="6.96842">
        <ele>1855.9</ele>
        <time>2022-02-25T14:44:41Z</time>
      </trkpt>
      <trkpt lat="44.8114" lon="6.96842">
        <ele>1855.9</ele>
        <time>2022-02-25T14:44:42Z</time>
      </trkpt>
      <trkpt lat="44.8114" lon="6.96842">
        <ele>1855.9</ele>
        <time>2022-02-25T14:44:43Z</time>
      </trkpt>
      <trkpt lat="44.8114" lon="6.96842">
        <ele>1855.9</ele>
        <time>2022-02-25T14:44:44Z</time>
      </trkpt>
      <trkpt lat="44.8114" lon="6.96842">
        <ele>1855.9</ele>
        <time>2022-02-25T14:44:45Z</time>
      </trkpt>
      <trkpt lat="44.8114" lon="6.96842">
        <ele>1855.9</ele>
        <time>2022-02-25T14:44:46Z</time>
      </trkpt>
      <trkpt lat="44.8114" lon="6.96842">
        <ele>1855.9</ele>
        <time>2022-02-25T14:44:47Z</time>
      </trkpt>
      <trkpt lat="44.8114" lon="6.96842">
        <ele>1855.9</ele>
        <time>2022-02-25T14:44:48Z</time>
      </trkpt>
      <trkpt lat="44.8114" lon="6.96842">
        <ele>1855.9</ele>
        <time>2022-02-25T14:44:49Z</time>
      </trkpt>
      <trkpt lat="44.8114" lon="6.96842">
        <ele>1855.9</ele>
        <time>2022-02-25T14:44:50Z</time>
      </trkpt>
      <trkpt lat="44.8114" lon="6.96842">
        <ele>1855.9</ele>
        <time>2022-02-25T14:44:51Z</time>
      </trkpt>
      <trkpt lat="44.8114" lon="6.96842">
        <ele>1855.9</ele>
        <time>2022-02-25T14:44:52Z</time>
      </trkpt>
      <trkpt lat="44.8114" lon="6.96842">
        <ele>1855.9</ele>
        <time>2022-02-25T14:44:53Z</time>
      </trkpt>
      <trkpt lat="44.8114" lon="6.96842">
        <ele>1855.9</ele>
        <time>2022-02-25T14:44:54Z</time>
      </trkpt>
      <trkpt lat="44.8114" lon="6.96842">
        <ele>1855.9</ele>
        <time>2022-02-25T14:44:55Z</time>
      </trkpt>
      <trkpt lat="44.8114" lon="6.96842">
        <ele>1855.9</ele>
        <time>2022-02-25T14:44:56Z</time>
      </trkpt>
      <trkpt lat="44.8114" lon="6.96842">
        <ele>1855.9</ele>
        <time>2022-02-25T14:44:57Z</time>
      </trkpt>
      <trkpt lat="44.8114" lon="6.96842">
        <ele>1855.9</ele>
        <time>2022-02-25T14:44:58Z</time>
      </trkpt>
      <trkpt lat="44.8114" lon="6.96842">
        <ele>1855.9</ele>
        <time>2022-02-25T14:44:59Z</time>
      </trkpt>
      <trkpt lat="44.8114" lon="6.96842">
        <ele>1855.9</ele>
        <time>2022-02-25T14:45:00Z</time>
      </trkpt>
      <trkpt lat="44.8114" lon="6.96842">
        <ele>1855.9</ele>
        <time>2022-02-25T14:45:01Z</time>
      </trkpt>
      <trkpt lat="44.8114" lon="6.96842">
        <ele>1855.9</ele>
        <time>2022-02-25T14:45:02Z</time>
      </trkpt>
      <trkpt lat="44.8114" lon="6.96842">
        <ele>1855.9</ele>
        <time>2022-02-25T14:45:03Z</time>
      </trkpt>
      <trkpt lat="44.8114" lon="6.96842">
        <ele>1855.9</ele>
        <time>2022-02-25T14:45:04Z</time>
      </trkpt>
      <trkpt lat="44.8114" lon="6.96842">
        <ele>1855.9</ele>
        <time>2022-02-25T14:45:05Z</time>
      </trkpt>
      <trkpt lat="44.8114" lon="6.96842">
        <ele>1855.9</ele>
        <time>2022-02-25T14:45:06Z</time>
      </trkpt>
      <trkpt lat="44.8114" lon="6.96842">
        <ele>1855.9</ele>
        <time>2022-02-25T14:45:07Z</time>
      </trkpt>
      <trkpt lat="44.8114" lon="6.96842">
        <ele>1855.9</ele>
        <time>2022-02-25T14:45:08Z</time>
      </trkpt>
      <trkpt lat="44.8114" lon="6.96842">
        <ele>1855.9</ele>
        <time>2022-02-25T14:45:09Z</time>
      </trkpt>
      <trkpt lat="44.8114" lon="6.96842">
        <ele>1855.9</ele>
        <time>2022-02-25T14:45:10Z</time>
      </trkpt>
      <trkpt lat="44.8114" lon="6.96842">
        <ele>1855.9</ele>
        <time>2022-02-25T14:45:11Z</time>
      </trkpt>
      <trkpt lat="44.8114" lon="6.96842">
        <ele>1855.9</ele>
        <time>2022-02-25T14:45:12Z</time>
      </trkpt>
      <trkpt lat="44.8114" lon="6.96842">
        <ele>1855.9</ele>
        <time>2022-02-25T14:45:13Z</time>
      </trkpt>
      <trkpt lat="44.8114" lon="6.96842">
        <ele>1855.9</ele>
        <time>2022-02-25T14:45:14Z</time>
      </trkpt>
      <trkpt lat="44.8114" lon="6.96842">
        <ele>1855.9</ele>
        <time>2022-02-25T14:45:15Z</time>
      </trkpt>
      <trkpt lat="44.8114" lon="6.96842">
        <ele>1855.9</ele>
        <time>2022-02-25T14:45:16Z</time>
      </trkpt>
      <trkpt lat="44.8114" lon="6.96842">
        <ele>1855.9</ele>
        <time>2022-02-25T14:45:17Z</time>
      </trkpt>
      <trkpt lat="44.8114" lon="6.96842">
        <ele>1855.9</ele>
        <time>2022-02-25T14:45:18Z</time>
      </trkpt>
      <trkpt lat="44.8114" lon="6.96842">
        <ele>1855.9</ele>
        <time>2022-02-25T14:45:19Z</time>
      </trkpt>
      <trkpt lat="44.8114" lon="6.96842">
        <ele>1855.9</ele>
        <time>2022-02-25T14:45:20Z</time>
      </trkpt>
      <trkpt lat="44.8114" lon="6.96842">
        <ele>1855.9</ele>
        <time>2022-02-25T14:45:21Z</time>
      </trkpt>
      <trkpt lat="44.8114" lon="6.96842">
        <ele>1855.9</ele>
        <time>2022-02-25T14:45:22Z</time>
      </trkpt>
      <trkpt lat="44.8114" lon="6.96842">
        <ele>1855.9</ele>
        <time>2022-02-25T14:45:23Z</time>
      </trkpt>
      <trkpt lat="44.8114" lon="6.96842">
        <ele>1855.9</ele>
        <time>2022-02-25T14:45:24Z</time>
      </trkpt>
      <trkpt lat="44.8114" lon="6.96842">
        <ele>1855.9</ele>
        <time>2022-02-25T14:45:25Z</time>
      </trkpt>
      <trkpt lat="44.8114" lon="6.96842">
        <ele>1855.9</ele>
        <time>2022-02-25T14:45:26Z</time>
      </trkpt>
      <trkpt lat="44.8114" lon="6.96842">
        <ele>1855.9</ele>
        <time>2022-02-25T14:45:27Z</time>
      </trkpt>
      <trkpt lat="44.8114" lon="6.96842">
        <ele>1855.9</ele>
        <time>2022-02-25T14:45:28Z</time>
      </trkpt>
      <trkpt lat="44.8114" lon="6.96842">
        <ele>1855.9</ele>
        <time>2022-02-25T14:45:29Z</time>
      </trkpt>
      <trkpt lat="44.8114" lon="6.96842">
        <ele>1855.9</ele>
        <time>2022-02-25T14:45:30Z</time>
      </trkpt>
      <trkpt lat="44.8114" lon="6.96842">
        <ele>1855.9</ele>
        <time>2022-02-25T14:45:31Z</time>
      </trkpt>
      <trkpt lat="44.8114" lon="6.96842">
        <ele>1855.9</ele>
        <time>2022-02-25T14:45:32Z</time>
      </trkpt>
      <trkpt lat="44.8114" lon="6.96842">
        <ele>1855.9</ele>
        <time>2022-02-25T14:45:33Z</time>
      </trkpt>
      <trkpt lat="44.8114" lon="6.96842">
        <ele>1855.9</ele>
        <time>2022-02-25T14:45:34Z</time>
      </trkpt>
      <trkpt lat="44.8114" lon="6.96842">
        <ele>1855.9</ele>
        <time>2022-02-25T14:45:35Z</time>
      </trkpt>
      <trkpt lat="44.8114" lon="6.96842">
        <ele>1855.9</ele>
        <time>2022-02-25T14:45:36Z</time>
      </trkpt>
      <trkpt lat="44.8114" lon="6.96842">
        <ele>1855.9</ele>
        <time>2022-02-25T14:45:37Z</time>
      </trkpt>
      <trkpt lat="44.8114" lon="6.96842">
        <ele>1855.9</ele>
        <time>2022-02-25T14:45:38Z</time>
      </trkpt>
      <trkpt lat="44.8114" lon="6.96842">
        <ele>1855.9</ele>
        <time>2022-02-25T14:45:39Z</time>
      </trkpt>
      <trkpt lat="44.8114" lon="6.96842">
        <ele>1855.9</ele>
        <time>2022-02-25T14:45:40Z</time>
      </trkpt>
      <trkpt lat="44.8114" lon="6.96842">
        <ele>1855.9</ele>
        <time>2022-02-25T14:45:41Z</time>
      </trkpt>
      <trkpt lat="44.8114" lon="6.96842">
        <ele>1855.9</ele>
        <time>2022-02-25T14:45:42Z</time>
      </trkpt>
      <trkpt lat="44.8114" lon="6.96842">
        <ele>1855.9</ele>
        <time>2022-02-25T14:45:43Z</time>
      </trkpt>
      <trkpt lat="44.8114" lon="6.96842">
        <ele>1855.9</ele>
        <time>2022-02-25T14:45:44Z</time>
      </trkpt>
      <trkpt lat="44.8114" lon="6.96842">
        <ele>1855.9</ele>
        <time>2022-02-25T14:45:45Z</time>
      </trkpt>
      <trkpt lat="44.8114" lon="6.96842">
        <ele>1855.9</ele>
        <time>2022-02-25T14:45:46Z</time>
      </trkpt>
      <trkpt lat="44.8114" lon="6.96842">
        <ele>1855.9</ele>
        <time>2022-02-25T14:45:47Z</time>
      </trkpt>
      <trkpt lat="44.8114" lon="6.96842">
        <ele>1855.9</ele>
        <time>2022-02-25T14:45:48Z</time>
      </trkpt>
      <trkpt lat="44.8114" lon="6.96842">
        <ele>1855.9</ele>
        <time>2022-02-25T14:45:49Z</time>
      </trkpt>
      <trkpt lat="44.8114" lon="6.96842">
        <ele>1855.9</ele>
        <time>2022-02-25T14:45:50Z</time>
      </trkpt>
      <trkpt lat="44.8114" lon="6.96842">
        <ele>1855.9</ele>
        <time>2022-02-25T14:45:51Z</time>
      </trkpt>
      <trkpt lat="44.8114" lon="6.96842">
        <ele>1855.9</ele>
        <time>2022-02-25T14:45:52Z</time>
      </trkpt>
      <trkpt lat="44.8114" lon="6.96842">
        <ele>1855.9</ele>
        <time>2022-02-25T14:45:53Z</time>
      </trkpt>
      <trkpt lat="44.8114" lon="6.96842">
        <ele>1855.9</ele>
        <time>2022-02-25T14:45:54Z</time>
      </trkpt>
      <trkpt lat="44.8114" lon="6.96842">
        <ele>1855.9</ele>
        <time>2022-02-25T14:45:55Z</time>
      </trkpt>
      <trkpt lat="44.8114" lon="6.96842">
        <ele>1855.9</ele>
        <time>2022-02-25T14:45:56Z</time>
      </trkpt>
      <trkpt lat="44.8114" lon="6.96842">
        <ele>1855.9</ele>
        <time>2022-02-25T14:45:57Z</time>
      </trkpt>
      <trkpt lat="44.8114" lon="6.96842">
        <ele>1855.9</ele>
        <time>2022-02-25T14:45:58Z</time>
      </trkpt>
      <trkpt lat="44.8114" lon="6.96842">
        <ele>1855.9</ele>
        <time>2022-02-25T14:45:59Z</time>
      </trkpt>
      <trkpt lat="44.8114" lon="6.96842">
        <ele>1855.9</ele>
        <time>2022-02-25T14:46:00Z</time>
      </trkpt>
      <trkpt lat="44.8114" lon="6.96842">
        <ele>1855.9</ele>
        <time>2022-02-25T14:46:01Z</time>
      </trkpt>
      <trkpt lat="44.8114" lon="6.96842">
        <ele>1855.9</ele>
        <time>2022-02-25T14:46:02Z</time>
      </trkpt>
      <trkpt lat="44.8114" lon="6.96842">
        <ele>1855.9</ele>
        <time>2022-02-25T14:46:03Z</time>
      </trkpt>
      <trkpt lat="44.8114" lon="6.96842">
        <ele>1855.9</ele>
        <time>2022-02-25T14:46:04Z</time>
      </trkpt>
      <trkpt lat="44.8114" lon="6.96842">
        <ele>1855.9</ele>
        <time>2022-02-25T14:46:05Z</time>
      </trkpt>
      <trkpt lat="44.8114" lon="6.96842">
        <ele>1855.9</ele>
        <time>2022-02-25T14:46:06Z</time>
      </trkpt>
      <trkpt lat="44.8114" lon="6.96842">
        <ele>1855.9</ele>
        <time>2022-02-25T14:46:07Z</time>
      </trkpt>
      <trkpt lat="44.8114" lon="6.96842">
        <ele>1855.9</ele>
        <time>2022-02-25T14:46:08Z</time>
      </trkpt>
      <trkpt lat="44.8114" lon="6.96842">
        <ele>1855.9</ele>
        <time>2022-02-25T14:46:09Z</time>
      </trkpt>
      <trkpt lat="44.8114" lon="6.96842">
        <ele>1855.9</ele>
        <time>2022-02-25T14:46:10Z</time>
      </trkpt>
      <trkpt lat="44.8114" lon="6.96842">
        <ele>1855.9</ele>
        <time>2022-02-25T14:46:11Z</time>
      </trkpt>
      <trkpt lat="44.8114" lon="6.96842">
        <ele>1855.9</ele>
        <time>2022-02-25T14:46:12Z</time>
      </trkpt>
      <trkpt lat="44.8114" lon="6.96842">
        <ele>1855.9</ele>
        <time>2022-02-25T14:46:13Z</time>
      </trkpt>
      <trkpt lat="44.8114" lon="6.96842">
        <ele>1855.9</ele>
        <time>2022-02-25T14:46:14Z</time>
      </trkpt>
      <trkpt lat="44.8114" lon="6.96842">
        <ele>1855.9</ele>
        <time>2022-02-25T14:46:15Z</time>
      </trkpt>
      <trkpt lat="44.8114" lon="6.96842">
        <ele>1855.9</ele>
        <time>2022-02-25T14:46:16Z</time>
      </trkpt>
      <trkpt lat="44.8114" lon="6.96842">
        <ele>1855.9</ele>
        <time>2022-02-25T14:46:17Z</time>
      </trkpt>
      <trkpt lat="44.8114" lon="6.96842">
        <ele>1855.9</ele>
        <time>2022-02-25T14:46:18Z</time>
      </trkpt>
      <trkpt lat="44.8114" lon="6.96842">
        <ele>1855.9</ele>
        <time>2022-02-25T14:46:19Z</time>
      </trkpt>
      <trkpt lat="44.8114" lon="6.96842">
        <ele>1855.9</ele>
        <time>2022-02-25T14:46:20Z</time>
      </trkpt>
      <trkpt lat="44.8114" lon="6.96842">
        <ele>1855.9</ele>
        <time>2022-02-25T14:46:21Z</time>
      </trkpt>
      <trkpt lat="44.8114" lon="6.96842">
        <ele>1855.9</ele>
        <time>2022-02-25T14:46:22Z</time>
      </trkpt>
      <trkpt lat="44.8114" lon="6.96842">
        <ele>1855.9</ele>
        <time>2022-02-25T14:46:23Z</time>
      </trkpt>
      <trkpt lat="44.8114" lon="6.96842">
        <ele>1855.9</ele>
        <time>2022-02-25T14:46:24Z</time>
      </trkpt>
      <trkpt lat="44.8114" lon="6.96842">
        <ele>1855.9</ele>
        <time>2022-02-25T14:46:25Z</time>
      </trkpt>
      <trkpt lat="44.8114" lon="6.96842">
        <ele>1855.9</ele>
        <time>2022-02-25T14:46:26Z</time>
      </trkpt>
      <trkpt lat="44.8114" lon="6.96842">
        <ele>1855.9</ele>
        <time>2022-02-25T14:46:27Z</time>
      </trkpt>
      <trkpt lat="44.8114" lon="6.96842">
        <ele>1855.9</ele>
        <time>2022-02-25T14:46:28Z</time>
      </trkpt>
      <trkpt lat="44.8114" lon="6.96842">
        <ele>1855.9</ele>
        <time>2022-02-25T14:46:29Z</time>
      </trkpt>
      <trkpt lat="44.8114" lon="6.96842">
        <ele>1855.9</ele>
        <time>2022-02-25T14:46:30Z</time>
      </trkpt>
      <trkpt lat="44.8114" lon="6.96842">
        <ele>1855.9</ele>
        <time>2022-02-25T14:46:31Z</time>
      </trkpt>
      <trkpt lat="44.8114" lon="6.96842">
        <ele>1855.9</ele>
        <time>2022-02-25T14:46:32Z</time>
      </trkpt>
      <trkpt lat="44.8114" lon="6.96842">
        <ele>1855.9</ele>
        <time>2022-02-25T14:46:33Z</time>
      </trkpt>
      <trkpt lat="44.8114" lon="6.96842">
        <ele>1855.9</ele>
        <time>2022-02-25T14:46:34Z</time>
      </trkpt>
      <trkpt lat="44.8114" lon="6.96842">
        <ele>1855.9</ele>
        <time>2022-02-25T14:46:35Z</time>
      </trkpt>
      <trkpt lat="44.8114" lon="6.96842">
        <ele>1855.9</ele>
        <time>2022-02-25T14:46:36Z</time>
      </trkpt>
      <trkpt lat="44.8114" lon="6.96842">
        <ele>1855.9</ele>
        <time>2022-02-25T14:46:37Z</time>
      </trkpt>
      <trkpt lat="44.8114" lon="6.96842">
        <ele>1855.9</ele>
        <time>2022-02-25T14:46:38Z</time>
      </trkpt>
      <trkpt lat="44.8114" lon="6.96842">
        <ele>1855.9</ele>
        <time>2022-02-25T14:46:39Z</time>
      </trkpt>
      <trkpt lat="44.8114" lon="6.96842">
        <ele>1855.9</ele>
        <time>2022-02-25T14:46:40Z</time>
      </trkpt>
      <trkpt lat="44.8114" lon="6.96842">
        <ele>1855.9</ele>
        <time>2022-02-25T14:46:41Z</time>
      </trkpt>
      <trkpt lat="44.8114" lon="6.96842">
        <ele>1855.9</ele>
        <time>2022-02-25T14:46:42Z</time>
      </trkpt>
      <trkpt lat="44.8114" lon="6.96842">
        <ele>1855.9</ele>
        <time>2022-02-25T14:46:43Z</time>
      </trkpt>
      <trkpt lat="44.8114" lon="6.96842">
        <ele>1855.9</ele>
        <time>2022-02-25T14:46:44Z</time>
      </trkpt>
      <trkpt lat="44.8114" lon="6.96842">
        <ele>1855.9</ele>
        <time>2022-02-25T14:46:45Z</time>
      </trkpt>
      <trkpt lat="44.8114" lon="6.96842">
        <ele>1855.9</ele>
        <time>2022-02-25T14:46:46Z</time>
      </trkpt>
      <trkpt lat="44.8114" lon="6.96842">
        <ele>1855.9</ele>
        <time>2022-02-25T14:46:47Z</time>
      </trkpt>
      <trkpt lat="44.8114" lon="6.96842">
        <ele>1855.9</ele>
        <time>2022-02-25T14:46:48Z</time>
      </trkpt>
      <trkpt lat="44.8114" lon="6.96842">
        <ele>1855.9</ele>
        <time>2022-02-25T14:46:49Z</time>
      </trkpt>
      <trkpt lat="44.8114" lon="6.96842">
        <ele>1855.9</ele>
        <time>2022-02-25T14:46:50Z</time>
      </trkpt>
      <trkpt lat="44.8114" lon="6.96842">
        <ele>1855.9</ele>
        <time>2022-02-25T14:46:51Z</time>
      </trkpt>
      <trkpt lat="44.8114" lon="6.96842">
        <ele>1855.9</ele>
        <time>2022-02-25T14:46:52Z</time>
      </trkpt>
      <trkpt lat="44.8114" lon="6.96842">
        <ele>1855.9</ele>
        <time>2022-02-25T14:46:53Z</time>
      </trkpt>
      <trkpt lat="44.8114" lon="6.96842">
        <ele>1855.9</ele>
        <time>2022-02-25T14:46:54Z</time>
      </trkpt>
      <trkpt lat="44.8114" lon="6.96842">
        <ele>1855.9</ele>
        <time>2022-02-25T14:46:55Z</time>
      </trkpt>
      <trkpt lat="44.8114" lon="6.96842">
        <ele>1855.9</ele>
        <time>2022-02-25T14:46:56Z</time>
      </trkpt>
      <trkpt lat="44.8114" lon="6.96842">
        <ele>1855.9</ele>
        <time>2022-02-25T14:46:57Z</time>
      </trkpt>
      <trkpt lat="44.8114" lon="6.96842">
        <ele>1855.9</ele>
        <time>2022-02-25T14:46:58Z</time>
      </trkpt>
      <trkpt lat="44.8114" lon="6.96842">
        <ele>1855.9</ele>
        <time>2022-02-25T14:46:59Z</time>
      </trkpt>
      <trkpt lat="44.8114" lon="6.96842">
        <ele>1855.9</ele>
        <time>2022-02-25T14:47:00Z</time>
      </trkpt>
      <trkpt lat="44.8114" lon="6.96842">
        <ele>1855.9</ele>
        <time>2022-02-25T14:47:01Z</time>
      </trkpt>
      <trkpt lat="44.8114" lon="6.96842">
        <ele>1855.9</ele>
        <time>2022-02-25T14:47:02Z</time>
      </trkpt>
      <trkpt lat="44.8114" lon="6.96842">
        <ele>1855.9</ele>
        <time>2022-02-25T14:47:03Z</time>
      </trkpt>
      <trkpt lat="44.8114" lon="6.96842">
        <ele>1855.9</ele>
        <time>2022-02-25T14:47:04Z</time>
      </trkpt>
      <trkpt lat="44.8114" lon="6.96842">
        <ele>1855.9</ele>
        <time>2022-02-25T14:47:05Z</time>
      </trkpt>
      <trkpt lat="44.8114" lon="6.96842">
        <ele>1855.9</ele>
        <time>2022-02-25T14:47:06Z</time>
      </trkpt>
      <trkpt lat="44.8114" lon="6.96842">
        <ele>1855.9</ele>
        <time>2022-02-25T14:47:07Z</time>
      </trkpt>
      <trkpt lat="44.8114" lon="6.96842">
        <ele>1855.9</ele>
        <time>2022-02-25T14:47:08Z</time>
      </trkpt>
      <trkpt lat="44.8114" lon="6.96842">
        <ele>1855.9</ele>
        <time>2022-02-25T14:47:09Z</time>
      </trkpt>
      <trkpt lat="44.8114" lon="6.96842">
        <ele>1855.9</ele>
        <time>2022-02-25T14:47:10Z</time>
      </trkpt>
      <trkpt lat="44.8114" lon="6.96842">
        <ele>1855.9</ele>
        <time>2022-02-25T14:47:11Z</time>
      </trkpt>
      <trkpt lat="44.8114" lon="6.96842">
        <ele>1855.9</ele>
        <time>2022-02-25T14:47:12Z</time>
      </trkpt>
      <trkpt lat="44.8114" lon="6.96842">
        <ele>1855.9</ele>
        <time>2022-02-25T14:47:13Z</time>
      </trkpt>
      <trkpt lat="44.8114" lon="6.96842">
        <ele>1855.9</ele>
        <time>2022-02-25T14:47:14Z</time>
      </trkpt>
      <trkpt lat="44.8114" lon="6.96842">
        <ele>1855.9</ele>
        <time>2022-02-25T14:47:15Z</time>
      </trkpt>
      <trkpt lat="44.8114" lon="6.96842">
        <ele>1855.9</ele>
        <time>2022-02-25T14:47:16Z</time>
      </trkpt>
      <trkpt lat="44.8114" lon="6.96842">
        <ele>1855.9</ele>
        <time>2022-02-25T14:47:17Z</time>
      </trkpt>
      <trkpt lat="44.8114" lon="6.96842">
        <ele>1855.9</ele>
        <time>2022-02-25T14:47:18Z</time>
      </trkpt>
      <trkpt lat="44.8114" lon="6.96842">
        <ele>1855.9</ele>
        <time>2022-02-25T14:47:19Z</time>
      </trkpt>
      <trkpt lat="44.8114" lon="6.96842">
        <ele>1855.9</ele>
        <time>2022-02-25T14:47:20Z</time>
      </trkpt>
      <trkpt lat="44.8114" lon="6.96842">
        <ele>1855.9</ele>
        <time>2022-02-25T14:47:21Z</time>
      </trkpt>
      <trkpt lat="44.8114" lon="6.96842">
        <ele>1855.9</ele>
        <time>2022-02-25T14:47:22Z</time>
      </trkpt>
      <trkpt lat="44.8114" lon="6.96842">
        <ele>1855.9</ele>
        <time>2022-02-25T14:47:23Z</time>
      </trkpt>
      <trkpt lat="44.8114" lon="6.96842">
        <ele>1855.9</ele>
        <time>2022-02-25T14:47:24Z</time>
      </trkpt>
      <trkpt lat="44.8114" lon="6.96842">
        <ele>1855.9</ele>
        <time>2022-02-25T14:47:25Z</time>
      </trkpt>
      <trkpt lat="44.8114" lon="6.96842">
        <ele>1855.9</ele>
        <time>2022-02-25T14:47:26Z</time>
      </trkpt>
      <trkpt lat="44.8114" lon="6.96842">
        <ele>1855.9</ele>
        <time>2022-02-25T14:47:27Z</time>
      </trkpt>
      <trkpt lat="44.8114" lon="6.96842">
        <ele>1855.9</ele>
        <time>2022-02-25T14:47:28Z</time>
      </trkpt>
      <trkpt lat="44.8114" lon="6.96842">
        <ele>1855.9</ele>
        <time>2022-02-25T14:47:29Z</time>
      </trkpt>
      <trkpt lat="44.8114" lon="6.96842">
        <ele>1855.9</ele>
        <time>2022-02-25T14:47:30Z</time>
      </trkpt>
      <trkpt lat="44.8114" lon="6.96842">
        <ele>1855.9</ele>
        <time>2022-02-25T14:47:31Z</time>
      </trkpt>
      <trkpt lat="44.8114" lon="6.96842">
        <ele>1855.9</ele>
        <time>2022-02-25T14:47:32Z</time>
      </trkpt>
      <trkpt lat="44.8114" lon="6.96842">
        <ele>1855.9</ele>
        <time>2022-02-25T14:47:33Z</time>
      </trkpt>
      <trkpt lat="44.8114" lon="6.96842">
        <ele>1855.9</ele>
        <time>2022-02-25T14:47:34Z</time>
      </trkpt>
      <trkpt lat="44.8114" lon="6.96842">
        <ele>1855.9</ele>
        <time>2022-02-25T14:47:35Z</time>
      </trkpt>
      <trkpt lat="44.8114" lon="6.96842">
        <ele>1855.9</ele>
        <time>2022-02-25T14:47:36Z</time>
      </trkpt>
      <trkpt lat="44.8114" lon="6.96842">
        <ele>1855.9</ele>
        <time>2022-02-25T14:47:37Z</time>
      </trkpt>
      <trkpt lat="44.8114" lon="6.96842">
        <ele>1855.9</ele>
        <time>2022-02-25T14:47:38Z</time>
      </trkpt>
      <trkpt lat="44.8114" lon="6.96842">
        <ele>1855.9</ele>
        <time>2022-02-25T14:47:39Z</time>
      </trkpt>
      <trkpt lat="44.8114" lon="6.96842">
        <ele>1855.9</ele>
        <time>2022-02-25T14:47:40Z</time>
      </trkpt>
      <trkpt lat="44.8114" lon="6.96842">
        <ele>1855.9</ele>
        <time>2022-02-25T14:47:41Z</time>
      </trkpt>
      <trkpt lat="44.8114" lon="6.96842">
        <ele>1855.9</ele>
        <time>2022-02-25T14:47:42Z</time>
      </trkpt>
      <trkpt lat="44.8114" lon="6.96842">
        <ele>1855.9</ele>
        <time>2022-02-25T14:47:43Z</time>
      </trkpt>
      <trkpt lat="44.8114" lon="6.96842">
        <ele>1855.9</ele>
        <time>2022-02-25T14:47:44Z</time>
      </trkpt>
      <trkpt lat="44.8114" lon="6.96842">
        <ele>1855.9</ele>
        <time>2022-02-25T14:47:45Z</time>
      </trkpt>
      <trkpt lat="44.8114" lon="6.96842">
        <ele>1855.9</ele>
        <time>2022-02-25T14:47:46Z</time>
      </trkpt>
      <trkpt lat="44.8114" lon="6.96842">
        <ele>1855.9</ele>
        <time>2022-02-25T14:47:47Z</time>
      </trkpt>
      <trkpt lat="44.8114" lon="6.96842">
        <ele>1855.9</ele>
        <time>2022-02-25T14:47:48Z</time>
      </trkpt>
      <trkpt lat="44.8114" lon="6.96842">
        <ele>1855.9</ele>
        <time>2022-02-25T14:47:49Z</time>
      </trkpt>
      <trkpt lat="44.8114" lon="6.96842">
        <ele>1855.9</ele>
        <time>2022-02-25T14:47:50Z</time>
      </trkpt>
      <trkpt lat="44.8114" lon="6.96842">
        <ele>1855.9</ele>
        <time>2022-02-25T14:47:51Z</time>
      </trkpt>
      <trkpt lat="44.8114" lon="6.96842">
        <ele>1855.9</ele>
        <time>2022-02-25T14:47:52Z</time>
      </trkpt>
      <trkpt lat="44.8114" lon="6.96842">
        <ele>1855.9</ele>
        <time>2022-02-25T14:47:53Z</time>
      </trkpt>
      <trkpt lat="44.8114" lon="6.96842">
        <ele>1855.9</ele>
        <time>2022-02-25T14:47:54Z</time>
      </trkpt>
      <trkpt lat="44.8114" lon="6.96842">
        <ele>1855.9</ele>
        <time>2022-02-25T14:47:55Z</time>
      </trkpt>
      <trkpt lat="44.8114" lon="6.96842">
        <ele>1855.9</ele>
        <time>2022-02-25T14:47:56Z</time>
      </trkpt>
      <trkpt lat="44.8114" lon="6.96842">
        <ele>1855.9</ele>
        <time>2022-02-25T14:47:57Z</time>
      </trkpt>
      <trkpt lat="44.8114" lon="6.96842">
        <ele>1855.9</ele>
        <time>2022-02-25T14:47:58Z</time>
      </trkpt>
      <trkpt lat="44.8114" lon="6.96842">
        <ele>1855.9</ele>
        <time>2022-02-25T14:47:59Z</time>
      </trkpt>
      <trkpt lat="44.8114" lon="6.96842">
        <ele>1855.9</ele>
        <time>2022-02-25T14:48:00Z</time>
      </trkpt>
      <trkpt lat="44.8114" lon="6.96842">
        <ele>1855.9</ele>
        <time>2022-02-25T14:48:01Z</time>
      </trkpt>
      <trkpt lat="44.8114" lon="6.96842">
        <ele>1855.9</ele>
        <time>2022-02-25T14:48:02Z</time>
      </trkpt>
      <trkpt lat="44.8114" lon="6.96842">
        <ele>1855.9</ele>
        <time>2022-02-25T14:48:03Z</time>
      </trkpt>
      <trkpt lat="44.8114" lon="6.96842">
        <ele>1855.9</ele>
        <time>2022-02-25T14:48:04Z</time>
      </trkpt>
      <trkpt lat="44.8114" lon="6.96842">
        <ele>1855.9</ele>
        <time>2022-02-25T14:48:05Z</time>
      </trkpt>
      <trkpt lat="44.8114" lon="6.96842">
        <ele>1855.9</ele>
        <time>2022-02-25T14:48:06Z</time>
      </trkpt>
      <trkpt lat="44.8114" lon="6.96842">
        <ele>1855.9</ele>
        <time>2022-02-25T14:48:07Z</time>
      </trkpt>
      <trkpt lat="44.8114" lon="6.96842">
        <ele>1855.9</ele>
        <time>2022-02-25T14:48:08Z</time>
      </trkpt>
      <trkpt lat="44.8114" lon="6.96842">
        <ele>1855.9</ele>
        <time>2022-02-25T14:48:09Z</time>
      </trkpt>
      <trkpt lat="44.8114" lon="6.96842">
        <ele>1855.9</ele>
        <time>2022-02-25T14:48:10Z</time>
      </trkpt>
      <trkpt lat="44.8114" lon="6.96842">
        <ele>1855.9</ele>
        <time>2022-02-25T14:48:11Z</time>
      </trkpt>
      <trkpt lat="44.8114" lon="6.96842">
        <ele>1855.9</ele>
        <time>2022-02-25T14:48:12Z</time>
      </trkpt>
      <trkpt lat="44.8114" lon="6.96842">
        <ele>1855.9</ele>
        <time>2022-02-25T14:48:13Z</time>
      </trkpt>
      <trkpt lat="44.8114" lon="6.96842">
        <ele>1855.9</ele>
        <time>2022-02-25T14:48:14Z</time>
      </trkpt>
      <trkpt lat="44.8114" lon="6.96842">
        <ele>1855.9</ele>
        <time>2022-02-25T14:48:15Z</time>
      </trkpt>
      <trkpt lat="44.8114" lon="6.96842">
        <ele>1855.9</ele>
        <time>2022-02-25T14:48:16Z</time>
      </trkpt>
      <trkpt lat="44.8114" lon="6.96842">
        <ele>1855.9</ele>
        <time>2022-02-25T14:48:17Z</time>
      </trkpt>
      <trkpt lat="44.8114" lon="6.96842">
        <ele>1855.9</ele>
        <time>2022-02-25T14:48:18Z</time>
      </trkpt>
      <trkpt lat="44.8114" lon="6.96842">
        <ele>1855.9</ele>
        <time>2022-02-25T14:48:19Z</time>
      </trkpt>
      <trkpt lat="44.8114" lon="6.96842">
        <ele>1855.9</ele>
        <time>2022-02-25T14:48:20Z</time>
      </trkpt>
      <trkpt lat="44.8114" lon="6.96842">
        <ele>1855.9</ele>
        <time>2022-02-25T14:48:21Z</time>
      </trkpt>
      <trkpt lat="44.8114" lon="6.96842">
        <ele>1855.9</ele>
        <time>2022-02-25T14:48:22Z</time>
      </trkpt>
      <trkpt lat="44.8114" lon="6.96842">
        <ele>1855.9</ele>
        <time>2022-02-25T14:48:23Z</time>
      </trkpt>
      <trkpt lat="44.8114" lon="6.96842">
        <ele>1855.9</ele>
        <time>2022-02-25T14:48:24Z</time>
      </trkpt>
      <trkpt lat="44.8114" lon="6.96842">
        <ele>1855.9</ele>
        <time>2022-02-25T14:48:25Z</time>
      </trkpt>
      <trkpt lat="44.8114" lon="6.96842">
        <ele>1855.9</ele>
        <time>2022-02-25T14:48:26Z</time>
      </trkpt>
      <trkpt lat="44.8114" lon="6.96842">
        <ele>1855.9</ele>
        <time>2022-02-25T14:48:27Z</time>
      </trkpt>
      <trkpt lat="44.8114" lon="6.96842">
        <ele>1855.9</ele>
        <time>2022-02-25T14:48:28Z</time>
      </trkpt>
      <trkpt lat="44.8114" lon="6.96842">
        <ele>1855.9</ele>
        <time>2022-02-25T14:48:29Z</time>
      </trkpt>
      <trkpt lat="44.8114" lon="6.96842">
        <ele>1855.9</ele>
        <time>2022-02-25T14:48:30Z</time>
      </trkpt>
      <trkpt lat="44.8114" lon="6.96842">
        <ele>1855.9</ele>
        <time>2022-02-25T14:48:31Z</time>
      </trkpt>
      <trkpt lat="44.8114" lon="6.96842">
        <ele>1855.9</ele>
        <time>2022-02-25T14:48:32Z</time>
      </trkpt>
      <trkpt lat="44.8114" lon="6.96842">
        <ele>1855.9</ele>
        <time>2022-02-25T14:48:33Z</time>
      </trkpt>
      <trkpt lat="44.8114" lon="6.96842">
        <ele>1855.9</ele>
        <time>2022-02-25T14:48:34Z</time>
      </trkpt>
      <trkpt lat="44.8114" lon="6.96842">
        <ele>1855.9</ele>
        <time>2022-02-25T14:48:35Z</time>
      </trkpt>
      <trkpt lat="44.8114" lon="6.96842">
        <ele>1855.9</ele>
        <time>2022-02-25T14:48:36Z</time>
      </trkpt>
      <trkpt lat="44.8114" lon="6.96842">
        <ele>1855.9</ele>
        <time>2022-02-25T14:48:37Z</time>
      </trkpt>
      <trkpt lat="44.8114" lon="6.96842">
        <ele>1855.9</ele>
        <time>2022-02-25T14:48:38Z</time>
      </trkpt>
      <trkpt lat="44.8114" lon="6.96842">
        <ele>1855.9</ele>
        <time>2022-02-25T14:48:39Z</time>
      </trkpt>
      <trkpt lat="44.8114" lon="6.96842">
        <ele>1855.9</ele>
        <time>2022-02-25T14:48:40Z</time>
      </trkpt>
      <trkpt lat="44.8114" lon="6.96842">
        <ele>1855.9</ele>
        <time>2022-02-25T14:48:41Z</time>
      </trkpt>
      <trkpt lat="44.8114" lon="6.96842">
        <ele>1855.9</ele>
        <time>2022-02-25T14:48:42Z</time>
      </trkpt>
      <trkpt lat="44.8114" lon="6.96842">
        <ele>1855.9</ele>
        <time>2022-02-25T14:48:43Z</time>
      </trkpt>
      <trkpt lat="44.8114" lon="6.96842">
        <ele>1855.9</ele>
        <time>2022-02-25T14:48:44Z</time>
      </trkpt>
      <trkpt lat="44.8114" lon="6.96842">
        <ele>1855.9</ele>
        <time>2022-02-25T14:48:45Z</time>
      </trkpt>
      <trkpt lat="44.8114" lon="6.96842">
        <ele>1855.9</ele>
        <time>2022-02-25T14:48:46Z</time>
      </trkpt>
      <trkpt lat="44.8114" lon="6.96842">
        <ele>1855.9</ele>
        <time>2022-02-25T14:48:47Z</time>
      </trkpt>
      <trkpt lat="44.8114" lon="6.96842">
        <ele>1855.9</ele>
        <time>2022-02-25T14:48:48Z</time>
      </trkpt>
      <trkpt lat="44.8114" lon="6.96842">
        <ele>1855.9</ele>
        <time>2022-02-25T14:48:49Z</time>
      </trkpt>
      <trkpt lat="44.8114" lon="6.96842">
        <ele>1855.9</ele>
        <time>2022-02-25T14:48:50Z</time>
      </trkpt>
      <trkpt lat="44.8114" lon="6.96842">
        <ele>1855.9</ele>
        <time>2022-02-25T14:48:51Z</time>
      </trkpt>
      <trkpt lat="44.8114" lon="6.96842">
        <ele>1855.9</ele>
        <time>2022-02-25T14:48:52Z</time>
      </trkpt>
      <trkpt lat="44.8114" lon="6.96842">
        <ele>1855.9</ele>
        <time>2022-02-25T14:48:53Z</time>
      </trkpt>
      <trkpt lat="44.8114" lon="6.96842">
        <ele>1855.9</ele>
        <time>2022-02-25T14:48:54Z</time>
      </trkpt>
      <trkpt lat="44.8114" lon="6.96842">
        <ele>1855.9</ele>
        <time>2022-02-25T14:48:55Z</time>
      </trkpt>
      <trkpt lat="44.8114" lon="6.96842">
        <ele>1855.9</ele>
        <time>2022-02-25T14:48:56Z</time>
      </trkpt>
      <trkpt lat="44.8114" lon="6.96842">
        <ele>1855.9</ele>
        <time>2022-02-25T14:48:57Z</time>
      </trkpt>
      <trkpt lat="44.8114" lon="6.96842">
        <ele>1855.9</ele>
        <time>2022-02-25T14:48:58Z</time>
      </trkpt>
      <trkpt lat="44.8114" lon="6.96842">
        <ele>1855.9</ele>
        <time>2022-02-25T14:48:59Z</time>
      </trkpt>
      <trkpt lat="44.8114" lon="6.96842">
        <ele>1855.9</ele>
        <time>2022-02-25T14:49:00Z</time>
      </trkpt>
      <trkpt lat="44.8114" lon="6.96842">
        <ele>1855.9</ele>
        <time>2022-02-25T14:49:01Z</time>
      </trkpt>
      <trkpt lat="44.8114" lon="6.96842">
        <ele>1855.9</ele>
        <time>2022-02-25T14:49:02Z</time>
      </trkpt>
      <trkpt lat="44.8114" lon="6.96842">
        <ele>1855.9</ele>
        <time>2022-02-25T14:49:03Z</time>
      </trkpt>
      <trkpt lat="44.8114" lon="6.96842">
        <ele>1855.9</ele>
        <time>2022-02-25T14:49:04Z</time>
      </trkpt>
      <trkpt lat="44.8114" lon="6.96842">
        <ele>1855.9</ele>
        <time>2022-02-25T14:49:05Z</time>
      </trkpt>
      <trkpt lat="44.8114" lon="6.96842">
        <ele>1855.9</ele>
        <time>2022-02-25T14:49:06Z</time>
      </trkpt>
      <trkpt lat="44.8114" lon="6.96842">
        <ele>1855.9</ele>
        <time>2022-02-25T14:49:07Z</time>
      </trkpt>
      <trkpt lat="44.8114" lon="6.96842">
        <ele>1855.9</ele>
        <time>2022-02-25T14:49:08Z</time>
      </trkpt>
      <trkpt lat="44.8114" lon="6.96842">
        <ele>1855.9</ele>
        <time>2022-02-25T14:49:09Z</time>
      </trkpt>
      <trkpt lat="44.8114" lon="6.96842">
        <ele>1855.9</ele>
        <time>2022-02-25T14:49:10Z</time>
      </trkpt>
      <trkpt lat="44.8114" lon="6.96842">
        <ele>1855.9</ele>
        <time>2022-02-25T14:49:11Z</time>
      </trkpt>
      <trkpt lat="44.8114" lon="6.96842">
        <ele>1855.9</ele>
        <time>2022-02-25T14:49:12Z</time>
      </trkpt>
      <trkpt lat="44.8114" lon="6.96842">
        <ele>1855.9</ele>
        <time>2022-02-25T14:49:13Z</time>
      </trkpt>
      <trkpt lat="44.8114" lon="6.96842">
        <ele>1855.9</ele>
        <time>2022-02-25T14:49:14Z</time>
      </trkpt>
      <trkpt lat="44.8114" lon="6.96842">
        <ele>1855.9</ele>
        <time>2022-02-25T14:49:15Z</time>
      </trkpt>
      <trkpt lat="44.8114" lon="6.96842">
        <ele>1855.9</ele>
        <time>2022-02-25T14:49:16Z</time>
      </trkpt>
      <trkpt lat="44.8114" lon="6.96842">
        <ele>1855.9</ele>
        <time>2022-02-25T14:49:17Z</time>
      </trkpt>
      <trkpt lat="44.8114" lon="6.96842">
        <ele>1855.9</ele>
        <time>2022-02-25T14:49:18Z</time>
      </trkpt>
      <trkpt lat="44.8114" lon="6.96842">
        <ele>1855.9</ele>
        <time>2022-02-25T14:49:19Z</time>
      </trkpt>
      <trkpt lat="44.8114" lon="6.96842">
        <ele>1855.9</ele>
        <time>2022-02-25T14:49:20Z</time>
      </trkpt>
      <trkpt lat="44.8114" lon="6.96842">
        <ele>1855.9</ele>
        <time>2022-02-25T14:49:21Z</time>
      </trkpt>
      <trkpt lat="44.8114" lon="6.96842">
        <ele>1855.9</ele>
        <time>2022-02-25T14:49:22Z</time>
      </trkpt>
      <trkpt lat="44.8114" lon="6.96842">
        <ele>1855.9</ele>
        <time>2022-02-25T14:49:23Z</time>
      </trkpt>
      <trkpt lat="44.8114" lon="6.96842">
        <ele>1855.9</ele>
        <time>2022-02-25T14:49:24Z</time>
      </trkpt>
      <trkpt lat="44.8114" lon="6.96842">
        <ele>1855.9</ele>
        <time>2022-02-25T14:49:25Z</time>
      </trkpt>
      <trkpt lat="44.8114" lon="6.96842">
        <ele>1855.9</ele>
        <time>2022-02-25T14:49:26Z</time>
      </trkpt>
      <trkpt lat="44.8114" lon="6.96842">
        <ele>1855.9</ele>
        <time>2022-02-25T14:49:27Z</time>
      </trkpt>
      <trkpt lat="44.8114" lon="6.96842">
        <ele>1855.9</ele>
        <time>2022-02-25T14:49:28Z</time>
      </trkpt>
      <trkpt lat="44.8114" lon="6.96842">
        <ele>1855.9</ele>
        <time>2022-02-25T14:49:29Z</time>
      </trkpt>
      <trkpt lat="44.8114" lon="6.96842">
        <ele>1855.9</ele>
        <time>2022-02-25T14:49:30Z</time>
      </trkpt>
      <trkpt lat="44.8114" lon="6.96842">
        <ele>1855.9</ele>
        <time>2022-02-25T14:49:31Z</time>
      </trkpt>
      <trkpt lat="44.8114" lon="6.96842">
        <ele>1855.9</ele>
        <time>2022-02-25T14:49:32Z</time>
      </trkpt>
      <trkpt lat="44.8114" lon="6.96842">
        <ele>1855.9</ele>
        <time>2022-02-25T14:49:33Z</time>
      </trkpt>
      <trkpt lat="44.8114" lon="6.96842">
        <ele>1855.9</ele>
        <time>2022-02-25T14:49:34Z</time>
      </trkpt>
      <trkpt lat="44.8114" lon="6.96842">
        <ele>1855.9</ele>
        <time>2022-02-25T14:49:35Z</time>
      </trkpt>
      <trkpt lat="44.8114" lon="6.96842">
        <ele>1855.9</ele>
        <time>2022-02-25T14:49:36Z</time>
      </trkpt>
      <trkpt lat="44.8114" lon="6.96842">
        <ele>1855.9</ele>
        <time>2022-02-25T14:49:37Z</time>
      </trkpt>
      <trkpt lat="44.8114" lon="6.96842">
        <ele>1855.9</ele>
        <time>2022-02-25T14:49:38Z</time>
      </trkpt>
      <trkpt lat="44.8114" lon="6.96842">
        <ele>1855.9</ele>
        <time>2022-02-25T14:49:39Z</time>
      </trkpt>
      <trkpt lat="44.8114" lon="6.96842">
        <ele>1855.9</ele>
        <time>2022-02-25T14:49:40Z</time>
      </trkpt>
      <trkpt lat="44.8114" lon="6.96842">
        <ele>1855.9</ele>
        <time>2022-02-25T14:49:41Z</time>
      </trkpt>
      <trkpt lat="44.8114" lon="6.96842">
        <ele>1855.9</ele>
        <time>2022-02-25T14:49:42Z</time>
      </trkpt>
      <trkpt lat="44.8114" lon="6.96842">
        <ele>1855.9</ele>
        <time>2022-02-25T14:49:43Z</time>
      </trkpt>
      <trkpt lat="44.8114" lon="6.96842">
        <ele>1855.9</ele>
        <time>2022-02-25T14:49:44Z</time>
      </trkpt>
      <trkpt lat="44.8114" lon="6.96842">
        <ele>1855.9</ele>
        <time>2022-02-25T14:49:45Z</time>
      </trkpt>
      <trkpt lat="44.8114" lon="6.96842">
        <ele>1855.9</ele>
        <time>2022-02-25T14:49:46Z</time>
      </trkpt>
      <trkpt lat="44.8114" lon="6.96842">
        <ele>1855.9</ele>
        <time>2022-02-25T14:49:47Z</time>
      </trkpt>
      <trkpt lat="44.8114" lon="6.96842">
        <ele>1855.9</ele>
        <time>2022-02-25T14:49:48Z</time>
      </trkpt>
      <trkpt lat="44.8114" lon="6.96842">
        <ele>1855.9</ele>
        <time>2022-02-25T14:49:49Z</time>
      </trkpt>
      <trkpt lat="44.8114" lon="6.96842">
        <ele>1855.9</ele>
        <time>2022-02-25T14:49:50Z</time>
      </trkpt>
      <trkpt lat="44.8114" lon="6.96842">
        <ele>1855.9</ele>
        <time>2022-02-25T14:49:51Z</time>
      </trkpt>
      <trkpt lat="44.8114" lon="6.96842">
        <ele>1855.9</ele>
        <time>2022-02-25T14:49:52Z</time>
      </trkpt>
      <trkpt lat="44.8114" lon="6.96842">
        <ele>1855.9</ele>
        <time>2022-02-25T14:49:53Z</time>
      </trkpt>
      <trkpt lat="44.8114" lon="6.96842">
        <ele>1855.9</ele>
        <time>2022-02-25T14:49:54Z</time>
      </trkpt>
      <trkpt lat="44.8114" lon="6.96842">
        <ele>1855.9</ele>
        <time>2022-02-25T14:49:55Z</time>
      </trkpt>
      <trkpt lat="44.8114" lon="6.96842">
        <ele>1855.9</ele>
        <time>2022-02-25T14:49:56Z</time>
      </trkpt>
      <trkpt lat="44.8114" lon="6.96842">
        <ele>1855.9</ele>
        <time>2022-02-25T14:49:57Z</time>
      </trkpt>
      <trkpt lat="44.8114" lon="6.96842">
        <ele>1855.9</ele>
        <time>2022-02-25T14:49:58Z</time>
      </trkpt>
      <trkpt lat="44.8114" lon="6.96842">
        <ele>1855.9</ele>
        <time>2022-02-25T14:49:59Z</time>
      </trkpt>
      <trkpt lat="44.8114" lon="6.96842">
        <ele>1855.9</ele>
        <time>2022-02-25T14:50:00Z</time>
      </trkpt>
      <trkpt lat="44.8114" lon="6.96842">
        <ele>1855.9</ele>
        <time>2022-02-25T14:50:01Z</time>
      </trkpt>
      <trkpt lat="44.8114" lon="6.96842">
        <ele>1855.9</ele>
        <time>2022-02-25T14:50:02Z</time>
      </trkpt>
      <trkpt lat="44.8114" lon="6.96842">
        <ele>1855.9</ele>
        <time>2022-02-25T14:50:03Z</time>
      </trkpt>
      <trkpt lat="44.8114" lon="6.96842">
        <ele>1855.9</ele>
        <time>2022-02-25T14:50:04Z</time>
      </trkpt>
      <trkpt lat="44.8114" lon="6.96842">
        <ele>1855.9</ele>
        <time>2022-02-25T14:50:05Z</time>
      </trkpt>
      <trkpt lat="44.8114" lon="6.96842">
        <ele>1855.9</ele>
        <time>2022-02-25T14:50:06Z</time>
      </trkpt>
      <trkpt lat="44.8114" lon="6.96842">
        <ele>1855.9</ele>
        <time>2022-02-25T14:50:07Z</time>
      </trkpt>
      <trkpt lat="44.8114" lon="6.96842">
        <ele>1855.9</ele>
        <time>2022-02-25T14:50:08Z</time>
      </trkpt>
      <trkpt lat="44.8114" lon="6.96842">
        <ele>1855.9</ele>
        <time>2022-02-25T14:50:09Z</time>
      </trkpt>
      <trkpt lat="44.8114" lon="6.96842">
        <ele>1855.9</ele>
        <time>2022-02-25T14:50:10Z</time>
      </trkpt>
      <trkpt lat="44.8114" lon="6.96842">
        <ele>1855.9</ele>
        <time>2022-02-25T14:50:11Z</time>
      </trkpt>
      <trkpt lat="44.8114" lon="6.96842">
        <ele>1855.9</ele>
        <time>2022-02-25T14:50:12Z</time>
      </trkpt>
      <trkpt lat="44.8114" lon="6.96842">
        <ele>1855.9</ele>
        <time>2022-02-25T14:50:13Z</time>
      </trkpt>
      <trkpt lat="44.8114" lon="6.96842">
        <ele>1855.9</ele>
        <time>2022-02-25T14:50:14Z</time>
      </trkpt>
      <trkpt lat="44.8114" lon="6.96842">
        <ele>1855.9</ele>
        <time>2022-02-25T14:50:15Z</time>
      </trkpt>
      <trkpt lat="44.8114" lon="6.96842">
        <ele>1855.9</ele>
        <time>2022-02-25T14:50:16Z</time>
      </trkpt>
      <trkpt lat="44.8114" lon="6.96842">
        <ele>1855.9</ele>
        <time>2022-02-25T14:50:17Z</time>
      </trkpt>
      <trkpt lat="44.8114" lon="6.96842">
        <ele>1855.9</ele>
        <time>2022-02-25T14:50:18Z</time>
      </trkpt>
      <trkpt lat="44.8114" lon="6.96842">
        <ele>1855.9</ele>
        <time>2022-02-25T14:50:19Z</time>
      </trkpt>
      <trkpt lat="44.8114" lon="6.96842">
        <ele>1855.9</ele>
        <time>2022-02-25T14:50:20Z</time>
      </trkpt>
      <trkpt lat="44.8114" lon="6.96842">
        <ele>1855.9</ele>
        <time>2022-02-25T14:50:21Z</time>
      </trkpt>
      <trkpt lat="44.8114" lon="6.96842">
        <ele>1855.9</ele>
        <time>2022-02-25T14:50:22Z</time>
      </trkpt>
      <trkpt lat="44.8114" lon="6.96842">
        <ele>1855.9</ele>
        <time>2022-02-25T14:50:23Z</time>
      </trkpt>
      <trkpt lat="44.8114" lon="6.96842">
        <ele>1855.9</ele>
        <time>2022-02-25T14:50:24Z</time>
      </trkpt>
      <trkpt lat="44.8114" lon="6.96842">
        <ele>1855.9</ele>
        <time>2022-02-25T14:50:25Z</time>
      </trkpt>
      <trkpt lat="44.8114" lon="6.96842">
        <ele>1855.9</ele>
        <time>2022-02-25T14:50:26Z</time>
      </trkpt>
      <trkpt lat="44.8114" lon="6.96842">
        <ele>1855.9</ele>
        <time>2022-02-25T14:50:27Z</time>
      </trkpt>
      <trkpt lat="44.8114" lon="6.96842">
        <ele>1855.9</ele>
        <time>2022-02-25T14:50:28Z</time>
      </trkpt>
      <trkpt lat="44.8114" lon="6.96842">
        <ele>1855.9</ele>
        <time>2022-02-25T14:50:29Z</time>
      </trkpt>
      <trkpt lat="44.8114" lon="6.96842">
        <ele>1855.9</ele>
        <time>2022-02-25T14:50:30Z</time>
      </trkpt>
      <trkpt lat="44.8114" lon="6.96842">
        <ele>1855.9</ele>
        <time>2022-02-25T14:50:31Z</time>
      </trkpt>
      <trkpt lat="44.8114" lon="6.96842">
        <ele>1855.9</ele>
        <time>2022-02-25T14:50:32Z</time>
      </trkpt>
      <trkpt lat="44.8114" lon="6.96842">
        <ele>1855.9</ele>
        <time>2022-02-25T14:50:33Z</time>
      </trkpt>
      <trkpt lat="44.8114" lon="6.96842">
        <ele>1855.9</ele>
        <time>2022-02-25T14:50:34Z</time>
      </trkpt>
      <trkpt lat="44.8114" lon="6.96842">
        <ele>1855.9</ele>
        <time>2022-02-25T14:50:35Z</time>
      </trkpt>
      <trkpt lat="44.8114" lon="6.96842">
        <ele>1855.9</ele>
        <time>2022-02-25T14:50:36Z</time>
      </trkpt>
      <trkpt lat="44.8114" lon="6.96842">
        <ele>1855.9</ele>
        <time>2022-02-25T14:50:37Z</time>
      </trkpt>
      <trkpt lat="44.8114" lon="6.96842">
        <ele>1855.9</ele>
        <time>2022-02-25T14:50:38Z</time>
      </trkpt>
      <trkpt lat="44.8114" lon="6.96842">
        <ele>1855.9</ele>
        <time>2022-02-25T14:50:39Z</time>
      </trkpt>
      <trkpt lat="44.8114" lon="6.96842">
        <ele>1855.9</ele>
        <time>2022-02-25T14:50:40Z</time>
      </trkpt>
      <trkpt lat="44.8114" lon="6.96842">
        <ele>1855.9</ele>
        <time>2022-02-25T14:50:41Z</time>
      </trkpt>
      <trkpt lat="44.8114" lon="6.96842">
        <ele>1855.9</ele>
        <time>2022-02-25T14:50:42Z</time>
      </trkpt>
      <trkpt lat="44.8114" lon="6.96842">
        <ele>1855.9</ele>
        <time>2022-02-25T14:50:43Z</time>
      </trkpt>
      <trkpt lat="44.8114" lon="6.96842">
        <ele>1855.9</ele>
        <time>2022-02-25T14:50:44Z</time>
      </trkpt>
      <trkpt lat="44.8114" lon="6.96842">
        <ele>1855.9</ele>
        <time>2022-02-25T14:50:45Z</time>
      </trkpt>
      <trkpt lat="44.8114" lon="6.96842">
        <ele>1855.9</ele>
        <time>2022-02-25T14:50:46Z</time>
      </trkpt>
      <trkpt lat="44.8114" lon="6.96842">
        <ele>1855.9</ele>
        <time>2022-02-25T14:50:47Z</time>
      </trkpt>
      <trkpt lat="44.81138" lon="6.96844">
        <ele>1856.1</ele>
        <time>2022-02-25T14:50:48Z</time>
      </trkpt>
      <trkpt lat="44.81138" lon="6.96844">
        <ele>1856.1</ele>
        <time>2022-02-25T14:50:49Z</time>
      </trkpt>
      <trkpt lat="44.81138" lon="6.96844">
        <ele>1856.1</ele>
        <time>2022-02-25T14:50:50Z</time>
      </trkpt>
      <trkpt lat="44.81138" lon="6.96844">
        <ele>1856.1</ele>
        <time>2022-02-25T14:50:51Z</time>
      </trkpt>
      <trkpt lat="44.81138" lon="6.96844">
        <ele>1856.1</ele>
        <time>2022-02-25T14:50:52Z</time>
      </trkpt>
      <trkpt lat="44.81138" lon="6.96844">
        <ele>1856.1</ele>
        <time>2022-02-25T14:50:53Z</time>
      </trkpt>
      <trkpt lat="44.81138" lon="6.96844">
        <ele>1856.1</ele>
        <time>2022-02-25T14:50:54Z</time>
      </trkpt>
      <trkpt lat="44.81138" lon="6.96844">
        <ele>1856.1</ele>
        <time>2022-02-25T14:50:55Z</time>
      </trkpt>
      <trkpt lat="44.81138" lon="6.96844">
        <ele>1856.1</ele>
        <time>2022-02-25T14:50:56Z</time>
      </trkpt>
      <trkpt lat="44.81138" lon="6.96844">
        <ele>1856.1</ele>
        <time>2022-02-25T14:50:57Z</time>
      </trkpt>
      <trkpt lat="44.81138" lon="6.96844">
        <ele>1856.1</ele>
        <time>2022-02-25T14:50:58Z</time>
      </trkpt>
      <trkpt lat="44.81138" lon="6.96844">
        <ele>1856.1</ele>
        <time>2022-02-25T14:50:59Z</time>
      </trkpt>
      <trkpt lat="44.81138" lon="6.96844">
        <ele>1856.1</ele>
        <time>2022-02-25T14:51:00Z</time>
      </trkpt>
      <trkpt lat="44.81138" lon="6.96844">
        <ele>1856.1</ele>
        <time>2022-02-25T14:51:01Z</time>
      </trkpt>
      <trkpt lat="44.81138" lon="6.96844">
        <ele>1856.1</ele>
        <time>2022-02-25T14:51:02Z</time>
      </trkpt>
      <trkpt lat="44.81138" lon="6.96844">
        <ele>1856.1</ele>
        <time>2022-02-25T14:51:03Z</time>
      </trkpt>
      <trkpt lat="44.81138" lon="6.96844">
        <ele>1856.1</ele>
        <time>2022-02-25T14:51:04Z</time>
      </trkpt>
      <trkpt lat="44.81138" lon="6.96844">
        <ele>1856.1</ele>
        <time>2022-02-25T14:51:05Z</time>
      </trkpt>
      <trkpt lat="44.81138" lon="6.96844">
        <ele>1856.1</ele>
        <time>2022-02-25T14:51:06Z</time>
      </trkpt>
      <trkpt lat="44.81138" lon="6.96844">
        <ele>1856.1</ele>
        <time>2022-02-25T14:51:07Z</time>
      </trkpt>
      <trkpt lat="44.81138" lon="6.96844">
        <ele>1856.1</ele>
        <time>2022-02-25T14:51:08Z</time>
      </trkpt>
      <trkpt lat="44.81138" lon="6.96844">
        <ele>1856.1</ele>
        <time>2022-02-25T14:51:09Z</time>
      </trkpt>
      <trkpt lat="44.81138" lon="6.96844">
        <ele>1856.1</ele>
        <time>2022-02-25T14:51:10Z</time>
      </trkpt>
      <trkpt lat="44.81138" lon="6.96844">
        <ele>1856.1</ele>
        <time>2022-02-25T14:51:11Z</time>
      </trkpt>
      <trkpt lat="44.81138" lon="6.96844">
        <ele>1856.1</ele>
        <time>2022-02-25T14:51:12Z</time>
      </trkpt>
      <trkpt lat="44.81138" lon="6.96844">
        <ele>1856.1</ele>
        <time>2022-02-25T14:51:13Z</time>
      </trkpt>
      <trkpt lat="44.81138" lon="6.96844">
        <ele>1856.1</ele>
        <time>2022-02-25T14:51:14Z</time>
      </trkpt>
      <trkpt lat="44.81138" lon="6.96844">
        <ele>1856.1</ele>
        <time>2022-02-25T14:51:15Z</time>
      </trkpt>
      <trkpt lat="44.81138" lon="6.96844">
        <ele>1856.1</ele>
        <time>2022-02-25T14:51:16Z</time>
      </trkpt>
      <trkpt lat="44.81138" lon="6.96844">
        <ele>1856.1</ele>
        <time>2022-02-25T14:51:17Z</time>
      </trkpt>
      <trkpt lat="44.81138" lon="6.96844">
        <ele>1856.1</ele>
        <time>2022-02-25T14:51:18Z</time>
      </trkpt>
      <trkpt lat="44.81138" lon="6.96844">
        <ele>1856.1</ele>
        <time>2022-02-25T14:51:19Z</time>
      </trkpt>
      <trkpt lat="44.81138" lon="6.96844">
        <ele>1856.1</ele>
        <time>2022-02-25T14:51:20Z</time>
      </trkpt>
      <trkpt lat="44.81138" lon="6.96844">
        <ele>1856.1</ele>
        <time>2022-02-25T14:51:21Z</time>
      </trkpt>
      <trkpt lat="44.81138" lon="6.96844">
        <ele>1856.1</ele>
        <time>2022-02-25T14:51:22Z</time>
      </trkpt>
      <trkpt lat="44.81138" lon="6.96844">
        <ele>1856.1</ele>
        <time>2022-02-25T14:51:23Z</time>
      </trkpt>
      <trkpt lat="44.81138" lon="6.96844">
        <ele>1856.1</ele>
        <time>2022-02-25T14:51:24Z</time>
      </trkpt>
      <trkpt lat="44.81138" lon="6.96844">
        <ele>1856.1</ele>
        <time>2022-02-25T14:51:25Z</time>
      </trkpt>
      <trkpt lat="44.81138" lon="6.96844">
        <ele>1856.1</ele>
        <time>2022-02-25T14:51:26Z</time>
      </trkpt>
      <trkpt lat="44.81138" lon="6.96844">
        <ele>1856.1</ele>
        <time>2022-02-25T14:51:27Z</time>
      </trkpt>
      <trkpt lat="44.81138" lon="6.96844">
        <ele>1856.1</ele>
        <time>2022-02-25T14:51:28Z</time>
      </trkpt>
      <trkpt lat="44.81138" lon="6.96844">
        <ele>1856.1</ele>
        <time>2022-02-25T14:51:29Z</time>
      </trkpt>
      <trkpt lat="44.81138" lon="6.96844">
        <ele>1856.1</ele>
        <time>2022-02-25T14:51:30Z</time>
      </trkpt>
      <trkpt lat="44.81138" lon="6.96844">
        <ele>1856.1</ele>
        <time>2022-02-25T14:51:31Z</time>
      </trkpt>
      <trkpt lat="44.81138" lon="6.96844">
        <ele>1856.1</ele>
        <time>2022-02-25T14:51:32Z</time>
      </trkpt>
      <trkpt lat="44.81138" lon="6.96844">
        <ele>1856.1</ele>
        <time>2022-02-25T14:51:33Z</time>
      </trkpt>
      <trkpt lat="44.81138" lon="6.96844">
        <ele>1856.1</ele>
        <time>2022-02-25T14:51:34Z</time>
      </trkpt>
      <trkpt lat="44.81138" lon="6.96844">
        <ele>1856.1</ele>
        <time>2022-02-25T14:51:35Z</time>
      </trkpt>
      <trkpt lat="44.81138" lon="6.96844">
        <ele>1856.1</ele>
        <time>2022-02-25T14:51:36Z</time>
      </trkpt>
      <trkpt lat="44.81138" lon="6.96844">
        <ele>1856.1</ele>
        <time>2022-02-25T14:51:37Z</time>
      </trkpt>
      <trkpt lat="44.81138" lon="6.96844">
        <ele>1856.1</ele>
        <time>2022-02-25T14:51:38Z</time>
      </trkpt>
      <trkpt lat="44.81138" lon="6.96844">
        <ele>1856.1</ele>
        <time>2022-02-25T14:51:39Z</time>
      </trkpt>
      <trkpt lat="44.81138" lon="6.96844">
        <ele>1856.1</ele>
        <time>2022-02-25T14:51:40Z</time>
      </trkpt>
      <trkpt lat="44.81138" lon="6.96844">
        <ele>1856.1</ele>
        <time>2022-02-25T14:51:41Z</time>
      </trkpt>
      <trkpt lat="44.81138" lon="6.96844">
        <ele>1856.1</ele>
        <time>2022-02-25T14:51:42Z</time>
      </trkpt>
      <trkpt lat="44.81138" lon="6.96844">
        <ele>1856.1</ele>
        <time>2022-02-25T14:51:43Z</time>
      </trkpt>
      <trkpt lat="44.81138" lon="6.96844">
        <ele>1856.1</ele>
        <time>2022-02-25T14:51:44Z</time>
      </trkpt>
      <trkpt lat="44.81138" lon="6.96844">
        <ele>1856.1</ele>
        <time>2022-02-25T14:51:45Z</time>
      </trkpt>
      <trkpt lat="44.81138" lon="6.96844">
        <ele>1856.1</ele>
        <time>2022-02-25T14:51:46Z</time>
      </trkpt>
      <trkpt lat="44.81138" lon="6.96844">
        <ele>1856.1</ele>
        <time>2022-02-25T14:51:47Z</time>
      </trkpt>
      <trkpt lat="44.81138" lon="6.96844">
        <ele>1856.1</ele>
        <time>2022-02-25T14:51:48Z</time>
      </trkpt>
      <trkpt lat="44.81138" lon="6.96844">
        <ele>1856.1</ele>
        <time>2022-02-25T14:51:49Z</time>
      </trkpt>
      <trkpt lat="44.81138" lon="6.96844">
        <ele>1856.1</ele>
        <time>2022-02-25T14:51:50Z</time>
      </trkpt>
      <trkpt lat="44.81138" lon="6.96844">
        <ele>1856.1</ele>
        <time>2022-02-25T14:51:51Z</time>
      </trkpt>
      <trkpt lat="44.81138" lon="6.96844">
        <ele>1856.1</ele>
        <time>2022-02-25T14:51:52Z</time>
      </trkpt>
      <trkpt lat="44.81138" lon="6.96844">
        <ele>1856.1</ele>
        <time>2022-02-25T14:51:53Z</time>
      </trkpt>
      <trkpt lat="44.81138" lon="6.96844">
        <ele>1856.1</ele>
        <time>2022-02-25T14:51:54Z</time>
      </trkpt>
      <trkpt lat="44.81138" lon="6.96844">
        <ele>1856.1</ele>
        <time>2022-02-25T14:51:55Z</time>
      </trkpt>
      <trkpt lat="44.81138" lon="6.96844">
        <ele>1856.1</ele>
        <time>2022-02-25T14:51:56Z</time>
      </trkpt>
      <trkpt lat="44.81138" lon="6.96844">
        <ele>1856.1</ele>
        <time>2022-02-25T14:51:57Z</time>
      </trkpt>
      <trkpt lat="44.81138" lon="6.96844">
        <ele>1856.1</ele>
        <time>2022-02-25T14:51:58Z</time>
      </trkpt>
      <trkpt lat="44.81138" lon="6.96844">
        <ele>1856.1</ele>
        <time>2022-02-25T14:51:59Z</time>
      </trkpt>
      <trkpt lat="44.81138" lon="6.96844">
        <ele>1856.1</ele>
        <time>2022-02-25T14:52:00Z</time>
      </trkpt>
      <trkpt lat="44.81138" lon="6.96844">
        <ele>1856.1</ele>
        <time>2022-02-25T14:52:01Z</time>
      </trkpt>
      <trkpt lat="44.81138" lon="6.96844">
        <ele>1856.1</ele>
        <time>2022-02-25T14:52:02Z</time>
      </trkpt>
      <trkpt lat="44.81138" lon="6.96844">
        <ele>1856.1</ele>
        <time>2022-02-25T14:52:03Z</time>
      </trkpt>
      <trkpt lat="44.81138" lon="6.96844">
        <ele>1856.1</ele>
        <time>2022-02-25T14:52:04Z</time>
      </trkpt>
      <trkpt lat="44.81138" lon="6.96844">
        <ele>1856.1</ele>
        <time>2022-02-25T14:52:05Z</time>
      </trkpt>
      <trkpt lat="44.81138" lon="6.96844">
        <ele>1856.1</ele>
        <time>2022-02-25T14:52:06Z</time>
      </trkpt>
      <trkpt lat="44.81138" lon="6.96844">
        <ele>1856.1</ele>
        <time>2022-02-25T14:52:07Z</time>
      </trkpt>
      <trkpt lat="44.81138" lon="6.96844">
        <ele>1856.1</ele>
        <time>2022-02-25T14:52:08Z</time>
      </trkpt>
      <trkpt lat="44.81138" lon="6.96844">
        <ele>1856.1</ele>
        <time>2022-02-25T14:52:09Z</time>
      </trkpt>
      <trkpt lat="44.81138" lon="6.96844">
        <ele>1856.1</ele>
        <time>2022-02-25T14:52:10Z</time>
      </trkpt>
      <trkpt lat="44.81138" lon="6.96844">
        <ele>1856.1</ele>
        <time>2022-02-25T14:52:11Z</time>
      </trkpt>
      <trkpt lat="44.81138" lon="6.96844">
        <ele>1856.1</ele>
        <time>2022-02-25T14:52:12Z</time>
      </trkpt>
      <trkpt lat="44.81138" lon="6.96844">
        <ele>1856.1</ele>
        <time>2022-02-25T14:52:13Z</time>
      </trkpt>
      <trkpt lat="44.81138" lon="6.96844">
        <ele>1856.1</ele>
        <time>2022-02-25T14:52:14Z</time>
      </trkpt>
      <trkpt lat="44.81138" lon="6.96844">
        <ele>1856.1</ele>
        <time>2022-02-25T14:52:15Z</time>
      </trkpt>
      <trkpt lat="44.81138" lon="6.96844">
        <ele>1856.1</ele>
        <time>2022-02-25T14:52:16Z</time>
      </trkpt>
      <trkpt lat="44.81138" lon="6.96844">
        <ele>1856.1</ele>
        <time>2022-02-25T14:52:17Z</time>
      </trkpt>
      <trkpt lat="44.81138" lon="6.96844">
        <ele>1856.1</ele>
        <time>2022-02-25T14:52:18Z</time>
      </trkpt>
      <trkpt lat="44.81138" lon="6.96844">
        <ele>1856.1</ele>
        <time>2022-02-25T14:52:19Z</time>
      </trkpt>
      <trkpt lat="44.81138" lon="6.96844">
        <ele>1856.1</ele>
        <time>2022-02-25T14:52:20Z</time>
      </trkpt>
      <trkpt lat="44.81138" lon="6.96844">
        <ele>1856.1</ele>
        <time>2022-02-25T14:52:21Z</time>
      </trkpt>
      <trkpt lat="44.81138" lon="6.96844">
        <ele>1856.1</ele>
        <time>2022-02-25T14:52:22Z</time>
      </trkpt>
      <trkpt lat="44.81138" lon="6.96844">
        <ele>1856.1</ele>
        <time>2022-02-25T14:52:23Z</time>
      </trkpt>
      <trkpt lat="44.81138" lon="6.96844">
        <ele>1856.1</ele>
        <time>2022-02-25T14:52:24Z</time>
      </trkpt>
      <trkpt lat="44.81138" lon="6.96844">
        <ele>1856.1</ele>
        <time>2022-02-25T14:52:25Z</time>
      </trkpt>
      <trkpt lat="44.81138" lon="6.96844">
        <ele>1856.1</ele>
        <time>2022-02-25T14:52:26Z</time>
      </trkpt>
      <trkpt lat="44.81138" lon="6.96844">
        <ele>1856.1</ele>
        <time>2022-02-25T14:52:27Z</time>
      </trkpt>
      <trkpt lat="44.81138" lon="6.96844">
        <ele>1856.1</ele>
        <time>2022-02-25T14:52:28Z</time>
      </trkpt>
      <trkpt lat="44.81138" lon="6.96844">
        <ele>1856.1</ele>
        <time>2022-02-25T14:52:29Z</time>
      </trkpt>
      <trkpt lat="44.81138" lon="6.96844">
        <ele>1856.1</ele>
        <time>2022-02-25T14:52:30Z</time>
      </trkpt>
      <trkpt lat="44.81138" lon="6.96844">
        <ele>1856.1</ele>
        <time>2022-02-25T14:52:31Z</time>
      </trkpt>
      <trkpt lat="44.81138" lon="6.96844">
        <ele>1856.1</ele>
        <time>2022-02-25T14:52:32Z</time>
      </trkpt>
      <trkpt lat="44.81138" lon="6.96844">
        <ele>1856.1</ele>
        <time>2022-02-25T14:52:33Z</time>
      </trkpt>
      <trkpt lat="44.81138" lon="6.96844">
        <ele>1856.1</ele>
        <time>2022-02-25T14:52:34Z</time>
      </trkpt>
      <trkpt lat="44.81138" lon="6.96844">
        <ele>1856.1</ele>
        <time>2022-02-25T14:52:35Z</time>
      </trkpt>
      <trkpt lat="44.81138" lon="6.96844">
        <ele>1856.1</ele>
        <time>2022-02-25T14:52:36Z</time>
      </trkpt>
      <trkpt lat="44.81138" lon="6.96844">
        <ele>1856.1</ele>
        <time>2022-02-25T14:52:37Z</time>
      </trkpt>
      <trkpt lat="44.81138" lon="6.96844">
        <ele>1856.1</ele>
        <time>2022-02-25T14:52:38Z</time>
      </trkpt>
      <trkpt lat="44.81138" lon="6.96844">
        <ele>1856.1</ele>
        <time>2022-02-25T14:52:39Z</time>
      </trkpt>
      <trkpt lat="44.81138" lon="6.96844">
        <ele>1856.1</ele>
        <time>2022-02-25T14:52:40Z</time>
      </trkpt>
      <trkpt lat="44.81138" lon="6.96844">
        <ele>1856.1</ele>
        <time>2022-02-25T14:52:41Z</time>
      </trkpt>
      <trkpt lat="44.81138" lon="6.96844">
        <ele>1856.1</ele>
        <time>2022-02-25T14:52:42Z</time>
      </trkpt>
      <trkpt lat="44.81138" lon="6.96844">
        <ele>1856.1</ele>
        <time>2022-02-25T14:52:43Z</time>
      </trkpt>
      <trkpt lat="44.81138" lon="6.96844">
        <ele>1856.1</ele>
        <time>2022-02-25T14:52:44Z</time>
      </trkpt>
      <trkpt lat="44.81138" lon="6.96844">
        <ele>1856.1</ele>
        <time>2022-02-25T14:52:45Z</time>
      </trkpt>
      <trkpt lat="44.81138" lon="6.96844">
        <ele>1856.1</ele>
        <time>2022-02-25T14:52:46Z</time>
      </trkpt>
      <trkpt lat="44.81138" lon="6.96844">
        <ele>1856.1</ele>
        <time>2022-02-25T14:52:47Z</time>
      </trkpt>
      <trkpt lat="44.81138" lon="6.96844">
        <ele>1856.1</ele>
        <time>2022-02-25T14:52:48Z</time>
      </trkpt>
      <trkpt lat="44.81138" lon="6.96844">
        <ele>1856.1</ele>
        <time>2022-02-25T14:52:49Z</time>
      </trkpt>
      <trkpt lat="44.81138" lon="6.96844">
        <ele>1856.1</ele>
        <time>2022-02-25T14:52:50Z</time>
      </trkpt>
      <trkpt lat="44.81138" lon="6.96844">
        <ele>1856.1</ele>
        <time>2022-02-25T14:52:51Z</time>
      </trkpt>
      <trkpt lat="44.81138" lon="6.96844">
        <ele>1856.1</ele>
        <time>2022-02-25T14:52:52Z</time>
      </trkpt>
      <trkpt lat="44.81138" lon="6.96844">
        <ele>1856.1</ele>
        <time>2022-02-25T14:52:53Z</time>
      </trkpt>
      <trkpt lat="44.81138" lon="6.96844">
        <ele>1856.1</ele>
        <time>2022-02-25T14:52:54Z</time>
      </trkpt>
      <trkpt lat="44.81138" lon="6.96844">
        <ele>1856.1</ele>
        <time>2022-02-25T14:52:55Z</time>
      </trkpt>
      <trkpt lat="44.81138" lon="6.96844">
        <ele>1856.1</ele>
        <time>2022-02-25T14:52:56Z</time>
      </trkpt>
      <trkpt lat="44.81138" lon="6.96844">
        <ele>1856.1</ele>
        <time>2022-02-25T14:52:57Z</time>
      </trkpt>
      <trkpt lat="44.81138" lon="6.96844">
        <ele>1856.1</ele>
        <time>2022-02-25T14:52:58Z</time>
      </trkpt>
      <trkpt lat="44.81138" lon="6.96844">
        <ele>1856.1</ele>
        <time>2022-02-25T14:52:59Z</time>
      </trkpt>
      <trkpt lat="44.81138" lon="6.96844">
        <ele>1856.1</ele>
        <time>2022-02-25T14:53:00Z</time>
      </trkpt>
      <trkpt lat="44.81138" lon="6.96844">
        <ele>1856.1</ele>
        <time>2022-02-25T14:53:01Z</time>
      </trkpt>
      <trkpt lat="44.81138" lon="6.96844">
        <ele>1856.1</ele>
        <time>2022-02-25T14:53:02Z</time>
      </trkpt>
      <trkpt lat="44.81138" lon="6.96844">
        <ele>1856.1</ele>
        <time>2022-02-25T14:53:03Z</time>
      </trkpt>
      <trkpt lat="44.81138" lon="6.96844">
        <ele>1856.1</ele>
        <time>2022-02-25T14:53:04Z</time>
      </trkpt>
      <trkpt lat="44.81138" lon="6.96844">
        <ele>1856.1</ele>
        <time>2022-02-25T14:53:05Z</time>
      </trkpt>
      <trkpt lat="44.81138" lon="6.96844">
        <ele>1856.1</ele>
        <time>2022-02-25T14:53:06Z</time>
      </trkpt>
      <trkpt lat="44.81138" lon="6.96844">
        <ele>1856.1</ele>
        <time>2022-02-25T14:53:07Z</time>
      </trkpt>
      <trkpt lat="44.81138" lon="6.96844">
        <ele>1856.1</ele>
        <time>2022-02-25T14:53:08Z</time>
      </trkpt>
      <trkpt lat="44.81138" lon="6.96844">
        <ele>1856.1</ele>
        <time>2022-02-25T14:53:09Z</time>
      </trkpt>
      <trkpt lat="44.81138" lon="6.96844">
        <ele>1856.1</ele>
        <time>2022-02-25T14:53:10Z</time>
      </trkpt>
      <trkpt lat="44.81138" lon="6.96844">
        <ele>1856.1</ele>
        <time>2022-02-25T14:53:11Z</time>
      </trkpt>
      <trkpt lat="44.81138" lon="6.96844">
        <ele>1856.1</ele>
        <time>2022-02-25T14:53:12Z</time>
      </trkpt>
      <trkpt lat="44.81138" lon="6.96844">
        <ele>1856.1</ele>
        <time>2022-02-25T14:53:13Z</time>
      </trkpt>
      <trkpt lat="44.81138" lon="6.96844">
        <ele>1856.1</ele>
        <time>2022-02-25T14:53:14Z</time>
      </trkpt>
      <trkpt lat="44.81138" lon="6.96844">
        <ele>1856.1</ele>
        <time>2022-02-25T14:53:15Z</time>
      </trkpt>
      <trkpt lat="44.81138" lon="6.96844">
        <ele>1856.1</ele>
        <time>2022-02-25T14:53:16Z</time>
      </trkpt>
      <trkpt lat="44.81138" lon="6.96844">
        <ele>1856.1</ele>
        <time>2022-02-25T14:53:17Z</time>
      </trkpt>
      <trkpt lat="44.81138" lon="6.96844">
        <ele>1856.1</ele>
        <time>2022-02-25T14:53:18Z</time>
      </trkpt>
      <trkpt lat="44.81138" lon="6.96844">
        <ele>1856.1</ele>
        <time>2022-02-25T14:53:19Z</time>
      </trkpt>
      <trkpt lat="44.81138" lon="6.96844">
        <ele>1856.1</ele>
        <time>2022-02-25T14:53:20Z</time>
      </trkpt>
      <trkpt lat="44.81138" lon="6.96844">
        <ele>1856.1</ele>
        <time>2022-02-25T14:53:21Z</time>
      </trkpt>
      <trkpt lat="44.81138" lon="6.96844">
        <ele>1856.1</ele>
        <time>2022-02-25T14:53:22Z</time>
      </trkpt>
      <trkpt lat="44.81138" lon="6.96844">
        <ele>1856.1</ele>
        <time>2022-02-25T14:53:23Z</time>
      </trkpt>
      <trkpt lat="44.81138" lon="6.96844">
        <ele>1856.1</ele>
        <time>2022-02-25T14:53:24Z</time>
      </trkpt>
      <trkpt lat="44.81138" lon="6.96844">
        <ele>1856.1</ele>
        <time>2022-02-25T14:53:25Z</time>
      </trkpt>
      <trkpt lat="44.81138" lon="6.96844">
        <ele>1856.1</ele>
        <time>2022-02-25T14:53:26Z</time>
      </trkpt>
      <trkpt lat="44.81138" lon="6.96844">
        <ele>1856.1</ele>
        <time>2022-02-25T14:53:27Z</time>
      </trkpt>
      <trkpt lat="44.81138" lon="6.96844">
        <ele>1856.1</ele>
        <time>2022-02-25T14:53:28Z</time>
      </trkpt>
      <trkpt lat="44.81138" lon="6.96844">
        <ele>1856.1</ele>
        <time>2022-02-25T14:53:29Z</time>
      </trkpt>
      <trkpt lat="44.81138" lon="6.96844">
        <ele>1856.1</ele>
        <time>2022-02-25T14:53:30Z</time>
      </trkpt>
      <trkpt lat="44.81138" lon="6.96844">
        <ele>1856.1</ele>
        <time>2022-02-25T14:53:31Z</time>
      </trkpt>
      <trkpt lat="44.81138" lon="6.96844">
        <ele>1856.1</ele>
        <time>2022-02-25T14:53:32Z</time>
      </trkpt>
      <trkpt lat="44.81138" lon="6.96844">
        <ele>1856.1</ele>
        <time>2022-02-25T14:53:33Z</time>
      </trkpt>
      <trkpt lat="44.81138" lon="6.96844">
        <ele>1856.1</ele>
        <time>2022-02-25T14:53:34Z</time>
      </trkpt>
      <trkpt lat="44.81138" lon="6.96844">
        <ele>1856.1</ele>
        <time>2022-02-25T14:53:35Z</time>
      </trkpt>
      <trkpt lat="44.81138" lon="6.96844">
        <ele>1856.1</ele>
        <time>2022-02-25T14:53:36Z</time>
      </trkpt>
      <trkpt lat="44.81138" lon="6.96844">
        <ele>1856.1</ele>
        <time>2022-02-25T14:53:37Z</time>
      </trkpt>
      <trkpt lat="44.81138" lon="6.96844">
        <ele>1856.1</ele>
        <time>2022-02-25T14:53:38Z</time>
      </trkpt>
      <trkpt lat="44.81138" lon="6.96844">
        <ele>1856.1</ele>
        <time>2022-02-25T14:53:39Z</time>
      </trkpt>
      <trkpt lat="44.81138" lon="6.96844">
        <ele>1856.1</ele>
        <time>2022-02-25T14:53:40Z</time>
      </trkpt>
      <trkpt lat="44.81138" lon="6.96844">
        <ele>1856.1</ele>
        <time>2022-02-25T14:53:41Z</time>
      </trkpt>
      <trkpt lat="44.81138" lon="6.96844">
        <ele>1856.1</ele>
        <time>2022-02-25T14:53:42Z</time>
      </trkpt>
      <trkpt lat="44.81138" lon="6.96844">
        <ele>1856.1</ele>
        <time>2022-02-25T14:53:43Z</time>
      </trkpt>
      <trkpt lat="44.81138" lon="6.96844">
        <ele>1856.1</ele>
        <time>2022-02-25T14:53:44Z</time>
      </trkpt>
      <trkpt lat="44.81138" lon="6.96844">
        <ele>1856.1</ele>
        <time>2022-02-25T14:53:45Z</time>
      </trkpt>
      <trkpt lat="44.81138" lon="6.96844">
        <ele>1856.1</ele>
        <time>2022-02-25T14:53:46Z</time>
      </trkpt>
      <trkpt lat="44.81138" lon="6.96844">
        <ele>1856.1</ele>
        <time>2022-02-25T14:53:47Z</time>
      </trkpt>
      <trkpt lat="44.81138" lon="6.96844">
        <ele>1856.1</ele>
        <time>2022-02-25T14:53:48Z</time>
      </trkpt>
      <trkpt lat="44.81138" lon="6.96844">
        <ele>1856.1</ele>
        <time>2022-02-25T14:53:49Z</time>
      </trkpt>
      <trkpt lat="44.81138" lon="6.96844">
        <ele>1856.1</ele>
        <time>2022-02-25T14:53:50Z</time>
      </trkpt>
      <trkpt lat="44.81138" lon="6.96844">
        <ele>1856.1</ele>
        <time>2022-02-25T14:53:51Z</time>
      </trkpt>
      <trkpt lat="44.81138" lon="6.96844">
        <ele>1856.1</ele>
        <time>2022-02-25T14:53:52Z</time>
      </trkpt>
      <trkpt lat="44.81138" lon="6.96844">
        <ele>1856.1</ele>
        <time>2022-02-25T14:53:53Z</time>
      </trkpt>
      <trkpt lat="44.81138" lon="6.96844">
        <ele>1856.1</ele>
        <time>2022-02-25T14:53:54Z</time>
      </trkpt>
      <trkpt lat="44.81138" lon="6.96844">
        <ele>1856.1</ele>
        <time>2022-02-25T14:53:55Z</time>
      </trkpt>
      <trkpt lat="44.81138" lon="6.96844">
        <ele>1856.1</ele>
        <time>2022-02-25T14:53:56Z</time>
      </trkpt>
      <trkpt lat="44.81138" lon="6.96844">
        <ele>1856.1</ele>
        <time>2022-02-25T14:53:57Z</time>
      </trkpt>
      <trkpt lat="44.81138" lon="6.96844">
        <ele>1856.1</ele>
        <time>2022-02-25T14:53:58Z</time>
      </trkpt>
      <trkpt lat="44.81138" lon="6.96844">
        <ele>1856.1</ele>
        <time>2022-02-25T14:53:59Z</time>
      </trkpt>
      <trkpt lat="44.81138" lon="6.96844">
        <ele>1856.1</ele>
        <time>2022-02-25T14:54:00Z</time>
      </trkpt>
      <trkpt lat="44.81138" lon="6.96844">
        <ele>1856.1</ele>
        <time>2022-02-25T14:54:01Z</time>
      </trkpt>
      <trkpt lat="44.81138" lon="6.96844">
        <ele>1856.1</ele>
        <time>2022-02-25T14:54:02Z</time>
      </trkpt>
      <trkpt lat="44.81138" lon="6.96844">
        <ele>1856.1</ele>
        <time>2022-02-25T14:54:03Z</time>
      </trkpt>
      <trkpt lat="44.81138" lon="6.96844">
        <ele>1856.1</ele>
        <time>2022-02-25T14:54:04Z</time>
      </trkpt>
      <trkpt lat="44.81138" lon="6.96844">
        <ele>1856.1</ele>
        <time>2022-02-25T14:54:05Z</time>
      </trkpt>
      <trkpt lat="44.81138" lon="6.96844">
        <ele>1856.1</ele>
        <time>2022-02-25T14:54:06Z</time>
      </trkpt>
      <trkpt lat="44.81138" lon="6.96844">
        <ele>1856.1</ele>
        <time>2022-02-25T14:54:07Z</time>
      </trkpt>
      <trkpt lat="44.81138" lon="6.96844">
        <ele>1856.1</ele>
        <time>2022-02-25T14:54:08Z</time>
      </trkpt>
      <trkpt lat="44.81138" lon="6.96844">
        <ele>1856.1</ele>
        <time>2022-02-25T14:54:09Z</time>
      </trkpt>
      <trkpt lat="44.81138" lon="6.96844">
        <ele>1856.1</ele>
        <time>2022-02-25T14:54:10Z</time>
      </trkpt>
      <trkpt lat="44.81138" lon="6.96844">
        <ele>1856.1</ele>
        <time>2022-02-25T14:54:11Z</time>
      </trkpt>
      <trkpt lat="44.81138" lon="6.96844">
        <ele>1856.1</ele>
        <time>2022-02-25T14:54:12Z</time>
      </trkpt>
      <trkpt lat="44.81138" lon="6.96844">
        <ele>1856.1</ele>
        <time>2022-02-25T14:54:13Z</time>
      </trkpt>
      <trkpt lat="44.81138" lon="6.96844">
        <ele>1856.1</ele>
        <time>2022-02-25T14:54:14Z</time>
      </trkpt>
      <trkpt lat="44.81138" lon="6.96844">
        <ele>1856.1</ele>
        <time>2022-02-25T14:54:15Z</time>
      </trkpt>
      <trkpt lat="44.81138" lon="6.96844">
        <ele>1856.1</ele>
        <time>2022-02-25T14:54:16Z</time>
      </trkpt>
      <trkpt lat="44.81138" lon="6.96844">
        <ele>1856.1</ele>
        <time>2022-02-25T14:54:17Z</time>
      </trkpt>
      <trkpt lat="44.81138" lon="6.96844">
        <ele>1856.1</ele>
        <time>2022-02-25T14:54:18Z</time>
      </trkpt>
      <trkpt lat="44.81138" lon="6.96844">
        <ele>1856.1</ele>
        <time>2022-02-25T14:54:19Z</time>
      </trkpt>
      <trkpt lat="44.81138" lon="6.96844">
        <ele>1856.1</ele>
        <time>2022-02-25T14:54:20Z</time>
      </trkpt>
      <trkpt lat="44.81138" lon="6.96844">
        <ele>1856.1</ele>
        <time>2022-02-25T14:54:21Z</time>
      </trkpt>
      <trkpt lat="44.81138" lon="6.96844">
        <ele>1856.1</ele>
        <time>2022-02-25T14:54:22Z</time>
      </trkpt>
      <trkpt lat="44.81138" lon="6.96844">
        <ele>1856.1</ele>
        <time>2022-02-25T14:54:23Z</time>
      </trkpt>
      <trkpt lat="44.81138" lon="6.96844">
        <ele>1856.1</ele>
        <time>2022-02-25T14:54:24Z</time>
      </trkpt>
      <trkpt lat="44.81138" lon="6.96844">
        <ele>1856.1</ele>
        <time>2022-02-25T14:54:25Z</time>
      </trkpt>
      <trkpt lat="44.81138" lon="6.96844">
        <ele>1856.1</ele>
        <time>2022-02-25T14:54:26Z</time>
      </trkpt>
      <trkpt lat="44.81138" lon="6.96844">
        <ele>1856.1</ele>
        <time>2022-02-25T14:54:27Z</time>
      </trkpt>
      <trkpt lat="44.81138" lon="6.96844">
        <ele>1856.1</ele>
        <time>2022-02-25T14:54:28Z</time>
      </trkpt>
      <trkpt lat="44.81138" lon="6.96844">
        <ele>1856.1</ele>
        <time>2022-02-25T14:54:29Z</time>
      </trkpt>
      <trkpt lat="44.81138" lon="6.96844">
        <ele>1856.1</ele>
        <time>2022-02-25T14:54:30Z</time>
      </trkpt>
      <trkpt lat="44.81138" lon="6.96844">
        <ele>1856.1</ele>
        <time>2022-02-25T14:54:31Z</time>
      </trkpt>
      <trkpt lat="44.81138" lon="6.96844">
        <ele>1856.1</ele>
        <time>2022-02-25T14:54:32Z</time>
      </trkpt>
      <trkpt lat="44.81138" lon="6.96844">
        <ele>1856.1</ele>
        <time>2022-02-25T14:54:33Z</time>
      </trkpt>
      <trkpt lat="44.81138" lon="6.96844">
        <ele>1856.1</ele>
        <time>2022-02-25T14:54:34Z</time>
      </trkpt>
      <trkpt lat="44.81138" lon="6.96844">
        <ele>1856.1</ele>
        <time>2022-02-25T14:54:35Z</time>
      </trkpt>
      <trkpt lat="44.81138" lon="6.96844">
        <ele>1856.1</ele>
        <time>2022-02-25T14:54:36Z</time>
      </trkpt>
      <trkpt lat="44.81138" lon="6.96844">
        <ele>1856.1</ele>
        <time>2022-02-25T14:54:37Z</time>
      </trkpt>
      <trkpt lat="44.81138" lon="6.96844">
        <ele>1856.1</ele>
        <time>2022-02-25T14:54:38Z</time>
      </trkpt>
      <trkpt lat="44.81138" lon="6.96844">
        <ele>1856.1</ele>
        <time>2022-02-25T14:54:39Z</time>
      </trkpt>
      <trkpt lat="44.81138" lon="6.96844">
        <ele>1856.1</ele>
        <time>2022-02-25T14:54:40Z</time>
      </trkpt>
      <trkpt lat="44.81138" lon="6.96844">
        <ele>1856.1</ele>
        <time>2022-02-25T14:54:41Z</time>
      </trkpt>
      <trkpt lat="44.81138" lon="6.96844">
        <ele>1856.1</ele>
        <time>2022-02-25T14:54:42Z</time>
      </trkpt>
      <trkpt lat="44.81138" lon="6.96844">
        <ele>1856.1</ele>
        <time>2022-02-25T14:54:43Z</time>
      </trkpt>
      <trkpt lat="44.81138" lon="6.96844">
        <ele>1856.1</ele>
        <time>2022-02-25T14:54:44Z</time>
      </trkpt>
      <trkpt lat="44.81138" lon="6.96844">
        <ele>1856.1</ele>
        <time>2022-02-25T14:54:45Z</time>
      </trkpt>
      <trkpt lat="44.81138" lon="6.96844">
        <ele>1856.1</ele>
        <time>2022-02-25T14:54:46Z</time>
      </trkpt>
      <trkpt lat="44.81138" lon="6.96844">
        <ele>1856.1</ele>
        <time>2022-02-25T14:54:47Z</time>
      </trkpt>
      <trkpt lat="44.81138" lon="6.96844">
        <ele>1856.1</ele>
        <time>2022-02-25T14:54:48Z</time>
      </trkpt>
      <trkpt lat="44.81138" lon="6.96844">
        <ele>1856.1</ele>
        <time>2022-02-25T14:54:49Z</time>
      </trkpt>
      <trkpt lat="44.81138" lon="6.96844">
        <ele>1856.1</ele>
        <time>2022-02-25T14:54:50Z</time>
      </trkpt>
      <trkpt lat="44.81138" lon="6.96844">
        <ele>1856.1</ele>
        <time>2022-02-25T14:54:51Z</time>
      </trkpt>
      <trkpt lat="44.81138" lon="6.96844">
        <ele>1856.1</ele>
        <time>2022-02-25T14:54:52Z</time>
      </trkpt>
      <trkpt lat="44.81138" lon="6.96844">
        <ele>1856.1</ele>
        <time>2022-02-25T14:54:53Z</time>
      </trkpt>
      <trkpt lat="44.81138" lon="6.96844">
        <ele>1856.1</ele>
        <time>2022-02-25T14:54:54Z</time>
      </trkpt>
      <trkpt lat="44.81138" lon="6.96844">
        <ele>1856.1</ele>
        <time>2022-02-25T14:54:55Z</time>
      </trkpt>
      <trkpt lat="44.81138" lon="6.96844">
        <ele>1856.1</ele>
        <time>2022-02-25T14:54:56Z</time>
      </trkpt>
      <trkpt lat="44.81138" lon="6.96844">
        <ele>1856.1</ele>
        <time>2022-02-25T14:54:57Z</time>
      </trkpt>
      <trkpt lat="44.81138" lon="6.96844">
        <ele>1856.1</ele>
        <time>2022-02-25T14:54:58Z</time>
      </trkpt>
      <trkpt lat="44.81138" lon="6.96844">
        <ele>1856.1</ele>
        <time>2022-02-25T14:54:59Z</time>
      </trkpt>
      <trkpt lat="44.81138" lon="6.96844">
        <ele>1856.1</ele>
        <time>2022-02-25T14:55:00Z</time>
      </trkpt>
      <trkpt lat="44.81138" lon="6.96844">
        <ele>1856.1</ele>
        <time>2022-02-25T14:55:01Z</time>
      </trkpt>
      <trkpt lat="44.81138" lon="6.96844">
        <ele>1856.1</ele>
        <time>2022-02-25T14:55:02Z</time>
      </trkpt>
      <trkpt lat="44.81138" lon="6.96844">
        <ele>1856.1</ele>
        <time>2022-02-25T14:55:03Z</time>
      </trkpt>
      <trkpt lat="44.81138" lon="6.96844">
        <ele>1856.1</ele>
        <time>2022-02-25T14:55:04Z</time>
      </trkpt>
      <trkpt lat="44.81138" lon="6.96844">
        <ele>1856.1</ele>
        <time>2022-02-25T14:55:05Z</time>
      </trkpt>
      <trkpt lat="44.81138" lon="6.96844">
        <ele>1856.1</ele>
        <time>2022-02-25T14:55:06Z</time>
      </trkpt>
      <trkpt lat="44.81138" lon="6.96844">
        <ele>1856.1</ele>
        <time>2022-02-25T14:55:07Z</time>
      </trkpt>
      <trkpt lat="44.81138" lon="6.96844">
        <ele>1856.1</ele>
        <time>2022-02-25T14:55:08Z</time>
      </trkpt>
      <trkpt lat="44.81138" lon="6.96844">
        <ele>1856.1</ele>
        <time>2022-02-25T14:55:09Z</time>
      </trkpt>
      <trkpt lat="44.81138" lon="6.96844">
        <ele>1856.1</ele>
        <time>2022-02-25T14:55:10Z</time>
      </trkpt>
      <trkpt lat="44.81138" lon="6.96844">
        <ele>1856.1</ele>
        <time>2022-02-25T14:55:11Z</time>
      </trkpt>
      <trkpt lat="44.81138" lon="6.96844">
        <ele>1856.1</ele>
        <time>2022-02-25T14:55:12Z</time>
      </trkpt>
      <trkpt lat="44.81138" lon="6.96844">
        <ele>1856.1</ele>
        <time>2022-02-25T14:55:13Z</time>
      </trkpt>
      <trkpt lat="44.81138" lon="6.96844">
        <ele>1856.1</ele>
        <time>2022-02-25T14:55:14Z</time>
      </trkpt>
      <trkpt lat="44.81138" lon="6.96844">
        <ele>1856.1</ele>
        <time>2022-02-25T14:55:15Z</time>
      </trkpt>
      <trkpt lat="44.81138" lon="6.96844">
        <ele>1856.1</ele>
        <time>2022-02-25T14:55:16Z</time>
      </trkpt>
      <trkpt lat="44.81138" lon="6.96844">
        <ele>1856.1</ele>
        <time>2022-02-25T14:55:17Z</time>
      </trkpt>
      <trkpt lat="44.81138" lon="6.96844">
        <ele>1856.1</ele>
        <time>2022-02-25T14:55:18Z</time>
      </trkpt>
      <trkpt lat="44.81138" lon="6.96844">
        <ele>1856.1</ele>
        <time>2022-02-25T14:55:19Z</time>
      </trkpt>
      <trkpt lat="44.81138" lon="6.96844">
        <ele>1856.1</ele>
        <time>2022-02-25T14:55:20Z</time>
      </trkpt>
      <trkpt lat="44.81138" lon="6.96844">
        <ele>1856.1</ele>
        <time>2022-02-25T14:55:21Z</time>
      </trkpt>
      <trkpt lat="44.81138" lon="6.96844">
        <ele>1856.1</ele>
        <time>2022-02-25T14:55:22Z</time>
      </trkpt>
      <trkpt lat="44.81138" lon="6.96844">
        <ele>1856.1</ele>
        <time>2022-02-25T14:55:23Z</time>
      </trkpt>
      <trkpt lat="44.81138" lon="6.96844">
        <ele>1856.1</ele>
        <time>2022-02-25T14:55:24Z</time>
      </trkpt>
      <trkpt lat="44.81138" lon="6.96844">
        <ele>1856.1</ele>
        <time>2022-02-25T14:55:25Z</time>
      </trkpt>
      <trkpt lat="44.81138" lon="6.96844">
        <ele>1856.1</ele>
        <time>2022-02-25T14:55:26Z</time>
      </trkpt>
      <trkpt lat="44.81138" lon="6.96844">
        <ele>1856.1</ele>
        <time>2022-02-25T14:55:27Z</time>
      </trkpt>
      <trkpt lat="44.81138" lon="6.96844">
        <ele>1856.1</ele>
        <time>2022-02-25T14:55:28Z</time>
      </trkpt>
      <trkpt lat="44.81138" lon="6.96844">
        <ele>1856.1</ele>
        <time>2022-02-25T14:55:29Z</time>
      </trkpt>
      <trkpt lat="44.81138" lon="6.96844">
        <ele>1856.1</ele>
        <time>2022-02-25T14:55:30Z</time>
      </trkpt>
      <trkpt lat="44.81138" lon="6.96844">
        <ele>1856.1</ele>
        <time>2022-02-25T14:55:31Z</time>
      </trkpt>
      <trkpt lat="44.81138" lon="6.96844">
        <ele>1856.1</ele>
        <time>2022-02-25T14:55:32Z</time>
      </trkpt>
      <trkpt lat="44.81138" lon="6.96844">
        <ele>1856.1</ele>
        <time>2022-02-25T14:55:33Z</time>
      </trkpt>
      <trkpt lat="44.81138" lon="6.96844">
        <ele>1856.1</ele>
        <time>2022-02-25T14:55:34Z</time>
      </trkpt>
      <trkpt lat="44.81138" lon="6.96844">
        <ele>1856.1</ele>
        <time>2022-02-25T14:55:35Z</time>
      </trkpt>
      <trkpt lat="44.81138" lon="6.96844">
        <ele>1856.1</ele>
        <time>2022-02-25T14:55:36Z</time>
      </trkpt>
      <trkpt lat="44.81138" lon="6.96844">
        <ele>1856.1</ele>
        <time>2022-02-25T14:55:37Z</time>
      </trkpt>
      <trkpt lat="44.81138" lon="6.96844">
        <ele>1856.1</ele>
        <time>2022-02-25T14:55:38Z</time>
      </trkpt>
      <trkpt lat="44.81138" lon="6.96844">
        <ele>1856.1</ele>
        <time>2022-02-25T14:55:39Z</time>
      </trkpt>
      <trkpt lat="44.81138" lon="6.96844">
        <ele>1856.1</ele>
        <time>2022-02-25T14:55:40Z</time>
      </trkpt>
      <trkpt lat="44.81138" lon="6.96844">
        <ele>1856.1</ele>
        <time>2022-02-25T14:55:41Z</time>
      </trkpt>
      <trkpt lat="44.81138" lon="6.96844">
        <ele>1856.1</ele>
        <time>2022-02-25T14:55:42Z</time>
      </trkpt>
      <trkpt lat="44.81138" lon="6.96844">
        <ele>1856.1</ele>
        <time>2022-02-25T14:55:43Z</time>
      </trkpt>
      <trkpt lat="44.81138" lon="6.96844">
        <ele>1856.1</ele>
        <time>2022-02-25T14:55:44Z</time>
      </trkpt>
      <trkpt lat="44.81138" lon="6.96844">
        <ele>1856.1</ele>
        <time>2022-02-25T14:55:45Z</time>
      </trkpt>
      <trkpt lat="44.81138" lon="6.96844">
        <ele>1856.1</ele>
        <time>2022-02-25T14:55:46Z</time>
      </trkpt>
      <trkpt lat="44.81138" lon="6.96844">
        <ele>1856.1</ele>
        <time>2022-02-25T14:55:47Z</time>
      </trkpt>
      <trkpt lat="44.81138" lon="6.96844">
        <ele>1856.1</ele>
        <time>2022-02-25T14:55:48Z</time>
      </trkpt>
      <trkpt lat="44.81138" lon="6.96844">
        <ele>1856.1</ele>
        <time>2022-02-25T14:55:49Z</time>
      </trkpt>
      <trkpt lat="44.81138" lon="6.96844">
        <ele>1856.1</ele>
        <time>2022-02-25T14:55:50Z</time>
      </trkpt>
      <trkpt lat="44.81138" lon="6.96844">
        <ele>1856.1</ele>
        <time>2022-02-25T14:55:51Z</time>
      </trkpt>
      <trkpt lat="44.81138" lon="6.96844">
        <ele>1856.1</ele>
        <time>2022-02-25T14:55:52Z</time>
      </trkpt>
      <trkpt lat="44.81138" lon="6.96844">
        <ele>1856.1</ele>
        <time>2022-02-25T14:55:53Z</time>
      </trkpt>
      <trkpt lat="44.81138" lon="6.96844">
        <ele>1856.1</ele>
        <time>2022-02-25T14:55:54Z</time>
      </trkpt>
      <trkpt lat="44.81138" lon="6.96844">
        <ele>1856.1</ele>
        <time>2022-02-25T14:55:55Z</time>
      </trkpt>
      <trkpt lat="44.81138" lon="6.96844">
        <ele>1856.1</ele>
        <time>2022-02-25T14:55:56Z</time>
      </trkpt>
      <trkpt lat="44.81138" lon="6.96844">
        <ele>1856.1</ele>
        <time>2022-02-25T14:55:57Z</time>
      </trkpt>
      <trkpt lat="44.81138" lon="6.96844">
        <ele>1856.1</ele>
        <time>2022-02-25T14:55:58Z</time>
      </trkpt>
      <trkpt lat="44.81138" lon="6.96844">
        <ele>1856.1</ele>
        <time>2022-02-25T14:55:59Z</time>
      </trkpt>
      <trkpt lat="44.81138" lon="6.96844">
        <ele>1856.1</ele>
        <time>2022-02-25T14:56:00Z</time>
      </trkpt>
      <trkpt lat="44.81138" lon="6.96844">
        <ele>1856.1</ele>
        <time>2022-02-25T14:56:01Z</time>
      </trkpt>
      <trkpt lat="44.81138" lon="6.96844">
        <ele>1856.1</ele>
        <time>2022-02-25T14:56:02Z</time>
      </trkpt>
      <trkpt lat="44.81138" lon="6.96844">
        <ele>1856.1</ele>
        <time>2022-02-25T14:56:03Z</time>
      </trkpt>
      <trkpt lat="44.81138" lon="6.96844">
        <ele>1856.1</ele>
        <time>2022-02-25T14:56:04Z</time>
      </trkpt>
      <trkpt lat="44.81138" lon="6.96844">
        <ele>1856.1</ele>
        <time>2022-02-25T14:56:05Z</time>
      </trkpt>
      <trkpt lat="44.81138" lon="6.96844">
        <ele>1856.1</ele>
        <time>2022-02-25T14:56:06Z</time>
      </trkpt>
      <trkpt lat="44.81138" lon="6.96844">
        <ele>1856.1</ele>
        <time>2022-02-25T14:56:07Z</time>
      </trkpt>
      <trkpt lat="44.81138" lon="6.96844">
        <ele>1856.1</ele>
        <time>2022-02-25T14:56:08Z</time>
      </trkpt>
      <trkpt lat="44.81138" lon="6.96844">
        <ele>1856.1</ele>
        <time>2022-02-25T14:56:09Z</time>
      </trkpt>
      <trkpt lat="44.81138" lon="6.96844">
        <ele>1856.1</ele>
        <time>2022-02-25T14:56:10Z</time>
      </trkpt>
      <trkpt lat="44.81138" lon="6.96844">
        <ele>1856.1</ele>
        <time>2022-02-25T14:56:11Z</time>
      </trkpt>
      <trkpt lat="44.81138" lon="6.96844">
        <ele>1856.1</ele>
        <time>2022-02-25T14:56:12Z</time>
      </trkpt>
      <trkpt lat="44.81138" lon="6.96844">
        <ele>1856.1</ele>
        <time>2022-02-25T14:56:13Z</time>
      </trkpt>
      <trkpt lat="44.81138" lon="6.96844">
        <ele>1856.1</ele>
        <time>2022-02-25T14:56:14Z</time>
      </trkpt>
      <trkpt lat="44.81138" lon="6.96844">
        <ele>1856.1</ele>
        <time>2022-02-25T14:56:15Z</time>
      </trkpt>
      <trkpt lat="44.81138" lon="6.96844">
        <ele>1856.1</ele>
        <time>2022-02-25T14:56:16Z</time>
      </trkpt>
      <trkpt lat="44.81138" lon="6.96844">
        <ele>1856.1</ele>
        <time>2022-02-25T14:56:17Z</time>
      </trkpt>
      <trkpt lat="44.81138" lon="6.96844">
        <ele>1856.1</ele>
        <time>2022-02-25T14:56:18Z</time>
      </trkpt>
      <trkpt lat="44.81138" lon="6.96844">
        <ele>1856.1</ele>
        <time>2022-02-25T14:56:19Z</time>
      </trkpt>
      <trkpt lat="44.81138" lon="6.96844">
        <ele>1856.1</ele>
        <time>2022-02-25T14:56:20Z</time>
      </trkpt>
      <trkpt lat="44.81138" lon="6.96844">
        <ele>1856.1</ele>
        <time>2022-02-25T14:56:21Z</time>
      </trkpt>
      <trkpt lat="44.81138" lon="6.96844">
        <ele>1856.1</ele>
        <time>2022-02-25T14:56:22Z</time>
      </trkpt>
      <trkpt lat="44.81138" lon="6.96844">
        <ele>1856.1</ele>
        <time>2022-02-25T14:56:23Z</time>
      </trkpt>
      <trkpt lat="44.81138" lon="6.96844">
        <ele>1856.1</ele>
        <time>2022-02-25T14:56:24Z</time>
      </trkpt>
      <trkpt lat="44.81138" lon="6.96844">
        <ele>1856.1</ele>
        <time>2022-02-25T14:56:25Z</time>
      </trkpt>
      <trkpt lat="44.81138" lon="6.96844">
        <ele>1856.1</ele>
        <time>2022-02-25T14:56:26Z</time>
      </trkpt>
      <trkpt lat="44.81138" lon="6.96844">
        <ele>1856.1</ele>
        <time>2022-02-25T14:56:27Z</time>
      </trkpt>
      <trkpt lat="44.81138" lon="6.96844">
        <ele>1856.1</ele>
        <time>2022-02-25T14:56:28Z</time>
      </trkpt>
      <trkpt lat="44.81138" lon="6.96844">
        <ele>1856.1</ele>
        <time>2022-02-25T14:56:29Z</time>
      </trkpt>
      <trkpt lat="44.81138" lon="6.96844">
        <ele>1856.1</ele>
        <time>2022-02-25T14:56:30Z</time>
      </trkpt>
      <trkpt lat="44.81138" lon="6.96844">
        <ele>1856.1</ele>
        <time>2022-02-25T14:56:31Z</time>
      </trkpt>
      <trkpt lat="44.81138" lon="6.96844">
        <ele>1856.1</ele>
        <time>2022-02-25T14:56:32Z</time>
      </trkpt>
      <trkpt lat="44.81138" lon="6.96844">
        <ele>1856.1</ele>
        <time>2022-02-25T14:56:33Z</time>
      </trkpt>
      <trkpt lat="44.81138" lon="6.96844">
        <ele>1856.1</ele>
        <time>2022-02-25T14:56:34Z</time>
      </trkpt>
      <trkpt lat="44.81138" lon="6.96844">
        <ele>1856.1</ele>
        <time>2022-02-25T14:56:35Z</time>
      </trkpt>
      <trkpt lat="44.81138" lon="6.96844">
        <ele>1856.1</ele>
        <time>2022-02-25T14:56:36Z</time>
      </trkpt>
      <trkpt lat="44.81138" lon="6.96844">
        <ele>1856.1</ele>
        <time>2022-02-25T14:56:37Z</time>
      </trkpt>
      <trkpt lat="44.81138" lon="6.96844">
        <ele>1856.1</ele>
        <time>2022-02-25T14:56:38Z</time>
      </trkpt>
      <trkpt lat="44.81138" lon="6.96844">
        <ele>1856.1</ele>
        <time>2022-02-25T14:56:39Z</time>
      </trkpt>
      <trkpt lat="44.81138" lon="6.96844">
        <ele>1856.1</ele>
        <time>2022-02-25T14:56:40Z</time>
      </trkpt>
      <trkpt lat="44.81138" lon="6.96844">
        <ele>1856.1</ele>
        <time>2022-02-25T14:56:41Z</time>
      </trkpt>
      <trkpt lat="44.81138" lon="6.96844">
        <ele>1856.1</ele>
        <time>2022-02-25T14:56:42Z</time>
      </trkpt>
      <trkpt lat="44.81138" lon="6.96844">
        <ele>1856.1</ele>
        <time>2022-02-25T14:56:43Z</time>
      </trkpt>
      <trkpt lat="44.81138" lon="6.96844">
        <ele>1856.1</ele>
        <time>2022-02-25T14:56:44Z</time>
      </trkpt>
      <trkpt lat="44.81138" lon="6.96844">
        <ele>1856.1</ele>
        <time>2022-02-25T14:56:45Z</time>
      </trkpt>
      <trkpt lat="44.81138" lon="6.96844">
        <ele>1856.1</ele>
        <time>2022-02-25T14:56:46Z</time>
      </trkpt>
      <trkpt lat="44.81138" lon="6.96844">
        <ele>1856.1</ele>
        <time>2022-02-25T14:56:47Z</time>
      </trkpt>
      <trkpt lat="44.81138" lon="6.96844">
        <ele>1856.1</ele>
        <time>2022-02-25T14:56:48Z</time>
      </trkpt>
      <trkpt lat="44.81138" lon="6.96844">
        <ele>1856.1</ele>
        <time>2022-02-25T14:56:49Z</time>
      </trkpt>
      <trkpt lat="44.81138" lon="6.96844">
        <ele>1856.1</ele>
        <time>2022-02-25T14:56:50Z</time>
      </trkpt>
      <trkpt lat="44.81138" lon="6.96844">
        <ele>1856.1</ele>
        <time>2022-02-25T14:56:51Z</time>
      </trkpt>
      <trkpt lat="44.81138" lon="6.96844">
        <ele>1856.1</ele>
        <time>2022-02-25T14:56:52Z</time>
      </trkpt>
      <trkpt lat="44.81138" lon="6.96844">
        <ele>1856.1</ele>
        <time>2022-02-25T14:56:53Z</time>
      </trkpt>
      <trkpt lat="44.81138" lon="6.96844">
        <ele>1856.1</ele>
        <time>2022-02-25T14:56:54Z</time>
      </trkpt>
      <trkpt lat="44.81138" lon="6.96844">
        <ele>1856.1</ele>
        <time>2022-02-25T14:56:55Z</time>
      </trkpt>
      <trkpt lat="44.81138" lon="6.96844">
        <ele>1856.1</ele>
        <time>2022-02-25T14:56:56Z</time>
      </trkpt>
      <trkpt lat="44.81138" lon="6.96844">
        <ele>1856.1</ele>
        <time>2022-02-25T14:56:57Z</time>
      </trkpt>
      <trkpt lat="44.81138" lon="6.96844">
        <ele>1856.1</ele>
        <time>2022-02-25T14:56:58Z</time>
      </trkpt>
      <trkpt lat="44.81138" lon="6.96844">
        <ele>1856.1</ele>
        <time>2022-02-25T14:56:59Z</time>
      </trkpt>
      <trkpt lat="44.81138" lon="6.96844">
        <ele>1856.1</ele>
        <time>2022-02-25T14:57:00Z</time>
      </trkpt>
      <trkpt lat="44.81138" lon="6.96844">
        <ele>1856.1</ele>
        <time>2022-02-25T14:57:01Z</time>
      </trkpt>
      <trkpt lat="44.81138" lon="6.96844">
        <ele>1856.1</ele>
        <time>2022-02-25T14:57:02Z</time>
      </trkpt>
      <trkpt lat="44.81138" lon="6.96844">
        <ele>1856.1</ele>
        <time>2022-02-25T14:57:03Z</time>
      </trkpt>
      <trkpt lat="44.81138" lon="6.96844">
        <ele>1856.1</ele>
        <time>2022-02-25T14:57:04Z</time>
      </trkpt>
      <trkpt lat="44.81138" lon="6.96844">
        <ele>1856.1</ele>
        <time>2022-02-25T14:57:05Z</time>
      </trkpt>
      <trkpt lat="44.81138" lon="6.96844">
        <ele>1856.1</ele>
        <time>2022-02-25T14:57:06Z</time>
      </trkpt>
      <trkpt lat="44.81138" lon="6.96844">
        <ele>1856.1</ele>
        <time>2022-02-25T14:57:07Z</time>
      </trkpt>
      <trkpt lat="44.81138" lon="6.96844">
        <ele>1856.1</ele>
        <time>2022-02-25T14:57:08Z</time>
      </trkpt>
      <trkpt lat="44.81138" lon="6.96844">
        <ele>1856.1</ele>
        <time>2022-02-25T14:57:09Z</time>
      </trkpt>
      <trkpt lat="44.81138" lon="6.96844">
        <ele>1856.1</ele>
        <time>2022-02-25T14:57:10Z</time>
      </trkpt>
      <trkpt lat="44.81138" lon="6.96844">
        <ele>1856.1</ele>
        <time>2022-02-25T14:57:11Z</time>
      </trkpt>
      <trkpt lat="44.81138" lon="6.96844">
        <ele>1856.1</ele>
        <time>2022-02-25T14:57:12Z</time>
      </trkpt>
      <trkpt lat="44.81138" lon="6.96844">
        <ele>1856.1</ele>
        <time>2022-02-25T14:57:13Z</time>
      </trkpt>
      <trkpt lat="44.81138" lon="6.96844">
        <ele>1856.1</ele>
        <time>2022-02-25T14:57:14Z</time>
      </trkpt>
      <trkpt lat="44.81138" lon="6.96844">
        <ele>1856.1</ele>
        <time>2022-02-25T14:57:15Z</time>
      </trkpt>
      <trkpt lat="44.81138" lon="6.96844">
        <ele>1856.1</ele>
        <time>2022-02-25T14:57:16Z</time>
      </trkpt>
      <trkpt lat="44.81138" lon="6.96844">
        <ele>1856.1</ele>
        <time>2022-02-25T14:57:17Z</time>
      </trkpt>
      <trkpt lat="44.81138" lon="6.96844">
        <ele>1856.1</ele>
        <time>2022-02-25T14:57:18Z</time>
      </trkpt>
      <trkpt lat="44.81138" lon="6.96844">
        <ele>1856.1</ele>
        <time>2022-02-25T14:57:19Z</time>
      </trkpt>
      <trkpt lat="44.81138" lon="6.96844">
        <ele>1856.1</ele>
        <time>2022-02-25T14:57:20Z</time>
      </trkpt>
      <trkpt lat="44.81138" lon="6.96844">
        <ele>1856.1</ele>
        <time>2022-02-25T14:57:21Z</time>
      </trkpt>
      <trkpt lat="44.81138" lon="6.96844">
        <ele>1856.1</ele>
        <time>2022-02-25T14:57:22Z</time>
      </trkpt>
      <trkpt lat="44.81138" lon="6.96844">
        <ele>1856.1</ele>
        <time>2022-02-25T14:57:23Z</time>
      </trkpt>
      <trkpt lat="44.81138" lon="6.96844">
        <ele>1856.1</ele>
        <time>2022-02-25T14:57:24Z</time>
      </trkpt>
      <trkpt lat="44.81138" lon="6.96844">
        <ele>1856.1</ele>
        <time>2022-02-25T14:57:25Z</time>
      </trkpt>
      <trkpt lat="44.81138" lon="6.96844">
        <ele>1856.1</ele>
        <time>2022-02-25T14:57:26Z</time>
      </trkpt>
      <trkpt lat="44.81138" lon="6.96844">
        <ele>1856.1</ele>
        <time>2022-02-25T14:57:27Z</time>
      </trkpt>
      <trkpt lat="44.81138" lon="6.96844">
        <ele>1856.1</ele>
        <time>2022-02-25T14:57:28Z</time>
      </trkpt>
      <trkpt lat="44.81138" lon="6.96844">
        <ele>1856.1</ele>
        <time>2022-02-25T14:57:29Z</time>
      </trkpt>
      <trkpt lat="44.81138" lon="6.96844">
        <ele>1856.1</ele>
        <time>2022-02-25T14:57:30Z</time>
      </trkpt>
      <trkpt lat="44.81138" lon="6.96844">
        <ele>1856.1</ele>
        <time>2022-02-25T14:57:31Z</time>
      </trkpt>
      <trkpt lat="44.81138" lon="6.96844">
        <ele>1856.1</ele>
        <time>2022-02-25T14:57:32Z</time>
      </trkpt>
      <trkpt lat="44.81138" lon="6.96844">
        <ele>1856.1</ele>
        <time>2022-02-25T14:57:33Z</time>
      </trkpt>
      <trkpt lat="44.81138" lon="6.96844">
        <ele>1856.1</ele>
        <time>2022-02-25T14:57:34Z</time>
      </trkpt>
      <trkpt lat="44.81138" lon="6.96844">
        <ele>1856.1</ele>
        <time>2022-02-25T14:57:35Z</time>
      </trkpt>
      <trkpt lat="44.81138" lon="6.96844">
        <ele>1856.1</ele>
        <time>2022-02-25T14:57:36Z</time>
      </trkpt>
      <trkpt lat="44.81138" lon="6.96844">
        <ele>1856.1</ele>
        <time>2022-02-25T14:57:37Z</time>
      </trkpt>
      <trkpt lat="44.81138" lon="6.96844">
        <ele>1856.1</ele>
        <time>2022-02-25T14:57:38Z</time>
      </trkpt>
      <trkpt lat="44.81138" lon="6.96844">
        <ele>1856.1</ele>
        <time>2022-02-25T14:57:39Z</time>
      </trkpt>
      <trkpt lat="44.81138" lon="6.96844">
        <ele>1856.1</ele>
        <time>2022-02-25T14:57:40Z</time>
      </trkpt>
      <trkpt lat="44.81138" lon="6.96844">
        <ele>1856.1</ele>
        <time>2022-02-25T14:57:41Z</time>
      </trkpt>
      <trkpt lat="44.81138" lon="6.96844">
        <ele>1856.1</ele>
        <time>2022-02-25T14:57:42Z</time>
      </trkpt>
      <trkpt lat="44.81138" lon="6.96844">
        <ele>1856.1</ele>
        <time>2022-02-25T14:57:43Z</time>
      </trkpt>
      <trkpt lat="44.81138" lon="6.96844">
        <ele>1856.1</ele>
        <time>2022-02-25T14:57:44Z</time>
      </trkpt>
      <trkpt lat="44.81138" lon="6.96844">
        <ele>1856.1</ele>
        <time>2022-02-25T14:57:45Z</time>
      </trkpt>
      <trkpt lat="44.81138" lon="6.96844">
        <ele>1856.1</ele>
        <time>2022-02-25T14:57:46Z</time>
      </trkpt>
      <trkpt lat="44.81138" lon="6.96844">
        <ele>1856.1</ele>
        <time>2022-02-25T14:57:47Z</time>
      </trkpt>
      <trkpt lat="44.81138" lon="6.96844">
        <ele>1856.1</ele>
        <time>2022-02-25T14:57:48Z</time>
      </trkpt>
      <trkpt lat="44.81138" lon="6.96844">
        <ele>1856.1</ele>
        <time>2022-02-25T14:57:49Z</time>
      </trkpt>
      <trkpt lat="44.81138" lon="6.96844">
        <ele>1856.1</ele>
        <time>2022-02-25T14:57:50Z</time>
      </trkpt>
      <trkpt lat="44.81138" lon="6.96844">
        <ele>1856.1</ele>
        <time>2022-02-25T14:57:51Z</time>
      </trkpt>
      <trkpt lat="44.81138" lon="6.96844">
        <ele>1856.1</ele>
        <time>2022-02-25T14:57:52Z</time>
      </trkpt>
      <trkpt lat="44.81138" lon="6.96844">
        <ele>1856.1</ele>
        <time>2022-02-25T14:57:53Z</time>
      </trkpt>
      <trkpt lat="44.81138" lon="6.96844">
        <ele>1856.1</ele>
        <time>2022-02-25T14:57:54Z</time>
      </trkpt>
      <trkpt lat="44.81138" lon="6.96844">
        <ele>1856.1</ele>
        <time>2022-02-25T14:57:55Z</time>
      </trkpt>
      <trkpt lat="44.81138" lon="6.96844">
        <ele>1856.1</ele>
        <time>2022-02-25T14:57:56Z</time>
      </trkpt>
      <trkpt lat="44.81138" lon="6.96844">
        <ele>1856.1</ele>
        <time>2022-02-25T14:57:57Z</time>
      </trkpt>
      <trkpt lat="44.81138" lon="6.96844">
        <ele>1856.1</ele>
        <time>2022-02-25T14:57:58Z</time>
      </trkpt>
      <trkpt lat="44.81138" lon="6.96844">
        <ele>1856.1</ele>
        <time>2022-02-25T14:57:59Z</time>
      </trkpt>
      <trkpt lat="44.81138" lon="6.96844">
        <ele>1856.1</ele>
        <time>2022-02-25T14:58:00Z</time>
      </trkpt>
      <trkpt lat="44.81138" lon="6.96844">
        <ele>1856.1</ele>
        <time>2022-02-25T14:58:01Z</time>
      </trkpt>
      <trkpt lat="44.81138" lon="6.96844">
        <ele>1856.1</ele>
        <time>2022-02-25T14:58:02Z</time>
      </trkpt>
      <trkpt lat="44.81138" lon="6.96844">
        <ele>1856.1</ele>
        <time>2022-02-25T14:58:03Z</time>
      </trkpt>
      <trkpt lat="44.81138" lon="6.96844">
        <ele>1856.1</ele>
        <time>2022-02-25T14:58:04Z</time>
      </trkpt>
      <trkpt lat="44.81138" lon="6.96844">
        <ele>1856.1</ele>
        <time>2022-02-25T14:58:05Z</time>
      </trkpt>
      <trkpt lat="44.81138" lon="6.96844">
        <ele>1856.1</ele>
        <time>2022-02-25T14:58:06Z</time>
      </trkpt>
      <trkpt lat="44.81138" lon="6.96844">
        <ele>1856.1</ele>
        <time>2022-02-25T14:58:07Z</time>
      </trkpt>
      <trkpt lat="44.81138" lon="6.96844">
        <ele>1856.1</ele>
        <time>2022-02-25T14:58:08Z</time>
      </trkpt>
      <trkpt lat="44.81138" lon="6.96844">
        <ele>1856.1</ele>
        <time>2022-02-25T14:58:09Z</time>
      </trkpt>
      <trkpt lat="44.81138" lon="6.96844">
        <ele>1856.1</ele>
        <time>2022-02-25T14:58:10Z</time>
      </trkpt>
      <trkpt lat="44.81138" lon="6.96844">
        <ele>1856.1</ele>
        <time>2022-02-25T14:58:11Z</time>
      </trkpt>
      <trkpt lat="44.81138" lon="6.96844">
        <ele>1856.1</ele>
        <time>2022-02-25T14:58:12Z</time>
      </trkpt>
      <trkpt lat="44.81138" lon="6.96844">
        <ele>1856.1</ele>
        <time>2022-02-25T14:58:13Z</time>
      </trkpt>
      <trkpt lat="44.81138" lon="6.96844">
        <ele>1856.1</ele>
        <time>2022-02-25T14:58:14Z</time>
      </trkpt>
      <trkpt lat="44.81138" lon="6.96844">
        <ele>1856.1</ele>
        <time>2022-02-25T14:58:15Z</time>
      </trkpt>
      <trkpt lat="44.81138" lon="6.96844">
        <ele>1856.1</ele>
        <time>2022-02-25T14:58:16Z</time>
      </trkpt>
      <trkpt lat="44.81138" lon="6.96844">
        <ele>1856.1</ele>
        <time>2022-02-25T14:58:17Z</time>
      </trkpt>
      <trkpt lat="44.81138" lon="6.96844">
        <ele>1856.1</ele>
        <time>2022-02-25T14:58:18Z</time>
      </trkpt>
      <trkpt lat="44.81138" lon="6.96844">
        <ele>1856.1</ele>
        <time>2022-02-25T14:58:19Z</time>
      </trkpt>
      <trkpt lat="44.81138" lon="6.96844">
        <ele>1856.1</ele>
        <time>2022-02-25T14:58:20Z</time>
      </trkpt>
      <trkpt lat="44.81138" lon="6.96844">
        <ele>1856.1</ele>
        <time>2022-02-25T14:58:21Z</time>
      </trkpt>
      <trkpt lat="44.81138" lon="6.96844">
        <ele>1856.1</ele>
        <time>2022-02-25T14:58:22Z</time>
      </trkpt>
      <trkpt lat="44.81138" lon="6.96844">
        <ele>1856.1</ele>
        <time>2022-02-25T14:58:23Z</time>
      </trkpt>
      <trkpt lat="44.81138" lon="6.96844">
        <ele>1856.1</ele>
        <time>2022-02-25T14:58:24Z</time>
      </trkpt>
      <trkpt lat="44.81136" lon="6.96841">
        <ele>1856.4</ele>
        <time>2022-02-25T14:58:25Z</time>
      </trkpt>
      <trkpt lat="44.81136" lon="6.96841">
        <ele>1856.4</ele>
        <time>2022-02-25T14:58:26Z</time>
      </trkpt>
      <trkpt lat="44.81136" lon="6.96841">
        <ele>1856.4</ele>
        <time>2022-02-25T14:58:27Z</time>
      </trkpt>
      <trkpt lat="44.81136" lon="6.96841">
        <ele>1856.4</ele>
        <time>2022-02-25T14:58:28Z</time>
      </trkpt>
      <trkpt lat="44.81136" lon="6.96841">
        <ele>1856.4</ele>
        <time>2022-02-25T14:58:29Z</time>
      </trkpt>
      <trkpt lat="44.81136" lon="6.96841">
        <ele>1856.4</ele>
        <time>2022-02-25T14:58:30Z</time>
      </trkpt>
      <trkpt lat="44.81136" lon="6.96841">
        <ele>1856.4</ele>
        <time>2022-02-25T14:58:31Z</time>
      </trkpt>
      <trkpt lat="44.81136" lon="6.96841">
        <ele>1856.4</ele>
        <time>2022-02-25T14:58:32Z</time>
      </trkpt>
      <trkpt lat="44.81136" lon="6.96841">
        <ele>1856.4</ele>
        <time>2022-02-25T14:58:33Z</time>
      </trkpt>
      <trkpt lat="44.81136" lon="6.9684">
        <ele>1856.4</ele>
        <time>2022-02-25T14:58:34Z</time>
      </trkpt>
      <trkpt lat="44.81136" lon="6.9684">
        <ele>1856.4</ele>
        <time>2022-02-25T14:58:35Z</time>
      </trkpt>
      <trkpt lat="44.81136" lon="6.9684">
        <ele>1856.4</ele>
        <time>2022-02-25T14:58:36Z</time>
      </trkpt>
      <trkpt lat="44.81136" lon="6.9684">
        <ele>1856.4</ele>
        <time>2022-02-25T14:58:37Z</time>
      </trkpt>
      <trkpt lat="44.81136" lon="6.9684">
        <ele>1856.4</ele>
        <time>2022-02-25T14:58:38Z</time>
      </trkpt>
      <trkpt lat="44.81136" lon="6.9684">
        <ele>1856.4</ele>
        <time>2022-02-25T14:58:39Z</time>
      </trkpt>
      <trkpt lat="44.81136" lon="6.9684">
        <ele>1856.4</ele>
        <time>2022-02-25T14:58:40Z</time>
      </trkpt>
      <trkpt lat="44.81136" lon="6.9684">
        <ele>1856.4</ele>
        <time>2022-02-25T14:58:41Z</time>
      </trkpt>
      <trkpt lat="44.81136" lon="6.9684">
        <ele>1856.4</ele>
        <time>2022-02-25T14:58:42Z</time>
      </trkpt>
      <trkpt lat="44.81136" lon="6.9684">
        <ele>1856.4</ele>
        <time>2022-02-25T14:58:43Z</time>
      </trkpt>
      <trkpt lat="44.81136" lon="6.9684">
        <ele>1856.4</ele>
        <time>2022-02-25T14:58:44Z</time>
      </trkpt>
      <trkpt lat="44.81136" lon="6.9684">
        <ele>1856.4</ele>
        <time>2022-02-25T14:58:45Z</time>
      </trkpt>
      <trkpt lat="44.81136" lon="6.9684">
        <ele>1856.4</ele>
        <time>2022-02-25T14:58:46Z</time>
      </trkpt>
      <trkpt lat="44.81136" lon="6.96839">
        <ele>1856.4</ele>
        <time>2022-02-25T14:58:47Z</time>
      </trkpt>
      <trkpt lat="44.81136" lon="6.96839">
        <ele>1856.4</ele>
        <time>2022-02-25T14:58:48Z</time>
      </trkpt>
      <trkpt lat="44.81136" lon="6.96839">
        <ele>1856.4</ele>
        <time>2022-02-25T14:58:49Z</time>
      </trkpt>
      <trkpt lat="44.81136" lon="6.96839">
        <ele>1856.4</ele>
        <time>2022-02-25T14:58:50Z</time>
      </trkpt>
      <trkpt lat="44.81136" lon="6.96839">
        <ele>1856.4</ele>
        <time>2022-02-25T14:58:51Z</time>
      </trkpt>
      <trkpt lat="44.81136" lon="6.96839">
        <ele>1856.4</ele>
        <time>2022-02-25T14:58:52Z</time>
      </trkpt>
      <trkpt lat="44.81136" lon="6.96839">
        <ele>1856.4</ele>
        <time>2022-02-25T14:58:53Z</time>
      </trkpt>
      <trkpt lat="44.81136" lon="6.96839">
        <ele>1856.4</ele>
        <time>2022-02-25T14:58:54Z</time>
      </trkpt>
      <trkpt lat="44.81136" lon="6.96839">
        <ele>1856.4</ele>
        <time>2022-02-25T14:58:55Z</time>
      </trkpt>
      <trkpt lat="44.81136" lon="6.96839">
        <ele>1856.4</ele>
        <time>2022-02-25T14:58:56Z</time>
      </trkpt>
      <trkpt lat="44.81136" lon="6.96839">
        <ele>1856.4</ele>
        <time>2022-02-25T14:58:57Z</time>
      </trkpt>
      <trkpt lat="44.81136" lon="6.96839">
        <ele>1856.4</ele>
        <time>2022-02-25T14:58:58Z</time>
      </trkpt>
      <trkpt lat="44.81135" lon="6.96839">
        <ele>1856.5</ele>
        <time>2022-02-25T14:58:59Z</time>
      </trkpt>
      <trkpt lat="44.81135" lon="6.96838">
        <ele>1856.5</ele>
        <time>2022-02-25T14:59:00Z</time>
      </trkpt>
      <trkpt lat="44.81135" lon="6.96838">
        <ele>1856.5</ele>
        <time>2022-02-25T14:59:01Z</time>
      </trkpt>
      <trkpt lat="44.81135" lon="6.96838">
        <ele>1856.5</ele>
        <time>2022-02-25T14:59:02Z</time>
      </trkpt>
      <trkpt lat="44.81135" lon="6.96838">
        <ele>1856.5</ele>
        <time>2022-02-25T14:59:03Z</time>
      </trkpt>
      <trkpt lat="44.81135" lon="6.96838">
        <ele>1856.5</ele>
        <time>2022-02-25T14:59:04Z</time>
      </trkpt>
      <trkpt lat="44.81135" lon="6.96838">
        <ele>1856.5</ele>
        <time>2022-02-25T14:59:05Z</time>
      </trkpt>
      <trkpt lat="44.81135" lon="6.96838">
        <ele>1856.5</ele>
        <time>2022-02-25T14:59:06Z</time>
      </trkpt>
      <trkpt lat="44.81135" lon="6.96838">
        <ele>1856.5</ele>
        <time>2022-02-25T14:59:07Z</time>
      </trkpt>
      <trkpt lat="44.81135" lon="6.96838">
        <ele>1856.5</ele>
        <time>2022-02-25T14:59:08Z</time>
      </trkpt>
      <trkpt lat="44.81135" lon="6.96838">
        <ele>1856.5</ele>
        <time>2022-02-25T14:59:09Z</time>
      </trkpt>
      <trkpt lat="44.81135" lon="6.96838">
        <ele>1856.5</ele>
        <time>2022-02-25T14:59:10Z</time>
      </trkpt>
      <trkpt lat="44.81135" lon="6.96838">
        <ele>1856.5</ele>
        <time>2022-02-25T14:59:11Z</time>
      </trkpt>
      <trkpt lat="44.81135" lon="6.96838">
        <ele>1856.5</ele>
        <time>2022-02-25T14:59:12Z</time>
      </trkpt>
      <trkpt lat="44.81135" lon="6.96837">
        <ele>1856.5</ele>
        <time>2022-02-25T14:59:13Z</time>
      </trkpt>
      <trkpt lat="44.81135" lon="6.96837">
        <ele>1856.5</ele>
        <time>2022-02-25T14:59:14Z</time>
      </trkpt>
      <trkpt lat="44.81135" lon="6.96837">
        <ele>1856.5</ele>
        <time>2022-02-25T14:59:15Z</time>
      </trkpt>
      <trkpt lat="44.81135" lon="6.96837">
        <ele>1856.5</ele>
        <time>2022-02-25T14:59:16Z</time>
      </trkpt>
      <trkpt lat="44.81135" lon="6.96837">
        <ele>1856.5</ele>
        <time>2022-02-25T14:59:17Z</time>
      </trkpt>
      <trkpt lat="44.81135" lon="6.96837">
        <ele>1856.5</ele>
        <time>2022-02-25T14:59:18Z</time>
      </trkpt>
      <trkpt lat="44.81135" lon="6.96837">
        <ele>1856.5</ele>
        <time>2022-02-25T14:59:19Z</time>
      </trkpt>
      <trkpt lat="44.81135" lon="6.96837">
        <ele>1856.5</ele>
        <time>2022-02-25T14:59:20Z</time>
      </trkpt>
      <trkpt lat="44.81135" lon="6.96837">
        <ele>1856.5</ele>
        <time>2022-02-25T14:59:21Z</time>
      </trkpt>
      <trkpt lat="44.81135" lon="6.96837">
        <ele>1856.5</ele>
        <time>2022-02-25T14:59:22Z</time>
      </trkpt>
      <trkpt lat="44.81135" lon="6.96837">
        <ele>1856.5</ele>
        <time>2022-02-25T14:59:23Z</time>
      </trkpt>
      <trkpt lat="44.81135" lon="6.96837">
        <ele>1856.5</ele>
        <time>2022-02-25T14:59:24Z</time>
      </trkpt>
      <trkpt lat="44.81135" lon="6.96837">
        <ele>1856.5</ele>
        <time>2022-02-25T14:59:25Z</time>
      </trkpt>
      <trkpt lat="44.81135" lon="6.96836">
        <ele>1856.5</ele>
        <time>2022-02-25T14:59:26Z</time>
      </trkpt>
      <trkpt lat="44.81135" lon="6.96836">
        <ele>1856.5</ele>
        <time>2022-02-25T14:59:27Z</time>
      </trkpt>
      <trkpt lat="44.81135" lon="6.96836">
        <ele>1856.5</ele>
        <time>2022-02-25T14:59:28Z</time>
      </trkpt>
      <trkpt lat="44.81135" lon="6.96836">
        <ele>1856.5</ele>
        <time>2022-02-25T14:59:29Z</time>
      </trkpt>
      <trkpt lat="44.81135" lon="6.96836">
        <ele>1856.5</ele>
        <time>2022-02-25T14:59:30Z</time>
      </trkpt>
      <trkpt lat="44.81135" lon="6.96836">
        <ele>1856.5</ele>
        <time>2022-02-25T14:59:31Z</time>
      </trkpt>
      <trkpt lat="44.81135" lon="6.96836">
        <ele>1856.5</ele>
        <time>2022-02-25T14:59:32Z</time>
      </trkpt>
      <trkpt lat="44.81135" lon="6.96836">
        <ele>1856.5</ele>
        <time>2022-02-25T14:59:33Z</time>
      </trkpt>
      <trkpt lat="44.81135" lon="6.96836">
        <ele>1856.5</ele>
        <time>2022-02-25T14:59:34Z</time>
      </trkpt>
      <trkpt lat="44.81135" lon="6.96836">
        <ele>1856.5</ele>
        <time>2022-02-25T14:59:35Z</time>
      </trkpt>
      <trkpt lat="44.81135" lon="6.96836">
        <ele>1856.5</ele>
        <time>2022-02-25T14:59:36Z</time>
      </trkpt>
      <trkpt lat="44.81135" lon="6.96836">
        <ele>1856.5</ele>
        <time>2022-02-25T14:59:37Z</time>
      </trkpt>
      <trkpt lat="44.81135" lon="6.96836">
        <ele>1856.5</ele>
        <time>2022-02-25T14:59:38Z</time>
      </trkpt>
      <trkpt lat="44.81135" lon="6.96835">
        <ele>1856.6</ele>
        <time>2022-02-25T14:59:39Z</time>
      </trkpt>
      <trkpt lat="44.81135" lon="6.96835">
        <ele>1856.6</ele>
        <time>2022-02-25T14:59:40Z</time>
      </trkpt>
      <trkpt lat="44.81135" lon="6.96835">
        <ele>1856.6</ele>
        <time>2022-02-25T14:59:41Z</time>
      </trkpt>
      <trkpt lat="44.81135" lon="6.96835">
        <ele>1856.6</ele>
        <time>2022-02-25T14:59:42Z</time>
      </trkpt>
      <trkpt lat="44.81135" lon="6.96835">
        <ele>1856.6</ele>
        <time>2022-02-25T14:59:43Z</time>
      </trkpt>
      <trkpt lat="44.81135" lon="6.96835">
        <ele>1856.6</ele>
        <time>2022-02-25T14:59:44Z</time>
      </trkpt>
      <trkpt lat="44.81135" lon="6.96835">
        <ele>1856.6</ele>
        <time>2022-02-25T14:59:45Z</time>
      </trkpt>
      <trkpt lat="44.81135" lon="6.96835">
        <ele>1856.6</ele>
        <time>2022-02-25T14:59:46Z</time>
      </trkpt>
      <trkpt lat="44.81135" lon="6.96835">
        <ele>1856.6</ele>
        <time>2022-02-25T14:59:47Z</time>
      </trkpt>
      <trkpt lat="44.81135" lon="6.96835">
        <ele>1856.6</ele>
        <time>2022-02-25T14:59:48Z</time>
      </trkpt>
      <trkpt lat="44.81135" lon="6.96835">
        <ele>1856.6</ele>
        <time>2022-02-25T14:59:49Z</time>
      </trkpt>
      <trkpt lat="44.81135" lon="6.96835">
        <ele>1856.6</ele>
        <time>2022-02-25T14:59:50Z</time>
      </trkpt>
      <trkpt lat="44.81135" lon="6.96835">
        <ele>1856.6</ele>
        <time>2022-02-25T14:59:51Z</time>
      </trkpt>
      <trkpt lat="44.81135" lon="6.96834">
        <ele>1856.6</ele>
        <time>2022-02-25T14:59:52Z</time>
      </trkpt>
      <trkpt lat="44.81135" lon="6.96834">
        <ele>1856.6</ele>
        <time>2022-02-25T14:59:53Z</time>
      </trkpt>
      <trkpt lat="44.81135" lon="6.96834">
        <ele>1856.6</ele>
        <time>2022-02-25T14:59:54Z</time>
      </trkpt>
      <trkpt lat="44.81135" lon="6.96834">
        <ele>1856.6</ele>
        <time>2022-02-25T14:59:55Z</time>
      </trkpt>
      <trkpt lat="44.81134" lon="6.96834">
        <ele>1856.7</ele>
        <time>2022-02-25T14:59:56Z</time>
      </trkpt>
      <trkpt lat="44.81134" lon="6.96834">
        <ele>1856.7</ele>
        <time>2022-02-25T14:59:57Z</time>
      </trkpt>
      <trkpt lat="44.81134" lon="6.96834">
        <ele>1856.7</ele>
        <time>2022-02-25T14:59:58Z</time>
      </trkpt>
      <trkpt lat="44.81134" lon="6.96834">
        <ele>1856.7</ele>
        <time>2022-02-25T14:59:59Z</time>
      </trkpt>
      <trkpt lat="44.81134" lon="6.96834">
        <ele>1856.7</ele>
        <time>2022-02-25T15:00:00Z</time>
      </trkpt>
      <trkpt lat="44.81134" lon="6.96834">
        <ele>1856.7</ele>
        <time>2022-02-25T15:00:01Z</time>
      </trkpt>
      <trkpt lat="44.81134" lon="6.96834">
        <ele>1856.7</ele>
        <time>2022-02-25T15:00:02Z</time>
      </trkpt>
      <trkpt lat="44.81134" lon="6.96834">
        <ele>1856.7</ele>
        <time>2022-02-25T15:00:03Z</time>
      </trkpt>
      <trkpt lat="44.81134" lon="6.96834">
        <ele>1856.7</ele>
        <time>2022-02-25T15:00:04Z</time>
      </trkpt>
      <trkpt lat="44.81134" lon="6.96833">
        <ele>1856.7</ele>
        <time>2022-02-25T15:00:05Z</time>
      </trkpt>
      <trkpt lat="44.81134" lon="6.96833">
        <ele>1856.7</ele>
        <time>2022-02-25T15:00:06Z</time>
      </trkpt>
      <trkpt lat="44.81134" lon="6.96833">
        <ele>1856.7</ele>
        <time>2022-02-25T15:00:07Z</time>
      </trkpt>
      <trkpt lat="44.81134" lon="6.96833">
        <ele>1856.7</ele>
        <time>2022-02-25T15:00:08Z</time>
      </trkpt>
      <trkpt lat="44.81134" lon="6.96833">
        <ele>1856.7</ele>
        <time>2022-02-25T15:00:09Z</time>
      </trkpt>
      <trkpt lat="44.81134" lon="6.96833">
        <ele>1856.7</ele>
        <time>2022-02-25T15:00:10Z</time>
      </trkpt>
      <trkpt lat="44.81134" lon="6.96833">
        <ele>1856.7</ele>
        <time>2022-02-25T15:00:11Z</time>
      </trkpt>
      <trkpt lat="44.81134" lon="6.96833">
        <ele>1856.7</ele>
        <time>2022-02-25T15:00:12Z</time>
      </trkpt>
      <trkpt lat="44.81134" lon="6.96833">
        <ele>1856.7</ele>
        <time>2022-02-25T15:00:13Z</time>
      </trkpt>
      <trkpt lat="44.81134" lon="6.96833">
        <ele>1856.7</ele>
        <time>2022-02-25T15:00:14Z</time>
      </trkpt>
      <trkpt lat="44.81134" lon="6.96833">
        <ele>1856.7</ele>
        <time>2022-02-25T15:00:15Z</time>
      </trkpt>
      <trkpt lat="44.81134" lon="6.96833">
        <ele>1856.7</ele>
        <time>2022-02-25T15:00:16Z</time>
      </trkpt>
      <trkpt lat="44.81134" lon="6.96833">
        <ele>1856.7</ele>
        <time>2022-02-25T15:00:17Z</time>
      </trkpt>
      <trkpt lat="44.81134" lon="6.96832">
        <ele>1856.7</ele>
        <time>2022-02-25T15:00:18Z</time>
      </trkpt>
      <trkpt lat="44.81134" lon="6.96832">
        <ele>1856.7</ele>
        <time>2022-02-25T15:00:19Z</time>
      </trkpt>
      <trkpt lat="44.81134" lon="6.96832">
        <ele>1856.7</ele>
        <time>2022-02-25T15:00:20Z</time>
      </trkpt>
      <trkpt lat="44.81134" lon="6.96832">
        <ele>1856.7</ele>
        <time>2022-02-25T15:00:21Z</time>
      </trkpt>
      <trkpt lat="44.81134" lon="6.96832">
        <ele>1856.7</ele>
        <time>2022-02-25T15:00:22Z</time>
      </trkpt>
      <trkpt lat="44.81134" lon="6.96832">
        <ele>1856.7</ele>
        <time>2022-02-25T15:00:23Z</time>
      </trkpt>
      <trkpt lat="44.81134" lon="6.96832">
        <ele>1856.7</ele>
        <time>2022-02-25T15:00:24Z</time>
      </trkpt>
      <trkpt lat="44.81134" lon="6.96832">
        <ele>1856.7</ele>
        <time>2022-02-25T15:00:25Z</time>
      </trkpt>
      <trkpt lat="44.81134" lon="6.96832">
        <ele>1856.7</ele>
        <time>2022-02-25T15:00:26Z</time>
      </trkpt>
      <trkpt lat="44.81134" lon="6.96832">
        <ele>1856.7</ele>
        <time>2022-02-25T15:00:27Z</time>
      </trkpt>
      <trkpt lat="44.81134" lon="6.96832">
        <ele>1856.7</ele>
        <time>2022-02-25T15:00:28Z</time>
      </trkpt>
      <trkpt lat="44.81134" lon="6.96832">
        <ele>1856.7</ele>
        <time>2022-02-25T15:00:29Z</time>
      </trkpt>
      <trkpt lat="44.81134" lon="6.96832">
        <ele>1856.7</ele>
        <time>2022-02-25T15:00:30Z</time>
      </trkpt>
      <trkpt lat="44.81134" lon="6.96831">
        <ele>1856.7</ele>
        <time>2022-02-25T15:00:31Z</time>
      </trkpt>
      <trkpt lat="44.81134" lon="6.96831">
        <ele>1856.7</ele>
        <time>2022-02-25T15:00:32Z</time>
      </trkpt>
      <trkpt lat="44.81134" lon="6.96831">
        <ele>1856.7</ele>
        <time>2022-02-25T15:00:33Z</time>
      </trkpt>
      <trkpt lat="44.81134" lon="6.96831">
        <ele>1856.7</ele>
        <time>2022-02-25T15:00:34Z</time>
      </trkpt>
      <trkpt lat="44.81134" lon="6.96828">
        <ele>1856.7</ele>
        <time>2022-02-25T15:00:35Z</time>
      </trkpt>
      <trkpt lat="44.81134" lon="6.96828">
        <ele>1856.7</ele>
        <time>2022-02-25T15:00:36Z</time>
      </trkpt>
      <trkpt lat="44.81136" lon="6.96825">
        <ele>1856.4</ele>
        <time>2022-02-25T15:00:37Z</time>
      </trkpt>
      <trkpt lat="44.81136" lon="6.96825">
        <ele>1856.4</ele>
        <time>2022-02-25T15:00:38Z</time>
      </trkpt>
      <trkpt lat="44.81138" lon="6.96822">
        <ele>1856.1</ele>
        <time>2022-02-25T15:00:39Z</time>
      </trkpt>
      <trkpt lat="44.81138" lon="6.96822">
        <ele>1856.1</ele>
        <time>2022-02-25T15:00:40Z</time>
      </trkpt>
      <trkpt lat="44.8114" lon="6.96819">
        <ele>1855.9</ele>
        <time>2022-02-25T15:00:41Z</time>
      </trkpt>
      <trkpt lat="44.81141" lon="6.96817">
        <ele>1855.7</ele>
        <time>2022-02-25T15:00:42Z</time>
      </trkpt>
      <trkpt lat="44.81142" lon="6.96814">
        <ele>1855.6</ele>
        <time>2022-02-25T15:00:43Z</time>
      </trkpt>
      <trkpt lat="44.81145" lon="6.9681">
        <ele>1855.2</ele>
        <time>2022-02-25T15:00:44Z</time>
      </trkpt>
      <trkpt lat="44.81148" lon="6.96806">
        <ele>1854.7</ele>
        <time>2022-02-25T15:00:45Z</time>
      </trkpt>
      <trkpt lat="44.8115" lon="6.96801">
        <ele>1854.1</ele>
        <time>2022-02-25T15:00:46Z</time>
      </trkpt>
      <trkpt lat="44.81154" lon="6.96796">
        <ele>1853.3</ele>
        <time>2022-02-25T15:00:47Z</time>
      </trkpt>
      <trkpt lat="44.81158" lon="6.9679">
        <ele>1852.5</ele>
        <time>2022-02-25T15:00:48Z</time>
      </trkpt>
      <trkpt lat="44.81161" lon="6.96783">
        <ele>1851.8</ele>
        <time>2022-02-25T15:00:49Z</time>
      </trkpt>
      <trkpt lat="44.81164" lon="6.96775">
        <ele>1851.2</ele>
        <time>2022-02-25T15:00:50Z</time>
      </trkpt>
      <trkpt lat="44.81165" lon="6.96766">
        <ele>1850.8</ele>
        <time>2022-02-25T15:00:51Z</time>
      </trkpt>
      <trkpt lat="44.81166" lon="6.96759">
        <ele>1850.4</ele>
        <time>2022-02-25T15:00:52Z</time>
      </trkpt>
      <trkpt lat="44.81166" lon="6.96751">
        <ele>1850.1</ele>
        <time>2022-02-25T15:00:53Z</time>
      </trkpt>
      <trkpt lat="44.81167" lon="6.96744">
        <ele>1849.8</ele>
        <time>2022-02-25T15:00:54Z</time>
      </trkpt>
      <trkpt lat="44.81167" lon="6.96738">
        <ele>1849.6</ele>
        <time>2022-02-25T15:00:55Z</time>
      </trkpt>
      <trkpt lat="44.81166" lon="6.96731">
        <ele>1849.4</ele>
        <time>2022-02-25T15:00:56Z</time>
      </trkpt>
      <trkpt lat="44.81166" lon="6.96726">
        <ele>1849.2</ele>
        <time>2022-02-25T15:00:57Z</time>
      </trkpt>
      <trkpt lat="44.81165" lon="6.9672">
        <ele>1849</ele>
        <time>2022-02-25T15:00:58Z</time>
      </trkpt>
      <trkpt lat="44.81164" lon="6.96715">
        <ele>1848.9</ele>
        <time>2022-02-25T15:00:59Z</time>
      </trkpt>
      <trkpt lat="44.81162" lon="6.96709">
        <ele>1848.8</ele>
        <time>2022-02-25T15:01:00Z</time>
      </trkpt>
      <trkpt lat="44.81162" lon="6.96704">
        <ele>1848.6</ele>
        <time>2022-02-25T15:01:01Z</time>
      </trkpt>
      <trkpt lat="44.81163" lon="6.96699">
        <ele>1848.3</ele>
        <time>2022-02-25T15:01:02Z</time>
      </trkpt>
      <trkpt lat="44.81165" lon="6.96695">
        <ele>1848.1</ele>
        <time>2022-02-25T15:01:03Z</time>
      </trkpt>
      <trkpt lat="44.81168" lon="6.96691">
        <ele>1847.9</ele>
        <time>2022-02-25T15:01:04Z</time>
      </trkpt>
      <trkpt lat="44.81171" lon="6.96687">
        <ele>1848</ele>
        <time>2022-02-25T15:01:05Z</time>
      </trkpt>
      <trkpt lat="44.81175" lon="6.96685">
        <ele>1848.2</ele>
        <time>2022-02-25T15:01:06Z</time>
      </trkpt>
      <trkpt lat="44.81179" lon="6.96683">
        <ele>1848.4</ele>
        <time>2022-02-25T15:01:07Z</time>
      </trkpt>
      <trkpt lat="44.81184" lon="6.96682">
        <ele>1848.7</ele>
        <time>2022-02-25T15:01:08Z</time>
      </trkpt>
      <trkpt lat="44.81188" lon="6.96681">
        <ele>1849</ele>
        <time>2022-02-25T15:01:09Z</time>
      </trkpt>
      <trkpt lat="44.8119" lon="6.96679">
        <ele>1849.2</ele>
        <time>2022-02-25T15:01:10Z</time>
      </trkpt>
      <trkpt lat="44.81192" lon="6.96678">
        <ele>1849.4</ele>
        <time>2022-02-25T15:01:11Z</time>
      </trkpt>
      <trkpt lat="44.81192" lon="6.96678">
        <ele>1849.4</ele>
        <time>2022-02-25T15:01:12Z</time>
      </trkpt>
      <trkpt lat="44.81194" lon="6.96675">
        <ele>1849.7</ele>
        <time>2022-02-25T15:01:13Z</time>
      </trkpt>
      <trkpt lat="44.81194" lon="6.96675">
        <ele>1849.7</ele>
        <time>2022-02-25T15:01:14Z</time>
      </trkpt>
      <trkpt lat="44.81196" lon="6.96671">
        <ele>1850.4</ele>
        <time>2022-02-25T15:01:15Z</time>
      </trkpt>
      <trkpt lat="44.81196" lon="6.96671">
        <ele>1850.4</ele>
        <time>2022-02-25T15:01:16Z</time>
      </trkpt>
      <trkpt lat="44.81195" lon="6.96667">
        <ele>1850.2</ele>
        <time>2022-02-25T15:01:17Z</time>
      </trkpt>
      <trkpt lat="44.81195" lon="6.96664">
        <ele>1850.3</ele>
        <time>2022-02-25T15:01:18Z</time>
      </trkpt>
      <trkpt lat="44.81194" lon="6.96661">
        <ele>1850.2</ele>
        <time>2022-02-25T15:01:19Z</time>
      </trkpt>
      <trkpt lat="44.81194" lon="6.96658">
        <ele>1850.3</ele>
        <time>2022-02-25T15:01:20Z</time>
      </trkpt>
      <trkpt lat="44.81193" lon="6.96655">
        <ele>1850.2</ele>
        <time>2022-02-25T15:01:21Z</time>
      </trkpt>
      <trkpt lat="44.81193" lon="6.96655">
        <ele>1850.2</ele>
        <time>2022-02-25T15:01:22Z</time>
      </trkpt>
      <trkpt lat="44.81192" lon="6.9665">
        <ele>1850.3</ele>
        <time>2022-02-25T15:01:23Z</time>
      </trkpt>
      <trkpt lat="44.81192" lon="6.96647">
        <ele>1850.4</ele>
        <time>2022-02-25T15:01:24Z</time>
      </trkpt>
      <trkpt lat="44.81191" lon="6.96644">
        <ele>1850.3</ele>
        <time>2022-02-25T15:01:25Z</time>
      </trkpt>
      <trkpt lat="44.8119" lon="6.96642">
        <ele>1850.3</ele>
        <time>2022-02-25T15:01:26Z</time>
      </trkpt>
      <trkpt lat="44.8119" lon="6.96638">
        <ele>1850.4</ele>
        <time>2022-02-25T15:01:27Z</time>
      </trkpt>
      <trkpt lat="44.81189" lon="6.96635">
        <ele>1850.4</ele>
        <time>2022-02-25T15:01:28Z</time>
      </trkpt>
      <trkpt lat="44.81188" lon="6.96631">
        <ele>1850.4</ele>
        <time>2022-02-25T15:01:29Z</time>
      </trkpt>
      <trkpt lat="44.81188" lon="6.96629">
        <ele>1850.5</ele>
        <time>2022-02-25T15:01:30Z</time>
      </trkpt>
      <trkpt lat="44.81187" lon="6.96625">
        <ele>1850.5</ele>
        <time>2022-02-25T15:01:31Z</time>
      </trkpt>
      <trkpt lat="44.81186" lon="6.96621">
        <ele>1850.5</ele>
        <time>2022-02-25T15:01:32Z</time>
      </trkpt>
      <trkpt lat="44.81185" lon="6.96617">
        <ele>1850.4</ele>
        <time>2022-02-25T15:01:33Z</time>
      </trkpt>
      <trkpt lat="44.81184" lon="6.96613">
        <ele>1850.3</ele>
        <time>2022-02-25T15:01:34Z</time>
      </trkpt>
      <trkpt lat="44.81182" lon="6.96608">
        <ele>1850</ele>
        <time>2022-02-25T15:01:35Z</time>
      </trkpt>
      <trkpt lat="44.81181" lon="6.96604">
        <ele>1849.9</ele>
        <time>2022-02-25T15:01:36Z</time>
      </trkpt>
      <trkpt lat="44.8118" lon="6.96599">
        <ele>1849.8</ele>
        <time>2022-02-25T15:01:37Z</time>
      </trkpt>
      <trkpt lat="44.81179" lon="6.96593">
        <ele>1849.7</ele>
        <time>2022-02-25T15:01:38Z</time>
      </trkpt>
      <trkpt lat="44.81178" lon="6.96589">
        <ele>1849.5</ele>
        <time>2022-02-25T15:01:39Z</time>
      </trkpt>
      <trkpt lat="44.81176" lon="6.96584">
        <ele>1849</ele>
        <time>2022-02-25T15:01:40Z</time>
      </trkpt>
      <trkpt lat="44.81175" lon="6.96579">
        <ele>1848.8</ele>
        <time>2022-02-25T15:01:41Z</time>
      </trkpt>
      <trkpt lat="44.81174" lon="6.96575">
        <ele>1848.5</ele>
        <time>2022-02-25T15:01:42Z</time>
      </trkpt>
      <trkpt lat="44.81173" lon="6.96569">
        <ele>1848.3</ele>
        <time>2022-02-25T15:01:43Z</time>
      </trkpt>
      <trkpt lat="44.81172" lon="6.96564">
        <ele>1848</ele>
        <time>2022-02-25T15:01:44Z</time>
      </trkpt>
      <trkpt lat="44.8117" lon="6.9656">
        <ele>1847.3</ele>
        <time>2022-02-25T15:01:45Z</time>
      </trkpt>
      <trkpt lat="44.8117" lon="6.96556">
        <ele>1847.3</ele>
        <time>2022-02-25T15:01:46Z</time>
      </trkpt>
      <trkpt lat="44.81169" lon="6.96552">
        <ele>1847.1</ele>
        <time>2022-02-25T15:01:47Z</time>
      </trkpt>
      <trkpt lat="44.81168" lon="6.96547">
        <ele>1846.8</ele>
        <time>2022-02-25T15:01:48Z</time>
      </trkpt>
      <trkpt lat="44.81168" lon="6.96542">
        <ele>1847</ele>
        <time>2022-02-25T15:01:49Z</time>
      </trkpt>
      <trkpt lat="44.81168" lon="6.96538">
        <ele>1847.2</ele>
        <time>2022-02-25T15:01:50Z</time>
      </trkpt>
      <trkpt lat="44.81167" lon="6.96533">
        <ele>1846.9</ele>
        <time>2022-02-25T15:01:51Z</time>
      </trkpt>
      <trkpt lat="44.81166" lon="6.96529">
        <ele>1846.9</ele>
        <time>2022-02-25T15:01:52Z</time>
      </trkpt>
      <trkpt lat="44.81166" lon="6.96524">
        <ele>1847</ele>
        <time>2022-02-25T15:01:53Z</time>
      </trkpt>
      <trkpt lat="44.81166" lon="6.96519">
        <ele>1847.2</ele>
        <time>2022-02-25T15:01:54Z</time>
      </trkpt>
      <trkpt lat="44.81165" lon="6.96514">
        <ele>1847.2</ele>
        <time>2022-02-25T15:01:55Z</time>
      </trkpt>
      <trkpt lat="44.81165" lon="6.9651">
        <ele>1847.4</ele>
        <time>2022-02-25T15:01:56Z</time>
      </trkpt>
      <trkpt lat="44.81164" lon="6.96505">
        <ele>1847.4</ele>
        <time>2022-02-25T15:01:57Z</time>
      </trkpt>
      <trkpt lat="44.81164" lon="6.96501">
        <ele>1847.5</ele>
        <time>2022-02-25T15:01:58Z</time>
      </trkpt>
      <trkpt lat="44.81163" lon="6.96496">
        <ele>1847.4</ele>
        <time>2022-02-25T15:01:59Z</time>
      </trkpt>
      <trkpt lat="44.81163" lon="6.96492">
        <ele>1847.6</ele>
        <time>2022-02-25T15:02:00Z</time>
      </trkpt>
      <trkpt lat="44.81163" lon="6.96488">
        <ele>1847.7</ele>
        <time>2022-02-25T15:02:01Z</time>
      </trkpt>
      <trkpt lat="44.81163" lon="6.96484">
        <ele>1847.8</ele>
        <time>2022-02-25T15:02:02Z</time>
      </trkpt>
      <trkpt lat="44.81162" lon="6.96479">
        <ele>1847.7</ele>
        <time>2022-02-25T15:02:03Z</time>
      </trkpt>
      <trkpt lat="44.81162" lon="6.96474">
        <ele>1847.8</ele>
        <time>2022-02-25T15:02:04Z</time>
      </trkpt>
      <trkpt lat="44.81162" lon="6.96469">
        <ele>1847.8</ele>
        <time>2022-02-25T15:02:05Z</time>
      </trkpt>
      <trkpt lat="44.81162" lon="6.96465">
        <ele>1847.8</ele>
        <time>2022-02-25T15:02:06Z</time>
      </trkpt>
      <trkpt lat="44.81161" lon="6.96459">
        <ele>1847.5</ele>
        <time>2022-02-25T15:02:07Z</time>
      </trkpt>
      <trkpt lat="44.81161" lon="6.96454">
        <ele>1847.4</ele>
        <time>2022-02-25T15:02:08Z</time>
      </trkpt>
      <trkpt lat="44.81161" lon="6.96449">
        <ele>1847.4</ele>
        <time>2022-02-25T15:02:09Z</time>
      </trkpt>
      <trkpt lat="44.81161" lon="6.96444">
        <ele>1847.4</ele>
        <time>2022-02-25T15:02:10Z</time>
      </trkpt>
      <trkpt lat="44.81161" lon="6.96439">
        <ele>1847.4</ele>
        <time>2022-02-25T15:02:11Z</time>
      </trkpt>
      <trkpt lat="44.81161" lon="6.96433">
        <ele>1847.4</ele>
        <time>2022-02-25T15:02:12Z</time>
      </trkpt>
      <trkpt lat="44.8116" lon="6.96427">
        <ele>1847.1</ele>
        <time>2022-02-25T15:02:13Z</time>
      </trkpt>
      <trkpt lat="44.8116" lon="6.96422">
        <ele>1847.1</ele>
        <time>2022-02-25T15:02:14Z</time>
      </trkpt>
      <trkpt lat="44.8116" lon="6.96417">
        <ele>1847.1</ele>
        <time>2022-02-25T15:02:15Z</time>
      </trkpt>
      <trkpt lat="44.8116" lon="6.96413">
        <ele>1847.1</ele>
        <time>2022-02-25T15:02:16Z</time>
      </trkpt>
      <trkpt lat="44.8116" lon="6.96409">
        <ele>1847.1</ele>
        <time>2022-02-25T15:02:17Z</time>
      </trkpt>
      <trkpt lat="44.81159" lon="6.96404">
        <ele>1846.8</ele>
        <time>2022-02-25T15:02:18Z</time>
      </trkpt>
      <trkpt lat="44.81158" lon="6.96399">
        <ele>1846.5</ele>
        <time>2022-02-25T15:02:19Z</time>
      </trkpt>
      <trkpt lat="44.81157" lon="6.96393">
        <ele>1846.2</ele>
        <time>2022-02-25T15:02:20Z</time>
      </trkpt>
      <trkpt lat="44.81157" lon="6.96387">
        <ele>1846.2</ele>
        <time>2022-02-25T15:02:21Z</time>
      </trkpt>
      <trkpt lat="44.81156" lon="6.96381">
        <ele>1846</ele>
        <time>2022-02-25T15:02:22Z</time>
      </trkpt>
      <trkpt lat="44.81156" lon="6.96374">
        <ele>1846.1</ele>
        <time>2022-02-25T15:02:23Z</time>
      </trkpt>
      <trkpt lat="44.81155" lon="6.96368">
        <ele>1845.8</ele>
        <time>2022-02-25T15:02:24Z</time>
      </trkpt>
      <trkpt lat="44.81155" lon="6.96362">
        <ele>1845.8</ele>
        <time>2022-02-25T15:02:25Z</time>
      </trkpt>
      <trkpt lat="44.81155" lon="6.96357">
        <ele>1845.7</ele>
        <time>2022-02-25T15:02:26Z</time>
      </trkpt>
      <trkpt lat="44.81154" lon="6.96351">
        <ele>1845.1</ele>
        <time>2022-02-25T15:02:27Z</time>
      </trkpt>
      <trkpt lat="44.81154" lon="6.96345">
        <ele>1844.9</ele>
        <time>2022-02-25T15:02:28Z</time>
      </trkpt>
      <trkpt lat="44.81154" lon="6.96339">
        <ele>1844.6</ele>
        <time>2022-02-25T15:02:29Z</time>
      </trkpt>
      <trkpt lat="44.81154" lon="6.96334">
        <ele>1844.5</ele>
        <time>2022-02-25T15:02:30Z</time>
      </trkpt>
      <trkpt lat="44.81154" lon="6.96328">
        <ele>1844.3</ele>
        <time>2022-02-25T15:02:31Z</time>
      </trkpt>
      <trkpt lat="44.81154" lon="6.96323">
        <ele>1844.2</ele>
        <time>2022-02-25T15:02:32Z</time>
      </trkpt>
      <trkpt lat="44.81154" lon="6.96317">
        <ele>1844.1</ele>
        <time>2022-02-25T15:02:33Z</time>
      </trkpt>
      <trkpt lat="44.81154" lon="6.96311">
        <ele>1844</ele>
        <time>2022-02-25T15:02:34Z</time>
      </trkpt>
      <trkpt lat="44.81154" lon="6.96306">
        <ele>1843.9</ele>
        <time>2022-02-25T15:02:35Z</time>
      </trkpt>
      <trkpt lat="44.81154" lon="6.96301">
        <ele>1843.5</ele>
        <time>2022-02-25T15:02:36Z</time>
      </trkpt>
      <trkpt lat="44.81155" lon="6.96296">
        <ele>1843.3</ele>
        <time>2022-02-25T15:02:37Z</time>
      </trkpt>
      <trkpt lat="44.81155" lon="6.96291">
        <ele>1842.8</ele>
        <time>2022-02-25T15:02:38Z</time>
      </trkpt>
      <trkpt lat="44.81156" lon="6.96287">
        <ele>1842.6</ele>
        <time>2022-02-25T15:02:39Z</time>
      </trkpt>
      <trkpt lat="44.81157" lon="6.96282">
        <ele>1842.1</ele>
        <time>2022-02-25T15:02:40Z</time>
      </trkpt>
      <trkpt lat="44.81158" lon="6.96279">
        <ele>1841.8</ele>
        <time>2022-02-25T15:02:41Z</time>
      </trkpt>
      <trkpt lat="44.81159" lon="6.96275">
        <ele>1841.3</ele>
        <time>2022-02-25T15:02:42Z</time>
      </trkpt>
      <trkpt lat="44.8116" lon="6.96271">
        <ele>1840.8</ele>
        <time>2022-02-25T15:02:43Z</time>
      </trkpt>
      <trkpt lat="44.81162" lon="6.96266">
        <ele>1839.9</ele>
        <time>2022-02-25T15:02:44Z</time>
      </trkpt>
      <trkpt lat="44.81164" lon="6.96262">
        <ele>1838.9</ele>
        <time>2022-02-25T15:02:45Z</time>
      </trkpt>
      <trkpt lat="44.81165" lon="6.96258">
        <ele>1838</ele>
        <time>2022-02-25T15:02:46Z</time>
      </trkpt>
      <trkpt lat="44.81167" lon="6.96254">
        <ele>1837.1</ele>
        <time>2022-02-25T15:02:47Z</time>
      </trkpt>
      <trkpt lat="44.81169" lon="6.9625">
        <ele>1837.4</ele>
        <time>2022-02-25T15:02:48Z</time>
      </trkpt>
      <trkpt lat="44.81171" lon="6.96246">
        <ele>1838.4</ele>
        <time>2022-02-25T15:02:49Z</time>
      </trkpt>
      <trkpt lat="44.81173" lon="6.96241">
        <ele>1839.2</ele>
        <time>2022-02-25T15:02:50Z</time>
      </trkpt>
      <trkpt lat="44.81175" lon="6.96238">
        <ele>1840</ele>
        <time>2022-02-25T15:02:51Z</time>
      </trkpt>
      <trkpt lat="44.81177" lon="6.96234">
        <ele>1840.7</ele>
        <time>2022-02-25T15:02:52Z</time>
      </trkpt>
      <trkpt lat="44.81178" lon="6.96229">
        <ele>1840.6</ele>
        <time>2022-02-25T15:02:53Z</time>
      </trkpt>
      <trkpt lat="44.8118" lon="6.96226">
        <ele>1841.2</ele>
        <time>2022-02-25T15:02:54Z</time>
      </trkpt>
      <trkpt lat="44.81181" lon="6.96222">
        <ele>1841.2</ele>
        <time>2022-02-25T15:02:55Z</time>
      </trkpt>
      <trkpt lat="44.81183" lon="6.96218">
        <ele>1841.6</ele>
        <time>2022-02-25T15:02:56Z</time>
      </trkpt>
      <trkpt lat="44.81185" lon="6.96214">
        <ele>1841.9</ele>
        <time>2022-02-25T15:02:57Z</time>
      </trkpt>
      <trkpt lat="44.81186" lon="6.96209">
        <ele>1841.7</ele>
        <time>2022-02-25T15:02:58Z</time>
      </trkpt>
      <trkpt lat="44.81188" lon="6.96205">
        <ele>1841.6</ele>
        <time>2022-02-25T15:02:59Z</time>
      </trkpt>
      <trkpt lat="44.81189" lon="6.96201">
        <ele>1841.3</ele>
        <time>2022-02-25T15:03:00Z</time>
      </trkpt>
      <trkpt lat="44.8119" lon="6.96198">
        <ele>1841</ele>
        <time>2022-02-25T15:03:01Z</time>
      </trkpt>
      <trkpt lat="44.8119" lon="6.96198">
        <ele>1841</ele>
        <time>2022-02-25T15:03:02Z</time>
      </trkpt>
      <trkpt lat="44.81191" lon="6.96194">
        <ele>1840.5</ele>
        <time>2022-02-25T15:03:03Z</time>
      </trkpt>
      <trkpt lat="44.81191" lon="6.96194">
        <ele>1840.5</ele>
        <time>2022-02-25T15:03:04Z</time>
      </trkpt>
      <trkpt lat="44.81192" lon="6.96191">
        <ele>1840.2</ele>
        <time>2022-02-25T15:03:05Z</time>
      </trkpt>
      <trkpt lat="44.81192" lon="6.96191">
        <ele>1840.2</ele>
        <time>2022-02-25T15:03:06Z</time>
      </trkpt>
      <trkpt lat="44.81192" lon="6.96188">
        <ele>1839.8</ele>
        <time>2022-02-25T15:03:07Z</time>
      </trkpt>
      <trkpt lat="44.81192" lon="6.96188">
        <ele>1839.8</ele>
        <time>2022-02-25T15:03:08Z</time>
      </trkpt>
      <trkpt lat="44.81191" lon="6.96185">
        <ele>1839.4</ele>
        <time>2022-02-25T15:03:09Z</time>
      </trkpt>
      <trkpt lat="44.81191" lon="6.96185">
        <ele>1839.4</ele>
        <time>2022-02-25T15:03:10Z</time>
      </trkpt>
      <trkpt lat="44.81191" lon="6.96185">
        <ele>1839.4</ele>
        <time>2022-02-25T15:03:11Z</time>
      </trkpt>
      <trkpt lat="44.81191" lon="6.96185">
        <ele>1839.4</ele>
        <time>2022-02-25T15:03:12Z</time>
      </trkpt>
      <trkpt lat="44.81191" lon="6.96185">
        <ele>1839.4</ele>
        <time>2022-02-25T15:03:13Z</time>
      </trkpt>
      <trkpt lat="44.81192" lon="6.96182">
        <ele>1839.1</ele>
        <time>2022-02-25T15:03:14Z</time>
      </trkpt>
      <trkpt lat="44.81192" lon="6.96182">
        <ele>1839.1</ele>
        <time>2022-02-25T15:03:15Z</time>
      </trkpt>
      <trkpt lat="44.81192" lon="6.96182">
        <ele>1839.1</ele>
        <time>2022-02-25T15:03:16Z</time>
      </trkpt>
      <trkpt lat="44.81192" lon="6.96182">
        <ele>1839.1</ele>
        <time>2022-02-25T15:03:17Z</time>
      </trkpt>
      <trkpt lat="44.81192" lon="6.96179">
        <ele>1838.7</ele>
        <time>2022-02-25T15:03:18Z</time>
      </trkpt>
      <trkpt lat="44.81192" lon="6.96179">
        <ele>1838.7</ele>
        <time>2022-02-25T15:03:19Z</time>
      </trkpt>
      <trkpt lat="44.81192" lon="6.96179">
        <ele>1838.7</ele>
        <time>2022-02-25T15:03:20Z</time>
      </trkpt>
      <trkpt lat="44.81192" lon="6.96179">
        <ele>1838.7</ele>
        <time>2022-02-25T15:03:21Z</time>
      </trkpt>
      <trkpt lat="44.81192" lon="6.96179">
        <ele>1838.7</ele>
        <time>2022-02-25T15:03:22Z</time>
      </trkpt>
      <trkpt lat="44.81192" lon="6.96179">
        <ele>1838.7</ele>
        <time>2022-02-25T15:03:23Z</time>
      </trkpt>
      <trkpt lat="44.81192" lon="6.96176">
        <ele>1838.3</ele>
        <time>2022-02-25T15:03:24Z</time>
      </trkpt>
      <trkpt lat="44.81192" lon="6.96176">
        <ele>1838.3</ele>
        <time>2022-02-25T15:03:25Z</time>
      </trkpt>
      <trkpt lat="44.81192" lon="6.96176">
        <ele>1838.3</ele>
        <time>2022-02-25T15:03:26Z</time>
      </trkpt>
      <trkpt lat="44.81192" lon="6.96176">
        <ele>1838.3</ele>
        <time>2022-02-25T15:03:27Z</time>
      </trkpt>
      <trkpt lat="44.81192" lon="6.96176">
        <ele>1838.3</ele>
        <time>2022-02-25T15:03:28Z</time>
      </trkpt>
      <trkpt lat="44.81192" lon="6.96173">
        <ele>1838</ele>
        <time>2022-02-25T15:03:29Z</time>
      </trkpt>
      <trkpt lat="44.81192" lon="6.96173">
        <ele>1838</ele>
        <time>2022-02-25T15:03:30Z</time>
      </trkpt>
      <trkpt lat="44.81192" lon="6.96173">
        <ele>1838</ele>
        <time>2022-02-25T15:03:31Z</time>
      </trkpt>
      <trkpt lat="44.81192" lon="6.9617">
        <ele>1837.6</ele>
        <time>2022-02-25T15:03:32Z</time>
      </trkpt>
      <trkpt lat="44.81192" lon="6.9617">
        <ele>1837.6</ele>
        <time>2022-02-25T15:03:33Z</time>
      </trkpt>
      <trkpt lat="44.81192" lon="6.9617">
        <ele>1837.6</ele>
        <time>2022-02-25T15:03:34Z</time>
      </trkpt>
      <trkpt lat="44.81192" lon="6.96167">
        <ele>1837.2</ele>
        <time>2022-02-25T15:03:35Z</time>
      </trkpt>
      <trkpt lat="44.81192" lon="6.96167">
        <ele>1837.2</ele>
        <time>2022-02-25T15:03:36Z</time>
      </trkpt>
      <trkpt lat="44.81192" lon="6.96167">
        <ele>1837.2</ele>
        <time>2022-02-25T15:03:37Z</time>
      </trkpt>
      <trkpt lat="44.81192" lon="6.96167">
        <ele>1837.2</ele>
        <time>2022-02-25T15:03:38Z</time>
      </trkpt>
      <trkpt lat="44.81192" lon="6.96167">
        <ele>1837.2</ele>
        <time>2022-02-25T15:03:39Z</time>
      </trkpt>
      <trkpt lat="44.81192" lon="6.96164">
        <ele>1837.1</ele>
        <time>2022-02-25T15:03:40Z</time>
      </trkpt>
      <trkpt lat="44.81192" lon="6.96164">
        <ele>1837.1</ele>
        <time>2022-02-25T15:03:41Z</time>
      </trkpt>
      <trkpt lat="44.81192" lon="6.96164">
        <ele>1837.1</ele>
        <time>2022-02-25T15:03:42Z</time>
      </trkpt>
      <trkpt lat="44.81192" lon="6.96164">
        <ele>1837.1</ele>
        <time>2022-02-25T15:03:43Z</time>
      </trkpt>
      <trkpt lat="44.81192" lon="6.96164">
        <ele>1837.1</ele>
        <time>2022-02-25T15:03:44Z</time>
      </trkpt>
      <trkpt lat="44.81192" lon="6.96161">
        <ele>1837.1</ele>
        <time>2022-02-25T15:03:45Z</time>
      </trkpt>
      <trkpt lat="44.81192" lon="6.96161">
        <ele>1837.1</ele>
        <time>2022-02-25T15:03:46Z</time>
      </trkpt>
      <trkpt lat="44.81192" lon="6.96157">
        <ele>1837</ele>
        <time>2022-02-25T15:03:47Z</time>
      </trkpt>
      <trkpt lat="44.81191" lon="6.96155">
        <ele>1836.9</ele>
        <time>2022-02-25T15:03:48Z</time>
      </trkpt>
      <trkpt lat="44.8119" lon="6.96152">
        <ele>1836.8</ele>
        <time>2022-02-25T15:03:49Z</time>
      </trkpt>
      <trkpt lat="44.81189" lon="6.96148">
        <ele>1836.6</ele>
        <time>2022-02-25T15:03:50Z</time>
      </trkpt>
      <trkpt lat="44.81188" lon="6.96144">
        <ele>1836.3</ele>
        <time>2022-02-25T15:03:51Z</time>
      </trkpt>
      <trkpt lat="44.81187" lon="6.9614">
        <ele>1836</ele>
        <time>2022-02-25T15:03:52Z</time>
      </trkpt>
      <trkpt lat="44.81186" lon="6.96136">
        <ele>1836</ele>
        <time>2022-02-25T15:03:53Z</time>
      </trkpt>
      <trkpt lat="44.81184" lon="6.96131">
        <ele>1835.8</ele>
        <time>2022-02-25T15:03:54Z</time>
      </trkpt>
      <trkpt lat="44.81183" lon="6.96126">
        <ele>1835.8</ele>
        <time>2022-02-25T15:03:55Z</time>
      </trkpt>
      <trkpt lat="44.81182" lon="6.96121">
        <ele>1835.5</ele>
        <time>2022-02-25T15:03:56Z</time>
      </trkpt>
      <trkpt lat="44.8118" lon="6.96116">
        <ele>1834.8</ele>
        <time>2022-02-25T15:03:57Z</time>
      </trkpt>
      <trkpt lat="44.81179" lon="6.9611">
        <ele>1834.2</ele>
        <time>2022-02-25T15:03:58Z</time>
      </trkpt>
      <trkpt lat="44.81178" lon="6.96105">
        <ele>1833.7</ele>
        <time>2022-02-25T15:03:59Z</time>
      </trkpt>
      <trkpt lat="44.81176" lon="6.96099">
        <ele>1832.6</ele>
        <time>2022-02-25T15:04:00Z</time>
      </trkpt>
      <trkpt lat="44.81176" lon="6.96093">
        <ele>1832.5</ele>
        <time>2022-02-25T15:04:01Z</time>
      </trkpt>
      <trkpt lat="44.81175" lon="6.96086">
        <ele>1831.8</ele>
        <time>2022-02-25T15:04:02Z</time>
      </trkpt>
      <trkpt lat="44.81175" lon="6.9608">
        <ele>1831.4</ele>
        <time>2022-02-25T15:04:03Z</time>
      </trkpt>
      <trkpt lat="44.81175" lon="6.96074">
        <ele>1830.7</ele>
        <time>2022-02-25T15:04:04Z</time>
      </trkpt>
      <trkpt lat="44.81176" lon="6.96068">
        <ele>1830.5</ele>
        <time>2022-02-25T15:04:05Z</time>
      </trkpt>
      <trkpt lat="44.81178" lon="6.96063">
        <ele>1830.9</ele>
        <time>2022-02-25T15:04:06Z</time>
      </trkpt>
      <trkpt lat="44.81179" lon="6.96058">
        <ele>1830.7</ele>
        <time>2022-02-25T15:04:07Z</time>
      </trkpt>
      <trkpt lat="44.81181" lon="6.96053">
        <ele>1830.7</ele>
        <time>2022-02-25T15:04:08Z</time>
      </trkpt>
      <trkpt lat="44.81183" lon="6.96048">
        <ele>1830.3</ele>
        <time>2022-02-25T15:04:09Z</time>
      </trkpt>
      <trkpt lat="44.81185" lon="6.96043">
        <ele>1829.8</ele>
        <time>2022-02-25T15:04:10Z</time>
      </trkpt>
      <trkpt lat="44.81187" lon="6.96039">
        <ele>1829.3</ele>
        <time>2022-02-25T15:04:11Z</time>
      </trkpt>
      <trkpt lat="44.81189" lon="6.96034">
        <ele>1828.3</ele>
        <time>2022-02-25T15:04:12Z</time>
      </trkpt>
      <trkpt lat="44.81192" lon="6.96028">
        <ele>1826.8</ele>
        <time>2022-02-25T15:04:13Z</time>
      </trkpt>
      <trkpt lat="44.81194" lon="6.96023">
        <ele>1825.9</ele>
        <time>2022-02-25T15:04:14Z</time>
      </trkpt>
      <trkpt lat="44.81196" lon="6.96017">
        <ele>1825.4</ele>
        <time>2022-02-25T15:04:15Z</time>
      </trkpt>
      <trkpt lat="44.81198" lon="6.96012">
        <ele>1825.2</ele>
        <time>2022-02-25T15:04:16Z</time>
      </trkpt>
      <trkpt lat="44.81201" lon="6.96007">
        <ele>1825.3</ele>
        <time>2022-02-25T15:04:17Z</time>
      </trkpt>
      <trkpt lat="44.81203" lon="6.96002">
        <ele>1824.9</ele>
        <time>2022-02-25T15:04:18Z</time>
      </trkpt>
      <trkpt lat="44.81205" lon="6.95998">
        <ele>1824.8</ele>
        <time>2022-02-25T15:04:19Z</time>
      </trkpt>
      <trkpt lat="44.81206" lon="6.95993">
        <ele>1824.3</ele>
        <time>2022-02-25T15:04:20Z</time>
      </trkpt>
      <trkpt lat="44.81208" lon="6.95989">
        <ele>1824.2</ele>
        <time>2022-02-25T15:04:21Z</time>
      </trkpt>
      <trkpt lat="44.81211" lon="6.95986">
        <ele>1824.6</ele>
        <time>2022-02-25T15:04:22Z</time>
      </trkpt>
      <trkpt lat="44.81213" lon="6.95983">
        <ele>1824.7</ele>
        <time>2022-02-25T15:04:23Z</time>
      </trkpt>
      <trkpt lat="44.81214" lon="6.95979">
        <ele>1824.1</ele>
        <time>2022-02-25T15:04:24Z</time>
      </trkpt>
      <trkpt lat="44.81216" lon="6.95976">
        <ele>1824.1</ele>
        <time>2022-02-25T15:04:25Z</time>
      </trkpt>
      <trkpt lat="44.81218" lon="6.95973">
        <ele>1824</ele>
        <time>2022-02-25T15:04:26Z</time>
      </trkpt>
      <trkpt lat="44.81219" lon="6.95971">
        <ele>1823.9</ele>
        <time>2022-02-25T15:04:27Z</time>
      </trkpt>
      <trkpt lat="44.8122" lon="6.95969">
        <ele>1823.8</ele>
        <time>2022-02-25T15:04:28Z</time>
      </trkpt>
      <trkpt lat="44.8122" lon="6.95969">
        <ele>1823.8</ele>
        <time>2022-02-25T15:04:29Z</time>
      </trkpt>
      <trkpt lat="44.81222" lon="6.95965">
        <ele>1823.6</ele>
        <time>2022-02-25T15:04:30Z</time>
      </trkpt>
      <trkpt lat="44.81222" lon="6.95965">
        <ele>1823.6</ele>
        <time>2022-02-25T15:04:31Z</time>
      </trkpt>
      <trkpt lat="44.81223" lon="6.95961">
        <ele>1823.3</ele>
        <time>2022-02-25T15:04:32Z</time>
      </trkpt>
      <trkpt lat="44.81223" lon="6.95961">
        <ele>1823.3</ele>
        <time>2022-02-25T15:04:33Z</time>
      </trkpt>
      <trkpt lat="44.81224" lon="6.95959">
        <ele>1823.4</ele>
        <time>2022-02-25T15:04:34Z</time>
      </trkpt>
      <trkpt lat="44.81224" lon="6.95959">
        <ele>1823.4</ele>
        <time>2022-02-25T15:04:35Z</time>
      </trkpt>
      <trkpt lat="44.81224" lon="6.95959">
        <ele>1823.4</ele>
        <time>2022-02-25T15:04:36Z</time>
      </trkpt>
      <trkpt lat="44.81225" lon="6.95957">
        <ele>1823.4</ele>
        <time>2022-02-25T15:04:37Z</time>
      </trkpt>
      <trkpt lat="44.81225" lon="6.95957">
        <ele>1823.4</ele>
        <time>2022-02-25T15:04:38Z</time>
      </trkpt>
      <trkpt lat="44.81225" lon="6.95957">
        <ele>1823.4</ele>
        <time>2022-02-25T15:04:39Z</time>
      </trkpt>
      <trkpt lat="44.81225" lon="6.95957">
        <ele>1823.4</ele>
        <time>2022-02-25T15:04:40Z</time>
      </trkpt>
      <trkpt lat="44.81225" lon="6.95957">
        <ele>1823.4</ele>
        <time>2022-02-25T15:04:41Z</time>
      </trkpt>
      <trkpt lat="44.81225" lon="6.95953">
        <ele>1822.7</ele>
        <time>2022-02-25T15:04:42Z</time>
      </trkpt>
      <trkpt lat="44.81225" lon="6.95953">
        <ele>1822.7</ele>
        <time>2022-02-25T15:04:43Z</time>
      </trkpt>
      <trkpt lat="44.81225" lon="6.95953">
        <ele>1822.7</ele>
        <time>2022-02-25T15:04:44Z</time>
      </trkpt>
      <trkpt lat="44.81226" lon="6.95951">
        <ele>1822.7</ele>
        <time>2022-02-25T15:04:45Z</time>
      </trkpt>
      <trkpt lat="44.81226" lon="6.95951">
        <ele>1822.7</ele>
        <time>2022-02-25T15:04:46Z</time>
      </trkpt>
      <trkpt lat="44.81227" lon="6.95948">
        <ele>1822.6</ele>
        <time>2022-02-25T15:04:47Z</time>
      </trkpt>
      <trkpt lat="44.81227" lon="6.95948">
        <ele>1822.6</ele>
        <time>2022-02-25T15:04:48Z</time>
      </trkpt>
      <trkpt lat="44.81228" lon="6.95944">
        <ele>1822.2</ele>
        <time>2022-02-25T15:04:49Z</time>
      </trkpt>
      <trkpt lat="44.81229" lon="6.95941">
        <ele>1822</ele>
        <time>2022-02-25T15:04:50Z</time>
      </trkpt>
      <trkpt lat="44.81229" lon="6.95941">
        <ele>1822</ele>
        <time>2022-02-25T15:04:51Z</time>
      </trkpt>
      <trkpt lat="44.8123" lon="6.95937">
        <ele>1821.5</ele>
        <time>2022-02-25T15:04:52Z</time>
      </trkpt>
      <trkpt lat="44.8123" lon="6.95937">
        <ele>1821.5</ele>
        <time>2022-02-25T15:04:53Z</time>
      </trkpt>
      <trkpt lat="44.81231" lon="6.95932">
        <ele>1820.9</ele>
        <time>2022-02-25T15:04:54Z</time>
      </trkpt>
      <trkpt lat="44.81231" lon="6.95932">
        <ele>1820.9</ele>
        <time>2022-02-25T15:04:55Z</time>
      </trkpt>
      <trkpt lat="44.81232" lon="6.95927">
        <ele>1820.3</ele>
        <time>2022-02-25T15:04:56Z</time>
      </trkpt>
      <trkpt lat="44.81232" lon="6.95927">
        <ele>1820.3</ele>
        <time>2022-02-25T15:04:57Z</time>
      </trkpt>
      <trkpt lat="44.81233" lon="6.95924">
        <ele>1820.1</ele>
        <time>2022-02-25T15:04:58Z</time>
      </trkpt>
      <trkpt lat="44.81233" lon="6.95924">
        <ele>1820.1</ele>
        <time>2022-02-25T15:04:59Z</time>
      </trkpt>
      <trkpt lat="44.81233" lon="6.95924">
        <ele>1820.1</ele>
        <time>2022-02-25T15:05:00Z</time>
      </trkpt>
      <trkpt lat="44.81234" lon="6.9592">
        <ele>1819.8</ele>
        <time>2022-02-25T15:05:01Z</time>
      </trkpt>
      <trkpt lat="44.81234" lon="6.9592">
        <ele>1819.8</ele>
        <time>2022-02-25T15:05:02Z</time>
      </trkpt>
      <trkpt lat="44.81234" lon="6.9592">
        <ele>1819.8</ele>
        <time>2022-02-25T15:05:03Z</time>
      </trkpt>
      <trkpt lat="44.81234" lon="6.9592">
        <ele>1819.8</ele>
        <time>2022-02-25T15:05:04Z</time>
      </trkpt>
      <trkpt lat="44.81234" lon="6.9592">
        <ele>1819.8</ele>
        <time>2022-02-25T15:05:05Z</time>
      </trkpt>
      <trkpt lat="44.81234" lon="6.9592">
        <ele>1819.8</ele>
        <time>2022-02-25T15:05:06Z</time>
      </trkpt>
      <trkpt lat="44.81234" lon="6.9592">
        <ele>1819.8</ele>
        <time>2022-02-25T15:05:07Z</time>
      </trkpt>
      <trkpt lat="44.81234" lon="6.9592">
        <ele>1819.8</ele>
        <time>2022-02-25T15:05:08Z</time>
      </trkpt>
      <trkpt lat="44.81234" lon="6.9592">
        <ele>1819.8</ele>
        <time>2022-02-25T15:05:09Z</time>
      </trkpt>
      <trkpt lat="44.81234" lon="6.9592">
        <ele>1819.8</ele>
        <time>2022-02-25T15:05:10Z</time>
      </trkpt>
      <trkpt lat="44.81234" lon="6.9592">
        <ele>1819.8</ele>
        <time>2022-02-25T15:05:11Z</time>
      </trkpt>
      <trkpt lat="44.81234" lon="6.9592">
        <ele>1819.8</ele>
        <time>2022-02-25T15:05:12Z</time>
      </trkpt>
      <trkpt lat="44.81234" lon="6.9592">
        <ele>1819.8</ele>
        <time>2022-02-25T15:05:13Z</time>
      </trkpt>
      <trkpt lat="44.81234" lon="6.9592">
        <ele>1819.8</ele>
        <time>2022-02-25T15:05:14Z</time>
      </trkpt>
      <trkpt lat="44.81234" lon="6.9592">
        <ele>1819.8</ele>
        <time>2022-02-25T15:05:15Z</time>
      </trkpt>
      <trkpt lat="44.81234" lon="6.9592">
        <ele>1819.8</ele>
        <time>2022-02-25T15:05:16Z</time>
      </trkpt>
      <trkpt lat="44.81234" lon="6.9592">
        <ele>1819.8</ele>
        <time>2022-02-25T15:05:17Z</time>
      </trkpt>
      <trkpt lat="44.81234" lon="6.9592">
        <ele>1819.8</ele>
        <time>2022-02-25T15:05:18Z</time>
      </trkpt>
      <trkpt lat="44.81234" lon="6.9592">
        <ele>1819.8</ele>
        <time>2022-02-25T15:05:19Z</time>
      </trkpt>
      <trkpt lat="44.81234" lon="6.9592">
        <ele>1819.8</ele>
        <time>2022-02-25T15:05:20Z</time>
      </trkpt>
      <trkpt lat="44.81234" lon="6.9592">
        <ele>1819.8</ele>
        <time>2022-02-25T15:05:21Z</time>
      </trkpt>
      <trkpt lat="44.81234" lon="6.9592">
        <ele>1819.8</ele>
        <time>2022-02-25T15:05:22Z</time>
      </trkpt>
      <trkpt lat="44.81234" lon="6.9592">
        <ele>1819.8</ele>
        <time>2022-02-25T15:05:23Z</time>
      </trkpt>
      <trkpt lat="44.81234" lon="6.9592">
        <ele>1819.8</ele>
        <time>2022-02-25T15:05:24Z</time>
      </trkpt>
      <trkpt lat="44.81234" lon="6.9592">
        <ele>1819.8</ele>
        <time>2022-02-25T15:05:25Z</time>
      </trkpt>
      <trkpt lat="44.81234" lon="6.9592">
        <ele>1819.8</ele>
        <time>2022-02-25T15:05:26Z</time>
      </trkpt>
      <trkpt lat="44.81234" lon="6.9592">
        <ele>1819.8</ele>
        <time>2022-02-25T15:05:27Z</time>
      </trkpt>
      <trkpt lat="44.81234" lon="6.9592">
        <ele>1819.8</ele>
        <time>2022-02-25T15:05:28Z</time>
      </trkpt>
      <trkpt lat="44.81234" lon="6.9592">
        <ele>1819.8</ele>
        <time>2022-02-25T15:05:29Z</time>
      </trkpt>
      <trkpt lat="44.81234" lon="6.9592">
        <ele>1819.8</ele>
        <time>2022-02-25T15:05:30Z</time>
      </trkpt>
      <trkpt lat="44.81234" lon="6.9592">
        <ele>1819.8</ele>
        <time>2022-02-25T15:05:31Z</time>
      </trkpt>
      <trkpt lat="44.81234" lon="6.9592">
        <ele>1819.8</ele>
        <time>2022-02-25T15:05:32Z</time>
      </trkpt>
      <trkpt lat="44.81234" lon="6.9592">
        <ele>1819.8</ele>
        <time>2022-02-25T15:05:33Z</time>
      </trkpt>
      <trkpt lat="44.81234" lon="6.9592">
        <ele>1819.8</ele>
        <time>2022-02-25T15:05:34Z</time>
      </trkpt>
      <trkpt lat="44.81234" lon="6.9592">
        <ele>1819.8</ele>
        <time>2022-02-25T15:05:35Z</time>
      </trkpt>
      <trkpt lat="44.81234" lon="6.9592">
        <ele>1819.8</ele>
        <time>2022-02-25T15:05:36Z</time>
      </trkpt>
      <trkpt lat="44.81234" lon="6.9592">
        <ele>1819.8</ele>
        <time>2022-02-25T15:05:37Z</time>
      </trkpt>
      <trkpt lat="44.81234" lon="6.9592">
        <ele>1819.8</ele>
        <time>2022-02-25T15:05:38Z</time>
      </trkpt>
      <trkpt lat="44.81234" lon="6.9592">
        <ele>1819.8</ele>
        <time>2022-02-25T15:05:39Z</time>
      </trkpt>
      <trkpt lat="44.81234" lon="6.95917">
        <ele>1819.2</ele>
        <time>2022-02-25T15:05:40Z</time>
      </trkpt>
      <trkpt lat="44.81234" lon="6.95917">
        <ele>1819.2</ele>
        <time>2022-02-25T15:05:41Z</time>
      </trkpt>
      <trkpt lat="44.81234" lon="6.95912">
        <ele>1818.3</ele>
        <time>2022-02-25T15:05:42Z</time>
      </trkpt>
      <trkpt lat="44.81234" lon="6.95912">
        <ele>1818.3</ele>
        <time>2022-02-25T15:05:43Z</time>
      </trkpt>
      <trkpt lat="44.81234" lon="6.95908">
        <ele>1817.7</ele>
        <time>2022-02-25T15:05:44Z</time>
      </trkpt>
      <trkpt lat="44.81233" lon="6.95905">
        <ele>1816.7</ele>
        <time>2022-02-25T15:05:45Z</time>
      </trkpt>
      <trkpt lat="44.81233" lon="6.95905">
        <ele>1816.7</ele>
        <time>2022-02-25T15:05:46Z</time>
      </trkpt>
      <trkpt lat="44.81233" lon="6.95901">
        <ele>1816.1</ele>
        <time>2022-02-25T15:05:47Z</time>
      </trkpt>
      <trkpt lat="44.81233" lon="6.95901">
        <ele>1816.1</ele>
        <time>2022-02-25T15:05:48Z</time>
      </trkpt>
      <trkpt lat="44.81233" lon="6.95898">
        <ele>1815.6</ele>
        <time>2022-02-25T15:05:49Z</time>
      </trkpt>
      <trkpt lat="44.81233" lon="6.95898">
        <ele>1815.6</ele>
        <time>2022-02-25T15:05:50Z</time>
      </trkpt>
      <trkpt lat="44.81232" lon="6.95894">
        <ele>1814.4</ele>
        <time>2022-02-25T15:05:51Z</time>
      </trkpt>
      <trkpt lat="44.81232" lon="6.95894">
        <ele>1814.4</ele>
        <time>2022-02-25T15:05:52Z</time>
      </trkpt>
      <trkpt lat="44.81232" lon="6.95891">
        <ele>1813.9</ele>
        <time>2022-02-25T15:05:53Z</time>
      </trkpt>
      <trkpt lat="44.81232" lon="6.95891">
        <ele>1813.9</ele>
        <time>2022-02-25T15:05:54Z</time>
      </trkpt>
      <trkpt lat="44.81232" lon="6.95887">
        <ele>1813.4</ele>
        <time>2022-02-25T15:05:55Z</time>
      </trkpt>
      <trkpt lat="44.81232" lon="6.95887">
        <ele>1813.4</ele>
        <time>2022-02-25T15:05:56Z</time>
      </trkpt>
      <trkpt lat="44.81232" lon="6.95884">
        <ele>1813.1</ele>
        <time>2022-02-25T15:05:57Z</time>
      </trkpt>
      <trkpt lat="44.81232" lon="6.95884">
        <ele>1813.1</ele>
        <time>2022-02-25T15:05:58Z</time>
      </trkpt>
      <trkpt lat="44.81232" lon="6.95884">
        <ele>1813.1</ele>
        <time>2022-02-25T15:05:59Z</time>
      </trkpt>
      <trkpt lat="44.81232" lon="6.9588">
        <ele>1812.7</ele>
        <time>2022-02-25T15:06:00Z</time>
      </trkpt>
      <trkpt lat="44.81232" lon="6.9588">
        <ele>1812.7</ele>
        <time>2022-02-25T15:06:01Z</time>
      </trkpt>
      <trkpt lat="44.81232" lon="6.95877">
        <ele>1812.4</ele>
        <time>2022-02-25T15:06:02Z</time>
      </trkpt>
      <trkpt lat="44.81232" lon="6.95877">
        <ele>1812.4</ele>
        <time>2022-02-25T15:06:03Z</time>
      </trkpt>
      <trkpt lat="44.81232" lon="6.95877">
        <ele>1812.4</ele>
        <time>2022-02-25T15:06:04Z</time>
      </trkpt>
      <trkpt lat="44.81231" lon="6.95874">
        <ele>1811.7</ele>
        <time>2022-02-25T15:06:05Z</time>
      </trkpt>
      <trkpt lat="44.81231" lon="6.95874">
        <ele>1811.7</ele>
        <time>2022-02-25T15:06:06Z</time>
      </trkpt>
      <trkpt lat="44.81231" lon="6.95874">
        <ele>1811.7</ele>
        <time>2022-02-25T15:06:07Z</time>
      </trkpt>
      <trkpt lat="44.81231" lon="6.95871">
        <ele>1811.4</ele>
        <time>2022-02-25T15:06:08Z</time>
      </trkpt>
      <trkpt lat="44.81231" lon="6.95871">
        <ele>1811.4</ele>
        <time>2022-02-25T15:06:09Z</time>
      </trkpt>
      <trkpt lat="44.81231" lon="6.95871">
        <ele>1811.4</ele>
        <time>2022-02-25T15:06:10Z</time>
      </trkpt>
      <trkpt lat="44.81231" lon="6.95871">
        <ele>1811.4</ele>
        <time>2022-02-25T15:06:11Z</time>
      </trkpt>
      <trkpt lat="44.81231" lon="6.95871">
        <ele>1811.4</ele>
        <time>2022-02-25T15:06:12Z</time>
      </trkpt>
      <trkpt lat="44.81229" lon="6.9587">
        <ele>1810.5</ele>
        <time>2022-02-25T15:06:13Z</time>
      </trkpt>
      <trkpt lat="44.81229" lon="6.9587">
        <ele>1810.5</ele>
        <time>2022-02-25T15:06:14Z</time>
      </trkpt>
      <trkpt lat="44.81229" lon="6.9587">
        <ele>1810.5</ele>
        <time>2022-02-25T15:06:15Z</time>
      </trkpt>
      <trkpt lat="44.81229" lon="6.9587">
        <ele>1810.5</ele>
        <time>2022-02-25T15:06:16Z</time>
      </trkpt>
      <trkpt lat="44.81229" lon="6.9587">
        <ele>1810.5</ele>
        <time>2022-02-25T15:06:17Z</time>
      </trkpt>
      <trkpt lat="44.81229" lon="6.9587">
        <ele>1810.5</ele>
        <time>2022-02-25T15:06:18Z</time>
      </trkpt>
      <trkpt lat="44.81229" lon="6.95867">
        <ele>1810.2</ele>
        <time>2022-02-25T15:06:19Z</time>
      </trkpt>
      <trkpt lat="44.81229" lon="6.95867">
        <ele>1810.2</ele>
        <time>2022-02-25T15:06:20Z</time>
      </trkpt>
      <trkpt lat="44.8123" lon="6.95865">
        <ele>1810.4</ele>
        <time>2022-02-25T15:06:21Z</time>
      </trkpt>
      <trkpt lat="44.8123" lon="6.95865">
        <ele>1810.4</ele>
        <time>2022-02-25T15:06:22Z</time>
      </trkpt>
      <trkpt lat="44.8123" lon="6.95862">
        <ele>1810.2</ele>
        <time>2022-02-25T15:06:23Z</time>
      </trkpt>
      <trkpt lat="44.8123" lon="6.95862">
        <ele>1810.2</ele>
        <time>2022-02-25T15:06:24Z</time>
      </trkpt>
      <trkpt lat="44.81232" lon="6.9586">
        <ele>1810.8</ele>
        <time>2022-02-25T15:06:25Z</time>
      </trkpt>
      <trkpt lat="44.81232" lon="6.9586">
        <ele>1810.8</ele>
        <time>2022-02-25T15:06:26Z</time>
      </trkpt>
      <trkpt lat="44.81232" lon="6.9586">
        <ele>1810.8</ele>
        <time>2022-02-25T15:06:27Z</time>
      </trkpt>
      <trkpt lat="44.81232" lon="6.95856">
        <ele>1810.4</ele>
        <time>2022-02-25T15:06:28Z</time>
      </trkpt>
      <trkpt lat="44.81232" lon="6.95856">
        <ele>1810.4</ele>
        <time>2022-02-25T15:06:29Z</time>
      </trkpt>
      <trkpt lat="44.81233" lon="6.95853">
        <ele>1810.6</ele>
        <time>2022-02-25T15:06:30Z</time>
      </trkpt>
      <trkpt lat="44.81233" lon="6.95853">
        <ele>1810.6</ele>
        <time>2022-02-25T15:06:31Z</time>
      </trkpt>
      <trkpt lat="44.81234" lon="6.95849">
        <ele>1810.6</ele>
        <time>2022-02-25T15:06:32Z</time>
      </trkpt>
      <trkpt lat="44.81234" lon="6.95849">
        <ele>1810.6</ele>
        <time>2022-02-25T15:06:33Z</time>
      </trkpt>
      <trkpt lat="44.81235" lon="6.95845">
        <ele>1810.6</ele>
        <time>2022-02-25T15:06:34Z</time>
      </trkpt>
      <trkpt lat="44.81235" lon="6.95845">
        <ele>1810.6</ele>
        <time>2022-02-25T15:06:35Z</time>
      </trkpt>
      <trkpt lat="44.81235" lon="6.95841">
        <ele>1810.3</ele>
        <time>2022-02-25T15:06:36Z</time>
      </trkpt>
      <trkpt lat="44.81235" lon="6.95841">
        <ele>1810.3</ele>
        <time>2022-02-25T15:06:37Z</time>
      </trkpt>
      <trkpt lat="44.81236" lon="6.95837">
        <ele>1810.3</ele>
        <time>2022-02-25T15:06:38Z</time>
      </trkpt>
      <trkpt lat="44.81236" lon="6.95837">
        <ele>1810.3</ele>
        <time>2022-02-25T15:06:39Z</time>
      </trkpt>
      <trkpt lat="44.81236" lon="6.95835">
        <ele>1810.1</ele>
        <time>2022-02-25T15:06:40Z</time>
      </trkpt>
      <trkpt lat="44.81236" lon="6.95835">
        <ele>1810.1</ele>
        <time>2022-02-25T15:06:41Z</time>
      </trkpt>
      <trkpt lat="44.81237" lon="6.95831">
        <ele>1810.2</ele>
        <time>2022-02-25T15:06:42Z</time>
      </trkpt>
      <trkpt lat="44.81237" lon="6.95831">
        <ele>1810.2</ele>
        <time>2022-02-25T15:06:43Z</time>
      </trkpt>
      <trkpt lat="44.81239" lon="6.95828">
        <ele>1810.8</ele>
        <time>2022-02-25T15:06:44Z</time>
      </trkpt>
      <trkpt lat="44.81239" lon="6.95828">
        <ele>1810.8</ele>
        <time>2022-02-25T15:06:45Z</time>
      </trkpt>
      <trkpt lat="44.8124" lon="6.95825">
        <ele>1810.9</ele>
        <time>2022-02-25T15:06:46Z</time>
      </trkpt>
      <trkpt lat="44.8124" lon="6.95825">
        <ele>1810.9</ele>
        <time>2022-02-25T15:06:47Z</time>
      </trkpt>
      <trkpt lat="44.81241" lon="6.95822">
        <ele>1811.1</ele>
        <time>2022-02-25T15:06:48Z</time>
      </trkpt>
      <trkpt lat="44.81241" lon="6.95822">
        <ele>1811.1</ele>
        <time>2022-02-25T15:06:49Z</time>
      </trkpt>
      <trkpt lat="44.81242" lon="6.95819">
        <ele>1811.2</ele>
        <time>2022-02-25T15:06:50Z</time>
      </trkpt>
      <trkpt lat="44.81242" lon="6.95819">
        <ele>1811.2</ele>
        <time>2022-02-25T15:06:51Z</time>
      </trkpt>
      <trkpt lat="44.81244" lon="6.95817">
        <ele>1811.6</ele>
        <time>2022-02-25T15:06:52Z</time>
      </trkpt>
      <trkpt lat="44.81244" lon="6.95817">
        <ele>1811.6</ele>
        <time>2022-02-25T15:06:53Z</time>
      </trkpt>
      <trkpt lat="44.81244" lon="6.95817">
        <ele>1811.6</ele>
        <time>2022-02-25T15:06:54Z</time>
      </trkpt>
      <trkpt lat="44.81245" lon="6.95814">
        <ele>1811.6</ele>
        <time>2022-02-25T15:06:55Z</time>
      </trkpt>
      <trkpt lat="44.81245" lon="6.95814">
        <ele>1811.6</ele>
        <time>2022-02-25T15:06:56Z</time>
      </trkpt>
      <trkpt lat="44.81245" lon="6.95814">
        <ele>1811.6</ele>
        <time>2022-02-25T15:06:57Z</time>
      </trkpt>
      <trkpt lat="44.81245" lon="6.95811">
        <ele>1811.4</ele>
        <time>2022-02-25T15:06:58Z</time>
      </trkpt>
      <trkpt lat="44.81245" lon="6.95811">
        <ele>1811.4</ele>
        <time>2022-02-25T15:06:59Z</time>
      </trkpt>
      <trkpt lat="44.81245" lon="6.95807">
        <ele>1811</ele>
        <time>2022-02-25T15:07:00Z</time>
      </trkpt>
      <trkpt lat="44.81245" lon="6.95807">
        <ele>1811</ele>
        <time>2022-02-25T15:07:01Z</time>
      </trkpt>
      <trkpt lat="44.81246" lon="6.95803">
        <ele>1810.9</ele>
        <time>2022-02-25T15:07:02Z</time>
      </trkpt>
      <trkpt lat="44.81246" lon="6.95803">
        <ele>1810.9</ele>
        <time>2022-02-25T15:07:03Z</time>
      </trkpt>
      <trkpt lat="44.81247" lon="6.95799">
        <ele>1810.7</ele>
        <time>2022-02-25T15:07:04Z</time>
      </trkpt>
      <trkpt lat="44.81247" lon="6.95799">
        <ele>1810.7</ele>
        <time>2022-02-25T15:07:05Z</time>
      </trkpt>
      <trkpt lat="44.81247" lon="6.95796">
        <ele>1810.4</ele>
        <time>2022-02-25T15:07:06Z</time>
      </trkpt>
      <trkpt lat="44.81247" lon="6.95796">
        <ele>1810.4</ele>
        <time>2022-02-25T15:07:07Z</time>
      </trkpt>
      <trkpt lat="44.81248" lon="6.95793">
        <ele>1810.3</ele>
        <time>2022-02-25T15:07:08Z</time>
      </trkpt>
      <trkpt lat="44.81248" lon="6.95793">
        <ele>1810.3</ele>
        <time>2022-02-25T15:07:09Z</time>
      </trkpt>
      <trkpt lat="44.8125" lon="6.95791">
        <ele>1810.4</ele>
        <time>2022-02-25T15:07:10Z</time>
      </trkpt>
      <trkpt lat="44.8125" lon="6.95791">
        <ele>1810.4</ele>
        <time>2022-02-25T15:07:11Z</time>
      </trkpt>
      <trkpt lat="44.8125" lon="6.95788">
        <ele>1810.1</ele>
        <time>2022-02-25T15:07:12Z</time>
      </trkpt>
      <trkpt lat="44.8125" lon="6.95788">
        <ele>1810.1</ele>
        <time>2022-02-25T15:07:13Z</time>
      </trkpt>
      <trkpt lat="44.8125" lon="6.95788">
        <ele>1810.1</ele>
        <time>2022-02-25T15:07:14Z</time>
      </trkpt>
      <trkpt lat="44.81251" lon="6.95784">
        <ele>1810.2</ele>
        <time>2022-02-25T15:07:15Z</time>
      </trkpt>
      <trkpt lat="44.81251" lon="6.95784">
        <ele>1810.2</ele>
        <time>2022-02-25T15:07:16Z</time>
      </trkpt>
      <trkpt lat="44.81251" lon="6.95784">
        <ele>1810.2</ele>
        <time>2022-02-25T15:07:17Z</time>
      </trkpt>
      <trkpt lat="44.81251" lon="6.95781">
        <ele>1809.9</ele>
        <time>2022-02-25T15:07:18Z</time>
      </trkpt>
      <trkpt lat="44.81251" lon="6.95781">
        <ele>1809.9</ele>
        <time>2022-02-25T15:07:19Z</time>
      </trkpt>
      <trkpt lat="44.81251" lon="6.95781">
        <ele>1809.9</ele>
        <time>2022-02-25T15:07:20Z</time>
      </trkpt>
      <trkpt lat="44.81251" lon="6.95781">
        <ele>1809.9</ele>
        <time>2022-02-25T15:07:21Z</time>
      </trkpt>
      <trkpt lat="44.81251" lon="6.95781">
        <ele>1809.9</ele>
        <time>2022-02-25T15:07:22Z</time>
      </trkpt>
      <trkpt lat="44.81252" lon="6.95778">
        <ele>1810.1</ele>
        <time>2022-02-25T15:07:23Z</time>
      </trkpt>
      <trkpt lat="44.81252" lon="6.95778">
        <ele>1810.1</ele>
        <time>2022-02-25T15:07:24Z</time>
      </trkpt>
      <trkpt lat="44.81252" lon="6.95778">
        <ele>1810.1</ele>
        <time>2022-02-25T15:07:25Z</time>
      </trkpt>
      <trkpt lat="44.81252" lon="6.95778">
        <ele>1810.1</ele>
        <time>2022-02-25T15:07:26Z</time>
      </trkpt>
      <trkpt lat="44.81252" lon="6.95778">
        <ele>1810.1</ele>
        <time>2022-02-25T15:07:27Z</time>
      </trkpt>
      <trkpt lat="44.81252" lon="6.95778">
        <ele>1810.1</ele>
        <time>2022-02-25T15:07:28Z</time>
      </trkpt>
      <trkpt lat="44.81252" lon="6.95778">
        <ele>1810.1</ele>
        <time>2022-02-25T15:07:29Z</time>
      </trkpt>
      <trkpt lat="44.81252" lon="6.95778">
        <ele>1810.1</ele>
        <time>2022-02-25T15:07:30Z</time>
      </trkpt>
      <trkpt lat="44.81252" lon="6.95778">
        <ele>1810.1</ele>
        <time>2022-02-25T15:07:31Z</time>
      </trkpt>
      <trkpt lat="44.81252" lon="6.95778">
        <ele>1810.1</ele>
        <time>2022-02-25T15:07:32Z</time>
      </trkpt>
      <trkpt lat="44.81252" lon="6.95778">
        <ele>1810.1</ele>
        <time>2022-02-25T15:07:33Z</time>
      </trkpt>
      <trkpt lat="44.81252" lon="6.95778">
        <ele>1810.1</ele>
        <time>2022-02-25T15:07:34Z</time>
      </trkpt>
      <trkpt lat="44.81252" lon="6.95778">
        <ele>1810.1</ele>
        <time>2022-02-25T15:07:35Z</time>
      </trkpt>
      <trkpt lat="44.81252" lon="6.95778">
        <ele>1810.1</ele>
        <time>2022-02-25T15:07:36Z</time>
      </trkpt>
      <trkpt lat="44.81252" lon="6.95778">
        <ele>1810.1</ele>
        <time>2022-02-25T15:07:37Z</time>
      </trkpt>
      <trkpt lat="44.81252" lon="6.95778">
        <ele>1810.1</ele>
        <time>2022-02-25T15:07:38Z</time>
      </trkpt>
      <trkpt lat="44.81252" lon="6.95778">
        <ele>1810.1</ele>
        <time>2022-02-25T15:07:39Z</time>
      </trkpt>
      <trkpt lat="44.81252" lon="6.95778">
        <ele>1810.1</ele>
        <time>2022-02-25T15:07:40Z</time>
      </trkpt>
      <trkpt lat="44.81252" lon="6.95778">
        <ele>1810.1</ele>
        <time>2022-02-25T15:07:41Z</time>
      </trkpt>
      <trkpt lat="44.81252" lon="6.95778">
        <ele>1810.1</ele>
        <time>2022-02-25T15:07:42Z</time>
      </trkpt>
      <trkpt lat="44.81252" lon="6.95778">
        <ele>1810.1</ele>
        <time>2022-02-25T15:07:43Z</time>
      </trkpt>
      <trkpt lat="44.81252" lon="6.95778">
        <ele>1810.1</ele>
        <time>2022-02-25T15:07:44Z</time>
      </trkpt>
      <trkpt lat="44.81252" lon="6.95778">
        <ele>1810.1</ele>
        <time>2022-02-25T15:07:45Z</time>
      </trkpt>
      <trkpt lat="44.81252" lon="6.95778">
        <ele>1810.1</ele>
        <time>2022-02-25T15:07:46Z</time>
      </trkpt>
      <trkpt lat="44.81252" lon="6.95778">
        <ele>1810.1</ele>
        <time>2022-02-25T15:07:47Z</time>
      </trkpt>
      <trkpt lat="44.81252" lon="6.95778">
        <ele>1810.1</ele>
        <time>2022-02-25T15:07:48Z</time>
      </trkpt>
      <trkpt lat="44.81252" lon="6.95778">
        <ele>1810.1</ele>
        <time>2022-02-25T15:07:49Z</time>
      </trkpt>
      <trkpt lat="44.81252" lon="6.95778">
        <ele>1810.1</ele>
        <time>2022-02-25T15:07:50Z</time>
      </trkpt>
      <trkpt lat="44.81252" lon="6.95778">
        <ele>1810.1</ele>
        <time>2022-02-25T15:07:51Z</time>
      </trkpt>
      <trkpt lat="44.81252" lon="6.95778">
        <ele>1810.1</ele>
        <time>2022-02-25T15:07:52Z</time>
      </trkpt>
      <trkpt lat="44.81252" lon="6.95778">
        <ele>1810.1</ele>
        <time>2022-02-25T15:07:53Z</time>
      </trkpt>
      <trkpt lat="44.81252" lon="6.95778">
        <ele>1810.1</ele>
        <time>2022-02-25T15:07:54Z</time>
      </trkpt>
      <trkpt lat="44.81252" lon="6.95778">
        <ele>1810.1</ele>
        <time>2022-02-25T15:07:55Z</time>
      </trkpt>
      <trkpt lat="44.81252" lon="6.95778">
        <ele>1810.1</ele>
        <time>2022-02-25T15:07:56Z</time>
      </trkpt>
      <trkpt lat="44.81252" lon="6.95778">
        <ele>1810.1</ele>
        <time>2022-02-25T15:07:57Z</time>
      </trkpt>
      <trkpt lat="44.81252" lon="6.95778">
        <ele>1810.1</ele>
        <time>2022-02-25T15:07:58Z</time>
      </trkpt>
      <trkpt lat="44.81252" lon="6.95778">
        <ele>1810.1</ele>
        <time>2022-02-25T15:07:59Z</time>
      </trkpt>
      <trkpt lat="44.81253" lon="6.95775">
        <ele>1810.4</ele>
        <time>2022-02-25T15:08:00Z</time>
      </trkpt>
      <trkpt lat="44.81253" lon="6.95772">
        <ele>1810.2</ele>
        <time>2022-02-25T15:08:01Z</time>
      </trkpt>
      <trkpt lat="44.81253" lon="6.9577">
        <ele>1810</ele>
        <time>2022-02-25T15:08:02Z</time>
      </trkpt>
      <trkpt lat="44.81253" lon="6.95767">
        <ele>1809.8</ele>
        <time>2022-02-25T15:08:03Z</time>
      </trkpt>
      <trkpt lat="44.81252" lon="6.95763">
        <ele>1809</ele>
        <time>2022-02-25T15:08:04Z</time>
      </trkpt>
      <trkpt lat="44.81252" lon="6.9576">
        <ele>1808.8</ele>
        <time>2022-02-25T15:08:05Z</time>
      </trkpt>
      <trkpt lat="44.81252" lon="6.95755">
        <ele>1808.4</ele>
        <time>2022-02-25T15:08:06Z</time>
      </trkpt>
      <trkpt lat="44.81252" lon="6.9575">
        <ele>1808</ele>
        <time>2022-02-25T15:08:07Z</time>
      </trkpt>
      <trkpt lat="44.81252" lon="6.95746">
        <ele>1807.7</ele>
        <time>2022-02-25T15:08:08Z</time>
      </trkpt>
      <trkpt lat="44.81251" lon="6.95741">
        <ele>1806.9</ele>
        <time>2022-02-25T15:08:09Z</time>
      </trkpt>
      <trkpt lat="44.8125" lon="6.95736">
        <ele>1806</ele>
        <time>2022-02-25T15:08:10Z</time>
      </trkpt>
      <trkpt lat="44.8125" lon="6.95731">
        <ele>1805.6</ele>
        <time>2022-02-25T15:08:11Z</time>
      </trkpt>
      <trkpt lat="44.81249" lon="6.95726">
        <ele>1805.1</ele>
        <time>2022-02-25T15:08:12Z</time>
      </trkpt>
      <trkpt lat="44.81249" lon="6.9572">
        <ele>1804.8</ele>
        <time>2022-02-25T15:08:13Z</time>
      </trkpt>
      <trkpt lat="44.81249" lon="6.95714">
        <ele>1804.5</ele>
        <time>2022-02-25T15:08:14Z</time>
      </trkpt>
      <trkpt lat="44.81248" lon="6.95708">
        <ele>1804.1</ele>
        <time>2022-02-25T15:08:15Z</time>
      </trkpt>
      <trkpt lat="44.81248" lon="6.95701">
        <ele>1803.7</ele>
        <time>2022-02-25T15:08:16Z</time>
      </trkpt>
      <trkpt lat="44.81247" lon="6.95695">
        <ele>1803.2</ele>
        <time>2022-02-25T15:08:17Z</time>
      </trkpt>
      <trkpt lat="44.81247" lon="6.95688">
        <ele>1802.9</ele>
        <time>2022-02-25T15:08:18Z</time>
      </trkpt>
      <trkpt lat="44.81246" lon="6.95682">
        <ele>1802.3</ele>
        <time>2022-02-25T15:08:19Z</time>
      </trkpt>
      <trkpt lat="44.81245" lon="6.95676">
        <ele>1801.7</ele>
        <time>2022-02-25T15:08:20Z</time>
      </trkpt>
      <trkpt lat="44.81244" lon="6.95671">
        <ele>1801.1</ele>
        <time>2022-02-25T15:08:21Z</time>
      </trkpt>
      <trkpt lat="44.81244" lon="6.95666">
        <ele>1800.8</ele>
        <time>2022-02-25T15:08:22Z</time>
      </trkpt>
      <trkpt lat="44.81244" lon="6.95662">
        <ele>1800.8</ele>
        <time>2022-02-25T15:08:23Z</time>
      </trkpt>
      <trkpt lat="44.81243" lon="6.95657">
        <ele>1800.3</ele>
        <time>2022-02-25T15:08:24Z</time>
      </trkpt>
      <trkpt lat="44.81243" lon="6.95654">
        <ele>1800.3</ele>
        <time>2022-02-25T15:08:25Z</time>
      </trkpt>
      <trkpt lat="44.81243" lon="6.9565">
        <ele>1800.2</ele>
        <time>2022-02-25T15:08:26Z</time>
      </trkpt>
      <trkpt lat="44.81243" lon="6.95646">
        <ele>1800.1</ele>
        <time>2022-02-25T15:08:27Z</time>
      </trkpt>
      <trkpt lat="44.81243" lon="6.95643">
        <ele>1800.1</ele>
        <time>2022-02-25T15:08:28Z</time>
      </trkpt>
      <trkpt lat="44.81243" lon="6.9564">
        <ele>1800</ele>
        <time>2022-02-25T15:08:29Z</time>
      </trkpt>
      <trkpt lat="44.81244" lon="6.95637">
        <ele>1800.2</ele>
        <time>2022-02-25T15:08:30Z</time>
      </trkpt>
      <trkpt lat="44.81244" lon="6.95634">
        <ele>1800</ele>
        <time>2022-02-25T15:08:31Z</time>
      </trkpt>
      <trkpt lat="44.81244" lon="6.95631">
        <ele>1799.7</ele>
        <time>2022-02-25T15:08:32Z</time>
      </trkpt>
      <trkpt lat="44.81245" lon="6.95627">
        <ele>1799.7</ele>
        <time>2022-02-25T15:08:33Z</time>
      </trkpt>
      <trkpt lat="44.81246" lon="6.95624">
        <ele>1799.8</ele>
        <time>2022-02-25T15:08:34Z</time>
      </trkpt>
      <trkpt lat="44.81247" lon="6.95622">
        <ele>1800</ele>
        <time>2022-02-25T15:08:35Z</time>
      </trkpt>
      <trkpt lat="44.81248" lon="6.95619">
        <ele>1800.1</ele>
        <time>2022-02-25T15:08:36Z</time>
      </trkpt>
      <trkpt lat="44.81249" lon="6.95617">
        <ele>1800.3</ele>
        <time>2022-02-25T15:08:37Z</time>
      </trkpt>
      <trkpt lat="44.81249" lon="6.95617">
        <ele>1800.3</ele>
        <time>2022-02-25T15:08:38Z</time>
      </trkpt>
      <trkpt lat="44.81251" lon="6.95613">
        <ele>1800.6</ele>
        <time>2022-02-25T15:08:39Z</time>
      </trkpt>
      <trkpt lat="44.81251" lon="6.95613">
        <ele>1800.6</ele>
        <time>2022-02-25T15:08:40Z</time>
      </trkpt>
      <trkpt lat="44.81253" lon="6.9561">
        <ele>1801.1</ele>
        <time>2022-02-25T15:08:41Z</time>
      </trkpt>
      <trkpt lat="44.81253" lon="6.9561">
        <ele>1801.1</ele>
        <time>2022-02-25T15:08:42Z</time>
      </trkpt>
      <trkpt lat="44.81253" lon="6.9561">
        <ele>1801.1</ele>
        <time>2022-02-25T15:08:43Z</time>
      </trkpt>
      <trkpt lat="44.81253" lon="6.9561">
        <ele>1801.1</ele>
        <time>2022-02-25T15:08:44Z</time>
      </trkpt>
      <trkpt lat="44.81253" lon="6.9561">
        <ele>1801.1</ele>
        <time>2022-02-25T15:08:45Z</time>
      </trkpt>
      <trkpt lat="44.81253" lon="6.9561">
        <ele>1801.1</ele>
        <time>2022-02-25T15:08:46Z</time>
      </trkpt>
      <trkpt lat="44.81253" lon="6.9561">
        <ele>1801.1</ele>
        <time>2022-02-25T15:08:47Z</time>
      </trkpt>
      <trkpt lat="44.81254" lon="6.95608">
        <ele>1801.1</ele>
        <time>2022-02-25T15:08:48Z</time>
      </trkpt>
      <trkpt lat="44.81254" lon="6.95608">
        <ele>1801.1</ele>
        <time>2022-02-25T15:08:49Z</time>
      </trkpt>
      <trkpt lat="44.81254" lon="6.95608">
        <ele>1801.1</ele>
        <time>2022-02-25T15:08:50Z</time>
      </trkpt>
      <trkpt lat="44.81254" lon="6.95608">
        <ele>1801.1</ele>
        <time>2022-02-25T15:08:51Z</time>
      </trkpt>
      <trkpt lat="44.81254" lon="6.95608">
        <ele>1801.1</ele>
        <time>2022-02-25T15:08:52Z</time>
      </trkpt>
      <trkpt lat="44.81254" lon="6.95608">
        <ele>1801.1</ele>
        <time>2022-02-25T15:08:53Z</time>
      </trkpt>
      <trkpt lat="44.81254" lon="6.95608">
        <ele>1801.1</ele>
        <time>2022-02-25T15:08:54Z</time>
      </trkpt>
      <trkpt lat="44.81254" lon="6.95608">
        <ele>1801.1</ele>
        <time>2022-02-25T15:08:55Z</time>
      </trkpt>
      <trkpt lat="44.81254" lon="6.95608">
        <ele>1801.1</ele>
        <time>2022-02-25T15:08:56Z</time>
      </trkpt>
      <trkpt lat="44.81254" lon="6.95608">
        <ele>1801.1</ele>
        <time>2022-02-25T15:08:57Z</time>
      </trkpt>
      <trkpt lat="44.81254" lon="6.95608">
        <ele>1801.1</ele>
        <time>2022-02-25T15:08:58Z</time>
      </trkpt>
      <trkpt lat="44.81254" lon="6.95608">
        <ele>1801.1</ele>
        <time>2022-02-25T15:08:59Z</time>
      </trkpt>
      <trkpt lat="44.81254" lon="6.95608">
        <ele>1801.1</ele>
        <time>2022-02-25T15:09:00Z</time>
      </trkpt>
      <trkpt lat="44.81254" lon="6.95608">
        <ele>1801.1</ele>
        <time>2022-02-25T15:09:01Z</time>
      </trkpt>
      <trkpt lat="44.81254" lon="6.95608">
        <ele>1801.1</ele>
        <time>2022-02-25T15:09:02Z</time>
      </trkpt>
      <trkpt lat="44.81254" lon="6.95608">
        <ele>1801.1</ele>
        <time>2022-02-25T15:09:03Z</time>
      </trkpt>
      <trkpt lat="44.81254" lon="6.95608">
        <ele>1801.1</ele>
        <time>2022-02-25T15:09:04Z</time>
      </trkpt>
      <trkpt lat="44.81254" lon="6.95608">
        <ele>1801.1</ele>
        <time>2022-02-25T15:09:05Z</time>
      </trkpt>
      <trkpt lat="44.81254" lon="6.95608">
        <ele>1801.1</ele>
        <time>2022-02-25T15:09:06Z</time>
      </trkpt>
      <trkpt lat="44.81254" lon="6.95608">
        <ele>1801.1</ele>
        <time>2022-02-25T15:09:07Z</time>
      </trkpt>
      <trkpt lat="44.81254" lon="6.95608">
        <ele>1801.1</ele>
        <time>2022-02-25T15:09:08Z</time>
      </trkpt>
      <trkpt lat="44.81254" lon="6.95608">
        <ele>1801.1</ele>
        <time>2022-02-25T15:09:09Z</time>
      </trkpt>
      <trkpt lat="44.81254" lon="6.95608">
        <ele>1801.1</ele>
        <time>2022-02-25T15:09:10Z</time>
      </trkpt>
      <trkpt lat="44.81254" lon="6.95608">
        <ele>1801.1</ele>
        <time>2022-02-25T15:09:11Z</time>
      </trkpt>
      <trkpt lat="44.81254" lon="6.95608">
        <ele>1801.1</ele>
        <time>2022-02-25T15:09:12Z</time>
      </trkpt>
      <trkpt lat="44.81254" lon="6.95608">
        <ele>1801.1</ele>
        <time>2022-02-25T15:09:13Z</time>
      </trkpt>
      <trkpt lat="44.81254" lon="6.95608">
        <ele>1801.1</ele>
        <time>2022-02-25T15:09:14Z</time>
      </trkpt>
      <trkpt lat="44.81254" lon="6.95608">
        <ele>1801.1</ele>
        <time>2022-02-25T15:09:15Z</time>
      </trkpt>
      <trkpt lat="44.81254" lon="6.95608">
        <ele>1801.1</ele>
        <time>2022-02-25T15:09:16Z</time>
      </trkpt>
      <trkpt lat="44.81254" lon="6.95608">
        <ele>1801.1</ele>
        <time>2022-02-25T15:09:17Z</time>
      </trkpt>
      <trkpt lat="44.81254" lon="6.95608">
        <ele>1801.1</ele>
        <time>2022-02-25T15:09:18Z</time>
      </trkpt>
      <trkpt lat="44.81254" lon="6.95608">
        <ele>1801.1</ele>
        <time>2022-02-25T15:09:19Z</time>
      </trkpt>
      <trkpt lat="44.81254" lon="6.95608">
        <ele>1801.1</ele>
        <time>2022-02-25T15:09:20Z</time>
      </trkpt>
      <trkpt lat="44.81254" lon="6.95608">
        <ele>1801.1</ele>
        <time>2022-02-25T15:09:21Z</time>
      </trkpt>
      <trkpt lat="44.81254" lon="6.95608">
        <ele>1801.1</ele>
        <time>2022-02-25T15:09:22Z</time>
      </trkpt>
      <trkpt lat="44.81254" lon="6.95608">
        <ele>1801.1</ele>
        <time>2022-02-25T15:09:23Z</time>
      </trkpt>
      <trkpt lat="44.81254" lon="6.95608">
        <ele>1801.1</ele>
        <time>2022-02-25T15:09:24Z</time>
      </trkpt>
      <trkpt lat="44.81254" lon="6.95608">
        <ele>1801.1</ele>
        <time>2022-02-25T15:09:25Z</time>
      </trkpt>
      <trkpt lat="44.81254" lon="6.95608">
        <ele>1801.1</ele>
        <time>2022-02-25T15:09:26Z</time>
      </trkpt>
      <trkpt lat="44.81255" lon="6.95607">
        <ele>1801.3</ele>
        <time>2022-02-25T15:09:27Z</time>
      </trkpt>
      <trkpt lat="44.81255" lon="6.95607">
        <ele>1801.3</ele>
        <time>2022-02-25T15:09:28Z</time>
      </trkpt>
      <trkpt lat="44.81257" lon="6.95605">
        <ele>1801.7</ele>
        <time>2022-02-25T15:09:29Z</time>
      </trkpt>
      <trkpt lat="44.81257" lon="6.95605">
        <ele>1801.7</ele>
        <time>2022-02-25T15:09:30Z</time>
      </trkpt>
      <trkpt lat="44.81257" lon="6.95605">
        <ele>1801.7</ele>
        <time>2022-02-25T15:09:31Z</time>
      </trkpt>
      <trkpt lat="44.81259" lon="6.95604">
        <ele>1802.4</ele>
        <time>2022-02-25T15:09:32Z</time>
      </trkpt>
      <trkpt lat="44.81259" lon="6.95604">
        <ele>1802.4</ele>
        <time>2022-02-25T15:09:33Z</time>
      </trkpt>
      <trkpt lat="44.81259" lon="6.95604">
        <ele>1802.4</ele>
        <time>2022-02-25T15:09:34Z</time>
      </trkpt>
      <trkpt lat="44.81259" lon="6.95604">
        <ele>1802.4</ele>
        <time>2022-02-25T15:09:35Z</time>
      </trkpt>
      <trkpt lat="44.81259" lon="6.95604">
        <ele>1802.4</ele>
        <time>2022-02-25T15:09:36Z</time>
      </trkpt>
      <trkpt lat="44.81259" lon="6.95604">
        <ele>1802.4</ele>
        <time>2022-02-25T15:09:37Z</time>
      </trkpt>
      <trkpt lat="44.81259" lon="6.95604">
        <ele>1802.4</ele>
        <time>2022-02-25T15:09:38Z</time>
      </trkpt>
      <trkpt lat="44.81259" lon="6.95604">
        <ele>1802.4</ele>
        <time>2022-02-25T15:09:39Z</time>
      </trkpt>
      <trkpt lat="44.81259" lon="6.95604">
        <ele>1802.4</ele>
        <time>2022-02-25T15:09:40Z</time>
      </trkpt>
      <trkpt lat="44.81259" lon="6.95604">
        <ele>1802.4</ele>
        <time>2022-02-25T15:09:41Z</time>
      </trkpt>
      <trkpt lat="44.81259" lon="6.95604">
        <ele>1802.4</ele>
        <time>2022-02-25T15:09:42Z</time>
      </trkpt>
      <trkpt lat="44.81259" lon="6.95604">
        <ele>1802.4</ele>
        <time>2022-02-25T15:09:43Z</time>
      </trkpt>
      <trkpt lat="44.81259" lon="6.95604">
        <ele>1802.4</ele>
        <time>2022-02-25T15:09:44Z</time>
      </trkpt>
      <trkpt lat="44.81259" lon="6.95604">
        <ele>1802.4</ele>
        <time>2022-02-25T15:09:45Z</time>
      </trkpt>
      <trkpt lat="44.81259" lon="6.95604">
        <ele>1802.4</ele>
        <time>2022-02-25T15:09:46Z</time>
      </trkpt>
      <trkpt lat="44.81259" lon="6.95604">
        <ele>1802.4</ele>
        <time>2022-02-25T15:09:47Z</time>
      </trkpt>
      <trkpt lat="44.81259" lon="6.95604">
        <ele>1802.4</ele>
        <time>2022-02-25T15:09:48Z</time>
      </trkpt>
      <trkpt lat="44.81259" lon="6.95604">
        <ele>1802.4</ele>
        <time>2022-02-25T15:09:49Z</time>
      </trkpt>
      <trkpt lat="44.81259" lon="6.95604">
        <ele>1802.4</ele>
        <time>2022-02-25T15:09:50Z</time>
      </trkpt>
      <trkpt lat="44.81259" lon="6.95604">
        <ele>1802.4</ele>
        <time>2022-02-25T15:09:51Z</time>
      </trkpt>
      <trkpt lat="44.81259" lon="6.95604">
        <ele>1802.4</ele>
        <time>2022-02-25T15:09:52Z</time>
      </trkpt>
      <trkpt lat="44.81259" lon="6.95604">
        <ele>1802.4</ele>
        <time>2022-02-25T15:09:53Z</time>
      </trkpt>
      <trkpt lat="44.81259" lon="6.95604">
        <ele>1802.4</ele>
        <time>2022-02-25T15:09:54Z</time>
      </trkpt>
      <trkpt lat="44.81259" lon="6.95604">
        <ele>1802.4</ele>
        <time>2022-02-25T15:09:55Z</time>
      </trkpt>
      <trkpt lat="44.81259" lon="6.95604">
        <ele>1802.4</ele>
        <time>2022-02-25T15:09:56Z</time>
      </trkpt>
      <trkpt lat="44.81259" lon="6.95604">
        <ele>1802.4</ele>
        <time>2022-02-25T15:09:57Z</time>
      </trkpt>
      <trkpt lat="44.81259" lon="6.95604">
        <ele>1802.4</ele>
        <time>2022-02-25T15:09:58Z</time>
      </trkpt>
      <trkpt lat="44.81259" lon="6.95604">
        <ele>1802.4</ele>
        <time>2022-02-25T15:09:59Z</time>
      </trkpt>
      <trkpt lat="44.81259" lon="6.95604">
        <ele>1802.4</ele>
        <time>2022-02-25T15:10:00Z</time>
      </trkpt>
      <trkpt lat="44.81259" lon="6.95604">
        <ele>1802.4</ele>
        <time>2022-02-25T15:10:01Z</time>
      </trkpt>
      <trkpt lat="44.81259" lon="6.95604">
        <ele>1802.4</ele>
        <time>2022-02-25T15:10:02Z</time>
      </trkpt>
      <trkpt lat="44.81259" lon="6.95604">
        <ele>1802.4</ele>
        <time>2022-02-25T15:10:03Z</time>
      </trkpt>
      <trkpt lat="44.81259" lon="6.95604">
        <ele>1802.4</ele>
        <time>2022-02-25T15:10:04Z</time>
      </trkpt>
      <trkpt lat="44.81259" lon="6.95604">
        <ele>1802.4</ele>
        <time>2022-02-25T15:10:05Z</time>
      </trkpt>
      <trkpt lat="44.81259" lon="6.95604">
        <ele>1802.4</ele>
        <time>2022-02-25T15:10:06Z</time>
      </trkpt>
      <trkpt lat="44.81259" lon="6.95604">
        <ele>1802.4</ele>
        <time>2022-02-25T15:10:07Z</time>
      </trkpt>
      <trkpt lat="44.81259" lon="6.95604">
        <ele>1802.4</ele>
        <time>2022-02-25T15:10:08Z</time>
      </trkpt>
      <trkpt lat="44.81259" lon="6.95604">
        <ele>1802.4</ele>
        <time>2022-02-25T15:10:09Z</time>
      </trkpt>
      <trkpt lat="44.81259" lon="6.95604">
        <ele>1802.4</ele>
        <time>2022-02-25T15:10:10Z</time>
      </trkpt>
      <trkpt lat="44.81259" lon="6.95604">
        <ele>1802.4</ele>
        <time>2022-02-25T15:10:11Z</time>
      </trkpt>
      <trkpt lat="44.81259" lon="6.95604">
        <ele>1802.4</ele>
        <time>2022-02-25T15:10:12Z</time>
      </trkpt>
      <trkpt lat="44.81259" lon="6.95604">
        <ele>1802.4</ele>
        <time>2022-02-25T15:10:13Z</time>
      </trkpt>
      <trkpt lat="44.81259" lon="6.95604">
        <ele>1802.4</ele>
        <time>2022-02-25T15:10:14Z</time>
      </trkpt>
      <trkpt lat="44.81259" lon="6.95604">
        <ele>1802.4</ele>
        <time>2022-02-25T15:10:15Z</time>
      </trkpt>
      <trkpt lat="44.81259" lon="6.95604">
        <ele>1802.4</ele>
        <time>2022-02-25T15:10:16Z</time>
      </trkpt>
      <trkpt lat="44.81259" lon="6.95604">
        <ele>1802.4</ele>
        <time>2022-02-25T15:10:17Z</time>
      </trkpt>
      <trkpt lat="44.81259" lon="6.95604">
        <ele>1802.4</ele>
        <time>2022-02-25T15:10:18Z</time>
      </trkpt>
      <trkpt lat="44.81259" lon="6.95604">
        <ele>1802.4</ele>
        <time>2022-02-25T15:10:19Z</time>
      </trkpt>
      <trkpt lat="44.81259" lon="6.95604">
        <ele>1802.4</ele>
        <time>2022-02-25T15:10:20Z</time>
      </trkpt>
      <trkpt lat="44.81259" lon="6.95604">
        <ele>1802.4</ele>
        <time>2022-02-25T15:10:21Z</time>
      </trkpt>
      <trkpt lat="44.81259" lon="6.95604">
        <ele>1802.4</ele>
        <time>2022-02-25T15:10:22Z</time>
      </trkpt>
      <trkpt lat="44.81259" lon="6.95604">
        <ele>1802.4</ele>
        <time>2022-02-25T15:10:23Z</time>
      </trkpt>
      <trkpt lat="44.81259" lon="6.95604">
        <ele>1802.4</ele>
        <time>2022-02-25T15:10:24Z</time>
      </trkpt>
      <trkpt lat="44.81259" lon="6.95604">
        <ele>1802.4</ele>
        <time>2022-02-25T15:10:25Z</time>
      </trkpt>
      <trkpt lat="44.81259" lon="6.95604">
        <ele>1802.4</ele>
        <time>2022-02-25T15:10:26Z</time>
      </trkpt>
      <trkpt lat="44.81259" lon="6.95604">
        <ele>1802.4</ele>
        <time>2022-02-25T15:10:27Z</time>
      </trkpt>
      <trkpt lat="44.81259" lon="6.95604">
        <ele>1802.4</ele>
        <time>2022-02-25T15:10:28Z</time>
      </trkpt>
      <trkpt lat="44.81259" lon="6.95604">
        <ele>1802.4</ele>
        <time>2022-02-25T15:10:29Z</time>
      </trkpt>
      <trkpt lat="44.81259" lon="6.95604">
        <ele>1802.4</ele>
        <time>2022-02-25T15:10:30Z</time>
      </trkpt>
      <trkpt lat="44.81259" lon="6.95604">
        <ele>1802.4</ele>
        <time>2022-02-25T15:10:31Z</time>
      </trkpt>
      <trkpt lat="44.81259" lon="6.95604">
        <ele>1802.4</ele>
        <time>2022-02-25T15:10:32Z</time>
      </trkpt>
      <trkpt lat="44.81259" lon="6.95604">
        <ele>1802.4</ele>
        <time>2022-02-25T15:10:33Z</time>
      </trkpt>
      <trkpt lat="44.81259" lon="6.95604">
        <ele>1802.4</ele>
        <time>2022-02-25T15:10:34Z</time>
      </trkpt>
      <trkpt lat="44.81259" lon="6.95604">
        <ele>1802.4</ele>
        <time>2022-02-25T15:10:35Z</time>
      </trkpt>
      <trkpt lat="44.81259" lon="6.95604">
        <ele>1802.4</ele>
        <time>2022-02-25T15:10:36Z</time>
      </trkpt>
      <trkpt lat="44.81259" lon="6.95604">
        <ele>1802.4</ele>
        <time>2022-02-25T15:10:37Z</time>
      </trkpt>
      <trkpt lat="44.81259" lon="6.95604">
        <ele>1802.4</ele>
        <time>2022-02-25T15:10:38Z</time>
      </trkpt>
      <trkpt lat="44.81259" lon="6.95604">
        <ele>1802.4</ele>
        <time>2022-02-25T15:10:39Z</time>
      </trkpt>
      <trkpt lat="44.81259" lon="6.95604">
        <ele>1802.4</ele>
        <time>2022-02-25T15:10:40Z</time>
      </trkpt>
      <trkpt lat="44.81259" lon="6.95604">
        <ele>1802.4</ele>
        <time>2022-02-25T15:10:41Z</time>
      </trkpt>
      <trkpt lat="44.81259" lon="6.95604">
        <ele>1802.4</ele>
        <time>2022-02-25T15:10:42Z</time>
      </trkpt>
      <trkpt lat="44.81259" lon="6.95604">
        <ele>1802.4</ele>
        <time>2022-02-25T15:10:43Z</time>
      </trkpt>
      <trkpt lat="44.81259" lon="6.95604">
        <ele>1802.4</ele>
        <time>2022-02-25T15:10:44Z</time>
      </trkpt>
      <trkpt lat="44.81259" lon="6.95604">
        <ele>1802.4</ele>
        <time>2022-02-25T15:10:45Z</time>
      </trkpt>
      <trkpt lat="44.81259" lon="6.95604">
        <ele>1802.4</ele>
        <time>2022-02-25T15:10:46Z</time>
      </trkpt>
      <trkpt lat="44.81259" lon="6.95604">
        <ele>1802.4</ele>
        <time>2022-02-25T15:10:47Z</time>
      </trkpt>
      <trkpt lat="44.81257" lon="6.956">
        <ele>1800.6</ele>
        <time>2022-02-25T15:10:48Z</time>
      </trkpt>
      <trkpt lat="44.81257" lon="6.956">
        <ele>1800.6</ele>
        <time>2022-02-25T15:10:49Z</time>
      </trkpt>
      <trkpt lat="44.81257" lon="6.956">
        <ele>1800.6</ele>
        <time>2022-02-25T15:10:50Z</time>
      </trkpt>
      <trkpt lat="44.81257" lon="6.956">
        <ele>1800.6</ele>
        <time>2022-02-25T15:10:51Z</time>
      </trkpt>
      <trkpt lat="44.81257" lon="6.956">
        <ele>1800.6</ele>
        <time>2022-02-25T15:10:52Z</time>
      </trkpt>
      <trkpt lat="44.81257" lon="6.956">
        <ele>1800.6</ele>
        <time>2022-02-25T15:10:53Z</time>
      </trkpt>
      <trkpt lat="44.81257" lon="6.956">
        <ele>1800.6</ele>
        <time>2022-02-25T15:10:54Z</time>
      </trkpt>
      <trkpt lat="44.81257" lon="6.956">
        <ele>1800.6</ele>
        <time>2022-02-25T15:10:55Z</time>
      </trkpt>
      <trkpt lat="44.81257" lon="6.956">
        <ele>1800.6</ele>
        <time>2022-02-25T15:10:56Z</time>
      </trkpt>
      <trkpt lat="44.81257" lon="6.956">
        <ele>1800.6</ele>
        <time>2022-02-25T15:10:57Z</time>
      </trkpt>
      <trkpt lat="44.81257" lon="6.956">
        <ele>1800.6</ele>
        <time>2022-02-25T15:10:58Z</time>
      </trkpt>
      <trkpt lat="44.81257" lon="6.956">
        <ele>1800.6</ele>
        <time>2022-02-25T15:10:59Z</time>
      </trkpt>
      <trkpt lat="44.81257" lon="6.956">
        <ele>1800.6</ele>
        <time>2022-02-25T15:11:00Z</time>
      </trkpt>
      <trkpt lat="44.81257" lon="6.956">
        <ele>1800.6</ele>
        <time>2022-02-25T15:11:01Z</time>
      </trkpt>
      <trkpt lat="44.81257" lon="6.956">
        <ele>1800.6</ele>
        <time>2022-02-25T15:11:02Z</time>
      </trkpt>
      <trkpt lat="44.81258" lon="6.95597">
        <ele>1800.4</ele>
        <time>2022-02-25T15:11:03Z</time>
      </trkpt>
      <trkpt lat="44.81258" lon="6.95597">
        <ele>1800.4</ele>
        <time>2022-02-25T15:11:04Z</time>
      </trkpt>
      <trkpt lat="44.8126" lon="6.95595">
        <ele>1800.8</ele>
        <time>2022-02-25T15:11:05Z</time>
      </trkpt>
      <trkpt lat="44.8126" lon="6.95595">
        <ele>1800.8</ele>
        <time>2022-02-25T15:11:06Z</time>
      </trkpt>
      <trkpt lat="44.81261" lon="6.95592">
        <ele>1800.6</ele>
        <time>2022-02-25T15:11:07Z</time>
      </trkpt>
      <trkpt lat="44.81261" lon="6.95592">
        <ele>1800.6</ele>
        <time>2022-02-25T15:11:08Z</time>
      </trkpt>
      <trkpt lat="44.81262" lon="6.95588">
        <ele>1800.2</ele>
        <time>2022-02-25T15:11:09Z</time>
      </trkpt>
      <trkpt lat="44.81262" lon="6.95588">
        <ele>1800.2</ele>
        <time>2022-02-25T15:11:10Z</time>
      </trkpt>
      <trkpt lat="44.81264" lon="6.95586">
        <ele>1800.6</ele>
        <time>2022-02-25T15:11:11Z</time>
      </trkpt>
      <trkpt lat="44.81264" lon="6.95586">
        <ele>1800.6</ele>
        <time>2022-02-25T15:11:12Z</time>
      </trkpt>
      <trkpt lat="44.81265" lon="6.95584">
        <ele>1800.6</ele>
        <time>2022-02-25T15:11:13Z</time>
      </trkpt>
      <trkpt lat="44.81265" lon="6.95584">
        <ele>1800.6</ele>
        <time>2022-02-25T15:11:14Z</time>
      </trkpt>
      <trkpt lat="44.81267" lon="6.95581">
        <ele>1800.9</ele>
        <time>2022-02-25T15:11:15Z</time>
      </trkpt>
      <trkpt lat="44.81267" lon="6.95581">
        <ele>1800.9</ele>
        <time>2022-02-25T15:11:16Z</time>
      </trkpt>
      <trkpt lat="44.81269" lon="6.95579">
        <ele>1801.3</ele>
        <time>2022-02-25T15:11:17Z</time>
      </trkpt>
      <trkpt lat="44.81269" lon="6.95579">
        <ele>1801.3</ele>
        <time>2022-02-25T15:11:18Z</time>
      </trkpt>
      <trkpt lat="44.8127" lon="6.95576">
        <ele>1801.1</ele>
        <time>2022-02-25T15:11:19Z</time>
      </trkpt>
      <trkpt lat="44.8127" lon="6.95576">
        <ele>1801.1</ele>
        <time>2022-02-25T15:11:20Z</time>
      </trkpt>
      <trkpt lat="44.81272" lon="6.95574">
        <ele>1801.6</ele>
        <time>2022-02-25T15:11:21Z</time>
      </trkpt>
      <trkpt lat="44.81272" lon="6.95574">
        <ele>1801.6</ele>
        <time>2022-02-25T15:11:22Z</time>
      </trkpt>
      <trkpt lat="44.81273" lon="6.95571">
        <ele>1801.3</ele>
        <time>2022-02-25T15:11:23Z</time>
      </trkpt>
      <trkpt lat="44.81273" lon="6.95571">
        <ele>1801.3</ele>
        <time>2022-02-25T15:11:24Z</time>
      </trkpt>
      <trkpt lat="44.81275" lon="6.95569">
        <ele>1801.8</ele>
        <time>2022-02-25T15:11:25Z</time>
      </trkpt>
      <trkpt lat="44.81275" lon="6.95569">
        <ele>1801.8</ele>
        <time>2022-02-25T15:11:26Z</time>
      </trkpt>
      <trkpt lat="44.81277" lon="6.95566">
        <ele>1801.9</ele>
        <time>2022-02-25T15:11:27Z</time>
      </trkpt>
      <trkpt lat="44.81277" lon="6.95566">
        <ele>1801.9</ele>
        <time>2022-02-25T15:11:28Z</time>
      </trkpt>
      <trkpt lat="44.81278" lon="6.95564">
        <ele>1801.9</ele>
        <time>2022-02-25T15:11:29Z</time>
      </trkpt>
      <trkpt lat="44.81278" lon="6.95564">
        <ele>1801.9</ele>
        <time>2022-02-25T15:11:30Z</time>
      </trkpt>
      <trkpt lat="44.8128" lon="6.95561">
        <ele>1802.3</ele>
        <time>2022-02-25T15:11:31Z</time>
      </trkpt>
      <trkpt lat="44.8128" lon="6.95561">
        <ele>1802.3</ele>
        <time>2022-02-25T15:11:32Z</time>
      </trkpt>
      <trkpt lat="44.81281" lon="6.95559">
        <ele>1802.4</ele>
        <time>2022-02-25T15:11:33Z</time>
      </trkpt>
      <trkpt lat="44.81281" lon="6.95559">
        <ele>1802.4</ele>
        <time>2022-02-25T15:11:34Z</time>
      </trkpt>
      <trkpt lat="44.81283" lon="6.95556">
        <ele>1802.7</ele>
        <time>2022-02-25T15:11:35Z</time>
      </trkpt>
      <trkpt lat="44.81283" lon="6.95556">
        <ele>1802.7</ele>
        <time>2022-02-25T15:11:36Z</time>
      </trkpt>
      <trkpt lat="44.81284" lon="6.95553">
        <ele>1802.5</ele>
        <time>2022-02-25T15:11:37Z</time>
      </trkpt>
      <trkpt lat="44.81284" lon="6.95553">
        <ele>1802.5</ele>
        <time>2022-02-25T15:11:38Z</time>
      </trkpt>
      <trkpt lat="44.81286" lon="6.95551">
        <ele>1803</ele>
        <time>2022-02-25T15:11:39Z</time>
      </trkpt>
      <trkpt lat="44.81286" lon="6.95551">
        <ele>1803</ele>
        <time>2022-02-25T15:11:40Z</time>
      </trkpt>
      <trkpt lat="44.81287" lon="6.95548">
        <ele>1802.7</ele>
        <time>2022-02-25T15:11:41Z</time>
      </trkpt>
      <trkpt lat="44.81287" lon="6.95548">
        <ele>1802.7</ele>
        <time>2022-02-25T15:11:42Z</time>
      </trkpt>
      <trkpt lat="44.81288" lon="6.95545">
        <ele>1802.5</ele>
        <time>2022-02-25T15:11:43Z</time>
      </trkpt>
      <trkpt lat="44.81288" lon="6.95545">
        <ele>1802.5</ele>
        <time>2022-02-25T15:11:44Z</time>
      </trkpt>
      <trkpt lat="44.8129" lon="6.95543">
        <ele>1803</ele>
        <time>2022-02-25T15:11:45Z</time>
      </trkpt>
      <trkpt lat="44.8129" lon="6.95543">
        <ele>1803</ele>
        <time>2022-02-25T15:11:46Z</time>
      </trkpt>
      <trkpt lat="44.8129" lon="6.95543">
        <ele>1803</ele>
        <time>2022-02-25T15:11:47Z</time>
      </trkpt>
      <trkpt lat="44.8129" lon="6.95543">
        <ele>1803</ele>
        <time>2022-02-25T15:11:48Z</time>
      </trkpt>
      <trkpt lat="44.8129" lon="6.95543">
        <ele>1803</ele>
        <time>2022-02-25T15:11:49Z</time>
      </trkpt>
      <trkpt lat="44.8129" lon="6.95543">
        <ele>1803</ele>
        <time>2022-02-25T15:11:50Z</time>
      </trkpt>
      <trkpt lat="44.81291" lon="6.9554">
        <ele>1802.7</ele>
        <time>2022-02-25T15:11:51Z</time>
      </trkpt>
      <trkpt lat="44.81291" lon="6.9554">
        <ele>1802.7</ele>
        <time>2022-02-25T15:11:52Z</time>
      </trkpt>
      <trkpt lat="44.81291" lon="6.9554">
        <ele>1802.7</ele>
        <time>2022-02-25T15:11:53Z</time>
      </trkpt>
      <trkpt lat="44.81292" lon="6.95538">
        <ele>1802.7</ele>
        <time>2022-02-25T15:11:54Z</time>
      </trkpt>
      <trkpt lat="44.81292" lon="6.95538">
        <ele>1802.7</ele>
        <time>2022-02-25T15:11:55Z</time>
      </trkpt>
      <trkpt lat="44.81293" lon="6.95535">
        <ele>1802.5</ele>
        <time>2022-02-25T15:11:56Z</time>
      </trkpt>
      <trkpt lat="44.81293" lon="6.95535">
        <ele>1802.5</ele>
        <time>2022-02-25T15:11:57Z</time>
      </trkpt>
      <trkpt lat="44.81293" lon="6.95532">
        <ele>1801.7</ele>
        <time>2022-02-25T15:11:58Z</time>
      </trkpt>
      <trkpt lat="44.81293" lon="6.95532">
        <ele>1801.7</ele>
        <time>2022-02-25T15:11:59Z</time>
      </trkpt>
      <trkpt lat="44.81294" lon="6.95529">
        <ele>1801.5</ele>
        <time>2022-02-25T15:12:00Z</time>
      </trkpt>
      <trkpt lat="44.81294" lon="6.95529">
        <ele>1801.5</ele>
        <time>2022-02-25T15:12:01Z</time>
      </trkpt>
      <trkpt lat="44.81295" lon="6.95527">
        <ele>1801.6</ele>
        <time>2022-02-25T15:12:02Z</time>
      </trkpt>
      <trkpt lat="44.81295" lon="6.95527">
        <ele>1801.6</ele>
        <time>2022-02-25T15:12:03Z</time>
      </trkpt>
      <trkpt lat="44.81296" lon="6.95523">
        <ele>1801.5</ele>
        <time>2022-02-25T15:12:04Z</time>
      </trkpt>
      <trkpt lat="44.81296" lon="6.95523">
        <ele>1801.5</ele>
        <time>2022-02-25T15:12:05Z</time>
      </trkpt>
      <trkpt lat="44.81297" lon="6.95521">
        <ele>1801.7</ele>
        <time>2022-02-25T15:12:06Z</time>
      </trkpt>
      <trkpt lat="44.81297" lon="6.95521">
        <ele>1801.7</ele>
        <time>2022-02-25T15:12:07Z</time>
      </trkpt>
      <trkpt lat="44.81298" lon="6.95518">
        <ele>1801.8</ele>
        <time>2022-02-25T15:12:08Z</time>
      </trkpt>
      <trkpt lat="44.81298" lon="6.95518">
        <ele>1801.8</ele>
        <time>2022-02-25T15:12:09Z</time>
      </trkpt>
      <trkpt lat="44.81299" lon="6.95516">
        <ele>1802</ele>
        <time>2022-02-25T15:12:10Z</time>
      </trkpt>
      <trkpt lat="44.81299" lon="6.95516">
        <ele>1802</ele>
        <time>2022-02-25T15:12:11Z</time>
      </trkpt>
      <trkpt lat="44.813" lon="6.95513">
        <ele>1802.1</ele>
        <time>2022-02-25T15:12:12Z</time>
      </trkpt>
      <trkpt lat="44.813" lon="6.95513">
        <ele>1802.1</ele>
        <time>2022-02-25T15:12:13Z</time>
      </trkpt>
      <trkpt lat="44.81301" lon="6.9551">
        <ele>1802.1</ele>
        <time>2022-02-25T15:12:14Z</time>
      </trkpt>
      <trkpt lat="44.81301" lon="6.9551">
        <ele>1802.1</ele>
        <time>2022-02-25T15:12:15Z</time>
      </trkpt>
      <trkpt lat="44.81301" lon="6.95507">
        <ele>1801.7</ele>
        <time>2022-02-25T15:12:16Z</time>
      </trkpt>
      <trkpt lat="44.81301" lon="6.95507">
        <ele>1801.7</ele>
        <time>2022-02-25T15:12:17Z</time>
      </trkpt>
      <trkpt lat="44.81301" lon="6.95504">
        <ele>1801.3</ele>
        <time>2022-02-25T15:12:18Z</time>
      </trkpt>
      <trkpt lat="44.81301" lon="6.95504">
        <ele>1801.3</ele>
        <time>2022-02-25T15:12:19Z</time>
      </trkpt>
      <trkpt lat="44.81302" lon="6.955">
        <ele>1801.2</ele>
        <time>2022-02-25T15:12:20Z</time>
      </trkpt>
      <trkpt lat="44.81302" lon="6.955">
        <ele>1801.2</ele>
        <time>2022-02-25T15:12:21Z</time>
      </trkpt>
      <trkpt lat="44.81302" lon="6.95497">
        <ele>1800.9</ele>
        <time>2022-02-25T15:12:22Z</time>
      </trkpt>
      <trkpt lat="44.81302" lon="6.95497">
        <ele>1800.9</ele>
        <time>2022-02-25T15:12:23Z</time>
      </trkpt>
      <trkpt lat="44.81303" lon="6.95494">
        <ele>1801</ele>
        <time>2022-02-25T15:12:24Z</time>
      </trkpt>
      <trkpt lat="44.81303" lon="6.95494">
        <ele>1801</ele>
        <time>2022-02-25T15:12:25Z</time>
      </trkpt>
      <trkpt lat="44.81303" lon="6.9549">
        <ele>1800.6</ele>
        <time>2022-02-25T15:12:26Z</time>
      </trkpt>
      <trkpt lat="44.81303" lon="6.9549">
        <ele>1800.6</ele>
        <time>2022-02-25T15:12:27Z</time>
      </trkpt>
      <trkpt lat="44.81304" lon="6.95488">
        <ele>1800.9</ele>
        <time>2022-02-25T15:12:28Z</time>
      </trkpt>
      <trkpt lat="44.81304" lon="6.95488">
        <ele>1800.9</ele>
        <time>2022-02-25T15:12:29Z</time>
      </trkpt>
      <trkpt lat="44.81305" lon="6.95484">
        <ele>1801</ele>
        <time>2022-02-25T15:12:30Z</time>
      </trkpt>
      <trkpt lat="44.81305" lon="6.95484">
        <ele>1801</ele>
        <time>2022-02-25T15:12:31Z</time>
      </trkpt>
      <trkpt lat="44.81306" lon="6.95481">
        <ele>1801.2</ele>
        <time>2022-02-25T15:12:32Z</time>
      </trkpt>
      <trkpt lat="44.81306" lon="6.95481">
        <ele>1801.2</ele>
        <time>2022-02-25T15:12:33Z</time>
      </trkpt>
      <trkpt lat="44.81306" lon="6.95477">
        <ele>1800.7</ele>
        <time>2022-02-25T15:12:34Z</time>
      </trkpt>
      <trkpt lat="44.81307" lon="6.95475">
        <ele>1801</ele>
        <time>2022-02-25T15:12:35Z</time>
      </trkpt>
      <trkpt lat="44.81307" lon="6.95475">
        <ele>1801</ele>
        <time>2022-02-25T15:12:36Z</time>
      </trkpt>
      <trkpt lat="44.81308" lon="6.95472">
        <ele>1801.2</ele>
        <time>2022-02-25T15:12:37Z</time>
      </trkpt>
      <trkpt lat="44.81308" lon="6.95472">
        <ele>1801.2</ele>
        <time>2022-02-25T15:12:38Z</time>
      </trkpt>
      <trkpt lat="44.81309" lon="6.95469">
        <ele>1801.3</ele>
        <time>2022-02-25T15:12:39Z</time>
      </trkpt>
      <trkpt lat="44.81309" lon="6.95469">
        <ele>1801.3</ele>
        <time>2022-02-25T15:12:40Z</time>
      </trkpt>
      <trkpt lat="44.81309" lon="6.95465">
        <ele>1800.7</ele>
        <time>2022-02-25T15:12:41Z</time>
      </trkpt>
      <trkpt lat="44.81309" lon="6.95465">
        <ele>1800.7</ele>
        <time>2022-02-25T15:12:42Z</time>
      </trkpt>
      <trkpt lat="44.81309" lon="6.95462">
        <ele>1800.3</ele>
        <time>2022-02-25T15:12:43Z</time>
      </trkpt>
      <trkpt lat="44.81309" lon="6.95462">
        <ele>1800.3</ele>
        <time>2022-02-25T15:12:44Z</time>
      </trkpt>
      <trkpt lat="44.8131" lon="6.95458">
        <ele>1800.2</ele>
        <time>2022-02-25T15:12:45Z</time>
      </trkpt>
      <trkpt lat="44.8131" lon="6.95458">
        <ele>1800.2</ele>
        <time>2022-02-25T15:12:46Z</time>
      </trkpt>
      <trkpt lat="44.81311" lon="6.95455">
        <ele>1800.3</ele>
        <time>2022-02-25T15:12:47Z</time>
      </trkpt>
      <trkpt lat="44.81311" lon="6.95455">
        <ele>1800.3</ele>
        <time>2022-02-25T15:12:48Z</time>
      </trkpt>
      <trkpt lat="44.81312" lon="6.95452">
        <ele>1800.3</ele>
        <time>2022-02-25T15:12:49Z</time>
      </trkpt>
      <trkpt lat="44.81312" lon="6.95452">
        <ele>1800.3</ele>
        <time>2022-02-25T15:12:50Z</time>
      </trkpt>
      <trkpt lat="44.81313" lon="6.95449">
        <ele>1800.4</ele>
        <time>2022-02-25T15:12:51Z</time>
      </trkpt>
      <trkpt lat="44.81313" lon="6.95449">
        <ele>1800.4</ele>
        <time>2022-02-25T15:12:52Z</time>
      </trkpt>
      <trkpt lat="44.81313" lon="6.95446">
        <ele>1800</ele>
        <time>2022-02-25T15:12:53Z</time>
      </trkpt>
      <trkpt lat="44.81313" lon="6.95446">
        <ele>1800</ele>
        <time>2022-02-25T15:12:54Z</time>
      </trkpt>
      <trkpt lat="44.81315" lon="6.95443">
        <ele>1800.4</ele>
        <time>2022-02-25T15:12:55Z</time>
      </trkpt>
      <trkpt lat="44.81315" lon="6.95443">
        <ele>1800.4</ele>
        <time>2022-02-25T15:12:56Z</time>
      </trkpt>
      <trkpt lat="44.81315" lon="6.95439">
        <ele>1799.5</ele>
        <time>2022-02-25T15:12:57Z</time>
      </trkpt>
      <trkpt lat="44.81315" lon="6.95439">
        <ele>1799.5</ele>
        <time>2022-02-25T15:12:58Z</time>
      </trkpt>
      <trkpt lat="44.81317" lon="6.95436">
        <ele>1799.8</ele>
        <time>2022-02-25T15:12:59Z</time>
      </trkpt>
      <trkpt lat="44.81317" lon="6.95436">
        <ele>1799.8</ele>
        <time>2022-02-25T15:13:00Z</time>
      </trkpt>
      <trkpt lat="44.81317" lon="6.95432">
        <ele>1798.9</ele>
        <time>2022-02-25T15:13:01Z</time>
      </trkpt>
      <trkpt lat="44.81317" lon="6.95432">
        <ele>1798.9</ele>
        <time>2022-02-25T15:13:02Z</time>
      </trkpt>
      <trkpt lat="44.81319" lon="6.95429">
        <ele>1799.2</ele>
        <time>2022-02-25T15:13:03Z</time>
      </trkpt>
      <trkpt lat="44.81319" lon="6.95429">
        <ele>1799.2</ele>
        <time>2022-02-25T15:13:04Z</time>
      </trkpt>
      <trkpt lat="44.8132" lon="6.95426">
        <ele>1799</ele>
        <time>2022-02-25T15:13:05Z</time>
      </trkpt>
      <trkpt lat="44.8132" lon="6.95426">
        <ele>1799</ele>
        <time>2022-02-25T15:13:06Z</time>
      </trkpt>
      <trkpt lat="44.81321" lon="6.95422">
        <ele>1798.5</ele>
        <time>2022-02-25T15:13:07Z</time>
      </trkpt>
      <trkpt lat="44.81321" lon="6.95422">
        <ele>1798.5</ele>
        <time>2022-02-25T15:13:08Z</time>
      </trkpt>
      <trkpt lat="44.81322" lon="6.95419">
        <ele>1798.2</ele>
        <time>2022-02-25T15:13:09Z</time>
      </trkpt>
      <trkpt lat="44.81322" lon="6.95419">
        <ele>1798.2</ele>
        <time>2022-02-25T15:13:10Z</time>
      </trkpt>
      <trkpt lat="44.81323" lon="6.95416">
        <ele>1798</ele>
        <time>2022-02-25T15:13:11Z</time>
      </trkpt>
      <trkpt lat="44.81323" lon="6.95416">
        <ele>1798</ele>
        <time>2022-02-25T15:13:12Z</time>
      </trkpt>
      <trkpt lat="44.81325" lon="6.95413">
        <ele>1798</ele>
        <time>2022-02-25T15:13:13Z</time>
      </trkpt>
      <trkpt lat="44.81325" lon="6.95413">
        <ele>1798</ele>
        <time>2022-02-25T15:13:14Z</time>
      </trkpt>
      <trkpt lat="44.81326" lon="6.9541">
        <ele>1797.5</ele>
        <time>2022-02-25T15:13:15Z</time>
      </trkpt>
      <trkpt lat="44.81326" lon="6.9541">
        <ele>1797.5</ele>
        <time>2022-02-25T15:13:16Z</time>
      </trkpt>
      <trkpt lat="44.81327" lon="6.95407">
        <ele>1797.1</ele>
        <time>2022-02-25T15:13:17Z</time>
      </trkpt>
      <trkpt lat="44.81327" lon="6.95407">
        <ele>1797.1</ele>
        <time>2022-02-25T15:13:18Z</time>
      </trkpt>
      <trkpt lat="44.81329" lon="6.95404">
        <ele>1797</ele>
        <time>2022-02-25T15:13:19Z</time>
      </trkpt>
      <trkpt lat="44.81329" lon="6.95404">
        <ele>1797</ele>
        <time>2022-02-25T15:13:20Z</time>
      </trkpt>
      <trkpt lat="44.81331" lon="6.95401">
        <ele>1796.9</ele>
        <time>2022-02-25T15:13:21Z</time>
      </trkpt>
      <trkpt lat="44.81331" lon="6.95401">
        <ele>1796.9</ele>
        <time>2022-02-25T15:13:22Z</time>
      </trkpt>
      <trkpt lat="44.81332" lon="6.954">
        <ele>1797</ele>
        <time>2022-02-25T15:13:23Z</time>
      </trkpt>
      <trkpt lat="44.81332" lon="6.954">
        <ele>1797</ele>
        <time>2022-02-25T15:13:24Z</time>
      </trkpt>
      <trkpt lat="44.81334" lon="6.95398">
        <ele>1797.2</ele>
        <time>2022-02-25T15:13:25Z</time>
      </trkpt>
      <trkpt lat="44.81334" lon="6.95398">
        <ele>1797.2</ele>
        <time>2022-02-25T15:13:26Z</time>
      </trkpt>
      <trkpt lat="44.81334" lon="6.95398">
        <ele>1797.2</ele>
        <time>2022-02-25T15:13:27Z</time>
      </trkpt>
      <trkpt lat="44.81337" lon="6.95395">
        <ele>1797.6</ele>
        <time>2022-02-25T15:13:28Z</time>
      </trkpt>
      <trkpt lat="44.81337" lon="6.95395">
        <ele>1797.6</ele>
        <time>2022-02-25T15:13:29Z</time>
      </trkpt>
      <trkpt lat="44.8134" lon="6.95394">
        <ele>1798.5</ele>
        <time>2022-02-25T15:13:30Z</time>
      </trkpt>
      <trkpt lat="44.8134" lon="6.95394">
        <ele>1798.5</ele>
        <time>2022-02-25T15:13:31Z</time>
      </trkpt>
      <trkpt lat="44.81341" lon="6.95392">
        <ele>1798.3</ele>
        <time>2022-02-25T15:13:32Z</time>
      </trkpt>
      <trkpt lat="44.81341" lon="6.95392">
        <ele>1798.3</ele>
        <time>2022-02-25T15:13:33Z</time>
      </trkpt>
      <trkpt lat="44.81342" lon="6.95389">
        <ele>1797.8</ele>
        <time>2022-02-25T15:13:34Z</time>
      </trkpt>
      <trkpt lat="44.81342" lon="6.95389">
        <ele>1797.8</ele>
        <time>2022-02-25T15:13:35Z</time>
      </trkpt>
      <trkpt lat="44.81344" lon="6.95386">
        <ele>1797.6</ele>
        <time>2022-02-25T15:13:36Z</time>
      </trkpt>
      <trkpt lat="44.81344" lon="6.95386">
        <ele>1797.6</ele>
        <time>2022-02-25T15:13:37Z</time>
      </trkpt>
      <trkpt lat="44.81346" lon="6.95384">
        <ele>1797.7</ele>
        <time>2022-02-25T15:13:38Z</time>
      </trkpt>
      <trkpt lat="44.81346" lon="6.95384">
        <ele>1797.7</ele>
        <time>2022-02-25T15:13:39Z</time>
      </trkpt>
      <trkpt lat="44.81348" lon="6.95382">
        <ele>1797.9</ele>
        <time>2022-02-25T15:13:40Z</time>
      </trkpt>
      <trkpt lat="44.81348" lon="6.95382">
        <ele>1797.9</ele>
        <time>2022-02-25T15:13:41Z</time>
      </trkpt>
      <trkpt lat="44.8135" lon="6.9538">
        <ele>1798</ele>
        <time>2022-02-25T15:13:42Z</time>
      </trkpt>
      <trkpt lat="44.8135" lon="6.9538">
        <ele>1798</ele>
        <time>2022-02-25T15:13:43Z</time>
      </trkpt>
      <trkpt lat="44.81351" lon="6.95377">
        <ele>1797.4</ele>
        <time>2022-02-25T15:13:44Z</time>
      </trkpt>
      <trkpt lat="44.81351" lon="6.95377">
        <ele>1797.4</ele>
        <time>2022-02-25T15:13:45Z</time>
      </trkpt>
      <trkpt lat="44.81353" lon="6.95374">
        <ele>1797.1</ele>
        <time>2022-02-25T15:13:46Z</time>
      </trkpt>
      <trkpt lat="44.81353" lon="6.95374">
        <ele>1797.1</ele>
        <time>2022-02-25T15:13:47Z</time>
      </trkpt>
      <trkpt lat="44.81355" lon="6.95372">
        <ele>1797.3</ele>
        <time>2022-02-25T15:13:48Z</time>
      </trkpt>
      <trkpt lat="44.81355" lon="6.95372">
        <ele>1797.3</ele>
        <time>2022-02-25T15:13:49Z</time>
      </trkpt>
      <trkpt lat="44.81357" lon="6.95371">
        <ele>1797.8</ele>
        <time>2022-02-25T15:13:50Z</time>
      </trkpt>
      <trkpt lat="44.81357" lon="6.95371">
        <ele>1797.8</ele>
        <time>2022-02-25T15:13:51Z</time>
      </trkpt>
      <trkpt lat="44.81359" lon="6.95368">
        <ele>1797.6</ele>
        <time>2022-02-25T15:13:52Z</time>
      </trkpt>
      <trkpt lat="44.81359" lon="6.95368">
        <ele>1797.6</ele>
        <time>2022-02-25T15:13:53Z</time>
      </trkpt>
      <trkpt lat="44.81361" lon="6.95366">
        <ele>1797.7</ele>
        <time>2022-02-25T15:13:54Z</time>
      </trkpt>
      <trkpt lat="44.81361" lon="6.95366">
        <ele>1797.7</ele>
        <time>2022-02-25T15:13:55Z</time>
      </trkpt>
      <trkpt lat="44.81363" lon="6.95364">
        <ele>1797.8</ele>
        <time>2022-02-25T15:13:56Z</time>
      </trkpt>
      <trkpt lat="44.81363" lon="6.95364">
        <ele>1797.8</ele>
        <time>2022-02-25T15:13:57Z</time>
      </trkpt>
      <trkpt lat="44.81365" lon="6.95363">
        <ele>1798.4</ele>
        <time>2022-02-25T15:13:58Z</time>
      </trkpt>
      <trkpt lat="44.81365" lon="6.95363">
        <ele>1798.4</ele>
        <time>2022-02-25T15:13:59Z</time>
      </trkpt>
      <trkpt lat="44.81367" lon="6.95362">
        <ele>1798.9</ele>
        <time>2022-02-25T15:14:00Z</time>
      </trkpt>
      <trkpt lat="44.81367" lon="6.95362">
        <ele>1798.9</ele>
        <time>2022-02-25T15:14:01Z</time>
      </trkpt>
      <trkpt lat="44.81369" lon="6.9536">
        <ele>1799</ele>
        <time>2022-02-25T15:14:02Z</time>
      </trkpt>
      <trkpt lat="44.81369" lon="6.9536">
        <ele>1799</ele>
        <time>2022-02-25T15:14:03Z</time>
      </trkpt>
      <trkpt lat="44.81371" lon="6.95358">
        <ele>1799.3</ele>
        <time>2022-02-25T15:14:04Z</time>
      </trkpt>
      <trkpt lat="44.81371" lon="6.95358">
        <ele>1799.3</ele>
        <time>2022-02-25T15:14:05Z</time>
      </trkpt>
      <trkpt lat="44.81373" lon="6.95356">
        <ele>1799.5</ele>
        <time>2022-02-25T15:14:06Z</time>
      </trkpt>
      <trkpt lat="44.81373" lon="6.95356">
        <ele>1799.5</ele>
        <time>2022-02-25T15:14:07Z</time>
      </trkpt>
      <trkpt lat="44.81374" lon="6.95353">
        <ele>1798.9</ele>
        <time>2022-02-25T15:14:08Z</time>
      </trkpt>
      <trkpt lat="44.81374" lon="6.95353">
        <ele>1798.9</ele>
        <time>2022-02-25T15:14:09Z</time>
      </trkpt>
      <trkpt lat="44.81375" lon="6.9535">
        <ele>1798.4</ele>
        <time>2022-02-25T15:14:10Z</time>
      </trkpt>
      <trkpt lat="44.81375" lon="6.9535">
        <ele>1798.4</ele>
        <time>2022-02-25T15:14:11Z</time>
      </trkpt>
      <trkpt lat="44.81377" lon="6.95347">
        <ele>1798.3</ele>
        <time>2022-02-25T15:14:12Z</time>
      </trkpt>
      <trkpt lat="44.81377" lon="6.95347">
        <ele>1798.3</ele>
        <time>2022-02-25T15:14:13Z</time>
      </trkpt>
      <trkpt lat="44.81378" lon="6.95344">
        <ele>1797.8</ele>
        <time>2022-02-25T15:14:14Z</time>
      </trkpt>
      <trkpt lat="44.81378" lon="6.95344">
        <ele>1797.8</ele>
        <time>2022-02-25T15:14:15Z</time>
      </trkpt>
      <trkpt lat="44.8138" lon="6.95342">
        <ele>1798</ele>
        <time>2022-02-25T15:14:16Z</time>
      </trkpt>
      <trkpt lat="44.8138" lon="6.95342">
        <ele>1798</ele>
        <time>2022-02-25T15:14:17Z</time>
      </trkpt>
      <trkpt lat="44.81381" lon="6.9534">
        <ele>1797.8</ele>
        <time>2022-02-25T15:14:18Z</time>
      </trkpt>
      <trkpt lat="44.81381" lon="6.9534">
        <ele>1797.8</ele>
        <time>2022-02-25T15:14:19Z</time>
      </trkpt>
      <trkpt lat="44.81383" lon="6.95337">
        <ele>1797.6</ele>
        <time>2022-02-25T15:14:20Z</time>
      </trkpt>
      <trkpt lat="44.81383" lon="6.95337">
        <ele>1797.6</ele>
        <time>2022-02-25T15:14:21Z</time>
      </trkpt>
      <trkpt lat="44.81385" lon="6.95335">
        <ele>1797.9</ele>
        <time>2022-02-25T15:14:22Z</time>
      </trkpt>
      <trkpt lat="44.81385" lon="6.95335">
        <ele>1797.9</ele>
        <time>2022-02-25T15:14:23Z</time>
      </trkpt>
      <trkpt lat="44.81386" lon="6.95332">
        <ele>1797.2</ele>
        <time>2022-02-25T15:14:24Z</time>
      </trkpt>
      <trkpt lat="44.81386" lon="6.95332">
        <ele>1797.2</ele>
        <time>2022-02-25T15:14:25Z</time>
      </trkpt>
      <trkpt lat="44.81387" lon="6.95329">
        <ele>1796.5</ele>
        <time>2022-02-25T15:14:26Z</time>
      </trkpt>
      <trkpt lat="44.81387" lon="6.95329">
        <ele>1796.5</ele>
        <time>2022-02-25T15:14:27Z</time>
      </trkpt>
      <trkpt lat="44.81388" lon="6.95327">
        <ele>1796.1</ele>
        <time>2022-02-25T15:14:28Z</time>
      </trkpt>
      <trkpt lat="44.81388" lon="6.95327">
        <ele>1796.1</ele>
        <time>2022-02-25T15:14:29Z</time>
      </trkpt>
      <trkpt lat="44.81388" lon="6.95327">
        <ele>1796.1</ele>
        <time>2022-02-25T15:14:30Z</time>
      </trkpt>
      <trkpt lat="44.81388" lon="6.95327">
        <ele>1796.1</ele>
        <time>2022-02-25T15:14:31Z</time>
      </trkpt>
      <trkpt lat="44.8139" lon="6.95325">
        <ele>1796.2</ele>
        <time>2022-02-25T15:14:32Z</time>
      </trkpt>
      <trkpt lat="44.8139" lon="6.95325">
        <ele>1796.2</ele>
        <time>2022-02-25T15:14:33Z</time>
      </trkpt>
      <trkpt lat="44.8139" lon="6.95325">
        <ele>1796.2</ele>
        <time>2022-02-25T15:14:34Z</time>
      </trkpt>
      <trkpt lat="44.81391" lon="6.95322">
        <ele>1795.4</ele>
        <time>2022-02-25T15:14:35Z</time>
      </trkpt>
      <trkpt lat="44.81391" lon="6.95322">
        <ele>1795.4</ele>
        <time>2022-02-25T15:14:36Z</time>
      </trkpt>
      <trkpt lat="44.81393" lon="6.9532">
        <ele>1795.4</ele>
        <time>2022-02-25T15:14:37Z</time>
      </trkpt>
      <trkpt lat="44.81393" lon="6.9532">
        <ele>1795.4</ele>
        <time>2022-02-25T15:14:38Z</time>
      </trkpt>
      <trkpt lat="44.81393" lon="6.9532">
        <ele>1795.4</ele>
        <time>2022-02-25T15:14:39Z</time>
      </trkpt>
      <trkpt lat="44.81395" lon="6.95318">
        <ele>1795.5</ele>
        <time>2022-02-25T15:14:40Z</time>
      </trkpt>
      <trkpt lat="44.81395" lon="6.95318">
        <ele>1795.5</ele>
        <time>2022-02-25T15:14:41Z</time>
      </trkpt>
      <trkpt lat="44.81396" lon="6.95315">
        <ele>1794.7</ele>
        <time>2022-02-25T15:14:42Z</time>
      </trkpt>
      <trkpt lat="44.81396" lon="6.95315">
        <ele>1794.7</ele>
        <time>2022-02-25T15:14:43Z</time>
      </trkpt>
      <trkpt lat="44.81398" lon="6.95313">
        <ele>1794.8</ele>
        <time>2022-02-25T15:14:44Z</time>
      </trkpt>
      <trkpt lat="44.81398" lon="6.95313">
        <ele>1794.8</ele>
        <time>2022-02-25T15:14:45Z</time>
      </trkpt>
      <trkpt lat="44.814" lon="6.95311">
        <ele>1794.9</ele>
        <time>2022-02-25T15:14:46Z</time>
      </trkpt>
      <trkpt lat="44.814" lon="6.95311">
        <ele>1794.9</ele>
        <time>2022-02-25T15:14:47Z</time>
      </trkpt>
      <trkpt lat="44.814" lon="6.95311">
        <ele>1794.9</ele>
        <time>2022-02-25T15:14:48Z</time>
      </trkpt>
      <trkpt lat="44.81402" lon="6.95309">
        <ele>1795</ele>
        <time>2022-02-25T15:14:49Z</time>
      </trkpt>
      <trkpt lat="44.81402" lon="6.95309">
        <ele>1795</ele>
        <time>2022-02-25T15:14:50Z</time>
      </trkpt>
      <trkpt lat="44.81402" lon="6.95309">
        <ele>1795</ele>
        <time>2022-02-25T15:14:51Z</time>
      </trkpt>
      <trkpt lat="44.81404" lon="6.95308">
        <ele>1795.4</ele>
        <time>2022-02-25T15:14:52Z</time>
      </trkpt>
      <trkpt lat="44.81404" lon="6.95308">
        <ele>1795.4</ele>
        <time>2022-02-25T15:14:53Z</time>
      </trkpt>
      <trkpt lat="44.81406" lon="6.95306">
        <ele>1795.6</ele>
        <time>2022-02-25T15:14:54Z</time>
      </trkpt>
      <trkpt lat="44.81406" lon="6.95306">
        <ele>1795.6</ele>
        <time>2022-02-25T15:14:55Z</time>
      </trkpt>
      <trkpt lat="44.81406" lon="6.95306">
        <ele>1795.6</ele>
        <time>2022-02-25T15:14:56Z</time>
      </trkpt>
      <trkpt lat="44.81408" lon="6.95303">
        <ele>1795</ele>
        <time>2022-02-25T15:14:57Z</time>
      </trkpt>
      <trkpt lat="44.81408" lon="6.95303">
        <ele>1795</ele>
        <time>2022-02-25T15:14:58Z</time>
      </trkpt>
      <trkpt lat="44.8141" lon="6.95301">
        <ele>1794.9</ele>
        <time>2022-02-25T15:14:59Z</time>
      </trkpt>
      <trkpt lat="44.8141" lon="6.95301">
        <ele>1794.9</ele>
        <time>2022-02-25T15:15:00Z</time>
      </trkpt>
      <trkpt lat="44.81412" lon="6.95299">
        <ele>1794.8</ele>
        <time>2022-02-25T15:15:01Z</time>
      </trkpt>
      <trkpt lat="44.81412" lon="6.95299">
        <ele>1794.8</ele>
        <time>2022-02-25T15:15:02Z</time>
      </trkpt>
      <trkpt lat="44.81414" lon="6.95297">
        <ele>1794.8</ele>
        <time>2022-02-25T15:15:03Z</time>
      </trkpt>
      <trkpt lat="44.81414" lon="6.95297">
        <ele>1794.8</ele>
        <time>2022-02-25T15:15:04Z</time>
      </trkpt>
      <trkpt lat="44.81416" lon="6.95295">
        <ele>1794.8</ele>
        <time>2022-02-25T15:15:05Z</time>
      </trkpt>
      <trkpt lat="44.81416" lon="6.95295">
        <ele>1794.8</ele>
        <time>2022-02-25T15:15:06Z</time>
      </trkpt>
      <trkpt lat="44.81418" lon="6.95292">
        <ele>1794.2</ele>
        <time>2022-02-25T15:15:07Z</time>
      </trkpt>
      <trkpt lat="44.81418" lon="6.95292">
        <ele>1794.2</ele>
        <time>2022-02-25T15:15:08Z</time>
      </trkpt>
      <trkpt lat="44.81419" lon="6.9529">
        <ele>1793.7</ele>
        <time>2022-02-25T15:15:09Z</time>
      </trkpt>
      <trkpt lat="44.81419" lon="6.9529">
        <ele>1793.7</ele>
        <time>2022-02-25T15:15:10Z</time>
      </trkpt>
      <trkpt lat="44.81421" lon="6.95288">
        <ele>1793.7</ele>
        <time>2022-02-25T15:15:11Z</time>
      </trkpt>
      <trkpt lat="44.81421" lon="6.95288">
        <ele>1793.7</ele>
        <time>2022-02-25T15:15:12Z</time>
      </trkpt>
      <trkpt lat="44.81423" lon="6.95287">
        <ele>1794.1</ele>
        <time>2022-02-25T15:15:13Z</time>
      </trkpt>
      <trkpt lat="44.81423" lon="6.95287">
        <ele>1794.1</ele>
        <time>2022-02-25T15:15:14Z</time>
      </trkpt>
      <trkpt lat="44.81424" lon="6.95285">
        <ele>1793.7</ele>
        <time>2022-02-25T15:15:15Z</time>
      </trkpt>
      <trkpt lat="44.81424" lon="6.95285">
        <ele>1793.7</ele>
        <time>2022-02-25T15:15:16Z</time>
      </trkpt>
      <trkpt lat="44.81426" lon="6.95284">
        <ele>1794.1</ele>
        <time>2022-02-25T15:15:17Z</time>
      </trkpt>
      <trkpt lat="44.81426" lon="6.95284">
        <ele>1794.1</ele>
        <time>2022-02-25T15:15:18Z</time>
      </trkpt>
      <trkpt lat="44.81428" lon="6.95281">
        <ele>1793.7</ele>
        <time>2022-02-25T15:15:19Z</time>
      </trkpt>
      <trkpt lat="44.81428" lon="6.95281">
        <ele>1793.7</ele>
        <time>2022-02-25T15:15:20Z</time>
      </trkpt>
      <trkpt lat="44.8143" lon="6.9528">
        <ele>1794.2</ele>
        <time>2022-02-25T15:15:21Z</time>
      </trkpt>
      <trkpt lat="44.8143" lon="6.9528">
        <ele>1794.2</ele>
        <time>2022-02-25T15:15:22Z</time>
      </trkpt>
      <trkpt lat="44.81432" lon="6.95278">
        <ele>1794.3</ele>
        <time>2022-02-25T15:15:23Z</time>
      </trkpt>
      <trkpt lat="44.81432" lon="6.95278">
        <ele>1794.3</ele>
        <time>2022-02-25T15:15:24Z</time>
      </trkpt>
      <trkpt lat="44.81434" lon="6.95276">
        <ele>1794.4</ele>
        <time>2022-02-25T15:15:25Z</time>
      </trkpt>
      <trkpt lat="44.81434" lon="6.95276">
        <ele>1794.4</ele>
        <time>2022-02-25T15:15:26Z</time>
      </trkpt>
      <trkpt lat="44.81436" lon="6.95275">
        <ele>1794.9</ele>
        <time>2022-02-25T15:15:27Z</time>
      </trkpt>
      <trkpt lat="44.81436" lon="6.95275">
        <ele>1794.9</ele>
        <time>2022-02-25T15:15:28Z</time>
      </trkpt>
      <trkpt lat="44.81438" lon="6.95273">
        <ele>1795.1</ele>
        <time>2022-02-25T15:15:29Z</time>
      </trkpt>
      <trkpt lat="44.81438" lon="6.95273">
        <ele>1795.1</ele>
        <time>2022-02-25T15:15:30Z</time>
      </trkpt>
      <trkpt lat="44.81438" lon="6.95273">
        <ele>1795.1</ele>
        <time>2022-02-25T15:15:31Z</time>
      </trkpt>
      <trkpt lat="44.81441" lon="6.95271">
        <ele>1795.7</ele>
        <time>2022-02-25T15:15:32Z</time>
      </trkpt>
      <trkpt lat="44.81441" lon="6.95271">
        <ele>1795.7</ele>
        <time>2022-02-25T15:15:33Z</time>
      </trkpt>
      <trkpt lat="44.81443" lon="6.9527">
        <ele>1796.2</ele>
        <time>2022-02-25T15:15:34Z</time>
      </trkpt>
      <trkpt lat="44.81443" lon="6.9527">
        <ele>1796.2</ele>
        <time>2022-02-25T15:15:35Z</time>
      </trkpt>
      <trkpt lat="44.81445" lon="6.95269">
        <ele>1796.8</ele>
        <time>2022-02-25T15:15:36Z</time>
      </trkpt>
      <trkpt lat="44.81445" lon="6.95269">
        <ele>1796.8</ele>
        <time>2022-02-25T15:15:37Z</time>
      </trkpt>
      <trkpt lat="44.81447" lon="6.95267">
        <ele>1796.9</ele>
        <time>2022-02-25T15:15:38Z</time>
      </trkpt>
      <trkpt lat="44.81447" lon="6.95267">
        <ele>1796.9</ele>
        <time>2022-02-25T15:15:39Z</time>
      </trkpt>
      <trkpt lat="44.81449" lon="6.95266">
        <ele>1797.4</ele>
        <time>2022-02-25T15:15:40Z</time>
      </trkpt>
      <trkpt lat="44.81449" lon="6.95266">
        <ele>1797.4</ele>
        <time>2022-02-25T15:15:41Z</time>
      </trkpt>
      <trkpt lat="44.81451" lon="6.95265">
        <ele>1798</ele>
        <time>2022-02-25T15:15:42Z</time>
      </trkpt>
      <trkpt lat="44.81451" lon="6.95265">
        <ele>1798</ele>
        <time>2022-02-25T15:15:43Z</time>
      </trkpt>
      <trkpt lat="44.81453" lon="6.95263">
        <ele>1798.2</ele>
        <time>2022-02-25T15:15:44Z</time>
      </trkpt>
      <trkpt lat="44.81453" lon="6.95263">
        <ele>1798.2</ele>
        <time>2022-02-25T15:15:45Z</time>
      </trkpt>
      <trkpt lat="44.81454" lon="6.95259">
        <ele>1797.3</ele>
        <time>2022-02-25T15:15:46Z</time>
      </trkpt>
      <trkpt lat="44.81454" lon="6.95259">
        <ele>1797.3</ele>
        <time>2022-02-25T15:15:47Z</time>
      </trkpt>
      <trkpt lat="44.81456" lon="6.95257">
        <ele>1797.6</ele>
        <time>2022-02-25T15:15:48Z</time>
      </trkpt>
      <trkpt lat="44.81456" lon="6.95257">
        <ele>1797.6</ele>
        <time>2022-02-25T15:15:49Z</time>
      </trkpt>
      <trkpt lat="44.81458" lon="6.95255">
        <ele>1797.9</ele>
        <time>2022-02-25T15:15:50Z</time>
      </trkpt>
      <trkpt lat="44.81458" lon="6.95255">
        <ele>1797.9</ele>
        <time>2022-02-25T15:15:51Z</time>
      </trkpt>
      <trkpt lat="44.81459" lon="6.95252">
        <ele>1797.5</ele>
        <time>2022-02-25T15:15:52Z</time>
      </trkpt>
      <trkpt lat="44.81459" lon="6.95252">
        <ele>1797.5</ele>
        <time>2022-02-25T15:15:53Z</time>
      </trkpt>
      <trkpt lat="44.8146" lon="6.9525">
        <ele>1797.4</ele>
        <time>2022-02-25T15:15:54Z</time>
      </trkpt>
      <trkpt lat="44.8146" lon="6.9525">
        <ele>1797.4</ele>
        <time>2022-02-25T15:15:55Z</time>
      </trkpt>
      <trkpt lat="44.81461" lon="6.95247">
        <ele>1797.1</ele>
        <time>2022-02-25T15:15:56Z</time>
      </trkpt>
      <trkpt lat="44.81461" lon="6.95247">
        <ele>1797.1</ele>
        <time>2022-02-25T15:15:57Z</time>
      </trkpt>
      <trkpt lat="44.81461" lon="6.95244">
        <ele>1796.3</ele>
        <time>2022-02-25T15:15:58Z</time>
      </trkpt>
      <trkpt lat="44.81461" lon="6.95244">
        <ele>1796.3</ele>
        <time>2022-02-25T15:15:59Z</time>
      </trkpt>
      <trkpt lat="44.81462" lon="6.95241">
        <ele>1796.1</ele>
        <time>2022-02-25T15:16:00Z</time>
      </trkpt>
      <trkpt lat="44.81462" lon="6.95241">
        <ele>1796.1</ele>
        <time>2022-02-25T15:16:01Z</time>
      </trkpt>
      <trkpt lat="44.81462" lon="6.95238">
        <ele>1795.3</ele>
        <time>2022-02-25T15:16:02Z</time>
      </trkpt>
      <trkpt lat="44.81462" lon="6.95238">
        <ele>1795.3</ele>
        <time>2022-02-25T15:16:03Z</time>
      </trkpt>
      <trkpt lat="44.81463" lon="6.95235">
        <ele>1795.1</ele>
        <time>2022-02-25T15:16:04Z</time>
      </trkpt>
      <trkpt lat="44.81463" lon="6.95235">
        <ele>1795.1</ele>
        <time>2022-02-25T15:16:05Z</time>
      </trkpt>
      <trkpt lat="44.81464" lon="6.95232">
        <ele>1794.8</ele>
        <time>2022-02-25T15:16:06Z</time>
      </trkpt>
      <trkpt lat="44.81464" lon="6.95232">
        <ele>1794.8</ele>
        <time>2022-02-25T15:16:07Z</time>
      </trkpt>
      <trkpt lat="44.81465" lon="6.95229">
        <ele>1794.6</ele>
        <time>2022-02-25T15:16:08Z</time>
      </trkpt>
      <trkpt lat="44.81465" lon="6.95229">
        <ele>1794.6</ele>
        <time>2022-02-25T15:16:09Z</time>
      </trkpt>
      <trkpt lat="44.81466" lon="6.95226">
        <ele>1794.4</ele>
        <time>2022-02-25T15:16:10Z</time>
      </trkpt>
      <trkpt lat="44.81466" lon="6.95226">
        <ele>1794.4</ele>
        <time>2022-02-25T15:16:11Z</time>
      </trkpt>
      <trkpt lat="44.81467" lon="6.95222">
        <ele>1793.9</ele>
        <time>2022-02-25T15:16:12Z</time>
      </trkpt>
      <trkpt lat="44.81467" lon="6.95222">
        <ele>1793.9</ele>
        <time>2022-02-25T15:16:13Z</time>
      </trkpt>
      <trkpt lat="44.81468" lon="6.9522">
        <ele>1794</ele>
        <time>2022-02-25T15:16:14Z</time>
      </trkpt>
      <trkpt lat="44.81468" lon="6.9522">
        <ele>1794</ele>
        <time>2022-02-25T15:16:15Z</time>
      </trkpt>
      <trkpt lat="44.81469" lon="6.95216">
        <ele>1793.4</ele>
        <time>2022-02-25T15:16:16Z</time>
      </trkpt>
      <trkpt lat="44.81469" lon="6.95216">
        <ele>1793.4</ele>
        <time>2022-02-25T15:16:17Z</time>
      </trkpt>
      <trkpt lat="44.8147" lon="6.95213">
        <ele>1793.1</ele>
        <time>2022-02-25T15:16:18Z</time>
      </trkpt>
      <trkpt lat="44.8147" lon="6.95213">
        <ele>1793.1</ele>
        <time>2022-02-25T15:16:19Z</time>
      </trkpt>
      <trkpt lat="44.81472" lon="6.95211">
        <ele>1793.6</ele>
        <time>2022-02-25T15:16:20Z</time>
      </trkpt>
      <trkpt lat="44.81472" lon="6.95211">
        <ele>1793.6</ele>
        <time>2022-02-25T15:16:21Z</time>
      </trkpt>
      <trkpt lat="44.81473" lon="6.95208">
        <ele>1793.2</ele>
        <time>2022-02-25T15:16:22Z</time>
      </trkpt>
      <trkpt lat="44.81473" lon="6.95208">
        <ele>1793.2</ele>
        <time>2022-02-25T15:16:23Z</time>
      </trkpt>
      <trkpt lat="44.81475" lon="6.95206">
        <ele>1793.3</ele>
        <time>2022-02-25T15:16:24Z</time>
      </trkpt>
      <trkpt lat="44.81475" lon="6.95206">
        <ele>1793.3</ele>
        <time>2022-02-25T15:16:25Z</time>
      </trkpt>
      <trkpt lat="44.81476" lon="6.95203">
        <ele>1792.7</ele>
        <time>2022-02-25T15:16:26Z</time>
      </trkpt>
      <trkpt lat="44.81476" lon="6.95203">
        <ele>1792.7</ele>
        <time>2022-02-25T15:16:27Z</time>
      </trkpt>
      <trkpt lat="44.81478" lon="6.95201">
        <ele>1792.7</ele>
        <time>2022-02-25T15:16:28Z</time>
      </trkpt>
      <trkpt lat="44.81478" lon="6.95201">
        <ele>1792.7</ele>
        <time>2022-02-25T15:16:29Z</time>
      </trkpt>
      <trkpt lat="44.8148" lon="6.95199">
        <ele>1792.7</ele>
        <time>2022-02-25T15:16:30Z</time>
      </trkpt>
      <trkpt lat="44.8148" lon="6.95199">
        <ele>1792.7</ele>
        <time>2022-02-25T15:16:31Z</time>
      </trkpt>
      <trkpt lat="44.81482" lon="6.95198">
        <ele>1793</ele>
        <time>2022-02-25T15:16:32Z</time>
      </trkpt>
      <trkpt lat="44.81482" lon="6.95198">
        <ele>1793</ele>
        <time>2022-02-25T15:16:33Z</time>
      </trkpt>
      <trkpt lat="44.81484" lon="6.95196">
        <ele>1792.9</ele>
        <time>2022-02-25T15:16:34Z</time>
      </trkpt>
      <trkpt lat="44.81484" lon="6.95196">
        <ele>1792.9</ele>
        <time>2022-02-25T15:16:35Z</time>
      </trkpt>
      <trkpt lat="44.81485" lon="6.95194">
        <ele>1792.5</ele>
        <time>2022-02-25T15:16:36Z</time>
      </trkpt>
      <trkpt lat="44.81485" lon="6.95194">
        <ele>1792.5</ele>
        <time>2022-02-25T15:16:37Z</time>
      </trkpt>
      <trkpt lat="44.81487" lon="6.95192">
        <ele>1792.4</ele>
        <time>2022-02-25T15:16:38Z</time>
      </trkpt>
      <trkpt lat="44.81487" lon="6.95192">
        <ele>1792.4</ele>
        <time>2022-02-25T15:16:39Z</time>
      </trkpt>
      <trkpt lat="44.81489" lon="6.9519">
        <ele>1792.3</ele>
        <time>2022-02-25T15:16:40Z</time>
      </trkpt>
      <trkpt lat="44.81489" lon="6.9519">
        <ele>1792.3</ele>
        <time>2022-02-25T15:16:41Z</time>
      </trkpt>
      <trkpt lat="44.81491" lon="6.95187">
        <ele>1791.8</ele>
        <time>2022-02-25T15:16:42Z</time>
      </trkpt>
      <trkpt lat="44.81491" lon="6.95187">
        <ele>1791.8</ele>
        <time>2022-02-25T15:16:43Z</time>
      </trkpt>
      <trkpt lat="44.81492" lon="6.95185">
        <ele>1791.4</ele>
        <time>2022-02-25T15:16:44Z</time>
      </trkpt>
      <trkpt lat="44.81492" lon="6.95185">
        <ele>1791.4</ele>
        <time>2022-02-25T15:16:45Z</time>
      </trkpt>
      <trkpt lat="44.81494" lon="6.95184">
        <ele>1791.6</ele>
        <time>2022-02-25T15:16:46Z</time>
      </trkpt>
      <trkpt lat="44.81494" lon="6.95184">
        <ele>1791.6</ele>
        <time>2022-02-25T15:16:47Z</time>
      </trkpt>
      <trkpt lat="44.81496" lon="6.95182">
        <ele>1791.4</ele>
        <time>2022-02-25T15:16:48Z</time>
      </trkpt>
      <trkpt lat="44.81496" lon="6.95182">
        <ele>1791.4</ele>
        <time>2022-02-25T15:16:49Z</time>
      </trkpt>
      <trkpt lat="44.81498" lon="6.9518">
        <ele>1791.3</ele>
        <time>2022-02-25T15:16:50Z</time>
      </trkpt>
      <trkpt lat="44.81498" lon="6.9518">
        <ele>1791.3</ele>
        <time>2022-02-25T15:16:51Z</time>
      </trkpt>
      <trkpt lat="44.815" lon="6.95178">
        <ele>1791.1</ele>
        <time>2022-02-25T15:16:52Z</time>
      </trkpt>
      <trkpt lat="44.815" lon="6.95178">
        <ele>1791.1</ele>
        <time>2022-02-25T15:16:53Z</time>
      </trkpt>
      <trkpt lat="44.81502" lon="6.95176">
        <ele>1790.9</ele>
        <time>2022-02-25T15:16:54Z</time>
      </trkpt>
      <trkpt lat="44.81502" lon="6.95176">
        <ele>1790.9</ele>
        <time>2022-02-25T15:16:55Z</time>
      </trkpt>
      <trkpt lat="44.81504" lon="6.95174">
        <ele>1790.6</ele>
        <time>2022-02-25T15:16:56Z</time>
      </trkpt>
      <trkpt lat="44.81504" lon="6.95174">
        <ele>1790.6</ele>
        <time>2022-02-25T15:16:57Z</time>
      </trkpt>
      <trkpt lat="44.81506" lon="6.95172">
        <ele>1790.4</ele>
        <time>2022-02-25T15:16:58Z</time>
      </trkpt>
      <trkpt lat="44.81506" lon="6.95172">
        <ele>1790.4</ele>
        <time>2022-02-25T15:16:59Z</time>
      </trkpt>
      <trkpt lat="44.81508" lon="6.9517">
        <ele>1790.2</ele>
        <time>2022-02-25T15:17:00Z</time>
      </trkpt>
      <trkpt lat="44.81508" lon="6.9517">
        <ele>1790.2</ele>
        <time>2022-02-25T15:17:01Z</time>
      </trkpt>
      <trkpt lat="44.81509" lon="6.95168">
        <ele>1789.7</ele>
        <time>2022-02-25T15:17:02Z</time>
      </trkpt>
      <trkpt lat="44.81509" lon="6.95168">
        <ele>1789.7</ele>
        <time>2022-02-25T15:17:03Z</time>
      </trkpt>
      <trkpt lat="44.81511" lon="6.95167">
        <ele>1789.9</ele>
        <time>2022-02-25T15:17:04Z</time>
      </trkpt>
      <trkpt lat="44.81511" lon="6.95167">
        <ele>1789.9</ele>
        <time>2022-02-25T15:17:05Z</time>
      </trkpt>
      <trkpt lat="44.81513" lon="6.95165">
        <ele>1789.8</ele>
        <time>2022-02-25T15:17:06Z</time>
      </trkpt>
      <trkpt lat="44.81513" lon="6.95165">
        <ele>1789.8</ele>
        <time>2022-02-25T15:17:07Z</time>
      </trkpt>
      <trkpt lat="44.81515" lon="6.95163">
        <ele>1789.8</ele>
        <time>2022-02-25T15:17:08Z</time>
      </trkpt>
      <trkpt lat="44.81515" lon="6.95163">
        <ele>1789.8</ele>
        <time>2022-02-25T15:17:09Z</time>
      </trkpt>
      <trkpt lat="44.81517" lon="6.95161">
        <ele>1789.8</ele>
        <time>2022-02-25T15:17:10Z</time>
      </trkpt>
      <trkpt lat="44.81517" lon="6.95161">
        <ele>1789.8</ele>
        <time>2022-02-25T15:17:11Z</time>
      </trkpt>
      <trkpt lat="44.81519" lon="6.95159">
        <ele>1789.9</ele>
        <time>2022-02-25T15:17:12Z</time>
      </trkpt>
      <trkpt lat="44.81519" lon="6.95159">
        <ele>1789.9</ele>
        <time>2022-02-25T15:17:13Z</time>
      </trkpt>
      <trkpt lat="44.81521" lon="6.95158">
        <ele>1790.2</ele>
        <time>2022-02-25T15:17:14Z</time>
      </trkpt>
      <trkpt lat="44.81521" lon="6.95158">
        <ele>1790.2</ele>
        <time>2022-02-25T15:17:15Z</time>
      </trkpt>
      <trkpt lat="44.81523" lon="6.95155">
        <ele>1790.1</ele>
        <time>2022-02-25T15:17:16Z</time>
      </trkpt>
      <trkpt lat="44.81523" lon="6.95155">
        <ele>1790.1</ele>
        <time>2022-02-25T15:17:17Z</time>
      </trkpt>
      <trkpt lat="44.81524" lon="6.95153">
        <ele>1789.9</ele>
        <time>2022-02-25T15:17:18Z</time>
      </trkpt>
      <trkpt lat="44.81524" lon="6.95153">
        <ele>1789.9</ele>
        <time>2022-02-25T15:17:19Z</time>
      </trkpt>
      <trkpt lat="44.81525" lon="6.9515">
        <ele>1789.5</ele>
        <time>2022-02-25T15:17:20Z</time>
      </trkpt>
      <trkpt lat="44.81525" lon="6.9515">
        <ele>1789.5</ele>
        <time>2022-02-25T15:17:21Z</time>
      </trkpt>
      <trkpt lat="44.81525" lon="6.9515">
        <ele>1789.5</ele>
        <time>2022-02-25T15:17:22Z</time>
      </trkpt>
      <trkpt lat="44.81526" lon="6.95147">
        <ele>1789.2</ele>
        <time>2022-02-25T15:17:23Z</time>
      </trkpt>
      <trkpt lat="44.81526" lon="6.95147">
        <ele>1789.2</ele>
        <time>2022-02-25T15:17:24Z</time>
      </trkpt>
      <trkpt lat="44.81527" lon="6.95145">
        <ele>1789.1</ele>
        <time>2022-02-25T15:17:25Z</time>
      </trkpt>
      <trkpt lat="44.81527" lon="6.95145">
        <ele>1789.1</ele>
        <time>2022-02-25T15:17:26Z</time>
      </trkpt>
      <trkpt lat="44.81527" lon="6.95142">
        <ele>1788.4</ele>
        <time>2022-02-25T15:17:27Z</time>
      </trkpt>
      <trkpt lat="44.81527" lon="6.95142">
        <ele>1788.4</ele>
        <time>2022-02-25T15:17:28Z</time>
      </trkpt>
      <trkpt lat="44.81527" lon="6.95138">
        <ele>1787.6</ele>
        <time>2022-02-25T15:17:29Z</time>
      </trkpt>
      <trkpt lat="44.81527" lon="6.95138">
        <ele>1787.6</ele>
        <time>2022-02-25T15:17:30Z</time>
      </trkpt>
      <trkpt lat="44.81527" lon="6.95135">
        <ele>1787</ele>
        <time>2022-02-25T15:17:31Z</time>
      </trkpt>
      <trkpt lat="44.81527" lon="6.95135">
        <ele>1787</ele>
        <time>2022-02-25T15:17:32Z</time>
      </trkpt>
      <trkpt lat="44.81528" lon="6.95131">
        <ele>1786.7</ele>
        <time>2022-02-25T15:17:33Z</time>
      </trkpt>
      <trkpt lat="44.81528" lon="6.95131">
        <ele>1786.7</ele>
        <time>2022-02-25T15:17:34Z</time>
      </trkpt>
      <trkpt lat="44.81528" lon="6.95129">
        <ele>1786.3</ele>
        <time>2022-02-25T15:17:35Z</time>
      </trkpt>
      <trkpt lat="44.81528" lon="6.95129">
        <ele>1786.3</ele>
        <time>2022-02-25T15:17:36Z</time>
      </trkpt>
      <trkpt lat="44.81528" lon="6.95125">
        <ele>1785.6</ele>
        <time>2022-02-25T15:17:37Z</time>
      </trkpt>
      <trkpt lat="44.81528" lon="6.95125">
        <ele>1785.6</ele>
        <time>2022-02-25T15:17:38Z</time>
      </trkpt>
      <trkpt lat="44.81528" lon="6.95122">
        <ele>1785.1</ele>
        <time>2022-02-25T15:17:39Z</time>
      </trkpt>
      <trkpt lat="44.81528" lon="6.95122">
        <ele>1785.1</ele>
        <time>2022-02-25T15:17:40Z</time>
      </trkpt>
      <trkpt lat="44.81528" lon="6.95118">
        <ele>1784.4</ele>
        <time>2022-02-25T15:17:41Z</time>
      </trkpt>
      <trkpt lat="44.81528" lon="6.95118">
        <ele>1784.4</ele>
        <time>2022-02-25T15:17:42Z</time>
      </trkpt>
      <trkpt lat="44.81529" lon="6.95115">
        <ele>1784.4</ele>
        <time>2022-02-25T15:17:43Z</time>
      </trkpt>
      <trkpt lat="44.81529" lon="6.95115">
        <ele>1784.4</ele>
        <time>2022-02-25T15:17:44Z</time>
      </trkpt>
      <trkpt lat="44.81529" lon="6.95112">
        <ele>1783.8</ele>
        <time>2022-02-25T15:17:45Z</time>
      </trkpt>
      <trkpt lat="44.81529" lon="6.95112">
        <ele>1783.8</ele>
        <time>2022-02-25T15:17:46Z</time>
      </trkpt>
      <trkpt lat="44.8153" lon="6.95109">
        <ele>1783.9</ele>
        <time>2022-02-25T15:17:47Z</time>
      </trkpt>
      <trkpt lat="44.8153" lon="6.95109">
        <ele>1783.9</ele>
        <time>2022-02-25T15:17:48Z</time>
      </trkpt>
      <trkpt lat="44.8153" lon="6.95105">
        <ele>1783.3</ele>
        <time>2022-02-25T15:17:49Z</time>
      </trkpt>
      <trkpt lat="44.8153" lon="6.95105">
        <ele>1783.3</ele>
        <time>2022-02-25T15:17:50Z</time>
      </trkpt>
      <trkpt lat="44.81531" lon="6.95102">
        <ele>1783.4</ele>
        <time>2022-02-25T15:17:51Z</time>
      </trkpt>
      <trkpt lat="44.81531" lon="6.95102">
        <ele>1783.4</ele>
        <time>2022-02-25T15:17:52Z</time>
      </trkpt>
      <trkpt lat="44.81532" lon="6.95099">
        <ele>1783.4</ele>
        <time>2022-02-25T15:17:53Z</time>
      </trkpt>
      <trkpt lat="44.81532" lon="6.95099">
        <ele>1783.4</ele>
        <time>2022-02-25T15:17:54Z</time>
      </trkpt>
      <trkpt lat="44.81532" lon="6.95097">
        <ele>1783.1</ele>
        <time>2022-02-25T15:17:55Z</time>
      </trkpt>
      <trkpt lat="44.81532" lon="6.95097">
        <ele>1783.1</ele>
        <time>2022-02-25T15:17:56Z</time>
      </trkpt>
      <trkpt lat="44.81533" lon="6.95093">
        <ele>1783</ele>
        <time>2022-02-25T15:17:57Z</time>
      </trkpt>
      <trkpt lat="44.81533" lon="6.95093">
        <ele>1783</ele>
        <time>2022-02-25T15:17:58Z</time>
      </trkpt>
      <trkpt lat="44.81534" lon="6.9509">
        <ele>1783</ele>
        <time>2022-02-25T15:17:59Z</time>
      </trkpt>
      <trkpt lat="44.81534" lon="6.9509">
        <ele>1783</ele>
        <time>2022-02-25T15:18:00Z</time>
      </trkpt>
      <trkpt lat="44.81534" lon="6.95087">
        <ele>1782.5</ele>
        <time>2022-02-25T15:18:01Z</time>
      </trkpt>
      <trkpt lat="44.81534" lon="6.95087">
        <ele>1782.5</ele>
        <time>2022-02-25T15:18:02Z</time>
      </trkpt>
      <trkpt lat="44.81535" lon="6.95084">
        <ele>1782.5</ele>
        <time>2022-02-25T15:18:03Z</time>
      </trkpt>
      <trkpt lat="44.81535" lon="6.95084">
        <ele>1782.5</ele>
        <time>2022-02-25T15:18:04Z</time>
      </trkpt>
      <trkpt lat="44.81535" lon="6.95081">
        <ele>1782.1</ele>
        <time>2022-02-25T15:18:05Z</time>
      </trkpt>
      <trkpt lat="44.81535" lon="6.95081">
        <ele>1782.1</ele>
        <time>2022-02-25T15:18:06Z</time>
      </trkpt>
      <trkpt lat="44.81536" lon="6.95078">
        <ele>1782.1</ele>
        <time>2022-02-25T15:18:07Z</time>
      </trkpt>
      <trkpt lat="44.81536" lon="6.95078">
        <ele>1782.1</ele>
        <time>2022-02-25T15:18:08Z</time>
      </trkpt>
      <trkpt lat="44.81536" lon="6.95074">
        <ele>1781.6</ele>
        <time>2022-02-25T15:18:09Z</time>
      </trkpt>
      <trkpt lat="44.81536" lon="6.95074">
        <ele>1781.6</ele>
        <time>2022-02-25T15:18:10Z</time>
      </trkpt>
      <trkpt lat="44.81536" lon="6.95071">
        <ele>1781.2</ele>
        <time>2022-02-25T15:18:11Z</time>
      </trkpt>
      <trkpt lat="44.81536" lon="6.95071">
        <ele>1781.2</ele>
        <time>2022-02-25T15:18:12Z</time>
      </trkpt>
      <trkpt lat="44.81537" lon="6.95067">
        <ele>1781.2</ele>
        <time>2022-02-25T15:18:13Z</time>
      </trkpt>
      <trkpt lat="44.81537" lon="6.95067">
        <ele>1781.2</ele>
        <time>2022-02-25T15:18:14Z</time>
      </trkpt>
      <trkpt lat="44.81537" lon="6.95064">
        <ele>1780.8</ele>
        <time>2022-02-25T15:18:15Z</time>
      </trkpt>
      <trkpt lat="44.81537" lon="6.95064">
        <ele>1780.8</ele>
        <time>2022-02-25T15:18:16Z</time>
      </trkpt>
      <trkpt lat="44.81537" lon="6.9506">
        <ele>1780.2</ele>
        <time>2022-02-25T15:18:17Z</time>
      </trkpt>
      <trkpt lat="44.81537" lon="6.9506">
        <ele>1780.2</ele>
        <time>2022-02-25T15:18:18Z</time>
      </trkpt>
      <trkpt lat="44.81538" lon="6.95057">
        <ele>1780.3</ele>
        <time>2022-02-25T15:18:19Z</time>
      </trkpt>
      <trkpt lat="44.81538" lon="6.95057">
        <ele>1780.3</ele>
        <time>2022-02-25T15:18:20Z</time>
      </trkpt>
      <trkpt lat="44.81538" lon="6.95054">
        <ele>1779.9</ele>
        <time>2022-02-25T15:18:21Z</time>
      </trkpt>
      <trkpt lat="44.81538" lon="6.95054">
        <ele>1779.9</ele>
        <time>2022-02-25T15:18:22Z</time>
      </trkpt>
      <trkpt lat="44.81539" lon="6.95051">
        <ele>1780.1</ele>
        <time>2022-02-25T15:18:23Z</time>
      </trkpt>
      <trkpt lat="44.81539" lon="6.95051">
        <ele>1780.1</ele>
        <time>2022-02-25T15:18:24Z</time>
      </trkpt>
      <trkpt lat="44.8154" lon="6.95048">
        <ele>1780.2</ele>
        <time>2022-02-25T15:18:25Z</time>
      </trkpt>
      <trkpt lat="44.8154" lon="6.95048">
        <ele>1780.2</ele>
        <time>2022-02-25T15:18:26Z</time>
      </trkpt>
      <trkpt lat="44.81541" lon="6.95045">
        <ele>1780.3</ele>
        <time>2022-02-25T15:18:27Z</time>
      </trkpt>
      <trkpt lat="44.81541" lon="6.95045">
        <ele>1780.3</ele>
        <time>2022-02-25T15:18:28Z</time>
      </trkpt>
      <trkpt lat="44.81541" lon="6.95042">
        <ele>1779.9</ele>
        <time>2022-02-25T15:18:29Z</time>
      </trkpt>
      <trkpt lat="44.81541" lon="6.95042">
        <ele>1779.9</ele>
        <time>2022-02-25T15:18:30Z</time>
      </trkpt>
      <trkpt lat="44.81542" lon="6.95039">
        <ele>1780.1</ele>
        <time>2022-02-25T15:18:31Z</time>
      </trkpt>
      <trkpt lat="44.81542" lon="6.95039">
        <ele>1780.1</ele>
        <time>2022-02-25T15:18:32Z</time>
      </trkpt>
      <trkpt lat="44.81542" lon="6.95036">
        <ele>1779.7</ele>
        <time>2022-02-25T15:18:33Z</time>
      </trkpt>
      <trkpt lat="44.81542" lon="6.95036">
        <ele>1779.7</ele>
        <time>2022-02-25T15:18:34Z</time>
      </trkpt>
      <trkpt lat="44.81543" lon="6.95033">
        <ele>1779.9</ele>
        <time>2022-02-25T15:18:35Z</time>
      </trkpt>
      <trkpt lat="44.81543" lon="6.95033">
        <ele>1779.9</ele>
        <time>2022-02-25T15:18:36Z</time>
      </trkpt>
      <trkpt lat="44.81543" lon="6.95029">
        <ele>1779.4</ele>
        <time>2022-02-25T15:18:37Z</time>
      </trkpt>
      <trkpt lat="44.81543" lon="6.95029">
        <ele>1779.4</ele>
        <time>2022-02-25T15:18:38Z</time>
      </trkpt>
      <trkpt lat="44.81543" lon="6.95026">
        <ele>1779</ele>
        <time>2022-02-25T15:18:39Z</time>
      </trkpt>
      <trkpt lat="44.81543" lon="6.95026">
        <ele>1779</ele>
        <time>2022-02-25T15:18:40Z</time>
      </trkpt>
      <trkpt lat="44.81544" lon="6.95022">
        <ele>1778.9</ele>
        <time>2022-02-25T15:18:41Z</time>
      </trkpt>
      <trkpt lat="44.81544" lon="6.95022">
        <ele>1778.9</ele>
        <time>2022-02-25T15:18:42Z</time>
      </trkpt>
      <trkpt lat="44.81545" lon="6.95019">
        <ele>1779</ele>
        <time>2022-02-25T15:18:43Z</time>
      </trkpt>
      <trkpt lat="44.81545" lon="6.95019">
        <ele>1779</ele>
        <time>2022-02-25T15:18:44Z</time>
      </trkpt>
      <trkpt lat="44.81545" lon="6.95016">
        <ele>1778.6</ele>
        <time>2022-02-25T15:18:45Z</time>
      </trkpt>
      <trkpt lat="44.81545" lon="6.95016">
        <ele>1778.6</ele>
        <time>2022-02-25T15:18:46Z</time>
      </trkpt>
      <trkpt lat="44.81546" lon="6.95013">
        <ele>1778.7</ele>
        <time>2022-02-25T15:18:47Z</time>
      </trkpt>
      <trkpt lat="44.81546" lon="6.95013">
        <ele>1778.7</ele>
        <time>2022-02-25T15:18:48Z</time>
      </trkpt>
      <trkpt lat="44.81546" lon="6.95011">
        <ele>1778.4</ele>
        <time>2022-02-25T15:18:49Z</time>
      </trkpt>
      <trkpt lat="44.81546" lon="6.95011">
        <ele>1778.4</ele>
        <time>2022-02-25T15:18:50Z</time>
      </trkpt>
      <trkpt lat="44.81547" lon="6.95007">
        <ele>1778.4</ele>
        <time>2022-02-25T15:18:51Z</time>
      </trkpt>
      <trkpt lat="44.81547" lon="6.95007">
        <ele>1778.4</ele>
        <time>2022-02-25T15:18:52Z</time>
      </trkpt>
      <trkpt lat="44.81547" lon="6.95004">
        <ele>1778</ele>
        <time>2022-02-25T15:18:53Z</time>
      </trkpt>
      <trkpt lat="44.81547" lon="6.95004">
        <ele>1778</ele>
        <time>2022-02-25T15:18:54Z</time>
      </trkpt>
      <trkpt lat="44.81547" lon="6.95001">
        <ele>1777.5</ele>
        <time>2022-02-25T15:18:55Z</time>
      </trkpt>
      <trkpt lat="44.81547" lon="6.95001">
        <ele>1777.5</ele>
        <time>2022-02-25T15:18:56Z</time>
      </trkpt>
      <trkpt lat="44.81547" lon="6.94997">
        <ele>1777</ele>
        <time>2022-02-25T15:18:57Z</time>
      </trkpt>
      <trkpt lat="44.81547" lon="6.94997">
        <ele>1777</ele>
        <time>2022-02-25T15:18:58Z</time>
      </trkpt>
      <trkpt lat="44.81547" lon="6.94994">
        <ele>1776.6</ele>
        <time>2022-02-25T15:18:59Z</time>
      </trkpt>
      <trkpt lat="44.81547" lon="6.94994">
        <ele>1776.6</ele>
        <time>2022-02-25T15:19:00Z</time>
      </trkpt>
      <trkpt lat="44.81547" lon="6.9499">
        <ele>1776.1</ele>
        <time>2022-02-25T15:19:01Z</time>
      </trkpt>
      <trkpt lat="44.81547" lon="6.9499">
        <ele>1776.1</ele>
        <time>2022-02-25T15:19:02Z</time>
      </trkpt>
      <trkpt lat="44.81547" lon="6.94987">
        <ele>1775.7</ele>
        <time>2022-02-25T15:19:03Z</time>
      </trkpt>
      <trkpt lat="44.81547" lon="6.94987">
        <ele>1775.7</ele>
        <time>2022-02-25T15:19:04Z</time>
      </trkpt>
      <trkpt lat="44.81548" lon="6.94984">
        <ele>1775.9</ele>
        <time>2022-02-25T15:19:05Z</time>
      </trkpt>
      <trkpt lat="44.81548" lon="6.94984">
        <ele>1775.9</ele>
        <time>2022-02-25T15:19:06Z</time>
      </trkpt>
      <trkpt lat="44.81548" lon="6.94981">
        <ele>1775.5</ele>
        <time>2022-02-25T15:19:07Z</time>
      </trkpt>
      <trkpt lat="44.81548" lon="6.94981">
        <ele>1775.5</ele>
        <time>2022-02-25T15:19:08Z</time>
      </trkpt>
      <trkpt lat="44.81548" lon="6.94977">
        <ele>1775</ele>
        <time>2022-02-25T15:19:09Z</time>
      </trkpt>
      <trkpt lat="44.81548" lon="6.94977">
        <ele>1775</ele>
        <time>2022-02-25T15:19:10Z</time>
      </trkpt>
      <trkpt lat="44.81548" lon="6.94974">
        <ele>1774.6</ele>
        <time>2022-02-25T15:19:11Z</time>
      </trkpt>
      <trkpt lat="44.81548" lon="6.94974">
        <ele>1774.6</ele>
        <time>2022-02-25T15:19:12Z</time>
      </trkpt>
      <trkpt lat="44.81548" lon="6.94971">
        <ele>1774.2</ele>
        <time>2022-02-25T15:19:13Z</time>
      </trkpt>
      <trkpt lat="44.81548" lon="6.94971">
        <ele>1774.2</ele>
        <time>2022-02-25T15:19:14Z</time>
      </trkpt>
      <trkpt lat="44.81548" lon="6.94968">
        <ele>1773.8</ele>
        <time>2022-02-25T15:19:15Z</time>
      </trkpt>
      <trkpt lat="44.81548" lon="6.94968">
        <ele>1773.8</ele>
        <time>2022-02-25T15:19:16Z</time>
      </trkpt>
      <trkpt lat="44.81548" lon="6.94965">
        <ele>1773.4</ele>
        <time>2022-02-25T15:19:17Z</time>
      </trkpt>
      <trkpt lat="44.81548" lon="6.94965">
        <ele>1773.4</ele>
        <time>2022-02-25T15:19:18Z</time>
      </trkpt>
      <trkpt lat="44.81548" lon="6.94961">
        <ele>1772.8</ele>
        <time>2022-02-25T15:19:19Z</time>
      </trkpt>
      <trkpt lat="44.81548" lon="6.94961">
        <ele>1772.8</ele>
        <time>2022-02-25T15:19:20Z</time>
      </trkpt>
      <trkpt lat="44.81549" lon="6.94957">
        <ele>1773</ele>
        <time>2022-02-25T15:19:21Z</time>
      </trkpt>
      <trkpt lat="44.81549" lon="6.94957">
        <ele>1773</ele>
        <time>2022-02-25T15:19:22Z</time>
      </trkpt>
      <trkpt lat="44.81549" lon="6.94954">
        <ele>1772.6</ele>
        <time>2022-02-25T15:19:23Z</time>
      </trkpt>
      <trkpt lat="44.81549" lon="6.94954">
        <ele>1772.6</ele>
        <time>2022-02-25T15:19:24Z</time>
      </trkpt>
      <trkpt lat="44.81549" lon="6.94951">
        <ele>1772.2</ele>
        <time>2022-02-25T15:19:25Z</time>
      </trkpt>
      <trkpt lat="44.81549" lon="6.94951">
        <ele>1772.2</ele>
        <time>2022-02-25T15:19:26Z</time>
      </trkpt>
      <trkpt lat="44.81549" lon="6.94947">
        <ele>1771.6</ele>
        <time>2022-02-25T15:19:27Z</time>
      </trkpt>
      <trkpt lat="44.81549" lon="6.94947">
        <ele>1771.6</ele>
        <time>2022-02-25T15:19:28Z</time>
      </trkpt>
      <trkpt lat="44.81549" lon="6.94944">
        <ele>1771.2</ele>
        <time>2022-02-25T15:19:29Z</time>
      </trkpt>
      <trkpt lat="44.81549" lon="6.94944">
        <ele>1771.2</ele>
        <time>2022-02-25T15:19:30Z</time>
      </trkpt>
      <trkpt lat="44.8155" lon="6.94941">
        <ele>1771.3</ele>
        <time>2022-02-25T15:19:31Z</time>
      </trkpt>
      <trkpt lat="44.8155" lon="6.94941">
        <ele>1771.3</ele>
        <time>2022-02-25T15:19:32Z</time>
      </trkpt>
      <trkpt lat="44.8155" lon="6.94937">
        <ele>1770.6</ele>
        <time>2022-02-25T15:19:33Z</time>
      </trkpt>
      <trkpt lat="44.8155" lon="6.94937">
        <ele>1770.6</ele>
        <time>2022-02-25T15:19:34Z</time>
      </trkpt>
      <trkpt lat="44.8155" lon="6.94934">
        <ele>1770</ele>
        <time>2022-02-25T15:19:35Z</time>
      </trkpt>
      <trkpt lat="44.8155" lon="6.94934">
        <ele>1770</ele>
        <time>2022-02-25T15:19:36Z</time>
      </trkpt>
      <trkpt lat="44.8155" lon="6.94931">
        <ele>1769.4</ele>
        <time>2022-02-25T15:19:37Z</time>
      </trkpt>
      <trkpt lat="44.8155" lon="6.94931">
        <ele>1769.4</ele>
        <time>2022-02-25T15:19:38Z</time>
      </trkpt>
      <trkpt lat="44.81551" lon="6.94928">
        <ele>1769.6</ele>
        <time>2022-02-25T15:19:39Z</time>
      </trkpt>
      <trkpt lat="44.81551" lon="6.94928">
        <ele>1769.6</ele>
        <time>2022-02-25T15:19:40Z</time>
      </trkpt>
      <trkpt lat="44.81552" lon="6.94925">
        <ele>1769.8</ele>
        <time>2022-02-25T15:19:41Z</time>
      </trkpt>
      <trkpt lat="44.81552" lon="6.94925">
        <ele>1769.8</ele>
        <time>2022-02-25T15:19:42Z</time>
      </trkpt>
      <trkpt lat="44.81552" lon="6.94921">
        <ele>1769</ele>
        <time>2022-02-25T15:19:43Z</time>
      </trkpt>
      <trkpt lat="44.81552" lon="6.94921">
        <ele>1769</ele>
        <time>2022-02-25T15:19:44Z</time>
      </trkpt>
      <trkpt lat="44.81553" lon="6.94918">
        <ele>1769.2</ele>
        <time>2022-02-25T15:19:45Z</time>
      </trkpt>
      <trkpt lat="44.81553" lon="6.94918">
        <ele>1769.2</ele>
        <time>2022-02-25T15:19:46Z</time>
      </trkpt>
      <trkpt lat="44.81553" lon="6.94914">
        <ele>1768.3</ele>
        <time>2022-02-25T15:19:47Z</time>
      </trkpt>
      <trkpt lat="44.81553" lon="6.94914">
        <ele>1768.3</ele>
        <time>2022-02-25T15:19:48Z</time>
      </trkpt>
      <trkpt lat="44.81554" lon="6.94911">
        <ele>1768.3</ele>
        <time>2022-02-25T15:19:49Z</time>
      </trkpt>
      <trkpt lat="44.81554" lon="6.94911">
        <ele>1768.3</ele>
        <time>2022-02-25T15:19:50Z</time>
      </trkpt>
      <trkpt lat="44.81555" lon="6.94908">
        <ele>1768.4</ele>
        <time>2022-02-25T15:19:51Z</time>
      </trkpt>
      <trkpt lat="44.81555" lon="6.94908">
        <ele>1768.4</ele>
        <time>2022-02-25T15:19:52Z</time>
      </trkpt>
      <trkpt lat="44.81557" lon="6.94906">
        <ele>1768.9</ele>
        <time>2022-02-25T15:19:53Z</time>
      </trkpt>
      <trkpt lat="44.81557" lon="6.94906">
        <ele>1768.9</ele>
        <time>2022-02-25T15:19:54Z</time>
      </trkpt>
      <trkpt lat="44.81558" lon="6.94903">
        <ele>1768.7</ele>
        <time>2022-02-25T15:19:55Z</time>
      </trkpt>
      <trkpt lat="44.81558" lon="6.94903">
        <ele>1768.7</ele>
        <time>2022-02-25T15:19:56Z</time>
      </trkpt>
      <trkpt lat="44.81559" lon="6.94899">
        <ele>1768.1</ele>
        <time>2022-02-25T15:19:57Z</time>
      </trkpt>
      <trkpt lat="44.81559" lon="6.94899">
        <ele>1768.1</ele>
        <time>2022-02-25T15:19:58Z</time>
      </trkpt>
      <trkpt lat="44.8156" lon="6.94895">
        <ele>1767.7</ele>
        <time>2022-02-25T15:19:59Z</time>
      </trkpt>
      <trkpt lat="44.8156" lon="6.94895">
        <ele>1767.7</ele>
        <time>2022-02-25T15:20:00Z</time>
      </trkpt>
      <trkpt lat="44.81561" lon="6.94892">
        <ele>1767.5</ele>
        <time>2022-02-25T15:20:01Z</time>
      </trkpt>
      <trkpt lat="44.81561" lon="6.94892">
        <ele>1767.5</ele>
        <time>2022-02-25T15:20:02Z</time>
      </trkpt>
      <trkpt lat="44.81562" lon="6.94889">
        <ele>1767.3</ele>
        <time>2022-02-25T15:20:03Z</time>
      </trkpt>
      <trkpt lat="44.81562" lon="6.94889">
        <ele>1767.3</ele>
        <time>2022-02-25T15:20:04Z</time>
      </trkpt>
      <trkpt lat="44.81563" lon="6.94886">
        <ele>1767.3</ele>
        <time>2022-02-25T15:20:05Z</time>
      </trkpt>
      <trkpt lat="44.81563" lon="6.94886">
        <ele>1767.3</ele>
        <time>2022-02-25T15:20:06Z</time>
      </trkpt>
      <trkpt lat="44.81563" lon="6.94883">
        <ele>1766.9</ele>
        <time>2022-02-25T15:20:07Z</time>
      </trkpt>
      <trkpt lat="44.81563" lon="6.94883">
        <ele>1766.9</ele>
        <time>2022-02-25T15:20:08Z</time>
      </trkpt>
      <trkpt lat="44.81565" lon="6.9488">
        <ele>1767.5</ele>
        <time>2022-02-25T15:20:09Z</time>
      </trkpt>
      <trkpt lat="44.81565" lon="6.9488">
        <ele>1767.5</ele>
        <time>2022-02-25T15:20:10Z</time>
      </trkpt>
      <trkpt lat="44.81565" lon="6.94877">
        <ele>1767</ele>
        <time>2022-02-25T15:20:11Z</time>
      </trkpt>
      <trkpt lat="44.81565" lon="6.94877">
        <ele>1767</ele>
        <time>2022-02-25T15:20:12Z</time>
      </trkpt>
      <trkpt lat="44.81566" lon="6.94874">
        <ele>1767.1</ele>
        <time>2022-02-25T15:20:13Z</time>
      </trkpt>
      <trkpt lat="44.81566" lon="6.94874">
        <ele>1767.1</ele>
        <time>2022-02-25T15:20:14Z</time>
      </trkpt>
      <trkpt lat="44.81567" lon="6.94871">
        <ele>1767.2</ele>
        <time>2022-02-25T15:20:15Z</time>
      </trkpt>
      <trkpt lat="44.81567" lon="6.94871">
        <ele>1767.2</ele>
        <time>2022-02-25T15:20:16Z</time>
      </trkpt>
      <trkpt lat="44.81567" lon="6.94868">
        <ele>1766.8</ele>
        <time>2022-02-25T15:20:17Z</time>
      </trkpt>
      <trkpt lat="44.81567" lon="6.94868">
        <ele>1766.8</ele>
        <time>2022-02-25T15:20:18Z</time>
      </trkpt>
      <trkpt lat="44.81568" lon="6.94865">
        <ele>1766.8</ele>
        <time>2022-02-25T15:20:19Z</time>
      </trkpt>
      <trkpt lat="44.81568" lon="6.94865">
        <ele>1766.8</ele>
        <time>2022-02-25T15:20:20Z</time>
      </trkpt>
      <trkpt lat="44.81569" lon="6.94862">
        <ele>1766.9</ele>
        <time>2022-02-25T15:20:21Z</time>
      </trkpt>
      <trkpt lat="44.81569" lon="6.94862">
        <ele>1766.9</ele>
        <time>2022-02-25T15:20:22Z</time>
      </trkpt>
      <trkpt lat="44.81569" lon="6.94859">
        <ele>1766.5</ele>
        <time>2022-02-25T15:20:23Z</time>
      </trkpt>
      <trkpt lat="44.81569" lon="6.94859">
        <ele>1766.5</ele>
        <time>2022-02-25T15:20:24Z</time>
      </trkpt>
      <trkpt lat="44.81569" lon="6.94856">
        <ele>1766.2</ele>
        <time>2022-02-25T15:20:25Z</time>
      </trkpt>
      <trkpt lat="44.81569" lon="6.94856">
        <ele>1766.2</ele>
        <time>2022-02-25T15:20:26Z</time>
      </trkpt>
      <trkpt lat="44.8157" lon="6.94853">
        <ele>1766.4</ele>
        <time>2022-02-25T15:20:27Z</time>
      </trkpt>
      <trkpt lat="44.8157" lon="6.94853">
        <ele>1766.4</ele>
        <time>2022-02-25T15:20:28Z</time>
      </trkpt>
      <trkpt lat="44.81571" lon="6.9485">
        <ele>1766.6</ele>
        <time>2022-02-25T15:20:29Z</time>
      </trkpt>
      <trkpt lat="44.81571" lon="6.9485">
        <ele>1766.6</ele>
        <time>2022-02-25T15:20:30Z</time>
      </trkpt>
      <trkpt lat="44.81571" lon="6.94847">
        <ele>1766.3</ele>
        <time>2022-02-25T15:20:31Z</time>
      </trkpt>
      <trkpt lat="44.81571" lon="6.94847">
        <ele>1766.3</ele>
        <time>2022-02-25T15:20:32Z</time>
      </trkpt>
      <trkpt lat="44.81572" lon="6.94844">
        <ele>1766.4</ele>
        <time>2022-02-25T15:20:33Z</time>
      </trkpt>
      <trkpt lat="44.81572" lon="6.94844">
        <ele>1766.4</ele>
        <time>2022-02-25T15:20:34Z</time>
      </trkpt>
      <trkpt lat="44.81573" lon="6.9484">
        <ele>1766.5</ele>
        <time>2022-02-25T15:20:35Z</time>
      </trkpt>
      <trkpt lat="44.81573" lon="6.9484">
        <ele>1766.5</ele>
        <time>2022-02-25T15:20:36Z</time>
      </trkpt>
      <trkpt lat="44.81573" lon="6.94837">
        <ele>1766.2</ele>
        <time>2022-02-25T15:20:37Z</time>
      </trkpt>
      <trkpt lat="44.81573" lon="6.94837">
        <ele>1766.2</ele>
        <time>2022-02-25T15:20:38Z</time>
      </trkpt>
      <trkpt lat="44.81573" lon="6.94833">
        <ele>1765.7</ele>
        <time>2022-02-25T15:20:39Z</time>
      </trkpt>
      <trkpt lat="44.81573" lon="6.94833">
        <ele>1765.7</ele>
        <time>2022-02-25T15:20:40Z</time>
      </trkpt>
      <trkpt lat="44.81575" lon="6.94831">
        <ele>1766.4</ele>
        <time>2022-02-25T15:20:41Z</time>
      </trkpt>
      <trkpt lat="44.81575" lon="6.94831">
        <ele>1766.4</ele>
        <time>2022-02-25T15:20:42Z</time>
      </trkpt>
      <trkpt lat="44.81576" lon="6.94828">
        <ele>1766.4</ele>
        <time>2022-02-25T15:20:43Z</time>
      </trkpt>
      <trkpt lat="44.81576" lon="6.94828">
        <ele>1766.4</ele>
        <time>2022-02-25T15:20:44Z</time>
      </trkpt>
      <trkpt lat="44.81577" lon="6.94825">
        <ele>1766.4</ele>
        <time>2022-02-25T15:20:45Z</time>
      </trkpt>
      <trkpt lat="44.81577" lon="6.94825">
        <ele>1766.4</ele>
        <time>2022-02-25T15:20:46Z</time>
      </trkpt>
      <trkpt lat="44.81578" lon="6.94822">
        <ele>1766.4</ele>
        <time>2022-02-25T15:20:47Z</time>
      </trkpt>
      <trkpt lat="44.81578" lon="6.94822">
        <ele>1766.4</ele>
        <time>2022-02-25T15:20:48Z</time>
      </trkpt>
      <trkpt lat="44.81579" lon="6.94819">
        <ele>1766.3</ele>
        <time>2022-02-25T15:20:49Z</time>
      </trkpt>
      <trkpt lat="44.81579" lon="6.94819">
        <ele>1766.3</ele>
        <time>2022-02-25T15:20:50Z</time>
      </trkpt>
      <trkpt lat="44.81581" lon="6.94817">
        <ele>1766.9</ele>
        <time>2022-02-25T15:20:51Z</time>
      </trkpt>
      <trkpt lat="44.81581" lon="6.94817">
        <ele>1766.9</ele>
        <time>2022-02-25T15:20:52Z</time>
      </trkpt>
      <trkpt lat="44.81583" lon="6.94814">
        <ele>1767.4</ele>
        <time>2022-02-25T15:20:53Z</time>
      </trkpt>
      <trkpt lat="44.81583" lon="6.94814">
        <ele>1767.4</ele>
        <time>2022-02-25T15:20:54Z</time>
      </trkpt>
      <trkpt lat="44.81584" lon="6.94812">
        <ele>1767.3</ele>
        <time>2022-02-25T15:20:55Z</time>
      </trkpt>
      <trkpt lat="44.81584" lon="6.94812">
        <ele>1767.3</ele>
        <time>2022-02-25T15:20:56Z</time>
      </trkpt>
      <trkpt lat="44.81586" lon="6.94809">
        <ele>1767.2</ele>
        <time>2022-02-25T15:20:57Z</time>
      </trkpt>
      <trkpt lat="44.81586" lon="6.94809">
        <ele>1767.2</ele>
        <time>2022-02-25T15:20:58Z</time>
      </trkpt>
      <trkpt lat="44.81587" lon="6.94805">
        <ele>1766.6</ele>
        <time>2022-02-25T15:20:59Z</time>
      </trkpt>
      <trkpt lat="44.81587" lon="6.94805">
        <ele>1766.6</ele>
        <time>2022-02-25T15:21:00Z</time>
      </trkpt>
      <trkpt lat="44.81588" lon="6.94803">
        <ele>1766.3</ele>
        <time>2022-02-25T15:21:01Z</time>
      </trkpt>
      <trkpt lat="44.81588" lon="6.94803">
        <ele>1766.3</ele>
        <time>2022-02-25T15:21:02Z</time>
      </trkpt>
      <trkpt lat="44.81589" lon="6.948">
        <ele>1765.7</ele>
        <time>2022-02-25T15:21:03Z</time>
      </trkpt>
      <trkpt lat="44.81589" lon="6.948">
        <ele>1765.7</ele>
        <time>2022-02-25T15:21:04Z</time>
      </trkpt>
      <trkpt lat="44.81591" lon="6.94797">
        <ele>1765.4</ele>
        <time>2022-02-25T15:21:05Z</time>
      </trkpt>
      <trkpt lat="44.81591" lon="6.94797">
        <ele>1765.4</ele>
        <time>2022-02-25T15:21:06Z</time>
      </trkpt>
      <trkpt lat="44.81593" lon="6.94795">
        <ele>1765.3</ele>
        <time>2022-02-25T15:21:07Z</time>
      </trkpt>
      <trkpt lat="44.81593" lon="6.94795">
        <ele>1765.3</ele>
        <time>2022-02-25T15:21:08Z</time>
      </trkpt>
      <trkpt lat="44.81595" lon="6.94793">
        <ele>1765.3</ele>
        <time>2022-02-25T15:21:09Z</time>
      </trkpt>
      <trkpt lat="44.81595" lon="6.94793">
        <ele>1765.3</ele>
        <time>2022-02-25T15:21:10Z</time>
      </trkpt>
      <trkpt lat="44.81597" lon="6.94791">
        <ele>1765.3</ele>
        <time>2022-02-25T15:21:11Z</time>
      </trkpt>
      <trkpt lat="44.81597" lon="6.94791">
        <ele>1765.3</ele>
        <time>2022-02-25T15:21:12Z</time>
      </trkpt>
      <trkpt lat="44.81598" lon="6.94789">
        <ele>1765</ele>
        <time>2022-02-25T15:21:13Z</time>
      </trkpt>
      <trkpt lat="44.81598" lon="6.94789">
        <ele>1765</ele>
        <time>2022-02-25T15:21:14Z</time>
      </trkpt>
      <trkpt lat="44.816" lon="6.94787">
        <ele>1765.1</ele>
        <time>2022-02-25T15:21:15Z</time>
      </trkpt>
      <trkpt lat="44.816" lon="6.94787">
        <ele>1765.1</ele>
        <time>2022-02-25T15:21:16Z</time>
      </trkpt>
      <trkpt lat="44.81601" lon="6.94784">
        <ele>1764.6</ele>
        <time>2022-02-25T15:21:17Z</time>
      </trkpt>
      <trkpt lat="44.81601" lon="6.94784">
        <ele>1764.6</ele>
        <time>2022-02-25T15:21:18Z</time>
      </trkpt>
      <trkpt lat="44.81603" lon="6.94782">
        <ele>1764.7</ele>
        <time>2022-02-25T15:21:19Z</time>
      </trkpt>
      <trkpt lat="44.81603" lon="6.94782">
        <ele>1764.7</ele>
        <time>2022-02-25T15:21:20Z</time>
      </trkpt>
      <trkpt lat="44.81604" lon="6.94778">
        <ele>1764</ele>
        <time>2022-02-25T15:21:21Z</time>
      </trkpt>
      <trkpt lat="44.81604" lon="6.94778">
        <ele>1764</ele>
        <time>2022-02-25T15:21:22Z</time>
      </trkpt>
      <trkpt lat="44.81605" lon="6.94776">
        <ele>1763.5</ele>
        <time>2022-02-25T15:21:23Z</time>
      </trkpt>
      <trkpt lat="44.81605" lon="6.94776">
        <ele>1763.5</ele>
        <time>2022-02-25T15:21:24Z</time>
      </trkpt>
      <trkpt lat="44.81606" lon="6.94773">
        <ele>1762.6</ele>
        <time>2022-02-25T15:21:25Z</time>
      </trkpt>
      <trkpt lat="44.81606" lon="6.94773">
        <ele>1762.6</ele>
        <time>2022-02-25T15:21:26Z</time>
      </trkpt>
      <trkpt lat="44.81608" lon="6.94771">
        <ele>1762.6</ele>
        <time>2022-02-25T15:21:27Z</time>
      </trkpt>
      <trkpt lat="44.81608" lon="6.94771">
        <ele>1762.6</ele>
        <time>2022-02-25T15:21:28Z</time>
      </trkpt>
      <trkpt lat="44.81608" lon="6.94771">
        <ele>1762.6</ele>
        <time>2022-02-25T15:21:29Z</time>
      </trkpt>
      <trkpt lat="44.81609" lon="6.94769">
        <ele>1762.3</ele>
        <time>2022-02-25T15:21:30Z</time>
      </trkpt>
      <trkpt lat="44.81609" lon="6.94769">
        <ele>1762.3</ele>
        <time>2022-02-25T15:21:31Z</time>
      </trkpt>
      <trkpt lat="44.81609" lon="6.94769">
        <ele>1762.3</ele>
        <time>2022-02-25T15:21:32Z</time>
      </trkpt>
      <trkpt lat="44.81609" lon="6.94769">
        <ele>1762.3</ele>
        <time>2022-02-25T15:21:33Z</time>
      </trkpt>
      <trkpt lat="44.81609" lon="6.94769">
        <ele>1762.3</ele>
        <time>2022-02-25T15:21:34Z</time>
      </trkpt>
      <trkpt lat="44.81609" lon="6.94769">
        <ele>1762.3</ele>
        <time>2022-02-25T15:21:35Z</time>
      </trkpt>
      <trkpt lat="44.81609" lon="6.94769">
        <ele>1762.3</ele>
        <time>2022-02-25T15:21:36Z</time>
      </trkpt>
      <trkpt lat="44.81609" lon="6.94769">
        <ele>1762.3</ele>
        <time>2022-02-25T15:21:37Z</time>
      </trkpt>
      <trkpt lat="44.81609" lon="6.94769">
        <ele>1762.3</ele>
        <time>2022-02-25T15:21:38Z</time>
      </trkpt>
      <trkpt lat="44.81609" lon="6.94769">
        <ele>1762.3</ele>
        <time>2022-02-25T15:21:39Z</time>
      </trkpt>
      <trkpt lat="44.81609" lon="6.94769">
        <ele>1762.3</ele>
        <time>2022-02-25T15:21:40Z</time>
      </trkpt>
      <trkpt lat="44.81609" lon="6.94769">
        <ele>1762.3</ele>
        <time>2022-02-25T15:21:41Z</time>
      </trkpt>
      <trkpt lat="44.81609" lon="6.94769">
        <ele>1762.3</ele>
        <time>2022-02-25T15:21:42Z</time>
      </trkpt>
      <trkpt lat="44.81609" lon="6.94769">
        <ele>1762.3</ele>
        <time>2022-02-25T15:21:43Z</time>
      </trkpt>
      <trkpt lat="44.81609" lon="6.94769">
        <ele>1762.3</ele>
        <time>2022-02-25T15:21:44Z</time>
      </trkpt>
      <trkpt lat="44.81609" lon="6.94769">
        <ele>1762.3</ele>
        <time>2022-02-25T15:21:45Z</time>
      </trkpt>
      <trkpt lat="44.81609" lon="6.94769">
        <ele>1762.3</ele>
        <time>2022-02-25T15:21:46Z</time>
      </trkpt>
      <trkpt lat="44.81609" lon="6.94769">
        <ele>1762.3</ele>
        <time>2022-02-25T15:21:47Z</time>
      </trkpt>
      <trkpt lat="44.81609" lon="6.94769">
        <ele>1762.3</ele>
        <time>2022-02-25T15:21:48Z</time>
      </trkpt>
      <trkpt lat="44.81609" lon="6.94769">
        <ele>1762.3</ele>
        <time>2022-02-25T15:21:49Z</time>
      </trkpt>
      <trkpt lat="44.81609" lon="6.94769">
        <ele>1762.3</ele>
        <time>2022-02-25T15:21:50Z</time>
      </trkpt>
      <trkpt lat="44.81609" lon="6.94769">
        <ele>1762.3</ele>
        <time>2022-02-25T15:21:51Z</time>
      </trkpt>
      <trkpt lat="44.81609" lon="6.94769">
        <ele>1762.3</ele>
        <time>2022-02-25T15:21:52Z</time>
      </trkpt>
      <trkpt lat="44.81609" lon="6.94769">
        <ele>1762.3</ele>
        <time>2022-02-25T15:21:53Z</time>
      </trkpt>
      <trkpt lat="44.81609" lon="6.94769">
        <ele>1762.3</ele>
        <time>2022-02-25T15:21:54Z</time>
      </trkpt>
      <trkpt lat="44.81609" lon="6.94769">
        <ele>1762.3</ele>
        <time>2022-02-25T15:21:55Z</time>
      </trkpt>
      <trkpt lat="44.81609" lon="6.94769">
        <ele>1762.3</ele>
        <time>2022-02-25T15:21:56Z</time>
      </trkpt>
      <trkpt lat="44.81609" lon="6.94769">
        <ele>1762.3</ele>
        <time>2022-02-25T15:21:57Z</time>
      </trkpt>
      <trkpt lat="44.81609" lon="6.94769">
        <ele>1762.3</ele>
        <time>2022-02-25T15:21:58Z</time>
      </trkpt>
      <trkpt lat="44.81609" lon="6.94769">
        <ele>1762.3</ele>
        <time>2022-02-25T15:21:59Z</time>
      </trkpt>
      <trkpt lat="44.81609" lon="6.94769">
        <ele>1762.3</ele>
        <time>2022-02-25T15:22:00Z</time>
      </trkpt>
      <trkpt lat="44.81609" lon="6.94769">
        <ele>1762.3</ele>
        <time>2022-02-25T15:22:01Z</time>
      </trkpt>
      <trkpt lat="44.81609" lon="6.94769">
        <ele>1762.3</ele>
        <time>2022-02-25T15:22:02Z</time>
      </trkpt>
      <trkpt lat="44.81609" lon="6.94769">
        <ele>1762.3</ele>
        <time>2022-02-25T15:22:03Z</time>
      </trkpt>
      <trkpt lat="44.81609" lon="6.94769">
        <ele>1762.3</ele>
        <time>2022-02-25T15:22:04Z</time>
      </trkpt>
      <trkpt lat="44.81609" lon="6.94769">
        <ele>1762.3</ele>
        <time>2022-02-25T15:22:05Z</time>
      </trkpt>
      <trkpt lat="44.81609" lon="6.94769">
        <ele>1762.3</ele>
        <time>2022-02-25T15:22:06Z</time>
      </trkpt>
      <trkpt lat="44.81609" lon="6.94769">
        <ele>1762.3</ele>
        <time>2022-02-25T15:22:07Z</time>
      </trkpt>
      <trkpt lat="44.81609" lon="6.94769">
        <ele>1762.3</ele>
        <time>2022-02-25T15:22:08Z</time>
      </trkpt>
      <trkpt lat="44.81609" lon="6.94769">
        <ele>1762.3</ele>
        <time>2022-02-25T15:22:09Z</time>
      </trkpt>
      <trkpt lat="44.81609" lon="6.94769">
        <ele>1762.3</ele>
        <time>2022-02-25T15:22:10Z</time>
      </trkpt>
      <trkpt lat="44.81609" lon="6.94769">
        <ele>1762.3</ele>
        <time>2022-02-25T15:22:11Z</time>
      </trkpt>
      <trkpt lat="44.81609" lon="6.94769">
        <ele>1762.3</ele>
        <time>2022-02-25T15:22:12Z</time>
      </trkpt>
      <trkpt lat="44.81609" lon="6.94769">
        <ele>1762.3</ele>
        <time>2022-02-25T15:22:13Z</time>
      </trkpt>
      <trkpt lat="44.81609" lon="6.94769">
        <ele>1762.3</ele>
        <time>2022-02-25T15:22:14Z</time>
      </trkpt>
      <trkpt lat="44.81609" lon="6.94769">
        <ele>1762.3</ele>
        <time>2022-02-25T15:22:15Z</time>
      </trkpt>
      <trkpt lat="44.81609" lon="6.94769">
        <ele>1762.3</ele>
        <time>2022-02-25T15:22:16Z</time>
      </trkpt>
      <trkpt lat="44.81609" lon="6.94769">
        <ele>1762.3</ele>
        <time>2022-02-25T15:22:17Z</time>
      </trkpt>
      <trkpt lat="44.81609" lon="6.94769">
        <ele>1762.3</ele>
        <time>2022-02-25T15:22:18Z</time>
      </trkpt>
      <trkpt lat="44.81609" lon="6.94769">
        <ele>1762.3</ele>
        <time>2022-02-25T15:22:19Z</time>
      </trkpt>
      <trkpt lat="44.81609" lon="6.94769">
        <ele>1762.3</ele>
        <time>2022-02-25T15:22:20Z</time>
      </trkpt>
      <trkpt lat="44.81609" lon="6.94769">
        <ele>1762.3</ele>
        <time>2022-02-25T15:22:21Z</time>
      </trkpt>
      <trkpt lat="44.81609" lon="6.94769">
        <ele>1762.3</ele>
        <time>2022-02-25T15:22:22Z</time>
      </trkpt>
      <trkpt lat="44.81609" lon="6.94769">
        <ele>1762.3</ele>
        <time>2022-02-25T15:22:23Z</time>
      </trkpt>
      <trkpt lat="44.81609" lon="6.94769">
        <ele>1762.3</ele>
        <time>2022-02-25T15:22:24Z</time>
      </trkpt>
      <trkpt lat="44.81609" lon="6.94769">
        <ele>1762.3</ele>
        <time>2022-02-25T15:22:25Z</time>
      </trkpt>
      <trkpt lat="44.81609" lon="6.94769">
        <ele>1762.3</ele>
        <time>2022-02-25T15:22:26Z</time>
      </trkpt>
      <trkpt lat="44.81609" lon="6.94769">
        <ele>1762.3</ele>
        <time>2022-02-25T15:22:27Z</time>
      </trkpt>
      <trkpt lat="44.81609" lon="6.94769">
        <ele>1762.3</ele>
        <time>2022-02-25T15:22:28Z</time>
      </trkpt>
      <trkpt lat="44.81609" lon="6.94769">
        <ele>1762.3</ele>
        <time>2022-02-25T15:22:29Z</time>
      </trkpt>
      <trkpt lat="44.81609" lon="6.94769">
        <ele>1762.3</ele>
        <time>2022-02-25T15:22:30Z</time>
      </trkpt>
      <trkpt lat="44.81609" lon="6.94769">
        <ele>1762.3</ele>
        <time>2022-02-25T15:22:31Z</time>
      </trkpt>
      <trkpt lat="44.81609" lon="6.94769">
        <ele>1762.3</ele>
        <time>2022-02-25T15:22:32Z</time>
      </trkpt>
      <trkpt lat="44.81609" lon="6.94769">
        <ele>1762.3</ele>
        <time>2022-02-25T15:22:33Z</time>
      </trkpt>
      <trkpt lat="44.81609" lon="6.94769">
        <ele>1762.3</ele>
        <time>2022-02-25T15:22:34Z</time>
      </trkpt>
      <trkpt lat="44.81609" lon="6.94769">
        <ele>1762.3</ele>
        <time>2022-02-25T15:22:35Z</time>
      </trkpt>
      <trkpt lat="44.81609" lon="6.94769">
        <ele>1762.3</ele>
        <time>2022-02-25T15:22:36Z</time>
      </trkpt>
      <trkpt lat="44.81609" lon="6.94769">
        <ele>1762.3</ele>
        <time>2022-02-25T15:22:37Z</time>
      </trkpt>
      <trkpt lat="44.81609" lon="6.94769">
        <ele>1762.3</ele>
        <time>2022-02-25T15:22:38Z</time>
      </trkpt>
      <trkpt lat="44.81609" lon="6.94769">
        <ele>1762.3</ele>
        <time>2022-02-25T15:22:39Z</time>
      </trkpt>
      <trkpt lat="44.81609" lon="6.94769">
        <ele>1762.3</ele>
        <time>2022-02-25T15:22:40Z</time>
      </trkpt>
      <trkpt lat="44.81609" lon="6.94769">
        <ele>1762.3</ele>
        <time>2022-02-25T15:22:41Z</time>
      </trkpt>
      <trkpt lat="44.81609" lon="6.94769">
        <ele>1762.3</ele>
        <time>2022-02-25T15:22:42Z</time>
      </trkpt>
      <trkpt lat="44.81609" lon="6.94769">
        <ele>1762.3</ele>
        <time>2022-02-25T15:22:43Z</time>
      </trkpt>
      <trkpt lat="44.81609" lon="6.94769">
        <ele>1762.3</ele>
        <time>2022-02-25T15:22:44Z</time>
      </trkpt>
      <trkpt lat="44.81609" lon="6.94769">
        <ele>1762.3</ele>
        <time>2022-02-25T15:22:45Z</time>
      </trkpt>
      <trkpt lat="44.81609" lon="6.94769">
        <ele>1762.3</ele>
        <time>2022-02-25T15:22:46Z</time>
      </trkpt>
      <trkpt lat="44.81609" lon="6.94769">
        <ele>1762.3</ele>
        <time>2022-02-25T15:22:47Z</time>
      </trkpt>
      <trkpt lat="44.81609" lon="6.94769">
        <ele>1762.3</ele>
        <time>2022-02-25T15:22:48Z</time>
      </trkpt>
      <trkpt lat="44.81609" lon="6.94769">
        <ele>1762.3</ele>
        <time>2022-02-25T15:22:49Z</time>
      </trkpt>
      <trkpt lat="44.81609" lon="6.94769">
        <ele>1762.3</ele>
        <time>2022-02-25T15:22:50Z</time>
      </trkpt>
      <trkpt lat="44.81609" lon="6.94769">
        <ele>1762.3</ele>
        <time>2022-02-25T15:22:51Z</time>
      </trkpt>
      <trkpt lat="44.81609" lon="6.94769">
        <ele>1762.3</ele>
        <time>2022-02-25T15:22:52Z</time>
      </trkpt>
      <trkpt lat="44.81609" lon="6.94769">
        <ele>1762.3</ele>
        <time>2022-02-25T15:22:53Z</time>
      </trkpt>
      <trkpt lat="44.81609" lon="6.94769">
        <ele>1762.3</ele>
        <time>2022-02-25T15:22:54Z</time>
      </trkpt>
      <trkpt lat="44.81609" lon="6.94769">
        <ele>1762.3</ele>
        <time>2022-02-25T15:22:55Z</time>
      </trkpt>
      <trkpt lat="44.81609" lon="6.94769">
        <ele>1762.3</ele>
        <time>2022-02-25T15:22:56Z</time>
      </trkpt>
      <trkpt lat="44.81609" lon="6.94769">
        <ele>1762.3</ele>
        <time>2022-02-25T15:22:57Z</time>
      </trkpt>
      <trkpt lat="44.81609" lon="6.94769">
        <ele>1762.3</ele>
        <time>2022-02-25T15:22:58Z</time>
      </trkpt>
      <trkpt lat="44.81609" lon="6.94769">
        <ele>1762.3</ele>
        <time>2022-02-25T15:22:59Z</time>
      </trkpt>
      <trkpt lat="44.81609" lon="6.94769">
        <ele>1762.3</ele>
        <time>2022-02-25T15:23:00Z</time>
      </trkpt>
      <trkpt lat="44.81609" lon="6.94769">
        <ele>1762.3</ele>
        <time>2022-02-25T15:23:01Z</time>
      </trkpt>
      <trkpt lat="44.81609" lon="6.94769">
        <ele>1762.3</ele>
        <time>2022-02-25T15:23:02Z</time>
      </trkpt>
      <trkpt lat="44.81609" lon="6.94769">
        <ele>1762.3</ele>
        <time>2022-02-25T15:23:03Z</time>
      </trkpt>
      <trkpt lat="44.81609" lon="6.94769">
        <ele>1762.3</ele>
        <time>2022-02-25T15:23:04Z</time>
      </trkpt>
      <trkpt lat="44.81609" lon="6.94769">
        <ele>1762.3</ele>
        <time>2022-02-25T15:23:05Z</time>
      </trkpt>
      <trkpt lat="44.81609" lon="6.94769">
        <ele>1762.3</ele>
        <time>2022-02-25T15:23:06Z</time>
      </trkpt>
      <trkpt lat="44.81612" lon="6.94769">
        <ele>1763.4</ele>
        <time>2022-02-25T15:23:07Z</time>
      </trkpt>
      <trkpt lat="44.81612" lon="6.94769">
        <ele>1763.4</ele>
        <time>2022-02-25T15:23:08Z</time>
      </trkpt>
      <trkpt lat="44.81613" lon="6.94765">
        <ele>1762.4</ele>
        <time>2022-02-25T15:23:09Z</time>
      </trkpt>
      <trkpt lat="44.81613" lon="6.94765">
        <ele>1762.4</ele>
        <time>2022-02-25T15:23:10Z</time>
      </trkpt>
      <trkpt lat="44.81615" lon="6.94762">
        <ele>1762</ele>
        <time>2022-02-25T15:23:11Z</time>
      </trkpt>
      <trkpt lat="44.81615" lon="6.94762">
        <ele>1762</ele>
        <time>2022-02-25T15:23:12Z</time>
      </trkpt>
      <trkpt lat="44.81617" lon="6.94759">
        <ele>1761.6</ele>
        <time>2022-02-25T15:23:13Z</time>
      </trkpt>
      <trkpt lat="44.81617" lon="6.94759">
        <ele>1761.6</ele>
        <time>2022-02-25T15:23:14Z</time>
      </trkpt>
      <trkpt lat="44.81619" lon="6.94756">
        <ele>1761.3</ele>
        <time>2022-02-25T15:23:15Z</time>
      </trkpt>
      <trkpt lat="44.81619" lon="6.94756">
        <ele>1761.3</ele>
        <time>2022-02-25T15:23:16Z</time>
      </trkpt>
      <trkpt lat="44.8162" lon="6.94753">
        <ele>1760.7</ele>
        <time>2022-02-25T15:23:17Z</time>
      </trkpt>
      <trkpt lat="44.8162" lon="6.94753">
        <ele>1760.7</ele>
        <time>2022-02-25T15:23:18Z</time>
      </trkpt>
      <trkpt lat="44.8162" lon="6.94753">
        <ele>1760.7</ele>
        <time>2022-02-25T15:23:19Z</time>
      </trkpt>
      <trkpt lat="44.81622" lon="6.94751">
        <ele>1760.8</ele>
        <time>2022-02-25T15:23:20Z</time>
      </trkpt>
      <trkpt lat="44.81622" lon="6.94751">
        <ele>1760.8</ele>
        <time>2022-02-25T15:23:21Z</time>
      </trkpt>
      <trkpt lat="44.81622" lon="6.94751">
        <ele>1760.8</ele>
        <time>2022-02-25T15:23:22Z</time>
      </trkpt>
      <trkpt lat="44.81624" lon="6.94748">
        <ele>1760.7</ele>
        <time>2022-02-25T15:23:23Z</time>
      </trkpt>
      <trkpt lat="44.81624" lon="6.94748">
        <ele>1760.7</ele>
        <time>2022-02-25T15:23:24Z</time>
      </trkpt>
      <trkpt lat="44.81625" lon="6.94746">
        <ele>1760.6</ele>
        <time>2022-02-25T15:23:25Z</time>
      </trkpt>
      <trkpt lat="44.81625" lon="6.94746">
        <ele>1760.6</ele>
        <time>2022-02-25T15:23:26Z</time>
      </trkpt>
      <trkpt lat="44.81625" lon="6.94746">
        <ele>1760.6</ele>
        <time>2022-02-25T15:23:27Z</time>
      </trkpt>
      <trkpt lat="44.81627" lon="6.94744">
        <ele>1760.9</ele>
        <time>2022-02-25T15:23:28Z</time>
      </trkpt>
      <trkpt lat="44.81627" lon="6.94744">
        <ele>1760.9</ele>
        <time>2022-02-25T15:23:29Z</time>
      </trkpt>
      <trkpt lat="44.81627" lon="6.94744">
        <ele>1760.9</ele>
        <time>2022-02-25T15:23:30Z</time>
      </trkpt>
      <trkpt lat="44.81629" lon="6.94742">
        <ele>1761.2</ele>
        <time>2022-02-25T15:23:31Z</time>
      </trkpt>
      <trkpt lat="44.81629" lon="6.94742">
        <ele>1761.2</ele>
        <time>2022-02-25T15:23:32Z</time>
      </trkpt>
      <trkpt lat="44.8163" lon="6.9474">
        <ele>1761.2</ele>
        <time>2022-02-25T15:23:33Z</time>
      </trkpt>
      <trkpt lat="44.8163" lon="6.9474">
        <ele>1761.2</ele>
        <time>2022-02-25T15:23:34Z</time>
      </trkpt>
      <trkpt lat="44.81631" lon="6.94738">
        <ele>1761.2</ele>
        <time>2022-02-25T15:23:35Z</time>
      </trkpt>
      <trkpt lat="44.81631" lon="6.94738">
        <ele>1761.2</ele>
        <time>2022-02-25T15:23:36Z</time>
      </trkpt>
      <trkpt lat="44.81632" lon="6.94736">
        <ele>1761.3</ele>
        <time>2022-02-25T15:23:37Z</time>
      </trkpt>
      <trkpt lat="44.81632" lon="6.94736">
        <ele>1761.3</ele>
        <time>2022-02-25T15:23:38Z</time>
      </trkpt>
      <trkpt lat="44.81632" lon="6.94736">
        <ele>1761.3</ele>
        <time>2022-02-25T15:23:39Z</time>
      </trkpt>
      <trkpt lat="44.81634" lon="6.94733">
        <ele>1761.5</ele>
        <time>2022-02-25T15:23:40Z</time>
      </trkpt>
      <trkpt lat="44.81634" lon="6.94733">
        <ele>1761.5</ele>
        <time>2022-02-25T15:23:41Z</time>
      </trkpt>
      <trkpt lat="44.81635" lon="6.94731">
        <ele>1761.6</ele>
        <time>2022-02-25T15:23:42Z</time>
      </trkpt>
      <trkpt lat="44.81635" lon="6.94731">
        <ele>1761.6</ele>
        <time>2022-02-25T15:23:43Z</time>
      </trkpt>
      <trkpt lat="44.81635" lon="6.94728">
        <ele>1761.1</ele>
        <time>2022-02-25T15:23:44Z</time>
      </trkpt>
      <trkpt lat="44.81635" lon="6.94728">
        <ele>1761.1</ele>
        <time>2022-02-25T15:23:45Z</time>
      </trkpt>
      <trkpt lat="44.81635" lon="6.94728">
        <ele>1761.1</ele>
        <time>2022-02-25T15:23:46Z</time>
      </trkpt>
      <trkpt lat="44.81637" lon="6.94725">
        <ele>1761.5</ele>
        <time>2022-02-25T15:23:47Z</time>
      </trkpt>
      <trkpt lat="44.81637" lon="6.94725">
        <ele>1761.5</ele>
        <time>2022-02-25T15:23:48Z</time>
      </trkpt>
      <trkpt lat="44.81637" lon="6.94725">
        <ele>1761.5</ele>
        <time>2022-02-25T15:23:49Z</time>
      </trkpt>
      <trkpt lat="44.81638" lon="6.94722">
        <ele>1761.6</ele>
        <time>2022-02-25T15:23:50Z</time>
      </trkpt>
      <trkpt lat="44.81638" lon="6.94722">
        <ele>1761.6</ele>
        <time>2022-02-25T15:23:51Z</time>
      </trkpt>
      <trkpt lat="44.81638" lon="6.94719">
        <ele>1761.2</ele>
        <time>2022-02-25T15:23:52Z</time>
      </trkpt>
      <trkpt lat="44.81638" lon="6.94719">
        <ele>1761.2</ele>
        <time>2022-02-25T15:23:53Z</time>
      </trkpt>
      <trkpt lat="44.81639" lon="6.94716">
        <ele>1761.4</ele>
        <time>2022-02-25T15:23:54Z</time>
      </trkpt>
      <trkpt lat="44.81639" lon="6.94716">
        <ele>1761.4</ele>
        <time>2022-02-25T15:23:55Z</time>
      </trkpt>
      <trkpt lat="44.81639" lon="6.94713">
        <ele>1761</ele>
        <time>2022-02-25T15:23:56Z</time>
      </trkpt>
      <trkpt lat="44.81639" lon="6.94713">
        <ele>1761</ele>
        <time>2022-02-25T15:23:57Z</time>
      </trkpt>
      <trkpt lat="44.8164" lon="6.94711">
        <ele>1761.1</ele>
        <time>2022-02-25T15:23:58Z</time>
      </trkpt>
      <trkpt lat="44.8164" lon="6.94711">
        <ele>1761.1</ele>
        <time>2022-02-25T15:23:59Z</time>
      </trkpt>
      <trkpt lat="44.81641" lon="6.94708">
        <ele>1761.1</ele>
        <time>2022-02-25T15:24:00Z</time>
      </trkpt>
      <trkpt lat="44.81641" lon="6.94708">
        <ele>1761.1</ele>
        <time>2022-02-25T15:24:01Z</time>
      </trkpt>
      <trkpt lat="44.81641" lon="6.94708">
        <ele>1761.1</ele>
        <time>2022-02-25T15:24:02Z</time>
      </trkpt>
      <trkpt lat="44.81641" lon="6.94705">
        <ele>1760.8</ele>
        <time>2022-02-25T15:24:03Z</time>
      </trkpt>
      <trkpt lat="44.81641" lon="6.94705">
        <ele>1760.8</ele>
        <time>2022-02-25T15:24:04Z</time>
      </trkpt>
      <trkpt lat="44.81642" lon="6.94703">
        <ele>1760.8</ele>
        <time>2022-02-25T15:24:05Z</time>
      </trkpt>
      <trkpt lat="44.81642" lon="6.94703">
        <ele>1760.8</ele>
        <time>2022-02-25T15:24:06Z</time>
      </trkpt>
      <trkpt lat="44.81642" lon="6.94703">
        <ele>1760.8</ele>
        <time>2022-02-25T15:24:07Z</time>
      </trkpt>
      <trkpt lat="44.81643" lon="6.94699">
        <ele>1760.6</ele>
        <time>2022-02-25T15:24:08Z</time>
      </trkpt>
      <trkpt lat="44.81643" lon="6.94699">
        <ele>1760.6</ele>
        <time>2022-02-25T15:24:09Z</time>
      </trkpt>
      <trkpt lat="44.81644" lon="6.94696">
        <ele>1760.5</ele>
        <time>2022-02-25T15:24:10Z</time>
      </trkpt>
      <trkpt lat="44.81644" lon="6.94696">
        <ele>1760.5</ele>
        <time>2022-02-25T15:24:11Z</time>
      </trkpt>
      <trkpt lat="44.81645" lon="6.94693">
        <ele>1760.3</ele>
        <time>2022-02-25T15:24:12Z</time>
      </trkpt>
      <trkpt lat="44.81645" lon="6.94693">
        <ele>1760.3</ele>
        <time>2022-02-25T15:24:13Z</time>
      </trkpt>
      <trkpt lat="44.81646" lon="6.94692">
        <ele>1760.3</ele>
        <time>2022-02-25T15:24:14Z</time>
      </trkpt>
      <trkpt lat="44.81646" lon="6.94692">
        <ele>1760.3</ele>
        <time>2022-02-25T15:24:15Z</time>
      </trkpt>
      <trkpt lat="44.81647" lon="6.94689">
        <ele>1760</ele>
        <time>2022-02-25T15:24:16Z</time>
      </trkpt>
      <trkpt lat="44.81647" lon="6.94689">
        <ele>1760</ele>
        <time>2022-02-25T15:24:17Z</time>
      </trkpt>
      <trkpt lat="44.81648" lon="6.94687">
        <ele>1759.9</ele>
        <time>2022-02-25T15:24:18Z</time>
      </trkpt>
      <trkpt lat="44.81648" lon="6.94687">
        <ele>1759.9</ele>
        <time>2022-02-25T15:24:19Z</time>
      </trkpt>
      <trkpt lat="44.81648" lon="6.94687">
        <ele>1759.9</ele>
        <time>2022-02-25T15:24:20Z</time>
      </trkpt>
      <trkpt lat="44.81648" lon="6.94687">
        <ele>1759.9</ele>
        <time>2022-02-25T15:24:21Z</time>
      </trkpt>
      <trkpt lat="44.81648" lon="6.94687">
        <ele>1759.9</ele>
        <time>2022-02-25T15:24:22Z</time>
      </trkpt>
      <trkpt lat="44.81648" lon="6.94687">
        <ele>1759.9</ele>
        <time>2022-02-25T15:24:23Z</time>
      </trkpt>
      <trkpt lat="44.81648" lon="6.94687">
        <ele>1759.9</ele>
        <time>2022-02-25T15:24:24Z</time>
      </trkpt>
      <trkpt lat="44.81648" lon="6.94687">
        <ele>1759.9</ele>
        <time>2022-02-25T15:24:25Z</time>
      </trkpt>
      <trkpt lat="44.8165" lon="6.94685">
        <ele>1760</ele>
        <time>2022-02-25T15:24:26Z</time>
      </trkpt>
      <trkpt lat="44.8165" lon="6.94685">
        <ele>1760</ele>
        <time>2022-02-25T15:24:27Z</time>
      </trkpt>
      <trkpt lat="44.8165" lon="6.94685">
        <ele>1760</ele>
        <time>2022-02-25T15:24:28Z</time>
      </trkpt>
      <trkpt lat="44.81652" lon="6.94683">
        <ele>1760</ele>
        <time>2022-02-25T15:24:29Z</time>
      </trkpt>
      <trkpt lat="44.81652" lon="6.94683">
        <ele>1760</ele>
        <time>2022-02-25T15:24:30Z</time>
      </trkpt>
      <trkpt lat="44.81653" lon="6.94681">
        <ele>1759.9</ele>
        <time>2022-02-25T15:24:31Z</time>
      </trkpt>
      <trkpt lat="44.81653" lon="6.94681">
        <ele>1759.9</ele>
        <time>2022-02-25T15:24:32Z</time>
      </trkpt>
      <trkpt lat="44.81655" lon="6.9468">
        <ele>1760.2</ele>
        <time>2022-02-25T15:24:33Z</time>
      </trkpt>
      <trkpt lat="44.81655" lon="6.9468">
        <ele>1760.2</ele>
        <time>2022-02-25T15:24:34Z</time>
      </trkpt>
      <trkpt lat="44.81657" lon="6.94679">
        <ele>1760.4</ele>
        <time>2022-02-25T15:24:35Z</time>
      </trkpt>
      <trkpt lat="44.81657" lon="6.94679">
        <ele>1760.4</ele>
        <time>2022-02-25T15:24:36Z</time>
      </trkpt>
      <trkpt lat="44.81658" lon="6.94677">
        <ele>1760.2</ele>
        <time>2022-02-25T15:24:37Z</time>
      </trkpt>
      <trkpt lat="44.81658" lon="6.94677">
        <ele>1760.2</ele>
        <time>2022-02-25T15:24:38Z</time>
      </trkpt>
      <trkpt lat="44.8166" lon="6.94675">
        <ele>1760.3</ele>
        <time>2022-02-25T15:24:39Z</time>
      </trkpt>
      <trkpt lat="44.8166" lon="6.94675">
        <ele>1760.3</ele>
        <time>2022-02-25T15:24:40Z</time>
      </trkpt>
      <trkpt lat="44.81662" lon="6.94674">
        <ele>1760.5</ele>
        <time>2022-02-25T15:24:41Z</time>
      </trkpt>
      <trkpt lat="44.81662" lon="6.94674">
        <ele>1760.5</ele>
        <time>2022-02-25T15:24:42Z</time>
      </trkpt>
      <trkpt lat="44.81664" lon="6.94673">
        <ele>1760.8</ele>
        <time>2022-02-25T15:24:43Z</time>
      </trkpt>
      <trkpt lat="44.81664" lon="6.94673">
        <ele>1760.8</ele>
        <time>2022-02-25T15:24:44Z</time>
      </trkpt>
      <trkpt lat="44.81666" lon="6.94672">
        <ele>1761</ele>
        <time>2022-02-25T15:24:45Z</time>
      </trkpt>
      <trkpt lat="44.81666" lon="6.94672">
        <ele>1761</ele>
        <time>2022-02-25T15:24:46Z</time>
      </trkpt>
      <trkpt lat="44.81666" lon="6.94672">
        <ele>1761</ele>
        <time>2022-02-25T15:24:47Z</time>
      </trkpt>
      <trkpt lat="44.81668" lon="6.94669">
        <ele>1760.7</ele>
        <time>2022-02-25T15:24:48Z</time>
      </trkpt>
      <trkpt lat="44.81668" lon="6.94669">
        <ele>1760.7</ele>
        <time>2022-02-25T15:24:49Z</time>
      </trkpt>
      <trkpt lat="44.8167" lon="6.94668">
        <ele>1760.9</ele>
        <time>2022-02-25T15:24:50Z</time>
      </trkpt>
      <trkpt lat="44.8167" lon="6.94668">
        <ele>1760.9</ele>
        <time>2022-02-25T15:24:51Z</time>
      </trkpt>
      <trkpt lat="44.81672" lon="6.94666">
        <ele>1760.8</ele>
        <time>2022-02-25T15:24:52Z</time>
      </trkpt>
      <trkpt lat="44.81672" lon="6.94666">
        <ele>1760.8</ele>
        <time>2022-02-25T15:24:53Z</time>
      </trkpt>
      <trkpt lat="44.81672" lon="6.94666">
        <ele>1760.8</ele>
        <time>2022-02-25T15:24:54Z</time>
      </trkpt>
      <trkpt lat="44.81674" lon="6.94664">
        <ele>1760.6</ele>
        <time>2022-02-25T15:24:55Z</time>
      </trkpt>
      <trkpt lat="44.81674" lon="6.94664">
        <ele>1760.6</ele>
        <time>2022-02-25T15:24:56Z</time>
      </trkpt>
      <trkpt lat="44.81676" lon="6.94662">
        <ele>1760.4</ele>
        <time>2022-02-25T15:24:57Z</time>
      </trkpt>
      <trkpt lat="44.81676" lon="6.94662">
        <ele>1760.4</ele>
        <time>2022-02-25T15:24:58Z</time>
      </trkpt>
      <trkpt lat="44.81678" lon="6.9466">
        <ele>1760.2</ele>
        <time>2022-02-25T15:24:59Z</time>
      </trkpt>
      <trkpt lat="44.81678" lon="6.9466">
        <ele>1760.2</ele>
        <time>2022-02-25T15:25:00Z</time>
      </trkpt>
      <trkpt lat="44.81678" lon="6.9466">
        <ele>1760.2</ele>
        <time>2022-02-25T15:25:01Z</time>
      </trkpt>
      <trkpt lat="44.8168" lon="6.94657">
        <ele>1759.8</ele>
        <time>2022-02-25T15:25:02Z</time>
      </trkpt>
      <trkpt lat="44.8168" lon="6.94657">
        <ele>1759.8</ele>
        <time>2022-02-25T15:25:03Z</time>
      </trkpt>
      <trkpt lat="44.81682" lon="6.94656">
        <ele>1759.9</ele>
        <time>2022-02-25T15:25:04Z</time>
      </trkpt>
      <trkpt lat="44.81682" lon="6.94656">
        <ele>1759.9</ele>
        <time>2022-02-25T15:25:05Z</time>
      </trkpt>
      <trkpt lat="44.81684" lon="6.94654">
        <ele>1759.8</ele>
        <time>2022-02-25T15:25:06Z</time>
      </trkpt>
      <trkpt lat="44.81684" lon="6.94654">
        <ele>1759.8</ele>
        <time>2022-02-25T15:25:07Z</time>
      </trkpt>
      <trkpt lat="44.81686" lon="6.94652">
        <ele>1759.6</ele>
        <time>2022-02-25T15:25:08Z</time>
      </trkpt>
      <trkpt lat="44.81686" lon="6.94652">
        <ele>1759.6</ele>
        <time>2022-02-25T15:25:09Z</time>
      </trkpt>
      <trkpt lat="44.81688" lon="6.94651">
        <ele>1759.8</ele>
        <time>2022-02-25T15:25:10Z</time>
      </trkpt>
      <trkpt lat="44.81688" lon="6.94651">
        <ele>1759.8</ele>
        <time>2022-02-25T15:25:11Z</time>
      </trkpt>
      <trkpt lat="44.81689" lon="6.94648">
        <ele>1759.2</ele>
        <time>2022-02-25T15:25:12Z</time>
      </trkpt>
      <trkpt lat="44.81689" lon="6.94648">
        <ele>1759.2</ele>
        <time>2022-02-25T15:25:13Z</time>
      </trkpt>
      <trkpt lat="44.81691" lon="6.94646">
        <ele>1759.1</ele>
        <time>2022-02-25T15:25:14Z</time>
      </trkpt>
      <trkpt lat="44.81691" lon="6.94646">
        <ele>1759.1</ele>
        <time>2022-02-25T15:25:15Z</time>
      </trkpt>
      <trkpt lat="44.81691" lon="6.94646">
        <ele>1759.1</ele>
        <time>2022-02-25T15:25:16Z</time>
      </trkpt>
      <trkpt lat="44.81693" lon="6.94644">
        <ele>1759</ele>
        <time>2022-02-25T15:25:17Z</time>
      </trkpt>
      <trkpt lat="44.81693" lon="6.94644">
        <ele>1759</ele>
        <time>2022-02-25T15:25:18Z</time>
      </trkpt>
      <trkpt lat="44.81693" lon="6.94644">
        <ele>1759</ele>
        <time>2022-02-25T15:25:19Z</time>
      </trkpt>
      <trkpt lat="44.81695" lon="6.94643">
        <ele>1759.1</ele>
        <time>2022-02-25T15:25:20Z</time>
      </trkpt>
      <trkpt lat="44.81695" lon="6.94643">
        <ele>1759.1</ele>
        <time>2022-02-25T15:25:21Z</time>
      </trkpt>
      <trkpt lat="44.81695" lon="6.94643">
        <ele>1759.1</ele>
        <time>2022-02-25T15:25:22Z</time>
      </trkpt>
      <trkpt lat="44.81695" lon="6.94643">
        <ele>1759.1</ele>
        <time>2022-02-25T15:25:23Z</time>
      </trkpt>
      <trkpt lat="44.81695" lon="6.94643">
        <ele>1759.1</ele>
        <time>2022-02-25T15:25:24Z</time>
      </trkpt>
      <trkpt lat="44.81695" lon="6.94643">
        <ele>1759.1</ele>
        <time>2022-02-25T15:25:25Z</time>
      </trkpt>
      <trkpt lat="44.81695" lon="6.94643">
        <ele>1759.1</ele>
        <time>2022-02-25T15:25:26Z</time>
      </trkpt>
      <trkpt lat="44.81695" lon="6.94643">
        <ele>1759.1</ele>
        <time>2022-02-25T15:25:27Z</time>
      </trkpt>
      <trkpt lat="44.81695" lon="6.94643">
        <ele>1759.1</ele>
        <time>2022-02-25T15:25:28Z</time>
      </trkpt>
      <trkpt lat="44.81695" lon="6.94643">
        <ele>1759.1</ele>
        <time>2022-02-25T15:25:29Z</time>
      </trkpt>
      <trkpt lat="44.81695" lon="6.94643">
        <ele>1759.1</ele>
        <time>2022-02-25T15:25:30Z</time>
      </trkpt>
      <trkpt lat="44.81697" lon="6.94642">
        <ele>1759.2</ele>
        <time>2022-02-25T15:25:31Z</time>
      </trkpt>
      <trkpt lat="44.81697" lon="6.94642">
        <ele>1759.2</ele>
        <time>2022-02-25T15:25:32Z</time>
      </trkpt>
      <trkpt lat="44.81697" lon="6.94642">
        <ele>1759.2</ele>
        <time>2022-02-25T15:25:33Z</time>
      </trkpt>
      <trkpt lat="44.81697" lon="6.94642">
        <ele>1759.2</ele>
        <time>2022-02-25T15:25:34Z</time>
      </trkpt>
      <trkpt lat="44.817" lon="6.9464">
        <ele>1759.1</ele>
        <time>2022-02-25T15:25:35Z</time>
      </trkpt>
      <trkpt lat="44.817" lon="6.9464">
        <ele>1759.1</ele>
        <time>2022-02-25T15:25:36Z</time>
      </trkpt>
      <trkpt lat="44.817" lon="6.9464">
        <ele>1759.1</ele>
        <time>2022-02-25T15:25:37Z</time>
      </trkpt>
      <trkpt lat="44.81701" lon="6.94639">
        <ele>1759</ele>
        <time>2022-02-25T15:25:38Z</time>
      </trkpt>
      <trkpt lat="44.81701" lon="6.94639">
        <ele>1759</ele>
        <time>2022-02-25T15:25:39Z</time>
      </trkpt>
      <trkpt lat="44.81701" lon="6.94639">
        <ele>1759</ele>
        <time>2022-02-25T15:25:40Z</time>
      </trkpt>
      <trkpt lat="44.81703" lon="6.94637">
        <ele>1758.7</ele>
        <time>2022-02-25T15:25:41Z</time>
      </trkpt>
      <trkpt lat="44.81703" lon="6.94637">
        <ele>1758.7</ele>
        <time>2022-02-25T15:25:42Z</time>
      </trkpt>
      <trkpt lat="44.81706" lon="6.94635">
        <ele>1758.6</ele>
        <time>2022-02-25T15:25:43Z</time>
      </trkpt>
      <trkpt lat="44.81706" lon="6.94635">
        <ele>1758.6</ele>
        <time>2022-02-25T15:25:44Z</time>
      </trkpt>
      <trkpt lat="44.81708" lon="6.94634">
        <ele>1758.5</ele>
        <time>2022-02-25T15:25:45Z</time>
      </trkpt>
      <trkpt lat="44.81708" lon="6.94634">
        <ele>1758.5</ele>
        <time>2022-02-25T15:25:46Z</time>
      </trkpt>
      <trkpt lat="44.81708" lon="6.94634">
        <ele>1758.5</ele>
        <time>2022-02-25T15:25:47Z</time>
      </trkpt>
      <trkpt lat="44.8171" lon="6.94633">
        <ele>1758.5</ele>
        <time>2022-02-25T15:25:48Z</time>
      </trkpt>
      <trkpt lat="44.8171" lon="6.94633">
        <ele>1758.5</ele>
        <time>2022-02-25T15:25:49Z</time>
      </trkpt>
      <trkpt lat="44.81712" lon="6.94632">
        <ele>1758.5</ele>
        <time>2022-02-25T15:25:50Z</time>
      </trkpt>
      <trkpt lat="44.81712" lon="6.94632">
        <ele>1758.5</ele>
        <time>2022-02-25T15:25:51Z</time>
      </trkpt>
      <trkpt lat="44.81712" lon="6.94632">
        <ele>1758.5</ele>
        <time>2022-02-25T15:25:52Z</time>
      </trkpt>
      <trkpt lat="44.81715" lon="6.9463">
        <ele>1758.2</ele>
        <time>2022-02-25T15:25:53Z</time>
      </trkpt>
      <trkpt lat="44.81715" lon="6.9463">
        <ele>1758.2</ele>
        <time>2022-02-25T15:25:54Z</time>
      </trkpt>
      <trkpt lat="44.81717" lon="6.94629">
        <ele>1758.2</ele>
        <time>2022-02-25T15:25:55Z</time>
      </trkpt>
      <trkpt lat="44.81717" lon="6.94629">
        <ele>1758.2</ele>
        <time>2022-02-25T15:25:56Z</time>
      </trkpt>
      <trkpt lat="44.81717" lon="6.94629">
        <ele>1758.2</ele>
        <time>2022-02-25T15:25:57Z</time>
      </trkpt>
      <trkpt lat="44.8172" lon="6.94627">
        <ele>1757.9</ele>
        <time>2022-02-25T15:25:58Z</time>
      </trkpt>
      <trkpt lat="44.8172" lon="6.94627">
        <ele>1757.9</ele>
        <time>2022-02-25T15:25:59Z</time>
      </trkpt>
      <trkpt lat="44.8172" lon="6.94627">
        <ele>1757.9</ele>
        <time>2022-02-25T15:26:00Z</time>
      </trkpt>
      <trkpt lat="44.81722" lon="6.94626">
        <ele>1757.8</ele>
        <time>2022-02-25T15:26:01Z</time>
      </trkpt>
      <trkpt lat="44.81722" lon="6.94626">
        <ele>1757.8</ele>
        <time>2022-02-25T15:26:02Z</time>
      </trkpt>
      <trkpt lat="44.81724" lon="6.94625">
        <ele>1757.8</ele>
        <time>2022-02-25T15:26:03Z</time>
      </trkpt>
      <trkpt lat="44.81724" lon="6.94625">
        <ele>1757.8</ele>
        <time>2022-02-25T15:26:04Z</time>
      </trkpt>
      <trkpt lat="44.81724" lon="6.94625">
        <ele>1757.8</ele>
        <time>2022-02-25T15:26:05Z</time>
      </trkpt>
      <trkpt lat="44.81726" lon="6.94624">
        <ele>1757.9</ele>
        <time>2022-02-25T15:26:06Z</time>
      </trkpt>
      <trkpt lat="44.81726" lon="6.94624">
        <ele>1757.9</ele>
        <time>2022-02-25T15:26:07Z</time>
      </trkpt>
      <trkpt lat="44.81728" lon="6.94624">
        <ele>1758.2</ele>
        <time>2022-02-25T15:26:08Z</time>
      </trkpt>
      <trkpt lat="44.81728" lon="6.94624">
        <ele>1758.2</ele>
        <time>2022-02-25T15:26:09Z</time>
      </trkpt>
      <trkpt lat="44.81731" lon="6.94623">
        <ele>1758.5</ele>
        <time>2022-02-25T15:26:10Z</time>
      </trkpt>
      <trkpt lat="44.81731" lon="6.94623">
        <ele>1758.5</ele>
        <time>2022-02-25T15:26:11Z</time>
      </trkpt>
      <trkpt lat="44.81732" lon="6.94621">
        <ele>1758.1</ele>
        <time>2022-02-25T15:26:12Z</time>
      </trkpt>
      <trkpt lat="44.81732" lon="6.94621">
        <ele>1758.1</ele>
        <time>2022-02-25T15:26:13Z</time>
      </trkpt>
      <trkpt lat="44.81732" lon="6.94621">
        <ele>1758.1</ele>
        <time>2022-02-25T15:26:14Z</time>
      </trkpt>
      <trkpt lat="44.81735" lon="6.94619">
        <ele>1758.1</ele>
        <time>2022-02-25T15:26:15Z</time>
      </trkpt>
      <trkpt lat="44.81735" lon="6.94619">
        <ele>1758.1</ele>
        <time>2022-02-25T15:26:16Z</time>
      </trkpt>
      <trkpt lat="44.81736" lon="6.94618">
        <ele>1758</ele>
        <time>2022-02-25T15:26:17Z</time>
      </trkpt>
      <trkpt lat="44.81736" lon="6.94618">
        <ele>1758</ele>
        <time>2022-02-25T15:26:18Z</time>
      </trkpt>
      <trkpt lat="44.81738" lon="6.94617">
        <ele>1758.1</ele>
        <time>2022-02-25T15:26:19Z</time>
      </trkpt>
      <trkpt lat="44.81738" lon="6.94617">
        <ele>1758.1</ele>
        <time>2022-02-25T15:26:20Z</time>
      </trkpt>
      <trkpt lat="44.81738" lon="6.94617">
        <ele>1758.1</ele>
        <time>2022-02-25T15:26:21Z</time>
      </trkpt>
      <trkpt lat="44.81738" lon="6.94617">
        <ele>1758.1</ele>
        <time>2022-02-25T15:26:22Z</time>
      </trkpt>
      <trkpt lat="44.81738" lon="6.94617">
        <ele>1758.1</ele>
        <time>2022-02-25T15:26:23Z</time>
      </trkpt>
      <trkpt lat="44.81738" lon="6.94617">
        <ele>1758.1</ele>
        <time>2022-02-25T15:26:24Z</time>
      </trkpt>
      <trkpt lat="44.8174" lon="6.94616">
        <ele>1758.2</ele>
        <time>2022-02-25T15:26:25Z</time>
      </trkpt>
      <trkpt lat="44.8174" lon="6.94616">
        <ele>1758.2</ele>
        <time>2022-02-25T15:26:26Z</time>
      </trkpt>
      <trkpt lat="44.8174" lon="6.94616">
        <ele>1758.2</ele>
        <time>2022-02-25T15:26:27Z</time>
      </trkpt>
      <trkpt lat="44.81741" lon="6.94613">
        <ele>1757.6</ele>
        <time>2022-02-25T15:26:28Z</time>
      </trkpt>
      <trkpt lat="44.81741" lon="6.94613">
        <ele>1757.6</ele>
        <time>2022-02-25T15:26:29Z</time>
      </trkpt>
      <trkpt lat="44.81742" lon="6.94611">
        <ele>1757.2</ele>
        <time>2022-02-25T15:26:30Z</time>
      </trkpt>
      <trkpt lat="44.81742" lon="6.94611">
        <ele>1757.2</ele>
        <time>2022-02-25T15:26:31Z</time>
      </trkpt>
      <trkpt lat="44.81742" lon="6.94611">
        <ele>1757.2</ele>
        <time>2022-02-25T15:26:32Z</time>
      </trkpt>
      <trkpt lat="44.81744" lon="6.94608">
        <ele>1756.8</ele>
        <time>2022-02-25T15:26:33Z</time>
      </trkpt>
      <trkpt lat="44.81744" lon="6.94608">
        <ele>1756.8</ele>
        <time>2022-02-25T15:26:34Z</time>
      </trkpt>
      <trkpt lat="44.81745" lon="6.94606">
        <ele>1756.4</ele>
        <time>2022-02-25T15:26:35Z</time>
      </trkpt>
      <trkpt lat="44.81745" lon="6.94606">
        <ele>1756.4</ele>
        <time>2022-02-25T15:26:36Z</time>
      </trkpt>
      <trkpt lat="44.81746" lon="6.94603">
        <ele>1755.8</ele>
        <time>2022-02-25T15:26:37Z</time>
      </trkpt>
      <trkpt lat="44.81746" lon="6.94603">
        <ele>1755.8</ele>
        <time>2022-02-25T15:26:38Z</time>
      </trkpt>
      <trkpt lat="44.81746" lon="6.94601">
        <ele>1755.2</ele>
        <time>2022-02-25T15:26:39Z</time>
      </trkpt>
      <trkpt lat="44.81746" lon="6.94601">
        <ele>1755.2</ele>
        <time>2022-02-25T15:26:40Z</time>
      </trkpt>
      <trkpt lat="44.81748" lon="6.94599">
        <ele>1755.1</ele>
        <time>2022-02-25T15:26:41Z</time>
      </trkpt>
      <trkpt lat="44.81748" lon="6.94599">
        <ele>1755.1</ele>
        <time>2022-02-25T15:26:42Z</time>
      </trkpt>
      <trkpt lat="44.81749" lon="6.94597">
        <ele>1754.7</ele>
        <time>2022-02-25T15:26:43Z</time>
      </trkpt>
      <trkpt lat="44.81749" lon="6.94597">
        <ele>1754.7</ele>
        <time>2022-02-25T15:26:44Z</time>
      </trkpt>
      <trkpt lat="44.8175" lon="6.94595">
        <ele>1754.4</ele>
        <time>2022-02-25T15:26:45Z</time>
      </trkpt>
      <trkpt lat="44.8175" lon="6.94595">
        <ele>1754.4</ele>
        <time>2022-02-25T15:26:46Z</time>
      </trkpt>
      <trkpt lat="44.81751" lon="6.94592">
        <ele>1753.9</ele>
        <time>2022-02-25T15:26:47Z</time>
      </trkpt>
      <trkpt lat="44.81751" lon="6.94592">
        <ele>1753.9</ele>
        <time>2022-02-25T15:26:48Z</time>
      </trkpt>
      <trkpt lat="44.81753" lon="6.9459">
        <ele>1754.1</ele>
        <time>2022-02-25T15:26:49Z</time>
      </trkpt>
      <trkpt lat="44.81753" lon="6.9459">
        <ele>1754.1</ele>
        <time>2022-02-25T15:26:50Z</time>
      </trkpt>
      <trkpt lat="44.81754" lon="6.94589">
        <ele>1754.2</ele>
        <time>2022-02-25T15:26:51Z</time>
      </trkpt>
      <trkpt lat="44.81754" lon="6.94589">
        <ele>1754.2</ele>
        <time>2022-02-25T15:26:52Z</time>
      </trkpt>
      <trkpt lat="44.81756" lon="6.94587">
        <ele>1754.4</ele>
        <time>2022-02-25T15:26:53Z</time>
      </trkpt>
      <trkpt lat="44.81756" lon="6.94587">
        <ele>1754.4</ele>
        <time>2022-02-25T15:26:54Z</time>
      </trkpt>
      <trkpt lat="44.81757" lon="6.94585">
        <ele>1754.2</ele>
        <time>2022-02-25T15:26:55Z</time>
      </trkpt>
      <trkpt lat="44.81757" lon="6.94585">
        <ele>1754.2</ele>
        <time>2022-02-25T15:26:56Z</time>
      </trkpt>
      <trkpt lat="44.81759" lon="6.94583">
        <ele>1754.5</ele>
        <time>2022-02-25T15:26:57Z</time>
      </trkpt>
      <trkpt lat="44.81759" lon="6.94583">
        <ele>1754.5</ele>
        <time>2022-02-25T15:26:58Z</time>
      </trkpt>
      <trkpt lat="44.8176" lon="6.9458">
        <ele>1754.2</ele>
        <time>2022-02-25T15:26:59Z</time>
      </trkpt>
      <trkpt lat="44.8176" lon="6.9458">
        <ele>1754.2</ele>
        <time>2022-02-25T15:27:00Z</time>
      </trkpt>
      <trkpt lat="44.81761" lon="6.94577">
        <ele>1753.9</ele>
        <time>2022-02-25T15:27:01Z</time>
      </trkpt>
      <trkpt lat="44.81761" lon="6.94577">
        <ele>1753.9</ele>
        <time>2022-02-25T15:27:02Z</time>
      </trkpt>
      <trkpt lat="44.81762" lon="6.94575">
        <ele>1753.8</ele>
        <time>2022-02-25T15:27:03Z</time>
      </trkpt>
      <trkpt lat="44.81762" lon="6.94575">
        <ele>1753.8</ele>
        <time>2022-02-25T15:27:04Z</time>
      </trkpt>
      <trkpt lat="44.81764" lon="6.94573">
        <ele>1754.1</ele>
        <time>2022-02-25T15:27:05Z</time>
      </trkpt>
      <trkpt lat="44.81764" lon="6.94573">
        <ele>1754.1</ele>
        <time>2022-02-25T15:27:06Z</time>
      </trkpt>
      <trkpt lat="44.81765" lon="6.94571">
        <ele>1754.1</ele>
        <time>2022-02-25T15:27:07Z</time>
      </trkpt>
      <trkpt lat="44.81765" lon="6.94571">
        <ele>1754.1</ele>
        <time>2022-02-25T15:27:08Z</time>
      </trkpt>
      <trkpt lat="44.81766" lon="6.94569">
        <ele>1754</ele>
        <time>2022-02-25T15:27:09Z</time>
      </trkpt>
      <trkpt lat="44.81766" lon="6.94569">
        <ele>1754</ele>
        <time>2022-02-25T15:27:10Z</time>
      </trkpt>
      <trkpt lat="44.81767" lon="6.94566">
        <ele>1753.7</ele>
        <time>2022-02-25T15:27:11Z</time>
      </trkpt>
      <trkpt lat="44.81767" lon="6.94566">
        <ele>1753.7</ele>
        <time>2022-02-25T15:27:12Z</time>
      </trkpt>
      <trkpt lat="44.81768" lon="6.94563">
        <ele>1753.5</ele>
        <time>2022-02-25T15:27:13Z</time>
      </trkpt>
      <trkpt lat="44.81768" lon="6.94563">
        <ele>1753.5</ele>
        <time>2022-02-25T15:27:14Z</time>
      </trkpt>
      <trkpt lat="44.81769" lon="6.94561">
        <ele>1753.4</ele>
        <time>2022-02-25T15:27:15Z</time>
      </trkpt>
      <trkpt lat="44.81769" lon="6.94561">
        <ele>1753.4</ele>
        <time>2022-02-25T15:27:16Z</time>
      </trkpt>
      <trkpt lat="44.81769" lon="6.94561">
        <ele>1753.4</ele>
        <time>2022-02-25T15:27:17Z</time>
      </trkpt>
      <trkpt lat="44.8177" lon="6.94557">
        <ele>1753</ele>
        <time>2022-02-25T15:27:18Z</time>
      </trkpt>
      <trkpt lat="44.8177" lon="6.94557">
        <ele>1753</ele>
        <time>2022-02-25T15:27:19Z</time>
      </trkpt>
      <trkpt lat="44.81771" lon="6.94554">
        <ele>1752.7</ele>
        <time>2022-02-25T15:27:20Z</time>
      </trkpt>
      <trkpt lat="44.81771" lon="6.94554">
        <ele>1752.7</ele>
        <time>2022-02-25T15:27:21Z</time>
      </trkpt>
      <trkpt lat="44.81772" lon="6.94551">
        <ele>1752.6</ele>
        <time>2022-02-25T15:27:22Z</time>
      </trkpt>
      <trkpt lat="44.81772" lon="6.94551">
        <ele>1752.6</ele>
        <time>2022-02-25T15:27:23Z</time>
      </trkpt>
      <trkpt lat="44.81773" lon="6.94548">
        <ele>1752.4</ele>
        <time>2022-02-25T15:27:24Z</time>
      </trkpt>
      <trkpt lat="44.81773" lon="6.94548">
        <ele>1752.4</ele>
        <time>2022-02-25T15:27:25Z</time>
      </trkpt>
      <trkpt lat="44.81774" lon="6.94546">
        <ele>1752.4</ele>
        <time>2022-02-25T15:27:26Z</time>
      </trkpt>
      <trkpt lat="44.81774" lon="6.94546">
        <ele>1752.4</ele>
        <time>2022-02-25T15:27:27Z</time>
      </trkpt>
      <trkpt lat="44.81774" lon="6.94542">
        <ele>1751.5</ele>
        <time>2022-02-25T15:27:28Z</time>
      </trkpt>
      <trkpt lat="44.81774" lon="6.94542">
        <ele>1751.5</ele>
        <time>2022-02-25T15:27:29Z</time>
      </trkpt>
      <trkpt lat="44.81774" lon="6.94542">
        <ele>1751.5</ele>
        <time>2022-02-25T15:27:30Z</time>
      </trkpt>
      <trkpt lat="44.81774" lon="6.94542">
        <ele>1751.5</ele>
        <time>2022-02-25T15:27:31Z</time>
      </trkpt>
      <trkpt lat="44.81774" lon="6.94542">
        <ele>1751.5</ele>
        <time>2022-02-25T15:27:32Z</time>
      </trkpt>
      <trkpt lat="44.81774" lon="6.94542">
        <ele>1751.5</ele>
        <time>2022-02-25T15:27:33Z</time>
      </trkpt>
      <trkpt lat="44.81774" lon="6.94542">
        <ele>1751.5</ele>
        <time>2022-02-25T15:27:34Z</time>
      </trkpt>
      <trkpt lat="44.81774" lon="6.94542">
        <ele>1751.5</ele>
        <time>2022-02-25T15:27:35Z</time>
      </trkpt>
      <trkpt lat="44.81774" lon="6.94542">
        <ele>1751.5</ele>
        <time>2022-02-25T15:27:36Z</time>
      </trkpt>
      <trkpt lat="44.81774" lon="6.94542">
        <ele>1751.5</ele>
        <time>2022-02-25T15:27:37Z</time>
      </trkpt>
      <trkpt lat="44.81774" lon="6.94542">
        <ele>1751.5</ele>
        <time>2022-02-25T15:27:38Z</time>
      </trkpt>
      <trkpt lat="44.81775" lon="6.9454">
        <ele>1751.5</ele>
        <time>2022-02-25T15:27:39Z</time>
      </trkpt>
      <trkpt lat="44.81775" lon="6.9454">
        <ele>1751.5</ele>
        <time>2022-02-25T15:27:40Z</time>
      </trkpt>
      <trkpt lat="44.81775" lon="6.9454">
        <ele>1751.5</ele>
        <time>2022-02-25T15:27:41Z</time>
      </trkpt>
      <trkpt lat="44.81775" lon="6.9454">
        <ele>1751.5</ele>
        <time>2022-02-25T15:27:42Z</time>
      </trkpt>
      <trkpt lat="44.81776" lon="6.94537">
        <ele>1751.3</ele>
        <time>2022-02-25T15:27:43Z</time>
      </trkpt>
      <trkpt lat="44.81776" lon="6.94537">
        <ele>1751.3</ele>
        <time>2022-02-25T15:27:44Z</time>
      </trkpt>
      <trkpt lat="44.81777" lon="6.94535">
        <ele>1751.2</ele>
        <time>2022-02-25T15:27:45Z</time>
      </trkpt>
      <trkpt lat="44.81777" lon="6.94535">
        <ele>1751.2</ele>
        <time>2022-02-25T15:27:46Z</time>
      </trkpt>
      <trkpt lat="44.81779" lon="6.94533">
        <ele>1751.6</ele>
        <time>2022-02-25T15:27:47Z</time>
      </trkpt>
      <trkpt lat="44.81779" lon="6.94533">
        <ele>1751.6</ele>
        <time>2022-02-25T15:27:48Z</time>
      </trkpt>
      <trkpt lat="44.8178" lon="6.9453">
        <ele>1751.3</ele>
        <time>2022-02-25T15:27:49Z</time>
      </trkpt>
      <trkpt lat="44.8178" lon="6.9453">
        <ele>1751.3</ele>
        <time>2022-02-25T15:27:50Z</time>
      </trkpt>
      <trkpt lat="44.81781" lon="6.94528">
        <ele>1751.2</ele>
        <time>2022-02-25T15:27:51Z</time>
      </trkpt>
      <trkpt lat="44.81781" lon="6.94528">
        <ele>1751.2</ele>
        <time>2022-02-25T15:27:52Z</time>
      </trkpt>
      <trkpt lat="44.81782" lon="6.94525">
        <ele>1751</ele>
        <time>2022-02-25T15:27:53Z</time>
      </trkpt>
      <trkpt lat="44.81782" lon="6.94525">
        <ele>1751</ele>
        <time>2022-02-25T15:27:54Z</time>
      </trkpt>
      <trkpt lat="44.81784" lon="6.94523">
        <ele>1751.3</ele>
        <time>2022-02-25T15:27:55Z</time>
      </trkpt>
      <trkpt lat="44.81784" lon="6.94523">
        <ele>1751.3</ele>
        <time>2022-02-25T15:27:56Z</time>
      </trkpt>
      <trkpt lat="44.81785" lon="6.94521">
        <ele>1751.3</ele>
        <time>2022-02-25T15:27:57Z</time>
      </trkpt>
      <trkpt lat="44.81785" lon="6.94521">
        <ele>1751.3</ele>
        <time>2022-02-25T15:27:58Z</time>
      </trkpt>
      <trkpt lat="44.81786" lon="6.94519">
        <ele>1751.2</ele>
        <time>2022-02-25T15:27:59Z</time>
      </trkpt>
      <trkpt lat="44.81786" lon="6.94519">
        <ele>1751.2</ele>
        <time>2022-02-25T15:28:00Z</time>
      </trkpt>
      <trkpt lat="44.81788" lon="6.94517">
        <ele>1751.5</ele>
        <time>2022-02-25T15:28:01Z</time>
      </trkpt>
      <trkpt lat="44.81788" lon="6.94517">
        <ele>1751.5</ele>
        <time>2022-02-25T15:28:02Z</time>
      </trkpt>
      <trkpt lat="44.81789" lon="6.94515">
        <ele>1751.4</ele>
        <time>2022-02-25T15:28:03Z</time>
      </trkpt>
      <trkpt lat="44.81789" lon="6.94515">
        <ele>1751.4</ele>
        <time>2022-02-25T15:28:04Z</time>
      </trkpt>
      <trkpt lat="44.8179" lon="6.94513">
        <ele>1751.3</ele>
        <time>2022-02-25T15:28:05Z</time>
      </trkpt>
      <trkpt lat="44.8179" lon="6.94513">
        <ele>1751.3</ele>
        <time>2022-02-25T15:28:06Z</time>
      </trkpt>
      <trkpt lat="44.81792" lon="6.9451">
        <ele>1751.3</ele>
        <time>2022-02-25T15:28:07Z</time>
      </trkpt>
      <trkpt lat="44.81792" lon="6.9451">
        <ele>1751.3</ele>
        <time>2022-02-25T15:28:08Z</time>
      </trkpt>
      <trkpt lat="44.81793" lon="6.94508">
        <ele>1751.1</ele>
        <time>2022-02-25T15:28:09Z</time>
      </trkpt>
      <trkpt lat="44.81793" lon="6.94508">
        <ele>1751.1</ele>
        <time>2022-02-25T15:28:10Z</time>
      </trkpt>
      <trkpt lat="44.81795" lon="6.94506">
        <ele>1751.3</ele>
        <time>2022-02-25T15:28:11Z</time>
      </trkpt>
      <trkpt lat="44.81795" lon="6.94506">
        <ele>1751.3</ele>
        <time>2022-02-25T15:28:12Z</time>
      </trkpt>
      <trkpt lat="44.81796" lon="6.94504">
        <ele>1751.2</ele>
        <time>2022-02-25T15:28:13Z</time>
      </trkpt>
      <trkpt lat="44.81796" lon="6.94504">
        <ele>1751.2</ele>
        <time>2022-02-25T15:28:14Z</time>
      </trkpt>
      <trkpt lat="44.81798" lon="6.94503">
        <ele>1751.5</ele>
        <time>2022-02-25T15:28:15Z</time>
      </trkpt>
      <trkpt lat="44.81798" lon="6.94503">
        <ele>1751.5</ele>
        <time>2022-02-25T15:28:16Z</time>
      </trkpt>
      <trkpt lat="44.818" lon="6.94501">
        <ele>1751.6</ele>
        <time>2022-02-25T15:28:17Z</time>
      </trkpt>
      <trkpt lat="44.818" lon="6.94501">
        <ele>1751.6</ele>
        <time>2022-02-25T15:28:18Z</time>
      </trkpt>
      <trkpt lat="44.81802" lon="6.94499">
        <ele>1751.7</ele>
        <time>2022-02-25T15:28:19Z</time>
      </trkpt>
      <trkpt lat="44.81802" lon="6.94499">
        <ele>1751.7</ele>
        <time>2022-02-25T15:28:20Z</time>
      </trkpt>
      <trkpt lat="44.81804" lon="6.94498">
        <ele>1751.9</ele>
        <time>2022-02-25T15:28:21Z</time>
      </trkpt>
      <trkpt lat="44.81804" lon="6.94498">
        <ele>1751.9</ele>
        <time>2022-02-25T15:28:22Z</time>
      </trkpt>
      <trkpt lat="44.81805" lon="6.94496">
        <ele>1751.5</ele>
        <time>2022-02-25T15:28:23Z</time>
      </trkpt>
      <trkpt lat="44.81805" lon="6.94496">
        <ele>1751.5</ele>
        <time>2022-02-25T15:28:24Z</time>
      </trkpt>
      <trkpt lat="44.81807" lon="6.94495">
        <ele>1751.6</ele>
        <time>2022-02-25T15:28:25Z</time>
      </trkpt>
      <trkpt lat="44.81807" lon="6.94495">
        <ele>1751.6</ele>
        <time>2022-02-25T15:28:26Z</time>
      </trkpt>
      <trkpt lat="44.81809" lon="6.94494">
        <ele>1751.7</ele>
        <time>2022-02-25T15:28:27Z</time>
      </trkpt>
      <trkpt lat="44.81809" lon="6.94494">
        <ele>1751.7</ele>
        <time>2022-02-25T15:28:28Z</time>
      </trkpt>
      <trkpt lat="44.81811" lon="6.94493">
        <ele>1751.7</ele>
        <time>2022-02-25T15:28:29Z</time>
      </trkpt>
      <trkpt lat="44.81811" lon="6.94493">
        <ele>1751.7</ele>
        <time>2022-02-25T15:28:30Z</time>
      </trkpt>
      <trkpt lat="44.81813" lon="6.94492">
        <ele>1751.7</ele>
        <time>2022-02-25T15:28:31Z</time>
      </trkpt>
      <trkpt lat="44.81813" lon="6.94492">
        <ele>1751.7</ele>
        <time>2022-02-25T15:28:32Z</time>
      </trkpt>
      <trkpt lat="44.81815" lon="6.94491">
        <ele>1751.8</ele>
        <time>2022-02-25T15:28:33Z</time>
      </trkpt>
      <trkpt lat="44.81815" lon="6.94491">
        <ele>1751.8</ele>
        <time>2022-02-25T15:28:34Z</time>
      </trkpt>
      <trkpt lat="44.81815" lon="6.94491">
        <ele>1751.8</ele>
        <time>2022-02-25T15:28:35Z</time>
      </trkpt>
      <trkpt lat="44.81817" lon="6.9449">
        <ele>1751.8</ele>
        <time>2022-02-25T15:28:36Z</time>
      </trkpt>
      <trkpt lat="44.81817" lon="6.9449">
        <ele>1751.8</ele>
        <time>2022-02-25T15:28:37Z</time>
      </trkpt>
      <trkpt lat="44.81819" lon="6.9449">
        <ele>1752.2</ele>
        <time>2022-02-25T15:28:38Z</time>
      </trkpt>
      <trkpt lat="44.81819" lon="6.9449">
        <ele>1752.2</ele>
        <time>2022-02-25T15:28:39Z</time>
      </trkpt>
      <trkpt lat="44.81819" lon="6.9449">
        <ele>1752.2</ele>
        <time>2022-02-25T15:28:40Z</time>
      </trkpt>
      <trkpt lat="44.81819" lon="6.9449">
        <ele>1752.2</ele>
        <time>2022-02-25T15:28:41Z</time>
      </trkpt>
      <trkpt lat="44.81819" lon="6.9449">
        <ele>1752.2</ele>
        <time>2022-02-25T15:28:42Z</time>
      </trkpt>
      <trkpt lat="44.81819" lon="6.9449">
        <ele>1752.2</ele>
        <time>2022-02-25T15:28:43Z</time>
      </trkpt>
      <trkpt lat="44.81819" lon="6.9449">
        <ele>1752.2</ele>
        <time>2022-02-25T15:28:44Z</time>
      </trkpt>
      <trkpt lat="44.81819" lon="6.9449">
        <ele>1752.2</ele>
        <time>2022-02-25T15:28:45Z</time>
      </trkpt>
      <trkpt lat="44.81819" lon="6.9449">
        <ele>1752.2</ele>
        <time>2022-02-25T15:28:46Z</time>
      </trkpt>
      <trkpt lat="44.81819" lon="6.9449">
        <ele>1752.2</ele>
        <time>2022-02-25T15:28:47Z</time>
      </trkpt>
      <trkpt lat="44.8182" lon="6.94487">
        <ele>1751.4</ele>
        <time>2022-02-25T15:28:48Z</time>
      </trkpt>
      <trkpt lat="44.8182" lon="6.94487">
        <ele>1751.4</ele>
        <time>2022-02-25T15:28:49Z</time>
      </trkpt>
      <trkpt lat="44.8182" lon="6.94487">
        <ele>1751.4</ele>
        <time>2022-02-25T15:28:50Z</time>
      </trkpt>
      <trkpt lat="44.8182" lon="6.94487">
        <ele>1751.4</ele>
        <time>2022-02-25T15:28:51Z</time>
      </trkpt>
      <trkpt lat="44.8182" lon="6.94487">
        <ele>1751.4</ele>
        <time>2022-02-25T15:28:52Z</time>
      </trkpt>
      <trkpt lat="44.8182" lon="6.94487">
        <ele>1751.4</ele>
        <time>2022-02-25T15:28:53Z</time>
      </trkpt>
      <trkpt lat="44.8182" lon="6.94487">
        <ele>1751.4</ele>
        <time>2022-02-25T15:28:54Z</time>
      </trkpt>
      <trkpt lat="44.8182" lon="6.94487">
        <ele>1751.4</ele>
        <time>2022-02-25T15:28:55Z</time>
      </trkpt>
      <trkpt lat="44.8182" lon="6.94487">
        <ele>1751.4</ele>
        <time>2022-02-25T15:28:56Z</time>
      </trkpt>
      <trkpt lat="44.8182" lon="6.94487">
        <ele>1751.4</ele>
        <time>2022-02-25T15:28:57Z</time>
      </trkpt>
      <trkpt lat="44.8182" lon="6.94487">
        <ele>1751.4</ele>
        <time>2022-02-25T15:28:58Z</time>
      </trkpt>
      <trkpt lat="44.8182" lon="6.94487">
        <ele>1751.4</ele>
        <time>2022-02-25T15:28:59Z</time>
      </trkpt>
      <trkpt lat="44.8182" lon="6.94487">
        <ele>1751.4</ele>
        <time>2022-02-25T15:29:00Z</time>
      </trkpt>
      <trkpt lat="44.8182" lon="6.94487">
        <ele>1751.4</ele>
        <time>2022-02-25T15:29:01Z</time>
      </trkpt>
      <trkpt lat="44.8182" lon="6.94487">
        <ele>1751.4</ele>
        <time>2022-02-25T15:29:02Z</time>
      </trkpt>
      <trkpt lat="44.8182" lon="6.94487">
        <ele>1751.4</ele>
        <time>2022-02-25T15:29:03Z</time>
      </trkpt>
      <trkpt lat="44.8182" lon="6.94487">
        <ele>1751.4</ele>
        <time>2022-02-25T15:29:04Z</time>
      </trkpt>
      <trkpt lat="44.8182" lon="6.94487">
        <ele>1751.4</ele>
        <time>2022-02-25T15:29:05Z</time>
      </trkpt>
      <trkpt lat="44.8182" lon="6.94487">
        <ele>1751.4</ele>
        <time>2022-02-25T15:29:06Z</time>
      </trkpt>
      <trkpt lat="44.8182" lon="6.94487">
        <ele>1751.4</ele>
        <time>2022-02-25T15:29:07Z</time>
      </trkpt>
      <trkpt lat="44.8182" lon="6.94487">
        <ele>1751.4</ele>
        <time>2022-02-25T15:29:08Z</time>
      </trkpt>
      <trkpt lat="44.8182" lon="6.94487">
        <ele>1751.4</ele>
        <time>2022-02-25T15:29:09Z</time>
      </trkpt>
      <trkpt lat="44.8182" lon="6.94487">
        <ele>1751.4</ele>
        <time>2022-02-25T15:29:10Z</time>
      </trkpt>
      <trkpt lat="44.8182" lon="6.94487">
        <ele>1751.4</ele>
        <time>2022-02-25T15:29:11Z</time>
      </trkpt>
      <trkpt lat="44.8182" lon="6.94487">
        <ele>1751.4</ele>
        <time>2022-02-25T15:29:12Z</time>
      </trkpt>
      <trkpt lat="44.8182" lon="6.94487">
        <ele>1751.4</ele>
        <time>2022-02-25T15:29:13Z</time>
      </trkpt>
      <trkpt lat="44.8182" lon="6.94487">
        <ele>1751.4</ele>
        <time>2022-02-25T15:29:14Z</time>
      </trkpt>
      <trkpt lat="44.8182" lon="6.94487">
        <ele>1751.4</ele>
        <time>2022-02-25T15:29:15Z</time>
      </trkpt>
      <trkpt lat="44.8182" lon="6.94487">
        <ele>1751.4</ele>
        <time>2022-02-25T15:29:16Z</time>
      </trkpt>
      <trkpt lat="44.8182" lon="6.94487">
        <ele>1751.4</ele>
        <time>2022-02-25T15:29:17Z</time>
      </trkpt>
      <trkpt lat="44.8182" lon="6.94487">
        <ele>1751.4</ele>
        <time>2022-02-25T15:29:18Z</time>
      </trkpt>
      <trkpt lat="44.8182" lon="6.94487">
        <ele>1751.4</ele>
        <time>2022-02-25T15:29:19Z</time>
      </trkpt>
      <trkpt lat="44.8182" lon="6.94487">
        <ele>1751.4</ele>
        <time>2022-02-25T15:29:20Z</time>
      </trkpt>
      <trkpt lat="44.8182" lon="6.94487">
        <ele>1751.4</ele>
        <time>2022-02-25T15:29:21Z</time>
      </trkpt>
      <trkpt lat="44.8182" lon="6.94487">
        <ele>1751.4</ele>
        <time>2022-02-25T15:29:22Z</time>
      </trkpt>
      <trkpt lat="44.8182" lon="6.94487">
        <ele>1751.4</ele>
        <time>2022-02-25T15:29:23Z</time>
      </trkpt>
      <trkpt lat="44.8182" lon="6.94487">
        <ele>1751.4</ele>
        <time>2022-02-25T15:29:24Z</time>
      </trkpt>
      <trkpt lat="44.8182" lon="6.94487">
        <ele>1751.4</ele>
        <time>2022-02-25T15:29:25Z</time>
      </trkpt>
      <trkpt lat="44.8182" lon="6.94485">
        <ele>1750.7</ele>
        <time>2022-02-25T15:29:26Z</time>
      </trkpt>
      <trkpt lat="44.8182" lon="6.94485">
        <ele>1750.7</ele>
        <time>2022-02-25T15:29:27Z</time>
      </trkpt>
      <trkpt lat="44.8182" lon="6.94485">
        <ele>1750.7</ele>
        <time>2022-02-25T15:29:28Z</time>
      </trkpt>
      <trkpt lat="44.8182" lon="6.94485">
        <ele>1750.7</ele>
        <time>2022-02-25T15:29:29Z</time>
      </trkpt>
      <trkpt lat="44.81822" lon="6.94483">
        <ele>1750.5</ele>
        <time>2022-02-25T15:29:30Z</time>
      </trkpt>
      <trkpt lat="44.81822" lon="6.94483">
        <ele>1750.5</ele>
        <time>2022-02-25T15:29:31Z</time>
      </trkpt>
      <trkpt lat="44.81822" lon="6.94483">
        <ele>1750.5</ele>
        <time>2022-02-25T15:29:32Z</time>
      </trkpt>
      <trkpt lat="44.81822" lon="6.94483">
        <ele>1750.5</ele>
        <time>2022-02-25T15:29:33Z</time>
      </trkpt>
      <trkpt lat="44.81822" lon="6.94483">
        <ele>1750.5</ele>
        <time>2022-02-25T15:29:34Z</time>
      </trkpt>
      <trkpt lat="44.81822" lon="6.94483">
        <ele>1750.5</ele>
        <time>2022-02-25T15:29:35Z</time>
      </trkpt>
      <trkpt lat="44.81822" lon="6.94483">
        <ele>1750.5</ele>
        <time>2022-02-25T15:29:36Z</time>
      </trkpt>
      <trkpt lat="44.81822" lon="6.94483">
        <ele>1750.5</ele>
        <time>2022-02-25T15:29:37Z</time>
      </trkpt>
      <trkpt lat="44.81822" lon="6.94483">
        <ele>1750.5</ele>
        <time>2022-02-25T15:29:38Z</time>
      </trkpt>
      <trkpt lat="44.81822" lon="6.94483">
        <ele>1750.5</ele>
        <time>2022-02-25T15:29:39Z</time>
      </trkpt>
      <trkpt lat="44.81822" lon="6.94483">
        <ele>1750.5</ele>
        <time>2022-02-25T15:29:40Z</time>
      </trkpt>
      <trkpt lat="44.81822" lon="6.94483">
        <ele>1750.5</ele>
        <time>2022-02-25T15:29:41Z</time>
      </trkpt>
      <trkpt lat="44.81822" lon="6.94483">
        <ele>1750.5</ele>
        <time>2022-02-25T15:29:42Z</time>
      </trkpt>
      <trkpt lat="44.81822" lon="6.94483">
        <ele>1750.5</ele>
        <time>2022-02-25T15:29:43Z</time>
      </trkpt>
      <trkpt lat="44.81822" lon="6.94483">
        <ele>1750.5</ele>
        <time>2022-02-25T15:29:44Z</time>
      </trkpt>
      <trkpt lat="44.81823" lon="6.94482">
        <ele>1750.3</ele>
        <time>2022-02-25T15:29:45Z</time>
      </trkpt>
      <trkpt lat="44.81823" lon="6.94482">
        <ele>1750.3</ele>
        <time>2022-02-25T15:29:46Z</time>
      </trkpt>
      <trkpt lat="44.81826" lon="6.94481">
        <ele>1750.5</ele>
        <time>2022-02-25T15:29:47Z</time>
      </trkpt>
      <trkpt lat="44.81826" lon="6.94481">
        <ele>1750.5</ele>
        <time>2022-02-25T15:29:48Z</time>
      </trkpt>
      <trkpt lat="44.81829" lon="6.94481">
        <ele>1751.1</ele>
        <time>2022-02-25T15:29:49Z</time>
      </trkpt>
      <trkpt lat="44.81829" lon="6.94481">
        <ele>1751.1</ele>
        <time>2022-02-25T15:29:50Z</time>
      </trkpt>
      <trkpt lat="44.81832" lon="6.94481">
        <ele>1751.6</ele>
        <time>2022-02-25T15:29:51Z</time>
      </trkpt>
      <trkpt lat="44.81832" lon="6.94481">
        <ele>1751.6</ele>
        <time>2022-02-25T15:29:52Z</time>
      </trkpt>
      <trkpt lat="44.81835" lon="6.94481">
        <ele>1752.1</ele>
        <time>2022-02-25T15:29:53Z</time>
      </trkpt>
      <trkpt lat="44.81835" lon="6.94481">
        <ele>1752.1</ele>
        <time>2022-02-25T15:29:54Z</time>
      </trkpt>
      <trkpt lat="44.81835" lon="6.94481">
        <ele>1752.1</ele>
        <time>2022-02-25T15:29:55Z</time>
      </trkpt>
      <trkpt lat="44.81835" lon="6.94481">
        <ele>1752.1</ele>
        <time>2022-02-25T15:29:56Z</time>
      </trkpt>
      <trkpt lat="44.81837" lon="6.94481">
        <ele>1752.4</ele>
        <time>2022-02-25T15:29:57Z</time>
      </trkpt>
      <trkpt lat="44.81837" lon="6.94481">
        <ele>1752.4</ele>
        <time>2022-02-25T15:29:58Z</time>
      </trkpt>
      <trkpt lat="44.81837" lon="6.94481">
        <ele>1752.4</ele>
        <time>2022-02-25T15:29:59Z</time>
      </trkpt>
      <trkpt lat="44.81837" lon="6.94481">
        <ele>1752.4</ele>
        <time>2022-02-25T15:30:00Z</time>
      </trkpt>
      <trkpt lat="44.81837" lon="6.94481">
        <ele>1752.4</ele>
        <time>2022-02-25T15:30:01Z</time>
      </trkpt>
      <trkpt lat="44.81837" lon="6.94481">
        <ele>1752.4</ele>
        <time>2022-02-25T15:30:02Z</time>
      </trkpt>
      <trkpt lat="44.81837" lon="6.94481">
        <ele>1752.4</ele>
        <time>2022-02-25T15:30:03Z</time>
      </trkpt>
      <trkpt lat="44.81837" lon="6.94481">
        <ele>1752.4</ele>
        <time>2022-02-25T15:30:04Z</time>
      </trkpt>
      <trkpt lat="44.81837" lon="6.94481">
        <ele>1752.4</ele>
        <time>2022-02-25T15:30:05Z</time>
      </trkpt>
      <trkpt lat="44.81837" lon="6.94481">
        <ele>1752.4</ele>
        <time>2022-02-25T15:30:06Z</time>
      </trkpt>
      <trkpt lat="44.81837" lon="6.94481">
        <ele>1752.4</ele>
        <time>2022-02-25T15:30:07Z</time>
      </trkpt>
      <trkpt lat="44.81837" lon="6.94481">
        <ele>1752.4</ele>
        <time>2022-02-25T15:30:08Z</time>
      </trkpt>
      <trkpt lat="44.81837" lon="6.94481">
        <ele>1752.4</ele>
        <time>2022-02-25T15:30:09Z</time>
      </trkpt>
      <trkpt lat="44.81837" lon="6.94481">
        <ele>1752.4</ele>
        <time>2022-02-25T15:30:10Z</time>
      </trkpt>
      <trkpt lat="44.81837" lon="6.94481">
        <ele>1752.4</ele>
        <time>2022-02-25T15:30:11Z</time>
      </trkpt>
      <trkpt lat="44.81837" lon="6.94481">
        <ele>1752.4</ele>
        <time>2022-02-25T15:30:12Z</time>
      </trkpt>
      <trkpt lat="44.81837" lon="6.94481">
        <ele>1752.4</ele>
        <time>2022-02-25T15:30:13Z</time>
      </trkpt>
      <trkpt lat="44.81837" lon="6.94481">
        <ele>1752.4</ele>
        <time>2022-02-25T15:30:14Z</time>
      </trkpt>
      <trkpt lat="44.81837" lon="6.94481">
        <ele>1752.4</ele>
        <time>2022-02-25T15:30:15Z</time>
      </trkpt>
      <trkpt lat="44.81837" lon="6.94481">
        <ele>1752.4</ele>
        <time>2022-02-25T15:30:16Z</time>
      </trkpt>
      <trkpt lat="44.81837" lon="6.94481">
        <ele>1752.4</ele>
        <time>2022-02-25T15:30:17Z</time>
      </trkpt>
      <trkpt lat="44.81837" lon="6.94481">
        <ele>1752.4</ele>
        <time>2022-02-25T15:30:18Z</time>
      </trkpt>
      <trkpt lat="44.81837" lon="6.94481">
        <ele>1752.4</ele>
        <time>2022-02-25T15:30:19Z</time>
      </trkpt>
      <trkpt lat="44.81837" lon="6.94481">
        <ele>1752.4</ele>
        <time>2022-02-25T15:30:20Z</time>
      </trkpt>
      <trkpt lat="44.81837" lon="6.94481">
        <ele>1752.4</ele>
        <time>2022-02-25T15:30:21Z</time>
      </trkpt>
      <trkpt lat="44.81837" lon="6.94481">
        <ele>1752.4</ele>
        <time>2022-02-25T15:30:22Z</time>
      </trkpt>
      <trkpt lat="44.81837" lon="6.94481">
        <ele>1752.4</ele>
        <time>2022-02-25T15:30:23Z</time>
      </trkpt>
      <trkpt lat="44.81837" lon="6.94481">
        <ele>1752.4</ele>
        <time>2022-02-25T15:30:24Z</time>
      </trkpt>
      <trkpt lat="44.81837" lon="6.94481">
        <ele>1752.4</ele>
        <time>2022-02-25T15:30:25Z</time>
      </trkpt>
      <trkpt lat="44.81837" lon="6.94481">
        <ele>1752.4</ele>
        <time>2022-02-25T15:30:26Z</time>
      </trkpt>
      <trkpt lat="44.81837" lon="6.94481">
        <ele>1752.4</ele>
        <time>2022-02-25T15:30:27Z</time>
      </trkpt>
      <trkpt lat="44.81837" lon="6.94481">
        <ele>1752.4</ele>
        <time>2022-02-25T15:30:28Z</time>
      </trkpt>
      <trkpt lat="44.81837" lon="6.94481">
        <ele>1752.4</ele>
        <time>2022-02-25T15:30:29Z</time>
      </trkpt>
      <trkpt lat="44.81837" lon="6.94481">
        <ele>1752.4</ele>
        <time>2022-02-25T15:30:30Z</time>
      </trkpt>
      <trkpt lat="44.81837" lon="6.94481">
        <ele>1752.4</ele>
        <time>2022-02-25T15:30:31Z</time>
      </trkpt>
      <trkpt lat="44.81837" lon="6.94481">
        <ele>1752.4</ele>
        <time>2022-02-25T15:30:32Z</time>
      </trkpt>
      <trkpt lat="44.81837" lon="6.94481">
        <ele>1752.4</ele>
        <time>2022-02-25T15:30:33Z</time>
      </trkpt>
      <trkpt lat="44.81837" lon="6.94481">
        <ele>1752.4</ele>
        <time>2022-02-25T15:30:34Z</time>
      </trkpt>
      <trkpt lat="44.81837" lon="6.94481">
        <ele>1752.4</ele>
        <time>2022-02-25T15:30:35Z</time>
      </trkpt>
      <trkpt lat="44.81837" lon="6.94481">
        <ele>1752.4</ele>
        <time>2022-02-25T15:30:36Z</time>
      </trkpt>
      <trkpt lat="44.81837" lon="6.94481">
        <ele>1752.4</ele>
        <time>2022-02-25T15:30:37Z</time>
      </trkpt>
      <trkpt lat="44.81839" lon="6.94481">
        <ele>1752.7</ele>
        <time>2022-02-25T15:30:38Z</time>
      </trkpt>
      <trkpt lat="44.81839" lon="6.94481">
        <ele>1752.7</ele>
        <time>2022-02-25T15:30:39Z</time>
      </trkpt>
      <trkpt lat="44.81841" lon="6.94479">
        <ele>1752.4</ele>
        <time>2022-02-25T15:30:40Z</time>
      </trkpt>
      <trkpt lat="44.81841" lon="6.94479">
        <ele>1752.4</ele>
        <time>2022-02-25T15:30:41Z</time>
      </trkpt>
      <trkpt lat="44.81841" lon="6.94479">
        <ele>1752.4</ele>
        <time>2022-02-25T15:30:42Z</time>
      </trkpt>
      <trkpt lat="44.81843" lon="6.94479">
        <ele>1752.7</ele>
        <time>2022-02-25T15:30:43Z</time>
      </trkpt>
      <trkpt lat="44.81843" lon="6.94479">
        <ele>1752.7</ele>
        <time>2022-02-25T15:30:44Z</time>
      </trkpt>
      <trkpt lat="44.81843" lon="6.94479">
        <ele>1752.7</ele>
        <time>2022-02-25T15:30:45Z</time>
      </trkpt>
      <trkpt lat="44.81843" lon="6.94479">
        <ele>1752.7</ele>
        <time>2022-02-25T15:30:46Z</time>
      </trkpt>
      <trkpt lat="44.81842" lon="6.94475">
        <ele>1751.2</ele>
        <time>2022-02-25T15:30:47Z</time>
      </trkpt>
      <trkpt lat="44.81842" lon="6.94475">
        <ele>1751.2</ele>
        <time>2022-02-25T15:30:48Z</time>
      </trkpt>
      <trkpt lat="44.81842" lon="6.94475">
        <ele>1751.2</ele>
        <time>2022-02-25T15:30:49Z</time>
      </trkpt>
      <trkpt lat="44.8184" lon="6.94475">
        <ele>1750.9</ele>
        <time>2022-02-25T15:30:50Z</time>
      </trkpt>
      <trkpt lat="44.8184" lon="6.94475">
        <ele>1750.9</ele>
        <time>2022-02-25T15:30:51Z</time>
      </trkpt>
      <trkpt lat="44.81837" lon="6.94476">
        <ele>1750.8</ele>
        <time>2022-02-25T15:30:52Z</time>
      </trkpt>
      <trkpt lat="44.81837" lon="6.94476">
        <ele>1750.8</ele>
        <time>2022-02-25T15:30:53Z</time>
      </trkpt>
      <trkpt lat="44.81835" lon="6.94476">
        <ele>1750.5</ele>
        <time>2022-02-25T15:30:54Z</time>
      </trkpt>
      <trkpt lat="44.81835" lon="6.94476">
        <ele>1750.5</ele>
        <time>2022-02-25T15:30:55Z</time>
      </trkpt>
      <trkpt lat="44.81833" lon="6.94476">
        <ele>1750.2</ele>
        <time>2022-02-25T15:30:56Z</time>
      </trkpt>
      <trkpt lat="44.81833" lon="6.94476">
        <ele>1750.2</ele>
        <time>2022-02-25T15:30:57Z</time>
      </trkpt>
      <trkpt lat="44.81831" lon="6.94477">
        <ele>1750.1</ele>
        <time>2022-02-25T15:30:58Z</time>
      </trkpt>
      <trkpt lat="44.81831" lon="6.94477">
        <ele>1750.1</ele>
        <time>2022-02-25T15:30:59Z</time>
      </trkpt>
      <trkpt lat="44.81831" lon="6.94477">
        <ele>1750.1</ele>
        <time>2022-02-25T15:31:00Z</time>
      </trkpt>
      <trkpt lat="44.81829" lon="6.94477">
        <ele>1749.8</ele>
        <time>2022-02-25T15:31:01Z</time>
      </trkpt>
      <trkpt lat="44.81829" lon="6.94477">
        <ele>1749.8</ele>
        <time>2022-02-25T15:31:02Z</time>
      </trkpt>
      <trkpt lat="44.81829" lon="6.94477">
        <ele>1749.8</ele>
        <time>2022-02-25T15:31:03Z</time>
      </trkpt>
      <trkpt lat="44.81829" lon="6.94477">
        <ele>1749.8</ele>
        <time>2022-02-25T15:31:04Z</time>
      </trkpt>
      <trkpt lat="44.81829" lon="6.94477">
        <ele>1749.8</ele>
        <time>2022-02-25T15:31:05Z</time>
      </trkpt>
      <trkpt lat="44.81829" lon="6.94477">
        <ele>1749.8</ele>
        <time>2022-02-25T15:31:06Z</time>
      </trkpt>
      <trkpt lat="44.81829" lon="6.94477">
        <ele>1749.8</ele>
        <time>2022-02-25T15:31:07Z</time>
      </trkpt>
      <trkpt lat="44.81829" lon="6.94477">
        <ele>1749.8</ele>
        <time>2022-02-25T15:31:08Z</time>
      </trkpt>
      <trkpt lat="44.81829" lon="6.94477">
        <ele>1749.8</ele>
        <time>2022-02-25T15:31:09Z</time>
      </trkpt>
      <trkpt lat="44.81829" lon="6.94477">
        <ele>1749.8</ele>
        <time>2022-02-25T15:31:10Z</time>
      </trkpt>
      <trkpt lat="44.81829" lon="6.94477">
        <ele>1749.8</ele>
        <time>2022-02-25T15:31:11Z</time>
      </trkpt>
      <trkpt lat="44.81829" lon="6.94477">
        <ele>1749.8</ele>
        <time>2022-02-25T15:31:12Z</time>
      </trkpt>
      <trkpt lat="44.81829" lon="6.94477">
        <ele>1749.8</ele>
        <time>2022-02-25T15:31:13Z</time>
      </trkpt>
      <trkpt lat="44.81829" lon="6.94477">
        <ele>1749.8</ele>
        <time>2022-02-25T15:31:14Z</time>
      </trkpt>
      <trkpt lat="44.81829" lon="6.94477">
        <ele>1749.8</ele>
        <time>2022-02-25T15:31:15Z</time>
      </trkpt>
      <trkpt lat="44.81829" lon="6.94477">
        <ele>1749.8</ele>
        <time>2022-02-25T15:31:16Z</time>
      </trkpt>
      <trkpt lat="44.81829" lon="6.94477">
        <ele>1749.8</ele>
        <time>2022-02-25T15:31:17Z</time>
      </trkpt>
      <trkpt lat="44.81829" lon="6.94477">
        <ele>1749.8</ele>
        <time>2022-02-25T15:31:18Z</time>
      </trkpt>
      <trkpt lat="44.81829" lon="6.94477">
        <ele>1749.8</ele>
        <time>2022-02-25T15:31:19Z</time>
      </trkpt>
      <trkpt lat="44.81829" lon="6.94477">
        <ele>1749.8</ele>
        <time>2022-02-25T15:31:20Z</time>
      </trkpt>
      <trkpt lat="44.81829" lon="6.94477">
        <ele>1749.8</ele>
        <time>2022-02-25T15:31:21Z</time>
      </trkpt>
      <trkpt lat="44.81829" lon="6.94477">
        <ele>1749.8</ele>
        <time>2022-02-25T15:31:22Z</time>
      </trkpt>
      <trkpt lat="44.81829" lon="6.94477">
        <ele>1749.8</ele>
        <time>2022-02-25T15:31:23Z</time>
      </trkpt>
      <trkpt lat="44.81829" lon="6.94477">
        <ele>1749.8</ele>
        <time>2022-02-25T15:31:24Z</time>
      </trkpt>
      <trkpt lat="44.81827" lon="6.94477">
        <ele>1749.4</ele>
        <time>2022-02-25T15:31:25Z</time>
      </trkpt>
      <trkpt lat="44.81827" lon="6.94477">
        <ele>1749.4</ele>
        <time>2022-02-25T15:31:26Z</time>
      </trkpt>
      <trkpt lat="44.81825" lon="6.94477">
        <ele>1749</ele>
        <time>2022-02-25T15:31:27Z</time>
      </trkpt>
      <trkpt lat="44.81825" lon="6.94477">
        <ele>1749</ele>
        <time>2022-02-25T15:31:28Z</time>
      </trkpt>
      <trkpt lat="44.81822" lon="6.94478">
        <ele>1748.8</ele>
        <time>2022-02-25T15:31:29Z</time>
      </trkpt>
      <trkpt lat="44.81822" lon="6.94478">
        <ele>1748.8</ele>
        <time>2022-02-25T15:31:30Z</time>
      </trkpt>
      <trkpt lat="44.8182" lon="6.94478">
        <ele>1748.5</ele>
        <time>2022-02-25T15:31:31Z</time>
      </trkpt>
      <trkpt lat="44.8182" lon="6.94478">
        <ele>1748.5</ele>
        <time>2022-02-25T15:31:32Z</time>
      </trkpt>
      <trkpt lat="44.81818" lon="6.94478">
        <ele>1748.1</ele>
        <time>2022-02-25T15:31:33Z</time>
      </trkpt>
      <trkpt lat="44.81818" lon="6.94478">
        <ele>1748.1</ele>
        <time>2022-02-25T15:31:34Z</time>
      </trkpt>
      <trkpt lat="44.81815" lon="6.94479">
        <ele>1747.9</ele>
        <time>2022-02-25T15:31:35Z</time>
      </trkpt>
      <trkpt lat="44.81815" lon="6.94479">
        <ele>1747.9</ele>
        <time>2022-02-25T15:31:36Z</time>
      </trkpt>
      <trkpt lat="44.81813" lon="6.94481">
        <ele>1748.2</ele>
        <time>2022-02-25T15:31:37Z</time>
      </trkpt>
      <trkpt lat="44.81813" lon="6.94481">
        <ele>1748.2</ele>
        <time>2022-02-25T15:31:38Z</time>
      </trkpt>
      <trkpt lat="44.81812" lon="6.94482">
        <ele>1748.3</ele>
        <time>2022-02-25T15:31:39Z</time>
      </trkpt>
      <trkpt lat="44.81812" lon="6.94482">
        <ele>1748.3</ele>
        <time>2022-02-25T15:31:40Z</time>
      </trkpt>
      <trkpt lat="44.8181" lon="6.94484">
        <ele>1748.6</ele>
        <time>2022-02-25T15:31:41Z</time>
      </trkpt>
      <trkpt lat="44.8181" lon="6.94484">
        <ele>1748.6</ele>
        <time>2022-02-25T15:31:42Z</time>
      </trkpt>
      <trkpt lat="44.81808" lon="6.94485">
        <ele>1748.6</ele>
        <time>2022-02-25T15:31:43Z</time>
      </trkpt>
      <trkpt lat="44.81808" lon="6.94485">
        <ele>1748.6</ele>
        <time>2022-02-25T15:31:44Z</time>
      </trkpt>
      <trkpt lat="44.81806" lon="6.94486">
        <ele>1748.5</ele>
        <time>2022-02-25T15:31:45Z</time>
      </trkpt>
      <trkpt lat="44.81806" lon="6.94486">
        <ele>1748.5</ele>
        <time>2022-02-25T15:31:46Z</time>
      </trkpt>
      <trkpt lat="44.81804" lon="6.94487">
        <ele>1748.4</ele>
        <time>2022-02-25T15:31:47Z</time>
      </trkpt>
      <trkpt lat="44.81804" lon="6.94487">
        <ele>1748.4</ele>
        <time>2022-02-25T15:31:48Z</time>
      </trkpt>
      <trkpt lat="44.81801" lon="6.94488">
        <ele>1747.9</ele>
        <time>2022-02-25T15:31:49Z</time>
      </trkpt>
      <trkpt lat="44.81801" lon="6.94488">
        <ele>1747.9</ele>
        <time>2022-02-25T15:31:50Z</time>
      </trkpt>
      <trkpt lat="44.81799" lon="6.94488">
        <ele>1747.4</ele>
        <time>2022-02-25T15:31:51Z</time>
      </trkpt>
      <trkpt lat="44.81799" lon="6.94488">
        <ele>1747.4</ele>
        <time>2022-02-25T15:31:52Z</time>
      </trkpt>
      <trkpt lat="44.81796" lon="6.94489">
        <ele>1747</ele>
        <time>2022-02-25T15:31:53Z</time>
      </trkpt>
      <trkpt lat="44.81796" lon="6.94489">
        <ele>1747</ele>
        <time>2022-02-25T15:31:54Z</time>
      </trkpt>
      <trkpt lat="44.81794" lon="6.94488">
        <ele>1746.1</ele>
        <time>2022-02-25T15:31:55Z</time>
      </trkpt>
      <trkpt lat="44.81794" lon="6.94488">
        <ele>1746.1</ele>
        <time>2022-02-25T15:31:56Z</time>
      </trkpt>
      <trkpt lat="44.81794" lon="6.94488">
        <ele>1746.1</ele>
        <time>2022-02-25T15:31:57Z</time>
      </trkpt>
      <trkpt lat="44.81794" lon="6.94488">
        <ele>1746.1</ele>
        <time>2022-02-25T15:31:58Z</time>
      </trkpt>
      <trkpt lat="44.81794" lon="6.94488">
        <ele>1746.1</ele>
        <time>2022-02-25T15:31:59Z</time>
      </trkpt>
      <trkpt lat="44.81792" lon="6.94486">
        <ele>1745.1</ele>
        <time>2022-02-25T15:32:00Z</time>
      </trkpt>
      <trkpt lat="44.81792" lon="6.94486">
        <ele>1745.1</ele>
        <time>2022-02-25T15:32:01Z</time>
      </trkpt>
      <trkpt lat="44.81792" lon="6.94486">
        <ele>1745.1</ele>
        <time>2022-02-25T15:32:02Z</time>
      </trkpt>
      <trkpt lat="44.81792" lon="6.94486">
        <ele>1745.1</ele>
        <time>2022-02-25T15:32:03Z</time>
      </trkpt>
      <trkpt lat="44.81792" lon="6.94483">
        <ele>1744.2</ele>
        <time>2022-02-25T15:32:04Z</time>
      </trkpt>
      <trkpt lat="44.81792" lon="6.94483">
        <ele>1744.2</ele>
        <time>2022-02-25T15:32:05Z</time>
      </trkpt>
      <trkpt lat="44.81792" lon="6.9448">
        <ele>1743.3</ele>
        <time>2022-02-25T15:32:06Z</time>
      </trkpt>
      <trkpt lat="44.81792" lon="6.9448">
        <ele>1743.3</ele>
        <time>2022-02-25T15:32:07Z</time>
      </trkpt>
      <trkpt lat="44.81792" lon="6.9448">
        <ele>1743.3</ele>
        <time>2022-02-25T15:32:08Z</time>
      </trkpt>
      <trkpt lat="44.81792" lon="6.94477">
        <ele>1742.5</ele>
        <time>2022-02-25T15:32:09Z</time>
      </trkpt>
      <trkpt lat="44.81792" lon="6.94477">
        <ele>1742.5</ele>
        <time>2022-02-25T15:32:10Z</time>
      </trkpt>
      <trkpt lat="44.81792" lon="6.94477">
        <ele>1742.5</ele>
        <time>2022-02-25T15:32:11Z</time>
      </trkpt>
      <trkpt lat="44.81792" lon="6.94477">
        <ele>1742.5</ele>
        <time>2022-02-25T15:32:12Z</time>
      </trkpt>
      <trkpt lat="44.81792" lon="6.94477">
        <ele>1742.5</ele>
        <time>2022-02-25T15:32:13Z</time>
      </trkpt>
      <trkpt lat="44.81792" lon="6.94477">
        <ele>1742.5</ele>
        <time>2022-02-25T15:32:14Z</time>
      </trkpt>
      <trkpt lat="44.81794" lon="6.94475">
        <ele>1742.3</ele>
        <time>2022-02-25T15:32:15Z</time>
      </trkpt>
      <trkpt lat="44.81794" lon="6.94475">
        <ele>1742.3</ele>
        <time>2022-02-25T15:32:16Z</time>
      </trkpt>
      <trkpt lat="44.81796" lon="6.94474">
        <ele>1742.5</ele>
        <time>2022-02-25T15:32:17Z</time>
      </trkpt>
      <trkpt lat="44.81796" lon="6.94474">
        <ele>1742.5</ele>
        <time>2022-02-25T15:32:18Z</time>
      </trkpt>
      <trkpt lat="44.81798" lon="6.94472">
        <ele>1742.3</ele>
        <time>2022-02-25T15:32:19Z</time>
      </trkpt>
      <trkpt lat="44.81798" lon="6.94472">
        <ele>1742.3</ele>
        <time>2022-02-25T15:32:20Z</time>
      </trkpt>
      <trkpt lat="44.81799" lon="6.94471">
        <ele>1742.2</ele>
        <time>2022-02-25T15:32:21Z</time>
      </trkpt>
      <trkpt lat="44.81799" lon="6.94471">
        <ele>1742.2</ele>
        <time>2022-02-25T15:32:22Z</time>
      </trkpt>
      <trkpt lat="44.81801" lon="6.94469">
        <ele>1741.9</ele>
        <time>2022-02-25T15:32:23Z</time>
      </trkpt>
      <trkpt lat="44.81801" lon="6.94469">
        <ele>1741.9</ele>
        <time>2022-02-25T15:32:24Z</time>
      </trkpt>
      <trkpt lat="44.81803" lon="6.94467">
        <ele>1741.7</ele>
        <time>2022-02-25T15:32:25Z</time>
      </trkpt>
      <trkpt lat="44.81803" lon="6.94467">
        <ele>1741.7</ele>
        <time>2022-02-25T15:32:26Z</time>
      </trkpt>
      <trkpt lat="44.81805" lon="6.94466">
        <ele>1741.9</ele>
        <time>2022-02-25T15:32:27Z</time>
      </trkpt>
      <trkpt lat="44.81805" lon="6.94466">
        <ele>1741.9</ele>
        <time>2022-02-25T15:32:28Z</time>
      </trkpt>
      <trkpt lat="44.81807" lon="6.94465">
        <ele>1741.9</ele>
        <time>2022-02-25T15:32:29Z</time>
      </trkpt>
      <trkpt lat="44.81807" lon="6.94465">
        <ele>1741.9</ele>
        <time>2022-02-25T15:32:30Z</time>
      </trkpt>
      <trkpt lat="44.81807" lon="6.94465">
        <ele>1741.9</ele>
        <time>2022-02-25T15:32:31Z</time>
      </trkpt>
      <trkpt lat="44.81809" lon="6.94463">
        <ele>1741.7</ele>
        <time>2022-02-25T15:32:32Z</time>
      </trkpt>
      <trkpt lat="44.81809" lon="6.94463">
        <ele>1741.7</ele>
        <time>2022-02-25T15:32:33Z</time>
      </trkpt>
      <trkpt lat="44.81811" lon="6.94461">
        <ele>1741.5</ele>
        <time>2022-02-25T15:32:34Z</time>
      </trkpt>
      <trkpt lat="44.81811" lon="6.94461">
        <ele>1741.5</ele>
        <time>2022-02-25T15:32:35Z</time>
      </trkpt>
      <trkpt lat="44.81811" lon="6.94461">
        <ele>1741.5</ele>
        <time>2022-02-25T15:32:36Z</time>
      </trkpt>
      <trkpt lat="44.81813" lon="6.94458">
        <ele>1741</ele>
        <time>2022-02-25T15:32:37Z</time>
      </trkpt>
      <trkpt lat="44.81813" lon="6.94458">
        <ele>1741</ele>
        <time>2022-02-25T15:32:38Z</time>
      </trkpt>
      <trkpt lat="44.81813" lon="6.94458">
        <ele>1741</ele>
        <time>2022-02-25T15:32:39Z</time>
      </trkpt>
      <trkpt lat="44.81813" lon="6.94458">
        <ele>1741</ele>
        <time>2022-02-25T15:32:40Z</time>
      </trkpt>
      <trkpt lat="44.81813" lon="6.94458">
        <ele>1741</ele>
        <time>2022-02-25T15:32:41Z</time>
      </trkpt>
      <trkpt lat="44.81813" lon="6.94458">
        <ele>1741</ele>
        <time>2022-02-25T15:32:42Z</time>
      </trkpt>
      <trkpt lat="44.81815" lon="6.94456">
        <ele>1740.8</ele>
        <time>2022-02-25T15:32:43Z</time>
      </trkpt>
      <trkpt lat="44.81815" lon="6.94456">
        <ele>1740.8</ele>
        <time>2022-02-25T15:32:44Z</time>
      </trkpt>
      <trkpt lat="44.81815" lon="6.94456">
        <ele>1740.8</ele>
        <time>2022-02-25T15:32:45Z</time>
      </trkpt>
      <trkpt lat="44.81817" lon="6.94453">
        <ele>1740.4</ele>
        <time>2022-02-25T15:32:46Z</time>
      </trkpt>
      <trkpt lat="44.81817" lon="6.94453">
        <ele>1740.4</ele>
        <time>2022-02-25T15:32:47Z</time>
      </trkpt>
      <trkpt lat="44.81817" lon="6.9445">
        <ele>1739.5</ele>
        <time>2022-02-25T15:32:48Z</time>
      </trkpt>
      <trkpt lat="44.81817" lon="6.9445">
        <ele>1739.5</ele>
        <time>2022-02-25T15:32:49Z</time>
      </trkpt>
      <trkpt lat="44.81818" lon="6.94448">
        <ele>1739.2</ele>
        <time>2022-02-25T15:32:50Z</time>
      </trkpt>
      <trkpt lat="44.81818" lon="6.94448">
        <ele>1739.2</ele>
        <time>2022-02-25T15:32:51Z</time>
      </trkpt>
      <trkpt lat="44.8182" lon="6.94446">
        <ele>1739.1</ele>
        <time>2022-02-25T15:32:52Z</time>
      </trkpt>
      <trkpt lat="44.8182" lon="6.94446">
        <ele>1739.1</ele>
        <time>2022-02-25T15:32:53Z</time>
      </trkpt>
      <trkpt lat="44.8182" lon="6.94446">
        <ele>1739.1</ele>
        <time>2022-02-25T15:32:54Z</time>
      </trkpt>
      <trkpt lat="44.81821" lon="6.94442">
        <ele>1738.4</ele>
        <time>2022-02-25T15:32:55Z</time>
      </trkpt>
      <trkpt lat="44.81821" lon="6.94442">
        <ele>1738.4</ele>
        <time>2022-02-25T15:32:56Z</time>
      </trkpt>
      <trkpt lat="44.8182" lon="6.9444">
        <ele>1737.7</ele>
        <time>2022-02-25T15:32:57Z</time>
      </trkpt>
      <trkpt lat="44.8182" lon="6.9444">
        <ele>1737.7</ele>
        <time>2022-02-25T15:32:58Z</time>
      </trkpt>
      <trkpt lat="44.8182" lon="6.94437">
        <ele>1737</ele>
        <time>2022-02-25T15:32:59Z</time>
      </trkpt>
      <trkpt lat="44.8182" lon="6.94437">
        <ele>1737</ele>
        <time>2022-02-25T15:33:00Z</time>
      </trkpt>
      <trkpt lat="44.8182" lon="6.94437">
        <ele>1737</ele>
        <time>2022-02-25T15:33:01Z</time>
      </trkpt>
      <trkpt lat="44.81819" lon="6.94433">
        <ele>1735.9</ele>
        <time>2022-02-25T15:33:02Z</time>
      </trkpt>
      <trkpt lat="44.81819" lon="6.94433">
        <ele>1735.9</ele>
        <time>2022-02-25T15:33:03Z</time>
      </trkpt>
      <trkpt lat="44.81819" lon="6.9443">
        <ele>1735.3</ele>
        <time>2022-02-25T15:33:04Z</time>
      </trkpt>
      <trkpt lat="44.81819" lon="6.9443">
        <ele>1735.3</ele>
        <time>2022-02-25T15:33:05Z</time>
      </trkpt>
      <trkpt lat="44.81819" lon="6.94427">
        <ele>1734.6</ele>
        <time>2022-02-25T15:33:06Z</time>
      </trkpt>
      <trkpt lat="44.81819" lon="6.94427">
        <ele>1734.6</ele>
        <time>2022-02-25T15:33:07Z</time>
      </trkpt>
      <trkpt lat="44.8182" lon="6.94424">
        <ele>1734.3</ele>
        <time>2022-02-25T15:33:08Z</time>
      </trkpt>
      <trkpt lat="44.8182" lon="6.94424">
        <ele>1734.3</ele>
        <time>2022-02-25T15:33:09Z</time>
      </trkpt>
      <trkpt lat="44.81821" lon="6.94421">
        <ele>1733.9</ele>
        <time>2022-02-25T15:33:10Z</time>
      </trkpt>
      <trkpt lat="44.81821" lon="6.94421">
        <ele>1733.9</ele>
        <time>2022-02-25T15:33:11Z</time>
      </trkpt>
      <trkpt lat="44.81822" lon="6.94418">
        <ele>1733.6</ele>
        <time>2022-02-25T15:33:12Z</time>
      </trkpt>
      <trkpt lat="44.81822" lon="6.94418">
        <ele>1733.6</ele>
        <time>2022-02-25T15:33:13Z</time>
      </trkpt>
      <trkpt lat="44.81823" lon="6.94415">
        <ele>1733.4</ele>
        <time>2022-02-25T15:33:14Z</time>
      </trkpt>
      <trkpt lat="44.81823" lon="6.94415">
        <ele>1733.4</ele>
        <time>2022-02-25T15:33:15Z</time>
      </trkpt>
      <trkpt lat="44.81824" lon="6.94413">
        <ele>1733.4</ele>
        <time>2022-02-25T15:33:16Z</time>
      </trkpt>
      <trkpt lat="44.81824" lon="6.94413">
        <ele>1733.4</ele>
        <time>2022-02-25T15:33:17Z</time>
      </trkpt>
      <trkpt lat="44.81825" lon="6.9441">
        <ele>1733.2</ele>
        <time>2022-02-25T15:33:18Z</time>
      </trkpt>
      <trkpt lat="44.81825" lon="6.9441">
        <ele>1733.2</ele>
        <time>2022-02-25T15:33:19Z</time>
      </trkpt>
      <trkpt lat="44.81827" lon="6.94407">
        <ele>1733.3</ele>
        <time>2022-02-25T15:33:20Z</time>
      </trkpt>
      <trkpt lat="44.81827" lon="6.94407">
        <ele>1733.3</ele>
        <time>2022-02-25T15:33:21Z</time>
      </trkpt>
      <trkpt lat="44.81828" lon="6.94405">
        <ele>1733.3</ele>
        <time>2022-02-25T15:33:22Z</time>
      </trkpt>
      <trkpt lat="44.81828" lon="6.94405">
        <ele>1733.3</ele>
        <time>2022-02-25T15:33:23Z</time>
      </trkpt>
      <trkpt lat="44.8183" lon="6.94404">
        <ele>1733.7</ele>
        <time>2022-02-25T15:33:24Z</time>
      </trkpt>
      <trkpt lat="44.8183" lon="6.94404">
        <ele>1733.7</ele>
        <time>2022-02-25T15:33:25Z</time>
      </trkpt>
      <trkpt lat="44.81833" lon="6.94402">
        <ele>1734.3</ele>
        <time>2022-02-25T15:33:26Z</time>
      </trkpt>
      <trkpt lat="44.81833" lon="6.94402">
        <ele>1734.3</ele>
        <time>2022-02-25T15:33:27Z</time>
      </trkpt>
      <trkpt lat="44.81834" lon="6.94401">
        <ele>1734.3</ele>
        <time>2022-02-25T15:33:28Z</time>
      </trkpt>
      <trkpt lat="44.81834" lon="6.94401">
        <ele>1734.3</ele>
        <time>2022-02-25T15:33:29Z</time>
      </trkpt>
      <trkpt lat="44.81836" lon="6.94399">
        <ele>1734.1</ele>
        <time>2022-02-25T15:33:30Z</time>
      </trkpt>
      <trkpt lat="44.81836" lon="6.94399">
        <ele>1734.1</ele>
        <time>2022-02-25T15:33:31Z</time>
      </trkpt>
      <trkpt lat="44.81838" lon="6.94398">
        <ele>1734.2</ele>
        <time>2022-02-25T15:33:32Z</time>
      </trkpt>
      <trkpt lat="44.81838" lon="6.94398">
        <ele>1734.2</ele>
        <time>2022-02-25T15:33:33Z</time>
      </trkpt>
      <trkpt lat="44.8184" lon="6.94396">
        <ele>1734.1</ele>
        <time>2022-02-25T15:33:34Z</time>
      </trkpt>
      <trkpt lat="44.8184" lon="6.94396">
        <ele>1734.1</ele>
        <time>2022-02-25T15:33:35Z</time>
      </trkpt>
      <trkpt lat="44.81842" lon="6.94395">
        <ele>1734.1</ele>
        <time>2022-02-25T15:33:36Z</time>
      </trkpt>
      <trkpt lat="44.81842" lon="6.94395">
        <ele>1734.1</ele>
        <time>2022-02-25T15:33:37Z</time>
      </trkpt>
      <trkpt lat="44.81844" lon="6.94393">
        <ele>1733.9</ele>
        <time>2022-02-25T15:33:38Z</time>
      </trkpt>
      <trkpt lat="44.81844" lon="6.94393">
        <ele>1733.9</ele>
        <time>2022-02-25T15:33:39Z</time>
      </trkpt>
      <trkpt lat="44.81846" lon="6.94392">
        <ele>1734</ele>
        <time>2022-02-25T15:33:40Z</time>
      </trkpt>
      <trkpt lat="44.81846" lon="6.94392">
        <ele>1734</ele>
        <time>2022-02-25T15:33:41Z</time>
      </trkpt>
      <trkpt lat="44.81847" lon="6.94391">
        <ele>1733.9</ele>
        <time>2022-02-25T15:33:42Z</time>
      </trkpt>
      <trkpt lat="44.81847" lon="6.94391">
        <ele>1733.9</ele>
        <time>2022-02-25T15:33:43Z</time>
      </trkpt>
      <trkpt lat="44.81849" lon="6.9439">
        <ele>1733.9</ele>
        <time>2022-02-25T15:33:44Z</time>
      </trkpt>
      <trkpt lat="44.81849" lon="6.9439">
        <ele>1733.9</ele>
        <time>2022-02-25T15:33:45Z</time>
      </trkpt>
      <trkpt lat="44.81852" lon="6.94389">
        <ele>1734</ele>
        <time>2022-02-25T15:33:46Z</time>
      </trkpt>
      <trkpt lat="44.81852" lon="6.94389">
        <ele>1734</ele>
        <time>2022-02-25T15:33:47Z</time>
      </trkpt>
      <trkpt lat="44.81853" lon="6.94387">
        <ele>1733.7</ele>
        <time>2022-02-25T15:33:48Z</time>
      </trkpt>
      <trkpt lat="44.81853" lon="6.94387">
        <ele>1733.7</ele>
        <time>2022-02-25T15:33:49Z</time>
      </trkpt>
      <trkpt lat="44.81855" lon="6.94386">
        <ele>1733.7</ele>
        <time>2022-02-25T15:33:50Z</time>
      </trkpt>
      <trkpt lat="44.81855" lon="6.94386">
        <ele>1733.7</ele>
        <time>2022-02-25T15:33:51Z</time>
      </trkpt>
      <trkpt lat="44.81857" lon="6.94384">
        <ele>1733.5</ele>
        <time>2022-02-25T15:33:52Z</time>
      </trkpt>
      <trkpt lat="44.81857" lon="6.94384">
        <ele>1733.5</ele>
        <time>2022-02-25T15:33:53Z</time>
      </trkpt>
      <trkpt lat="44.81859" lon="6.94382">
        <ele>1733.3</ele>
        <time>2022-02-25T15:33:54Z</time>
      </trkpt>
      <trkpt lat="44.81859" lon="6.94382">
        <ele>1733.3</ele>
        <time>2022-02-25T15:33:55Z</time>
      </trkpt>
      <trkpt lat="44.81861" lon="6.9438">
        <ele>1733.1</ele>
        <time>2022-02-25T15:33:56Z</time>
      </trkpt>
      <trkpt lat="44.81861" lon="6.9438">
        <ele>1733.1</ele>
        <time>2022-02-25T15:33:57Z</time>
      </trkpt>
      <trkpt lat="44.81861" lon="6.9438">
        <ele>1733.1</ele>
        <time>2022-02-25T15:33:58Z</time>
      </trkpt>
      <trkpt lat="44.81863" lon="6.94378">
        <ele>1733</ele>
        <time>2022-02-25T15:33:59Z</time>
      </trkpt>
      <trkpt lat="44.81863" lon="6.94378">
        <ele>1733</ele>
        <time>2022-02-25T15:34:00Z</time>
      </trkpt>
      <trkpt lat="44.81865" lon="6.94377">
        <ele>1733.1</ele>
        <time>2022-02-25T15:34:01Z</time>
      </trkpt>
      <trkpt lat="44.81865" lon="6.94377">
        <ele>1733.1</ele>
        <time>2022-02-25T15:34:02Z</time>
      </trkpt>
      <trkpt lat="44.81867" lon="6.94375">
        <ele>1733.1</ele>
        <time>2022-02-25T15:34:03Z</time>
      </trkpt>
      <trkpt lat="44.81867" lon="6.94375">
        <ele>1733.1</ele>
        <time>2022-02-25T15:34:04Z</time>
      </trkpt>
      <trkpt lat="44.81868" lon="6.94373">
        <ele>1732.8</ele>
        <time>2022-02-25T15:34:05Z</time>
      </trkpt>
      <trkpt lat="44.81868" lon="6.94373">
        <ele>1732.8</ele>
        <time>2022-02-25T15:34:06Z</time>
      </trkpt>
      <trkpt lat="44.8187" lon="6.94371">
        <ele>1732.8</ele>
        <time>2022-02-25T15:34:07Z</time>
      </trkpt>
      <trkpt lat="44.8187" lon="6.94371">
        <ele>1732.8</ele>
        <time>2022-02-25T15:34:08Z</time>
      </trkpt>
      <trkpt lat="44.81872" lon="6.9437">
        <ele>1733</ele>
        <time>2022-02-25T15:34:09Z</time>
      </trkpt>
      <trkpt lat="44.81872" lon="6.9437">
        <ele>1733</ele>
        <time>2022-02-25T15:34:10Z</time>
      </trkpt>
      <trkpt lat="44.81874" lon="6.94367">
        <ele>1732.9</ele>
        <time>2022-02-25T15:34:11Z</time>
      </trkpt>
      <trkpt lat="44.81874" lon="6.94367">
        <ele>1732.9</ele>
        <time>2022-02-25T15:34:12Z</time>
      </trkpt>
      <trkpt lat="44.81874" lon="6.94367">
        <ele>1732.9</ele>
        <time>2022-02-25T15:34:13Z</time>
      </trkpt>
      <trkpt lat="44.81877" lon="6.94365">
        <ele>1733.1</ele>
        <time>2022-02-25T15:34:14Z</time>
      </trkpt>
      <trkpt lat="44.81877" lon="6.94365">
        <ele>1733.1</ele>
        <time>2022-02-25T15:34:15Z</time>
      </trkpt>
      <trkpt lat="44.81878" lon="6.94363">
        <ele>1733</ele>
        <time>2022-02-25T15:34:16Z</time>
      </trkpt>
      <trkpt lat="44.81878" lon="6.94363">
        <ele>1733</ele>
        <time>2022-02-25T15:34:17Z</time>
      </trkpt>
      <trkpt lat="44.8188" lon="6.94361">
        <ele>1733</ele>
        <time>2022-02-25T15:34:18Z</time>
      </trkpt>
      <trkpt lat="44.8188" lon="6.94361">
        <ele>1733</ele>
        <time>2022-02-25T15:34:19Z</time>
      </trkpt>
      <trkpt lat="44.81882" lon="6.94359">
        <ele>1732.9</ele>
        <time>2022-02-25T15:34:20Z</time>
      </trkpt>
      <trkpt lat="44.81882" lon="6.94359">
        <ele>1732.9</ele>
        <time>2022-02-25T15:34:21Z</time>
      </trkpt>
      <trkpt lat="44.81883" lon="6.94357">
        <ele>1732.5</ele>
        <time>2022-02-25T15:34:22Z</time>
      </trkpt>
      <trkpt lat="44.81883" lon="6.94357">
        <ele>1732.5</ele>
        <time>2022-02-25T15:34:23Z</time>
      </trkpt>
      <trkpt lat="44.81885" lon="6.94355">
        <ele>1732.4</ele>
        <time>2022-02-25T15:34:24Z</time>
      </trkpt>
      <trkpt lat="44.81885" lon="6.94355">
        <ele>1732.4</ele>
        <time>2022-02-25T15:34:25Z</time>
      </trkpt>
      <trkpt lat="44.81887" lon="6.94353">
        <ele>1732.3</ele>
        <time>2022-02-25T15:34:26Z</time>
      </trkpt>
      <trkpt lat="44.81887" lon="6.94353">
        <ele>1732.3</ele>
        <time>2022-02-25T15:34:27Z</time>
      </trkpt>
      <trkpt lat="44.81889" lon="6.94352">
        <ele>1732.4</ele>
        <time>2022-02-25T15:34:28Z</time>
      </trkpt>
      <trkpt lat="44.81889" lon="6.94352">
        <ele>1732.4</ele>
        <time>2022-02-25T15:34:29Z</time>
      </trkpt>
      <trkpt lat="44.81891" lon="6.94349">
        <ele>1731.8</ele>
        <time>2022-02-25T15:34:30Z</time>
      </trkpt>
      <trkpt lat="44.81891" lon="6.94349">
        <ele>1731.8</ele>
        <time>2022-02-25T15:34:31Z</time>
      </trkpt>
      <trkpt lat="44.81892" lon="6.94347">
        <ele>1731.4</ele>
        <time>2022-02-25T15:34:32Z</time>
      </trkpt>
      <trkpt lat="44.81892" lon="6.94347">
        <ele>1731.4</ele>
        <time>2022-02-25T15:34:33Z</time>
      </trkpt>
      <trkpt lat="44.81894" lon="6.94345">
        <ele>1731.1</ele>
        <time>2022-02-25T15:34:34Z</time>
      </trkpt>
      <trkpt lat="44.81894" lon="6.94345">
        <ele>1731.1</ele>
        <time>2022-02-25T15:34:35Z</time>
      </trkpt>
      <trkpt lat="44.81894" lon="6.94345">
        <ele>1731.1</ele>
        <time>2022-02-25T15:34:36Z</time>
      </trkpt>
      <trkpt lat="44.81896" lon="6.94342">
        <ele>1730.6</ele>
        <time>2022-02-25T15:34:37Z</time>
      </trkpt>
      <trkpt lat="44.81896" lon="6.94342">
        <ele>1730.6</ele>
        <time>2022-02-25T15:34:38Z</time>
      </trkpt>
      <trkpt lat="44.81897" lon="6.94341">
        <ele>1730.5</ele>
        <time>2022-02-25T15:34:39Z</time>
      </trkpt>
      <trkpt lat="44.81897" lon="6.94341">
        <ele>1730.5</ele>
        <time>2022-02-25T15:34:40Z</time>
      </trkpt>
      <trkpt lat="44.81899" lon="6.94338">
        <ele>1730</ele>
        <time>2022-02-25T15:34:41Z</time>
      </trkpt>
      <trkpt lat="44.81899" lon="6.94338">
        <ele>1730</ele>
        <time>2022-02-25T15:34:42Z</time>
      </trkpt>
      <trkpt lat="44.81901" lon="6.94337">
        <ele>1730.1</ele>
        <time>2022-02-25T15:34:43Z</time>
      </trkpt>
      <trkpt lat="44.81901" lon="6.94337">
        <ele>1730.1</ele>
        <time>2022-02-25T15:34:44Z</time>
      </trkpt>
      <trkpt lat="44.81902" lon="6.94335">
        <ele>1729.8</ele>
        <time>2022-02-25T15:34:45Z</time>
      </trkpt>
      <trkpt lat="44.81902" lon="6.94335">
        <ele>1729.8</ele>
        <time>2022-02-25T15:34:46Z</time>
      </trkpt>
      <trkpt lat="44.81902" lon="6.94335">
        <ele>1729.8</ele>
        <time>2022-02-25T15:34:47Z</time>
      </trkpt>
      <trkpt lat="44.81902" lon="6.94335">
        <ele>1729.8</ele>
        <time>2022-02-25T15:34:48Z</time>
      </trkpt>
      <trkpt lat="44.81902" lon="6.94335">
        <ele>1729.8</ele>
        <time>2022-02-25T15:34:49Z</time>
      </trkpt>
      <trkpt lat="44.81902" lon="6.94335">
        <ele>1729.8</ele>
        <time>2022-02-25T15:34:50Z</time>
      </trkpt>
      <trkpt lat="44.81902" lon="6.94335">
        <ele>1729.8</ele>
        <time>2022-02-25T15:34:51Z</time>
      </trkpt>
      <trkpt lat="44.81902" lon="6.94335">
        <ele>1729.8</ele>
        <time>2022-02-25T15:34:52Z</time>
      </trkpt>
      <trkpt lat="44.81902" lon="6.94335">
        <ele>1729.8</ele>
        <time>2022-02-25T15:34:53Z</time>
      </trkpt>
      <trkpt lat="44.81902" lon="6.94335">
        <ele>1729.8</ele>
        <time>2022-02-25T15:34:54Z</time>
      </trkpt>
      <trkpt lat="44.81902" lon="6.94335">
        <ele>1729.8</ele>
        <time>2022-02-25T15:34:55Z</time>
      </trkpt>
      <trkpt lat="44.81903" lon="6.94333">
        <ele>1729.5</ele>
        <time>2022-02-25T15:34:56Z</time>
      </trkpt>
      <trkpt lat="44.81903" lon="6.94333">
        <ele>1729.5</ele>
        <time>2022-02-25T15:34:57Z</time>
      </trkpt>
      <trkpt lat="44.81903" lon="6.94333">
        <ele>1729.5</ele>
        <time>2022-02-25T15:34:58Z</time>
      </trkpt>
      <trkpt lat="44.81903" lon="6.94333">
        <ele>1729.5</ele>
        <time>2022-02-25T15:34:59Z</time>
      </trkpt>
      <trkpt lat="44.81903" lon="6.94333">
        <ele>1729.5</ele>
        <time>2022-02-25T15:35:00Z</time>
      </trkpt>
      <trkpt lat="44.81903" lon="6.94333">
        <ele>1729.5</ele>
        <time>2022-02-25T15:35:01Z</time>
      </trkpt>
      <trkpt lat="44.81903" lon="6.94333">
        <ele>1729.5</ele>
        <time>2022-02-25T15:35:02Z</time>
      </trkpt>
      <trkpt lat="44.81903" lon="6.94333">
        <ele>1729.5</ele>
        <time>2022-02-25T15:35:03Z</time>
      </trkpt>
      <trkpt lat="44.81903" lon="6.94333">
        <ele>1729.5</ele>
        <time>2022-02-25T15:35:04Z</time>
      </trkpt>
      <trkpt lat="44.81903" lon="6.94333">
        <ele>1729.5</ele>
        <time>2022-02-25T15:35:05Z</time>
      </trkpt>
      <trkpt lat="44.81903" lon="6.94333">
        <ele>1729.5</ele>
        <time>2022-02-25T15:35:06Z</time>
      </trkpt>
      <trkpt lat="44.81903" lon="6.94333">
        <ele>1729.5</ele>
        <time>2022-02-25T15:35:07Z</time>
      </trkpt>
      <trkpt lat="44.81903" lon="6.94333">
        <ele>1729.5</ele>
        <time>2022-02-25T15:35:08Z</time>
      </trkpt>
      <trkpt lat="44.81903" lon="6.94333">
        <ele>1729.5</ele>
        <time>2022-02-25T15:35:09Z</time>
      </trkpt>
      <trkpt lat="44.81903" lon="6.94333">
        <ele>1729.5</ele>
        <time>2022-02-25T15:35:10Z</time>
      </trkpt>
      <trkpt lat="44.81903" lon="6.94333">
        <ele>1729.5</ele>
        <time>2022-02-25T15:35:11Z</time>
      </trkpt>
      <trkpt lat="44.81903" lon="6.94333">
        <ele>1729.5</ele>
        <time>2022-02-25T15:35:12Z</time>
      </trkpt>
      <trkpt lat="44.81903" lon="6.94333">
        <ele>1729.5</ele>
        <time>2022-02-25T15:35:13Z</time>
      </trkpt>
      <trkpt lat="44.81903" lon="6.94333">
        <ele>1729.5</ele>
        <time>2022-02-25T15:35:14Z</time>
      </trkpt>
      <trkpt lat="44.81903" lon="6.94333">
        <ele>1729.5</ele>
        <time>2022-02-25T15:35:15Z</time>
      </trkpt>
      <trkpt lat="44.81903" lon="6.94333">
        <ele>1729.5</ele>
        <time>2022-02-25T15:35:16Z</time>
      </trkpt>
      <trkpt lat="44.81903" lon="6.94333">
        <ele>1729.5</ele>
        <time>2022-02-25T15:35:17Z</time>
      </trkpt>
      <trkpt lat="44.81903" lon="6.94333">
        <ele>1729.5</ele>
        <time>2022-02-25T15:35:18Z</time>
      </trkpt>
      <trkpt lat="44.81903" lon="6.94333">
        <ele>1729.5</ele>
        <time>2022-02-25T15:35:19Z</time>
      </trkpt>
      <trkpt lat="44.81903" lon="6.94333">
        <ele>1729.5</ele>
        <time>2022-02-25T15:35:20Z</time>
      </trkpt>
      <trkpt lat="44.81903" lon="6.94333">
        <ele>1729.5</ele>
        <time>2022-02-25T15:35:21Z</time>
      </trkpt>
      <trkpt lat="44.81903" lon="6.94333">
        <ele>1729.5</ele>
        <time>2022-02-25T15:35:22Z</time>
      </trkpt>
      <trkpt lat="44.81903" lon="6.94333">
        <ele>1729.5</ele>
        <time>2022-02-25T15:35:23Z</time>
      </trkpt>
      <trkpt lat="44.81903" lon="6.94333">
        <ele>1729.5</ele>
        <time>2022-02-25T15:35:24Z</time>
      </trkpt>
      <trkpt lat="44.81903" lon="6.94333">
        <ele>1729.5</ele>
        <time>2022-02-25T15:35:25Z</time>
      </trkpt>
      <trkpt lat="44.81903" lon="6.94333">
        <ele>1729.5</ele>
        <time>2022-02-25T15:35:26Z</time>
      </trkpt>
      <trkpt lat="44.81903" lon="6.94333">
        <ele>1729.5</ele>
        <time>2022-02-25T15:35:27Z</time>
      </trkpt>
      <trkpt lat="44.81903" lon="6.94333">
        <ele>1729.5</ele>
        <time>2022-02-25T15:35:28Z</time>
      </trkpt>
      <trkpt lat="44.81903" lon="6.94333">
        <ele>1729.5</ele>
        <time>2022-02-25T15:35:29Z</time>
      </trkpt>
      <trkpt lat="44.81903" lon="6.94333">
        <ele>1729.5</ele>
        <time>2022-02-25T15:35:30Z</time>
      </trkpt>
      <trkpt lat="44.81903" lon="6.94333">
        <ele>1729.5</ele>
        <time>2022-02-25T15:35:31Z</time>
      </trkpt>
      <trkpt lat="44.81903" lon="6.94333">
        <ele>1729.5</ele>
        <time>2022-02-25T15:35:32Z</time>
      </trkpt>
      <trkpt lat="44.81903" lon="6.94333">
        <ele>1729.5</ele>
        <time>2022-02-25T15:35:33Z</time>
      </trkpt>
      <trkpt lat="44.81903" lon="6.94333">
        <ele>1729.5</ele>
        <time>2022-02-25T15:35:34Z</time>
      </trkpt>
      <trkpt lat="44.81903" lon="6.94333">
        <ele>1729.5</ele>
        <time>2022-02-25T15:35:35Z</time>
      </trkpt>
      <trkpt lat="44.81903" lon="6.94333">
        <ele>1729.5</ele>
        <time>2022-02-25T15:35:36Z</time>
      </trkpt>
      <trkpt lat="44.81903" lon="6.94333">
        <ele>1729.5</ele>
        <time>2022-02-25T15:35:37Z</time>
      </trkpt>
      <trkpt lat="44.81903" lon="6.94333">
        <ele>1729.5</ele>
        <time>2022-02-25T15:35:38Z</time>
      </trkpt>
      <trkpt lat="44.81903" lon="6.94333">
        <ele>1729.5</ele>
        <time>2022-02-25T15:35:39Z</time>
      </trkpt>
      <trkpt lat="44.81903" lon="6.94333">
        <ele>1729.5</ele>
        <time>2022-02-25T15:35:40Z</time>
      </trkpt>
      <trkpt lat="44.81903" lon="6.94333">
        <ele>1729.5</ele>
        <time>2022-02-25T15:35:41Z</time>
      </trkpt>
      <trkpt lat="44.81903" lon="6.94333">
        <ele>1729.5</ele>
        <time>2022-02-25T15:35:42Z</time>
      </trkpt>
      <trkpt lat="44.81903" lon="6.94333">
        <ele>1729.5</ele>
        <time>2022-02-25T15:35:43Z</time>
      </trkpt>
      <trkpt lat="44.81903" lon="6.94333">
        <ele>1729.5</ele>
        <time>2022-02-25T15:35:44Z</time>
      </trkpt>
      <trkpt lat="44.81903" lon="6.94333">
        <ele>1729.5</ele>
        <time>2022-02-25T15:35:45Z</time>
      </trkpt>
      <trkpt lat="44.81903" lon="6.94333">
        <ele>1729.5</ele>
        <time>2022-02-25T15:35:46Z</time>
      </trkpt>
      <trkpt lat="44.81903" lon="6.94333">
        <ele>1729.5</ele>
        <time>2022-02-25T15:35:47Z</time>
      </trkpt>
      <trkpt lat="44.81903" lon="6.94333">
        <ele>1729.5</ele>
        <time>2022-02-25T15:35:48Z</time>
      </trkpt>
      <trkpt lat="44.81903" lon="6.94333">
        <ele>1729.5</ele>
        <time>2022-02-25T15:35:49Z</time>
      </trkpt>
      <trkpt lat="44.81903" lon="6.94333">
        <ele>1729.5</ele>
        <time>2022-02-25T15:35:50Z</time>
      </trkpt>
      <trkpt lat="44.81903" lon="6.94333">
        <ele>1729.5</ele>
        <time>2022-02-25T15:35:51Z</time>
      </trkpt>
      <trkpt lat="44.81903" lon="6.94333">
        <ele>1729.5</ele>
        <time>2022-02-25T15:35:52Z</time>
      </trkpt>
      <trkpt lat="44.81903" lon="6.94333">
        <ele>1729.5</ele>
        <time>2022-02-25T15:35:53Z</time>
      </trkpt>
      <trkpt lat="44.81903" lon="6.94333">
        <ele>1729.5</ele>
        <time>2022-02-25T15:35:54Z</time>
      </trkpt>
      <trkpt lat="44.81903" lon="6.94333">
        <ele>1729.5</ele>
        <time>2022-02-25T15:35:55Z</time>
      </trkpt>
      <trkpt lat="44.81903" lon="6.94333">
        <ele>1729.5</ele>
        <time>2022-02-25T15:35:56Z</time>
      </trkpt>
      <trkpt lat="44.81903" lon="6.94333">
        <ele>1729.5</ele>
        <time>2022-02-25T15:35:57Z</time>
      </trkpt>
      <trkpt lat="44.81903" lon="6.94333">
        <ele>1729.5</ele>
        <time>2022-02-25T15:35:58Z</time>
      </trkpt>
      <trkpt lat="44.81903" lon="6.94333">
        <ele>1729.5</ele>
        <time>2022-02-25T15:35:59Z</time>
      </trkpt>
      <trkpt lat="44.81903" lon="6.94333">
        <ele>1729.5</ele>
        <time>2022-02-25T15:36:00Z</time>
      </trkpt>
      <trkpt lat="44.81903" lon="6.94333">
        <ele>1729.5</ele>
        <time>2022-02-25T15:36:01Z</time>
      </trkpt>
      <trkpt lat="44.81903" lon="6.94333">
        <ele>1729.5</ele>
        <time>2022-02-25T15:36:02Z</time>
      </trkpt>
      <trkpt lat="44.81903" lon="6.94333">
        <ele>1729.5</ele>
        <time>2022-02-25T15:36:03Z</time>
      </trkpt>
      <trkpt lat="44.81903" lon="6.94333">
        <ele>1729.5</ele>
        <time>2022-02-25T15:36:04Z</time>
      </trkpt>
      <trkpt lat="44.81903" lon="6.94333">
        <ele>1729.5</ele>
        <time>2022-02-25T15:36:05Z</time>
      </trkpt>
      <trkpt lat="44.81903" lon="6.94333">
        <ele>1729.5</ele>
        <time>2022-02-25T15:36:06Z</time>
      </trkpt>
      <trkpt lat="44.81903" lon="6.94333">
        <ele>1729.5</ele>
        <time>2022-02-25T15:36:07Z</time>
      </trkpt>
      <trkpt lat="44.81903" lon="6.94333">
        <ele>1729.5</ele>
        <time>2022-02-25T15:36:08Z</time>
      </trkpt>
      <trkpt lat="44.81903" lon="6.94333">
        <ele>1729.5</ele>
        <time>2022-02-25T15:36:09Z</time>
      </trkpt>
      <trkpt lat="44.81903" lon="6.94333">
        <ele>1729.5</ele>
        <time>2022-02-25T15:36:10Z</time>
      </trkpt>
      <trkpt lat="44.81903" lon="6.94333">
        <ele>1729.5</ele>
        <time>2022-02-25T15:36:11Z</time>
      </trkpt>
      <trkpt lat="44.81903" lon="6.94333">
        <ele>1729.5</ele>
        <time>2022-02-25T15:36:12Z</time>
      </trkpt>
      <trkpt lat="44.81903" lon="6.94333">
        <ele>1729.5</ele>
        <time>2022-02-25T15:36:13Z</time>
      </trkpt>
      <trkpt lat="44.81903" lon="6.94333">
        <ele>1729.5</ele>
        <time>2022-02-25T15:36:14Z</time>
      </trkpt>
      <trkpt lat="44.81903" lon="6.94333">
        <ele>1729.5</ele>
        <time>2022-02-25T15:36:15Z</time>
      </trkpt>
      <trkpt lat="44.81903" lon="6.94333">
        <ele>1729.5</ele>
        <time>2022-02-25T15:36:16Z</time>
      </trkpt>
      <trkpt lat="44.81903" lon="6.94333">
        <ele>1729.5</ele>
        <time>2022-02-25T15:36:17Z</time>
      </trkpt>
      <trkpt lat="44.81903" lon="6.94333">
        <ele>1729.5</ele>
        <time>2022-02-25T15:36:18Z</time>
      </trkpt>
      <trkpt lat="44.81903" lon="6.94333">
        <ele>1729.5</ele>
        <time>2022-02-25T15:36:19Z</time>
      </trkpt>
      <trkpt lat="44.81903" lon="6.94333">
        <ele>1729.5</ele>
        <time>2022-02-25T15:36:20Z</time>
      </trkpt>
      <trkpt lat="44.81903" lon="6.94333">
        <ele>1729.5</ele>
        <time>2022-02-25T15:36:21Z</time>
      </trkpt>
      <trkpt lat="44.81903" lon="6.94333">
        <ele>1729.5</ele>
        <time>2022-02-25T15:36:22Z</time>
      </trkpt>
      <trkpt lat="44.81903" lon="6.94333">
        <ele>1729.5</ele>
        <time>2022-02-25T15:36:23Z</time>
      </trkpt>
      <trkpt lat="44.81903" lon="6.94333">
        <ele>1729.5</ele>
        <time>2022-02-25T15:36:24Z</time>
      </trkpt>
      <trkpt lat="44.81903" lon="6.94333">
        <ele>1729.5</ele>
        <time>2022-02-25T15:36:25Z</time>
      </trkpt>
      <trkpt lat="44.81903" lon="6.94333">
        <ele>1729.5</ele>
        <time>2022-02-25T15:36:26Z</time>
      </trkpt>
      <trkpt lat="44.81903" lon="6.94333">
        <ele>1729.5</ele>
        <time>2022-02-25T15:36:27Z</time>
      </trkpt>
      <trkpt lat="44.81903" lon="6.94333">
        <ele>1729.5</ele>
        <time>2022-02-25T15:36:28Z</time>
      </trkpt>
      <trkpt lat="44.81903" lon="6.94333">
        <ele>1729.5</ele>
        <time>2022-02-25T15:36:29Z</time>
      </trkpt>
      <trkpt lat="44.81903" lon="6.94333">
        <ele>1729.5</ele>
        <time>2022-02-25T15:36:30Z</time>
      </trkpt>
      <trkpt lat="44.81903" lon="6.94333">
        <ele>1729.5</ele>
        <time>2022-02-25T15:36:31Z</time>
      </trkpt>
      <trkpt lat="44.81903" lon="6.94333">
        <ele>1729.5</ele>
        <time>2022-02-25T15:36:32Z</time>
      </trkpt>
      <trkpt lat="44.81903" lon="6.94333">
        <ele>1729.5</ele>
        <time>2022-02-25T15:36:33Z</time>
      </trkpt>
      <trkpt lat="44.81903" lon="6.94333">
        <ele>1729.5</ele>
        <time>2022-02-25T15:36:34Z</time>
      </trkpt>
      <trkpt lat="44.81903" lon="6.94333">
        <ele>1729.5</ele>
        <time>2022-02-25T15:36:35Z</time>
      </trkpt>
      <trkpt lat="44.81903" lon="6.94333">
        <ele>1729.5</ele>
        <time>2022-02-25T15:36:36Z</time>
      </trkpt>
      <trkpt lat="44.81903" lon="6.94333">
        <ele>1729.5</ele>
        <time>2022-02-25T15:36:37Z</time>
      </trkpt>
      <trkpt lat="44.81903" lon="6.94333">
        <ele>1729.5</ele>
        <time>2022-02-25T15:36:38Z</time>
      </trkpt>
      <trkpt lat="44.81903" lon="6.94333">
        <ele>1729.5</ele>
        <time>2022-02-25T15:36:39Z</time>
      </trkpt>
      <trkpt lat="44.81903" lon="6.94333">
        <ele>1729.5</ele>
        <time>2022-02-25T15:36:40Z</time>
      </trkpt>
      <trkpt lat="44.81903" lon="6.94333">
        <ele>1729.5</ele>
        <time>2022-02-25T15:36:41Z</time>
      </trkpt>
      <trkpt lat="44.81903" lon="6.94333">
        <ele>1729.5</ele>
        <time>2022-02-25T15:36:42Z</time>
      </trkpt>
      <trkpt lat="44.81903" lon="6.94333">
        <ele>1729.5</ele>
        <time>2022-02-25T15:36:43Z</time>
      </trkpt>
      <trkpt lat="44.81903" lon="6.94333">
        <ele>1729.5</ele>
        <time>2022-02-25T15:36:44Z</time>
      </trkpt>
      <trkpt lat="44.81903" lon="6.94333">
        <ele>1729.5</ele>
        <time>2022-02-25T15:36:45Z</time>
      </trkpt>
      <trkpt lat="44.81903" lon="6.94333">
        <ele>1729.5</ele>
        <time>2022-02-25T15:36:46Z</time>
      </trkpt>
      <trkpt lat="44.81903" lon="6.94333">
        <ele>1729.5</ele>
        <time>2022-02-25T15:36:47Z</time>
      </trkpt>
      <trkpt lat="44.81903" lon="6.94333">
        <ele>1729.5</ele>
        <time>2022-02-25T15:36:48Z</time>
      </trkpt>
      <trkpt lat="44.81903" lon="6.94333">
        <ele>1729.5</ele>
        <time>2022-02-25T15:36:49Z</time>
      </trkpt>
      <trkpt lat="44.81903" lon="6.94333">
        <ele>1729.5</ele>
        <time>2022-02-25T15:36:50Z</time>
      </trkpt>
      <trkpt lat="44.81903" lon="6.94333">
        <ele>1729.5</ele>
        <time>2022-02-25T15:36:51Z</time>
      </trkpt>
      <trkpt lat="44.81903" lon="6.94333">
        <ele>1729.5</ele>
        <time>2022-02-25T15:36:52Z</time>
      </trkpt>
      <trkpt lat="44.81903" lon="6.94333">
        <ele>1729.5</ele>
        <time>2022-02-25T15:36:53Z</time>
      </trkpt>
      <trkpt lat="44.81903" lon="6.94333">
        <ele>1729.5</ele>
        <time>2022-02-25T15:36:54Z</time>
      </trkpt>
      <trkpt lat="44.81903" lon="6.94333">
        <ele>1729.5</ele>
        <time>2022-02-25T15:36:55Z</time>
      </trkpt>
      <trkpt lat="44.81903" lon="6.94333">
        <ele>1729.5</ele>
        <time>2022-02-25T15:36:56Z</time>
      </trkpt>
      <trkpt lat="44.81903" lon="6.94333">
        <ele>1729.5</ele>
        <time>2022-02-25T15:36:57Z</time>
      </trkpt>
      <trkpt lat="44.81903" lon="6.94333">
        <ele>1729.5</ele>
        <time>2022-02-25T15:36:58Z</time>
      </trkpt>
      <trkpt lat="44.81903" lon="6.94333">
        <ele>1729.5</ele>
        <time>2022-02-25T15:36:59Z</time>
      </trkpt>
      <trkpt lat="44.81903" lon="6.94333">
        <ele>1729.5</ele>
        <time>2022-02-25T15:37:00Z</time>
      </trkpt>
      <trkpt lat="44.81903" lon="6.94333">
        <ele>1729.5</ele>
        <time>2022-02-25T15:37:01Z</time>
      </trkpt>
      <trkpt lat="44.81903" lon="6.94333">
        <ele>1729.5</ele>
        <time>2022-02-25T15:37:02Z</time>
      </trkpt>
      <trkpt lat="44.81903" lon="6.94333">
        <ele>1729.5</ele>
        <time>2022-02-25T15:37:03Z</time>
      </trkpt>
      <trkpt lat="44.81903" lon="6.94333">
        <ele>1729.5</ele>
        <time>2022-02-25T15:37:04Z</time>
      </trkpt>
      <trkpt lat="44.81903" lon="6.94333">
        <ele>1729.5</ele>
        <time>2022-02-25T15:37:05Z</time>
      </trkpt>
      <trkpt lat="44.81903" lon="6.94333">
        <ele>1729.5</ele>
        <time>2022-02-25T15:37:06Z</time>
      </trkpt>
      <trkpt lat="44.81903" lon="6.94333">
        <ele>1729.5</ele>
        <time>2022-02-25T15:37:07Z</time>
      </trkpt>
      <trkpt lat="44.81903" lon="6.94333">
        <ele>1729.5</ele>
        <time>2022-02-25T15:37:08Z</time>
      </trkpt>
      <trkpt lat="44.81903" lon="6.94333">
        <ele>1729.5</ele>
        <time>2022-02-25T15:37:09Z</time>
      </trkpt>
      <trkpt lat="44.81903" lon="6.94333">
        <ele>1729.5</ele>
        <time>2022-02-25T15:37:10Z</time>
      </trkpt>
      <trkpt lat="44.81903" lon="6.94333">
        <ele>1729.5</ele>
        <time>2022-02-25T15:37:11Z</time>
      </trkpt>
      <trkpt lat="44.81903" lon="6.94333">
        <ele>1729.5</ele>
        <time>2022-02-25T15:37:12Z</time>
      </trkpt>
      <trkpt lat="44.81903" lon="6.94333">
        <ele>1729.5</ele>
        <time>2022-02-25T15:37:13Z</time>
      </trkpt>
      <trkpt lat="44.81903" lon="6.94333">
        <ele>1729.5</ele>
        <time>2022-02-25T15:37:14Z</time>
      </trkpt>
      <trkpt lat="44.81903" lon="6.94333">
        <ele>1729.5</ele>
        <time>2022-02-25T15:37:15Z</time>
      </trkpt>
      <trkpt lat="44.81903" lon="6.94333">
        <ele>1729.5</ele>
        <time>2022-02-25T15:37:16Z</time>
      </trkpt>
      <trkpt lat="44.81903" lon="6.94333">
        <ele>1729.5</ele>
        <time>2022-02-25T15:37:17Z</time>
      </trkpt>
      <trkpt lat="44.81903" lon="6.94333">
        <ele>1729.5</ele>
        <time>2022-02-25T15:37:18Z</time>
      </trkpt>
      <trkpt lat="44.81903" lon="6.94333">
        <ele>1729.5</ele>
        <time>2022-02-25T15:37:19Z</time>
      </trkpt>
      <trkpt lat="44.81903" lon="6.94333">
        <ele>1729.5</ele>
        <time>2022-02-25T15:37:20Z</time>
      </trkpt>
      <trkpt lat="44.81903" lon="6.94333">
        <ele>1729.5</ele>
        <time>2022-02-25T15:37:21Z</time>
      </trkpt>
      <trkpt lat="44.81903" lon="6.94333">
        <ele>1729.5</ele>
        <time>2022-02-25T15:37:22Z</time>
      </trkpt>
      <trkpt lat="44.81903" lon="6.94333">
        <ele>1729.5</ele>
        <time>2022-02-25T15:37:23Z</time>
      </trkpt>
      <trkpt lat="44.81903" lon="6.94333">
        <ele>1729.5</ele>
        <time>2022-02-25T15:37:24Z</time>
      </trkpt>
      <trkpt lat="44.81903" lon="6.94333">
        <ele>1729.5</ele>
        <time>2022-02-25T15:37:25Z</time>
      </trkpt>
      <trkpt lat="44.81903" lon="6.94333">
        <ele>1729.5</ele>
        <time>2022-02-25T15:37:26Z</time>
      </trkpt>
      <trkpt lat="44.81903" lon="6.94333">
        <ele>1729.5</ele>
        <time>2022-02-25T15:37:27Z</time>
      </trkpt>
      <trkpt lat="44.81903" lon="6.94333">
        <ele>1729.5</ele>
        <time>2022-02-25T15:37:28Z</time>
      </trkpt>
      <trkpt lat="44.81903" lon="6.94333">
        <ele>1729.5</ele>
        <time>2022-02-25T15:37:29Z</time>
      </trkpt>
      <trkpt lat="44.81903" lon="6.94333">
        <ele>1729.5</ele>
        <time>2022-02-25T15:37:30Z</time>
      </trkpt>
      <trkpt lat="44.81903" lon="6.94333">
        <ele>1729.5</ele>
        <time>2022-02-25T15:37:31Z</time>
      </trkpt>
      <trkpt lat="44.81903" lon="6.94333">
        <ele>1729.5</ele>
        <time>2022-02-25T15:37:32Z</time>
      </trkpt>
      <trkpt lat="44.81903" lon="6.94333">
        <ele>1729.5</ele>
        <time>2022-02-25T15:37:33Z</time>
      </trkpt>
      <trkpt lat="44.81903" lon="6.94333">
        <ele>1729.5</ele>
        <time>2022-02-25T15:37:34Z</time>
      </trkpt>
      <trkpt lat="44.81903" lon="6.94333">
        <ele>1729.5</ele>
        <time>2022-02-25T15:37:35Z</time>
      </trkpt>
      <trkpt lat="44.81903" lon="6.94333">
        <ele>1729.5</ele>
        <time>2022-02-25T15:37:36Z</time>
      </trkpt>
      <trkpt lat="44.81903" lon="6.94333">
        <ele>1729.5</ele>
        <time>2022-02-25T15:37:37Z</time>
      </trkpt>
      <trkpt lat="44.81903" lon="6.94333">
        <ele>1729.5</ele>
        <time>2022-02-25T15:37:38Z</time>
      </trkpt>
      <trkpt lat="44.81903" lon="6.94333">
        <ele>1729.5</ele>
        <time>2022-02-25T15:37:39Z</time>
      </trkpt>
      <trkpt lat="44.81903" lon="6.94333">
        <ele>1729.5</ele>
        <time>2022-02-25T15:37:40Z</time>
      </trkpt>
      <trkpt lat="44.81903" lon="6.94333">
        <ele>1729.5</ele>
        <time>2022-02-25T15:37:41Z</time>
      </trkpt>
      <trkpt lat="44.81903" lon="6.94333">
        <ele>1729.5</ele>
        <time>2022-02-25T15:37:42Z</time>
      </trkpt>
      <trkpt lat="44.81903" lon="6.94333">
        <ele>1729.5</ele>
        <time>2022-02-25T15:37:43Z</time>
      </trkpt>
      <trkpt lat="44.81903" lon="6.94333">
        <ele>1729.5</ele>
        <time>2022-02-25T15:37:44Z</time>
      </trkpt>
      <trkpt lat="44.81903" lon="6.94333">
        <ele>1729.5</ele>
        <time>2022-02-25T15:37:45Z</time>
      </trkpt>
      <trkpt lat="44.81903" lon="6.94333">
        <ele>1729.5</ele>
        <time>2022-02-25T15:37:46Z</time>
      </trkpt>
      <trkpt lat="44.81903" lon="6.94333">
        <ele>1729.5</ele>
        <time>2022-02-25T15:37:47Z</time>
      </trkpt>
      <trkpt lat="44.81903" lon="6.94333">
        <ele>1729.5</ele>
        <time>2022-02-25T15:37:48Z</time>
      </trkpt>
      <trkpt lat="44.81903" lon="6.94333">
        <ele>1729.5</ele>
        <time>2022-02-25T15:37:49Z</time>
      </trkpt>
      <trkpt lat="44.81903" lon="6.94333">
        <ele>1729.5</ele>
        <time>2022-02-25T15:37:50Z</time>
      </trkpt>
      <trkpt lat="44.81903" lon="6.94333">
        <ele>1729.5</ele>
        <time>2022-02-25T15:37:51Z</time>
      </trkpt>
      <trkpt lat="44.81903" lon="6.94333">
        <ele>1729.5</ele>
        <time>2022-02-25T15:37:52Z</time>
      </trkpt>
      <trkpt lat="44.81903" lon="6.94333">
        <ele>1729.5</ele>
        <time>2022-02-25T15:37:53Z</time>
      </trkpt>
      <trkpt lat="44.81903" lon="6.94333">
        <ele>1729.5</ele>
        <time>2022-02-25T15:37:54Z</time>
      </trkpt>
      <trkpt lat="44.81903" lon="6.94333">
        <ele>1729.5</ele>
        <time>2022-02-25T15:37:55Z</time>
      </trkpt>
      <trkpt lat="44.81903" lon="6.94333">
        <ele>1729.5</ele>
        <time>2022-02-25T15:37:56Z</time>
      </trkpt>
      <trkpt lat="44.81903" lon="6.94333">
        <ele>1729.5</ele>
        <time>2022-02-25T15:37:57Z</time>
      </trkpt>
      <trkpt lat="44.81903" lon="6.94333">
        <ele>1729.5</ele>
        <time>2022-02-25T15:37:58Z</time>
      </trkpt>
      <trkpt lat="44.81903" lon="6.94333">
        <ele>1729.5</ele>
        <time>2022-02-25T15:37:59Z</time>
      </trkpt>
      <trkpt lat="44.81903" lon="6.94333">
        <ele>1729.5</ele>
        <time>2022-02-25T15:38:00Z</time>
      </trkpt>
      <trkpt lat="44.81903" lon="6.94333">
        <ele>1729.5</ele>
        <time>2022-02-25T15:38:01Z</time>
      </trkpt>
      <trkpt lat="44.81903" lon="6.94333">
        <ele>1729.5</ele>
        <time>2022-02-25T15:38:02Z</time>
      </trkpt>
      <trkpt lat="44.81903" lon="6.94333">
        <ele>1729.5</ele>
        <time>2022-02-25T15:38:03Z</time>
      </trkpt>
      <trkpt lat="44.81903" lon="6.94333">
        <ele>1729.5</ele>
        <time>2022-02-25T15:38:04Z</time>
      </trkpt>
      <trkpt lat="44.81903" lon="6.94333">
        <ele>1729.5</ele>
        <time>2022-02-25T15:38:05Z</time>
      </trkpt>
      <trkpt lat="44.81903" lon="6.94333">
        <ele>1729.5</ele>
        <time>2022-02-25T15:38:06Z</time>
      </trkpt>
      <trkpt lat="44.81903" lon="6.94333">
        <ele>1729.5</ele>
        <time>2022-02-25T15:38:07Z</time>
      </trkpt>
      <trkpt lat="44.81903" lon="6.94333">
        <ele>1729.5</ele>
        <time>2022-02-25T15:38:08Z</time>
      </trkpt>
      <trkpt lat="44.81903" lon="6.94333">
        <ele>1729.5</ele>
        <time>2022-02-25T15:38:09Z</time>
      </trkpt>
      <trkpt lat="44.81903" lon="6.94333">
        <ele>1729.5</ele>
        <time>2022-02-25T15:38:10Z</time>
      </trkpt>
      <trkpt lat="44.81903" lon="6.94333">
        <ele>1729.5</ele>
        <time>2022-02-25T15:38:11Z</time>
      </trkpt>
      <trkpt lat="44.81903" lon="6.94333">
        <ele>1729.5</ele>
        <time>2022-02-25T15:38:12Z</time>
      </trkpt>
      <trkpt lat="44.81903" lon="6.94333">
        <ele>1729.5</ele>
        <time>2022-02-25T15:38:13Z</time>
      </trkpt>
      <trkpt lat="44.81903" lon="6.94333">
        <ele>1729.5</ele>
        <time>2022-02-25T15:38:14Z</time>
      </trkpt>
      <trkpt lat="44.81903" lon="6.94333">
        <ele>1729.5</ele>
        <time>2022-02-25T15:38:15Z</time>
      </trkpt>
      <trkpt lat="44.81903" lon="6.94333">
        <ele>1729.5</ele>
        <time>2022-02-25T15:38:16Z</time>
      </trkpt>
      <trkpt lat="44.81903" lon="6.94333">
        <ele>1729.5</ele>
        <time>2022-02-25T15:38:17Z</time>
      </trkpt>
      <trkpt lat="44.81903" lon="6.94333">
        <ele>1729.5</ele>
        <time>2022-02-25T15:38:18Z</time>
      </trkpt>
      <trkpt lat="44.81903" lon="6.94333">
        <ele>1729.5</ele>
        <time>2022-02-25T15:38:19Z</time>
      </trkpt>
      <trkpt lat="44.81903" lon="6.94333">
        <ele>1729.5</ele>
        <time>2022-02-25T15:38:20Z</time>
      </trkpt>
      <trkpt lat="44.81903" lon="6.94333">
        <ele>1729.5</ele>
        <time>2022-02-25T15:38:21Z</time>
      </trkpt>
      <trkpt lat="44.81903" lon="6.94333">
        <ele>1729.5</ele>
        <time>2022-02-25T15:38:22Z</time>
      </trkpt>
      <trkpt lat="44.81903" lon="6.94333">
        <ele>1729.5</ele>
        <time>2022-02-25T15:38:23Z</time>
      </trkpt>
      <trkpt lat="44.81903" lon="6.94333">
        <ele>1729.5</ele>
        <time>2022-02-25T15:38:24Z</time>
      </trkpt>
      <trkpt lat="44.81903" lon="6.94333">
        <ele>1729.5</ele>
        <time>2022-02-25T15:38:25Z</time>
      </trkpt>
      <trkpt lat="44.81903" lon="6.94333">
        <ele>1729.5</ele>
        <time>2022-02-25T15:38:26Z</time>
      </trkpt>
      <trkpt lat="44.81903" lon="6.94333">
        <ele>1729.5</ele>
        <time>2022-02-25T15:38:27Z</time>
      </trkpt>
      <trkpt lat="44.81903" lon="6.94333">
        <ele>1729.5</ele>
        <time>2022-02-25T15:38:28Z</time>
      </trkpt>
      <trkpt lat="44.81903" lon="6.94333">
        <ele>1729.5</ele>
        <time>2022-02-25T15:38:29Z</time>
      </trkpt>
      <trkpt lat="44.81903" lon="6.94333">
        <ele>1729.5</ele>
        <time>2022-02-25T15:38:30Z</time>
      </trkpt>
      <trkpt lat="44.81903" lon="6.94331">
        <ele>1729</ele>
        <time>2022-02-25T15:38:31Z</time>
      </trkpt>
      <trkpt lat="44.81903" lon="6.94331">
        <ele>1729</ele>
        <time>2022-02-25T15:38:32Z</time>
      </trkpt>
      <trkpt lat="44.81903" lon="6.94331">
        <ele>1729</ele>
        <time>2022-02-25T15:38:33Z</time>
      </trkpt>
      <trkpt lat="44.81903" lon="6.94331">
        <ele>1729</ele>
        <time>2022-02-25T15:38:34Z</time>
      </trkpt>
      <trkpt lat="44.81903" lon="6.94331">
        <ele>1729</ele>
        <time>2022-02-25T15:38:35Z</time>
      </trkpt>
      <trkpt lat="44.81903" lon="6.94331">
        <ele>1729</ele>
        <time>2022-02-25T15:38:36Z</time>
      </trkpt>
      <trkpt lat="44.81903" lon="6.94331">
        <ele>1729</ele>
        <time>2022-02-25T15:38:37Z</time>
      </trkpt>
      <trkpt lat="44.81903" lon="6.94331">
        <ele>1729</ele>
        <time>2022-02-25T15:38:38Z</time>
      </trkpt>
      <trkpt lat="44.81903" lon="6.94331">
        <ele>1729</ele>
        <time>2022-02-25T15:38:39Z</time>
      </trkpt>
      <trkpt lat="44.81903" lon="6.94331">
        <ele>1729</ele>
        <time>2022-02-25T15:38:40Z</time>
      </trkpt>
      <trkpt lat="44.81903" lon="6.94331">
        <ele>1729</ele>
        <time>2022-02-25T15:38:41Z</time>
      </trkpt>
      <trkpt lat="44.81903" lon="6.94331">
        <ele>1729</ele>
        <time>2022-02-25T15:38:42Z</time>
      </trkpt>
      <trkpt lat="44.81903" lon="6.94331">
        <ele>1729</ele>
        <time>2022-02-25T15:38:43Z</time>
      </trkpt>
      <trkpt lat="44.81903" lon="6.94331">
        <ele>1729</ele>
        <time>2022-02-25T15:38:44Z</time>
      </trkpt>
      <trkpt lat="44.81903" lon="6.94331">
        <ele>1729</ele>
        <time>2022-02-25T15:38:45Z</time>
      </trkpt>
      <trkpt lat="44.81903" lon="6.94331">
        <ele>1729</ele>
        <time>2022-02-25T15:38:46Z</time>
      </trkpt>
      <trkpt lat="44.81903" lon="6.94331">
        <ele>1729</ele>
        <time>2022-02-25T15:38:47Z</time>
      </trkpt>
      <trkpt lat="44.81903" lon="6.94331">
        <ele>1729</ele>
        <time>2022-02-25T15:38:48Z</time>
      </trkpt>
      <trkpt lat="44.81903" lon="6.94331">
        <ele>1729</ele>
        <time>2022-02-25T15:38:49Z</time>
      </trkpt>
      <trkpt lat="44.81903" lon="6.94331">
        <ele>1729</ele>
        <time>2022-02-25T15:38:50Z</time>
      </trkpt>
      <trkpt lat="44.81903" lon="6.94331">
        <ele>1729</ele>
        <time>2022-02-25T15:38:51Z</time>
      </trkpt>
      <trkpt lat="44.81903" lon="6.94331">
        <ele>1729</ele>
        <time>2022-02-25T15:38:52Z</time>
      </trkpt>
      <trkpt lat="44.81903" lon="6.94331">
        <ele>1729</ele>
        <time>2022-02-25T15:38:53Z</time>
      </trkpt>
      <trkpt lat="44.81903" lon="6.94331">
        <ele>1729</ele>
        <time>2022-02-25T15:38:54Z</time>
      </trkpt>
      <trkpt lat="44.81903" lon="6.94331">
        <ele>1729</ele>
        <time>2022-02-25T15:38:55Z</time>
      </trkpt>
      <trkpt lat="44.81903" lon="6.94331">
        <ele>1729</ele>
        <time>2022-02-25T15:38:56Z</time>
      </trkpt>
      <trkpt lat="44.81903" lon="6.94331">
        <ele>1729</ele>
        <time>2022-02-25T15:38:57Z</time>
      </trkpt>
      <trkpt lat="44.81903" lon="6.94331">
        <ele>1729</ele>
        <time>2022-02-25T15:38:58Z</time>
      </trkpt>
      <trkpt lat="44.81903" lon="6.94331">
        <ele>1729</ele>
        <time>2022-02-25T15:38:59Z</time>
      </trkpt>
      <trkpt lat="44.81903" lon="6.94331">
        <ele>1729</ele>
        <time>2022-02-25T15:39:00Z</time>
      </trkpt>
      <trkpt lat="44.81903" lon="6.94331">
        <ele>1729</ele>
        <time>2022-02-25T15:39:01Z</time>
      </trkpt>
      <trkpt lat="44.81903" lon="6.94331">
        <ele>1729</ele>
        <time>2022-02-25T15:39:02Z</time>
      </trkpt>
      <trkpt lat="44.81903" lon="6.94331">
        <ele>1729</ele>
        <time>2022-02-25T15:39:03Z</time>
      </trkpt>
      <trkpt lat="44.81903" lon="6.94331">
        <ele>1729</ele>
        <time>2022-02-25T15:39:04Z</time>
      </trkpt>
      <trkpt lat="44.81903" lon="6.94331">
        <ele>1729</ele>
        <time>2022-02-25T15:39:05Z</time>
      </trkpt>
      <trkpt lat="44.81903" lon="6.94331">
        <ele>1729</ele>
        <time>2022-02-25T15:39:06Z</time>
      </trkpt>
      <trkpt lat="44.81903" lon="6.94331">
        <ele>1729</ele>
        <time>2022-02-25T15:39:07Z</time>
      </trkpt>
      <trkpt lat="44.81903" lon="6.94331">
        <ele>1729</ele>
        <time>2022-02-25T15:39:08Z</time>
      </trkpt>
      <trkpt lat="44.81903" lon="6.94331">
        <ele>1729</ele>
        <time>2022-02-25T15:39:09Z</time>
      </trkpt>
      <trkpt lat="44.81903" lon="6.94331">
        <ele>1729</ele>
        <time>2022-02-25T15:39:10Z</time>
      </trkpt>
      <trkpt lat="44.81903" lon="6.94331">
        <ele>1729</ele>
        <time>2022-02-25T15:39:11Z</time>
      </trkpt>
      <trkpt lat="44.81903" lon="6.94331">
        <ele>1729</ele>
        <time>2022-02-25T15:39:12Z</time>
      </trkpt>
      <trkpt lat="44.81903" lon="6.94331">
        <ele>1729</ele>
        <time>2022-02-25T15:39:13Z</time>
      </trkpt>
    </trkseg>
  </trk>
  <trk>
    <name><![CDATA[Tour Tête de Pelvas par le col d'Urine]]></name>
    <extensions>
      <line xmlns="http://www.topografix.com/GPX/gpx_style/0/2">
        <color>0000FF</color>
        <width>4</width>
          <extensions>
            <sens>1</sens>
          </extensions>
      </line>
    </extensions>
    <trkseg>
      <trkpt lat="44.81813" lon="6.94489">
        <ele>1750.9</ele>
        <time>2017-01-23T08:00:05Z</time>
      </trkpt>
      <trkpt lat="44.81773" lon="6.94557">
        <ele>1754.3</ele>
        <time>2017-01-23T08:04:50Z</time>
      </trkpt>
      <trkpt lat="44.81724" lon="6.94627">
        <ele>1758.4</ele>
        <time>2017-01-23T08:06:13Z</time>
      </trkpt>
      <trkpt lat="44.81661" lon="6.94679">
        <ele>1761.4</ele>
        <time>2017-01-23T08:07:34Z</time>
      </trkpt>
      <trkpt lat="44.81621" lon="6.94758">
        <ele>1762.5</ele>
        <time>2017-01-23T08:08:48Z</time>
      </trkpt>
      <trkpt lat="44.81574" lon="6.94836">
        <ele>1766.8</ele>
        <time>2017-01-23T08:10:11Z</time>
      </trkpt>
      <trkpt lat="44.81551" lon="6.9493">
        <ele>1770.3</ele>
        <time>2017-01-23T08:11:59Z</time>
      </trkpt>
      <trkpt lat="44.81544" lon="6.95031">
        <ele>1779.9</ele>
        <time>2017-01-23T08:13:18Z</time>
      </trkpt>
      <trkpt lat="44.81528" lon="6.95129">
        <ele>1786.2</ele>
        <time>2017-01-23T08:14:39Z</time>
      </trkpt>
      <trkpt lat="44.81482" lon="6.95197">
        <ele>1792.7</ele>
        <time>2017-01-23T08:16:02Z</time>
      </trkpt>
      <trkpt lat="44.81443" lon="6.95273">
        <ele>1797.4</ele>
        <time>2017-01-23T08:18:42Z</time>
      </trkpt>
      <trkpt lat="44.81388" lon="6.95337">
        <ele>1800</ele>
        <time>2017-01-23T08:19:50Z</time>
      </trkpt>
      <trkpt lat="44.81335" lon="6.95407">
        <ele>1800.6</ele>
        <time>2017-01-23T08:20:58Z</time>
      </trkpt>
      <trkpt lat="44.81304" lon="6.95495">
        <ele>1801.6</ele>
        <time>2017-01-23T08:22:07Z</time>
      </trkpt>
      <trkpt lat="44.81269" lon="6.95584">
        <ele>1802.1</ele>
        <time>2017-01-23T08:23:15Z</time>
      </trkpt>
      <trkpt lat="44.81248" lon="6.95662">
        <ele>1802.1</ele>
        <time>2017-01-23T08:25:31Z</time>
      </trkpt>
      <trkpt lat="44.81259" lon="6.95762">
        <ele>1812.3</ele>
        <time>2017-01-23T08:26:49Z</time>
      </trkpt>
      <trkpt lat="44.81242" lon="6.95857">
        <ele>1814.5</ele>
        <time>2017-01-23T08:28:06Z</time>
      </trkpt>
      <trkpt lat="44.81229" lon="6.95957">
        <ele>1825</ele>
        <time>2017-01-23T08:29:26Z</time>
      </trkpt>
      <trkpt lat="44.81189" lon="6.96043">
        <ele>1830.9</ele>
        <time>2017-01-23T08:30:50Z</time>
      </trkpt>
      <trkpt lat="44.81191" lon="6.96139">
        <ele>1836.4</ele>
        <time>2017-01-23T08:32:06Z</time>
      </trkpt>
      <trkpt lat="44.81176" lon="6.96236">
        <ele>1840.5</ele>
        <time>2017-01-23T08:33:18Z</time>
      </trkpt>
      <trkpt lat="44.81155" lon="6.96331">
        <ele>1844.6</ele>
        <time>2017-01-23T08:34:24Z</time>
      </trkpt>
      <trkpt lat="44.81157" lon="6.96428">
        <ele>1846.2</ele>
        <time>2017-01-23T08:36:17Z</time>
      </trkpt>
      <trkpt lat="44.81165" lon="6.9653">
        <ele>1846.7</ele>
        <time>2017-01-23T08:37:27Z</time>
      </trkpt>
      <trkpt lat="44.81185" lon="6.9663">
        <ele>1849.9</ele>
        <time>2017-01-23T08:38:37Z</time>
      </trkpt>
      <trkpt lat="44.81164" lon="6.96707">
        <ele>1848.6</ele>
        <time>2017-01-23T08:39:40Z</time>
      </trkpt>
      <trkpt lat="44.81173" lon="6.96806">
        <ele>1852</ele>
        <time>2017-01-23T08:40:53Z</time>
      </trkpt>
      <trkpt lat="44.81157" lon="6.96901">
        <ele>1855.6</ele>
        <time>2017-01-23T08:42:11Z</time>
      </trkpt>
      <trkpt lat="44.81131" lon="6.96965">
        <ele>1863.5</ele>
        <time>2017-01-23T08:43:49Z</time>
      </trkpt>
      <trkpt lat="44.81093" lon="6.97036">
        <ele>1870.5</ele>
        <time>2017-01-23T08:48:16Z</time>
      </trkpt>
      <trkpt lat="44.81038" lon="6.97073">
        <ele>1876.6</ele>
        <time>2017-01-23T08:51:03Z</time>
      </trkpt>
      <trkpt lat="44.80966" lon="6.97081">
        <ele>1884.3</ele>
        <time>2017-01-23T08:52:45Z</time>
      </trkpt>
      <trkpt lat="44.80899" lon="6.97109">
        <ele>1893.6</ele>
        <time>2017-01-23T08:54:10Z</time>
      </trkpt>
      <trkpt lat="44.80832" lon="6.97121">
        <ele>1906.5</ele>
        <time>2017-01-23T08:55:53Z</time>
      </trkpt>
      <trkpt lat="44.8077" lon="6.97153">
        <ele>1913.9</ele>
        <time>2017-01-23T08:57:38Z</time>
      </trkpt>
      <trkpt lat="44.80826" lon="6.97208">
        <ele>1923.5</ele>
        <time>2017-01-23T08:59:53Z</time>
      </trkpt>
      <trkpt lat="44.80789" lon="6.97239">
        <ele>1938.1</ele>
        <time>2017-01-23T09:02:37Z</time>
      </trkpt>
      <trkpt lat="44.8077" lon="6.973">
        <ele>1962.2</ele>
        <time>2017-01-23T09:04:54Z</time>
      </trkpt>
      <trkpt lat="44.80714" lon="6.97343">
        <ele>1972.1</ele>
        <time>2017-01-23T09:06:48Z</time>
      </trkpt>
      <trkpt lat="44.80689" lon="6.97397">
        <ele>1989.4</ele>
        <time>2017-01-23T09:12:15Z</time>
      </trkpt>
      <trkpt lat="44.80628" lon="6.9745">
        <ele>2007.6</ele>
        <time>2017-01-23T09:14:20Z</time>
      </trkpt>
      <trkpt lat="44.80567" lon="6.97497">
        <ele>2015.7</ele>
        <time>2017-01-23T09:16:06Z</time>
      </trkpt>
      <trkpt lat="44.80501" lon="6.97525">
        <ele>2029.8</ele>
        <time>2017-01-23T09:17:50Z</time>
      </trkpt>
      <trkpt lat="44.80449" lon="6.97594">
        <ele>2058.6</ele>
        <time>2017-01-23T09:20:01Z</time>
      </trkpt>
      <trkpt lat="44.804" lon="6.97652">
        <ele>2074.8</ele>
        <time>2017-01-23T09:22:33Z</time>
      </trkpt>
      <trkpt lat="44.80376" lon="6.97724">
        <ele>2100</ele>
        <time>2017-01-23T09:25:04Z</time>
      </trkpt>
      <trkpt lat="44.8032" lon="6.97782">
        <ele>2110.3</ele>
        <time>2017-01-23T09:27:20Z</time>
      </trkpt>
      <trkpt lat="44.80265" lon="6.97837">
        <ele>2123.9</ele>
        <time>2017-01-23T09:29:53Z</time>
      </trkpt>
      <trkpt lat="44.80235" lon="6.97908">
        <ele>2144.6</ele>
        <time>2017-01-23T09:32:12Z</time>
      </trkpt>
      <trkpt lat="44.80192" lon="6.97974">
        <ele>2153.8</ele>
        <time>2017-01-23T09:38:32Z</time>
      </trkpt>
      <trkpt lat="44.80144" lon="6.98046">
        <ele>2166.5</ele>
        <time>2017-01-23T09:40:13Z</time>
      </trkpt>
      <trkpt lat="44.80114" lon="6.98136">
        <ele>2180.1</ele>
        <time>2017-01-23T09:42:03Z</time>
      </trkpt>
      <trkpt lat="44.8008" lon="6.98225">
        <ele>2193.7</ele>
        <time>2017-01-23T09:43:55Z</time>
      </trkpt>
      <trkpt lat="44.8005" lon="6.98319">
        <ele>2206</ele>
        <time>2017-01-23T09:45:55Z</time>
      </trkpt>
      <trkpt lat="44.80027" lon="6.98412">
        <ele>2217.9</ele>
        <time>2017-01-23T09:47:55Z</time>
      </trkpt>
      <trkpt lat="44.80008" lon="6.9851">
        <ele>2231.4</ele>
        <time>2017-01-23T09:49:58Z</time>
      </trkpt>
      <trkpt lat="44.79981" lon="6.98604">
        <ele>2247.2</ele>
        <time>2017-01-23T09:52:12Z</time>
      </trkpt>
      <trkpt lat="44.79957" lon="6.98695">
        <ele>2261</ele>
        <time>2017-01-23T09:54:20Z</time>
      </trkpt>
      <trkpt lat="44.79936" lon="6.9879">
        <ele>2275</ele>
        <time>2017-01-23T09:56:23Z</time>
      </trkpt>
      <trkpt lat="44.79926" lon="6.98891">
        <ele>2287.6</ele>
        <time>2017-01-23T09:58:15Z</time>
      </trkpt>
      <trkpt lat="44.79914" lon="6.98972">
        <ele>2298.2</ele>
        <time>2017-01-23T10:05:20Z</time>
      </trkpt>
      <trkpt lat="44.79879" lon="6.99049">
        <ele>2313.8</ele>
        <time>2017-01-23T10:07:54Z</time>
      </trkpt>
      <trkpt lat="44.79846" lon="6.99132">
        <ele>2327.1</ele>
        <time>2017-01-23T10:11:25Z</time>
      </trkpt>
      <trkpt lat="44.79817" lon="6.99225">
        <ele>2334.2</ele>
        <time>2017-01-23T10:12:59Z</time>
      </trkpt>
      <trkpt lat="44.7979" lon="6.99317">
        <ele>2343.5</ele>
        <time>2017-01-23T10:14:36Z</time>
      </trkpt>
      <trkpt lat="44.79758" lon="6.99407">
        <ele>2357.7</ele>
        <time>2017-01-23T10:16:33Z</time>
      </trkpt>
      <trkpt lat="44.79719" lon="6.9949">
        <ele>2372.3</ele>
        <time>2017-01-23T10:18:34Z</time>
      </trkpt>
      <trkpt lat="44.79722" lon="6.99553">
        <ele>2392.1</ele>
        <time>2017-01-23T10:20:57Z</time>
      </trkpt>
      <trkpt lat="44.79705" lon="6.99632">
        <ele>2410.7</ele>
        <time>2017-01-23T10:23:22Z</time>
      </trkpt>
      <trkpt lat="44.79714" lon="6.99728">
        <ele>2428.3</ele>
        <time>2017-01-23T10:25:18Z</time>
      </trkpt>
      <trkpt lat="44.79709" lon="6.99826">
        <ele>2438.1</ele>
        <time>2017-01-23T10:27:11Z</time>
      </trkpt>
      <trkpt lat="44.7968" lon="6.99917">
        <ele>2449.5</ele>
        <time>2017-01-23T10:29:04Z</time>
      </trkpt>
      <trkpt lat="44.79637" lon="6.99997">
        <ele>2459</ele>
        <time>2017-01-23T10:30:42Z</time>
      </trkpt>
      <trkpt lat="44.796" lon="7.00077">
        <ele>2469.6</ele>
        <time>2017-01-23T10:32:21Z</time>
      </trkpt>
      <trkpt lat="44.79598" lon="7.00168">
        <ele>2486.8</ele>
        <time>2017-01-23T10:34:39Z</time>
      </trkpt>
      <trkpt lat="44.79554" lon="7.00231">
        <ele>2498.1</ele>
        <time>2017-01-23T10:37:53Z</time>
      </trkpt>
      <trkpt lat="44.79492" lon="7.00275">
        <ele>2512.2</ele>
        <time>2017-01-23T10:39:57Z</time>
      </trkpt>
      <trkpt lat="44.79449" lon="7.0036">
        <ele>2528.4</ele>
        <time>2017-01-23T10:41:47Z</time>
      </trkpt>
      <trkpt lat="44.79414" lon="7.00444">
        <ele>2532.8</ele>
        <time>2017-01-23T10:43:03Z</time>
      </trkpt>
      <trkpt lat="44.79393" lon="7.00505">
        <ele>2519.3</ele>
        <time>2017-01-23T10:45:05Z</time>
      </trkpt>
      <trkpt lat="44.7934" lon="7.00542">
        <ele>2499.1</ele>
        <time>2017-01-23T10:45:37Z</time>
      </trkpt>
      <trkpt lat="44.79293" lon="7.00614">
        <ele>2481.5</ele>
        <time>2017-01-23T10:46:11Z</time>
      </trkpt>
      <trkpt lat="44.7923" lon="7.00645">
        <ele>2485.9</ele>
        <time>2017-01-23T10:48:51Z</time>
      </trkpt>
      <trkpt lat="44.79158" lon="7.00644">
        <ele>2493.9</ele>
        <time>2017-01-23T10:50:43Z</time>
      </trkpt>
      <trkpt lat="44.79106" lon="7.00677">
        <ele>2488.7</ele>
        <time>2017-01-23T11:02:37Z</time>
      </trkpt>
      <trkpt lat="44.79043" lon="7.0071">
        <ele>2486.2</ele>
        <time>2017-01-23T11:04:04Z</time>
      </trkpt>
      <trkpt lat="44.78995" lon="7.00729">
        <ele>2494.7</ele>
        <time>2017-01-23T11:06:06Z</time>
      </trkpt>
      <trkpt lat="44.78943" lon="7.00726">
        <ele>2506.5</ele>
        <time>2017-01-23T11:08:58Z</time>
      </trkpt>
      <trkpt lat="44.78876" lon="7.00724">
        <ele>2514.4</ele>
        <time>2017-01-23T11:10:46Z</time>
      </trkpt>
      <trkpt lat="44.78807" lon="7.00736">
        <ele>2521</ele>
        <time>2017-01-23T11:12:19Z</time>
      </trkpt>
      <trkpt lat="44.78751" lon="7.0073">
        <ele>2527</ele>
        <time>2017-01-23T11:17:25Z</time>
      </trkpt>
      <trkpt lat="44.78685" lon="7.00761">
        <ele>2541.7</ele>
        <time>2017-01-23T11:19:33Z</time>
      </trkpt>
      <trkpt lat="44.78662" lon="7.00813">
        <ele>2562.2</ele>
        <time>2017-01-23T11:22:14Z</time>
      </trkpt>
      <trkpt lat="44.78592" lon="7.0081">
        <ele>2581.8</ele>
        <time>2017-01-23T11:24:36Z</time>
      </trkpt>
      <trkpt lat="44.78543" lon="7.00806">
        <ele>2601.9</ele>
        <time>2017-01-23T11:27:27Z</time>
      </trkpt>
      <trkpt lat="44.7851" lon="7.00724">
        <ele>2613.4</ele>
        <time>2017-01-23T11:29:36Z</time>
      </trkpt>
      <trkpt lat="44.78513" lon="7.00632">
        <ele>2608.4</ele>
        <time>2017-01-23T11:31:42Z</time>
      </trkpt>
      <trkpt lat="44.78554" lon="7.0058">
        <ele>2608.1</ele>
        <time>2017-01-23T11:45:19Z</time>
      </trkpt>
      <trkpt lat="44.78531" lon="7.0055">
        <ele>2594.6</ele>
        <time>2017-01-23T11:47:17Z</time>
      </trkpt>
      <trkpt lat="44.78514" lon="7.0047">
        <ele>2563</ele>
        <time>2017-01-23T11:48:36Z</time>
      </trkpt>
      <trkpt lat="44.78488" lon="7.00419">
        <ele>2538.1</ele>
        <time>2017-01-23T11:49:24Z</time>
      </trkpt>
      <trkpt lat="44.78454" lon="7.00368">
        <ele>2509.9</ele>
        <time>2017-01-23T11:49:43Z</time>
      </trkpt>
      <trkpt lat="44.7842" lon="7.0036">
        <ele>2494.3</ele>
        <time>2017-01-23T11:50:21Z</time>
      </trkpt>
      <trkpt lat="44.78375" lon="7.00307">
        <ele>2476.3</ele>
        <time>2017-01-23T11:50:39Z</time>
      </trkpt>
      <trkpt lat="44.78318" lon="7.00281">
        <ele>2457.6</ele>
        <time>2017-01-23T11:51:53Z</time>
      </trkpt>
      <trkpt lat="44.783" lon="7.00244">
        <ele>2441</ele>
        <time>2017-01-23T11:52:13Z</time>
      </trkpt>
      <trkpt lat="44.78269" lon="7.00217">
        <ele>2419.8</ele>
        <time>2017-01-23T11:52:30Z</time>
      </trkpt>
      <trkpt lat="44.78292" lon="7.00165">
        <ele>2410.3</ele>
        <time>2017-01-23T11:52:48Z</time>
      </trkpt>
      <trkpt lat="44.78231" lon="7.00153">
        <ele>2390.8</ele>
        <time>2017-01-23T11:53:28Z</time>
      </trkpt>
      <trkpt lat="44.78191" lon="7.00098">
        <ele>2377.3</ele>
        <time>2017-01-23T11:53:44Z</time>
      </trkpt>
      <trkpt lat="44.78194" lon="7.00027">
        <ele>2357.8</ele>
        <time>2017-01-23T11:54:32Z</time>
      </trkpt>
      <trkpt lat="44.78174" lon="6.99978">
        <ele>2338.2</ele>
        <time>2017-01-23T11:54:51Z</time>
      </trkpt>
      <trkpt lat="44.78123" lon="6.99955">
        <ele>2323.7</ele>
        <time>2017-01-23T11:55:30Z</time>
      </trkpt>
      <trkpt lat="44.78083" lon="6.99907">
        <ele>2312</ele>
        <time>2017-01-23T11:55:46Z</time>
      </trkpt>
      <trkpt lat="44.78025" lon="6.99835">
        <ele>2299.9</ele>
        <time>2017-01-23T11:55:58Z</time>
      </trkpt>
      <trkpt lat="44.77979" lon="6.9979">
        <ele>2297.9</ele>
        <time>2017-01-23T12:31:52Z</time>
      </trkpt>
      <trkpt lat="44.77991" lon="6.9971">
        <ele>2305.2</ele>
        <time>2017-01-23T12:36:33Z</time>
      </trkpt>
      <trkpt lat="44.78053" lon="6.9966">
        <ele>2313.5</ele>
        <time>2017-01-23T12:38:39Z</time>
      </trkpt>
      <trkpt lat="44.781" lon="6.99588">
        <ele>2316.3</ele>
        <time>2017-01-23T12:40:30Z</time>
      </trkpt>
      <trkpt lat="44.78152" lon="6.99538">
        <ele>2332.6</ele>
        <time>2017-01-23T12:46:36Z</time>
      </trkpt>
      <trkpt lat="44.78198" lon="6.99464">
        <ele>2339</ele>
        <time>2017-01-23T12:48:36Z</time>
      </trkpt>
      <trkpt lat="44.78222" lon="6.99374">
        <ele>2341.5</ele>
        <time>2017-01-23T12:50:23Z</time>
      </trkpt>
      <trkpt lat="44.78236" lon="6.99277">
        <ele>2341.3</ele>
        <time>2017-01-23T12:51:50Z</time>
      </trkpt>
      <trkpt lat="44.78257" lon="6.99181">
        <ele>2340.4</ele>
        <time>2017-01-23T12:53:15Z</time>
      </trkpt>
      <trkpt lat="44.78288" lon="6.99089">
        <ele>2347.2</ele>
        <time>2017-01-23T12:55:02Z</time>
      </trkpt>
      <trkpt lat="44.78307" lon="6.98994">
        <ele>2355.4</ele>
        <time>2017-01-23T12:57:07Z</time>
      </trkpt>
      <trkpt lat="44.78323" lon="6.98897">
        <ele>2369.6</ele>
        <time>2017-01-23T12:59:23Z</time>
      </trkpt>
      <trkpt lat="44.78337" lon="6.98809">
        <ele>2385.3</ele>
        <time>2017-01-23T13:02:35Z</time>
      </trkpt>
      <trkpt lat="44.78354" lon="6.98731">
        <ele>2396.3</ele>
        <time>2017-01-23T13:04:54Z</time>
      </trkpt>
      <trkpt lat="44.78415" lon="6.98686">
        <ele>2407</ele>
        <time>2017-01-23T13:06:53Z</time>
      </trkpt>
      <trkpt lat="44.78462" lon="6.98609">
        <ele>2418.9</ele>
        <time>2017-01-23T13:08:56Z</time>
      </trkpt>
      <trkpt lat="44.7852" lon="6.98555">
        <ele>2429.4</ele>
        <time>2017-01-23T13:10:56Z</time>
      </trkpt>
      <trkpt lat="44.78571" lon="6.98488">
        <ele>2425.7</ele>
        <time>2017-01-23T13:12:38Z</time>
      </trkpt>
      <trkpt lat="44.78636" lon="6.98447">
        <ele>2429.7</ele>
        <time>2017-01-23T13:14:23Z</time>
      </trkpt>
      <trkpt lat="44.78699" lon="6.98427">
        <ele>2443.6</ele>
        <time>2017-01-23T13:17:39Z</time>
      </trkpt>
      <trkpt lat="44.78738" lon="6.98346">
        <ele>2452.7</ele>
        <time>2017-01-23T13:19:45Z</time>
      </trkpt>
      <trkpt lat="44.78761" lon="6.98254">
        <ele>2462</ele>
        <time>2017-01-23T13:22:29Z</time>
      </trkpt>
      <trkpt lat="44.78788" lon="6.98163">
        <ele>2472.3</ele>
        <time>2017-01-23T13:24:24Z</time>
      </trkpt>
      <trkpt lat="44.78817" lon="6.98073">
        <ele>2481.4</ele>
        <time>2017-01-23T13:26:20Z</time>
      </trkpt>
      <trkpt lat="44.78846" lon="6.9798">
        <ele>2490.6</ele>
        <time>2017-01-23T13:28:17Z</time>
      </trkpt>
      <trkpt lat="44.78882" lon="6.97892">
        <ele>2500.2</ele>
        <time>2017-01-23T13:30:13Z</time>
      </trkpt>
      <trkpt lat="44.78914" lon="6.97804">
        <ele>2508.9</ele>
        <time>2017-01-23T13:32:05Z</time>
      </trkpt>
      <trkpt lat="44.78936" lon="6.97707">
        <ele>2520.2</ele>
        <time>2017-01-23T13:34:12Z</time>
      </trkpt>
      <trkpt lat="44.7898" lon="6.97629">
        <ele>2537.6</ele>
        <time>2017-01-23T13:39:31Z</time>
      </trkpt>
      <trkpt lat="44.79001" lon="6.9754">
        <ele>2548.8</ele>
        <time>2017-01-23T13:42:04Z</time>
      </trkpt>
      <trkpt lat="44.79021" lon="6.97504">
        <ele>2552.8</ele>
        <time>2017-01-23T13:47:22Z</time>
      </trkpt>
      <trkpt lat="44.79031" lon="6.97575">
        <ele>2551.6</ele>
        <time>2017-01-23T14:04:46Z</time>
      </trkpt>
      <trkpt lat="44.79078" lon="6.97638">
        <ele>2539.5</ele>
        <time>2017-01-23T14:05:03Z</time>
      </trkpt>
      <trkpt lat="44.79129" lon="6.97607">
        <ele>2516.9</ele>
        <time>2017-01-23T14:05:22Z</time>
      </trkpt>
      <trkpt lat="44.79159" lon="6.97548">
        <ele>2492.6</ele>
        <time>2017-01-23T14:06:27Z</time>
      </trkpt>
      <trkpt lat="44.79152" lon="6.97472">
        <ele>2475.8</ele>
        <time>2017-01-23T14:06:55Z</time>
      </trkpt>
      <trkpt lat="44.79195" lon="6.97434">
        <ele>2451.1</ele>
        <time>2017-01-23T14:07:38Z</time>
      </trkpt>
      <trkpt lat="44.7925" lon="6.97418">
        <ele>2434</ele>
        <time>2017-01-23T14:08:04Z</time>
      </trkpt>
      <trkpt lat="44.7929" lon="6.97451">
        <ele>2421.1</ele>
        <time>2017-01-23T14:08:54Z</time>
      </trkpt>
      <trkpt lat="44.79312" lon="6.97538">
        <ele>2412.4</ele>
        <time>2017-01-23T14:09:10Z</time>
      </trkpt>
      <trkpt lat="44.79368" lon="6.97528">
        <ele>2388.7</ele>
        <time>2017-01-23T14:09:29Z</time>
      </trkpt>
      <trkpt lat="44.79417" lon="6.97476">
        <ele>2373</ele>
        <time>2017-01-23T14:09:47Z</time>
      </trkpt>
      <trkpt lat="44.79471" lon="6.97426">
        <ele>2363.8</ele>
        <time>2017-01-23T14:10:02Z</time>
      </trkpt>
      <trkpt lat="44.79521" lon="6.97376">
        <ele>2350.5</ele>
        <time>2017-01-23T14:11:08Z</time>
      </trkpt>
      <trkpt lat="44.79555" lon="6.9731">
        <ele>2335.5</ele>
        <time>2017-01-23T14:11:34Z</time>
      </trkpt>
      <trkpt lat="44.7959" lon="6.97236">
        <ele>2318.9</ele>
        <time>2017-01-23T14:12:24Z</time>
      </trkpt>
      <trkpt lat="44.79636" lon="6.97207">
        <ele>2294.8</ele>
        <time>2017-01-23T14:12:45Z</time>
      </trkpt>
      <trkpt lat="44.79672" lon="6.97239">
        <ele>2276.4</ele>
        <time>2017-01-23T14:14:22Z</time>
      </trkpt>
      <trkpt lat="44.7972" lon="6.9723">
        <ele>2254.5</ele>
        <time>2017-01-23T14:15:51Z</time>
      </trkpt>
      <trkpt lat="44.79713" lon="6.97324">
        <ele>2240.4</ele>
        <time>2017-01-23T14:16:12Z</time>
      </trkpt>
      <trkpt lat="44.79747" lon="6.9737">
        <ele>2218.7</ele>
        <time>2017-01-23T14:16:30Z</time>
      </trkpt>
      <trkpt lat="44.7981" lon="6.97362">
        <ele>2198.2</ele>
        <time>2017-01-23T14:18:32Z</time>
      </trkpt>
      <trkpt lat="44.79872" lon="6.97404">
        <ele>2172.1</ele>
        <time>2017-01-23T14:18:50Z</time>
      </trkpt>
      <trkpt lat="44.7991" lon="6.97414">
        <ele>2158.1</ele>
        <time>2017-01-23T14:19:39Z</time>
      </trkpt>
      <trkpt lat="44.79956" lon="6.97421">
        <ele>2145.4</ele>
        <time>2017-01-23T14:20:38Z</time>
      </trkpt>
      <trkpt lat="44.80019" lon="6.97388">
        <ele>2128.6</ele>
        <time>2017-01-23T14:21:12Z</time>
      </trkpt>
      <trkpt lat="44.80072" lon="6.9733">
        <ele>2120.2</ele>
        <time>2017-01-23T14:21:45Z</time>
      </trkpt>
      <trkpt lat="44.80136" lon="6.97313">
        <ele>2105.8</ele>
        <time>2017-01-23T14:22:13Z</time>
      </trkpt>
      <trkpt lat="44.80194" lon="6.97311">
        <ele>2089.4</ele>
        <time>2017-01-23T14:24:14Z</time>
      </trkpt>
      <trkpt lat="44.80245" lon="6.97306">
        <ele>2071.7</ele>
        <time>2017-01-23T14:24:54Z</time>
      </trkpt>
      <trkpt lat="44.80298" lon="6.97259">
        <ele>2057.4</ele>
        <time>2017-01-23T14:29:10Z</time>
      </trkpt>
      <trkpt lat="44.80346" lon="6.9724">
        <ele>2038.3</ele>
        <time>2017-01-23T14:29:44Z</time>
      </trkpt>
      <trkpt lat="44.80376" lon="6.97208">
        <ele>2029.4</ele>
        <time>2017-01-23T14:30:38Z</time>
      </trkpt>
      <trkpt lat="44.80421" lon="6.97192">
        <ele>2012.7</ele>
        <time>2017-01-23T14:32:24Z</time>
      </trkpt>
      <trkpt lat="44.80461" lon="6.97189">
        <ele>1998.1</ele>
        <time>2017-01-23T14:34:05Z</time>
      </trkpt>
      <trkpt lat="44.80448" lon="6.97284">
        <ele>1983.5</ele>
        <time>2017-01-23T14:34:49Z</time>
      </trkpt>
      <trkpt lat="44.80495" lon="6.97283">
        <ele>1968</ele>
        <time>2017-01-23T14:35:54Z</time>
      </trkpt>
      <trkpt lat="44.8055" lon="6.97234">
        <ele>1959.1</ele>
        <time>2017-01-23T14:36:31Z</time>
      </trkpt>
      <trkpt lat="44.8061" lon="6.97192">
        <ele>1947.2</ele>
        <time>2017-01-23T14:37:23Z</time>
      </trkpt>
      <trkpt lat="44.80663" lon="6.97152">
        <ele>1936.2</ele>
        <time>2017-01-23T14:38:38Z</time>
      </trkpt>
      <trkpt lat="44.80729" lon="6.97118">
        <ele>1922.2</ele>
        <time>2017-01-23T14:39:18Z</time>
      </trkpt>
      <trkpt lat="44.80797" lon="6.97116">
        <ele>1911.5</ele>
        <time>2017-01-23T14:39:49Z</time>
      </trkpt>
      <trkpt lat="44.80856" lon="6.97081">
        <ele>1905.8</ele>
        <time>2017-01-23T14:41:42Z</time>
      </trkpt>
      <trkpt lat="44.80919" lon="6.9703">
        <ele>1890.2</ele>
        <time>2017-01-23T14:42:04Z</time>
      </trkpt>
      <trkpt lat="44.80968" lon="6.96952">
        <ele>1878.5</ele>
        <time>2017-01-23T14:42:27Z</time>
      </trkpt>
      <trkpt lat="44.81013" lon="6.96875">
        <ele>1868.4</ele>
        <time>2017-01-23T14:43:44Z</time>
      </trkpt>
      <trkpt lat="44.81079" lon="6.96833">
        <ele>1863.3</ele>
        <time>2017-01-23T14:44:10Z</time>
      </trkpt>
      <trkpt lat="44.81145" lon="6.96816">
        <ele>1855.3</ele>
        <time>2017-01-23T14:44:22Z</time>
      </trkpt>
      <trkpt lat="44.81173" lon="6.96725">
        <ele>1849.3</ele>
        <time>2017-01-23T14:44:34Z</time>
      </trkpt>
      <trkpt lat="44.81189" lon="6.96657">
        <ele>1849.7</ele>
        <time>2017-01-23T14:46:30Z</time>
      </trkpt>
      <trkpt lat="44.81168" lon="6.96559">
        <ele>1846.4</ele>
        <time>2017-01-23T14:46:57Z</time>
      </trkpt>
      <trkpt lat="44.81156" lon="6.96456">
        <ele>1846.1</ele>
        <time>2017-01-23T14:47:24Z</time>
      </trkpt>
      <trkpt lat="44.81152" lon="6.96351">
        <ele>1844.3</ele>
        <time>2017-01-23T14:47:47Z</time>
      </trkpt>
      <trkpt lat="44.81167" lon="6.9625">
        <ele>1836.1</ele>
        <time>2017-01-23T14:48:11Z</time>
      </trkpt>
      <trkpt lat="44.81191" lon="6.96154">
        <ele>1836.9</ele>
        <time>2017-01-23T14:48:30Z</time>
      </trkpt>
      <trkpt lat="44.8118" lon="6.96054">
        <ele>1830.2</ele>
        <time>2017-01-23T14:48:42Z</time>
      </trkpt>
      <trkpt lat="44.81222" lon="6.95964">
        <ele>1823.4</ele>
        <time>2017-01-23T14:48:52Z</time>
      </trkpt>
      <trkpt lat="44.8124" lon="6.9586">
        <ele>1814</ele>
        <time>2017-01-23T14:49:01Z</time>
      </trkpt>
      <trkpt lat="44.81255" lon="6.95753">
        <ele>1809.7</ele>
        <time>2017-01-23T14:49:10Z</time>
      </trkpt>
      <trkpt lat="44.81244" lon="6.9565">
        <ele>1800.7</ele>
        <time>2017-01-23T14:49:19Z</time>
      </trkpt>
      <trkpt lat="44.81277" lon="6.9556">
        <ele>1800.7</ele>
        <time>2017-01-23T14:49:33Z</time>
      </trkpt>
      <trkpt lat="44.81308" lon="6.95471">
        <ele>1800.9</ele>
        <time>2017-01-23T14:49:52Z</time>
      </trkpt>
      <trkpt lat="44.81347" lon="6.95387">
        <ele>1799.3</ele>
        <time>2017-01-23T14:50:13Z</time>
      </trkpt>
      <trkpt lat="44.81399" lon="6.95315">
        <ele>1796.1</ele>
        <time>2017-01-23T14:50:36Z</time>
      </trkpt>
      <trkpt lat="44.81459" lon="6.95255">
        <ele>1798.6</ele>
        <time>2017-01-23T14:51:02Z</time>
      </trkpt>
      <trkpt lat="44.81506" lon="6.95174">
        <ele>1791</ele>
        <time>2017-01-23T14:51:23Z</time>
      </trkpt>
      <trkpt lat="44.81537" lon="6.95081">
        <ele>1783</ele>
        <time>2017-01-23T14:51:34Z</time>
      </trkpt>
      <trkpt lat="44.8155" lon="6.94979">
        <ele>1776.4</ele>
        <time>2017-01-23T14:51:44Z</time>
      </trkpt>
      <trkpt lat="44.81566" lon="6.94879">
        <ele>1768</ele>
        <time>2017-01-23T14:51:54Z</time>
      </trkpt>
      <trkpt lat="44.81598" lon="6.94789">
        <ele>1765.1</ele>
        <time>2017-01-23T14:52:04Z</time>
      </trkpt>
      <trkpt lat="44.81642" lon="6.94704">
        <ele>1760.9</ele>
        <time>2017-01-23T14:52:16Z</time>
      </trkpt>
      <trkpt lat="44.81697" lon="6.94642">
        <ele>1759</ele>
        <time>2017-01-23T14:52:33Z</time>
      </trkpt>
      <trkpt lat="44.81757" lon="6.94583">
        <ele>1753.9</ele>
        <time>2017-01-23T14:52:48Z</time>
      </trkpt>
      <trkpt lat="44.818" lon="6.945">
        <ele>1751.4</ele>
        <time>2017-01-23T14:53:07Z</time>
      </trkpt>
      <trkpt lat="44.81857" lon="6.94473">
        <ele>1752.5</ele>
        <time>2017-01-23T14:56:03Z</time>
      </trkpt>
    </trkseg>
  </trk>
  <trk>
    <name><![CDATA[Pic Charbonnel en boucle]]></name>
    <extensions>
      <line xmlns="http://www.topografix.com/GPX/gpx_style/0/2">
        <color>00FF00</color>
        <width>4</width>
          <extensions>
            <sens>1</sens>
          </extensions>
      </line>
    </extensions>
    <trkseg>
      <trkpt lat="44.82113" lon="6.94374">
        <ele>1758.9</ele>
        <time>2023-02-16T08:39:17Z</time>
      </trkpt>
      <trkpt lat="44.82113" lon="6.94374">
        <ele>1758.9</ele>
        <time>2023-02-16T08:39:33Z</time>
      </trkpt>
      <trkpt lat="44.82117" lon="6.94365">
        <ele>1759.1</ele>
        <time>2023-02-16T08:39:41Z</time>
      </trkpt>
      <trkpt lat="44.8212" lon="6.94363">
        <ele>1759.8</ele>
        <time>2023-02-16T08:39:45Z</time>
      </trkpt>
      <trkpt lat="44.82124" lon="6.94362">
        <ele>1760.8</ele>
        <time>2023-02-16T08:39:50Z</time>
      </trkpt>
      <trkpt lat="44.82133" lon="6.94361">
        <ele>1763.3</ele>
        <time>2023-02-16T08:39:57Z</time>
      </trkpt>
      <trkpt lat="44.82136" lon="6.9436">
        <ele>1764</ele>
        <time>2023-02-16T08:39:59Z</time>
      </trkpt>
      <trkpt lat="44.82145" lon="6.94352">
        <ele>1765.4</ele>
        <time>2023-02-16T08:40:08Z</time>
      </trkpt>
      <trkpt lat="44.82149" lon="6.94347">
        <ele>1765.7</ele>
        <time>2023-02-16T08:40:13Z</time>
      </trkpt>
      <trkpt lat="44.82156" lon="6.94338">
        <ele>1766</ele>
        <time>2023-02-16T08:40:22Z</time>
      </trkpt>
      <trkpt lat="44.82165" lon="6.94334">
        <ele>1767.7</ele>
        <time>2023-02-16T08:40:31Z</time>
      </trkpt>
      <trkpt lat="44.8217" lon="6.94333">
        <ele>1768.8</ele>
        <time>2023-02-16T08:40:35Z</time>
      </trkpt>
      <trkpt lat="44.82186" lon="6.94322">
        <ele>1768.9</ele>
        <time>2023-02-16T08:40:51Z</time>
      </trkpt>
      <trkpt lat="44.82198" lon="6.9431">
        <ele>1766.5</ele>
        <time>2023-02-16T08:41:05Z</time>
      </trkpt>
      <trkpt lat="44.82209" lon="6.94306">
        <ele>1766.8</ele>
        <time>2023-02-16T08:41:17Z</time>
      </trkpt>
      <trkpt lat="44.82216" lon="6.94304">
        <ele>1767.3</ele>
        <time>2023-02-16T08:41:30Z</time>
      </trkpt>
      <trkpt lat="44.82215" lon="6.94306">
        <ele>1767.9</ele>
        <time>2023-02-16T08:41:40Z</time>
      </trkpt>
      <trkpt lat="44.82215" lon="6.94306">
        <ele>1767.9</ele>
        <time>2023-02-16T08:41:42Z</time>
      </trkpt>
      <trkpt lat="44.82215" lon="6.94307">
        <ele>1768.3</ele>
        <time>2023-02-16T08:41:56Z</time>
      </trkpt>
      <trkpt lat="44.8222" lon="6.94311">
        <ele>1770.8</ele>
        <time>2023-02-16T08:42:10Z</time>
      </trkpt>
      <trkpt lat="44.82221" lon="6.94312">
        <ele>1771.3</ele>
        <time>2023-02-16T08:42:11Z</time>
      </trkpt>
      <trkpt lat="44.82225" lon="6.94301">
        <ele>1767.9</ele>
        <time>2023-02-16T08:42:23Z</time>
      </trkpt>
      <trkpt lat="44.82226" lon="6.943">
        <ele>1767.8</ele>
        <time>2023-02-16T08:42:25Z</time>
      </trkpt>
      <trkpt lat="44.82234" lon="6.94291">
        <ele>1766.5</ele>
        <time>2023-02-16T08:42:35Z</time>
      </trkpt>
      <trkpt lat="44.82236" lon="6.94289">
        <ele>1766.4</ele>
        <time>2023-02-16T08:42:44Z</time>
      </trkpt>
      <trkpt lat="44.82237" lon="6.94292">
        <ele>1767.6</ele>
        <time>2023-02-16T08:43:01Z</time>
      </trkpt>
      <trkpt lat="44.82238" lon="6.94291">
        <ele>1767.5</ele>
        <time>2023-02-16T08:43:18Z</time>
      </trkpt>
      <trkpt lat="44.82238" lon="6.94291">
        <ele>1767.5</ele>
        <time>2023-02-16T08:43:19Z</time>
      </trkpt>
      <trkpt lat="44.8224" lon="6.94287">
        <ele>1766.8</ele>
        <time>2023-02-16T08:43:26Z</time>
      </trkpt>
      <trkpt lat="44.82241" lon="6.94287">
        <ele>1767.1</ele>
        <time>2023-02-16T08:43:27Z</time>
      </trkpt>
      <trkpt lat="44.82251" lon="6.94274">
        <ele>1766.2</ele>
        <time>2023-02-16T08:43:39Z</time>
      </trkpt>
      <trkpt lat="44.82255" lon="6.9427">
        <ele>1766.2</ele>
        <time>2023-02-16T08:43:44Z</time>
      </trkpt>
      <trkpt lat="44.8226" lon="6.94266">
        <ele>1766.5</ele>
        <time>2023-02-16T08:43:50Z</time>
      </trkpt>
      <trkpt lat="44.82268" lon="6.94258">
        <ele>1766.5</ele>
        <time>2023-02-16T08:44:00Z</time>
      </trkpt>
      <trkpt lat="44.8227" lon="6.94256">
        <ele>1766.5</ele>
        <time>2023-02-16T08:44:02Z</time>
      </trkpt>
      <trkpt lat="44.82272" lon="6.94253">
        <ele>1766.2</ele>
        <time>2023-02-16T08:44:05Z</time>
      </trkpt>
      <trkpt lat="44.82282" lon="6.94247">
        <ele>1767</ele>
        <time>2023-02-16T08:44:14Z</time>
      </trkpt>
      <trkpt lat="44.82297" lon="6.94245">
        <ele>1769.8</ele>
        <time>2023-02-16T08:44:28Z</time>
      </trkpt>
      <trkpt lat="44.8231" lon="6.9424">
        <ele>1771.5</ele>
        <time>2023-02-16T08:44:40Z</time>
      </trkpt>
      <trkpt lat="44.82312" lon="6.94239">
        <ele>1771.7</ele>
        <time>2023-02-16T08:44:42Z</time>
      </trkpt>
      <trkpt lat="44.82317" lon="6.94231">
        <ele>1771.1</ele>
        <time>2023-02-16T08:44:50Z</time>
      </trkpt>
      <trkpt lat="44.82325" lon="6.94221">
        <ele>1771.3</ele>
        <time>2023-02-16T08:45:00Z</time>
      </trkpt>
      <trkpt lat="44.82327" lon="6.94218">
        <ele>1771.2</ele>
        <time>2023-02-16T08:45:03Z</time>
      </trkpt>
      <trkpt lat="44.8234" lon="6.9421">
        <ele>1773.5</ele>
        <time>2023-02-16T08:45:15Z</time>
      </trkpt>
      <trkpt lat="44.82343" lon="6.94206">
        <ele>1773.6</ele>
        <time>2023-02-16T08:45:19Z</time>
      </trkpt>
      <trkpt lat="44.82351" lon="6.94198">
        <ele>1774</ele>
        <time>2023-02-16T08:45:29Z</time>
      </trkpt>
      <trkpt lat="44.82356" lon="6.94195">
        <ele>1774.7</ele>
        <time>2023-02-16T08:45:34Z</time>
      </trkpt>
      <trkpt lat="44.82363" lon="6.94191">
        <ele>1775.4</ele>
        <time>2023-02-16T08:45:42Z</time>
      </trkpt>
      <trkpt lat="44.82373" lon="6.94184">
        <ele>1775.2</ele>
        <time>2023-02-16T08:45:54Z</time>
      </trkpt>
      <trkpt lat="44.82374" lon="6.94184">
        <ele>1775.4</ele>
        <time>2023-02-16T08:45:55Z</time>
      </trkpt>
      <trkpt lat="44.82378" lon="6.94182">
        <ele>1775.5</ele>
        <time>2023-02-16T08:46:04Z</time>
      </trkpt>
      <trkpt lat="44.8238" lon="6.94183">
        <ele>1776.2</ele>
        <time>2023-02-16T08:46:14Z</time>
      </trkpt>
      <trkpt lat="44.82382" lon="6.94183">
        <ele>1776.6</ele>
        <time>2023-02-16T08:46:16Z</time>
      </trkpt>
      <trkpt lat="44.82384" lon="6.94183">
        <ele>1777</ele>
        <time>2023-02-16T08:46:19Z</time>
      </trkpt>
      <trkpt lat="44.82388" lon="6.94182">
        <ele>1777.4</ele>
        <time>2023-02-16T08:46:23Z</time>
      </trkpt>
      <trkpt lat="44.82397" lon="6.94182">
        <ele>1778.2</ele>
        <time>2023-02-16T08:46:32Z</time>
      </trkpt>
      <trkpt lat="44.82402" lon="6.94183">
        <ele>1779</ele>
        <time>2023-02-16T08:46:36Z</time>
      </trkpt>
      <trkpt lat="44.82416" lon="6.94187">
        <ele>1782.2</ele>
        <time>2023-02-16T08:46:51Z</time>
      </trkpt>
      <trkpt lat="44.82422" lon="6.94186">
        <ele>1783.5</ele>
        <time>2023-02-16T08:46:57Z</time>
      </trkpt>
      <trkpt lat="44.82428" lon="6.94182">
        <ele>1783.7</ele>
        <time>2023-02-16T08:47:03Z</time>
      </trkpt>
      <trkpt lat="44.82436" lon="6.94166">
        <ele>1780.1</ele>
        <time>2023-02-16T08:47:14Z</time>
      </trkpt>
      <trkpt lat="44.82444" lon="6.94153">
        <ele>1777.9</ele>
        <time>2023-02-16T08:47:25Z</time>
      </trkpt>
      <trkpt lat="44.82457" lon="6.94145">
        <ele>1778</ele>
        <time>2023-02-16T08:47:38Z</time>
      </trkpt>
      <trkpt lat="44.82477" lon="6.94145">
        <ele>1782.4</ele>
        <time>2023-02-16T08:47:53Z</time>
      </trkpt>
      <trkpt lat="44.82486" lon="6.94149">
        <ele>1784.9</ele>
        <time>2023-02-16T08:48:00Z</time>
      </trkpt>
      <trkpt lat="44.8249" lon="6.9415">
        <ele>1785.6</ele>
        <time>2023-02-16T08:48:07Z</time>
      </trkpt>
      <trkpt lat="44.82491" lon="6.9415">
        <ele>1785.7</ele>
        <time>2023-02-16T08:48:08Z</time>
      </trkpt>
      <trkpt lat="44.82491" lon="6.94146">
        <ele>1783.8</ele>
        <time>2023-02-16T08:48:17Z</time>
      </trkpt>
      <trkpt lat="44.82494" lon="6.94147">
        <ele>1784.4</ele>
        <time>2023-02-16T08:48:22Z</time>
      </trkpt>
      <trkpt lat="44.82497" lon="6.94148">
        <ele>1785.1</ele>
        <time>2023-02-16T08:48:24Z</time>
      </trkpt>
      <trkpt lat="44.82506" lon="6.94151">
        <ele>1786.4</ele>
        <time>2023-02-16T08:48:33Z</time>
      </trkpt>
      <trkpt lat="44.82508" lon="6.94153">
        <ele>1787.2</ele>
        <time>2023-02-16T08:48:38Z</time>
      </trkpt>
      <trkpt lat="44.82513" lon="6.94156">
        <ele>1788.1</ele>
        <time>2023-02-16T08:48:49Z</time>
      </trkpt>
      <trkpt lat="44.82515" lon="6.94151">
        <ele>1786</ele>
        <time>2023-02-16T08:49:05Z</time>
      </trkpt>
      <trkpt lat="44.82516" lon="6.9415">
        <ele>1785.5</ele>
        <time>2023-02-16T08:49:23Z</time>
      </trkpt>
      <trkpt lat="44.82521" lon="6.94159">
        <ele>1788.8</ele>
        <time>2023-02-16T08:49:34Z</time>
      </trkpt>
      <trkpt lat="44.82522" lon="6.94162">
        <ele>1789.8</ele>
        <time>2023-02-16T08:49:36Z</time>
      </trkpt>
      <trkpt lat="44.82522" lon="6.94164">
        <ele>1790.6</ele>
        <time>2023-02-16T08:49:38Z</time>
      </trkpt>
      <trkpt lat="44.82525" lon="6.94171">
        <ele>1793.5</ele>
        <time>2023-02-16T08:49:46Z</time>
      </trkpt>
      <trkpt lat="44.82526" lon="6.94172">
        <ele>1793.9</ele>
        <time>2023-02-16T08:49:48Z</time>
      </trkpt>
      <trkpt lat="44.8253" lon="6.94169">
        <ele>1792.6</ele>
        <time>2023-02-16T08:49:53Z</time>
      </trkpt>
      <trkpt lat="44.82533" lon="6.94168">
        <ele>1792.6</ele>
        <time>2023-02-16T08:49:55Z</time>
      </trkpt>
      <trkpt lat="44.82535" lon="6.94166">
        <ele>1792.1</ele>
        <time>2023-02-16T08:49:58Z</time>
      </trkpt>
      <trkpt lat="44.82541" lon="6.9416">
        <ele>1790.9</ele>
        <time>2023-02-16T08:50:06Z</time>
      </trkpt>
      <trkpt lat="44.82545" lon="6.94157">
        <ele>1790.4</ele>
        <time>2023-02-16T08:50:11Z</time>
      </trkpt>
      <trkpt lat="44.82546" lon="6.94153">
        <ele>1789</ele>
        <time>2023-02-16T08:50:15Z</time>
      </trkpt>
      <trkpt lat="44.82554" lon="6.94147">
        <ele>1788</ele>
        <time>2023-02-16T08:50:24Z</time>
      </trkpt>
      <trkpt lat="44.82557" lon="6.94145">
        <ele>1787.7</ele>
        <time>2023-02-16T08:50:27Z</time>
      </trkpt>
      <trkpt lat="44.8256" lon="6.94143">
        <ele>1787.6</ele>
        <time>2023-02-16T08:50:30Z</time>
      </trkpt>
      <trkpt lat="44.82571" lon="6.94141">
        <ele>1789.2</ele>
        <time>2023-02-16T08:50:39Z</time>
      </trkpt>
      <trkpt lat="44.82579" lon="6.94144">
        <ele>1792.1</ele>
        <time>2023-02-16T08:50:45Z</time>
      </trkpt>
      <trkpt lat="44.82585" lon="6.94146">
        <ele>1793.9</ele>
        <time>2023-02-16T08:50:51Z</time>
      </trkpt>
      <trkpt lat="44.82589" lon="6.94147">
        <ele>1794.4</ele>
        <time>2023-02-16T08:50:54Z</time>
      </trkpt>
      <trkpt lat="44.82594" lon="6.9415">
        <ele>1795.8</ele>
        <time>2023-02-16T08:51:00Z</time>
      </trkpt>
      <trkpt lat="44.82601" lon="6.94151">
        <ele>1796.4</ele>
        <time>2023-02-16T08:51:06Z</time>
      </trkpt>
      <trkpt lat="44.82602" lon="6.94152">
        <ele>1796.9</ele>
        <time>2023-02-16T08:51:09Z</time>
      </trkpt>
      <trkpt lat="44.82612" lon="6.94153">
        <ele>1797.6</ele>
        <time>2023-02-16T08:51:17Z</time>
      </trkpt>
      <trkpt lat="44.82615" lon="6.94154">
        <ele>1797.8</ele>
        <time>2023-02-16T08:51:21Z</time>
      </trkpt>
      <trkpt lat="44.82621" lon="6.94157">
        <ele>1798.8</ele>
        <time>2023-02-16T08:51:26Z</time>
      </trkpt>
      <trkpt lat="44.82632" lon="6.9416">
        <ele>1799.6</ele>
        <time>2023-02-16T08:51:36Z</time>
      </trkpt>
      <trkpt lat="44.82634" lon="6.94161">
        <ele>1799.9</ele>
        <time>2023-02-16T08:51:38Z</time>
      </trkpt>
      <trkpt lat="44.82648" lon="6.94164">
        <ele>1801.6</ele>
        <time>2023-02-16T08:51:50Z</time>
      </trkpt>
      <trkpt lat="44.82654" lon="6.94166">
        <ele>1802.8</ele>
        <time>2023-02-16T08:51:55Z</time>
      </trkpt>
      <trkpt lat="44.82664" lon="6.94166">
        <ele>1803.6</ele>
        <time>2023-02-16T08:52:05Z</time>
      </trkpt>
      <trkpt lat="44.82669" lon="6.94164">
        <ele>1803.4</ele>
        <time>2023-02-16T08:52:11Z</time>
      </trkpt>
      <trkpt lat="44.82671" lon="6.94163">
        <ele>1803.4</ele>
        <time>2023-02-16T08:52:14Z</time>
      </trkpt>
      <trkpt lat="44.82674" lon="6.94161">
        <ele>1803.2</ele>
        <time>2023-02-16T08:52:17Z</time>
      </trkpt>
      <trkpt lat="44.82674" lon="6.94161">
        <ele>1803.2</ele>
        <time>2023-02-16T08:52:18Z</time>
      </trkpt>
      <trkpt lat="44.82686" lon="6.9415">
        <ele>1802</ele>
        <time>2023-02-16T08:52:30Z</time>
      </trkpt>
      <trkpt lat="44.82688" lon="6.94149">
        <ele>1802.2</ele>
        <time>2023-02-16T08:52:31Z</time>
      </trkpt>
      <trkpt lat="44.827" lon="6.94136">
        <ele>1801.8</ele>
        <time>2023-02-16T08:52:43Z</time>
      </trkpt>
      <trkpt lat="44.82706" lon="6.94128">
        <ele>1801.2</ele>
        <time>2023-02-16T08:52:55Z</time>
      </trkpt>
      <trkpt lat="44.82715" lon="6.94125">
        <ele>1802.9</ele>
        <time>2023-02-16T08:53:05Z</time>
      </trkpt>
      <trkpt lat="44.82717" lon="6.94126">
        <ele>1803.8</ele>
        <time>2023-02-16T08:53:07Z</time>
      </trkpt>
      <trkpt lat="44.82718" lon="6.94125">
        <ele>1803.8</ele>
        <time>2023-02-16T08:53:08Z</time>
      </trkpt>
      <trkpt lat="44.82726" lon="6.9412">
        <ele>1804.5</ele>
        <time>2023-02-16T08:53:19Z</time>
      </trkpt>
      <trkpt lat="44.82727" lon="6.9412">
        <ele>1804.8</ele>
        <time>2023-02-16T08:53:20Z</time>
      </trkpt>
      <trkpt lat="44.8273" lon="6.94122">
        <ele>1806.1</ele>
        <time>2023-02-16T08:53:31Z</time>
      </trkpt>
      <trkpt lat="44.82728" lon="6.94121">
        <ele>1805.3</ele>
        <time>2023-02-16T08:53:47Z</time>
      </trkpt>
      <trkpt lat="44.82728" lon="6.94122">
        <ele>1805.6</ele>
        <time>2023-02-16T08:54:08Z</time>
      </trkpt>
      <trkpt lat="44.82728" lon="6.94122">
        <ele>1805.6</ele>
        <time>2023-02-16T08:54:29Z</time>
      </trkpt>
      <trkpt lat="44.8273" lon="6.94125">
        <ele>1807</ele>
        <time>2023-02-16T08:54:50Z</time>
      </trkpt>
      <trkpt lat="44.8273" lon="6.94126">
        <ele>1807.2</ele>
        <time>2023-02-16T08:55:09Z</time>
      </trkpt>
      <trkpt lat="44.82731" lon="6.94125">
        <ele>1807.2</ele>
        <time>2023-02-16T08:55:31Z</time>
      </trkpt>
      <trkpt lat="44.82731" lon="6.94125">
        <ele>1807.2</ele>
        <time>2023-02-16T08:55:32Z</time>
      </trkpt>
      <trkpt lat="44.82733" lon="6.94123">
        <ele>1807.1</ele>
        <time>2023-02-16T08:55:44Z</time>
      </trkpt>
      <trkpt lat="44.82739" lon="6.94122">
        <ele>1808.4</ele>
        <time>2023-02-16T08:55:55Z</time>
      </trkpt>
      <trkpt lat="44.82745" lon="6.94113">
        <ele>1807.3</ele>
        <time>2023-02-16T08:56:08Z</time>
      </trkpt>
      <trkpt lat="44.82749" lon="6.94109">
        <ele>1807.1</ele>
        <time>2023-02-16T08:56:16Z</time>
      </trkpt>
      <trkpt lat="44.82753" lon="6.94106">
        <ele>1806.9</ele>
        <time>2023-02-16T08:56:23Z</time>
      </trkpt>
      <trkpt lat="44.82754" lon="6.94104">
        <ele>1806.4</ele>
        <time>2023-02-16T08:56:25Z</time>
      </trkpt>
      <trkpt lat="44.82763" lon="6.94102">
        <ele>1807.4</ele>
        <time>2023-02-16T08:56:35Z</time>
      </trkpt>
      <trkpt lat="44.82766" lon="6.94102">
        <ele>1807.9</ele>
        <time>2023-02-16T08:56:38Z</time>
      </trkpt>
      <trkpt lat="44.82767" lon="6.94102">
        <ele>1808.1</ele>
        <time>2023-02-16T08:56:39Z</time>
      </trkpt>
      <trkpt lat="44.82772" lon="6.94101">
        <ele>1808.7</ele>
        <time>2023-02-16T08:56:45Z</time>
      </trkpt>
      <trkpt lat="44.82782" lon="6.941">
        <ele>1810.1</ele>
        <time>2023-02-16T08:56:55Z</time>
      </trkpt>
      <trkpt lat="44.82782" lon="6.941">
        <ele>1810.1</ele>
        <time>2023-02-16T08:56:56Z</time>
      </trkpt>
      <trkpt lat="44.82787" lon="6.94099">
        <ele>1810.5</ele>
        <time>2023-02-16T08:57:03Z</time>
      </trkpt>
      <trkpt lat="44.82792" lon="6.94097">
        <ele>1810.7</ele>
        <time>2023-02-16T08:57:11Z</time>
      </trkpt>
      <trkpt lat="44.82793" lon="6.94096">
        <ele>1810.6</ele>
        <time>2023-02-16T08:57:12Z</time>
      </trkpt>
      <trkpt lat="44.82802" lon="6.94091">
        <ele>1810.6</ele>
        <time>2023-02-16T08:57:23Z</time>
      </trkpt>
      <trkpt lat="44.82806" lon="6.9409">
        <ele>1811</ele>
        <time>2023-02-16T08:57:27Z</time>
      </trkpt>
      <trkpt lat="44.82808" lon="6.94089">
        <ele>1811</ele>
        <time>2023-02-16T08:57:30Z</time>
      </trkpt>
      <trkpt lat="44.82819" lon="6.9409">
        <ele>1812.7</ele>
        <time>2023-02-16T08:57:37Z</time>
      </trkpt>
      <trkpt lat="44.82826" lon="6.94092">
        <ele>1814.2</ele>
        <time>2023-02-16T08:57:43Z</time>
      </trkpt>
      <trkpt lat="44.8283" lon="6.94094">
        <ele>1815.3</ele>
        <time>2023-02-16T08:57:52Z</time>
      </trkpt>
      <trkpt lat="44.82832" lon="6.94098">
        <ele>1816.5</ele>
        <time>2023-02-16T08:58:01Z</time>
      </trkpt>
      <trkpt lat="44.82833" lon="6.94098">
        <ele>1816.7</ele>
        <time>2023-02-16T08:58:03Z</time>
      </trkpt>
      <trkpt lat="44.82835" lon="6.94097">
        <ele>1816.4</ele>
        <time>2023-02-16T08:58:06Z</time>
      </trkpt>
      <trkpt lat="44.82838" lon="6.94096">
        <ele>1815.9</ele>
        <time>2023-02-16T08:58:09Z</time>
      </trkpt>
      <trkpt lat="44.82848" lon="6.94097">
        <ele>1815.6</ele>
        <time>2023-02-16T08:58:17Z</time>
      </trkpt>
      <trkpt lat="44.82851" lon="6.94094">
        <ele>1814.7</ele>
        <time>2023-02-16T08:58:24Z</time>
      </trkpt>
      <trkpt lat="44.82859" lon="6.94094">
        <ele>1814.2</ele>
        <time>2023-02-16T08:58:32Z</time>
      </trkpt>
      <trkpt lat="44.82866" lon="6.94096">
        <ele>1814.9</ele>
        <time>2023-02-16T08:58:41Z</time>
      </trkpt>
      <trkpt lat="44.82882" lon="6.94099">
        <ele>1816.7</ele>
        <time>2023-02-16T08:58:52Z</time>
      </trkpt>
      <trkpt lat="44.82897" lon="6.94097">
        <ele>1817.3</ele>
        <time>2023-02-16T08:58:59Z</time>
      </trkpt>
      <trkpt lat="44.82903" lon="6.94096">
        <ele>1817.6</ele>
        <time>2023-02-16T08:59:06Z</time>
      </trkpt>
      <trkpt lat="44.8291" lon="6.94095">
        <ele>1817.9</ele>
        <time>2023-02-16T08:59:14Z</time>
      </trkpt>
      <trkpt lat="44.82916" lon="6.94095">
        <ele>1818.6</ele>
        <time>2023-02-16T08:59:19Z</time>
      </trkpt>
      <trkpt lat="44.82923" lon="6.94094">
        <ele>1818.7</ele>
        <time>2023-02-16T08:59:21Z</time>
      </trkpt>
      <trkpt lat="44.82929" lon="6.94093">
        <ele>1818.7</ele>
        <time>2023-02-16T08:59:23Z</time>
      </trkpt>
      <trkpt lat="44.82936" lon="6.94092">
        <ele>1818.8</ele>
        <time>2023-02-16T08:59:28Z</time>
      </trkpt>
      <trkpt lat="44.82942" lon="6.94092">
        <ele>1819.3</ele>
        <time>2023-02-16T08:59:29Z</time>
      </trkpt>
      <trkpt lat="44.82948" lon="6.94091">
        <ele>1819.3</ele>
        <time>2023-02-16T08:59:31Z</time>
      </trkpt>
      <trkpt lat="44.82955" lon="6.9409">
        <ele>1819.4</ele>
        <time>2023-02-16T08:59:59Z</time>
      </trkpt>
      <trkpt lat="44.82961" lon="6.94089">
        <ele>1819.4</ele>
        <time>2023-02-16T09:00:17Z</time>
      </trkpt>
      <trkpt lat="44.82968" lon="6.94089">
        <ele>1819.9</ele>
        <time>2023-02-16T09:00:31Z</time>
      </trkpt>
      <trkpt lat="44.82974" lon="6.94088">
        <ele>1820</ele>
        <time>2023-02-16T09:00:42Z</time>
      </trkpt>
      <trkpt lat="44.82981" lon="6.94087">
        <ele>1820.1</ele>
        <time>2023-02-16T09:00:56Z</time>
      </trkpt>
      <trkpt lat="44.82987" lon="6.94086">
        <ele>1820.1</ele>
        <time>2023-02-16T09:01:00Z</time>
      </trkpt>
      <trkpt lat="44.82994" lon="6.94086">
        <ele>1820.6</ele>
        <time>2023-02-16T09:01:04Z</time>
      </trkpt>
      <trkpt lat="44.82996" lon="6.94087">
        <ele>1821.2</ele>
        <time>2023-02-16T09:01:05Z</time>
      </trkpt>
      <trkpt lat="44.83013" lon="6.94096">
        <ele>1825.7</ele>
        <time>2023-02-16T09:01:16Z</time>
      </trkpt>
      <trkpt lat="44.83024" lon="6.94092">
        <ele>1824.6</ele>
        <time>2023-02-16T09:01:23Z</time>
      </trkpt>
      <trkpt lat="44.83025" lon="6.94091">
        <ele>1824.2</ele>
        <time>2023-02-16T09:01:25Z</time>
      </trkpt>
      <trkpt lat="44.83033" lon="6.94093">
        <ele>1825.4</ele>
        <time>2023-02-16T09:01:31Z</time>
      </trkpt>
      <trkpt lat="44.83041" lon="6.94096">
        <ele>1827.2</ele>
        <time>2023-02-16T09:01:36Z</time>
      </trkpt>
      <trkpt lat="44.83044" lon="6.94096">
        <ele>1827.3</ele>
        <time>2023-02-16T09:01:38Z</time>
      </trkpt>
      <trkpt lat="44.83052" lon="6.94098">
        <ele>1828.7</ele>
        <time>2023-02-16T09:01:45Z</time>
      </trkpt>
      <trkpt lat="44.83053" lon="6.94097">
        <ele>1828.3</ele>
        <time>2023-02-16T09:01:46Z</time>
      </trkpt>
      <trkpt lat="44.83058" lon="6.94095">
        <ele>1827.7</ele>
        <time>2023-02-16T09:01:52Z</time>
      </trkpt>
      <trkpt lat="44.83061" lon="6.9409">
        <ele>1825.7</ele>
        <time>2023-02-16T09:01:58Z</time>
      </trkpt>
      <trkpt lat="44.83062" lon="6.9409">
        <ele>1825.8</ele>
        <time>2023-02-16T09:01:59Z</time>
      </trkpt>
      <trkpt lat="44.83064" lon="6.9409">
        <ele>1826</ele>
        <time>2023-02-16T09:02:02Z</time>
      </trkpt>
      <trkpt lat="44.83067" lon="6.94087">
        <ele>1825</ele>
        <time>2023-02-16T09:02:08Z</time>
      </trkpt>
      <trkpt lat="44.83074" lon="6.94088">
        <ele>1826.2</ele>
        <time>2023-02-16T09:02:16Z</time>
      </trkpt>
      <trkpt lat="44.83075" lon="6.94086">
        <ele>1825.3</ele>
        <time>2023-02-16T09:02:24Z</time>
      </trkpt>
      <trkpt lat="44.83077" lon="6.94085">
        <ele>1825.1</ele>
        <time>2023-02-16T09:02:29Z</time>
      </trkpt>
      <trkpt lat="44.83079" lon="6.94086">
        <ele>1825.8</ele>
        <time>2023-02-16T09:02:30Z</time>
      </trkpt>
      <trkpt lat="44.8309" lon="6.94089">
        <ele>1828.6</ele>
        <time>2023-02-16T09:02:39Z</time>
      </trkpt>
      <trkpt lat="44.83097" lon="6.94093">
        <ele>1831.3</ele>
        <time>2023-02-16T09:02:44Z</time>
      </trkpt>
      <trkpt lat="44.83098" lon="6.94094">
        <ele>1831.9</ele>
        <time>2023-02-16T09:02:45Z</time>
      </trkpt>
      <trkpt lat="44.83099" lon="6.94094">
        <ele>1832</ele>
        <time>2023-02-16T09:02:46Z</time>
      </trkpt>
      <trkpt lat="44.83105" lon="6.94091">
        <ele>1831.5</ele>
        <time>2023-02-16T09:02:54Z</time>
      </trkpt>
      <trkpt lat="44.8311" lon="6.94086">
        <ele>1830</ele>
        <time>2023-02-16T09:02:59Z</time>
      </trkpt>
      <trkpt lat="44.83115" lon="6.94087">
        <ele>1831.3</ele>
        <time>2023-02-16T09:03:01Z</time>
      </trkpt>
      <trkpt lat="44.83117" lon="6.94085">
        <ele>1830.8</ele>
        <time>2023-02-16T09:03:03Z</time>
      </trkpt>
      <trkpt lat="44.83123" lon="6.94082">
        <ele>1830.7</ele>
        <time>2023-02-16T09:03:08Z</time>
      </trkpt>
      <trkpt lat="44.83127" lon="6.94075">
        <ele>1828.9</ele>
        <time>2023-02-16T09:03:15Z</time>
      </trkpt>
      <trkpt lat="44.83127" lon="6.94075">
        <ele>1828.9</ele>
        <time>2023-02-16T09:03:56Z</time>
      </trkpt>
      <trkpt lat="44.83127" lon="6.94075">
        <ele>1828.9</ele>
        <time>2023-02-16T09:04:15Z</time>
      </trkpt>
      <trkpt lat="44.83127" lon="6.94075">
        <ele>1828.9</ele>
        <time>2023-02-16T09:04:26Z</time>
      </trkpt>
      <trkpt lat="44.83127" lon="6.94075">
        <ele>1828.9</ele>
        <time>2023-02-16T09:04:43Z</time>
      </trkpt>
      <trkpt lat="44.83225" lon="6.94048">
        <ele>1832.1</ele>
        <time>2023-02-16T09:04:54Z</time>
      </trkpt>
      <trkpt lat="44.83226" lon="6.94048">
        <ele>1832.3</ele>
        <time>2023-02-16T09:04:55Z</time>
      </trkpt>
      <trkpt lat="44.83232" lon="6.9405">
        <ele>1833.6</ele>
        <time>2023-02-16T09:04:59Z</time>
      </trkpt>
      <trkpt lat="44.83244" lon="6.94053">
        <ele>1836.2</ele>
        <time>2023-02-16T09:05:04Z</time>
      </trkpt>
      <trkpt lat="44.83256" lon="6.94053">
        <ele>1837</ele>
        <time>2023-02-16T09:05:13Z</time>
      </trkpt>
      <trkpt lat="44.83262" lon="6.94052">
        <ele>1836.6</ele>
        <time>2023-02-16T09:05:19Z</time>
      </trkpt>
      <trkpt lat="44.83265" lon="6.9405">
        <ele>1835.8</ele>
        <time>2023-02-16T09:05:23Z</time>
      </trkpt>
      <trkpt lat="44.83277" lon="6.94052">
        <ele>1836.6</ele>
        <time>2023-02-16T09:05:28Z</time>
      </trkpt>
      <trkpt lat="44.83281" lon="6.94051">
        <ele>1836</ele>
        <time>2023-02-16T09:05:31Z</time>
      </trkpt>
      <trkpt lat="44.83287" lon="6.94051">
        <ele>1835.6</ele>
        <time>2023-02-16T09:05:35Z</time>
      </trkpt>
      <trkpt lat="44.83292" lon="6.9405">
        <ele>1834.9</ele>
        <time>2023-02-16T09:05:41Z</time>
      </trkpt>
      <trkpt lat="44.83302" lon="6.94052">
        <ele>1835</ele>
        <time>2023-02-16T09:05:49Z</time>
      </trkpt>
      <trkpt lat="44.83306" lon="6.94053">
        <ele>1835</ele>
        <time>2023-02-16T09:05:52Z</time>
      </trkpt>
      <trkpt lat="44.83309" lon="6.94054">
        <ele>1835</ele>
        <time>2023-02-16T09:05:56Z</time>
      </trkpt>
      <trkpt lat="44.83313" lon="6.94053">
        <ele>1834</ele>
        <time>2023-02-16T09:06:04Z</time>
      </trkpt>
      <trkpt lat="44.83318" lon="6.94056">
        <ele>1834.4</ele>
        <time>2023-02-16T09:06:13Z</time>
      </trkpt>
      <trkpt lat="44.8332" lon="6.94059">
        <ele>1835.1</ele>
        <time>2023-02-16T09:06:18Z</time>
      </trkpt>
      <trkpt lat="44.83321" lon="6.9406">
        <ele>1835.3</ele>
        <time>2023-02-16T09:06:19Z</time>
      </trkpt>
      <trkpt lat="44.83323" lon="6.94062">
        <ele>1835.7</ele>
        <time>2023-02-16T09:06:22Z</time>
      </trkpt>
      <trkpt lat="44.83334" lon="6.9407">
        <ele>1836.6</ele>
        <time>2023-02-16T09:06:32Z</time>
      </trkpt>
      <trkpt lat="44.83334" lon="6.94071">
        <ele>1836.9</ele>
        <time>2023-02-16T09:06:33Z</time>
      </trkpt>
      <trkpt lat="44.83343" lon="6.94077">
        <ele>1837.6</ele>
        <time>2023-02-16T09:06:41Z</time>
      </trkpt>
      <trkpt lat="44.83356" lon="6.94084">
        <ele>1838</ele>
        <time>2023-02-16T09:06:51Z</time>
      </trkpt>
      <trkpt lat="44.83368" lon="6.94086">
        <ele>1837</ele>
        <time>2023-02-16T09:07:01Z</time>
      </trkpt>
      <trkpt lat="44.8337" lon="6.94087">
        <ele>1837.1</ele>
        <time>2023-02-16T09:07:02Z</time>
      </trkpt>
      <trkpt lat="44.8338" lon="6.94087">
        <ele>1835.7</ele>
        <time>2023-02-16T09:07:10Z</time>
      </trkpt>
      <trkpt lat="44.83387" lon="6.94087">
        <ele>1834.7</ele>
        <time>2023-02-16T09:07:17Z</time>
      </trkpt>
      <trkpt lat="44.83399" lon="6.94089">
        <ele>1834.7</ele>
        <time>2023-02-16T09:07:26Z</time>
      </trkpt>
      <trkpt lat="44.8341" lon="6.94089">
        <ele>1834</ele>
        <time>2023-02-16T09:07:35Z</time>
      </trkpt>
      <trkpt lat="44.83418" lon="6.94088">
        <ele>1833.4</ele>
        <time>2023-02-16T09:07:43Z</time>
      </trkpt>
      <trkpt lat="44.83431" lon="6.94087">
        <ele>1833.6</ele>
        <time>2023-02-16T09:07:53Z</time>
      </trkpt>
      <trkpt lat="44.83438" lon="6.94086">
        <ele>1833.5</ele>
        <time>2023-02-16T09:07:59Z</time>
      </trkpt>
      <trkpt lat="44.83446" lon="6.94086">
        <ele>1833.8</ele>
        <time>2023-02-16T09:08:07Z</time>
      </trkpt>
      <trkpt lat="44.83454" lon="6.94085">
        <ele>1833.5</ele>
        <time>2023-02-16T09:08:14Z</time>
      </trkpt>
      <trkpt lat="44.83465" lon="6.94085">
        <ele>1833.5</ele>
        <time>2023-02-16T09:08:23Z</time>
      </trkpt>
      <trkpt lat="44.83475" lon="6.94088">
        <ele>1834.6</ele>
        <time>2023-02-16T09:08:33Z</time>
      </trkpt>
      <trkpt lat="44.83484" lon="6.94091">
        <ele>1835.7</ele>
        <time>2023-02-16T09:08:40Z</time>
      </trkpt>
      <trkpt lat="44.83493" lon="6.94093">
        <ele>1836.4</ele>
        <time>2023-02-16T09:08:48Z</time>
      </trkpt>
      <trkpt lat="44.83502" lon="6.94096">
        <ele>1837.1</ele>
        <time>2023-02-16T09:08:56Z</time>
      </trkpt>
      <trkpt lat="44.83513" lon="6.941">
        <ele>1837.1</ele>
        <time>2023-02-16T09:09:05Z</time>
      </trkpt>
      <trkpt lat="44.83522" lon="6.94107">
        <ele>1837.3</ele>
        <time>2023-02-16T09:09:14Z</time>
      </trkpt>
      <trkpt lat="44.83528" lon="6.94113">
        <ele>1837.5</ele>
        <time>2023-02-16T09:09:21Z</time>
      </trkpt>
      <trkpt lat="44.83534" lon="6.94119">
        <ele>1838.8</ele>
        <time>2023-02-16T09:09:28Z</time>
      </trkpt>
      <trkpt lat="44.83539" lon="6.94124">
        <ele>1839.6</ele>
        <time>2023-02-16T09:09:35Z</time>
      </trkpt>
      <trkpt lat="44.8354" lon="6.94125">
        <ele>1839.7</ele>
        <time>2023-02-16T09:09:36Z</time>
      </trkpt>
      <trkpt lat="44.83545" lon="6.94128">
        <ele>1839.7</ele>
        <time>2023-02-16T09:09:42Z</time>
      </trkpt>
      <trkpt lat="44.83548" lon="6.9413">
        <ele>1839.7</ele>
        <time>2023-02-16T09:09:46Z</time>
      </trkpt>
      <trkpt lat="44.83549" lon="6.94133">
        <ele>1840.1</ele>
        <time>2023-02-16T09:09:49Z</time>
      </trkpt>
      <trkpt lat="44.83552" lon="6.94137">
        <ele>1840.3</ele>
        <time>2023-02-16T09:09:54Z</time>
      </trkpt>
      <trkpt lat="44.83554" lon="6.9414">
        <ele>1840.5</ele>
        <time>2023-02-16T09:09:57Z</time>
      </trkpt>
      <trkpt lat="44.83558" lon="6.94146">
        <ele>1841.6</ele>
        <time>2023-02-16T09:10:03Z</time>
      </trkpt>
      <trkpt lat="44.8356" lon="6.9415">
        <ele>1842.4</ele>
        <time>2023-02-16T09:10:07Z</time>
      </trkpt>
      <trkpt lat="44.83566" lon="6.94155">
        <ele>1843.1</ele>
        <time>2023-02-16T09:10:15Z</time>
      </trkpt>
      <trkpt lat="44.83566" lon="6.94156">
        <ele>1843.3</ele>
        <time>2023-02-16T09:10:16Z</time>
      </trkpt>
      <trkpt lat="44.83567" lon="6.94157">
        <ele>1843.4</ele>
        <time>2023-02-16T09:10:17Z</time>
      </trkpt>
      <trkpt lat="44.83571" lon="6.94157">
        <ele>1843.2</ele>
        <time>2023-02-16T09:10:23Z</time>
      </trkpt>
      <trkpt lat="44.83572" lon="6.94158">
        <ele>1843.3</ele>
        <time>2023-02-16T09:10:34Z</time>
      </trkpt>
      <trkpt lat="44.83575" lon="6.9416">
        <ele>1843.3</ele>
        <time>2023-02-16T09:10:50Z</time>
      </trkpt>
      <trkpt lat="44.83575" lon="6.94159">
        <ele>1843.2</ele>
        <time>2023-02-16T09:10:55Z</time>
      </trkpt>
      <trkpt lat="44.8357" lon="6.9416">
        <ele>1843.6</ele>
        <time>2023-02-16T09:11:07Z</time>
      </trkpt>
      <trkpt lat="44.83573" lon="6.94155">
        <ele>1842.9</ele>
        <time>2023-02-16T09:11:26Z</time>
      </trkpt>
      <trkpt lat="44.83574" lon="6.94154">
        <ele>1842.8</ele>
        <time>2023-02-16T09:11:30Z</time>
      </trkpt>
      <trkpt lat="44.83575" lon="6.94152">
        <ele>1842.6</ele>
        <time>2023-02-16T09:11:35Z</time>
      </trkpt>
      <trkpt lat="44.83581" lon="6.94144">
        <ele>1842.1</ele>
        <time>2023-02-16T09:11:47Z</time>
      </trkpt>
      <trkpt lat="44.83582" lon="6.94143">
        <ele>1842.1</ele>
        <time>2023-02-16T09:11:48Z</time>
      </trkpt>
      <trkpt lat="44.83584" lon="6.94143">
        <ele>1842.3</ele>
        <time>2023-02-16T09:11:50Z</time>
      </trkpt>
      <trkpt lat="44.83586" lon="6.94145">
        <ele>1843</ele>
        <time>2023-02-16T09:11:53Z</time>
      </trkpt>
      <trkpt lat="44.83588" lon="6.94146">
        <ele>1843.6</ele>
        <time>2023-02-16T09:11:55Z</time>
      </trkpt>
      <trkpt lat="44.8359" lon="6.9415">
        <ele>1844.2</ele>
        <time>2023-02-16T09:12:01Z</time>
      </trkpt>
      <trkpt lat="44.83591" lon="6.94153">
        <ele>1844.4</ele>
        <time>2023-02-16T09:12:05Z</time>
      </trkpt>
      <trkpt lat="44.83593" lon="6.94155">
        <ele>1844.9</ele>
        <time>2023-02-16T09:12:08Z</time>
      </trkpt>
      <trkpt lat="44.83594" lon="6.94156">
        <ele>1845.1</ele>
        <time>2023-02-16T09:12:09Z</time>
      </trkpt>
      <trkpt lat="44.83595" lon="6.94159">
        <ele>1845.3</ele>
        <time>2023-02-16T09:12:13Z</time>
      </trkpt>
      <trkpt lat="44.83598" lon="6.94162">
        <ele>1845.8</ele>
        <time>2023-02-16T09:12:19Z</time>
      </trkpt>
      <trkpt lat="44.83601" lon="6.94165">
        <ele>1846.3</ele>
        <time>2023-02-16T09:12:25Z</time>
      </trkpt>
      <trkpt lat="44.83601" lon="6.94166">
        <ele>1846.2</ele>
        <time>2023-02-16T09:12:26Z</time>
      </trkpt>
      <trkpt lat="44.83603" lon="6.94165">
        <ele>1846.6</ele>
        <time>2023-02-16T09:12:29Z</time>
      </trkpt>
      <trkpt lat="44.83607" lon="6.9416">
        <ele>1847.8</ele>
        <time>2023-02-16T09:12:40Z</time>
      </trkpt>
      <trkpt lat="44.83605" lon="6.94158">
        <ele>1847.6</ele>
        <time>2023-02-16T09:12:46Z</time>
      </trkpt>
      <trkpt lat="44.83605" lon="6.94155">
        <ele>1847.8</ele>
        <time>2023-02-16T09:12:51Z</time>
      </trkpt>
      <trkpt lat="44.83606" lon="6.94154">
        <ele>1848.1</ele>
        <time>2023-02-16T09:12:52Z</time>
      </trkpt>
      <trkpt lat="44.83608" lon="6.94146">
        <ele>1849.3</ele>
        <time>2023-02-16T09:13:00Z</time>
      </trkpt>
      <trkpt lat="44.83609" lon="6.94146">
        <ele>1849.6</ele>
        <time>2023-02-16T09:13:01Z</time>
      </trkpt>
      <trkpt lat="44.8361" lon="6.94149">
        <ele>1849.6</ele>
        <time>2023-02-16T09:13:06Z</time>
      </trkpt>
      <trkpt lat="44.83611" lon="6.94151">
        <ele>1849.7</ele>
        <time>2023-02-16T09:13:10Z</time>
      </trkpt>
      <trkpt lat="44.83613" lon="6.94158">
        <ele>1849.6</ele>
        <time>2023-02-16T09:13:17Z</time>
      </trkpt>
      <trkpt lat="44.83617" lon="6.94161">
        <ele>1850.8</ele>
        <time>2023-02-16T09:13:25Z</time>
      </trkpt>
      <trkpt lat="44.83617" lon="6.94162">
        <ele>1850.7</ele>
        <time>2023-02-16T09:13:27Z</time>
      </trkpt>
      <trkpt lat="44.83618" lon="6.94167">
        <ele>1850.5</ele>
        <time>2023-02-16T09:13:36Z</time>
      </trkpt>
      <trkpt lat="44.83618" lon="6.9417">
        <ele>1850.5</ele>
        <time>2023-02-16T09:13:38Z</time>
      </trkpt>
      <trkpt lat="44.83619" lon="6.94179">
        <ele>1850.8</ele>
        <time>2023-02-16T09:13:46Z</time>
      </trkpt>
      <trkpt lat="44.83621" lon="6.94184">
        <ele>1851.6</ele>
        <time>2023-02-16T09:13:51Z</time>
      </trkpt>
      <trkpt lat="44.83623" lon="6.94192">
        <ele>1852.3</ele>
        <time>2023-02-16T09:13:58Z</time>
      </trkpt>
      <trkpt lat="44.83626" lon="6.94207">
        <ele>1853.8</ele>
        <time>2023-02-16T09:14:11Z</time>
      </trkpt>
      <trkpt lat="44.83626" lon="6.94212">
        <ele>1854</ele>
        <time>2023-02-16T09:14:16Z</time>
      </trkpt>
      <trkpt lat="44.83628" lon="6.9422">
        <ele>1855.2</ele>
        <time>2023-02-16T09:14:24Z</time>
      </trkpt>
      <trkpt lat="44.83628" lon="6.94221">
        <ele>1855.2</ele>
        <time>2023-02-16T09:14:25Z</time>
      </trkpt>
      <trkpt lat="44.83628" lon="6.94228">
        <ele>1856</ele>
        <time>2023-02-16T09:14:31Z</time>
      </trkpt>
      <trkpt lat="44.83627" lon="6.94234">
        <ele>1856.3</ele>
        <time>2023-02-16T09:14:36Z</time>
      </trkpt>
      <trkpt lat="44.83627" lon="6.94243">
        <ele>1857.4</ele>
        <time>2023-02-16T09:14:46Z</time>
      </trkpt>
      <trkpt lat="44.83627" lon="6.94245">
        <ele>1857.7</ele>
        <time>2023-02-16T09:14:47Z</time>
      </trkpt>
      <trkpt lat="44.83627" lon="6.94247">
        <ele>1857.9</ele>
        <time>2023-02-16T09:14:49Z</time>
      </trkpt>
      <trkpt lat="44.83628" lon="6.94251">
        <ele>1858.8</ele>
        <time>2023-02-16T09:14:53Z</time>
      </trkpt>
      <trkpt lat="44.83628" lon="6.94258">
        <ele>1859.5</ele>
        <time>2023-02-16T09:15:00Z</time>
      </trkpt>
      <trkpt lat="44.83629" lon="6.94271">
        <ele>1861.1</ele>
        <time>2023-02-16T09:15:11Z</time>
      </trkpt>
      <trkpt lat="44.83628" lon="6.94274">
        <ele>1861.1</ele>
        <time>2023-02-16T09:15:14Z</time>
      </trkpt>
      <trkpt lat="44.83628" lon="6.94279">
        <ele>1861.6</ele>
        <time>2023-02-16T09:15:21Z</time>
      </trkpt>
      <trkpt lat="44.83629" lon="6.94279">
        <ele>1862</ele>
        <time>2023-02-16T09:15:22Z</time>
      </trkpt>
      <trkpt lat="44.83629" lon="6.94284">
        <ele>1862.6</ele>
        <time>2023-02-16T09:15:27Z</time>
      </trkpt>
      <trkpt lat="44.8363" lon="6.94287">
        <ele>1863.3</ele>
        <time>2023-02-16T09:15:30Z</time>
      </trkpt>
      <trkpt lat="44.8363" lon="6.9429">
        <ele>1863.7</ele>
        <time>2023-02-16T09:15:32Z</time>
      </trkpt>
      <trkpt lat="44.83629" lon="6.94297">
        <ele>1864.4</ele>
        <time>2023-02-16T09:15:39Z</time>
      </trkpt>
      <trkpt lat="44.8363" lon="6.943">
        <ele>1865</ele>
        <time>2023-02-16T09:15:44Z</time>
      </trkpt>
      <trkpt lat="44.8363" lon="6.94304">
        <ele>1865.6</ele>
        <time>2023-02-16T09:15:49Z</time>
      </trkpt>
      <trkpt lat="44.8363" lon="6.94308">
        <ele>1866</ele>
        <time>2023-02-16T09:15:52Z</time>
      </trkpt>
      <trkpt lat="44.83631" lon="6.9431">
        <ele>1866.4</ele>
        <time>2023-02-16T09:15:55Z</time>
      </trkpt>
      <trkpt lat="44.83631" lon="6.94318">
        <ele>1867.2</ele>
        <time>2023-02-16T09:16:03Z</time>
      </trkpt>
      <trkpt lat="44.8363" lon="6.94322">
        <ele>1867.3</ele>
        <time>2023-02-16T09:16:09Z</time>
      </trkpt>
      <trkpt lat="44.83628" lon="6.94326">
        <ele>1867.2</ele>
        <time>2023-02-16T09:16:14Z</time>
      </trkpt>
      <trkpt lat="44.83628" lon="6.94327">
        <ele>1867.3</ele>
        <time>2023-02-16T09:16:17Z</time>
      </trkpt>
      <trkpt lat="44.83628" lon="6.94333">
        <ele>1867.8</ele>
        <time>2023-02-16T09:16:25Z</time>
      </trkpt>
      <trkpt lat="44.83629" lon="6.94335">
        <ele>1868.4</ele>
        <time>2023-02-16T09:16:27Z</time>
      </trkpt>
      <trkpt lat="44.83629" lon="6.94339">
        <ele>1868.9</ele>
        <time>2023-02-16T09:16:32Z</time>
      </trkpt>
      <trkpt lat="44.83629" lon="6.94342">
        <ele>1869.3</ele>
        <time>2023-02-16T09:16:35Z</time>
      </trkpt>
      <trkpt lat="44.83629" lon="6.94342">
        <ele>1869.3</ele>
        <time>2023-02-16T09:16:36Z</time>
      </trkpt>
      <trkpt lat="44.83631" lon="6.9435">
        <ele>1871</ele>
        <time>2023-02-16T09:16:45Z</time>
      </trkpt>
      <trkpt lat="44.83631" lon="6.94351">
        <ele>1871.1</ele>
        <time>2023-02-16T09:16:47Z</time>
      </trkpt>
      <trkpt lat="44.83631" lon="6.94352">
        <ele>1871.2</ele>
        <time>2023-02-16T09:16:48Z</time>
      </trkpt>
      <trkpt lat="44.83633" lon="6.94359">
        <ele>1872.8</ele>
        <time>2023-02-16T09:16:58Z</time>
      </trkpt>
      <trkpt lat="44.83633" lon="6.94361">
        <ele>1873.1</ele>
        <time>2023-02-16T09:17:01Z</time>
      </trkpt>
      <trkpt lat="44.83634" lon="6.94367">
        <ele>1873.8</ele>
        <time>2023-02-16T09:17:08Z</time>
      </trkpt>
      <trkpt lat="44.83632" lon="6.94369">
        <ele>1873.3</ele>
        <time>2023-02-16T09:17:18Z</time>
      </trkpt>
      <trkpt lat="44.83632" lon="6.94373">
        <ele>1873.6</ele>
        <time>2023-02-16T09:17:25Z</time>
      </trkpt>
      <trkpt lat="44.83633" lon="6.94375">
        <ele>1874.1</ele>
        <time>2023-02-16T09:17:28Z</time>
      </trkpt>
      <trkpt lat="44.83635" lon="6.94383">
        <ele>1875.3</ele>
        <time>2023-02-16T09:17:36Z</time>
      </trkpt>
      <trkpt lat="44.83635" lon="6.94384">
        <ele>1875.4</ele>
        <time>2023-02-16T09:17:38Z</time>
      </trkpt>
      <trkpt lat="44.83635" lon="6.94386">
        <ele>1875.5</ele>
        <time>2023-02-16T09:17:41Z</time>
      </trkpt>
      <trkpt lat="44.83635" lon="6.94389">
        <ele>1875.8</ele>
        <time>2023-02-16T09:17:48Z</time>
      </trkpt>
      <trkpt lat="44.83635" lon="6.9439">
        <ele>1875.9</ele>
        <time>2023-02-16T09:17:49Z</time>
      </trkpt>
      <trkpt lat="44.83634" lon="6.94393">
        <ele>1875.9</ele>
        <time>2023-02-16T09:18:00Z</time>
      </trkpt>
      <trkpt lat="44.83634" lon="6.94395">
        <ele>1876.1</ele>
        <time>2023-02-16T09:18:10Z</time>
      </trkpt>
      <trkpt lat="44.83635" lon="6.94398">
        <ele>1876.8</ele>
        <time>2023-02-16T09:18:20Z</time>
      </trkpt>
      <trkpt lat="44.83635" lon="6.94398">
        <ele>1876.8</ele>
        <time>2023-02-16T09:18:22Z</time>
      </trkpt>
      <trkpt lat="44.83636" lon="6.94399">
        <ele>1877.2</ele>
        <time>2023-02-16T09:18:33Z</time>
      </trkpt>
      <trkpt lat="44.83636" lon="6.94399">
        <ele>1877.2</ele>
        <time>2023-02-16T09:18:34Z</time>
      </trkpt>
      <trkpt lat="44.83635" lon="6.944">
        <ele>1877</ele>
        <time>2023-02-16T09:18:47Z</time>
      </trkpt>
      <trkpt lat="44.83636" lon="6.94403">
        <ele>1877.6</ele>
        <time>2023-02-16T09:18:59Z</time>
      </trkpt>
      <trkpt lat="44.83637" lon="6.94406">
        <ele>1878.3</ele>
        <time>2023-02-16T09:19:04Z</time>
      </trkpt>
      <trkpt lat="44.83637" lon="6.94409">
        <ele>1878.6</ele>
        <time>2023-02-16T09:19:10Z</time>
      </trkpt>
      <trkpt lat="44.83637" lon="6.9441">
        <ele>1878.7</ele>
        <time>2023-02-16T09:19:14Z</time>
      </trkpt>
      <trkpt lat="44.83637" lon="6.94412">
        <ele>1878.9</ele>
        <time>2023-02-16T09:19:21Z</time>
      </trkpt>
      <trkpt lat="44.83636" lon="6.94413">
        <ele>1878.8</ele>
        <time>2023-02-16T09:19:23Z</time>
      </trkpt>
      <trkpt lat="44.83636" lon="6.94421">
        <ele>1879.6</ele>
        <time>2023-02-16T09:19:31Z</time>
      </trkpt>
      <trkpt lat="44.83635" lon="6.94423">
        <ele>1879.6</ele>
        <time>2023-02-16T09:19:40Z</time>
      </trkpt>
      <trkpt lat="44.83635" lon="6.94424">
        <ele>1879.7</ele>
        <time>2023-02-16T09:19:42Z</time>
      </trkpt>
      <trkpt lat="44.83635" lon="6.94431">
        <ele>1880.4</ele>
        <time>2023-02-16T09:19:52Z</time>
      </trkpt>
      <trkpt lat="44.83634" lon="6.9444">
        <ele>1881.1</ele>
        <time>2023-02-16T09:20:02Z</time>
      </trkpt>
      <trkpt lat="44.83634" lon="6.94442">
        <ele>1881.3</ele>
        <time>2023-02-16T09:20:06Z</time>
      </trkpt>
      <trkpt lat="44.83634" lon="6.94445">
        <ele>1881.7</ele>
        <time>2023-02-16T09:20:10Z</time>
      </trkpt>
      <trkpt lat="44.83634" lon="6.94445">
        <ele>1881.7</ele>
        <time>2023-02-16T09:20:11Z</time>
      </trkpt>
      <trkpt lat="44.83633" lon="6.94448">
        <ele>1881.8</ele>
        <time>2023-02-16T09:20:18Z</time>
      </trkpt>
      <trkpt lat="44.83633" lon="6.94449">
        <ele>1882</ele>
        <time>2023-02-16T09:20:24Z</time>
      </trkpt>
      <trkpt lat="44.83633" lon="6.94449">
        <ele>1882</ele>
        <time>2023-02-16T09:20:28Z</time>
      </trkpt>
      <trkpt lat="44.83634" lon="6.94449">
        <ele>1882.2</ele>
        <time>2023-02-16T09:20:35Z</time>
      </trkpt>
      <trkpt lat="44.83637" lon="6.94447">
        <ele>1882.8</ele>
        <time>2023-02-16T09:20:45Z</time>
      </trkpt>
      <trkpt lat="44.83639" lon="6.94444">
        <ele>1883</ele>
        <time>2023-02-16T09:20:53Z</time>
      </trkpt>
      <trkpt lat="44.83642" lon="6.9444">
        <ele>1884.3</ele>
        <time>2023-02-16T09:21:02Z</time>
      </trkpt>
      <trkpt lat="44.83647" lon="6.94437">
        <ele>1886.9</ele>
        <time>2023-02-16T09:21:13Z</time>
      </trkpt>
      <trkpt lat="44.83649" lon="6.94435">
        <ele>1887.8</ele>
        <time>2023-02-16T09:21:23Z</time>
      </trkpt>
      <trkpt lat="44.83649" lon="6.94435">
        <ele>1887.8</ele>
        <time>2023-02-16T09:21:26Z</time>
      </trkpt>
      <trkpt lat="44.8365" lon="6.94432">
        <ele>1888.1</ele>
        <time>2023-02-16T09:21:35Z</time>
      </trkpt>
      <trkpt lat="44.83653" lon="6.94427">
        <ele>1889.2</ele>
        <time>2023-02-16T09:21:43Z</time>
      </trkpt>
      <trkpt lat="44.83654" lon="6.94426">
        <ele>1889.7</ele>
        <time>2023-02-16T09:21:45Z</time>
      </trkpt>
      <trkpt lat="44.83656" lon="6.94426">
        <ele>1890.9</ele>
        <time>2023-02-16T09:21:48Z</time>
      </trkpt>
      <trkpt lat="44.83658" lon="6.94429">
        <ele>1892.3</ele>
        <time>2023-02-16T09:21:53Z</time>
      </trkpt>
      <trkpt lat="44.83658" lon="6.94436">
        <ele>1893.1</ele>
        <time>2023-02-16T09:22:01Z</time>
      </trkpt>
      <trkpt lat="44.83658" lon="6.94439">
        <ele>1893.4</ele>
        <time>2023-02-16T09:22:04Z</time>
      </trkpt>
      <trkpt lat="44.83659" lon="6.94441">
        <ele>1894.2</ele>
        <time>2023-02-16T09:22:06Z</time>
      </trkpt>
      <trkpt lat="44.83659" lon="6.94444">
        <ele>1894.5</ele>
        <time>2023-02-16T09:22:12Z</time>
      </trkpt>
      <trkpt lat="44.83659" lon="6.94443">
        <ele>1894.4</ele>
        <time>2023-02-16T09:22:13Z</time>
      </trkpt>
      <trkpt lat="44.83661" lon="6.9444">
        <ele>1895.3</ele>
        <time>2023-02-16T09:22:21Z</time>
      </trkpt>
      <trkpt lat="44.83664" lon="6.94441">
        <ele>1897.1</ele>
        <time>2023-02-16T09:22:26Z</time>
      </trkpt>
      <trkpt lat="44.83663" lon="6.94444">
        <ele>1896.8</ele>
        <time>2023-02-16T09:22:29Z</time>
      </trkpt>
      <trkpt lat="44.83663" lon="6.94445">
        <ele>1897</ele>
        <time>2023-02-16T09:22:30Z</time>
      </trkpt>
      <trkpt lat="44.83662" lon="6.94453">
        <ele>1897.5</ele>
        <time>2023-02-16T09:22:38Z</time>
      </trkpt>
      <trkpt lat="44.83662" lon="6.94456">
        <ele>1898</ele>
        <time>2023-02-16T09:22:40Z</time>
      </trkpt>
      <trkpt lat="44.83662" lon="6.94458">
        <ele>1898.3</ele>
        <time>2023-02-16T09:22:42Z</time>
      </trkpt>
      <trkpt lat="44.8366" lon="6.94463">
        <ele>1897.8</ele>
        <time>2023-02-16T09:22:49Z</time>
      </trkpt>
      <trkpt lat="44.83661" lon="6.94467">
        <ele>1899</ele>
        <time>2023-02-16T09:22:55Z</time>
      </trkpt>
      <trkpt lat="44.83661" lon="6.94469">
        <ele>1899.3</ele>
        <time>2023-02-16T09:22:57Z</time>
      </trkpt>
      <trkpt lat="44.83661" lon="6.9447">
        <ele>1899.4</ele>
        <time>2023-02-16T09:22:58Z</time>
      </trkpt>
      <trkpt lat="44.83662" lon="6.94471">
        <ele>1900.1</ele>
        <time>2023-02-16T09:23:00Z</time>
      </trkpt>
      <trkpt lat="44.83665" lon="6.94472">
        <ele>1902</ele>
        <time>2023-02-16T09:23:05Z</time>
      </trkpt>
      <trkpt lat="44.83666" lon="6.94471">
        <ele>1902.4</ele>
        <time>2023-02-16T09:23:06Z</time>
      </trkpt>
      <trkpt lat="44.83671" lon="6.94469">
        <ele>1904.4</ele>
        <time>2023-02-16T09:23:13Z</time>
      </trkpt>
      <trkpt lat="44.83672" lon="6.9447">
        <ele>1905</ele>
        <time>2023-02-16T09:23:16Z</time>
      </trkpt>
      <trkpt lat="44.83673" lon="6.94472">
        <ele>1905.7</ele>
        <time>2023-02-16T09:23:18Z</time>
      </trkpt>
      <trkpt lat="44.83673" lon="6.9448">
        <ele>1907</ele>
        <time>2023-02-16T09:23:24Z</time>
      </trkpt>
      <trkpt lat="44.83671" lon="6.94491">
        <ele>1907.8</ele>
        <time>2023-02-16T09:23:32Z</time>
      </trkpt>
      <trkpt lat="44.83671" lon="6.94495">
        <ele>1908.4</ele>
        <time>2023-02-16T09:23:35Z</time>
      </trkpt>
      <trkpt lat="44.8367" lon="6.94499">
        <ele>1908.5</ele>
        <time>2023-02-16T09:23:38Z</time>
      </trkpt>
      <trkpt lat="44.83668" lon="6.94506">
        <ele>1908.5</ele>
        <time>2023-02-16T09:23:44Z</time>
      </trkpt>
      <trkpt lat="44.83668" lon="6.94513">
        <ele>1909.6</ele>
        <time>2023-02-16T09:23:49Z</time>
      </trkpt>
      <trkpt lat="44.83668" lon="6.94514">
        <ele>1909.7</ele>
        <time>2023-02-16T09:23:50Z</time>
      </trkpt>
      <trkpt lat="44.83668" lon="6.94519">
        <ele>1910.4</ele>
        <time>2023-02-16T09:23:55Z</time>
      </trkpt>
      <trkpt lat="44.83667" lon="6.94526">
        <ele>1910.9</ele>
        <time>2023-02-16T09:24:01Z</time>
      </trkpt>
      <trkpt lat="44.83667" lon="6.94529">
        <ele>1911.3</ele>
        <time>2023-02-16T09:24:03Z</time>
      </trkpt>
      <trkpt lat="44.83665" lon="6.94538">
        <ele>1911.2</ele>
        <time>2023-02-16T09:24:12Z</time>
      </trkpt>
      <trkpt lat="44.83665" lon="6.94539">
        <ele>1911.3</ele>
        <time>2023-02-16T09:24:13Z</time>
      </trkpt>
      <trkpt lat="44.83665" lon="6.94543">
        <ele>1911.7</ele>
        <time>2023-02-16T09:24:16Z</time>
      </trkpt>
      <trkpt lat="44.83665" lon="6.94554">
        <ele>1912.9</ele>
        <time>2023-02-16T09:24:23Z</time>
      </trkpt>
      <trkpt lat="44.83666" lon="6.94566">
        <ele>1914.4</ele>
        <time>2023-02-16T09:24:31Z</time>
      </trkpt>
      <trkpt lat="44.83666" lon="6.94572">
        <ele>1914.9</ele>
        <time>2023-02-16T09:24:35Z</time>
      </trkpt>
      <trkpt lat="44.83666" lon="6.94575">
        <ele>1915.1</ele>
        <time>2023-02-16T09:24:38Z</time>
      </trkpt>
      <trkpt lat="44.83667" lon="6.94585">
        <ele>1916.4</ele>
        <time>2023-02-16T09:24:46Z</time>
      </trkpt>
      <trkpt lat="44.83667" lon="6.94586">
        <ele>1916.6</ele>
        <time>2023-02-16T09:24:47Z</time>
      </trkpt>
      <trkpt lat="44.83667" lon="6.94592">
        <ele>1917.4</ele>
        <time>2023-02-16T09:24:53Z</time>
      </trkpt>
      <trkpt lat="44.83667" lon="6.94595">
        <ele>1917.8</ele>
        <time>2023-02-16T09:24:55Z</time>
      </trkpt>
      <trkpt lat="44.83667" lon="6.94601">
        <ele>1918.7</ele>
        <time>2023-02-16T09:25:00Z</time>
      </trkpt>
      <trkpt lat="44.83666" lon="6.94605">
        <ele>1918.8</ele>
        <time>2023-02-16T09:25:03Z</time>
      </trkpt>
      <trkpt lat="44.83664" lon="6.94613">
        <ele>1919.1</ele>
        <time>2023-02-16T09:25:10Z</time>
      </trkpt>
      <trkpt lat="44.83664" lon="6.94614">
        <ele>1919.3</ele>
        <time>2023-02-16T09:25:11Z</time>
      </trkpt>
      <trkpt lat="44.83663" lon="6.94619">
        <ele>1919.6</ele>
        <time>2023-02-16T09:25:16Z</time>
      </trkpt>
      <trkpt lat="44.83663" lon="6.94626">
        <ele>1920.6</ele>
        <time>2023-02-16T09:25:23Z</time>
      </trkpt>
      <trkpt lat="44.83663" lon="6.94627">
        <ele>1920.8</ele>
        <time>2023-02-16T09:25:24Z</time>
      </trkpt>
      <trkpt lat="44.83663" lon="6.94631">
        <ele>1921.4</ele>
        <time>2023-02-16T09:25:28Z</time>
      </trkpt>
      <trkpt lat="44.83664" lon="6.94634">
        <ele>1922.2</ele>
        <time>2023-02-16T09:25:31Z</time>
      </trkpt>
      <trkpt lat="44.83664" lon="6.94639">
        <ele>1923</ele>
        <time>2023-02-16T09:25:35Z</time>
      </trkpt>
      <trkpt lat="44.83664" lon="6.94642">
        <ele>1923.4</ele>
        <time>2023-02-16T09:25:38Z</time>
      </trkpt>
      <trkpt lat="44.83664" lon="6.94654">
        <ele>1925.2</ele>
        <time>2023-02-16T09:25:47Z</time>
      </trkpt>
      <trkpt lat="44.83664" lon="6.9466">
        <ele>1926.1</ele>
        <time>2023-02-16T09:25:52Z</time>
      </trkpt>
      <trkpt lat="44.83663" lon="6.94669">
        <ele>1927.1</ele>
        <time>2023-02-16T09:26:00Z</time>
      </trkpt>
      <trkpt lat="44.83662" lon="6.94678">
        <ele>1928.5</ele>
        <time>2023-02-16T09:26:08Z</time>
      </trkpt>
      <trkpt lat="44.8366" lon="6.94687">
        <ele>1929.6</ele>
        <time>2023-02-16T09:26:16Z</time>
      </trkpt>
      <trkpt lat="44.83659" lon="6.94689">
        <ele>1929.7</ele>
        <time>2023-02-16T09:26:19Z</time>
      </trkpt>
      <trkpt lat="44.83657" lon="6.94696">
        <ele>1930.6</ele>
        <time>2023-02-16T09:26:25Z</time>
      </trkpt>
      <trkpt lat="44.83655" lon="6.94701">
        <ele>1931.1</ele>
        <time>2023-02-16T09:26:31Z</time>
      </trkpt>
      <trkpt lat="44.83653" lon="6.94704">
        <ele>1931.1</ele>
        <time>2023-02-16T09:26:34Z</time>
      </trkpt>
      <trkpt lat="44.83651" lon="6.94709">
        <ele>1931.6</ele>
        <time>2023-02-16T09:26:39Z</time>
      </trkpt>
      <trkpt lat="44.83649" lon="6.94714">
        <ele>1932.1</ele>
        <time>2023-02-16T09:26:44Z</time>
      </trkpt>
      <trkpt lat="44.83648" lon="6.94716">
        <ele>1932.3</ele>
        <time>2023-02-16T09:26:46Z</time>
      </trkpt>
      <trkpt lat="44.83647" lon="6.94723">
        <ele>1933.4</ele>
        <time>2023-02-16T09:26:52Z</time>
      </trkpt>
      <trkpt lat="44.83647" lon="6.94726">
        <ele>1933.7</ele>
        <time>2023-02-16T09:26:55Z</time>
      </trkpt>
      <trkpt lat="44.83645" lon="6.94733">
        <ele>1933.8</ele>
        <time>2023-02-16T09:27:02Z</time>
      </trkpt>
      <trkpt lat="44.83645" lon="6.94739">
        <ele>1934.4</ele>
        <time>2023-02-16T09:27:08Z</time>
      </trkpt>
      <trkpt lat="44.83646" lon="6.94743">
        <ele>1935.1</ele>
        <time>2023-02-16T09:27:12Z</time>
      </trkpt>
      <trkpt lat="44.83646" lon="6.9475">
        <ele>1935.8</ele>
        <time>2023-02-16T09:27:19Z</time>
      </trkpt>
      <trkpt lat="44.83647" lon="6.94751">
        <ele>1936.3</ele>
        <time>2023-02-16T09:27:20Z</time>
      </trkpt>
      <trkpt lat="44.83648" lon="6.9476">
        <ele>1937.5</ele>
        <time>2023-02-16T09:27:28Z</time>
      </trkpt>
      <trkpt lat="44.83649" lon="6.94764">
        <ele>1938.1</ele>
        <time>2023-02-16T09:27:32Z</time>
      </trkpt>
      <trkpt lat="44.8365" lon="6.94776">
        <ele>1939.5</ele>
        <time>2023-02-16T09:27:43Z</time>
      </trkpt>
      <trkpt lat="44.83651" lon="6.94778">
        <ele>1940</ele>
        <time>2023-02-16T09:27:47Z</time>
      </trkpt>
      <trkpt lat="44.83655" lon="6.94779">
        <ele>1941.4</ele>
        <time>2023-02-16T09:27:53Z</time>
      </trkpt>
      <trkpt lat="44.83656" lon="6.94778">
        <ele>1941.6</ele>
        <time>2023-02-16T09:27:54Z</time>
      </trkpt>
      <trkpt lat="44.83657" lon="6.94777">
        <ele>1941.8</ele>
        <time>2023-02-16T09:27:56Z</time>
      </trkpt>
      <trkpt lat="44.8366" lon="6.94776">
        <ele>1942.7</ele>
        <time>2023-02-16T09:28:01Z</time>
      </trkpt>
      <trkpt lat="44.83661" lon="6.94776">
        <ele>1943.1</ele>
        <time>2023-02-16T09:28:02Z</time>
      </trkpt>
      <trkpt lat="44.83663" lon="6.94778">
        <ele>1943.8</ele>
        <time>2023-02-16T09:28:06Z</time>
      </trkpt>
      <trkpt lat="44.83665" lon="6.94782">
        <ele>1945.1</ele>
        <time>2023-02-16T09:28:13Z</time>
      </trkpt>
      <trkpt lat="44.83666" lon="6.94782">
        <ele>1945.4</ele>
        <time>2023-02-16T09:28:25Z</time>
      </trkpt>
      <trkpt lat="44.83667" lon="6.94782">
        <ele>1945.8</ele>
        <time>2023-02-16T09:28:37Z</time>
      </trkpt>
      <trkpt lat="44.83668" lon="6.94784">
        <ele>1946.5</ele>
        <time>2023-02-16T09:28:40Z</time>
      </trkpt>
      <trkpt lat="44.83671" lon="6.94785">
        <ele>1948</ele>
        <time>2023-02-16T09:28:44Z</time>
      </trkpt>
      <trkpt lat="44.83672" lon="6.94785">
        <ele>1948.5</ele>
        <time>2023-02-16T09:28:46Z</time>
      </trkpt>
      <trkpt lat="44.83674" lon="6.94785">
        <ele>1949.4</ele>
        <time>2023-02-16T09:28:50Z</time>
      </trkpt>
      <trkpt lat="44.83678" lon="6.94788">
        <ele>1951.4</ele>
        <time>2023-02-16T09:28:56Z</time>
      </trkpt>
      <trkpt lat="44.83679" lon="6.94789">
        <ele>1951.9</ele>
        <time>2023-02-16T09:28:57Z</time>
      </trkpt>
      <trkpt lat="44.83679" lon="6.9479">
        <ele>1952</ele>
        <time>2023-02-16T09:28:58Z</time>
      </trkpt>
      <trkpt lat="44.83682" lon="6.94793">
        <ele>1953.4</ele>
        <time>2023-02-16T09:29:03Z</time>
      </trkpt>
      <trkpt lat="44.83684" lon="6.94796">
        <ele>1954.3</ele>
        <time>2023-02-16T09:29:09Z</time>
      </trkpt>
      <trkpt lat="44.83684" lon="6.94796">
        <ele>1954.3</ele>
        <time>2023-02-16T09:29:10Z</time>
      </trkpt>
      <trkpt lat="44.83686" lon="6.94795">
        <ele>1955.1</ele>
        <time>2023-02-16T09:29:14Z</time>
      </trkpt>
      <trkpt lat="44.83689" lon="6.94796">
        <ele>1956.2</ele>
        <time>2023-02-16T09:29:21Z</time>
      </trkpt>
      <trkpt lat="44.8369" lon="6.94796">
        <ele>1956.6</ele>
        <time>2023-02-16T09:29:23Z</time>
      </trkpt>
      <trkpt lat="44.83693" lon="6.94798">
        <ele>1957.7</ele>
        <time>2023-02-16T09:29:30Z</time>
      </trkpt>
      <trkpt lat="44.83693" lon="6.94797">
        <ele>1957.8</ele>
        <time>2023-02-16T09:29:33Z</time>
      </trkpt>
      <trkpt lat="44.83695" lon="6.94796">
        <ele>1958.6</ele>
        <time>2023-02-16T09:29:40Z</time>
      </trkpt>
      <trkpt lat="44.83697" lon="6.94798">
        <ele>1959.4</ele>
        <time>2023-02-16T09:29:46Z</time>
      </trkpt>
      <trkpt lat="44.83698" lon="6.94799">
        <ele>1959.8</ele>
        <time>2023-02-16T09:29:48Z</time>
      </trkpt>
      <trkpt lat="44.83699" lon="6.94803">
        <ele>1960.1</ele>
        <time>2023-02-16T09:29:54Z</time>
      </trkpt>
      <trkpt lat="44.83701" lon="6.94804">
        <ele>1960.9</ele>
        <time>2023-02-16T09:29:59Z</time>
      </trkpt>
      <trkpt lat="44.83701" lon="6.94804">
        <ele>1960.9</ele>
        <time>2023-02-16T09:30:00Z</time>
      </trkpt>
      <trkpt lat="44.83703" lon="6.94806">
        <ele>1961.8</ele>
        <time>2023-02-16T09:30:06Z</time>
      </trkpt>
      <trkpt lat="44.83704" lon="6.94809">
        <ele>1962.7</ele>
        <time>2023-02-16T09:30:11Z</time>
      </trkpt>
      <trkpt lat="44.83706" lon="6.9481">
        <ele>1963.6</ele>
        <time>2023-02-16T09:30:14Z</time>
      </trkpt>
      <trkpt lat="44.8371" lon="6.94814">
        <ele>1965.7</ele>
        <time>2023-02-16T09:30:22Z</time>
      </trkpt>
      <trkpt lat="44.83711" lon="6.94815">
        <ele>1966.1</ele>
        <time>2023-02-16T09:30:24Z</time>
      </trkpt>
      <trkpt lat="44.83712" lon="6.94817">
        <ele>1966.6</ele>
        <time>2023-02-16T09:30:28Z</time>
      </trkpt>
      <trkpt lat="44.83715" lon="6.94816">
        <ele>1967.6</ele>
        <time>2023-02-16T09:30:33Z</time>
      </trkpt>
      <trkpt lat="44.83716" lon="6.94815">
        <ele>1967.8</ele>
        <time>2023-02-16T09:30:35Z</time>
      </trkpt>
      <trkpt lat="44.83717" lon="6.94814">
        <ele>1968.1</ele>
        <time>2023-02-16T09:30:44Z</time>
      </trkpt>
      <trkpt lat="44.83717" lon="6.94814">
        <ele>1968.1</ele>
        <time>2023-02-16T09:30:45Z</time>
      </trkpt>
      <trkpt lat="44.83719" lon="6.94809">
        <ele>1968.7</ele>
        <time>2023-02-16T09:30:58Z</time>
      </trkpt>
      <trkpt lat="44.83719" lon="6.94809">
        <ele>1968.7</ele>
        <time>2023-02-16T09:31:02Z</time>
      </trkpt>
      <trkpt lat="44.8372" lon="6.94812">
        <ele>1969.2</ele>
        <time>2023-02-16T09:31:06Z</time>
      </trkpt>
      <trkpt lat="44.83721" lon="6.9482">
        <ele>1969.6</ele>
        <time>2023-02-16T09:31:13Z</time>
      </trkpt>
      <trkpt lat="44.83722" lon="6.94822">
        <ele>1969.9</ele>
        <time>2023-02-16T09:31:15Z</time>
      </trkpt>
      <trkpt lat="44.83722" lon="6.94825">
        <ele>1969.9</ele>
        <time>2023-02-16T09:31:20Z</time>
      </trkpt>
      <trkpt lat="44.83723" lon="6.9483">
        <ele>1970.4</ele>
        <time>2023-02-16T09:31:26Z</time>
      </trkpt>
      <trkpt lat="44.83722" lon="6.94831">
        <ele>1970</ele>
        <time>2023-02-16T09:31:31Z</time>
      </trkpt>
      <trkpt lat="44.83721" lon="6.94835">
        <ele>1970</ele>
        <time>2023-02-16T09:31:42Z</time>
      </trkpt>
      <trkpt lat="44.83721" lon="6.94842">
        <ele>1970.8</ele>
        <time>2023-02-16T09:31:49Z</time>
      </trkpt>
      <trkpt lat="44.8372" lon="6.94845">
        <ele>1971</ele>
        <time>2023-02-16T09:31:53Z</time>
      </trkpt>
      <trkpt lat="44.83719" lon="6.94846">
        <ele>1970.9</ele>
        <time>2023-02-16T09:31:54Z</time>
      </trkpt>
      <trkpt lat="44.83716" lon="6.94852">
        <ele>1971.3</ele>
        <time>2023-02-16T09:32:02Z</time>
      </trkpt>
      <trkpt lat="44.83715" lon="6.94853">
        <ele>1971.4</ele>
        <time>2023-02-16T09:32:04Z</time>
      </trkpt>
      <trkpt lat="44.83714" lon="6.94853">
        <ele>1971.3</ele>
        <time>2023-02-16T09:32:05Z</time>
      </trkpt>
      <trkpt lat="44.83712" lon="6.94854">
        <ele>1971.2</ele>
        <time>2023-02-16T09:32:09Z</time>
      </trkpt>
      <trkpt lat="44.83713" lon="6.94853">
        <ele>1971.2</ele>
        <time>2023-02-16T09:32:16Z</time>
      </trkpt>
      <trkpt lat="44.83718" lon="6.94857">
        <ele>1972.2</ele>
        <time>2023-02-16T09:32:27Z</time>
      </trkpt>
      <trkpt lat="44.8372" lon="6.94857">
        <ele>1972.4</ele>
        <time>2023-02-16T09:32:28Z</time>
      </trkpt>
      <trkpt lat="44.83723" lon="6.94859">
        <ele>1973.1</ele>
        <time>2023-02-16T09:32:33Z</time>
      </trkpt>
      <trkpt lat="44.83724" lon="6.94859">
        <ele>1973.5</ele>
        <time>2023-02-16T09:32:34Z</time>
      </trkpt>
      <trkpt lat="44.83726" lon="6.9486">
        <ele>1974.4</ele>
        <time>2023-02-16T09:32:37Z</time>
      </trkpt>
      <trkpt lat="44.83727" lon="6.94861">
        <ele>1974.9</ele>
        <time>2023-02-16T09:32:38Z</time>
      </trkpt>
      <trkpt lat="44.83734" lon="6.94863">
        <ele>1978.4</ele>
        <time>2023-02-16T09:32:47Z</time>
      </trkpt>
      <trkpt lat="44.83734" lon="6.94865">
        <ele>1979.1</ele>
        <time>2023-02-16T09:32:51Z</time>
      </trkpt>
      <trkpt lat="44.83734" lon="6.94863">
        <ele>1978.4</ele>
        <time>2023-02-16T09:32:56Z</time>
      </trkpt>
      <trkpt lat="44.83734" lon="6.94863">
        <ele>1978.4</ele>
        <time>2023-02-16T09:33:04Z</time>
      </trkpt>
      <trkpt lat="44.83734" lon="6.94862">
        <ele>1978</ele>
        <time>2023-02-16T09:33:22Z</time>
      </trkpt>
      <trkpt lat="44.83734" lon="6.94865">
        <ele>1979.1</ele>
        <time>2023-02-16T09:33:36Z</time>
      </trkpt>
      <trkpt lat="44.83738" lon="6.94865">
        <ele>1980.6</ele>
        <time>2023-02-16T09:33:41Z</time>
      </trkpt>
      <trkpt lat="44.83741" lon="6.94867">
        <ele>1982.3</ele>
        <time>2023-02-16T09:33:45Z</time>
      </trkpt>
      <trkpt lat="44.83743" lon="6.94868">
        <ele>1983.3</ele>
        <time>2023-02-16T09:33:48Z</time>
      </trkpt>
      <trkpt lat="44.83744" lon="6.94869">
        <ele>1984</ele>
        <time>2023-02-16T09:33:50Z</time>
      </trkpt>
      <trkpt lat="44.83746" lon="6.94869">
        <ele>1984.6</ele>
        <time>2023-02-16T09:33:55Z</time>
      </trkpt>
      <trkpt lat="44.83747" lon="6.94869">
        <ele>1985</ele>
        <time>2023-02-16T09:33:57Z</time>
      </trkpt>
      <trkpt lat="44.83749" lon="6.9487">
        <ele>1985.9</ele>
        <time>2023-02-16T09:34:12Z</time>
      </trkpt>
      <trkpt lat="44.83748" lon="6.94871">
        <ele>1985.9</ele>
        <time>2023-02-16T09:34:30Z</time>
      </trkpt>
      <trkpt lat="44.83747" lon="6.94872">
        <ele>1985.8</ele>
        <time>2023-02-16T09:34:37Z</time>
      </trkpt>
      <trkpt lat="44.83748" lon="6.94872">
        <ele>1986.1</ele>
        <time>2023-02-16T09:34:47Z</time>
      </trkpt>
      <trkpt lat="44.8375" lon="6.94868">
        <ele>1985.7</ele>
        <time>2023-02-16T09:35:03Z</time>
      </trkpt>
      <trkpt lat="44.83751" lon="6.9487">
        <ele>1986.5</ele>
        <time>2023-02-16T09:35:15Z</time>
      </trkpt>
      <trkpt lat="44.83751" lon="6.9487">
        <ele>1986.5</ele>
        <time>2023-02-16T09:35:16Z</time>
      </trkpt>
      <trkpt lat="44.83751" lon="6.94869">
        <ele>1986.3</ele>
        <time>2023-02-16T09:35:28Z</time>
      </trkpt>
      <trkpt lat="44.83753" lon="6.94871">
        <ele>1987.4</ele>
        <time>2023-02-16T09:35:32Z</time>
      </trkpt>
      <trkpt lat="44.83754" lon="6.94872">
        <ele>1987.9</ele>
        <time>2023-02-16T09:35:38Z</time>
      </trkpt>
      <trkpt lat="44.83755" lon="6.94872">
        <ele>1988.2</ele>
        <time>2023-02-16T09:35:40Z</time>
      </trkpt>
      <trkpt lat="44.83758" lon="6.94872">
        <ele>1989.1</ele>
        <time>2023-02-16T09:35:44Z</time>
      </trkpt>
      <trkpt lat="44.83761" lon="6.94872">
        <ele>1990</ele>
        <time>2023-02-16T09:35:48Z</time>
      </trkpt>
      <trkpt lat="44.83761" lon="6.94872">
        <ele>1990</ele>
        <time>2023-02-16T09:35:49Z</time>
      </trkpt>
      <trkpt lat="44.83762" lon="6.94872">
        <ele>1990.3</ele>
        <time>2023-02-16T09:35:50Z</time>
      </trkpt>
      <trkpt lat="44.83762" lon="6.94873">
        <ele>1990.5</ele>
        <time>2023-02-16T09:35:59Z</time>
      </trkpt>
      <trkpt lat="44.83764" lon="6.94876">
        <ele>1991.7</ele>
        <time>2023-02-16T09:36:05Z</time>
      </trkpt>
      <trkpt lat="44.83765" lon="6.94879">
        <ele>1992.7</ele>
        <time>2023-02-16T09:36:09Z</time>
      </trkpt>
      <trkpt lat="44.83765" lon="6.94883">
        <ele>1993.5</ele>
        <time>2023-02-16T09:36:12Z</time>
      </trkpt>
      <trkpt lat="44.83761" lon="6.94888">
        <ele>1993.6</ele>
        <time>2023-02-16T09:36:18Z</time>
      </trkpt>
      <trkpt lat="44.8376" lon="6.94889">
        <ele>1993.6</ele>
        <time>2023-02-16T09:36:20Z</time>
      </trkpt>
      <trkpt lat="44.83756" lon="6.94894">
        <ele>1994.1</ele>
        <time>2023-02-16T09:36:28Z</time>
      </trkpt>
      <trkpt lat="44.83753" lon="6.94897">
        <ele>1994.2</ele>
        <time>2023-02-16T09:36:32Z</time>
      </trkpt>
      <trkpt lat="44.83752" lon="6.94899">
        <ele>1994.5</ele>
        <time>2023-02-16T09:36:35Z</time>
      </trkpt>
      <trkpt lat="44.83749" lon="6.94902">
        <ele>1994.5</ele>
        <time>2023-02-16T09:36:40Z</time>
      </trkpt>
      <trkpt lat="44.83747" lon="6.94906">
        <ele>1995.2</ele>
        <time>2023-02-16T09:36:46Z</time>
      </trkpt>
      <trkpt lat="44.83746" lon="6.94907">
        <ele>1995.2</ele>
        <time>2023-02-16T09:36:48Z</time>
      </trkpt>
      <trkpt lat="44.83743" lon="6.94917">
        <ele>1997</ele>
        <time>2023-02-16T09:36:57Z</time>
      </trkpt>
      <trkpt lat="44.83742" lon="6.94921">
        <ele>1997.4</ele>
        <time>2023-02-16T09:37:00Z</time>
      </trkpt>
      <trkpt lat="44.8374" lon="6.94927">
        <ele>1997.7</ele>
        <time>2023-02-16T09:37:04Z</time>
      </trkpt>
      <trkpt lat="44.83738" lon="6.94938">
        <ele>1998.7</ele>
        <time>2023-02-16T09:37:13Z</time>
      </trkpt>
      <trkpt lat="44.83733" lon="6.94952">
        <ele>1999.7</ele>
        <time>2023-02-16T09:37:24Z</time>
      </trkpt>
      <trkpt lat="44.83728" lon="6.94962">
        <ele>2000.1</ele>
        <time>2023-02-16T09:37:33Z</time>
      </trkpt>
      <trkpt lat="44.83728" lon="6.94965">
        <ele>2000.8</ele>
        <time>2023-02-16T09:37:36Z</time>
      </trkpt>
      <trkpt lat="44.83724" lon="6.94976">
        <ele>2001.5</ele>
        <time>2023-02-16T09:37:45Z</time>
      </trkpt>
      <trkpt lat="44.83722" lon="6.94979">
        <ele>2001.2</ele>
        <time>2023-02-16T09:37:48Z</time>
      </trkpt>
      <trkpt lat="44.83716" lon="6.94997">
        <ele>2002.7</ele>
        <time>2023-02-16T09:38:02Z</time>
      </trkpt>
      <trkpt lat="44.83713" lon="6.95005">
        <ele>2003.2</ele>
        <time>2023-02-16T09:38:10Z</time>
      </trkpt>
      <trkpt lat="44.83712" lon="6.9501">
        <ele>2003.7</ele>
        <time>2023-02-16T09:38:15Z</time>
      </trkpt>
      <trkpt lat="44.83711" lon="6.95012">
        <ele>2003.8</ele>
        <time>2023-02-16T09:38:17Z</time>
      </trkpt>
      <trkpt lat="44.83709" lon="6.95018">
        <ele>2004.1</ele>
        <time>2023-02-16T09:38:23Z</time>
      </trkpt>
      <trkpt lat="44.83707" lon="6.95022">
        <ele>2004.1</ele>
        <time>2023-02-16T09:38:28Z</time>
      </trkpt>
      <trkpt lat="44.83707" lon="6.95024">
        <ele>2004.5</ele>
        <time>2023-02-16T09:38:31Z</time>
      </trkpt>
      <trkpt lat="44.83706" lon="6.95032">
        <ele>2005.4</ele>
        <time>2023-02-16T09:38:40Z</time>
      </trkpt>
      <trkpt lat="44.83706" lon="6.95034">
        <ele>2005.6</ele>
        <time>2023-02-16T09:38:42Z</time>
      </trkpt>
      <trkpt lat="44.83706" lon="6.95036">
        <ele>2005.9</ele>
        <time>2023-02-16T09:38:45Z</time>
      </trkpt>
      <trkpt lat="44.83707" lon="6.95036">
        <ele>2006.3</ele>
        <time>2023-02-16T09:38:51Z</time>
      </trkpt>
      <trkpt lat="44.83706" lon="6.95036">
        <ele>2005.9</ele>
        <time>2023-02-16T09:38:52Z</time>
      </trkpt>
      <trkpt lat="44.83707" lon="6.95036">
        <ele>2006.3</ele>
        <time>2023-02-16T09:39:05Z</time>
      </trkpt>
      <trkpt lat="44.83707" lon="6.95036">
        <ele>2006.3</ele>
        <time>2023-02-16T09:39:23Z</time>
      </trkpt>
      <trkpt lat="44.83707" lon="6.95037">
        <ele>2006.4</ele>
        <time>2023-02-16T09:39:43Z</time>
      </trkpt>
      <trkpt lat="44.83708" lon="6.95042">
        <ele>2007.4</ele>
        <time>2023-02-16T09:39:49Z</time>
      </trkpt>
      <trkpt lat="44.83709" lon="6.95045">
        <ele>2008.2</ele>
        <time>2023-02-16T09:39:52Z</time>
      </trkpt>
      <trkpt lat="44.83709" lon="6.95048">
        <ele>2008.6</ele>
        <time>2023-02-16T09:39:55Z</time>
      </trkpt>
      <trkpt lat="44.83712" lon="6.95055">
        <ele>2010.6</ele>
        <time>2023-02-16T09:40:03Z</time>
      </trkpt>
      <trkpt lat="44.83713" lon="6.95057">
        <ele>2011.2</ele>
        <time>2023-02-16T09:40:06Z</time>
      </trkpt>
      <trkpt lat="44.83718" lon="6.95056">
        <ele>2012.7</ele>
        <time>2023-02-16T09:40:13Z</time>
      </trkpt>
      <trkpt lat="44.8372" lon="6.95055">
        <ele>2013.2</ele>
        <time>2023-02-16T09:40:15Z</time>
      </trkpt>
      <trkpt lat="44.8372" lon="6.95055">
        <ele>2013.2</ele>
        <time>2023-02-16T09:40:16Z</time>
      </trkpt>
      <trkpt lat="44.83723" lon="6.95053">
        <ele>2014</ele>
        <time>2023-02-16T09:40:21Z</time>
      </trkpt>
      <trkpt lat="44.83727" lon="6.9505">
        <ele>2015.6</ele>
        <time>2023-02-16T09:40:27Z</time>
      </trkpt>
      <trkpt lat="44.83728" lon="6.9505">
        <ele>2016.1</ele>
        <time>2023-02-16T09:40:28Z</time>
      </trkpt>
      <trkpt lat="44.83732" lon="6.95049">
        <ele>2017.9</ele>
        <time>2023-02-16T09:40:35Z</time>
      </trkpt>
      <trkpt lat="44.83732" lon="6.9505">
        <ele>2018.1</ele>
        <time>2023-02-16T09:40:37Z</time>
      </trkpt>
      <trkpt lat="44.83733" lon="6.95053">
        <ele>2019</ele>
        <time>2023-02-16T09:40:41Z</time>
      </trkpt>
      <trkpt lat="44.83733" lon="6.95056">
        <ele>2019.5</ele>
        <time>2023-02-16T09:40:43Z</time>
      </trkpt>
      <trkpt lat="44.83733" lon="6.95059">
        <ele>2020.1</ele>
        <time>2023-02-16T09:40:46Z</time>
      </trkpt>
      <trkpt lat="44.83732" lon="6.95062">
        <ele>2020.1</ele>
        <time>2023-02-16T09:40:49Z</time>
      </trkpt>
      <trkpt lat="44.83733" lon="6.95066">
        <ele>2021.3</ele>
        <time>2023-02-16T09:40:54Z</time>
      </trkpt>
      <trkpt lat="44.83733" lon="6.95072">
        <ele>2022.4</ele>
        <time>2023-02-16T09:41:00Z</time>
      </trkpt>
      <trkpt lat="44.83733" lon="6.95073">
        <ele>2022.6</ele>
        <time>2023-02-16T09:41:01Z</time>
      </trkpt>
      <trkpt lat="44.83731" lon="6.95081">
        <ele>2023</ele>
        <time>2023-02-16T09:41:09Z</time>
      </trkpt>
      <trkpt lat="44.83731" lon="6.95083">
        <ele>2023.4</ele>
        <time>2023-02-16T09:41:11Z</time>
      </trkpt>
      <trkpt lat="44.83731" lon="6.95086">
        <ele>2023.9</ele>
        <time>2023-02-16T09:41:14Z</time>
      </trkpt>
      <trkpt lat="44.83731" lon="6.95094">
        <ele>2025.3</ele>
        <time>2023-02-16T09:41:22Z</time>
      </trkpt>
      <trkpt lat="44.83731" lon="6.95094">
        <ele>2025.3</ele>
        <time>2023-02-16T09:41:24Z</time>
      </trkpt>
      <trkpt lat="44.83731" lon="6.95092">
        <ele>2025</ele>
        <time>2023-02-16T09:41:34Z</time>
      </trkpt>
      <trkpt lat="44.83734" lon="6.9509">
        <ele>2026.1</ele>
        <time>2023-02-16T09:41:44Z</time>
      </trkpt>
      <trkpt lat="44.83734" lon="6.95091">
        <ele>2026.3</ele>
        <time>2023-02-16T09:41:46Z</time>
      </trkpt>
      <trkpt lat="44.83734" lon="6.95097">
        <ele>2027.4</ele>
        <time>2023-02-16T09:41:56Z</time>
      </trkpt>
      <trkpt lat="44.83733" lon="6.95099">
        <ele>2027.3</ele>
        <time>2023-02-16T09:41:57Z</time>
      </trkpt>
      <trkpt lat="44.83732" lon="6.95102">
        <ele>2027.3</ele>
        <time>2023-02-16T09:42:03Z</time>
      </trkpt>
      <trkpt lat="44.83731" lon="6.95104">
        <ele>2027.1</ele>
        <time>2023-02-16T09:42:06Z</time>
      </trkpt>
      <trkpt lat="44.8373" lon="6.95106">
        <ele>2027</ele>
        <time>2023-02-16T09:42:10Z</time>
      </trkpt>
      <trkpt lat="44.8373" lon="6.95111">
        <ele>2027.9</ele>
        <time>2023-02-16T09:42:16Z</time>
      </trkpt>
      <trkpt lat="44.83731" lon="6.95112">
        <ele>2028.6</ele>
        <time>2023-02-16T09:42:18Z</time>
      </trkpt>
      <trkpt lat="44.83731" lon="6.95113">
        <ele>2028.7</ele>
        <time>2023-02-16T09:42:19Z</time>
      </trkpt>
      <trkpt lat="44.83733" lon="6.95116">
        <ele>2030.1</ele>
        <time>2023-02-16T09:42:22Z</time>
      </trkpt>
      <trkpt lat="44.83733" lon="6.95121">
        <ele>2030.9</ele>
        <time>2023-02-16T09:42:26Z</time>
      </trkpt>
      <trkpt lat="44.83734" lon="6.95122">
        <ele>2031.5</ele>
        <time>2023-02-16T09:42:29Z</time>
      </trkpt>
      <trkpt lat="44.83735" lon="6.9512">
        <ele>2031.7</ele>
        <time>2023-02-16T09:42:34Z</time>
      </trkpt>
      <trkpt lat="44.83735" lon="6.9512">
        <ele>2031.7</ele>
        <time>2023-02-16T09:42:39Z</time>
      </trkpt>
      <trkpt lat="44.83734" lon="6.95119">
        <ele>2031.1</ele>
        <time>2023-02-16T09:42:53Z</time>
      </trkpt>
      <trkpt lat="44.83734" lon="6.95118">
        <ele>2030.9</ele>
        <time>2023-02-16T09:43:08Z</time>
      </trkpt>
      <trkpt lat="44.83738" lon="6.95116">
        <ele>2032.7</ele>
        <time>2023-02-16T09:43:16Z</time>
      </trkpt>
      <trkpt lat="44.83739" lon="6.95116">
        <ele>2033.2</ele>
        <time>2023-02-16T09:43:18Z</time>
      </trkpt>
      <trkpt lat="44.83743" lon="6.95116">
        <ele>2035.2</ele>
        <time>2023-02-16T09:43:25Z</time>
      </trkpt>
      <trkpt lat="44.83743" lon="6.95117">
        <ele>2035.3</ele>
        <time>2023-02-16T09:43:26Z</time>
      </trkpt>
      <trkpt lat="44.83743" lon="6.95121">
        <ele>2035.9</ele>
        <time>2023-02-16T09:43:30Z</time>
      </trkpt>
      <trkpt lat="44.83743" lon="6.95122">
        <ele>2036</ele>
        <time>2023-02-16T09:43:32Z</time>
      </trkpt>
      <trkpt lat="44.83744" lon="6.95127">
        <ele>2037.3</ele>
        <time>2023-02-16T09:43:37Z</time>
      </trkpt>
      <trkpt lat="44.83746" lon="6.95134">
        <ele>2039.3</ele>
        <time>2023-02-16T09:43:44Z</time>
      </trkpt>
      <trkpt lat="44.83747" lon="6.95139">
        <ele>2040.5</ele>
        <time>2023-02-16T09:43:49Z</time>
      </trkpt>
      <trkpt lat="44.83747" lon="6.95142">
        <ele>2041.2</ele>
        <time>2023-02-16T09:43:52Z</time>
      </trkpt>
      <trkpt lat="44.83747" lon="6.95145">
        <ele>2041.8</ele>
        <time>2023-02-16T09:43:55Z</time>
      </trkpt>
      <trkpt lat="44.83747" lon="6.9515">
        <ele>2042.9</ele>
        <time>2023-02-16T09:44:00Z</time>
      </trkpt>
      <trkpt lat="44.83747" lon="6.95151">
        <ele>2043.1</ele>
        <time>2023-02-16T09:44:01Z</time>
      </trkpt>
      <trkpt lat="44.83747" lon="6.95155">
        <ele>2044</ele>
        <time>2023-02-16T09:44:07Z</time>
      </trkpt>
      <trkpt lat="44.83747" lon="6.95158">
        <ele>2044.6</ele>
        <time>2023-02-16T09:44:11Z</time>
      </trkpt>
      <trkpt lat="44.83747" lon="6.95159">
        <ele>2044.8</ele>
        <time>2023-02-16T09:44:12Z</time>
      </trkpt>
      <trkpt lat="44.8375" lon="6.9516">
        <ele>2046.6</ele>
        <time>2023-02-16T09:44:18Z</time>
      </trkpt>
      <trkpt lat="44.8375" lon="6.9516">
        <ele>2046.6</ele>
        <time>2023-02-16T09:44:20Z</time>
      </trkpt>
      <trkpt lat="44.8375" lon="6.95159">
        <ele>2046.3</ele>
        <time>2023-02-16T09:44:36Z</time>
      </trkpt>
      <trkpt lat="44.83754" lon="6.95156">
        <ele>2047.4</ele>
        <time>2023-02-16T09:44:45Z</time>
      </trkpt>
      <trkpt lat="44.83755" lon="6.95155">
        <ele>2047.7</ele>
        <time>2023-02-16T09:44:47Z</time>
      </trkpt>
      <trkpt lat="44.83756" lon="6.95155">
        <ele>2048.1</ele>
        <time>2023-02-16T09:44:53Z</time>
      </trkpt>
      <trkpt lat="44.83756" lon="6.95157">
        <ele>2048.5</ele>
        <time>2023-02-16T09:44:55Z</time>
      </trkpt>
      <trkpt lat="44.83757" lon="6.95161">
        <ele>2049.7</ele>
        <time>2023-02-16T09:45:01Z</time>
      </trkpt>
      <trkpt lat="44.83757" lon="6.9516">
        <ele>2049.5</ele>
        <time>2023-02-16T09:45:05Z</time>
      </trkpt>
      <trkpt lat="44.8376" lon="6.95156">
        <ele>2050.1</ele>
        <time>2023-02-16T09:45:14Z</time>
      </trkpt>
      <trkpt lat="44.83761" lon="6.95155">
        <ele>2050.3</ele>
        <time>2023-02-16T09:45:16Z</time>
      </trkpt>
      <trkpt lat="44.83763" lon="6.95153">
        <ele>2050.9</ele>
        <time>2023-02-16T09:45:19Z</time>
      </trkpt>
      <trkpt lat="44.83763" lon="6.95152">
        <ele>2050.7</ele>
        <time>2023-02-16T09:45:20Z</time>
      </trkpt>
      <trkpt lat="44.83766" lon="6.95149">
        <ele>2051.6</ele>
        <time>2023-02-16T09:45:25Z</time>
      </trkpt>
      <trkpt lat="44.83768" lon="6.95147">
        <ele>2052.3</ele>
        <time>2023-02-16T09:45:27Z</time>
      </trkpt>
      <trkpt lat="44.8377" lon="6.95144">
        <ele>2052.8</ele>
        <time>2023-02-16T09:45:31Z</time>
      </trkpt>
      <trkpt lat="44.83772" lon="6.95142">
        <ele>2053.5</ele>
        <time>2023-02-16T09:45:36Z</time>
      </trkpt>
      <trkpt lat="44.83772" lon="6.95142">
        <ele>2053.5</ele>
        <time>2023-02-16T09:45:37Z</time>
      </trkpt>
      <trkpt lat="44.83774" lon="6.95146">
        <ele>2055</ele>
        <time>2023-02-16T09:45:44Z</time>
      </trkpt>
      <trkpt lat="44.83774" lon="6.95147">
        <ele>2055.1</ele>
        <time>2023-02-16T09:45:45Z</time>
      </trkpt>
      <trkpt lat="44.83774" lon="6.9515">
        <ele>2055.5</ele>
        <time>2023-02-16T09:45:48Z</time>
      </trkpt>
      <trkpt lat="44.83776" lon="6.95158">
        <ele>2057.3</ele>
        <time>2023-02-16T09:45:55Z</time>
      </trkpt>
      <trkpt lat="44.83776" lon="6.95161">
        <ele>2057.6</ele>
        <time>2023-02-16T09:45:58Z</time>
      </trkpt>
      <trkpt lat="44.83777" lon="6.95167">
        <ele>2058.8</ele>
        <time>2023-02-16T09:46:03Z</time>
      </trkpt>
      <trkpt lat="44.83777" lon="6.95173">
        <ele>2060.1</ele>
        <time>2023-02-16T09:46:09Z</time>
      </trkpt>
      <trkpt lat="44.83776" lon="6.95175">
        <ele>2060.1</ele>
        <time>2023-02-16T09:46:12Z</time>
      </trkpt>
      <trkpt lat="44.83776" lon="6.9518">
        <ele>2061.2</ele>
        <time>2023-02-16T09:46:16Z</time>
      </trkpt>
      <trkpt lat="44.83775" lon="6.95185">
        <ele>2062</ele>
        <time>2023-02-16T09:46:21Z</time>
      </trkpt>
      <trkpt lat="44.83776" lon="6.95191">
        <ele>2063.7</ele>
        <time>2023-02-16T09:46:27Z</time>
      </trkpt>
      <trkpt lat="44.83776" lon="6.95192">
        <ele>2063.9</ele>
        <time>2023-02-16T09:46:28Z</time>
      </trkpt>
      <trkpt lat="44.83774" lon="6.952">
        <ele>2065.2</ele>
        <time>2023-02-16T09:46:35Z</time>
      </trkpt>
      <trkpt lat="44.83773" lon="6.95202">
        <ele>2065.4</ele>
        <time>2023-02-16T09:46:38Z</time>
      </trkpt>
      <trkpt lat="44.83771" lon="6.95206">
        <ele>2065.7</ele>
        <time>2023-02-16T09:46:42Z</time>
      </trkpt>
      <trkpt lat="44.8377" lon="6.9521">
        <ele>2066.4</ele>
        <time>2023-02-16T09:46:45Z</time>
      </trkpt>
      <trkpt lat="44.83769" lon="6.95213">
        <ele>2066.8</ele>
        <time>2023-02-16T09:46:48Z</time>
      </trkpt>
      <trkpt lat="44.83768" lon="6.95215">
        <ele>2067</ele>
        <time>2023-02-16T09:46:50Z</time>
      </trkpt>
      <trkpt lat="44.83767" lon="6.95219">
        <ele>2067.7</ele>
        <time>2023-02-16T09:46:54Z</time>
      </trkpt>
      <trkpt lat="44.83765" lon="6.95225">
        <ele>2068.4</ele>
        <time>2023-02-16T09:47:00Z</time>
      </trkpt>
      <trkpt lat="44.83764" lon="6.95227">
        <ele>2068.4</ele>
        <time>2023-02-16T09:47:02Z</time>
      </trkpt>
      <trkpt lat="44.83764" lon="6.95231">
        <ele>2069.1</ele>
        <time>2023-02-16T09:47:06Z</time>
      </trkpt>
      <trkpt lat="44.83762" lon="6.95236">
        <ele>2069.4</ele>
        <time>2023-02-16T09:47:11Z</time>
      </trkpt>
      <trkpt lat="44.83762" lon="6.9524">
        <ele>2070.1</ele>
        <time>2023-02-16T09:47:14Z</time>
      </trkpt>
      <trkpt lat="44.83762" lon="6.95243">
        <ele>2070.6</ele>
        <time>2023-02-16T09:47:17Z</time>
      </trkpt>
      <trkpt lat="44.83762" lon="6.95249">
        <ele>2071.7</ele>
        <time>2023-02-16T09:47:22Z</time>
      </trkpt>
      <trkpt lat="44.83762" lon="6.95254">
        <ele>2072.7</ele>
        <time>2023-02-16T09:47:27Z</time>
      </trkpt>
      <trkpt lat="44.83762" lon="6.95262">
        <ele>2074.3</ele>
        <time>2023-02-16T09:47:34Z</time>
      </trkpt>
      <trkpt lat="44.83761" lon="6.95268">
        <ele>2075.2</ele>
        <time>2023-02-16T09:47:39Z</time>
      </trkpt>
      <trkpt lat="44.83761" lon="6.95269">
        <ele>2075.4</ele>
        <time>2023-02-16T09:47:40Z</time>
      </trkpt>
      <trkpt lat="44.83762" lon="6.95274">
        <ele>2076.7</ele>
        <time>2023-02-16T09:47:46Z</time>
      </trkpt>
      <trkpt lat="44.83764" lon="6.95274">
        <ele>2077.3</ele>
        <time>2023-02-16T09:47:50Z</time>
      </trkpt>
      <trkpt lat="44.83765" lon="6.95273">
        <ele>2077.4</ele>
        <time>2023-02-16T09:47:51Z</time>
      </trkpt>
      <trkpt lat="44.83769" lon="6.95271">
        <ele>2078.2</ele>
        <time>2023-02-16T09:47:57Z</time>
      </trkpt>
      <trkpt lat="44.83774" lon="6.95267">
        <ele>2078.9</ele>
        <time>2023-02-16T09:48:04Z</time>
      </trkpt>
      <trkpt lat="44.83776" lon="6.95267">
        <ele>2079.5</ele>
        <time>2023-02-16T09:48:06Z</time>
      </trkpt>
      <trkpt lat="44.83779" lon="6.95266">
        <ele>2080.3</ele>
        <time>2023-02-16T09:48:10Z</time>
      </trkpt>
      <trkpt lat="44.83783" lon="6.95264">
        <ele>2081.2</ele>
        <time>2023-02-16T09:48:15Z</time>
      </trkpt>
      <trkpt lat="44.83784" lon="6.95263">
        <ele>2081.3</ele>
        <time>2023-02-16T09:48:17Z</time>
      </trkpt>
      <trkpt lat="44.83787" lon="6.95262">
        <ele>2082.1</ele>
        <time>2023-02-16T09:48:21Z</time>
      </trkpt>
      <trkpt lat="44.8379" lon="6.95261">
        <ele>2082.8</ele>
        <time>2023-02-16T09:48:26Z</time>
      </trkpt>
      <trkpt lat="44.83794" lon="6.9526">
        <ele>2083.9</ele>
        <time>2023-02-16T09:48:31Z</time>
      </trkpt>
      <trkpt lat="44.83799" lon="6.9526">
        <ele>2085.5</ele>
        <time>2023-02-16T09:48:37Z</time>
      </trkpt>
      <trkpt lat="44.838" lon="6.95259">
        <ele>2085.5</ele>
        <time>2023-02-16T09:48:39Z</time>
      </trkpt>
      <trkpt lat="44.83803" lon="6.95258">
        <ele>2086.2</ele>
        <time>2023-02-16T09:48:45Z</time>
      </trkpt>
      <trkpt lat="44.83805" lon="6.95258">
        <ele>2086.8</ele>
        <time>2023-02-16T09:48:48Z</time>
      </trkpt>
      <trkpt lat="44.83808" lon="6.95257">
        <ele>2087.5</ele>
        <time>2023-02-16T09:48:52Z</time>
      </trkpt>
      <trkpt lat="44.83808" lon="6.95257">
        <ele>2087.5</ele>
        <time>2023-02-16T09:48:53Z</time>
      </trkpt>
      <trkpt lat="44.83809" lon="6.95257">
        <ele>2087.8</ele>
        <time>2023-02-16T09:48:58Z</time>
      </trkpt>
      <trkpt lat="44.83811" lon="6.95257">
        <ele>2088.4</ele>
        <time>2023-02-16T09:49:11Z</time>
      </trkpt>
      <trkpt lat="44.83811" lon="6.95257">
        <ele>2088.4</ele>
        <time>2023-02-16T09:49:15Z</time>
      </trkpt>
      <trkpt lat="44.8381" lon="6.9526">
        <ele>2088.9</ele>
        <time>2023-02-16T09:49:19Z</time>
      </trkpt>
      <trkpt lat="44.83809" lon="6.95261">
        <ele>2088.8</ele>
        <time>2023-02-16T09:49:20Z</time>
      </trkpt>
      <trkpt lat="44.83807" lon="6.95267">
        <ele>2089.7</ele>
        <time>2023-02-16T09:49:26Z</time>
      </trkpt>
      <trkpt lat="44.83807" lon="6.9527">
        <ele>2090.5</ele>
        <time>2023-02-16T09:49:30Z</time>
      </trkpt>
      <trkpt lat="44.83807" lon="6.9527">
        <ele>2090.5</ele>
        <time>2023-02-16T09:49:34Z</time>
      </trkpt>
      <trkpt lat="44.83807" lon="6.95272">
        <ele>2091</ele>
        <time>2023-02-16T09:49:41Z</time>
      </trkpt>
      <trkpt lat="44.83806" lon="6.95276">
        <ele>2091.7</ele>
        <time>2023-02-16T09:49:46Z</time>
      </trkpt>
      <trkpt lat="44.83805" lon="6.95284">
        <ele>2093.6</ele>
        <time>2023-02-16T09:49:53Z</time>
      </trkpt>
      <trkpt lat="44.83804" lon="6.95289">
        <ele>2094.6</ele>
        <time>2023-02-16T09:49:59Z</time>
      </trkpt>
      <trkpt lat="44.83804" lon="6.95294">
        <ele>2096</ele>
        <time>2023-02-16T09:50:04Z</time>
      </trkpt>
      <trkpt lat="44.83804" lon="6.95296">
        <ele>2096.6</ele>
        <time>2023-02-16T09:50:06Z</time>
      </trkpt>
      <trkpt lat="44.83803" lon="6.95297">
        <ele>2096.5</ele>
        <time>2023-02-16T09:50:07Z</time>
      </trkpt>
      <trkpt lat="44.83803" lon="6.953">
        <ele>2097.3</ele>
        <time>2023-02-16T09:50:11Z</time>
      </trkpt>
      <trkpt lat="44.838" lon="6.95307">
        <ele>2097.9</ele>
        <time>2023-02-16T09:50:18Z</time>
      </trkpt>
      <trkpt lat="44.838" lon="6.95308">
        <ele>2098.1</ele>
        <time>2023-02-16T09:50:19Z</time>
      </trkpt>
      <trkpt lat="44.83799" lon="6.95311">
        <ele>2098.3</ele>
        <time>2023-02-16T09:50:23Z</time>
      </trkpt>
      <trkpt lat="44.83798" lon="6.95318">
        <ele>2099.4</ele>
        <time>2023-02-16T09:50:30Z</time>
      </trkpt>
      <trkpt lat="44.83798" lon="6.9532">
        <ele>2099.9</ele>
        <time>2023-02-16T09:50:33Z</time>
      </trkpt>
      <trkpt lat="44.83798" lon="6.95323">
        <ele>2100.5</ele>
        <time>2023-02-16T09:50:36Z</time>
      </trkpt>
      <trkpt lat="44.83798" lon="6.95323">
        <ele>2100.5</ele>
        <time>2023-02-16T09:50:43Z</time>
      </trkpt>
      <trkpt lat="44.83799" lon="6.95322">
        <ele>2100.7</ele>
        <time>2023-02-16T09:51:02Z</time>
      </trkpt>
      <trkpt lat="44.83804" lon="6.95321">
        <ele>2102.7</ele>
        <time>2023-02-16T09:51:10Z</time>
      </trkpt>
      <trkpt lat="44.83806" lon="6.9532">
        <ele>2103.2</ele>
        <time>2023-02-16T09:51:13Z</time>
      </trkpt>
      <trkpt lat="44.83808" lon="6.9532">
        <ele>2103.8</ele>
        <time>2023-02-16T09:51:16Z</time>
      </trkpt>
      <trkpt lat="44.83812" lon="6.95319">
        <ele>2104.8</ele>
        <time>2023-02-16T09:51:20Z</time>
      </trkpt>
      <trkpt lat="44.83815" lon="6.95318">
        <ele>2105.4</ele>
        <time>2023-02-16T09:51:23Z</time>
      </trkpt>
      <trkpt lat="44.83815" lon="6.95318">
        <ele>2105.4</ele>
        <time>2023-02-16T09:51:24Z</time>
      </trkpt>
      <trkpt lat="44.83821" lon="6.95317">
        <ele>2106.9</ele>
        <time>2023-02-16T09:51:31Z</time>
      </trkpt>
      <trkpt lat="44.83822" lon="6.95317">
        <ele>2107.2</ele>
        <time>2023-02-16T09:51:33Z</time>
      </trkpt>
      <trkpt lat="44.83825" lon="6.95319">
        <ele>2108.5</ele>
        <time>2023-02-16T09:51:38Z</time>
      </trkpt>
      <trkpt lat="44.83825" lon="6.95323">
        <ele>2109.4</ele>
        <time>2023-02-16T09:51:41Z</time>
      </trkpt>
      <trkpt lat="44.83824" lon="6.95324">
        <ele>2109.3</ele>
        <time>2023-02-16T09:51:42Z</time>
      </trkpt>
      <trkpt lat="44.83823" lon="6.95328">
        <ele>2109.9</ele>
        <time>2023-02-16T09:51:46Z</time>
      </trkpt>
      <trkpt lat="44.83821" lon="6.95334">
        <ele>2110.6</ele>
        <time>2023-02-16T09:51:52Z</time>
      </trkpt>
      <trkpt lat="44.8382" lon="6.95338">
        <ele>2111.2</ele>
        <time>2023-02-16T09:51:55Z</time>
      </trkpt>
      <trkpt lat="44.83819" lon="6.95342">
        <ele>2111.7</ele>
        <time>2023-02-16T09:51:59Z</time>
      </trkpt>
      <trkpt lat="44.83817" lon="6.95347">
        <ele>2112.2</ele>
        <time>2023-02-16T09:52:05Z</time>
      </trkpt>
      <trkpt lat="44.83816" lon="6.95351">
        <ele>2112.8</ele>
        <time>2023-02-16T09:52:09Z</time>
      </trkpt>
      <trkpt lat="44.83815" lon="6.95352">
        <ele>2112.8</ele>
        <time>2023-02-16T09:52:10Z</time>
      </trkpt>
      <trkpt lat="44.83813" lon="6.95359">
        <ele>2113.7</ele>
        <time>2023-02-16T09:52:17Z</time>
      </trkpt>
      <trkpt lat="44.83813" lon="6.95364">
        <ele>2114.7</ele>
        <time>2023-02-16T09:52:21Z</time>
      </trkpt>
      <trkpt lat="44.83813" lon="6.95365">
        <ele>2114.8</ele>
        <time>2023-02-16T09:52:22Z</time>
      </trkpt>
      <trkpt lat="44.83813" lon="6.95367">
        <ele>2115.2</ele>
        <time>2023-02-16T09:52:31Z</time>
      </trkpt>
      <trkpt lat="44.83814" lon="6.95367">
        <ele>2115.5</ele>
        <time>2023-02-16T09:52:35Z</time>
      </trkpt>
      <trkpt lat="44.83814" lon="6.95367">
        <ele>2115.5</ele>
        <time>2023-02-16T09:52:38Z</time>
      </trkpt>
      <trkpt lat="44.83815" lon="6.9537">
        <ele>2116.3</ele>
        <time>2023-02-16T09:52:44Z</time>
      </trkpt>
      <trkpt lat="44.8382" lon="6.95372">
        <ele>2118.1</ele>
        <time>2023-02-16T09:52:52Z</time>
      </trkpt>
      <trkpt lat="44.83822" lon="6.95372">
        <ele>2118.7</ele>
        <time>2023-02-16T09:52:55Z</time>
      </trkpt>
      <trkpt lat="44.83824" lon="6.95372">
        <ele>2119.3</ele>
        <time>2023-02-16T09:52:58Z</time>
      </trkpt>
      <trkpt lat="44.83829" lon="6.95373">
        <ele>2120.9</ele>
        <time>2023-02-16T09:53:04Z</time>
      </trkpt>
      <trkpt lat="44.8383" lon="6.95374">
        <ele>2121.4</ele>
        <time>2023-02-16T09:53:07Z</time>
      </trkpt>
      <trkpt lat="44.83831" lon="6.95375">
        <ele>2121.8</ele>
        <time>2023-02-16T09:53:09Z</time>
      </trkpt>
      <trkpt lat="44.83835" lon="6.95379">
        <ele>2123.8</ele>
        <time>2023-02-16T09:53:15Z</time>
      </trkpt>
      <trkpt lat="44.83836" lon="6.9538">
        <ele>2124.4</ele>
        <time>2023-02-16T09:53:16Z</time>
      </trkpt>
      <trkpt lat="44.83839" lon="6.95382">
        <ele>2125.8</ele>
        <time>2023-02-16T09:53:20Z</time>
      </trkpt>
      <trkpt lat="44.83839" lon="6.95383">
        <ele>2126</ele>
        <time>2023-02-16T09:53:21Z</time>
      </trkpt>
      <trkpt lat="44.83842" lon="6.95385">
        <ele>2127.4</ele>
        <time>2023-02-16T09:53:26Z</time>
      </trkpt>
      <trkpt lat="44.83845" lon="6.95387">
        <ele>2128.9</ele>
        <time>2023-02-16T09:53:31Z</time>
      </trkpt>
      <trkpt lat="44.83847" lon="6.9539">
        <ele>2130.2</ele>
        <time>2023-02-16T09:53:37Z</time>
      </trkpt>
      <trkpt lat="44.83848" lon="6.95391">
        <ele>2130.8</ele>
        <time>2023-02-16T09:53:38Z</time>
      </trkpt>
      <trkpt lat="44.83849" lon="6.95394">
        <ele>2131.8</ele>
        <time>2023-02-16T09:53:42Z</time>
      </trkpt>
      <trkpt lat="44.8385" lon="6.95398">
        <ele>2133</ele>
        <time>2023-02-16T09:53:47Z</time>
      </trkpt>
      <trkpt lat="44.8385" lon="6.95399">
        <ele>2133.3</ele>
        <time>2023-02-16T09:53:48Z</time>
      </trkpt>
      <trkpt lat="44.8385" lon="6.95404">
        <ele>2134.4</ele>
        <time>2023-02-16T09:53:55Z</time>
      </trkpt>
      <trkpt lat="44.83849" lon="6.95407">
        <ele>2134.8</ele>
        <time>2023-02-16T09:53:59Z</time>
      </trkpt>
      <trkpt lat="44.83848" lon="6.9541">
        <ele>2135.2</ele>
        <time>2023-02-16T09:54:02Z</time>
      </trkpt>
      <trkpt lat="44.83845" lon="6.95413">
        <ele>2135.1</ele>
        <time>2023-02-16T09:54:08Z</time>
      </trkpt>
      <trkpt lat="44.83844" lon="6.95414">
        <ele>2135</ele>
        <time>2023-02-16T09:54:11Z</time>
      </trkpt>
      <trkpt lat="44.83843" lon="6.95416">
        <ele>2135.3</ele>
        <time>2023-02-16T09:54:16Z</time>
      </trkpt>
      <trkpt lat="44.83843" lon="6.95418">
        <ele>2135.8</ele>
        <time>2023-02-16T09:54:20Z</time>
      </trkpt>
      <trkpt lat="44.83845" lon="6.95419">
        <ele>2136.6</ele>
        <time>2023-02-16T09:54:26Z</time>
      </trkpt>
      <trkpt lat="44.83848" lon="6.95422">
        <ele>2138.1</ele>
        <time>2023-02-16T09:54:31Z</time>
      </trkpt>
      <trkpt lat="44.83849" lon="6.95423">
        <ele>2138.6</ele>
        <time>2023-02-16T09:54:34Z</time>
      </trkpt>
      <trkpt lat="44.83851" lon="6.95425">
        <ele>2139.6</ele>
        <time>2023-02-16T09:54:38Z</time>
      </trkpt>
      <trkpt lat="44.83851" lon="6.95425">
        <ele>2139.6</ele>
        <time>2023-02-16T09:54:42Z</time>
      </trkpt>
      <trkpt lat="44.83852" lon="6.95425">
        <ele>2139.8</ele>
        <time>2023-02-16T09:54:53Z</time>
      </trkpt>
      <trkpt lat="44.83852" lon="6.95425">
        <ele>2139.8</ele>
        <time>2023-02-16T09:54:54Z</time>
      </trkpt>
      <trkpt lat="44.83852" lon="6.95425">
        <ele>2139.8</ele>
        <time>2023-02-16T09:54:56Z</time>
      </trkpt>
      <trkpt lat="44.83852" lon="6.95425">
        <ele>2139.8</ele>
        <time>2023-02-16T09:54:58Z</time>
      </trkpt>
      <trkpt lat="44.83852" lon="6.95425">
        <ele>2139.8</ele>
        <time>2023-02-16T09:55:00Z</time>
      </trkpt>
      <trkpt lat="44.83853" lon="6.95426">
        <ele>2140.3</ele>
        <time>2023-02-16T09:55:03Z</time>
      </trkpt>
      <trkpt lat="44.83855" lon="6.95426">
        <ele>2140.7</ele>
        <time>2023-02-16T09:55:06Z</time>
      </trkpt>
      <trkpt lat="44.83857" lon="6.95425">
        <ele>2140.9</ele>
        <time>2023-02-16T09:55:10Z</time>
      </trkpt>
      <trkpt lat="44.83858" lon="6.95425">
        <ele>2141.1</ele>
        <time>2023-02-16T09:55:13Z</time>
      </trkpt>
      <trkpt lat="44.83858" lon="6.95425">
        <ele>2141.1</ele>
        <time>2023-02-16T09:55:14Z</time>
      </trkpt>
      <trkpt lat="44.83858" lon="6.95424">
        <ele>2140.9</ele>
        <time>2023-02-16T09:55:21Z</time>
      </trkpt>
      <trkpt lat="44.83857" lon="6.95424">
        <ele>2140.7</ele>
        <time>2023-02-16T09:55:22Z</time>
      </trkpt>
      <trkpt lat="44.83857" lon="6.95425">
        <ele>2140.9</ele>
        <time>2023-02-16T09:55:39Z</time>
      </trkpt>
      <trkpt lat="44.8386" lon="6.95428">
        <ele>2142.2</ele>
        <time>2023-02-16T09:55:49Z</time>
      </trkpt>
      <trkpt lat="44.8386" lon="6.95431">
        <ele>2142.9</ele>
        <time>2023-02-16T09:55:52Z</time>
      </trkpt>
      <trkpt lat="44.8386" lon="6.95432">
        <ele>2143.1</ele>
        <time>2023-02-16T09:55:53Z</time>
      </trkpt>
      <trkpt lat="44.8386" lon="6.95434">
        <ele>2143.5</ele>
        <time>2023-02-16T09:55:54Z</time>
      </trkpt>
      <trkpt lat="44.83859" lon="6.95436">
        <ele>2143.8</ele>
        <time>2023-02-16T09:55:56Z</time>
      </trkpt>
      <trkpt lat="44.83859" lon="6.95438">
        <ele>2144.3</ele>
        <time>2023-02-16T09:55:58Z</time>
      </trkpt>
      <trkpt lat="44.83858" lon="6.95441">
        <ele>2144.8</ele>
        <time>2023-02-16T09:56:00Z</time>
      </trkpt>
      <trkpt lat="44.83857" lon="6.95442">
        <ele>2144.8</ele>
        <time>2023-02-16T09:56:01Z</time>
      </trkpt>
      <trkpt lat="44.83854" lon="6.95446">
        <ele>2145.2</ele>
        <time>2023-02-16T09:56:06Z</time>
      </trkpt>
      <trkpt lat="44.83852" lon="6.95449">
        <ele>2145.4</ele>
        <time>2023-02-16T09:56:12Z</time>
      </trkpt>
      <trkpt lat="44.8385" lon="6.95451">
        <ele>2145.4</ele>
        <time>2023-02-16T09:56:16Z</time>
      </trkpt>
      <trkpt lat="44.8385" lon="6.95455">
        <ele>2146</ele>
        <time>2023-02-16T09:56:23Z</time>
      </trkpt>
      <trkpt lat="44.83851" lon="6.95456">
        <ele>2146.3</ele>
        <time>2023-02-16T09:56:25Z</time>
      </trkpt>
      <trkpt lat="44.83851" lon="6.95461">
        <ele>2147.1</ele>
        <time>2023-02-16T09:56:31Z</time>
      </trkpt>
      <trkpt lat="44.83851" lon="6.95463">
        <ele>2147.4</ele>
        <time>2023-02-16T09:56:32Z</time>
      </trkpt>
      <trkpt lat="44.83851" lon="6.95465">
        <ele>2147.7</ele>
        <time>2023-02-16T09:56:34Z</time>
      </trkpt>
      <trkpt lat="44.83849" lon="6.95474">
        <ele>2148.7</ele>
        <time>2023-02-16T09:56:43Z</time>
      </trkpt>
      <trkpt lat="44.83849" lon="6.95477">
        <ele>2149.1</ele>
        <time>2023-02-16T09:56:46Z</time>
      </trkpt>
      <trkpt lat="44.83849" lon="6.95482">
        <ele>2149.9</ele>
        <time>2023-02-16T09:56:53Z</time>
      </trkpt>
      <trkpt lat="44.83849" lon="6.95482">
        <ele>2149.9</ele>
        <time>2023-02-16T09:56:57Z</time>
      </trkpt>
      <trkpt lat="44.8385" lon="6.95483">
        <ele>2150.3</ele>
        <time>2023-02-16T09:57:06Z</time>
      </trkpt>
      <trkpt lat="44.8385" lon="6.95485">
        <ele>2150.6</ele>
        <time>2023-02-16T09:57:11Z</time>
      </trkpt>
      <trkpt lat="44.83851" lon="6.95485">
        <ele>2150.9</ele>
        <time>2023-02-16T09:57:21Z</time>
      </trkpt>
      <trkpt lat="44.83853" lon="6.95485">
        <ele>2151.5</ele>
        <time>2023-02-16T09:57:32Z</time>
      </trkpt>
      <trkpt lat="44.83853" lon="6.95485">
        <ele>2151.5</ele>
        <time>2023-02-16T09:57:33Z</time>
      </trkpt>
      <trkpt lat="44.83853" lon="6.95486">
        <ele>2151.6</ele>
        <time>2023-02-16T09:57:45Z</time>
      </trkpt>
      <trkpt lat="44.83853" lon="6.95485">
        <ele>2151.5</ele>
        <time>2023-02-16T09:57:57Z</time>
      </trkpt>
      <trkpt lat="44.83853" lon="6.95486">
        <ele>2151.6</ele>
        <time>2023-02-16T09:58:07Z</time>
      </trkpt>
      <trkpt lat="44.83854" lon="6.95483">
        <ele>2151.4</ele>
        <time>2023-02-16T09:58:17Z</time>
      </trkpt>
      <trkpt lat="44.83854" lon="6.95482">
        <ele>2151.2</ele>
        <time>2023-02-16T09:58:30Z</time>
      </trkpt>
      <trkpt lat="44.83854" lon="6.95483">
        <ele>2151.4</ele>
        <time>2023-02-16T09:58:46Z</time>
      </trkpt>
      <trkpt lat="44.83854" lon="6.95484">
        <ele>2151.6</ele>
        <time>2023-02-16T09:59:00Z</time>
      </trkpt>
      <trkpt lat="44.83854" lon="6.95484">
        <ele>2151.6</ele>
        <time>2023-02-16T09:59:10Z</time>
      </trkpt>
      <trkpt lat="44.83854" lon="6.95483">
        <ele>2151.4</ele>
        <time>2023-02-16T09:59:12Z</time>
      </trkpt>
      <trkpt lat="44.83852" lon="6.95481">
        <ele>2150.5</ele>
        <time>2023-02-16T09:59:23Z</time>
      </trkpt>
      <trkpt lat="44.83853" lon="6.9548">
        <ele>2150.6</ele>
        <time>2023-02-16T09:59:35Z</time>
      </trkpt>
      <trkpt lat="44.83854" lon="6.95481">
        <ele>2151</ele>
        <time>2023-02-16T09:59:51Z</time>
      </trkpt>
      <trkpt lat="44.83853" lon="6.95482">
        <ele>2150.9</ele>
        <time>2023-02-16T10:00:08Z</time>
      </trkpt>
      <trkpt lat="44.83854" lon="6.95483">
        <ele>2151.4</ele>
        <time>2023-02-16T10:00:26Z</time>
      </trkpt>
      <trkpt lat="44.83853" lon="6.95483">
        <ele>2151.1</ele>
        <time>2023-02-16T10:00:35Z</time>
      </trkpt>
      <trkpt lat="44.83853" lon="6.95483">
        <ele>2151.1</ele>
        <time>2023-02-16T10:00:38Z</time>
      </trkpt>
      <trkpt lat="44.83854" lon="6.95484">
        <ele>2151.6</ele>
        <time>2023-02-16T10:00:55Z</time>
      </trkpt>
      <trkpt lat="44.83854" lon="6.95485">
        <ele>2151.8</ele>
        <time>2023-02-16T10:01:09Z</time>
      </trkpt>
      <trkpt lat="44.83854" lon="6.95485">
        <ele>2151.8</ele>
        <time>2023-02-16T10:01:22Z</time>
      </trkpt>
      <trkpt lat="44.83854" lon="6.95485">
        <ele>2151.8</ele>
        <time>2023-02-16T10:01:37Z</time>
      </trkpt>
      <trkpt lat="44.83854" lon="6.95485">
        <ele>2151.8</ele>
        <time>2023-02-16T10:01:38Z</time>
      </trkpt>
      <trkpt lat="44.83853" lon="6.95485">
        <ele>2151.5</ele>
        <time>2023-02-16T10:01:50Z</time>
      </trkpt>
      <trkpt lat="44.83853" lon="6.95485">
        <ele>2151.5</ele>
        <time>2023-02-16T10:01:53Z</time>
      </trkpt>
      <trkpt lat="44.83853" lon="6.95484">
        <ele>2151.3</ele>
        <time>2023-02-16T10:02:04Z</time>
      </trkpt>
      <trkpt lat="44.83853" lon="6.95483">
        <ele>2151.1</ele>
        <time>2023-02-16T10:02:23Z</time>
      </trkpt>
      <trkpt lat="44.83853" lon="6.95484">
        <ele>2151.3</ele>
        <time>2023-02-16T10:02:34Z</time>
      </trkpt>
      <trkpt lat="44.83853" lon="6.95485">
        <ele>2151.5</ele>
        <time>2023-02-16T10:02:53Z</time>
      </trkpt>
      <trkpt lat="44.83854" lon="6.95485">
        <ele>2151.8</ele>
        <time>2023-02-16T10:03:11Z</time>
      </trkpt>
      <trkpt lat="44.83854" lon="6.95483">
        <ele>2151.4</ele>
        <time>2023-02-16T10:03:28Z</time>
      </trkpt>
      <trkpt lat="44.83857" lon="6.95481">
        <ele>2151.8</ele>
        <time>2023-02-16T10:03:41Z</time>
      </trkpt>
      <trkpt lat="44.83859" lon="6.95482">
        <ele>2152.5</ele>
        <time>2023-02-16T10:03:43Z</time>
      </trkpt>
      <trkpt lat="44.83864" lon="6.95482">
        <ele>2154</ele>
        <time>2023-02-16T10:03:48Z</time>
      </trkpt>
      <trkpt lat="44.83868" lon="6.95481">
        <ele>2155.1</ele>
        <time>2023-02-16T10:03:52Z</time>
      </trkpt>
      <trkpt lat="44.83871" lon="6.95481">
        <ele>2156.1</ele>
        <time>2023-02-16T10:03:56Z</time>
      </trkpt>
      <trkpt lat="44.83877" lon="6.95479">
        <ele>2157.6</ele>
        <time>2023-02-16T10:04:03Z</time>
      </trkpt>
      <trkpt lat="44.83878" lon="6.95479">
        <ele>2157.9</ele>
        <time>2023-02-16T10:04:04Z</time>
      </trkpt>
      <trkpt lat="44.83883" lon="6.95477">
        <ele>2159.1</ele>
        <time>2023-02-16T10:04:11Z</time>
      </trkpt>
      <trkpt lat="44.83884" lon="6.95476">
        <ele>2159.2</ele>
        <time>2023-02-16T10:04:12Z</time>
      </trkpt>
      <trkpt lat="44.83885" lon="6.95476">
        <ele>2159.6</ele>
        <time>2023-02-16T10:04:13Z</time>
      </trkpt>
      <trkpt lat="44.83886" lon="6.95476">
        <ele>2159.9</ele>
        <time>2023-02-16T10:04:15Z</time>
      </trkpt>
      <trkpt lat="44.83892" lon="6.9547">
        <ele>2161.5</ele>
        <time>2023-02-16T10:04:24Z</time>
      </trkpt>
      <trkpt lat="44.83893" lon="6.95467">
        <ele>2161.8</ele>
        <time>2023-02-16T10:04:29Z</time>
      </trkpt>
      <trkpt lat="44.83895" lon="6.95463">
        <ele>2162.5</ele>
        <time>2023-02-16T10:04:34Z</time>
      </trkpt>
      <trkpt lat="44.83896" lon="6.95462">
        <ele>2162.9</ele>
        <time>2023-02-16T10:04:35Z</time>
      </trkpt>
      <trkpt lat="44.83897" lon="6.95457">
        <ele>2162.9</ele>
        <time>2023-02-16T10:04:42Z</time>
      </trkpt>
      <trkpt lat="44.83898" lon="6.95455">
        <ele>2163.2</ele>
        <time>2023-02-16T10:04:44Z</time>
      </trkpt>
      <trkpt lat="44.83899" lon="6.95453">
        <ele>2163.5</ele>
        <time>2023-02-16T10:04:47Z</time>
      </trkpt>
      <trkpt lat="44.83902" lon="6.95449">
        <ele>2164.6</ele>
        <time>2023-02-16T10:04:52Z</time>
      </trkpt>
      <trkpt lat="44.83903" lon="6.95448">
        <ele>2165.1</ele>
        <time>2023-02-16T10:04:54Z</time>
      </trkpt>
      <trkpt lat="44.83904" lon="6.95446">
        <ele>2165.4</ele>
        <time>2023-02-16T10:04:57Z</time>
      </trkpt>
      <trkpt lat="44.83908" lon="6.95442">
        <ele>2167</ele>
        <time>2023-02-16T10:05:04Z</time>
      </trkpt>
      <trkpt lat="44.83909" lon="6.95442">
        <ele>2167.5</ele>
        <time>2023-02-16T10:05:05Z</time>
      </trkpt>
      <trkpt lat="44.83912" lon="6.95439">
        <ele>2168.7</ele>
        <time>2023-02-16T10:05:10Z</time>
      </trkpt>
      <trkpt lat="44.83914" lon="6.95436">
        <ele>2169.4</ele>
        <time>2023-02-16T10:05:15Z</time>
      </trkpt>
      <trkpt lat="44.83914" lon="6.95435">
        <ele>2169.2</ele>
        <time>2023-02-16T10:05:16Z</time>
      </trkpt>
      <trkpt lat="44.83916" lon="6.95433">
        <ele>2170</ele>
        <time>2023-02-16T10:05:19Z</time>
      </trkpt>
      <trkpt lat="44.83916" lon="6.95432">
        <ele>2169.9</ele>
        <time>2023-02-16T10:05:20Z</time>
      </trkpt>
      <trkpt lat="44.8392" lon="6.95429">
        <ele>2171.1</ele>
        <time>2023-02-16T10:05:26Z</time>
      </trkpt>
      <trkpt lat="44.83921" lon="6.95428">
        <ele>2171.4</ele>
        <time>2023-02-16T10:05:28Z</time>
      </trkpt>
      <trkpt lat="44.83923" lon="6.95427">
        <ele>2172.1</ele>
        <time>2023-02-16T10:05:31Z</time>
      </trkpt>
      <trkpt lat="44.83926" lon="6.95425">
        <ele>2173</ele>
        <time>2023-02-16T10:05:35Z</time>
      </trkpt>
      <trkpt lat="44.83929" lon="6.95423">
        <ele>2173.9</ele>
        <time>2023-02-16T10:05:39Z</time>
      </trkpt>
      <trkpt lat="44.83932" lon="6.9542">
        <ele>2174.6</ele>
        <time>2023-02-16T10:05:45Z</time>
      </trkpt>
      <trkpt lat="44.83933" lon="6.9542">
        <ele>2175</ele>
        <time>2023-02-16T10:05:46Z</time>
      </trkpt>
      <trkpt lat="44.83938" lon="6.95416">
        <ele>2176.3</ele>
        <time>2023-02-16T10:05:53Z</time>
      </trkpt>
      <trkpt lat="44.83941" lon="6.95415">
        <ele>2177.3</ele>
        <time>2023-02-16T10:05:57Z</time>
      </trkpt>
      <trkpt lat="44.83945" lon="6.95413">
        <ele>2178.6</ele>
        <time>2023-02-16T10:06:04Z</time>
      </trkpt>
      <trkpt lat="44.83946" lon="6.95413">
        <ele>2179</ele>
        <time>2023-02-16T10:06:08Z</time>
      </trkpt>
      <trkpt lat="44.83945" lon="6.95413">
        <ele>2178.6</ele>
        <time>2023-02-16T10:06:24Z</time>
      </trkpt>
      <trkpt lat="44.83945" lon="6.95415">
        <ele>2178.9</ele>
        <time>2023-02-16T10:06:36Z</time>
      </trkpt>
      <trkpt lat="44.83947" lon="6.95414">
        <ele>2179.7</ele>
        <time>2023-02-16T10:06:39Z</time>
      </trkpt>
      <trkpt lat="44.8395" lon="6.95412">
        <ele>2180.7</ele>
        <time>2023-02-16T10:06:43Z</time>
      </trkpt>
      <trkpt lat="44.83952" lon="6.95411">
        <ele>2181.4</ele>
        <time>2023-02-16T10:06:45Z</time>
      </trkpt>
      <trkpt lat="44.83957" lon="6.95409">
        <ele>2183.4</ele>
        <time>2023-02-16T10:06:52Z</time>
      </trkpt>
      <trkpt lat="44.83959" lon="6.95408">
        <ele>2184.2</ele>
        <time>2023-02-16T10:06:55Z</time>
      </trkpt>
      <trkpt lat="44.8396" lon="6.95408">
        <ele>2184.7</ele>
        <time>2023-02-16T10:06:57Z</time>
      </trkpt>
      <trkpt lat="44.83961" lon="6.95407">
        <ele>2185</ele>
        <time>2023-02-16T10:07:05Z</time>
      </trkpt>
      <trkpt lat="44.83962" lon="6.9541">
        <ele>2185.8</ele>
        <time>2023-02-16T10:07:18Z</time>
      </trkpt>
      <trkpt lat="44.83962" lon="6.95411">
        <ele>2186</ele>
        <time>2023-02-16T10:07:19Z</time>
      </trkpt>
      <trkpt lat="44.83963" lon="6.95418">
        <ele>2187.2</ele>
        <time>2023-02-16T10:07:25Z</time>
      </trkpt>
      <trkpt lat="44.83963" lon="6.95419">
        <ele>2187.4</ele>
        <time>2023-02-16T10:07:26Z</time>
      </trkpt>
      <trkpt lat="44.83963" lon="6.95423">
        <ele>2188</ele>
        <time>2023-02-16T10:07:29Z</time>
      </trkpt>
      <trkpt lat="44.83964" lon="6.95427">
        <ele>2189</ele>
        <time>2023-02-16T10:07:33Z</time>
      </trkpt>
      <trkpt lat="44.83964" lon="6.95429">
        <ele>2189.4</ele>
        <time>2023-02-16T10:07:35Z</time>
      </trkpt>
      <trkpt lat="44.83963" lon="6.95437">
        <ele>2190.2</ele>
        <time>2023-02-16T10:07:42Z</time>
      </trkpt>
      <trkpt lat="44.83964" lon="6.95441">
        <ele>2191.2</ele>
        <time>2023-02-16T10:07:47Z</time>
      </trkpt>
      <trkpt lat="44.83964" lon="6.95441">
        <ele>2191.2</ele>
        <time>2023-02-16T10:07:48Z</time>
      </trkpt>
      <trkpt lat="44.83969" lon="6.9544">
        <ele>2193.1</ele>
        <time>2023-02-16T10:07:55Z</time>
      </trkpt>
      <trkpt lat="44.8397" lon="6.95439">
        <ele>2193.3</ele>
        <time>2023-02-16T10:07:57Z</time>
      </trkpt>
      <trkpt lat="44.83972" lon="6.95437">
        <ele>2193.8</ele>
        <time>2023-02-16T10:08:00Z</time>
      </trkpt>
      <trkpt lat="44.83975" lon="6.95434">
        <ele>2194.8</ele>
        <time>2023-02-16T10:08:05Z</time>
      </trkpt>
      <trkpt lat="44.83977" lon="6.95432">
        <ele>2195.5</ele>
        <time>2023-02-16T10:08:09Z</time>
      </trkpt>
      <trkpt lat="44.83978" lon="6.9543">
        <ele>2195.7</ele>
        <time>2023-02-16T10:08:10Z</time>
      </trkpt>
      <trkpt lat="44.83981" lon="6.95431">
        <ele>2197.3</ele>
        <time>2023-02-16T10:08:17Z</time>
      </trkpt>
      <trkpt lat="44.83982" lon="6.95436">
        <ele>2198.3</ele>
        <time>2023-02-16T10:08:23Z</time>
      </trkpt>
      <trkpt lat="44.83982" lon="6.95437">
        <ele>2198.4</ele>
        <time>2023-02-16T10:08:24Z</time>
      </trkpt>
      <trkpt lat="44.83982" lon="6.95441">
        <ele>2198.9</ele>
        <time>2023-02-16T10:08:27Z</time>
      </trkpt>
      <trkpt lat="44.83982" lon="6.95445">
        <ele>2199.3</ele>
        <time>2023-02-16T10:08:31Z</time>
      </trkpt>
      <trkpt lat="44.83982" lon="6.95449">
        <ele>2199.8</ele>
        <time>2023-02-16T10:08:35Z</time>
      </trkpt>
      <trkpt lat="44.83984" lon="6.95454">
        <ele>2201.3</ele>
        <time>2023-02-16T10:08:41Z</time>
      </trkpt>
      <trkpt lat="44.83984" lon="6.95455">
        <ele>2201.4</ele>
        <time>2023-02-16T10:08:42Z</time>
      </trkpt>
      <trkpt lat="44.83986" lon="6.95454">
        <ele>2202.2</ele>
        <time>2023-02-16T10:08:50Z</time>
      </trkpt>
      <trkpt lat="44.8399" lon="6.95451">
        <ele>2203.5</ele>
        <time>2023-02-16T10:08:57Z</time>
      </trkpt>
      <trkpt lat="44.83992" lon="6.95449">
        <ele>2204.2</ele>
        <time>2023-02-16T10:09:00Z</time>
      </trkpt>
      <trkpt lat="44.83995" lon="6.95447">
        <ele>2205.2</ele>
        <time>2023-02-16T10:09:04Z</time>
      </trkpt>
      <trkpt lat="44.83998" lon="6.95441">
        <ele>2206</ele>
        <time>2023-02-16T10:09:11Z</time>
      </trkpt>
      <trkpt lat="44.84" lon="6.95438">
        <ele>2206.8</ele>
        <time>2023-02-16T10:09:15Z</time>
      </trkpt>
      <trkpt lat="44.84002" lon="6.95433">
        <ele>2207.7</ele>
        <time>2023-02-16T10:09:20Z</time>
      </trkpt>
      <trkpt lat="44.84003" lon="6.95432">
        <ele>2208.2</ele>
        <time>2023-02-16T10:09:22Z</time>
      </trkpt>
      <trkpt lat="44.84004" lon="6.95429">
        <ele>2208.7</ele>
        <time>2023-02-16T10:09:25Z</time>
      </trkpt>
      <trkpt lat="44.84007" lon="6.95425">
        <ele>2210.3</ele>
        <time>2023-02-16T10:09:32Z</time>
      </trkpt>
      <trkpt lat="44.84009" lon="6.95417">
        <ele>2211.2</ele>
        <time>2023-02-16T10:09:39Z</time>
      </trkpt>
      <trkpt lat="44.84009" lon="6.95414">
        <ele>2211.2</ele>
        <time>2023-02-16T10:09:42Z</time>
      </trkpt>
      <trkpt lat="44.84009" lon="6.95412">
        <ele>2211.2</ele>
        <time>2023-02-16T10:09:45Z</time>
      </trkpt>
      <trkpt lat="44.8401" lon="6.95409">
        <ele>2211.8</ele>
        <time>2023-02-16T10:09:50Z</time>
      </trkpt>
      <trkpt lat="44.8401" lon="6.95408">
        <ele>2211.8</ele>
        <time>2023-02-16T10:09:51Z</time>
      </trkpt>
      <trkpt lat="44.84013" lon="6.95412">
        <ele>2213.5</ele>
        <time>2023-02-16T10:10:01Z</time>
      </trkpt>
      <trkpt lat="44.84015" lon="6.95414">
        <ele>2214.6</ele>
        <time>2023-02-16T10:10:04Z</time>
      </trkpt>
      <trkpt lat="44.84015" lon="6.95415">
        <ele>2214.6</ele>
        <time>2023-02-16T10:10:05Z</time>
      </trkpt>
      <trkpt lat="44.84017" lon="6.95418">
        <ele>2215.8</ele>
        <time>2023-02-16T10:10:09Z</time>
      </trkpt>
      <trkpt lat="44.84019" lon="6.95423">
        <ele>2217</ele>
        <time>2023-02-16T10:10:16Z</time>
      </trkpt>
      <trkpt lat="44.84021" lon="6.95429">
        <ele>2218.2</ele>
        <time>2023-02-16T10:10:22Z</time>
      </trkpt>
      <trkpt lat="44.84023" lon="6.95434">
        <ele>2219.4</ele>
        <time>2023-02-16T10:10:27Z</time>
      </trkpt>
      <trkpt lat="44.84024" lon="6.95436">
        <ele>2219.9</ele>
        <time>2023-02-16T10:10:30Z</time>
      </trkpt>
      <trkpt lat="44.84025" lon="6.95434">
        <ele>2220.5</ele>
        <time>2023-02-16T10:10:36Z</time>
      </trkpt>
      <trkpt lat="44.84025" lon="6.95432">
        <ele>2220.5</ele>
        <time>2023-02-16T10:10:38Z</time>
      </trkpt>
      <trkpt lat="44.84027" lon="6.95428">
        <ele>2221.6</ele>
        <time>2023-02-16T10:10:43Z</time>
      </trkpt>
      <trkpt lat="44.84028" lon="6.95424">
        <ele>2222.1</ele>
        <time>2023-02-16T10:10:49Z</time>
      </trkpt>
      <trkpt lat="44.84028" lon="6.95424">
        <ele>2222.1</ele>
        <time>2023-02-16T10:10:50Z</time>
      </trkpt>
      <trkpt lat="44.84028" lon="6.95422">
        <ele>2222.1</ele>
        <time>2023-02-16T10:10:57Z</time>
      </trkpt>
      <trkpt lat="44.84028" lon="6.95422">
        <ele>2222.1</ele>
        <time>2023-02-16T10:11:01Z</time>
      </trkpt>
      <trkpt lat="44.84032" lon="6.95428">
        <ele>2224.1</ele>
        <time>2023-02-16T10:11:10Z</time>
      </trkpt>
      <trkpt lat="44.84034" lon="6.9543">
        <ele>2225.1</ele>
        <time>2023-02-16T10:11:14Z</time>
      </trkpt>
      <trkpt lat="44.84036" lon="6.95433">
        <ele>2226.2</ele>
        <time>2023-02-16T10:11:20Z</time>
      </trkpt>
      <trkpt lat="44.84036" lon="6.95434">
        <ele>2226.3</ele>
        <time>2023-02-16T10:11:21Z</time>
      </trkpt>
      <trkpt lat="44.84037" lon="6.95435">
        <ele>2226.9</ele>
        <time>2023-02-16T10:11:23Z</time>
      </trkpt>
      <trkpt lat="44.84037" lon="6.9544">
        <ele>2227.1</ele>
        <time>2023-02-16T10:11:28Z</time>
      </trkpt>
      <trkpt lat="44.84039" lon="6.95445">
        <ele>2228.5</ele>
        <time>2023-02-16T10:11:33Z</time>
      </trkpt>
      <trkpt lat="44.84039" lon="6.95446">
        <ele>2228.6</ele>
        <time>2023-02-16T10:11:35Z</time>
      </trkpt>
      <trkpt lat="44.84039" lon="6.95447">
        <ele>2228.8</ele>
        <time>2023-02-16T10:11:46Z</time>
      </trkpt>
      <trkpt lat="44.8404" lon="6.95445">
        <ele>2229.1</ele>
        <time>2023-02-16T10:11:59Z</time>
      </trkpt>
      <trkpt lat="44.84041" lon="6.95443">
        <ele>2229.5</ele>
        <time>2023-02-16T10:12:01Z</time>
      </trkpt>
      <trkpt lat="44.84044" lon="6.95437">
        <ele>2230.7</ele>
        <time>2023-02-16T10:12:08Z</time>
      </trkpt>
      <trkpt lat="44.84045" lon="6.95435">
        <ele>2231.1</ele>
        <time>2023-02-16T10:12:10Z</time>
      </trkpt>
      <trkpt lat="44.84045" lon="6.95432">
        <ele>2230.8</ele>
        <time>2023-02-16T10:12:16Z</time>
      </trkpt>
      <trkpt lat="44.84045" lon="6.95432">
        <ele>2230.8</ele>
        <time>2023-02-16T10:12:20Z</time>
      </trkpt>
      <trkpt lat="44.84047" lon="6.95436">
        <ele>2232.2</ele>
        <time>2023-02-16T10:12:24Z</time>
      </trkpt>
      <trkpt lat="44.84047" lon="6.95437">
        <ele>2232.3</ele>
        <time>2023-02-16T10:12:25Z</time>
      </trkpt>
      <trkpt lat="44.84048" lon="6.95439">
        <ele>2233.1</ele>
        <time>2023-02-16T10:12:27Z</time>
      </trkpt>
      <trkpt lat="44.84048" lon="6.95441">
        <ele>2233.3</ele>
        <time>2023-02-16T10:12:29Z</time>
      </trkpt>
      <trkpt lat="44.84049" lon="6.95446">
        <ele>2234.4</ele>
        <time>2023-02-16T10:12:33Z</time>
      </trkpt>
      <trkpt lat="44.84049" lon="6.9545">
        <ele>2234.7</ele>
        <time>2023-02-16T10:12:37Z</time>
      </trkpt>
      <trkpt lat="44.84049" lon="6.95456">
        <ele>2235.3</ele>
        <time>2023-02-16T10:12:43Z</time>
      </trkpt>
      <trkpt lat="44.84049" lon="6.95459">
        <ele>2235.5</ele>
        <time>2023-02-16T10:12:48Z</time>
      </trkpt>
      <trkpt lat="44.8405" lon="6.95459">
        <ele>2236.1</ele>
        <time>2023-02-16T10:12:53Z</time>
      </trkpt>
      <trkpt lat="44.84053" lon="6.95456">
        <ele>2237.4</ele>
        <time>2023-02-16T10:12:58Z</time>
      </trkpt>
      <trkpt lat="44.84055" lon="6.95453">
        <ele>2238.3</ele>
        <time>2023-02-16T10:13:01Z</time>
      </trkpt>
      <trkpt lat="44.84056" lon="6.95451">
        <ele>2238.7</ele>
        <time>2023-02-16T10:13:03Z</time>
      </trkpt>
      <trkpt lat="44.84057" lon="6.9545">
        <ele>2239.1</ele>
        <time>2023-02-16T10:13:05Z</time>
      </trkpt>
      <trkpt lat="44.84058" lon="6.95444">
        <ele>2239</ele>
        <time>2023-02-16T10:13:10Z</time>
      </trkpt>
      <trkpt lat="44.84059" lon="6.95441">
        <ele>2238.9</ele>
        <time>2023-02-16T10:13:13Z</time>
      </trkpt>
      <trkpt lat="44.8406" lon="6.95436">
        <ele>2238.5</ele>
        <time>2023-02-16T10:13:18Z</time>
      </trkpt>
      <trkpt lat="44.84061" lon="6.95434">
        <ele>2238.6</ele>
        <time>2023-02-16T10:13:22Z</time>
      </trkpt>
      <trkpt lat="44.84062" lon="6.95433">
        <ele>2238.8</ele>
        <time>2023-02-16T10:13:34Z</time>
      </trkpt>
      <trkpt lat="44.84063" lon="6.95433">
        <ele>2239.1</ele>
        <time>2023-02-16T10:13:52Z</time>
      </trkpt>
      <trkpt lat="44.84067" lon="6.95433">
        <ele>2240.6</ele>
        <time>2023-02-16T10:14:03Z</time>
      </trkpt>
      <trkpt lat="44.84068" lon="6.95433">
        <ele>2241</ele>
        <time>2023-02-16T10:14:04Z</time>
      </trkpt>
      <trkpt lat="44.84068" lon="6.95434">
        <ele>2241.2</ele>
        <time>2023-02-16T10:14:05Z</time>
      </trkpt>
      <trkpt lat="44.8407" lon="6.95436">
        <ele>2242.4</ele>
        <time>2023-02-16T10:14:08Z</time>
      </trkpt>
      <trkpt lat="44.84071" lon="6.95441">
        <ele>2243.9</ele>
        <time>2023-02-16T10:14:13Z</time>
      </trkpt>
      <trkpt lat="44.84071" lon="6.95444">
        <ele>2244.6</ele>
        <time>2023-02-16T10:14:16Z</time>
      </trkpt>
      <trkpt lat="44.84072" lon="6.95452">
        <ele>2246.1</ele>
        <time>2023-02-16T10:14:23Z</time>
      </trkpt>
      <trkpt lat="44.84074" lon="6.95454">
        <ele>2247.3</ele>
        <time>2023-02-16T10:14:26Z</time>
      </trkpt>
      <trkpt lat="44.84075" lon="6.95456">
        <ele>2248.1</ele>
        <time>2023-02-16T10:14:29Z</time>
      </trkpt>
      <trkpt lat="44.84077" lon="6.9546">
        <ele>2249.7</ele>
        <time>2023-02-16T10:14:34Z</time>
      </trkpt>
      <trkpt lat="44.84079" lon="6.95462">
        <ele>2251</ele>
        <time>2023-02-16T10:14:38Z</time>
      </trkpt>
      <trkpt lat="44.84081" lon="6.95464">
        <ele>2252.3</ele>
        <time>2023-02-16T10:14:41Z</time>
      </trkpt>
      <trkpt lat="44.84084" lon="6.95464">
        <ele>2253.8</ele>
        <time>2023-02-16T10:14:48Z</time>
      </trkpt>
      <trkpt lat="44.84086" lon="6.95464">
        <ele>2254.8</ele>
        <time>2023-02-16T10:14:50Z</time>
      </trkpt>
      <trkpt lat="44.84087" lon="6.95463">
        <ele>2255.1</ele>
        <time>2023-02-16T10:14:51Z</time>
      </trkpt>
      <trkpt lat="44.84088" lon="6.95461">
        <ele>2255.1</ele>
        <time>2023-02-16T10:14:53Z</time>
      </trkpt>
      <trkpt lat="44.84091" lon="6.95458">
        <ele>2255.9</ele>
        <time>2023-02-16T10:14:58Z</time>
      </trkpt>
      <trkpt lat="44.84092" lon="6.95458">
        <ele>2256.3</ele>
        <time>2023-02-16T10:15:00Z</time>
      </trkpt>
      <trkpt lat="44.84095" lon="6.95457">
        <ele>2257.4</ele>
        <time>2023-02-16T10:15:03Z</time>
      </trkpt>
      <trkpt lat="44.84098" lon="6.95455">
        <ele>2258.3</ele>
        <time>2023-02-16T10:15:08Z</time>
      </trkpt>
      <trkpt lat="44.84101" lon="6.95454">
        <ele>2259.4</ele>
        <time>2023-02-16T10:15:13Z</time>
      </trkpt>
      <trkpt lat="44.84102" lon="6.95453">
        <ele>2259.6</ele>
        <time>2023-02-16T10:15:15Z</time>
      </trkpt>
      <trkpt lat="44.84105" lon="6.95451">
        <ele>2260.3</ele>
        <time>2023-02-16T10:15:21Z</time>
      </trkpt>
      <trkpt lat="44.84107" lon="6.95449">
        <ele>2260.6</ele>
        <time>2023-02-16T10:15:24Z</time>
      </trkpt>
      <trkpt lat="44.84107" lon="6.95448">
        <ele>2260.3</ele>
        <time>2023-02-16T10:15:26Z</time>
      </trkpt>
      <trkpt lat="44.84107" lon="6.95447">
        <ele>2260.1</ele>
        <time>2023-02-16T10:15:33Z</time>
      </trkpt>
      <trkpt lat="44.8411" lon="6.95446">
        <ele>2261</ele>
        <time>2023-02-16T10:15:44Z</time>
      </trkpt>
      <trkpt lat="44.84111" lon="6.95446">
        <ele>2261.4</ele>
        <time>2023-02-16T10:15:45Z</time>
      </trkpt>
      <trkpt lat="44.84113" lon="6.95446">
        <ele>2262.1</ele>
        <time>2023-02-16T10:15:47Z</time>
      </trkpt>
      <trkpt lat="44.84118" lon="6.95447">
        <ele>2264</ele>
        <time>2023-02-16T10:15:54Z</time>
      </trkpt>
      <trkpt lat="44.84123" lon="6.95446">
        <ele>2265.3</ele>
        <time>2023-02-16T10:16:00Z</time>
      </trkpt>
      <trkpt lat="44.84126" lon="6.95445">
        <ele>2266</ele>
        <time>2023-02-16T10:16:05Z</time>
      </trkpt>
      <trkpt lat="44.84127" lon="6.95445">
        <ele>2266.3</ele>
        <time>2023-02-16T10:16:06Z</time>
      </trkpt>
      <trkpt lat="44.84131" lon="6.95443">
        <ele>2266.9</ele>
        <time>2023-02-16T10:16:12Z</time>
      </trkpt>
      <trkpt lat="44.84134" lon="6.95443">
        <ele>2267.9</ele>
        <time>2023-02-16T10:16:16Z</time>
      </trkpt>
      <trkpt lat="44.84134" lon="6.95443">
        <ele>2267.9</ele>
        <time>2023-02-16T10:16:17Z</time>
      </trkpt>
      <trkpt lat="44.84138" lon="6.95444">
        <ele>2269.5</ele>
        <time>2023-02-16T10:16:22Z</time>
      </trkpt>
      <trkpt lat="44.84142" lon="6.95447">
        <ele>2271.2</ele>
        <time>2023-02-16T10:16:27Z</time>
      </trkpt>
      <trkpt lat="44.84143" lon="6.95447">
        <ele>2271.3</ele>
        <time>2023-02-16T10:16:28Z</time>
      </trkpt>
      <trkpt lat="44.84149" lon="6.95452">
        <ele>2273.7</ele>
        <time>2023-02-16T10:16:36Z</time>
      </trkpt>
      <trkpt lat="44.84153" lon="6.95453">
        <ele>2274.7</ele>
        <time>2023-02-16T10:16:42Z</time>
      </trkpt>
      <trkpt lat="44.84154" lon="6.95453">
        <ele>2274.8</ele>
        <time>2023-02-16T10:16:44Z</time>
      </trkpt>
      <trkpt lat="44.84158" lon="6.95454">
        <ele>2275.7</ele>
        <time>2023-02-16T10:16:49Z</time>
      </trkpt>
      <trkpt lat="44.84159" lon="6.95455">
        <ele>2276.2</ele>
        <time>2023-02-16T10:16:52Z</time>
      </trkpt>
      <trkpt lat="44.84159" lon="6.95454">
        <ele>2275.9</ele>
        <time>2023-02-16T10:16:55Z</time>
      </trkpt>
      <trkpt lat="44.84159" lon="6.95456">
        <ele>2276.5</ele>
        <time>2023-02-16T10:17:06Z</time>
      </trkpt>
      <trkpt lat="44.84158" lon="6.95461">
        <ele>2277.9</ele>
        <time>2023-02-16T10:17:12Z</time>
      </trkpt>
      <trkpt lat="44.84157" lon="6.95465">
        <ele>2279</ele>
        <time>2023-02-16T10:17:16Z</time>
      </trkpt>
      <trkpt lat="44.84156" lon="6.95468">
        <ele>2279.8</ele>
        <time>2023-02-16T10:17:19Z</time>
      </trkpt>
      <trkpt lat="44.84155" lon="6.9547">
        <ele>2280.2</ele>
        <time>2023-02-16T10:17:22Z</time>
      </trkpt>
      <trkpt lat="44.84155" lon="6.95471">
        <ele>2280.5</ele>
        <time>2023-02-16T10:17:23Z</time>
      </trkpt>
      <trkpt lat="44.84154" lon="6.95477">
        <ele>2282.1</ele>
        <time>2023-02-16T10:17:29Z</time>
      </trkpt>
      <trkpt lat="44.84154" lon="6.95477">
        <ele>2282.1</ele>
        <time>2023-02-16T10:17:30Z</time>
      </trkpt>
      <trkpt lat="44.84154" lon="6.95481">
        <ele>2283.2</ele>
        <time>2023-02-16T10:17:34Z</time>
      </trkpt>
      <trkpt lat="44.84153" lon="6.95485">
        <ele>2284.2</ele>
        <time>2023-02-16T10:17:40Z</time>
      </trkpt>
      <trkpt lat="44.84152" lon="6.95488">
        <ele>2284.9</ele>
        <time>2023-02-16T10:17:44Z</time>
      </trkpt>
      <trkpt lat="44.84152" lon="6.95489">
        <ele>2285.2</ele>
        <time>2023-02-16T10:17:45Z</time>
      </trkpt>
      <trkpt lat="44.84151" lon="6.95494">
        <ele>2286.5</ele>
        <time>2023-02-16T10:17:50Z</time>
      </trkpt>
      <trkpt lat="44.84152" lon="6.95497">
        <ele>2287.5</ele>
        <time>2023-02-16T10:17:55Z</time>
      </trkpt>
      <trkpt lat="44.84153" lon="6.95497">
        <ele>2287.7</ele>
        <time>2023-02-16T10:17:56Z</time>
      </trkpt>
      <trkpt lat="44.84157" lon="6.95498">
        <ele>2288.7</ele>
        <time>2023-02-16T10:18:03Z</time>
      </trkpt>
      <trkpt lat="44.8416" lon="6.95498">
        <ele>2289.2</ele>
        <time>2023-02-16T10:18:08Z</time>
      </trkpt>
      <trkpt lat="44.84161" lon="6.95497">
        <ele>2289.1</ele>
        <time>2023-02-16T10:18:09Z</time>
      </trkpt>
      <trkpt lat="44.84166" lon="6.95496">
        <ele>2289.7</ele>
        <time>2023-02-16T10:18:16Z</time>
      </trkpt>
      <trkpt lat="44.84169" lon="6.95496">
        <ele>2290.5</ele>
        <time>2023-02-16T10:18:21Z</time>
      </trkpt>
      <trkpt lat="44.8417" lon="6.95497">
        <ele>2291.1</ele>
        <time>2023-02-16T10:18:23Z</time>
      </trkpt>
      <trkpt lat="44.84173" lon="6.95497">
        <ele>2291.9</ele>
        <time>2023-02-16T10:18:27Z</time>
      </trkpt>
      <trkpt lat="44.84174" lon="6.95497">
        <ele>2292.2</ele>
        <time>2023-02-16T10:18:33Z</time>
      </trkpt>
      <trkpt lat="44.84176" lon="6.95496">
        <ele>2292.4</ele>
        <time>2023-02-16T10:18:46Z</time>
      </trkpt>
      <trkpt lat="44.84181" lon="6.95497">
        <ele>2294.2</ele>
        <time>2023-02-16T10:18:53Z</time>
      </trkpt>
      <trkpt lat="44.84188" lon="6.95498">
        <ele>2296.5</ele>
        <time>2023-02-16T10:19:00Z</time>
      </trkpt>
      <trkpt lat="44.84189" lon="6.95498">
        <ele>2296.7</ele>
        <time>2023-02-16T10:19:02Z</time>
      </trkpt>
      <trkpt lat="44.84194" lon="6.95497">
        <ele>2297.8</ele>
        <time>2023-02-16T10:19:09Z</time>
      </trkpt>
      <trkpt lat="44.84196" lon="6.95496">
        <ele>2297.9</ele>
        <time>2023-02-16T10:19:13Z</time>
      </trkpt>
      <trkpt lat="44.84197" lon="6.95496">
        <ele>2298.2</ele>
        <time>2023-02-16T10:19:14Z</time>
      </trkpt>
      <trkpt lat="44.842" lon="6.95495">
        <ele>2298.6</ele>
        <time>2023-02-16T10:19:18Z</time>
      </trkpt>
      <trkpt lat="44.84202" lon="6.95496">
        <ele>2299.4</ele>
        <time>2023-02-16T10:19:23Z</time>
      </trkpt>
      <trkpt lat="44.84206" lon="6.95495">
        <ele>2300</ele>
        <time>2023-02-16T10:19:28Z</time>
      </trkpt>
      <trkpt lat="44.84209" lon="6.95496">
        <ele>2301.2</ele>
        <time>2023-02-16T10:19:35Z</time>
      </trkpt>
      <trkpt lat="44.8421" lon="6.95495">
        <ele>2301</ele>
        <time>2023-02-16T10:19:49Z</time>
      </trkpt>
      <trkpt lat="44.84211" lon="6.95494">
        <ele>2300.9</ele>
        <time>2023-02-16T10:20:00Z</time>
      </trkpt>
      <trkpt lat="44.84211" lon="6.95496">
        <ele>2301.6</ele>
        <time>2023-02-16T10:20:05Z</time>
      </trkpt>
      <trkpt lat="44.84209" lon="6.95503">
        <ele>2303.8</ele>
        <time>2023-02-16T10:20:12Z</time>
      </trkpt>
      <trkpt lat="44.84208" lon="6.95506">
        <ele>2304.7</ele>
        <time>2023-02-16T10:20:15Z</time>
      </trkpt>
      <trkpt lat="44.84206" lon="6.95509">
        <ele>2305.3</ele>
        <time>2023-02-16T10:20:18Z</time>
      </trkpt>
      <trkpt lat="44.84204" lon="6.95515">
        <ele>2307</ele>
        <time>2023-02-16T10:20:24Z</time>
      </trkpt>
      <trkpt lat="44.84203" lon="6.95518">
        <ele>2307.8</ele>
        <time>2023-02-16T10:20:28Z</time>
      </trkpt>
      <trkpt lat="44.84204" lon="6.95522">
        <ele>2309.6</ele>
        <time>2023-02-16T10:20:34Z</time>
      </trkpt>
      <trkpt lat="44.84205" lon="6.95522">
        <ele>2309.9</ele>
        <time>2023-02-16T10:20:37Z</time>
      </trkpt>
      <trkpt lat="44.84207" lon="6.95522">
        <ele>2310.4</ele>
        <time>2023-02-16T10:20:41Z</time>
      </trkpt>
      <trkpt lat="44.8421" lon="6.95523">
        <ele>2311.7</ele>
        <time>2023-02-16T10:20:49Z</time>
      </trkpt>
      <trkpt lat="44.84211" lon="6.95523">
        <ele>2311.9</ele>
        <time>2023-02-16T10:20:50Z</time>
      </trkpt>
      <trkpt lat="44.84213" lon="6.95523">
        <ele>2312.5</ele>
        <time>2023-02-16T10:20:53Z</time>
      </trkpt>
      <trkpt lat="44.84217" lon="6.95522">
        <ele>2313.2</ele>
        <time>2023-02-16T10:21:00Z</time>
      </trkpt>
      <trkpt lat="44.84221" lon="6.95523">
        <ele>2314.8</ele>
        <time>2023-02-16T10:21:08Z</time>
      </trkpt>
      <trkpt lat="44.84223" lon="6.95523">
        <ele>2315.3</ele>
        <time>2023-02-16T10:21:12Z</time>
      </trkpt>
      <trkpt lat="44.84225" lon="6.95523">
        <ele>2315.7</ele>
        <time>2023-02-16T10:21:15Z</time>
      </trkpt>
      <trkpt lat="44.84227" lon="6.95522">
        <ele>2315.7</ele>
        <time>2023-02-16T10:21:21Z</time>
      </trkpt>
      <trkpt lat="44.84228" lon="6.95523">
        <ele>2316.4</ele>
        <time>2023-02-16T10:21:26Z</time>
      </trkpt>
      <trkpt lat="44.84227" lon="6.95526">
        <ele>2317.3</ele>
        <time>2023-02-16T10:21:32Z</time>
      </trkpt>
      <trkpt lat="44.84226" lon="6.95528">
        <ele>2317.9</ele>
        <time>2023-02-16T10:21:35Z</time>
      </trkpt>
      <trkpt lat="44.84226" lon="6.9553">
        <ele>2318.4</ele>
        <time>2023-02-16T10:21:39Z</time>
      </trkpt>
      <trkpt lat="44.84225" lon="6.95532">
        <ele>2318.6</ele>
        <time>2023-02-16T10:21:41Z</time>
      </trkpt>
      <trkpt lat="44.84223" lon="6.95536">
        <ele>2319.2</ele>
        <time>2023-02-16T10:21:47Z</time>
      </trkpt>
      <trkpt lat="44.84222" lon="6.95537">
        <ele>2319.3</ele>
        <time>2023-02-16T10:21:48Z</time>
      </trkpt>
      <trkpt lat="44.84221" lon="6.95538">
        <ele>2319.2</ele>
        <time>2023-02-16T10:21:53Z</time>
      </trkpt>
      <trkpt lat="44.84221" lon="6.95538">
        <ele>2319.2</ele>
        <time>2023-02-16T10:21:59Z</time>
      </trkpt>
      <trkpt lat="44.8422" lon="6.95542">
        <ele>2320</ele>
        <time>2023-02-16T10:22:11Z</time>
      </trkpt>
      <trkpt lat="44.84219" lon="6.95548">
        <ele>2321.3</ele>
        <time>2023-02-16T10:22:17Z</time>
      </trkpt>
      <trkpt lat="44.84219" lon="6.95553">
        <ele>2322.5</ele>
        <time>2023-02-16T10:22:22Z</time>
      </trkpt>
      <trkpt lat="44.8422" lon="6.95555">
        <ele>2323.3</ele>
        <time>2023-02-16T10:22:24Z</time>
      </trkpt>
      <trkpt lat="44.8422" lon="6.9556">
        <ele>2324.3</ele>
        <time>2023-02-16T10:22:29Z</time>
      </trkpt>
      <trkpt lat="44.84221" lon="6.95564">
        <ele>2325.2</ele>
        <time>2023-02-16T10:22:33Z</time>
      </trkpt>
      <trkpt lat="44.84222" lon="6.95566">
        <ele>2325.8</ele>
        <time>2023-02-16T10:22:36Z</time>
      </trkpt>
      <trkpt lat="44.84223" lon="6.95568">
        <ele>2326.4</ele>
        <time>2023-02-16T10:22:39Z</time>
      </trkpt>
      <trkpt lat="44.84227" lon="6.9557">
        <ele>2327.4</ele>
        <time>2023-02-16T10:22:45Z</time>
      </trkpt>
      <trkpt lat="44.84229" lon="6.9557">
        <ele>2327.7</ele>
        <time>2023-02-16T10:22:48Z</time>
      </trkpt>
      <trkpt lat="44.8423" lon="6.95571">
        <ele>2328</ele>
        <time>2023-02-16T10:22:51Z</time>
      </trkpt>
      <trkpt lat="44.84234" lon="6.95573">
        <ele>2329</ele>
        <time>2023-02-16T10:22:57Z</time>
      </trkpt>
      <trkpt lat="44.84235" lon="6.95573">
        <ele>2329.2</ele>
        <time>2023-02-16T10:22:58Z</time>
      </trkpt>
      <trkpt lat="44.84237" lon="6.95574">
        <ele>2329.6</ele>
        <time>2023-02-16T10:23:02Z</time>
      </trkpt>
      <trkpt lat="44.84239" lon="6.95574">
        <ele>2329.9</ele>
        <time>2023-02-16T10:23:04Z</time>
      </trkpt>
      <trkpt lat="44.84241" lon="6.95576">
        <ele>2330.6</ele>
        <time>2023-02-16T10:23:11Z</time>
      </trkpt>
      <trkpt lat="44.84244" lon="6.95578">
        <ele>2331.3</ele>
        <time>2023-02-16T10:23:15Z</time>
      </trkpt>
      <trkpt lat="44.84248" lon="6.95577">
        <ele>2331.8</ele>
        <time>2023-02-16T10:23:19Z</time>
      </trkpt>
      <trkpt lat="44.84251" lon="6.95578">
        <ele>2332.4</ele>
        <time>2023-02-16T10:23:26Z</time>
      </trkpt>
      <trkpt lat="44.84253" lon="6.95579">
        <ele>2332.9</ele>
        <time>2023-02-16T10:23:40Z</time>
      </trkpt>
      <trkpt lat="44.84254" lon="6.95578">
        <ele>2332.9</ele>
        <time>2023-02-16T10:23:57Z</time>
      </trkpt>
      <trkpt lat="44.84259" lon="6.95579">
        <ele>2333.9</ele>
        <time>2023-02-16T10:24:06Z</time>
      </trkpt>
      <trkpt lat="44.8426" lon="6.95578">
        <ele>2333.9</ele>
        <time>2023-02-16T10:24:07Z</time>
      </trkpt>
      <trkpt lat="44.8426" lon="6.95579">
        <ele>2334.1</ele>
        <time>2023-02-16T10:24:08Z</time>
      </trkpt>
      <trkpt lat="44.84266" lon="6.95579">
        <ele>2335.1</ele>
        <time>2023-02-16T10:24:15Z</time>
      </trkpt>
      <trkpt lat="44.84269" lon="6.95577">
        <ele>2335.2</ele>
        <time>2023-02-16T10:24:20Z</time>
      </trkpt>
      <trkpt lat="44.8427" lon="6.95576">
        <ele>2335.2</ele>
        <time>2023-02-16T10:24:22Z</time>
      </trkpt>
      <trkpt lat="44.84275" lon="6.95575">
        <ele>2335.8</ele>
        <time>2023-02-16T10:24:31Z</time>
      </trkpt>
      <trkpt lat="44.84277" lon="6.95576">
        <ele>2336.3</ele>
        <time>2023-02-16T10:24:34Z</time>
      </trkpt>
      <trkpt lat="44.84279" lon="6.95577">
        <ele>2336.9</ele>
        <time>2023-02-16T10:24:38Z</time>
      </trkpt>
      <trkpt lat="44.84281" lon="6.95579">
        <ele>2337.7</ele>
        <time>2023-02-16T10:24:45Z</time>
      </trkpt>
      <trkpt lat="44.84285" lon="6.95581">
        <ele>2339</ele>
        <time>2023-02-16T10:24:52Z</time>
      </trkpt>
      <trkpt lat="44.84286" lon="6.95581">
        <ele>2339.2</ele>
        <time>2023-02-16T10:24:53Z</time>
      </trkpt>
      <trkpt lat="44.84288" lon="6.95582">
        <ele>2339.9</ele>
        <time>2023-02-16T10:24:57Z</time>
      </trkpt>
      <trkpt lat="44.84292" lon="6.95583">
        <ele>2341</ele>
        <time>2023-02-16T10:25:03Z</time>
      </trkpt>
      <trkpt lat="44.84297" lon="6.95585">
        <ele>2342.6</ele>
        <time>2023-02-16T10:25:09Z</time>
      </trkpt>
      <trkpt lat="44.84299" lon="6.95585">
        <ele>2343</ele>
        <time>2023-02-16T10:25:12Z</time>
      </trkpt>
      <trkpt lat="44.84304" lon="6.95585">
        <ele>2344.1</ele>
        <time>2023-02-16T10:25:18Z</time>
      </trkpt>
      <trkpt lat="44.84308" lon="6.95585">
        <ele>2345.1</ele>
        <time>2023-02-16T10:25:24Z</time>
      </trkpt>
      <trkpt lat="44.8431" lon="6.95585">
        <ele>2345.6</ele>
        <time>2023-02-16T10:25:28Z</time>
      </trkpt>
      <trkpt lat="44.84314" lon="6.95584">
        <ele>2346.3</ele>
        <time>2023-02-16T10:25:33Z</time>
      </trkpt>
      <trkpt lat="44.84316" lon="6.95584">
        <ele>2346.8</ele>
        <time>2023-02-16T10:25:37Z</time>
      </trkpt>
      <trkpt lat="44.84319" lon="6.95585">
        <ele>2347.8</ele>
        <time>2023-02-16T10:25:41Z</time>
      </trkpt>
      <trkpt lat="44.84319" lon="6.95585">
        <ele>2347.8</ele>
        <time>2023-02-16T10:25:50Z</time>
      </trkpt>
      <trkpt lat="44.8432" lon="6.95586">
        <ele>2348.4</ele>
        <time>2023-02-16T10:26:02Z</time>
      </trkpt>
      <trkpt lat="44.84322" lon="6.95586">
        <ele>2348.9</ele>
        <time>2023-02-16T10:26:05Z</time>
      </trkpt>
      <trkpt lat="44.84325" lon="6.95587">
        <ele>2349.9</ele>
        <time>2023-02-16T10:26:10Z</time>
      </trkpt>
      <trkpt lat="44.84329" lon="6.95585">
        <ele>2350.3</ele>
        <time>2023-02-16T10:26:16Z</time>
      </trkpt>
      <trkpt lat="44.84329" lon="6.95585">
        <ele>2350.3</ele>
        <time>2023-02-16T10:26:17Z</time>
      </trkpt>
      <trkpt lat="44.84332" lon="6.95581">
        <ele>2350.2</ele>
        <time>2023-02-16T10:26:22Z</time>
      </trkpt>
      <trkpt lat="44.84335" lon="6.95577">
        <ele>2350.2</ele>
        <time>2023-02-16T10:26:28Z</time>
      </trkpt>
      <trkpt lat="44.84336" lon="6.95577">
        <ele>2350.5</ele>
        <time>2023-02-16T10:26:30Z</time>
      </trkpt>
      <trkpt lat="44.8434" lon="6.95579">
        <ele>2352.3</ele>
        <time>2023-02-16T10:26:36Z</time>
      </trkpt>
      <trkpt lat="44.8434" lon="6.9558">
        <ele>2352.5</ele>
        <time>2023-02-16T10:26:38Z</time>
      </trkpt>
      <trkpt lat="44.8434" lon="6.95583">
        <ele>2353.1</ele>
        <time>2023-02-16T10:26:41Z</time>
      </trkpt>
      <trkpt lat="44.84342" lon="6.95589">
        <ele>2355.1</ele>
        <time>2023-02-16T10:26:48Z</time>
      </trkpt>
      <trkpt lat="44.84342" lon="6.9559">
        <ele>2355.3</ele>
        <time>2023-02-16T10:26:50Z</time>
      </trkpt>
      <trkpt lat="44.84343" lon="6.95594">
        <ele>2356.6</ele>
        <time>2023-02-16T10:26:55Z</time>
      </trkpt>
      <trkpt lat="44.84343" lon="6.95597">
        <ele>2357.2</ele>
        <time>2023-02-16T10:27:02Z</time>
      </trkpt>
      <trkpt lat="44.84346" lon="6.95598">
        <ele>2358.3</ele>
        <time>2023-02-16T10:27:08Z</time>
      </trkpt>
      <trkpt lat="44.84349" lon="6.95598">
        <ele>2359.2</ele>
        <time>2023-02-16T10:27:14Z</time>
      </trkpt>
      <trkpt lat="44.84354" lon="6.95598">
        <ele>2360.6</ele>
        <time>2023-02-16T10:27:23Z</time>
      </trkpt>
      <trkpt lat="44.84357" lon="6.95596">
        <ele>2361.1</ele>
        <time>2023-02-16T10:27:28Z</time>
      </trkpt>
      <trkpt lat="44.84359" lon="6.95595">
        <ele>2361.5</ele>
        <time>2023-02-16T10:27:30Z</time>
      </trkpt>
      <trkpt lat="44.84362" lon="6.95592">
        <ele>2361.9</ele>
        <time>2023-02-16T10:27:35Z</time>
      </trkpt>
      <trkpt lat="44.84363" lon="6.95591">
        <ele>2362.1</ele>
        <time>2023-02-16T10:27:39Z</time>
      </trkpt>
      <trkpt lat="44.84368" lon="6.95589">
        <ele>2363.7</ele>
        <time>2023-02-16T10:27:52Z</time>
      </trkpt>
      <trkpt lat="44.84368" lon="6.95591">
        <ele>2364.1</ele>
        <time>2023-02-16T10:27:54Z</time>
      </trkpt>
      <trkpt lat="44.8437" lon="6.95595">
        <ele>2365.6</ele>
        <time>2023-02-16T10:27:58Z</time>
      </trkpt>
      <trkpt lat="44.84371" lon="6.95596">
        <ele>2366.2</ele>
        <time>2023-02-16T10:27:59Z</time>
      </trkpt>
      <trkpt lat="44.84372" lon="6.95599">
        <ele>2367.1</ele>
        <time>2023-02-16T10:28:02Z</time>
      </trkpt>
      <trkpt lat="44.84373" lon="6.95603">
        <ele>2368.2</ele>
        <time>2023-02-16T10:28:05Z</time>
      </trkpt>
      <trkpt lat="44.84374" lon="6.95605">
        <ele>2369</ele>
        <time>2023-02-16T10:28:12Z</time>
      </trkpt>
      <trkpt lat="44.84375" lon="6.95605">
        <ele>2369.4</ele>
        <time>2023-02-16T10:28:14Z</time>
      </trkpt>
      <trkpt lat="44.84376" lon="6.95604">
        <ele>2369.6</ele>
        <time>2023-02-16T10:28:17Z</time>
      </trkpt>
      <trkpt lat="44.84379" lon="6.95601">
        <ele>2370.3</ele>
        <time>2023-02-16T10:28:25Z</time>
      </trkpt>
      <trkpt lat="44.84382" lon="6.95598">
        <ele>2370.9</ele>
        <time>2023-02-16T10:28:32Z</time>
      </trkpt>
      <trkpt lat="44.84384" lon="6.95597">
        <ele>2371.5</ele>
        <time>2023-02-16T10:28:38Z</time>
      </trkpt>
      <trkpt lat="44.84387" lon="6.95599">
        <ele>2373.1</ele>
        <time>2023-02-16T10:28:46Z</time>
      </trkpt>
      <trkpt lat="44.84387" lon="6.95602">
        <ele>2373.6</ele>
        <time>2023-02-16T10:28:49Z</time>
      </trkpt>
      <trkpt lat="44.84387" lon="6.95603">
        <ele>2373.8</ele>
        <time>2023-02-16T10:28:50Z</time>
      </trkpt>
      <trkpt lat="44.84386" lon="6.95608">
        <ele>2374.3</ele>
        <time>2023-02-16T10:28:55Z</time>
      </trkpt>
      <trkpt lat="44.84386" lon="6.95614">
        <ele>2375.4</ele>
        <time>2023-02-16T10:29:01Z</time>
      </trkpt>
      <trkpt lat="44.84384" lon="6.95619">
        <ele>2375.6</ele>
        <time>2023-02-16T10:29:08Z</time>
      </trkpt>
      <trkpt lat="44.84384" lon="6.95619">
        <ele>2375.6</ele>
        <time>2023-02-16T10:29:09Z</time>
      </trkpt>
      <trkpt lat="44.84384" lon="6.95621">
        <ele>2376</ele>
        <time>2023-02-16T10:29:14Z</time>
      </trkpt>
      <trkpt lat="44.84385" lon="6.9562">
        <ele>2376.1</ele>
        <time>2023-02-16T10:29:19Z</time>
      </trkpt>
      <trkpt lat="44.84387" lon="6.95617">
        <ele>2376.3</ele>
        <time>2023-02-16T10:29:24Z</time>
      </trkpt>
      <trkpt lat="44.84388" lon="6.95616">
        <ele>2376.5</ele>
        <time>2023-02-16T10:29:27Z</time>
      </trkpt>
      <trkpt lat="44.84393" lon="6.95614">
        <ele>2378.3</ele>
        <time>2023-02-16T10:29:34Z</time>
      </trkpt>
      <trkpt lat="44.84393" lon="6.95613">
        <ele>2378.1</ele>
        <time>2023-02-16T10:29:35Z</time>
      </trkpt>
      <trkpt lat="44.84398" lon="6.95612">
        <ele>2380.1</ele>
        <time>2023-02-16T10:29:45Z</time>
      </trkpt>
      <trkpt lat="44.84398" lon="6.95612">
        <ele>2380.1</ele>
        <time>2023-02-16T10:29:46Z</time>
      </trkpt>
      <trkpt lat="44.84401" lon="6.95613">
        <ele>2381.6</ele>
        <time>2023-02-16T10:29:51Z</time>
      </trkpt>
      <trkpt lat="44.84405" lon="6.95614">
        <ele>2383.5</ele>
        <time>2023-02-16T10:29:57Z</time>
      </trkpt>
      <trkpt lat="44.84406" lon="6.95614">
        <ele>2383.9</ele>
        <time>2023-02-16T10:29:59Z</time>
      </trkpt>
      <trkpt lat="44.84408" lon="6.95614">
        <ele>2384.8</ele>
        <time>2023-02-16T10:30:05Z</time>
      </trkpt>
      <trkpt lat="44.8441" lon="6.95614">
        <ele>2385.6</ele>
        <time>2023-02-16T10:30:08Z</time>
      </trkpt>
      <trkpt lat="44.84412" lon="6.95612">
        <ele>2386.1</ele>
        <time>2023-02-16T10:30:13Z</time>
      </trkpt>
      <trkpt lat="44.84415" lon="6.9561">
        <ele>2387.1</ele>
        <time>2023-02-16T10:30:21Z</time>
      </trkpt>
      <trkpt lat="44.84415" lon="6.9561">
        <ele>2387.1</ele>
        <time>2023-02-16T10:30:22Z</time>
      </trkpt>
      <trkpt lat="44.84416" lon="6.95614">
        <ele>2388.2</ele>
        <time>2023-02-16T10:30:32Z</time>
      </trkpt>
      <trkpt lat="44.84416" lon="6.95615">
        <ele>2388.4</ele>
        <time>2023-02-16T10:30:33Z</time>
      </trkpt>
      <trkpt lat="44.84415" lon="6.95619">
        <ele>2388.7</ele>
        <time>2023-02-16T10:30:43Z</time>
      </trkpt>
      <trkpt lat="44.84416" lon="6.95619">
        <ele>2389.1</ele>
        <time>2023-02-16T10:30:44Z</time>
      </trkpt>
      <trkpt lat="44.84416" lon="6.95622">
        <ele>2389.7</ele>
        <time>2023-02-16T10:31:00Z</time>
      </trkpt>
      <trkpt lat="44.84418" lon="6.95628">
        <ele>2391.7</ele>
        <time>2023-02-16T10:31:07Z</time>
      </trkpt>
      <trkpt lat="44.84418" lon="6.95631">
        <ele>2392.2</ele>
        <time>2023-02-16T10:31:09Z</time>
      </trkpt>
      <trkpt lat="44.84418" lon="6.95636">
        <ele>2393.1</ele>
        <time>2023-02-16T10:31:14Z</time>
      </trkpt>
      <trkpt lat="44.84419" lon="6.95641">
        <ele>2394.4</ele>
        <time>2023-02-16T10:31:19Z</time>
      </trkpt>
      <trkpt lat="44.84419" lon="6.95647">
        <ele>2395.5</ele>
        <time>2023-02-16T10:31:25Z</time>
      </trkpt>
      <trkpt lat="44.84419" lon="6.95648">
        <ele>2395.6</ele>
        <time>2023-02-16T10:31:26Z</time>
      </trkpt>
      <trkpt lat="44.84419" lon="6.95651">
        <ele>2396.2</ele>
        <time>2023-02-16T10:31:29Z</time>
      </trkpt>
      <trkpt lat="44.84419" lon="6.95654">
        <ele>2396.7</ele>
        <time>2023-02-16T10:31:33Z</time>
      </trkpt>
      <trkpt lat="44.84418" lon="6.9566">
        <ele>2397.4</ele>
        <time>2023-02-16T10:31:39Z</time>
      </trkpt>
      <trkpt lat="44.84418" lon="6.95662">
        <ele>2397.7</ele>
        <time>2023-02-16T10:31:41Z</time>
      </trkpt>
      <trkpt lat="44.84418" lon="6.95668">
        <ele>2398.8</ele>
        <time>2023-02-16T10:31:47Z</time>
      </trkpt>
      <trkpt lat="44.84418" lon="6.95672">
        <ele>2399.5</ele>
        <time>2023-02-16T10:31:52Z</time>
      </trkpt>
      <trkpt lat="44.84418" lon="6.95672">
        <ele>2399.5</ele>
        <time>2023-02-16T10:31:54Z</time>
      </trkpt>
      <trkpt lat="44.8442" lon="6.95675">
        <ele>2401</ele>
        <time>2023-02-16T10:32:01Z</time>
      </trkpt>
      <trkpt lat="44.84421" lon="6.95674">
        <ele>2401.2</ele>
        <time>2023-02-16T10:32:04Z</time>
      </trkpt>
      <trkpt lat="44.84422" lon="6.9567">
        <ele>2400.9</ele>
        <time>2023-02-16T10:32:10Z</time>
      </trkpt>
      <trkpt lat="44.84423" lon="6.95668">
        <ele>2401</ele>
        <time>2023-02-16T10:32:13Z</time>
      </trkpt>
      <trkpt lat="44.84425" lon="6.95666">
        <ele>2401.5</ele>
        <time>2023-02-16T10:32:17Z</time>
      </trkpt>
      <trkpt lat="44.8443" lon="6.95662">
        <ele>2402.9</ele>
        <time>2023-02-16T10:32:23Z</time>
      </trkpt>
      <trkpt lat="44.8443" lon="6.95662">
        <ele>2402.9</ele>
        <time>2023-02-16T10:32:24Z</time>
      </trkpt>
      <trkpt lat="44.84431" lon="6.95661">
        <ele>2403.2</ele>
        <time>2023-02-16T10:32:25Z</time>
      </trkpt>
      <trkpt lat="44.84434" lon="6.95658">
        <ele>2403.9</ele>
        <time>2023-02-16T10:32:32Z</time>
      </trkpt>
      <trkpt lat="44.84436" lon="6.95656">
        <ele>2404.4</ele>
        <time>2023-02-16T10:32:36Z</time>
      </trkpt>
      <trkpt lat="44.84436" lon="6.95655">
        <ele>2404.3</ele>
        <time>2023-02-16T10:32:37Z</time>
      </trkpt>
      <trkpt lat="44.84436" lon="6.95654">
        <ele>2404.1</ele>
        <time>2023-02-16T10:32:47Z</time>
      </trkpt>
      <trkpt lat="44.84436" lon="6.95654">
        <ele>2404.1</ele>
        <time>2023-02-16T10:33:07Z</time>
      </trkpt>
      <trkpt lat="44.84436" lon="6.95653">
        <ele>2403.9</ele>
        <time>2023-02-16T10:33:25Z</time>
      </trkpt>
      <trkpt lat="44.84437" lon="6.95654">
        <ele>2404.5</ele>
        <time>2023-02-16T10:33:41Z</time>
      </trkpt>
      <trkpt lat="44.84438" lon="6.95649">
        <ele>2404</ele>
        <time>2023-02-16T10:33:57Z</time>
      </trkpt>
      <trkpt lat="44.84442" lon="6.95649">
        <ele>2405.8</ele>
        <time>2023-02-16T10:34:02Z</time>
      </trkpt>
      <trkpt lat="44.84444" lon="6.95648">
        <ele>2406.4</ele>
        <time>2023-02-16T10:34:07Z</time>
      </trkpt>
      <trkpt lat="44.84446" lon="6.95646">
        <ele>2407</ele>
        <time>2023-02-16T10:34:11Z</time>
      </trkpt>
      <trkpt lat="44.84447" lon="6.95645">
        <ele>2407.3</ele>
        <time>2023-02-16T10:34:12Z</time>
      </trkpt>
      <trkpt lat="44.84448" lon="6.95644">
        <ele>2407.5</ele>
        <time>2023-02-16T10:34:14Z</time>
      </trkpt>
      <trkpt lat="44.8445" lon="6.95641">
        <ele>2407.9</ele>
        <time>2023-02-16T10:34:17Z</time>
      </trkpt>
      <trkpt lat="44.84452" lon="6.95639">
        <ele>2408.6</ele>
        <time>2023-02-16T10:34:20Z</time>
      </trkpt>
      <trkpt lat="44.84454" lon="6.95635">
        <ele>2409.1</ele>
        <time>2023-02-16T10:34:25Z</time>
      </trkpt>
      <trkpt lat="44.84456" lon="6.95634">
        <ele>2409.9</ele>
        <time>2023-02-16T10:34:28Z</time>
      </trkpt>
      <trkpt lat="44.84457" lon="6.95632">
        <ele>2410.1</ele>
        <time>2023-02-16T10:34:31Z</time>
      </trkpt>
      <trkpt lat="44.84461" lon="6.95628">
        <ele>2411.6</ele>
        <time>2023-02-16T10:34:38Z</time>
      </trkpt>
      <trkpt lat="44.84461" lon="6.95627">
        <ele>2411.5</ele>
        <time>2023-02-16T10:34:39Z</time>
      </trkpt>
      <trkpt lat="44.84462" lon="6.95625">
        <ele>2411.7</ele>
        <time>2023-02-16T10:34:42Z</time>
      </trkpt>
      <trkpt lat="44.84465" lon="6.95623">
        <ele>2412.9</ele>
        <time>2023-02-16T10:34:47Z</time>
      </trkpt>
      <trkpt lat="44.84468" lon="6.95621">
        <ele>2414.1</ele>
        <time>2023-02-16T10:34:53Z</time>
      </trkpt>
      <trkpt lat="44.84469" lon="6.9562">
        <ele>2414.5</ele>
        <time>2023-02-16T10:34:57Z</time>
      </trkpt>
      <trkpt lat="44.84473" lon="6.95616">
        <ele>2415.8</ele>
        <time>2023-02-16T10:35:04Z</time>
      </trkpt>
      <trkpt lat="44.84473" lon="6.95616">
        <ele>2415.8</ele>
        <time>2023-02-16T10:35:05Z</time>
      </trkpt>
      <trkpt lat="44.84479" lon="6.95613">
        <ele>2417.9</ele>
        <time>2023-02-16T10:35:14Z</time>
      </trkpt>
      <trkpt lat="44.8448" lon="6.95613">
        <ele>2418.3</ele>
        <time>2023-02-16T10:35:16Z</time>
      </trkpt>
      <trkpt lat="44.84482" lon="6.95612">
        <ele>2419</ele>
        <time>2023-02-16T10:35:21Z</time>
      </trkpt>
      <trkpt lat="44.84485" lon="6.9561">
        <ele>2419.9</ele>
        <time>2023-02-16T10:35:26Z</time>
      </trkpt>
      <trkpt lat="44.84487" lon="6.9561">
        <ele>2420.7</ele>
        <time>2023-02-16T10:35:29Z</time>
      </trkpt>
      <trkpt lat="44.84491" lon="6.9561">
        <ele>2422.3</ele>
        <time>2023-02-16T10:35:36Z</time>
      </trkpt>
      <trkpt lat="44.84491" lon="6.9561">
        <ele>2422.3</ele>
        <time>2023-02-16T10:35:37Z</time>
      </trkpt>
      <trkpt lat="44.84495" lon="6.95609">
        <ele>2423.7</ele>
        <time>2023-02-16T10:35:43Z</time>
      </trkpt>
      <trkpt lat="44.84499" lon="6.95609">
        <ele>2425.3</ele>
        <time>2023-02-16T10:35:49Z</time>
      </trkpt>
      <trkpt lat="44.84501" lon="6.95608">
        <ele>2426</ele>
        <time>2023-02-16T10:35:52Z</time>
      </trkpt>
      <trkpt lat="44.84503" lon="6.95606">
        <ele>2426.5</ele>
        <time>2023-02-16T10:35:58Z</time>
      </trkpt>
      <trkpt lat="44.84505" lon="6.95603">
        <ele>2426.9</ele>
        <time>2023-02-16T10:36:03Z</time>
      </trkpt>
      <trkpt lat="44.84505" lon="6.95603">
        <ele>2426.9</ele>
        <time>2023-02-16T10:36:04Z</time>
      </trkpt>
      <trkpt lat="44.84508" lon="6.956">
        <ele>2427.7</ele>
        <time>2023-02-16T10:36:11Z</time>
      </trkpt>
      <trkpt lat="44.8451" lon="6.95599">
        <ele>2428.4</ele>
        <time>2023-02-16T10:36:15Z</time>
      </trkpt>
      <trkpt lat="44.84511" lon="6.95599">
        <ele>2428.8</ele>
        <time>2023-02-16T10:36:17Z</time>
      </trkpt>
      <trkpt lat="44.84515" lon="6.95593">
        <ele>2429.7</ele>
        <time>2023-02-16T10:36:27Z</time>
      </trkpt>
      <trkpt lat="44.84516" lon="6.95592">
        <ele>2430</ele>
        <time>2023-02-16T10:36:29Z</time>
      </trkpt>
      <trkpt lat="44.84517" lon="6.9559">
        <ele>2430.2</ele>
        <time>2023-02-16T10:36:33Z</time>
      </trkpt>
      <trkpt lat="44.8452" lon="6.9559">
        <ele>2431.4</ele>
        <time>2023-02-16T10:36:40Z</time>
      </trkpt>
      <trkpt lat="44.84522" lon="6.95595">
        <ele>2432.9</ele>
        <time>2023-02-16T10:36:45Z</time>
      </trkpt>
      <trkpt lat="44.84522" lon="6.95598">
        <ele>2433.2</ele>
        <time>2023-02-16T10:36:49Z</time>
      </trkpt>
      <trkpt lat="44.84523" lon="6.95599">
        <ele>2433.7</ele>
        <time>2023-02-16T10:36:50Z</time>
      </trkpt>
      <trkpt lat="44.84524" lon="6.95605">
        <ele>2434.8</ele>
        <time>2023-02-16T10:36:57Z</time>
      </trkpt>
      <trkpt lat="44.84526" lon="6.95609">
        <ele>2436.1</ele>
        <time>2023-02-16T10:37:03Z</time>
      </trkpt>
      <trkpt lat="44.84527" lon="6.95613">
        <ele>2436.8</ele>
        <time>2023-02-16T10:37:10Z</time>
      </trkpt>
      <trkpt lat="44.84527" lon="6.95618">
        <ele>2437.2</ele>
        <time>2023-02-16T10:37:16Z</time>
      </trkpt>
      <trkpt lat="44.84528" lon="6.95619">
        <ele>2437.6</ele>
        <time>2023-02-16T10:37:18Z</time>
      </trkpt>
      <trkpt lat="44.84529" lon="6.95623">
        <ele>2438.3</ele>
        <time>2023-02-16T10:37:24Z</time>
      </trkpt>
      <trkpt lat="44.84531" lon="6.95629">
        <ele>2439.4</ele>
        <time>2023-02-16T10:37:32Z</time>
      </trkpt>
      <trkpt lat="44.84532" lon="6.9563">
        <ele>2439.9</ele>
        <time>2023-02-16T10:37:34Z</time>
      </trkpt>
      <trkpt lat="44.84533" lon="6.95633">
        <ele>2440.5</ele>
        <time>2023-02-16T10:37:38Z</time>
      </trkpt>
      <trkpt lat="44.84535" lon="6.95637">
        <ele>2441.5</ele>
        <time>2023-02-16T10:37:46Z</time>
      </trkpt>
      <trkpt lat="44.84538" lon="6.95637">
        <ele>2442.5</ele>
        <time>2023-02-16T10:37:52Z</time>
      </trkpt>
      <trkpt lat="44.8454" lon="6.95637">
        <ele>2443.3</ele>
        <time>2023-02-16T10:37:57Z</time>
      </trkpt>
      <trkpt lat="44.8454" lon="6.95637">
        <ele>2443.3</ele>
        <time>2023-02-16T10:37:58Z</time>
      </trkpt>
      <trkpt lat="44.84545" lon="6.9564">
        <ele>2445.3</ele>
        <time>2023-02-16T10:38:07Z</time>
      </trkpt>
      <trkpt lat="44.84545" lon="6.95641">
        <ele>2445.4</ele>
        <time>2023-02-16T10:38:09Z</time>
      </trkpt>
      <trkpt lat="44.84546" lon="6.95644">
        <ele>2446</ele>
        <time>2023-02-16T10:38:13Z</time>
      </trkpt>
      <trkpt lat="44.84547" lon="6.9565">
        <ele>2447</ele>
        <time>2023-02-16T10:38:21Z</time>
      </trkpt>
      <trkpt lat="44.84548" lon="6.95651">
        <ele>2447.5</ele>
        <time>2023-02-16T10:38:23Z</time>
      </trkpt>
      <trkpt lat="44.8455" lon="6.95656">
        <ele>2448.7</ele>
        <time>2023-02-16T10:38:30Z</time>
      </trkpt>
      <trkpt lat="44.84551" lon="6.95659">
        <ele>2449.4</ele>
        <time>2023-02-16T10:38:35Z</time>
      </trkpt>
      <trkpt lat="44.84551" lon="6.9566">
        <ele>2449.5</ele>
        <time>2023-02-16T10:38:36Z</time>
      </trkpt>
      <trkpt lat="44.84553" lon="6.95666">
        <ele>2450.9</ele>
        <time>2023-02-16T10:38:44Z</time>
      </trkpt>
      <trkpt lat="44.84555" lon="6.9567">
        <ele>2452</ele>
        <time>2023-02-16T10:38:50Z</time>
      </trkpt>
      <trkpt lat="44.84555" lon="6.95671">
        <ele>2452.1</ele>
        <time>2023-02-16T10:38:51Z</time>
      </trkpt>
      <trkpt lat="44.84557" lon="6.95674">
        <ele>2453.1</ele>
        <time>2023-02-16T10:38:56Z</time>
      </trkpt>
      <trkpt lat="44.84559" lon="6.95681">
        <ele>2454.5</ele>
        <time>2023-02-16T10:39:05Z</time>
      </trkpt>
      <trkpt lat="44.84561" lon="6.95686">
        <ele>2455.7</ele>
        <time>2023-02-16T10:39:12Z</time>
      </trkpt>
      <trkpt lat="44.84562" lon="6.95687">
        <ele>2456.2</ele>
        <time>2023-02-16T10:39:17Z</time>
      </trkpt>
      <trkpt lat="44.84565" lon="6.95685">
        <ele>2457.3</ele>
        <time>2023-02-16T10:39:22Z</time>
      </trkpt>
      <trkpt lat="44.84567" lon="6.95682">
        <ele>2457.9</ele>
        <time>2023-02-16T10:39:26Z</time>
      </trkpt>
      <trkpt lat="44.84568" lon="6.95681">
        <ele>2458.2</ele>
        <time>2023-02-16T10:39:28Z</time>
      </trkpt>
      <trkpt lat="44.84572" lon="6.95676">
        <ele>2459.4</ele>
        <time>2023-02-16T10:39:36Z</time>
      </trkpt>
      <trkpt lat="44.84573" lon="6.95675">
        <ele>2459.7</ele>
        <time>2023-02-16T10:39:37Z</time>
      </trkpt>
      <trkpt lat="44.84575" lon="6.95673">
        <ele>2460.3</ele>
        <time>2023-02-16T10:39:41Z</time>
      </trkpt>
      <trkpt lat="44.84579" lon="6.95668">
        <ele>2461.4</ele>
        <time>2023-02-16T10:39:50Z</time>
      </trkpt>
      <trkpt lat="44.84581" lon="6.95663">
        <ele>2461.9</ele>
        <time>2023-02-16T10:39:58Z</time>
      </trkpt>
      <trkpt lat="44.84581" lon="6.95662">
        <ele>2461.9</ele>
        <time>2023-02-16T10:40:03Z</time>
      </trkpt>
      <trkpt lat="44.84584" lon="6.95664">
        <ele>2463.3</ele>
        <time>2023-02-16T10:40:09Z</time>
      </trkpt>
      <trkpt lat="44.84584" lon="6.95665">
        <ele>2463.3</ele>
        <time>2023-02-16T10:40:10Z</time>
      </trkpt>
      <trkpt lat="44.84587" lon="6.95672">
        <ele>2465.6</ele>
        <time>2023-02-16T10:40:18Z</time>
      </trkpt>
      <trkpt lat="44.84588" lon="6.95678">
        <ele>2466.8</ele>
        <time>2023-02-16T10:40:23Z</time>
      </trkpt>
      <trkpt lat="44.84588" lon="6.9568">
        <ele>2467</ele>
        <time>2023-02-16T10:40:25Z</time>
      </trkpt>
      <trkpt lat="44.84588" lon="6.95684">
        <ele>2467.4</ele>
        <time>2023-02-16T10:40:29Z</time>
      </trkpt>
      <trkpt lat="44.84589" lon="6.95691">
        <ele>2468.5</ele>
        <time>2023-02-16T10:40:37Z</time>
      </trkpt>
      <trkpt lat="44.84589" lon="6.95693">
        <ele>2468.7</ele>
        <time>2023-02-16T10:40:40Z</time>
      </trkpt>
      <trkpt lat="44.84591" lon="6.95701">
        <ele>2470.4</ele>
        <time>2023-02-16T10:40:48Z</time>
      </trkpt>
      <trkpt lat="44.84591" lon="6.95704">
        <ele>2470.7</ele>
        <time>2023-02-16T10:40:51Z</time>
      </trkpt>
      <trkpt lat="44.84592" lon="6.95708">
        <ele>2471.5</ele>
        <time>2023-02-16T10:40:56Z</time>
      </trkpt>
      <trkpt lat="44.84592" lon="6.95712">
        <ele>2471.9</ele>
        <time>2023-02-16T10:41:01Z</time>
      </trkpt>
      <trkpt lat="44.84592" lon="6.95713">
        <ele>2472</ele>
        <time>2023-02-16T10:41:05Z</time>
      </trkpt>
      <trkpt lat="44.84592" lon="6.95717">
        <ele>2472.3</ele>
        <time>2023-02-16T10:41:10Z</time>
      </trkpt>
      <trkpt lat="44.84592" lon="6.95719">
        <ele>2472.5</ele>
        <time>2023-02-16T10:41:11Z</time>
      </trkpt>
      <trkpt lat="44.84593" lon="6.95723">
        <ele>2473.3</ele>
        <time>2023-02-16T10:41:15Z</time>
      </trkpt>
      <trkpt lat="44.84594" lon="6.95725">
        <ele>2474</ele>
        <time>2023-02-16T10:41:17Z</time>
      </trkpt>
      <trkpt lat="44.84595" lon="6.95734">
        <ele>2475.7</ele>
        <time>2023-02-16T10:41:27Z</time>
      </trkpt>
      <trkpt lat="44.84597" lon="6.9574">
        <ele>2477.5</ele>
        <time>2023-02-16T10:41:34Z</time>
      </trkpt>
      <trkpt lat="44.84597" lon="6.95744">
        <ele>2478</ele>
        <time>2023-02-16T10:41:41Z</time>
      </trkpt>
      <trkpt lat="44.84598" lon="6.95744">
        <ele>2478.5</ele>
        <time>2023-02-16T10:41:42Z</time>
      </trkpt>
      <trkpt lat="44.84601" lon="6.95741">
        <ele>2479.3</ele>
        <time>2023-02-16T10:41:48Z</time>
      </trkpt>
      <trkpt lat="44.84602" lon="6.95741">
        <ele>2479.8</ele>
        <time>2023-02-16T10:41:49Z</time>
      </trkpt>
      <trkpt lat="44.84605" lon="6.95737">
        <ele>2480.5</ele>
        <time>2023-02-16T10:41:59Z</time>
      </trkpt>
      <trkpt lat="44.84605" lon="6.95737">
        <ele>2480.5</ele>
        <time>2023-02-16T10:42:00Z</time>
      </trkpt>
      <trkpt lat="44.84603" lon="6.95738">
        <ele>2479.8</ele>
        <time>2023-02-16T10:42:15Z</time>
      </trkpt>
      <trkpt lat="44.84604" lon="6.95737">
        <ele>2480.1</ele>
        <time>2023-02-16T10:42:27Z</time>
      </trkpt>
      <trkpt lat="44.84604" lon="6.95737">
        <ele>2480.1</ele>
        <time>2023-02-16T10:42:31Z</time>
      </trkpt>
      <trkpt lat="44.84604" lon="6.95735">
        <ele>2479.8</ele>
        <time>2023-02-16T10:42:48Z</time>
      </trkpt>
      <trkpt lat="44.84605" lon="6.95735">
        <ele>2480.2</ele>
        <time>2023-02-16T10:43:03Z</time>
      </trkpt>
      <trkpt lat="44.84607" lon="6.95737">
        <ele>2481.4</ele>
        <time>2023-02-16T10:43:17Z</time>
      </trkpt>
      <trkpt lat="44.84607" lon="6.95736">
        <ele>2481.2</ele>
        <time>2023-02-16T10:43:29Z</time>
      </trkpt>
      <trkpt lat="44.84606" lon="6.95737">
        <ele>2480.9</ele>
        <time>2023-02-16T10:43:43Z</time>
      </trkpt>
      <trkpt lat="44.84608" lon="6.95736">
        <ele>2481.6</ele>
        <time>2023-02-16T10:43:59Z</time>
      </trkpt>
      <trkpt lat="44.84608" lon="6.95735">
        <ele>2481.5</ele>
        <time>2023-02-16T10:44:08Z</time>
      </trkpt>
      <trkpt lat="44.84608" lon="6.95735">
        <ele>2481.5</ele>
        <time>2023-02-16T10:44:15Z</time>
      </trkpt>
      <trkpt lat="44.84607" lon="6.95738">
        <ele>2481.5</ele>
        <time>2023-02-16T10:44:26Z</time>
      </trkpt>
      <trkpt lat="44.84608" lon="6.95737">
        <ele>2481.8</ele>
        <time>2023-02-16T10:44:39Z</time>
      </trkpt>
      <trkpt lat="44.84608" lon="6.95737">
        <ele>2481.8</ele>
        <time>2023-02-16T10:44:40Z</time>
      </trkpt>
      <trkpt lat="44.84608" lon="6.95737">
        <ele>2481.8</ele>
        <time>2023-02-16T10:44:41Z</time>
      </trkpt>
      <trkpt lat="44.84608" lon="6.95737">
        <ele>2481.8</ele>
        <time>2023-02-16T10:44:42Z</time>
      </trkpt>
      <trkpt lat="44.84608" lon="6.95737">
        <ele>2481.8</ele>
        <time>2023-02-16T10:44:43Z</time>
      </trkpt>
      <trkpt lat="44.84607" lon="6.95737">
        <ele>2481.4</ele>
        <time>2023-02-16T10:44:44Z</time>
      </trkpt>
      <trkpt lat="44.84607" lon="6.95737">
        <ele>2481.4</ele>
        <time>2023-02-16T10:44:45Z</time>
      </trkpt>
      <trkpt lat="44.84608" lon="6.95737">
        <ele>2481.8</ele>
        <time>2023-02-16T10:44:48Z</time>
      </trkpt>
      <trkpt lat="44.84608" lon="6.95737">
        <ele>2481.8</ele>
        <time>2023-02-16T10:44:49Z</time>
      </trkpt>
      <trkpt lat="44.84608" lon="6.95737">
        <ele>2481.8</ele>
        <time>2023-02-16T10:44:50Z</time>
      </trkpt>
      <trkpt lat="44.84608" lon="6.95737">
        <ele>2481.8</ele>
        <time>2023-02-16T10:44:51Z</time>
      </trkpt>
      <trkpt lat="44.84608" lon="6.95737">
        <ele>2481.8</ele>
        <time>2023-02-16T10:44:53Z</time>
      </trkpt>
      <trkpt lat="44.84607" lon="6.95737">
        <ele>2481.4</ele>
        <time>2023-02-16T10:44:58Z</time>
      </trkpt>
      <trkpt lat="44.84607" lon="6.95736">
        <ele>2481.2</ele>
        <time>2023-02-16T10:45:19Z</time>
      </trkpt>
      <trkpt lat="44.84605" lon="6.95734">
        <ele>2480.1</ele>
        <time>2023-02-16T10:45:38Z</time>
      </trkpt>
      <trkpt lat="44.84606" lon="6.95734">
        <ele>2480.5</ele>
        <time>2023-02-16T10:45:56Z</time>
      </trkpt>
      <trkpt lat="44.84606" lon="6.95734">
        <ele>2480.5</ele>
        <time>2023-02-16T10:46:15Z</time>
      </trkpt>
      <trkpt lat="44.84605" lon="6.95735">
        <ele>2480.2</ele>
        <time>2023-02-16T10:46:32Z</time>
      </trkpt>
      <trkpt lat="44.84605" lon="6.95735">
        <ele>2480.2</ele>
        <time>2023-02-16T10:46:43Z</time>
      </trkpt>
      <trkpt lat="44.84606" lon="6.95739">
        <ele>2481.2</ele>
        <time>2023-02-16T10:46:51Z</time>
      </trkpt>
      <trkpt lat="44.84606" lon="6.95742">
        <ele>2481.6</ele>
        <time>2023-02-16T10:46:54Z</time>
      </trkpt>
      <trkpt lat="44.84607" lon="6.95748">
        <ele>2482.9</ele>
        <time>2023-02-16T10:47:00Z</time>
      </trkpt>
      <trkpt lat="44.84608" lon="6.95754">
        <ele>2484.4</ele>
        <time>2023-02-16T10:47:06Z</time>
      </trkpt>
      <trkpt lat="44.84608" lon="6.95755">
        <ele>2484.6</ele>
        <time>2023-02-16T10:47:07Z</time>
      </trkpt>
      <trkpt lat="44.84608" lon="6.95763">
        <ele>2486</ele>
        <time>2023-02-16T10:47:14Z</time>
      </trkpt>
      <trkpt lat="44.84609" lon="6.95767">
        <ele>2487.1</ele>
        <time>2023-02-16T10:47:18Z</time>
      </trkpt>
      <trkpt lat="44.8461" lon="6.95775">
        <ele>2489</ele>
        <time>2023-02-16T10:47:25Z</time>
      </trkpt>
      <trkpt lat="44.84609" lon="6.95781">
        <ele>2489.8</ele>
        <time>2023-02-16T10:47:31Z</time>
      </trkpt>
      <trkpt lat="44.84609" lon="6.95782">
        <ele>2490</ele>
        <time>2023-02-16T10:47:32Z</time>
      </trkpt>
      <trkpt lat="44.84608" lon="6.95787">
        <ele>2490.7</ele>
        <time>2023-02-16T10:47:37Z</time>
      </trkpt>
      <trkpt lat="44.84608" lon="6.95795">
        <ele>2492.4</ele>
        <time>2023-02-16T10:47:45Z</time>
      </trkpt>
      <trkpt lat="44.84607" lon="6.95797">
        <ele>2492.5</ele>
        <time>2023-02-16T10:47:47Z</time>
      </trkpt>
      <trkpt lat="44.84607" lon="6.95804">
        <ele>2494</ele>
        <time>2023-02-16T10:47:54Z</time>
      </trkpt>
      <trkpt lat="44.84607" lon="6.95809">
        <ele>2495.4</ele>
        <time>2023-02-16T10:47:59Z</time>
      </trkpt>
      <trkpt lat="44.84607" lon="6.9581">
        <ele>2495.7</ele>
        <time>2023-02-16T10:48:01Z</time>
      </trkpt>
      <trkpt lat="44.84606" lon="6.95816">
        <ele>2497.2</ele>
        <time>2023-02-16T10:48:06Z</time>
      </trkpt>
      <trkpt lat="44.84605" lon="6.95822">
        <ele>2498.5</ele>
        <time>2023-02-16T10:48:12Z</time>
      </trkpt>
      <trkpt lat="44.84605" lon="6.95823">
        <ele>2498.8</ele>
        <time>2023-02-16T10:48:13Z</time>
      </trkpt>
      <trkpt lat="44.84604" lon="6.95825">
        <ele>2498.9</ele>
        <time>2023-02-16T10:48:21Z</time>
      </trkpt>
      <trkpt lat="44.84609" lon="6.95822">
        <ele>2500.4</ele>
        <time>2023-02-16T10:48:29Z</time>
      </trkpt>
      <trkpt lat="44.84609" lon="6.95822">
        <ele>2500.4</ele>
        <time>2023-02-16T10:48:30Z</time>
      </trkpt>
      <trkpt lat="44.84612" lon="6.9582">
        <ele>2501</ele>
        <time>2023-02-16T10:48:35Z</time>
      </trkpt>
      <trkpt lat="44.84617" lon="6.95819">
        <ele>2502.7</ele>
        <time>2023-02-16T10:48:41Z</time>
      </trkpt>
      <trkpt lat="44.84617" lon="6.95818">
        <ele>2502.4</ele>
        <time>2023-02-16T10:48:42Z</time>
      </trkpt>
      <trkpt lat="44.84621" lon="6.95817">
        <ele>2503.6</ele>
        <time>2023-02-16T10:48:48Z</time>
      </trkpt>
      <trkpt lat="44.84624" lon="6.95816">
        <ele>2504.5</ele>
        <time>2023-02-16T10:48:52Z</time>
      </trkpt>
      <trkpt lat="44.84625" lon="6.95816">
        <ele>2504.9</ele>
        <time>2023-02-16T10:48:53Z</time>
      </trkpt>
      <trkpt lat="44.84629" lon="6.95815">
        <ele>2506.1</ele>
        <time>2023-02-16T10:48:59Z</time>
      </trkpt>
      <trkpt lat="44.84632" lon="6.95812">
        <ele>2506.4</ele>
        <time>2023-02-16T10:49:04Z</time>
      </trkpt>
      <trkpt lat="44.84633" lon="6.95811">
        <ele>2506.4</ele>
        <time>2023-02-16T10:49:05Z</time>
      </trkpt>
      <trkpt lat="44.84635" lon="6.9581">
        <ele>2506.9</ele>
        <time>2023-02-16T10:49:08Z</time>
      </trkpt>
      <trkpt lat="44.84636" lon="6.95809">
        <ele>2507</ele>
        <time>2023-02-16T10:49:10Z</time>
      </trkpt>
      <trkpt lat="44.84638" lon="6.95808">
        <ele>2507.4</ele>
        <time>2023-02-16T10:49:14Z</time>
      </trkpt>
      <trkpt lat="44.8464" lon="6.95808">
        <ele>2508.3</ele>
        <time>2023-02-16T10:49:16Z</time>
      </trkpt>
      <trkpt lat="44.84642" lon="6.95807">
        <ele>2508.9</ele>
        <time>2023-02-16T10:49:20Z</time>
      </trkpt>
      <trkpt lat="44.84644" lon="6.95805">
        <ele>2509.3</ele>
        <time>2023-02-16T10:49:23Z</time>
      </trkpt>
      <trkpt lat="44.84647" lon="6.95803">
        <ele>2510.3</ele>
        <time>2023-02-16T10:49:27Z</time>
      </trkpt>
      <trkpt lat="44.84652" lon="6.95799">
        <ele>2511.8</ele>
        <time>2023-02-16T10:49:36Z</time>
      </trkpt>
      <trkpt lat="44.84654" lon="6.95797">
        <ele>2512.4</ele>
        <time>2023-02-16T10:49:40Z</time>
      </trkpt>
      <trkpt lat="44.84658" lon="6.95795">
        <ele>2513.9</ele>
        <time>2023-02-16T10:49:46Z</time>
      </trkpt>
      <trkpt lat="44.84659" lon="6.95794">
        <ele>2514.2</ele>
        <time>2023-02-16T10:49:48Z</time>
      </trkpt>
      <trkpt lat="44.8466" lon="6.95795">
        <ele>2514.9</ele>
        <time>2023-02-16T10:49:53Z</time>
      </trkpt>
      <trkpt lat="44.8466" lon="6.95799">
        <ele>2515.6</ele>
        <time>2023-02-16T10:49:57Z</time>
      </trkpt>
      <trkpt lat="44.84659" lon="6.95804">
        <ele>2516.1</ele>
        <time>2023-02-16T10:50:02Z</time>
      </trkpt>
      <trkpt lat="44.84659" lon="6.9581">
        <ele>2517.6</ele>
        <time>2023-02-16T10:50:08Z</time>
      </trkpt>
      <trkpt lat="44.84659" lon="6.95813">
        <ele>2518.4</ele>
        <time>2023-02-16T10:50:10Z</time>
      </trkpt>
      <trkpt lat="44.84658" lon="6.95818">
        <ele>2519.4</ele>
        <time>2023-02-16T10:50:15Z</time>
      </trkpt>
      <trkpt lat="44.84658" lon="6.95822">
        <ele>2520.5</ele>
        <time>2023-02-16T10:50:19Z</time>
      </trkpt>
      <trkpt lat="44.84658" lon="6.95823">
        <ele>2520.7</ele>
        <time>2023-02-16T10:50:20Z</time>
      </trkpt>
      <trkpt lat="44.84657" lon="6.95826">
        <ele>2521.1</ele>
        <time>2023-02-16T10:50:24Z</time>
      </trkpt>
      <trkpt lat="44.84657" lon="6.95829">
        <ele>2522</ele>
        <time>2023-02-16T10:50:27Z</time>
      </trkpt>
      <trkpt lat="44.84658" lon="6.95828">
        <ele>2522.1</ele>
        <time>2023-02-16T10:50:33Z</time>
      </trkpt>
      <trkpt lat="44.84664" lon="6.95823">
        <ele>2523.3</ele>
        <time>2023-02-16T10:50:43Z</time>
      </trkpt>
      <trkpt lat="44.84666" lon="6.95821">
        <ele>2523.6</ele>
        <time>2023-02-16T10:50:46Z</time>
      </trkpt>
      <trkpt lat="44.84668" lon="6.95819">
        <ele>2524.4</ele>
        <time>2023-02-16T10:50:49Z</time>
      </trkpt>
      <trkpt lat="44.8467" lon="6.95816">
        <ele>2525.1</ele>
        <time>2023-02-16T10:50:54Z</time>
      </trkpt>
      <trkpt lat="44.84673" lon="6.95813">
        <ele>2526.6</ele>
        <time>2023-02-16T10:51:00Z</time>
      </trkpt>
      <trkpt lat="44.84673" lon="6.95813">
        <ele>2526.6</ele>
        <time>2023-02-16T10:51:05Z</time>
      </trkpt>
      <trkpt lat="44.84673" lon="6.95819">
        <ele>2528</ele>
        <time>2023-02-16T10:51:11Z</time>
      </trkpt>
      <trkpt lat="44.84673" lon="6.95821">
        <ele>2528.4</ele>
        <time>2023-02-16T10:51:12Z</time>
      </trkpt>
      <trkpt lat="44.84673" lon="6.95823">
        <ele>2528.8</ele>
        <time>2023-02-16T10:51:14Z</time>
      </trkpt>
      <trkpt lat="44.84673" lon="6.95829">
        <ele>2530.2</ele>
        <time>2023-02-16T10:51:20Z</time>
      </trkpt>
      <trkpt lat="44.84673" lon="6.95835">
        <ele>2531.5</ele>
        <time>2023-02-16T10:51:26Z</time>
      </trkpt>
      <trkpt lat="44.84672" lon="6.95842">
        <ele>2532.8</ele>
        <time>2023-02-16T10:51:33Z</time>
      </trkpt>
      <trkpt lat="44.84672" lon="6.95847">
        <ele>2534.1</ele>
        <time>2023-02-16T10:51:39Z</time>
      </trkpt>
      <trkpt lat="44.84672" lon="6.95848">
        <ele>2534.4</ele>
        <time>2023-02-16T10:51:40Z</time>
      </trkpt>
      <trkpt lat="44.84671" lon="6.95853">
        <ele>2535.1</ele>
        <time>2023-02-16T10:51:45Z</time>
      </trkpt>
      <trkpt lat="44.84669" lon="6.95859">
        <ele>2535.7</ele>
        <time>2023-02-16T10:51:52Z</time>
      </trkpt>
      <trkpt lat="44.84669" lon="6.95861">
        <ele>2536.2</ele>
        <time>2023-02-16T10:51:54Z</time>
      </trkpt>
      <trkpt lat="44.84668" lon="6.95864">
        <ele>2536.4</ele>
        <time>2023-02-16T10:51:58Z</time>
      </trkpt>
      <trkpt lat="44.84666" lon="6.95868">
        <ele>2536.5</ele>
        <time>2023-02-16T10:52:03Z</time>
      </trkpt>
      <trkpt lat="44.84666" lon="6.95871">
        <ele>2537.2</ele>
        <time>2023-02-16T10:52:07Z</time>
      </trkpt>
      <trkpt lat="44.84665" lon="6.95872">
        <ele>2537</ele>
        <time>2023-02-16T10:52:08Z</time>
      </trkpt>
      <trkpt lat="44.84665" lon="6.95877">
        <ele>2538.2</ele>
        <time>2023-02-16T10:52:14Z</time>
      </trkpt>
      <trkpt lat="44.84666" lon="6.95881">
        <ele>2539.7</ele>
        <time>2023-02-16T10:52:18Z</time>
      </trkpt>
      <trkpt lat="44.84665" lon="6.95885">
        <ele>2540.2</ele>
        <time>2023-02-16T10:52:22Z</time>
      </trkpt>
      <trkpt lat="44.84665" lon="6.95891">
        <ele>2541.6</ele>
        <time>2023-02-16T10:52:28Z</time>
      </trkpt>
      <trkpt lat="44.84664" lon="6.95893">
        <ele>2541.5</ele>
        <time>2023-02-16T10:52:30Z</time>
      </trkpt>
      <trkpt lat="44.84664" lon="6.95897">
        <ele>2542.4</ele>
        <time>2023-02-16T10:52:34Z</time>
      </trkpt>
      <trkpt lat="44.84664" lon="6.95903">
        <ele>2543.7</ele>
        <time>2023-02-16T10:52:40Z</time>
      </trkpt>
      <trkpt lat="44.84664" lon="6.95907">
        <ele>2544.6</ele>
        <time>2023-02-16T10:52:45Z</time>
      </trkpt>
      <trkpt lat="44.84664" lon="6.95906">
        <ele>2544.4</ele>
        <time>2023-02-16T10:52:59Z</time>
      </trkpt>
      <trkpt lat="44.84665" lon="6.95906">
        <ele>2544.9</ele>
        <time>2023-02-16T10:53:17Z</time>
      </trkpt>
      <trkpt lat="44.84664" lon="6.95911">
        <ele>2545.4</ele>
        <time>2023-02-16T10:53:26Z</time>
      </trkpt>
      <trkpt lat="44.84664" lon="6.95912">
        <ele>2545.6</ele>
        <time>2023-02-16T10:53:27Z</time>
      </trkpt>
      <trkpt lat="44.84664" lon="6.95917">
        <ele>2546.8</ele>
        <time>2023-02-16T10:53:33Z</time>
      </trkpt>
      <trkpt lat="44.84663" lon="6.9592">
        <ele>2547.1</ele>
        <time>2023-02-16T10:53:35Z</time>
      </trkpt>
      <trkpt lat="44.84663" lon="6.95923">
        <ele>2547.9</ele>
        <time>2023-02-16T10:53:38Z</time>
      </trkpt>
      <trkpt lat="44.84662" lon="6.95925">
        <ele>2548</ele>
        <time>2023-02-16T10:53:40Z</time>
      </trkpt>
      <trkpt lat="44.84662" lon="6.95928">
        <ele>2548.8</ele>
        <time>2023-02-16T10:53:43Z</time>
      </trkpt>
      <trkpt lat="44.84662" lon="6.95933">
        <ele>2550.3</ele>
        <time>2023-02-16T10:53:49Z</time>
      </trkpt>
      <trkpt lat="44.84661" lon="6.95936">
        <ele>2550.6</ele>
        <time>2023-02-16T10:53:53Z</time>
      </trkpt>
      <trkpt lat="44.8466" lon="6.95941">
        <ele>2551.4</ele>
        <time>2023-02-16T10:53:58Z</time>
      </trkpt>
      <trkpt lat="44.8466" lon="6.95941">
        <ele>2551.4</ele>
        <time>2023-02-16T10:54:02Z</time>
      </trkpt>
      <trkpt lat="44.84661" lon="6.9594">
        <ele>2551.7</ele>
        <time>2023-02-16T10:54:04Z</time>
      </trkpt>
      <trkpt lat="44.84663" lon="6.95938">
        <ele>2552.2</ele>
        <time>2023-02-16T10:54:09Z</time>
      </trkpt>
      <trkpt lat="44.84665" lon="6.95936">
        <ele>2552.7</ele>
        <time>2023-02-16T10:54:13Z</time>
      </trkpt>
      <trkpt lat="44.84667" lon="6.95935">
        <ele>2553.5</ele>
        <time>2023-02-16T10:54:17Z</time>
      </trkpt>
      <trkpt lat="44.84671" lon="6.95931">
        <ele>2554.7</ele>
        <time>2023-02-16T10:54:24Z</time>
      </trkpt>
      <trkpt lat="44.84674" lon="6.95928">
        <ele>2555.6</ele>
        <time>2023-02-16T10:54:29Z</time>
      </trkpt>
      <trkpt lat="44.84676" lon="6.95926">
        <ele>2556.2</ele>
        <time>2023-02-16T10:54:33Z</time>
      </trkpt>
      <trkpt lat="44.8468" lon="6.95923">
        <ele>2557.6</ele>
        <time>2023-02-16T10:54:40Z</time>
      </trkpt>
      <trkpt lat="44.84682" lon="6.95921">
        <ele>2558.2</ele>
        <time>2023-02-16T10:54:43Z</time>
      </trkpt>
      <trkpt lat="44.84683" lon="6.9592">
        <ele>2558.4</ele>
        <time>2023-02-16T10:54:45Z</time>
      </trkpt>
      <trkpt lat="44.84685" lon="6.95918">
        <ele>2559</ele>
        <time>2023-02-16T10:54:49Z</time>
      </trkpt>
      <trkpt lat="44.84688" lon="6.95914">
        <ele>2559.6</ele>
        <time>2023-02-16T10:54:54Z</time>
      </trkpt>
      <trkpt lat="44.8469" lon="6.95912">
        <ele>2560.1</ele>
        <time>2023-02-16T10:54:58Z</time>
      </trkpt>
      <trkpt lat="44.84692" lon="6.9591">
        <ele>2560.7</ele>
        <time>2023-02-16T10:55:02Z</time>
      </trkpt>
      <trkpt lat="44.84693" lon="6.9591">
        <ele>2561.3</ele>
        <time>2023-02-16T10:55:06Z</time>
      </trkpt>
      <trkpt lat="44.84694" lon="6.9591">
        <ele>2561.8</ele>
        <time>2023-02-16T10:55:12Z</time>
      </trkpt>
      <trkpt lat="44.84694" lon="6.95913">
        <ele>2562.7</ele>
        <time>2023-02-16T10:55:18Z</time>
      </trkpt>
      <trkpt lat="44.84693" lon="6.9592">
        <ele>2564.2</ele>
        <time>2023-02-16T10:55:26Z</time>
      </trkpt>
      <trkpt lat="44.84693" lon="6.95923">
        <ele>2565.2</ele>
        <time>2023-02-16T10:55:28Z</time>
      </trkpt>
      <trkpt lat="44.84693" lon="6.95924">
        <ele>2565.5</ele>
        <time>2023-02-16T10:55:29Z</time>
      </trkpt>
      <trkpt lat="44.84693" lon="6.95927">
        <ele>2566.5</ele>
        <time>2023-02-16T10:55:31Z</time>
      </trkpt>
      <trkpt lat="44.84693" lon="6.95927">
        <ele>2566.5</ele>
        <time>2023-02-16T10:55:37Z</time>
      </trkpt>
      <trkpt lat="44.84691" lon="6.9594">
        <ele>2569.5</ele>
        <time>2023-02-16T10:55:43Z</time>
      </trkpt>
      <trkpt lat="44.84691" lon="6.95941">
        <ele>2569.8</ele>
        <time>2023-02-16T10:55:45Z</time>
      </trkpt>
      <trkpt lat="44.8469" lon="6.95945">
        <ele>2570.4</ele>
        <time>2023-02-16T10:55:49Z</time>
      </trkpt>
      <trkpt lat="44.84688" lon="6.95951">
        <ele>2570.8</ele>
        <time>2023-02-16T10:55:56Z</time>
      </trkpt>
      <trkpt lat="44.84688" lon="6.95954">
        <ele>2571.6</ele>
        <time>2023-02-16T10:56:00Z</time>
      </trkpt>
      <trkpt lat="44.84688" lon="6.95958">
        <ele>2572.7</ele>
        <time>2023-02-16T10:56:06Z</time>
      </trkpt>
      <trkpt lat="44.84687" lon="6.95963">
        <ele>2573.5</ele>
        <time>2023-02-16T10:56:12Z</time>
      </trkpt>
      <trkpt lat="44.84687" lon="6.95964">
        <ele>2573.7</ele>
        <time>2023-02-16T10:56:13Z</time>
      </trkpt>
      <trkpt lat="44.84686" lon="6.95969">
        <ele>2574.6</ele>
        <time>2023-02-16T10:56:18Z</time>
      </trkpt>
      <trkpt lat="44.84685" lon="6.95972">
        <ele>2574.8</ele>
        <time>2023-02-16T10:56:23Z</time>
      </trkpt>
      <trkpt lat="44.84685" lon="6.95975">
        <ele>2575.8</ele>
        <time>2023-02-16T10:56:27Z</time>
      </trkpt>
      <trkpt lat="44.84685" lon="6.95979">
        <ele>2577.2</ele>
        <time>2023-02-16T10:56:32Z</time>
      </trkpt>
      <trkpt lat="44.84685" lon="6.95983">
        <ele>2578.5</ele>
        <time>2023-02-16T10:56:37Z</time>
      </trkpt>
      <trkpt lat="44.84685" lon="6.95985">
        <ele>2579.2</ele>
        <time>2023-02-16T10:56:40Z</time>
      </trkpt>
      <trkpt lat="44.84684" lon="6.95987">
        <ele>2579.3</ele>
        <time>2023-02-16T10:56:43Z</time>
      </trkpt>
      <trkpt lat="44.84684" lon="6.95987">
        <ele>2579.3</ele>
        <time>2023-02-16T10:56:49Z</time>
      </trkpt>
      <trkpt lat="44.84682" lon="6.95993">
        <ele>2580.3</ele>
        <time>2023-02-16T10:57:00Z</time>
      </trkpt>
      <trkpt lat="44.84681" lon="6.95995">
        <ele>2580.5</ele>
        <time>2023-02-16T10:57:03Z</time>
      </trkpt>
      <trkpt lat="44.8468" lon="6.96">
        <ele>2581.7</ele>
        <time>2023-02-16T10:57:09Z</time>
      </trkpt>
      <trkpt lat="44.8468" lon="6.96001">
        <ele>2582.1</ele>
        <time>2023-02-16T10:57:11Z</time>
      </trkpt>
      <trkpt lat="44.84682" lon="6.96">
        <ele>2582.7</ele>
        <time>2023-02-16T10:57:20Z</time>
      </trkpt>
      <trkpt lat="44.84683" lon="6.96">
        <ele>2583.2</ele>
        <time>2023-02-16T10:57:21Z</time>
      </trkpt>
      <trkpt lat="44.84688" lon="6.95999">
        <ele>2585.4</ele>
        <time>2023-02-16T10:57:30Z</time>
      </trkpt>
      <trkpt lat="44.8469" lon="6.95999">
        <ele>2586.4</ele>
        <time>2023-02-16T10:57:32Z</time>
      </trkpt>
      <trkpt lat="44.84692" lon="6.95998">
        <ele>2587.1</ele>
        <time>2023-02-16T10:57:35Z</time>
      </trkpt>
      <trkpt lat="44.84695" lon="6.95997">
        <ele>2588.3</ele>
        <time>2023-02-16T10:57:40Z</time>
      </trkpt>
      <trkpt lat="44.84696" lon="6.95996">
        <ele>2588.5</ele>
        <time>2023-02-16T10:57:42Z</time>
      </trkpt>
      <trkpt lat="44.84698" lon="6.95994">
        <ele>2588.8</ele>
        <time>2023-02-16T10:57:46Z</time>
      </trkpt>
      <trkpt lat="44.84701" lon="6.95991">
        <ele>2589.4</ele>
        <time>2023-02-16T10:57:52Z</time>
      </trkpt>
      <trkpt lat="44.84702" lon="6.9599">
        <ele>2589.6</ele>
        <time>2023-02-16T10:57:54Z</time>
      </trkpt>
      <trkpt lat="44.84707" lon="6.95986">
        <ele>2590.8</ele>
        <time>2023-02-16T10:58:01Z</time>
      </trkpt>
      <trkpt lat="44.84711" lon="6.95982">
        <ele>2591.5</ele>
        <time>2023-02-16T10:58:08Z</time>
      </trkpt>
      <trkpt lat="44.84715" lon="6.95978">
        <ele>2592.2</ele>
        <time>2023-02-16T10:58:14Z</time>
      </trkpt>
      <trkpt lat="44.84715" lon="6.95977">
        <ele>2591.9</ele>
        <time>2023-02-16T10:58:15Z</time>
      </trkpt>
      <trkpt lat="44.84718" lon="6.95974">
        <ele>2592.4</ele>
        <time>2023-02-16T10:58:20Z</time>
      </trkpt>
      <trkpt lat="44.84719" lon="6.95974">
        <ele>2593</ele>
        <time>2023-02-16T10:58:24Z</time>
      </trkpt>
      <trkpt lat="44.8472" lon="6.95971">
        <ele>2592.7</ele>
        <time>2023-02-16T10:58:30Z</time>
      </trkpt>
      <trkpt lat="44.84721" lon="6.95971">
        <ele>2593.2</ele>
        <time>2023-02-16T10:58:32Z</time>
      </trkpt>
      <trkpt lat="44.84721" lon="6.95976">
        <ele>2594.6</ele>
        <time>2023-02-16T10:58:38Z</time>
      </trkpt>
      <trkpt lat="44.84721" lon="6.95977">
        <ele>2594.9</ele>
        <time>2023-02-16T10:58:39Z</time>
      </trkpt>
      <trkpt lat="44.84721" lon="6.95979">
        <ele>2595.6</ele>
        <time>2023-02-16T10:58:40Z</time>
      </trkpt>
      <trkpt lat="44.84721" lon="6.95983">
        <ele>2596.9</ele>
        <time>2023-02-16T10:58:43Z</time>
      </trkpt>
      <trkpt lat="44.84719" lon="6.9599">
        <ele>2598.1</ele>
        <time>2023-02-16T10:58:49Z</time>
      </trkpt>
      <trkpt lat="44.84719" lon="6.95992">
        <ele>2598.8</ele>
        <time>2023-02-16T10:58:51Z</time>
      </trkpt>
      <trkpt lat="44.84718" lon="6.95997">
        <ele>2599.9</ele>
        <time>2023-02-16T10:58:56Z</time>
      </trkpt>
      <trkpt lat="44.84717" lon="6.96002">
        <ele>2601</ele>
        <time>2023-02-16T10:59:02Z</time>
      </trkpt>
      <trkpt lat="44.84716" lon="6.96004">
        <ele>2601.2</ele>
        <time>2023-02-16T10:59:04Z</time>
      </trkpt>
      <trkpt lat="44.84715" lon="6.96007">
        <ele>2601.7</ele>
        <time>2023-02-16T10:59:07Z</time>
      </trkpt>
      <trkpt lat="44.84714" lon="6.96013">
        <ele>2603.2</ele>
        <time>2023-02-16T10:59:14Z</time>
      </trkpt>
      <trkpt lat="44.84713" lon="6.96016">
        <ele>2603.7</ele>
        <time>2023-02-16T10:59:17Z</time>
      </trkpt>
      <trkpt lat="44.84713" lon="6.96017">
        <ele>2604.1</ele>
        <time>2023-02-16T10:59:18Z</time>
      </trkpt>
      <trkpt lat="44.84711" lon="6.96024">
        <ele>2605.5</ele>
        <time>2023-02-16T10:59:25Z</time>
      </trkpt>
      <trkpt lat="44.84711" lon="6.96028">
        <ele>2606.8</ele>
        <time>2023-02-16T10:59:29Z</time>
      </trkpt>
      <trkpt lat="44.84711" lon="6.96029">
        <ele>2607.2</ele>
        <time>2023-02-16T10:59:31Z</time>
      </trkpt>
      <trkpt lat="44.84711" lon="6.96029">
        <ele>2607.2</ele>
        <time>2023-02-16T10:59:39Z</time>
      </trkpt>
      <trkpt lat="44.84711" lon="6.96028">
        <ele>2606.8</ele>
        <time>2023-02-16T10:59:43Z</time>
      </trkpt>
      <trkpt lat="44.8471" lon="6.96034">
        <ele>2608.5</ele>
        <time>2023-02-16T10:59:50Z</time>
      </trkpt>
      <trkpt lat="44.84709" lon="6.96038">
        <ele>2609.5</ele>
        <time>2023-02-16T10:59:54Z</time>
      </trkpt>
      <trkpt lat="44.84708" lon="6.96043">
        <ele>2610.8</ele>
        <time>2023-02-16T10:59:59Z</time>
      </trkpt>
      <trkpt lat="44.84706" lon="6.96047">
        <ele>2611.4</ele>
        <time>2023-02-16T11:00:03Z</time>
      </trkpt>
      <trkpt lat="44.84705" lon="6.96051">
        <ele>2612.5</ele>
        <time>2023-02-16T11:00:08Z</time>
      </trkpt>
      <trkpt lat="44.84704" lon="6.96053">
        <ele>2612.8</ele>
        <time>2023-02-16T11:00:11Z</time>
      </trkpt>
      <trkpt lat="44.84701" lon="6.96058">
        <ele>2613.5</ele>
        <time>2023-02-16T11:00:17Z</time>
      </trkpt>
      <trkpt lat="44.84699" lon="6.96062">
        <ele>2614.2</ele>
        <time>2023-02-16T11:00:23Z</time>
      </trkpt>
      <trkpt lat="44.84696" lon="6.96067">
        <ele>2614.8</ele>
        <time>2023-02-16T11:00:29Z</time>
      </trkpt>
      <trkpt lat="44.84696" lon="6.96068">
        <ele>2615.1</ele>
        <time>2023-02-16T11:00:30Z</time>
      </trkpt>
      <trkpt lat="44.84694" lon="6.96073">
        <ele>2616.1</ele>
        <time>2023-02-16T11:00:36Z</time>
      </trkpt>
      <trkpt lat="44.84692" lon="6.96077">
        <ele>2616.8</ele>
        <time>2023-02-16T11:00:41Z</time>
      </trkpt>
      <trkpt lat="44.8469" lon="6.96079">
        <ele>2616.8</ele>
        <time>2023-02-16T11:00:44Z</time>
      </trkpt>
      <trkpt lat="44.8469" lon="6.9608">
        <ele>2617.2</ele>
        <time>2023-02-16T11:00:45Z</time>
      </trkpt>
      <trkpt lat="44.84689" lon="6.96081">
        <ele>2617.2</ele>
        <time>2023-02-16T11:00:54Z</time>
      </trkpt>
      <trkpt lat="44.84689" lon="6.96083">
        <ele>2617.9</ele>
        <time>2023-02-16T11:01:08Z</time>
      </trkpt>
      <trkpt lat="44.84687" lon="6.96086">
        <ele>2618.2</ele>
        <time>2023-02-16T11:01:12Z</time>
      </trkpt>
      <trkpt lat="44.84685" lon="6.96092">
        <ele>2619.4</ele>
        <time>2023-02-16T11:01:18Z</time>
      </trkpt>
      <trkpt lat="44.84683" lon="6.96098">
        <ele>2620.6</ele>
        <time>2023-02-16T11:01:25Z</time>
      </trkpt>
      <trkpt lat="44.84681" lon="6.96102">
        <ele>2621.2</ele>
        <time>2023-02-16T11:01:29Z</time>
      </trkpt>
      <trkpt lat="44.8468" lon="6.96103">
        <ele>2621.2</ele>
        <time>2023-02-16T11:01:30Z</time>
      </trkpt>
      <trkpt lat="44.84678" lon="6.9611">
        <ele>2622.7</ele>
        <time>2023-02-16T11:01:37Z</time>
      </trkpt>
      <trkpt lat="44.84678" lon="6.96111">
        <ele>2623</ele>
        <time>2023-02-16T11:01:40Z</time>
      </trkpt>
      <trkpt lat="44.84679" lon="6.96109">
        <ele>2622.8</ele>
        <time>2023-02-16T11:01:54Z</time>
      </trkpt>
      <trkpt lat="44.84678" lon="6.96115">
        <ele>2624.1</ele>
        <time>2023-02-16T11:02:03Z</time>
      </trkpt>
      <trkpt lat="44.84678" lon="6.96121">
        <ele>2625.7</ele>
        <time>2023-02-16T11:02:09Z</time>
      </trkpt>
      <trkpt lat="44.84676" lon="6.96129">
        <ele>2627.1</ele>
        <time>2023-02-16T11:02:16Z</time>
      </trkpt>
      <trkpt lat="44.84675" lon="6.96131">
        <ele>2627.2</ele>
        <time>2023-02-16T11:02:18Z</time>
      </trkpt>
      <trkpt lat="44.84675" lon="6.96135">
        <ele>2628.3</ele>
        <time>2023-02-16T11:02:22Z</time>
      </trkpt>
      <trkpt lat="44.84675" lon="6.9614">
        <ele>2629.6</ele>
        <time>2023-02-16T11:02:28Z</time>
      </trkpt>
      <trkpt lat="44.84674" lon="6.96142">
        <ele>2629.6</ele>
        <time>2023-02-16T11:02:30Z</time>
      </trkpt>
      <trkpt lat="44.84673" lon="6.96148">
        <ele>2630.6</ele>
        <time>2023-02-16T11:02:35Z</time>
      </trkpt>
      <trkpt lat="44.84673" lon="6.96153">
        <ele>2631.7</ele>
        <time>2023-02-16T11:02:41Z</time>
      </trkpt>
      <trkpt lat="44.84672" lon="6.96155">
        <ele>2631.7</ele>
        <time>2023-02-16T11:02:42Z</time>
      </trkpt>
      <trkpt lat="44.84671" lon="6.96161">
        <ele>2632.6</ele>
        <time>2023-02-16T11:02:48Z</time>
      </trkpt>
      <trkpt lat="44.8467" lon="6.96166">
        <ele>2633.3</ele>
        <time>2023-02-16T11:02:53Z</time>
      </trkpt>
      <trkpt lat="44.84669" lon="6.96167">
        <ele>2633.1</ele>
        <time>2023-02-16T11:02:54Z</time>
      </trkpt>
      <trkpt lat="44.84667" lon="6.96175">
        <ele>2634.2</ele>
        <time>2023-02-16T11:03:01Z</time>
      </trkpt>
      <trkpt lat="44.84666" lon="6.96179">
        <ele>2634.8</ele>
        <time>2023-02-16T11:03:05Z</time>
      </trkpt>
      <trkpt lat="44.84666" lon="6.96181">
        <ele>2635.3</ele>
        <time>2023-02-16T11:03:08Z</time>
      </trkpt>
      <trkpt lat="44.84665" lon="6.96185">
        <ele>2635.9</ele>
        <time>2023-02-16T11:03:12Z</time>
      </trkpt>
      <trkpt lat="44.84662" lon="6.96192">
        <ele>2636.5</ele>
        <time>2023-02-16T11:03:20Z</time>
      </trkpt>
      <trkpt lat="44.84662" lon="6.96196">
        <ele>2637.6</ele>
        <time>2023-02-16T11:03:23Z</time>
      </trkpt>
      <trkpt lat="44.84662" lon="6.96197">
        <ele>2637.9</ele>
        <time>2023-02-16T11:03:25Z</time>
      </trkpt>
      <trkpt lat="44.8466" lon="6.96202">
        <ele>2638.7</ele>
        <time>2023-02-16T11:03:32Z</time>
      </trkpt>
      <trkpt lat="44.8466" lon="6.96203">
        <ele>2639</ele>
        <time>2023-02-16T11:03:34Z</time>
      </trkpt>
      <trkpt lat="44.84658" lon="6.96208">
        <ele>2639.9</ele>
        <time>2023-02-16T11:03:47Z</time>
      </trkpt>
      <trkpt lat="44.84658" lon="6.96209">
        <ele>2640.3</ele>
        <time>2023-02-16T11:03:48Z</time>
      </trkpt>
      <trkpt lat="44.84658" lon="6.96211">
        <ele>2640.9</ele>
        <time>2023-02-16T11:03:50Z</time>
      </trkpt>
      <trkpt lat="44.84658" lon="6.96217">
        <ele>2642.8</ele>
        <time>2023-02-16T11:03:55Z</time>
      </trkpt>
      <trkpt lat="44.84657" lon="6.96222">
        <ele>2644.1</ele>
        <time>2023-02-16T11:04:00Z</time>
      </trkpt>
      <trkpt lat="44.84657" lon="6.96224">
        <ele>2644.8</ele>
        <time>2023-02-16T11:04:03Z</time>
      </trkpt>
      <trkpt lat="44.84655" lon="6.96229">
        <ele>2645.9</ele>
        <time>2023-02-16T11:04:08Z</time>
      </trkpt>
      <trkpt lat="44.84653" lon="6.96233">
        <ele>2646.7</ele>
        <time>2023-02-16T11:04:13Z</time>
      </trkpt>
      <trkpt lat="44.84653" lon="6.96234">
        <ele>2647.1</ele>
        <time>2023-02-16T11:04:14Z</time>
      </trkpt>
      <trkpt lat="44.8465" lon="6.96239">
        <ele>2648</ele>
        <time>2023-02-16T11:04:20Z</time>
      </trkpt>
      <trkpt lat="44.84648" lon="6.96244">
        <ele>2649.2</ele>
        <time>2023-02-16T11:04:26Z</time>
      </trkpt>
      <trkpt lat="44.84647" lon="6.96245">
        <ele>2649.3</ele>
        <time>2023-02-16T11:04:27Z</time>
      </trkpt>
      <trkpt lat="44.84645" lon="6.96251">
        <ele>2650.9</ele>
        <time>2023-02-16T11:04:33Z</time>
      </trkpt>
      <trkpt lat="44.84642" lon="6.96256">
        <ele>2651.7</ele>
        <time>2023-02-16T11:04:39Z</time>
      </trkpt>
      <trkpt lat="44.84642" lon="6.96256">
        <ele>2651.7</ele>
        <time>2023-02-16T11:04:40Z</time>
      </trkpt>
      <trkpt lat="44.84641" lon="6.96259">
        <ele>2652.4</ele>
        <time>2023-02-16T11:04:45Z</time>
      </trkpt>
      <trkpt lat="44.84638" lon="6.96264">
        <ele>2653.4</ele>
        <time>2023-02-16T11:04:53Z</time>
      </trkpt>
      <trkpt lat="44.84638" lon="6.96264">
        <ele>2653.4</ele>
        <time>2023-02-16T11:04:54Z</time>
      </trkpt>
      <trkpt lat="44.84636" lon="6.96269">
        <ele>2654.6</ele>
        <time>2023-02-16T11:04:59Z</time>
      </trkpt>
      <trkpt lat="44.84634" lon="6.96272">
        <ele>2655.2</ele>
        <time>2023-02-16T11:05:04Z</time>
      </trkpt>
      <trkpt lat="44.84634" lon="6.96274">
        <ele>2655.9</ele>
        <time>2023-02-16T11:05:07Z</time>
      </trkpt>
      <trkpt lat="44.84634" lon="6.96275">
        <ele>2656.2</ele>
        <time>2023-02-16T11:05:11Z</time>
      </trkpt>
      <trkpt lat="44.84632" lon="6.96275">
        <ele>2655.9</ele>
        <time>2023-02-16T11:05:18Z</time>
      </trkpt>
      <trkpt lat="44.84631" lon="6.96275">
        <ele>2655.7</ele>
        <time>2023-02-16T11:05:34Z</time>
      </trkpt>
      <trkpt lat="44.8463" lon="6.96277">
        <ele>2656.1</ele>
        <time>2023-02-16T11:05:56Z</time>
      </trkpt>
      <trkpt lat="44.84631" lon="6.96278">
        <ele>2656.6</ele>
        <time>2023-02-16T11:06:08Z</time>
      </trkpt>
      <trkpt lat="44.84631" lon="6.96278">
        <ele>2656.6</ele>
        <time>2023-02-16T11:06:14Z</time>
      </trkpt>
      <trkpt lat="44.84631" lon="6.96277">
        <ele>2656.3</ele>
        <time>2023-02-16T11:06:31Z</time>
      </trkpt>
      <trkpt lat="44.8463" lon="6.96276">
        <ele>2655.8</ele>
        <time>2023-02-16T11:06:49Z</time>
      </trkpt>
      <trkpt lat="44.8463" lon="6.96276">
        <ele>2655.8</ele>
        <time>2023-02-16T11:06:50Z</time>
      </trkpt>
      <trkpt lat="44.84629" lon="6.96277">
        <ele>2656</ele>
        <time>2023-02-16T11:07:06Z</time>
      </trkpt>
      <trkpt lat="44.8463" lon="6.96277">
        <ele>2656.1</ele>
        <time>2023-02-16T11:07:21Z</time>
      </trkpt>
      <trkpt lat="44.84631" lon="6.96277">
        <ele>2656.3</ele>
        <time>2023-02-16T11:07:39Z</time>
      </trkpt>
      <trkpt lat="44.8463" lon="6.96278">
        <ele>2656.4</ele>
        <time>2023-02-16T11:07:55Z</time>
      </trkpt>
      <trkpt lat="44.84635" lon="6.96279">
        <ele>2657.6</ele>
        <time>2023-02-16T11:08:10Z</time>
      </trkpt>
      <trkpt lat="44.84641" lon="6.96281">
        <ele>2659.1</ele>
        <time>2023-02-16T11:08:17Z</time>
      </trkpt>
      <trkpt lat="44.84641" lon="6.96282">
        <ele>2659.4</ele>
        <time>2023-02-16T11:08:18Z</time>
      </trkpt>
      <trkpt lat="44.84646" lon="6.96285">
        <ele>2661</ele>
        <time>2023-02-16T11:08:24Z</time>
      </trkpt>
      <trkpt lat="44.84647" lon="6.96285">
        <ele>2661.2</ele>
        <time>2023-02-16T11:08:25Z</time>
      </trkpt>
      <trkpt lat="44.84651" lon="6.96286">
        <ele>2662.3</ele>
        <time>2023-02-16T11:08:30Z</time>
      </trkpt>
      <trkpt lat="44.84655" lon="6.96286">
        <ele>2663.1</ele>
        <time>2023-02-16T11:08:36Z</time>
      </trkpt>
      <trkpt lat="44.84656" lon="6.96286">
        <ele>2663.3</ele>
        <time>2023-02-16T11:08:38Z</time>
      </trkpt>
      <trkpt lat="44.84659" lon="6.96286">
        <ele>2663.9</ele>
        <time>2023-02-16T11:08:42Z</time>
      </trkpt>
      <trkpt lat="44.84663" lon="6.96287">
        <ele>2664.9</ele>
        <time>2023-02-16T11:08:48Z</time>
      </trkpt>
      <trkpt lat="44.84664" lon="6.96287">
        <ele>2665.1</ele>
        <time>2023-02-16T11:08:49Z</time>
      </trkpt>
      <trkpt lat="44.84667" lon="6.96287">
        <ele>2665.7</ele>
        <time>2023-02-16T11:08:53Z</time>
      </trkpt>
      <trkpt lat="44.84672" lon="6.96287">
        <ele>2666.7</ele>
        <time>2023-02-16T11:09:01Z</time>
      </trkpt>
      <trkpt lat="44.84672" lon="6.96286">
        <ele>2666.6</ele>
        <time>2023-02-16T11:09:02Z</time>
      </trkpt>
      <trkpt lat="44.84674" lon="6.96286">
        <ele>2667</ele>
        <time>2023-02-16T11:09:04Z</time>
      </trkpt>
      <trkpt lat="44.84676" lon="6.96287">
        <ele>2667.6</ele>
        <time>2023-02-16T11:09:08Z</time>
      </trkpt>
      <trkpt lat="44.84681" lon="6.96288">
        <ele>2668.8</ele>
        <time>2023-02-16T11:09:14Z</time>
      </trkpt>
      <trkpt lat="44.84682" lon="6.96288">
        <ele>2669</ele>
        <time>2023-02-16T11:09:15Z</time>
      </trkpt>
      <trkpt lat="44.84684" lon="6.96289">
        <ele>2669.6</ele>
        <time>2023-02-16T11:09:19Z</time>
      </trkpt>
      <trkpt lat="44.84688" lon="6.96292">
        <ele>2671.2</ele>
        <time>2023-02-16T11:09:26Z</time>
      </trkpt>
      <trkpt lat="44.8469" lon="6.96297">
        <ele>2672.8</ele>
        <time>2023-02-16T11:09:33Z</time>
      </trkpt>
      <trkpt lat="44.84693" lon="6.96302">
        <ele>2674.8</ele>
        <time>2023-02-16T11:09:39Z</time>
      </trkpt>
      <trkpt lat="44.84694" lon="6.96303">
        <ele>2675.2</ele>
        <time>2023-02-16T11:09:40Z</time>
      </trkpt>
      <trkpt lat="44.84694" lon="6.96304">
        <ele>2675.5</ele>
        <time>2023-02-16T11:09:42Z</time>
      </trkpt>
      <trkpt lat="44.84695" lon="6.96311">
        <ele>2677.6</ele>
        <time>2023-02-16T11:09:49Z</time>
      </trkpt>
      <trkpt lat="44.84695" lon="6.96312">
        <ele>2677.8</ele>
        <time>2023-02-16T11:09:50Z</time>
      </trkpt>
      <trkpt lat="44.84694" lon="6.96317">
        <ele>2678.8</ele>
        <time>2023-02-16T11:09:54Z</time>
      </trkpt>
      <trkpt lat="44.84695" lon="6.96319">
        <ele>2679.6</ele>
        <time>2023-02-16T11:09:59Z</time>
      </trkpt>
      <trkpt lat="44.84696" lon="6.96319">
        <ele>2679.9</ele>
        <time>2023-02-16T11:10:02Z</time>
      </trkpt>
      <trkpt lat="44.84699" lon="6.96319">
        <ele>2680.9</ele>
        <time>2023-02-16T11:10:06Z</time>
      </trkpt>
      <trkpt lat="44.84701" lon="6.96319">
        <ele>2681.6</ele>
        <time>2023-02-16T11:10:08Z</time>
      </trkpt>
      <trkpt lat="44.84703" lon="6.96318">
        <ele>2682</ele>
        <time>2023-02-16T11:10:13Z</time>
      </trkpt>
      <trkpt lat="44.84704" lon="6.96318">
        <ele>2682.4</ele>
        <time>2023-02-16T11:10:14Z</time>
      </trkpt>
      <trkpt lat="44.84708" lon="6.96318">
        <ele>2683.7</ele>
        <time>2023-02-16T11:10:20Z</time>
      </trkpt>
      <trkpt lat="44.84711" lon="6.96317">
        <ele>2684.5</ele>
        <time>2023-02-16T11:10:25Z</time>
      </trkpt>
      <trkpt lat="44.84712" lon="6.96316">
        <ele>2684.6</ele>
        <time>2023-02-16T11:10:27Z</time>
      </trkpt>
      <trkpt lat="44.84714" lon="6.96315">
        <ele>2685</ele>
        <time>2023-02-16T11:10:32Z</time>
      </trkpt>
      <trkpt lat="44.84717" lon="6.96315">
        <ele>2686</ele>
        <time>2023-02-16T11:10:36Z</time>
      </trkpt>
      <trkpt lat="44.84718" lon="6.96314">
        <ele>2686</ele>
        <time>2023-02-16T11:10:38Z</time>
      </trkpt>
      <trkpt lat="44.84721" lon="6.96313">
        <ele>2686.7</ele>
        <time>2023-02-16T11:10:42Z</time>
      </trkpt>
      <trkpt lat="44.84723" lon="6.96312">
        <ele>2687.2</ele>
        <time>2023-02-16T11:10:46Z</time>
      </trkpt>
      <trkpt lat="44.84726" lon="6.96312">
        <ele>2688.4</ele>
        <time>2023-02-16T11:10:50Z</time>
      </trkpt>
      <trkpt lat="44.84727" lon="6.96311">
        <ele>2688.5</ele>
        <time>2023-02-16T11:10:52Z</time>
      </trkpt>
      <trkpt lat="44.84728" lon="6.96312">
        <ele>2689.1</ele>
        <time>2023-02-16T11:10:53Z</time>
      </trkpt>
      <trkpt lat="44.84732" lon="6.96312">
        <ele>2690.7</ele>
        <time>2023-02-16T11:10:58Z</time>
      </trkpt>
      <trkpt lat="44.84734" lon="6.96312">
        <ele>2691.5</ele>
        <time>2023-02-16T11:11:01Z</time>
      </trkpt>
      <trkpt lat="44.84735" lon="6.96311">
        <ele>2691.6</ele>
        <time>2023-02-16T11:11:13Z</time>
      </trkpt>
      <trkpt lat="44.84736" lon="6.9631">
        <ele>2691.7</ele>
        <time>2023-02-16T11:11:27Z</time>
      </trkpt>
      <trkpt lat="44.84739" lon="6.9631">
        <ele>2692.9</ele>
        <time>2023-02-16T11:11:31Z</time>
      </trkpt>
      <trkpt lat="44.84742" lon="6.96309">
        <ele>2693.8</ele>
        <time>2023-02-16T11:11:35Z</time>
      </trkpt>
      <trkpt lat="44.84744" lon="6.96308">
        <ele>2694.3</ele>
        <time>2023-02-16T11:11:39Z</time>
      </trkpt>
      <trkpt lat="44.84747" lon="6.96307">
        <ele>2695.2</ele>
        <time>2023-02-16T11:11:44Z</time>
      </trkpt>
      <trkpt lat="44.8475" lon="6.96307">
        <ele>2696.4</ele>
        <time>2023-02-16T11:11:48Z</time>
      </trkpt>
      <trkpt lat="44.84751" lon="6.96307">
        <ele>2696.9</ele>
        <time>2023-02-16T11:11:50Z</time>
      </trkpt>
      <trkpt lat="44.84753" lon="6.96307">
        <ele>2697.9</ele>
        <time>2023-02-16T11:11:53Z</time>
      </trkpt>
      <trkpt lat="44.84757" lon="6.96307">
        <ele>2699.9</ele>
        <time>2023-02-16T11:11:59Z</time>
      </trkpt>
      <trkpt lat="44.84757" lon="6.96307">
        <ele>2699.9</ele>
        <time>2023-02-16T11:12:02Z</time>
      </trkpt>
      <trkpt lat="44.84757" lon="6.96308">
        <ele>2700.2</ele>
        <time>2023-02-16T11:12:03Z</time>
      </trkpt>
      <trkpt lat="44.84754" lon="6.96315">
        <ele>2700.7</ele>
        <time>2023-02-16T11:12:10Z</time>
      </trkpt>
      <trkpt lat="44.84754" lon="6.96316">
        <ele>2701</ele>
        <time>2023-02-16T11:12:12Z</time>
      </trkpt>
      <trkpt lat="44.84753" lon="6.96319">
        <ele>2701.3</ele>
        <time>2023-02-16T11:12:15Z</time>
      </trkpt>
      <trkpt lat="44.84752" lon="6.96322">
        <ele>2701.7</ele>
        <time>2023-02-16T11:12:18Z</time>
      </trkpt>
      <trkpt lat="44.84751" lon="6.96327">
        <ele>2702.7</ele>
        <time>2023-02-16T11:12:23Z</time>
      </trkpt>
      <trkpt lat="44.84751" lon="6.96328">
        <ele>2702.9</ele>
        <time>2023-02-16T11:12:24Z</time>
      </trkpt>
      <trkpt lat="44.8475" lon="6.96331">
        <ele>2703.3</ele>
        <time>2023-02-16T11:12:27Z</time>
      </trkpt>
      <trkpt lat="44.84749" lon="6.96338">
        <ele>2704.9</ele>
        <time>2023-02-16T11:12:34Z</time>
      </trkpt>
      <trkpt lat="44.84749" lon="6.96342">
        <ele>2706.1</ele>
        <time>2023-02-16T11:12:39Z</time>
      </trkpt>
      <trkpt lat="44.84748" lon="6.96347">
        <ele>2707.1</ele>
        <time>2023-02-16T11:12:44Z</time>
      </trkpt>
      <trkpt lat="44.84747" lon="6.96349">
        <ele>2707.3</ele>
        <time>2023-02-16T11:12:47Z</time>
      </trkpt>
      <trkpt lat="44.84746" lon="6.96353">
        <ele>2708.1</ele>
        <time>2023-02-16T11:12:51Z</time>
      </trkpt>
      <trkpt lat="44.84745" lon="6.96355">
        <ele>2708.3</ele>
        <time>2023-02-16T11:12:54Z</time>
      </trkpt>
      <trkpt lat="44.84744" lon="6.96359">
        <ele>2709</ele>
        <time>2023-02-16T11:12:57Z</time>
      </trkpt>
      <trkpt lat="44.84742" lon="6.96365">
        <ele>2710.2</ele>
        <time>2023-02-16T11:13:03Z</time>
      </trkpt>
      <trkpt lat="44.84739" lon="6.9637">
        <ele>2710.8</ele>
        <time>2023-02-16T11:13:08Z</time>
      </trkpt>
      <trkpt lat="44.84739" lon="6.9637">
        <ele>2710.8</ele>
        <time>2023-02-16T11:13:09Z</time>
      </trkpt>
      <trkpt lat="44.84738" lon="6.96374">
        <ele>2711.9</ele>
        <time>2023-02-16T11:13:13Z</time>
      </trkpt>
      <trkpt lat="44.84736" lon="6.96378">
        <ele>2712.5</ele>
        <time>2023-02-16T11:13:18Z</time>
      </trkpt>
      <trkpt lat="44.84736" lon="6.96382">
        <ele>2714</ele>
        <time>2023-02-16T11:13:24Z</time>
      </trkpt>
      <trkpt lat="44.84736" lon="6.96383">
        <ele>2714.3</ele>
        <time>2023-02-16T11:13:25Z</time>
      </trkpt>
      <trkpt lat="44.84735" lon="6.96386">
        <ele>2715</ele>
        <time>2023-02-16T11:13:29Z</time>
      </trkpt>
      <trkpt lat="44.84736" lon="6.96388">
        <ele>2716.1</ele>
        <time>2023-02-16T11:13:36Z</time>
      </trkpt>
      <trkpt lat="44.84738" lon="6.96385">
        <ele>2715.8</ele>
        <time>2023-02-16T11:13:47Z</time>
      </trkpt>
      <trkpt lat="44.84739" lon="6.96385">
        <ele>2716.2</ele>
        <time>2023-02-16T11:13:48Z</time>
      </trkpt>
      <trkpt lat="44.84743" lon="6.96383">
        <ele>2717.1</ele>
        <time>2023-02-16T11:13:55Z</time>
      </trkpt>
      <trkpt lat="44.84747" lon="6.96383">
        <ele>2718.7</ele>
        <time>2023-02-16T11:14:00Z</time>
      </trkpt>
      <trkpt lat="44.84748" lon="6.96383">
        <ele>2719.1</ele>
        <time>2023-02-16T11:14:02Z</time>
      </trkpt>
      <trkpt lat="44.8475" lon="6.96383">
        <ele>2719.9</ele>
        <time>2023-02-16T11:14:04Z</time>
      </trkpt>
      <trkpt lat="44.84751" lon="6.96382">
        <ele>2720</ele>
        <time>2023-02-16T11:14:06Z</time>
      </trkpt>
      <trkpt lat="44.84755" lon="6.96382">
        <ele>2721.9</ele>
        <time>2023-02-16T11:14:11Z</time>
      </trkpt>
      <trkpt lat="44.84758" lon="6.96381">
        <ele>2723</ele>
        <time>2023-02-16T11:14:15Z</time>
      </trkpt>
      <trkpt lat="44.84761" lon="6.9638">
        <ele>2724.1</ele>
        <time>2023-02-16T11:14:21Z</time>
      </trkpt>
      <trkpt lat="44.84764" lon="6.96379">
        <ele>2725.2</ele>
        <time>2023-02-16T11:14:25Z</time>
      </trkpt>
      <trkpt lat="44.84767" lon="6.96378">
        <ele>2726.3</ele>
        <time>2023-02-16T11:14:31Z</time>
      </trkpt>
      <trkpt lat="44.8477" lon="6.96376">
        <ele>2727.1</ele>
        <time>2023-02-16T11:14:36Z</time>
      </trkpt>
      <trkpt lat="44.84771" lon="6.96376">
        <ele>2727.5</ele>
        <time>2023-02-16T11:14:37Z</time>
      </trkpt>
      <trkpt lat="44.84774" lon="6.96375">
        <ele>2728.7</ele>
        <time>2023-02-16T11:14:42Z</time>
      </trkpt>
      <trkpt lat="44.84776" lon="6.96374">
        <ele>2729.3</ele>
        <time>2023-02-16T11:14:45Z</time>
      </trkpt>
      <trkpt lat="44.84777" lon="6.96374">
        <ele>2729.8</ele>
        <time>2023-02-16T11:14:46Z</time>
      </trkpt>
      <trkpt lat="44.84778" lon="6.96373">
        <ele>2730</ele>
        <time>2023-02-16T11:14:50Z</time>
      </trkpt>
      <trkpt lat="44.84777" lon="6.96373">
        <ele>2729.5</ele>
        <time>2023-02-16T11:14:59Z</time>
      </trkpt>
      <trkpt lat="44.84781" lon="6.96371">
        <ele>2730.8</ele>
        <time>2023-02-16T11:15:08Z</time>
      </trkpt>
      <trkpt lat="44.84782" lon="6.96371">
        <ele>2731.3</ele>
        <time>2023-02-16T11:15:09Z</time>
      </trkpt>
      <trkpt lat="44.84784" lon="6.96369">
        <ele>2731.6</ele>
        <time>2023-02-16T11:15:13Z</time>
      </trkpt>
      <trkpt lat="44.84788" lon="6.96368">
        <ele>2733.3</ele>
        <time>2023-02-16T11:15:19Z</time>
      </trkpt>
      <trkpt lat="44.8479" lon="6.96368">
        <ele>2734.3</ele>
        <time>2023-02-16T11:15:21Z</time>
      </trkpt>
      <trkpt lat="44.84792" lon="6.96367">
        <ele>2735</ele>
        <time>2023-02-16T11:15:24Z</time>
      </trkpt>
      <trkpt lat="44.84794" lon="6.96366">
        <ele>2735.7</ele>
        <time>2023-02-16T11:15:29Z</time>
      </trkpt>
      <trkpt lat="44.84794" lon="6.96366">
        <ele>2735.7</ele>
        <time>2023-02-16T11:15:30Z</time>
      </trkpt>
      <trkpt lat="44.84793" lon="6.96368">
        <ele>2735.8</ele>
        <time>2023-02-16T11:15:39Z</time>
      </trkpt>
      <trkpt lat="44.84792" lon="6.96369">
        <ele>2735.6</ele>
        <time>2023-02-16T11:15:51Z</time>
      </trkpt>
      <trkpt lat="44.84792" lon="6.96368">
        <ele>2735.3</ele>
        <time>2023-02-16T11:15:53Z</time>
      </trkpt>
      <trkpt lat="44.84792" lon="6.96368">
        <ele>2735.3</ele>
        <time>2023-02-16T11:15:58Z</time>
      </trkpt>
      <trkpt lat="44.84792" lon="6.96368">
        <ele>2735.3</ele>
        <time>2023-02-16T11:16:08Z</time>
      </trkpt>
      <trkpt lat="44.84793" lon="6.96369">
        <ele>2736.1</ele>
        <time>2023-02-16T11:16:19Z</time>
      </trkpt>
      <trkpt lat="44.84793" lon="6.96369">
        <ele>2736.1</ele>
        <time>2023-02-16T11:16:40Z</time>
      </trkpt>
      <trkpt lat="44.84792" lon="6.96369">
        <ele>2735.6</ele>
        <time>2023-02-16T11:17:04Z</time>
      </trkpt>
      <trkpt lat="44.84793" lon="6.96368">
        <ele>2735.8</ele>
        <time>2023-02-16T11:17:16Z</time>
      </trkpt>
      <trkpt lat="44.84791" lon="6.96374">
        <ele>2736.6</ele>
        <time>2023-02-16T11:17:26Z</time>
      </trkpt>
      <trkpt lat="44.84791" lon="6.96376">
        <ele>2737.2</ele>
        <time>2023-02-16T11:17:28Z</time>
      </trkpt>
      <trkpt lat="44.84789" lon="6.9638">
        <ele>2737.5</ele>
        <time>2023-02-16T11:17:32Z</time>
      </trkpt>
      <trkpt lat="44.84789" lon="6.96381">
        <ele>2737.8</ele>
        <time>2023-02-16T11:17:33Z</time>
      </trkpt>
      <trkpt lat="44.84787" lon="6.96387">
        <ele>2738.7</ele>
        <time>2023-02-16T11:17:39Z</time>
      </trkpt>
      <trkpt lat="44.84786" lon="6.9639">
        <ele>2739.2</ele>
        <time>2023-02-16T11:17:42Z</time>
      </trkpt>
      <trkpt lat="44.84784" lon="6.964">
        <ele>2741.5</ele>
        <time>2023-02-16T11:17:52Z</time>
      </trkpt>
      <trkpt lat="44.84783" lon="6.96403">
        <ele>2742</ele>
        <time>2023-02-16T11:17:55Z</time>
      </trkpt>
      <trkpt lat="44.84783" lon="6.96404">
        <ele>2742.3</ele>
        <time>2023-02-16T11:17:56Z</time>
      </trkpt>
      <trkpt lat="44.84782" lon="6.9641">
        <ele>2743.8</ele>
        <time>2023-02-16T11:18:03Z</time>
      </trkpt>
      <trkpt lat="44.8478" lon="6.96415">
        <ele>2744.5</ele>
        <time>2023-02-16T11:18:08Z</time>
      </trkpt>
      <trkpt lat="44.8478" lon="6.96416">
        <ele>2744.8</ele>
        <time>2023-02-16T11:18:09Z</time>
      </trkpt>
      <trkpt lat="44.84779" lon="6.96419">
        <ele>2745.5</ele>
        <time>2023-02-16T11:18:14Z</time>
      </trkpt>
      <trkpt lat="44.84778" lon="6.96426">
        <ele>2747.8</ele>
        <time>2023-02-16T11:18:21Z</time>
      </trkpt>
      <trkpt lat="44.84777" lon="6.9643">
        <ele>2749</ele>
        <time>2023-02-16T11:18:27Z</time>
      </trkpt>
      <trkpt lat="44.84776" lon="6.96433">
        <ele>2749.9</ele>
        <time>2023-02-16T11:18:32Z</time>
      </trkpt>
      <trkpt lat="44.84775" lon="6.96435">
        <ele>2750.3</ele>
        <time>2023-02-16T11:18:34Z</time>
      </trkpt>
      <trkpt lat="44.84772" lon="6.9644">
        <ele>2751.3</ele>
        <time>2023-02-16T11:18:40Z</time>
      </trkpt>
      <trkpt lat="44.84771" lon="6.96445">
        <ele>2753</ele>
        <time>2023-02-16T11:18:47Z</time>
      </trkpt>
      <trkpt lat="44.8477" lon="6.96446">
        <ele>2753</ele>
        <time>2023-02-16T11:18:48Z</time>
      </trkpt>
      <trkpt lat="44.84769" lon="6.96448">
        <ele>2753.3</ele>
        <time>2023-02-16T11:18:51Z</time>
      </trkpt>
      <trkpt lat="44.84768" lon="6.96453">
        <ele>2754.7</ele>
        <time>2023-02-16T11:18:56Z</time>
      </trkpt>
      <trkpt lat="44.84766" lon="6.96457">
        <ele>2755.4</ele>
        <time>2023-02-16T11:19:00Z</time>
      </trkpt>
      <trkpt lat="44.84765" lon="6.96459">
        <ele>2755.8</ele>
        <time>2023-02-16T11:19:03Z</time>
      </trkpt>
      <trkpt lat="44.84763" lon="6.96463">
        <ele>2756.6</ele>
        <time>2023-02-16T11:19:08Z</time>
      </trkpt>
      <trkpt lat="44.84762" lon="6.96466">
        <ele>2757.3</ele>
        <time>2023-02-16T11:19:12Z</time>
      </trkpt>
      <trkpt lat="44.8476" lon="6.9647">
        <ele>2758.1</ele>
        <time>2023-02-16T11:19:17Z</time>
      </trkpt>
      <trkpt lat="44.84759" lon="6.96471">
        <ele>2758.2</ele>
        <time>2023-02-16T11:19:23Z</time>
      </trkpt>
      <trkpt lat="44.84757" lon="6.96475">
        <ele>2759</ele>
        <time>2023-02-16T11:19:29Z</time>
      </trkpt>
      <trkpt lat="44.84756" lon="6.96477">
        <ele>2759.4</ele>
        <time>2023-02-16T11:19:33Z</time>
      </trkpt>
      <trkpt lat="44.84756" lon="6.96478">
        <ele>2759.8</ele>
        <time>2023-02-16T11:19:34Z</time>
      </trkpt>
      <trkpt lat="44.84755" lon="6.96481">
        <ele>2760.5</ele>
        <time>2023-02-16T11:19:38Z</time>
      </trkpt>
      <trkpt lat="44.84754" lon="6.96486">
        <ele>2762</ele>
        <time>2023-02-16T11:19:45Z</time>
      </trkpt>
      <trkpt lat="44.84754" lon="6.96486">
        <ele>2762</ele>
        <time>2023-02-16T11:19:46Z</time>
      </trkpt>
      <trkpt lat="44.84753" lon="6.96491">
        <ele>2763.6</ele>
        <time>2023-02-16T11:19:52Z</time>
      </trkpt>
      <trkpt lat="44.84751" lon="6.96496">
        <ele>2764.8</ele>
        <time>2023-02-16T11:19:59Z</time>
      </trkpt>
      <trkpt lat="44.84751" lon="6.96497">
        <ele>2765.2</ele>
        <time>2023-02-16T11:20:00Z</time>
      </trkpt>
      <trkpt lat="44.8475" lon="6.965">
        <ele>2766</ele>
        <time>2023-02-16T11:20:04Z</time>
      </trkpt>
      <trkpt lat="44.84749" lon="6.96504">
        <ele>2766.8</ele>
        <time>2023-02-16T11:20:09Z</time>
      </trkpt>
      <trkpt lat="44.84748" lon="6.96507">
        <ele>2767.3</ele>
        <time>2023-02-16T11:20:14Z</time>
      </trkpt>
      <trkpt lat="44.84748" lon="6.96506">
        <ele>2767</ele>
        <time>2023-02-16T11:20:15Z</time>
      </trkpt>
      <trkpt lat="44.84748" lon="6.96506">
        <ele>2767</ele>
        <time>2023-02-16T11:20:16Z</time>
      </trkpt>
      <trkpt lat="44.84747" lon="6.9651">
        <ele>2767.9</ele>
        <time>2023-02-16T11:20:24Z</time>
      </trkpt>
      <trkpt lat="44.84746" lon="6.96512">
        <ele>2768.1</ele>
        <time>2023-02-16T11:20:27Z</time>
      </trkpt>
      <trkpt lat="44.84744" lon="6.96515">
        <ele>2768.4</ele>
        <time>2023-02-16T11:20:30Z</time>
      </trkpt>
      <trkpt lat="44.84744" lon="6.96516">
        <ele>2768.7</ele>
        <time>2023-02-16T11:20:36Z</time>
      </trkpt>
      <trkpt lat="44.84749" lon="6.96516">
        <ele>2770.3</ele>
        <time>2023-02-16T11:20:45Z</time>
      </trkpt>
      <trkpt lat="44.84751" lon="6.96516">
        <ele>2770.9</ele>
        <time>2023-02-16T11:20:47Z</time>
      </trkpt>
      <trkpt lat="44.84758" lon="6.96516">
        <ele>2772.6</ele>
        <time>2023-02-16T11:20:56Z</time>
      </trkpt>
      <trkpt lat="44.8476" lon="6.96517">
        <ele>2773.4</ele>
        <time>2023-02-16T11:20:59Z</time>
      </trkpt>
      <trkpt lat="44.84761" lon="6.96517">
        <ele>2773.7</ele>
        <time>2023-02-16T11:21:00Z</time>
      </trkpt>
      <trkpt lat="44.84764" lon="6.96517">
        <ele>2774.4</ele>
        <time>2023-02-16T11:21:05Z</time>
      </trkpt>
      <trkpt lat="44.84765" lon="6.96516">
        <ele>2774.4</ele>
        <time>2023-02-16T11:21:09Z</time>
      </trkpt>
      <trkpt lat="44.84766" lon="6.96515">
        <ele>2774.4</ele>
        <time>2023-02-16T11:21:10Z</time>
      </trkpt>
      <trkpt lat="44.84766" lon="6.96516">
        <ele>2774.6</ele>
        <time>2023-02-16T11:21:15Z</time>
      </trkpt>
      <trkpt lat="44.84766" lon="6.96517">
        <ele>2774.9</ele>
        <time>2023-02-16T11:21:21Z</time>
      </trkpt>
      <trkpt lat="44.8477" lon="6.96517">
        <ele>2775.9</ele>
        <time>2023-02-16T11:21:30Z</time>
      </trkpt>
      <trkpt lat="44.84771" lon="6.96517">
        <ele>2776.2</ele>
        <time>2023-02-16T11:21:31Z</time>
      </trkpt>
      <trkpt lat="44.84774" lon="6.96517">
        <ele>2776.9</ele>
        <time>2023-02-16T11:21:35Z</time>
      </trkpt>
      <trkpt lat="44.84779" lon="6.96517">
        <ele>2778.1</ele>
        <time>2023-02-16T11:21:41Z</time>
      </trkpt>
      <trkpt lat="44.84781" lon="6.96517">
        <ele>2778.5</ele>
        <time>2023-02-16T11:21:44Z</time>
      </trkpt>
      <trkpt lat="44.84783" lon="6.96517">
        <ele>2778.9</ele>
        <time>2023-02-16T11:21:48Z</time>
      </trkpt>
      <trkpt lat="44.84788" lon="6.96517">
        <ele>2779.9</ele>
        <time>2023-02-16T11:21:54Z</time>
      </trkpt>
      <trkpt lat="44.84789" lon="6.96517">
        <ele>2780.1</ele>
        <time>2023-02-16T11:21:55Z</time>
      </trkpt>
      <trkpt lat="44.8479" lon="6.96517">
        <ele>2780.3</ele>
        <time>2023-02-16T11:21:59Z</time>
      </trkpt>
      <trkpt lat="44.84791" lon="6.96516">
        <ele>2780.2</ele>
        <time>2023-02-16T11:22:06Z</time>
      </trkpt>
      <trkpt lat="44.84788" lon="6.96519">
        <ele>2780.4</ele>
        <time>2023-02-16T11:22:23Z</time>
      </trkpt>
      <trkpt lat="44.84788" lon="6.96519">
        <ele>2780.4</ele>
        <time>2023-02-16T11:22:26Z</time>
      </trkpt>
      <trkpt lat="44.84788" lon="6.9652">
        <ele>2780.7</ele>
        <time>2023-02-16T11:22:41Z</time>
      </trkpt>
      <trkpt lat="44.8479" lon="6.96519">
        <ele>2780.8</ele>
        <time>2023-02-16T11:23:01Z</time>
      </trkpt>
      <trkpt lat="44.84796" lon="6.96521">
        <ele>2782.5</ele>
        <time>2023-02-16T11:23:09Z</time>
      </trkpt>
      <trkpt lat="44.84797" lon="6.96521">
        <ele>2782.7</ele>
        <time>2023-02-16T11:23:11Z</time>
      </trkpt>
      <trkpt lat="44.84798" lon="6.96521">
        <ele>2782.9</ele>
        <time>2023-02-16T11:23:12Z</time>
      </trkpt>
      <trkpt lat="44.848" lon="6.96522">
        <ele>2783.5</ele>
        <time>2023-02-16T11:23:14Z</time>
      </trkpt>
      <trkpt lat="44.84801" lon="6.96525">
        <ele>2784.5</ele>
        <time>2023-02-16T11:23:20Z</time>
      </trkpt>
      <trkpt lat="44.84801" lon="6.96528">
        <ele>2785.2</ele>
        <time>2023-02-16T11:23:23Z</time>
      </trkpt>
      <trkpt lat="44.84801" lon="6.96529">
        <ele>2785.5</ele>
        <time>2023-02-16T11:23:24Z</time>
      </trkpt>
      <trkpt lat="44.84796" lon="6.96534">
        <ele>2785.9</ele>
        <time>2023-02-16T11:23:33Z</time>
      </trkpt>
      <trkpt lat="44.84796" lon="6.96534">
        <ele>2785.9</ele>
        <time>2023-02-16T11:23:34Z</time>
      </trkpt>
      <trkpt lat="44.84796" lon="6.96533">
        <ele>2785.7</ele>
        <time>2023-02-16T11:23:42Z</time>
      </trkpt>
      <trkpt lat="44.84796" lon="6.96534">
        <ele>2785.9</ele>
        <time>2023-02-16T11:23:45Z</time>
      </trkpt>
      <trkpt lat="44.84796" lon="6.96534">
        <ele>2785.9</ele>
        <time>2023-02-16T11:24:04Z</time>
      </trkpt>
      <trkpt lat="44.84795" lon="6.96535">
        <ele>2786</ele>
        <time>2023-02-16T11:24:20Z</time>
      </trkpt>
      <trkpt lat="44.84797" lon="6.96539">
        <ele>2787.4</ele>
        <time>2023-02-16T11:24:29Z</time>
      </trkpt>
      <trkpt lat="44.84796" lon="6.96541">
        <ele>2787.8</ele>
        <time>2023-02-16T11:24:31Z</time>
      </trkpt>
      <trkpt lat="44.84795" lon="6.96544">
        <ele>2788.4</ele>
        <time>2023-02-16T11:24:34Z</time>
      </trkpt>
      <trkpt lat="44.84794" lon="6.96548">
        <ele>2789.3</ele>
        <time>2023-02-16T11:24:38Z</time>
      </trkpt>
      <trkpt lat="44.84794" lon="6.96549">
        <ele>2789.6</ele>
        <time>2023-02-16T11:24:39Z</time>
      </trkpt>
      <trkpt lat="44.84793" lon="6.96553">
        <ele>2790.5</ele>
        <time>2023-02-16T11:24:43Z</time>
      </trkpt>
      <trkpt lat="44.84793" lon="6.96554">
        <ele>2790.8</ele>
        <time>2023-02-16T11:24:44Z</time>
      </trkpt>
      <trkpt lat="44.84791" lon="6.96561">
        <ele>2792.5</ele>
        <time>2023-02-16T11:24:54Z</time>
      </trkpt>
      <trkpt lat="44.84791" lon="6.96563">
        <ele>2793</ele>
        <time>2023-02-16T11:24:56Z</time>
      </trkpt>
      <trkpt lat="44.8479" lon="6.96567">
        <ele>2794.1</ele>
        <time>2023-02-16T11:25:01Z</time>
      </trkpt>
      <trkpt lat="44.84788" lon="6.96572">
        <ele>2795.2</ele>
        <time>2023-02-16T11:25:07Z</time>
      </trkpt>
      <trkpt lat="44.84788" lon="6.96573">
        <ele>2795.5</ele>
        <time>2023-02-16T11:25:09Z</time>
      </trkpt>
      <trkpt lat="44.84786" lon="6.96576">
        <ele>2796.1</ele>
        <time>2023-02-16T11:25:12Z</time>
      </trkpt>
      <trkpt lat="44.84784" lon="6.96581">
        <ele>2797.2</ele>
        <time>2023-02-16T11:25:19Z</time>
      </trkpt>
      <trkpt lat="44.84783" lon="6.96581">
        <ele>2797.1</ele>
        <time>2023-02-16T11:25:20Z</time>
      </trkpt>
      <trkpt lat="44.84781" lon="6.96586">
        <ele>2798.2</ele>
        <time>2023-02-16T11:25:26Z</time>
      </trkpt>
      <trkpt lat="44.84781" lon="6.96588">
        <ele>2798.8</ele>
        <time>2023-02-16T11:25:29Z</time>
      </trkpt>
      <trkpt lat="44.8478" lon="6.96592">
        <ele>2799.8</ele>
        <time>2023-02-16T11:25:33Z</time>
      </trkpt>
      <trkpt lat="44.8478" lon="6.96593">
        <ele>2800.1</ele>
        <time>2023-02-16T11:25:34Z</time>
      </trkpt>
      <trkpt lat="44.84781" lon="6.96597">
        <ele>2801.4</ele>
        <time>2023-02-16T11:25:43Z</time>
      </trkpt>
      <trkpt lat="44.84785" lon="6.966">
        <ele>2802.8</ele>
        <time>2023-02-16T11:25:49Z</time>
      </trkpt>
      <trkpt lat="44.84787" lon="6.96602">
        <ele>2803.7</ele>
        <time>2023-02-16T11:25:52Z</time>
      </trkpt>
      <trkpt lat="44.84787" lon="6.96602">
        <ele>2803.7</ele>
        <time>2023-02-16T11:25:53Z</time>
      </trkpt>
      <trkpt lat="44.84793" lon="6.96603">
        <ele>2804.9</ele>
        <time>2023-02-16T11:26:01Z</time>
      </trkpt>
      <trkpt lat="44.84794" lon="6.96603">
        <ele>2805</ele>
        <time>2023-02-16T11:26:02Z</time>
      </trkpt>
      <trkpt lat="44.84795" lon="6.96603">
        <ele>2805.1</ele>
        <time>2023-02-16T11:26:03Z</time>
      </trkpt>
      <trkpt lat="44.84796" lon="6.96603">
        <ele>2805.3</ele>
        <time>2023-02-16T11:26:04Z</time>
      </trkpt>
      <trkpt lat="44.84797" lon="6.96603">
        <ele>2805.4</ele>
        <time>2023-02-16T11:26:05Z</time>
      </trkpt>
      <trkpt lat="44.84801" lon="6.96604">
        <ele>2806.3</ele>
        <time>2023-02-16T11:26:10Z</time>
      </trkpt>
      <trkpt lat="44.84804" lon="6.96606">
        <ele>2807.3</ele>
        <time>2023-02-16T11:26:14Z</time>
      </trkpt>
      <trkpt lat="44.84807" lon="6.96606">
        <ele>2807.6</ele>
        <time>2023-02-16T11:26:18Z</time>
      </trkpt>
      <trkpt lat="44.84812" lon="6.96608">
        <ele>2808.4</ele>
        <time>2023-02-16T11:26:24Z</time>
      </trkpt>
      <trkpt lat="44.84813" lon="6.96608">
        <ele>2808.4</ele>
        <time>2023-02-16T11:26:27Z</time>
      </trkpt>
      <trkpt lat="44.84817" lon="6.9661">
        <ele>2809.1</ele>
        <time>2023-02-16T11:26:33Z</time>
      </trkpt>
      <trkpt lat="44.84819" lon="6.96612">
        <ele>2809.7</ele>
        <time>2023-02-16T11:26:36Z</time>
      </trkpt>
      <trkpt lat="44.84819" lon="6.96614">
        <ele>2810.2</ele>
        <time>2023-02-16T11:26:38Z</time>
      </trkpt>
      <trkpt lat="44.8482" lon="6.96616">
        <ele>2810.7</ele>
        <time>2023-02-16T11:26:41Z</time>
      </trkpt>
      <trkpt lat="44.84822" lon="6.96621">
        <ele>2811.9</ele>
        <time>2023-02-16T11:26:48Z</time>
      </trkpt>
      <trkpt lat="44.84822" lon="6.96622">
        <ele>2812.1</ele>
        <time>2023-02-16T11:26:49Z</time>
      </trkpt>
      <trkpt lat="44.84823" lon="6.96627">
        <ele>2813.3</ele>
        <time>2023-02-16T11:26:53Z</time>
      </trkpt>
      <trkpt lat="44.84824" lon="6.96631">
        <ele>2814.2</ele>
        <time>2023-02-16T11:26:57Z</time>
      </trkpt>
      <trkpt lat="44.84826" lon="6.96635">
        <ele>2815.1</ele>
        <time>2023-02-16T11:27:01Z</time>
      </trkpt>
      <trkpt lat="44.84827" lon="6.9664">
        <ele>2816.2</ele>
        <time>2023-02-16T11:27:06Z</time>
      </trkpt>
      <trkpt lat="44.84829" lon="6.96644">
        <ele>2817.1</ele>
        <time>2023-02-16T11:27:11Z</time>
      </trkpt>
      <trkpt lat="44.8483" lon="6.96648">
        <ele>2818</ele>
        <time>2023-02-16T11:27:15Z</time>
      </trkpt>
      <trkpt lat="44.8483" lon="6.96649">
        <ele>2818.2</ele>
        <time>2023-02-16T11:27:16Z</time>
      </trkpt>
      <trkpt lat="44.84832" lon="6.96651">
        <ele>2818.6</ele>
        <time>2023-02-16T11:27:19Z</time>
      </trkpt>
      <trkpt lat="44.84833" lon="6.96656">
        <ele>2819.7</ele>
        <time>2023-02-16T11:27:24Z</time>
      </trkpt>
      <trkpt lat="44.84834" lon="6.96658">
        <ele>2820.2</ele>
        <time>2023-02-16T11:27:27Z</time>
      </trkpt>
      <trkpt lat="44.84835" lon="6.9666">
        <ele>2820.8</ele>
        <time>2023-02-16T11:27:30Z</time>
      </trkpt>
      <trkpt lat="44.84836" lon="6.96665">
        <ele>2822</ele>
        <time>2023-02-16T11:27:35Z</time>
      </trkpt>
      <trkpt lat="44.84838" lon="6.96669">
        <ele>2823</ele>
        <time>2023-02-16T11:27:40Z</time>
      </trkpt>
      <trkpt lat="44.84838" lon="6.96671">
        <ele>2823.4</ele>
        <time>2023-02-16T11:27:42Z</time>
      </trkpt>
      <trkpt lat="44.8484" lon="6.96676">
        <ele>2824.5</ele>
        <time>2023-02-16T11:27:48Z</time>
      </trkpt>
      <trkpt lat="44.84841" lon="6.96681">
        <ele>2825.5</ele>
        <time>2023-02-16T11:27:53Z</time>
      </trkpt>
      <trkpt lat="44.84841" lon="6.96683">
        <ele>2825.9</ele>
        <time>2023-02-16T11:27:55Z</time>
      </trkpt>
      <trkpt lat="44.84841" lon="6.96685">
        <ele>2826.2</ele>
        <time>2023-02-16T11:27:57Z</time>
      </trkpt>
      <trkpt lat="44.84841" lon="6.96686">
        <ele>2826.4</ele>
        <time>2023-02-16T11:27:58Z</time>
      </trkpt>
      <trkpt lat="44.84841" lon="6.96693">
        <ele>2827.7</ele>
        <time>2023-02-16T11:28:04Z</time>
      </trkpt>
      <trkpt lat="44.8484" lon="6.96697">
        <ele>2828.2</ele>
        <time>2023-02-16T11:28:08Z</time>
      </trkpt>
      <trkpt lat="44.8484" lon="6.967">
        <ele>2828.5</ele>
        <time>2023-02-16T11:28:11Z</time>
      </trkpt>
      <trkpt lat="44.8484" lon="6.96705">
        <ele>2828.9</ele>
        <time>2023-02-16T11:28:17Z</time>
      </trkpt>
      <trkpt lat="44.8484" lon="6.96707">
        <ele>2829</ele>
        <time>2023-02-16T11:28:21Z</time>
      </trkpt>
      <trkpt lat="44.84841" lon="6.96708">
        <ele>2829.1</ele>
        <time>2023-02-16T11:28:25Z</time>
      </trkpt>
      <trkpt lat="44.84841" lon="6.96713">
        <ele>2829.5</ele>
        <time>2023-02-16T11:28:30Z</time>
      </trkpt>
      <trkpt lat="44.84842" lon="6.96719">
        <ele>2829.8</ele>
        <time>2023-02-16T11:28:36Z</time>
      </trkpt>
      <trkpt lat="44.84841" lon="6.96726">
        <ele>2830.1</ele>
        <time>2023-02-16T11:28:42Z</time>
      </trkpt>
      <trkpt lat="44.84841" lon="6.96736">
        <ele>2829.8</ele>
        <time>2023-02-16T11:28:51Z</time>
      </trkpt>
      <trkpt lat="44.84841" lon="6.96738">
        <ele>2829.7</ele>
        <time>2023-02-16T11:28:52Z</time>
      </trkpt>
      <trkpt lat="44.84841" lon="6.96739">
        <ele>2829.7</ele>
        <time>2023-02-16T11:28:53Z</time>
      </trkpt>
      <trkpt lat="44.84843" lon="6.96745">
        <ele>2829.1</ele>
        <time>2023-02-16T11:29:02Z</time>
      </trkpt>
      <trkpt lat="44.84842" lon="6.96747">
        <ele>2829.2</ele>
        <time>2023-02-16T11:29:16Z</time>
      </trkpt>
      <trkpt lat="44.84843" lon="6.96748">
        <ele>2829</ele>
        <time>2023-02-16T11:29:17Z</time>
      </trkpt>
      <trkpt lat="44.84843" lon="6.9675">
        <ele>2828.9</ele>
        <time>2023-02-16T11:29:19Z</time>
      </trkpt>
      <trkpt lat="44.84842" lon="6.96757">
        <ele>2828.2</ele>
        <time>2023-02-16T11:29:24Z</time>
      </trkpt>
      <trkpt lat="44.84843" lon="6.96759">
        <ele>2827.6</ele>
        <time>2023-02-16T11:29:25Z</time>
      </trkpt>
      <trkpt lat="44.84843" lon="6.96769">
        <ele>2826.1</ele>
        <time>2023-02-16T11:29:33Z</time>
      </trkpt>
      <trkpt lat="44.84843" lon="6.96773">
        <ele>2825.5</ele>
        <time>2023-02-16T11:29:40Z</time>
      </trkpt>
      <trkpt lat="44.84843" lon="6.96774">
        <ele>2825.4</ele>
        <time>2023-02-16T11:29:57Z</time>
      </trkpt>
      <trkpt lat="44.84835" lon="6.96776">
        <ele>2828.4</ele>
        <time>2023-02-16T11:30:05Z</time>
      </trkpt>
      <trkpt lat="44.84834" lon="6.96776">
        <ele>2828.8</ele>
        <time>2023-02-16T11:30:06Z</time>
      </trkpt>
      <trkpt lat="44.84833" lon="6.96776">
        <ele>2829.2</ele>
        <time>2023-02-16T11:30:07Z</time>
      </trkpt>
      <trkpt lat="44.84832" lon="6.96776">
        <ele>2829.4</ele>
        <time>2023-02-16T11:30:08Z</time>
      </trkpt>
      <trkpt lat="44.84825" lon="6.96779">
        <ele>2830.8</ele>
        <time>2023-02-16T11:30:18Z</time>
      </trkpt>
      <trkpt lat="44.84823" lon="6.9678">
        <ele>2831.2</ele>
        <time>2023-02-16T11:30:20Z</time>
      </trkpt>
      <trkpt lat="44.84819" lon="6.96782">
        <ele>2832.1</ele>
        <time>2023-02-16T11:30:24Z</time>
      </trkpt>
      <trkpt lat="44.84811" lon="6.96785">
        <ele>2833.8</ele>
        <time>2023-02-16T11:30:33Z</time>
      </trkpt>
      <trkpt lat="44.848" lon="6.96795">
        <ele>2836.2</ele>
        <time>2023-02-16T11:30:45Z</time>
      </trkpt>
      <trkpt lat="44.84797" lon="6.96798">
        <ele>2836.8</ele>
        <time>2023-02-16T11:30:48Z</time>
      </trkpt>
      <trkpt lat="44.8479" lon="6.96802">
        <ele>2838.4</ele>
        <time>2023-02-16T11:30:55Z</time>
      </trkpt>
      <trkpt lat="44.84789" lon="6.96803">
        <ele>2838.6</ele>
        <time>2023-02-16T11:30:57Z</time>
      </trkpt>
      <trkpt lat="44.84783" lon="6.96811">
        <ele>2840</ele>
        <time>2023-02-16T11:31:07Z</time>
      </trkpt>
      <trkpt lat="44.84782" lon="6.96814">
        <ele>2840.3</ele>
        <time>2023-02-16T11:31:10Z</time>
      </trkpt>
      <trkpt lat="44.84781" lon="6.96815">
        <ele>2840.6</ele>
        <time>2023-02-16T11:31:12Z</time>
      </trkpt>
      <trkpt lat="44.84778" lon="6.96821">
        <ele>2841.5</ele>
        <time>2023-02-16T11:31:19Z</time>
      </trkpt>
      <trkpt lat="44.84775" lon="6.96824">
        <ele>2842.6</ele>
        <time>2023-02-16T11:31:23Z</time>
      </trkpt>
      <trkpt lat="44.84774" lon="6.96826">
        <ele>2843</ele>
        <time>2023-02-16T11:31:25Z</time>
      </trkpt>
      <trkpt lat="44.84772" lon="6.96829">
        <ele>2843.7</ele>
        <time>2023-02-16T11:31:29Z</time>
      </trkpt>
      <trkpt lat="44.84771" lon="6.9683">
        <ele>2844.1</ele>
        <time>2023-02-16T11:31:30Z</time>
      </trkpt>
      <trkpt lat="44.8477" lon="6.96832">
        <ele>2844.5</ele>
        <time>2023-02-16T11:31:34Z</time>
      </trkpt>
      <trkpt lat="44.84769" lon="6.96834">
        <ele>2844.8</ele>
        <time>2023-02-16T11:31:36Z</time>
      </trkpt>
      <trkpt lat="44.84766" lon="6.96837">
        <ele>2845.8</ele>
        <time>2023-02-16T11:31:40Z</time>
      </trkpt>
      <trkpt lat="44.84764" lon="6.9684">
        <ele>2846.5</ele>
        <time>2023-02-16T11:31:44Z</time>
      </trkpt>
      <trkpt lat="44.84764" lon="6.9684">
        <ele>2846.5</ele>
        <time>2023-02-16T11:31:45Z</time>
      </trkpt>
      <trkpt lat="44.8476" lon="6.96844">
        <ele>2847.9</ele>
        <time>2023-02-16T11:31:51Z</time>
      </trkpt>
      <trkpt lat="44.84759" lon="6.96844">
        <ele>2848.2</ele>
        <time>2023-02-16T11:31:52Z</time>
      </trkpt>
      <trkpt lat="44.84756" lon="6.96849">
        <ele>2849.4</ele>
        <time>2023-02-16T11:32:00Z</time>
      </trkpt>
      <trkpt lat="44.84755" lon="6.9685">
        <ele>2849.8</ele>
        <time>2023-02-16T11:32:01Z</time>
      </trkpt>
      <trkpt lat="44.84754" lon="6.96853">
        <ele>2850.2</ele>
        <time>2023-02-16T11:32:04Z</time>
      </trkpt>
      <trkpt lat="44.84752" lon="6.96858">
        <ele>2851.1</ele>
        <time>2023-02-16T11:32:12Z</time>
      </trkpt>
      <trkpt lat="44.84751" lon="6.96855">
        <ele>2851.4</ele>
        <time>2023-02-16T11:32:22Z</time>
      </trkpt>
      <trkpt lat="44.84751" lon="6.96854">
        <ele>2851.4</ele>
        <time>2023-02-16T11:32:23Z</time>
      </trkpt>
      <trkpt lat="44.84748" lon="6.96848">
        <ele>2852.2</ele>
        <time>2023-02-16T11:32:32Z</time>
      </trkpt>
      <trkpt lat="44.84748" lon="6.96847">
        <ele>2852.1</ele>
        <time>2023-02-16T11:32:36Z</time>
      </trkpt>
      <trkpt lat="44.8475" lon="6.96848">
        <ele>2851.5</ele>
        <time>2023-02-16T11:32:49Z</time>
      </trkpt>
      <trkpt lat="44.84748" lon="6.96844">
        <ele>2852</ele>
        <time>2023-02-16T11:32:56Z</time>
      </trkpt>
      <trkpt lat="44.84748" lon="6.96844">
        <ele>2852</ele>
        <time>2023-02-16T11:32:57Z</time>
      </trkpt>
      <trkpt lat="44.84744" lon="6.9684">
        <ele>2852.8</ele>
        <time>2023-02-16T11:33:03Z</time>
      </trkpt>
      <trkpt lat="44.84743" lon="6.96837">
        <ele>2852.8</ele>
        <time>2023-02-16T11:33:08Z</time>
      </trkpt>
      <trkpt lat="44.84743" lon="6.96836">
        <ele>2852.7</ele>
        <time>2023-02-16T11:33:09Z</time>
      </trkpt>
      <trkpt lat="44.84741" lon="6.96834">
        <ele>2853</ele>
        <time>2023-02-16T11:33:15Z</time>
      </trkpt>
      <trkpt lat="44.84741" lon="6.96835">
        <ele>2853.1</ele>
        <time>2023-02-16T11:33:17Z</time>
      </trkpt>
      <trkpt lat="44.8474" lon="6.96842">
        <ele>2854</ele>
        <time>2023-02-16T11:33:24Z</time>
      </trkpt>
      <trkpt lat="44.84739" lon="6.96846">
        <ele>2854.7</ele>
        <time>2023-02-16T11:33:28Z</time>
      </trkpt>
      <trkpt lat="44.84737" lon="6.9685">
        <ele>2855.8</ele>
        <time>2023-02-16T11:33:34Z</time>
      </trkpt>
      <trkpt lat="44.84735" lon="6.96854">
        <ele>2857</ele>
        <time>2023-02-16T11:33:38Z</time>
      </trkpt>
      <trkpt lat="44.84734" lon="6.96857">
        <ele>2857.8</ele>
        <time>2023-02-16T11:33:41Z</time>
      </trkpt>
      <trkpt lat="44.84731" lon="6.96861">
        <ele>2859.5</ele>
        <time>2023-02-16T11:33:46Z</time>
      </trkpt>
      <trkpt lat="44.84731" lon="6.96862">
        <ele>2859.5</ele>
        <time>2023-02-16T11:33:50Z</time>
      </trkpt>
      <trkpt lat="44.8473" lon="6.96862">
        <ele>2859.9</ele>
        <time>2023-02-16T11:33:55Z</time>
      </trkpt>
      <trkpt lat="44.84729" lon="6.96858">
        <ele>2859.8</ele>
        <time>2023-02-16T11:34:00Z</time>
      </trkpt>
      <trkpt lat="44.84729" lon="6.96857">
        <ele>2859.6</ele>
        <time>2023-02-16T11:34:03Z</time>
      </trkpt>
      <trkpt lat="44.84727" lon="6.96854">
        <ele>2859.8</ele>
        <time>2023-02-16T11:34:08Z</time>
      </trkpt>
      <trkpt lat="44.84726" lon="6.96854">
        <ele>2860.1</ele>
        <time>2023-02-16T11:34:11Z</time>
      </trkpt>
      <trkpt lat="44.84722" lon="6.9686">
        <ele>2862.7</ele>
        <time>2023-02-16T11:34:20Z</time>
      </trkpt>
      <trkpt lat="44.84722" lon="6.96861">
        <ele>2862.9</ele>
        <time>2023-02-16T11:34:21Z</time>
      </trkpt>
      <trkpt lat="44.8472" lon="6.96863">
        <ele>2862.1</ele>
        <time>2023-02-16T11:34:25Z</time>
      </trkpt>
      <trkpt lat="44.8472" lon="6.96865">
        <ele>2862.2</ele>
        <time>2023-02-16T11:34:28Z</time>
      </trkpt>
      <trkpt lat="44.8472" lon="6.96867">
        <ele>2862.2</ele>
        <time>2023-02-16T11:34:32Z</time>
      </trkpt>
      <trkpt lat="44.84714" lon="6.96867">
        <ele>2860.1</ele>
        <time>2023-02-16T11:34:38Z</time>
      </trkpt>
      <trkpt lat="44.84712" lon="6.96865">
        <ele>2859.1</ele>
        <time>2023-02-16T11:34:41Z</time>
      </trkpt>
      <trkpt lat="44.84712" lon="6.96865">
        <ele>2859.1</ele>
        <time>2023-02-16T11:34:48Z</time>
      </trkpt>
      <trkpt lat="44.84708" lon="6.96867">
        <ele>2857.9</ele>
        <time>2023-02-16T11:34:58Z</time>
      </trkpt>
      <trkpt lat="44.84708" lon="6.96867">
        <ele>2857.9</ele>
        <time>2023-02-16T11:34:59Z</time>
      </trkpt>
      <trkpt lat="44.84707" lon="6.96867">
        <ele>2857.6</ele>
        <time>2023-02-16T11:35:03Z</time>
      </trkpt>
      <trkpt lat="44.84707" lon="6.96866">
        <ele>2857.4</ele>
        <time>2023-02-16T11:35:08Z</time>
      </trkpt>
      <trkpt lat="44.84707" lon="6.96865">
        <ele>2857.2</ele>
        <time>2023-02-16T11:35:19Z</time>
      </trkpt>
      <trkpt lat="44.84708" lon="6.96864">
        <ele>2857.4</ele>
        <time>2023-02-16T11:35:31Z</time>
      </trkpt>
      <trkpt lat="44.84708" lon="6.96863">
        <ele>2857.2</ele>
        <time>2023-02-16T11:35:37Z</time>
      </trkpt>
      <trkpt lat="44.84708" lon="6.9686">
        <ele>2856.6</ele>
        <time>2023-02-16T11:35:43Z</time>
      </trkpt>
      <trkpt lat="44.8471" lon="6.96856">
        <ele>2856.5</ele>
        <time>2023-02-16T11:35:53Z</time>
      </trkpt>
      <trkpt lat="44.84708" lon="6.96848">
        <ele>2853.5</ele>
        <time>2023-02-16T11:36:02Z</time>
      </trkpt>
      <trkpt lat="44.84708" lon="6.96844">
        <ele>2852.5</ele>
        <time>2023-02-16T11:36:10Z</time>
      </trkpt>
      <trkpt lat="44.84707" lon="6.96844">
        <ele>2852.1</ele>
        <time>2023-02-16T11:36:14Z</time>
      </trkpt>
      <trkpt lat="44.84707" lon="6.96844">
        <ele>2852.1</ele>
        <time>2023-02-16T11:36:21Z</time>
      </trkpt>
      <trkpt lat="44.84708" lon="6.96843">
        <ele>2852.3</ele>
        <time>2023-02-16T11:36:27Z</time>
      </trkpt>
      <trkpt lat="44.84707" lon="6.96844">
        <ele>2852.1</ele>
        <time>2023-02-16T11:36:37Z</time>
      </trkpt>
      <trkpt lat="44.84708" lon="6.96845">
        <ele>2852.8</ele>
        <time>2023-02-16T11:36:40Z</time>
      </trkpt>
      <trkpt lat="44.84709" lon="6.96845">
        <ele>2853.3</ele>
        <time>2023-02-16T11:36:53Z</time>
      </trkpt>
      <trkpt lat="44.84709" lon="6.96846">
        <ele>2853.5</ele>
        <time>2023-02-16T11:37:09Z</time>
      </trkpt>
      <trkpt lat="44.84708" lon="6.96847">
        <ele>2853.3</ele>
        <time>2023-02-16T11:37:19Z</time>
      </trkpt>
      <trkpt lat="44.84709" lon="6.96847">
        <ele>2853.8</ele>
        <time>2023-02-16T11:37:34Z</time>
      </trkpt>
      <trkpt lat="44.8471" lon="6.96847">
        <ele>2854.2</ele>
        <time>2023-02-16T11:37:41Z</time>
      </trkpt>
      <trkpt lat="44.84709" lon="6.9685">
        <ele>2854.5</ele>
        <time>2023-02-16T11:37:47Z</time>
      </trkpt>
      <trkpt lat="44.8471" lon="6.96859">
        <ele>2857.2</ele>
        <time>2023-02-16T11:37:58Z</time>
      </trkpt>
      <trkpt lat="44.84709" lon="6.96866">
        <ele>2858.1</ele>
        <time>2023-02-16T11:38:08Z</time>
      </trkpt>
      <trkpt lat="44.8471" lon="6.96865">
        <ele>2858.3</ele>
        <time>2023-02-16T11:38:18Z</time>
      </trkpt>
      <trkpt lat="44.8471" lon="6.96865">
        <ele>2858.3</ele>
        <time>2023-02-16T11:38:19Z</time>
      </trkpt>
      <trkpt lat="44.8471" lon="6.96864">
        <ele>2858.2</ele>
        <time>2023-02-16T11:38:35Z</time>
      </trkpt>
      <trkpt lat="44.8471" lon="6.96864">
        <ele>2858.2</ele>
        <time>2023-02-16T11:38:50Z</time>
      </trkpt>
      <trkpt lat="44.84711" lon="6.96865">
        <ele>2858.7</ele>
        <time>2023-02-16T11:39:04Z</time>
      </trkpt>
      <trkpt lat="44.84712" lon="6.96863">
        <ele>2858.8</ele>
        <time>2023-02-16T11:39:17Z</time>
      </trkpt>
      <trkpt lat="44.84711" lon="6.96863">
        <ele>2858.4</ele>
        <time>2023-02-16T11:39:31Z</time>
      </trkpt>
      <trkpt lat="44.84707" lon="6.96863">
        <ele>2856.8</ele>
        <time>2023-02-16T11:39:46Z</time>
      </trkpt>
      <trkpt lat="44.84707" lon="6.96864">
        <ele>2857</ele>
        <time>2023-02-16T11:39:59Z</time>
      </trkpt>
      <trkpt lat="44.84707" lon="6.96864">
        <ele>2857</ele>
        <time>2023-02-16T11:40:04Z</time>
      </trkpt>
      <trkpt lat="44.84707" lon="6.96864">
        <ele>2857</ele>
        <time>2023-02-16T11:40:14Z</time>
      </trkpt>
      <trkpt lat="44.84707" lon="6.96863">
        <ele>2856.8</ele>
        <time>2023-02-16T11:40:31Z</time>
      </trkpt>
      <trkpt lat="44.84707" lon="6.96864">
        <ele>2857</ele>
        <time>2023-02-16T11:40:40Z</time>
      </trkpt>
      <trkpt lat="44.84707" lon="6.96867">
        <ele>2857.6</ele>
        <time>2023-02-16T11:40:43Z</time>
      </trkpt>
      <trkpt lat="44.84707" lon="6.96871">
        <ele>2858.4</ele>
        <time>2023-02-16T11:40:48Z</time>
      </trkpt>
      <trkpt lat="44.84705" lon="6.96873">
        <ele>2858.2</ele>
        <time>2023-02-16T11:40:52Z</time>
      </trkpt>
      <trkpt lat="44.84705" lon="6.96874">
        <ele>2858.4</ele>
        <time>2023-02-16T11:40:54Z</time>
      </trkpt>
      <trkpt lat="44.84704" lon="6.96877">
        <ele>2858.9</ele>
        <time>2023-02-16T11:41:00Z</time>
      </trkpt>
      <trkpt lat="44.84704" lon="6.96878">
        <ele>2859.1</ele>
        <time>2023-02-16T11:41:03Z</time>
      </trkpt>
      <trkpt lat="44.84703" lon="6.96881">
        <ele>2859.7</ele>
        <time>2023-02-16T11:41:08Z</time>
      </trkpt>
      <trkpt lat="44.84702" lon="6.96885">
        <ele>2860.5</ele>
        <time>2023-02-16T11:41:14Z</time>
      </trkpt>
      <trkpt lat="44.847" lon="6.9689">
        <ele>2861.6</ele>
        <time>2023-02-16T11:41:24Z</time>
      </trkpt>
      <trkpt lat="44.84699" lon="6.96893">
        <ele>2862.1</ele>
        <time>2023-02-16T11:41:31Z</time>
      </trkpt>
      <trkpt lat="44.84698" lon="6.96895">
        <ele>2862.4</ele>
        <time>2023-02-16T11:41:35Z</time>
      </trkpt>
      <trkpt lat="44.84697" lon="6.96897">
        <ele>2862.8</ele>
        <time>2023-02-16T11:41:47Z</time>
      </trkpt>
      <trkpt lat="44.84697" lon="6.96897">
        <ele>2862.8</ele>
        <time>2023-02-16T11:41:50Z</time>
      </trkpt>
      <trkpt lat="44.84698" lon="6.969">
        <ele>2863.3</ele>
        <time>2023-02-16T11:42:01Z</time>
      </trkpt>
      <trkpt lat="44.84698" lon="6.96902">
        <ele>2863.7</ele>
        <time>2023-02-16T11:42:11Z</time>
      </trkpt>
      <trkpt lat="44.84698" lon="6.96902">
        <ele>2863.7</ele>
        <time>2023-02-16T11:42:13Z</time>
      </trkpt>
      <trkpt lat="44.84699" lon="6.96908">
        <ele>2864.8</ele>
        <time>2023-02-16T11:42:23Z</time>
      </trkpt>
      <trkpt lat="44.84699" lon="6.96914">
        <ele>2865.9</ele>
        <time>2023-02-16T11:42:34Z</time>
      </trkpt>
      <trkpt lat="44.84698" lon="6.96914">
        <ele>2866</ele>
        <time>2023-02-16T11:42:36Z</time>
      </trkpt>
      <trkpt lat="44.84697" lon="6.96916">
        <ele>2866.5</ele>
        <time>2023-02-16T11:42:43Z</time>
      </trkpt>
      <trkpt lat="44.84697" lon="6.96916">
        <ele>2866.5</ele>
        <time>2023-02-16T11:42:45Z</time>
      </trkpt>
      <trkpt lat="44.84697" lon="6.96921">
        <ele>2867.3</ele>
        <time>2023-02-16T11:42:56Z</time>
      </trkpt>
      <trkpt lat="44.84698" lon="6.96922">
        <ele>2867.3</ele>
        <time>2023-02-16T11:43:09Z</time>
      </trkpt>
      <trkpt lat="44.84698" lon="6.96924">
        <ele>2867.6</ele>
        <time>2023-02-16T11:43:26Z</time>
      </trkpt>
      <trkpt lat="44.84698" lon="6.96924">
        <ele>2867.6</ele>
        <time>2023-02-16T11:43:27Z</time>
      </trkpt>
      <trkpt lat="44.84696" lon="6.96925">
        <ele>2868.2</ele>
        <time>2023-02-16T11:43:37Z</time>
      </trkpt>
      <trkpt lat="44.84697" lon="6.96928">
        <ele>2868.4</ele>
        <time>2023-02-16T11:43:46Z</time>
      </trkpt>
      <trkpt lat="44.84697" lon="6.96931">
        <ele>2868.9</ele>
        <time>2023-02-16T11:43:49Z</time>
      </trkpt>
      <trkpt lat="44.84694" lon="6.9694">
        <ele>2871</ele>
        <time>2023-02-16T11:44:01Z</time>
      </trkpt>
      <trkpt lat="44.84693" lon="6.96943">
        <ele>2871.1</ele>
        <time>2023-02-16T11:44:12Z</time>
      </trkpt>
      <trkpt lat="44.84693" lon="6.96944">
        <ele>2871.3</ele>
        <time>2023-02-16T11:44:28Z</time>
      </trkpt>
      <trkpt lat="44.84694" lon="6.96943">
        <ele>2871.5</ele>
        <time>2023-02-16T11:44:41Z</time>
      </trkpt>
      <trkpt lat="44.84695" lon="6.96949">
        <ele>2871.8</ele>
        <time>2023-02-16T11:44:51Z</time>
      </trkpt>
      <trkpt lat="44.84693" lon="6.96952">
        <ele>2871.4</ele>
        <time>2023-02-16T11:44:58Z</time>
      </trkpt>
      <trkpt lat="44.84692" lon="6.96954">
        <ele>2870.9</ele>
        <time>2023-02-16T11:45:02Z</time>
      </trkpt>
      <trkpt lat="44.84692" lon="6.96954">
        <ele>2870.9</ele>
        <time>2023-02-16T11:45:03Z</time>
      </trkpt>
      <trkpt lat="44.84692" lon="6.96955">
        <ele>2870.9</ele>
        <time>2023-02-16T11:45:08Z</time>
      </trkpt>
      <trkpt lat="44.84692" lon="6.96956">
        <ele>2870.9</ele>
        <time>2023-02-16T11:45:14Z</time>
      </trkpt>
      <trkpt lat="44.84691" lon="6.96956">
        <ele>2870.5</ele>
        <time>2023-02-16T11:45:19Z</time>
      </trkpt>
      <trkpt lat="44.8469" lon="6.96958">
        <ele>2870</ele>
        <time>2023-02-16T11:45:26Z</time>
      </trkpt>
      <trkpt lat="44.8469" lon="6.9696">
        <ele>2870</ele>
        <time>2023-02-16T11:45:39Z</time>
      </trkpt>
      <trkpt lat="44.8469" lon="6.9696">
        <ele>2870</ele>
        <time>2023-02-16T11:45:42Z</time>
      </trkpt>
      <trkpt lat="44.8469" lon="6.9696">
        <ele>2870</ele>
        <time>2023-02-16T11:45:55Z</time>
      </trkpt>
      <trkpt lat="44.84689" lon="6.96962">
        <ele>2869.5</ele>
        <time>2023-02-16T11:46:08Z</time>
      </trkpt>
      <trkpt lat="44.84689" lon="6.96962">
        <ele>2869.5</ele>
        <time>2023-02-16T11:46:09Z</time>
      </trkpt>
      <trkpt lat="44.8469" lon="6.9696">
        <ele>2870</ele>
        <time>2023-02-16T11:46:21Z</time>
      </trkpt>
      <trkpt lat="44.8469" lon="6.9696">
        <ele>2870</ele>
        <time>2023-02-16T11:46:24Z</time>
      </trkpt>
      <trkpt lat="44.8469" lon="6.9696">
        <ele>2870</ele>
        <time>2023-02-16T11:46:32Z</time>
      </trkpt>
      <trkpt lat="44.84689" lon="6.96963">
        <ele>2869.5</ele>
        <time>2023-02-16T11:46:40Z</time>
      </trkpt>
      <trkpt lat="44.84687" lon="6.96964">
        <ele>2868.6</ele>
        <time>2023-02-16T11:46:53Z</time>
      </trkpt>
      <trkpt lat="44.84687" lon="6.96964">
        <ele>2868.6</ele>
        <time>2023-02-16T11:46:54Z</time>
      </trkpt>
      <trkpt lat="44.84688" lon="6.96965">
        <ele>2869</ele>
        <time>2023-02-16T11:47:03Z</time>
      </trkpt>
      <trkpt lat="44.84688" lon="6.96965">
        <ele>2869</ele>
        <time>2023-02-16T11:47:07Z</time>
      </trkpt>
      <trkpt lat="44.84688" lon="6.96965">
        <ele>2869</ele>
        <time>2023-02-16T11:47:17Z</time>
      </trkpt>
      <trkpt lat="44.84688" lon="6.96965">
        <ele>2869</ele>
        <time>2023-02-16T11:47:23Z</time>
      </trkpt>
      <trkpt lat="44.84688" lon="6.96964">
        <ele>2869.1</ele>
        <time>2023-02-16T11:47:34Z</time>
      </trkpt>
      <trkpt lat="44.84688" lon="6.96964">
        <ele>2869.1</ele>
        <time>2023-02-16T11:47:35Z</time>
      </trkpt>
      <trkpt lat="44.84688" lon="6.96963">
        <ele>2869.1</ele>
        <time>2023-02-16T11:47:49Z</time>
      </trkpt>
      <trkpt lat="44.84688" lon="6.96964">
        <ele>2869.1</ele>
        <time>2023-02-16T11:48:02Z</time>
      </trkpt>
      <trkpt lat="44.84688" lon="6.96963">
        <ele>2869.1</ele>
        <time>2023-02-16T11:48:07Z</time>
      </trkpt>
      <trkpt lat="44.84688" lon="6.96963">
        <ele>2869.1</ele>
        <time>2023-02-16T11:48:09Z</time>
      </trkpt>
      <trkpt lat="44.84688" lon="6.96964">
        <ele>2869.1</ele>
        <time>2023-02-16T11:48:23Z</time>
      </trkpt>
      <trkpt lat="44.84688" lon="6.96964">
        <ele>2869.1</ele>
        <time>2023-02-16T11:48:38Z</time>
      </trkpt>
      <trkpt lat="44.84688" lon="6.96964">
        <ele>2869.1</ele>
        <time>2023-02-16T11:48:55Z</time>
      </trkpt>
      <trkpt lat="44.84688" lon="6.96964">
        <ele>2869.1</ele>
        <time>2023-02-16T11:49:08Z</time>
      </trkpt>
      <trkpt lat="44.84688" lon="6.96965">
        <ele>2869</ele>
        <time>2023-02-16T11:49:21Z</time>
      </trkpt>
      <trkpt lat="44.84688" lon="6.96966">
        <ele>2869</ele>
        <time>2023-02-16T11:49:27Z</time>
      </trkpt>
      <trkpt lat="44.84687" lon="6.96965">
        <ele>2868.6</ele>
        <time>2023-02-16T11:49:30Z</time>
        <extensions>
          <visugpx:TrkExtension xmlns:visugpx="https://www.visugpx.com/editgpx/">
            <visugpx:etape>1</visugpx:etape>
            </visugpx:TrkExtension>
        </extensions>
      </trkpt>
      <trkpt lat="44.84687" lon="6.96963">
        <ele>2868.6</ele>
        <time>2023-02-16T11:49:34Z</time>
      </trkpt>
      <trkpt lat="44.84687" lon="6.96962">
        <ele>2868.6</ele>
        <time>2023-02-16T11:49:37Z</time>
      </trkpt>
      <trkpt lat="44.84689" lon="6.96958">
        <ele>2869.6</ele>
        <time>2023-02-16T11:49:47Z</time>
      </trkpt>
      <trkpt lat="44.84691" lon="6.96957">
        <ele>2870.5</ele>
        <time>2023-02-16T11:50:00Z</time>
      </trkpt>
      <trkpt lat="44.8469" lon="6.96957">
        <ele>2870</ele>
        <time>2023-02-16T11:50:14Z</time>
      </trkpt>
      <trkpt lat="44.8469" lon="6.96956">
        <ele>2870</ele>
        <time>2023-02-16T11:50:17Z</time>
      </trkpt>
      <trkpt lat="44.84691" lon="6.96956">
        <ele>2870.5</ele>
        <time>2023-02-16T11:50:26Z</time>
      </trkpt>
      <trkpt lat="44.84691" lon="6.96956">
        <ele>2870.5</ele>
        <time>2023-02-16T11:50:41Z</time>
      </trkpt>
      <trkpt lat="44.84691" lon="6.96956">
        <ele>2870.5</ele>
        <time>2023-02-16T11:50:43Z</time>
      </trkpt>
      <trkpt lat="44.84691" lon="6.96956">
        <ele>2870.5</ele>
        <time>2023-02-16T11:51:01Z</time>
      </trkpt>
      <trkpt lat="44.84691" lon="6.96956">
        <ele>2870.5</ele>
        <time>2023-02-16T11:51:08Z</time>
      </trkpt>
      <trkpt lat="44.84691" lon="6.96956">
        <ele>2870.5</ele>
        <time>2023-02-16T11:51:10Z</time>
      </trkpt>
      <trkpt lat="44.84692" lon="6.96954">
        <ele>2870.9</ele>
        <time>2023-02-16T11:51:21Z</time>
      </trkpt>
      <trkpt lat="44.84692" lon="6.96953">
        <ele>2870.9</ele>
        <time>2023-02-16T11:51:24Z</time>
      </trkpt>
      <trkpt lat="44.84694" lon="6.9695">
        <ele>2871.8</ele>
        <time>2023-02-16T11:51:31Z</time>
      </trkpt>
      <trkpt lat="44.84694" lon="6.96944">
        <ele>2871.7</ele>
        <time>2023-02-16T11:51:41Z</time>
      </trkpt>
      <trkpt lat="44.84697" lon="6.96937">
        <ele>2869.9</ele>
        <time>2023-02-16T11:51:50Z</time>
      </trkpt>
      <trkpt lat="44.84698" lon="6.96936">
        <ele>2869.4</ele>
        <time>2023-02-16T11:51:51Z</time>
      </trkpt>
      <trkpt lat="44.847" lon="6.96934">
        <ele>2868.6</ele>
        <time>2023-02-16T11:51:58Z</time>
      </trkpt>
      <trkpt lat="44.84702" lon="6.96932">
        <ele>2867.8</ele>
        <time>2023-02-16T11:52:01Z</time>
      </trkpt>
      <trkpt lat="44.84704" lon="6.96923">
        <ele>2866.3</ele>
        <time>2023-02-16T11:52:11Z</time>
      </trkpt>
      <trkpt lat="44.84703" lon="6.96917">
        <ele>2865.8</ele>
        <time>2023-02-16T11:52:23Z</time>
      </trkpt>
      <trkpt lat="44.84702" lon="6.96909">
        <ele>2864.7</ele>
        <time>2023-02-16T11:52:35Z</time>
      </trkpt>
      <trkpt lat="44.84702" lon="6.96909">
        <ele>2864.7</ele>
        <time>2023-02-16T11:52:36Z</time>
      </trkpt>
      <trkpt lat="44.84702" lon="6.96904">
        <ele>2863.9</ele>
        <time>2023-02-16T11:52:46Z</time>
      </trkpt>
      <trkpt lat="44.84703" lon="6.969">
        <ele>2863.3</ele>
        <time>2023-02-16T11:52:51Z</time>
      </trkpt>
      <trkpt lat="44.84703" lon="6.969">
        <ele>2863.3</ele>
        <time>2023-02-16T11:52:52Z</time>
      </trkpt>
      <trkpt lat="44.84705" lon="6.96893">
        <ele>2862.3</ele>
        <time>2023-02-16T11:53:04Z</time>
      </trkpt>
      <trkpt lat="44.84703" lon="6.96884">
        <ele>2860.4</ele>
        <time>2023-02-16T11:53:17Z</time>
      </trkpt>
      <trkpt lat="44.84702" lon="6.96883">
        <ele>2860</ele>
        <time>2023-02-16T11:53:19Z</time>
      </trkpt>
      <trkpt lat="44.84701" lon="6.9688">
        <ele>2859</ele>
        <time>2023-02-16T11:53:25Z</time>
      </trkpt>
      <trkpt lat="44.84701" lon="6.9688">
        <ele>2859</ele>
        <time>2023-02-16T11:53:29Z</time>
      </trkpt>
      <trkpt lat="44.84703" lon="6.96876">
        <ele>2858.4</ele>
        <time>2023-02-16T11:53:37Z</time>
      </trkpt>
      <trkpt lat="44.84704" lon="6.96874">
        <ele>2858.2</ele>
        <time>2023-02-16T11:53:41Z</time>
      </trkpt>
      <trkpt lat="44.84704" lon="6.96873">
        <ele>2857.9</ele>
        <time>2023-02-16T11:53:43Z</time>
      </trkpt>
      <trkpt lat="44.84705" lon="6.96872">
        <ele>2858</ele>
        <time>2023-02-16T11:53:47Z</time>
      </trkpt>
      <trkpt lat="44.84706" lon="6.96868">
        <ele>2857.4</ele>
        <time>2023-02-16T11:53:53Z</time>
      </trkpt>
      <trkpt lat="44.84707" lon="6.96865">
        <ele>2857.2</ele>
        <time>2023-02-16T11:54:05Z</time>
      </trkpt>
      <trkpt lat="44.84708" lon="6.96864">
        <ele>2857.4</ele>
        <time>2023-02-16T11:54:20Z</time>
      </trkpt>
      <trkpt lat="44.84708" lon="6.96864">
        <ele>2857.4</ele>
        <time>2023-02-16T11:54:21Z</time>
      </trkpt>
      <trkpt lat="44.84707" lon="6.96863">
        <ele>2856.8</ele>
        <time>2023-02-16T11:54:39Z</time>
      </trkpt>
      <trkpt lat="44.84707" lon="6.96864">
        <ele>2857</ele>
        <time>2023-02-16T11:54:57Z</time>
      </trkpt>
      <trkpt lat="44.84707" lon="6.96864">
        <ele>2857</ele>
        <time>2023-02-16T11:55:14Z</time>
      </trkpt>
      <trkpt lat="44.84707" lon="6.96866">
        <ele>2857.4</ele>
        <time>2023-02-16T11:55:31Z</time>
      </trkpt>
      <trkpt lat="44.84707" lon="6.96866">
        <ele>2857.4</ele>
        <time>2023-02-16T11:55:41Z</time>
      </trkpt>
      <trkpt lat="44.84707" lon="6.96867">
        <ele>2857.6</ele>
        <time>2023-02-16T11:55:44Z</time>
      </trkpt>
      <trkpt lat="44.84707" lon="6.96867">
        <ele>2857.6</ele>
        <time>2023-02-16T11:55:46Z</time>
      </trkpt>
      <trkpt lat="44.84706" lon="6.96864">
        <ele>2856.6</ele>
        <time>2023-02-16T11:55:48Z</time>
      </trkpt>
      <trkpt lat="44.84707" lon="6.96863">
        <ele>2856.8</ele>
        <time>2023-02-16T11:55:55Z</time>
      </trkpt>
      <trkpt lat="44.84707" lon="6.96863">
        <ele>2856.8</ele>
        <time>2023-02-16T11:56:03Z</time>
      </trkpt>
      <trkpt lat="44.84708" lon="6.96864">
        <ele>2857.4</ele>
        <time>2023-02-16T11:56:09Z</time>
      </trkpt>
      <trkpt lat="44.84708" lon="6.96864">
        <ele>2857.4</ele>
        <time>2023-02-16T11:56:13Z</time>
      </trkpt>
      <trkpt lat="44.84708" lon="6.96864">
        <ele>2857.4</ele>
        <time>2023-02-16T11:56:21Z</time>
      </trkpt>
      <trkpt lat="44.84708" lon="6.96864">
        <ele>2857.4</ele>
        <time>2023-02-16T11:56:36Z</time>
      </trkpt>
      <trkpt lat="44.84708" lon="6.96864">
        <ele>2857.4</ele>
        <time>2023-02-16T11:56:37Z</time>
      </trkpt>
      <trkpt lat="44.84708" lon="6.96863">
        <ele>2857.2</ele>
        <time>2023-02-16T11:56:51Z</time>
      </trkpt>
      <trkpt lat="44.84709" lon="6.96861">
        <ele>2857.3</ele>
        <time>2023-02-16T11:57:05Z</time>
      </trkpt>
      <trkpt lat="44.84709" lon="6.96861">
        <ele>2857.3</ele>
        <time>2023-02-16T11:57:06Z</time>
      </trkpt>
      <trkpt lat="44.84708" lon="6.96862">
        <ele>2857</ele>
        <time>2023-02-16T11:57:16Z</time>
      </trkpt>
      <trkpt lat="44.84708" lon="6.96862">
        <ele>2857</ele>
        <time>2023-02-16T11:57:31Z</time>
      </trkpt>
      <trkpt lat="44.84708" lon="6.96861">
        <ele>2856.8</ele>
        <time>2023-02-16T11:57:35Z</time>
      </trkpt>
      <trkpt lat="44.84708" lon="6.96862">
        <ele>2857</ele>
        <time>2023-02-16T11:57:46Z</time>
      </trkpt>
      <trkpt lat="44.84709" lon="6.96862">
        <ele>2857.4</ele>
        <time>2023-02-16T11:58:02Z</time>
      </trkpt>
      <trkpt lat="44.84708" lon="6.96861">
        <ele>2856.8</ele>
        <time>2023-02-16T11:58:21Z</time>
      </trkpt>
      <trkpt lat="44.84707" lon="6.96862">
        <ele>2856.6</ele>
        <time>2023-02-16T11:58:30Z</time>
      </trkpt>
      <trkpt lat="44.84707" lon="6.96862">
        <ele>2856.6</ele>
        <time>2023-02-16T11:58:36Z</time>
      </trkpt>
      <trkpt lat="44.84707" lon="6.96862">
        <ele>2856.6</ele>
        <time>2023-02-16T11:58:51Z</time>
      </trkpt>
      <trkpt lat="44.84708" lon="6.96862">
        <ele>2857</ele>
        <time>2023-02-16T11:58:52Z</time>
      </trkpt>
      <trkpt lat="44.84708" lon="6.96863">
        <ele>2857.2</ele>
        <time>2023-02-16T11:59:05Z</time>
      </trkpt>
      <trkpt lat="44.84707" lon="6.96863">
        <ele>2856.8</ele>
        <time>2023-02-16T11:59:22Z</time>
      </trkpt>
      <trkpt lat="44.84708" lon="6.96864">
        <ele>2857.4</ele>
        <time>2023-02-16T11:59:35Z</time>
      </trkpt>
      <trkpt lat="44.84708" lon="6.96864">
        <ele>2857.4</ele>
        <time>2023-02-16T11:59:36Z</time>
      </trkpt>
      <trkpt lat="44.84709" lon="6.96862">
        <ele>2857.4</ele>
        <time>2023-02-16T11:59:45Z</time>
      </trkpt>
      <trkpt lat="44.8471" lon="6.9686">
        <ele>2857.4</ele>
        <time>2023-02-16T11:59:51Z</time>
      </trkpt>
      <trkpt lat="44.8471" lon="6.9686">
        <ele>2857.4</ele>
        <time>2023-02-16T11:59:56Z</time>
      </trkpt>
      <trkpt lat="44.84711" lon="6.9686">
        <ele>2857.9</ele>
        <time>2023-02-16T12:00:03Z</time>
      </trkpt>
      <trkpt lat="44.84711" lon="6.96861">
        <ele>2858.1</ele>
        <time>2023-02-16T12:00:12Z</time>
      </trkpt>
      <trkpt lat="44.84712" lon="6.9686">
        <ele>2858.3</ele>
        <time>2023-02-16T12:00:25Z</time>
      </trkpt>
      <trkpt lat="44.84711" lon="6.9686">
        <ele>2857.9</ele>
        <time>2023-02-16T12:00:27Z</time>
      </trkpt>
      <trkpt lat="44.84711" lon="6.96861">
        <ele>2858.1</ele>
        <time>2023-02-16T12:00:38Z</time>
      </trkpt>
      <trkpt lat="44.84711" lon="6.9686">
        <ele>2857.9</ele>
        <time>2023-02-16T12:00:49Z</time>
      </trkpt>
      <trkpt lat="44.84711" lon="6.96858">
        <ele>2857.4</ele>
        <time>2023-02-16T12:00:59Z</time>
      </trkpt>
      <trkpt lat="44.84713" lon="6.96854">
        <ele>2857.3</ele>
        <time>2023-02-16T12:01:09Z</time>
      </trkpt>
      <trkpt lat="44.84714" lon="6.96854">
        <ele>2857.8</ele>
        <time>2023-02-16T12:01:12Z</time>
      </trkpt>
      <trkpt lat="44.84715" lon="6.96854">
        <ele>2858.2</ele>
        <time>2023-02-16T12:01:13Z</time>
      </trkpt>
      <trkpt lat="44.84717" lon="6.96852">
        <ele>2858.7</ele>
        <time>2023-02-16T12:01:16Z</time>
      </trkpt>
      <trkpt lat="44.84718" lon="6.96851">
        <ele>2858.9</ele>
        <time>2023-02-16T12:01:19Z</time>
      </trkpt>
      <trkpt lat="44.84718" lon="6.9685">
        <ele>2858.7</ele>
        <time>2023-02-16T12:01:20Z</time>
      </trkpt>
      <trkpt lat="44.84722" lon="6.96851">
        <ele>2860.7</ele>
        <time>2023-02-16T12:01:24Z</time>
      </trkpt>
      <trkpt lat="44.84723" lon="6.96853">
        <ele>2861</ele>
        <time>2023-02-16T12:01:25Z</time>
      </trkpt>
      <trkpt lat="44.84724" lon="6.96855">
        <ele>2861</ele>
        <time>2023-02-16T12:01:26Z</time>
      </trkpt>
      <trkpt lat="44.84724" lon="6.96856">
        <ele>2861.3</ele>
        <time>2023-02-16T12:01:28Z</time>
      </trkpt>
      <trkpt lat="44.84725" lon="6.96856">
        <ele>2860.9</ele>
        <time>2023-02-16T12:01:29Z</time>
      </trkpt>
      <trkpt lat="44.84726" lon="6.96858">
        <ele>2860.9</ele>
        <time>2023-02-16T12:01:43Z</time>
      </trkpt>
      <trkpt lat="44.84727" lon="6.96864">
        <ele>2861.1</ele>
        <time>2023-02-16T12:01:54Z</time>
      </trkpt>
      <trkpt lat="44.84727" lon="6.96866">
        <ele>2861.1</ele>
        <time>2023-02-16T12:01:55Z</time>
      </trkpt>
      <trkpt lat="44.84728" lon="6.96869">
        <ele>2860.7</ele>
        <time>2023-02-16T12:02:02Z</time>
      </trkpt>
      <trkpt lat="44.84728" lon="6.96868">
        <ele>2860.7</ele>
        <time>2023-02-16T12:02:16Z</time>
      </trkpt>
      <trkpt lat="44.8473" lon="6.96863">
        <ele>2859.9</ele>
        <time>2023-02-16T12:02:28Z</time>
      </trkpt>
      <trkpt lat="44.84732" lon="6.96859">
        <ele>2858.8</ele>
        <time>2023-02-16T12:02:29Z</time>
      </trkpt>
      <trkpt lat="44.84736" lon="6.96846">
        <ele>2855.6</ele>
        <time>2023-02-16T12:02:32Z</time>
      </trkpt>
      <trkpt lat="44.84738" lon="6.96841">
        <ele>2854.5</ele>
        <time>2023-02-16T12:02:33Z</time>
      </trkpt>
      <trkpt lat="44.84739" lon="6.96832">
        <ele>2853.4</ele>
        <time>2023-02-16T12:02:35Z</time>
      </trkpt>
      <trkpt lat="44.84742" lon="6.96826">
        <ele>2852.9</ele>
        <time>2023-02-16T12:02:37Z</time>
      </trkpt>
      <trkpt lat="44.84745" lon="6.96826">
        <ele>2852.2</ele>
        <time>2023-02-16T12:02:38Z</time>
      </trkpt>
      <trkpt lat="44.84749" lon="6.96829">
        <ele>2851.2</ele>
        <time>2023-02-16T12:02:39Z</time>
      </trkpt>
      <trkpt lat="44.84752" lon="6.96833">
        <ele>2850.4</ele>
        <time>2023-02-16T12:02:40Z</time>
      </trkpt>
      <trkpt lat="44.84756" lon="6.96845">
        <ele>2849.3</ele>
        <time>2023-02-16T12:02:42Z</time>
      </trkpt>
      <trkpt lat="44.8476" lon="6.9686">
        <ele>2848</ele>
        <time>2023-02-16T12:02:44Z</time>
      </trkpt>
      <trkpt lat="44.84765" lon="6.96875">
        <ele>2846.1</ele>
        <time>2023-02-16T12:02:46Z</time>
      </trkpt>
      <trkpt lat="44.84766" lon="6.96884">
        <ele>2845.7</ele>
        <time>2023-02-16T12:02:47Z</time>
      </trkpt>
      <trkpt lat="44.84767" lon="6.96893">
        <ele>2845.1</ele>
        <time>2023-02-16T12:02:48Z</time>
      </trkpt>
      <trkpt lat="44.84768" lon="6.96901">
        <ele>2844.3</ele>
        <time>2023-02-16T12:02:49Z</time>
      </trkpt>
      <trkpt lat="44.84769" lon="6.96915">
        <ele>2843.2</ele>
        <time>2023-02-16T12:02:51Z</time>
      </trkpt>
      <trkpt lat="44.84769" lon="6.9692">
        <ele>2842.7</ele>
        <time>2023-02-16T12:02:52Z</time>
      </trkpt>
      <trkpt lat="44.84769" lon="6.96925">
        <ele>2842</ele>
        <time>2023-02-16T12:02:54Z</time>
      </trkpt>
      <trkpt lat="44.84771" lon="6.96926">
        <ele>2841.1</ele>
        <time>2023-02-16T12:02:55Z</time>
      </trkpt>
      <trkpt lat="44.8478" lon="6.9692">
        <ele>2838.9</ele>
        <time>2023-02-16T12:02:58Z</time>
      </trkpt>
      <trkpt lat="44.84782" lon="6.96915">
        <ele>2838.8</ele>
        <time>2023-02-16T12:02:59Z</time>
      </trkpt>
      <trkpt lat="44.84785" lon="6.9691">
        <ele>2838.2</ele>
        <time>2023-02-16T12:03:00Z</time>
      </trkpt>
      <trkpt lat="44.84787" lon="6.96905">
        <ele>2837.8</ele>
        <time>2023-02-16T12:03:01Z</time>
      </trkpt>
      <trkpt lat="44.8479" lon="6.96901">
        <ele>2837</ele>
        <time>2023-02-16T12:03:02Z</time>
      </trkpt>
      <trkpt lat="44.84794" lon="6.96902">
        <ele>2835.9</ele>
        <time>2023-02-16T12:03:03Z</time>
      </trkpt>
      <trkpt lat="44.84797" lon="6.96906">
        <ele>2834.8</ele>
        <time>2023-02-16T12:03:04Z</time>
      </trkpt>
      <trkpt lat="44.84799" lon="6.96911">
        <ele>2834.1</ele>
        <time>2023-02-16T12:03:05Z</time>
      </trkpt>
      <trkpt lat="44.848" lon="6.96917">
        <ele>2833.6</ele>
        <time>2023-02-16T12:03:06Z</time>
      </trkpt>
      <trkpt lat="44.848" lon="6.96923">
        <ele>2832.9</ele>
        <time>2023-02-16T12:03:07Z</time>
      </trkpt>
      <trkpt lat="44.848" lon="6.96927">
        <ele>2832.4</ele>
        <time>2023-02-16T12:03:08Z</time>
      </trkpt>
      <trkpt lat="44.84799" lon="6.96938">
        <ele>2831.4</ele>
        <time>2023-02-16T12:03:11Z</time>
      </trkpt>
      <trkpt lat="44.84798" lon="6.96942">
        <ele>2831.2</ele>
        <time>2023-02-16T12:03:12Z</time>
      </trkpt>
      <trkpt lat="44.84796" lon="6.96946">
        <ele>2830.9</ele>
        <time>2023-02-16T12:03:13Z</time>
      </trkpt>
      <trkpt lat="44.84794" lon="6.9695">
        <ele>2830.2</ele>
        <time>2023-02-16T12:03:14Z</time>
      </trkpt>
      <trkpt lat="44.84791" lon="6.96954">
        <ele>2829.8</ele>
        <time>2023-02-16T12:03:15Z</time>
      </trkpt>
      <trkpt lat="44.84786" lon="6.96962">
        <ele>2828.7</ele>
        <time>2023-02-16T12:03:17Z</time>
      </trkpt>
      <trkpt lat="44.84781" lon="6.96969">
        <ele>2828</ele>
        <time>2023-02-16T12:03:19Z</time>
      </trkpt>
      <trkpt lat="44.84779" lon="6.96973">
        <ele>2827.4</ele>
        <time>2023-02-16T12:03:20Z</time>
      </trkpt>
      <trkpt lat="44.84776" lon="6.96979">
        <ele>2826.4</ele>
        <time>2023-02-16T12:03:22Z</time>
      </trkpt>
      <trkpt lat="44.84775" lon="6.96981">
        <ele>2826.2</ele>
        <time>2023-02-16T12:03:25Z</time>
      </trkpt>
      <trkpt lat="44.8478" lon="6.96984">
        <ele>2823.2</ele>
        <time>2023-02-16T12:03:33Z</time>
      </trkpt>
      <trkpt lat="44.84783" lon="6.96983">
        <ele>2822.7</ele>
        <time>2023-02-16T12:03:34Z</time>
      </trkpt>
      <trkpt lat="44.84789" lon="6.96982">
        <ele>2821.4</ele>
        <time>2023-02-16T12:03:36Z</time>
      </trkpt>
      <trkpt lat="44.84792" lon="6.96981">
        <ele>2820.9</ele>
        <time>2023-02-16T12:03:37Z</time>
      </trkpt>
      <trkpt lat="44.84796" lon="6.9698">
        <ele>2820.1</ele>
        <time>2023-02-16T12:03:38Z</time>
      </trkpt>
      <trkpt lat="44.84799" lon="6.96982">
        <ele>2818.6</ele>
        <time>2023-02-16T12:03:39Z</time>
      </trkpt>
      <trkpt lat="44.848" lon="6.96986">
        <ele>2817</ele>
        <time>2023-02-16T12:03:40Z</time>
      </trkpt>
      <trkpt lat="44.848" lon="6.96989">
        <ele>2816</ele>
        <time>2023-02-16T12:03:41Z</time>
      </trkpt>
      <trkpt lat="44.84799" lon="6.96992">
        <ele>2815.3</ele>
        <time>2023-02-16T12:03:42Z</time>
      </trkpt>
      <trkpt lat="44.84798" lon="6.96994">
        <ele>2814.9</ele>
        <time>2023-02-16T12:03:43Z</time>
      </trkpt>
      <trkpt lat="44.84797" lon="6.96995">
        <ele>2814.8</ele>
        <time>2023-02-16T12:03:45Z</time>
      </trkpt>
      <trkpt lat="44.84795" lon="6.96998">
        <ele>2814.3</ele>
        <time>2023-02-16T12:03:47Z</time>
      </trkpt>
      <trkpt lat="44.84794" lon="6.96999">
        <ele>2814.3</ele>
        <time>2023-02-16T12:03:48Z</time>
      </trkpt>
      <trkpt lat="44.84794" lon="6.96999">
        <ele>2814.3</ele>
        <time>2023-02-16T12:03:53Z</time>
      </trkpt>
      <trkpt lat="44.84794" lon="6.97">
        <ele>2813.9</ele>
        <time>2023-02-16T12:03:55Z</time>
      </trkpt>
      <trkpt lat="44.84798" lon="6.96999">
        <ele>2813.2</ele>
        <time>2023-02-16T12:04:06Z</time>
      </trkpt>
      <trkpt lat="44.848" lon="6.96999">
        <ele>2812.7</ele>
        <time>2023-02-16T12:04:08Z</time>
      </trkpt>
      <trkpt lat="44.84804" lon="6.96998">
        <ele>2812</ele>
        <time>2023-02-16T12:04:10Z</time>
      </trkpt>
      <trkpt lat="44.84808" lon="6.96997">
        <ele>2811.2</ele>
        <time>2023-02-16T12:04:12Z</time>
      </trkpt>
      <trkpt lat="44.84813" lon="6.96995">
        <ele>2810.3</ele>
        <time>2023-02-16T12:04:14Z</time>
      </trkpt>
      <trkpt lat="44.84815" lon="6.96994">
        <ele>2810</ele>
        <time>2023-02-16T12:04:15Z</time>
      </trkpt>
      <trkpt lat="44.84821" lon="6.9699">
        <ele>2809.6</ele>
        <time>2023-02-16T12:04:18Z</time>
      </trkpt>
      <trkpt lat="44.84823" lon="6.96989">
        <ele>2809.4</ele>
        <time>2023-02-16T12:04:20Z</time>
      </trkpt>
      <trkpt lat="44.84824" lon="6.96989">
        <ele>2809.1</ele>
        <time>2023-02-16T12:04:21Z</time>
      </trkpt>
      <trkpt lat="44.84826" lon="6.96993">
        <ele>2807</ele>
        <time>2023-02-16T12:04:23Z</time>
      </trkpt>
      <trkpt lat="44.84825" lon="6.96995">
        <ele>2806.6</ele>
        <time>2023-02-16T12:04:24Z</time>
      </trkpt>
      <trkpt lat="44.84825" lon="6.96998">
        <ele>2805.4</ele>
        <time>2023-02-16T12:04:26Z</time>
      </trkpt>
      <trkpt lat="44.84825" lon="6.96998">
        <ele>2805.4</ele>
        <time>2023-02-16T12:04:27Z</time>
      </trkpt>
      <trkpt lat="44.84826" lon="6.96998">
        <ele>2805.1</ele>
        <time>2023-02-16T12:04:30Z</time>
      </trkpt>
      <trkpt lat="44.84827" lon="6.96997">
        <ele>2805.2</ele>
        <time>2023-02-16T12:04:39Z</time>
      </trkpt>
      <trkpt lat="44.84826" lon="6.96996">
        <ele>2805.9</ele>
        <time>2023-02-16T12:04:56Z</time>
      </trkpt>
      <trkpt lat="44.84826" lon="6.97">
        <ele>2804.4</ele>
        <time>2023-02-16T12:05:07Z</time>
      </trkpt>
      <trkpt lat="44.84827" lon="6.97002">
        <ele>2803.1</ele>
        <time>2023-02-16T12:05:08Z</time>
      </trkpt>
      <trkpt lat="44.84829" lon="6.97001">
        <ele>2802.9</ele>
        <time>2023-02-16T12:05:10Z</time>
      </trkpt>
      <trkpt lat="44.84831" lon="6.97001">
        <ele>2802.3</ele>
        <time>2023-02-16T12:05:11Z</time>
      </trkpt>
      <trkpt lat="44.84832" lon="6.97">
        <ele>2802.4</ele>
        <time>2023-02-16T12:05:12Z</time>
      </trkpt>
      <trkpt lat="44.84833" lon="6.97">
        <ele>2802.1</ele>
        <time>2023-02-16T12:05:13Z</time>
      </trkpt>
      <trkpt lat="44.84835" lon="6.97001">
        <ele>2801.1</ele>
        <time>2023-02-16T12:05:16Z</time>
      </trkpt>
      <trkpt lat="44.84835" lon="6.97003">
        <ele>2800.2</ele>
        <time>2023-02-16T12:05:17Z</time>
      </trkpt>
      <trkpt lat="44.84833" lon="6.97005">
        <ele>2799.8</ele>
        <time>2023-02-16T12:05:18Z</time>
      </trkpt>
      <trkpt lat="44.84832" lon="6.97007">
        <ele>2799.2</ele>
        <time>2023-02-16T12:05:19Z</time>
      </trkpt>
      <trkpt lat="44.84831" lon="6.9701">
        <ele>2798.1</ele>
        <time>2023-02-16T12:05:22Z</time>
      </trkpt>
      <trkpt lat="44.84832" lon="6.97013">
        <ele>2796.4</ele>
        <time>2023-02-16T12:05:31Z</time>
      </trkpt>
      <trkpt lat="44.84832" lon="6.97013">
        <ele>2796.4</ele>
        <time>2023-02-16T12:05:33Z</time>
      </trkpt>
      <trkpt lat="44.84833" lon="6.97012">
        <ele>2796.5</ele>
        <time>2023-02-16T12:05:43Z</time>
      </trkpt>
      <trkpt lat="44.84834" lon="6.97012">
        <ele>2796.2</ele>
        <time>2023-02-16T12:05:44Z</time>
      </trkpt>
      <trkpt lat="44.84835" lon="6.97012">
        <ele>2796</ele>
        <time>2023-02-16T12:05:45Z</time>
      </trkpt>
      <trkpt lat="44.84837" lon="6.97013">
        <ele>2795.2</ele>
        <time>2023-02-16T12:05:49Z</time>
      </trkpt>
      <trkpt lat="44.84837" lon="6.97015">
        <ele>2794.3</ele>
        <time>2023-02-16T12:05:50Z</time>
      </trkpt>
      <trkpt lat="44.84836" lon="6.97017">
        <ele>2793.5</ele>
        <time>2023-02-16T12:05:51Z</time>
      </trkpt>
      <trkpt lat="44.84838" lon="6.97019">
        <ele>2792.3</ele>
        <time>2023-02-16T12:05:53Z</time>
      </trkpt>
      <trkpt lat="44.84841" lon="6.97019">
        <ele>2791.7</ele>
        <time>2023-02-16T12:05:55Z</time>
      </trkpt>
      <trkpt lat="44.84841" lon="6.97021">
        <ele>2790.9</ele>
        <time>2023-02-16T12:05:56Z</time>
      </trkpt>
      <trkpt lat="44.84839" lon="6.97026">
        <ele>2789</ele>
        <time>2023-02-16T12:05:58Z</time>
      </trkpt>
      <trkpt lat="44.84837" lon="6.97029">
        <ele>2787.9</ele>
        <time>2023-02-16T12:06:00Z</time>
      </trkpt>
      <trkpt lat="44.84837" lon="6.97029">
        <ele>2787.9</ele>
        <time>2023-02-16T12:06:02Z</time>
      </trkpt>
      <trkpt lat="44.84836" lon="6.97029">
        <ele>2788</ele>
        <time>2023-02-16T12:06:03Z</time>
      </trkpt>
      <trkpt lat="44.84834" lon="6.97033">
        <ele>2786.4</ele>
        <time>2023-02-16T12:06:12Z</time>
      </trkpt>
      <trkpt lat="44.84834" lon="6.97033">
        <ele>2786.4</ele>
        <time>2023-02-16T12:06:13Z</time>
      </trkpt>
      <trkpt lat="44.84836" lon="6.97032">
        <ele>2786.6</ele>
        <time>2023-02-16T12:06:20Z</time>
      </trkpt>
      <trkpt lat="44.84842" lon="6.9703">
        <ele>2786.6</ele>
        <time>2023-02-16T12:06:31Z</time>
      </trkpt>
      <trkpt lat="44.84843" lon="6.9703">
        <ele>2786.4</ele>
        <time>2023-02-16T12:06:32Z</time>
      </trkpt>
      <trkpt lat="44.84844" lon="6.97031">
        <ele>2785.7</ele>
        <time>2023-02-16T12:06:33Z</time>
      </trkpt>
      <trkpt lat="44.84843" lon="6.97034">
        <ele>2784.3</ele>
        <time>2023-02-16T12:06:36Z</time>
      </trkpt>
      <trkpt lat="44.84843" lon="6.97038">
        <ele>2782.2</ele>
        <time>2023-02-16T12:06:37Z</time>
      </trkpt>
      <trkpt lat="44.84842" lon="6.9704">
        <ele>2781.3</ele>
        <time>2023-02-16T12:06:38Z</time>
      </trkpt>
      <trkpt lat="44.84847" lon="6.97042">
        <ele>2779.1</ele>
        <time>2023-02-16T12:06:40Z</time>
      </trkpt>
      <trkpt lat="44.84848" lon="6.97044">
        <ele>2777.8</ele>
        <time>2023-02-16T12:06:41Z</time>
      </trkpt>
      <trkpt lat="44.84847" lon="6.9705">
        <ele>2774.7</ele>
        <time>2023-02-16T12:06:43Z</time>
      </trkpt>
      <trkpt lat="44.84848" lon="6.97053">
        <ele>2772.7</ele>
        <time>2023-02-16T12:06:44Z</time>
      </trkpt>
      <trkpt lat="44.84851" lon="6.97054">
        <ele>2771.2</ele>
        <time>2023-02-16T12:06:45Z</time>
      </trkpt>
      <trkpt lat="44.84854" lon="6.97055">
        <ele>2769.6</ele>
        <time>2023-02-16T12:06:46Z</time>
      </trkpt>
      <trkpt lat="44.84857" lon="6.97054">
        <ele>2769.3</ele>
        <time>2023-02-16T12:06:47Z</time>
      </trkpt>
      <trkpt lat="44.8486" lon="6.97054">
        <ele>2768.4</ele>
        <time>2023-02-16T12:06:48Z</time>
      </trkpt>
      <trkpt lat="44.84865" lon="6.97055">
        <ele>2767.9</ele>
        <time>2023-02-16T12:06:51Z</time>
      </trkpt>
      <trkpt lat="44.84862" lon="6.9706">
        <ele>2765.1</ele>
        <time>2023-02-16T12:06:54Z</time>
      </trkpt>
      <trkpt lat="44.84862" lon="6.97063">
        <ele>2763.7</ele>
        <time>2023-02-16T12:06:55Z</time>
      </trkpt>
      <trkpt lat="44.84866" lon="6.97066">
        <ele>2763.1</ele>
        <time>2023-02-16T12:06:57Z</time>
      </trkpt>
      <trkpt lat="44.84868" lon="6.97068">
        <ele>2762.6</ele>
        <time>2023-02-16T12:06:58Z</time>
      </trkpt>
      <trkpt lat="44.8487" lon="6.9707">
        <ele>2762.2</ele>
        <time>2023-02-16T12:06:59Z</time>
      </trkpt>
      <trkpt lat="44.84869" lon="6.97073">
        <ele>2760.7</ele>
        <time>2023-02-16T12:07:00Z</time>
      </trkpt>
      <trkpt lat="44.84868" lon="6.97076">
        <ele>2759.2</ele>
        <time>2023-02-16T12:07:01Z</time>
      </trkpt>
      <trkpt lat="44.84868" lon="6.9708">
        <ele>2757.4</ele>
        <time>2023-02-16T12:07:02Z</time>
      </trkpt>
      <trkpt lat="44.8487" lon="6.97083">
        <ele>2756.7</ele>
        <time>2023-02-16T12:07:03Z</time>
      </trkpt>
      <trkpt lat="44.8487" lon="6.97087">
        <ele>2754.8</ele>
        <time>2023-02-16T12:07:04Z</time>
      </trkpt>
      <trkpt lat="44.84868" lon="6.97091">
        <ele>2752.4</ele>
        <time>2023-02-16T12:07:05Z</time>
      </trkpt>
      <trkpt lat="44.84868" lon="6.97094">
        <ele>2751</ele>
        <time>2023-02-16T12:07:06Z</time>
      </trkpt>
      <trkpt lat="44.84869" lon="6.97097">
        <ele>2749.8</ele>
        <time>2023-02-16T12:07:07Z</time>
      </trkpt>
      <trkpt lat="44.84872" lon="6.97099">
        <ele>2749.5</ele>
        <time>2023-02-16T12:07:08Z</time>
      </trkpt>
      <trkpt lat="44.84875" lon="6.97101">
        <ele>2749.1</ele>
        <time>2023-02-16T12:07:09Z</time>
      </trkpt>
      <trkpt lat="44.84878" lon="6.97103">
        <ele>2748.6</ele>
        <time>2023-02-16T12:07:10Z</time>
      </trkpt>
      <trkpt lat="44.84881" lon="6.97104">
        <ele>2748.7</ele>
        <time>2023-02-16T12:07:11Z</time>
      </trkpt>
      <trkpt lat="44.84883" lon="6.97106">
        <ele>2747.9</ele>
        <time>2023-02-16T12:07:12Z</time>
      </trkpt>
      <trkpt lat="44.84887" lon="6.97109">
        <ele>2746.9</ele>
        <time>2023-02-16T12:07:15Z</time>
      </trkpt>
      <trkpt lat="44.84888" lon="6.97109">
        <ele>2747.1</ele>
        <time>2023-02-16T12:07:16Z</time>
      </trkpt>
      <trkpt lat="44.84889" lon="6.9711">
        <ele>2746.7</ele>
        <time>2023-02-16T12:07:17Z</time>
      </trkpt>
      <trkpt lat="44.84887" lon="6.97111">
        <ele>2745.8</ele>
        <time>2023-02-16T12:07:18Z</time>
      </trkpt>
      <trkpt lat="44.84885" lon="6.97112">
        <ele>2745</ele>
        <time>2023-02-16T12:07:19Z</time>
      </trkpt>
      <trkpt lat="44.84883" lon="6.97111">
        <ele>2745.2</ele>
        <time>2023-02-16T12:07:20Z</time>
      </trkpt>
      <trkpt lat="44.8488" lon="6.97111">
        <ele>2744.8</ele>
        <time>2023-02-16T12:07:22Z</time>
      </trkpt>
      <trkpt lat="44.84871" lon="6.97112">
        <ele>2743</ele>
        <time>2023-02-16T12:07:25Z</time>
      </trkpt>
      <trkpt lat="44.84864" lon="6.97115">
        <ele>2740.9</ele>
        <time>2023-02-16T12:07:27Z</time>
      </trkpt>
      <trkpt lat="44.84857" lon="6.97119">
        <ele>2740.6</ele>
        <time>2023-02-16T12:07:29Z</time>
      </trkpt>
      <trkpt lat="44.84852" lon="6.97123">
        <ele>2740.7</ele>
        <time>2023-02-16T12:07:31Z</time>
      </trkpt>
      <trkpt lat="44.8485" lon="6.97125">
        <ele>2740.6</ele>
        <time>2023-02-16T12:07:32Z</time>
      </trkpt>
      <trkpt lat="44.84849" lon="6.97131">
        <ele>2738.6</ele>
        <time>2023-02-16T12:07:34Z</time>
      </trkpt>
      <trkpt lat="44.8485" lon="6.97135">
        <ele>2736.7</ele>
        <time>2023-02-16T12:07:35Z</time>
      </trkpt>
      <trkpt lat="44.84853" lon="6.97146">
        <ele>2732.5</ele>
        <time>2023-02-16T12:07:37Z</time>
      </trkpt>
      <trkpt lat="44.84855" lon="6.97151">
        <ele>2730.6</ele>
        <time>2023-02-16T12:07:38Z</time>
      </trkpt>
      <trkpt lat="44.84857" lon="6.97157">
        <ele>2728.3</ele>
        <time>2023-02-16T12:07:39Z</time>
      </trkpt>
      <trkpt lat="44.84858" lon="6.97164">
        <ele>2726</ele>
        <time>2023-02-16T12:07:40Z</time>
      </trkpt>
      <trkpt lat="44.8486" lon="6.9717">
        <ele>2723.6</ele>
        <time>2023-02-16T12:07:41Z</time>
      </trkpt>
      <trkpt lat="44.84862" lon="6.97175">
        <ele>2721.7</ele>
        <time>2023-02-16T12:07:42Z</time>
      </trkpt>
      <trkpt lat="44.84863" lon="6.97182">
        <ele>2719.7</ele>
        <time>2023-02-16T12:07:43Z</time>
      </trkpt>
      <trkpt lat="44.84863" lon="6.9719">
        <ele>2717.7</ele>
        <time>2023-02-16T12:07:44Z</time>
      </trkpt>
      <trkpt lat="44.84864" lon="6.97198">
        <ele>2715.7</ele>
        <time>2023-02-16T12:07:45Z</time>
      </trkpt>
      <trkpt lat="44.84865" lon="6.97206">
        <ele>2713.9</ele>
        <time>2023-02-16T12:07:46Z</time>
      </trkpt>
      <trkpt lat="44.84867" lon="6.97214">
        <ele>2711.8</ele>
        <time>2023-02-16T12:07:47Z</time>
      </trkpt>
      <trkpt lat="44.84868" lon="6.97221">
        <ele>2710</ele>
        <time>2023-02-16T12:07:48Z</time>
      </trkpt>
      <trkpt lat="44.84872" lon="6.97228">
        <ele>2707.6</ele>
        <time>2023-02-16T12:07:49Z</time>
      </trkpt>
      <trkpt lat="44.84875" lon="6.97236">
        <ele>2705.3</ele>
        <time>2023-02-16T12:07:50Z</time>
      </trkpt>
      <trkpt lat="44.84876" lon="6.97242">
        <ele>2703.9</ele>
        <time>2023-02-16T12:07:51Z</time>
      </trkpt>
      <trkpt lat="44.84878" lon="6.97245">
        <ele>2702.6</ele>
        <time>2023-02-16T12:07:52Z</time>
      </trkpt>
      <trkpt lat="44.8488" lon="6.97245">
        <ele>2701.7</ele>
        <time>2023-02-16T12:07:53Z</time>
      </trkpt>
      <trkpt lat="44.84882" lon="6.97245">
        <ele>2700.9</ele>
        <time>2023-02-16T12:07:54Z</time>
      </trkpt>
      <trkpt lat="44.84884" lon="6.97245">
        <ele>2700.1</ele>
        <time>2023-02-16T12:07:55Z</time>
      </trkpt>
      <trkpt lat="44.84885" lon="6.97245">
        <ele>2699.7</ele>
        <time>2023-02-16T12:07:57Z</time>
      </trkpt>
      <trkpt lat="44.84886" lon="6.97242">
        <ele>2699.9</ele>
        <time>2023-02-16T12:08:05Z</time>
      </trkpt>
      <trkpt lat="44.84886" lon="6.97242">
        <ele>2699.9</ele>
        <time>2023-02-16T12:08:06Z</time>
      </trkpt>
      <trkpt lat="44.84882" lon="6.97239">
        <ele>2702.1</ele>
        <time>2023-02-16T12:08:13Z</time>
      </trkpt>
      <trkpt lat="44.84882" lon="6.97237">
        <ele>2702.4</ele>
        <time>2023-02-16T12:08:24Z</time>
      </trkpt>
      <trkpt lat="44.84883" lon="6.97235">
        <ele>2702.4</ele>
        <time>2023-02-16T12:08:36Z</time>
      </trkpt>
      <trkpt lat="44.84884" lon="6.97234">
        <ele>2702.3</ele>
        <time>2023-02-16T12:08:43Z</time>
      </trkpt>
      <trkpt lat="44.84886" lon="6.97233">
        <ele>2701.7</ele>
        <time>2023-02-16T12:08:46Z</time>
      </trkpt>
      <trkpt lat="44.84888" lon="6.97233">
        <ele>2701</ele>
        <time>2023-02-16T12:08:48Z</time>
      </trkpt>
      <trkpt lat="44.84892" lon="6.9724">
        <ele>2698.2</ele>
        <time>2023-02-16T12:08:51Z</time>
      </trkpt>
      <trkpt lat="44.84893" lon="6.97244">
        <ele>2696.8</ele>
        <time>2023-02-16T12:08:52Z</time>
      </trkpt>
      <trkpt lat="44.84894" lon="6.97246">
        <ele>2695.9</ele>
        <time>2023-02-16T12:08:53Z</time>
      </trkpt>
      <trkpt lat="44.84897" lon="6.97246">
        <ele>2694.8</ele>
        <time>2023-02-16T12:08:54Z</time>
      </trkpt>
      <trkpt lat="44.84901" lon="6.97247">
        <ele>2692.9</ele>
        <time>2023-02-16T12:08:55Z</time>
      </trkpt>
      <trkpt lat="44.84904" lon="6.97256">
        <ele>2690.2</ele>
        <time>2023-02-16T12:08:57Z</time>
      </trkpt>
      <trkpt lat="44.84905" lon="6.97261">
        <ele>2689.5</ele>
        <time>2023-02-16T12:08:58Z</time>
      </trkpt>
      <trkpt lat="44.84908" lon="6.97266">
        <ele>2687.7</ele>
        <time>2023-02-16T12:08:59Z</time>
      </trkpt>
      <trkpt lat="44.84911" lon="6.97265">
        <ele>2686.3</ele>
        <time>2023-02-16T12:09:00Z</time>
      </trkpt>
      <trkpt lat="44.84914" lon="6.97263">
        <ele>2684.9</ele>
        <time>2023-02-16T12:09:01Z</time>
      </trkpt>
      <trkpt lat="44.84916" lon="6.97261">
        <ele>2684.1</ele>
        <time>2023-02-16T12:09:02Z</time>
      </trkpt>
      <trkpt lat="44.8492" lon="6.97261">
        <ele>2682.7</ele>
        <time>2023-02-16T12:09:04Z</time>
      </trkpt>
      <trkpt lat="44.8492" lon="6.97264">
        <ele>2682.2</ele>
        <time>2023-02-16T12:09:05Z</time>
      </trkpt>
      <trkpt lat="44.84919" lon="6.97269">
        <ele>2681.9</ele>
        <time>2023-02-16T12:09:06Z</time>
      </trkpt>
      <trkpt lat="44.84919" lon="6.97274">
        <ele>2681.2</ele>
        <time>2023-02-16T12:09:08Z</time>
      </trkpt>
      <trkpt lat="44.84927" lon="6.97275">
        <ele>2676.8</ele>
        <time>2023-02-16T12:09:12Z</time>
      </trkpt>
      <trkpt lat="44.84929" lon="6.97277">
        <ele>2675.1</ele>
        <time>2023-02-16T12:09:13Z</time>
      </trkpt>
      <trkpt lat="44.84931" lon="6.97279">
        <ele>2673.5</ele>
        <time>2023-02-16T12:09:14Z</time>
      </trkpt>
      <trkpt lat="44.84933" lon="6.97281">
        <ele>2671.8</ele>
        <time>2023-02-16T12:09:15Z</time>
      </trkpt>
      <trkpt lat="44.84939" lon="6.97286">
        <ele>2667.1</ele>
        <time>2023-02-16T12:09:17Z</time>
      </trkpt>
      <trkpt lat="44.84939" lon="6.97292">
        <ele>2665.7</ele>
        <time>2023-02-16T12:09:18Z</time>
      </trkpt>
      <trkpt lat="44.84938" lon="6.97298">
        <ele>2664.8</ele>
        <time>2023-02-16T12:09:19Z</time>
      </trkpt>
      <trkpt lat="44.84938" lon="6.97302">
        <ele>2663.8</ele>
        <time>2023-02-16T12:09:20Z</time>
      </trkpt>
      <trkpt lat="44.84939" lon="6.97304">
        <ele>2662.7</ele>
        <time>2023-02-16T12:09:21Z</time>
      </trkpt>
      <trkpt lat="44.84941" lon="6.97305">
        <ele>2661.2</ele>
        <time>2023-02-16T12:09:22Z</time>
      </trkpt>
      <trkpt lat="44.84944" lon="6.97308">
        <ele>2658.3</ele>
        <time>2023-02-16T12:09:23Z</time>
      </trkpt>
      <trkpt lat="44.84945" lon="6.97311">
        <ele>2656.6</ele>
        <time>2023-02-16T12:09:24Z</time>
      </trkpt>
      <trkpt lat="44.84946" lon="6.97313">
        <ele>2655.4</ele>
        <time>2023-02-16T12:09:25Z</time>
      </trkpt>
      <trkpt lat="44.84947" lon="6.97314">
        <ele>2654.6</ele>
        <time>2023-02-16T12:09:26Z</time>
      </trkpt>
      <trkpt lat="44.84947" lon="6.97315">
        <ele>2654.2</ele>
        <time>2023-02-16T12:09:27Z</time>
      </trkpt>
      <trkpt lat="44.84946" lon="6.97317">
        <ele>2653.9</ele>
        <time>2023-02-16T12:09:30Z</time>
      </trkpt>
      <trkpt lat="44.84951" lon="6.97317">
        <ele>2651.9</ele>
        <time>2023-02-16T12:09:34Z</time>
      </trkpt>
      <trkpt lat="44.84953" lon="6.97316">
        <ele>2651.4</ele>
        <time>2023-02-16T12:09:35Z</time>
      </trkpt>
      <trkpt lat="44.84956" lon="6.97314">
        <ele>2650.9</ele>
        <time>2023-02-16T12:09:37Z</time>
      </trkpt>
      <trkpt lat="44.8496" lon="6.9731">
        <ele>2650.4</ele>
        <time>2023-02-16T12:09:39Z</time>
      </trkpt>
      <trkpt lat="44.84961" lon="6.97308">
        <ele>2650.5</ele>
        <time>2023-02-16T12:09:40Z</time>
      </trkpt>
      <trkpt lat="44.84962" lon="6.97306">
        <ele>2650.7</ele>
        <time>2023-02-16T12:09:41Z</time>
      </trkpt>
      <trkpt lat="44.84963" lon="6.97307">
        <ele>2649.9</ele>
        <time>2023-02-16T12:09:42Z</time>
      </trkpt>
      <trkpt lat="44.84965" lon="6.97308">
        <ele>2648.7</ele>
        <time>2023-02-16T12:09:43Z</time>
      </trkpt>
      <trkpt lat="44.84967" lon="6.97309">
        <ele>2647.6</ele>
        <time>2023-02-16T12:09:44Z</time>
      </trkpt>
      <trkpt lat="44.8497" lon="6.9731">
        <ele>2646</ele>
        <time>2023-02-16T12:09:45Z</time>
      </trkpt>
      <trkpt lat="44.84972" lon="6.97313">
        <ele>2644.5</ele>
        <time>2023-02-16T12:09:46Z</time>
      </trkpt>
      <trkpt lat="44.84974" lon="6.97315">
        <ele>2643.2</ele>
        <time>2023-02-16T12:09:47Z</time>
      </trkpt>
      <trkpt lat="44.84977" lon="6.97316">
        <ele>2641.7</ele>
        <time>2023-02-16T12:09:48Z</time>
      </trkpt>
      <trkpt lat="44.8498" lon="6.97321">
        <ele>2639.1</ele>
        <time>2023-02-16T12:09:50Z</time>
      </trkpt>
      <trkpt lat="44.84981" lon="6.97323">
        <ele>2638</ele>
        <time>2023-02-16T12:09:51Z</time>
      </trkpt>
      <trkpt lat="44.84981" lon="6.97325">
        <ele>2637.4</ele>
        <time>2023-02-16T12:09:52Z</time>
      </trkpt>
      <trkpt lat="44.84983" lon="6.97325">
        <ele>2636.4</ele>
        <time>2023-02-16T12:09:53Z</time>
      </trkpt>
      <trkpt lat="44.84985" lon="6.97323">
        <ele>2636.1</ele>
        <time>2023-02-16T12:09:54Z</time>
      </trkpt>
      <trkpt lat="44.84986" lon="6.9732">
        <ele>2636.6</ele>
        <time>2023-02-16T12:09:55Z</time>
      </trkpt>
      <trkpt lat="44.84988" lon="6.97318">
        <ele>2636.4</ele>
        <time>2023-02-16T12:09:56Z</time>
      </trkpt>
      <trkpt lat="44.84989" lon="6.97317">
        <ele>2636.4</ele>
        <time>2023-02-16T12:09:57Z</time>
      </trkpt>
      <trkpt lat="44.84991" lon="6.97317">
        <ele>2635.5</ele>
        <time>2023-02-16T12:09:58Z</time>
      </trkpt>
      <trkpt lat="44.84992" lon="6.97324">
        <ele>2632.3</ele>
        <time>2023-02-16T12:10:01Z</time>
      </trkpt>
      <trkpt lat="44.84993" lon="6.97328">
        <ele>2630.2</ele>
        <time>2023-02-16T12:10:03Z</time>
      </trkpt>
      <trkpt lat="44.84994" lon="6.97327">
        <ele>2630.1</ele>
        <time>2023-02-16T12:10:04Z</time>
      </trkpt>
      <trkpt lat="44.84996" lon="6.97326">
        <ele>2629.5</ele>
        <time>2023-02-16T12:10:05Z</time>
      </trkpt>
      <trkpt lat="44.84997" lon="6.97326">
        <ele>2629</ele>
        <time>2023-02-16T12:10:06Z</time>
      </trkpt>
      <trkpt lat="44.85001" lon="6.97324">
        <ele>2628.3</ele>
        <time>2023-02-16T12:10:08Z</time>
      </trkpt>
      <trkpt lat="44.85003" lon="6.97323">
        <ele>2628.6</ele>
        <time>2023-02-16T12:10:09Z</time>
      </trkpt>
      <trkpt lat="44.85004" lon="6.97322">
        <ele>2628.9</ele>
        <time>2023-02-16T12:10:10Z</time>
      </trkpt>
      <trkpt lat="44.85005" lon="6.97321">
        <ele>2629.3</ele>
        <time>2023-02-16T12:10:11Z</time>
      </trkpt>
      <trkpt lat="44.85005" lon="6.97322">
        <ele>2628.8</ele>
        <time>2023-02-16T12:10:13Z</time>
      </trkpt>
      <trkpt lat="44.85005" lon="6.97325">
        <ele>2627.4</ele>
        <time>2023-02-16T12:10:17Z</time>
      </trkpt>
      <trkpt lat="44.85004" lon="6.97328">
        <ele>2626.1</ele>
        <time>2023-02-16T12:10:18Z</time>
      </trkpt>
      <trkpt lat="44.85004" lon="6.97331">
        <ele>2624.7</ele>
        <time>2023-02-16T12:10:19Z</time>
      </trkpt>
      <trkpt lat="44.85003" lon="6.97337">
        <ele>2622.4</ele>
        <time>2023-02-16T12:10:21Z</time>
      </trkpt>
      <trkpt lat="44.85003" lon="6.97338">
        <ele>2622</ele>
        <time>2023-02-16T12:10:22Z</time>
      </trkpt>
      <trkpt lat="44.85003" lon="6.97339">
        <ele>2621.7</ele>
        <time>2023-02-16T12:10:23Z</time>
      </trkpt>
      <trkpt lat="44.85003" lon="6.97341">
        <ele>2621</ele>
        <time>2023-02-16T12:10:24Z</time>
      </trkpt>
      <trkpt lat="44.85004" lon="6.97343">
        <ele>2620</ele>
        <time>2023-02-16T12:10:25Z</time>
      </trkpt>
      <trkpt lat="44.85005" lon="6.97345">
        <ele>2619.1</ele>
        <time>2023-02-16T12:10:26Z</time>
      </trkpt>
      <trkpt lat="44.85006" lon="6.9735">
        <ele>2616.9</ele>
        <time>2023-02-16T12:10:28Z</time>
      </trkpt>
      <trkpt lat="44.85005" lon="6.97358">
        <ele>2614.2</ele>
        <time>2023-02-16T12:10:30Z</time>
      </trkpt>
      <trkpt lat="44.85006" lon="6.97359">
        <ele>2613.4</ele>
        <time>2023-02-16T12:10:32Z</time>
      </trkpt>
      <trkpt lat="44.85008" lon="6.97358">
        <ele>2613.1</ele>
        <time>2023-02-16T12:10:33Z</time>
      </trkpt>
      <trkpt lat="44.8501" lon="6.97357">
        <ele>2612.8</ele>
        <time>2023-02-16T12:10:34Z</time>
      </trkpt>
      <trkpt lat="44.85012" lon="6.97356">
        <ele>2612.5</ele>
        <time>2023-02-16T12:10:35Z</time>
      </trkpt>
      <trkpt lat="44.85014" lon="6.97354">
        <ele>2612.8</ele>
        <time>2023-02-16T12:10:36Z</time>
      </trkpt>
      <trkpt lat="44.85016" lon="6.97353">
        <ele>2612.6</ele>
        <time>2023-02-16T12:10:37Z</time>
      </trkpt>
      <trkpt lat="44.8502" lon="6.97351">
        <ele>2612.5</ele>
        <time>2023-02-16T12:10:39Z</time>
      </trkpt>
      <trkpt lat="44.85022" lon="6.97354">
        <ele>2610.2</ele>
        <time>2023-02-16T12:10:41Z</time>
      </trkpt>
      <trkpt lat="44.85021" lon="6.97358">
        <ele>2608.4</ele>
        <time>2023-02-16T12:10:42Z</time>
      </trkpt>
      <trkpt lat="44.85019" lon="6.97365">
        <ele>2605.5</ele>
        <time>2023-02-16T12:10:44Z</time>
      </trkpt>
      <trkpt lat="44.85018" lon="6.97371">
        <ele>2602.9</ele>
        <time>2023-02-16T12:10:46Z</time>
      </trkpt>
      <trkpt lat="44.85019" lon="6.97374">
        <ele>2601</ele>
        <time>2023-02-16T12:10:47Z</time>
      </trkpt>
      <trkpt lat="44.8502" lon="6.97378">
        <ele>2598.7</ele>
        <time>2023-02-16T12:10:48Z</time>
      </trkpt>
      <trkpt lat="44.8502" lon="6.97383">
        <ele>2596.2</ele>
        <time>2023-02-16T12:10:49Z</time>
      </trkpt>
      <trkpt lat="44.85018" lon="6.97386">
        <ele>2595.3</ele>
        <time>2023-02-16T12:10:50Z</time>
      </trkpt>
      <trkpt lat="44.85016" lon="6.97391">
        <ele>2593.4</ele>
        <time>2023-02-16T12:10:52Z</time>
      </trkpt>
      <trkpt lat="44.85015" lon="6.97395">
        <ele>2591.7</ele>
        <time>2023-02-16T12:10:58Z</time>
      </trkpt>
      <trkpt lat="44.85017" lon="6.97394">
        <ele>2591.7</ele>
        <time>2023-02-16T12:11:04Z</time>
      </trkpt>
      <trkpt lat="44.85018" lon="6.97394">
        <ele>2591.4</ele>
        <time>2023-02-16T12:11:06Z</time>
      </trkpt>
      <trkpt lat="44.85019" lon="6.97393">
        <ele>2591.6</ele>
        <time>2023-02-16T12:11:07Z</time>
      </trkpt>
      <trkpt lat="44.85021" lon="6.97392">
        <ele>2591.6</ele>
        <time>2023-02-16T12:11:08Z</time>
      </trkpt>
      <trkpt lat="44.85023" lon="6.97396">
        <ele>2589.3</ele>
        <time>2023-02-16T12:11:10Z</time>
      </trkpt>
      <trkpt lat="44.85022" lon="6.97399">
        <ele>2588.2</ele>
        <time>2023-02-16T12:11:11Z</time>
      </trkpt>
      <trkpt lat="44.85022" lon="6.97402">
        <ele>2586.9</ele>
        <time>2023-02-16T12:11:12Z</time>
      </trkpt>
      <trkpt lat="44.85019" lon="6.97406">
        <ele>2585.6</ele>
        <time>2023-02-16T12:11:14Z</time>
      </trkpt>
      <trkpt lat="44.85016" lon="6.97407">
        <ele>2585.6</ele>
        <time>2023-02-16T12:11:16Z</time>
      </trkpt>
      <trkpt lat="44.85011" lon="6.97409">
        <ele>2585.2</ele>
        <time>2023-02-16T12:11:19Z</time>
      </trkpt>
      <trkpt lat="44.85009" lon="6.97411">
        <ele>2584.4</ele>
        <time>2023-02-16T12:11:20Z</time>
      </trkpt>
      <trkpt lat="44.85009" lon="6.97415">
        <ele>2582.3</ele>
        <time>2023-02-16T12:11:21Z</time>
      </trkpt>
      <trkpt lat="44.85011" lon="6.97419">
        <ele>2580.5</ele>
        <time>2023-02-16T12:11:22Z</time>
      </trkpt>
      <trkpt lat="44.85011" lon="6.97423">
        <ele>2579.4</ele>
        <time>2023-02-16T12:11:23Z</time>
      </trkpt>
      <trkpt lat="44.8501" lon="6.97428">
        <ele>2578.1</ele>
        <time>2023-02-16T12:11:24Z</time>
      </trkpt>
      <trkpt lat="44.85008" lon="6.97433">
        <ele>2577</ele>
        <time>2023-02-16T12:11:25Z</time>
      </trkpt>
      <trkpt lat="44.85006" lon="6.9744">
        <ele>2575.6</ele>
        <time>2023-02-16T12:11:26Z</time>
      </trkpt>
      <trkpt lat="44.85003" lon="6.97446">
        <ele>2575.1</ele>
        <time>2023-02-16T12:11:27Z</time>
      </trkpt>
      <trkpt lat="44.85001" lon="6.9745">
        <ele>2575.1</ele>
        <time>2023-02-16T12:11:28Z</time>
      </trkpt>
      <trkpt lat="44.85" lon="6.9746">
        <ele>2574.3</ele>
        <time>2023-02-16T12:11:30Z</time>
      </trkpt>
      <trkpt lat="44.85008" lon="6.97465">
        <ele>2571.8</ele>
        <time>2023-02-16T12:11:32Z</time>
      </trkpt>
      <trkpt lat="44.85014" lon="6.97469">
        <ele>2569.8</ele>
        <time>2023-02-16T12:11:33Z</time>
      </trkpt>
      <trkpt lat="44.85021" lon="6.97473">
        <ele>2567.7</ele>
        <time>2023-02-16T12:11:34Z</time>
      </trkpt>
      <trkpt lat="44.85034" lon="6.97482">
        <ele>2564.1</ele>
        <time>2023-02-16T12:11:36Z</time>
      </trkpt>
      <trkpt lat="44.85041" lon="6.97486">
        <ele>2562.4</ele>
        <time>2023-02-16T12:11:37Z</time>
      </trkpt>
      <trkpt lat="44.85047" lon="6.97492">
        <ele>2560.6</ele>
        <time>2023-02-16T12:11:38Z</time>
      </trkpt>
      <trkpt lat="44.85054" lon="6.97499">
        <ele>2558.4</ele>
        <time>2023-02-16T12:11:39Z</time>
      </trkpt>
      <trkpt lat="44.8506" lon="6.97504">
        <ele>2556.9</ele>
        <time>2023-02-16T12:11:40Z</time>
      </trkpt>
      <trkpt lat="44.85066" lon="6.97509">
        <ele>2555.4</ele>
        <time>2023-02-16T12:11:41Z</time>
      </trkpt>
      <trkpt lat="44.85073" lon="6.97515">
        <ele>2553.4</ele>
        <time>2023-02-16T12:11:42Z</time>
      </trkpt>
      <trkpt lat="44.85079" lon="6.97521">
        <ele>2551.6</ele>
        <time>2023-02-16T12:11:43Z</time>
      </trkpt>
      <trkpt lat="44.85083" lon="6.97528">
        <ele>2550.1</ele>
        <time>2023-02-16T12:11:44Z</time>
      </trkpt>
      <trkpt lat="44.85086" lon="6.97536">
        <ele>2549.1</ele>
        <time>2023-02-16T12:11:45Z</time>
      </trkpt>
      <trkpt lat="44.85093" lon="6.9755">
        <ele>2547.3</ele>
        <time>2023-02-16T12:11:47Z</time>
      </trkpt>
      <trkpt lat="44.85101" lon="6.97563">
        <ele>2546</ele>
        <time>2023-02-16T12:11:49Z</time>
      </trkpt>
      <trkpt lat="44.85105" lon="6.97568">
        <ele>2545.4</ele>
        <time>2023-02-16T12:11:50Z</time>
      </trkpt>
      <trkpt lat="44.85109" lon="6.97573">
        <ele>2545</ele>
        <time>2023-02-16T12:11:51Z</time>
      </trkpt>
      <trkpt lat="44.8512" lon="6.97586">
        <ele>2543</ele>
        <time>2023-02-16T12:11:54Z</time>
      </trkpt>
      <trkpt lat="44.85123" lon="6.97588">
        <ele>2542.2</ele>
        <time>2023-02-16T12:11:55Z</time>
      </trkpt>
      <trkpt lat="44.85125" lon="6.97588">
        <ele>2541.7</ele>
        <time>2023-02-16T12:11:56Z</time>
      </trkpt>
      <trkpt lat="44.85127" lon="6.97586">
        <ele>2541.4</ele>
        <time>2023-02-16T12:11:58Z</time>
      </trkpt>
      <trkpt lat="44.85128" lon="6.97586">
        <ele>2541.2</ele>
        <time>2023-02-16T12:12:00Z</time>
      </trkpt>
      <trkpt lat="44.85129" lon="6.97585">
        <ele>2541</ele>
        <time>2023-02-16T12:12:07Z</time>
      </trkpt>
      <trkpt lat="44.85128" lon="6.97583">
        <ele>2541.3</ele>
        <time>2023-02-16T12:12:18Z</time>
      </trkpt>
      <trkpt lat="44.85128" lon="6.97583">
        <ele>2541.3</ele>
        <time>2023-02-16T12:12:20Z</time>
      </trkpt>
      <trkpt lat="44.85128" lon="6.97583">
        <ele>2541.3</ele>
        <time>2023-02-16T12:12:32Z</time>
      </trkpt>
      <trkpt lat="44.85128" lon="6.97583">
        <ele>2541.3</ele>
        <time>2023-02-16T12:12:33Z</time>
      </trkpt>
      <trkpt lat="44.85127" lon="6.97581">
        <ele>2541.2</ele>
        <time>2023-02-16T12:12:41Z</time>
      </trkpt>
      <trkpt lat="44.85126" lon="6.9758">
        <ele>2541.3</ele>
        <time>2023-02-16T12:12:48Z</time>
      </trkpt>
      <trkpt lat="44.85125" lon="6.97584">
        <ele>2542</ele>
        <time>2023-02-16T12:12:57Z</time>
      </trkpt>
      <trkpt lat="44.85125" lon="6.97584">
        <ele>2542</ele>
        <time>2023-02-16T12:12:58Z</time>
      </trkpt>
      <trkpt lat="44.85126" lon="6.97588">
        <ele>2541.5</ele>
        <time>2023-02-16T12:13:07Z</time>
      </trkpt>
      <trkpt lat="44.85126" lon="6.97594">
        <ele>2541.2</ele>
        <time>2023-02-16T12:13:13Z</time>
      </trkpt>
      <trkpt lat="44.85127" lon="6.97599">
        <ele>2540.7</ele>
        <time>2023-02-16T12:13:16Z</time>
      </trkpt>
      <trkpt lat="44.85122" lon="6.97614">
        <ele>2541</ele>
        <time>2023-02-16T12:13:21Z</time>
      </trkpt>
      <trkpt lat="44.85121" lon="6.97621">
        <ele>2540.6</ele>
        <time>2023-02-16T12:13:22Z</time>
      </trkpt>
      <trkpt lat="44.85122" lon="6.97639">
        <ele>2538.5</ele>
        <time>2023-02-16T12:13:24Z</time>
      </trkpt>
      <trkpt lat="44.85123" lon="6.97646">
        <ele>2538.7</ele>
        <time>2023-02-16T12:13:25Z</time>
      </trkpt>
      <trkpt lat="44.85125" lon="6.97653">
        <ele>2538.3</ele>
        <time>2023-02-16T12:13:26Z</time>
      </trkpt>
      <trkpt lat="44.85127" lon="6.97658">
        <ele>2537.5</ele>
        <time>2023-02-16T12:13:27Z</time>
      </trkpt>
      <trkpt lat="44.85128" lon="6.97663">
        <ele>2537.2</ele>
        <time>2023-02-16T12:13:28Z</time>
      </trkpt>
      <trkpt lat="44.85133" lon="6.97675">
        <ele>2534.5</ele>
        <time>2023-02-16T12:13:32Z</time>
      </trkpt>
      <trkpt lat="44.85137" lon="6.97686">
        <ele>2532.1</ele>
        <time>2023-02-16T12:13:35Z</time>
      </trkpt>
      <trkpt lat="44.85138" lon="6.9769">
        <ele>2531.5</ele>
        <time>2023-02-16T12:13:36Z</time>
      </trkpt>
      <trkpt lat="44.85139" lon="6.97692">
        <ele>2530.8</ele>
        <time>2023-02-16T12:13:37Z</time>
      </trkpt>
      <trkpt lat="44.8514" lon="6.97696">
        <ele>2530.3</ele>
        <time>2023-02-16T12:13:39Z</time>
      </trkpt>
      <trkpt lat="44.85142" lon="6.97699">
        <ele>2528.9</ele>
        <time>2023-02-16T12:13:41Z</time>
      </trkpt>
      <trkpt lat="44.85143" lon="6.97701">
        <ele>2528.1</ele>
        <time>2023-02-16T12:13:42Z</time>
      </trkpt>
      <trkpt lat="44.85144" lon="6.97701">
        <ele>2527.4</ele>
        <time>2023-02-16T12:13:43Z</time>
      </trkpt>
      <trkpt lat="44.85147" lon="6.97699">
        <ele>2525.5</ele>
        <time>2023-02-16T12:13:44Z</time>
      </trkpt>
      <trkpt lat="44.85149" lon="6.977">
        <ele>2524</ele>
        <time>2023-02-16T12:13:45Z</time>
      </trkpt>
      <trkpt lat="44.85152" lon="6.97701">
        <ele>2521.8</ele>
        <time>2023-02-16T12:13:46Z</time>
      </trkpt>
      <trkpt lat="44.85155" lon="6.97702">
        <ele>2519.6</ele>
        <time>2023-02-16T12:13:47Z</time>
      </trkpt>
      <trkpt lat="44.85158" lon="6.97707">
        <ele>2516.8</ele>
        <time>2023-02-16T12:13:48Z</time>
      </trkpt>
      <trkpt lat="44.8516" lon="6.97713">
        <ele>2514.3</ele>
        <time>2023-02-16T12:13:49Z</time>
      </trkpt>
      <trkpt lat="44.85161" lon="6.97718">
        <ele>2512.6</ele>
        <time>2023-02-16T12:13:50Z</time>
      </trkpt>
      <trkpt lat="44.85161" lon="6.97725">
        <ele>2511.5</ele>
        <time>2023-02-16T12:13:51Z</time>
      </trkpt>
      <trkpt lat="44.85161" lon="6.97732">
        <ele>2510.5</ele>
        <time>2023-02-16T12:13:52Z</time>
      </trkpt>
      <trkpt lat="44.85161" lon="6.97741">
        <ele>2509.2</ele>
        <time>2023-02-16T12:13:53Z</time>
      </trkpt>
      <trkpt lat="44.85161" lon="6.9775">
        <ele>2507.9</ele>
        <time>2023-02-16T12:13:54Z</time>
      </trkpt>
      <trkpt lat="44.8516" lon="6.97758">
        <ele>2507.6</ele>
        <time>2023-02-16T12:13:55Z</time>
      </trkpt>
      <trkpt lat="44.85159" lon="6.97765">
        <ele>2507.3</ele>
        <time>2023-02-16T12:13:56Z</time>
      </trkpt>
      <trkpt lat="44.85159" lon="6.97772">
        <ele>2506.4</ele>
        <time>2023-02-16T12:13:57Z</time>
      </trkpt>
      <trkpt lat="44.85158" lon="6.97783">
        <ele>2505.6</ele>
        <time>2023-02-16T12:13:59Z</time>
      </trkpt>
      <trkpt lat="44.85158" lon="6.97795">
        <ele>2504</ele>
        <time>2023-02-16T12:14:01Z</time>
      </trkpt>
      <trkpt lat="44.85158" lon="6.97801">
        <ele>2503.2</ele>
        <time>2023-02-16T12:14:02Z</time>
      </trkpt>
      <trkpt lat="44.85158" lon="6.97814">
        <ele>2501.7</ele>
        <time>2023-02-16T12:14:04Z</time>
      </trkpt>
      <trkpt lat="44.85157" lon="6.97823">
        <ele>2501.4</ele>
        <time>2023-02-16T12:14:06Z</time>
      </trkpt>
      <trkpt lat="44.85158" lon="6.97829">
        <ele>2500.1</ele>
        <time>2023-02-16T12:14:08Z</time>
      </trkpt>
      <trkpt lat="44.85161" lon="6.97832">
        <ele>2497.8</ele>
        <time>2023-02-16T12:14:10Z</time>
      </trkpt>
      <trkpt lat="44.85165" lon="6.97831">
        <ele>2495.3</ele>
        <time>2023-02-16T12:14:11Z</time>
      </trkpt>
      <trkpt lat="44.85168" lon="6.97832">
        <ele>2493.3</ele>
        <time>2023-02-16T12:14:12Z</time>
      </trkpt>
      <trkpt lat="44.85171" lon="6.97833">
        <ele>2491.4</ele>
        <time>2023-02-16T12:14:13Z</time>
      </trkpt>
      <trkpt lat="44.85174" lon="6.97833">
        <ele>2489.5</ele>
        <time>2023-02-16T12:14:14Z</time>
      </trkpt>
      <trkpt lat="44.85177" lon="6.97835">
        <ele>2487.7</ele>
        <time>2023-02-16T12:14:15Z</time>
      </trkpt>
      <trkpt lat="44.85181" lon="6.97835">
        <ele>2485.2</ele>
        <time>2023-02-16T12:14:16Z</time>
      </trkpt>
      <trkpt lat="44.85186" lon="6.97836">
        <ele>2482.1</ele>
        <time>2023-02-16T12:14:17Z</time>
      </trkpt>
      <trkpt lat="44.8519" lon="6.97837">
        <ele>2479.5</ele>
        <time>2023-02-16T12:14:18Z</time>
      </trkpt>
      <trkpt lat="44.85194" lon="6.97837">
        <ele>2477</ele>
        <time>2023-02-16T12:14:19Z</time>
      </trkpt>
      <trkpt lat="44.852" lon="6.97837">
        <ele>2473.2</ele>
        <time>2023-02-16T12:14:20Z</time>
      </trkpt>
      <trkpt lat="44.85205" lon="6.97837">
        <ele>2470</ele>
        <time>2023-02-16T12:14:21Z</time>
      </trkpt>
      <trkpt lat="44.8521" lon="6.97837">
        <ele>2466.9</ele>
        <time>2023-02-16T12:14:22Z</time>
      </trkpt>
      <trkpt lat="44.85215" lon="6.97837">
        <ele>2463.7</ele>
        <time>2023-02-16T12:14:23Z</time>
      </trkpt>
      <trkpt lat="44.85221" lon="6.97838">
        <ele>2459.9</ele>
        <time>2023-02-16T12:14:24Z</time>
      </trkpt>
      <trkpt lat="44.85226" lon="6.97838">
        <ele>2457.1</ele>
        <time>2023-02-16T12:14:25Z</time>
      </trkpt>
      <trkpt lat="44.85231" lon="6.97839">
        <ele>2454.3</ele>
        <time>2023-02-16T12:14:26Z</time>
      </trkpt>
      <trkpt lat="44.85236" lon="6.97839">
        <ele>2451.6</ele>
        <time>2023-02-16T12:14:27Z</time>
      </trkpt>
      <trkpt lat="44.85241" lon="6.97839">
        <ele>2448.8</ele>
        <time>2023-02-16T12:14:28Z</time>
      </trkpt>
      <trkpt lat="44.85245" lon="6.97841">
        <ele>2446.8</ele>
        <time>2023-02-16T12:14:29Z</time>
      </trkpt>
      <trkpt lat="44.85249" lon="6.97846">
        <ele>2445.4</ele>
        <time>2023-02-16T12:14:30Z</time>
      </trkpt>
      <trkpt lat="44.85253" lon="6.97852">
        <ele>2444.9</ele>
        <time>2023-02-16T12:14:31Z</time>
      </trkpt>
      <trkpt lat="44.85259" lon="6.97857">
        <ele>2443.9</ele>
        <time>2023-02-16T12:14:32Z</time>
      </trkpt>
      <trkpt lat="44.85266" lon="6.97862">
        <ele>2442.4</ele>
        <time>2023-02-16T12:14:33Z</time>
      </trkpt>
      <trkpt lat="44.85273" lon="6.97867">
        <ele>2440.6</ele>
        <time>2023-02-16T12:14:34Z</time>
      </trkpt>
      <trkpt lat="44.85281" lon="6.97869">
        <ele>2438.7</ele>
        <time>2023-02-16T12:14:35Z</time>
      </trkpt>
      <trkpt lat="44.85289" lon="6.97868">
        <ele>2437.1</ele>
        <time>2023-02-16T12:14:36Z</time>
      </trkpt>
      <trkpt lat="44.85299" lon="6.97865">
        <ele>2435.2</ele>
        <time>2023-02-16T12:14:37Z</time>
      </trkpt>
      <trkpt lat="44.85306" lon="6.97866">
        <ele>2433.9</ele>
        <time>2023-02-16T12:14:38Z</time>
      </trkpt>
      <trkpt lat="44.85312" lon="6.97866">
        <ele>2432.9</ele>
        <time>2023-02-16T12:14:39Z</time>
      </trkpt>
      <trkpt lat="44.85314" lon="6.97864">
        <ele>2432.5</ele>
        <time>2023-02-16T12:14:40Z</time>
      </trkpt>
      <trkpt lat="44.85316" lon="6.97861">
        <ele>2432.1</ele>
        <time>2023-02-16T12:14:42Z</time>
      </trkpt>
      <trkpt lat="44.85315" lon="6.97859">
        <ele>2432.2</ele>
        <time>2023-02-16T12:14:43Z</time>
      </trkpt>
      <trkpt lat="44.85312" lon="6.97856">
        <ele>2432.5</ele>
        <time>2023-02-16T12:14:50Z</time>
      </trkpt>
      <trkpt lat="44.85313" lon="6.97854">
        <ele>2432.2</ele>
        <time>2023-02-16T12:15:07Z</time>
      </trkpt>
      <trkpt lat="44.85312" lon="6.97854">
        <ele>2432.4</ele>
        <time>2023-02-16T12:15:23Z</time>
      </trkpt>
      <trkpt lat="44.8531" lon="6.97853">
        <ele>2432.7</ele>
        <time>2023-02-16T12:15:42Z</time>
      </trkpt>
      <trkpt lat="44.8531" lon="6.97852">
        <ele>2432.6</ele>
        <time>2023-02-16T12:15:50Z</time>
      </trkpt>
      <trkpt lat="44.8531" lon="6.97853">
        <ele>2432.7</ele>
        <time>2023-02-16T12:15:57Z</time>
      </trkpt>
      <trkpt lat="44.8531" lon="6.97852">
        <ele>2432.6</ele>
        <time>2023-02-16T12:16:11Z</time>
      </trkpt>
      <trkpt lat="44.8531" lon="6.97853">
        <ele>2432.7</ele>
        <time>2023-02-16T12:16:26Z</time>
      </trkpt>
      <trkpt lat="44.85311" lon="6.97849">
        <ele>2432.2</ele>
        <time>2023-02-16T12:16:39Z</time>
      </trkpt>
      <trkpt lat="44.85311" lon="6.97848">
        <ele>2432.2</ele>
        <time>2023-02-16T12:16:40Z</time>
      </trkpt>
      <trkpt lat="44.85315" lon="6.97833">
        <ele>2430.6</ele>
        <time>2023-02-16T12:16:45Z</time>
      </trkpt>
      <trkpt lat="44.85321" lon="6.97802">
        <ele>2426.1</ele>
        <time>2023-02-16T12:16:49Z</time>
      </trkpt>
      <trkpt lat="44.85327" lon="6.97782">
        <ele>2424.5</ele>
        <time>2023-02-16T12:16:51Z</time>
      </trkpt>
      <trkpt lat="44.85334" lon="6.97761">
        <ele>2421.7</ele>
        <time>2023-02-16T12:16:53Z</time>
      </trkpt>
      <trkpt lat="44.85338" lon="6.97751">
        <ele>2420.4</ele>
        <time>2023-02-16T12:16:54Z</time>
      </trkpt>
      <trkpt lat="44.85342" lon="6.97741">
        <ele>2419.8</ele>
        <time>2023-02-16T12:16:55Z</time>
      </trkpt>
      <trkpt lat="44.85346" lon="6.97731">
        <ele>2419.2</ele>
        <time>2023-02-16T12:16:56Z</time>
      </trkpt>
      <trkpt lat="44.8535" lon="6.97722">
        <ele>2418.6</ele>
        <time>2023-02-16T12:16:57Z</time>
      </trkpt>
      <trkpt lat="44.85354" lon="6.97715">
        <ele>2418</ele>
        <time>2023-02-16T12:16:58Z</time>
      </trkpt>
      <trkpt lat="44.85358" lon="6.97709">
        <ele>2417.2</ele>
        <time>2023-02-16T12:16:59Z</time>
      </trkpt>
      <trkpt lat="44.85367" lon="6.97697">
        <ele>2415</ele>
        <time>2023-02-16T12:17:01Z</time>
      </trkpt>
      <trkpt lat="44.85371" lon="6.97691">
        <ele>2414.3</ele>
        <time>2023-02-16T12:17:02Z</time>
      </trkpt>
      <trkpt lat="44.85375" lon="6.97683">
        <ele>2413.5</ele>
        <time>2023-02-16T12:17:03Z</time>
      </trkpt>
      <trkpt lat="44.85378" lon="6.97674">
        <ele>2412.8</ele>
        <time>2023-02-16T12:17:04Z</time>
      </trkpt>
      <trkpt lat="44.85382" lon="6.97658">
        <ele>2411.8</ele>
        <time>2023-02-16T12:17:06Z</time>
      </trkpt>
      <trkpt lat="44.85386" lon="6.97643">
        <ele>2410.8</ele>
        <time>2023-02-16T12:17:08Z</time>
      </trkpt>
      <trkpt lat="44.85387" lon="6.97635">
        <ele>2410.5</ele>
        <time>2023-02-16T12:17:09Z</time>
      </trkpt>
      <trkpt lat="44.85388" lon="6.97621">
        <ele>2410.2</ele>
        <time>2023-02-16T12:17:11Z</time>
      </trkpt>
      <trkpt lat="44.85388" lon="6.97604">
        <ele>2408.9</ele>
        <time>2023-02-16T12:17:14Z</time>
      </trkpt>
      <trkpt lat="44.85385" lon="6.9759">
        <ele>2407.3</ele>
        <time>2023-02-16T12:17:17Z</time>
      </trkpt>
      <trkpt lat="44.85384" lon="6.97576">
        <ele>2405.8</ele>
        <time>2023-02-16T12:17:19Z</time>
      </trkpt>
      <trkpt lat="44.85383" lon="6.97567">
        <ele>2405.6</ele>
        <time>2023-02-16T12:17:20Z</time>
      </trkpt>
      <trkpt lat="44.85384" lon="6.97549">
        <ele>2404.2</ele>
        <time>2023-02-16T12:17:22Z</time>
      </trkpt>
      <trkpt lat="44.85384" lon="6.9754">
        <ele>2404</ele>
        <time>2023-02-16T12:17:23Z</time>
      </trkpt>
      <trkpt lat="44.85386" lon="6.97531">
        <ele>2402.7</ele>
        <time>2023-02-16T12:17:24Z</time>
      </trkpt>
      <trkpt lat="44.8539" lon="6.97515">
        <ele>2401.5</ele>
        <time>2023-02-16T12:17:26Z</time>
      </trkpt>
      <trkpt lat="44.85393" lon="6.97499">
        <ele>2401.4</ele>
        <time>2023-02-16T12:17:28Z</time>
      </trkpt>
      <trkpt lat="44.85397" lon="6.97486">
        <ele>2401.4</ele>
        <time>2023-02-16T12:17:30Z</time>
      </trkpt>
      <trkpt lat="44.85402" lon="6.97473">
        <ele>2400.8</ele>
        <time>2023-02-16T12:17:33Z</time>
      </trkpt>
      <trkpt lat="44.85408" lon="6.97456">
        <ele>2398.8</ele>
        <time>2023-02-16T12:17:39Z</time>
      </trkpt>
      <trkpt lat="44.85412" lon="6.97439">
        <ele>2397.2</ele>
        <time>2023-02-16T12:17:45Z</time>
      </trkpt>
      <trkpt lat="44.85413" lon="6.9743">
        <ele>2396.3</ele>
        <time>2023-02-16T12:17:48Z</time>
      </trkpt>
      <trkpt lat="44.85416" lon="6.97412">
        <ele>2394.2</ele>
        <time>2023-02-16T12:17:52Z</time>
      </trkpt>
      <trkpt lat="44.85417" lon="6.97406">
        <ele>2393.4</ele>
        <time>2023-02-16T12:17:53Z</time>
      </trkpt>
      <trkpt lat="44.85418" lon="6.97399">
        <ele>2392.7</ele>
        <time>2023-02-16T12:17:54Z</time>
      </trkpt>
      <trkpt lat="44.8542" lon="6.97385">
        <ele>2391.3</ele>
        <time>2023-02-16T12:17:56Z</time>
      </trkpt>
      <trkpt lat="44.85425" lon="6.97373">
        <ele>2388.6</ele>
        <time>2023-02-16T12:17:58Z</time>
      </trkpt>
      <trkpt lat="44.85428" lon="6.97368">
        <ele>2387</ele>
        <time>2023-02-16T12:17:59Z</time>
      </trkpt>
      <trkpt lat="44.85432" lon="6.97363">
        <ele>2384.8</ele>
        <time>2023-02-16T12:18:00Z</time>
      </trkpt>
      <trkpt lat="44.85436" lon="6.97357">
        <ele>2382.4</ele>
        <time>2023-02-16T12:18:01Z</time>
      </trkpt>
      <trkpt lat="44.85441" lon="6.9735">
        <ele>2379.5</ele>
        <time>2023-02-16T12:18:02Z</time>
      </trkpt>
      <trkpt lat="44.85446" lon="6.97339">
        <ele>2376.6</ele>
        <time>2023-02-16T12:18:03Z</time>
      </trkpt>
      <trkpt lat="44.85448" lon="6.97328">
        <ele>2375.2</ele>
        <time>2023-02-16T12:18:04Z</time>
      </trkpt>
      <trkpt lat="44.8545" lon="6.97317">
        <ele>2373.6</ele>
        <time>2023-02-16T12:18:05Z</time>
      </trkpt>
      <trkpt lat="44.85451" lon="6.97306">
        <ele>2372.4</ele>
        <time>2023-02-16T12:18:06Z</time>
      </trkpt>
      <trkpt lat="44.85453" lon="6.97294">
        <ele>2371.7</ele>
        <time>2023-02-16T12:18:07Z</time>
      </trkpt>
      <trkpt lat="44.85456" lon="6.97284">
        <ele>2370.7</ele>
        <time>2023-02-16T12:18:08Z</time>
      </trkpt>
      <trkpt lat="44.85459" lon="6.97273">
        <ele>2370.2</ele>
        <time>2023-02-16T12:18:09Z</time>
      </trkpt>
      <trkpt lat="44.85462" lon="6.97264">
        <ele>2370</ele>
        <time>2023-02-16T12:18:10Z</time>
      </trkpt>
      <trkpt lat="44.85469" lon="6.97247">
        <ele>2369.4</ele>
        <time>2023-02-16T12:18:12Z</time>
      </trkpt>
      <trkpt lat="44.85472" lon="6.9724">
        <ele>2369.2</ele>
        <time>2023-02-16T12:18:13Z</time>
      </trkpt>
      <trkpt lat="44.85476" lon="6.97233">
        <ele>2368.5</ele>
        <time>2023-02-16T12:18:14Z</time>
      </trkpt>
      <trkpt lat="44.85483" lon="6.97221">
        <ele>2367.3</ele>
        <time>2023-02-16T12:18:16Z</time>
      </trkpt>
      <trkpt lat="44.85488" lon="6.9721">
        <ele>2367.3</ele>
        <time>2023-02-16T12:18:18Z</time>
      </trkpt>
      <trkpt lat="44.85491" lon="6.97206">
        <ele>2366.8</ele>
        <time>2023-02-16T12:18:19Z</time>
      </trkpt>
      <trkpt lat="44.85494" lon="6.972">
        <ele>2366.5</ele>
        <time>2023-02-16T12:18:21Z</time>
      </trkpt>
      <trkpt lat="44.85497" lon="6.97197">
        <ele>2365.8</ele>
        <time>2023-02-16T12:18:23Z</time>
      </trkpt>
      <trkpt lat="44.85498" lon="6.97195">
        <ele>2365.7</ele>
        <time>2023-02-16T12:18:24Z</time>
      </trkpt>
      <trkpt lat="44.85506" lon="6.97189">
        <ele>2363.5</ele>
        <time>2023-02-16T12:18:28Z</time>
      </trkpt>
      <trkpt lat="44.8551" lon="6.97186">
        <ele>2362.4</ele>
        <time>2023-02-16T12:18:29Z</time>
      </trkpt>
      <trkpt lat="44.85524" lon="6.97172">
        <ele>2358.8</ele>
        <time>2023-02-16T12:18:32Z</time>
      </trkpt>
      <trkpt lat="44.85534" lon="6.97162">
        <ele>2357</ele>
        <time>2023-02-16T12:18:34Z</time>
      </trkpt>
      <trkpt lat="44.85542" lon="6.97155">
        <ele>2355.8</ele>
        <time>2023-02-16T12:18:36Z</time>
      </trkpt>
      <trkpt lat="44.85547" lon="6.9715">
        <ele>2355.3</ele>
        <time>2023-02-16T12:18:38Z</time>
      </trkpt>
      <trkpt lat="44.85551" lon="6.97147">
        <ele>2354.5</ele>
        <time>2023-02-16T12:18:40Z</time>
      </trkpt>
      <trkpt lat="44.85553" lon="6.97145">
        <ele>2354.2</ele>
        <time>2023-02-16T12:18:41Z</time>
      </trkpt>
      <trkpt lat="44.85555" lon="6.97144">
        <ele>2353.6</ele>
        <time>2023-02-16T12:18:42Z</time>
      </trkpt>
      <trkpt lat="44.85556" lon="6.97141">
        <ele>2354</ele>
        <time>2023-02-16T12:18:46Z</time>
      </trkpt>
      <trkpt lat="44.85557" lon="6.97142">
        <ele>2353</ele>
        <time>2023-02-16T12:18:59Z</time>
      </trkpt>
      <trkpt lat="44.85559" lon="6.97141">
        <ele>2352</ele>
        <time>2023-02-16T12:19:02Z</time>
      </trkpt>
      <trkpt lat="44.85564" lon="6.97135">
        <ele>2350.3</ele>
        <time>2023-02-16T12:19:05Z</time>
      </trkpt>
      <trkpt lat="44.85568" lon="6.97128">
        <ele>2349.6</ele>
        <time>2023-02-16T12:19:07Z</time>
      </trkpt>
      <trkpt lat="44.85575" lon="6.97118">
        <ele>2347.7</ele>
        <time>2023-02-16T12:19:10Z</time>
      </trkpt>
      <trkpt lat="44.85581" lon="6.97111">
        <ele>2345.6</ele>
        <time>2023-02-16T12:19:12Z</time>
      </trkpt>
      <trkpt lat="44.85587" lon="6.97104">
        <ele>2344.6</ele>
        <time>2023-02-16T12:19:14Z</time>
      </trkpt>
      <trkpt lat="44.85592" lon="6.97097">
        <ele>2344.1</ele>
        <time>2023-02-16T12:19:17Z</time>
      </trkpt>
      <trkpt lat="44.85598" lon="6.97086">
        <ele>2343.7</ele>
        <time>2023-02-16T12:19:23Z</time>
      </trkpt>
      <trkpt lat="44.856" lon="6.97083">
        <ele>2343.3</ele>
        <time>2023-02-16T12:19:24Z</time>
      </trkpt>
      <trkpt lat="44.85605" lon="6.97075">
        <ele>2341.3</ele>
        <time>2023-02-16T12:19:27Z</time>
      </trkpt>
      <trkpt lat="44.85611" lon="6.97062">
        <ele>2339.9</ele>
        <time>2023-02-16T12:19:30Z</time>
      </trkpt>
      <trkpt lat="44.85613" lon="6.97058">
        <ele>2339.5</ele>
        <time>2023-02-16T12:19:31Z</time>
      </trkpt>
      <trkpt lat="44.85614" lon="6.97054">
        <ele>2339.5</ele>
        <time>2023-02-16T12:19:32Z</time>
      </trkpt>
      <trkpt lat="44.85616" lon="6.97047">
        <ele>2339</ele>
        <time>2023-02-16T12:19:34Z</time>
      </trkpt>
      <trkpt lat="44.85617" lon="6.97044">
        <ele>2338.7</ele>
        <time>2023-02-16T12:19:35Z</time>
      </trkpt>
      <trkpt lat="44.85623" lon="6.97029">
        <ele>2337.3</ele>
        <time>2023-02-16T12:19:39Z</time>
      </trkpt>
      <trkpt lat="44.85625" lon="6.97025">
        <ele>2336.8</ele>
        <time>2023-02-16T12:19:40Z</time>
      </trkpt>
      <trkpt lat="44.85626" lon="6.97022">
        <ele>2336.7</ele>
        <time>2023-02-16T12:19:41Z</time>
      </trkpt>
      <trkpt lat="44.85629" lon="6.97017">
        <ele>2335.8</ele>
        <time>2023-02-16T12:19:43Z</time>
      </trkpt>
      <trkpt lat="44.85631" lon="6.97012">
        <ele>2335.3</ele>
        <time>2023-02-16T12:19:45Z</time>
      </trkpt>
      <trkpt lat="44.85635" lon="6.97">
        <ele>2334.2</ele>
        <time>2023-02-16T12:19:49Z</time>
      </trkpt>
      <trkpt lat="44.85637" lon="6.96993">
        <ele>2333.8</ele>
        <time>2023-02-16T12:19:51Z</time>
      </trkpt>
      <trkpt lat="44.85639" lon="6.96989">
        <ele>2333.1</ele>
        <time>2023-02-16T12:19:52Z</time>
      </trkpt>
      <trkpt lat="44.85643" lon="6.96978">
        <ele>2332.6</ele>
        <time>2023-02-16T12:19:55Z</time>
      </trkpt>
      <trkpt lat="44.8565" lon="6.96962">
        <ele>2331.2</ele>
        <time>2023-02-16T12:19:59Z</time>
      </trkpt>
      <trkpt lat="44.85651" lon="6.96958">
        <ele>2331.1</ele>
        <time>2023-02-16T12:20:00Z</time>
      </trkpt>
      <trkpt lat="44.85656" lon="6.96944">
        <ele>2330</ele>
        <time>2023-02-16T12:20:03Z</time>
      </trkpt>
      <trkpt lat="44.85659" lon="6.96935">
        <ele>2329.5</ele>
        <time>2023-02-16T12:20:05Z</time>
      </trkpt>
      <trkpt lat="44.85663" lon="6.96925">
        <ele>2328.3</ele>
        <time>2023-02-16T12:20:07Z</time>
      </trkpt>
      <trkpt lat="44.8567" lon="6.96914">
        <ele>2326.5</ele>
        <time>2023-02-16T12:20:09Z</time>
      </trkpt>
      <trkpt lat="44.85677" lon="6.96903">
        <ele>2326.1</ele>
        <time>2023-02-16T12:20:11Z</time>
      </trkpt>
      <trkpt lat="44.8568" lon="6.96898">
        <ele>2325.9</ele>
        <time>2023-02-16T12:20:12Z</time>
      </trkpt>
      <trkpt lat="44.85686" lon="6.96889">
        <ele>2325</ele>
        <time>2023-02-16T12:20:14Z</time>
      </trkpt>
      <trkpt lat="44.85694" lon="6.96879">
        <ele>2323.6</ele>
        <time>2023-02-16T12:20:17Z</time>
      </trkpt>
      <trkpt lat="44.857" lon="6.96873">
        <ele>2322.7</ele>
        <time>2023-02-16T12:20:19Z</time>
      </trkpt>
      <trkpt lat="44.85709" lon="6.96864">
        <ele>2321</ele>
        <time>2023-02-16T12:20:22Z</time>
      </trkpt>
      <trkpt lat="44.85714" lon="6.96863">
        <ele>2319.5</ele>
        <time>2023-02-16T12:20:23Z</time>
      </trkpt>
      <trkpt lat="44.85725" lon="6.96863">
        <ele>2316.4</ele>
        <time>2023-02-16T12:20:25Z</time>
      </trkpt>
      <trkpt lat="44.8573" lon="6.96864">
        <ele>2315.4</ele>
        <time>2023-02-16T12:20:26Z</time>
      </trkpt>
      <trkpt lat="44.85736" lon="6.96864">
        <ele>2314.3</ele>
        <time>2023-02-16T12:20:27Z</time>
      </trkpt>
      <trkpt lat="44.85745" lon="6.96859">
        <ele>2313</ele>
        <time>2023-02-16T12:20:29Z</time>
      </trkpt>
      <trkpt lat="44.85749" lon="6.96857">
        <ele>2312.3</ele>
        <time>2023-02-16T12:20:30Z</time>
      </trkpt>
      <trkpt lat="44.85751" lon="6.96856">
        <ele>2312</ele>
        <time>2023-02-16T12:20:32Z</time>
      </trkpt>
      <trkpt lat="44.85752" lon="6.96856">
        <ele>2311.8</ele>
        <time>2023-02-16T12:20:33Z</time>
      </trkpt>
      <trkpt lat="44.85749" lon="6.96857">
        <ele>2312.3</ele>
        <time>2023-02-16T12:20:40Z</time>
      </trkpt>
      <trkpt lat="44.85749" lon="6.96856">
        <ele>2312.4</ele>
        <time>2023-02-16T12:20:52Z</time>
      </trkpt>
      <trkpt lat="44.85748" lon="6.96857">
        <ele>2312.5</ele>
        <time>2023-02-16T12:21:03Z</time>
      </trkpt>
      <trkpt lat="44.85747" lon="6.96858">
        <ele>2312.7</ele>
        <time>2023-02-16T12:21:20Z</time>
      </trkpt>
      <trkpt lat="44.85748" lon="6.96857">
        <ele>2312.5</ele>
        <time>2023-02-16T12:21:32Z</time>
      </trkpt>
      <trkpt lat="44.85748" lon="6.96857">
        <ele>2312.5</ele>
        <time>2023-02-16T12:21:41Z</time>
      </trkpt>
      <trkpt lat="44.85748" lon="6.96857">
        <ele>2312.5</ele>
        <time>2023-02-16T12:21:44Z</time>
      </trkpt>
      <trkpt lat="44.85748" lon="6.96859">
        <ele>2312.4</ele>
        <time>2023-02-16T12:22:00Z</time>
      </trkpt>
      <trkpt lat="44.85749" lon="6.96856">
        <ele>2312.4</ele>
        <time>2023-02-16T12:22:13Z</time>
      </trkpt>
      <trkpt lat="44.85749" lon="6.96856">
        <ele>2312.4</ele>
        <time>2023-02-16T12:22:29Z</time>
      </trkpt>
      <trkpt lat="44.85748" lon="6.96857">
        <ele>2312.5</ele>
        <time>2023-02-16T12:22:42Z</time>
      </trkpt>
      <trkpt lat="44.85747" lon="6.96858">
        <ele>2312.7</ele>
        <time>2023-02-16T12:22:52Z</time>
      </trkpt>
      <trkpt lat="44.85747" lon="6.96858">
        <ele>2312.7</ele>
        <time>2023-02-16T12:22:58Z</time>
      </trkpt>
      <trkpt lat="44.85747" lon="6.96858">
        <ele>2312.7</ele>
        <time>2023-02-16T12:23:00Z</time>
      </trkpt>
      <trkpt lat="44.85747" lon="6.96858">
        <ele>2312.7</ele>
        <time>2023-02-16T12:23:12Z</time>
      </trkpt>
      <trkpt lat="44.85748" lon="6.96858">
        <ele>2312.5</ele>
        <time>2023-02-16T12:23:20Z</time>
      </trkpt>
      <trkpt lat="44.85747" lon="6.96858">
        <ele>2312.7</ele>
        <time>2023-02-16T12:23:25Z</time>
      </trkpt>
      <trkpt lat="44.85747" lon="6.96857">
        <ele>2312.7</ele>
        <time>2023-02-16T12:23:42Z</time>
      </trkpt>
      <trkpt lat="44.85748" lon="6.96857">
        <ele>2312.5</ele>
        <time>2023-02-16T12:23:53Z</time>
      </trkpt>
      <trkpt lat="44.85747" lon="6.96857">
        <ele>2312.7</ele>
        <time>2023-02-16T12:24:06Z</time>
      </trkpt>
      <trkpt lat="44.85747" lon="6.96857">
        <ele>2312.7</ele>
        <time>2023-02-16T12:24:10Z</time>
      </trkpt>
      <trkpt lat="44.85748" lon="6.96857">
        <ele>2312.5</ele>
        <time>2023-02-16T12:24:20Z</time>
      </trkpt>
      <trkpt lat="44.85748" lon="6.96858">
        <ele>2312.5</ele>
        <time>2023-02-16T12:24:35Z</time>
      </trkpt>
      <trkpt lat="44.85748" lon="6.96858">
        <ele>2312.5</ele>
        <time>2023-02-16T12:24:46Z</time>
      </trkpt>
      <trkpt lat="44.85747" lon="6.96859">
        <ele>2312.6</ele>
        <time>2023-02-16T12:24:55Z</time>
      </trkpt>
      <trkpt lat="44.85748" lon="6.9686">
        <ele>2312.4</ele>
        <time>2023-02-16T12:25:09Z</time>
      </trkpt>
      <trkpt lat="44.85748" lon="6.96859">
        <ele>2312.4</ele>
        <time>2023-02-16T12:25:24Z</time>
      </trkpt>
      <trkpt lat="44.85748" lon="6.9686">
        <ele>2312.4</ele>
        <time>2023-02-16T12:25:38Z</time>
      </trkpt>
      <trkpt lat="44.85747" lon="6.96859">
        <ele>2312.6</ele>
        <time>2023-02-16T12:25:54Z</time>
      </trkpt>
      <trkpt lat="44.85748" lon="6.96858">
        <ele>2312.5</ele>
        <time>2023-02-16T12:26:07Z</time>
      </trkpt>
      <trkpt lat="44.85747" lon="6.96857">
        <ele>2312.7</ele>
        <time>2023-02-16T12:26:19Z</time>
      </trkpt>
      <trkpt lat="44.85748" lon="6.96856">
        <ele>2312.6</ele>
        <time>2023-02-16T12:26:35Z</time>
      </trkpt>
      <trkpt lat="44.85748" lon="6.96857">
        <ele>2312.5</ele>
        <time>2023-02-16T12:26:48Z</time>
      </trkpt>
      <trkpt lat="44.85748" lon="6.96856">
        <ele>2312.6</ele>
        <time>2023-02-16T12:27:02Z</time>
      </trkpt>
      <trkpt lat="44.85748" lon="6.96856">
        <ele>2312.6</ele>
        <time>2023-02-16T12:27:17Z</time>
      </trkpt>
      <trkpt lat="44.85748" lon="6.96856">
        <ele>2312.6</ele>
        <time>2023-02-16T12:27:32Z</time>
      </trkpt>
      <trkpt lat="44.85748" lon="6.96856">
        <ele>2312.6</ele>
        <time>2023-02-16T12:27:49Z</time>
      </trkpt>
      <trkpt lat="44.85748" lon="6.96855">
        <ele>2312.6</ele>
        <time>2023-02-16T12:28:07Z</time>
      </trkpt>
      <trkpt lat="44.85748" lon="6.96856">
        <ele>2312.6</ele>
        <time>2023-02-16T12:28:23Z</time>
      </trkpt>
      <trkpt lat="44.85748" lon="6.96856">
        <ele>2312.6</ele>
        <time>2023-02-16T12:28:38Z</time>
      </trkpt>
      <trkpt lat="44.85747" lon="6.96857">
        <ele>2312.7</ele>
        <time>2023-02-16T12:28:48Z</time>
      </trkpt>
      <trkpt lat="44.85747" lon="6.96858">
        <ele>2312.7</ele>
        <time>2023-02-16T12:29:07Z</time>
      </trkpt>
      <trkpt lat="44.85748" lon="6.96858">
        <ele>2312.5</ele>
        <time>2023-02-16T12:29:25Z</time>
      </trkpt>
      <trkpt lat="44.85749" lon="6.96858">
        <ele>2312.3</ele>
        <time>2023-02-16T12:29:42Z</time>
      </trkpt>
      <trkpt lat="44.85748" lon="6.96858">
        <ele>2312.5</ele>
        <time>2023-02-16T12:30:14Z</time>
      </trkpt>
      <trkpt lat="44.85748" lon="6.96858">
        <ele>2312.5</ele>
        <time>2023-02-16T12:32:04Z</time>
      </trkpt>
      <trkpt lat="44.85748" lon="6.96858">
        <ele>2312.5</ele>
        <time>2023-02-16T12:32:24Z</time>
      </trkpt>
      <trkpt lat="44.85748" lon="6.96859">
        <ele>2312.4</ele>
        <time>2023-02-16T12:33:19Z</time>
      </trkpt>
      <trkpt lat="44.85748" lon="6.96859">
        <ele>2312.4</ele>
        <time>2023-02-16T12:33:28Z</time>
      </trkpt>
      <trkpt lat="44.85748" lon="6.96859">
        <ele>2312.4</ele>
        <time>2023-02-16T12:33:37Z</time>
      </trkpt>
      <trkpt lat="44.85747" lon="6.96859">
        <ele>2312.6</ele>
        <time>2023-02-16T12:33:51Z</time>
      </trkpt>
      <trkpt lat="44.85746" lon="6.96859">
        <ele>2312.8</ele>
        <time>2023-02-16T12:34:32Z</time>
      </trkpt>
      <trkpt lat="44.85746" lon="6.96859">
        <ele>2312.8</ele>
        <time>2023-02-16T12:35:19Z</time>
      </trkpt>
      <trkpt lat="44.85746" lon="6.96859">
        <ele>2312.8</ele>
        <time>2023-02-16T12:35:21Z</time>
      </trkpt>
      <trkpt lat="44.85746" lon="6.96859">
        <ele>2312.8</ele>
        <time>2023-02-16T12:36:38Z</time>
      </trkpt>
      <trkpt lat="44.85746" lon="6.96859">
        <ele>2312.8</ele>
        <time>2023-02-16T12:36:39Z</time>
      </trkpt>
      <trkpt lat="44.85747" lon="6.96858">
        <ele>2312.7</ele>
        <time>2023-02-16T12:37:14Z</time>
      </trkpt>
      <trkpt lat="44.85747" lon="6.96858">
        <ele>2312.7</ele>
        <time>2023-02-16T12:37:32Z</time>
      </trkpt>
      <trkpt lat="44.85747" lon="6.96858">
        <ele>2312.7</ele>
        <time>2023-02-16T12:37:49Z</time>
      </trkpt>
      <trkpt lat="44.85746" lon="6.96859">
        <ele>2312.8</ele>
        <time>2023-02-16T12:38:04Z</time>
      </trkpt>
      <trkpt lat="44.85746" lon="6.96859">
        <ele>2312.8</ele>
        <time>2023-02-16T12:38:21Z</time>
      </trkpt>
      <trkpt lat="44.85746" lon="6.96859">
        <ele>2312.8</ele>
        <time>2023-02-16T12:38:38Z</time>
      </trkpt>
      <trkpt lat="44.85748" lon="6.96857">
        <ele>2312.5</ele>
        <time>2023-02-16T12:38:55Z</time>
      </trkpt>
      <trkpt lat="44.85749" lon="6.96856">
        <ele>2312.4</ele>
        <time>2023-02-16T12:39:13Z</time>
      </trkpt>
      <trkpt lat="44.85749" lon="6.96857">
        <ele>2312.3</ele>
        <time>2023-02-16T12:39:33Z</time>
      </trkpt>
      <trkpt lat="44.85748" lon="6.96857">
        <ele>2312.5</ele>
        <time>2023-02-16T12:39:46Z</time>
      </trkpt>
      <trkpt lat="44.85748" lon="6.96857">
        <ele>2312.5</ele>
        <time>2023-02-16T12:39:56Z</time>
      </trkpt>
      <trkpt lat="44.85749" lon="6.96857">
        <ele>2312.3</ele>
        <time>2023-02-16T12:40:12Z</time>
      </trkpt>
      <trkpt lat="44.85749" lon="6.96857">
        <ele>2312.3</ele>
        <time>2023-02-16T12:40:29Z</time>
      </trkpt>
      <trkpt lat="44.85749" lon="6.96858">
        <ele>2312.3</ele>
        <time>2023-02-16T12:40:42Z</time>
      </trkpt>
      <trkpt lat="44.85749" lon="6.96858">
        <ele>2312.3</ele>
        <time>2023-02-16T12:41:01Z</time>
      </trkpt>
      <trkpt lat="44.85749" lon="6.96858">
        <ele>2312.3</ele>
        <time>2023-02-16T12:41:16Z</time>
      </trkpt>
      <trkpt lat="44.85749" lon="6.96858">
        <ele>2312.3</ele>
        <time>2023-02-16T12:41:24Z</time>
      </trkpt>
      <trkpt lat="44.85749" lon="6.96858">
        <ele>2312.3</ele>
        <time>2023-02-16T12:42:10Z</time>
      </trkpt>
      <trkpt lat="44.85749" lon="6.96857">
        <ele>2312.3</ele>
        <time>2023-02-16T12:42:36Z</time>
      </trkpt>
      <trkpt lat="44.85749" lon="6.96857">
        <ele>2312.3</ele>
        <time>2023-02-16T12:43:13Z</time>
      </trkpt>
      <trkpt lat="44.85749" lon="6.96858">
        <ele>2312.3</ele>
        <time>2023-02-16T12:43:24Z</time>
      </trkpt>
      <trkpt lat="44.85749" lon="6.96858">
        <ele>2312.3</ele>
        <time>2023-02-16T12:44:05Z</time>
      </trkpt>
      <trkpt lat="44.85748" lon="6.96857">
        <ele>2312.5</ele>
        <time>2023-02-16T12:45:16Z</time>
      </trkpt>
      <trkpt lat="44.85748" lon="6.96857">
        <ele>2312.5</ele>
        <time>2023-02-16T12:46:38Z</time>
      </trkpt>
      <trkpt lat="44.85749" lon="6.96857">
        <ele>2312.3</ele>
        <time>2023-02-16T12:47:04Z</time>
      </trkpt>
      <trkpt lat="44.85749" lon="6.96857">
        <ele>2312.3</ele>
        <time>2023-02-16T12:48:05Z</time>
      </trkpt>
      <trkpt lat="44.85748" lon="6.96857">
        <ele>2312.5</ele>
        <time>2023-02-16T12:48:28Z</time>
      </trkpt>
      <trkpt lat="44.85749" lon="6.96858">
        <ele>2312.3</ele>
        <time>2023-02-16T12:49:08Z</time>
      </trkpt>
      <trkpt lat="44.85749" lon="6.96858">
        <ele>2312.3</ele>
        <time>2023-02-16T12:50:11Z</time>
      </trkpt>
      <trkpt lat="44.85749" lon="6.96859">
        <ele>2312.3</ele>
        <time>2023-02-16T12:50:27Z</time>
      </trkpt>
      <trkpt lat="44.85749" lon="6.96858">
        <ele>2312.3</ele>
        <time>2023-02-16T12:50:58Z</time>
      </trkpt>
      <trkpt lat="44.85749" lon="6.96858">
        <ele>2312.3</ele>
        <time>2023-02-16T12:51:10Z</time>
      </trkpt>
      <trkpt lat="44.8575" lon="6.96857">
        <ele>2312.1</ele>
        <time>2023-02-16T12:51:36Z</time>
      </trkpt>
      <trkpt lat="44.8575" lon="6.96856">
        <ele>2312.2</ele>
        <time>2023-02-16T12:52:10Z</time>
      </trkpt>
      <trkpt lat="44.8575" lon="6.96857">
        <ele>2312.1</ele>
        <time>2023-02-16T12:52:39Z</time>
      </trkpt>
      <trkpt lat="44.85749" lon="6.96856">
        <ele>2312.4</ele>
        <time>2023-02-16T12:52:55Z</time>
      </trkpt>
      <trkpt lat="44.85747" lon="6.96856">
        <ele>2312.8</ele>
        <time>2023-02-16T12:53:21Z</time>
      </trkpt>
      <trkpt lat="44.85747" lon="6.96856">
        <ele>2312.8</ele>
        <time>2023-02-16T12:53:55Z</time>
      </trkpt>
      <trkpt lat="44.85748" lon="6.96857">
        <ele>2312.5</ele>
        <time>2023-02-16T12:54:02Z</time>
      </trkpt>
      <trkpt lat="44.85748" lon="6.96857">
        <ele>2312.5</ele>
        <time>2023-02-16T12:54:20Z</time>
      </trkpt>
      <trkpt lat="44.85748" lon="6.96858">
        <ele>2312.5</ele>
        <time>2023-02-16T12:54:38Z</time>
      </trkpt>
      <trkpt lat="44.85749" lon="6.96858">
        <ele>2312.3</ele>
        <time>2023-02-16T12:54:45Z</time>
      </trkpt>
      <trkpt lat="44.8575" lon="6.96858">
        <ele>2312.1</ele>
        <time>2023-02-16T12:54:51Z</time>
      </trkpt>
      <trkpt lat="44.85749" lon="6.96857">
        <ele>2312.3</ele>
        <time>2023-02-16T12:55:07Z</time>
      </trkpt>
      <trkpt lat="44.8575" lon="6.96857">
        <ele>2312.1</ele>
        <time>2023-02-16T12:55:18Z</time>
      </trkpt>
      <trkpt lat="44.8575" lon="6.96857">
        <ele>2312.1</ele>
        <time>2023-02-16T12:55:36Z</time>
      </trkpt>
      <trkpt lat="44.85751" lon="6.96856">
        <ele>2312</ele>
        <time>2023-02-16T12:55:49Z</time>
      </trkpt>
      <trkpt lat="44.85751" lon="6.96858">
        <ele>2311.9</ele>
        <time>2023-02-16T12:56:04Z</time>
      </trkpt>
      <trkpt lat="44.85751" lon="6.96858">
        <ele>2311.9</ele>
        <time>2023-02-16T12:56:08Z</time>
      </trkpt>
      <trkpt lat="44.85751" lon="6.96858">
        <ele>2311.9</ele>
        <time>2023-02-16T12:56:23Z</time>
      </trkpt>
      <trkpt lat="44.8575" lon="6.96859">
        <ele>2312.1</ele>
        <time>2023-02-16T12:56:38Z</time>
      </trkpt>
      <trkpt lat="44.85749" lon="6.96859">
        <ele>2312.3</ele>
        <time>2023-02-16T12:56:52Z</time>
      </trkpt>
      <trkpt lat="44.85749" lon="6.96855">
        <ele>2312.4</ele>
        <time>2023-02-16T12:57:08Z</time>
      </trkpt>
      <trkpt lat="44.85748" lon="6.96857">
        <ele>2312.5</ele>
        <time>2023-02-16T12:57:21Z</time>
      </trkpt>
      <trkpt lat="44.85747" lon="6.9686">
        <ele>2312.6</ele>
        <time>2023-02-16T12:57:36Z</time>
      </trkpt>
      <trkpt lat="44.85746" lon="6.96862">
        <ele>2312.6</ele>
        <time>2023-02-16T12:57:39Z</time>
      </trkpt>
      <trkpt lat="44.85743" lon="6.96864">
        <ele>2313</ele>
        <time>2023-02-16T12:57:42Z</time>
      </trkpt>
      <trkpt lat="44.8574" lon="6.96866">
        <ele>2313.4</ele>
        <time>2023-02-16T12:57:46Z</time>
      </trkpt>
      <trkpt lat="44.85737" lon="6.96866">
        <ele>2314</ele>
        <time>2023-02-16T12:57:50Z</time>
      </trkpt>
      <trkpt lat="44.85735" lon="6.96867">
        <ele>2314.3</ele>
        <time>2023-02-16T12:57:57Z</time>
      </trkpt>
      <trkpt lat="44.85734" lon="6.96868">
        <ele>2314.4</ele>
        <time>2023-02-16T12:58:08Z</time>
      </trkpt>
      <trkpt lat="44.85733" lon="6.96869">
        <ele>2314.6</ele>
        <time>2023-02-16T12:58:11Z</time>
      </trkpt>
      <trkpt lat="44.85726" lon="6.96871">
        <ele>2315.9</ele>
        <time>2023-02-16T12:58:20Z</time>
      </trkpt>
      <trkpt lat="44.85723" lon="6.96872">
        <ele>2316.4</ele>
        <time>2023-02-16T12:58:24Z</time>
      </trkpt>
      <trkpt lat="44.85719" lon="6.96873">
        <ele>2317.5</ele>
        <time>2023-02-16T12:58:30Z</time>
      </trkpt>
      <trkpt lat="44.85715" lon="6.96875">
        <ele>2318.5</ele>
        <time>2023-02-16T12:58:36Z</time>
      </trkpt>
      <trkpt lat="44.85713" lon="6.96875">
        <ele>2319</ele>
        <time>2023-02-16T12:58:38Z</time>
      </trkpt>
      <trkpt lat="44.85709" lon="6.96877">
        <ele>2319.9</ele>
        <time>2023-02-16T12:58:44Z</time>
      </trkpt>
      <trkpt lat="44.85705" lon="6.96878">
        <ele>2320.8</ele>
        <time>2023-02-16T12:58:50Z</time>
      </trkpt>
      <trkpt lat="44.85702" lon="6.9688">
        <ele>2321.4</ele>
        <time>2023-02-16T12:58:53Z</time>
      </trkpt>
      <trkpt lat="44.85701" lon="6.96881">
        <ele>2321.5</ele>
        <time>2023-02-16T12:58:56Z</time>
      </trkpt>
      <trkpt lat="44.85697" lon="6.96883">
        <ele>2322.2</ele>
        <time>2023-02-16T12:59:02Z</time>
      </trkpt>
      <trkpt lat="44.85695" lon="6.96884">
        <ele>2322.6</ele>
        <time>2023-02-16T12:59:05Z</time>
      </trkpt>
      <trkpt lat="44.85691" lon="6.96885">
        <ele>2323.8</ele>
        <time>2023-02-16T12:59:10Z</time>
      </trkpt>
      <trkpt lat="44.85687" lon="6.96885">
        <ele>2325.2</ele>
        <time>2023-02-16T12:59:16Z</time>
      </trkpt>
      <trkpt lat="44.85685" lon="6.96882">
        <ele>2326.3</ele>
        <time>2023-02-16T12:59:19Z</time>
      </trkpt>
      <trkpt lat="44.85685" lon="6.96878">
        <ele>2326.8</ele>
        <time>2023-02-16T12:59:23Z</time>
      </trkpt>
      <trkpt lat="44.85684" lon="6.96875">
        <ele>2327.6</ele>
        <time>2023-02-16T12:59:28Z</time>
      </trkpt>
      <trkpt lat="44.85685" lon="6.96874">
        <ele>2327.4</ele>
        <time>2023-02-16T12:59:33Z</time>
      </trkpt>
      <trkpt lat="44.85686" lon="6.96869">
        <ele>2327.7</ele>
        <time>2023-02-16T12:59:38Z</time>
      </trkpt>
      <trkpt lat="44.85687" lon="6.96861">
        <ele>2328.4</ele>
        <time>2023-02-16T12:59:47Z</time>
      </trkpt>
      <trkpt lat="44.85688" lon="6.96857">
        <ele>2328.9</ele>
        <time>2023-02-16T12:59:51Z</time>
      </trkpt>
      <trkpt lat="44.85688" lon="6.96856">
        <ele>2329.1</ele>
        <time>2023-02-16T12:59:52Z</time>
      </trkpt>
      <trkpt lat="44.85687" lon="6.96854">
        <ele>2329.8</ele>
        <time>2023-02-16T12:59:58Z</time>
      </trkpt>
      <trkpt lat="44.85686" lon="6.96854">
        <ele>2330.2</ele>
        <time>2023-02-16T13:00:00Z</time>
      </trkpt>
      <trkpt lat="44.85685" lon="6.96854">
        <ele>2330.5</ele>
        <time>2023-02-16T13:00:11Z</time>
      </trkpt>
      <trkpt lat="44.85685" lon="6.96854">
        <ele>2330.5</ele>
        <time>2023-02-16T13:00:12Z</time>
      </trkpt>
      <trkpt lat="44.85683" lon="6.96855">
        <ele>2331</ele>
        <time>2023-02-16T13:00:28Z</time>
      </trkpt>
      <trkpt lat="44.85679" lon="6.96856">
        <ele>2332.1</ele>
        <time>2023-02-16T13:00:33Z</time>
      </trkpt>
      <trkpt lat="44.85675" lon="6.96858">
        <ele>2333</ele>
        <time>2023-02-16T13:00:39Z</time>
      </trkpt>
      <trkpt lat="44.85673" lon="6.96859">
        <ele>2333.4</ele>
        <time>2023-02-16T13:00:41Z</time>
      </trkpt>
      <trkpt lat="44.85667" lon="6.96862">
        <ele>2334.8</ele>
        <time>2023-02-16T13:00:48Z</time>
      </trkpt>
      <trkpt lat="44.85666" lon="6.96864">
        <ele>2335</ele>
        <time>2023-02-16T13:00:51Z</time>
      </trkpt>
      <trkpt lat="44.85664" lon="6.96866">
        <ele>2335.7</ele>
        <time>2023-02-16T13:00:54Z</time>
      </trkpt>
      <trkpt lat="44.85662" lon="6.9687">
        <ele>2336.2</ele>
        <time>2023-02-16T13:01:00Z</time>
      </trkpt>
      <trkpt lat="44.85661" lon="6.9687">
        <ele>2336.7</ele>
        <time>2023-02-16T13:01:01Z</time>
      </trkpt>
      <trkpt lat="44.85661" lon="6.96869">
        <ele>2336.8</ele>
        <time>2023-02-16T13:01:07Z</time>
      </trkpt>
      <trkpt lat="44.85661" lon="6.96867">
        <ele>2337</ele>
        <time>2023-02-16T13:01:09Z</time>
      </trkpt>
      <trkpt lat="44.8566" lon="6.96862">
        <ele>2338</ele>
        <time>2023-02-16T13:01:14Z</time>
      </trkpt>
      <trkpt lat="44.8566" lon="6.9686">
        <ele>2338.3</ele>
        <time>2023-02-16T13:01:16Z</time>
      </trkpt>
      <trkpt lat="44.85659" lon="6.96855">
        <ele>2339.8</ele>
        <time>2023-02-16T13:01:21Z</time>
      </trkpt>
      <trkpt lat="44.85658" lon="6.9685">
        <ele>2341.1</ele>
        <time>2023-02-16T13:01:25Z</time>
      </trkpt>
      <trkpt lat="44.85655" lon="6.9684">
        <ele>2343.9</ele>
        <time>2023-02-16T13:01:36Z</time>
      </trkpt>
      <trkpt lat="44.85655" lon="6.9684">
        <ele>2343.9</ele>
        <time>2023-02-16T13:01:37Z</time>
      </trkpt>
      <trkpt lat="44.85653" lon="6.9684">
        <ele>2344.5</ele>
        <time>2023-02-16T13:01:40Z</time>
      </trkpt>
      <trkpt lat="44.85651" lon="6.96842">
        <ele>2344.8</ele>
        <time>2023-02-16T13:01:43Z</time>
      </trkpt>
      <trkpt lat="44.8565" lon="6.96844">
        <ele>2344.9</ele>
        <time>2023-02-16T13:01:46Z</time>
      </trkpt>
      <trkpt lat="44.85649" lon="6.96847">
        <ele>2344.9</ele>
        <time>2023-02-16T13:01:49Z</time>
      </trkpt>
      <trkpt lat="44.85649" lon="6.96848">
        <ele>2344.8</ele>
        <time>2023-02-16T13:01:56Z</time>
      </trkpt>
      <trkpt lat="44.85647" lon="6.96851">
        <ele>2345.2</ele>
        <time>2023-02-16T13:02:01Z</time>
      </trkpt>
      <trkpt lat="44.85644" lon="6.96856">
        <ele>2346</ele>
        <time>2023-02-16T13:02:09Z</time>
      </trkpt>
      <trkpt lat="44.85643" lon="6.96856">
        <ele>2346.4</ele>
        <time>2023-02-16T13:02:10Z</time>
      </trkpt>
      <trkpt lat="44.85642" lon="6.96859">
        <ele>2346.7</ele>
        <time>2023-02-16T13:02:14Z</time>
      </trkpt>
      <trkpt lat="44.8564" lon="6.96856">
        <ele>2347.7</ele>
        <time>2023-02-16T13:02:20Z</time>
      </trkpt>
      <trkpt lat="44.85639" lon="6.9685">
        <ele>2348.4</ele>
        <time>2023-02-16T13:02:26Z</time>
      </trkpt>
      <trkpt lat="44.85639" lon="6.96848">
        <ele>2348.4</ele>
        <time>2023-02-16T13:02:28Z</time>
      </trkpt>
      <trkpt lat="44.85637" lon="6.96844">
        <ele>2349.6</ele>
        <time>2023-02-16T13:02:33Z</time>
      </trkpt>
      <trkpt lat="44.85637" lon="6.96843">
        <ele>2349.6</ele>
        <time>2023-02-16T13:02:34Z</time>
      </trkpt>
      <trkpt lat="44.85637" lon="6.96842">
        <ele>2349.7</ele>
        <time>2023-02-16T13:02:35Z</time>
      </trkpt>
      <trkpt lat="44.85636" lon="6.9684">
        <ele>2350.3</ele>
        <time>2023-02-16T13:02:37Z</time>
      </trkpt>
      <trkpt lat="44.85636" lon="6.9684">
        <ele>2350.3</ele>
        <time>2023-02-16T13:02:39Z</time>
      </trkpt>
      <trkpt lat="44.85635" lon="6.96834">
        <ele>2351.1</ele>
        <time>2023-02-16T13:02:44Z</time>
      </trkpt>
      <trkpt lat="44.85635" lon="6.96829">
        <ele>2351.9</ele>
        <time>2023-02-16T13:02:48Z</time>
      </trkpt>
      <trkpt lat="44.85635" lon="6.96827">
        <ele>2352.3</ele>
        <time>2023-02-16T13:02:50Z</time>
      </trkpt>
      <trkpt lat="44.85635" lon="6.96826">
        <ele>2352.5</ele>
        <time>2023-02-16T13:02:51Z</time>
      </trkpt>
      <trkpt lat="44.85635" lon="6.96823">
        <ele>2353.1</ele>
        <time>2023-02-16T13:02:55Z</time>
      </trkpt>
      <trkpt lat="44.85634" lon="6.96818">
        <ele>2354.5</ele>
        <time>2023-02-16T13:03:00Z</time>
      </trkpt>
      <trkpt lat="44.85633" lon="6.96814">
        <ele>2355.6</ele>
        <time>2023-02-16T13:03:05Z</time>
      </trkpt>
      <trkpt lat="44.85633" lon="6.96811">
        <ele>2356.2</ele>
        <time>2023-02-16T13:03:12Z</time>
      </trkpt>
      <trkpt lat="44.85631" lon="6.96811">
        <ele>2356.9</ele>
        <time>2023-02-16T13:03:17Z</time>
      </trkpt>
      <trkpt lat="44.8563" lon="6.96811">
        <ele>2357.3</ele>
        <time>2023-02-16T13:03:20Z</time>
      </trkpt>
      <trkpt lat="44.85627" lon="6.96814">
        <ele>2358.1</ele>
        <time>2023-02-16T13:03:25Z</time>
      </trkpt>
      <trkpt lat="44.85625" lon="6.96817">
        <ele>2358.6</ele>
        <time>2023-02-16T13:03:30Z</time>
      </trkpt>
      <trkpt lat="44.85624" lon="6.96818">
        <ele>2358.9</ele>
        <time>2023-02-16T13:03:31Z</time>
      </trkpt>
      <trkpt lat="44.85622" lon="6.96821">
        <ele>2359.4</ele>
        <time>2023-02-16T13:03:39Z</time>
      </trkpt>
      <trkpt lat="44.85621" lon="6.96822">
        <ele>2359.8</ele>
        <time>2023-02-16T13:03:41Z</time>
      </trkpt>
      <trkpt lat="44.85619" lon="6.96827">
        <ele>2360.3</ele>
        <time>2023-02-16T13:03:49Z</time>
      </trkpt>
      <trkpt lat="44.85617" lon="6.9683">
        <ele>2361.1</ele>
        <time>2023-02-16T13:03:53Z</time>
      </trkpt>
      <trkpt lat="44.85616" lon="6.96833">
        <ele>2361.4</ele>
        <time>2023-02-16T13:03:59Z</time>
      </trkpt>
      <trkpt lat="44.85614" lon="6.96836">
        <ele>2362.3</ele>
        <time>2023-02-16T13:04:06Z</time>
      </trkpt>
      <trkpt lat="44.85612" lon="6.96839">
        <ele>2363.1</ele>
        <time>2023-02-16T13:04:11Z</time>
      </trkpt>
      <trkpt lat="44.8561" lon="6.96842">
        <ele>2363.9</ele>
        <time>2023-02-16T13:04:20Z</time>
      </trkpt>
      <trkpt lat="44.85607" lon="6.96847">
        <ele>2365</ele>
        <time>2023-02-16T13:04:28Z</time>
      </trkpt>
      <trkpt lat="44.85607" lon="6.96848">
        <ele>2364.9</ele>
        <time>2023-02-16T13:04:31Z</time>
      </trkpt>
      <trkpt lat="44.85606" lon="6.96847">
        <ele>2365.5</ele>
        <time>2023-02-16T13:04:37Z</time>
      </trkpt>
      <trkpt lat="44.85606" lon="6.96845">
        <ele>2365.6</ele>
        <time>2023-02-16T13:04:39Z</time>
      </trkpt>
      <trkpt lat="44.85605" lon="6.9684">
        <ele>2366.4</ele>
        <time>2023-02-16T13:04:44Z</time>
      </trkpt>
      <trkpt lat="44.85603" lon="6.96834">
        <ele>2367.8</ele>
        <time>2023-02-16T13:04:52Z</time>
      </trkpt>
      <trkpt lat="44.85602" lon="6.96833">
        <ele>2368.3</ele>
        <time>2023-02-16T13:04:54Z</time>
      </trkpt>
      <trkpt lat="44.85602" lon="6.96828">
        <ele>2368.5</ele>
        <time>2023-02-16T13:05:00Z</time>
      </trkpt>
      <trkpt lat="44.85602" lon="6.96827">
        <ele>2368.6</ele>
        <time>2023-02-16T13:05:02Z</time>
      </trkpt>
      <trkpt lat="44.85602" lon="6.96824">
        <ele>2368.7</ele>
        <time>2023-02-16T13:05:05Z</time>
      </trkpt>
      <trkpt lat="44.85601" lon="6.9682">
        <ele>2369.4</ele>
        <time>2023-02-16T13:05:10Z</time>
      </trkpt>
      <trkpt lat="44.856" lon="6.96818">
        <ele>2370</ele>
        <time>2023-02-16T13:05:14Z</time>
      </trkpt>
      <trkpt lat="44.856" lon="6.96818">
        <ele>2370</ele>
        <time>2023-02-16T13:05:15Z</time>
      </trkpt>
      <trkpt lat="44.85599" lon="6.96819">
        <ele>2370.4</ele>
        <time>2023-02-16T13:05:21Z</time>
      </trkpt>
      <trkpt lat="44.85598" lon="6.96819">
        <ele>2370.9</ele>
        <time>2023-02-16T13:05:23Z</time>
      </trkpt>
      <trkpt lat="44.85595" lon="6.96824">
        <ele>2372.1</ele>
        <time>2023-02-16T13:05:32Z</time>
      </trkpt>
      <trkpt lat="44.85591" lon="6.96828">
        <ele>2373.7</ele>
        <time>2023-02-16T13:05:41Z</time>
      </trkpt>
      <trkpt lat="44.8559" lon="6.96829">
        <ele>2374.2</ele>
        <time>2023-02-16T13:05:44Z</time>
      </trkpt>
      <trkpt lat="44.85586" lon="6.96833">
        <ele>2375.8</ele>
        <time>2023-02-16T13:05:52Z</time>
      </trkpt>
      <trkpt lat="44.85584" lon="6.96835">
        <ele>2376.6</ele>
        <time>2023-02-16T13:05:56Z</time>
      </trkpt>
      <trkpt lat="44.85583" lon="6.96837">
        <ele>2377</ele>
        <time>2023-02-16T13:06:01Z</time>
      </trkpt>
      <trkpt lat="44.85581" lon="6.9684">
        <ele>2378</ele>
        <time>2023-02-16T13:06:09Z</time>
      </trkpt>
      <trkpt lat="44.85581" lon="6.9684">
        <ele>2378</ele>
        <time>2023-02-16T13:06:11Z</time>
      </trkpt>
      <trkpt lat="44.8558" lon="6.96841">
        <ele>2378.5</ele>
        <time>2023-02-16T13:06:16Z</time>
      </trkpt>
      <trkpt lat="44.85579" lon="6.96839">
        <ele>2379.1</ele>
        <time>2023-02-16T13:06:19Z</time>
      </trkpt>
      <trkpt lat="44.85579" lon="6.96836">
        <ele>2379.2</ele>
        <time>2023-02-16T13:06:23Z</time>
      </trkpt>
      <trkpt lat="44.85577" lon="6.96831">
        <ele>2380.6</ele>
        <time>2023-02-16T13:06:29Z</time>
      </trkpt>
      <trkpt lat="44.85577" lon="6.9683">
        <ele>2380.7</ele>
        <time>2023-02-16T13:06:31Z</time>
      </trkpt>
      <trkpt lat="44.85575" lon="6.96825">
        <ele>2382.3</ele>
        <time>2023-02-16T13:06:37Z</time>
      </trkpt>
      <trkpt lat="44.85575" lon="6.96822">
        <ele>2382.6</ele>
        <time>2023-02-16T13:06:41Z</time>
      </trkpt>
      <trkpt lat="44.85574" lon="6.96818">
        <ele>2383.5</ele>
        <time>2023-02-16T13:06:48Z</time>
      </trkpt>
      <trkpt lat="44.85574" lon="6.96817">
        <ele>2383.6</ele>
        <time>2023-02-16T13:06:50Z</time>
      </trkpt>
      <trkpt lat="44.85574" lon="6.96815">
        <ele>2383.8</ele>
        <time>2023-02-16T13:06:57Z</time>
      </trkpt>
      <trkpt lat="44.85573" lon="6.96818">
        <ele>2384.1</ele>
        <time>2023-02-16T13:07:06Z</time>
      </trkpt>
      <trkpt lat="44.8557" lon="6.96825">
        <ele>2385.1</ele>
        <time>2023-02-16T13:07:14Z</time>
      </trkpt>
      <trkpt lat="44.85568" lon="6.96827">
        <ele>2386</ele>
        <time>2023-02-16T13:07:17Z</time>
      </trkpt>
      <trkpt lat="44.85563" lon="6.96831">
        <ele>2388.3</ele>
        <time>2023-02-16T13:07:26Z</time>
      </trkpt>
      <trkpt lat="44.85563" lon="6.96831">
        <ele>2388.3</ele>
        <time>2023-02-16T13:07:27Z</time>
      </trkpt>
      <trkpt lat="44.8556" lon="6.96835">
        <ele>2389.5</ele>
        <time>2023-02-16T13:07:33Z</time>
      </trkpt>
      <trkpt lat="44.85559" lon="6.96837">
        <ele>2389.9</ele>
        <time>2023-02-16T13:07:37Z</time>
      </trkpt>
      <trkpt lat="44.85556" lon="6.96839">
        <ele>2391.4</ele>
        <time>2023-02-16T13:07:44Z</time>
      </trkpt>
      <trkpt lat="44.85555" lon="6.96836">
        <ele>2392.2</ele>
        <time>2023-02-16T13:07:47Z</time>
      </trkpt>
      <trkpt lat="44.85554" lon="6.96829">
        <ele>2393.7</ele>
        <time>2023-02-16T13:07:55Z</time>
      </trkpt>
      <trkpt lat="44.85554" lon="6.96825">
        <ele>2394.2</ele>
        <time>2023-02-16T13:07:59Z</time>
      </trkpt>
      <trkpt lat="44.85554" lon="6.96822">
        <ele>2394.7</ele>
        <time>2023-02-16T13:08:02Z</time>
      </trkpt>
      <trkpt lat="44.85555" lon="6.96818">
        <ele>2394.6</ele>
        <time>2023-02-16T13:08:05Z</time>
      </trkpt>
      <trkpt lat="44.85556" lon="6.96813">
        <ele>2394.7</ele>
        <time>2023-02-16T13:08:11Z</time>
      </trkpt>
      <trkpt lat="44.85556" lon="6.96812">
        <ele>2394.8</ele>
        <time>2023-02-16T13:08:13Z</time>
      </trkpt>
      <trkpt lat="44.85554" lon="6.96806">
        <ele>2396.9</ele>
        <time>2023-02-16T13:08:23Z</time>
      </trkpt>
      <trkpt lat="44.85554" lon="6.96805">
        <ele>2397</ele>
        <time>2023-02-16T13:08:26Z</time>
      </trkpt>
      <trkpt lat="44.85553" lon="6.96801">
        <ele>2397.9</ele>
        <time>2023-02-16T13:08:30Z</time>
      </trkpt>
      <trkpt lat="44.85553" lon="6.96799">
        <ele>2398.1</ele>
        <time>2023-02-16T13:08:32Z</time>
      </trkpt>
      <trkpt lat="44.85551" lon="6.96795">
        <ele>2399.6</ele>
        <time>2023-02-16T13:08:38Z</time>
      </trkpt>
      <trkpt lat="44.85551" lon="6.96794">
        <ele>2399.7</ele>
        <time>2023-02-16T13:08:39Z</time>
      </trkpt>
      <trkpt lat="44.85551" lon="6.96789">
        <ele>2400.1</ele>
        <time>2023-02-16T13:08:44Z</time>
      </trkpt>
      <trkpt lat="44.85549" lon="6.96781">
        <ele>2402</ele>
        <time>2023-02-16T13:08:52Z</time>
      </trkpt>
      <trkpt lat="44.85549" lon="6.9678">
        <ele>2402.1</ele>
        <time>2023-02-16T13:08:58Z</time>
      </trkpt>
      <trkpt lat="44.85549" lon="6.9678">
        <ele>2402.1</ele>
        <time>2023-02-16T13:09:02Z</time>
      </trkpt>
      <trkpt lat="44.85548" lon="6.96786">
        <ele>2402.2</ele>
        <time>2023-02-16T13:09:13Z</time>
      </trkpt>
      <trkpt lat="44.85546" lon="6.9679">
        <ele>2403.2</ele>
        <time>2023-02-16T13:09:18Z</time>
      </trkpt>
      <trkpt lat="44.85543" lon="6.96794">
        <ele>2404.7</ele>
        <time>2023-02-16T13:09:24Z</time>
      </trkpt>
      <trkpt lat="44.85542" lon="6.96798">
        <ele>2405</ele>
        <time>2023-02-16T13:09:29Z</time>
      </trkpt>
      <trkpt lat="44.85542" lon="6.96801">
        <ele>2404.7</ele>
        <time>2023-02-16T13:09:34Z</time>
      </trkpt>
      <trkpt lat="44.8554" lon="6.96802">
        <ele>2405.8</ele>
        <time>2023-02-16T13:09:38Z</time>
      </trkpt>
      <trkpt lat="44.85537" lon="6.96806">
        <ele>2407.3</ele>
        <time>2023-02-16T13:09:45Z</time>
      </trkpt>
      <trkpt lat="44.85536" lon="6.96807">
        <ele>2407.8</ele>
        <time>2023-02-16T13:09:46Z</time>
      </trkpt>
      <trkpt lat="44.85533" lon="6.96812">
        <ele>2409.3</ele>
        <time>2023-02-16T13:09:55Z</time>
      </trkpt>
      <trkpt lat="44.85532" lon="6.96813">
        <ele>2409.8</ele>
        <time>2023-02-16T13:09:59Z</time>
      </trkpt>
      <trkpt lat="44.85531" lon="6.96809">
        <ele>2410.8</ele>
        <time>2023-02-16T13:10:08Z</time>
      </trkpt>
      <trkpt lat="44.85531" lon="6.96808">
        <ele>2410.8</ele>
        <time>2023-02-16T13:10:10Z</time>
      </trkpt>
      <trkpt lat="44.85531" lon="6.96802">
        <ele>2411.4</ele>
        <time>2023-02-16T13:10:18Z</time>
      </trkpt>
      <trkpt lat="44.85531" lon="6.96796">
        <ele>2412</ele>
        <time>2023-02-16T13:10:24Z</time>
      </trkpt>
      <trkpt lat="44.8553" lon="6.96795">
        <ele>2412.7</ele>
        <time>2023-02-16T13:10:25Z</time>
      </trkpt>
      <trkpt lat="44.8553" lon="6.96788">
        <ele>2413.5</ele>
        <time>2023-02-16T13:10:32Z</time>
      </trkpt>
      <trkpt lat="44.85529" lon="6.96785">
        <ele>2414.4</ele>
        <time>2023-02-16T13:10:36Z</time>
      </trkpt>
      <trkpt lat="44.85529" lon="6.96782">
        <ele>2414.8</ele>
        <time>2023-02-16T13:10:40Z</time>
      </trkpt>
      <trkpt lat="44.85529" lon="6.96778">
        <ele>2415.2</ele>
        <time>2023-02-16T13:10:46Z</time>
      </trkpt>
      <trkpt lat="44.85529" lon="6.96776">
        <ele>2415.3</ele>
        <time>2023-02-16T13:10:48Z</time>
      </trkpt>
      <trkpt lat="44.85529" lon="6.96774">
        <ele>2415.4</ele>
        <time>2023-02-16T13:10:52Z</time>
      </trkpt>
      <trkpt lat="44.8553" lon="6.96774">
        <ele>2414.7</ele>
        <time>2023-02-16T13:10:59Z</time>
      </trkpt>
      <trkpt lat="44.85527" lon="6.96776">
        <ele>2416.5</ele>
        <time>2023-02-16T13:11:12Z</time>
      </trkpt>
      <trkpt lat="44.85526" lon="6.96778">
        <ele>2416.9</ele>
        <time>2023-02-16T13:11:14Z</time>
      </trkpt>
      <trkpt lat="44.85521" lon="6.96783">
        <ele>2418.9</ele>
        <time>2023-02-16T13:11:22Z</time>
      </trkpt>
      <trkpt lat="44.85521" lon="6.96783">
        <ele>2418.9</ele>
        <time>2023-02-16T13:11:24Z</time>
      </trkpt>
      <trkpt lat="44.8552" lon="6.96782">
        <ele>2419.5</ele>
        <time>2023-02-16T13:11:32Z</time>
      </trkpt>
      <trkpt lat="44.85519" lon="6.96774">
        <ele>2420.5</ele>
        <time>2023-02-16T13:11:41Z</time>
      </trkpt>
      <trkpt lat="44.85518" lon="6.96769">
        <ele>2421.1</ele>
        <time>2023-02-16T13:11:46Z</time>
      </trkpt>
      <trkpt lat="44.85519" lon="6.96763">
        <ele>2420.8</ele>
        <time>2023-02-16T13:11:52Z</time>
      </trkpt>
      <trkpt lat="44.85517" lon="6.96758">
        <ele>2421.9</ele>
        <time>2023-02-16T13:11:58Z</time>
      </trkpt>
      <trkpt lat="44.85515" lon="6.96758">
        <ele>2422.8</ele>
        <time>2023-02-16T13:12:03Z</time>
      </trkpt>
      <trkpt lat="44.85512" lon="6.9676">
        <ele>2424.2</ele>
        <time>2023-02-16T13:12:09Z</time>
      </trkpt>
      <trkpt lat="44.85507" lon="6.96765">
        <ele>2426.6</ele>
        <time>2023-02-16T13:12:15Z</time>
      </trkpt>
      <trkpt lat="44.85506" lon="6.96765">
        <ele>2427.1</ele>
        <time>2023-02-16T13:12:16Z</time>
      </trkpt>
      <trkpt lat="44.85503" lon="6.96769">
        <ele>2428.5</ele>
        <time>2023-02-16T13:12:23Z</time>
      </trkpt>
      <trkpt lat="44.85501" lon="6.96773">
        <ele>2429.5</ele>
        <time>2023-02-16T13:12:28Z</time>
      </trkpt>
      <trkpt lat="44.855" lon="6.96773">
        <ele>2430</ele>
        <time>2023-02-16T13:12:29Z</time>
      </trkpt>
      <trkpt lat="44.85499" lon="6.9677">
        <ele>2430.3</ele>
        <time>2023-02-16T13:12:37Z</time>
      </trkpt>
      <trkpt lat="44.85499" lon="6.96762">
        <ele>2430.3</ele>
        <time>2023-02-16T13:12:46Z</time>
      </trkpt>
      <trkpt lat="44.85498" lon="6.96759">
        <ele>2430.6</ele>
        <time>2023-02-16T13:12:50Z</time>
      </trkpt>
      <trkpt lat="44.85499" lon="6.96755">
        <ele>2430.3</ele>
        <time>2023-02-16T13:12:56Z</time>
      </trkpt>
      <trkpt lat="44.85499" lon="6.96755">
        <ele>2430.3</ele>
        <time>2023-02-16T13:12:59Z</time>
      </trkpt>
      <trkpt lat="44.85497" lon="6.96749">
        <ele>2430.8</ele>
        <time>2023-02-16T13:13:11Z</time>
      </trkpt>
      <trkpt lat="44.85492" lon="6.96735">
        <ele>2432.8</ele>
        <time>2023-02-16T13:13:23Z</time>
      </trkpt>
      <trkpt lat="44.85491" lon="6.96733">
        <ele>2433.1</ele>
        <time>2023-02-16T13:13:25Z</time>
      </trkpt>
      <trkpt lat="44.8549" lon="6.96724">
        <ele>2433.7</ele>
        <time>2023-02-16T13:13:32Z</time>
      </trkpt>
      <trkpt lat="44.85489" lon="6.96718">
        <ele>2434.6</ele>
        <time>2023-02-16T13:13:38Z</time>
      </trkpt>
      <trkpt lat="44.85487" lon="6.96715">
        <ele>2435.4</ele>
        <time>2023-02-16T13:13:42Z</time>
      </trkpt>
      <trkpt lat="44.85485" lon="6.96714">
        <ele>2435.9</ele>
        <time>2023-02-16T13:13:45Z</time>
      </trkpt>
      <trkpt lat="44.85482" lon="6.96713">
        <ele>2436.6</ele>
        <time>2023-02-16T13:13:48Z</time>
      </trkpt>
      <trkpt lat="44.85481" lon="6.96712">
        <ele>2436.9</ele>
        <time>2023-02-16T13:13:49Z</time>
      </trkpt>
      <trkpt lat="44.85479" lon="6.9671">
        <ele>2437.5</ele>
        <time>2023-02-16T13:13:53Z</time>
      </trkpt>
      <trkpt lat="44.85477" lon="6.96707">
        <ele>2438.3</ele>
        <time>2023-02-16T13:13:57Z</time>
      </trkpt>
      <trkpt lat="44.85477" lon="6.96706">
        <ele>2438.5</ele>
        <time>2023-02-16T13:13:58Z</time>
      </trkpt>
      <trkpt lat="44.85475" lon="6.96706">
        <ele>2438.8</ele>
        <time>2023-02-16T13:14:07Z</time>
      </trkpt>
      <trkpt lat="44.85474" lon="6.96702">
        <ele>2439.6</ele>
        <time>2023-02-16T13:14:16Z</time>
      </trkpt>
      <trkpt lat="44.85474" lon="6.967">
        <ele>2439.9</ele>
        <time>2023-02-16T13:14:18Z</time>
      </trkpt>
      <trkpt lat="44.85473" lon="6.96698">
        <ele>2440.3</ele>
        <time>2023-02-16T13:14:20Z</time>
      </trkpt>
      <trkpt lat="44.85473" lon="6.96691">
        <ele>2441.4</ele>
        <time>2023-02-16T13:14:26Z</time>
      </trkpt>
      <trkpt lat="44.85473" lon="6.96689">
        <ele>2441.6</ele>
        <time>2023-02-16T13:14:28Z</time>
      </trkpt>
      <trkpt lat="44.85473" lon="6.96685">
        <ele>2442.2</ele>
        <time>2023-02-16T13:14:31Z</time>
      </trkpt>
      <trkpt lat="44.85472" lon="6.96684">
        <ele>2442.5</ele>
        <time>2023-02-16T13:14:32Z</time>
      </trkpt>
      <trkpt lat="44.85473" lon="6.9667">
        <ele>2444.4</ele>
        <time>2023-02-16T13:14:44Z</time>
      </trkpt>
      <trkpt lat="44.85473" lon="6.96669">
        <ele>2444.5</ele>
        <time>2023-02-16T13:14:46Z</time>
      </trkpt>
      <trkpt lat="44.85474" lon="6.96664">
        <ele>2445</ele>
        <time>2023-02-16T13:14:51Z</time>
      </trkpt>
      <trkpt lat="44.85474" lon="6.96662">
        <ele>2445.3</ele>
        <time>2023-02-16T13:14:53Z</time>
      </trkpt>
      <trkpt lat="44.85473" lon="6.96657">
        <ele>2446.2</ele>
        <time>2023-02-16T13:14:58Z</time>
      </trkpt>
      <trkpt lat="44.85473" lon="6.96656">
        <ele>2446.4</ele>
        <time>2023-02-16T13:14:59Z</time>
      </trkpt>
      <trkpt lat="44.85473" lon="6.96649">
        <ele>2447.4</ele>
        <time>2023-02-16T13:15:04Z</time>
      </trkpt>
      <trkpt lat="44.85474" lon="6.96638">
        <ele>2448.8</ele>
        <time>2023-02-16T13:15:13Z</time>
      </trkpt>
      <trkpt lat="44.85474" lon="6.96633">
        <ele>2449.8</ele>
        <time>2023-02-16T13:15:18Z</time>
      </trkpt>
      <trkpt lat="44.85475" lon="6.96626">
        <ele>2450.9</ele>
        <time>2023-02-16T13:15:24Z</time>
      </trkpt>
      <trkpt lat="44.85475" lon="6.96625">
        <ele>2451</ele>
        <time>2023-02-16T13:15:25Z</time>
      </trkpt>
      <trkpt lat="44.85477" lon="6.96619">
        <ele>2451.8</ele>
        <time>2023-02-16T13:15:31Z</time>
      </trkpt>
      <trkpt lat="44.85479" lon="6.96614">
        <ele>2452.5</ele>
        <time>2023-02-16T13:15:37Z</time>
      </trkpt>
      <trkpt lat="44.85481" lon="6.96609">
        <ele>2453.3</ele>
        <time>2023-02-16T13:15:43Z</time>
      </trkpt>
      <trkpt lat="44.85484" lon="6.96604">
        <ele>2454.1</ele>
        <time>2023-02-16T13:15:49Z</time>
      </trkpt>
      <trkpt lat="44.85485" lon="6.96601">
        <ele>2454.7</ele>
        <time>2023-02-16T13:15:52Z</time>
      </trkpt>
      <trkpt lat="44.85486" lon="6.96592">
        <ele>2456.8</ele>
        <time>2023-02-16T13:16:00Z</time>
      </trkpt>
      <trkpt lat="44.85487" lon="6.96591">
        <ele>2456.9</ele>
        <time>2023-02-16T13:16:02Z</time>
      </trkpt>
      <trkpt lat="44.85487" lon="6.96588">
        <ele>2457.7</ele>
        <time>2023-02-16T13:16:05Z</time>
      </trkpt>
      <trkpt lat="44.85488" lon="6.96586">
        <ele>2458.1</ele>
        <time>2023-02-16T13:16:08Z</time>
      </trkpt>
      <trkpt lat="44.85488" lon="6.96581">
        <ele>2459.2</ele>
        <time>2023-02-16T13:16:12Z</time>
      </trkpt>
      <trkpt lat="44.8549" lon="6.96575">
        <ele>2460</ele>
        <time>2023-02-16T13:16:18Z</time>
      </trkpt>
      <trkpt lat="44.8549" lon="6.96574">
        <ele>2460.2</ele>
        <time>2023-02-16T13:16:19Z</time>
      </trkpt>
      <trkpt lat="44.85491" lon="6.96568">
        <ele>2461.2</ele>
        <time>2023-02-16T13:16:26Z</time>
      </trkpt>
      <trkpt lat="44.85491" lon="6.96563">
        <ele>2462.2</ele>
        <time>2023-02-16T13:16:31Z</time>
      </trkpt>
      <trkpt lat="44.85491" lon="6.96562">
        <ele>2462.4</ele>
        <time>2023-02-16T13:16:32Z</time>
      </trkpt>
      <trkpt lat="44.85492" lon="6.96557">
        <ele>2463.2</ele>
        <time>2023-02-16T13:16:37Z</time>
      </trkpt>
      <trkpt lat="44.85493" lon="6.96555">
        <ele>2463.4</ele>
        <time>2023-02-16T13:16:44Z</time>
      </trkpt>
      <trkpt lat="44.85494" lon="6.9655">
        <ele>2464.3</ele>
        <time>2023-02-16T13:16:53Z</time>
      </trkpt>
      <trkpt lat="44.85494" lon="6.96549">
        <ele>2464.5</ele>
        <time>2023-02-16T13:16:54Z</time>
      </trkpt>
      <trkpt lat="44.85495" lon="6.96545">
        <ele>2465.2</ele>
        <time>2023-02-16T13:16:58Z</time>
      </trkpt>
      <trkpt lat="44.85496" lon="6.96534">
        <ele>2467.5</ele>
        <time>2023-02-16T13:17:09Z</time>
      </trkpt>
      <trkpt lat="44.85496" lon="6.96531">
        <ele>2468.2</ele>
        <time>2023-02-16T13:17:11Z</time>
      </trkpt>
      <trkpt lat="44.85496" lon="6.96526">
        <ele>2469.4</ele>
        <time>2023-02-16T13:17:16Z</time>
      </trkpt>
      <trkpt lat="44.85497" lon="6.96522">
        <ele>2470.4</ele>
        <time>2023-02-16T13:17:21Z</time>
      </trkpt>
      <trkpt lat="44.85499" lon="6.96519">
        <ele>2470.8</ele>
        <time>2023-02-16T13:17:25Z</time>
      </trkpt>
      <trkpt lat="44.85499" lon="6.96518">
        <ele>2471.1</ele>
        <time>2023-02-16T13:17:26Z</time>
      </trkpt>
      <trkpt lat="44.85502" lon="6.96514">
        <ele>2472.2</ele>
        <time>2023-02-16T13:17:32Z</time>
      </trkpt>
      <trkpt lat="44.85504" lon="6.96511">
        <ele>2473.3</ele>
        <time>2023-02-16T13:17:37Z</time>
      </trkpt>
      <trkpt lat="44.85504" lon="6.9651">
        <ele>2473.6</ele>
        <time>2023-02-16T13:17:39Z</time>
      </trkpt>
      <trkpt lat="44.85506" lon="6.96508">
        <ele>2474.3</ele>
        <time>2023-02-16T13:17:47Z</time>
      </trkpt>
      <trkpt lat="44.85508" lon="6.96504">
        <ele>2475.5</ele>
        <time>2023-02-16T13:17:55Z</time>
      </trkpt>
      <trkpt lat="44.85508" lon="6.96503">
        <ele>2475.8</ele>
        <time>2023-02-16T13:17:56Z</time>
      </trkpt>
      <trkpt lat="44.85509" lon="6.96502">
        <ele>2476.1</ele>
        <time>2023-02-16T13:17:58Z</time>
      </trkpt>
      <trkpt lat="44.8551" lon="6.965">
        <ele>2476.7</ele>
        <time>2023-02-16T13:18:03Z</time>
      </trkpt>
      <trkpt lat="44.8551" lon="6.96497">
        <ele>2477.6</ele>
        <time>2023-02-16T13:18:08Z</time>
      </trkpt>
      <trkpt lat="44.85509" lon="6.96496">
        <ele>2477.8</ele>
        <time>2023-02-16T13:18:13Z</time>
      </trkpt>
      <trkpt lat="44.85506" lon="6.96495">
        <ele>2477.9</ele>
        <time>2023-02-16T13:18:17Z</time>
      </trkpt>
      <trkpt lat="44.85504" lon="6.96494">
        <ele>2478</ele>
        <time>2023-02-16T13:18:19Z</time>
      </trkpt>
      <trkpt lat="44.85501" lon="6.96493">
        <ele>2478.1</ele>
        <time>2023-02-16T13:18:24Z</time>
      </trkpt>
      <trkpt lat="44.85499" lon="6.96493">
        <ele>2478.4</ele>
        <time>2023-02-16T13:18:27Z</time>
      </trkpt>
      <trkpt lat="44.85496" lon="6.96492">
        <ele>2479.7</ele>
        <time>2023-02-16T13:18:32Z</time>
      </trkpt>
      <trkpt lat="44.85496" lon="6.96492">
        <ele>2479.7</ele>
        <time>2023-02-16T13:18:36Z</time>
      </trkpt>
      <trkpt lat="44.85496" lon="6.96493">
        <ele>2479.4</ele>
        <time>2023-02-16T13:18:38Z</time>
      </trkpt>
      <trkpt lat="44.85495" lon="6.96493">
        <ele>2479.7</ele>
        <time>2023-02-16T13:18:52Z</time>
      </trkpt>
      <trkpt lat="44.85496" lon="6.96492">
        <ele>2479.7</ele>
        <time>2023-02-16T13:19:10Z</time>
      </trkpt>
      <trkpt lat="44.85497" lon="6.96491">
        <ele>2479.7</ele>
        <time>2023-02-16T13:19:25Z</time>
      </trkpt>
      <trkpt lat="44.85498" lon="6.96485">
        <ele>2481.1</ele>
        <time>2023-02-16T13:19:33Z</time>
      </trkpt>
      <trkpt lat="44.85499" lon="6.96484">
        <ele>2481</ele>
        <time>2023-02-16T13:19:35Z</time>
      </trkpt>
      <trkpt lat="44.85501" lon="6.96476">
        <ele>2483</ele>
        <time>2023-02-16T13:19:44Z</time>
      </trkpt>
      <trkpt lat="44.85502" lon="6.96473">
        <ele>2484</ele>
        <time>2023-02-16T13:19:48Z</time>
      </trkpt>
      <trkpt lat="44.85503" lon="6.96471">
        <ele>2484.7</ele>
        <time>2023-02-16T13:19:50Z</time>
      </trkpt>
      <trkpt lat="44.85505" lon="6.96466">
        <ele>2486.7</ele>
        <time>2023-02-16T13:19:56Z</time>
      </trkpt>
      <trkpt lat="44.85507" lon="6.96465">
        <ele>2487.5</ele>
        <time>2023-02-16T13:19:59Z</time>
      </trkpt>
      <trkpt lat="44.8551" lon="6.96464">
        <ele>2488.5</ele>
        <time>2023-02-16T13:20:03Z</time>
      </trkpt>
      <trkpt lat="44.8551" lon="6.96464">
        <ele>2488.5</ele>
        <time>2023-02-16T13:20:09Z</time>
      </trkpt>
      <trkpt lat="44.85508" lon="6.96461">
        <ele>2489.3</ele>
        <time>2023-02-16T13:20:18Z</time>
      </trkpt>
      <trkpt lat="44.85506" lon="6.9646">
        <ele>2489.1</ele>
        <time>2023-02-16T13:20:21Z</time>
      </trkpt>
      <trkpt lat="44.85504" lon="6.96458">
        <ele>2489.3</ele>
        <time>2023-02-16T13:20:26Z</time>
      </trkpt>
      <trkpt lat="44.85503" lon="6.96457">
        <ele>2489.3</ele>
        <time>2023-02-16T13:20:28Z</time>
      </trkpt>
      <trkpt lat="44.855" lon="6.96454">
        <ele>2489.2</ele>
        <time>2023-02-16T13:20:34Z</time>
      </trkpt>
      <trkpt lat="44.85498" lon="6.96452">
        <ele>2490.8</ele>
        <time>2023-02-16T13:20:38Z</time>
      </trkpt>
      <trkpt lat="44.85495" lon="6.9645">
        <ele>2492.8</ele>
        <time>2023-02-16T13:20:42Z</time>
      </trkpt>
      <trkpt lat="44.85493" lon="6.96449">
        <ele>2494</ele>
        <time>2023-02-16T13:20:45Z</time>
      </trkpt>
      <trkpt lat="44.85491" lon="6.96448">
        <ele>2495.2</ele>
        <time>2023-02-16T13:20:50Z</time>
      </trkpt>
      <trkpt lat="44.85487" lon="6.96449">
        <ele>2496.8</ele>
        <time>2023-02-16T13:20:56Z</time>
      </trkpt>
      <trkpt lat="44.85486" lon="6.96449">
        <ele>2497.3</ele>
        <time>2023-02-16T13:21:01Z</time>
      </trkpt>
      <trkpt lat="44.85486" lon="6.96443">
        <ele>2498.7</ele>
        <time>2023-02-16T13:21:13Z</time>
      </trkpt>
      <trkpt lat="44.85487" lon="6.96441">
        <ele>2498.5</ele>
        <time>2023-02-16T13:21:15Z</time>
      </trkpt>
      <trkpt lat="44.85488" lon="6.96431">
        <ele>2499.5</ele>
        <time>2023-02-16T13:21:25Z</time>
      </trkpt>
      <trkpt lat="44.85489" lon="6.9643">
        <ele>2499.3</ele>
        <time>2023-02-16T13:21:26Z</time>
      </trkpt>
      <trkpt lat="44.8549" lon="6.96423">
        <ele>2500.1</ele>
        <time>2023-02-16T13:21:32Z</time>
      </trkpt>
      <trkpt lat="44.85493" lon="6.96417">
        <ele>2500.4</ele>
        <time>2023-02-16T13:21:38Z</time>
      </trkpt>
      <trkpt lat="44.85494" lon="6.96416">
        <ele>2500.4</ele>
        <time>2023-02-16T13:21:40Z</time>
      </trkpt>
      <trkpt lat="44.85496" lon="6.96412">
        <ele>2500.7</ele>
        <time>2023-02-16T13:21:44Z</time>
      </trkpt>
      <trkpt lat="44.855" lon="6.96406">
        <ele>2500.9</ele>
        <time>2023-02-16T13:21:52Z</time>
      </trkpt>
      <trkpt lat="44.85503" lon="6.96401">
        <ele>2502.5</ele>
        <time>2023-02-16T13:21:59Z</time>
      </trkpt>
      <trkpt lat="44.85503" lon="6.96398">
        <ele>2503</ele>
        <time>2023-02-16T13:22:03Z</time>
      </trkpt>
      <trkpt lat="44.85503" lon="6.96395">
        <ele>2503.6</ele>
        <time>2023-02-16T13:22:06Z</time>
      </trkpt>
      <trkpt lat="44.85503" lon="6.96386">
        <ele>2505.3</ele>
        <time>2023-02-16T13:22:15Z</time>
      </trkpt>
      <trkpt lat="44.85503" lon="6.96385">
        <ele>2505.5</ele>
        <time>2023-02-16T13:22:16Z</time>
      </trkpt>
      <trkpt lat="44.85504" lon="6.96377">
        <ele>2507.4</ele>
        <time>2023-02-16T13:22:25Z</time>
      </trkpt>
      <trkpt lat="44.85504" lon="6.96373">
        <ele>2508.2</ele>
        <time>2023-02-16T13:22:29Z</time>
      </trkpt>
      <trkpt lat="44.85505" lon="6.96369">
        <ele>2509.2</ele>
        <time>2023-02-16T13:22:34Z</time>
      </trkpt>
      <trkpt lat="44.85506" lon="6.96364">
        <ele>2510.5</ele>
        <time>2023-02-16T13:22:40Z</time>
      </trkpt>
      <trkpt lat="44.85506" lon="6.96363">
        <ele>2510.7</ele>
        <time>2023-02-16T13:22:41Z</time>
      </trkpt>
      <trkpt lat="44.85511" lon="6.96358">
        <ele>2513</ele>
        <time>2023-02-16T13:22:49Z</time>
      </trkpt>
      <trkpt lat="44.85513" lon="6.96357">
        <ele>2513.7</ele>
        <time>2023-02-16T13:22:52Z</time>
      </trkpt>
      <trkpt lat="44.85514" lon="6.96357">
        <ele>2513.9</ele>
        <time>2023-02-16T13:22:53Z</time>
      </trkpt>
      <trkpt lat="44.85517" lon="6.96357">
        <ele>2514.4</ele>
        <time>2023-02-16T13:22:59Z</time>
      </trkpt>
      <trkpt lat="44.85517" lon="6.96358">
        <ele>2514.1</ele>
        <time>2023-02-16T13:23:03Z</time>
      </trkpt>
      <trkpt lat="44.85517" lon="6.96358">
        <ele>2514.1</ele>
        <time>2023-02-16T13:23:06Z</time>
      </trkpt>
      <trkpt lat="44.85516" lon="6.96358">
        <ele>2513.9</ele>
        <time>2023-02-16T13:23:15Z</time>
      </trkpt>
      <trkpt lat="44.85513" lon="6.96354">
        <ele>2514.6</ele>
        <time>2023-02-16T13:23:34Z</time>
      </trkpt>
      <trkpt lat="44.85512" lon="6.96354">
        <ele>2514.4</ele>
        <time>2023-02-16T13:23:35Z</time>
      </trkpt>
      <trkpt lat="44.85511" lon="6.96351">
        <ele>2515.2</ele>
        <time>2023-02-16T13:23:39Z</time>
      </trkpt>
      <trkpt lat="44.8551" lon="6.96348">
        <ele>2515.9</ele>
        <time>2023-02-16T13:23:43Z</time>
      </trkpt>
      <trkpt lat="44.85507" lon="6.96343">
        <ele>2516.8</ele>
        <time>2023-02-16T13:23:49Z</time>
      </trkpt>
      <trkpt lat="44.85504" lon="6.9634">
        <ele>2517</ele>
        <time>2023-02-16T13:23:54Z</time>
      </trkpt>
      <trkpt lat="44.85499" lon="6.96337">
        <ele>2517.3</ele>
        <time>2023-02-16T13:24:00Z</time>
      </trkpt>
      <trkpt lat="44.85498" lon="6.96336">
        <ele>2517.9</ele>
        <time>2023-02-16T13:24:02Z</time>
      </trkpt>
      <trkpt lat="44.85496" lon="6.96335">
        <ele>2518.9</ele>
        <time>2023-02-16T13:24:05Z</time>
      </trkpt>
      <trkpt lat="44.85491" lon="6.96335">
        <ele>2520.7</ele>
        <time>2023-02-16T13:24:13Z</time>
      </trkpt>
      <trkpt lat="44.85489" lon="6.96335">
        <ele>2521.4</ele>
        <time>2023-02-16T13:24:15Z</time>
      </trkpt>
      <trkpt lat="44.8549" lon="6.96332">
        <ele>2522</ele>
        <time>2023-02-16T13:24:25Z</time>
      </trkpt>
      <trkpt lat="44.85491" lon="6.96329">
        <ele>2522.5</ele>
        <time>2023-02-16T13:24:28Z</time>
      </trkpt>
      <trkpt lat="44.85494" lon="6.96324">
        <ele>2522.9</ele>
        <time>2023-02-16T13:24:35Z</time>
      </trkpt>
      <trkpt lat="44.85495" lon="6.96321">
        <ele>2523.4</ele>
        <time>2023-02-16T13:24:38Z</time>
      </trkpt>
      <trkpt lat="44.85497" lon="6.96315">
        <ele>2524.4</ele>
        <time>2023-02-16T13:24:44Z</time>
      </trkpt>
      <trkpt lat="44.85498" lon="6.96311">
        <ele>2525.2</ele>
        <time>2023-02-16T13:24:49Z</time>
      </trkpt>
      <trkpt lat="44.85499" lon="6.96308">
        <ele>2525.7</ele>
        <time>2023-02-16T13:24:53Z</time>
      </trkpt>
      <trkpt lat="44.855" lon="6.96303">
        <ele>2526.9</ele>
        <time>2023-02-16T13:24:58Z</time>
      </trkpt>
      <trkpt lat="44.85501" lon="6.963">
        <ele>2527.8</ele>
        <time>2023-02-16T13:25:01Z</time>
      </trkpt>
      <trkpt lat="44.85502" lon="6.96297">
        <ele>2528.6</ele>
        <time>2023-02-16T13:25:04Z</time>
      </trkpt>
      <trkpt lat="44.85503" lon="6.96295">
        <ele>2529.1</ele>
        <time>2023-02-16T13:25:09Z</time>
      </trkpt>
      <trkpt lat="44.85506" lon="6.96295">
        <ele>2528.3</ele>
        <time>2023-02-16T13:25:15Z</time>
      </trkpt>
      <trkpt lat="44.85509" lon="6.96296">
        <ele>2527.4</ele>
        <time>2023-02-16T13:25:20Z</time>
      </trkpt>
      <trkpt lat="44.85511" lon="6.96299">
        <ele>2526.2</ele>
        <time>2023-02-16T13:25:27Z</time>
      </trkpt>
      <trkpt lat="44.85511" lon="6.96295">
        <ele>2527.1</ele>
        <time>2023-02-16T13:25:34Z</time>
      </trkpt>
      <trkpt lat="44.85511" lon="6.96293">
        <ele>2527.5</ele>
        <time>2023-02-16T13:25:36Z</time>
      </trkpt>
      <trkpt lat="44.85511" lon="6.96283">
        <ele>2529.7</ele>
        <time>2023-02-16T13:25:45Z</time>
      </trkpt>
      <trkpt lat="44.85511" lon="6.9628">
        <ele>2530.4</ele>
        <time>2023-02-16T13:25:48Z</time>
      </trkpt>
      <trkpt lat="44.85512" lon="6.96279">
        <ele>2530.1</ele>
        <time>2023-02-16T13:25:50Z</time>
      </trkpt>
      <trkpt lat="44.85513" lon="6.96272">
        <ele>2531.9</ele>
        <time>2023-02-16T13:25:58Z</time>
      </trkpt>
      <trkpt lat="44.85514" lon="6.96268">
        <ele>2532.8</ele>
        <time>2023-02-16T13:26:03Z</time>
      </trkpt>
      <trkpt lat="44.85514" lon="6.96266">
        <ele>2533.5</ele>
        <time>2023-02-16T13:26:05Z</time>
      </trkpt>
      <trkpt lat="44.85514" lon="6.96262">
        <ele>2534.8</ele>
        <time>2023-02-16T13:26:10Z</time>
      </trkpt>
      <trkpt lat="44.85514" lon="6.96257">
        <ele>2536.6</ele>
        <time>2023-02-16T13:26:15Z</time>
      </trkpt>
      <trkpt lat="44.85514" lon="6.96256">
        <ele>2536.9</ele>
        <time>2023-02-16T13:26:16Z</time>
      </trkpt>
      <trkpt lat="44.85514" lon="6.96251">
        <ele>2538.6</ele>
        <time>2023-02-16T13:26:24Z</time>
      </trkpt>
      <trkpt lat="44.85514" lon="6.96252">
        <ele>2538.3</ele>
        <time>2023-02-16T13:26:25Z</time>
      </trkpt>
      <trkpt lat="44.8551" lon="6.96256">
        <ele>2538.7</ele>
        <time>2023-02-16T13:26:34Z</time>
      </trkpt>
      <trkpt lat="44.85508" lon="6.96257">
        <ele>2539.2</ele>
        <time>2023-02-16T13:26:37Z</time>
      </trkpt>
      <trkpt lat="44.85505" lon="6.9626">
        <ele>2539.5</ele>
        <time>2023-02-16T13:26:42Z</time>
      </trkpt>
      <trkpt lat="44.85502" lon="6.96262">
        <ele>2540.2</ele>
        <time>2023-02-16T13:26:47Z</time>
      </trkpt>
      <trkpt lat="44.85501" lon="6.96263">
        <ele>2540.3</ele>
        <time>2023-02-16T13:26:49Z</time>
      </trkpt>
      <trkpt lat="44.85499" lon="6.96265">
        <ele>2540.5</ele>
        <time>2023-02-16T13:26:57Z</time>
      </trkpt>
      <trkpt lat="44.85499" lon="6.96265">
        <ele>2540.5</ele>
        <time>2023-02-16T13:26:58Z</time>
      </trkpt>
      <trkpt lat="44.85499" lon="6.96265">
        <ele>2540.5</ele>
        <time>2023-02-16T13:27:09Z</time>
      </trkpt>
      <trkpt lat="44.85498" lon="6.96266">
        <ele>2540.6</ele>
        <time>2023-02-16T13:27:14Z</time>
      </trkpt>
      <trkpt lat="44.85497" lon="6.96265">
        <ele>2541.3</ele>
        <time>2023-02-16T13:27:25Z</time>
      </trkpt>
      <trkpt lat="44.85497" lon="6.96261">
        <ele>2542.6</ele>
        <time>2023-02-16T13:27:34Z</time>
      </trkpt>
      <trkpt lat="44.85498" lon="6.9626">
        <ele>2542.5</ele>
        <time>2023-02-16T13:27:35Z</time>
      </trkpt>
      <trkpt lat="44.85498" lon="6.96253">
        <ele>2544.8</ele>
        <time>2023-02-16T13:27:41Z</time>
      </trkpt>
      <trkpt lat="44.85499" lon="6.96248">
        <ele>2546</ele>
        <time>2023-02-16T13:27:46Z</time>
      </trkpt>
      <trkpt lat="44.85499" lon="6.96247">
        <ele>2546.4</ele>
        <time>2023-02-16T13:27:47Z</time>
      </trkpt>
      <trkpt lat="44.855" lon="6.96243">
        <ele>2547.3</ele>
        <time>2023-02-16T13:27:52Z</time>
      </trkpt>
      <trkpt lat="44.85503" lon="6.96236">
        <ele>2548.6</ele>
        <time>2023-02-16T13:28:01Z</time>
      </trkpt>
      <trkpt lat="44.85503" lon="6.96235">
        <ele>2548.9</ele>
        <time>2023-02-16T13:28:02Z</time>
      </trkpt>
      <trkpt lat="44.85503" lon="6.96235">
        <ele>2548.9</ele>
        <time>2023-02-16T13:28:07Z</time>
      </trkpt>
      <trkpt lat="44.85501" lon="6.96236">
        <ele>2549.2</ele>
        <time>2023-02-16T13:28:10Z</time>
      </trkpt>
      <trkpt lat="44.85494" lon="6.9624">
        <ele>2550.5</ele>
        <time>2023-02-16T13:28:21Z</time>
      </trkpt>
      <trkpt lat="44.85492" lon="6.9624">
        <ele>2551.2</ele>
        <time>2023-02-16T13:28:24Z</time>
      </trkpt>
      <trkpt lat="44.8549" lon="6.96242">
        <ele>2551.3</ele>
        <time>2023-02-16T13:28:28Z</time>
      </trkpt>
      <trkpt lat="44.85486" lon="6.96246">
        <ele>2551.7</ele>
        <time>2023-02-16T13:28:34Z</time>
      </trkpt>
      <trkpt lat="44.85484" lon="6.96247">
        <ele>2552.2</ele>
        <time>2023-02-16T13:28:37Z</time>
      </trkpt>
      <trkpt lat="44.85482" lon="6.96248">
        <ele>2552.7</ele>
        <time>2023-02-16T13:28:41Z</time>
      </trkpt>
      <trkpt lat="44.85477" lon="6.96251">
        <ele>2553.8</ele>
        <time>2023-02-16T13:28:48Z</time>
      </trkpt>
      <trkpt lat="44.85477" lon="6.96251">
        <ele>2553.8</ele>
        <time>2023-02-16T13:28:49Z</time>
      </trkpt>
      <trkpt lat="44.85477" lon="6.96249">
        <ele>2554.4</ele>
        <time>2023-02-16T13:28:59Z</time>
      </trkpt>
      <trkpt lat="44.85476" lon="6.96249">
        <ele>2554.8</ele>
        <time>2023-02-16T13:29:04Z</time>
      </trkpt>
      <trkpt lat="44.85473" lon="6.96247">
        <ele>2556.5</ele>
        <time>2023-02-16T13:29:08Z</time>
      </trkpt>
      <trkpt lat="44.85474" lon="6.96243">
        <ele>2557.1</ele>
        <time>2023-02-16T13:29:12Z</time>
      </trkpt>
      <trkpt lat="44.85475" lon="6.96239">
        <ele>2557.8</ele>
        <time>2023-02-16T13:29:15Z</time>
      </trkpt>
      <trkpt lat="44.85475" lon="6.96238">
        <ele>2558</ele>
        <time>2023-02-16T13:29:16Z</time>
      </trkpt>
      <trkpt lat="44.8548" lon="6.96225">
        <ele>2559.7</ele>
        <time>2023-02-16T13:29:29Z</time>
      </trkpt>
      <trkpt lat="44.85481" lon="6.96215">
        <ele>2561.3</ele>
        <time>2023-02-16T13:29:37Z</time>
      </trkpt>
      <trkpt lat="44.85482" lon="6.9621">
        <ele>2561.8</ele>
        <time>2023-02-16T13:29:43Z</time>
      </trkpt>
      <trkpt lat="44.85482" lon="6.96208">
        <ele>2562.1</ele>
        <time>2023-02-16T13:29:45Z</time>
      </trkpt>
      <trkpt lat="44.85483" lon="6.96198">
        <ele>2563.5</ele>
        <time>2023-02-16T13:29:53Z</time>
      </trkpt>
      <trkpt lat="44.85483" lon="6.96193">
        <ele>2564.2</ele>
        <time>2023-02-16T13:29:58Z</time>
      </trkpt>
      <trkpt lat="44.85483" lon="6.96189">
        <ele>2564.8</ele>
        <time>2023-02-16T13:30:01Z</time>
      </trkpt>
      <trkpt lat="44.85483" lon="6.96182">
        <ele>2565.7</ele>
        <time>2023-02-16T13:30:07Z</time>
      </trkpt>
      <trkpt lat="44.85483" lon="6.96177">
        <ele>2566.3</ele>
        <time>2023-02-16T13:30:13Z</time>
      </trkpt>
      <trkpt lat="44.85483" lon="6.96176">
        <ele>2566.5</ele>
        <time>2023-02-16T13:30:14Z</time>
      </trkpt>
      <trkpt lat="44.85484" lon="6.96168">
        <ele>2567.3</ele>
        <time>2023-02-16T13:30:22Z</time>
      </trkpt>
      <trkpt lat="44.85485" lon="6.96163">
        <ele>2567.7</ele>
        <time>2023-02-16T13:30:27Z</time>
      </trkpt>
      <trkpt lat="44.85486" lon="6.9616">
        <ele>2568</ele>
        <time>2023-02-16T13:30:29Z</time>
      </trkpt>
      <trkpt lat="44.85486" lon="6.96152">
        <ele>2569.1</ele>
        <time>2023-02-16T13:30:35Z</time>
      </trkpt>
      <trkpt lat="44.85485" lon="6.96146">
        <ele>2570</ele>
        <time>2023-02-16T13:30:40Z</time>
      </trkpt>
      <trkpt lat="44.85485" lon="6.9614">
        <ele>2570.8</ele>
        <time>2023-02-16T13:30:45Z</time>
      </trkpt>
      <trkpt lat="44.85486" lon="6.96134">
        <ele>2571.9</ele>
        <time>2023-02-16T13:30:51Z</time>
      </trkpt>
      <trkpt lat="44.85486" lon="6.96133">
        <ele>2572.1</ele>
        <time>2023-02-16T13:30:52Z</time>
      </trkpt>
      <trkpt lat="44.85486" lon="6.96128">
        <ele>2573</ele>
        <time>2023-02-16T13:30:58Z</time>
      </trkpt>
      <trkpt lat="44.85485" lon="6.96121">
        <ele>2574.2</ele>
        <time>2023-02-16T13:31:04Z</time>
      </trkpt>
      <trkpt lat="44.85484" lon="6.96119">
        <ele>2574.5</ele>
        <time>2023-02-16T13:31:06Z</time>
      </trkpt>
      <trkpt lat="44.85484" lon="6.96117">
        <ele>2574.8</ele>
        <time>2023-02-16T13:31:09Z</time>
      </trkpt>
      <trkpt lat="44.85484" lon="6.96115">
        <ele>2575.2</ele>
        <time>2023-02-16T13:31:10Z</time>
      </trkpt>
      <trkpt lat="44.85483" lon="6.9611">
        <ele>2575.9</ele>
        <time>2023-02-16T13:31:15Z</time>
      </trkpt>
      <trkpt lat="44.85483" lon="6.96107">
        <ele>2576.3</ele>
        <time>2023-02-16T13:31:19Z</time>
      </trkpt>
      <trkpt lat="44.85484" lon="6.96102">
        <ele>2577.1</ele>
        <time>2023-02-16T13:31:24Z</time>
      </trkpt>
      <trkpt lat="44.85485" lon="6.96096">
        <ele>2578.1</ele>
        <time>2023-02-16T13:31:31Z</time>
      </trkpt>
      <trkpt lat="44.85486" lon="6.96094">
        <ele>2578.5</ele>
        <time>2023-02-16T13:31:33Z</time>
      </trkpt>
      <trkpt lat="44.85487" lon="6.96089">
        <ele>2579.3</ele>
        <time>2023-02-16T13:31:38Z</time>
      </trkpt>
      <trkpt lat="44.85488" lon="6.96083">
        <ele>2580.3</ele>
        <time>2023-02-16T13:31:43Z</time>
      </trkpt>
      <trkpt lat="44.8549" lon="6.96075">
        <ele>2582.1</ele>
        <time>2023-02-16T13:31:52Z</time>
      </trkpt>
      <trkpt lat="44.8549" lon="6.96075">
        <ele>2582.1</ele>
        <time>2023-02-16T13:31:58Z</time>
      </trkpt>
      <trkpt lat="44.8549" lon="6.96076">
        <ele>2581.9</ele>
        <time>2023-02-16T13:32:03Z</time>
      </trkpt>
      <trkpt lat="44.8549" lon="6.96076">
        <ele>2581.9</ele>
        <time>2023-02-16T13:32:21Z</time>
      </trkpt>
      <trkpt lat="44.85489" lon="6.96076">
        <ele>2581.7</ele>
        <time>2023-02-16T13:32:26Z</time>
      </trkpt>
      <trkpt lat="44.85489" lon="6.96076">
        <ele>2581.7</ele>
        <time>2023-02-16T13:32:35Z</time>
      </trkpt>
      <trkpt lat="44.85489" lon="6.96076">
        <ele>2581.7</ele>
        <time>2023-02-16T13:32:53Z</time>
      </trkpt>
      <trkpt lat="44.8549" lon="6.96073">
        <ele>2582.4</ele>
        <time>2023-02-16T13:33:11Z</time>
      </trkpt>
      <trkpt lat="44.8549" lon="6.96067">
        <ele>2583.5</ele>
        <time>2023-02-16T13:33:17Z</time>
      </trkpt>
      <trkpt lat="44.85489" lon="6.96065">
        <ele>2583.7</ele>
        <time>2023-02-16T13:33:20Z</time>
      </trkpt>
      <trkpt lat="44.85487" lon="6.96061">
        <ele>2584.1</ele>
        <time>2023-02-16T13:33:26Z</time>
      </trkpt>
      <trkpt lat="44.85484" lon="6.96058">
        <ele>2584.3</ele>
        <time>2023-02-16T13:33:30Z</time>
      </trkpt>
      <trkpt lat="44.85483" lon="6.96055">
        <ele>2584.7</ele>
        <time>2023-02-16T13:33:33Z</time>
      </trkpt>
      <trkpt lat="44.85479" lon="6.96051">
        <ele>2585.6</ele>
        <time>2023-02-16T13:33:39Z</time>
      </trkpt>
      <trkpt lat="44.85479" lon="6.96051">
        <ele>2585.6</ele>
        <time>2023-02-16T13:33:40Z</time>
      </trkpt>
      <trkpt lat="44.85476" lon="6.96049">
        <ele>2585.9</ele>
        <time>2023-02-16T13:33:44Z</time>
      </trkpt>
      <trkpt lat="44.85472" lon="6.96047">
        <ele>2586.2</ele>
        <time>2023-02-16T13:33:49Z</time>
      </trkpt>
      <trkpt lat="44.85471" lon="6.96047">
        <ele>2586.6</ele>
        <time>2023-02-16T13:33:50Z</time>
      </trkpt>
      <trkpt lat="44.8547" lon="6.9605">
        <ele>2585.9</ele>
        <time>2023-02-16T13:33:57Z</time>
      </trkpt>
      <trkpt lat="44.8547" lon="6.9605">
        <ele>2585.9</ele>
        <time>2023-02-16T13:33:59Z</time>
      </trkpt>
      <trkpt lat="44.85466" lon="6.96048">
        <ele>2588.2</ele>
        <time>2023-02-16T13:34:09Z</time>
      </trkpt>
      <trkpt lat="44.85462" lon="6.96048">
        <ele>2589.7</ele>
        <time>2023-02-16T13:34:15Z</time>
      </trkpt>
      <trkpt lat="44.85458" lon="6.96049">
        <ele>2591</ele>
        <time>2023-02-16T13:34:20Z</time>
      </trkpt>
      <trkpt lat="44.85456" lon="6.96049">
        <ele>2591.8</ele>
        <time>2023-02-16T13:34:27Z</time>
      </trkpt>
      <trkpt lat="44.85456" lon="6.96048">
        <ele>2592.1</ele>
        <time>2023-02-16T13:34:28Z</time>
      </trkpt>
      <trkpt lat="44.85456" lon="6.96048">
        <ele>2592.1</ele>
        <time>2023-02-16T13:34:29Z</time>
      </trkpt>
      <trkpt lat="44.85457" lon="6.96039">
        <ele>2594.2</ele>
        <time>2023-02-16T13:34:36Z</time>
      </trkpt>
      <trkpt lat="44.85458" lon="6.96037">
        <ele>2594.5</ele>
        <time>2023-02-16T13:34:38Z</time>
      </trkpt>
      <trkpt lat="44.85458" lon="6.96036">
        <ele>2594.7</ele>
        <time>2023-02-16T13:34:39Z</time>
      </trkpt>
      <trkpt lat="44.8546" lon="6.96025">
        <ele>2597.4</ele>
        <time>2023-02-16T13:34:48Z</time>
      </trkpt>
      <trkpt lat="44.85461" lon="6.96021">
        <ele>2598.3</ele>
        <time>2023-02-16T13:34:52Z</time>
      </trkpt>
      <trkpt lat="44.85463" lon="6.96017">
        <ele>2598.9</ele>
        <time>2023-02-16T13:34:55Z</time>
      </trkpt>
      <trkpt lat="44.85467" lon="6.96014">
        <ele>2598.6</ele>
        <time>2023-02-16T13:35:02Z</time>
      </trkpt>
      <trkpt lat="44.85468" lon="6.96013">
        <ele>2598.6</ele>
        <time>2023-02-16T13:35:03Z</time>
      </trkpt>
      <trkpt lat="44.8547" lon="6.96012">
        <ele>2598.2</ele>
        <time>2023-02-16T13:35:07Z</time>
      </trkpt>
      <trkpt lat="44.85474" lon="6.96008">
        <ele>2598.5</ele>
        <time>2023-02-16T13:35:13Z</time>
      </trkpt>
      <trkpt lat="44.85476" lon="6.96007">
        <ele>2598.5</ele>
        <time>2023-02-16T13:35:15Z</time>
      </trkpt>
      <trkpt lat="44.85476" lon="6.96008">
        <ele>2598.2</ele>
        <time>2023-02-16T13:35:23Z</time>
      </trkpt>
      <trkpt lat="44.85477" lon="6.96007">
        <ele>2598.3</ele>
        <time>2023-02-16T13:35:24Z</time>
      </trkpt>
      <trkpt lat="44.85479" lon="6.96003">
        <ele>2598.9</ele>
        <time>2023-02-16T13:35:28Z</time>
      </trkpt>
      <trkpt lat="44.85481" lon="6.95998">
        <ele>2599.4</ele>
        <time>2023-02-16T13:35:32Z</time>
      </trkpt>
      <trkpt lat="44.85484" lon="6.95988">
        <ele>2599.8</ele>
        <time>2023-02-16T13:35:44Z</time>
      </trkpt>
      <trkpt lat="44.85484" lon="6.95986">
        <ele>2600</ele>
        <time>2023-02-16T13:35:48Z</time>
      </trkpt>
      <trkpt lat="44.85485" lon="6.95983">
        <ele>2599.9</ele>
        <time>2023-02-16T13:35:54Z</time>
      </trkpt>
      <trkpt lat="44.85485" lon="6.95982">
        <ele>2600</ele>
        <time>2023-02-16T13:35:55Z</time>
      </trkpt>
      <trkpt lat="44.85485" lon="6.95982">
        <ele>2600</ele>
        <time>2023-02-16T13:35:57Z</time>
      </trkpt>
      <trkpt lat="44.85485" lon="6.95976">
        <ele>2600.6</ele>
        <time>2023-02-16T13:36:04Z</time>
      </trkpt>
      <trkpt lat="44.85486" lon="6.95975">
        <ele>2600.3</ele>
        <time>2023-02-16T13:36:05Z</time>
      </trkpt>
      <trkpt lat="44.85487" lon="6.95971">
        <ele>2600.4</ele>
        <time>2023-02-16T13:36:08Z</time>
      </trkpt>
      <trkpt lat="44.85489" lon="6.9596">
        <ele>2601.9</ele>
        <time>2023-02-16T13:36:17Z</time>
      </trkpt>
      <trkpt lat="44.85493" lon="6.95943">
        <ele>2604</ele>
        <time>2023-02-16T13:36:31Z</time>
      </trkpt>
      <trkpt lat="44.85493" lon="6.95942">
        <ele>2604.1</ele>
        <time>2023-02-16T13:36:32Z</time>
      </trkpt>
      <trkpt lat="44.85496" lon="6.95931">
        <ele>2604.5</ele>
        <time>2023-02-16T13:36:42Z</time>
      </trkpt>
      <trkpt lat="44.85497" lon="6.95925">
        <ele>2605</ele>
        <time>2023-02-16T13:36:48Z</time>
      </trkpt>
      <trkpt lat="44.855" lon="6.95917">
        <ele>2605</ele>
        <time>2023-02-16T13:36:56Z</time>
      </trkpt>
      <trkpt lat="44.85501" lon="6.95915">
        <ele>2605.2</ele>
        <time>2023-02-16T13:36:58Z</time>
      </trkpt>
      <trkpt lat="44.85508" lon="6.95902">
        <ele>2607</ele>
        <time>2023-02-16T13:37:10Z</time>
      </trkpt>
      <trkpt lat="44.85513" lon="6.95892">
        <ele>2608.1</ele>
        <time>2023-02-16T13:37:21Z</time>
      </trkpt>
      <trkpt lat="44.85514" lon="6.95888">
        <ele>2608.6</ele>
        <time>2023-02-16T13:37:25Z</time>
      </trkpt>
      <trkpt lat="44.85517" lon="6.95873">
        <ele>2609.7</ele>
        <time>2023-02-16T13:37:38Z</time>
      </trkpt>
      <trkpt lat="44.85517" lon="6.95871">
        <ele>2610</ele>
        <time>2023-02-16T13:37:40Z</time>
      </trkpt>
      <trkpt lat="44.85518" lon="6.95858">
        <ele>2611.4</ele>
        <time>2023-02-16T13:37:52Z</time>
      </trkpt>
      <trkpt lat="44.85518" lon="6.95852">
        <ele>2612.5</ele>
        <time>2023-02-16T13:37:57Z</time>
      </trkpt>
      <trkpt lat="44.8552" lon="6.95851">
        <ele>2612.1</ele>
        <time>2023-02-16T13:38:04Z</time>
      </trkpt>
      <trkpt lat="44.8552" lon="6.95851">
        <ele>2612.1</ele>
        <time>2023-02-16T13:38:21Z</time>
      </trkpt>
      <trkpt lat="44.8552" lon="6.9585">
        <ele>2612.2</ele>
        <time>2023-02-16T13:38:33Z</time>
      </trkpt>
      <trkpt lat="44.8552" lon="6.95849">
        <ele>2612.4</ele>
        <time>2023-02-16T13:38:35Z</time>
      </trkpt>
      <trkpt lat="44.8552" lon="6.95847">
        <ele>2612.8</ele>
        <time>2023-02-16T13:38:37Z</time>
      </trkpt>
      <trkpt lat="44.85519" lon="6.9584">
        <ele>2614.3</ele>
        <time>2023-02-16T13:38:43Z</time>
      </trkpt>
      <trkpt lat="44.85519" lon="6.95837">
        <ele>2614.9</ele>
        <time>2023-02-16T13:38:45Z</time>
      </trkpt>
      <trkpt lat="44.85519" lon="6.95832">
        <ele>2615.9</ele>
        <time>2023-02-16T13:38:49Z</time>
      </trkpt>
      <trkpt lat="44.85521" lon="6.95823">
        <ele>2617.9</ele>
        <time>2023-02-16T13:38:56Z</time>
      </trkpt>
      <trkpt lat="44.85526" lon="6.95816">
        <ele>2619</ele>
        <time>2023-02-16T13:39:05Z</time>
      </trkpt>
      <trkpt lat="44.85526" lon="6.95815">
        <ele>2619.3</ele>
        <time>2023-02-16T13:39:08Z</time>
      </trkpt>
      <trkpt lat="44.85526" lon="6.95814">
        <ele>2619.6</ele>
        <time>2023-02-16T13:39:09Z</time>
      </trkpt>
      <trkpt lat="44.85522" lon="6.95813">
        <ele>2620.6</ele>
        <time>2023-02-16T13:39:16Z</time>
      </trkpt>
      <trkpt lat="44.85519" lon="6.95812">
        <ele>2621.5</ele>
        <time>2023-02-16T13:39:20Z</time>
      </trkpt>
      <trkpt lat="44.85516" lon="6.9581">
        <ele>2622.5</ele>
        <time>2023-02-16T13:39:25Z</time>
      </trkpt>
      <trkpt lat="44.85514" lon="6.95809">
        <ele>2623.1</ele>
        <time>2023-02-16T13:39:28Z</time>
      </trkpt>
      <trkpt lat="44.8551" lon="6.95809">
        <ele>2623.8</ele>
        <time>2023-02-16T13:39:32Z</time>
      </trkpt>
      <trkpt lat="44.85508" lon="6.95809">
        <ele>2624.1</ele>
        <time>2023-02-16T13:39:34Z</time>
      </trkpt>
      <trkpt lat="44.85506" lon="6.9581">
        <ele>2624.2</ele>
        <time>2023-02-16T13:39:38Z</time>
      </trkpt>
      <trkpt lat="44.85504" lon="6.9581">
        <ele>2624.5</ele>
        <time>2023-02-16T13:39:41Z</time>
      </trkpt>
      <trkpt lat="44.855" lon="6.95814">
        <ele>2624.5</ele>
        <time>2023-02-16T13:39:47Z</time>
      </trkpt>
      <trkpt lat="44.85498" lon="6.95815">
        <ele>2625.4</ele>
        <time>2023-02-16T13:39:50Z</time>
      </trkpt>
      <trkpt lat="44.85498" lon="6.95816">
        <ele>2625.2</ele>
        <time>2023-02-16T13:39:56Z</time>
      </trkpt>
      <trkpt lat="44.85498" lon="6.95816">
        <ele>2625.2</ele>
        <time>2023-02-16T13:40:01Z</time>
      </trkpt>
      <trkpt lat="44.85498" lon="6.95817">
        <ele>2625</ele>
        <time>2023-02-16T13:40:16Z</time>
      </trkpt>
      <trkpt lat="44.85498" lon="6.95815">
        <ele>2625.4</ele>
        <time>2023-02-16T13:40:34Z</time>
      </trkpt>
      <trkpt lat="44.85498" lon="6.95813">
        <ele>2625.7</ele>
        <time>2023-02-16T13:40:48Z</time>
      </trkpt>
      <trkpt lat="44.85494" lon="6.95816">
        <ele>2627.4</ele>
        <time>2023-02-16T13:41:00Z</time>
      </trkpt>
      <trkpt lat="44.85495" lon="6.95811">
        <ele>2627.6</ele>
        <time>2023-02-16T13:41:05Z</time>
      </trkpt>
      <trkpt lat="44.85495" lon="6.95808">
        <ele>2628.1</ele>
        <time>2023-02-16T13:41:08Z</time>
      </trkpt>
      <trkpt lat="44.85496" lon="6.95804">
        <ele>2628.3</ele>
        <time>2023-02-16T13:41:12Z</time>
      </trkpt>
      <trkpt lat="44.85496" lon="6.95801">
        <ele>2629</ele>
        <time>2023-02-16T13:41:14Z</time>
      </trkpt>
      <trkpt lat="44.85496" lon="6.95796">
        <ele>2630</ele>
        <time>2023-02-16T13:41:19Z</time>
      </trkpt>
      <trkpt lat="44.85497" lon="6.95794">
        <ele>2630</ele>
        <time>2023-02-16T13:41:20Z</time>
      </trkpt>
      <trkpt lat="44.85501" lon="6.95783">
        <ele>2630.8</ele>
        <time>2023-02-16T13:41:30Z</time>
      </trkpt>
      <trkpt lat="44.85502" lon="6.95779">
        <ele>2631.7</ele>
        <time>2023-02-16T13:41:34Z</time>
      </trkpt>
      <trkpt lat="44.85503" lon="6.95776">
        <ele>2632.4</ele>
        <time>2023-02-16T13:41:37Z</time>
      </trkpt>
      <trkpt lat="44.85505" lon="6.9577">
        <ele>2633.7</ele>
        <time>2023-02-16T13:41:43Z</time>
      </trkpt>
      <trkpt lat="44.85506" lon="6.95765">
        <ele>2634.8</ele>
        <time>2023-02-16T13:41:47Z</time>
      </trkpt>
      <trkpt lat="44.85507" lon="6.95763">
        <ele>2635.3</ele>
        <time>2023-02-16T13:41:49Z</time>
      </trkpt>
      <trkpt lat="44.8551" lon="6.95756">
        <ele>2637.3</ele>
        <time>2023-02-16T13:41:58Z</time>
      </trkpt>
      <trkpt lat="44.85511" lon="6.95755">
        <ele>2637.7</ele>
        <time>2023-02-16T13:42:00Z</time>
      </trkpt>
      <trkpt lat="44.85514" lon="6.95753">
        <ele>2638.7</ele>
        <time>2023-02-16T13:42:04Z</time>
      </trkpt>
      <trkpt lat="44.85517" lon="6.95752">
        <ele>2639.5</ele>
        <time>2023-02-16T13:42:08Z</time>
      </trkpt>
      <trkpt lat="44.85517" lon="6.95751">
        <ele>2639.8</ele>
        <time>2023-02-16T13:42:10Z</time>
      </trkpt>
      <trkpt lat="44.85515" lon="6.95747">
        <ele>2640.7</ele>
        <time>2023-02-16T13:42:20Z</time>
      </trkpt>
      <trkpt lat="44.85514" lon="6.95746">
        <ele>2640.8</ele>
        <time>2023-02-16T13:42:21Z</time>
      </trkpt>
      <trkpt lat="44.85511" lon="6.95743">
        <ele>2641.2</ele>
        <time>2023-02-16T13:42:25Z</time>
      </trkpt>
      <trkpt lat="44.8551" lon="6.95742">
        <ele>2641.3</ele>
        <time>2023-02-16T13:42:27Z</time>
      </trkpt>
      <trkpt lat="44.85508" lon="6.9574">
        <ele>2641.5</ele>
        <time>2023-02-16T13:42:30Z</time>
      </trkpt>
      <trkpt lat="44.85507" lon="6.9574">
        <ele>2641.3</ele>
        <time>2023-02-16T13:42:31Z</time>
      </trkpt>
      <trkpt lat="44.85502" lon="6.95736">
        <ele>2641.5</ele>
        <time>2023-02-16T13:42:39Z</time>
      </trkpt>
      <trkpt lat="44.85498" lon="6.95735">
        <ele>2642</ele>
        <time>2023-02-16T13:42:43Z</time>
      </trkpt>
      <trkpt lat="44.85498" lon="6.95735">
        <ele>2642</ele>
        <time>2023-02-16T13:42:44Z</time>
      </trkpt>
      <trkpt lat="44.85493" lon="6.95735">
        <ele>2643.8</ele>
        <time>2023-02-16T13:42:50Z</time>
      </trkpt>
      <trkpt lat="44.85491" lon="6.95736">
        <ele>2644.3</ele>
        <time>2023-02-16T13:42:53Z</time>
      </trkpt>
      <trkpt lat="44.85489" lon="6.95737">
        <ele>2644.8</ele>
        <time>2023-02-16T13:42:56Z</time>
      </trkpt>
      <trkpt lat="44.85485" lon="6.95742">
        <ele>2645.2</ele>
        <time>2023-02-16T13:43:04Z</time>
      </trkpt>
      <trkpt lat="44.85484" lon="6.95742">
        <ele>2645.6</ele>
        <time>2023-02-16T13:43:05Z</time>
      </trkpt>
      <trkpt lat="44.8548" lon="6.95745">
        <ele>2646.6</ele>
        <time>2023-02-16T13:43:11Z</time>
      </trkpt>
      <trkpt lat="44.85479" lon="6.95746">
        <ele>2646.8</ele>
        <time>2023-02-16T13:43:12Z</time>
      </trkpt>
      <trkpt lat="44.85478" lon="6.95746">
        <ele>2647.2</ele>
        <time>2023-02-16T13:43:14Z</time>
      </trkpt>
      <trkpt lat="44.85477" lon="6.95747">
        <ele>2647.4</ele>
        <time>2023-02-16T13:43:16Z</time>
      </trkpt>
      <trkpt lat="44.85475" lon="6.95753">
        <ele>2647.4</ele>
        <time>2023-02-16T13:43:27Z</time>
      </trkpt>
      <trkpt lat="44.85474" lon="6.95753">
        <ele>2647.8</ele>
        <time>2023-02-16T13:43:28Z</time>
      </trkpt>
      <trkpt lat="44.85471" lon="6.95757">
        <ele>2648.6</ele>
        <time>2023-02-16T13:43:34Z</time>
      </trkpt>
      <trkpt lat="44.85468" lon="6.95758">
        <ele>2649.9</ele>
        <time>2023-02-16T13:43:39Z</time>
      </trkpt>
      <trkpt lat="44.85466" lon="6.95758">
        <ele>2650.9</ele>
        <time>2023-02-16T13:43:44Z</time>
      </trkpt>
      <trkpt lat="44.85466" lon="6.95757">
        <ele>2651</ele>
        <time>2023-02-16T13:43:47Z</time>
      </trkpt>
      <trkpt lat="44.85466" lon="6.95751">
        <ele>2651.8</ele>
        <time>2023-02-16T13:43:58Z</time>
      </trkpt>
      <trkpt lat="44.85467" lon="6.95751">
        <ele>2651.3</ele>
        <time>2023-02-16T13:44:01Z</time>
      </trkpt>
      <trkpt lat="44.85466" lon="6.95751">
        <ele>2651.8</ele>
        <time>2023-02-16T13:44:03Z</time>
      </trkpt>
      <trkpt lat="44.85466" lon="6.9575">
        <ele>2651.9</ele>
        <time>2023-02-16T13:44:11Z</time>
      </trkpt>
      <trkpt lat="44.85465" lon="6.95748">
        <ele>2652.7</ele>
        <time>2023-02-16T13:44:27Z</time>
      </trkpt>
      <trkpt lat="44.85465" lon="6.95739">
        <ele>2654.1</ele>
        <time>2023-02-16T13:44:35Z</time>
      </trkpt>
      <trkpt lat="44.85465" lon="6.95734">
        <ele>2654.8</ele>
        <time>2023-02-16T13:44:39Z</time>
      </trkpt>
      <trkpt lat="44.85465" lon="6.9573">
        <ele>2655.4</ele>
        <time>2023-02-16T13:44:42Z</time>
      </trkpt>
      <trkpt lat="44.85465" lon="6.95723">
        <ele>2656.5</ele>
        <time>2023-02-16T13:44:49Z</time>
      </trkpt>
      <trkpt lat="44.85465" lon="6.95722">
        <ele>2656.7</ele>
        <time>2023-02-16T13:44:50Z</time>
      </trkpt>
      <trkpt lat="44.85466" lon="6.95719">
        <ele>2656.7</ele>
        <time>2023-02-16T13:44:52Z</time>
      </trkpt>
      <trkpt lat="44.85465" lon="6.95717">
        <ele>2657.5</ele>
        <time>2023-02-16T13:44:55Z</time>
      </trkpt>
      <trkpt lat="44.85466" lon="6.9571">
        <ele>2658.1</ele>
        <time>2023-02-16T13:45:03Z</time>
      </trkpt>
      <trkpt lat="44.85466" lon="6.95709">
        <ele>2658.3</ele>
        <time>2023-02-16T13:45:04Z</time>
      </trkpt>
      <trkpt lat="44.85466" lon="6.95701">
        <ele>2659.6</ele>
        <time>2023-02-16T13:45:12Z</time>
      </trkpt>
      <trkpt lat="44.85465" lon="6.95695">
        <ele>2661</ele>
        <time>2023-02-16T13:45:18Z</time>
      </trkpt>
      <trkpt lat="44.85465" lon="6.95693">
        <ele>2661.4</ele>
        <time>2023-02-16T13:45:20Z</time>
      </trkpt>
      <trkpt lat="44.85465" lon="6.95686">
        <ele>2662.8</ele>
        <time>2023-02-16T13:45:27Z</time>
      </trkpt>
      <trkpt lat="44.85467" lon="6.95681">
        <ele>2663</ele>
        <time>2023-02-16T13:45:32Z</time>
      </trkpt>
      <trkpt lat="44.85468" lon="6.95681">
        <ele>2662.6</ele>
        <time>2023-02-16T13:45:42Z</time>
      </trkpt>
      <trkpt lat="44.85469" lon="6.95677">
        <ele>2663</ele>
        <time>2023-02-16T13:45:46Z</time>
      </trkpt>
      <trkpt lat="44.85469" lon="6.95671">
        <ele>2664.3</ele>
        <time>2023-02-16T13:45:51Z</time>
      </trkpt>
      <trkpt lat="44.8547" lon="6.95668">
        <ele>2664.5</ele>
        <time>2023-02-16T13:45:53Z</time>
      </trkpt>
      <trkpt lat="44.8547" lon="6.95662">
        <ele>2666.5</ele>
        <time>2023-02-16T13:45:58Z</time>
      </trkpt>
      <trkpt lat="44.85472" lon="6.95656">
        <ele>2668.3</ele>
        <time>2023-02-16T13:46:04Z</time>
      </trkpt>
      <trkpt lat="44.85473" lon="6.95654">
        <ele>2669.1</ele>
        <time>2023-02-16T13:46:06Z</time>
      </trkpt>
      <trkpt lat="44.85473" lon="6.95653">
        <ele>2669.5</ele>
        <time>2023-02-16T13:46:11Z</time>
      </trkpt>
      <trkpt lat="44.85471" lon="6.95653">
        <ele>2669.7</ele>
        <time>2023-02-16T13:46:14Z</time>
      </trkpt>
      <trkpt lat="44.85467" lon="6.95652">
        <ele>2670.9</ele>
        <time>2023-02-16T13:46:19Z</time>
      </trkpt>
      <trkpt lat="44.85464" lon="6.95652">
        <ele>2671.5</ele>
        <time>2023-02-16T13:46:24Z</time>
      </trkpt>
      <trkpt lat="44.85458" lon="6.95654">
        <ele>2672.3</ele>
        <time>2023-02-16T13:46:31Z</time>
      </trkpt>
      <trkpt lat="44.85457" lon="6.95654">
        <ele>2672.5</ele>
        <time>2023-02-16T13:46:32Z</time>
      </trkpt>
      <trkpt lat="44.85454" lon="6.95656">
        <ele>2672.8</ele>
        <time>2023-02-16T13:46:36Z</time>
      </trkpt>
      <trkpt lat="44.85453" lon="6.95657">
        <ele>2672.8</ele>
        <time>2023-02-16T13:46:38Z</time>
      </trkpt>
      <trkpt lat="44.85448" lon="6.95662">
        <ele>2673.4</ele>
        <time>2023-02-16T13:46:44Z</time>
      </trkpt>
      <trkpt lat="44.85447" lon="6.95664">
        <ele>2673.4</ele>
        <time>2023-02-16T13:46:46Z</time>
      </trkpt>
      <trkpt lat="44.85446" lon="6.95665">
        <ele>2673.6</ele>
        <time>2023-02-16T13:46:48Z</time>
      </trkpt>
      <trkpt lat="44.85444" lon="6.95666">
        <ele>2674.3</ele>
        <time>2023-02-16T13:46:51Z</time>
      </trkpt>
      <trkpt lat="44.85441" lon="6.9567">
        <ele>2675.1</ele>
        <time>2023-02-16T13:46:58Z</time>
      </trkpt>
      <trkpt lat="44.85439" lon="6.95672">
        <ele>2675.8</ele>
        <time>2023-02-16T13:47:01Z</time>
      </trkpt>
      <trkpt lat="44.85437" lon="6.95675">
        <ele>2676.4</ele>
        <time>2023-02-16T13:47:05Z</time>
      </trkpt>
      <trkpt lat="44.85434" lon="6.95679">
        <ele>2677.3</ele>
        <time>2023-02-16T13:47:11Z</time>
      </trkpt>
      <trkpt lat="44.85434" lon="6.95679">
        <ele>2677.3</ele>
        <time>2023-02-16T13:47:13Z</time>
      </trkpt>
      <trkpt lat="44.85436" lon="6.95681">
        <ele>2676</ele>
        <time>2023-02-16T13:47:26Z</time>
      </trkpt>
      <trkpt lat="44.85436" lon="6.95681">
        <ele>2676</ele>
        <time>2023-02-16T13:47:39Z</time>
      </trkpt>
      <trkpt lat="44.85436" lon="6.9568">
        <ele>2676.2</ele>
        <time>2023-02-16T13:47:51Z</time>
      </trkpt>
      <trkpt lat="44.85435" lon="6.95679">
        <ele>2676.8</ele>
        <time>2023-02-16T13:47:55Z</time>
      </trkpt>
      <trkpt lat="44.85434" lon="6.95673">
        <ele>2678.1</ele>
        <time>2023-02-16T13:48:01Z</time>
      </trkpt>
      <trkpt lat="44.85433" lon="6.95669">
        <ele>2679.1</ele>
        <time>2023-02-16T13:48:04Z</time>
      </trkpt>
      <trkpt lat="44.85433" lon="6.95667">
        <ele>2679.3</ele>
        <time>2023-02-16T13:48:05Z</time>
      </trkpt>
      <trkpt lat="44.85433" lon="6.95666">
        <ele>2679.4</ele>
        <time>2023-02-16T13:48:06Z</time>
      </trkpt>
      <trkpt lat="44.85433" lon="6.95659">
        <ele>2680.2</ele>
        <time>2023-02-16T13:48:11Z</time>
      </trkpt>
      <trkpt lat="44.85432" lon="6.95651">
        <ele>2681.5</ele>
        <time>2023-02-16T13:48:17Z</time>
      </trkpt>
      <trkpt lat="44.85432" lon="6.95649">
        <ele>2681.7</ele>
        <time>2023-02-16T13:48:19Z</time>
      </trkpt>
      <trkpt lat="44.85432" lon="6.95642">
        <ele>2682.5</ele>
        <time>2023-02-16T13:48:24Z</time>
      </trkpt>
      <trkpt lat="44.85431" lon="6.9563">
        <ele>2686</ele>
        <time>2023-02-16T13:48:33Z</time>
      </trkpt>
      <trkpt lat="44.85432" lon="6.95624">
        <ele>2687.4</ele>
        <time>2023-02-16T13:48:38Z</time>
      </trkpt>
      <trkpt lat="44.85433" lon="6.95616">
        <ele>2689.4</ele>
        <time>2023-02-16T13:48:46Z</time>
      </trkpt>
      <trkpt lat="44.85433" lon="6.95615">
        <ele>2689.7</ele>
        <time>2023-02-16T13:48:56Z</time>
      </trkpt>
      <trkpt lat="44.85434" lon="6.95611">
        <ele>2690.5</ele>
        <time>2023-02-16T13:49:03Z</time>
      </trkpt>
      <trkpt lat="44.85436" lon="6.95607">
        <ele>2690.8</ele>
        <time>2023-02-16T13:49:07Z</time>
      </trkpt>
      <trkpt lat="44.85439" lon="6.956">
        <ele>2691.9</ele>
        <time>2023-02-16T13:49:14Z</time>
      </trkpt>
      <trkpt lat="44.8544" lon="6.95597">
        <ele>2692.6</ele>
        <time>2023-02-16T13:49:17Z</time>
      </trkpt>
      <trkpt lat="44.85441" lon="6.95596">
        <ele>2692.7</ele>
        <time>2023-02-16T13:49:19Z</time>
      </trkpt>
      <trkpt lat="44.85442" lon="6.95595">
        <ele>2692.9</ele>
        <time>2023-02-16T13:49:21Z</time>
      </trkpt>
      <trkpt lat="44.85443" lon="6.95594">
        <ele>2693</ele>
        <time>2023-02-16T13:49:23Z</time>
      </trkpt>
      <trkpt lat="44.85444" lon="6.95594">
        <ele>2692.9</ele>
        <time>2023-02-16T13:49:30Z</time>
      </trkpt>
      <trkpt lat="44.85441" lon="6.95593">
        <ele>2693.8</ele>
        <time>2023-02-16T13:49:36Z</time>
      </trkpt>
      <trkpt lat="44.85439" lon="6.95592">
        <ele>2694.4</ele>
        <time>2023-02-16T13:49:38Z</time>
      </trkpt>
      <trkpt lat="44.85438" lon="6.95592">
        <ele>2694.6</ele>
        <time>2023-02-16T13:49:40Z</time>
      </trkpt>
      <trkpt lat="44.85436" lon="6.95592">
        <ele>2694.9</ele>
        <time>2023-02-16T13:49:42Z</time>
      </trkpt>
      <trkpt lat="44.85435" lon="6.95593">
        <ele>2694.8</ele>
        <time>2023-02-16T13:49:43Z</time>
      </trkpt>
      <trkpt lat="44.85434" lon="6.95593">
        <ele>2695</ele>
        <time>2023-02-16T13:49:47Z</time>
      </trkpt>
      <trkpt lat="44.85434" lon="6.95594">
        <ele>2694.7</ele>
        <time>2023-02-16T13:49:50Z</time>
      </trkpt>
      <trkpt lat="44.85429" lon="6.95593">
        <ele>2695.9</ele>
        <time>2023-02-16T13:50:00Z</time>
      </trkpt>
      <trkpt lat="44.85428" lon="6.95593">
        <ele>2696</ele>
        <time>2023-02-16T13:50:01Z</time>
      </trkpt>
      <trkpt lat="44.85429" lon="6.9559">
        <ele>2696.4</ele>
        <time>2023-02-16T13:50:08Z</time>
      </trkpt>
      <trkpt lat="44.8543" lon="6.95589">
        <ele>2696.4</ele>
        <time>2023-02-16T13:50:09Z</time>
      </trkpt>
      <trkpt lat="44.85431" lon="6.95587">
        <ele>2696.7</ele>
        <time>2023-02-16T13:50:13Z</time>
      </trkpt>
      <trkpt lat="44.85434" lon="6.95582">
        <ele>2697.6</ele>
        <time>2023-02-16T13:50:20Z</time>
      </trkpt>
      <trkpt lat="44.85435" lon="6.95581">
        <ele>2697.8</ele>
        <time>2023-02-16T13:50:22Z</time>
      </trkpt>
      <trkpt lat="44.85436" lon="6.9558">
        <ele>2698</ele>
        <time>2023-02-16T13:50:29Z</time>
      </trkpt>
      <trkpt lat="44.85439" lon="6.95575">
        <ele>2699.1</ele>
        <time>2023-02-16T13:50:36Z</time>
      </trkpt>
      <trkpt lat="44.85442" lon="6.95572">
        <ele>2700.1</ele>
        <time>2023-02-16T13:50:41Z</time>
      </trkpt>
      <trkpt lat="44.85444" lon="6.9557">
        <ele>2700.8</ele>
        <time>2023-02-16T13:50:47Z</time>
      </trkpt>
      <trkpt lat="44.85445" lon="6.95569">
        <ele>2701.3</ele>
        <time>2023-02-16T13:50:51Z</time>
      </trkpt>
      <trkpt lat="44.85444" lon="6.95569">
        <ele>2701.1</ele>
        <time>2023-02-16T13:50:54Z</time>
      </trkpt>
      <trkpt lat="44.85442" lon="6.95568">
        <ele>2701.1</ele>
        <time>2023-02-16T13:51:01Z</time>
      </trkpt>
      <trkpt lat="44.85439" lon="6.95567">
        <ele>2701</ele>
        <time>2023-02-16T13:51:11Z</time>
      </trkpt>
      <trkpt lat="44.85441" lon="6.95565">
        <ele>2701.7</ele>
        <time>2023-02-16T13:51:16Z</time>
      </trkpt>
      <trkpt lat="44.85444" lon="6.95564">
        <ele>2702.5</ele>
        <time>2023-02-16T13:51:23Z</time>
      </trkpt>
      <trkpt lat="44.85445" lon="6.95564">
        <ele>2702.7</ele>
        <time>2023-02-16T13:51:26Z</time>
      </trkpt>
      <trkpt lat="44.85449" lon="6.95563">
        <ele>2704.3</ele>
        <time>2023-02-16T13:51:32Z</time>
      </trkpt>
      <trkpt lat="44.8545" lon="6.95562">
        <ele>2704.9</ele>
        <time>2023-02-16T13:51:34Z</time>
      </trkpt>
      <trkpt lat="44.85452" lon="6.95561">
        <ele>2705.9</ele>
        <time>2023-02-16T13:51:38Z</time>
      </trkpt>
      <trkpt lat="44.85454" lon="6.95561">
        <ele>2706.5</ele>
        <time>2023-02-16T13:51:44Z</time>
      </trkpt>
      <trkpt lat="44.85453" lon="6.95561">
        <ele>2706.2</ele>
        <time>2023-02-16T13:51:47Z</time>
      </trkpt>
      <trkpt lat="44.85449" lon="6.9556">
        <ele>2705.2</ele>
        <time>2023-02-16T13:51:53Z</time>
      </trkpt>
      <trkpt lat="44.85446" lon="6.95559">
        <ele>2704.5</ele>
        <time>2023-02-16T13:52:03Z</time>
      </trkpt>
      <trkpt lat="44.85446" lon="6.9556">
        <ele>2704.2</ele>
        <time>2023-02-16T13:52:16Z</time>
      </trkpt>
      <trkpt lat="44.85445" lon="6.9556">
        <ele>2703.9</ele>
        <time>2023-02-16T13:52:17Z</time>
      </trkpt>
      <trkpt lat="44.85444" lon="6.9556">
        <ele>2703.6</ele>
        <time>2023-02-16T13:52:23Z</time>
      </trkpt>
      <trkpt lat="44.85443" lon="6.95562">
        <ele>2702.9</ele>
        <time>2023-02-16T13:52:31Z</time>
      </trkpt>
      <trkpt lat="44.85444" lon="6.95562">
        <ele>2703.1</ele>
        <time>2023-02-16T13:52:45Z</time>
      </trkpt>
      <trkpt lat="44.85442" lon="6.95563">
        <ele>2702.4</ele>
        <time>2023-02-16T13:52:54Z</time>
      </trkpt>
      <trkpt lat="44.85441" lon="6.95563">
        <ele>2702.3</ele>
        <time>2023-02-16T13:52:57Z</time>
      </trkpt>
      <trkpt lat="44.85439" lon="6.95565">
        <ele>2701.4</ele>
        <time>2023-02-16T13:53:09Z</time>
      </trkpt>
      <trkpt lat="44.85434" lon="6.95567">
        <ele>2700.3</ele>
        <time>2023-02-16T13:53:18Z</time>
      </trkpt>
      <trkpt lat="44.85433" lon="6.95566">
        <ele>2700.3</ele>
        <time>2023-02-16T13:53:31Z</time>
      </trkpt>
      <trkpt lat="44.85433" lon="6.95565">
        <ele>2700.5</ele>
        <time>2023-02-16T13:53:40Z</time>
      </trkpt>
      <trkpt lat="44.85434" lon="6.95565">
        <ele>2700.7</ele>
        <time>2023-02-16T13:53:47Z</time>
      </trkpt>
      <trkpt lat="44.85434" lon="6.95566">
        <ele>2700.5</ele>
        <time>2023-02-16T13:53:50Z</time>
      </trkpt>
      <trkpt lat="44.85436" lon="6.95566">
        <ele>2700.8</ele>
        <time>2023-02-16T13:53:58Z</time>
      </trkpt>
      <trkpt lat="44.85437" lon="6.95567">
        <ele>2700.7</ele>
        <time>2023-02-16T13:54:14Z</time>
      </trkpt>
      <trkpt lat="44.85435" lon="6.95567">
        <ele>2700.4</ele>
        <time>2023-02-16T13:54:27Z</time>
      </trkpt>
      <trkpt lat="44.85436" lon="6.95567">
        <ele>2700.6</ele>
        <time>2023-02-16T13:54:40Z</time>
      </trkpt>
      <trkpt lat="44.85436" lon="6.95567">
        <ele>2700.6</ele>
        <time>2023-02-16T13:54:54Z</time>
      </trkpt>
      <trkpt lat="44.85436" lon="6.95567">
        <ele>2700.6</ele>
        <time>2023-02-16T13:55:02Z</time>
      </trkpt>
      <trkpt lat="44.85436" lon="6.95567">
        <ele>2700.6</ele>
        <time>2023-02-16T13:55:09Z</time>
      </trkpt>
      <trkpt lat="44.85437" lon="6.95567">
        <ele>2700.7</ele>
        <time>2023-02-16T13:55:16Z</time>
      </trkpt>
      <trkpt lat="44.85437" lon="6.95567">
        <ele>2700.7</ele>
        <time>2023-02-16T13:55:24Z</time>
      </trkpt>
      <trkpt lat="44.85437" lon="6.95567">
        <ele>2700.7</ele>
        <time>2023-02-16T13:55:28Z</time>
      </trkpt>
      <trkpt lat="44.85436" lon="6.95566">
        <ele>2700.8</ele>
        <time>2023-02-16T13:55:33Z</time>
      </trkpt>
      <trkpt lat="44.85437" lon="6.95566">
        <ele>2700.9</ele>
        <time>2023-02-16T13:55:40Z</time>
      </trkpt>
      <trkpt lat="44.85438" lon="6.95565">
        <ele>2701.3</ele>
        <time>2023-02-16T13:55:50Z</time>
      </trkpt>
      <trkpt lat="44.85439" lon="6.95566">
        <ele>2701.2</ele>
        <time>2023-02-16T13:56:00Z</time>
      </trkpt>
      <trkpt lat="44.85437" lon="6.95567">
        <ele>2700.7</ele>
        <time>2023-02-16T13:56:12Z</time>
      </trkpt>
      <trkpt lat="44.85436" lon="6.95565">
        <ele>2701</ele>
        <time>2023-02-16T13:56:27Z</time>
      </trkpt>
      <trkpt lat="44.85436" lon="6.95566">
        <ele>2700.8</ele>
        <time>2023-02-16T13:56:41Z</time>
      </trkpt>
      <trkpt lat="44.85437" lon="6.95566">
        <ele>2700.9</ele>
        <time>2023-02-16T13:56:55Z</time>
      </trkpt>
      <trkpt lat="44.85437" lon="6.95566">
        <ele>2700.9</ele>
        <time>2023-02-16T13:57:02Z</time>
      </trkpt>
      <trkpt lat="44.85437" lon="6.95567">
        <ele>2700.7</ele>
        <time>2023-02-16T13:57:15Z</time>
      </trkpt>
      <trkpt lat="44.85436" lon="6.95568">
        <ele>2700.4</ele>
        <time>2023-02-16T13:57:22Z</time>
      </trkpt>
      <trkpt lat="44.85436" lon="6.95568">
        <ele>2700.4</ele>
        <time>2023-02-16T13:57:25Z</time>
      </trkpt>
      <trkpt lat="44.85435" lon="6.9557">
        <ele>2699.9</ele>
        <time>2023-02-16T13:57:41Z</time>
      </trkpt>
      <trkpt lat="44.85434" lon="6.9557">
        <ele>2699.8</ele>
        <time>2023-02-16T13:57:56Z</time>
      </trkpt>
      <trkpt lat="44.85435" lon="6.9557">
        <ele>2699.9</ele>
        <time>2023-02-16T13:58:10Z</time>
      </trkpt>
      <trkpt lat="44.85435" lon="6.95571">
        <ele>2699.7</ele>
        <time>2023-02-16T13:58:17Z</time>
      </trkpt>
      <trkpt lat="44.85435" lon="6.9557">
        <ele>2699.9</ele>
        <time>2023-02-16T13:58:28Z</time>
      </trkpt>
      <trkpt lat="44.85435" lon="6.9557">
        <ele>2699.9</ele>
        <time>2023-02-16T13:58:33Z</time>
      </trkpt>
      <trkpt lat="44.85435" lon="6.95569">
        <ele>2700.1</ele>
        <time>2023-02-16T13:58:47Z</time>
      </trkpt>
      <trkpt lat="44.85434" lon="6.95569">
        <ele>2700</ele>
        <time>2023-02-16T13:59:08Z</time>
      </trkpt>
      <trkpt lat="44.85434" lon="6.95569">
        <ele>2700</ele>
        <time>2023-02-16T13:59:12Z</time>
      </trkpt>
      <trkpt lat="44.85434" lon="6.95569">
        <ele>2700</ele>
        <time>2023-02-16T13:59:21Z</time>
      </trkpt>
      <trkpt lat="44.85434" lon="6.95568">
        <ele>2700.1</ele>
        <time>2023-02-16T13:59:30Z</time>
      </trkpt>
      <trkpt lat="44.85433" lon="6.95567">
        <ele>2700.2</ele>
        <time>2023-02-16T13:59:45Z</time>
      </trkpt>
      <trkpt lat="44.85429" lon="6.95566">
        <ele>2699.8</ele>
        <time>2023-02-16T13:59:51Z</time>
      </trkpt>
      <trkpt lat="44.85425" lon="6.95566">
        <ele>2699.2</ele>
        <time>2023-02-16T13:59:53Z</time>
      </trkpt>
      <trkpt lat="44.85409" lon="6.95569">
        <ele>2697.5</ele>
        <time>2023-02-16T13:59:57Z</time>
      </trkpt>
      <trkpt lat="44.85406" lon="6.9557">
        <ele>2697.5</ele>
        <time>2023-02-16T13:59:58Z</time>
      </trkpt>
      <trkpt lat="44.85404" lon="6.95571">
        <ele>2697.6</ele>
        <time>2023-02-16T13:59:59Z</time>
      </trkpt>
      <trkpt lat="44.85399" lon="6.95573">
        <ele>2697.9</ele>
        <time>2023-02-16T14:00:02Z</time>
      </trkpt>
      <trkpt lat="44.85398" lon="6.95574">
        <ele>2698.2</ele>
        <time>2023-02-16T14:00:03Z</time>
      </trkpt>
      <trkpt lat="44.85397" lon="6.95574">
        <ele>2698.2</ele>
        <time>2023-02-16T14:00:06Z</time>
      </trkpt>
      <trkpt lat="44.85397" lon="6.95574">
        <ele>2698.2</ele>
        <time>2023-02-16T14:00:09Z</time>
      </trkpt>
      <trkpt lat="44.85394" lon="6.95574">
        <ele>2698.2</ele>
        <time>2023-02-16T14:00:18Z</time>
      </trkpt>
      <trkpt lat="44.85391" lon="6.95574">
        <ele>2698.3</ele>
        <time>2023-02-16T14:00:19Z</time>
      </trkpt>
      <trkpt lat="44.85385" lon="6.95574">
        <ele>2697.6</ele>
        <time>2023-02-16T14:00:21Z</time>
      </trkpt>
      <trkpt lat="44.85378" lon="6.95575">
        <ele>2696.8</ele>
        <time>2023-02-16T14:00:23Z</time>
      </trkpt>
      <trkpt lat="44.85374" lon="6.95573">
        <ele>2695.2</ele>
        <time>2023-02-16T14:00:25Z</time>
      </trkpt>
      <trkpt lat="44.85375" lon="6.9557">
        <ele>2694</ele>
        <time>2023-02-16T14:00:26Z</time>
      </trkpt>
      <trkpt lat="44.85377" lon="6.95566">
        <ele>2692.6</ele>
        <time>2023-02-16T14:00:27Z</time>
      </trkpt>
      <trkpt lat="44.85379" lon="6.95564">
        <ele>2692.2</ele>
        <time>2023-02-16T14:00:28Z</time>
      </trkpt>
      <trkpt lat="44.85382" lon="6.9556">
        <ele>2691.1</ele>
        <time>2023-02-16T14:00:30Z</time>
      </trkpt>
      <trkpt lat="44.85384" lon="6.95555">
        <ele>2689.5</ele>
        <time>2023-02-16T14:00:32Z</time>
      </trkpt>
      <trkpt lat="44.85383" lon="6.95555">
        <ele>2689.3</ele>
        <time>2023-02-16T14:00:33Z</time>
      </trkpt>
      <trkpt lat="44.8538" lon="6.95554">
        <ele>2688.1</ele>
        <time>2023-02-16T14:00:34Z</time>
      </trkpt>
      <trkpt lat="44.85357" lon="6.95554">
        <ele>2683.5</ele>
        <time>2023-02-16T14:00:38Z</time>
      </trkpt>
      <trkpt lat="44.85351" lon="6.95554">
        <ele>2683.7</ele>
        <time>2023-02-16T14:00:39Z</time>
      </trkpt>
      <trkpt lat="44.85341" lon="6.95551">
        <ele>2682.7</ele>
        <time>2023-02-16T14:00:41Z</time>
      </trkpt>
      <trkpt lat="44.85331" lon="6.95549">
        <ele>2681.8</ele>
        <time>2023-02-16T14:00:43Z</time>
      </trkpt>
      <trkpt lat="44.85326" lon="6.95548">
        <ele>2681.2</ele>
        <time>2023-02-16T14:00:44Z</time>
      </trkpt>
      <trkpt lat="44.85316" lon="6.95546">
        <ele>2680.1</ele>
        <time>2023-02-16T14:00:46Z</time>
      </trkpt>
      <trkpt lat="44.85301" lon="6.95543">
        <ele>2678.6</ele>
        <time>2023-02-16T14:00:49Z</time>
      </trkpt>
      <trkpt lat="44.85291" lon="6.95542">
        <ele>2677.6</ele>
        <time>2023-02-16T14:00:51Z</time>
      </trkpt>
      <trkpt lat="44.8528" lon="6.95541">
        <ele>2676.4</ele>
        <time>2023-02-16T14:00:53Z</time>
      </trkpt>
      <trkpt lat="44.85266" lon="6.95541">
        <ele>2675.2</ele>
        <time>2023-02-16T14:00:56Z</time>
      </trkpt>
      <trkpt lat="44.85255" lon="6.9554">
        <ele>2673.7</ele>
        <time>2023-02-16T14:00:58Z</time>
      </trkpt>
      <trkpt lat="44.8525" lon="6.95539">
        <ele>2672.8</ele>
        <time>2023-02-16T14:00:59Z</time>
      </trkpt>
      <trkpt lat="44.85244" lon="6.95537">
        <ele>2672.5</ele>
        <time>2023-02-16T14:01:00Z</time>
      </trkpt>
      <trkpt lat="44.85239" lon="6.95535">
        <ele>2672.1</ele>
        <time>2023-02-16T14:01:01Z</time>
      </trkpt>
      <trkpt lat="44.85239" lon="6.95535">
        <ele>2672.1</ele>
        <time>2023-02-16T14:01:02Z</time>
      </trkpt>
      <trkpt lat="44.85222" lon="6.95526">
        <ele>2670.2</ele>
        <time>2023-02-16T14:01:05Z</time>
      </trkpt>
      <trkpt lat="44.85215" lon="6.95522">
        <ele>2669.2</ele>
        <time>2023-02-16T14:01:07Z</time>
      </trkpt>
      <trkpt lat="44.85206" lon="6.95517">
        <ele>2668.2</ele>
        <time>2023-02-16T14:01:10Z</time>
      </trkpt>
      <trkpt lat="44.85198" lon="6.95513">
        <ele>2667.8</ele>
        <time>2023-02-16T14:01:13Z</time>
      </trkpt>
      <trkpt lat="44.85196" lon="6.95512">
        <ele>2667.7</ele>
        <time>2023-02-16T14:01:14Z</time>
      </trkpt>
      <trkpt lat="44.85187" lon="6.95509">
        <ele>2666.5</ele>
        <time>2023-02-16T14:01:19Z</time>
      </trkpt>
      <trkpt lat="44.8518" lon="6.95508">
        <ele>2665.6</ele>
        <time>2023-02-16T14:01:23Z</time>
      </trkpt>
      <trkpt lat="44.85169" lon="6.95507">
        <ele>2664.4</ele>
        <time>2023-02-16T14:01:27Z</time>
      </trkpt>
      <trkpt lat="44.85165" lon="6.95507">
        <ele>2663.9</ele>
        <time>2023-02-16T14:01:28Z</time>
      </trkpt>
      <trkpt lat="44.85154" lon="6.95508">
        <ele>2661.9</ele>
        <time>2023-02-16T14:01:31Z</time>
      </trkpt>
      <trkpt lat="44.85147" lon="6.9551">
        <ele>2661.2</ele>
        <time>2023-02-16T14:01:33Z</time>
      </trkpt>
      <trkpt lat="44.85142" lon="6.95511">
        <ele>2660.5</ele>
        <time>2023-02-16T14:01:35Z</time>
      </trkpt>
      <trkpt lat="44.85138" lon="6.95512">
        <ele>2659.9</ele>
        <time>2023-02-16T14:01:36Z</time>
      </trkpt>
      <trkpt lat="44.85133" lon="6.95515">
        <ele>2659.4</ele>
        <time>2023-02-16T14:01:38Z</time>
      </trkpt>
      <trkpt lat="44.8513" lon="6.95517">
        <ele>2659.1</ele>
        <time>2023-02-16T14:01:40Z</time>
      </trkpt>
      <trkpt lat="44.85129" lon="6.95518">
        <ele>2659.2</ele>
        <time>2023-02-16T14:01:41Z</time>
      </trkpt>
      <trkpt lat="44.85128" lon="6.95518">
        <ele>2658.9</ele>
        <time>2023-02-16T14:01:46Z</time>
      </trkpt>
      <trkpt lat="44.85128" lon="6.95518">
        <ele>2658.9</ele>
        <time>2023-02-16T14:01:50Z</time>
      </trkpt>
      <trkpt lat="44.85129" lon="6.95517">
        <ele>2658.8</ele>
        <time>2023-02-16T14:01:58Z</time>
      </trkpt>
      <trkpt lat="44.85129" lon="6.95517">
        <ele>2658.8</ele>
        <time>2023-02-16T14:02:16Z</time>
      </trkpt>
      <trkpt lat="44.85124" lon="6.95519">
        <ele>2657.8</ele>
        <time>2023-02-16T14:02:19Z</time>
      </trkpt>
      <trkpt lat="44.85121" lon="6.95521">
        <ele>2657.6</ele>
        <time>2023-02-16T14:02:20Z</time>
      </trkpt>
      <trkpt lat="44.85101" lon="6.95532">
        <ele>2655</ele>
        <time>2023-02-16T14:02:24Z</time>
      </trkpt>
      <trkpt lat="44.8509" lon="6.95536">
        <ele>2652.8</ele>
        <time>2023-02-16T14:02:26Z</time>
      </trkpt>
      <trkpt lat="44.85077" lon="6.95539">
        <ele>2650.7</ele>
        <time>2023-02-16T14:02:28Z</time>
      </trkpt>
      <trkpt lat="44.8507" lon="6.9554">
        <ele>2650</ele>
        <time>2023-02-16T14:02:29Z</time>
      </trkpt>
      <trkpt lat="44.85055" lon="6.9554">
        <ele>2647.9</ele>
        <time>2023-02-16T14:02:31Z</time>
      </trkpt>
      <trkpt lat="44.85043" lon="6.9554">
        <ele>2647.3</ele>
        <time>2023-02-16T14:02:33Z</time>
      </trkpt>
      <trkpt lat="44.85039" lon="6.9554">
        <ele>2647</ele>
        <time>2023-02-16T14:02:34Z</time>
      </trkpt>
      <trkpt lat="44.85036" lon="6.95541">
        <ele>2647.2</ele>
        <time>2023-02-16T14:02:35Z</time>
      </trkpt>
      <trkpt lat="44.85034" lon="6.95541">
        <ele>2647.1</ele>
        <time>2023-02-16T14:02:36Z</time>
      </trkpt>
      <trkpt lat="44.85032" lon="6.9554">
        <ele>2646.6</ele>
        <time>2023-02-16T14:02:37Z</time>
      </trkpt>
      <trkpt lat="44.85028" lon="6.95539">
        <ele>2646.1</ele>
        <time>2023-02-16T14:02:38Z</time>
      </trkpt>
      <trkpt lat="44.85025" lon="6.95539">
        <ele>2645.6</ele>
        <time>2023-02-16T14:02:39Z</time>
      </trkpt>
      <trkpt lat="44.85015" lon="6.95541">
        <ele>2644.9</ele>
        <time>2023-02-16T14:02:41Z</time>
      </trkpt>
      <trkpt lat="44.85009" lon="6.95542">
        <ele>2644.4</ele>
        <time>2023-02-16T14:02:42Z</time>
      </trkpt>
      <trkpt lat="44.84999" lon="6.95544">
        <ele>2643.6</ele>
        <time>2023-02-16T14:02:44Z</time>
      </trkpt>
      <trkpt lat="44.8499" lon="6.95545">
        <ele>2642</ele>
        <time>2023-02-16T14:02:46Z</time>
      </trkpt>
      <trkpt lat="44.84986" lon="6.95546">
        <ele>2641.4</ele>
        <time>2023-02-16T14:02:47Z</time>
      </trkpt>
      <trkpt lat="44.84979" lon="6.95549">
        <ele>2640.7</ele>
        <time>2023-02-16T14:02:49Z</time>
      </trkpt>
      <trkpt lat="44.84973" lon="6.95551">
        <ele>2639.9</ele>
        <time>2023-02-16T14:02:51Z</time>
      </trkpt>
      <trkpt lat="44.84959" lon="6.95555">
        <ele>2637.5</ele>
        <time>2023-02-16T14:02:56Z</time>
      </trkpt>
      <trkpt lat="44.84955" lon="6.95557">
        <ele>2637.1</ele>
        <time>2023-02-16T14:02:57Z</time>
      </trkpt>
      <trkpt lat="44.84947" lon="6.95562">
        <ele>2636.5</ele>
        <time>2023-02-16T14:02:59Z</time>
      </trkpt>
      <trkpt lat="44.84939" lon="6.95567">
        <ele>2635.7</ele>
        <time>2023-02-16T14:03:01Z</time>
      </trkpt>
      <trkpt lat="44.84936" lon="6.9557">
        <ele>2635.7</ele>
        <time>2023-02-16T14:03:02Z</time>
      </trkpt>
      <trkpt lat="44.84933" lon="6.95572">
        <ele>2635.4</ele>
        <time>2023-02-16T14:03:03Z</time>
      </trkpt>
      <trkpt lat="44.84929" lon="6.95575">
        <ele>2635.2</ele>
        <time>2023-02-16T14:03:06Z</time>
      </trkpt>
      <trkpt lat="44.84929" lon="6.95576">
        <ele>2635.4</ele>
        <time>2023-02-16T14:03:11Z</time>
      </trkpt>
      <trkpt lat="44.84929" lon="6.95576">
        <ele>2635.4</ele>
        <time>2023-02-16T14:03:13Z</time>
      </trkpt>
      <trkpt lat="44.84929" lon="6.95576">
        <ele>2635.4</ele>
        <time>2023-02-16T14:03:29Z</time>
      </trkpt>
      <trkpt lat="44.84928" lon="6.95575">
        <ele>2634.9</ele>
        <time>2023-02-16T14:03:39Z</time>
      </trkpt>
      <trkpt lat="44.84923" lon="6.95579">
        <ele>2634.6</ele>
        <time>2023-02-16T14:03:47Z</time>
      </trkpt>
      <trkpt lat="44.84913" lon="6.95588">
        <ele>2634</ele>
        <time>2023-02-16T14:03:50Z</time>
      </trkpt>
      <trkpt lat="44.84909" lon="6.95593">
        <ele>2633.9</ele>
        <time>2023-02-16T14:03:51Z</time>
      </trkpt>
      <trkpt lat="44.84899" lon="6.95605">
        <ele>2633.2</ele>
        <time>2023-02-16T14:03:53Z</time>
      </trkpt>
      <trkpt lat="44.84895" lon="6.9561">
        <ele>2633</ele>
        <time>2023-02-16T14:03:54Z</time>
      </trkpt>
      <trkpt lat="44.84895" lon="6.9561">
        <ele>2633</ele>
        <time>2023-02-16T14:03:55Z</time>
      </trkpt>
      <trkpt lat="44.84889" lon="6.95615">
        <ele>2632.2</ele>
        <time>2023-02-16T14:03:57Z</time>
      </trkpt>
      <trkpt lat="44.84878" lon="6.95624">
        <ele>2629</ele>
        <time>2023-02-16T14:04:04Z</time>
      </trkpt>
      <trkpt lat="44.84876" lon="6.95628">
        <ele>2629.1</ele>
        <time>2023-02-16T14:04:06Z</time>
      </trkpt>
      <trkpt lat="44.84876" lon="6.95629">
        <ele>2629.4</ele>
        <time>2023-02-16T14:04:08Z</time>
      </trkpt>
      <trkpt lat="44.84875" lon="6.9563">
        <ele>2629.1</ele>
        <time>2023-02-16T14:04:18Z</time>
      </trkpt>
      <trkpt lat="44.84875" lon="6.9563">
        <ele>2629.1</ele>
        <time>2023-02-16T14:04:27Z</time>
      </trkpt>
      <trkpt lat="44.84874" lon="6.95627">
        <ele>2627.8</ele>
        <time>2023-02-16T14:04:33Z</time>
      </trkpt>
      <trkpt lat="44.84875" lon="6.95622">
        <ele>2626.9</ele>
        <time>2023-02-16T14:04:34Z</time>
      </trkpt>
      <trkpt lat="44.84875" lon="6.95616">
        <ele>2625.3</ele>
        <time>2023-02-16T14:04:35Z</time>
      </trkpt>
      <trkpt lat="44.84876" lon="6.95611">
        <ele>2624.5</ele>
        <time>2023-02-16T14:04:36Z</time>
      </trkpt>
      <trkpt lat="44.84877" lon="6.95605">
        <ele>2623.8</ele>
        <time>2023-02-16T14:04:37Z</time>
      </trkpt>
      <trkpt lat="44.84878" lon="6.95598">
        <ele>2622.9</ele>
        <time>2023-02-16T14:04:38Z</time>
      </trkpt>
      <trkpt lat="44.84877" lon="6.9559">
        <ele>2620.8</ele>
        <time>2023-02-16T14:04:39Z</time>
      </trkpt>
      <trkpt lat="44.84877" lon="6.95584">
        <ele>2619.6</ele>
        <time>2023-02-16T14:04:40Z</time>
      </trkpt>
      <trkpt lat="44.84876" lon="6.95578">
        <ele>2617.9</ele>
        <time>2023-02-16T14:04:41Z</time>
      </trkpt>
      <trkpt lat="44.84873" lon="6.95568">
        <ele>2614.6</ele>
        <time>2023-02-16T14:04:43Z</time>
      </trkpt>
      <trkpt lat="44.8487" lon="6.95566">
        <ele>2612.8</ele>
        <time>2023-02-16T14:04:44Z</time>
      </trkpt>
      <trkpt lat="44.84863" lon="6.9556">
        <ele>2608.6</ele>
        <time>2023-02-16T14:04:46Z</time>
      </trkpt>
      <trkpt lat="44.84859" lon="6.95558">
        <ele>2606.1</ele>
        <time>2023-02-16T14:04:47Z</time>
      </trkpt>
      <trkpt lat="44.84852" lon="6.95554">
        <ele>2600.8</ele>
        <time>2023-02-16T14:04:49Z</time>
      </trkpt>
      <trkpt lat="44.84849" lon="6.95554">
        <ele>2598.8</ele>
        <time>2023-02-16T14:04:50Z</time>
      </trkpt>
      <trkpt lat="44.84846" lon="6.95551">
        <ele>2596.3</ele>
        <time>2023-02-16T14:04:51Z</time>
      </trkpt>
      <trkpt lat="44.84842" lon="6.95549">
        <ele>2593.4</ele>
        <time>2023-02-16T14:04:52Z</time>
      </trkpt>
      <trkpt lat="44.84838" lon="6.95549">
        <ele>2590.8</ele>
        <time>2023-02-16T14:04:53Z</time>
      </trkpt>
      <trkpt lat="44.84826" lon="6.95545">
        <ele>2581.9</ele>
        <time>2023-02-16T14:04:56Z</time>
      </trkpt>
      <trkpt lat="44.84822" lon="6.95542">
        <ele>2578.6</ele>
        <time>2023-02-16T14:04:57Z</time>
      </trkpt>
      <trkpt lat="44.8482" lon="6.95538">
        <ele>2576.5</ele>
        <time>2023-02-16T14:04:58Z</time>
      </trkpt>
      <trkpt lat="44.84817" lon="6.95535">
        <ele>2574</ele>
        <time>2023-02-16T14:04:59Z</time>
      </trkpt>
      <trkpt lat="44.84813" lon="6.95532">
        <ele>2570.7</ele>
        <time>2023-02-16T14:05:00Z</time>
      </trkpt>
      <trkpt lat="44.8481" lon="6.95527">
        <ele>2567.9</ele>
        <time>2023-02-16T14:05:01Z</time>
      </trkpt>
      <trkpt lat="44.8481" lon="6.95527">
        <ele>2567.9</ele>
        <time>2023-02-16T14:05:02Z</time>
      </trkpt>
      <trkpt lat="44.84805" lon="6.95512">
        <ele>2562.3</ele>
        <time>2023-02-16T14:05:04Z</time>
      </trkpt>
      <trkpt lat="44.84802" lon="6.95511">
        <ele>2560</ele>
        <time>2023-02-16T14:05:05Z</time>
      </trkpt>
      <trkpt lat="44.84798" lon="6.95507">
        <ele>2556.6</ele>
        <time>2023-02-16T14:05:06Z</time>
      </trkpt>
      <trkpt lat="44.84794" lon="6.95504">
        <ele>2553.3</ele>
        <time>2023-02-16T14:05:07Z</time>
      </trkpt>
      <trkpt lat="44.84788" lon="6.95505">
        <ele>2549.1</ele>
        <time>2023-02-16T14:05:08Z</time>
      </trkpt>
      <trkpt lat="44.84783" lon="6.95507">
        <ele>2545.8</ele>
        <time>2023-02-16T14:05:09Z</time>
      </trkpt>
      <trkpt lat="44.84779" lon="6.95504">
        <ele>2542.5</ele>
        <time>2023-02-16T14:05:10Z</time>
      </trkpt>
      <trkpt lat="44.84776" lon="6.95497">
        <ele>2539.6</ele>
        <time>2023-02-16T14:05:11Z</time>
      </trkpt>
      <trkpt lat="44.84774" lon="6.95491">
        <ele>2537.8</ele>
        <time>2023-02-16T14:05:12Z</time>
      </trkpt>
      <trkpt lat="44.84769" lon="6.95489">
        <ele>2534.6</ele>
        <time>2023-02-16T14:05:13Z</time>
      </trkpt>
      <trkpt lat="44.84765" lon="6.95489">
        <ele>2532.3</ele>
        <time>2023-02-16T14:05:14Z</time>
      </trkpt>
      <trkpt lat="44.8476" lon="6.95485">
        <ele>2528.8</ele>
        <time>2023-02-16T14:05:15Z</time>
      </trkpt>
      <trkpt lat="44.84757" lon="6.95479">
        <ele>2526.2</ele>
        <time>2023-02-16T14:05:16Z</time>
      </trkpt>
      <trkpt lat="44.84753" lon="6.95473">
        <ele>2522.9</ele>
        <time>2023-02-16T14:05:17Z</time>
      </trkpt>
      <trkpt lat="44.84747" lon="6.95472">
        <ele>2519.6</ele>
        <time>2023-02-16T14:05:18Z</time>
      </trkpt>
      <trkpt lat="44.84742" lon="6.95477">
        <ele>2517.9</ele>
        <time>2023-02-16T14:05:19Z</time>
      </trkpt>
      <trkpt lat="44.84736" lon="6.95485">
        <ele>2516.1</ele>
        <time>2023-02-16T14:05:20Z</time>
      </trkpt>
      <trkpt lat="44.84732" lon="6.95494">
        <ele>2515.2</ele>
        <time>2023-02-16T14:05:21Z</time>
      </trkpt>
      <trkpt lat="44.84729" lon="6.95502">
        <ele>2514.7</ele>
        <time>2023-02-16T14:05:22Z</time>
      </trkpt>
      <trkpt lat="44.84726" lon="6.95509">
        <ele>2514.2</ele>
        <time>2023-02-16T14:05:23Z</time>
      </trkpt>
      <trkpt lat="44.84723" lon="6.95517">
        <ele>2513.8</ele>
        <time>2023-02-16T14:05:25Z</time>
      </trkpt>
      <trkpt lat="44.84719" lon="6.95524">
        <ele>2513.3</ele>
        <time>2023-02-16T14:05:27Z</time>
      </trkpt>
      <trkpt lat="44.84716" lon="6.9553">
        <ele>2513.1</ele>
        <time>2023-02-16T14:05:29Z</time>
      </trkpt>
      <trkpt lat="44.84715" lon="6.95535">
        <ele>2513.6</ele>
        <time>2023-02-16T14:05:32Z</time>
      </trkpt>
      <trkpt lat="44.84714" lon="6.95533">
        <ele>2512.9</ele>
        <time>2023-02-16T14:05:35Z</time>
      </trkpt>
      <trkpt lat="44.84716" lon="6.95533">
        <ele>2513.6</ele>
        <time>2023-02-16T14:05:46Z</time>
      </trkpt>
      <trkpt lat="44.84715" lon="6.95534">
        <ele>2513.4</ele>
        <time>2023-02-16T14:06:02Z</time>
      </trkpt>
      <trkpt lat="44.84714" lon="6.9553">
        <ele>2512.4</ele>
        <time>2023-02-16T14:06:15Z</time>
      </trkpt>
      <trkpt lat="44.84712" lon="6.95527">
        <ele>2511.2</ele>
        <time>2023-02-16T14:06:16Z</time>
      </trkpt>
      <trkpt lat="44.84707" lon="6.95529">
        <ele>2509.7</ele>
        <time>2023-02-16T14:06:18Z</time>
      </trkpt>
      <trkpt lat="44.84702" lon="6.95534">
        <ele>2508.5</ele>
        <time>2023-02-16T14:06:19Z</time>
      </trkpt>
      <trkpt lat="44.84692" lon="6.95547">
        <ele>2506.1</ele>
        <time>2023-02-16T14:06:21Z</time>
      </trkpt>
      <trkpt lat="44.84686" lon="6.95551">
        <ele>2504.1</ele>
        <time>2023-02-16T14:06:22Z</time>
      </trkpt>
      <trkpt lat="44.8468" lon="6.95553">
        <ele>2501.9</ele>
        <time>2023-02-16T14:06:23Z</time>
      </trkpt>
      <trkpt lat="44.84673" lon="6.95555">
        <ele>2499.4</ele>
        <time>2023-02-16T14:06:24Z</time>
      </trkpt>
      <trkpt lat="44.84667" lon="6.95553">
        <ele>2496.7</ele>
        <time>2023-02-16T14:06:25Z</time>
      </trkpt>
      <trkpt lat="44.84661" lon="6.95552">
        <ele>2494</ele>
        <time>2023-02-16T14:06:26Z</time>
      </trkpt>
      <trkpt lat="44.84655" lon="6.95551">
        <ele>2491.3</ele>
        <time>2023-02-16T14:06:27Z</time>
      </trkpt>
      <trkpt lat="44.84648" lon="6.9555">
        <ele>2488.3</ele>
        <time>2023-02-16T14:06:28Z</time>
      </trkpt>
      <trkpt lat="44.84642" lon="6.9555">
        <ele>2485.9</ele>
        <time>2023-02-16T14:06:29Z</time>
      </trkpt>
      <trkpt lat="44.84635" lon="6.9555">
        <ele>2482.7</ele>
        <time>2023-02-16T14:06:30Z</time>
      </trkpt>
      <trkpt lat="44.84629" lon="6.95549">
        <ele>2479.6</ele>
        <time>2023-02-16T14:06:31Z</time>
      </trkpt>
      <trkpt lat="44.84624" lon="6.95546">
        <ele>2477</ele>
        <time>2023-02-16T14:06:32Z</time>
      </trkpt>
      <trkpt lat="44.84618" lon="6.95546">
        <ele>2474</ele>
        <time>2023-02-16T14:06:33Z</time>
      </trkpt>
      <trkpt lat="44.84612" lon="6.95544">
        <ele>2471</ele>
        <time>2023-02-16T14:06:34Z</time>
      </trkpt>
      <trkpt lat="44.84607" lon="6.95541">
        <ele>2468.4</ele>
        <time>2023-02-16T14:06:35Z</time>
      </trkpt>
      <trkpt lat="44.84603" lon="6.95541">
        <ele>2466.4</ele>
        <time>2023-02-16T14:06:36Z</time>
      </trkpt>
      <trkpt lat="44.84597" lon="6.95543">
        <ele>2463.4</ele>
        <time>2023-02-16T14:06:37Z</time>
      </trkpt>
      <trkpt lat="44.84591" lon="6.95543">
        <ele>2460.4</ele>
        <time>2023-02-16T14:06:38Z</time>
      </trkpt>
      <trkpt lat="44.84585" lon="6.9554">
        <ele>2457.3</ele>
        <time>2023-02-16T14:06:39Z</time>
      </trkpt>
      <trkpt lat="44.8458" lon="6.95537">
        <ele>2454.7</ele>
        <time>2023-02-16T14:06:40Z</time>
      </trkpt>
      <trkpt lat="44.84574" lon="6.95537">
        <ele>2451.7</ele>
        <time>2023-02-16T14:06:41Z</time>
      </trkpt>
      <trkpt lat="44.84568" lon="6.95535">
        <ele>2448.7</ele>
        <time>2023-02-16T14:06:42Z</time>
      </trkpt>
      <trkpt lat="44.84563" lon="6.95533">
        <ele>2446.1</ele>
        <time>2023-02-16T14:06:43Z</time>
      </trkpt>
      <trkpt lat="44.84557" lon="6.95535">
        <ele>2443.2</ele>
        <time>2023-02-16T14:06:44Z</time>
      </trkpt>
      <trkpt lat="44.84553" lon="6.95542">
        <ele>2441.9</ele>
        <time>2023-02-16T14:06:45Z</time>
      </trkpt>
      <trkpt lat="44.84548" lon="6.95547">
        <ele>2440.1</ele>
        <time>2023-02-16T14:06:46Z</time>
      </trkpt>
      <trkpt lat="44.84544" lon="6.95545">
        <ele>2438.2</ele>
        <time>2023-02-16T14:06:47Z</time>
      </trkpt>
      <trkpt lat="44.8454" lon="6.95539">
        <ele>2436.1</ele>
        <time>2023-02-16T14:06:48Z</time>
      </trkpt>
      <trkpt lat="44.84539" lon="6.9553">
        <ele>2435</ele>
        <time>2023-02-16T14:06:49Z</time>
      </trkpt>
      <trkpt lat="44.84538" lon="6.95519">
        <ele>2433.7</ele>
        <time>2023-02-16T14:06:50Z</time>
      </trkpt>
      <trkpt lat="44.84538" lon="6.9551">
        <ele>2433</ele>
        <time>2023-02-16T14:06:51Z</time>
      </trkpt>
      <trkpt lat="44.84536" lon="6.95504">
        <ele>2431.5</ele>
        <time>2023-02-16T14:06:52Z</time>
      </trkpt>
      <trkpt lat="44.84528" lon="6.95495">
        <ele>2426.8</ele>
        <time>2023-02-16T14:06:54Z</time>
      </trkpt>
      <trkpt lat="44.84525" lon="6.95489">
        <ele>2424.9</ele>
        <time>2023-02-16T14:06:55Z</time>
      </trkpt>
      <trkpt lat="44.84521" lon="6.95485">
        <ele>2422.7</ele>
        <time>2023-02-16T14:06:56Z</time>
      </trkpt>
      <trkpt lat="44.84517" lon="6.9548">
        <ele>2420.5</ele>
        <time>2023-02-16T14:06:57Z</time>
      </trkpt>
      <trkpt lat="44.84513" lon="6.95475">
        <ele>2418.3</ele>
        <time>2023-02-16T14:06:58Z</time>
      </trkpt>
      <trkpt lat="44.84508" lon="6.95473">
        <ele>2415.8</ele>
        <time>2023-02-16T14:06:59Z</time>
      </trkpt>
      <trkpt lat="44.84503" lon="6.95469">
        <ele>2413.2</ele>
        <time>2023-02-16T14:07:00Z</time>
      </trkpt>
      <trkpt lat="44.84498" lon="6.95464">
        <ele>2410.5</ele>
        <time>2023-02-16T14:07:01Z</time>
      </trkpt>
      <trkpt lat="44.84495" lon="6.95459">
        <ele>2408.8</ele>
        <time>2023-02-16T14:07:02Z</time>
      </trkpt>
      <trkpt lat="44.84489" lon="6.95459">
        <ele>2406.1</ele>
        <time>2023-02-16T14:07:03Z</time>
      </trkpt>
      <trkpt lat="44.84484" lon="6.95458">
        <ele>2403.8</ele>
        <time>2023-02-16T14:07:04Z</time>
      </trkpt>
      <trkpt lat="44.84479" lon="6.95453">
        <ele>2401</ele>
        <time>2023-02-16T14:07:05Z</time>
      </trkpt>
      <trkpt lat="44.84475" lon="6.95446">
        <ele>2398.5</ele>
        <time>2023-02-16T14:07:06Z</time>
      </trkpt>
      <trkpt lat="44.84471" lon="6.95443">
        <ele>2396.2</ele>
        <time>2023-02-16T14:07:07Z</time>
      </trkpt>
      <trkpt lat="44.84467" lon="6.95444">
        <ele>2394.5</ele>
        <time>2023-02-16T14:07:08Z</time>
      </trkpt>
      <trkpt lat="44.84465" lon="6.95449">
        <ele>2394.1</ele>
        <time>2023-02-16T14:07:09Z</time>
      </trkpt>
      <trkpt lat="44.84462" lon="6.95453">
        <ele>2393.1</ele>
        <time>2023-02-16T14:07:10Z</time>
      </trkpt>
      <trkpt lat="44.8446" lon="6.95458">
        <ele>2392.7</ele>
        <time>2023-02-16T14:07:11Z</time>
      </trkpt>
      <trkpt lat="44.84458" lon="6.95462">
        <ele>2392.2</ele>
        <time>2023-02-16T14:07:12Z</time>
      </trkpt>
      <trkpt lat="44.84457" lon="6.95466">
        <ele>2392.2</ele>
        <time>2023-02-16T14:07:13Z</time>
      </trkpt>
      <trkpt lat="44.84456" lon="6.95471">
        <ele>2392.3</ele>
        <time>2023-02-16T14:07:14Z</time>
      </trkpt>
      <trkpt lat="44.84455" lon="6.95476">
        <ele>2392.3</ele>
        <time>2023-02-16T14:07:16Z</time>
      </trkpt>
      <trkpt lat="44.84453" lon="6.95477">
        <ele>2391.5</ele>
        <time>2023-02-16T14:07:18Z</time>
      </trkpt>
      <trkpt lat="44.84454" lon="6.95477">
        <ele>2391.9</ele>
        <time>2023-02-16T14:07:19Z</time>
      </trkpt>
      <trkpt lat="44.84455" lon="6.95478">
        <ele>2392.5</ele>
        <time>2023-02-16T14:07:20Z</time>
      </trkpt>
      <trkpt lat="44.84455" lon="6.9548">
        <ele>2392.7</ele>
        <time>2023-02-16T14:07:23Z</time>
      </trkpt>
      <trkpt lat="44.84455" lon="6.95481">
        <ele>2392.8</ele>
        <time>2023-02-16T14:07:24Z</time>
      </trkpt>
      <trkpt lat="44.84455" lon="6.95486">
        <ele>2393.2</ele>
        <time>2023-02-16T14:07:37Z</time>
      </trkpt>
      <trkpt lat="44.84454" lon="6.95487">
        <ele>2392.9</ele>
        <time>2023-02-16T14:07:50Z</time>
      </trkpt>
      <trkpt lat="44.84448" lon="6.95486">
        <ele>2390.1</ele>
        <time>2023-02-16T14:07:59Z</time>
      </trkpt>
      <trkpt lat="44.84439" lon="6.95488">
        <ele>2386.4</ele>
        <time>2023-02-16T14:08:01Z</time>
      </trkpt>
      <trkpt lat="44.84434" lon="6.95487">
        <ele>2384.1</ele>
        <time>2023-02-16T14:08:02Z</time>
      </trkpt>
      <trkpt lat="44.84428" lon="6.95487">
        <ele>2381.5</ele>
        <time>2023-02-16T14:08:03Z</time>
      </trkpt>
      <trkpt lat="44.84423" lon="6.95487">
        <ele>2379.3</ele>
        <time>2023-02-16T14:08:04Z</time>
      </trkpt>
      <trkpt lat="44.84418" lon="6.95484">
        <ele>2376.8</ele>
        <time>2023-02-16T14:08:05Z</time>
      </trkpt>
      <trkpt lat="44.84408" lon="6.95478">
        <ele>2371.3</ele>
        <time>2023-02-16T14:08:07Z</time>
      </trkpt>
      <trkpt lat="44.84405" lon="6.9548">
        <ele>2370</ele>
        <time>2023-02-16T14:08:08Z</time>
      </trkpt>
      <trkpt lat="44.84403" lon="6.95484">
        <ele>2369.4</ele>
        <time>2023-02-16T14:08:09Z</time>
      </trkpt>
      <trkpt lat="44.84401" lon="6.95487">
        <ele>2368.7</ele>
        <time>2023-02-16T14:08:10Z</time>
      </trkpt>
      <trkpt lat="44.84399" lon="6.95491">
        <ele>2368.1</ele>
        <time>2023-02-16T14:08:11Z</time>
      </trkpt>
      <trkpt lat="44.84398" lon="6.95494">
        <ele>2367.9</ele>
        <time>2023-02-16T14:08:12Z</time>
      </trkpt>
      <trkpt lat="44.84397" lon="6.95496">
        <ele>2367.7</ele>
        <time>2023-02-16T14:08:13Z</time>
      </trkpt>
      <trkpt lat="44.84393" lon="6.95501">
        <ele>2366.1</ele>
        <time>2023-02-16T14:08:15Z</time>
      </trkpt>
      <trkpt lat="44.84391" lon="6.95507">
        <ele>2365.6</ele>
        <time>2023-02-16T14:08:17Z</time>
      </trkpt>
      <trkpt lat="44.84388" lon="6.95517">
        <ele>2364.8</ele>
        <time>2023-02-16T14:08:19Z</time>
      </trkpt>
      <trkpt lat="44.84384" lon="6.9553">
        <ele>2363.9</ele>
        <time>2023-02-16T14:08:21Z</time>
      </trkpt>
      <trkpt lat="44.84382" lon="6.95537">
        <ele>2363.7</ele>
        <time>2023-02-16T14:08:22Z</time>
      </trkpt>
      <trkpt lat="44.8438" lon="6.95543">
        <ele>2363.3</ele>
        <time>2023-02-16T14:08:23Z</time>
      </trkpt>
      <trkpt lat="44.84377" lon="6.9555">
        <ele>2362.5</ele>
        <time>2023-02-16T14:08:24Z</time>
      </trkpt>
      <trkpt lat="44.84373" lon="6.95553">
        <ele>2360.8</ele>
        <time>2023-02-16T14:08:25Z</time>
      </trkpt>
      <trkpt lat="44.8437" lon="6.95551">
        <ele>2359.1</ele>
        <time>2023-02-16T14:08:26Z</time>
      </trkpt>
      <trkpt lat="44.84367" lon="6.95544">
        <ele>2357</ele>
        <time>2023-02-16T14:08:27Z</time>
      </trkpt>
      <trkpt lat="44.84363" lon="6.95539">
        <ele>2354.7</ele>
        <time>2023-02-16T14:08:28Z</time>
      </trkpt>
      <trkpt lat="44.8436" lon="6.95533">
        <ele>2352.9</ele>
        <time>2023-02-16T14:08:29Z</time>
      </trkpt>
      <trkpt lat="44.84356" lon="6.95528">
        <ele>2350.8</ele>
        <time>2023-02-16T14:08:30Z</time>
      </trkpt>
      <trkpt lat="44.84351" lon="6.95525">
        <ele>2348.3</ele>
        <time>2023-02-16T14:08:31Z</time>
      </trkpt>
      <trkpt lat="44.84345" lon="6.95524">
        <ele>2345.6</ele>
        <time>2023-02-16T14:08:32Z</time>
      </trkpt>
      <trkpt lat="44.8434" lon="6.95521">
        <ele>2343.1</ele>
        <time>2023-02-16T14:08:33Z</time>
      </trkpt>
      <trkpt lat="44.84335" lon="6.95517">
        <ele>2340.6</ele>
        <time>2023-02-16T14:08:34Z</time>
      </trkpt>
      <trkpt lat="44.8433" lon="6.95516">
        <ele>2338.3</ele>
        <time>2023-02-16T14:08:35Z</time>
      </trkpt>
      <trkpt lat="44.84325" lon="6.95517">
        <ele>2336.2</ele>
        <time>2023-02-16T14:08:36Z</time>
      </trkpt>
      <trkpt lat="44.84322" lon="6.95514">
        <ele>2334.4</ele>
        <time>2023-02-16T14:08:37Z</time>
      </trkpt>
      <trkpt lat="44.84321" lon="6.95509">
        <ele>2333.2</ele>
        <time>2023-02-16T14:08:38Z</time>
      </trkpt>
      <trkpt lat="44.84321" lon="6.95503">
        <ele>2332.3</ele>
        <time>2023-02-16T14:08:39Z</time>
      </trkpt>
      <trkpt lat="44.84321" lon="6.95495">
        <ele>2331</ele>
        <time>2023-02-16T14:08:40Z</time>
      </trkpt>
      <trkpt lat="44.84321" lon="6.95487">
        <ele>2329.7</ele>
        <time>2023-02-16T14:08:41Z</time>
      </trkpt>
      <trkpt lat="44.84321" lon="6.95482">
        <ele>2328.8</ele>
        <time>2023-02-16T14:08:42Z</time>
      </trkpt>
      <trkpt lat="44.84319" lon="6.95481">
        <ele>2327.7</ele>
        <time>2023-02-16T14:08:43Z</time>
      </trkpt>
      <trkpt lat="44.84315" lon="6.95487">
        <ele>2326.7</ele>
        <time>2023-02-16T14:08:45Z</time>
      </trkpt>
      <trkpt lat="44.84313" lon="6.95491">
        <ele>2326.4</ele>
        <time>2023-02-16T14:08:46Z</time>
      </trkpt>
      <trkpt lat="44.84309" lon="6.95498">
        <ele>2325.4</ele>
        <time>2023-02-16T14:08:48Z</time>
      </trkpt>
      <trkpt lat="44.84306" lon="6.95502">
        <ele>2324.7</ele>
        <time>2023-02-16T14:08:50Z</time>
      </trkpt>
      <trkpt lat="44.84305" lon="6.95503">
        <ele>2324.5</ele>
        <time>2023-02-16T14:08:51Z</time>
      </trkpt>
      <trkpt lat="44.84304" lon="6.95504">
        <ele>2324.3</ele>
        <time>2023-02-16T14:08:52Z</time>
      </trkpt>
      <trkpt lat="44.84302" lon="6.95506">
        <ele>2324.1</ele>
        <time>2023-02-16T14:08:54Z</time>
      </trkpt>
      <trkpt lat="44.84302" lon="6.95506">
        <ele>2324.1</ele>
        <time>2023-02-16T14:08:55Z</time>
      </trkpt>
      <trkpt lat="44.84301" lon="6.95508">
        <ele>2324.3</ele>
        <time>2023-02-16T14:08:57Z</time>
      </trkpt>
      <trkpt lat="44.843" lon="6.95509">
        <ele>2324.2</ele>
        <time>2023-02-16T14:08:58Z</time>
      </trkpt>
      <trkpt lat="44.84298" lon="6.95511">
        <ele>2324.1</ele>
        <time>2023-02-16T14:09:00Z</time>
      </trkpt>
      <trkpt lat="44.84291" lon="6.9551">
        <ele>2321.7</ele>
        <time>2023-02-16T14:09:04Z</time>
      </trkpt>
      <trkpt lat="44.8429" lon="6.9551">
        <ele>2321.4</ele>
        <time>2023-02-16T14:09:05Z</time>
      </trkpt>
      <trkpt lat="44.84288" lon="6.95512">
        <ele>2321.4</ele>
        <time>2023-02-16T14:09:06Z</time>
      </trkpt>
      <trkpt lat="44.84285" lon="6.95516">
        <ele>2321.8</ele>
        <time>2023-02-16T14:09:08Z</time>
      </trkpt>
      <trkpt lat="44.84282" lon="6.95517">
        <ele>2321.3</ele>
        <time>2023-02-16T14:09:09Z</time>
      </trkpt>
      <trkpt lat="44.8428" lon="6.95518">
        <ele>2321.1</ele>
        <time>2023-02-16T14:09:10Z</time>
      </trkpt>
      <trkpt lat="44.84278" lon="6.95517">
        <ele>2320.2</ele>
        <time>2023-02-16T14:09:11Z</time>
      </trkpt>
      <trkpt lat="44.84277" lon="6.95515">
        <ele>2319.4</ele>
        <time>2023-02-16T14:09:12Z</time>
      </trkpt>
      <trkpt lat="44.84266" lon="6.9551">
        <ele>2316.9</ele>
        <time>2023-02-16T14:09:17Z</time>
      </trkpt>
      <trkpt lat="44.84264" lon="6.95509">
        <ele>2316.4</ele>
        <time>2023-02-16T14:09:18Z</time>
      </trkpt>
      <trkpt lat="44.84255" lon="6.95507">
        <ele>2315.1</ele>
        <time>2023-02-16T14:09:21Z</time>
      </trkpt>
      <trkpt lat="44.84251" lon="6.95508">
        <ele>2315.2</ele>
        <time>2023-02-16T14:09:22Z</time>
      </trkpt>
      <trkpt lat="44.84245" lon="6.95509">
        <ele>2314.5</ele>
        <time>2023-02-16T14:09:24Z</time>
      </trkpt>
      <trkpt lat="44.84232" lon="6.95511">
        <ele>2312.5</ele>
        <time>2023-02-16T14:09:27Z</time>
      </trkpt>
      <trkpt lat="44.84229" lon="6.95512">
        <ele>2312.2</ele>
        <time>2023-02-16T14:09:28Z</time>
      </trkpt>
      <trkpt lat="44.84221" lon="6.95514">
        <ele>2311.2</ele>
        <time>2023-02-16T14:09:30Z</time>
      </trkpt>
      <trkpt lat="44.84217" lon="6.95517">
        <ele>2311.3</ele>
        <time>2023-02-16T14:09:32Z</time>
      </trkpt>
      <trkpt lat="44.84215" lon="6.95518">
        <ele>2311.1</ele>
        <time>2023-02-16T14:09:37Z</time>
      </trkpt>
      <trkpt lat="44.84215" lon="6.95518">
        <ele>2311.1</ele>
        <time>2023-02-16T14:09:52Z</time>
      </trkpt>
      <trkpt lat="44.84216" lon="6.95518">
        <ele>2311.4</ele>
        <time>2023-02-16T14:10:07Z</time>
      </trkpt>
      <trkpt lat="44.84216" lon="6.95518">
        <ele>2311.4</ele>
        <time>2023-02-16T14:10:10Z</time>
      </trkpt>
      <trkpt lat="44.84216" lon="6.95518">
        <ele>2311.4</ele>
        <time>2023-02-16T14:10:28Z</time>
      </trkpt>
      <trkpt lat="44.8421" lon="6.95517">
        <ele>2309.4</ele>
        <time>2023-02-16T14:10:34Z</time>
      </trkpt>
      <trkpt lat="44.84208" lon="6.95517">
        <ele>2308.8</ele>
        <time>2023-02-16T14:10:35Z</time>
      </trkpt>
      <trkpt lat="44.84204" lon="6.95517">
        <ele>2307.7</ele>
        <time>2023-02-16T14:10:36Z</time>
      </trkpt>
      <trkpt lat="44.84198" lon="6.95518">
        <ele>2306.5</ele>
        <time>2023-02-16T14:10:38Z</time>
      </trkpt>
      <trkpt lat="44.84193" lon="6.95519">
        <ele>2305.4</ele>
        <time>2023-02-16T14:10:39Z</time>
      </trkpt>
      <trkpt lat="44.84186" lon="6.95513">
        <ele>2301.2</ele>
        <time>2023-02-16T14:10:41Z</time>
      </trkpt>
      <trkpt lat="44.84183" lon="6.95509">
        <ele>2298.9</ele>
        <time>2023-02-16T14:10:42Z</time>
      </trkpt>
      <trkpt lat="44.84178" lon="6.95506">
        <ele>2296.4</ele>
        <time>2023-02-16T14:10:43Z</time>
      </trkpt>
      <trkpt lat="44.84172" lon="6.95505">
        <ele>2294.3</ele>
        <time>2023-02-16T14:10:44Z</time>
      </trkpt>
      <trkpt lat="44.84168" lon="6.95502">
        <ele>2292.1</ele>
        <time>2023-02-16T14:10:45Z</time>
      </trkpt>
      <trkpt lat="44.84165" lon="6.95497">
        <ele>2289.8</ele>
        <time>2023-02-16T14:10:46Z</time>
      </trkpt>
      <trkpt lat="44.84161" lon="6.95494">
        <ele>2288.3</ele>
        <time>2023-02-16T14:10:47Z</time>
      </trkpt>
      <trkpt lat="44.84157" lon="6.9549">
        <ele>2286.4</ele>
        <time>2023-02-16T14:10:48Z</time>
      </trkpt>
      <trkpt lat="44.84148" lon="6.95482">
        <ele>2282.5</ele>
        <time>2023-02-16T14:10:50Z</time>
      </trkpt>
      <trkpt lat="44.84141" lon="6.95481">
        <ele>2280.9</ele>
        <time>2023-02-16T14:10:51Z</time>
      </trkpt>
      <trkpt lat="44.84136" lon="6.95482">
        <ele>2279.8</ele>
        <time>2023-02-16T14:10:52Z</time>
      </trkpt>
      <trkpt lat="44.84131" lon="6.95483">
        <ele>2278.3</ele>
        <time>2023-02-16T14:10:53Z</time>
      </trkpt>
      <trkpt lat="44.84127" lon="6.9548">
        <ele>2276.1</ele>
        <time>2023-02-16T14:10:54Z</time>
      </trkpt>
      <trkpt lat="44.84124" lon="6.95478">
        <ele>2274.6</ele>
        <time>2023-02-16T14:10:55Z</time>
      </trkpt>
      <trkpt lat="44.84122" lon="6.95478">
        <ele>2273.9</ele>
        <time>2023-02-16T14:10:56Z</time>
      </trkpt>
      <trkpt lat="44.8412" lon="6.95479">
        <ele>2273.5</ele>
        <time>2023-02-16T14:10:57Z</time>
      </trkpt>
      <trkpt lat="44.84119" lon="6.95479">
        <ele>2273.2</ele>
        <time>2023-02-16T14:10:58Z</time>
      </trkpt>
      <trkpt lat="44.84119" lon="6.9548">
        <ele>2273.4</ele>
        <time>2023-02-16T14:11:01Z</time>
      </trkpt>
      <trkpt lat="44.8412" lon="6.9548">
        <ele>2273.7</ele>
        <time>2023-02-16T14:11:02Z</time>
      </trkpt>
      <trkpt lat="44.84124" lon="6.95473">
        <ele>2273.4</ele>
        <time>2023-02-16T14:11:10Z</time>
      </trkpt>
      <trkpt lat="44.84127" lon="6.95469">
        <ele>2273.2</ele>
        <time>2023-02-16T14:11:11Z</time>
      </trkpt>
      <trkpt lat="44.8413" lon="6.9546">
        <ele>2271.6</ele>
        <time>2023-02-16T14:11:13Z</time>
      </trkpt>
      <trkpt lat="44.84127" lon="6.95457">
        <ele>2269.8</ele>
        <time>2023-02-16T14:11:14Z</time>
      </trkpt>
      <trkpt lat="44.84124" lon="6.95453">
        <ele>2267.6</ele>
        <time>2023-02-16T14:11:15Z</time>
      </trkpt>
      <trkpt lat="44.84122" lon="6.95449">
        <ele>2265.8</ele>
        <time>2023-02-16T14:11:16Z</time>
      </trkpt>
      <trkpt lat="44.84119" lon="6.95445">
        <ele>2263.7</ele>
        <time>2023-02-16T14:11:17Z</time>
      </trkpt>
      <trkpt lat="44.84115" lon="6.95444">
        <ele>2262.1</ele>
        <time>2023-02-16T14:11:18Z</time>
      </trkpt>
      <trkpt lat="44.84111" lon="6.95446">
        <ele>2261.4</ele>
        <time>2023-02-16T14:11:19Z</time>
      </trkpt>
      <trkpt lat="44.84106" lon="6.95448">
        <ele>2259.9</ele>
        <time>2023-02-16T14:11:20Z</time>
      </trkpt>
      <trkpt lat="44.84102" lon="6.95448">
        <ele>2258.3</ele>
        <time>2023-02-16T14:11:21Z</time>
      </trkpt>
      <trkpt lat="44.841" lon="6.95443">
        <ele>2256.1</ele>
        <time>2023-02-16T14:11:22Z</time>
      </trkpt>
      <trkpt lat="44.84099" lon="6.95438">
        <ele>2254.1</ele>
        <time>2023-02-16T14:11:23Z</time>
      </trkpt>
      <trkpt lat="44.84098" lon="6.95433">
        <ele>2252.1</ele>
        <time>2023-02-16T14:11:24Z</time>
      </trkpt>
      <trkpt lat="44.84094" lon="6.9543">
        <ele>2249.7</ele>
        <time>2023-02-16T14:11:25Z</time>
      </trkpt>
      <trkpt lat="44.84091" lon="6.95426">
        <ele>2247.4</ele>
        <time>2023-02-16T14:11:26Z</time>
      </trkpt>
      <trkpt lat="44.84088" lon="6.95421">
        <ele>2244.8</ele>
        <time>2023-02-16T14:11:27Z</time>
      </trkpt>
      <trkpt lat="44.84084" lon="6.95417">
        <ele>2242.3</ele>
        <time>2023-02-16T14:11:28Z</time>
      </trkpt>
      <trkpt lat="44.84082" lon="6.9541">
        <ele>2239.3</ele>
        <time>2023-02-16T14:11:29Z</time>
      </trkpt>
      <trkpt lat="44.84081" lon="6.95403">
        <ele>2236.6</ele>
        <time>2023-02-16T14:11:30Z</time>
      </trkpt>
      <trkpt lat="44.84075" lon="6.95395">
        <ele>2233</ele>
        <time>2023-02-16T14:11:31Z</time>
      </trkpt>
      <trkpt lat="44.84069" lon="6.95386">
        <ele>2229.6</ele>
        <time>2023-02-16T14:11:33Z</time>
      </trkpt>
      <trkpt lat="44.84068" lon="6.95379">
        <ele>2227.3</ele>
        <time>2023-02-16T14:11:34Z</time>
      </trkpt>
      <trkpt lat="44.84065" lon="6.95373">
        <ele>2224.9</ele>
        <time>2023-02-16T14:11:35Z</time>
      </trkpt>
      <trkpt lat="44.84061" lon="6.9537">
        <ele>2223.2</ele>
        <time>2023-02-16T14:11:36Z</time>
      </trkpt>
      <trkpt lat="44.84056" lon="6.95366">
        <ele>2220.8</ele>
        <time>2023-02-16T14:11:37Z</time>
      </trkpt>
      <trkpt lat="44.84054" lon="6.95361">
        <ele>2218.9</ele>
        <time>2023-02-16T14:11:38Z</time>
      </trkpt>
      <trkpt lat="44.84052" lon="6.95355">
        <ele>2216.9</ele>
        <time>2023-02-16T14:11:39Z</time>
      </trkpt>
      <trkpt lat="44.84049" lon="6.9535">
        <ele>2215.1</ele>
        <time>2023-02-16T14:11:40Z</time>
      </trkpt>
      <trkpt lat="44.84048" lon="6.95343">
        <ele>2212.9</ele>
        <time>2023-02-16T14:11:41Z</time>
      </trkpt>
      <trkpt lat="44.84046" lon="6.95336">
        <ele>2210.5</ele>
        <time>2023-02-16T14:11:42Z</time>
      </trkpt>
      <trkpt lat="44.84042" lon="6.95332">
        <ele>2208.6</ele>
        <time>2023-02-16T14:11:43Z</time>
      </trkpt>
      <trkpt lat="44.84038" lon="6.95328">
        <ele>2206.8</ele>
        <time>2023-02-16T14:11:44Z</time>
      </trkpt>
      <trkpt lat="44.84034" lon="6.95323">
        <ele>2204.4</ele>
        <time>2023-02-16T14:11:45Z</time>
      </trkpt>
      <trkpt lat="44.84031" lon="6.95317">
        <ele>2201.8</ele>
        <time>2023-02-16T14:11:46Z</time>
      </trkpt>
      <trkpt lat="44.84026" lon="6.95313">
        <ele>2199.4</ele>
        <time>2023-02-16T14:11:47Z</time>
      </trkpt>
      <trkpt lat="44.84024" lon="6.95307">
        <ele>2196.8</ele>
        <time>2023-02-16T14:11:48Z</time>
      </trkpt>
      <trkpt lat="44.84027" lon="6.95301">
        <ele>2195.7</ele>
        <time>2023-02-16T14:11:49Z</time>
      </trkpt>
      <trkpt lat="44.8403" lon="6.95294">
        <ele>2194.7</ele>
        <time>2023-02-16T14:11:50Z</time>
      </trkpt>
      <trkpt lat="44.84031" lon="6.95288">
        <ele>2193.6</ele>
        <time>2023-02-16T14:11:51Z</time>
      </trkpt>
      <trkpt lat="44.8403" lon="6.95283">
        <ele>2192.1</ele>
        <time>2023-02-16T14:11:52Z</time>
      </trkpt>
      <trkpt lat="44.84027" lon="6.95282">
        <ele>2190.9</ele>
        <time>2023-02-16T14:11:53Z</time>
      </trkpt>
      <trkpt lat="44.84022" lon="6.95282">
        <ele>2189.8</ele>
        <time>2023-02-16T14:11:54Z</time>
      </trkpt>
      <trkpt lat="44.84019" lon="6.95282">
        <ele>2189.2</ele>
        <time>2023-02-16T14:11:55Z</time>
      </trkpt>
      <trkpt lat="44.84016" lon="6.95282">
        <ele>2188.6</ele>
        <time>2023-02-16T14:11:56Z</time>
      </trkpt>
      <trkpt lat="44.84015" lon="6.95283">
        <ele>2188.6</ele>
        <time>2023-02-16T14:11:58Z</time>
      </trkpt>
      <trkpt lat="44.84015" lon="6.95283">
        <ele>2188.6</ele>
        <time>2023-02-16T14:11:59Z</time>
      </trkpt>
      <trkpt lat="44.84014" lon="6.95284">
        <ele>2188.7</ele>
        <time>2023-02-16T14:12:06Z</time>
      </trkpt>
      <trkpt lat="44.84015" lon="6.95285">
        <ele>2189.2</ele>
        <time>2023-02-16T14:12:14Z</time>
      </trkpt>
      <trkpt lat="44.84015" lon="6.95287">
        <ele>2189.7</ele>
        <time>2023-02-16T14:12:26Z</time>
      </trkpt>
      <trkpt lat="44.84013" lon="6.95287">
        <ele>2189.3</ele>
        <time>2023-02-16T14:12:27Z</time>
      </trkpt>
      <trkpt lat="44.84008" lon="6.95283">
        <ele>2187.2</ele>
        <time>2023-02-16T14:12:29Z</time>
      </trkpt>
      <trkpt lat="44.84007" lon="6.95278">
        <ele>2185.6</ele>
        <time>2023-02-16T14:12:30Z</time>
      </trkpt>
      <trkpt lat="44.84004" lon="6.95273">
        <ele>2184</ele>
        <time>2023-02-16T14:12:31Z</time>
      </trkpt>
      <trkpt lat="44.84" lon="6.95271">
        <ele>2182.8</ele>
        <time>2023-02-16T14:12:32Z</time>
      </trkpt>
      <trkpt lat="44.83995" lon="6.95268">
        <ele>2181</ele>
        <time>2023-02-16T14:12:33Z</time>
      </trkpt>
      <trkpt lat="44.83992" lon="6.95264">
        <ele>2179.5</ele>
        <time>2023-02-16T14:12:34Z</time>
      </trkpt>
      <trkpt lat="44.83988" lon="6.9526">
        <ele>2177.7</ele>
        <time>2023-02-16T14:12:35Z</time>
      </trkpt>
      <trkpt lat="44.83984" lon="6.95259">
        <ele>2176.4</ele>
        <time>2023-02-16T14:12:36Z</time>
      </trkpt>
      <trkpt lat="44.8398" lon="6.95258">
        <ele>2175.1</ele>
        <time>2023-02-16T14:12:37Z</time>
      </trkpt>
      <trkpt lat="44.83977" lon="6.95257">
        <ele>2174.1</ele>
        <time>2023-02-16T14:12:38Z</time>
      </trkpt>
      <trkpt lat="44.83973" lon="6.95257">
        <ele>2173</ele>
        <time>2023-02-16T14:12:39Z</time>
      </trkpt>
      <trkpt lat="44.83965" lon="6.95261">
        <ele>2171.1</ele>
        <time>2023-02-16T14:12:41Z</time>
      </trkpt>
      <trkpt lat="44.83961" lon="6.95261">
        <ele>2169.6</ele>
        <time>2023-02-16T14:12:42Z</time>
      </trkpt>
      <trkpt lat="44.83953" lon="6.9526">
        <ele>2166.4</ele>
        <time>2023-02-16T14:12:44Z</time>
      </trkpt>
      <trkpt lat="44.83948" lon="6.95262">
        <ele>2164.9</ele>
        <time>2023-02-16T14:12:45Z</time>
      </trkpt>
      <trkpt lat="44.83945" lon="6.95265">
        <ele>2164.5</ele>
        <time>2023-02-16T14:12:46Z</time>
      </trkpt>
      <trkpt lat="44.83942" lon="6.95267">
        <ele>2163.3</ele>
        <time>2023-02-16T14:12:47Z</time>
      </trkpt>
      <trkpt lat="44.83938" lon="6.95271">
        <ele>2161.8</ele>
        <time>2023-02-16T14:12:49Z</time>
      </trkpt>
      <trkpt lat="44.83934" lon="6.95275">
        <ele>2160.2</ele>
        <time>2023-02-16T14:12:53Z</time>
      </trkpt>
      <trkpt lat="44.83934" lon="6.95275">
        <ele>2160.2</ele>
        <time>2023-02-16T14:13:03Z</time>
      </trkpt>
      <trkpt lat="44.83934" lon="6.95275">
        <ele>2160.2</ele>
        <time>2023-02-16T14:13:08Z</time>
      </trkpt>
      <trkpt lat="44.83934" lon="6.95277">
        <ele>2160.5</ele>
        <time>2023-02-16T14:13:12Z</time>
      </trkpt>
      <trkpt lat="44.83934" lon="6.95277">
        <ele>2160.5</ele>
        <time>2023-02-16T14:13:22Z</time>
      </trkpt>
      <trkpt lat="44.83934" lon="6.95278">
        <ele>2160.6</ele>
        <time>2023-02-16T14:13:24Z</time>
      </trkpt>
      <trkpt lat="44.83934" lon="6.95278">
        <ele>2160.6</ele>
        <time>2023-02-16T14:13:35Z</time>
      </trkpt>
      <trkpt lat="44.83934" lon="6.95277">
        <ele>2160.5</ele>
        <time>2023-02-16T14:13:48Z</time>
      </trkpt>
      <trkpt lat="44.83934" lon="6.95277">
        <ele>2160.5</ele>
        <time>2023-02-16T14:14:01Z</time>
      </trkpt>
      <trkpt lat="44.83933" lon="6.95276">
        <ele>2159.7</ele>
        <time>2023-02-16T14:14:10Z</time>
      </trkpt>
      <trkpt lat="44.83933" lon="6.95277">
        <ele>2159.9</ele>
        <time>2023-02-16T14:14:21Z</time>
      </trkpt>
      <trkpt lat="44.83933" lon="6.95277">
        <ele>2159.9</ele>
        <time>2023-02-16T14:14:35Z</time>
      </trkpt>
      <trkpt lat="44.83931" lon="6.95282">
        <ele>2159.1</ele>
        <time>2023-02-16T14:14:48Z</time>
      </trkpt>
      <trkpt lat="44.83928" lon="6.95289">
        <ele>2157.7</ele>
        <time>2023-02-16T14:15:00Z</time>
      </trkpt>
      <trkpt lat="44.83928" lon="6.95294">
        <ele>2158</ele>
        <time>2023-02-16T14:15:13Z</time>
      </trkpt>
      <trkpt lat="44.83927" lon="6.95299">
        <ele>2157.7</ele>
        <time>2023-02-16T14:15:23Z</time>
      </trkpt>
      <trkpt lat="44.83927" lon="6.95299">
        <ele>2157.7</ele>
        <time>2023-02-16T14:15:24Z</time>
      </trkpt>
      <trkpt lat="44.83926" lon="6.95301">
        <ele>2157.1</ele>
        <time>2023-02-16T14:15:28Z</time>
      </trkpt>
      <trkpt lat="44.83926" lon="6.95304">
        <ele>2157.3</ele>
        <time>2023-02-16T14:15:35Z</time>
      </trkpt>
      <trkpt lat="44.83927" lon="6.95308">
        <ele>2158.2</ele>
        <time>2023-02-16T14:15:40Z</time>
      </trkpt>
      <trkpt lat="44.83926" lon="6.95311">
        <ele>2157.6</ele>
        <time>2023-02-16T14:15:46Z</time>
      </trkpt>
      <trkpt lat="44.83926" lon="6.95315">
        <ele>2157.7</ele>
        <time>2023-02-16T14:15:52Z</time>
      </trkpt>
      <trkpt lat="44.83925" lon="6.9532">
        <ele>2157.2</ele>
        <time>2023-02-16T14:15:59Z</time>
      </trkpt>
      <trkpt lat="44.83926" lon="6.95321">
        <ele>2157.9</ele>
        <time>2023-02-16T14:16:01Z</time>
      </trkpt>
      <trkpt lat="44.83924" lon="6.95326">
        <ele>2156.8</ele>
        <time>2023-02-16T14:16:08Z</time>
      </trkpt>
      <trkpt lat="44.83923" lon="6.95328">
        <ele>2156.1</ele>
        <time>2023-02-16T14:16:10Z</time>
      </trkpt>
      <trkpt lat="44.83922" lon="6.95331">
        <ele>2155.6</ele>
        <time>2023-02-16T14:16:12Z</time>
      </trkpt>
      <trkpt lat="44.83921" lon="6.95332">
        <ele>2154.9</ele>
        <time>2023-02-16T14:16:14Z</time>
      </trkpt>
      <trkpt lat="44.8392" lon="6.95334">
        <ele>2154.4</ele>
        <time>2023-02-16T14:16:17Z</time>
      </trkpt>
      <trkpt lat="44.83918" lon="6.95336">
        <ele>2153.3</ele>
        <time>2023-02-16T14:16:20Z</time>
      </trkpt>
      <trkpt lat="44.83918" lon="6.95337">
        <ele>2153.4</ele>
        <time>2023-02-16T14:16:21Z</time>
      </trkpt>
      <trkpt lat="44.83917" lon="6.95339">
        <ele>2153</ele>
        <time>2023-02-16T14:16:24Z</time>
      </trkpt>
      <trkpt lat="44.83916" lon="6.95343">
        <ele>2153.1</ele>
        <time>2023-02-16T14:16:31Z</time>
      </trkpt>
      <trkpt lat="44.83916" lon="6.95343">
        <ele>2153.1</ele>
        <time>2023-02-16T14:16:33Z</time>
      </trkpt>
      <trkpt lat="44.83914" lon="6.95345">
        <ele>2152.4</ele>
        <time>2023-02-16T14:16:43Z</time>
      </trkpt>
      <trkpt lat="44.83914" lon="6.95346">
        <ele>2152.6</ele>
        <time>2023-02-16T14:16:51Z</time>
      </trkpt>
      <trkpt lat="44.83914" lon="6.95347">
        <ele>2152.7</ele>
        <time>2023-02-16T14:16:58Z</time>
      </trkpt>
      <trkpt lat="44.83914" lon="6.95346">
        <ele>2152.6</ele>
        <time>2023-02-16T14:17:16Z</time>
      </trkpt>
      <trkpt lat="44.83912" lon="6.9535">
        <ele>2152.2</ele>
        <time>2023-02-16T14:17:27Z</time>
      </trkpt>
      <trkpt lat="44.83902" lon="6.95361">
        <ele>2149.6</ele>
        <time>2023-02-16T14:17:36Z</time>
      </trkpt>
      <trkpt lat="44.83898" lon="6.95363">
        <ele>2148.3</ele>
        <time>2023-02-16T14:17:41Z</time>
      </trkpt>
      <trkpt lat="44.83896" lon="6.95363">
        <ele>2147.5</ele>
        <time>2023-02-16T14:17:51Z</time>
      </trkpt>
      <trkpt lat="44.83897" lon="6.95361">
        <ele>2147.5</ele>
        <time>2023-02-16T14:17:53Z</time>
      </trkpt>
      <trkpt lat="44.83897" lon="6.95358">
        <ele>2146.9</ele>
        <time>2023-02-16T14:17:55Z</time>
      </trkpt>
      <trkpt lat="44.83897" lon="6.95357">
        <ele>2146.7</ele>
        <time>2023-02-16T14:17:56Z</time>
      </trkpt>
      <trkpt lat="44.83896" lon="6.95356">
        <ele>2146.1</ele>
        <time>2023-02-16T14:17:57Z</time>
      </trkpt>
      <trkpt lat="44.83896" lon="6.95352">
        <ele>2145.3</ele>
        <time>2023-02-16T14:18:00Z</time>
      </trkpt>
      <trkpt lat="44.83896" lon="6.95345">
        <ele>2143.9</ele>
        <time>2023-02-16T14:18:03Z</time>
      </trkpt>
      <trkpt lat="44.83896" lon="6.95343">
        <ele>2143.5</ele>
        <time>2023-02-16T14:18:04Z</time>
      </trkpt>
      <trkpt lat="44.83897" lon="6.95341">
        <ele>2143.6</ele>
        <time>2023-02-16T14:18:05Z</time>
      </trkpt>
      <trkpt lat="44.83896" lon="6.95339">
        <ele>2142.7</ele>
        <time>2023-02-16T14:18:07Z</time>
      </trkpt>
      <trkpt lat="44.83894" lon="6.95339">
        <ele>2141.7</ele>
        <time>2023-02-16T14:18:08Z</time>
      </trkpt>
      <trkpt lat="44.83892" lon="6.95337">
        <ele>2140.3</ele>
        <time>2023-02-16T14:18:12Z</time>
      </trkpt>
      <trkpt lat="44.83892" lon="6.95337">
        <ele>2140.3</ele>
        <time>2023-02-16T14:18:16Z</time>
      </trkpt>
      <trkpt lat="44.83889" lon="6.95341">
        <ele>2139.7</ele>
        <time>2023-02-16T14:18:29Z</time>
      </trkpt>
      <trkpt lat="44.83888" lon="6.95343">
        <ele>2139.6</ele>
        <time>2023-02-16T14:18:30Z</time>
      </trkpt>
      <trkpt lat="44.83888" lon="6.95344">
        <ele>2139.9</ele>
        <time>2023-02-16T14:18:31Z</time>
      </trkpt>
      <trkpt lat="44.83885" lon="6.95345">
        <ele>2138.6</ele>
        <time>2023-02-16T14:18:36Z</time>
      </trkpt>
      <trkpt lat="44.83883" lon="6.95343">
        <ele>2137.1</ele>
        <time>2023-02-16T14:18:48Z</time>
      </trkpt>
      <trkpt lat="44.83882" lon="6.95343">
        <ele>2136.6</ele>
        <time>2023-02-16T14:18:49Z</time>
      </trkpt>
      <trkpt lat="44.83878" lon="6.95345">
        <ele>2135</ele>
        <time>2023-02-16T14:18:55Z</time>
      </trkpt>
      <trkpt lat="44.83876" lon="6.95346">
        <ele>2134.2</ele>
        <time>2023-02-16T14:18:57Z</time>
      </trkpt>
      <trkpt lat="44.83876" lon="6.95346">
        <ele>2134.2</ele>
        <time>2023-02-16T14:18:58Z</time>
      </trkpt>
      <trkpt lat="44.83871" lon="6.9535">
        <ele>2132.6</ele>
        <time>2023-02-16T14:19:02Z</time>
      </trkpt>
      <trkpt lat="44.83869" lon="6.95354">
        <ele>2132.4</ele>
        <time>2023-02-16T14:19:04Z</time>
      </trkpt>
      <trkpt lat="44.83864" lon="6.95357">
        <ele>2130.6</ele>
        <time>2023-02-16T14:19:08Z</time>
      </trkpt>
      <trkpt lat="44.83862" lon="6.95353">
        <ele>2128.7</ele>
        <time>2023-02-16T14:19:10Z</time>
      </trkpt>
      <trkpt lat="44.83861" lon="6.95352">
        <ele>2128</ele>
        <time>2023-02-16T14:19:11Z</time>
      </trkpt>
      <trkpt lat="44.83862" lon="6.9535">
        <ele>2128</ele>
        <time>2023-02-16T14:19:13Z</time>
      </trkpt>
      <trkpt lat="44.83861" lon="6.95351">
        <ele>2127.8</ele>
        <time>2023-02-16T14:19:16Z</time>
      </trkpt>
      <trkpt lat="44.83859" lon="6.95355">
        <ele>2127.9</ele>
        <time>2023-02-16T14:19:18Z</time>
      </trkpt>
      <trkpt lat="44.83857" lon="6.95359">
        <ele>2128.1</ele>
        <time>2023-02-16T14:19:19Z</time>
      </trkpt>
      <trkpt lat="44.83855" lon="6.95363">
        <ele>2128.1</ele>
        <time>2023-02-16T14:19:20Z</time>
      </trkpt>
      <trkpt lat="44.83847" lon="6.95372">
        <ele>2126.9</ele>
        <time>2023-02-16T14:19:22Z</time>
      </trkpt>
      <trkpt lat="44.83842" lon="6.95376">
        <ele>2125.8</ele>
        <time>2023-02-16T14:19:23Z</time>
      </trkpt>
      <trkpt lat="44.83837" lon="6.95379">
        <ele>2124.5</ele>
        <time>2023-02-16T14:19:24Z</time>
      </trkpt>
      <trkpt lat="44.83828" lon="6.95386">
        <ele>2122.9</ele>
        <time>2023-02-16T14:19:26Z</time>
      </trkpt>
      <trkpt lat="44.83815" lon="6.95396">
        <ele>2121.3</ele>
        <time>2023-02-16T14:19:29Z</time>
      </trkpt>
      <trkpt lat="44.83812" lon="6.95397">
        <ele>2120.5</ele>
        <time>2023-02-16T14:19:30Z</time>
      </trkpt>
      <trkpt lat="44.8381" lon="6.95396">
        <ele>2119.7</ele>
        <time>2023-02-16T14:19:31Z</time>
      </trkpt>
      <trkpt lat="44.83809" lon="6.95395">
        <ele>2119.2</ele>
        <time>2023-02-16T14:19:32Z</time>
      </trkpt>
      <trkpt lat="44.83809" lon="6.95394">
        <ele>2119</ele>
        <time>2023-02-16T14:19:33Z</time>
      </trkpt>
      <trkpt lat="44.8381" lon="6.95393">
        <ele>2119.1</ele>
        <time>2023-02-16T14:19:35Z</time>
      </trkpt>
      <trkpt lat="44.8381" lon="6.95392">
        <ele>2118.9</ele>
        <time>2023-02-16T14:19:39Z</time>
      </trkpt>
      <trkpt lat="44.8381" lon="6.9539">
        <ele>2118.5</ele>
        <time>2023-02-16T14:19:53Z</time>
      </trkpt>
      <trkpt lat="44.83811" lon="6.95388">
        <ele>2118.4</ele>
        <time>2023-02-16T14:19:56Z</time>
      </trkpt>
      <trkpt lat="44.83812" lon="6.95386">
        <ele>2118.3</ele>
        <time>2023-02-16T14:19:57Z</time>
      </trkpt>
      <trkpt lat="44.83813" lon="6.9538">
        <ele>2117.5</ele>
        <time>2023-02-16T14:19:59Z</time>
      </trkpt>
      <trkpt lat="44.83815" lon="6.95369">
        <ele>2116.1</ele>
        <time>2023-02-16T14:20:01Z</time>
      </trkpt>
      <trkpt lat="44.83815" lon="6.95358">
        <ele>2114</ele>
        <time>2023-02-16T14:20:03Z</time>
      </trkpt>
      <trkpt lat="44.83815" lon="6.95346">
        <ele>2111.5</ele>
        <time>2023-02-16T14:20:05Z</time>
      </trkpt>
      <trkpt lat="44.83817" lon="6.9534">
        <ele>2110.7</ele>
        <time>2023-02-16T14:20:06Z</time>
      </trkpt>
      <trkpt lat="44.83818" lon="6.95334">
        <ele>2109.7</ele>
        <time>2023-02-16T14:20:07Z</time>
      </trkpt>
      <trkpt lat="44.83819" lon="6.95329">
        <ele>2108.9</ele>
        <time>2023-02-16T14:20:08Z</time>
      </trkpt>
      <trkpt lat="44.83819" lon="6.95319">
        <ele>2106.8</ele>
        <time>2023-02-16T14:20:10Z</time>
      </trkpt>
      <trkpt lat="44.83815" lon="6.95309">
        <ele>2103.5</ele>
        <time>2023-02-16T14:20:12Z</time>
      </trkpt>
      <trkpt lat="44.83813" lon="6.95305">
        <ele>2102</ele>
        <time>2023-02-16T14:20:13Z</time>
      </trkpt>
      <trkpt lat="44.83811" lon="6.95302">
        <ele>2100.6</ele>
        <time>2023-02-16T14:20:14Z</time>
      </trkpt>
      <trkpt lat="44.83809" lon="6.95298">
        <ele>2098.8</ele>
        <time>2023-02-16T14:20:15Z</time>
      </trkpt>
      <trkpt lat="44.83808" lon="6.95294">
        <ele>2097.4</ele>
        <time>2023-02-16T14:20:16Z</time>
      </trkpt>
      <trkpt lat="44.83806" lon="6.95291">
        <ele>2095.9</ele>
        <time>2023-02-16T14:20:17Z</time>
      </trkpt>
      <trkpt lat="44.83803" lon="6.9529">
        <ele>2094.5</ele>
        <time>2023-02-16T14:20:18Z</time>
      </trkpt>
      <trkpt lat="44.83801" lon="6.9529">
        <ele>2093.7</ele>
        <time>2023-02-16T14:20:19Z</time>
      </trkpt>
      <trkpt lat="44.83799" lon="6.95289">
        <ele>2092.7</ele>
        <time>2023-02-16T14:20:20Z</time>
      </trkpt>
      <trkpt lat="44.83798" lon="6.95287">
        <ele>2091.8</ele>
        <time>2023-02-16T14:20:21Z</time>
      </trkpt>
      <trkpt lat="44.83798" lon="6.95284">
        <ele>2091</ele>
        <time>2023-02-16T14:20:22Z</time>
      </trkpt>
      <trkpt lat="44.83798" lon="6.95282">
        <ele>2090.4</ele>
        <time>2023-02-16T14:20:23Z</time>
      </trkpt>
      <trkpt lat="44.83798" lon="6.9528">
        <ele>2089.9</ele>
        <time>2023-02-16T14:20:24Z</time>
      </trkpt>
      <trkpt lat="44.83798" lon="6.95279">
        <ele>2089.6</ele>
        <time>2023-02-16T14:20:25Z</time>
      </trkpt>
      <trkpt lat="44.83798" lon="6.95279">
        <ele>2089.6</ele>
        <time>2023-02-16T14:20:26Z</time>
      </trkpt>
      <trkpt lat="44.83797" lon="6.95278">
        <ele>2089</ele>
        <time>2023-02-16T14:20:27Z</time>
      </trkpt>
      <trkpt lat="44.83796" lon="6.95277">
        <ele>2088.4</ele>
        <time>2023-02-16T14:20:28Z</time>
      </trkpt>
      <trkpt lat="44.83794" lon="6.95273">
        <ele>2086.8</ele>
        <time>2023-02-16T14:20:29Z</time>
      </trkpt>
      <trkpt lat="44.83793" lon="6.95266">
        <ele>2084.9</ele>
        <time>2023-02-16T14:20:30Z</time>
      </trkpt>
      <trkpt lat="44.83793" lon="6.9526">
        <ele>2083.6</ele>
        <time>2023-02-16T14:20:31Z</time>
      </trkpt>
      <trkpt lat="44.83791" lon="6.95257">
        <ele>2082.3</ele>
        <time>2023-02-16T14:20:32Z</time>
      </trkpt>
      <trkpt lat="44.83788" lon="6.95254">
        <ele>2080.8</ele>
        <time>2023-02-16T14:20:33Z</time>
      </trkpt>
      <trkpt lat="44.83785" lon="6.95256">
        <ele>2080.3</ele>
        <time>2023-02-16T14:20:34Z</time>
      </trkpt>
      <trkpt lat="44.83782" lon="6.95258">
        <ele>2079.7</ele>
        <time>2023-02-16T14:20:35Z</time>
      </trkpt>
      <trkpt lat="44.83774" lon="6.95266">
        <ele>2078.7</ele>
        <time>2023-02-16T14:20:37Z</time>
      </trkpt>
      <trkpt lat="44.83767" lon="6.9527">
        <ele>2077.4</ele>
        <time>2023-02-16T14:20:38Z</time>
      </trkpt>
      <trkpt lat="44.83763" lon="6.9527">
        <ele>2076.2</ele>
        <time>2023-02-16T14:20:39Z</time>
      </trkpt>
      <trkpt lat="44.83758" lon="6.95268">
        <ele>2074.3</ele>
        <time>2023-02-16T14:20:40Z</time>
      </trkpt>
      <trkpt lat="44.83753" lon="6.95267">
        <ele>2072.6</ele>
        <time>2023-02-16T14:20:41Z</time>
      </trkpt>
      <trkpt lat="44.83748" lon="6.95266">
        <ele>2070.7</ele>
        <time>2023-02-16T14:20:42Z</time>
      </trkpt>
      <trkpt lat="44.83745" lon="6.95263">
        <ele>2069</ele>
        <time>2023-02-16T14:20:43Z</time>
      </trkpt>
      <trkpt lat="44.83743" lon="6.95257">
        <ele>2067</ele>
        <time>2023-02-16T14:20:44Z</time>
      </trkpt>
      <trkpt lat="44.8374" lon="6.95254">
        <ele>2065.3</ele>
        <time>2023-02-16T14:20:45Z</time>
      </trkpt>
      <trkpt lat="44.83736" lon="6.95252">
        <ele>2063.4</ele>
        <time>2023-02-16T14:20:46Z</time>
      </trkpt>
      <trkpt lat="44.83734" lon="6.9525">
        <ele>2062.2</ele>
        <time>2023-02-16T14:20:47Z</time>
      </trkpt>
      <trkpt lat="44.83733" lon="6.95244">
        <ele>2060.5</ele>
        <time>2023-02-16T14:20:49Z</time>
      </trkpt>
      <trkpt lat="44.83733" lon="6.95243">
        <ele>2060.3</ele>
        <time>2023-02-16T14:20:50Z</time>
      </trkpt>
      <trkpt lat="44.83734" lon="6.95239">
        <ele>2059.8</ele>
        <time>2023-02-16T14:20:52Z</time>
      </trkpt>
      <trkpt lat="44.83734" lon="6.95236">
        <ele>2059.1</ele>
        <time>2023-02-16T14:20:53Z</time>
      </trkpt>
      <trkpt lat="44.83733" lon="6.95235">
        <ele>2058.5</ele>
        <time>2023-02-16T14:20:54Z</time>
      </trkpt>
      <trkpt lat="44.8373" lon="6.95235">
        <ele>2057.3</ele>
        <time>2023-02-16T14:20:56Z</time>
      </trkpt>
      <trkpt lat="44.83728" lon="6.95237">
        <ele>2057</ele>
        <time>2023-02-16T14:20:58Z</time>
      </trkpt>
      <trkpt lat="44.83726" lon="6.95238">
        <ele>2056.5</ele>
        <time>2023-02-16T14:20:59Z</time>
      </trkpt>
      <trkpt lat="44.8372" lon="6.95242">
        <ele>2054.7</ele>
        <time>2023-02-16T14:21:05Z</time>
      </trkpt>
      <trkpt lat="44.83717" lon="6.95248">
        <ele>2054.6</ele>
        <time>2023-02-16T14:21:16Z</time>
      </trkpt>
      <trkpt lat="44.83718" lon="6.95255">
        <ele>2056.9</ele>
        <time>2023-02-16T14:21:27Z</time>
      </trkpt>
      <trkpt lat="44.83718" lon="6.9526">
        <ele>2058</ele>
        <time>2023-02-16T14:21:38Z</time>
      </trkpt>
      <trkpt lat="44.83718" lon="6.95262">
        <ele>2058.4</ele>
        <time>2023-02-16T14:21:39Z</time>
      </trkpt>
      <trkpt lat="44.83712" lon="6.95273">
        <ele>2058.1</ele>
        <time>2023-02-16T14:21:43Z</time>
      </trkpt>
      <trkpt lat="44.83707" lon="6.95282">
        <ele>2057.8</ele>
        <time>2023-02-16T14:21:46Z</time>
      </trkpt>
      <trkpt lat="44.83702" lon="6.95288">
        <ele>2056.7</ele>
        <time>2023-02-16T14:21:49Z</time>
      </trkpt>
      <trkpt lat="44.837" lon="6.95291">
        <ele>2056.5</ele>
        <time>2023-02-16T14:21:51Z</time>
      </trkpt>
      <trkpt lat="44.83694" lon="6.95298">
        <ele>2055.1</ele>
        <time>2023-02-16T14:21:55Z</time>
      </trkpt>
      <trkpt lat="44.83689" lon="6.95301">
        <ele>2052.9</ele>
        <time>2023-02-16T14:22:00Z</time>
      </trkpt>
      <trkpt lat="44.83688" lon="6.95302">
        <ele>2052.5</ele>
        <time>2023-02-16T14:22:01Z</time>
      </trkpt>
      <trkpt lat="44.83685" lon="6.95303">
        <ele>2051</ele>
        <time>2023-02-16T14:22:03Z</time>
      </trkpt>
      <trkpt lat="44.83684" lon="6.95304">
        <ele>2050.7</ele>
        <time>2023-02-16T14:22:05Z</time>
      </trkpt>
      <trkpt lat="44.83681" lon="6.95308">
        <ele>2049.7</ele>
        <time>2023-02-16T14:22:07Z</time>
      </trkpt>
      <trkpt lat="44.83679" lon="6.95309">
        <ele>2048.7</ele>
        <time>2023-02-16T14:22:09Z</time>
      </trkpt>
      <trkpt lat="44.83678" lon="6.95309">
        <ele>2048.1</ele>
        <time>2023-02-16T14:22:10Z</time>
      </trkpt>
      <trkpt lat="44.83676" lon="6.9531">
        <ele>2047.2</ele>
        <time>2023-02-16T14:22:12Z</time>
      </trkpt>
      <trkpt lat="44.83674" lon="6.95313">
        <ele>2046.6</ele>
        <time>2023-02-16T14:22:14Z</time>
      </trkpt>
      <trkpt lat="44.83673" lon="6.95315">
        <ele>2046.3</ele>
        <time>2023-02-16T14:22:15Z</time>
      </trkpt>
      <trkpt lat="44.83672" lon="6.95317">
        <ele>2046.1</ele>
        <time>2023-02-16T14:22:16Z</time>
      </trkpt>
      <trkpt lat="44.83667" lon="6.95326">
        <ele>2044.9</ele>
        <time>2023-02-16T14:22:20Z</time>
      </trkpt>
      <trkpt lat="44.83665" lon="6.95329">
        <ele>2044.1</ele>
        <time>2023-02-16T14:22:22Z</time>
      </trkpt>
      <trkpt lat="44.83663" lon="6.95334">
        <ele>2043.7</ele>
        <time>2023-02-16T14:22:28Z</time>
      </trkpt>
      <trkpt lat="44.83663" lon="6.95337">
        <ele>2044</ele>
        <time>2023-02-16T14:22:37Z</time>
      </trkpt>
      <trkpt lat="44.83661" lon="6.95341">
        <ele>2043.2</ele>
        <time>2023-02-16T14:22:47Z</time>
      </trkpt>
      <trkpt lat="44.8366" lon="6.95346">
        <ele>2043.2</ele>
        <time>2023-02-16T14:22:53Z</time>
      </trkpt>
      <trkpt lat="44.8366" lon="6.95348">
        <ele>2043.4</ele>
        <time>2023-02-16T14:22:54Z</time>
      </trkpt>
      <trkpt lat="44.83659" lon="6.95352">
        <ele>2043.2</ele>
        <time>2023-02-16T14:22:56Z</time>
      </trkpt>
      <trkpt lat="44.83656" lon="6.95362">
        <ele>2042.5</ele>
        <time>2023-02-16T14:22:59Z</time>
      </trkpt>
      <trkpt lat="44.83654" lon="6.95372">
        <ele>2041.6</ele>
        <time>2023-02-16T14:23:02Z</time>
      </trkpt>
      <trkpt lat="44.83654" lon="6.95374">
        <ele>2041.7</ele>
        <time>2023-02-16T14:23:03Z</time>
      </trkpt>
      <trkpt lat="44.83654" lon="6.95374">
        <ele>2041.7</ele>
        <time>2023-02-16T14:23:06Z</time>
      </trkpt>
      <trkpt lat="44.83652" lon="6.95378">
        <ele>2040.7</ele>
        <time>2023-02-16T14:23:16Z</time>
      </trkpt>
      <trkpt lat="44.83652" lon="6.95379">
        <ele>2040.7</ele>
        <time>2023-02-16T14:23:17Z</time>
      </trkpt>
      <trkpt lat="44.83652" lon="6.95384">
        <ele>2040.9</ele>
        <time>2023-02-16T14:23:20Z</time>
      </trkpt>
      <trkpt lat="44.8365" lon="6.95397">
        <ele>2040.8</ele>
        <time>2023-02-16T14:23:24Z</time>
      </trkpt>
      <trkpt lat="44.83649" lon="6.95398">
        <ele>2040.4</ele>
        <time>2023-02-16T14:23:25Z</time>
      </trkpt>
      <trkpt lat="44.8365" lon="6.95401">
        <ele>2041.2</ele>
        <time>2023-02-16T14:23:28Z</time>
      </trkpt>
      <trkpt lat="44.8365" lon="6.95401">
        <ele>2041.2</ele>
        <time>2023-02-16T14:23:29Z</time>
      </trkpt>
      <trkpt lat="44.83644" lon="6.95398">
        <ele>2037.9</ele>
        <time>2023-02-16T14:23:32Z</time>
      </trkpt>
      <trkpt lat="44.8364" lon="6.95392">
        <ele>2035</ele>
        <time>2023-02-16T14:23:34Z</time>
      </trkpt>
      <trkpt lat="44.83638" lon="6.95387">
        <ele>2033.5</ele>
        <time>2023-02-16T14:23:35Z</time>
      </trkpt>
      <trkpt lat="44.83636" lon="6.95379">
        <ele>2032.1</ele>
        <time>2023-02-16T14:23:36Z</time>
      </trkpt>
      <trkpt lat="44.83636" lon="6.95371">
        <ele>2031.3</ele>
        <time>2023-02-16T14:23:37Z</time>
      </trkpt>
      <trkpt lat="44.83636" lon="6.95371">
        <ele>2031.3</ele>
        <time>2023-02-16T14:23:38Z</time>
      </trkpt>
      <trkpt lat="44.83636" lon="6.95354">
        <ele>2029.4</ele>
        <time>2023-02-16T14:23:40Z</time>
      </trkpt>
      <trkpt lat="44.83634" lon="6.95351">
        <ele>2027.8</ele>
        <time>2023-02-16T14:23:41Z</time>
      </trkpt>
      <trkpt lat="44.83631" lon="6.95352">
        <ele>2026.3</ele>
        <time>2023-02-16T14:23:43Z</time>
      </trkpt>
      <trkpt lat="44.83627" lon="6.95358">
        <ele>2025.1</ele>
        <time>2023-02-16T14:23:45Z</time>
      </trkpt>
      <trkpt lat="44.83625" lon="6.95361">
        <ele>2024.5</ele>
        <time>2023-02-16T14:23:46Z</time>
      </trkpt>
      <trkpt lat="44.83622" lon="6.95369">
        <ele>2024.3</ele>
        <time>2023-02-16T14:23:48Z</time>
      </trkpt>
      <trkpt lat="44.8362" lon="6.95375">
        <ele>2024.5</ele>
        <time>2023-02-16T14:23:50Z</time>
      </trkpt>
      <trkpt lat="44.83615" lon="6.9538">
        <ele>2023.4</ele>
        <time>2023-02-16T14:23:54Z</time>
      </trkpt>
      <trkpt lat="44.83614" lon="6.9538">
        <ele>2023</ele>
        <time>2023-02-16T14:23:55Z</time>
      </trkpt>
      <trkpt lat="44.83613" lon="6.95381">
        <ele>2022.8</ele>
        <time>2023-02-16T14:23:56Z</time>
      </trkpt>
      <trkpt lat="44.83612" lon="6.95383">
        <ele>2022.9</ele>
        <time>2023-02-16T14:23:57Z</time>
      </trkpt>
      <trkpt lat="44.83607" lon="6.95385">
        <ele>2021.5</ele>
        <time>2023-02-16T14:23:59Z</time>
      </trkpt>
      <trkpt lat="44.83602" lon="6.95386">
        <ele>2019.9</ele>
        <time>2023-02-16T14:24:00Z</time>
      </trkpt>
      <trkpt lat="44.83602" lon="6.95381">
        <ele>2018.5</ele>
        <time>2023-02-16T14:24:02Z</time>
      </trkpt>
      <trkpt lat="44.83601" lon="6.95374">
        <ele>2016</ele>
        <time>2023-02-16T14:24:03Z</time>
      </trkpt>
      <trkpt lat="44.83603" lon="6.95366">
        <ele>2014.6</ele>
        <time>2023-02-16T14:24:04Z</time>
      </trkpt>
      <trkpt lat="44.83607" lon="6.95346">
        <ele>2012.4</ele>
        <time>2023-02-16T14:24:06Z</time>
      </trkpt>
      <trkpt lat="44.8361" lon="6.95321">
        <ele>2010.2</ele>
        <time>2023-02-16T14:24:08Z</time>
      </trkpt>
      <trkpt lat="44.8361" lon="6.95295">
        <ele>2008.2</ele>
        <time>2023-02-16T14:24:10Z</time>
      </trkpt>
      <trkpt lat="44.83611" lon="6.95284">
        <ele>2008.2</ele>
        <time>2023-02-16T14:24:11Z</time>
      </trkpt>
      <trkpt lat="44.83612" lon="6.95264">
        <ele>2007.3</ele>
        <time>2023-02-16T14:24:13Z</time>
      </trkpt>
      <trkpt lat="44.83614" lon="6.95249">
        <ele>2006.8</ele>
        <time>2023-02-16T14:24:15Z</time>
      </trkpt>
      <trkpt lat="44.83615" lon="6.95243">
        <ele>2006.1</ele>
        <time>2023-02-16T14:24:17Z</time>
      </trkpt>
      <trkpt lat="44.83614" lon="6.95241">
        <ele>2005.5</ele>
        <time>2023-02-16T14:24:18Z</time>
      </trkpt>
      <trkpt lat="44.83614" lon="6.95234">
        <ele>2004.5</ele>
        <time>2023-02-16T14:24:20Z</time>
      </trkpt>
      <trkpt lat="44.83614" lon="6.95221">
        <ele>2002.3</ele>
        <time>2023-02-16T14:24:22Z</time>
      </trkpt>
      <trkpt lat="44.83619" lon="6.95207">
        <ele>1999.7</ele>
        <time>2023-02-16T14:24:24Z</time>
      </trkpt>
      <trkpt lat="44.83627" lon="6.9519">
        <ele>1996.8</ele>
        <time>2023-02-16T14:24:26Z</time>
      </trkpt>
      <trkpt lat="44.83631" lon="6.95181">
        <ele>1995.3</ele>
        <time>2023-02-16T14:24:27Z</time>
      </trkpt>
      <trkpt lat="44.83634" lon="6.95162">
        <ele>1991.8</ele>
        <time>2023-02-16T14:24:29Z</time>
      </trkpt>
      <trkpt lat="44.83634" lon="6.95153">
        <ele>1990.7</ele>
        <time>2023-02-16T14:24:30Z</time>
      </trkpt>
      <trkpt lat="44.83633" lon="6.95144">
        <ele>1989.5</ele>
        <time>2023-02-16T14:24:31Z</time>
      </trkpt>
      <trkpt lat="44.83636" lon="6.95112">
        <ele>1987.2</ele>
        <time>2023-02-16T14:24:35Z</time>
      </trkpt>
      <trkpt lat="44.83637" lon="6.95107">
        <ele>1987</ele>
        <time>2023-02-16T14:24:36Z</time>
      </trkpt>
      <trkpt lat="44.83639" lon="6.95103">
        <ele>1987.2</ele>
        <time>2023-02-16T14:24:37Z</time>
      </trkpt>
      <trkpt lat="44.83641" lon="6.95097">
        <ele>1987.4</ele>
        <time>2023-02-16T14:24:39Z</time>
      </trkpt>
      <trkpt lat="44.83638" lon="6.95078">
        <ele>1984.4</ele>
        <time>2023-02-16T14:24:42Z</time>
      </trkpt>
      <trkpt lat="44.83638" lon="6.95068">
        <ele>1983.7</ele>
        <time>2023-02-16T14:24:43Z</time>
      </trkpt>
      <trkpt lat="44.83639" lon="6.95049">
        <ele>1982.8</ele>
        <time>2023-02-16T14:24:45Z</time>
      </trkpt>
      <trkpt lat="44.83639" lon="6.9503">
        <ele>1982.1</ele>
        <time>2023-02-16T14:24:47Z</time>
      </trkpt>
      <trkpt lat="44.83639" lon="6.95021">
        <ele>1981.6</ele>
        <time>2023-02-16T14:24:48Z</time>
      </trkpt>
      <trkpt lat="44.8364" lon="6.95007">
        <ele>1980.9</ele>
        <time>2023-02-16T14:24:50Z</time>
      </trkpt>
      <trkpt lat="44.83642" lon="6.94993">
        <ele>1979.8</ele>
        <time>2023-02-16T14:24:52Z</time>
      </trkpt>
      <trkpt lat="44.83645" lon="6.94982">
        <ele>1979.2</ele>
        <time>2023-02-16T14:24:55Z</time>
      </trkpt>
      <trkpt lat="44.83646" lon="6.94964">
        <ele>1977</ele>
        <time>2023-02-16T14:25:00Z</time>
      </trkpt>
      <trkpt lat="44.83646" lon="6.94963">
        <ele>1976.8</ele>
        <time>2023-02-16T14:25:02Z</time>
      </trkpt>
      <trkpt lat="44.83645" lon="6.94963">
        <ele>1976.4</ele>
        <time>2023-02-16T14:25:03Z</time>
      </trkpt>
      <trkpt lat="44.83645" lon="6.94962">
        <ele>1976.2</ele>
        <time>2023-02-16T14:25:05Z</time>
      </trkpt>
      <trkpt lat="44.83643" lon="6.94954">
        <ele>1974.2</ele>
        <time>2023-02-16T14:25:07Z</time>
      </trkpt>
      <trkpt lat="44.83643" lon="6.94946">
        <ele>1973.1</ele>
        <time>2023-02-16T14:25:08Z</time>
      </trkpt>
      <trkpt lat="44.83643" lon="6.94937">
        <ele>1971.9</ele>
        <time>2023-02-16T14:25:09Z</time>
      </trkpt>
      <trkpt lat="44.83643" lon="6.94929">
        <ele>1970.7</ele>
        <time>2023-02-16T14:25:10Z</time>
      </trkpt>
      <trkpt lat="44.83641" lon="6.94923">
        <ele>1968.9</ele>
        <time>2023-02-16T14:25:11Z</time>
      </trkpt>
      <trkpt lat="44.83636" lon="6.94909">
        <ele>1964.4</ele>
        <time>2023-02-16T14:25:13Z</time>
      </trkpt>
      <trkpt lat="44.83635" lon="6.94902">
        <ele>1962.9</ele>
        <time>2023-02-16T14:25:14Z</time>
      </trkpt>
      <trkpt lat="44.83634" lon="6.94894">
        <ele>1961.2</ele>
        <time>2023-02-16T14:25:15Z</time>
      </trkpt>
      <trkpt lat="44.83634" lon="6.94888">
        <ele>1960.4</ele>
        <time>2023-02-16T14:25:16Z</time>
      </trkpt>
      <trkpt lat="44.83635" lon="6.94881">
        <ele>1959.5</ele>
        <time>2023-02-16T14:25:17Z</time>
      </trkpt>
      <trkpt lat="44.83635" lon="6.94875">
        <ele>1958.3</ele>
        <time>2023-02-16T14:25:18Z</time>
      </trkpt>
      <trkpt lat="44.83634" lon="6.94871">
        <ele>1957</ele>
        <time>2023-02-16T14:25:19Z</time>
      </trkpt>
      <trkpt lat="44.83632" lon="6.94867">
        <ele>1955.4</ele>
        <time>2023-02-16T14:25:20Z</time>
      </trkpt>
      <trkpt lat="44.8363" lon="6.94862">
        <ele>1953.6</ele>
        <time>2023-02-16T14:25:21Z</time>
      </trkpt>
      <trkpt lat="44.8363" lon="6.94857">
        <ele>1952.4</ele>
        <time>2023-02-16T14:25:22Z</time>
      </trkpt>
      <trkpt lat="44.8363" lon="6.94852">
        <ele>1951.2</ele>
        <time>2023-02-16T14:25:23Z</time>
      </trkpt>
      <trkpt lat="44.83632" lon="6.94847">
        <ele>1950.6</ele>
        <time>2023-02-16T14:25:24Z</time>
      </trkpt>
      <trkpt lat="44.83632" lon="6.94843">
        <ele>1949.5</ele>
        <time>2023-02-16T14:25:25Z</time>
      </trkpt>
      <trkpt lat="44.83632" lon="6.94841">
        <ele>1949</ele>
        <time>2023-02-16T14:25:26Z</time>
      </trkpt>
      <trkpt lat="44.83631" lon="6.94841">
        <ele>1948.7</ele>
        <time>2023-02-16T14:25:27Z</time>
      </trkpt>
      <trkpt lat="44.8363" lon="6.94842">
        <ele>1948.6</ele>
        <time>2023-02-16T14:25:28Z</time>
      </trkpt>
      <trkpt lat="44.83627" lon="6.94844">
        <ele>1948.2</ele>
        <time>2023-02-16T14:25:29Z</time>
      </trkpt>
      <trkpt lat="44.83622" lon="6.94849">
        <ele>1947.6</ele>
        <time>2023-02-16T14:25:31Z</time>
      </trkpt>
      <trkpt lat="44.83618" lon="6.94851">
        <ele>1946.6</ele>
        <time>2023-02-16T14:25:33Z</time>
      </trkpt>
      <trkpt lat="44.83617" lon="6.9485">
        <ele>1946.1</ele>
        <time>2023-02-16T14:25:34Z</time>
      </trkpt>
      <trkpt lat="44.83617" lon="6.94849">
        <ele>1945.9</ele>
        <time>2023-02-16T14:25:36Z</time>
      </trkpt>
      <trkpt lat="44.83617" lon="6.94848">
        <ele>1945.7</ele>
        <time>2023-02-16T14:25:37Z</time>
      </trkpt>
      <trkpt lat="44.83618" lon="6.94846">
        <ele>1945.6</ele>
        <time>2023-02-16T14:25:38Z</time>
      </trkpt>
      <trkpt lat="44.83618" lon="6.9484">
        <ele>1944.4</ele>
        <time>2023-02-16T14:25:41Z</time>
      </trkpt>
      <trkpt lat="44.83619" lon="6.94837">
        <ele>1944</ele>
        <time>2023-02-16T14:25:45Z</time>
      </trkpt>
      <trkpt lat="44.83615" lon="6.94832">
        <ele>1941.9</ele>
        <time>2023-02-16T14:25:51Z</time>
      </trkpt>
      <trkpt lat="44.83617" lon="6.94825">
        <ele>1941.1</ele>
        <time>2023-02-16T14:25:53Z</time>
      </trkpt>
      <trkpt lat="44.8362" lon="6.94819">
        <ele>1940.6</ele>
        <time>2023-02-16T14:25:55Z</time>
      </trkpt>
      <trkpt lat="44.83628" lon="6.94812">
        <ele>1941.1</ele>
        <time>2023-02-16T14:25:57Z</time>
      </trkpt>
      <trkpt lat="44.83632" lon="6.94808">
        <ele>1941.1</ele>
        <time>2023-02-16T14:25:58Z</time>
      </trkpt>
      <trkpt lat="44.83637" lon="6.948">
        <ele>1940.4</ele>
        <time>2023-02-16T14:26:00Z</time>
      </trkpt>
      <trkpt lat="44.8364" lon="6.94796">
        <ele>1940.2</ele>
        <time>2023-02-16T14:26:02Z</time>
      </trkpt>
      <trkpt lat="44.83642" lon="6.9479">
        <ele>1939.5</ele>
        <time>2023-02-16T14:26:04Z</time>
      </trkpt>
      <trkpt lat="44.83642" lon="6.94786">
        <ele>1938.7</ele>
        <time>2023-02-16T14:26:06Z</time>
      </trkpt>
      <trkpt lat="44.83638" lon="6.94787">
        <ele>1937.8</ele>
        <time>2023-02-16T14:26:07Z</time>
      </trkpt>
      <trkpt lat="44.83635" lon="6.94788">
        <ele>1937.5</ele>
        <time>2023-02-16T14:26:08Z</time>
      </trkpt>
      <trkpt lat="44.8363" lon="6.94789">
        <ele>1936.9</ele>
        <time>2023-02-16T14:26:09Z</time>
      </trkpt>
      <trkpt lat="44.83627" lon="6.94789">
        <ele>1936.4</ele>
        <time>2023-02-16T14:26:10Z</time>
      </trkpt>
      <trkpt lat="44.83623" lon="6.94789">
        <ele>1935.7</ele>
        <time>2023-02-16T14:26:11Z</time>
      </trkpt>
      <trkpt lat="44.83622" lon="6.9478">
        <ele>1934</ele>
        <time>2023-02-16T14:26:13Z</time>
      </trkpt>
      <trkpt lat="44.83621" lon="6.94771">
        <ele>1932.4</ele>
        <time>2023-02-16T14:26:15Z</time>
      </trkpt>
      <trkpt lat="44.83621" lon="6.94765">
        <ele>1931.5</ele>
        <time>2023-02-16T14:26:18Z</time>
      </trkpt>
      <trkpt lat="44.83621" lon="6.94762">
        <ele>1931</ele>
        <time>2023-02-16T14:26:22Z</time>
      </trkpt>
      <trkpt lat="44.8362" lon="6.94761">
        <ele>1930.6</ele>
        <time>2023-02-16T14:26:23Z</time>
      </trkpt>
      <trkpt lat="44.83614" lon="6.94757">
        <ele>1928.8</ele>
        <time>2023-02-16T14:26:25Z</time>
      </trkpt>
      <trkpt lat="44.83613" lon="6.94755">
        <ele>1928.3</ele>
        <time>2023-02-16T14:26:26Z</time>
      </trkpt>
      <trkpt lat="44.83611" lon="6.94751">
        <ele>1927.2</ele>
        <time>2023-02-16T14:26:28Z</time>
      </trkpt>
      <trkpt lat="44.83609" lon="6.94745">
        <ele>1925.9</ele>
        <time>2023-02-16T14:26:30Z</time>
      </trkpt>
      <trkpt lat="44.83607" lon="6.94743">
        <ele>1925.6</ele>
        <time>2023-02-16T14:26:32Z</time>
      </trkpt>
      <trkpt lat="44.83607" lon="6.94743">
        <ele>1925.6</ele>
        <time>2023-02-16T14:26:34Z</time>
      </trkpt>
      <trkpt lat="44.83606" lon="6.94743">
        <ele>1925.7</ele>
        <time>2023-02-16T14:26:40Z</time>
      </trkpt>
      <trkpt lat="44.83605" lon="6.94744">
        <ele>1926.1</ele>
        <time>2023-02-16T14:26:42Z</time>
      </trkpt>
      <trkpt lat="44.83607" lon="6.94744">
        <ele>1925.9</ele>
        <time>2023-02-16T14:26:50Z</time>
      </trkpt>
      <trkpt lat="44.83605" lon="6.94743">
        <ele>1925.8</ele>
        <time>2023-02-16T14:26:57Z</time>
      </trkpt>
      <trkpt lat="44.83605" lon="6.94744">
        <ele>1926.1</ele>
        <time>2023-02-16T14:27:05Z</time>
      </trkpt>
      <trkpt lat="44.83608" lon="6.94744">
        <ele>1925.8</ele>
        <time>2023-02-16T14:27:12Z</time>
      </trkpt>
      <trkpt lat="44.83609" lon="6.94743">
        <ele>1925.4</ele>
        <time>2023-02-16T14:27:20Z</time>
      </trkpt>
      <trkpt lat="44.83612" lon="6.94739">
        <ele>1924.5</ele>
        <time>2023-02-16T14:27:26Z</time>
      </trkpt>
      <trkpt lat="44.83613" lon="6.94736">
        <ele>1924.1</ele>
        <time>2023-02-16T14:27:27Z</time>
      </trkpt>
      <trkpt lat="44.83614" lon="6.94735">
        <ele>1924.1</ele>
        <time>2023-02-16T14:27:28Z</time>
      </trkpt>
      <trkpt lat="44.83614" lon="6.94734">
        <ele>1923.9</ele>
        <time>2023-02-16T14:27:31Z</time>
      </trkpt>
      <trkpt lat="44.83611" lon="6.94732">
        <ele>1922.5</ele>
        <time>2023-02-16T14:27:40Z</time>
      </trkpt>
      <trkpt lat="44.83609" lon="6.94731">
        <ele>1922.3</ele>
        <time>2023-02-16T14:27:44Z</time>
      </trkpt>
      <trkpt lat="44.83609" lon="6.94732">
        <ele>1922.6</ele>
        <time>2023-02-16T14:27:48Z</time>
      </trkpt>
      <trkpt lat="44.8361" lon="6.94734">
        <ele>1923</ele>
        <time>2023-02-16T14:27:57Z</time>
      </trkpt>
      <trkpt lat="44.83617" lon="6.94735">
        <ele>1925.1</ele>
        <time>2023-02-16T14:28:07Z</time>
      </trkpt>
      <trkpt lat="44.83616" lon="6.94716">
        <ele>1920.6</ele>
        <time>2023-02-16T14:28:11Z</time>
      </trkpt>
      <trkpt lat="44.83617" lon="6.947">
        <ele>1917.5</ele>
        <time>2023-02-16T14:28:14Z</time>
      </trkpt>
      <trkpt lat="44.83619" lon="6.94685">
        <ele>1914.7</ele>
        <time>2023-02-16T14:28:17Z</time>
      </trkpt>
      <trkpt lat="44.83622" lon="6.94676">
        <ele>1913.7</ele>
        <time>2023-02-16T14:28:19Z</time>
      </trkpt>
      <trkpt lat="44.83634" lon="6.94658">
        <ele>1914.5</ele>
        <time>2023-02-16T14:28:23Z</time>
      </trkpt>
      <trkpt lat="44.8364" lon="6.94643">
        <ele>1914.2</ele>
        <time>2023-02-16T14:28:25Z</time>
      </trkpt>
      <trkpt lat="44.83643" lon="6.94627">
        <ele>1912.6</ele>
        <time>2023-02-16T14:28:27Z</time>
      </trkpt>
      <trkpt lat="44.83644" lon="6.94613">
        <ele>1910.5</ele>
        <time>2023-02-16T14:28:29Z</time>
      </trkpt>
      <trkpt lat="44.83645" lon="6.94602">
        <ele>1909.1</ele>
        <time>2023-02-16T14:28:31Z</time>
      </trkpt>
      <trkpt lat="44.83645" lon="6.94588">
        <ele>1906.7</ele>
        <time>2023-02-16T14:28:33Z</time>
      </trkpt>
      <trkpt lat="44.83646" lon="6.94572">
        <ele>1904.9</ele>
        <time>2023-02-16T14:28:35Z</time>
      </trkpt>
      <trkpt lat="44.83647" lon="6.94565">
        <ele>1904.5</ele>
        <time>2023-02-16T14:28:36Z</time>
      </trkpt>
      <trkpt lat="44.83647" lon="6.94557">
        <ele>1903.6</ele>
        <time>2023-02-16T14:28:37Z</time>
      </trkpt>
      <trkpt lat="44.83647" lon="6.9455">
        <ele>1902.8</ele>
        <time>2023-02-16T14:28:38Z</time>
      </trkpt>
      <trkpt lat="44.83648" lon="6.94539">
        <ele>1902.1</ele>
        <time>2023-02-16T14:28:40Z</time>
      </trkpt>
      <trkpt lat="44.83649" lon="6.94532">
        <ele>1901.9</ele>
        <time>2023-02-16T14:28:43Z</time>
      </trkpt>
      <trkpt lat="44.83649" lon="6.94533">
        <ele>1902</ele>
        <time>2023-02-16T14:28:45Z</time>
      </trkpt>
      <trkpt lat="44.8365" lon="6.94531">
        <ele>1902.3</ele>
        <time>2023-02-16T14:28:51Z</time>
      </trkpt>
      <trkpt lat="44.83651" lon="6.94529">
        <ele>1902.7</ele>
        <time>2023-02-16T14:28:53Z</time>
      </trkpt>
      <trkpt lat="44.83653" lon="6.94517">
        <ele>1901.9</ele>
        <time>2023-02-16T14:28:57Z</time>
      </trkpt>
      <trkpt lat="44.83654" lon="6.94508">
        <ele>1901</ele>
        <time>2023-02-16T14:29:00Z</time>
      </trkpt>
      <trkpt lat="44.83655" lon="6.945">
        <ele>1900.3</ele>
        <time>2023-02-16T14:29:03Z</time>
      </trkpt>
      <trkpt lat="44.83655" lon="6.94495">
        <ele>1899.6</ele>
        <time>2023-02-16T14:29:06Z</time>
      </trkpt>
      <trkpt lat="44.83655" lon="6.94494">
        <ele>1899.4</ele>
        <time>2023-02-16T14:29:08Z</time>
      </trkpt>
      <trkpt lat="44.83655" lon="6.94493">
        <ele>1899.3</ele>
        <time>2023-02-16T14:29:11Z</time>
      </trkpt>
      <trkpt lat="44.83655" lon="6.9449">
        <ele>1898.8</ele>
        <time>2023-02-16T14:29:13Z</time>
      </trkpt>
      <trkpt lat="44.83654" lon="6.94488">
        <ele>1898</ele>
        <time>2023-02-16T14:29:14Z</time>
      </trkpt>
      <trkpt lat="44.83654" lon="6.94476">
        <ele>1896.2</ele>
        <time>2023-02-16T14:29:17Z</time>
      </trkpt>
      <trkpt lat="44.83654" lon="6.94472">
        <ele>1895.7</ele>
        <time>2023-02-16T14:29:18Z</time>
      </trkpt>
      <trkpt lat="44.83657" lon="6.9446">
        <ele>1895.7</ele>
        <time>2023-02-16T14:29:22Z</time>
      </trkpt>
      <trkpt lat="44.83659" lon="6.94454">
        <ele>1896</ele>
        <time>2023-02-16T14:29:24Z</time>
      </trkpt>
      <trkpt lat="44.83661" lon="6.94447">
        <ele>1896.1</ele>
        <time>2023-02-16T14:29:26Z</time>
      </trkpt>
      <trkpt lat="44.83662" lon="6.9444">
        <ele>1895.8</ele>
        <time>2023-02-16T14:29:28Z</time>
      </trkpt>
      <trkpt lat="44.83663" lon="6.94439">
        <ele>1896.3</ele>
        <time>2023-02-16T14:29:31Z</time>
      </trkpt>
      <trkpt lat="44.83663" lon="6.94439">
        <ele>1896.3</ele>
        <time>2023-02-16T14:29:33Z</time>
      </trkpt>
      <trkpt lat="44.8366" lon="6.94442">
        <ele>1894.9</ele>
        <time>2023-02-16T14:29:35Z</time>
      </trkpt>
      <trkpt lat="44.83656" lon="6.94446">
        <ele>1893.1</ele>
        <time>2023-02-16T14:29:38Z</time>
      </trkpt>
      <trkpt lat="44.83654" lon="6.94449">
        <ele>1892.4</ele>
        <time>2023-02-16T14:29:41Z</time>
      </trkpt>
      <trkpt lat="44.83654" lon="6.9445">
        <ele>1892.5</ele>
        <time>2023-02-16T14:29:42Z</time>
      </trkpt>
      <trkpt lat="44.83652" lon="6.94453">
        <ele>1891.8</ele>
        <time>2023-02-16T14:29:50Z</time>
      </trkpt>
      <trkpt lat="44.83653" lon="6.94448">
        <ele>1891.6</ele>
        <time>2023-02-16T14:29:53Z</time>
      </trkpt>
      <trkpt lat="44.83654" lon="6.94443">
        <ele>1891.5</ele>
        <time>2023-02-16T14:29:56Z</time>
      </trkpt>
      <trkpt lat="44.83653" lon="6.94441">
        <ele>1890.8</ele>
        <time>2023-02-16T14:29:59Z</time>
      </trkpt>
      <trkpt lat="44.83652" lon="6.94438">
        <ele>1889.9</ele>
        <time>2023-02-16T14:30:03Z</time>
      </trkpt>
      <trkpt lat="44.83649" lon="6.94438">
        <ele>1888.1</ele>
        <time>2023-02-16T14:30:09Z</time>
      </trkpt>
      <trkpt lat="44.83647" lon="6.94437">
        <ele>1886.9</ele>
        <time>2023-02-16T14:30:15Z</time>
      </trkpt>
      <trkpt lat="44.83644" lon="6.94443">
        <ele>1885.8</ele>
        <time>2023-02-16T14:30:22Z</time>
      </trkpt>
      <trkpt lat="44.83643" lon="6.94444">
        <ele>1885.3</ele>
        <time>2023-02-16T14:30:23Z</time>
      </trkpt>
      <trkpt lat="44.83638" lon="6.94446">
        <ele>1883</ele>
        <time>2023-02-16T14:30:29Z</time>
      </trkpt>
      <trkpt lat="44.83637" lon="6.94446">
        <ele>1882.7</ele>
        <time>2023-02-16T14:30:31Z</time>
      </trkpt>
      <trkpt lat="44.83636" lon="6.94446">
        <ele>1882.4</ele>
        <time>2023-02-16T14:30:33Z</time>
      </trkpt>
      <trkpt lat="44.83633" lon="6.94447">
        <ele>1881.7</ele>
        <time>2023-02-16T14:30:38Z</time>
      </trkpt>
      <trkpt lat="44.83632" lon="6.94445">
        <ele>1881.1</ele>
        <time>2023-02-16T14:30:40Z</time>
      </trkpt>
      <trkpt lat="44.83633" lon="6.9444">
        <ele>1880.8</ele>
        <time>2023-02-16T14:30:42Z</time>
      </trkpt>
      <trkpt lat="44.83633" lon="6.94436">
        <ele>1880.4</ele>
        <time>2023-02-16T14:30:43Z</time>
      </trkpt>
      <trkpt lat="44.83633" lon="6.94433">
        <ele>1880.1</ele>
        <time>2023-02-16T14:30:44Z</time>
      </trkpt>
      <trkpt lat="44.83633" lon="6.94432">
        <ele>1880</ele>
        <time>2023-02-16T14:30:45Z</time>
      </trkpt>
      <trkpt lat="44.83632" lon="6.94431">
        <ele>1879.6</ele>
        <time>2023-02-16T14:30:48Z</time>
      </trkpt>
      <trkpt lat="44.83631" lon="6.94431">
        <ele>1879.3</ele>
        <time>2023-02-16T14:30:51Z</time>
      </trkpt>
      <trkpt lat="44.83632" lon="6.9443">
        <ele>1879.5</ele>
        <time>2023-02-16T14:30:55Z</time>
      </trkpt>
      <trkpt lat="44.83631" lon="6.94427">
        <ele>1878.8</ele>
        <time>2023-02-16T14:30:58Z</time>
      </trkpt>
      <trkpt lat="44.8363" lon="6.94425">
        <ele>1878.3</ele>
        <time>2023-02-16T14:30:59Z</time>
      </trkpt>
      <trkpt lat="44.8363" lon="6.94424">
        <ele>1878.2</ele>
        <time>2023-02-16T14:31:00Z</time>
      </trkpt>
      <trkpt lat="44.8363" lon="6.94422">
        <ele>1878</ele>
        <time>2023-02-16T14:31:03Z</time>
      </trkpt>
      <trkpt lat="44.8363" lon="6.9442">
        <ele>1877.8</ele>
        <time>2023-02-16T14:31:05Z</time>
      </trkpt>
      <trkpt lat="44.83629" lon="6.94419">
        <ele>1877.4</ele>
        <time>2023-02-16T14:31:06Z</time>
      </trkpt>
      <trkpt lat="44.83628" lon="6.94416">
        <ele>1876.8</ele>
        <time>2023-02-16T14:31:09Z</time>
      </trkpt>
      <trkpt lat="44.83628" lon="6.94414">
        <ele>1876.5</ele>
        <time>2023-02-16T14:31:11Z</time>
      </trkpt>
      <trkpt lat="44.83628" lon="6.94414">
        <ele>1876.5</ele>
        <time>2023-02-16T14:31:12Z</time>
      </trkpt>
      <trkpt lat="44.83627" lon="6.94409">
        <ele>1875.6</ele>
        <time>2023-02-16T14:31:17Z</time>
      </trkpt>
      <trkpt lat="44.83627" lon="6.94406">
        <ele>1875.3</ele>
        <time>2023-02-16T14:31:19Z</time>
      </trkpt>
      <trkpt lat="44.83627" lon="6.94401">
        <ele>1874.6</ele>
        <time>2023-02-16T14:31:22Z</time>
      </trkpt>
      <trkpt lat="44.83625" lon="6.94399">
        <ele>1873.8</ele>
        <time>2023-02-16T14:31:24Z</time>
      </trkpt>
      <trkpt lat="44.83623" lon="6.94391">
        <ele>1872.1</ele>
        <time>2023-02-16T14:31:26Z</time>
      </trkpt>
      <trkpt lat="44.83622" lon="6.9438">
        <ele>1870.9</ele>
        <time>2023-02-16T14:31:28Z</time>
      </trkpt>
      <trkpt lat="44.83622" lon="6.94375">
        <ele>1870.5</ele>
        <time>2023-02-16T14:31:29Z</time>
      </trkpt>
      <trkpt lat="44.8362" lon="6.94369">
        <ele>1869.4</ele>
        <time>2023-02-16T14:31:31Z</time>
      </trkpt>
      <trkpt lat="44.83617" lon="6.94354">
        <ele>1867.1</ele>
        <time>2023-02-16T14:31:35Z</time>
      </trkpt>
      <trkpt lat="44.83616" lon="6.94348">
        <ele>1866.1</ele>
        <time>2023-02-16T14:31:36Z</time>
      </trkpt>
      <trkpt lat="44.83613" lon="6.94334">
        <ele>1863.6</ele>
        <time>2023-02-16T14:31:38Z</time>
      </trkpt>
      <trkpt lat="44.83612" lon="6.94327">
        <ele>1862.8</ele>
        <time>2023-02-16T14:31:39Z</time>
      </trkpt>
      <trkpt lat="44.83616" lon="6.94323">
        <ele>1863.6</ele>
        <time>2023-02-16T14:31:40Z</time>
      </trkpt>
      <trkpt lat="44.83617" lon="6.94321">
        <ele>1863.7</ele>
        <time>2023-02-16T14:31:41Z</time>
      </trkpt>
      <trkpt lat="44.83617" lon="6.9432">
        <ele>1863.6</ele>
        <time>2023-02-16T14:31:42Z</time>
      </trkpt>
      <trkpt lat="44.83618" lon="6.94319">
        <ele>1863.8</ele>
        <time>2023-02-16T14:31:43Z</time>
      </trkpt>
      <trkpt lat="44.8362" lon="6.94309">
        <ele>1863.5</ele>
        <time>2023-02-16T14:31:46Z</time>
      </trkpt>
      <trkpt lat="44.83619" lon="6.94301">
        <ele>1862.3</ele>
        <time>2023-02-16T14:31:48Z</time>
      </trkpt>
      <trkpt lat="44.83619" lon="6.94295">
        <ele>1861.3</ele>
        <time>2023-02-16T14:31:50Z</time>
      </trkpt>
      <trkpt lat="44.83618" lon="6.94278">
        <ele>1858.3</ele>
        <time>2023-02-16T14:31:53Z</time>
      </trkpt>
      <trkpt lat="44.83616" lon="6.94259">
        <ele>1855.1</ele>
        <time>2023-02-16T14:31:56Z</time>
      </trkpt>
      <trkpt lat="44.83616" lon="6.94247">
        <ele>1853.5</ele>
        <time>2023-02-16T14:31:58Z</time>
      </trkpt>
      <trkpt lat="44.83615" lon="6.94235">
        <ele>1851.5</ele>
        <time>2023-02-16T14:32:00Z</time>
      </trkpt>
      <trkpt lat="44.83613" lon="6.94215">
        <ele>1848.8</ele>
        <time>2023-02-16T14:32:03Z</time>
      </trkpt>
      <trkpt lat="44.83613" lon="6.94208">
        <ele>1848.7</ele>
        <time>2023-02-16T14:32:04Z</time>
      </trkpt>
      <trkpt lat="44.83612" lon="6.942">
        <ele>1848.3</ele>
        <time>2023-02-16T14:32:05Z</time>
      </trkpt>
      <trkpt lat="44.8361" lon="6.94186">
        <ele>1847.9</ele>
        <time>2023-02-16T14:32:07Z</time>
      </trkpt>
      <trkpt lat="44.83609" lon="6.94183">
        <ele>1847.8</ele>
        <time>2023-02-16T14:32:08Z</time>
      </trkpt>
      <trkpt lat="44.8361" lon="6.94181">
        <ele>1847.9</ele>
        <time>2023-02-16T14:32:12Z</time>
      </trkpt>
      <trkpt lat="44.8361" lon="6.94182">
        <ele>1847.9</ele>
        <time>2023-02-16T14:32:20Z</time>
      </trkpt>
      <trkpt lat="44.83607" lon="6.94181">
        <ele>1847.6</ele>
        <time>2023-02-16T14:32:21Z</time>
      </trkpt>
      <trkpt lat="44.83604" lon="6.94176">
        <ele>1847.1</ele>
        <time>2023-02-16T14:32:24Z</time>
      </trkpt>
      <trkpt lat="44.83604" lon="6.94176">
        <ele>1847.1</ele>
        <time>2023-02-16T14:32:25Z</time>
      </trkpt>
      <trkpt lat="44.83605" lon="6.94175">
        <ele>1847.2</ele>
        <time>2023-02-16T14:32:30Z</time>
      </trkpt>
      <trkpt lat="44.83602" lon="6.94173">
        <ele>1846.7</ele>
        <time>2023-02-16T14:32:37Z</time>
      </trkpt>
      <trkpt lat="44.83602" lon="6.94173">
        <ele>1846.7</ele>
        <time>2023-02-16T14:32:38Z</time>
      </trkpt>
      <trkpt lat="44.83601" lon="6.94171">
        <ele>1846.4</ele>
        <time>2023-02-16T14:32:44Z</time>
      </trkpt>
      <trkpt lat="44.836" lon="6.9417">
        <ele>1846.2</ele>
        <time>2023-02-16T14:32:52Z</time>
      </trkpt>
      <trkpt lat="44.836" lon="6.94173">
        <ele>1846.4</ele>
        <time>2023-02-16T14:32:59Z</time>
      </trkpt>
      <trkpt lat="44.83598" lon="6.94172">
        <ele>1846</ele>
        <time>2023-02-16T14:33:08Z</time>
      </trkpt>
      <trkpt lat="44.83599" lon="6.94171">
        <ele>1846.1</ele>
        <time>2023-02-16T14:33:10Z</time>
      </trkpt>
      <trkpt lat="44.83599" lon="6.94167">
        <ele>1845.8</ele>
        <time>2023-02-16T14:33:23Z</time>
      </trkpt>
      <trkpt lat="44.836" lon="6.94168">
        <ele>1846.1</ele>
        <time>2023-02-16T14:33:30Z</time>
      </trkpt>
      <trkpt lat="44.83601" lon="6.94167">
        <ele>1846.2</ele>
        <time>2023-02-16T14:33:38Z</time>
      </trkpt>
      <trkpt lat="44.83604" lon="6.94168">
        <ele>1846.8</ele>
        <time>2023-02-16T14:33:43Z</time>
      </trkpt>
      <trkpt lat="44.83609" lon="6.94169">
        <ele>1847.6</ele>
        <time>2023-02-16T14:33:51Z</time>
      </trkpt>
      <trkpt lat="44.83612" lon="6.94168">
        <ele>1848.3</ele>
        <time>2023-02-16T14:33:56Z</time>
      </trkpt>
      <trkpt lat="44.83614" lon="6.94169">
        <ele>1849</ele>
        <time>2023-02-16T14:34:04Z</time>
      </trkpt>
      <trkpt lat="44.83614" lon="6.94169">
        <ele>1849</ele>
        <time>2023-02-16T14:34:17Z</time>
      </trkpt>
      <trkpt lat="44.83614" lon="6.94169">
        <ele>1849</ele>
        <time>2023-02-16T14:34:18Z</time>
      </trkpt>
      <trkpt lat="44.83613" lon="6.94169">
        <ele>1848.7</ele>
        <time>2023-02-16T14:34:34Z</time>
      </trkpt>
      <trkpt lat="44.83613" lon="6.9417">
        <ele>1848.7</ele>
        <time>2023-02-16T14:34:49Z</time>
      </trkpt>
      <trkpt lat="44.83614" lon="6.94171">
        <ele>1849</ele>
        <time>2023-02-16T14:35:02Z</time>
      </trkpt>
      <trkpt lat="44.83614" lon="6.94166">
        <ele>1849.1</ele>
        <time>2023-02-16T14:35:14Z</time>
      </trkpt>
      <trkpt lat="44.83614" lon="6.94164">
        <ele>1849.3</ele>
        <time>2023-02-16T14:35:16Z</time>
      </trkpt>
      <trkpt lat="44.83611" lon="6.94161">
        <ele>1848.6</ele>
        <time>2023-02-16T14:35:18Z</time>
      </trkpt>
      <trkpt lat="44.83608" lon="6.94155">
        <ele>1848.5</ele>
        <time>2023-02-16T14:35:21Z</time>
      </trkpt>
      <trkpt lat="44.83607" lon="6.94152">
        <ele>1848.5</ele>
        <time>2023-02-16T14:35:22Z</time>
      </trkpt>
      <trkpt lat="44.83602" lon="6.94137">
        <ele>1848.3</ele>
        <time>2023-02-16T14:35:26Z</time>
      </trkpt>
      <trkpt lat="44.83601" lon="6.94135">
        <ele>1848.3</ele>
        <time>2023-02-16T14:35:27Z</time>
      </trkpt>
      <trkpt lat="44.83599" lon="6.94138">
        <ele>1847.2</ele>
        <time>2023-02-16T14:35:29Z</time>
      </trkpt>
      <trkpt lat="44.83598" lon="6.94141">
        <ele>1846.7</ele>
        <time>2023-02-16T14:35:30Z</time>
      </trkpt>
      <trkpt lat="44.83596" lon="6.94148">
        <ele>1845.8</ele>
        <time>2023-02-16T14:35:32Z</time>
      </trkpt>
      <trkpt lat="44.83594" lon="6.94152">
        <ele>1845.2</ele>
        <time>2023-02-16T14:35:34Z</time>
      </trkpt>
      <trkpt lat="44.83591" lon="6.94153">
        <ele>1844.4</ele>
        <time>2023-02-16T14:35:35Z</time>
      </trkpt>
      <trkpt lat="44.83587" lon="6.9415">
        <ele>1843.4</ele>
        <time>2023-02-16T14:35:38Z</time>
      </trkpt>
      <trkpt lat="44.83584" lon="6.94148">
        <ele>1842.5</ele>
        <time>2023-02-16T14:35:41Z</time>
      </trkpt>
      <trkpt lat="44.83584" lon="6.94147">
        <ele>1842.5</ele>
        <time>2023-02-16T14:35:42Z</time>
      </trkpt>
      <trkpt lat="44.83582" lon="6.94143">
        <ele>1842.1</ele>
        <time>2023-02-16T14:35:45Z</time>
      </trkpt>
      <trkpt lat="44.8358" lon="6.9414">
        <ele>1841.8</ele>
        <time>2023-02-16T14:35:47Z</time>
      </trkpt>
      <trkpt lat="44.83577" lon="6.94135">
        <ele>1841.6</ele>
        <time>2023-02-16T14:35:53Z</time>
      </trkpt>
      <trkpt lat="44.83577" lon="6.94136">
        <ele>1841.6</ele>
        <time>2023-02-16T14:35:55Z</time>
      </trkpt>
      <trkpt lat="44.83578" lon="6.94142">
        <ele>1841.8</ele>
        <time>2023-02-16T14:35:57Z</time>
      </trkpt>
      <trkpt lat="44.83575" lon="6.94144">
        <ele>1841.9</ele>
        <time>2023-02-16T14:36:01Z</time>
      </trkpt>
      <trkpt lat="44.83575" lon="6.94145">
        <ele>1841.9</ele>
        <time>2023-02-16T14:36:02Z</time>
      </trkpt>
      <trkpt lat="44.83571" lon="6.94148">
        <ele>1842.2</ele>
        <time>2023-02-16T14:36:06Z</time>
      </trkpt>
      <trkpt lat="44.83569" lon="6.94151">
        <ele>1842.5</ele>
        <time>2023-02-16T14:36:12Z</time>
      </trkpt>
      <trkpt lat="44.83562" lon="6.94152">
        <ele>1842.7</ele>
        <time>2023-02-16T14:36:19Z</time>
      </trkpt>
      <trkpt lat="44.83557" lon="6.9415">
        <ele>1842.4</ele>
        <time>2023-02-16T14:36:21Z</time>
      </trkpt>
      <trkpt lat="44.83539" lon="6.94133">
        <ele>1841.6</ele>
        <time>2023-02-16T14:36:26Z</time>
      </trkpt>
      <trkpt lat="44.8353" lon="6.94123">
        <ele>1840.2</ele>
        <time>2023-02-16T14:36:28Z</time>
      </trkpt>
      <trkpt lat="44.83519" lon="6.94112">
        <ele>1838.5</ele>
        <time>2023-02-16T14:36:30Z</time>
      </trkpt>
      <trkpt lat="44.83502" lon="6.94098">
        <ele>1837.5</ele>
        <time>2023-02-16T14:36:33Z</time>
      </trkpt>
      <trkpt lat="44.83492" lon="6.94092">
        <ele>1836.1</ele>
        <time>2023-02-16T14:36:35Z</time>
      </trkpt>
      <trkpt lat="44.83488" lon="6.9409">
        <ele>1835.5</ele>
        <time>2023-02-16T14:36:36Z</time>
      </trkpt>
      <trkpt lat="44.83476" lon="6.94087">
        <ele>1834.3</ele>
        <time>2023-02-16T14:36:39Z</time>
      </trkpt>
      <trkpt lat="44.8346" lon="6.94084">
        <ele>1833.2</ele>
        <time>2023-02-16T14:36:45Z</time>
      </trkpt>
      <trkpt lat="44.83448" lon="6.94084">
        <ele>1833.2</ele>
        <time>2023-02-16T14:36:51Z</time>
      </trkpt>
      <trkpt lat="44.8344" lon="6.94083">
        <ele>1832.8</ele>
        <time>2023-02-16T14:36:56Z</time>
      </trkpt>
      <trkpt lat="44.83427" lon="6.94083">
        <ele>1832.3</ele>
        <time>2023-02-16T14:37:01Z</time>
      </trkpt>
      <trkpt lat="44.83412" lon="6.94087">
        <ele>1833.3</ele>
        <time>2023-02-16T14:37:07Z</time>
      </trkpt>
      <trkpt lat="44.83403" lon="6.9409">
        <ele>1834.8</ele>
        <time>2023-02-16T14:37:11Z</time>
      </trkpt>
      <trkpt lat="44.83392" lon="6.9409">
        <ele>1835.4</ele>
        <time>2023-02-16T14:37:15Z</time>
      </trkpt>
      <trkpt lat="44.83379" lon="6.94089">
        <ele>1836.6</ele>
        <time>2023-02-16T14:37:22Z</time>
      </trkpt>
      <trkpt lat="44.83364" lon="6.94083">
        <ele>1836.5</ele>
        <time>2023-02-16T14:37:29Z</time>
      </trkpt>
      <trkpt lat="44.83356" lon="6.94082">
        <ele>1837.3</ele>
        <time>2023-02-16T14:37:35Z</time>
      </trkpt>
      <trkpt lat="44.83352" lon="6.94082">
        <ele>1837.9</ele>
        <time>2023-02-16T14:37:40Z</time>
      </trkpt>
      <trkpt lat="44.83346" lon="6.9408">
        <ele>1838.1</ele>
        <time>2023-02-16T14:37:49Z</time>
      </trkpt>
      <trkpt lat="44.83343" lon="6.9408">
        <ele>1838.5</ele>
        <time>2023-02-16T14:37:54Z</time>
      </trkpt>
      <trkpt lat="44.83337" lon="6.94079">
        <ele>1839.1</ele>
        <time>2023-02-16T14:38:01Z</time>
      </trkpt>
      <trkpt lat="44.83326" lon="6.94073">
        <ele>1838.9</ele>
        <time>2023-02-16T14:38:12Z</time>
      </trkpt>
      <trkpt lat="44.83325" lon="6.94072">
        <ele>1838.7</ele>
        <time>2023-02-16T14:38:14Z</time>
      </trkpt>
      <trkpt lat="44.8332" lon="6.9407">
        <ele>1838.8</ele>
        <time>2023-02-16T14:38:20Z</time>
      </trkpt>
      <trkpt lat="44.83314" lon="6.94059">
        <ele>1836</ele>
        <time>2023-02-16T14:38:33Z</time>
      </trkpt>
      <trkpt lat="44.83313" lon="6.94055">
        <ele>1834.7</ele>
        <time>2023-02-16T14:38:41Z</time>
      </trkpt>
      <trkpt lat="44.83312" lon="6.94051">
        <ele>1833.5</ele>
        <time>2023-02-16T14:38:44Z</time>
      </trkpt>
      <trkpt lat="44.83305" lon="6.94045">
        <ele>1832.2</ele>
        <time>2023-02-16T14:38:54Z</time>
      </trkpt>
      <trkpt lat="44.83305" lon="6.94044">
        <ele>1831.9</ele>
        <time>2023-02-16T14:38:55Z</time>
      </trkpt>
      <trkpt lat="44.83288" lon="6.94037">
        <ele>1830.2</ele>
        <time>2023-02-16T14:39:10Z</time>
      </trkpt>
      <trkpt lat="44.83274" lon="6.94036">
        <ele>1830.3</ele>
        <time>2023-02-16T14:39:15Z</time>
      </trkpt>
      <trkpt lat="44.8325" lon="6.9404">
        <ele>1831.8</ele>
        <time>2023-02-16T14:39:22Z</time>
      </trkpt>
      <trkpt lat="44.83239" lon="6.94043">
        <ele>1832</ele>
        <time>2023-02-16T14:39:25Z</time>
      </trkpt>
      <trkpt lat="44.83224" lon="6.94049">
        <ele>1832.3</ele>
        <time>2023-02-16T14:39:29Z</time>
      </trkpt>
      <trkpt lat="44.83214" lon="6.9405">
        <ele>1831.9</ele>
        <time>2023-02-16T14:39:32Z</time>
      </trkpt>
      <trkpt lat="44.832" lon="6.94053">
        <ele>1831.7</ele>
        <time>2023-02-16T14:39:36Z</time>
      </trkpt>
      <trkpt lat="44.83197" lon="6.94053">
        <ele>1831.5</ele>
        <time>2023-02-16T14:39:37Z</time>
      </trkpt>
      <trkpt lat="44.83175" lon="6.94058">
        <ele>1830.7</ele>
        <time>2023-02-16T14:39:42Z</time>
      </trkpt>
      <trkpt lat="44.83148" lon="6.9406">
        <ele>1827.2</ele>
        <time>2023-02-16T14:39:48Z</time>
      </trkpt>
      <trkpt lat="44.83145" lon="6.94061">
        <ele>1827</ele>
        <time>2023-02-16T14:39:49Z</time>
      </trkpt>
      <trkpt lat="44.8313" lon="6.94065">
        <ele>1825.8</ele>
        <time>2023-02-16T14:39:54Z</time>
      </trkpt>
      <trkpt lat="44.83126" lon="6.94067">
        <ele>1825.8</ele>
        <time>2023-02-16T14:39:56Z</time>
      </trkpt>
      <trkpt lat="44.83113" lon="6.94078">
        <ele>1827.4</ele>
        <time>2023-02-16T14:40:02Z</time>
      </trkpt>
      <trkpt lat="44.83096" lon="6.94087">
        <ele>1828.5</ele>
        <time>2023-02-16T14:40:09Z</time>
      </trkpt>
      <trkpt lat="44.83086" lon="6.94086">
        <ele>1826.6</ele>
        <time>2023-02-16T14:40:12Z</time>
      </trkpt>
      <trkpt lat="44.83079" lon="6.94085">
        <ele>1825.3</ele>
        <time>2023-02-16T14:40:14Z</time>
      </trkpt>
      <trkpt lat="44.83067" lon="6.94086">
        <ele>1824.5</ele>
        <time>2023-02-16T14:40:17Z</time>
      </trkpt>
      <trkpt lat="44.83053" lon="6.94088">
        <ele>1824.1</ele>
        <time>2023-02-16T14:40:20Z</time>
      </trkpt>
      <trkpt lat="44.83048" lon="6.94088">
        <ele>1823.9</ele>
        <time>2023-02-16T14:40:21Z</time>
      </trkpt>
      <trkpt lat="44.83039" lon="6.94089">
        <ele>1823.9</ele>
        <time>2023-02-16T14:40:23Z</time>
      </trkpt>
      <trkpt lat="44.83021" lon="6.94089">
        <ele>1823.2</ele>
        <time>2023-02-16T14:40:26Z</time>
      </trkpt>
      <trkpt lat="44.83015" lon="6.94087">
        <ele>1822.1</ele>
        <time>2023-02-16T14:40:27Z</time>
      </trkpt>
      <trkpt lat="44.82996" lon="6.94084">
        <ele>1820</ele>
        <time>2023-02-16T14:40:30Z</time>
      </trkpt>
      <trkpt lat="44.82983" lon="6.94084">
        <ele>1819</ele>
        <time>2023-02-16T14:40:32Z</time>
      </trkpt>
      <trkpt lat="44.82976" lon="6.94084">
        <ele>1818.5</ele>
        <time>2023-02-16T14:40:33Z</time>
      </trkpt>
      <trkpt lat="44.82969" lon="6.94083">
        <ele>1817.6</ele>
        <time>2023-02-16T14:40:34Z</time>
      </trkpt>
      <trkpt lat="44.82954" lon="6.94084">
        <ele>1817</ele>
        <time>2023-02-16T14:40:36Z</time>
      </trkpt>
      <trkpt lat="44.82938" lon="6.94086">
        <ele>1816.6</ele>
        <time>2023-02-16T14:40:38Z</time>
      </trkpt>
      <trkpt lat="44.82921" lon="6.94088">
        <ele>1816.2</ele>
        <time>2023-02-16T14:40:40Z</time>
      </trkpt>
      <trkpt lat="44.82913" lon="6.94089">
        <ele>1815.9</ele>
        <time>2023-02-16T14:40:41Z</time>
      </trkpt>
      <trkpt lat="44.82905" lon="6.9409">
        <ele>1815.6</ele>
        <time>2023-02-16T14:40:42Z</time>
      </trkpt>
      <trkpt lat="44.8288" lon="6.94094">
        <ele>1815</ele>
        <time>2023-02-16T14:40:45Z</time>
      </trkpt>
      <trkpt lat="44.82858" lon="6.94096">
        <ele>1814.8</ele>
        <time>2023-02-16T14:40:48Z</time>
      </trkpt>
      <trkpt lat="44.82843" lon="6.94095">
        <ele>1815.4</ele>
        <time>2023-02-16T14:40:50Z</time>
      </trkpt>
      <trkpt lat="44.82819" lon="6.94092">
        <ele>1813.3</ele>
        <time>2023-02-16T14:40:55Z</time>
      </trkpt>
      <trkpt lat="44.82798" lon="6.94091">
        <ele>1809.9</ele>
        <time>2023-02-16T14:41:00Z</time>
      </trkpt>
      <trkpt lat="44.82798" lon="6.94093">
        <ele>1810.5</ele>
        <time>2023-02-16T14:41:01Z</time>
      </trkpt>
      <trkpt lat="44.82789" lon="6.94101">
        <ele>1811.5</ele>
        <time>2023-02-16T14:41:05Z</time>
      </trkpt>
      <trkpt lat="44.82778" lon="6.94097">
        <ele>1808.5</ele>
        <time>2023-02-16T14:41:06Z</time>
      </trkpt>
      <trkpt lat="44.82776" lon="6.94096">
        <ele>1807.8</ele>
        <time>2023-02-16T14:41:07Z</time>
      </trkpt>
      <trkpt lat="44.82769" lon="6.94096">
        <ele>1806.5</ele>
        <time>2023-02-16T14:41:09Z</time>
      </trkpt>
      <trkpt lat="44.8276" lon="6.94094">
        <ele>1804.3</ele>
        <time>2023-02-16T14:41:11Z</time>
      </trkpt>
      <trkpt lat="44.82755" lon="6.94094">
        <ele>1803.4</ele>
        <time>2023-02-16T14:41:12Z</time>
      </trkpt>
      <trkpt lat="44.82751" lon="6.94094">
        <ele>1802.6</ele>
        <time>2023-02-16T14:41:13Z</time>
      </trkpt>
      <trkpt lat="44.82747" lon="6.94095">
        <ele>1802</ele>
        <time>2023-02-16T14:41:14Z</time>
      </trkpt>
      <trkpt lat="44.82743" lon="6.94097">
        <ele>1801.5</ele>
        <time>2023-02-16T14:41:15Z</time>
      </trkpt>
      <trkpt lat="44.82739" lon="6.94098">
        <ele>1800.8</ele>
        <time>2023-02-16T14:41:16Z</time>
      </trkpt>
      <trkpt lat="44.82736" lon="6.941">
        <ele>1800.7</ele>
        <time>2023-02-16T14:41:17Z</time>
      </trkpt>
      <trkpt lat="44.82732" lon="6.94101">
        <ele>1800</ele>
        <time>2023-02-16T14:41:18Z</time>
      </trkpt>
      <trkpt lat="44.82727" lon="6.94102">
        <ele>1799</ele>
        <time>2023-02-16T14:41:19Z</time>
      </trkpt>
      <trkpt lat="44.82718" lon="6.94105">
        <ele>1797.6</ele>
        <time>2023-02-16T14:41:21Z</time>
      </trkpt>
      <trkpt lat="44.82709" lon="6.94111">
        <ele>1797.2</ele>
        <time>2023-02-16T14:41:23Z</time>
      </trkpt>
      <trkpt lat="44.82705" lon="6.94113">
        <ele>1796.6</ele>
        <time>2023-02-16T14:41:24Z</time>
      </trkpt>
      <trkpt lat="44.82702" lon="6.94114">
        <ele>1796</ele>
        <time>2023-02-16T14:41:25Z</time>
      </trkpt>
      <trkpt lat="44.82698" lon="6.94116">
        <ele>1795.4</ele>
        <time>2023-02-16T14:41:27Z</time>
      </trkpt>
      <trkpt lat="44.82696" lon="6.94118">
        <ele>1795.4</ele>
        <time>2023-02-16T14:41:30Z</time>
      </trkpt>
      <trkpt lat="44.82694" lon="6.9412">
        <ele>1795.4</ele>
        <time>2023-02-16T14:41:36Z</time>
      </trkpt>
      <trkpt lat="44.82683" lon="6.94116">
        <ele>1790.5</ele>
        <time>2023-02-16T14:41:43Z</time>
      </trkpt>
      <trkpt lat="44.82682" lon="6.94118">
        <ele>1790.8</ele>
        <time>2023-02-16T14:41:46Z</time>
      </trkpt>
      <trkpt lat="44.82683" lon="6.94122">
        <ele>1792.5</ele>
        <time>2023-02-16T14:41:49Z</time>
      </trkpt>
      <trkpt lat="44.82683" lon="6.94124">
        <ele>1793.2</ele>
        <time>2023-02-16T14:41:51Z</time>
      </trkpt>
      <trkpt lat="44.82683" lon="6.94128">
        <ele>1794.5</ele>
        <time>2023-02-16T14:41:54Z</time>
      </trkpt>
      <trkpt lat="44.82675" lon="6.94137">
        <ele>1795.4</ele>
        <time>2023-02-16T14:42:00Z</time>
      </trkpt>
      <trkpt lat="44.8267" lon="6.9414">
        <ele>1795.2</ele>
        <time>2023-02-16T14:42:02Z</time>
      </trkpt>
      <trkpt lat="44.82663" lon="6.94147">
        <ele>1796.6</ele>
        <time>2023-02-16T14:42:06Z</time>
      </trkpt>
      <trkpt lat="44.82649" lon="6.94149">
        <ele>1796</ele>
        <time>2023-02-16T14:42:12Z</time>
      </trkpt>
      <trkpt lat="44.82642" lon="6.94149">
        <ele>1795.3</ele>
        <time>2023-02-16T14:42:14Z</time>
      </trkpt>
      <trkpt lat="44.82627" lon="6.94148">
        <ele>1795</ele>
        <time>2023-02-16T14:42:18Z</time>
      </trkpt>
      <trkpt lat="44.82623" lon="6.94147">
        <ele>1794.8</ele>
        <time>2023-02-16T14:42:19Z</time>
      </trkpt>
      <trkpt lat="44.82599" lon="6.9414">
        <ele>1792</ele>
        <time>2023-02-16T14:42:24Z</time>
      </trkpt>
      <trkpt lat="44.82588" lon="6.94137">
        <ele>1790.4</ele>
        <time>2023-02-16T14:42:26Z</time>
      </trkpt>
      <trkpt lat="44.82583" lon="6.94135">
        <ele>1789.2</ele>
        <time>2023-02-16T14:42:27Z</time>
      </trkpt>
      <trkpt lat="44.82578" lon="6.94134">
        <ele>1787.7</ele>
        <time>2023-02-16T14:42:28Z</time>
      </trkpt>
      <trkpt lat="44.82567" lon="6.94132">
        <ele>1784.5</ele>
        <time>2023-02-16T14:42:30Z</time>
      </trkpt>
      <trkpt lat="44.82562" lon="6.94132">
        <ele>1783.4</ele>
        <time>2023-02-16T14:42:31Z</time>
      </trkpt>
      <trkpt lat="44.82557" lon="6.94133">
        <ele>1782.8</ele>
        <time>2023-02-16T14:42:32Z</time>
      </trkpt>
      <trkpt lat="44.82551" lon="6.94135">
        <ele>1782.7</ele>
        <time>2023-02-16T14:42:33Z</time>
      </trkpt>
      <trkpt lat="44.8254" lon="6.94144">
        <ele>1784.7</ele>
        <time>2023-02-16T14:42:35Z</time>
      </trkpt>
      <trkpt lat="44.82535" lon="6.9415">
        <ele>1786.1</ele>
        <time>2023-02-16T14:42:36Z</time>
      </trkpt>
      <trkpt lat="44.82529" lon="6.94155">
        <ele>1787</ele>
        <time>2023-02-16T14:42:37Z</time>
      </trkpt>
      <trkpt lat="44.82515" lon="6.94164">
        <ele>1791.3</ele>
        <time>2023-02-16T14:42:39Z</time>
      </trkpt>
      <trkpt lat="44.82508" lon="6.94161">
        <ele>1790.7</ele>
        <time>2023-02-16T14:42:40Z</time>
      </trkpt>
      <trkpt lat="44.82504" lon="6.94155">
        <ele>1788.3</ele>
        <time>2023-02-16T14:42:41Z</time>
      </trkpt>
      <trkpt lat="44.82499" lon="6.9415">
        <ele>1786.1</ele>
        <time>2023-02-16T14:42:42Z</time>
      </trkpt>
      <trkpt lat="44.82495" lon="6.94144">
        <ele>1783.1</ele>
        <time>2023-02-16T14:42:43Z</time>
      </trkpt>
      <trkpt lat="44.82484" lon="6.94135">
        <ele>1778</ele>
        <time>2023-02-16T14:42:45Z</time>
      </trkpt>
      <trkpt lat="44.82479" lon="6.94132">
        <ele>1776.1</ele>
        <time>2023-02-16T14:42:46Z</time>
      </trkpt>
      <trkpt lat="44.82472" lon="6.94131">
        <ele>1775</ele>
        <time>2023-02-16T14:42:47Z</time>
      </trkpt>
      <trkpt lat="44.82466" lon="6.94131">
        <ele>1773.6</ele>
        <time>2023-02-16T14:42:48Z</time>
      </trkpt>
      <trkpt lat="44.82459" lon="6.94132">
        <ele>1772.6</ele>
        <time>2023-02-16T14:42:49Z</time>
      </trkpt>
      <trkpt lat="44.82453" lon="6.94134">
        <ele>1772.1</ele>
        <time>2023-02-16T14:42:50Z</time>
      </trkpt>
      <trkpt lat="44.82447" lon="6.94137">
        <ele>1771.9</ele>
        <time>2023-02-16T14:42:51Z</time>
      </trkpt>
      <trkpt lat="44.82441" lon="6.94142">
        <ele>1771.9</ele>
        <time>2023-02-16T14:42:52Z</time>
      </trkpt>
      <trkpt lat="44.8243" lon="6.94156">
        <ele>1773.2</ele>
        <time>2023-02-16T14:42:54Z</time>
      </trkpt>
      <trkpt lat="44.82418" lon="6.94174">
        <ele>1776.2</ele>
        <time>2023-02-16T14:42:57Z</time>
      </trkpt>
      <trkpt lat="44.82409" lon="6.9418">
        <ele>1778.2</ele>
        <time>2023-02-16T14:42:59Z</time>
      </trkpt>
      <trkpt lat="44.82394" lon="6.94178">
        <ele>1776.4</ele>
        <time>2023-02-16T14:43:03Z</time>
      </trkpt>
      <trkpt lat="44.82376" lon="6.94175">
        <ele>1772.9</ele>
        <time>2023-02-16T14:43:08Z</time>
      </trkpt>
      <trkpt lat="44.82372" lon="6.94176">
        <ele>1772.5</ele>
        <time>2023-02-16T14:43:09Z</time>
      </trkpt>
      <trkpt lat="44.82351" lon="6.94185">
        <ele>1770.6</ele>
        <time>2023-02-16T14:43:13Z</time>
      </trkpt>
      <trkpt lat="44.82345" lon="6.94188">
        <ele>1769.8</ele>
        <time>2023-02-16T14:43:14Z</time>
      </trkpt>
      <trkpt lat="44.82339" lon="6.94191">
        <ele>1768.8</ele>
        <time>2023-02-16T14:43:15Z</time>
      </trkpt>
      <trkpt lat="44.82328" lon="6.94203">
        <ele>1768</ele>
        <time>2023-02-16T14:43:17Z</time>
      </trkpt>
      <trkpt lat="44.82323" lon="6.94209">
        <ele>1767.8</ele>
        <time>2023-02-16T14:43:18Z</time>
      </trkpt>
      <trkpt lat="44.82312" lon="6.9422">
        <ele>1767.3</ele>
        <time>2023-02-16T14:43:20Z</time>
      </trkpt>
      <trkpt lat="44.82292" lon="6.94235">
        <ele>1765.8</ele>
        <time>2023-02-16T14:43:23Z</time>
      </trkpt>
      <trkpt lat="44.82285" lon="6.94237">
        <ele>1764.6</ele>
        <time>2023-02-16T14:43:24Z</time>
      </trkpt>
      <trkpt lat="44.82269" lon="6.94242">
        <ele>1761.8</ele>
        <time>2023-02-16T14:43:27Z</time>
      </trkpt>
      <trkpt lat="44.82266" lon="6.94244">
        <ele>1761.6</ele>
        <time>2023-02-16T14:43:28Z</time>
      </trkpt>
      <trkpt lat="44.82256" lon="6.94257">
        <ele>1762.7</ele>
        <time>2023-02-16T14:43:32Z</time>
      </trkpt>
      <trkpt lat="44.82249" lon="6.94263">
        <ele>1762.5</ele>
        <time>2023-02-16T14:43:35Z</time>
      </trkpt>
      <trkpt lat="44.82243" lon="6.94268">
        <ele>1762.2</ele>
        <time>2023-02-16T14:43:37Z</time>
      </trkpt>
      <trkpt lat="44.82235" lon="6.94276">
        <ele>1762.2</ele>
        <time>2023-02-16T14:43:40Z</time>
      </trkpt>
      <trkpt lat="44.82224" lon="6.94287">
        <ele>1762.8</ele>
        <time>2023-02-16T14:43:44Z</time>
      </trkpt>
      <trkpt lat="44.82216" lon="6.94293">
        <ele>1763.3</ele>
        <time>2023-02-16T14:43:47Z</time>
      </trkpt>
      <trkpt lat="44.82214" lon="6.94295">
        <ele>1763.6</ele>
        <time>2023-02-16T14:43:49Z</time>
      </trkpt>
      <trkpt lat="44.82214" lon="6.94296">
        <ele>1764</ele>
        <time>2023-02-16T14:43:56Z</time>
      </trkpt>
      <trkpt lat="44.82215" lon="6.94296">
        <ele>1764.2</ele>
        <time>2023-02-16T14:44:07Z</time>
      </trkpt>
      <trkpt lat="44.82215" lon="6.94296">
        <ele>1764.2</ele>
        <time>2023-02-16T14:44:08Z</time>
      </trkpt>
      <trkpt lat="44.82214" lon="6.94294">
        <ele>1763.2</ele>
        <time>2023-02-16T14:44:20Z</time>
      </trkpt>
      <trkpt lat="44.82213" lon="6.94296">
        <ele>1763.8</ele>
        <time>2023-02-16T14:44:33Z</time>
      </trkpt>
      <trkpt lat="44.82213" lon="6.94296">
        <ele>1763.8</ele>
        <time>2023-02-16T14:44:45Z</time>
      </trkpt>
      <trkpt lat="44.82207" lon="6.94297">
        <ele>1763</ele>
        <time>2023-02-16T14:44:56Z</time>
      </trkpt>
      <trkpt lat="44.82208" lon="6.94298">
        <ele>1763.6</ele>
        <time>2023-02-16T14:45:06Z</time>
      </trkpt>
      <trkpt lat="44.82205" lon="6.94298">
        <ele>1763</ele>
        <time>2023-02-16T14:45:20Z</time>
      </trkpt>
      <trkpt lat="44.82196" lon="6.94302">
        <ele>1762.9</ele>
        <time>2023-02-16T14:45:33Z</time>
      </trkpt>
      <trkpt lat="44.82193" lon="6.94301">
        <ele>1761.9</ele>
        <time>2023-02-16T14:45:35Z</time>
      </trkpt>
      <trkpt lat="44.82188" lon="6.94304">
        <ele>1762</ele>
        <time>2023-02-16T14:45:43Z</time>
      </trkpt>
      <trkpt lat="44.82176" lon="6.94315">
        <ele>1763.6</ele>
        <time>2023-02-16T14:45:59Z</time>
      </trkpt>
      <trkpt lat="44.82172" lon="6.94316">
        <ele>1763.1</ele>
        <time>2023-02-16T14:46:03Z</time>
      </trkpt>
      <trkpt lat="44.82164" lon="6.94321">
        <ele>1762.8</ele>
        <time>2023-02-16T14:46:12Z</time>
      </trkpt>
      <trkpt lat="44.82152" lon="6.94331">
        <ele>1763</ele>
        <time>2023-02-16T14:46:28Z</time>
      </trkpt>
      <trkpt lat="44.82138" lon="6.94339">
        <ele>1760.8</ele>
        <time>2023-02-16T14:46:44Z</time>
      </trkpt>
      <trkpt lat="44.8213" lon="6.94346">
        <ele>1759.9</ele>
        <time>2023-02-16T14:46:54Z</time>
      </trkpt>
      <trkpt lat="44.82125" lon="6.94347">
        <ele>1758.7</ele>
        <time>2023-02-16T14:46:59Z</time>
      </trkpt>
      <trkpt lat="44.82122" lon="6.9435">
        <ele>1758.4</ele>
        <time>2023-02-16T14:47:04Z</time>
      </trkpt>
      <trkpt lat="44.8212" lon="6.94357">
        <ele>1758.9</ele>
        <time>2023-02-16T14:47:13Z</time>
      </trkpt>
      <trkpt lat="44.8212" lon="6.9436">
        <ele>1759.4</ele>
        <time>2023-02-16T14:47:18Z</time>
      </trkpt>
      <trkpt lat="44.82118" lon="6.94365">
        <ele>1759.4</ele>
        <time>2023-02-16T14:47:25Z</time>
      </trkpt>
      <trkpt lat="44.82119" lon="6.9437">
        <ele>1760.2</ele>
        <time>2023-02-16T14:47:33Z</time>
      </trkpt>
      <trkpt lat="44.82119" lon="6.94373">
        <ele>1760.6</ele>
        <time>2023-02-16T14:47:37Z</time>
      </trkpt>
      <trkpt lat="44.82119" lon="6.94381">
        <ele>1761.4</ele>
        <time>2023-02-16T14:47:47Z</time>
      </trkpt>
      <trkpt lat="44.82117" lon="6.94384">
        <ele>1761.2</ele>
        <time>2023-02-16T14:47:49Z</time>
      </trkpt>
      <trkpt lat="44.82112" lon="6.94384">
        <ele>1759.7</ele>
        <time>2023-02-16T14:47:57Z</time>
      </trkpt>
      <trkpt lat="44.82112" lon="6.94384">
        <ele>1759.7</ele>
        <time>2023-02-16T14:47:59Z</time>
      </trkpt>
      <trkpt lat="44.82112" lon="6.94386">
        <ele>1759.9</ele>
        <time>2023-02-16T14:48:01Z</time>
      </trkpt>
    </trkseg>
  </trk>
  <trk>
    <name><![CDATA[Pic Charbonnel AR]]></name>
    <extensions>
      <line xmlns="http://www.topografix.com/GPX/gpx_style/0/2">
        <color>0000FF</color>
        <width>4</width>
          <extensions>
            <sens>1</sens>
          </extensions>
      </line>
    </extensions>
    <trkseg>
      <trkpt lat="44.82113" lon="6.94374">
        <ele>1758.9</ele>
      </trkpt>
      <trkpt lat="44.82113" lon="6.94374">
        <ele>1758.9</ele>
      </trkpt>
      <trkpt lat="44.82117" lon="6.94365">
        <ele>1759.1</ele>
      </trkpt>
      <trkpt lat="44.8212" lon="6.94363">
        <ele>1759.8</ele>
      </trkpt>
      <trkpt lat="44.82124" lon="6.94362">
        <ele>1760.8</ele>
      </trkpt>
      <trkpt lat="44.82133" lon="6.94361">
        <ele>1763.3</ele>
      </trkpt>
      <trkpt lat="44.82136" lon="6.9436">
        <ele>1764</ele>
      </trkpt>
      <trkpt lat="44.82145" lon="6.94352">
        <ele>1765.4</ele>
      </trkpt>
      <trkpt lat="44.82149" lon="6.94347">
        <ele>1765.7</ele>
      </trkpt>
      <trkpt lat="44.82156" lon="6.94338">
        <ele>1766</ele>
      </trkpt>
      <trkpt lat="44.82165" lon="6.94334">
        <ele>1767.7</ele>
      </trkpt>
      <trkpt lat="44.8217" lon="6.94333">
        <ele>1768.8</ele>
      </trkpt>
      <trkpt lat="44.82186" lon="6.94322">
        <ele>1768.9</ele>
      </trkpt>
      <trkpt lat="44.82198" lon="6.9431">
        <ele>1766.5</ele>
      </trkpt>
      <trkpt lat="44.82209" lon="6.94306">
        <ele>1766.8</ele>
      </trkpt>
      <trkpt lat="44.82216" lon="6.94304">
        <ele>1767.3</ele>
      </trkpt>
      <trkpt lat="44.82215" lon="6.94306">
        <ele>1767.9</ele>
      </trkpt>
      <trkpt lat="44.82215" lon="6.94306">
        <ele>1767.9</ele>
      </trkpt>
      <trkpt lat="44.82215" lon="6.94307">
        <ele>1768.3</ele>
      </trkpt>
      <trkpt lat="44.8222" lon="6.94311">
        <ele>1770.8</ele>
      </trkpt>
      <trkpt lat="44.82221" lon="6.94312">
        <ele>1771.3</ele>
      </trkpt>
      <trkpt lat="44.82225" lon="6.94301">
        <ele>1767.9</ele>
      </trkpt>
      <trkpt lat="44.82226" lon="6.943">
        <ele>1767.8</ele>
      </trkpt>
      <trkpt lat="44.82234" lon="6.94291">
        <ele>1766.5</ele>
      </trkpt>
      <trkpt lat="44.82236" lon="6.94289">
        <ele>1766.4</ele>
      </trkpt>
      <trkpt lat="44.82237" lon="6.94292">
        <ele>1767.6</ele>
      </trkpt>
      <trkpt lat="44.82238" lon="6.94291">
        <ele>1767.5</ele>
      </trkpt>
      <trkpt lat="44.82238" lon="6.94291">
        <ele>1767.5</ele>
      </trkpt>
      <trkpt lat="44.8224" lon="6.94287">
        <ele>1766.8</ele>
      </trkpt>
      <trkpt lat="44.82241" lon="6.94287">
        <ele>1767.1</ele>
      </trkpt>
      <trkpt lat="44.82251" lon="6.94274">
        <ele>1766.2</ele>
      </trkpt>
      <trkpt lat="44.82255" lon="6.9427">
        <ele>1766.2</ele>
      </trkpt>
      <trkpt lat="44.8226" lon="6.94266">
        <ele>1766.5</ele>
      </trkpt>
      <trkpt lat="44.82268" lon="6.94258">
        <ele>1766.5</ele>
      </trkpt>
      <trkpt lat="44.8227" lon="6.94256">
        <ele>1766.5</ele>
      </trkpt>
      <trkpt lat="44.82272" lon="6.94253">
        <ele>1766.2</ele>
      </trkpt>
      <trkpt lat="44.82282" lon="6.94247">
        <ele>1767</ele>
      </trkpt>
      <trkpt lat="44.82297" lon="6.94245">
        <ele>1769.8</ele>
      </trkpt>
      <trkpt lat="44.8231" lon="6.9424">
        <ele>1771.5</ele>
      </trkpt>
      <trkpt lat="44.82312" lon="6.94239">
        <ele>1771.7</ele>
      </trkpt>
      <trkpt lat="44.82317" lon="6.94231">
        <ele>1771.1</ele>
      </trkpt>
      <trkpt lat="44.82325" lon="6.94221">
        <ele>1771.3</ele>
      </trkpt>
      <trkpt lat="44.82327" lon="6.94218">
        <ele>1771.2</ele>
      </trkpt>
      <trkpt lat="44.8234" lon="6.9421">
        <ele>1773.5</ele>
      </trkpt>
      <trkpt lat="44.82343" lon="6.94206">
        <ele>1773.6</ele>
      </trkpt>
      <trkpt lat="44.82351" lon="6.94198">
        <ele>1774</ele>
      </trkpt>
      <trkpt lat="44.82356" lon="6.94195">
        <ele>1774.7</ele>
      </trkpt>
      <trkpt lat="44.82363" lon="6.94191">
        <ele>1775.4</ele>
      </trkpt>
      <trkpt lat="44.82373" lon="6.94184">
        <ele>1775.2</ele>
      </trkpt>
      <trkpt lat="44.82374" lon="6.94184">
        <ele>1775.4</ele>
      </trkpt>
      <trkpt lat="44.82378" lon="6.94182">
        <ele>1775.5</ele>
      </trkpt>
      <trkpt lat="44.8238" lon="6.94183">
        <ele>1776.2</ele>
      </trkpt>
      <trkpt lat="44.82382" lon="6.94183">
        <ele>1776.6</ele>
      </trkpt>
      <trkpt lat="44.82384" lon="6.94183">
        <ele>1777</ele>
      </trkpt>
      <trkpt lat="44.82388" lon="6.94182">
        <ele>1777.4</ele>
      </trkpt>
      <trkpt lat="44.82397" lon="6.94182">
        <ele>1778.2</ele>
      </trkpt>
      <trkpt lat="44.82402" lon="6.94183">
        <ele>1779</ele>
      </trkpt>
      <trkpt lat="44.82416" lon="6.94187">
        <ele>1782.2</ele>
      </trkpt>
      <trkpt lat="44.82422" lon="6.94186">
        <ele>1783.5</ele>
      </trkpt>
      <trkpt lat="44.82428" lon="6.94182">
        <ele>1783.7</ele>
      </trkpt>
      <trkpt lat="44.82436" lon="6.94166">
        <ele>1780.1</ele>
      </trkpt>
      <trkpt lat="44.82444" lon="6.94153">
        <ele>1777.9</ele>
      </trkpt>
      <trkpt lat="44.82457" lon="6.94145">
        <ele>1778</ele>
      </trkpt>
      <trkpt lat="44.82477" lon="6.94145">
        <ele>1782.4</ele>
      </trkpt>
      <trkpt lat="44.82486" lon="6.94149">
        <ele>1784.9</ele>
      </trkpt>
      <trkpt lat="44.8249" lon="6.9415">
        <ele>1785.6</ele>
      </trkpt>
      <trkpt lat="44.82491" lon="6.9415">
        <ele>1785.7</ele>
      </trkpt>
      <trkpt lat="44.82491" lon="6.94146">
        <ele>1783.8</ele>
      </trkpt>
      <trkpt lat="44.82494" lon="6.94147">
        <ele>1784.4</ele>
      </trkpt>
      <trkpt lat="44.82497" lon="6.94148">
        <ele>1785.1</ele>
      </trkpt>
      <trkpt lat="44.82506" lon="6.94151">
        <ele>1786.4</ele>
      </trkpt>
      <trkpt lat="44.82508" lon="6.94153">
        <ele>1787.2</ele>
      </trkpt>
      <trkpt lat="44.82513" lon="6.94156">
        <ele>1788.1</ele>
      </trkpt>
      <trkpt lat="44.82515" lon="6.94151">
        <ele>1786</ele>
      </trkpt>
      <trkpt lat="44.82516" lon="6.9415">
        <ele>1785.5</ele>
      </trkpt>
      <trkpt lat="44.82521" lon="6.94159">
        <ele>1788.8</ele>
      </trkpt>
      <trkpt lat="44.82522" lon="6.94162">
        <ele>1789.8</ele>
      </trkpt>
      <trkpt lat="44.82522" lon="6.94164">
        <ele>1790.6</ele>
      </trkpt>
      <trkpt lat="44.82525" lon="6.94171">
        <ele>1793.5</ele>
      </trkpt>
      <trkpt lat="44.82526" lon="6.94172">
        <ele>1793.9</ele>
      </trkpt>
      <trkpt lat="44.8253" lon="6.94169">
        <ele>1792.6</ele>
      </trkpt>
      <trkpt lat="44.82533" lon="6.94168">
        <ele>1792.6</ele>
      </trkpt>
      <trkpt lat="44.82535" lon="6.94166">
        <ele>1792.1</ele>
      </trkpt>
      <trkpt lat="44.82541" lon="6.9416">
        <ele>1790.9</ele>
      </trkpt>
      <trkpt lat="44.82545" lon="6.94157">
        <ele>1790.4</ele>
      </trkpt>
      <trkpt lat="44.82546" lon="6.94153">
        <ele>1789</ele>
      </trkpt>
      <trkpt lat="44.82554" lon="6.94147">
        <ele>1788</ele>
      </trkpt>
      <trkpt lat="44.82557" lon="6.94145">
        <ele>1787.7</ele>
      </trkpt>
      <trkpt lat="44.8256" lon="6.94143">
        <ele>1787.6</ele>
      </trkpt>
      <trkpt lat="44.82571" lon="6.94141">
        <ele>1789.2</ele>
      </trkpt>
      <trkpt lat="44.82579" lon="6.94144">
        <ele>1792.1</ele>
      </trkpt>
      <trkpt lat="44.82585" lon="6.94146">
        <ele>1793.9</ele>
      </trkpt>
      <trkpt lat="44.82589" lon="6.94147">
        <ele>1794.4</ele>
      </trkpt>
      <trkpt lat="44.82594" lon="6.9415">
        <ele>1795.8</ele>
      </trkpt>
      <trkpt lat="44.82601" lon="6.94151">
        <ele>1796.4</ele>
      </trkpt>
      <trkpt lat="44.82602" lon="6.94152">
        <ele>1796.9</ele>
      </trkpt>
      <trkpt lat="44.82612" lon="6.94153">
        <ele>1797.6</ele>
      </trkpt>
      <trkpt lat="44.82615" lon="6.94154">
        <ele>1797.8</ele>
      </trkpt>
      <trkpt lat="44.82621" lon="6.94157">
        <ele>1798.8</ele>
      </trkpt>
      <trkpt lat="44.82632" lon="6.9416">
        <ele>1799.6</ele>
      </trkpt>
      <trkpt lat="44.82634" lon="6.94161">
        <ele>1799.9</ele>
      </trkpt>
      <trkpt lat="44.82648" lon="6.94164">
        <ele>1801.6</ele>
      </trkpt>
      <trkpt lat="44.82654" lon="6.94166">
        <ele>1802.8</ele>
      </trkpt>
      <trkpt lat="44.82664" lon="6.94166">
        <ele>1803.6</ele>
      </trkpt>
      <trkpt lat="44.82669" lon="6.94164">
        <ele>1803.4</ele>
      </trkpt>
      <trkpt lat="44.82671" lon="6.94163">
        <ele>1803.4</ele>
      </trkpt>
      <trkpt lat="44.82674" lon="6.94161">
        <ele>1803.2</ele>
      </trkpt>
      <trkpt lat="44.82674" lon="6.94161">
        <ele>1803.2</ele>
      </trkpt>
      <trkpt lat="44.82686" lon="6.9415">
        <ele>1802</ele>
      </trkpt>
      <trkpt lat="44.82688" lon="6.94149">
        <ele>1802.2</ele>
      </trkpt>
      <trkpt lat="44.827" lon="6.94136">
        <ele>1801.8</ele>
      </trkpt>
      <trkpt lat="44.82706" lon="6.94128">
        <ele>1801.2</ele>
      </trkpt>
      <trkpt lat="44.82715" lon="6.94125">
        <ele>1802.9</ele>
      </trkpt>
      <trkpt lat="44.82717" lon="6.94126">
        <ele>1803.8</ele>
      </trkpt>
      <trkpt lat="44.82718" lon="6.94125">
        <ele>1803.8</ele>
      </trkpt>
      <trkpt lat="44.82726" lon="6.9412">
        <ele>1804.5</ele>
      </trkpt>
      <trkpt lat="44.82727" lon="6.9412">
        <ele>1804.8</ele>
      </trkpt>
      <trkpt lat="44.8273" lon="6.94122">
        <ele>1806.1</ele>
      </trkpt>
      <trkpt lat="44.82728" lon="6.94121">
        <ele>1805.3</ele>
      </trkpt>
      <trkpt lat="44.82728" lon="6.94122">
        <ele>1805.6</ele>
      </trkpt>
      <trkpt lat="44.82728" lon="6.94122">
        <ele>1805.6</ele>
      </trkpt>
      <trkpt lat="44.8273" lon="6.94125">
        <ele>1807</ele>
      </trkpt>
      <trkpt lat="44.8273" lon="6.94126">
        <ele>1807.2</ele>
      </trkpt>
      <trkpt lat="44.82731" lon="6.94125">
        <ele>1807.2</ele>
      </trkpt>
      <trkpt lat="44.82731" lon="6.94125">
        <ele>1807.2</ele>
      </trkpt>
      <trkpt lat="44.82733" lon="6.94123">
        <ele>1807.1</ele>
      </trkpt>
      <trkpt lat="44.82739" lon="6.94122">
        <ele>1808.4</ele>
      </trkpt>
      <trkpt lat="44.82745" lon="6.94113">
        <ele>1807.3</ele>
      </trkpt>
      <trkpt lat="44.82749" lon="6.94109">
        <ele>1807.1</ele>
      </trkpt>
      <trkpt lat="44.82753" lon="6.94106">
        <ele>1806.9</ele>
      </trkpt>
      <trkpt lat="44.82754" lon="6.94104">
        <ele>1806.4</ele>
      </trkpt>
      <trkpt lat="44.82763" lon="6.94102">
        <ele>1807.4</ele>
      </trkpt>
      <trkpt lat="44.82766" lon="6.94102">
        <ele>1807.9</ele>
      </trkpt>
      <trkpt lat="44.82767" lon="6.94102">
        <ele>1808.1</ele>
      </trkpt>
      <trkpt lat="44.82772" lon="6.94101">
        <ele>1808.7</ele>
      </trkpt>
      <trkpt lat="44.82782" lon="6.941">
        <ele>1810.1</ele>
      </trkpt>
      <trkpt lat="44.82782" lon="6.941">
        <ele>1810.1</ele>
      </trkpt>
      <trkpt lat="44.82787" lon="6.94099">
        <ele>1810.5</ele>
      </trkpt>
      <trkpt lat="44.82792" lon="6.94097">
        <ele>1810.7</ele>
      </trkpt>
      <trkpt lat="44.82793" lon="6.94096">
        <ele>1810.6</ele>
      </trkpt>
      <trkpt lat="44.82802" lon="6.94091">
        <ele>1810.6</ele>
      </trkpt>
      <trkpt lat="44.82806" lon="6.9409">
        <ele>1811</ele>
      </trkpt>
      <trkpt lat="44.82808" lon="6.94089">
        <ele>1811</ele>
      </trkpt>
      <trkpt lat="44.82819" lon="6.9409">
        <ele>1812.7</ele>
      </trkpt>
      <trkpt lat="44.82826" lon="6.94092">
        <ele>1814.2</ele>
      </trkpt>
      <trkpt lat="44.8283" lon="6.94094">
        <ele>1815.3</ele>
      </trkpt>
      <trkpt lat="44.82832" lon="6.94098">
        <ele>1816.5</ele>
      </trkpt>
      <trkpt lat="44.82833" lon="6.94098">
        <ele>1816.7</ele>
      </trkpt>
      <trkpt lat="44.82835" lon="6.94097">
        <ele>1816.4</ele>
      </trkpt>
      <trkpt lat="44.82838" lon="6.94096">
        <ele>1815.9</ele>
      </trkpt>
      <trkpt lat="44.82848" lon="6.94097">
        <ele>1815.6</ele>
      </trkpt>
      <trkpt lat="44.82851" lon="6.94094">
        <ele>1814.7</ele>
      </trkpt>
      <trkpt lat="44.82859" lon="6.94094">
        <ele>1814.2</ele>
      </trkpt>
      <trkpt lat="44.82866" lon="6.94096">
        <ele>1814.9</ele>
      </trkpt>
      <trkpt lat="44.82882" lon="6.94099">
        <ele>1816.7</ele>
      </trkpt>
      <trkpt lat="44.82897" lon="6.94097">
        <ele>1817.3</ele>
      </trkpt>
      <trkpt lat="44.82903" lon="6.94096">
        <ele>1817.6</ele>
      </trkpt>
      <trkpt lat="44.8291" lon="6.94095">
        <ele>1817.9</ele>
      </trkpt>
      <trkpt lat="44.82916" lon="6.94095">
        <ele>1818.6</ele>
      </trkpt>
      <trkpt lat="44.82923" lon="6.94094">
        <ele>1818.7</ele>
      </trkpt>
      <trkpt lat="44.82929" lon="6.94093">
        <ele>1818.7</ele>
      </trkpt>
      <trkpt lat="44.82936" lon="6.94092">
        <ele>1818.8</ele>
      </trkpt>
      <trkpt lat="44.82942" lon="6.94092">
        <ele>1819.3</ele>
      </trkpt>
      <trkpt lat="44.82948" lon="6.94091">
        <ele>1819.3</ele>
      </trkpt>
      <trkpt lat="44.82955" lon="6.9409">
        <ele>1819.4</ele>
      </trkpt>
      <trkpt lat="44.82961" lon="6.94089">
        <ele>1819.4</ele>
      </trkpt>
      <trkpt lat="44.82968" lon="6.94089">
        <ele>1819.9</ele>
      </trkpt>
      <trkpt lat="44.82974" lon="6.94088">
        <ele>1820</ele>
      </trkpt>
      <trkpt lat="44.82981" lon="6.94087">
        <ele>1820.1</ele>
      </trkpt>
      <trkpt lat="44.82987" lon="6.94086">
        <ele>1820.1</ele>
      </trkpt>
      <trkpt lat="44.82994" lon="6.94086">
        <ele>1820.6</ele>
      </trkpt>
      <trkpt lat="44.82996" lon="6.94087">
        <ele>1821.2</ele>
      </trkpt>
      <trkpt lat="44.83013" lon="6.94096">
        <ele>1825.7</ele>
      </trkpt>
      <trkpt lat="44.83024" lon="6.94092">
        <ele>1824.6</ele>
      </trkpt>
      <trkpt lat="44.83025" lon="6.94091">
        <ele>1824.2</ele>
      </trkpt>
      <trkpt lat="44.83033" lon="6.94093">
        <ele>1825.4</ele>
      </trkpt>
      <trkpt lat="44.83041" lon="6.94096">
        <ele>1827.2</ele>
      </trkpt>
      <trkpt lat="44.83044" lon="6.94096">
        <ele>1827.3</ele>
      </trkpt>
      <trkpt lat="44.83052" lon="6.94098">
        <ele>1828.7</ele>
      </trkpt>
      <trkpt lat="44.83053" lon="6.94097">
        <ele>1828.3</ele>
      </trkpt>
      <trkpt lat="44.83058" lon="6.94095">
        <ele>1827.7</ele>
      </trkpt>
      <trkpt lat="44.83061" lon="6.9409">
        <ele>1825.7</ele>
      </trkpt>
      <trkpt lat="44.83062" lon="6.9409">
        <ele>1825.8</ele>
      </trkpt>
      <trkpt lat="44.83064" lon="6.9409">
        <ele>1826</ele>
      </trkpt>
      <trkpt lat="44.83067" lon="6.94087">
        <ele>1825</ele>
      </trkpt>
      <trkpt lat="44.83074" lon="6.94088">
        <ele>1826.2</ele>
      </trkpt>
      <trkpt lat="44.83075" lon="6.94086">
        <ele>1825.3</ele>
      </trkpt>
      <trkpt lat="44.83077" lon="6.94085">
        <ele>1825.1</ele>
      </trkpt>
      <trkpt lat="44.83079" lon="6.94086">
        <ele>1825.8</ele>
      </trkpt>
      <trkpt lat="44.8309" lon="6.94089">
        <ele>1828.6</ele>
      </trkpt>
      <trkpt lat="44.83097" lon="6.94093">
        <ele>1831.3</ele>
      </trkpt>
      <trkpt lat="44.83098" lon="6.94094">
        <ele>1831.9</ele>
      </trkpt>
      <trkpt lat="44.83099" lon="6.94094">
        <ele>1832</ele>
      </trkpt>
      <trkpt lat="44.83105" lon="6.94091">
        <ele>1831.5</ele>
      </trkpt>
      <trkpt lat="44.8311" lon="6.94086">
        <ele>1830</ele>
      </trkpt>
      <trkpt lat="44.83115" lon="6.94087">
        <ele>1831.3</ele>
      </trkpt>
      <trkpt lat="44.83117" lon="6.94085">
        <ele>1830.8</ele>
      </trkpt>
      <trkpt lat="44.83123" lon="6.94082">
        <ele>1830.7</ele>
      </trkpt>
      <trkpt lat="44.83127" lon="6.94075">
        <ele>1828.9</ele>
      </trkpt>
      <trkpt lat="44.83127" lon="6.94075">
        <ele>1828.9</ele>
      </trkpt>
      <trkpt lat="44.83127" lon="6.94075">
        <ele>1828.9</ele>
      </trkpt>
      <trkpt lat="44.83127" lon="6.94075">
        <ele>1828.9</ele>
      </trkpt>
      <trkpt lat="44.83127" lon="6.94075">
        <ele>1828.9</ele>
      </trkpt>
      <trkpt lat="44.83225" lon="6.94048">
        <ele>1832.1</ele>
      </trkpt>
      <trkpt lat="44.83226" lon="6.94048">
        <ele>1832.3</ele>
      </trkpt>
      <trkpt lat="44.83232" lon="6.9405">
        <ele>1833.6</ele>
      </trkpt>
      <trkpt lat="44.83244" lon="6.94053">
        <ele>1836.2</ele>
      </trkpt>
      <trkpt lat="44.83256" lon="6.94053">
        <ele>1837</ele>
      </trkpt>
      <trkpt lat="44.83262" lon="6.94052">
        <ele>1836.6</ele>
      </trkpt>
      <trkpt lat="44.83265" lon="6.9405">
        <ele>1835.8</ele>
      </trkpt>
      <trkpt lat="44.83277" lon="6.94052">
        <ele>1836.6</ele>
      </trkpt>
      <trkpt lat="44.83281" lon="6.94051">
        <ele>1836</ele>
      </trkpt>
      <trkpt lat="44.83287" lon="6.94051">
        <ele>1835.6</ele>
      </trkpt>
      <trkpt lat="44.83292" lon="6.9405">
        <ele>1834.9</ele>
      </trkpt>
      <trkpt lat="44.83302" lon="6.94052">
        <ele>1835</ele>
      </trkpt>
      <trkpt lat="44.83306" lon="6.94053">
        <ele>1835</ele>
      </trkpt>
      <trkpt lat="44.83309" lon="6.94054">
        <ele>1835</ele>
      </trkpt>
      <trkpt lat="44.83313" lon="6.94053">
        <ele>1834</ele>
      </trkpt>
      <trkpt lat="44.83318" lon="6.94056">
        <ele>1834.4</ele>
      </trkpt>
      <trkpt lat="44.8332" lon="6.94059">
        <ele>1835.1</ele>
      </trkpt>
      <trkpt lat="44.83321" lon="6.9406">
        <ele>1835.3</ele>
      </trkpt>
      <trkpt lat="44.83323" lon="6.94062">
        <ele>1835.7</ele>
      </trkpt>
      <trkpt lat="44.83334" lon="6.9407">
        <ele>1836.6</ele>
      </trkpt>
      <trkpt lat="44.83334" lon="6.94071">
        <ele>1836.9</ele>
      </trkpt>
      <trkpt lat="44.83343" lon="6.94077">
        <ele>1837.6</ele>
      </trkpt>
      <trkpt lat="44.83356" lon="6.94084">
        <ele>1838</ele>
      </trkpt>
      <trkpt lat="44.83368" lon="6.94086">
        <ele>1837</ele>
      </trkpt>
      <trkpt lat="44.8337" lon="6.94087">
        <ele>1837.1</ele>
      </trkpt>
      <trkpt lat="44.8338" lon="6.94087">
        <ele>1835.7</ele>
      </trkpt>
      <trkpt lat="44.83387" lon="6.94087">
        <ele>1834.7</ele>
      </trkpt>
      <trkpt lat="44.83399" lon="6.94089">
        <ele>1834.7</ele>
      </trkpt>
      <trkpt lat="44.8341" lon="6.94089">
        <ele>1834</ele>
      </trkpt>
      <trkpt lat="44.83418" lon="6.94088">
        <ele>1833.4</ele>
      </trkpt>
      <trkpt lat="44.83431" lon="6.94087">
        <ele>1833.6</ele>
      </trkpt>
      <trkpt lat="44.83438" lon="6.94086">
        <ele>1833.5</ele>
      </trkpt>
      <trkpt lat="44.83446" lon="6.94086">
        <ele>1833.8</ele>
      </trkpt>
      <trkpt lat="44.83454" lon="6.94085">
        <ele>1833.5</ele>
      </trkpt>
      <trkpt lat="44.83465" lon="6.94085">
        <ele>1833.5</ele>
      </trkpt>
      <trkpt lat="44.83475" lon="6.94088">
        <ele>1834.6</ele>
      </trkpt>
      <trkpt lat="44.83484" lon="6.94091">
        <ele>1835.7</ele>
      </trkpt>
      <trkpt lat="44.83493" lon="6.94093">
        <ele>1836.4</ele>
      </trkpt>
      <trkpt lat="44.83502" lon="6.94096">
        <ele>1837.1</ele>
      </trkpt>
      <trkpt lat="44.83513" lon="6.941">
        <ele>1837.1</ele>
      </trkpt>
      <trkpt lat="44.83522" lon="6.94107">
        <ele>1837.3</ele>
      </trkpt>
      <trkpt lat="44.83528" lon="6.94113">
        <ele>1837.5</ele>
      </trkpt>
      <trkpt lat="44.83534" lon="6.94119">
        <ele>1838.8</ele>
      </trkpt>
      <trkpt lat="44.83539" lon="6.94124">
        <ele>1839.6</ele>
      </trkpt>
      <trkpt lat="44.8354" lon="6.94125">
        <ele>1839.7</ele>
      </trkpt>
      <trkpt lat="44.83545" lon="6.94128">
        <ele>1839.7</ele>
      </trkpt>
      <trkpt lat="44.83548" lon="6.9413">
        <ele>1839.7</ele>
      </trkpt>
      <trkpt lat="44.83549" lon="6.94133">
        <ele>1840.1</ele>
      </trkpt>
      <trkpt lat="44.83552" lon="6.94137">
        <ele>1840.3</ele>
      </trkpt>
      <trkpt lat="44.83554" lon="6.9414">
        <ele>1840.5</ele>
      </trkpt>
      <trkpt lat="44.83558" lon="6.94146">
        <ele>1841.6</ele>
      </trkpt>
      <trkpt lat="44.8356" lon="6.9415">
        <ele>1842.4</ele>
      </trkpt>
      <trkpt lat="44.83566" lon="6.94155">
        <ele>1843.1</ele>
      </trkpt>
      <trkpt lat="44.83566" lon="6.94156">
        <ele>1843.3</ele>
      </trkpt>
      <trkpt lat="44.83567" lon="6.94157">
        <ele>1843.4</ele>
      </trkpt>
      <trkpt lat="44.83571" lon="6.94157">
        <ele>1843.2</ele>
      </trkpt>
      <trkpt lat="44.83572" lon="6.94158">
        <ele>1843.3</ele>
      </trkpt>
      <trkpt lat="44.83575" lon="6.9416">
        <ele>1843.3</ele>
      </trkpt>
      <trkpt lat="44.83575" lon="6.94159">
        <ele>1843.2</ele>
      </trkpt>
      <trkpt lat="44.8357" lon="6.9416">
        <ele>1843.6</ele>
      </trkpt>
      <trkpt lat="44.83573" lon="6.94155">
        <ele>1842.9</ele>
      </trkpt>
      <trkpt lat="44.83574" lon="6.94154">
        <ele>1842.8</ele>
      </trkpt>
      <trkpt lat="44.83575" lon="6.94152">
        <ele>1842.6</ele>
      </trkpt>
      <trkpt lat="44.83581" lon="6.94144">
        <ele>1842.1</ele>
      </trkpt>
      <trkpt lat="44.83582" lon="6.94143">
        <ele>1842.1</ele>
      </trkpt>
      <trkpt lat="44.83584" lon="6.94143">
        <ele>1842.3</ele>
      </trkpt>
      <trkpt lat="44.83586" lon="6.94145">
        <ele>1843</ele>
      </trkpt>
      <trkpt lat="44.83588" lon="6.94146">
        <ele>1843.6</ele>
      </trkpt>
      <trkpt lat="44.8359" lon="6.9415">
        <ele>1844.2</ele>
      </trkpt>
      <trkpt lat="44.83591" lon="6.94153">
        <ele>1844.4</ele>
      </trkpt>
      <trkpt lat="44.83593" lon="6.94155">
        <ele>1844.9</ele>
      </trkpt>
      <trkpt lat="44.83594" lon="6.94156">
        <ele>1845.1</ele>
      </trkpt>
      <trkpt lat="44.83595" lon="6.94159">
        <ele>1845.3</ele>
      </trkpt>
      <trkpt lat="44.83598" lon="6.94162">
        <ele>1845.8</ele>
      </trkpt>
      <trkpt lat="44.83601" lon="6.94165">
        <ele>1846.3</ele>
      </trkpt>
      <trkpt lat="44.83601" lon="6.94166">
        <ele>1846.2</ele>
      </trkpt>
      <trkpt lat="44.83603" lon="6.94165">
        <ele>1846.6</ele>
      </trkpt>
      <trkpt lat="44.83607" lon="6.9416">
        <ele>1847.8</ele>
      </trkpt>
      <trkpt lat="44.83605" lon="6.94158">
        <ele>1847.6</ele>
      </trkpt>
      <trkpt lat="44.83605" lon="6.94155">
        <ele>1847.8</ele>
      </trkpt>
      <trkpt lat="44.83606" lon="6.94154">
        <ele>1848.1</ele>
      </trkpt>
      <trkpt lat="44.83608" lon="6.94146">
        <ele>1849.3</ele>
      </trkpt>
      <trkpt lat="44.83609" lon="6.94146">
        <ele>1849.6</ele>
      </trkpt>
      <trkpt lat="44.8361" lon="6.94149">
        <ele>1849.6</ele>
      </trkpt>
      <trkpt lat="44.83611" lon="6.94151">
        <ele>1849.7</ele>
      </trkpt>
      <trkpt lat="44.83613" lon="6.94158">
        <ele>1849.6</ele>
      </trkpt>
      <trkpt lat="44.83617" lon="6.94161">
        <ele>1850.8</ele>
      </trkpt>
      <trkpt lat="44.83617" lon="6.94162">
        <ele>1850.7</ele>
      </trkpt>
      <trkpt lat="44.83618" lon="6.94167">
        <ele>1850.5</ele>
      </trkpt>
      <trkpt lat="44.83618" lon="6.9417">
        <ele>1850.5</ele>
      </trkpt>
      <trkpt lat="44.83619" lon="6.94179">
        <ele>1850.8</ele>
      </trkpt>
      <trkpt lat="44.83621" lon="6.94184">
        <ele>1851.6</ele>
      </trkpt>
      <trkpt lat="44.83623" lon="6.94192">
        <ele>1852.3</ele>
      </trkpt>
      <trkpt lat="44.83626" lon="6.94207">
        <ele>1853.8</ele>
      </trkpt>
      <trkpt lat="44.83626" lon="6.94212">
        <ele>1854</ele>
      </trkpt>
      <trkpt lat="44.83628" lon="6.9422">
        <ele>1855.2</ele>
      </trkpt>
      <trkpt lat="44.83628" lon="6.94221">
        <ele>1855.2</ele>
      </trkpt>
      <trkpt lat="44.83628" lon="6.94228">
        <ele>1856</ele>
      </trkpt>
      <trkpt lat="44.83627" lon="6.94234">
        <ele>1856.3</ele>
      </trkpt>
      <trkpt lat="44.83627" lon="6.94243">
        <ele>1857.4</ele>
      </trkpt>
      <trkpt lat="44.83627" lon="6.94245">
        <ele>1857.7</ele>
      </trkpt>
      <trkpt lat="44.83627" lon="6.94247">
        <ele>1857.9</ele>
      </trkpt>
      <trkpt lat="44.83628" lon="6.94251">
        <ele>1858.8</ele>
      </trkpt>
      <trkpt lat="44.83628" lon="6.94258">
        <ele>1859.5</ele>
      </trkpt>
      <trkpt lat="44.83629" lon="6.94271">
        <ele>1861.1</ele>
      </trkpt>
      <trkpt lat="44.83628" lon="6.94274">
        <ele>1861.1</ele>
      </trkpt>
      <trkpt lat="44.83628" lon="6.94279">
        <ele>1861.6</ele>
      </trkpt>
      <trkpt lat="44.83629" lon="6.94279">
        <ele>1862</ele>
      </trkpt>
      <trkpt lat="44.83629" lon="6.94284">
        <ele>1862.6</ele>
      </trkpt>
      <trkpt lat="44.8363" lon="6.94287">
        <ele>1863.3</ele>
      </trkpt>
      <trkpt lat="44.8363" lon="6.9429">
        <ele>1863.7</ele>
      </trkpt>
      <trkpt lat="44.83629" lon="6.94297">
        <ele>1864.4</ele>
      </trkpt>
      <trkpt lat="44.8363" lon="6.943">
        <ele>1865</ele>
      </trkpt>
      <trkpt lat="44.8363" lon="6.94304">
        <ele>1865.6</ele>
      </trkpt>
      <trkpt lat="44.8363" lon="6.94308">
        <ele>1866</ele>
      </trkpt>
      <trkpt lat="44.83631" lon="6.9431">
        <ele>1866.4</ele>
      </trkpt>
      <trkpt lat="44.83631" lon="6.94318">
        <ele>1867.2</ele>
      </trkpt>
      <trkpt lat="44.8363" lon="6.94322">
        <ele>1867.3</ele>
      </trkpt>
      <trkpt lat="44.83628" lon="6.94326">
        <ele>1867.2</ele>
      </trkpt>
      <trkpt lat="44.83628" lon="6.94327">
        <ele>1867.3</ele>
      </trkpt>
      <trkpt lat="44.83628" lon="6.94333">
        <ele>1867.8</ele>
      </trkpt>
      <trkpt lat="44.83629" lon="6.94335">
        <ele>1868.4</ele>
      </trkpt>
      <trkpt lat="44.83629" lon="6.94339">
        <ele>1868.9</ele>
      </trkpt>
      <trkpt lat="44.83629" lon="6.94342">
        <ele>1869.3</ele>
      </trkpt>
      <trkpt lat="44.83629" lon="6.94342">
        <ele>1869.3</ele>
      </trkpt>
      <trkpt lat="44.83631" lon="6.9435">
        <ele>1871</ele>
      </trkpt>
      <trkpt lat="44.83631" lon="6.94351">
        <ele>1871.1</ele>
      </trkpt>
      <trkpt lat="44.83631" lon="6.94352">
        <ele>1871.2</ele>
      </trkpt>
      <trkpt lat="44.83633" lon="6.94359">
        <ele>1872.8</ele>
      </trkpt>
      <trkpt lat="44.83633" lon="6.94361">
        <ele>1873.1</ele>
      </trkpt>
      <trkpt lat="44.83634" lon="6.94367">
        <ele>1873.8</ele>
      </trkpt>
      <trkpt lat="44.83632" lon="6.94369">
        <ele>1873.3</ele>
      </trkpt>
      <trkpt lat="44.83632" lon="6.94373">
        <ele>1873.6</ele>
      </trkpt>
      <trkpt lat="44.83633" lon="6.94375">
        <ele>1874.1</ele>
      </trkpt>
      <trkpt lat="44.83635" lon="6.94383">
        <ele>1875.3</ele>
      </trkpt>
      <trkpt lat="44.83635" lon="6.94384">
        <ele>1875.4</ele>
      </trkpt>
      <trkpt lat="44.83635" lon="6.94386">
        <ele>1875.5</ele>
      </trkpt>
      <trkpt lat="44.83635" lon="6.94389">
        <ele>1875.8</ele>
      </trkpt>
      <trkpt lat="44.83635" lon="6.9439">
        <ele>1875.9</ele>
      </trkpt>
      <trkpt lat="44.83634" lon="6.94393">
        <ele>1875.9</ele>
      </trkpt>
      <trkpt lat="44.83634" lon="6.94395">
        <ele>1876.1</ele>
      </trkpt>
      <trkpt lat="44.83635" lon="6.94398">
        <ele>1876.8</ele>
      </trkpt>
      <trkpt lat="44.83635" lon="6.94398">
        <ele>1876.8</ele>
      </trkpt>
      <trkpt lat="44.83636" lon="6.94399">
        <ele>1877.2</ele>
      </trkpt>
      <trkpt lat="44.83636" lon="6.94399">
        <ele>1877.2</ele>
      </trkpt>
      <trkpt lat="44.83635" lon="6.944">
        <ele>1877</ele>
      </trkpt>
      <trkpt lat="44.83636" lon="6.94403">
        <ele>1877.6</ele>
      </trkpt>
      <trkpt lat="44.83637" lon="6.94406">
        <ele>1878.3</ele>
      </trkpt>
      <trkpt lat="44.83637" lon="6.94409">
        <ele>1878.6</ele>
      </trkpt>
      <trkpt lat="44.83637" lon="6.9441">
        <ele>1878.7</ele>
      </trkpt>
      <trkpt lat="44.83637" lon="6.94412">
        <ele>1878.9</ele>
      </trkpt>
      <trkpt lat="44.83636" lon="6.94413">
        <ele>1878.8</ele>
      </trkpt>
      <trkpt lat="44.83636" lon="6.94421">
        <ele>1879.6</ele>
      </trkpt>
      <trkpt lat="44.83635" lon="6.94423">
        <ele>1879.6</ele>
      </trkpt>
      <trkpt lat="44.83635" lon="6.94424">
        <ele>1879.7</ele>
      </trkpt>
      <trkpt lat="44.83635" lon="6.94431">
        <ele>1880.4</ele>
      </trkpt>
      <trkpt lat="44.83634" lon="6.9444">
        <ele>1881.1</ele>
      </trkpt>
      <trkpt lat="44.83634" lon="6.94442">
        <ele>1881.3</ele>
      </trkpt>
      <trkpt lat="44.83634" lon="6.94445">
        <ele>1881.7</ele>
      </trkpt>
      <trkpt lat="44.83634" lon="6.94445">
        <ele>1881.7</ele>
      </trkpt>
      <trkpt lat="44.83633" lon="6.94448">
        <ele>1881.8</ele>
      </trkpt>
      <trkpt lat="44.83633" lon="6.94449">
        <ele>1882</ele>
      </trkpt>
      <trkpt lat="44.83633" lon="6.94449">
        <ele>1882</ele>
      </trkpt>
      <trkpt lat="44.83634" lon="6.94449">
        <ele>1882.2</ele>
      </trkpt>
      <trkpt lat="44.83637" lon="6.94447">
        <ele>1882.8</ele>
      </trkpt>
      <trkpt lat="44.83639" lon="6.94444">
        <ele>1883</ele>
      </trkpt>
      <trkpt lat="44.83642" lon="6.9444">
        <ele>1884.3</ele>
      </trkpt>
      <trkpt lat="44.83647" lon="6.94437">
        <ele>1886.9</ele>
      </trkpt>
      <trkpt lat="44.83649" lon="6.94435">
        <ele>1887.8</ele>
      </trkpt>
      <trkpt lat="44.83649" lon="6.94435">
        <ele>1887.8</ele>
      </trkpt>
      <trkpt lat="44.8365" lon="6.94432">
        <ele>1888.1</ele>
      </trkpt>
      <trkpt lat="44.83653" lon="6.94427">
        <ele>1889.2</ele>
      </trkpt>
      <trkpt lat="44.83654" lon="6.94426">
        <ele>1889.7</ele>
      </trkpt>
      <trkpt lat="44.83656" lon="6.94426">
        <ele>1890.9</ele>
      </trkpt>
      <trkpt lat="44.83658" lon="6.94429">
        <ele>1892.3</ele>
      </trkpt>
      <trkpt lat="44.83658" lon="6.94436">
        <ele>1893.1</ele>
      </trkpt>
      <trkpt lat="44.83658" lon="6.94439">
        <ele>1893.4</ele>
      </trkpt>
      <trkpt lat="44.83659" lon="6.94441">
        <ele>1894.2</ele>
      </trkpt>
      <trkpt lat="44.83659" lon="6.94444">
        <ele>1894.5</ele>
      </trkpt>
      <trkpt lat="44.83659" lon="6.94443">
        <ele>1894.4</ele>
      </trkpt>
      <trkpt lat="44.83661" lon="6.9444">
        <ele>1895.3</ele>
      </trkpt>
      <trkpt lat="44.83664" lon="6.94441">
        <ele>1897.1</ele>
      </trkpt>
      <trkpt lat="44.83663" lon="6.94444">
        <ele>1896.8</ele>
      </trkpt>
      <trkpt lat="44.83663" lon="6.94445">
        <ele>1897</ele>
      </trkpt>
      <trkpt lat="44.83662" lon="6.94453">
        <ele>1897.5</ele>
      </trkpt>
      <trkpt lat="44.83662" lon="6.94456">
        <ele>1898</ele>
      </trkpt>
      <trkpt lat="44.83662" lon="6.94458">
        <ele>1898.3</ele>
      </trkpt>
      <trkpt lat="44.8366" lon="6.94463">
        <ele>1897.8</ele>
      </trkpt>
      <trkpt lat="44.83661" lon="6.94467">
        <ele>1899</ele>
      </trkpt>
      <trkpt lat="44.83661" lon="6.94469">
        <ele>1899.3</ele>
      </trkpt>
      <trkpt lat="44.83661" lon="6.9447">
        <ele>1899.4</ele>
      </trkpt>
      <trkpt lat="44.83662" lon="6.94471">
        <ele>1900.1</ele>
      </trkpt>
      <trkpt lat="44.83665" lon="6.94472">
        <ele>1902</ele>
      </trkpt>
      <trkpt lat="44.83666" lon="6.94471">
        <ele>1902.4</ele>
      </trkpt>
      <trkpt lat="44.83671" lon="6.94469">
        <ele>1904.4</ele>
      </trkpt>
      <trkpt lat="44.83672" lon="6.9447">
        <ele>1905</ele>
      </trkpt>
      <trkpt lat="44.83673" lon="6.94472">
        <ele>1905.7</ele>
      </trkpt>
      <trkpt lat="44.83673" lon="6.9448">
        <ele>1907</ele>
      </trkpt>
      <trkpt lat="44.83671" lon="6.94491">
        <ele>1907.8</ele>
      </trkpt>
      <trkpt lat="44.83671" lon="6.94495">
        <ele>1908.4</ele>
      </trkpt>
      <trkpt lat="44.8367" lon="6.94499">
        <ele>1908.5</ele>
      </trkpt>
      <trkpt lat="44.83668" lon="6.94506">
        <ele>1908.5</ele>
      </trkpt>
      <trkpt lat="44.83668" lon="6.94513">
        <ele>1909.6</ele>
      </trkpt>
      <trkpt lat="44.83668" lon="6.94514">
        <ele>1909.7</ele>
      </trkpt>
      <trkpt lat="44.83668" lon="6.94519">
        <ele>1910.4</ele>
      </trkpt>
      <trkpt lat="44.83667" lon="6.94526">
        <ele>1910.9</ele>
      </trkpt>
      <trkpt lat="44.83667" lon="6.94529">
        <ele>1911.3</ele>
      </trkpt>
      <trkpt lat="44.83665" lon="6.94538">
        <ele>1911.2</ele>
      </trkpt>
      <trkpt lat="44.83665" lon="6.94539">
        <ele>1911.3</ele>
      </trkpt>
      <trkpt lat="44.83665" lon="6.94543">
        <ele>1911.7</ele>
      </trkpt>
      <trkpt lat="44.83665" lon="6.94554">
        <ele>1912.9</ele>
      </trkpt>
      <trkpt lat="44.83666" lon="6.94566">
        <ele>1914.4</ele>
      </trkpt>
      <trkpt lat="44.83666" lon="6.94572">
        <ele>1914.9</ele>
      </trkpt>
      <trkpt lat="44.83666" lon="6.94575">
        <ele>1915.1</ele>
      </trkpt>
      <trkpt lat="44.83667" lon="6.94585">
        <ele>1916.4</ele>
      </trkpt>
      <trkpt lat="44.83667" lon="6.94586">
        <ele>1916.6</ele>
      </trkpt>
      <trkpt lat="44.83667" lon="6.94592">
        <ele>1917.4</ele>
      </trkpt>
      <trkpt lat="44.83667" lon="6.94595">
        <ele>1917.8</ele>
      </trkpt>
      <trkpt lat="44.83667" lon="6.94601">
        <ele>1918.7</ele>
      </trkpt>
      <trkpt lat="44.83666" lon="6.94605">
        <ele>1918.8</ele>
      </trkpt>
      <trkpt lat="44.83664" lon="6.94613">
        <ele>1919.1</ele>
      </trkpt>
      <trkpt lat="44.83664" lon="6.94614">
        <ele>1919.3</ele>
      </trkpt>
      <trkpt lat="44.83663" lon="6.94619">
        <ele>1919.6</ele>
      </trkpt>
      <trkpt lat="44.83663" lon="6.94626">
        <ele>1920.6</ele>
      </trkpt>
      <trkpt lat="44.83663" lon="6.94627">
        <ele>1920.8</ele>
      </trkpt>
      <trkpt lat="44.83663" lon="6.94631">
        <ele>1921.4</ele>
      </trkpt>
      <trkpt lat="44.83664" lon="6.94634">
        <ele>1922.2</ele>
      </trkpt>
      <trkpt lat="44.83664" lon="6.94639">
        <ele>1923</ele>
      </trkpt>
      <trkpt lat="44.83664" lon="6.94642">
        <ele>1923.4</ele>
      </trkpt>
      <trkpt lat="44.83664" lon="6.94654">
        <ele>1925.2</ele>
      </trkpt>
      <trkpt lat="44.83664" lon="6.9466">
        <ele>1926.1</ele>
      </trkpt>
      <trkpt lat="44.83663" lon="6.94669">
        <ele>1927.1</ele>
      </trkpt>
      <trkpt lat="44.83662" lon="6.94678">
        <ele>1928.5</ele>
      </trkpt>
      <trkpt lat="44.8366" lon="6.94687">
        <ele>1929.6</ele>
      </trkpt>
      <trkpt lat="44.83659" lon="6.94689">
        <ele>1929.7</ele>
      </trkpt>
      <trkpt lat="44.83657" lon="6.94696">
        <ele>1930.6</ele>
      </trkpt>
      <trkpt lat="44.83655" lon="6.94701">
        <ele>1931.1</ele>
      </trkpt>
      <trkpt lat="44.83653" lon="6.94704">
        <ele>1931.1</ele>
      </trkpt>
      <trkpt lat="44.83651" lon="6.94709">
        <ele>1931.6</ele>
      </trkpt>
      <trkpt lat="44.83649" lon="6.94714">
        <ele>1932.1</ele>
      </trkpt>
      <trkpt lat="44.83648" lon="6.94716">
        <ele>1932.3</ele>
      </trkpt>
      <trkpt lat="44.83647" lon="6.94723">
        <ele>1933.4</ele>
      </trkpt>
      <trkpt lat="44.83647" lon="6.94726">
        <ele>1933.7</ele>
      </trkpt>
      <trkpt lat="44.83645" lon="6.94733">
        <ele>1933.8</ele>
      </trkpt>
      <trkpt lat="44.83645" lon="6.94739">
        <ele>1934.4</ele>
      </trkpt>
      <trkpt lat="44.83646" lon="6.94743">
        <ele>1935.1</ele>
      </trkpt>
      <trkpt lat="44.83646" lon="6.9475">
        <ele>1935.8</ele>
      </trkpt>
      <trkpt lat="44.83647" lon="6.94751">
        <ele>1936.3</ele>
      </trkpt>
      <trkpt lat="44.83648" lon="6.9476">
        <ele>1937.5</ele>
      </trkpt>
      <trkpt lat="44.83649" lon="6.94764">
        <ele>1938.1</ele>
      </trkpt>
      <trkpt lat="44.8365" lon="6.94776">
        <ele>1939.5</ele>
      </trkpt>
      <trkpt lat="44.83651" lon="6.94778">
        <ele>1940</ele>
      </trkpt>
      <trkpt lat="44.83655" lon="6.94779">
        <ele>1941.4</ele>
      </trkpt>
      <trkpt lat="44.83656" lon="6.94778">
        <ele>1941.6</ele>
      </trkpt>
      <trkpt lat="44.83657" lon="6.94777">
        <ele>1941.8</ele>
      </trkpt>
      <trkpt lat="44.8366" lon="6.94776">
        <ele>1942.7</ele>
      </trkpt>
      <trkpt lat="44.83661" lon="6.94776">
        <ele>1943.1</ele>
      </trkpt>
      <trkpt lat="44.83663" lon="6.94778">
        <ele>1943.8</ele>
      </trkpt>
      <trkpt lat="44.83665" lon="6.94782">
        <ele>1945.1</ele>
      </trkpt>
      <trkpt lat="44.83666" lon="6.94782">
        <ele>1945.4</ele>
      </trkpt>
      <trkpt lat="44.83667" lon="6.94782">
        <ele>1945.8</ele>
      </trkpt>
      <trkpt lat="44.83668" lon="6.94784">
        <ele>1946.5</ele>
      </trkpt>
      <trkpt lat="44.83671" lon="6.94785">
        <ele>1948</ele>
      </trkpt>
      <trkpt lat="44.83672" lon="6.94785">
        <ele>1948.5</ele>
      </trkpt>
      <trkpt lat="44.83674" lon="6.94785">
        <ele>1949.4</ele>
      </trkpt>
      <trkpt lat="44.83678" lon="6.94788">
        <ele>1951.4</ele>
      </trkpt>
      <trkpt lat="44.83679" lon="6.94789">
        <ele>1951.9</ele>
      </trkpt>
      <trkpt lat="44.83679" lon="6.9479">
        <ele>1952</ele>
      </trkpt>
      <trkpt lat="44.83682" lon="6.94793">
        <ele>1953.4</ele>
      </trkpt>
      <trkpt lat="44.83684" lon="6.94796">
        <ele>1954.3</ele>
      </trkpt>
      <trkpt lat="44.83684" lon="6.94796">
        <ele>1954.3</ele>
      </trkpt>
      <trkpt lat="44.83686" lon="6.94795">
        <ele>1955.1</ele>
      </trkpt>
      <trkpt lat="44.83689" lon="6.94796">
        <ele>1956.2</ele>
      </trkpt>
      <trkpt lat="44.8369" lon="6.94796">
        <ele>1956.6</ele>
      </trkpt>
      <trkpt lat="44.83693" lon="6.94798">
        <ele>1957.7</ele>
      </trkpt>
      <trkpt lat="44.83693" lon="6.94797">
        <ele>1957.8</ele>
      </trkpt>
      <trkpt lat="44.83695" lon="6.94796">
        <ele>1958.6</ele>
      </trkpt>
      <trkpt lat="44.83697" lon="6.94798">
        <ele>1959.4</ele>
      </trkpt>
      <trkpt lat="44.83698" lon="6.94799">
        <ele>1959.8</ele>
      </trkpt>
      <trkpt lat="44.83699" lon="6.94803">
        <ele>1960.1</ele>
      </trkpt>
      <trkpt lat="44.83701" lon="6.94804">
        <ele>1960.9</ele>
      </trkpt>
      <trkpt lat="44.83701" lon="6.94804">
        <ele>1960.9</ele>
      </trkpt>
      <trkpt lat="44.83703" lon="6.94806">
        <ele>1961.8</ele>
      </trkpt>
      <trkpt lat="44.83704" lon="6.94809">
        <ele>1962.7</ele>
      </trkpt>
      <trkpt lat="44.83706" lon="6.9481">
        <ele>1963.6</ele>
      </trkpt>
      <trkpt lat="44.8371" lon="6.94814">
        <ele>1965.7</ele>
      </trkpt>
      <trkpt lat="44.83711" lon="6.94815">
        <ele>1966.1</ele>
      </trkpt>
      <trkpt lat="44.83712" lon="6.94817">
        <ele>1966.6</ele>
      </trkpt>
      <trkpt lat="44.83715" lon="6.94816">
        <ele>1967.6</ele>
      </trkpt>
      <trkpt lat="44.83716" lon="6.94815">
        <ele>1967.8</ele>
      </trkpt>
      <trkpt lat="44.83717" lon="6.94814">
        <ele>1968.1</ele>
      </trkpt>
      <trkpt lat="44.83717" lon="6.94814">
        <ele>1968.1</ele>
      </trkpt>
      <trkpt lat="44.83719" lon="6.94809">
        <ele>1968.7</ele>
      </trkpt>
      <trkpt lat="44.83719" lon="6.94809">
        <ele>1968.7</ele>
      </trkpt>
      <trkpt lat="44.8372" lon="6.94812">
        <ele>1969.2</ele>
      </trkpt>
      <trkpt lat="44.83721" lon="6.9482">
        <ele>1969.6</ele>
      </trkpt>
      <trkpt lat="44.83722" lon="6.94822">
        <ele>1969.9</ele>
      </trkpt>
      <trkpt lat="44.83722" lon="6.94825">
        <ele>1969.9</ele>
      </trkpt>
      <trkpt lat="44.83723" lon="6.9483">
        <ele>1970.4</ele>
      </trkpt>
      <trkpt lat="44.83722" lon="6.94831">
        <ele>1970</ele>
      </trkpt>
      <trkpt lat="44.83721" lon="6.94835">
        <ele>1970</ele>
      </trkpt>
      <trkpt lat="44.83721" lon="6.94842">
        <ele>1970.8</ele>
      </trkpt>
      <trkpt lat="44.8372" lon="6.94845">
        <ele>1971</ele>
      </trkpt>
      <trkpt lat="44.83719" lon="6.94846">
        <ele>1970.9</ele>
      </trkpt>
      <trkpt lat="44.83716" lon="6.94852">
        <ele>1971.3</ele>
      </trkpt>
      <trkpt lat="44.83715" lon="6.94853">
        <ele>1971.4</ele>
      </trkpt>
      <trkpt lat="44.83714" lon="6.94853">
        <ele>1971.3</ele>
      </trkpt>
      <trkpt lat="44.83712" lon="6.94854">
        <ele>1971.2</ele>
      </trkpt>
      <trkpt lat="44.83713" lon="6.94853">
        <ele>1971.2</ele>
      </trkpt>
      <trkpt lat="44.83718" lon="6.94857">
        <ele>1972.2</ele>
      </trkpt>
      <trkpt lat="44.8372" lon="6.94857">
        <ele>1972.4</ele>
      </trkpt>
      <trkpt lat="44.83723" lon="6.94859">
        <ele>1973.1</ele>
      </trkpt>
      <trkpt lat="44.83724" lon="6.94859">
        <ele>1973.5</ele>
      </trkpt>
      <trkpt lat="44.83726" lon="6.9486">
        <ele>1974.4</ele>
      </trkpt>
      <trkpt lat="44.83727" lon="6.94861">
        <ele>1974.9</ele>
      </trkpt>
      <trkpt lat="44.83734" lon="6.94863">
        <ele>1978.4</ele>
      </trkpt>
      <trkpt lat="44.83734" lon="6.94865">
        <ele>1979.1</ele>
      </trkpt>
      <trkpt lat="44.83734" lon="6.94863">
        <ele>1978.4</ele>
      </trkpt>
      <trkpt lat="44.83734" lon="6.94863">
        <ele>1978.4</ele>
      </trkpt>
      <trkpt lat="44.83734" lon="6.94862">
        <ele>1978</ele>
      </trkpt>
      <trkpt lat="44.83734" lon="6.94865">
        <ele>1979.1</ele>
      </trkpt>
      <trkpt lat="44.83738" lon="6.94865">
        <ele>1980.6</ele>
      </trkpt>
      <trkpt lat="44.83741" lon="6.94867">
        <ele>1982.3</ele>
      </trkpt>
      <trkpt lat="44.83743" lon="6.94868">
        <ele>1983.3</ele>
      </trkpt>
      <trkpt lat="44.83744" lon="6.94869">
        <ele>1984</ele>
      </trkpt>
      <trkpt lat="44.83746" lon="6.94869">
        <ele>1984.6</ele>
      </trkpt>
      <trkpt lat="44.83747" lon="6.94869">
        <ele>1985</ele>
      </trkpt>
      <trkpt lat="44.83749" lon="6.9487">
        <ele>1985.9</ele>
      </trkpt>
      <trkpt lat="44.83748" lon="6.94871">
        <ele>1985.9</ele>
      </trkpt>
      <trkpt lat="44.83747" lon="6.94872">
        <ele>1985.8</ele>
      </trkpt>
      <trkpt lat="44.83748" lon="6.94872">
        <ele>1986.1</ele>
      </trkpt>
      <trkpt lat="44.8375" lon="6.94868">
        <ele>1985.7</ele>
      </trkpt>
      <trkpt lat="44.83751" lon="6.9487">
        <ele>1986.5</ele>
      </trkpt>
      <trkpt lat="44.83751" lon="6.9487">
        <ele>1986.5</ele>
      </trkpt>
      <trkpt lat="44.83751" lon="6.94869">
        <ele>1986.3</ele>
      </trkpt>
      <trkpt lat="44.83753" lon="6.94871">
        <ele>1987.4</ele>
      </trkpt>
      <trkpt lat="44.83754" lon="6.94872">
        <ele>1987.9</ele>
      </trkpt>
      <trkpt lat="44.83755" lon="6.94872">
        <ele>1988.2</ele>
      </trkpt>
      <trkpt lat="44.83758" lon="6.94872">
        <ele>1989.1</ele>
      </trkpt>
      <trkpt lat="44.83761" lon="6.94872">
        <ele>1990</ele>
      </trkpt>
      <trkpt lat="44.83761" lon="6.94872">
        <ele>1990</ele>
      </trkpt>
      <trkpt lat="44.83762" lon="6.94872">
        <ele>1990.3</ele>
      </trkpt>
      <trkpt lat="44.83762" lon="6.94873">
        <ele>1990.5</ele>
      </trkpt>
      <trkpt lat="44.83764" lon="6.94876">
        <ele>1991.7</ele>
      </trkpt>
      <trkpt lat="44.83765" lon="6.94879">
        <ele>1992.7</ele>
      </trkpt>
      <trkpt lat="44.83765" lon="6.94883">
        <ele>1993.5</ele>
      </trkpt>
      <trkpt lat="44.83761" lon="6.94888">
        <ele>1993.6</ele>
      </trkpt>
      <trkpt lat="44.8376" lon="6.94889">
        <ele>1993.6</ele>
      </trkpt>
      <trkpt lat="44.83756" lon="6.94894">
        <ele>1994.1</ele>
      </trkpt>
      <trkpt lat="44.83753" lon="6.94897">
        <ele>1994.2</ele>
      </trkpt>
      <trkpt lat="44.83752" lon="6.94899">
        <ele>1994.5</ele>
      </trkpt>
      <trkpt lat="44.83749" lon="6.94902">
        <ele>1994.5</ele>
      </trkpt>
      <trkpt lat="44.83747" lon="6.94906">
        <ele>1995.2</ele>
      </trkpt>
      <trkpt lat="44.83746" lon="6.94907">
        <ele>1995.2</ele>
      </trkpt>
      <trkpt lat="44.83743" lon="6.94917">
        <ele>1997</ele>
      </trkpt>
      <trkpt lat="44.83742" lon="6.94921">
        <ele>1997.4</ele>
      </trkpt>
      <trkpt lat="44.8374" lon="6.94927">
        <ele>1997.7</ele>
      </trkpt>
      <trkpt lat="44.83738" lon="6.94938">
        <ele>1998.7</ele>
      </trkpt>
      <trkpt lat="44.83733" lon="6.94952">
        <ele>1999.7</ele>
      </trkpt>
      <trkpt lat="44.83728" lon="6.94962">
        <ele>2000.1</ele>
      </trkpt>
      <trkpt lat="44.83728" lon="6.94965">
        <ele>2000.8</ele>
      </trkpt>
      <trkpt lat="44.83724" lon="6.94976">
        <ele>2001.5</ele>
      </trkpt>
      <trkpt lat="44.83722" lon="6.94979">
        <ele>2001.2</ele>
      </trkpt>
      <trkpt lat="44.83716" lon="6.94997">
        <ele>2002.7</ele>
      </trkpt>
      <trkpt lat="44.83713" lon="6.95005">
        <ele>2003.2</ele>
      </trkpt>
      <trkpt lat="44.83712" lon="6.9501">
        <ele>2003.7</ele>
      </trkpt>
      <trkpt lat="44.83711" lon="6.95012">
        <ele>2003.8</ele>
      </trkpt>
      <trkpt lat="44.83709" lon="6.95018">
        <ele>2004.1</ele>
      </trkpt>
      <trkpt lat="44.83707" lon="6.95022">
        <ele>2004.1</ele>
      </trkpt>
      <trkpt lat="44.83707" lon="6.95024">
        <ele>2004.5</ele>
      </trkpt>
      <trkpt lat="44.83706" lon="6.95032">
        <ele>2005.4</ele>
      </trkpt>
      <trkpt lat="44.83706" lon="6.95034">
        <ele>2005.6</ele>
      </trkpt>
      <trkpt lat="44.83706" lon="6.95036">
        <ele>2005.9</ele>
      </trkpt>
      <trkpt lat="44.83707" lon="6.95036">
        <ele>2006.3</ele>
      </trkpt>
      <trkpt lat="44.83706" lon="6.95036">
        <ele>2005.9</ele>
      </trkpt>
      <trkpt lat="44.83707" lon="6.95036">
        <ele>2006.3</ele>
      </trkpt>
      <trkpt lat="44.83707" lon="6.95036">
        <ele>2006.3</ele>
      </trkpt>
      <trkpt lat="44.83707" lon="6.95037">
        <ele>2006.4</ele>
      </trkpt>
      <trkpt lat="44.83708" lon="6.95042">
        <ele>2007.4</ele>
      </trkpt>
      <trkpt lat="44.83709" lon="6.95045">
        <ele>2008.2</ele>
      </trkpt>
      <trkpt lat="44.83709" lon="6.95048">
        <ele>2008.6</ele>
      </trkpt>
      <trkpt lat="44.83712" lon="6.95055">
        <ele>2010.6</ele>
      </trkpt>
      <trkpt lat="44.83713" lon="6.95057">
        <ele>2011.2</ele>
      </trkpt>
      <trkpt lat="44.83718" lon="6.95056">
        <ele>2012.7</ele>
      </trkpt>
      <trkpt lat="44.8372" lon="6.95055">
        <ele>2013.2</ele>
      </trkpt>
      <trkpt lat="44.8372" lon="6.95055">
        <ele>2013.2</ele>
      </trkpt>
      <trkpt lat="44.83723" lon="6.95053">
        <ele>2014</ele>
      </trkpt>
      <trkpt lat="44.83727" lon="6.9505">
        <ele>2015.6</ele>
      </trkpt>
      <trkpt lat="44.83728" lon="6.9505">
        <ele>2016.1</ele>
      </trkpt>
      <trkpt lat="44.83732" lon="6.95049">
        <ele>2017.9</ele>
      </trkpt>
      <trkpt lat="44.83732" lon="6.9505">
        <ele>2018.1</ele>
      </trkpt>
      <trkpt lat="44.83733" lon="6.95053">
        <ele>2019</ele>
      </trkpt>
      <trkpt lat="44.83733" lon="6.95056">
        <ele>2019.5</ele>
      </trkpt>
      <trkpt lat="44.83733" lon="6.95059">
        <ele>2020.1</ele>
      </trkpt>
      <trkpt lat="44.83732" lon="6.95062">
        <ele>2020.1</ele>
      </trkpt>
      <trkpt lat="44.83733" lon="6.95066">
        <ele>2021.3</ele>
      </trkpt>
      <trkpt lat="44.83733" lon="6.95072">
        <ele>2022.4</ele>
      </trkpt>
      <trkpt lat="44.83733" lon="6.95073">
        <ele>2022.6</ele>
      </trkpt>
      <trkpt lat="44.83731" lon="6.95081">
        <ele>2023</ele>
      </trkpt>
      <trkpt lat="44.83731" lon="6.95083">
        <ele>2023.4</ele>
      </trkpt>
      <trkpt lat="44.83731" lon="6.95086">
        <ele>2023.9</ele>
      </trkpt>
      <trkpt lat="44.83731" lon="6.95094">
        <ele>2025.3</ele>
      </trkpt>
      <trkpt lat="44.83731" lon="6.95094">
        <ele>2025.3</ele>
      </trkpt>
      <trkpt lat="44.83731" lon="6.95092">
        <ele>2025</ele>
      </trkpt>
      <trkpt lat="44.83734" lon="6.9509">
        <ele>2026.1</ele>
      </trkpt>
      <trkpt lat="44.83734" lon="6.95091">
        <ele>2026.3</ele>
      </trkpt>
      <trkpt lat="44.83734" lon="6.95097">
        <ele>2027.4</ele>
      </trkpt>
      <trkpt lat="44.83733" lon="6.95099">
        <ele>2027.3</ele>
      </trkpt>
      <trkpt lat="44.83732" lon="6.95102">
        <ele>2027.3</ele>
      </trkpt>
      <trkpt lat="44.83731" lon="6.95104">
        <ele>2027.1</ele>
      </trkpt>
      <trkpt lat="44.8373" lon="6.95106">
        <ele>2027</ele>
      </trkpt>
      <trkpt lat="44.8373" lon="6.95111">
        <ele>2027.9</ele>
      </trkpt>
      <trkpt lat="44.83731" lon="6.95112">
        <ele>2028.6</ele>
      </trkpt>
      <trkpt lat="44.83731" lon="6.95113">
        <ele>2028.7</ele>
      </trkpt>
      <trkpt lat="44.83733" lon="6.95116">
        <ele>2030.1</ele>
      </trkpt>
      <trkpt lat="44.83733" lon="6.95121">
        <ele>2030.9</ele>
      </trkpt>
      <trkpt lat="44.83734" lon="6.95122">
        <ele>2031.5</ele>
      </trkpt>
      <trkpt lat="44.83735" lon="6.9512">
        <ele>2031.7</ele>
      </trkpt>
      <trkpt lat="44.83735" lon="6.9512">
        <ele>2031.7</ele>
      </trkpt>
      <trkpt lat="44.83734" lon="6.95119">
        <ele>2031.1</ele>
      </trkpt>
      <trkpt lat="44.83734" lon="6.95118">
        <ele>2030.9</ele>
      </trkpt>
      <trkpt lat="44.83738" lon="6.95116">
        <ele>2032.7</ele>
      </trkpt>
      <trkpt lat="44.83739" lon="6.95116">
        <ele>2033.2</ele>
      </trkpt>
      <trkpt lat="44.83743" lon="6.95116">
        <ele>2035.2</ele>
      </trkpt>
      <trkpt lat="44.83743" lon="6.95117">
        <ele>2035.3</ele>
      </trkpt>
      <trkpt lat="44.83743" lon="6.95121">
        <ele>2035.9</ele>
      </trkpt>
      <trkpt lat="44.83743" lon="6.95122">
        <ele>2036</ele>
      </trkpt>
      <trkpt lat="44.83744" lon="6.95127">
        <ele>2037.3</ele>
      </trkpt>
      <trkpt lat="44.83746" lon="6.95134">
        <ele>2039.3</ele>
      </trkpt>
      <trkpt lat="44.83747" lon="6.95139">
        <ele>2040.5</ele>
      </trkpt>
      <trkpt lat="44.83747" lon="6.95142">
        <ele>2041.2</ele>
      </trkpt>
      <trkpt lat="44.83747" lon="6.95145">
        <ele>2041.8</ele>
      </trkpt>
      <trkpt lat="44.83747" lon="6.9515">
        <ele>2042.9</ele>
      </trkpt>
      <trkpt lat="44.83747" lon="6.95151">
        <ele>2043.1</ele>
      </trkpt>
      <trkpt lat="44.83747" lon="6.95155">
        <ele>2044</ele>
      </trkpt>
      <trkpt lat="44.83747" lon="6.95158">
        <ele>2044.6</ele>
      </trkpt>
      <trkpt lat="44.83747" lon="6.95159">
        <ele>2044.8</ele>
      </trkpt>
      <trkpt lat="44.8375" lon="6.9516">
        <ele>2046.6</ele>
      </trkpt>
      <trkpt lat="44.8375" lon="6.9516">
        <ele>2046.6</ele>
      </trkpt>
      <trkpt lat="44.8375" lon="6.95159">
        <ele>2046.3</ele>
      </trkpt>
      <trkpt lat="44.83754" lon="6.95156">
        <ele>2047.4</ele>
      </trkpt>
      <trkpt lat="44.83755" lon="6.95155">
        <ele>2047.7</ele>
      </trkpt>
      <trkpt lat="44.83756" lon="6.95155">
        <ele>2048.1</ele>
      </trkpt>
      <trkpt lat="44.83756" lon="6.95157">
        <ele>2048.5</ele>
      </trkpt>
      <trkpt lat="44.83757" lon="6.95161">
        <ele>2049.7</ele>
      </trkpt>
      <trkpt lat="44.83757" lon="6.9516">
        <ele>2049.5</ele>
      </trkpt>
      <trkpt lat="44.8376" lon="6.95156">
        <ele>2050.1</ele>
      </trkpt>
      <trkpt lat="44.83761" lon="6.95155">
        <ele>2050.3</ele>
      </trkpt>
      <trkpt lat="44.83763" lon="6.95153">
        <ele>2050.9</ele>
      </trkpt>
      <trkpt lat="44.83763" lon="6.95152">
        <ele>2050.7</ele>
      </trkpt>
      <trkpt lat="44.83766" lon="6.95149">
        <ele>2051.6</ele>
      </trkpt>
      <trkpt lat="44.83768" lon="6.95147">
        <ele>2052.3</ele>
      </trkpt>
      <trkpt lat="44.8377" lon="6.95144">
        <ele>2052.8</ele>
      </trkpt>
      <trkpt lat="44.83772" lon="6.95142">
        <ele>2053.5</ele>
      </trkpt>
      <trkpt lat="44.83772" lon="6.95142">
        <ele>2053.5</ele>
      </trkpt>
      <trkpt lat="44.83774" lon="6.95146">
        <ele>2055</ele>
      </trkpt>
      <trkpt lat="44.83774" lon="6.95147">
        <ele>2055.1</ele>
      </trkpt>
      <trkpt lat="44.83774" lon="6.9515">
        <ele>2055.5</ele>
      </trkpt>
      <trkpt lat="44.83776" lon="6.95158">
        <ele>2057.3</ele>
      </trkpt>
      <trkpt lat="44.83776" lon="6.95161">
        <ele>2057.6</ele>
      </trkpt>
      <trkpt lat="44.83777" lon="6.95167">
        <ele>2058.8</ele>
      </trkpt>
      <trkpt lat="44.83777" lon="6.95173">
        <ele>2060.1</ele>
      </trkpt>
      <trkpt lat="44.83776" lon="6.95175">
        <ele>2060.1</ele>
      </trkpt>
      <trkpt lat="44.83776" lon="6.9518">
        <ele>2061.2</ele>
      </trkpt>
      <trkpt lat="44.83775" lon="6.95185">
        <ele>2062</ele>
      </trkpt>
      <trkpt lat="44.83776" lon="6.95191">
        <ele>2063.7</ele>
      </trkpt>
      <trkpt lat="44.83776" lon="6.95192">
        <ele>2063.9</ele>
      </trkpt>
      <trkpt lat="44.83774" lon="6.952">
        <ele>2065.2</ele>
      </trkpt>
      <trkpt lat="44.83773" lon="6.95202">
        <ele>2065.4</ele>
      </trkpt>
      <trkpt lat="44.83771" lon="6.95206">
        <ele>2065.7</ele>
      </trkpt>
      <trkpt lat="44.8377" lon="6.9521">
        <ele>2066.4</ele>
      </trkpt>
      <trkpt lat="44.83769" lon="6.95213">
        <ele>2066.8</ele>
      </trkpt>
      <trkpt lat="44.83768" lon="6.95215">
        <ele>2067</ele>
      </trkpt>
      <trkpt lat="44.83767" lon="6.95219">
        <ele>2067.7</ele>
      </trkpt>
      <trkpt lat="44.83765" lon="6.95225">
        <ele>2068.4</ele>
      </trkpt>
      <trkpt lat="44.83764" lon="6.95227">
        <ele>2068.4</ele>
      </trkpt>
      <trkpt lat="44.83764" lon="6.95231">
        <ele>2069.1</ele>
      </trkpt>
      <trkpt lat="44.83762" lon="6.95236">
        <ele>2069.4</ele>
      </trkpt>
      <trkpt lat="44.83762" lon="6.9524">
        <ele>2070.1</ele>
      </trkpt>
      <trkpt lat="44.83762" lon="6.95243">
        <ele>2070.6</ele>
      </trkpt>
      <trkpt lat="44.83762" lon="6.95249">
        <ele>2071.7</ele>
      </trkpt>
      <trkpt lat="44.83762" lon="6.95254">
        <ele>2072.7</ele>
      </trkpt>
      <trkpt lat="44.83762" lon="6.95262">
        <ele>2074.3</ele>
      </trkpt>
      <trkpt lat="44.83761" lon="6.95268">
        <ele>2075.2</ele>
      </trkpt>
      <trkpt lat="44.83761" lon="6.95269">
        <ele>2075.4</ele>
      </trkpt>
      <trkpt lat="44.83762" lon="6.95274">
        <ele>2076.7</ele>
      </trkpt>
      <trkpt lat="44.83764" lon="6.95274">
        <ele>2077.3</ele>
      </trkpt>
      <trkpt lat="44.83765" lon="6.95273">
        <ele>2077.4</ele>
      </trkpt>
      <trkpt lat="44.83769" lon="6.95271">
        <ele>2078.2</ele>
      </trkpt>
      <trkpt lat="44.83774" lon="6.95267">
        <ele>2078.9</ele>
      </trkpt>
      <trkpt lat="44.83776" lon="6.95267">
        <ele>2079.5</ele>
      </trkpt>
      <trkpt lat="44.83779" lon="6.95266">
        <ele>2080.3</ele>
      </trkpt>
      <trkpt lat="44.83783" lon="6.95264">
        <ele>2081.2</ele>
      </trkpt>
      <trkpt lat="44.83784" lon="6.95263">
        <ele>2081.3</ele>
      </trkpt>
      <trkpt lat="44.83787" lon="6.95262">
        <ele>2082.1</ele>
      </trkpt>
      <trkpt lat="44.8379" lon="6.95261">
        <ele>2082.8</ele>
      </trkpt>
      <trkpt lat="44.83794" lon="6.9526">
        <ele>2083.9</ele>
      </trkpt>
      <trkpt lat="44.83799" lon="6.9526">
        <ele>2085.5</ele>
      </trkpt>
      <trkpt lat="44.838" lon="6.95259">
        <ele>2085.5</ele>
      </trkpt>
      <trkpt lat="44.83803" lon="6.95258">
        <ele>2086.2</ele>
      </trkpt>
      <trkpt lat="44.83805" lon="6.95258">
        <ele>2086.8</ele>
      </trkpt>
      <trkpt lat="44.83808" lon="6.95257">
        <ele>2087.5</ele>
      </trkpt>
      <trkpt lat="44.83808" lon="6.95257">
        <ele>2087.5</ele>
      </trkpt>
      <trkpt lat="44.83809" lon="6.95257">
        <ele>2087.8</ele>
      </trkpt>
      <trkpt lat="44.83811" lon="6.95257">
        <ele>2088.4</ele>
      </trkpt>
      <trkpt lat="44.83811" lon="6.95257">
        <ele>2088.4</ele>
      </trkpt>
      <trkpt lat="44.8381" lon="6.9526">
        <ele>2088.9</ele>
      </trkpt>
      <trkpt lat="44.83809" lon="6.95261">
        <ele>2088.8</ele>
      </trkpt>
      <trkpt lat="44.83807" lon="6.95267">
        <ele>2089.7</ele>
      </trkpt>
      <trkpt lat="44.83807" lon="6.9527">
        <ele>2090.5</ele>
      </trkpt>
      <trkpt lat="44.83807" lon="6.9527">
        <ele>2090.5</ele>
      </trkpt>
      <trkpt lat="44.83807" lon="6.95272">
        <ele>2091</ele>
      </trkpt>
      <trkpt lat="44.83806" lon="6.95276">
        <ele>2091.7</ele>
      </trkpt>
      <trkpt lat="44.83805" lon="6.95284">
        <ele>2093.6</ele>
      </trkpt>
      <trkpt lat="44.83804" lon="6.95289">
        <ele>2094.6</ele>
      </trkpt>
      <trkpt lat="44.83804" lon="6.95294">
        <ele>2096</ele>
      </trkpt>
      <trkpt lat="44.83804" lon="6.95296">
        <ele>2096.6</ele>
      </trkpt>
      <trkpt lat="44.83803" lon="6.95297">
        <ele>2096.5</ele>
      </trkpt>
      <trkpt lat="44.83803" lon="6.953">
        <ele>2097.3</ele>
      </trkpt>
      <trkpt lat="44.838" lon="6.95307">
        <ele>2097.9</ele>
      </trkpt>
      <trkpt lat="44.838" lon="6.95308">
        <ele>2098.1</ele>
      </trkpt>
      <trkpt lat="44.83799" lon="6.95311">
        <ele>2098.3</ele>
      </trkpt>
      <trkpt lat="44.83798" lon="6.95318">
        <ele>2099.4</ele>
      </trkpt>
      <trkpt lat="44.83798" lon="6.9532">
        <ele>2099.9</ele>
      </trkpt>
      <trkpt lat="44.83798" lon="6.95323">
        <ele>2100.5</ele>
      </trkpt>
      <trkpt lat="44.83798" lon="6.95323">
        <ele>2100.5</ele>
      </trkpt>
      <trkpt lat="44.83799" lon="6.95322">
        <ele>2100.7</ele>
      </trkpt>
      <trkpt lat="44.83804" lon="6.95321">
        <ele>2102.7</ele>
      </trkpt>
      <trkpt lat="44.83806" lon="6.9532">
        <ele>2103.2</ele>
      </trkpt>
      <trkpt lat="44.83808" lon="6.9532">
        <ele>2103.8</ele>
      </trkpt>
      <trkpt lat="44.83812" lon="6.95319">
        <ele>2104.8</ele>
      </trkpt>
      <trkpt lat="44.83815" lon="6.95318">
        <ele>2105.4</ele>
      </trkpt>
      <trkpt lat="44.83815" lon="6.95318">
        <ele>2105.4</ele>
      </trkpt>
      <trkpt lat="44.83821" lon="6.95317">
        <ele>2106.9</ele>
      </trkpt>
      <trkpt lat="44.83822" lon="6.95317">
        <ele>2107.2</ele>
      </trkpt>
      <trkpt lat="44.83825" lon="6.95319">
        <ele>2108.5</ele>
      </trkpt>
      <trkpt lat="44.83825" lon="6.95323">
        <ele>2109.4</ele>
      </trkpt>
      <trkpt lat="44.83824" lon="6.95324">
        <ele>2109.3</ele>
      </trkpt>
      <trkpt lat="44.83823" lon="6.95328">
        <ele>2109.9</ele>
      </trkpt>
      <trkpt lat="44.83821" lon="6.95334">
        <ele>2110.6</ele>
      </trkpt>
      <trkpt lat="44.8382" lon="6.95338">
        <ele>2111.2</ele>
      </trkpt>
      <trkpt lat="44.83819" lon="6.95342">
        <ele>2111.7</ele>
      </trkpt>
      <trkpt lat="44.83817" lon="6.95347">
        <ele>2112.2</ele>
      </trkpt>
      <trkpt lat="44.83816" lon="6.95351">
        <ele>2112.8</ele>
      </trkpt>
      <trkpt lat="44.83815" lon="6.95352">
        <ele>2112.8</ele>
      </trkpt>
      <trkpt lat="44.83813" lon="6.95359">
        <ele>2113.7</ele>
      </trkpt>
      <trkpt lat="44.83813" lon="6.95364">
        <ele>2114.7</ele>
      </trkpt>
      <trkpt lat="44.83813" lon="6.95365">
        <ele>2114.8</ele>
      </trkpt>
      <trkpt lat="44.83813" lon="6.95367">
        <ele>2115.2</ele>
      </trkpt>
      <trkpt lat="44.83814" lon="6.95367">
        <ele>2115.5</ele>
      </trkpt>
      <trkpt lat="44.83814" lon="6.95367">
        <ele>2115.5</ele>
      </trkpt>
      <trkpt lat="44.83815" lon="6.9537">
        <ele>2116.3</ele>
      </trkpt>
      <trkpt lat="44.8382" lon="6.95372">
        <ele>2118.1</ele>
      </trkpt>
      <trkpt lat="44.83822" lon="6.95372">
        <ele>2118.7</ele>
      </trkpt>
      <trkpt lat="44.83824" lon="6.95372">
        <ele>2119.3</ele>
      </trkpt>
      <trkpt lat="44.83829" lon="6.95373">
        <ele>2120.9</ele>
      </trkpt>
      <trkpt lat="44.8383" lon="6.95374">
        <ele>2121.4</ele>
      </trkpt>
      <trkpt lat="44.83831" lon="6.95375">
        <ele>2121.8</ele>
      </trkpt>
      <trkpt lat="44.83835" lon="6.95379">
        <ele>2123.8</ele>
      </trkpt>
      <trkpt lat="44.83836" lon="6.9538">
        <ele>2124.4</ele>
      </trkpt>
      <trkpt lat="44.83839" lon="6.95382">
        <ele>2125.8</ele>
      </trkpt>
      <trkpt lat="44.83839" lon="6.95383">
        <ele>2126</ele>
      </trkpt>
      <trkpt lat="44.83842" lon="6.95385">
        <ele>2127.4</ele>
      </trkpt>
      <trkpt lat="44.83845" lon="6.95387">
        <ele>2128.9</ele>
      </trkpt>
      <trkpt lat="44.83847" lon="6.9539">
        <ele>2130.2</ele>
      </trkpt>
      <trkpt lat="44.83848" lon="6.95391">
        <ele>2130.8</ele>
      </trkpt>
      <trkpt lat="44.83849" lon="6.95394">
        <ele>2131.8</ele>
      </trkpt>
      <trkpt lat="44.8385" lon="6.95398">
        <ele>2133</ele>
      </trkpt>
      <trkpt lat="44.8385" lon="6.95399">
        <ele>2133.3</ele>
      </trkpt>
      <trkpt lat="44.8385" lon="6.95404">
        <ele>2134.4</ele>
      </trkpt>
      <trkpt lat="44.83849" lon="6.95407">
        <ele>2134.8</ele>
      </trkpt>
      <trkpt lat="44.83848" lon="6.9541">
        <ele>2135.2</ele>
      </trkpt>
      <trkpt lat="44.83845" lon="6.95413">
        <ele>2135.1</ele>
      </trkpt>
      <trkpt lat="44.83844" lon="6.95414">
        <ele>2135</ele>
      </trkpt>
      <trkpt lat="44.83843" lon="6.95416">
        <ele>2135.3</ele>
      </trkpt>
      <trkpt lat="44.83843" lon="6.95418">
        <ele>2135.8</ele>
      </trkpt>
      <trkpt lat="44.83845" lon="6.95419">
        <ele>2136.6</ele>
      </trkpt>
      <trkpt lat="44.83848" lon="6.95422">
        <ele>2138.1</ele>
      </trkpt>
      <trkpt lat="44.83849" lon="6.95423">
        <ele>2138.6</ele>
      </trkpt>
      <trkpt lat="44.83851" lon="6.95425">
        <ele>2139.6</ele>
      </trkpt>
      <trkpt lat="44.83851" lon="6.95425">
        <ele>2139.6</ele>
      </trkpt>
      <trkpt lat="44.83852" lon="6.95425">
        <ele>2139.8</ele>
      </trkpt>
      <trkpt lat="44.83852" lon="6.95425">
        <ele>2139.8</ele>
      </trkpt>
      <trkpt lat="44.83852" lon="6.95425">
        <ele>2139.8</ele>
      </trkpt>
      <trkpt lat="44.83852" lon="6.95425">
        <ele>2139.8</ele>
      </trkpt>
      <trkpt lat="44.83852" lon="6.95425">
        <ele>2139.8</ele>
      </trkpt>
      <trkpt lat="44.83853" lon="6.95426">
        <ele>2140.3</ele>
      </trkpt>
      <trkpt lat="44.83855" lon="6.95426">
        <ele>2140.7</ele>
      </trkpt>
      <trkpt lat="44.83857" lon="6.95425">
        <ele>2140.9</ele>
      </trkpt>
      <trkpt lat="44.83858" lon="6.95425">
        <ele>2141.1</ele>
      </trkpt>
      <trkpt lat="44.83858" lon="6.95425">
        <ele>2141.1</ele>
      </trkpt>
      <trkpt lat="44.83858" lon="6.95424">
        <ele>2140.9</ele>
      </trkpt>
      <trkpt lat="44.83857" lon="6.95424">
        <ele>2140.7</ele>
      </trkpt>
      <trkpt lat="44.83857" lon="6.95425">
        <ele>2140.9</ele>
      </trkpt>
      <trkpt lat="44.8386" lon="6.95428">
        <ele>2142.2</ele>
      </trkpt>
      <trkpt lat="44.8386" lon="6.95431">
        <ele>2142.9</ele>
      </trkpt>
      <trkpt lat="44.8386" lon="6.95432">
        <ele>2143.1</ele>
      </trkpt>
      <trkpt lat="44.8386" lon="6.95434">
        <ele>2143.5</ele>
      </trkpt>
      <trkpt lat="44.83859" lon="6.95436">
        <ele>2143.8</ele>
      </trkpt>
      <trkpt lat="44.83859" lon="6.95438">
        <ele>2144.3</ele>
      </trkpt>
      <trkpt lat="44.83858" lon="6.95441">
        <ele>2144.8</ele>
      </trkpt>
      <trkpt lat="44.83857" lon="6.95442">
        <ele>2144.8</ele>
      </trkpt>
      <trkpt lat="44.83854" lon="6.95446">
        <ele>2145.2</ele>
      </trkpt>
      <trkpt lat="44.83852" lon="6.95449">
        <ele>2145.4</ele>
      </trkpt>
      <trkpt lat="44.8385" lon="6.95451">
        <ele>2145.4</ele>
      </trkpt>
      <trkpt lat="44.8385" lon="6.95455">
        <ele>2146</ele>
      </trkpt>
      <trkpt lat="44.83851" lon="6.95456">
        <ele>2146.3</ele>
      </trkpt>
      <trkpt lat="44.83851" lon="6.95461">
        <ele>2147.1</ele>
      </trkpt>
      <trkpt lat="44.83851" lon="6.95463">
        <ele>2147.4</ele>
      </trkpt>
      <trkpt lat="44.83851" lon="6.95465">
        <ele>2147.7</ele>
      </trkpt>
      <trkpt lat="44.83849" lon="6.95474">
        <ele>2148.7</ele>
      </trkpt>
      <trkpt lat="44.83849" lon="6.95477">
        <ele>2149.1</ele>
      </trkpt>
      <trkpt lat="44.83849" lon="6.95482">
        <ele>2149.9</ele>
      </trkpt>
      <trkpt lat="44.83849" lon="6.95482">
        <ele>2149.9</ele>
      </trkpt>
      <trkpt lat="44.8385" lon="6.95483">
        <ele>2150.3</ele>
      </trkpt>
      <trkpt lat="44.8385" lon="6.95485">
        <ele>2150.6</ele>
      </trkpt>
      <trkpt lat="44.83851" lon="6.95485">
        <ele>2150.9</ele>
      </trkpt>
      <trkpt lat="44.83853" lon="6.95485">
        <ele>2151.5</ele>
      </trkpt>
      <trkpt lat="44.83853" lon="6.95485">
        <ele>2151.5</ele>
      </trkpt>
      <trkpt lat="44.83853" lon="6.95486">
        <ele>2151.6</ele>
      </trkpt>
      <trkpt lat="44.83853" lon="6.95485">
        <ele>2151.5</ele>
      </trkpt>
      <trkpt lat="44.83853" lon="6.95486">
        <ele>2151.6</ele>
      </trkpt>
      <trkpt lat="44.83854" lon="6.95483">
        <ele>2151.4</ele>
      </trkpt>
      <trkpt lat="44.83854" lon="6.95482">
        <ele>2151.2</ele>
      </trkpt>
      <trkpt lat="44.83854" lon="6.95483">
        <ele>2151.4</ele>
      </trkpt>
      <trkpt lat="44.83854" lon="6.95484">
        <ele>2151.6</ele>
      </trkpt>
      <trkpt lat="44.83854" lon="6.95484">
        <ele>2151.6</ele>
      </trkpt>
      <trkpt lat="44.83854" lon="6.95483">
        <ele>2151.4</ele>
      </trkpt>
      <trkpt lat="44.83852" lon="6.95481">
        <ele>2150.5</ele>
      </trkpt>
      <trkpt lat="44.83853" lon="6.9548">
        <ele>2150.6</ele>
      </trkpt>
      <trkpt lat="44.83854" lon="6.95481">
        <ele>2151</ele>
      </trkpt>
      <trkpt lat="44.83853" lon="6.95482">
        <ele>2150.9</ele>
      </trkpt>
      <trkpt lat="44.83854" lon="6.95483">
        <ele>2151.4</ele>
      </trkpt>
      <trkpt lat="44.83853" lon="6.95483">
        <ele>2151.1</ele>
      </trkpt>
      <trkpt lat="44.83853" lon="6.95483">
        <ele>2151.1</ele>
      </trkpt>
      <trkpt lat="44.83854" lon="6.95484">
        <ele>2151.6</ele>
      </trkpt>
      <trkpt lat="44.83854" lon="6.95485">
        <ele>2151.8</ele>
      </trkpt>
      <trkpt lat="44.83854" lon="6.95485">
        <ele>2151.8</ele>
      </trkpt>
      <trkpt lat="44.83854" lon="6.95485">
        <ele>2151.8</ele>
      </trkpt>
      <trkpt lat="44.83854" lon="6.95485">
        <ele>2151.8</ele>
      </trkpt>
      <trkpt lat="44.83853" lon="6.95485">
        <ele>2151.5</ele>
      </trkpt>
      <trkpt lat="44.83853" lon="6.95485">
        <ele>2151.5</ele>
      </trkpt>
      <trkpt lat="44.83853" lon="6.95484">
        <ele>2151.3</ele>
      </trkpt>
      <trkpt lat="44.83853" lon="6.95483">
        <ele>2151.1</ele>
      </trkpt>
      <trkpt lat="44.83853" lon="6.95484">
        <ele>2151.3</ele>
      </trkpt>
      <trkpt lat="44.83853" lon="6.95485">
        <ele>2151.5</ele>
      </trkpt>
      <trkpt lat="44.83854" lon="6.95485">
        <ele>2151.8</ele>
      </trkpt>
      <trkpt lat="44.83854" lon="6.95483">
        <ele>2151.4</ele>
      </trkpt>
      <trkpt lat="44.83857" lon="6.95481">
        <ele>2151.8</ele>
      </trkpt>
      <trkpt lat="44.83859" lon="6.95482">
        <ele>2152.5</ele>
      </trkpt>
      <trkpt lat="44.83864" lon="6.95482">
        <ele>2154</ele>
      </trkpt>
      <trkpt lat="44.83868" lon="6.95481">
        <ele>2155.1</ele>
      </trkpt>
      <trkpt lat="44.83871" lon="6.95481">
        <ele>2156.1</ele>
      </trkpt>
      <trkpt lat="44.83877" lon="6.95479">
        <ele>2157.6</ele>
      </trkpt>
      <trkpt lat="44.83878" lon="6.95479">
        <ele>2157.9</ele>
      </trkpt>
      <trkpt lat="44.83883" lon="6.95477">
        <ele>2159.1</ele>
      </trkpt>
      <trkpt lat="44.83884" lon="6.95476">
        <ele>2159.2</ele>
      </trkpt>
      <trkpt lat="44.83885" lon="6.95476">
        <ele>2159.6</ele>
      </trkpt>
      <trkpt lat="44.83886" lon="6.95476">
        <ele>2159.9</ele>
      </trkpt>
      <trkpt lat="44.83892" lon="6.9547">
        <ele>2161.5</ele>
      </trkpt>
      <trkpt lat="44.83893" lon="6.95467">
        <ele>2161.8</ele>
      </trkpt>
      <trkpt lat="44.83895" lon="6.95463">
        <ele>2162.5</ele>
      </trkpt>
      <trkpt lat="44.83896" lon="6.95462">
        <ele>2162.9</ele>
      </trkpt>
      <trkpt lat="44.83897" lon="6.95457">
        <ele>2162.9</ele>
      </trkpt>
      <trkpt lat="44.83898" lon="6.95455">
        <ele>2163.2</ele>
      </trkpt>
      <trkpt lat="44.83899" lon="6.95453">
        <ele>2163.5</ele>
      </trkpt>
      <trkpt lat="44.83902" lon="6.95449">
        <ele>2164.6</ele>
      </trkpt>
      <trkpt lat="44.83903" lon="6.95448">
        <ele>2165.1</ele>
      </trkpt>
      <trkpt lat="44.83904" lon="6.95446">
        <ele>2165.4</ele>
      </trkpt>
      <trkpt lat="44.83908" lon="6.95442">
        <ele>2167</ele>
      </trkpt>
      <trkpt lat="44.83909" lon="6.95442">
        <ele>2167.5</ele>
      </trkpt>
      <trkpt lat="44.83912" lon="6.95439">
        <ele>2168.7</ele>
      </trkpt>
      <trkpt lat="44.83914" lon="6.95436">
        <ele>2169.4</ele>
      </trkpt>
      <trkpt lat="44.83914" lon="6.95435">
        <ele>2169.2</ele>
      </trkpt>
      <trkpt lat="44.83916" lon="6.95433">
        <ele>2170</ele>
      </trkpt>
      <trkpt lat="44.83916" lon="6.95432">
        <ele>2169.9</ele>
      </trkpt>
      <trkpt lat="44.8392" lon="6.95429">
        <ele>2171.1</ele>
      </trkpt>
      <trkpt lat="44.83921" lon="6.95428">
        <ele>2171.4</ele>
      </trkpt>
      <trkpt lat="44.83923" lon="6.95427">
        <ele>2172.1</ele>
      </trkpt>
      <trkpt lat="44.83926" lon="6.95425">
        <ele>2173</ele>
      </trkpt>
      <trkpt lat="44.83929" lon="6.95423">
        <ele>2173.9</ele>
      </trkpt>
      <trkpt lat="44.83932" lon="6.9542">
        <ele>2174.6</ele>
      </trkpt>
      <trkpt lat="44.83933" lon="6.9542">
        <ele>2175</ele>
      </trkpt>
      <trkpt lat="44.83938" lon="6.95416">
        <ele>2176.3</ele>
      </trkpt>
      <trkpt lat="44.83941" lon="6.95415">
        <ele>2177.3</ele>
      </trkpt>
      <trkpt lat="44.83945" lon="6.95413">
        <ele>2178.6</ele>
      </trkpt>
      <trkpt lat="44.83946" lon="6.95413">
        <ele>2179</ele>
      </trkpt>
      <trkpt lat="44.83945" lon="6.95413">
        <ele>2178.6</ele>
      </trkpt>
      <trkpt lat="44.83945" lon="6.95415">
        <ele>2178.9</ele>
      </trkpt>
      <trkpt lat="44.83947" lon="6.95414">
        <ele>2179.7</ele>
      </trkpt>
      <trkpt lat="44.8395" lon="6.95412">
        <ele>2180.7</ele>
      </trkpt>
      <trkpt lat="44.83952" lon="6.95411">
        <ele>2181.4</ele>
      </trkpt>
      <trkpt lat="44.83957" lon="6.95409">
        <ele>2183.4</ele>
      </trkpt>
      <trkpt lat="44.83959" lon="6.95408">
        <ele>2184.2</ele>
      </trkpt>
      <trkpt lat="44.8396" lon="6.95408">
        <ele>2184.7</ele>
      </trkpt>
      <trkpt lat="44.83961" lon="6.95407">
        <ele>2185</ele>
      </trkpt>
      <trkpt lat="44.83962" lon="6.9541">
        <ele>2185.8</ele>
      </trkpt>
      <trkpt lat="44.83962" lon="6.95411">
        <ele>2186</ele>
      </trkpt>
      <trkpt lat="44.83963" lon="6.95418">
        <ele>2187.2</ele>
      </trkpt>
      <trkpt lat="44.83963" lon="6.95419">
        <ele>2187.4</ele>
      </trkpt>
      <trkpt lat="44.83963" lon="6.95423">
        <ele>2188</ele>
      </trkpt>
      <trkpt lat="44.83964" lon="6.95427">
        <ele>2189</ele>
      </trkpt>
      <trkpt lat="44.83964" lon="6.95429">
        <ele>2189.4</ele>
      </trkpt>
      <trkpt lat="44.83963" lon="6.95437">
        <ele>2190.2</ele>
      </trkpt>
      <trkpt lat="44.83964" lon="6.95441">
        <ele>2191.2</ele>
      </trkpt>
      <trkpt lat="44.83964" lon="6.95441">
        <ele>2191.2</ele>
      </trkpt>
      <trkpt lat="44.83969" lon="6.9544">
        <ele>2193.1</ele>
      </trkpt>
      <trkpt lat="44.8397" lon="6.95439">
        <ele>2193.3</ele>
      </trkpt>
      <trkpt lat="44.83972" lon="6.95437">
        <ele>2193.8</ele>
      </trkpt>
      <trkpt lat="44.83975" lon="6.95434">
        <ele>2194.8</ele>
      </trkpt>
      <trkpt lat="44.83977" lon="6.95432">
        <ele>2195.5</ele>
      </trkpt>
      <trkpt lat="44.83978" lon="6.9543">
        <ele>2195.7</ele>
      </trkpt>
      <trkpt lat="44.83981" lon="6.95431">
        <ele>2197.3</ele>
      </trkpt>
      <trkpt lat="44.83982" lon="6.95436">
        <ele>2198.3</ele>
      </trkpt>
      <trkpt lat="44.83982" lon="6.95437">
        <ele>2198.4</ele>
      </trkpt>
      <trkpt lat="44.83982" lon="6.95441">
        <ele>2198.9</ele>
      </trkpt>
      <trkpt lat="44.83982" lon="6.95445">
        <ele>2199.3</ele>
      </trkpt>
      <trkpt lat="44.83982" lon="6.95449">
        <ele>2199.8</ele>
      </trkpt>
      <trkpt lat="44.83984" lon="6.95454">
        <ele>2201.3</ele>
      </trkpt>
      <trkpt lat="44.83984" lon="6.95455">
        <ele>2201.4</ele>
      </trkpt>
      <trkpt lat="44.83986" lon="6.95454">
        <ele>2202.2</ele>
      </trkpt>
      <trkpt lat="44.8399" lon="6.95451">
        <ele>2203.5</ele>
      </trkpt>
      <trkpt lat="44.83992" lon="6.95449">
        <ele>2204.2</ele>
      </trkpt>
      <trkpt lat="44.83995" lon="6.95447">
        <ele>2205.2</ele>
      </trkpt>
      <trkpt lat="44.83998" lon="6.95441">
        <ele>2206</ele>
      </trkpt>
      <trkpt lat="44.84" lon="6.95438">
        <ele>2206.8</ele>
      </trkpt>
      <trkpt lat="44.84002" lon="6.95433">
        <ele>2207.7</ele>
      </trkpt>
      <trkpt lat="44.84003" lon="6.95432">
        <ele>2208.2</ele>
      </trkpt>
      <trkpt lat="44.84004" lon="6.95429">
        <ele>2208.7</ele>
      </trkpt>
      <trkpt lat="44.84007" lon="6.95425">
        <ele>2210.3</ele>
      </trkpt>
      <trkpt lat="44.84009" lon="6.95417">
        <ele>2211.2</ele>
      </trkpt>
      <trkpt lat="44.84009" lon="6.95414">
        <ele>2211.2</ele>
      </trkpt>
      <trkpt lat="44.84009" lon="6.95412">
        <ele>2211.2</ele>
      </trkpt>
      <trkpt lat="44.8401" lon="6.95409">
        <ele>2211.8</ele>
      </trkpt>
      <trkpt lat="44.8401" lon="6.95408">
        <ele>2211.8</ele>
      </trkpt>
      <trkpt lat="44.84013" lon="6.95412">
        <ele>2213.5</ele>
      </trkpt>
      <trkpt lat="44.84015" lon="6.95414">
        <ele>2214.6</ele>
      </trkpt>
      <trkpt lat="44.84015" lon="6.95415">
        <ele>2214.6</ele>
      </trkpt>
      <trkpt lat="44.84017" lon="6.95418">
        <ele>2215.8</ele>
      </trkpt>
      <trkpt lat="44.84019" lon="6.95423">
        <ele>2217</ele>
      </trkpt>
      <trkpt lat="44.84021" lon="6.95429">
        <ele>2218.2</ele>
      </trkpt>
      <trkpt lat="44.84023" lon="6.95434">
        <ele>2219.4</ele>
      </trkpt>
      <trkpt lat="44.84024" lon="6.95436">
        <ele>2219.9</ele>
      </trkpt>
      <trkpt lat="44.84025" lon="6.95434">
        <ele>2220.5</ele>
      </trkpt>
      <trkpt lat="44.84025" lon="6.95432">
        <ele>2220.5</ele>
      </trkpt>
      <trkpt lat="44.84027" lon="6.95428">
        <ele>2221.6</ele>
      </trkpt>
      <trkpt lat="44.84028" lon="6.95424">
        <ele>2222.1</ele>
      </trkpt>
      <trkpt lat="44.84028" lon="6.95424">
        <ele>2222.1</ele>
      </trkpt>
      <trkpt lat="44.84028" lon="6.95422">
        <ele>2222.1</ele>
      </trkpt>
      <trkpt lat="44.84028" lon="6.95422">
        <ele>2222.1</ele>
      </trkpt>
      <trkpt lat="44.84032" lon="6.95428">
        <ele>2224.1</ele>
      </trkpt>
      <trkpt lat="44.84034" lon="6.9543">
        <ele>2225.1</ele>
      </trkpt>
      <trkpt lat="44.84036" lon="6.95433">
        <ele>2226.2</ele>
      </trkpt>
      <trkpt lat="44.84036" lon="6.95434">
        <ele>2226.3</ele>
      </trkpt>
      <trkpt lat="44.84037" lon="6.95435">
        <ele>2226.9</ele>
      </trkpt>
      <trkpt lat="44.84037" lon="6.9544">
        <ele>2227.1</ele>
      </trkpt>
      <trkpt lat="44.84039" lon="6.95445">
        <ele>2228.5</ele>
      </trkpt>
      <trkpt lat="44.84039" lon="6.95446">
        <ele>2228.6</ele>
      </trkpt>
      <trkpt lat="44.84039" lon="6.95447">
        <ele>2228.8</ele>
      </trkpt>
      <trkpt lat="44.8404" lon="6.95445">
        <ele>2229.1</ele>
      </trkpt>
      <trkpt lat="44.84041" lon="6.95443">
        <ele>2229.5</ele>
      </trkpt>
      <trkpt lat="44.84044" lon="6.95437">
        <ele>2230.7</ele>
      </trkpt>
      <trkpt lat="44.84045" lon="6.95435">
        <ele>2231.1</ele>
      </trkpt>
      <trkpt lat="44.84045" lon="6.95432">
        <ele>2230.8</ele>
      </trkpt>
      <trkpt lat="44.84045" lon="6.95432">
        <ele>2230.8</ele>
      </trkpt>
      <trkpt lat="44.84047" lon="6.95436">
        <ele>2232.2</ele>
      </trkpt>
      <trkpt lat="44.84047" lon="6.95437">
        <ele>2232.3</ele>
      </trkpt>
      <trkpt lat="44.84048" lon="6.95439">
        <ele>2233.1</ele>
      </trkpt>
      <trkpt lat="44.84048" lon="6.95441">
        <ele>2233.3</ele>
      </trkpt>
      <trkpt lat="44.84049" lon="6.95446">
        <ele>2234.4</ele>
      </trkpt>
      <trkpt lat="44.84049" lon="6.9545">
        <ele>2234.7</ele>
      </trkpt>
      <trkpt lat="44.84049" lon="6.95456">
        <ele>2235.3</ele>
      </trkpt>
      <trkpt lat="44.84049" lon="6.95459">
        <ele>2235.5</ele>
      </trkpt>
      <trkpt lat="44.8405" lon="6.95459">
        <ele>2236.1</ele>
      </trkpt>
      <trkpt lat="44.84053" lon="6.95456">
        <ele>2237.4</ele>
      </trkpt>
      <trkpt lat="44.84055" lon="6.95453">
        <ele>2238.3</ele>
      </trkpt>
      <trkpt lat="44.84056" lon="6.95451">
        <ele>2238.7</ele>
      </trkpt>
      <trkpt lat="44.84057" lon="6.9545">
        <ele>2239.1</ele>
      </trkpt>
      <trkpt lat="44.84058" lon="6.95444">
        <ele>2239</ele>
      </trkpt>
      <trkpt lat="44.84059" lon="6.95441">
        <ele>2238.9</ele>
      </trkpt>
      <trkpt lat="44.8406" lon="6.95436">
        <ele>2238.5</ele>
      </trkpt>
      <trkpt lat="44.84061" lon="6.95434">
        <ele>2238.6</ele>
      </trkpt>
      <trkpt lat="44.84062" lon="6.95433">
        <ele>2238.8</ele>
      </trkpt>
      <trkpt lat="44.84063" lon="6.95433">
        <ele>2239.1</ele>
      </trkpt>
      <trkpt lat="44.84067" lon="6.95433">
        <ele>2240.6</ele>
      </trkpt>
      <trkpt lat="44.84068" lon="6.95433">
        <ele>2241</ele>
      </trkpt>
      <trkpt lat="44.84068" lon="6.95434">
        <ele>2241.2</ele>
      </trkpt>
      <trkpt lat="44.8407" lon="6.95436">
        <ele>2242.4</ele>
      </trkpt>
      <trkpt lat="44.84071" lon="6.95441">
        <ele>2243.9</ele>
      </trkpt>
      <trkpt lat="44.84071" lon="6.95444">
        <ele>2244.6</ele>
      </trkpt>
      <trkpt lat="44.84072" lon="6.95452">
        <ele>2246.1</ele>
      </trkpt>
      <trkpt lat="44.84074" lon="6.95454">
        <ele>2247.3</ele>
      </trkpt>
      <trkpt lat="44.84075" lon="6.95456">
        <ele>2248.1</ele>
      </trkpt>
      <trkpt lat="44.84077" lon="6.9546">
        <ele>2249.7</ele>
      </trkpt>
      <trkpt lat="44.84079" lon="6.95462">
        <ele>2251</ele>
      </trkpt>
      <trkpt lat="44.84081" lon="6.95464">
        <ele>2252.3</ele>
      </trkpt>
      <trkpt lat="44.84084" lon="6.95464">
        <ele>2253.8</ele>
      </trkpt>
      <trkpt lat="44.84086" lon="6.95464">
        <ele>2254.8</ele>
      </trkpt>
      <trkpt lat="44.84087" lon="6.95463">
        <ele>2255.1</ele>
      </trkpt>
      <trkpt lat="44.84088" lon="6.95461">
        <ele>2255.1</ele>
      </trkpt>
      <trkpt lat="44.84091" lon="6.95458">
        <ele>2255.9</ele>
      </trkpt>
      <trkpt lat="44.84092" lon="6.95458">
        <ele>2256.3</ele>
      </trkpt>
      <trkpt lat="44.84095" lon="6.95457">
        <ele>2257.4</ele>
      </trkpt>
      <trkpt lat="44.84098" lon="6.95455">
        <ele>2258.3</ele>
      </trkpt>
      <trkpt lat="44.84101" lon="6.95454">
        <ele>2259.4</ele>
      </trkpt>
      <trkpt lat="44.84102" lon="6.95453">
        <ele>2259.6</ele>
      </trkpt>
      <trkpt lat="44.84105" lon="6.95451">
        <ele>2260.3</ele>
      </trkpt>
      <trkpt lat="44.84107" lon="6.95449">
        <ele>2260.6</ele>
      </trkpt>
      <trkpt lat="44.84107" lon="6.95448">
        <ele>2260.3</ele>
      </trkpt>
      <trkpt lat="44.84107" lon="6.95447">
        <ele>2260.1</ele>
      </trkpt>
      <trkpt lat="44.8411" lon="6.95446">
        <ele>2261</ele>
      </trkpt>
      <trkpt lat="44.84111" lon="6.95446">
        <ele>2261.4</ele>
      </trkpt>
      <trkpt lat="44.84113" lon="6.95446">
        <ele>2262.1</ele>
      </trkpt>
      <trkpt lat="44.84118" lon="6.95447">
        <ele>2264</ele>
      </trkpt>
      <trkpt lat="44.84123" lon="6.95446">
        <ele>2265.3</ele>
      </trkpt>
      <trkpt lat="44.84126" lon="6.95445">
        <ele>2266</ele>
      </trkpt>
      <trkpt lat="44.84127" lon="6.95445">
        <ele>2266.3</ele>
      </trkpt>
      <trkpt lat="44.84131" lon="6.95443">
        <ele>2266.9</ele>
      </trkpt>
      <trkpt lat="44.84134" lon="6.95443">
        <ele>2267.9</ele>
      </trkpt>
      <trkpt lat="44.84134" lon="6.95443">
        <ele>2267.9</ele>
      </trkpt>
      <trkpt lat="44.84138" lon="6.95444">
        <ele>2269.5</ele>
      </trkpt>
      <trkpt lat="44.84142" lon="6.95447">
        <ele>2271.2</ele>
      </trkpt>
      <trkpt lat="44.84143" lon="6.95447">
        <ele>2271.3</ele>
      </trkpt>
      <trkpt lat="44.84149" lon="6.95452">
        <ele>2273.7</ele>
      </trkpt>
      <trkpt lat="44.84153" lon="6.95453">
        <ele>2274.7</ele>
      </trkpt>
      <trkpt lat="44.84154" lon="6.95453">
        <ele>2274.8</ele>
      </trkpt>
      <trkpt lat="44.84158" lon="6.95454">
        <ele>2275.7</ele>
      </trkpt>
      <trkpt lat="44.84159" lon="6.95455">
        <ele>2276.2</ele>
      </trkpt>
      <trkpt lat="44.84159" lon="6.95454">
        <ele>2275.9</ele>
      </trkpt>
      <trkpt lat="44.84159" lon="6.95456">
        <ele>2276.5</ele>
      </trkpt>
      <trkpt lat="44.84158" lon="6.95461">
        <ele>2277.9</ele>
      </trkpt>
      <trkpt lat="44.84157" lon="6.95465">
        <ele>2279</ele>
      </trkpt>
      <trkpt lat="44.84156" lon="6.95468">
        <ele>2279.8</ele>
      </trkpt>
      <trkpt lat="44.84155" lon="6.9547">
        <ele>2280.2</ele>
      </trkpt>
      <trkpt lat="44.84155" lon="6.95471">
        <ele>2280.5</ele>
      </trkpt>
      <trkpt lat="44.84154" lon="6.95477">
        <ele>2282.1</ele>
      </trkpt>
      <trkpt lat="44.84154" lon="6.95477">
        <ele>2282.1</ele>
      </trkpt>
      <trkpt lat="44.84154" lon="6.95481">
        <ele>2283.2</ele>
      </trkpt>
      <trkpt lat="44.84153" lon="6.95485">
        <ele>2284.2</ele>
      </trkpt>
      <trkpt lat="44.84152" lon="6.95488">
        <ele>2284.9</ele>
      </trkpt>
      <trkpt lat="44.84152" lon="6.95489">
        <ele>2285.2</ele>
      </trkpt>
      <trkpt lat="44.84151" lon="6.95494">
        <ele>2286.5</ele>
      </trkpt>
      <trkpt lat="44.84152" lon="6.95497">
        <ele>2287.5</ele>
      </trkpt>
      <trkpt lat="44.84153" lon="6.95497">
        <ele>2287.7</ele>
      </trkpt>
      <trkpt lat="44.84157" lon="6.95498">
        <ele>2288.7</ele>
      </trkpt>
      <trkpt lat="44.8416" lon="6.95498">
        <ele>2289.2</ele>
      </trkpt>
      <trkpt lat="44.84161" lon="6.95497">
        <ele>2289.1</ele>
      </trkpt>
      <trkpt lat="44.84166" lon="6.95496">
        <ele>2289.7</ele>
      </trkpt>
      <trkpt lat="44.84169" lon="6.95496">
        <ele>2290.5</ele>
      </trkpt>
      <trkpt lat="44.8417" lon="6.95497">
        <ele>2291.1</ele>
      </trkpt>
      <trkpt lat="44.84173" lon="6.95497">
        <ele>2291.9</ele>
      </trkpt>
      <trkpt lat="44.84174" lon="6.95497">
        <ele>2292.2</ele>
      </trkpt>
      <trkpt lat="44.84176" lon="6.95496">
        <ele>2292.4</ele>
      </trkpt>
      <trkpt lat="44.84181" lon="6.95497">
        <ele>2294.2</ele>
      </trkpt>
      <trkpt lat="44.84188" lon="6.95498">
        <ele>2296.5</ele>
      </trkpt>
      <trkpt lat="44.84189" lon="6.95498">
        <ele>2296.7</ele>
      </trkpt>
      <trkpt lat="44.84194" lon="6.95497">
        <ele>2297.8</ele>
      </trkpt>
      <trkpt lat="44.84196" lon="6.95496">
        <ele>2297.9</ele>
      </trkpt>
      <trkpt lat="44.84197" lon="6.95496">
        <ele>2298.2</ele>
      </trkpt>
      <trkpt lat="44.842" lon="6.95495">
        <ele>2298.6</ele>
      </trkpt>
      <trkpt lat="44.84202" lon="6.95496">
        <ele>2299.4</ele>
      </trkpt>
      <trkpt lat="44.84206" lon="6.95495">
        <ele>2300</ele>
      </trkpt>
      <trkpt lat="44.84209" lon="6.95496">
        <ele>2301.2</ele>
      </trkpt>
      <trkpt lat="44.8421" lon="6.95495">
        <ele>2301</ele>
      </trkpt>
      <trkpt lat="44.84211" lon="6.95494">
        <ele>2300.9</ele>
      </trkpt>
      <trkpt lat="44.84211" lon="6.95496">
        <ele>2301.6</ele>
      </trkpt>
      <trkpt lat="44.84209" lon="6.95503">
        <ele>2303.8</ele>
      </trkpt>
      <trkpt lat="44.84208" lon="6.95506">
        <ele>2304.7</ele>
      </trkpt>
      <trkpt lat="44.84206" lon="6.95509">
        <ele>2305.3</ele>
      </trkpt>
      <trkpt lat="44.84204" lon="6.95515">
        <ele>2307</ele>
      </trkpt>
      <trkpt lat="44.84203" lon="6.95518">
        <ele>2307.8</ele>
      </trkpt>
      <trkpt lat="44.84204" lon="6.95522">
        <ele>2309.6</ele>
      </trkpt>
      <trkpt lat="44.84205" lon="6.95522">
        <ele>2309.9</ele>
      </trkpt>
      <trkpt lat="44.84207" lon="6.95522">
        <ele>2310.4</ele>
      </trkpt>
      <trkpt lat="44.8421" lon="6.95523">
        <ele>2311.7</ele>
      </trkpt>
      <trkpt lat="44.84211" lon="6.95523">
        <ele>2311.9</ele>
      </trkpt>
      <trkpt lat="44.84213" lon="6.95523">
        <ele>2312.5</ele>
      </trkpt>
      <trkpt lat="44.84217" lon="6.95522">
        <ele>2313.2</ele>
      </trkpt>
      <trkpt lat="44.84221" lon="6.95523">
        <ele>2314.8</ele>
      </trkpt>
      <trkpt lat="44.84223" lon="6.95523">
        <ele>2315.3</ele>
      </trkpt>
      <trkpt lat="44.84225" lon="6.95523">
        <ele>2315.7</ele>
      </trkpt>
      <trkpt lat="44.84227" lon="6.95522">
        <ele>2315.7</ele>
      </trkpt>
      <trkpt lat="44.84228" lon="6.95523">
        <ele>2316.4</ele>
      </trkpt>
      <trkpt lat="44.84227" lon="6.95526">
        <ele>2317.3</ele>
      </trkpt>
      <trkpt lat="44.84226" lon="6.95528">
        <ele>2317.9</ele>
      </trkpt>
      <trkpt lat="44.84226" lon="6.9553">
        <ele>2318.4</ele>
      </trkpt>
      <trkpt lat="44.84225" lon="6.95532">
        <ele>2318.6</ele>
      </trkpt>
      <trkpt lat="44.84223" lon="6.95536">
        <ele>2319.2</ele>
      </trkpt>
      <trkpt lat="44.84222" lon="6.95537">
        <ele>2319.3</ele>
      </trkpt>
      <trkpt lat="44.84221" lon="6.95538">
        <ele>2319.2</ele>
      </trkpt>
      <trkpt lat="44.84221" lon="6.95538">
        <ele>2319.2</ele>
      </trkpt>
      <trkpt lat="44.8422" lon="6.95542">
        <ele>2320</ele>
      </trkpt>
      <trkpt lat="44.84219" lon="6.95548">
        <ele>2321.3</ele>
      </trkpt>
      <trkpt lat="44.84219" lon="6.95553">
        <ele>2322.5</ele>
      </trkpt>
      <trkpt lat="44.8422" lon="6.95555">
        <ele>2323.3</ele>
      </trkpt>
      <trkpt lat="44.8422" lon="6.9556">
        <ele>2324.3</ele>
      </trkpt>
      <trkpt lat="44.84221" lon="6.95564">
        <ele>2325.2</ele>
      </trkpt>
      <trkpt lat="44.84222" lon="6.95566">
        <ele>2325.8</ele>
      </trkpt>
      <trkpt lat="44.84223" lon="6.95568">
        <ele>2326.4</ele>
      </trkpt>
      <trkpt lat="44.84227" lon="6.9557">
        <ele>2327.4</ele>
      </trkpt>
      <trkpt lat="44.84229" lon="6.9557">
        <ele>2327.7</ele>
      </trkpt>
      <trkpt lat="44.8423" lon="6.95571">
        <ele>2328</ele>
      </trkpt>
      <trkpt lat="44.84234" lon="6.95573">
        <ele>2329</ele>
      </trkpt>
      <trkpt lat="44.84235" lon="6.95573">
        <ele>2329.2</ele>
      </trkpt>
      <trkpt lat="44.84237" lon="6.95574">
        <ele>2329.6</ele>
      </trkpt>
      <trkpt lat="44.84239" lon="6.95574">
        <ele>2329.9</ele>
      </trkpt>
      <trkpt lat="44.84241" lon="6.95576">
        <ele>2330.6</ele>
      </trkpt>
      <trkpt lat="44.84244" lon="6.95578">
        <ele>2331.3</ele>
      </trkpt>
      <trkpt lat="44.84248" lon="6.95577">
        <ele>2331.8</ele>
      </trkpt>
      <trkpt lat="44.84251" lon="6.95578">
        <ele>2332.4</ele>
      </trkpt>
      <trkpt lat="44.84253" lon="6.95579">
        <ele>2332.9</ele>
      </trkpt>
      <trkpt lat="44.84254" lon="6.95578">
        <ele>2332.9</ele>
      </trkpt>
      <trkpt lat="44.84259" lon="6.95579">
        <ele>2333.9</ele>
      </trkpt>
      <trkpt lat="44.8426" lon="6.95578">
        <ele>2333.9</ele>
      </trkpt>
      <trkpt lat="44.8426" lon="6.95579">
        <ele>2334.1</ele>
      </trkpt>
      <trkpt lat="44.84266" lon="6.95579">
        <ele>2335.1</ele>
      </trkpt>
      <trkpt lat="44.84269" lon="6.95577">
        <ele>2335.2</ele>
      </trkpt>
      <trkpt lat="44.8427" lon="6.95576">
        <ele>2335.2</ele>
      </trkpt>
      <trkpt lat="44.84275" lon="6.95575">
        <ele>2335.8</ele>
      </trkpt>
      <trkpt lat="44.84277" lon="6.95576">
        <ele>2336.3</ele>
      </trkpt>
      <trkpt lat="44.84279" lon="6.95577">
        <ele>2336.9</ele>
      </trkpt>
      <trkpt lat="44.84281" lon="6.95579">
        <ele>2337.7</ele>
      </trkpt>
      <trkpt lat="44.84285" lon="6.95581">
        <ele>2339</ele>
      </trkpt>
      <trkpt lat="44.84286" lon="6.95581">
        <ele>2339.2</ele>
      </trkpt>
      <trkpt lat="44.84288" lon="6.95582">
        <ele>2339.9</ele>
      </trkpt>
      <trkpt lat="44.84292" lon="6.95583">
        <ele>2341</ele>
      </trkpt>
      <trkpt lat="44.84297" lon="6.95585">
        <ele>2342.6</ele>
      </trkpt>
      <trkpt lat="44.84299" lon="6.95585">
        <ele>2343</ele>
      </trkpt>
      <trkpt lat="44.84304" lon="6.95585">
        <ele>2344.1</ele>
      </trkpt>
      <trkpt lat="44.84308" lon="6.95585">
        <ele>2345.1</ele>
      </trkpt>
      <trkpt lat="44.8431" lon="6.95585">
        <ele>2345.6</ele>
      </trkpt>
      <trkpt lat="44.84314" lon="6.95584">
        <ele>2346.3</ele>
      </trkpt>
      <trkpt lat="44.84316" lon="6.95584">
        <ele>2346.8</ele>
      </trkpt>
      <trkpt lat="44.84319" lon="6.95585">
        <ele>2347.8</ele>
      </trkpt>
      <trkpt lat="44.84319" lon="6.95585">
        <ele>2347.8</ele>
      </trkpt>
      <trkpt lat="44.8432" lon="6.95586">
        <ele>2348.4</ele>
      </trkpt>
      <trkpt lat="44.84322" lon="6.95586">
        <ele>2348.9</ele>
      </trkpt>
      <trkpt lat="44.84325" lon="6.95587">
        <ele>2349.9</ele>
      </trkpt>
      <trkpt lat="44.84329" lon="6.95585">
        <ele>2350.3</ele>
      </trkpt>
      <trkpt lat="44.84329" lon="6.95585">
        <ele>2350.3</ele>
      </trkpt>
      <trkpt lat="44.84332" lon="6.95581">
        <ele>2350.2</ele>
      </trkpt>
      <trkpt lat="44.84335" lon="6.95577">
        <ele>2350.2</ele>
      </trkpt>
      <trkpt lat="44.84336" lon="6.95577">
        <ele>2350.5</ele>
      </trkpt>
      <trkpt lat="44.8434" lon="6.95579">
        <ele>2352.3</ele>
      </trkpt>
      <trkpt lat="44.8434" lon="6.9558">
        <ele>2352.5</ele>
      </trkpt>
      <trkpt lat="44.8434" lon="6.95583">
        <ele>2353.1</ele>
      </trkpt>
      <trkpt lat="44.84342" lon="6.95589">
        <ele>2355.1</ele>
      </trkpt>
      <trkpt lat="44.84342" lon="6.9559">
        <ele>2355.3</ele>
      </trkpt>
      <trkpt lat="44.84343" lon="6.95594">
        <ele>2356.6</ele>
      </trkpt>
      <trkpt lat="44.84343" lon="6.95597">
        <ele>2357.2</ele>
      </trkpt>
      <trkpt lat="44.84346" lon="6.95598">
        <ele>2358.3</ele>
      </trkpt>
      <trkpt lat="44.84349" lon="6.95598">
        <ele>2359.2</ele>
      </trkpt>
      <trkpt lat="44.84354" lon="6.95598">
        <ele>2360.6</ele>
      </trkpt>
      <trkpt lat="44.84357" lon="6.95596">
        <ele>2361.1</ele>
      </trkpt>
      <trkpt lat="44.84359" lon="6.95595">
        <ele>2361.5</ele>
      </trkpt>
      <trkpt lat="44.84362" lon="6.95592">
        <ele>2361.9</ele>
      </trkpt>
      <trkpt lat="44.84363" lon="6.95591">
        <ele>2362.1</ele>
      </trkpt>
      <trkpt lat="44.84368" lon="6.95589">
        <ele>2363.7</ele>
      </trkpt>
      <trkpt lat="44.84368" lon="6.95591">
        <ele>2364.1</ele>
      </trkpt>
      <trkpt lat="44.8437" lon="6.95595">
        <ele>2365.6</ele>
      </trkpt>
      <trkpt lat="44.84371" lon="6.95596">
        <ele>2366.2</ele>
      </trkpt>
      <trkpt lat="44.84372" lon="6.95599">
        <ele>2367.1</ele>
      </trkpt>
      <trkpt lat="44.84373" lon="6.95603">
        <ele>2368.2</ele>
      </trkpt>
      <trkpt lat="44.84374" lon="6.95605">
        <ele>2369</ele>
      </trkpt>
      <trkpt lat="44.84375" lon="6.95605">
        <ele>2369.4</ele>
      </trkpt>
      <trkpt lat="44.84376" lon="6.95604">
        <ele>2369.6</ele>
      </trkpt>
      <trkpt lat="44.84379" lon="6.95601">
        <ele>2370.3</ele>
      </trkpt>
      <trkpt lat="44.84382" lon="6.95598">
        <ele>2370.9</ele>
      </trkpt>
      <trkpt lat="44.84384" lon="6.95597">
        <ele>2371.5</ele>
      </trkpt>
      <trkpt lat="44.84387" lon="6.95599">
        <ele>2373.1</ele>
      </trkpt>
      <trkpt lat="44.84387" lon="6.95602">
        <ele>2373.6</ele>
      </trkpt>
      <trkpt lat="44.84387" lon="6.95603">
        <ele>2373.8</ele>
      </trkpt>
      <trkpt lat="44.84386" lon="6.95608">
        <ele>2374.3</ele>
      </trkpt>
      <trkpt lat="44.84386" lon="6.95614">
        <ele>2375.4</ele>
      </trkpt>
      <trkpt lat="44.84384" lon="6.95619">
        <ele>2375.6</ele>
      </trkpt>
      <trkpt lat="44.84384" lon="6.95619">
        <ele>2375.6</ele>
      </trkpt>
      <trkpt lat="44.84384" lon="6.95621">
        <ele>2376</ele>
      </trkpt>
      <trkpt lat="44.84385" lon="6.9562">
        <ele>2376.1</ele>
      </trkpt>
      <trkpt lat="44.84387" lon="6.95617">
        <ele>2376.3</ele>
      </trkpt>
      <trkpt lat="44.84388" lon="6.95616">
        <ele>2376.5</ele>
      </trkpt>
      <trkpt lat="44.84393" lon="6.95614">
        <ele>2378.3</ele>
      </trkpt>
      <trkpt lat="44.84393" lon="6.95613">
        <ele>2378.1</ele>
      </trkpt>
      <trkpt lat="44.84398" lon="6.95612">
        <ele>2380.1</ele>
      </trkpt>
      <trkpt lat="44.84398" lon="6.95612">
        <ele>2380.1</ele>
      </trkpt>
      <trkpt lat="44.84401" lon="6.95613">
        <ele>2381.6</ele>
      </trkpt>
      <trkpt lat="44.84405" lon="6.95614">
        <ele>2383.5</ele>
      </trkpt>
      <trkpt lat="44.84406" lon="6.95614">
        <ele>2383.9</ele>
      </trkpt>
      <trkpt lat="44.84408" lon="6.95614">
        <ele>2384.8</ele>
      </trkpt>
      <trkpt lat="44.8441" lon="6.95614">
        <ele>2385.6</ele>
      </trkpt>
      <trkpt lat="44.84412" lon="6.95612">
        <ele>2386.1</ele>
      </trkpt>
      <trkpt lat="44.84415" lon="6.9561">
        <ele>2387.1</ele>
      </trkpt>
      <trkpt lat="44.84415" lon="6.9561">
        <ele>2387.1</ele>
      </trkpt>
      <trkpt lat="44.84416" lon="6.95614">
        <ele>2388.2</ele>
      </trkpt>
      <trkpt lat="44.84416" lon="6.95615">
        <ele>2388.4</ele>
      </trkpt>
      <trkpt lat="44.84415" lon="6.95619">
        <ele>2388.7</ele>
      </trkpt>
      <trkpt lat="44.84416" lon="6.95619">
        <ele>2389.1</ele>
      </trkpt>
      <trkpt lat="44.84416" lon="6.95622">
        <ele>2389.7</ele>
      </trkpt>
      <trkpt lat="44.84418" lon="6.95628">
        <ele>2391.7</ele>
      </trkpt>
      <trkpt lat="44.84418" lon="6.95631">
        <ele>2392.2</ele>
      </trkpt>
      <trkpt lat="44.84418" lon="6.95636">
        <ele>2393.1</ele>
      </trkpt>
      <trkpt lat="44.84419" lon="6.95641">
        <ele>2394.4</ele>
      </trkpt>
      <trkpt lat="44.84419" lon="6.95647">
        <ele>2395.5</ele>
      </trkpt>
      <trkpt lat="44.84419" lon="6.95648">
        <ele>2395.6</ele>
      </trkpt>
      <trkpt lat="44.84419" lon="6.95651">
        <ele>2396.2</ele>
      </trkpt>
      <trkpt lat="44.84419" lon="6.95654">
        <ele>2396.7</ele>
      </trkpt>
      <trkpt lat="44.84418" lon="6.9566">
        <ele>2397.4</ele>
      </trkpt>
      <trkpt lat="44.84418" lon="6.95662">
        <ele>2397.7</ele>
      </trkpt>
      <trkpt lat="44.84418" lon="6.95668">
        <ele>2398.8</ele>
      </trkpt>
      <trkpt lat="44.84418" lon="6.95672">
        <ele>2399.5</ele>
      </trkpt>
      <trkpt lat="44.84418" lon="6.95672">
        <ele>2399.5</ele>
      </trkpt>
      <trkpt lat="44.8442" lon="6.95675">
        <ele>2401</ele>
      </trkpt>
      <trkpt lat="44.84421" lon="6.95674">
        <ele>2401.2</ele>
      </trkpt>
      <trkpt lat="44.84422" lon="6.9567">
        <ele>2400.9</ele>
      </trkpt>
      <trkpt lat="44.84423" lon="6.95668">
        <ele>2401</ele>
      </trkpt>
      <trkpt lat="44.84425" lon="6.95666">
        <ele>2401.5</ele>
      </trkpt>
      <trkpt lat="44.8443" lon="6.95662">
        <ele>2402.9</ele>
      </trkpt>
      <trkpt lat="44.8443" lon="6.95662">
        <ele>2402.9</ele>
      </trkpt>
      <trkpt lat="44.84431" lon="6.95661">
        <ele>2403.2</ele>
      </trkpt>
      <trkpt lat="44.84434" lon="6.95658">
        <ele>2403.9</ele>
      </trkpt>
      <trkpt lat="44.84436" lon="6.95656">
        <ele>2404.4</ele>
      </trkpt>
      <trkpt lat="44.84436" lon="6.95655">
        <ele>2404.3</ele>
      </trkpt>
      <trkpt lat="44.84436" lon="6.95654">
        <ele>2404.1</ele>
      </trkpt>
      <trkpt lat="44.84436" lon="6.95654">
        <ele>2404.1</ele>
      </trkpt>
      <trkpt lat="44.84436" lon="6.95653">
        <ele>2403.9</ele>
      </trkpt>
      <trkpt lat="44.84437" lon="6.95654">
        <ele>2404.5</ele>
      </trkpt>
      <trkpt lat="44.84438" lon="6.95649">
        <ele>2404</ele>
      </trkpt>
      <trkpt lat="44.84442" lon="6.95649">
        <ele>2405.8</ele>
      </trkpt>
      <trkpt lat="44.84444" lon="6.95648">
        <ele>2406.4</ele>
      </trkpt>
      <trkpt lat="44.84446" lon="6.95646">
        <ele>2407</ele>
      </trkpt>
      <trkpt lat="44.84447" lon="6.95645">
        <ele>2407.3</ele>
      </trkpt>
      <trkpt lat="44.84448" lon="6.95644">
        <ele>2407.5</ele>
      </trkpt>
      <trkpt lat="44.8445" lon="6.95641">
        <ele>2407.9</ele>
      </trkpt>
      <trkpt lat="44.84452" lon="6.95639">
        <ele>2408.6</ele>
      </trkpt>
      <trkpt lat="44.84454" lon="6.95635">
        <ele>2409.1</ele>
      </trkpt>
      <trkpt lat="44.84456" lon="6.95634">
        <ele>2409.9</ele>
      </trkpt>
      <trkpt lat="44.84457" lon="6.95632">
        <ele>2410.1</ele>
      </trkpt>
      <trkpt lat="44.84461" lon="6.95628">
        <ele>2411.6</ele>
      </trkpt>
      <trkpt lat="44.84461" lon="6.95627">
        <ele>2411.5</ele>
      </trkpt>
      <trkpt lat="44.84462" lon="6.95625">
        <ele>2411.7</ele>
      </trkpt>
      <trkpt lat="44.84465" lon="6.95623">
        <ele>2412.9</ele>
      </trkpt>
      <trkpt lat="44.84468" lon="6.95621">
        <ele>2414.1</ele>
      </trkpt>
      <trkpt lat="44.84469" lon="6.9562">
        <ele>2414.5</ele>
      </trkpt>
      <trkpt lat="44.84473" lon="6.95616">
        <ele>2415.8</ele>
      </trkpt>
      <trkpt lat="44.84473" lon="6.95616">
        <ele>2415.8</ele>
      </trkpt>
      <trkpt lat="44.84479" lon="6.95613">
        <ele>2417.9</ele>
      </trkpt>
      <trkpt lat="44.8448" lon="6.95613">
        <ele>2418.3</ele>
      </trkpt>
      <trkpt lat="44.84482" lon="6.95612">
        <ele>2419</ele>
      </trkpt>
      <trkpt lat="44.84485" lon="6.9561">
        <ele>2419.9</ele>
      </trkpt>
      <trkpt lat="44.84487" lon="6.9561">
        <ele>2420.7</ele>
      </trkpt>
      <trkpt lat="44.84491" lon="6.9561">
        <ele>2422.3</ele>
      </trkpt>
      <trkpt lat="44.84491" lon="6.9561">
        <ele>2422.3</ele>
      </trkpt>
      <trkpt lat="44.84495" lon="6.95609">
        <ele>2423.7</ele>
      </trkpt>
      <trkpt lat="44.84499" lon="6.95609">
        <ele>2425.3</ele>
      </trkpt>
      <trkpt lat="44.84501" lon="6.95608">
        <ele>2426</ele>
      </trkpt>
      <trkpt lat="44.84503" lon="6.95606">
        <ele>2426.5</ele>
      </trkpt>
      <trkpt lat="44.84505" lon="6.95603">
        <ele>2426.9</ele>
      </trkpt>
      <trkpt lat="44.84505" lon="6.95603">
        <ele>2426.9</ele>
      </trkpt>
      <trkpt lat="44.84508" lon="6.956">
        <ele>2427.7</ele>
      </trkpt>
      <trkpt lat="44.8451" lon="6.95599">
        <ele>2428.4</ele>
      </trkpt>
      <trkpt lat="44.84511" lon="6.95599">
        <ele>2428.8</ele>
      </trkpt>
      <trkpt lat="44.84515" lon="6.95593">
        <ele>2429.7</ele>
      </trkpt>
      <trkpt lat="44.84516" lon="6.95592">
        <ele>2430</ele>
      </trkpt>
      <trkpt lat="44.84517" lon="6.9559">
        <ele>2430.2</ele>
      </trkpt>
      <trkpt lat="44.8452" lon="6.9559">
        <ele>2431.4</ele>
      </trkpt>
      <trkpt lat="44.84522" lon="6.95595">
        <ele>2432.9</ele>
      </trkpt>
      <trkpt lat="44.84522" lon="6.95598">
        <ele>2433.2</ele>
      </trkpt>
      <trkpt lat="44.84523" lon="6.95599">
        <ele>2433.7</ele>
      </trkpt>
      <trkpt lat="44.84524" lon="6.95605">
        <ele>2434.8</ele>
      </trkpt>
      <trkpt lat="44.84526" lon="6.95609">
        <ele>2436.1</ele>
      </trkpt>
      <trkpt lat="44.84527" lon="6.95613">
        <ele>2436.8</ele>
      </trkpt>
      <trkpt lat="44.84527" lon="6.95618">
        <ele>2437.2</ele>
      </trkpt>
      <trkpt lat="44.84528" lon="6.95619">
        <ele>2437.6</ele>
      </trkpt>
      <trkpt lat="44.84529" lon="6.95623">
        <ele>2438.3</ele>
      </trkpt>
      <trkpt lat="44.84531" lon="6.95629">
        <ele>2439.4</ele>
      </trkpt>
      <trkpt lat="44.84532" lon="6.9563">
        <ele>2439.9</ele>
      </trkpt>
      <trkpt lat="44.84533" lon="6.95633">
        <ele>2440.5</ele>
      </trkpt>
      <trkpt lat="44.84535" lon="6.95637">
        <ele>2441.5</ele>
      </trkpt>
      <trkpt lat="44.84538" lon="6.95637">
        <ele>2442.5</ele>
      </trkpt>
      <trkpt lat="44.8454" lon="6.95637">
        <ele>2443.3</ele>
      </trkpt>
      <trkpt lat="44.8454" lon="6.95637">
        <ele>2443.3</ele>
      </trkpt>
      <trkpt lat="44.84545" lon="6.9564">
        <ele>2445.3</ele>
      </trkpt>
      <trkpt lat="44.84545" lon="6.95641">
        <ele>2445.4</ele>
      </trkpt>
      <trkpt lat="44.84546" lon="6.95644">
        <ele>2446</ele>
      </trkpt>
      <trkpt lat="44.84547" lon="6.9565">
        <ele>2447</ele>
      </trkpt>
      <trkpt lat="44.84548" lon="6.95651">
        <ele>2447.5</ele>
      </trkpt>
      <trkpt lat="44.8455" lon="6.95656">
        <ele>2448.7</ele>
      </trkpt>
      <trkpt lat="44.84551" lon="6.95659">
        <ele>2449.4</ele>
      </trkpt>
      <trkpt lat="44.84551" lon="6.9566">
        <ele>2449.5</ele>
      </trkpt>
      <trkpt lat="44.84553" lon="6.95666">
        <ele>2450.9</ele>
      </trkpt>
      <trkpt lat="44.84555" lon="6.9567">
        <ele>2452</ele>
      </trkpt>
      <trkpt lat="44.84555" lon="6.95671">
        <ele>2452.1</ele>
      </trkpt>
      <trkpt lat="44.84557" lon="6.95674">
        <ele>2453.1</ele>
      </trkpt>
      <trkpt lat="44.84559" lon="6.95681">
        <ele>2454.5</ele>
      </trkpt>
      <trkpt lat="44.84561" lon="6.95686">
        <ele>2455.7</ele>
      </trkpt>
      <trkpt lat="44.84562" lon="6.95687">
        <ele>2456.2</ele>
      </trkpt>
      <trkpt lat="44.84565" lon="6.95685">
        <ele>2457.3</ele>
      </trkpt>
      <trkpt lat="44.84567" lon="6.95682">
        <ele>2457.9</ele>
      </trkpt>
      <trkpt lat="44.84568" lon="6.95681">
        <ele>2458.2</ele>
      </trkpt>
      <trkpt lat="44.84572" lon="6.95676">
        <ele>2459.4</ele>
      </trkpt>
      <trkpt lat="44.84573" lon="6.95675">
        <ele>2459.7</ele>
      </trkpt>
      <trkpt lat="44.84575" lon="6.95673">
        <ele>2460.3</ele>
      </trkpt>
      <trkpt lat="44.84579" lon="6.95668">
        <ele>2461.4</ele>
      </trkpt>
      <trkpt lat="44.84581" lon="6.95663">
        <ele>2461.9</ele>
      </trkpt>
      <trkpt lat="44.84581" lon="6.95662">
        <ele>2461.9</ele>
      </trkpt>
      <trkpt lat="44.84584" lon="6.95664">
        <ele>2463.3</ele>
      </trkpt>
      <trkpt lat="44.84584" lon="6.95665">
        <ele>2463.3</ele>
      </trkpt>
      <trkpt lat="44.84587" lon="6.95672">
        <ele>2465.6</ele>
      </trkpt>
      <trkpt lat="44.84588" lon="6.95678">
        <ele>2466.8</ele>
      </trkpt>
      <trkpt lat="44.84588" lon="6.9568">
        <ele>2467</ele>
      </trkpt>
      <trkpt lat="44.84588" lon="6.95684">
        <ele>2467.4</ele>
      </trkpt>
      <trkpt lat="44.84589" lon="6.95691">
        <ele>2468.5</ele>
      </trkpt>
      <trkpt lat="44.84589" lon="6.95693">
        <ele>2468.7</ele>
      </trkpt>
      <trkpt lat="44.84591" lon="6.95701">
        <ele>2470.4</ele>
      </trkpt>
      <trkpt lat="44.84591" lon="6.95704">
        <ele>2470.7</ele>
      </trkpt>
      <trkpt lat="44.84592" lon="6.95708">
        <ele>2471.5</ele>
      </trkpt>
      <trkpt lat="44.84592" lon="6.95712">
        <ele>2471.9</ele>
      </trkpt>
      <trkpt lat="44.84592" lon="6.95713">
        <ele>2472</ele>
      </trkpt>
      <trkpt lat="44.84592" lon="6.95717">
        <ele>2472.3</ele>
      </trkpt>
      <trkpt lat="44.84592" lon="6.95719">
        <ele>2472.5</ele>
      </trkpt>
      <trkpt lat="44.84593" lon="6.95723">
        <ele>2473.3</ele>
      </trkpt>
      <trkpt lat="44.84594" lon="6.95725">
        <ele>2474</ele>
      </trkpt>
      <trkpt lat="44.84595" lon="6.95734">
        <ele>2475.7</ele>
      </trkpt>
      <trkpt lat="44.84597" lon="6.9574">
        <ele>2477.5</ele>
      </trkpt>
      <trkpt lat="44.84597" lon="6.95744">
        <ele>2478</ele>
      </trkpt>
      <trkpt lat="44.84598" lon="6.95744">
        <ele>2478.5</ele>
      </trkpt>
      <trkpt lat="44.84601" lon="6.95741">
        <ele>2479.3</ele>
      </trkpt>
      <trkpt lat="44.84602" lon="6.95741">
        <ele>2479.8</ele>
      </trkpt>
      <trkpt lat="44.84605" lon="6.95737">
        <ele>2480.5</ele>
      </trkpt>
      <trkpt lat="44.84605" lon="6.95737">
        <ele>2480.5</ele>
      </trkpt>
      <trkpt lat="44.84603" lon="6.95738">
        <ele>2479.8</ele>
      </trkpt>
      <trkpt lat="44.84604" lon="6.95737">
        <ele>2480.1</ele>
      </trkpt>
      <trkpt lat="44.84604" lon="6.95737">
        <ele>2480.1</ele>
      </trkpt>
      <trkpt lat="44.84604" lon="6.95735">
        <ele>2479.8</ele>
      </trkpt>
      <trkpt lat="44.84605" lon="6.95735">
        <ele>2480.2</ele>
      </trkpt>
      <trkpt lat="44.84607" lon="6.95737">
        <ele>2481.4</ele>
      </trkpt>
      <trkpt lat="44.84607" lon="6.95736">
        <ele>2481.2</ele>
      </trkpt>
      <trkpt lat="44.84606" lon="6.95737">
        <ele>2480.9</ele>
      </trkpt>
      <trkpt lat="44.84608" lon="6.95736">
        <ele>2481.6</ele>
      </trkpt>
      <trkpt lat="44.84608" lon="6.95735">
        <ele>2481.5</ele>
      </trkpt>
      <trkpt lat="44.84608" lon="6.95735">
        <ele>2481.5</ele>
      </trkpt>
      <trkpt lat="44.84607" lon="6.95738">
        <ele>2481.5</ele>
      </trkpt>
      <trkpt lat="44.84608" lon="6.95737">
        <ele>2481.8</ele>
      </trkpt>
      <trkpt lat="44.84608" lon="6.95737">
        <ele>2481.8</ele>
      </trkpt>
      <trkpt lat="44.84608" lon="6.95737">
        <ele>2481.8</ele>
      </trkpt>
      <trkpt lat="44.84608" lon="6.95737">
        <ele>2481.8</ele>
      </trkpt>
      <trkpt lat="44.84608" lon="6.95737">
        <ele>2481.8</ele>
      </trkpt>
      <trkpt lat="44.84607" lon="6.95737">
        <ele>2481.4</ele>
      </trkpt>
      <trkpt lat="44.84607" lon="6.95737">
        <ele>2481.4</ele>
      </trkpt>
      <trkpt lat="44.84608" lon="6.95737">
        <ele>2481.8</ele>
      </trkpt>
      <trkpt lat="44.84608" lon="6.95737">
        <ele>2481.8</ele>
      </trkpt>
      <trkpt lat="44.84608" lon="6.95737">
        <ele>2481.8</ele>
      </trkpt>
      <trkpt lat="44.84608" lon="6.95737">
        <ele>2481.8</ele>
      </trkpt>
      <trkpt lat="44.84608" lon="6.95737">
        <ele>2481.8</ele>
      </trkpt>
      <trkpt lat="44.84607" lon="6.95737">
        <ele>2481.4</ele>
      </trkpt>
      <trkpt lat="44.84607" lon="6.95736">
        <ele>2481.2</ele>
      </trkpt>
      <trkpt lat="44.84605" lon="6.95734">
        <ele>2480.1</ele>
      </trkpt>
      <trkpt lat="44.84606" lon="6.95734">
        <ele>2480.5</ele>
      </trkpt>
      <trkpt lat="44.84606" lon="6.95734">
        <ele>2480.5</ele>
      </trkpt>
      <trkpt lat="44.84605" lon="6.95735">
        <ele>2480.2</ele>
      </trkpt>
      <trkpt lat="44.84605" lon="6.95735">
        <ele>2480.2</ele>
      </trkpt>
      <trkpt lat="44.84606" lon="6.95739">
        <ele>2481.2</ele>
      </trkpt>
      <trkpt lat="44.84606" lon="6.95742">
        <ele>2481.6</ele>
      </trkpt>
      <trkpt lat="44.84607" lon="6.95748">
        <ele>2482.9</ele>
      </trkpt>
      <trkpt lat="44.84608" lon="6.95754">
        <ele>2484.4</ele>
      </trkpt>
      <trkpt lat="44.84608" lon="6.95755">
        <ele>2484.6</ele>
      </trkpt>
      <trkpt lat="44.84608" lon="6.95763">
        <ele>2486</ele>
      </trkpt>
      <trkpt lat="44.84609" lon="6.95767">
        <ele>2487.1</ele>
      </trkpt>
      <trkpt lat="44.8461" lon="6.95775">
        <ele>2489</ele>
      </trkpt>
      <trkpt lat="44.84609" lon="6.95781">
        <ele>2489.8</ele>
      </trkpt>
      <trkpt lat="44.84609" lon="6.95782">
        <ele>2490</ele>
      </trkpt>
      <trkpt lat="44.84608" lon="6.95787">
        <ele>2490.7</ele>
      </trkpt>
      <trkpt lat="44.84608" lon="6.95795">
        <ele>2492.4</ele>
      </trkpt>
      <trkpt lat="44.84607" lon="6.95797">
        <ele>2492.5</ele>
      </trkpt>
      <trkpt lat="44.84607" lon="6.95804">
        <ele>2494</ele>
      </trkpt>
      <trkpt lat="44.84607" lon="6.95809">
        <ele>2495.4</ele>
      </trkpt>
      <trkpt lat="44.84607" lon="6.9581">
        <ele>2495.7</ele>
      </trkpt>
      <trkpt lat="44.84606" lon="6.95816">
        <ele>2497.2</ele>
      </trkpt>
      <trkpt lat="44.84605" lon="6.95822">
        <ele>2498.5</ele>
      </trkpt>
      <trkpt lat="44.84605" lon="6.95823">
        <ele>2498.8</ele>
      </trkpt>
      <trkpt lat="44.84604" lon="6.95825">
        <ele>2498.9</ele>
      </trkpt>
      <trkpt lat="44.84609" lon="6.95822">
        <ele>2500.4</ele>
      </trkpt>
      <trkpt lat="44.84609" lon="6.95822">
        <ele>2500.4</ele>
      </trkpt>
      <trkpt lat="44.84612" lon="6.9582">
        <ele>2501</ele>
      </trkpt>
      <trkpt lat="44.84617" lon="6.95819">
        <ele>2502.7</ele>
      </trkpt>
      <trkpt lat="44.84617" lon="6.95818">
        <ele>2502.4</ele>
      </trkpt>
      <trkpt lat="44.84621" lon="6.95817">
        <ele>2503.6</ele>
      </trkpt>
      <trkpt lat="44.84624" lon="6.95816">
        <ele>2504.5</ele>
      </trkpt>
      <trkpt lat="44.84625" lon="6.95816">
        <ele>2504.9</ele>
      </trkpt>
      <trkpt lat="44.84629" lon="6.95815">
        <ele>2506.1</ele>
      </trkpt>
      <trkpt lat="44.84632" lon="6.95812">
        <ele>2506.4</ele>
      </trkpt>
      <trkpt lat="44.84633" lon="6.95811">
        <ele>2506.4</ele>
      </trkpt>
      <trkpt lat="44.84635" lon="6.9581">
        <ele>2506.9</ele>
      </trkpt>
      <trkpt lat="44.84636" lon="6.95809">
        <ele>2507</ele>
      </trkpt>
      <trkpt lat="44.84638" lon="6.95808">
        <ele>2507.4</ele>
      </trkpt>
      <trkpt lat="44.8464" lon="6.95808">
        <ele>2508.3</ele>
      </trkpt>
      <trkpt lat="44.84642" lon="6.95807">
        <ele>2508.9</ele>
      </trkpt>
      <trkpt lat="44.84644" lon="6.95805">
        <ele>2509.3</ele>
      </trkpt>
      <trkpt lat="44.84647" lon="6.95803">
        <ele>2510.3</ele>
      </trkpt>
      <trkpt lat="44.84652" lon="6.95799">
        <ele>2511.8</ele>
      </trkpt>
      <trkpt lat="44.84654" lon="6.95797">
        <ele>2512.4</ele>
      </trkpt>
      <trkpt lat="44.84658" lon="6.95795">
        <ele>2513.9</ele>
      </trkpt>
      <trkpt lat="44.84659" lon="6.95794">
        <ele>2514.2</ele>
      </trkpt>
      <trkpt lat="44.8466" lon="6.95795">
        <ele>2514.9</ele>
      </trkpt>
      <trkpt lat="44.8466" lon="6.95799">
        <ele>2515.6</ele>
      </trkpt>
      <trkpt lat="44.84659" lon="6.95804">
        <ele>2516.1</ele>
      </trkpt>
      <trkpt lat="44.84659" lon="6.9581">
        <ele>2517.6</ele>
      </trkpt>
      <trkpt lat="44.84659" lon="6.95813">
        <ele>2518.4</ele>
      </trkpt>
      <trkpt lat="44.84658" lon="6.95818">
        <ele>2519.4</ele>
      </trkpt>
      <trkpt lat="44.84658" lon="6.95822">
        <ele>2520.5</ele>
      </trkpt>
      <trkpt lat="44.84658" lon="6.95823">
        <ele>2520.7</ele>
      </trkpt>
      <trkpt lat="44.84657" lon="6.95826">
        <ele>2521.1</ele>
      </trkpt>
      <trkpt lat="44.84657" lon="6.95829">
        <ele>2522</ele>
      </trkpt>
      <trkpt lat="44.84658" lon="6.95828">
        <ele>2522.1</ele>
      </trkpt>
      <trkpt lat="44.84664" lon="6.95823">
        <ele>2523.3</ele>
      </trkpt>
      <trkpt lat="44.84666" lon="6.95821">
        <ele>2523.6</ele>
      </trkpt>
      <trkpt lat="44.84668" lon="6.95819">
        <ele>2524.4</ele>
      </trkpt>
      <trkpt lat="44.8467" lon="6.95816">
        <ele>2525.1</ele>
      </trkpt>
      <trkpt lat="44.84673" lon="6.95813">
        <ele>2526.6</ele>
      </trkpt>
      <trkpt lat="44.84673" lon="6.95813">
        <ele>2526.6</ele>
      </trkpt>
      <trkpt lat="44.84673" lon="6.95819">
        <ele>2528</ele>
      </trkpt>
      <trkpt lat="44.84673" lon="6.95821">
        <ele>2528.4</ele>
      </trkpt>
      <trkpt lat="44.84673" lon="6.95823">
        <ele>2528.8</ele>
      </trkpt>
      <trkpt lat="44.84673" lon="6.95829">
        <ele>2530.2</ele>
      </trkpt>
      <trkpt lat="44.84673" lon="6.95835">
        <ele>2531.5</ele>
      </trkpt>
      <trkpt lat="44.84672" lon="6.95842">
        <ele>2532.8</ele>
      </trkpt>
      <trkpt lat="44.84672" lon="6.95847">
        <ele>2534.1</ele>
      </trkpt>
      <trkpt lat="44.84672" lon="6.95848">
        <ele>2534.4</ele>
      </trkpt>
      <trkpt lat="44.84671" lon="6.95853">
        <ele>2535.1</ele>
      </trkpt>
      <trkpt lat="44.84669" lon="6.95859">
        <ele>2535.7</ele>
      </trkpt>
      <trkpt lat="44.84669" lon="6.95861">
        <ele>2536.2</ele>
      </trkpt>
      <trkpt lat="44.84668" lon="6.95864">
        <ele>2536.4</ele>
      </trkpt>
      <trkpt lat="44.84666" lon="6.95868">
        <ele>2536.5</ele>
      </trkpt>
      <trkpt lat="44.84666" lon="6.95871">
        <ele>2537.2</ele>
      </trkpt>
      <trkpt lat="44.84665" lon="6.95872">
        <ele>2537</ele>
      </trkpt>
      <trkpt lat="44.84665" lon="6.95877">
        <ele>2538.2</ele>
      </trkpt>
      <trkpt lat="44.84666" lon="6.95881">
        <ele>2539.7</ele>
      </trkpt>
      <trkpt lat="44.84665" lon="6.95885">
        <ele>2540.2</ele>
      </trkpt>
      <trkpt lat="44.84665" lon="6.95891">
        <ele>2541.6</ele>
      </trkpt>
      <trkpt lat="44.84664" lon="6.95893">
        <ele>2541.5</ele>
      </trkpt>
      <trkpt lat="44.84664" lon="6.95897">
        <ele>2542.4</ele>
      </trkpt>
      <trkpt lat="44.84664" lon="6.95903">
        <ele>2543.7</ele>
      </trkpt>
      <trkpt lat="44.84664" lon="6.95907">
        <ele>2544.6</ele>
      </trkpt>
      <trkpt lat="44.84664" lon="6.95906">
        <ele>2544.4</ele>
      </trkpt>
      <trkpt lat="44.84665" lon="6.95906">
        <ele>2544.9</ele>
      </trkpt>
      <trkpt lat="44.84664" lon="6.95911">
        <ele>2545.4</ele>
      </trkpt>
      <trkpt lat="44.84664" lon="6.95912">
        <ele>2545.6</ele>
      </trkpt>
      <trkpt lat="44.84664" lon="6.95917">
        <ele>2546.8</ele>
      </trkpt>
      <trkpt lat="44.84663" lon="6.9592">
        <ele>2547.1</ele>
      </trkpt>
      <trkpt lat="44.84663" lon="6.95923">
        <ele>2547.9</ele>
      </trkpt>
      <trkpt lat="44.84662" lon="6.95925">
        <ele>2548</ele>
      </trkpt>
      <trkpt lat="44.84662" lon="6.95928">
        <ele>2548.8</ele>
      </trkpt>
      <trkpt lat="44.84662" lon="6.95933">
        <ele>2550.3</ele>
      </trkpt>
      <trkpt lat="44.84661" lon="6.95936">
        <ele>2550.6</ele>
      </trkpt>
      <trkpt lat="44.8466" lon="6.95941">
        <ele>2551.4</ele>
      </trkpt>
      <trkpt lat="44.8466" lon="6.95941">
        <ele>2551.4</ele>
      </trkpt>
      <trkpt lat="44.84661" lon="6.9594">
        <ele>2551.7</ele>
      </trkpt>
      <trkpt lat="44.84663" lon="6.95938">
        <ele>2552.2</ele>
      </trkpt>
      <trkpt lat="44.84665" lon="6.95936">
        <ele>2552.7</ele>
      </trkpt>
      <trkpt lat="44.84667" lon="6.95935">
        <ele>2553.5</ele>
      </trkpt>
      <trkpt lat="44.84671" lon="6.95931">
        <ele>2554.7</ele>
      </trkpt>
      <trkpt lat="44.84674" lon="6.95928">
        <ele>2555.6</ele>
      </trkpt>
      <trkpt lat="44.84676" lon="6.95926">
        <ele>2556.2</ele>
      </trkpt>
      <trkpt lat="44.8468" lon="6.95923">
        <ele>2557.6</ele>
      </trkpt>
      <trkpt lat="44.84682" lon="6.95921">
        <ele>2558.2</ele>
      </trkpt>
      <trkpt lat="44.84683" lon="6.9592">
        <ele>2558.4</ele>
      </trkpt>
      <trkpt lat="44.84685" lon="6.95918">
        <ele>2559</ele>
      </trkpt>
      <trkpt lat="44.84688" lon="6.95914">
        <ele>2559.6</ele>
      </trkpt>
      <trkpt lat="44.8469" lon="6.95912">
        <ele>2560.1</ele>
      </trkpt>
      <trkpt lat="44.84692" lon="6.9591">
        <ele>2560.7</ele>
      </trkpt>
      <trkpt lat="44.84693" lon="6.9591">
        <ele>2561.3</ele>
      </trkpt>
      <trkpt lat="44.84694" lon="6.9591">
        <ele>2561.8</ele>
      </trkpt>
      <trkpt lat="44.84694" lon="6.95913">
        <ele>2562.7</ele>
      </trkpt>
      <trkpt lat="44.84693" lon="6.9592">
        <ele>2564.2</ele>
      </trkpt>
      <trkpt lat="44.84693" lon="6.95923">
        <ele>2565.2</ele>
      </trkpt>
      <trkpt lat="44.84693" lon="6.95924">
        <ele>2565.5</ele>
      </trkpt>
      <trkpt lat="44.84693" lon="6.95927">
        <ele>2566.5</ele>
      </trkpt>
      <trkpt lat="44.84693" lon="6.95927">
        <ele>2566.5</ele>
      </trkpt>
      <trkpt lat="44.84691" lon="6.9594">
        <ele>2569.5</ele>
      </trkpt>
      <trkpt lat="44.84691" lon="6.95941">
        <ele>2569.8</ele>
      </trkpt>
      <trkpt lat="44.8469" lon="6.95945">
        <ele>2570.4</ele>
      </trkpt>
      <trkpt lat="44.84688" lon="6.95951">
        <ele>2570.8</ele>
      </trkpt>
      <trkpt lat="44.84688" lon="6.95954">
        <ele>2571.6</ele>
      </trkpt>
      <trkpt lat="44.84688" lon="6.95958">
        <ele>2572.7</ele>
      </trkpt>
      <trkpt lat="44.84687" lon="6.95963">
        <ele>2573.5</ele>
      </trkpt>
      <trkpt lat="44.84687" lon="6.95964">
        <ele>2573.7</ele>
      </trkpt>
      <trkpt lat="44.84686" lon="6.95969">
        <ele>2574.6</ele>
      </trkpt>
      <trkpt lat="44.84685" lon="6.95972">
        <ele>2574.8</ele>
      </trkpt>
      <trkpt lat="44.84685" lon="6.95975">
        <ele>2575.8</ele>
      </trkpt>
      <trkpt lat="44.84685" lon="6.95979">
        <ele>2577.2</ele>
      </trkpt>
      <trkpt lat="44.84685" lon="6.95983">
        <ele>2578.5</ele>
      </trkpt>
      <trkpt lat="44.84685" lon="6.95985">
        <ele>2579.2</ele>
      </trkpt>
      <trkpt lat="44.84684" lon="6.95987">
        <ele>2579.3</ele>
      </trkpt>
      <trkpt lat="44.84684" lon="6.95987">
        <ele>2579.3</ele>
      </trkpt>
      <trkpt lat="44.84682" lon="6.95993">
        <ele>2580.3</ele>
      </trkpt>
      <trkpt lat="44.84681" lon="6.95995">
        <ele>2580.5</ele>
      </trkpt>
      <trkpt lat="44.8468" lon="6.96">
        <ele>2581.7</ele>
      </trkpt>
      <trkpt lat="44.8468" lon="6.96001">
        <ele>2582.1</ele>
      </trkpt>
      <trkpt lat="44.84682" lon="6.96">
        <ele>2582.7</ele>
      </trkpt>
      <trkpt lat="44.84683" lon="6.96">
        <ele>2583.2</ele>
      </trkpt>
      <trkpt lat="44.84688" lon="6.95999">
        <ele>2585.4</ele>
      </trkpt>
      <trkpt lat="44.8469" lon="6.95999">
        <ele>2586.4</ele>
      </trkpt>
      <trkpt lat="44.84692" lon="6.95998">
        <ele>2587.1</ele>
      </trkpt>
      <trkpt lat="44.84695" lon="6.95997">
        <ele>2588.3</ele>
      </trkpt>
      <trkpt lat="44.84696" lon="6.95996">
        <ele>2588.5</ele>
      </trkpt>
      <trkpt lat="44.84698" lon="6.95994">
        <ele>2588.8</ele>
      </trkpt>
      <trkpt lat="44.84701" lon="6.95991">
        <ele>2589.4</ele>
      </trkpt>
      <trkpt lat="44.84702" lon="6.9599">
        <ele>2589.6</ele>
      </trkpt>
      <trkpt lat="44.84707" lon="6.95986">
        <ele>2590.8</ele>
      </trkpt>
      <trkpt lat="44.84711" lon="6.95982">
        <ele>2591.5</ele>
      </trkpt>
      <trkpt lat="44.84715" lon="6.95978">
        <ele>2592.2</ele>
      </trkpt>
      <trkpt lat="44.84715" lon="6.95977">
        <ele>2591.9</ele>
      </trkpt>
      <trkpt lat="44.84718" lon="6.95974">
        <ele>2592.4</ele>
      </trkpt>
      <trkpt lat="44.84719" lon="6.95974">
        <ele>2593</ele>
      </trkpt>
      <trkpt lat="44.8472" lon="6.95971">
        <ele>2592.7</ele>
      </trkpt>
      <trkpt lat="44.84721" lon="6.95971">
        <ele>2593.2</ele>
      </trkpt>
      <trkpt lat="44.84721" lon="6.95976">
        <ele>2594.6</ele>
      </trkpt>
      <trkpt lat="44.84721" lon="6.95977">
        <ele>2594.9</ele>
      </trkpt>
      <trkpt lat="44.84721" lon="6.95979">
        <ele>2595.6</ele>
      </trkpt>
      <trkpt lat="44.84721" lon="6.95983">
        <ele>2596.9</ele>
      </trkpt>
      <trkpt lat="44.84719" lon="6.9599">
        <ele>2598.1</ele>
      </trkpt>
      <trkpt lat="44.84719" lon="6.95992">
        <ele>2598.8</ele>
      </trkpt>
      <trkpt lat="44.84718" lon="6.95997">
        <ele>2599.9</ele>
      </trkpt>
      <trkpt lat="44.84717" lon="6.96002">
        <ele>2601</ele>
      </trkpt>
      <trkpt lat="44.84716" lon="6.96004">
        <ele>2601.2</ele>
      </trkpt>
      <trkpt lat="44.84715" lon="6.96007">
        <ele>2601.7</ele>
      </trkpt>
      <trkpt lat="44.84714" lon="6.96013">
        <ele>2603.2</ele>
      </trkpt>
      <trkpt lat="44.84713" lon="6.96016">
        <ele>2603.7</ele>
      </trkpt>
      <trkpt lat="44.84713" lon="6.96017">
        <ele>2604.1</ele>
      </trkpt>
      <trkpt lat="44.84711" lon="6.96024">
        <ele>2605.5</ele>
      </trkpt>
      <trkpt lat="44.84711" lon="6.96028">
        <ele>2606.8</ele>
      </trkpt>
      <trkpt lat="44.84711" lon="6.96029">
        <ele>2607.2</ele>
      </trkpt>
      <trkpt lat="44.84711" lon="6.96029">
        <ele>2607.2</ele>
      </trkpt>
      <trkpt lat="44.84711" lon="6.96028">
        <ele>2606.8</ele>
      </trkpt>
      <trkpt lat="44.8471" lon="6.96034">
        <ele>2608.5</ele>
      </trkpt>
      <trkpt lat="44.84709" lon="6.96038">
        <ele>2609.5</ele>
      </trkpt>
      <trkpt lat="44.84708" lon="6.96043">
        <ele>2610.8</ele>
      </trkpt>
      <trkpt lat="44.84706" lon="6.96047">
        <ele>2611.4</ele>
      </trkpt>
      <trkpt lat="44.84705" lon="6.96051">
        <ele>2612.5</ele>
      </trkpt>
      <trkpt lat="44.84704" lon="6.96053">
        <ele>2612.8</ele>
      </trkpt>
      <trkpt lat="44.84701" lon="6.96058">
        <ele>2613.5</ele>
      </trkpt>
      <trkpt lat="44.84699" lon="6.96062">
        <ele>2614.2</ele>
      </trkpt>
      <trkpt lat="44.84696" lon="6.96067">
        <ele>2614.8</ele>
      </trkpt>
      <trkpt lat="44.84696" lon="6.96068">
        <ele>2615.1</ele>
      </trkpt>
      <trkpt lat="44.84694" lon="6.96073">
        <ele>2616.1</ele>
      </trkpt>
      <trkpt lat="44.84692" lon="6.96077">
        <ele>2616.8</ele>
      </trkpt>
      <trkpt lat="44.8469" lon="6.96079">
        <ele>2616.8</ele>
      </trkpt>
      <trkpt lat="44.8469" lon="6.9608">
        <ele>2617.2</ele>
      </trkpt>
      <trkpt lat="44.84689" lon="6.96081">
        <ele>2617.2</ele>
      </trkpt>
      <trkpt lat="44.84689" lon="6.96083">
        <ele>2617.9</ele>
      </trkpt>
      <trkpt lat="44.84687" lon="6.96086">
        <ele>2618.2</ele>
      </trkpt>
      <trkpt lat="44.84685" lon="6.96092">
        <ele>2619.4</ele>
      </trkpt>
      <trkpt lat="44.84683" lon="6.96098">
        <ele>2620.6</ele>
      </trkpt>
      <trkpt lat="44.84681" lon="6.96102">
        <ele>2621.2</ele>
      </trkpt>
      <trkpt lat="44.8468" lon="6.96103">
        <ele>2621.2</ele>
      </trkpt>
      <trkpt lat="44.84678" lon="6.9611">
        <ele>2622.7</ele>
      </trkpt>
      <trkpt lat="44.84678" lon="6.96111">
        <ele>2623</ele>
      </trkpt>
      <trkpt lat="44.84679" lon="6.96109">
        <ele>2622.8</ele>
      </trkpt>
      <trkpt lat="44.84678" lon="6.96115">
        <ele>2624.1</ele>
      </trkpt>
      <trkpt lat="44.84678" lon="6.96121">
        <ele>2625.7</ele>
      </trkpt>
      <trkpt lat="44.84676" lon="6.96129">
        <ele>2627.1</ele>
      </trkpt>
      <trkpt lat="44.84675" lon="6.96131">
        <ele>2627.2</ele>
      </trkpt>
      <trkpt lat="44.84675" lon="6.96135">
        <ele>2628.3</ele>
      </trkpt>
      <trkpt lat="44.84675" lon="6.9614">
        <ele>2629.6</ele>
      </trkpt>
      <trkpt lat="44.84674" lon="6.96142">
        <ele>2629.6</ele>
      </trkpt>
      <trkpt lat="44.84673" lon="6.96148">
        <ele>2630.6</ele>
      </trkpt>
      <trkpt lat="44.84673" lon="6.96153">
        <ele>2631.7</ele>
      </trkpt>
      <trkpt lat="44.84672" lon="6.96155">
        <ele>2631.7</ele>
      </trkpt>
      <trkpt lat="44.84671" lon="6.96161">
        <ele>2632.6</ele>
      </trkpt>
      <trkpt lat="44.8467" lon="6.96166">
        <ele>2633.3</ele>
      </trkpt>
      <trkpt lat="44.84669" lon="6.96167">
        <ele>2633.1</ele>
      </trkpt>
      <trkpt lat="44.84667" lon="6.96175">
        <ele>2634.2</ele>
      </trkpt>
      <trkpt lat="44.84666" lon="6.96179">
        <ele>2634.8</ele>
      </trkpt>
      <trkpt lat="44.84666" lon="6.96181">
        <ele>2635.3</ele>
      </trkpt>
      <trkpt lat="44.84665" lon="6.96185">
        <ele>2635.9</ele>
      </trkpt>
      <trkpt lat="44.84662" lon="6.96192">
        <ele>2636.5</ele>
      </trkpt>
      <trkpt lat="44.84662" lon="6.96196">
        <ele>2637.6</ele>
      </trkpt>
      <trkpt lat="44.84662" lon="6.96197">
        <ele>2637.9</ele>
      </trkpt>
      <trkpt lat="44.8466" lon="6.96202">
        <ele>2638.7</ele>
      </trkpt>
      <trkpt lat="44.8466" lon="6.96203">
        <ele>2639</ele>
      </trkpt>
      <trkpt lat="44.84658" lon="6.96208">
        <ele>2639.9</ele>
      </trkpt>
      <trkpt lat="44.84658" lon="6.96209">
        <ele>2640.3</ele>
      </trkpt>
      <trkpt lat="44.84658" lon="6.96211">
        <ele>2640.9</ele>
      </trkpt>
      <trkpt lat="44.84658" lon="6.96217">
        <ele>2642.8</ele>
      </trkpt>
      <trkpt lat="44.84657" lon="6.96222">
        <ele>2644.1</ele>
      </trkpt>
      <trkpt lat="44.84657" lon="6.96224">
        <ele>2644.8</ele>
      </trkpt>
      <trkpt lat="44.84655" lon="6.96229">
        <ele>2645.9</ele>
      </trkpt>
      <trkpt lat="44.84653" lon="6.96233">
        <ele>2646.7</ele>
      </trkpt>
      <trkpt lat="44.84653" lon="6.96234">
        <ele>2647.1</ele>
      </trkpt>
      <trkpt lat="44.8465" lon="6.96239">
        <ele>2648</ele>
      </trkpt>
      <trkpt lat="44.84648" lon="6.96244">
        <ele>2649.2</ele>
      </trkpt>
      <trkpt lat="44.84647" lon="6.96245">
        <ele>2649.3</ele>
      </trkpt>
      <trkpt lat="44.84645" lon="6.96251">
        <ele>2650.9</ele>
      </trkpt>
      <trkpt lat="44.84642" lon="6.96256">
        <ele>2651.7</ele>
      </trkpt>
      <trkpt lat="44.84642" lon="6.96256">
        <ele>2651.7</ele>
      </trkpt>
      <trkpt lat="44.84641" lon="6.96259">
        <ele>2652.4</ele>
      </trkpt>
      <trkpt lat="44.84638" lon="6.96264">
        <ele>2653.4</ele>
      </trkpt>
      <trkpt lat="44.84638" lon="6.96264">
        <ele>2653.4</ele>
      </trkpt>
      <trkpt lat="44.84636" lon="6.96269">
        <ele>2654.6</ele>
      </trkpt>
      <trkpt lat="44.84634" lon="6.96272">
        <ele>2655.2</ele>
      </trkpt>
      <trkpt lat="44.84634" lon="6.96274">
        <ele>2655.9</ele>
      </trkpt>
      <trkpt lat="44.84634" lon="6.96275">
        <ele>2656.2</ele>
      </trkpt>
      <trkpt lat="44.84632" lon="6.96275">
        <ele>2655.9</ele>
      </trkpt>
      <trkpt lat="44.84631" lon="6.96275">
        <ele>2655.7</ele>
      </trkpt>
      <trkpt lat="44.8463" lon="6.96277">
        <ele>2656.1</ele>
      </trkpt>
      <trkpt lat="44.84631" lon="6.96278">
        <ele>2656.6</ele>
      </trkpt>
      <trkpt lat="44.84631" lon="6.96278">
        <ele>2656.6</ele>
      </trkpt>
      <trkpt lat="44.84631" lon="6.96277">
        <ele>2656.3</ele>
      </trkpt>
      <trkpt lat="44.8463" lon="6.96276">
        <ele>2655.8</ele>
      </trkpt>
      <trkpt lat="44.8463" lon="6.96276">
        <ele>2655.8</ele>
      </trkpt>
      <trkpt lat="44.84629" lon="6.96277">
        <ele>2656</ele>
      </trkpt>
      <trkpt lat="44.8463" lon="6.96277">
        <ele>2656.1</ele>
      </trkpt>
      <trkpt lat="44.84631" lon="6.96277">
        <ele>2656.3</ele>
      </trkpt>
      <trkpt lat="44.8463" lon="6.96278">
        <ele>2656.4</ele>
      </trkpt>
      <trkpt lat="44.84635" lon="6.96279">
        <ele>2657.6</ele>
      </trkpt>
      <trkpt lat="44.84641" lon="6.96281">
        <ele>2659.1</ele>
      </trkpt>
      <trkpt lat="44.84641" lon="6.96282">
        <ele>2659.4</ele>
      </trkpt>
      <trkpt lat="44.84646" lon="6.96285">
        <ele>2661</ele>
      </trkpt>
      <trkpt lat="44.84647" lon="6.96285">
        <ele>2661.2</ele>
      </trkpt>
      <trkpt lat="44.84651" lon="6.96286">
        <ele>2662.3</ele>
      </trkpt>
      <trkpt lat="44.84655" lon="6.96286">
        <ele>2663.1</ele>
      </trkpt>
      <trkpt lat="44.84656" lon="6.96286">
        <ele>2663.3</ele>
      </trkpt>
      <trkpt lat="44.84659" lon="6.96286">
        <ele>2663.9</ele>
      </trkpt>
      <trkpt lat="44.84663" lon="6.96287">
        <ele>2664.9</ele>
      </trkpt>
      <trkpt lat="44.84664" lon="6.96287">
        <ele>2665.1</ele>
      </trkpt>
      <trkpt lat="44.84667" lon="6.96287">
        <ele>2665.7</ele>
      </trkpt>
      <trkpt lat="44.84672" lon="6.96287">
        <ele>2666.7</ele>
      </trkpt>
      <trkpt lat="44.84672" lon="6.96286">
        <ele>2666.6</ele>
      </trkpt>
      <trkpt lat="44.84674" lon="6.96286">
        <ele>2667</ele>
      </trkpt>
      <trkpt lat="44.84676" lon="6.96287">
        <ele>2667.6</ele>
      </trkpt>
      <trkpt lat="44.84681" lon="6.96288">
        <ele>2668.8</ele>
      </trkpt>
      <trkpt lat="44.84682" lon="6.96288">
        <ele>2669</ele>
      </trkpt>
      <trkpt lat="44.84684" lon="6.96289">
        <ele>2669.6</ele>
      </trkpt>
      <trkpt lat="44.84688" lon="6.96292">
        <ele>2671.2</ele>
      </trkpt>
      <trkpt lat="44.8469" lon="6.96297">
        <ele>2672.8</ele>
      </trkpt>
      <trkpt lat="44.84693" lon="6.96302">
        <ele>2674.8</ele>
      </trkpt>
      <trkpt lat="44.84694" lon="6.96303">
        <ele>2675.2</ele>
      </trkpt>
      <trkpt lat="44.84694" lon="6.96304">
        <ele>2675.5</ele>
      </trkpt>
      <trkpt lat="44.84695" lon="6.96311">
        <ele>2677.6</ele>
      </trkpt>
      <trkpt lat="44.84695" lon="6.96312">
        <ele>2677.8</ele>
      </trkpt>
      <trkpt lat="44.84694" lon="6.96317">
        <ele>2678.8</ele>
      </trkpt>
      <trkpt lat="44.84695" lon="6.96319">
        <ele>2679.6</ele>
      </trkpt>
      <trkpt lat="44.84696" lon="6.96319">
        <ele>2679.9</ele>
      </trkpt>
      <trkpt lat="44.84699" lon="6.96319">
        <ele>2680.9</ele>
      </trkpt>
      <trkpt lat="44.84701" lon="6.96319">
        <ele>2681.6</ele>
      </trkpt>
      <trkpt lat="44.84703" lon="6.96318">
        <ele>2682</ele>
      </trkpt>
      <trkpt lat="44.84704" lon="6.96318">
        <ele>2682.4</ele>
      </trkpt>
      <trkpt lat="44.84708" lon="6.96318">
        <ele>2683.7</ele>
      </trkpt>
      <trkpt lat="44.84711" lon="6.96317">
        <ele>2684.5</ele>
      </trkpt>
      <trkpt lat="44.84712" lon="6.96316">
        <ele>2684.6</ele>
      </trkpt>
      <trkpt lat="44.84714" lon="6.96315">
        <ele>2685</ele>
      </trkpt>
      <trkpt lat="44.84717" lon="6.96315">
        <ele>2686</ele>
      </trkpt>
      <trkpt lat="44.84718" lon="6.96314">
        <ele>2686</ele>
      </trkpt>
      <trkpt lat="44.84721" lon="6.96313">
        <ele>2686.7</ele>
      </trkpt>
      <trkpt lat="44.84723" lon="6.96312">
        <ele>2687.2</ele>
      </trkpt>
      <trkpt lat="44.84726" lon="6.96312">
        <ele>2688.4</ele>
      </trkpt>
      <trkpt lat="44.84727" lon="6.96311">
        <ele>2688.5</ele>
      </trkpt>
      <trkpt lat="44.84728" lon="6.96312">
        <ele>2689.1</ele>
      </trkpt>
      <trkpt lat="44.84732" lon="6.96312">
        <ele>2690.7</ele>
      </trkpt>
      <trkpt lat="44.84734" lon="6.96312">
        <ele>2691.5</ele>
      </trkpt>
      <trkpt lat="44.84735" lon="6.96311">
        <ele>2691.6</ele>
      </trkpt>
      <trkpt lat="44.84736" lon="6.9631">
        <ele>2691.7</ele>
      </trkpt>
      <trkpt lat="44.84739" lon="6.9631">
        <ele>2692.9</ele>
      </trkpt>
      <trkpt lat="44.84742" lon="6.96309">
        <ele>2693.8</ele>
      </trkpt>
      <trkpt lat="44.84744" lon="6.96308">
        <ele>2694.3</ele>
      </trkpt>
      <trkpt lat="44.84747" lon="6.96307">
        <ele>2695.2</ele>
      </trkpt>
      <trkpt lat="44.8475" lon="6.96307">
        <ele>2696.4</ele>
      </trkpt>
      <trkpt lat="44.84751" lon="6.96307">
        <ele>2696.9</ele>
      </trkpt>
      <trkpt lat="44.84753" lon="6.96307">
        <ele>2697.9</ele>
      </trkpt>
      <trkpt lat="44.84757" lon="6.96307">
        <ele>2699.9</ele>
      </trkpt>
      <trkpt lat="44.84757" lon="6.96307">
        <ele>2699.9</ele>
      </trkpt>
      <trkpt lat="44.84757" lon="6.96308">
        <ele>2700.2</ele>
      </trkpt>
      <trkpt lat="44.84754" lon="6.96315">
        <ele>2700.7</ele>
      </trkpt>
      <trkpt lat="44.84754" lon="6.96316">
        <ele>2701</ele>
      </trkpt>
      <trkpt lat="44.84753" lon="6.96319">
        <ele>2701.3</ele>
      </trkpt>
      <trkpt lat="44.84752" lon="6.96322">
        <ele>2701.7</ele>
      </trkpt>
      <trkpt lat="44.84751" lon="6.96327">
        <ele>2702.7</ele>
      </trkpt>
      <trkpt lat="44.84751" lon="6.96328">
        <ele>2702.9</ele>
      </trkpt>
      <trkpt lat="44.8475" lon="6.96331">
        <ele>2703.3</ele>
      </trkpt>
      <trkpt lat="44.84749" lon="6.96338">
        <ele>2704.9</ele>
      </trkpt>
      <trkpt lat="44.84749" lon="6.96342">
        <ele>2706.1</ele>
      </trkpt>
      <trkpt lat="44.84748" lon="6.96347">
        <ele>2707.1</ele>
      </trkpt>
      <trkpt lat="44.84747" lon="6.96349">
        <ele>2707.3</ele>
      </trkpt>
      <trkpt lat="44.84746" lon="6.96353">
        <ele>2708.1</ele>
      </trkpt>
      <trkpt lat="44.84745" lon="6.96355">
        <ele>2708.3</ele>
      </trkpt>
      <trkpt lat="44.84744" lon="6.96359">
        <ele>2709</ele>
      </trkpt>
      <trkpt lat="44.84742" lon="6.96365">
        <ele>2710.2</ele>
      </trkpt>
      <trkpt lat="44.84739" lon="6.9637">
        <ele>2710.8</ele>
      </trkpt>
      <trkpt lat="44.84739" lon="6.9637">
        <ele>2710.8</ele>
      </trkpt>
      <trkpt lat="44.84738" lon="6.96374">
        <ele>2711.9</ele>
      </trkpt>
      <trkpt lat="44.84736" lon="6.96378">
        <ele>2712.5</ele>
      </trkpt>
      <trkpt lat="44.84736" lon="6.96382">
        <ele>2714</ele>
      </trkpt>
      <trkpt lat="44.84736" lon="6.96383">
        <ele>2714.3</ele>
      </trkpt>
      <trkpt lat="44.84735" lon="6.96386">
        <ele>2715</ele>
      </trkpt>
      <trkpt lat="44.84736" lon="6.96388">
        <ele>2716.1</ele>
      </trkpt>
      <trkpt lat="44.84738" lon="6.96385">
        <ele>2715.8</ele>
      </trkpt>
      <trkpt lat="44.84739" lon="6.96385">
        <ele>2716.2</ele>
      </trkpt>
      <trkpt lat="44.84743" lon="6.96383">
        <ele>2717.1</ele>
      </trkpt>
      <trkpt lat="44.84747" lon="6.96383">
        <ele>2718.7</ele>
      </trkpt>
      <trkpt lat="44.84748" lon="6.96383">
        <ele>2719.1</ele>
      </trkpt>
      <trkpt lat="44.8475" lon="6.96383">
        <ele>2719.9</ele>
      </trkpt>
      <trkpt lat="44.84751" lon="6.96382">
        <ele>2720</ele>
      </trkpt>
      <trkpt lat="44.84755" lon="6.96382">
        <ele>2721.9</ele>
      </trkpt>
      <trkpt lat="44.84758" lon="6.96381">
        <ele>2723</ele>
      </trkpt>
      <trkpt lat="44.84761" lon="6.9638">
        <ele>2724.1</ele>
      </trkpt>
      <trkpt lat="44.84764" lon="6.96379">
        <ele>2725.2</ele>
      </trkpt>
      <trkpt lat="44.84767" lon="6.96378">
        <ele>2726.3</ele>
      </trkpt>
      <trkpt lat="44.8477" lon="6.96376">
        <ele>2727.1</ele>
      </trkpt>
      <trkpt lat="44.84771" lon="6.96376">
        <ele>2727.5</ele>
      </trkpt>
      <trkpt lat="44.84774" lon="6.96375">
        <ele>2728.7</ele>
      </trkpt>
      <trkpt lat="44.84776" lon="6.96374">
        <ele>2729.3</ele>
      </trkpt>
      <trkpt lat="44.84777" lon="6.96374">
        <ele>2729.8</ele>
      </trkpt>
      <trkpt lat="44.84778" lon="6.96373">
        <ele>2730</ele>
      </trkpt>
      <trkpt lat="44.84777" lon="6.96373">
        <ele>2729.5</ele>
      </trkpt>
      <trkpt lat="44.84781" lon="6.96371">
        <ele>2730.8</ele>
      </trkpt>
      <trkpt lat="44.84782" lon="6.96371">
        <ele>2731.3</ele>
      </trkpt>
      <trkpt lat="44.84784" lon="6.96369">
        <ele>2731.6</ele>
      </trkpt>
      <trkpt lat="44.84788" lon="6.96368">
        <ele>2733.3</ele>
      </trkpt>
      <trkpt lat="44.8479" lon="6.96368">
        <ele>2734.3</ele>
      </trkpt>
      <trkpt lat="44.84792" lon="6.96367">
        <ele>2735</ele>
      </trkpt>
      <trkpt lat="44.84794" lon="6.96366">
        <ele>2735.7</ele>
      </trkpt>
      <trkpt lat="44.84794" lon="6.96366">
        <ele>2735.7</ele>
      </trkpt>
      <trkpt lat="44.84793" lon="6.96368">
        <ele>2735.8</ele>
      </trkpt>
      <trkpt lat="44.84792" lon="6.96369">
        <ele>2735.6</ele>
      </trkpt>
      <trkpt lat="44.84792" lon="6.96368">
        <ele>2735.3</ele>
      </trkpt>
      <trkpt lat="44.84792" lon="6.96368">
        <ele>2735.3</ele>
      </trkpt>
      <trkpt lat="44.84792" lon="6.96368">
        <ele>2735.3</ele>
      </trkpt>
      <trkpt lat="44.84793" lon="6.96369">
        <ele>2736.1</ele>
      </trkpt>
      <trkpt lat="44.84793" lon="6.96369">
        <ele>2736.1</ele>
      </trkpt>
      <trkpt lat="44.84792" lon="6.96369">
        <ele>2735.6</ele>
      </trkpt>
      <trkpt lat="44.84793" lon="6.96368">
        <ele>2735.8</ele>
      </trkpt>
      <trkpt lat="44.84791" lon="6.96374">
        <ele>2736.6</ele>
      </trkpt>
      <trkpt lat="44.84791" lon="6.96376">
        <ele>2737.2</ele>
      </trkpt>
      <trkpt lat="44.84789" lon="6.9638">
        <ele>2737.5</ele>
      </trkpt>
      <trkpt lat="44.84789" lon="6.96381">
        <ele>2737.8</ele>
      </trkpt>
      <trkpt lat="44.84787" lon="6.96387">
        <ele>2738.7</ele>
      </trkpt>
      <trkpt lat="44.84786" lon="6.9639">
        <ele>2739.2</ele>
      </trkpt>
      <trkpt lat="44.84784" lon="6.964">
        <ele>2741.5</ele>
      </trkpt>
      <trkpt lat="44.84783" lon="6.96403">
        <ele>2742</ele>
      </trkpt>
      <trkpt lat="44.84783" lon="6.96404">
        <ele>2742.3</ele>
      </trkpt>
      <trkpt lat="44.84782" lon="6.9641">
        <ele>2743.8</ele>
      </trkpt>
      <trkpt lat="44.8478" lon="6.96415">
        <ele>2744.5</ele>
      </trkpt>
      <trkpt lat="44.8478" lon="6.96416">
        <ele>2744.8</ele>
      </trkpt>
      <trkpt lat="44.84779" lon="6.96419">
        <ele>2745.5</ele>
      </trkpt>
      <trkpt lat="44.84778" lon="6.96426">
        <ele>2747.8</ele>
      </trkpt>
      <trkpt lat="44.84777" lon="6.9643">
        <ele>2749</ele>
      </trkpt>
      <trkpt lat="44.84776" lon="6.96433">
        <ele>2749.9</ele>
      </trkpt>
      <trkpt lat="44.84775" lon="6.96435">
        <ele>2750.3</ele>
      </trkpt>
      <trkpt lat="44.84772" lon="6.9644">
        <ele>2751.3</ele>
      </trkpt>
      <trkpt lat="44.84771" lon="6.96445">
        <ele>2753</ele>
      </trkpt>
      <trkpt lat="44.8477" lon="6.96446">
        <ele>2753</ele>
      </trkpt>
      <trkpt lat="44.84769" lon="6.96448">
        <ele>2753.3</ele>
      </trkpt>
      <trkpt lat="44.84768" lon="6.96453">
        <ele>2754.7</ele>
      </trkpt>
      <trkpt lat="44.84766" lon="6.96457">
        <ele>2755.4</ele>
      </trkpt>
      <trkpt lat="44.84765" lon="6.96459">
        <ele>2755.8</ele>
      </trkpt>
      <trkpt lat="44.84763" lon="6.96463">
        <ele>2756.6</ele>
      </trkpt>
      <trkpt lat="44.84762" lon="6.96466">
        <ele>2757.3</ele>
      </trkpt>
      <trkpt lat="44.8476" lon="6.9647">
        <ele>2758.1</ele>
      </trkpt>
      <trkpt lat="44.84759" lon="6.96471">
        <ele>2758.2</ele>
      </trkpt>
      <trkpt lat="44.84757" lon="6.96475">
        <ele>2759</ele>
      </trkpt>
      <trkpt lat="44.84756" lon="6.96477">
        <ele>2759.4</ele>
      </trkpt>
      <trkpt lat="44.84756" lon="6.96478">
        <ele>2759.8</ele>
      </trkpt>
      <trkpt lat="44.84755" lon="6.96481">
        <ele>2760.5</ele>
      </trkpt>
      <trkpt lat="44.84754" lon="6.96486">
        <ele>2762</ele>
      </trkpt>
      <trkpt lat="44.84754" lon="6.96486">
        <ele>2762</ele>
      </trkpt>
      <trkpt lat="44.84753" lon="6.96491">
        <ele>2763.6</ele>
      </trkpt>
      <trkpt lat="44.84751" lon="6.96496">
        <ele>2764.8</ele>
      </trkpt>
      <trkpt lat="44.84751" lon="6.96497">
        <ele>2765.2</ele>
      </trkpt>
      <trkpt lat="44.8475" lon="6.965">
        <ele>2766</ele>
      </trkpt>
      <trkpt lat="44.84749" lon="6.96504">
        <ele>2766.8</ele>
      </trkpt>
      <trkpt lat="44.84748" lon="6.96507">
        <ele>2767.3</ele>
      </trkpt>
      <trkpt lat="44.84748" lon="6.96506">
        <ele>2767</ele>
      </trkpt>
      <trkpt lat="44.84748" lon="6.96506">
        <ele>2767</ele>
      </trkpt>
      <trkpt lat="44.84747" lon="6.9651">
        <ele>2767.9</ele>
      </trkpt>
      <trkpt lat="44.84746" lon="6.96512">
        <ele>2768.1</ele>
      </trkpt>
      <trkpt lat="44.84744" lon="6.96515">
        <ele>2768.4</ele>
      </trkpt>
      <trkpt lat="44.84744" lon="6.96516">
        <ele>2768.7</ele>
      </trkpt>
      <trkpt lat="44.84749" lon="6.96516">
        <ele>2770.3</ele>
      </trkpt>
      <trkpt lat="44.84751" lon="6.96516">
        <ele>2770.9</ele>
      </trkpt>
      <trkpt lat="44.84758" lon="6.96516">
        <ele>2772.6</ele>
      </trkpt>
      <trkpt lat="44.8476" lon="6.96517">
        <ele>2773.4</ele>
      </trkpt>
      <trkpt lat="44.84761" lon="6.96517">
        <ele>2773.7</ele>
      </trkpt>
      <trkpt lat="44.84764" lon="6.96517">
        <ele>2774.4</ele>
      </trkpt>
      <trkpt lat="44.84765" lon="6.96516">
        <ele>2774.4</ele>
      </trkpt>
      <trkpt lat="44.84766" lon="6.96515">
        <ele>2774.4</ele>
      </trkpt>
      <trkpt lat="44.84766" lon="6.96516">
        <ele>2774.6</ele>
      </trkpt>
      <trkpt lat="44.84766" lon="6.96517">
        <ele>2774.9</ele>
      </trkpt>
      <trkpt lat="44.8477" lon="6.96517">
        <ele>2775.9</ele>
      </trkpt>
      <trkpt lat="44.84771" lon="6.96517">
        <ele>2776.2</ele>
      </trkpt>
      <trkpt lat="44.84774" lon="6.96517">
        <ele>2776.9</ele>
      </trkpt>
      <trkpt lat="44.84779" lon="6.96517">
        <ele>2778.1</ele>
      </trkpt>
      <trkpt lat="44.84781" lon="6.96517">
        <ele>2778.5</ele>
      </trkpt>
      <trkpt lat="44.84783" lon="6.96517">
        <ele>2778.9</ele>
      </trkpt>
      <trkpt lat="44.84788" lon="6.96517">
        <ele>2779.9</ele>
      </trkpt>
      <trkpt lat="44.84789" lon="6.96517">
        <ele>2780.1</ele>
      </trkpt>
      <trkpt lat="44.8479" lon="6.96517">
        <ele>2780.3</ele>
      </trkpt>
      <trkpt lat="44.84791" lon="6.96516">
        <ele>2780.2</ele>
      </trkpt>
      <trkpt lat="44.84788" lon="6.96519">
        <ele>2780.4</ele>
      </trkpt>
      <trkpt lat="44.84788" lon="6.96519">
        <ele>2780.4</ele>
      </trkpt>
      <trkpt lat="44.84788" lon="6.9652">
        <ele>2780.7</ele>
      </trkpt>
      <trkpt lat="44.8479" lon="6.96519">
        <ele>2780.8</ele>
      </trkpt>
      <trkpt lat="44.84796" lon="6.96521">
        <ele>2782.5</ele>
      </trkpt>
      <trkpt lat="44.84797" lon="6.96521">
        <ele>2782.7</ele>
      </trkpt>
      <trkpt lat="44.84798" lon="6.96521">
        <ele>2782.9</ele>
      </trkpt>
      <trkpt lat="44.848" lon="6.96522">
        <ele>2783.5</ele>
      </trkpt>
      <trkpt lat="44.84801" lon="6.96525">
        <ele>2784.5</ele>
      </trkpt>
      <trkpt lat="44.84801" lon="6.96528">
        <ele>2785.2</ele>
      </trkpt>
      <trkpt lat="44.84801" lon="6.96529">
        <ele>2785.5</ele>
      </trkpt>
      <trkpt lat="44.84796" lon="6.96534">
        <ele>2785.9</ele>
      </trkpt>
      <trkpt lat="44.84796" lon="6.96534">
        <ele>2785.9</ele>
      </trkpt>
      <trkpt lat="44.84796" lon="6.96533">
        <ele>2785.7</ele>
      </trkpt>
      <trkpt lat="44.84796" lon="6.96534">
        <ele>2785.9</ele>
      </trkpt>
      <trkpt lat="44.84796" lon="6.96534">
        <ele>2785.9</ele>
      </trkpt>
      <trkpt lat="44.84795" lon="6.96535">
        <ele>2786</ele>
      </trkpt>
      <trkpt lat="44.84797" lon="6.96539">
        <ele>2787.4</ele>
      </trkpt>
      <trkpt lat="44.84796" lon="6.96541">
        <ele>2787.8</ele>
      </trkpt>
      <trkpt lat="44.84795" lon="6.96544">
        <ele>2788.4</ele>
      </trkpt>
      <trkpt lat="44.84794" lon="6.96548">
        <ele>2789.3</ele>
      </trkpt>
      <trkpt lat="44.84794" lon="6.96549">
        <ele>2789.6</ele>
      </trkpt>
      <trkpt lat="44.84793" lon="6.96553">
        <ele>2790.5</ele>
      </trkpt>
      <trkpt lat="44.84793" lon="6.96554">
        <ele>2790.8</ele>
      </trkpt>
      <trkpt lat="44.84791" lon="6.96561">
        <ele>2792.5</ele>
      </trkpt>
      <trkpt lat="44.84791" lon="6.96563">
        <ele>2793</ele>
      </trkpt>
      <trkpt lat="44.8479" lon="6.96567">
        <ele>2794.1</ele>
      </trkpt>
      <trkpt lat="44.84788" lon="6.96572">
        <ele>2795.2</ele>
      </trkpt>
      <trkpt lat="44.84788" lon="6.96573">
        <ele>2795.5</ele>
      </trkpt>
      <trkpt lat="44.84786" lon="6.96576">
        <ele>2796.1</ele>
      </trkpt>
      <trkpt lat="44.84784" lon="6.96581">
        <ele>2797.2</ele>
      </trkpt>
      <trkpt lat="44.84783" lon="6.96581">
        <ele>2797.1</ele>
      </trkpt>
      <trkpt lat="44.84781" lon="6.96586">
        <ele>2798.2</ele>
      </trkpt>
      <trkpt lat="44.84781" lon="6.96588">
        <ele>2798.8</ele>
      </trkpt>
      <trkpt lat="44.8478" lon="6.96592">
        <ele>2799.8</ele>
      </trkpt>
      <trkpt lat="44.8478" lon="6.96593">
        <ele>2800.1</ele>
      </trkpt>
      <trkpt lat="44.84781" lon="6.96597">
        <ele>2801.4</ele>
      </trkpt>
      <trkpt lat="44.84785" lon="6.966">
        <ele>2802.8</ele>
      </trkpt>
      <trkpt lat="44.84787" lon="6.96602">
        <ele>2803.7</ele>
      </trkpt>
      <trkpt lat="44.84787" lon="6.96602">
        <ele>2803.7</ele>
      </trkpt>
      <trkpt lat="44.84793" lon="6.96603">
        <ele>2804.9</ele>
      </trkpt>
      <trkpt lat="44.84794" lon="6.96603">
        <ele>2805</ele>
      </trkpt>
      <trkpt lat="44.84795" lon="6.96603">
        <ele>2805.1</ele>
      </trkpt>
      <trkpt lat="44.84796" lon="6.96603">
        <ele>2805.3</ele>
      </trkpt>
      <trkpt lat="44.84797" lon="6.96603">
        <ele>2805.4</ele>
      </trkpt>
      <trkpt lat="44.84801" lon="6.96604">
        <ele>2806.3</ele>
      </trkpt>
      <trkpt lat="44.84804" lon="6.96606">
        <ele>2807.3</ele>
      </trkpt>
      <trkpt lat="44.84807" lon="6.96606">
        <ele>2807.6</ele>
      </trkpt>
      <trkpt lat="44.84812" lon="6.96608">
        <ele>2808.4</ele>
      </trkpt>
      <trkpt lat="44.84813" lon="6.96608">
        <ele>2808.4</ele>
      </trkpt>
      <trkpt lat="44.84817" lon="6.9661">
        <ele>2809.1</ele>
      </trkpt>
      <trkpt lat="44.84819" lon="6.96612">
        <ele>2809.7</ele>
      </trkpt>
      <trkpt lat="44.84819" lon="6.96614">
        <ele>2810.2</ele>
      </trkpt>
      <trkpt lat="44.8482" lon="6.96616">
        <ele>2810.7</ele>
      </trkpt>
      <trkpt lat="44.84822" lon="6.96621">
        <ele>2811.9</ele>
      </trkpt>
      <trkpt lat="44.84822" lon="6.96622">
        <ele>2812.1</ele>
      </trkpt>
      <trkpt lat="44.84823" lon="6.96627">
        <ele>2813.3</ele>
      </trkpt>
      <trkpt lat="44.84824" lon="6.96631">
        <ele>2814.2</ele>
      </trkpt>
      <trkpt lat="44.84826" lon="6.96635">
        <ele>2815.1</ele>
      </trkpt>
      <trkpt lat="44.84827" lon="6.9664">
        <ele>2816.2</ele>
      </trkpt>
      <trkpt lat="44.84829" lon="6.96644">
        <ele>2817.1</ele>
      </trkpt>
      <trkpt lat="44.8483" lon="6.96648">
        <ele>2818</ele>
      </trkpt>
      <trkpt lat="44.8483" lon="6.96649">
        <ele>2818.2</ele>
      </trkpt>
      <trkpt lat="44.84832" lon="6.96651">
        <ele>2818.6</ele>
      </trkpt>
      <trkpt lat="44.84833" lon="6.96656">
        <ele>2819.7</ele>
      </trkpt>
      <trkpt lat="44.84834" lon="6.96658">
        <ele>2820.2</ele>
      </trkpt>
      <trkpt lat="44.84835" lon="6.9666">
        <ele>2820.8</ele>
      </trkpt>
      <trkpt lat="44.84836" lon="6.96665">
        <ele>2822</ele>
      </trkpt>
      <trkpt lat="44.84838" lon="6.96669">
        <ele>2823</ele>
      </trkpt>
      <trkpt lat="44.84838" lon="6.96671">
        <ele>2823.4</ele>
      </trkpt>
      <trkpt lat="44.8484" lon="6.96676">
        <ele>2824.5</ele>
      </trkpt>
      <trkpt lat="44.84841" lon="6.96681">
        <ele>2825.5</ele>
      </trkpt>
      <trkpt lat="44.84841" lon="6.96683">
        <ele>2825.9</ele>
      </trkpt>
      <trkpt lat="44.84841" lon="6.96685">
        <ele>2826.2</ele>
      </trkpt>
      <trkpt lat="44.84841" lon="6.96686">
        <ele>2826.4</ele>
      </trkpt>
      <trkpt lat="44.84841" lon="6.96693">
        <ele>2827.7</ele>
      </trkpt>
      <trkpt lat="44.8484" lon="6.96697">
        <ele>2828.2</ele>
      </trkpt>
      <trkpt lat="44.8484" lon="6.967">
        <ele>2828.5</ele>
      </trkpt>
      <trkpt lat="44.8484" lon="6.96705">
        <ele>2828.9</ele>
      </trkpt>
      <trkpt lat="44.8484" lon="6.96707">
        <ele>2829</ele>
      </trkpt>
      <trkpt lat="44.84841" lon="6.96708">
        <ele>2829.1</ele>
      </trkpt>
      <trkpt lat="44.84841" lon="6.96713">
        <ele>2829.5</ele>
      </trkpt>
      <trkpt lat="44.84842" lon="6.96719">
        <ele>2829.8</ele>
      </trkpt>
      <trkpt lat="44.84841" lon="6.96726">
        <ele>2830.1</ele>
      </trkpt>
      <trkpt lat="44.84841" lon="6.96736">
        <ele>2829.8</ele>
      </trkpt>
      <trkpt lat="44.84841" lon="6.96738">
        <ele>2829.7</ele>
      </trkpt>
      <trkpt lat="44.84841" lon="6.96739">
        <ele>2829.7</ele>
      </trkpt>
      <trkpt lat="44.84843" lon="6.96745">
        <ele>2829.1</ele>
      </trkpt>
      <trkpt lat="44.84842" lon="6.96747">
        <ele>2829.2</ele>
      </trkpt>
      <trkpt lat="44.84843" lon="6.96748">
        <ele>2829</ele>
      </trkpt>
      <trkpt lat="44.84843" lon="6.9675">
        <ele>2828.9</ele>
      </trkpt>
      <trkpt lat="44.84842" lon="6.96757">
        <ele>2828.2</ele>
      </trkpt>
      <trkpt lat="44.84843" lon="6.96759">
        <ele>2827.6</ele>
      </trkpt>
      <trkpt lat="44.84843" lon="6.96769">
        <ele>2826.1</ele>
      </trkpt>
      <trkpt lat="44.84843" lon="6.96773">
        <ele>2825.5</ele>
      </trkpt>
      <trkpt lat="44.84843" lon="6.96774">
        <ele>2825.4</ele>
      </trkpt>
      <trkpt lat="44.84835" lon="6.96776">
        <ele>2828.4</ele>
      </trkpt>
      <trkpt lat="44.84834" lon="6.96776">
        <ele>2828.8</ele>
      </trkpt>
      <trkpt lat="44.84833" lon="6.96776">
        <ele>2829.2</ele>
      </trkpt>
      <trkpt lat="44.84832" lon="6.96776">
        <ele>2829.4</ele>
      </trkpt>
      <trkpt lat="44.84825" lon="6.96779">
        <ele>2830.8</ele>
      </trkpt>
      <trkpt lat="44.84823" lon="6.9678">
        <ele>2831.2</ele>
      </trkpt>
      <trkpt lat="44.84819" lon="6.96782">
        <ele>2832.1</ele>
      </trkpt>
      <trkpt lat="44.84811" lon="6.96785">
        <ele>2833.8</ele>
      </trkpt>
      <trkpt lat="44.848" lon="6.96795">
        <ele>2836.2</ele>
      </trkpt>
      <trkpt lat="44.84797" lon="6.96798">
        <ele>2836.8</ele>
      </trkpt>
      <trkpt lat="44.8479" lon="6.96802">
        <ele>2838.4</ele>
      </trkpt>
      <trkpt lat="44.84789" lon="6.96803">
        <ele>2838.6</ele>
      </trkpt>
      <trkpt lat="44.84783" lon="6.96811">
        <ele>2840</ele>
      </trkpt>
      <trkpt lat="44.84782" lon="6.96814">
        <ele>2840.3</ele>
      </trkpt>
      <trkpt lat="44.84781" lon="6.96815">
        <ele>2840.6</ele>
      </trkpt>
      <trkpt lat="44.84778" lon="6.96821">
        <ele>2841.5</ele>
      </trkpt>
      <trkpt lat="44.84775" lon="6.96824">
        <ele>2842.6</ele>
      </trkpt>
      <trkpt lat="44.84774" lon="6.96826">
        <ele>2843</ele>
      </trkpt>
      <trkpt lat="44.84772" lon="6.96829">
        <ele>2843.7</ele>
      </trkpt>
      <trkpt lat="44.84771" lon="6.9683">
        <ele>2844.1</ele>
      </trkpt>
      <trkpt lat="44.8477" lon="6.96832">
        <ele>2844.5</ele>
      </trkpt>
      <trkpt lat="44.84769" lon="6.96834">
        <ele>2844.8</ele>
      </trkpt>
      <trkpt lat="44.84766" lon="6.96837">
        <ele>2845.8</ele>
      </trkpt>
      <trkpt lat="44.84764" lon="6.9684">
        <ele>2846.5</ele>
      </trkpt>
      <trkpt lat="44.84764" lon="6.9684">
        <ele>2846.5</ele>
      </trkpt>
      <trkpt lat="44.8476" lon="6.96844">
        <ele>2847.9</ele>
      </trkpt>
      <trkpt lat="44.84759" lon="6.96844">
        <ele>2848.2</ele>
      </trkpt>
      <trkpt lat="44.84756" lon="6.96849">
        <ele>2849.4</ele>
      </trkpt>
      <trkpt lat="44.84755" lon="6.9685">
        <ele>2849.8</ele>
      </trkpt>
      <trkpt lat="44.84754" lon="6.96853">
        <ele>2850.2</ele>
      </trkpt>
      <trkpt lat="44.84752" lon="6.96858">
        <ele>2851.1</ele>
      </trkpt>
      <trkpt lat="44.84751" lon="6.96855">
        <ele>2851.4</ele>
      </trkpt>
      <trkpt lat="44.84751" lon="6.96854">
        <ele>2851.4</ele>
      </trkpt>
      <trkpt lat="44.84748" lon="6.96848">
        <ele>2852.2</ele>
      </trkpt>
      <trkpt lat="44.84748" lon="6.96847">
        <ele>2852.1</ele>
      </trkpt>
      <trkpt lat="44.8475" lon="6.96848">
        <ele>2851.5</ele>
      </trkpt>
      <trkpt lat="44.84748" lon="6.96844">
        <ele>2852</ele>
      </trkpt>
      <trkpt lat="44.84748" lon="6.96844">
        <ele>2852</ele>
      </trkpt>
      <trkpt lat="44.84744" lon="6.9684">
        <ele>2852.8</ele>
      </trkpt>
      <trkpt lat="44.84743" lon="6.96837">
        <ele>2852.8</ele>
      </trkpt>
      <trkpt lat="44.84743" lon="6.96836">
        <ele>2852.7</ele>
      </trkpt>
      <trkpt lat="44.84741" lon="6.96834">
        <ele>2853</ele>
      </trkpt>
      <trkpt lat="44.84741" lon="6.96835">
        <ele>2853.1</ele>
      </trkpt>
      <trkpt lat="44.8474" lon="6.96842">
        <ele>2854</ele>
      </trkpt>
      <trkpt lat="44.84739" lon="6.96846">
        <ele>2854.7</ele>
      </trkpt>
      <trkpt lat="44.84737" lon="6.9685">
        <ele>2855.8</ele>
      </trkpt>
      <trkpt lat="44.84735" lon="6.96854">
        <ele>2857</ele>
      </trkpt>
      <trkpt lat="44.84734" lon="6.96857">
        <ele>2857.8</ele>
      </trkpt>
      <trkpt lat="44.84731" lon="6.96861">
        <ele>2859.5</ele>
      </trkpt>
      <trkpt lat="44.84731" lon="6.96862">
        <ele>2859.5</ele>
      </trkpt>
      <trkpt lat="44.8473" lon="6.96862">
        <ele>2859.9</ele>
      </trkpt>
      <trkpt lat="44.84729" lon="6.96858">
        <ele>2859.8</ele>
      </trkpt>
      <trkpt lat="44.84729" lon="6.96857">
        <ele>2859.6</ele>
      </trkpt>
      <trkpt lat="44.84727" lon="6.96854">
        <ele>2859.8</ele>
      </trkpt>
      <trkpt lat="44.84726" lon="6.96854">
        <ele>2860.1</ele>
      </trkpt>
      <trkpt lat="44.84722" lon="6.9686">
        <ele>2862.7</ele>
      </trkpt>
      <trkpt lat="44.84722" lon="6.96861">
        <ele>2862.9</ele>
      </trkpt>
      <trkpt lat="44.8472" lon="6.96863">
        <ele>2862.1</ele>
      </trkpt>
      <trkpt lat="44.8472" lon="6.96865">
        <ele>2862.2</ele>
      </trkpt>
      <trkpt lat="44.8472" lon="6.96867">
        <ele>2862.2</ele>
      </trkpt>
      <trkpt lat="44.84714" lon="6.96867">
        <ele>2860.1</ele>
      </trkpt>
      <trkpt lat="44.84712" lon="6.96865">
        <ele>2859.1</ele>
      </trkpt>
      <trkpt lat="44.84712" lon="6.96865">
        <ele>2859.1</ele>
      </trkpt>
      <trkpt lat="44.84708" lon="6.96867">
        <ele>2857.9</ele>
      </trkpt>
      <trkpt lat="44.84708" lon="6.96867">
        <ele>2857.9</ele>
      </trkpt>
      <trkpt lat="44.84707" lon="6.96867">
        <ele>2857.6</ele>
      </trkpt>
      <trkpt lat="44.84707" lon="6.96866">
        <ele>2857.4</ele>
      </trkpt>
      <trkpt lat="44.84707" lon="6.96865">
        <ele>2857.2</ele>
      </trkpt>
      <trkpt lat="44.84708" lon="6.96864">
        <ele>2857.4</ele>
      </trkpt>
      <trkpt lat="44.84708" lon="6.96863">
        <ele>2857.2</ele>
      </trkpt>
      <trkpt lat="44.84708" lon="6.9686">
        <ele>2856.6</ele>
      </trkpt>
      <trkpt lat="44.8471" lon="6.96856">
        <ele>2856.5</ele>
      </trkpt>
      <trkpt lat="44.84708" lon="6.96848">
        <ele>2853.5</ele>
      </trkpt>
      <trkpt lat="44.84708" lon="6.96844">
        <ele>2852.5</ele>
      </trkpt>
      <trkpt lat="44.84707" lon="6.96844">
        <ele>2852.1</ele>
      </trkpt>
      <trkpt lat="44.84707" lon="6.96844">
        <ele>2852.1</ele>
      </trkpt>
      <trkpt lat="44.84708" lon="6.96843">
        <ele>2852.3</ele>
      </trkpt>
      <trkpt lat="44.84707" lon="6.96844">
        <ele>2852.1</ele>
      </trkpt>
      <trkpt lat="44.84708" lon="6.96845">
        <ele>2852.8</ele>
      </trkpt>
      <trkpt lat="44.84709" lon="6.96845">
        <ele>2853.3</ele>
      </trkpt>
      <trkpt lat="44.84709" lon="6.96846">
        <ele>2853.5</ele>
      </trkpt>
      <trkpt lat="44.84708" lon="6.96847">
        <ele>2853.3</ele>
      </trkpt>
      <trkpt lat="44.84709" lon="6.96847">
        <ele>2853.8</ele>
      </trkpt>
      <trkpt lat="44.8471" lon="6.96847">
        <ele>2854.2</ele>
      </trkpt>
      <trkpt lat="44.84709" lon="6.9685">
        <ele>2854.5</ele>
      </trkpt>
      <trkpt lat="44.8471" lon="6.96859">
        <ele>2857.2</ele>
      </trkpt>
      <trkpt lat="44.84709" lon="6.96866">
        <ele>2858.1</ele>
      </trkpt>
      <trkpt lat="44.8471" lon="6.96865">
        <ele>2858.3</ele>
      </trkpt>
      <trkpt lat="44.8471" lon="6.96865">
        <ele>2858.3</ele>
      </trkpt>
      <trkpt lat="44.8471" lon="6.96864">
        <ele>2858.2</ele>
      </trkpt>
      <trkpt lat="44.8471" lon="6.96864">
        <ele>2858.2</ele>
      </trkpt>
      <trkpt lat="44.84711" lon="6.96865">
        <ele>2858.7</ele>
      </trkpt>
      <trkpt lat="44.84712" lon="6.96863">
        <ele>2858.8</ele>
      </trkpt>
      <trkpt lat="44.84711" lon="6.96863">
        <ele>2858.4</ele>
      </trkpt>
      <trkpt lat="44.84707" lon="6.96863">
        <ele>2856.8</ele>
      </trkpt>
      <trkpt lat="44.84707" lon="6.96864">
        <ele>2857</ele>
      </trkpt>
      <trkpt lat="44.84707" lon="6.96864">
        <ele>2857</ele>
      </trkpt>
      <trkpt lat="44.84707" lon="6.96864">
        <ele>2857</ele>
      </trkpt>
      <trkpt lat="44.84707" lon="6.96863">
        <ele>2856.8</ele>
      </trkpt>
      <trkpt lat="44.84707" lon="6.96864">
        <ele>2857</ele>
      </trkpt>
      <trkpt lat="44.84707" lon="6.96867">
        <ele>2857.6</ele>
      </trkpt>
      <trkpt lat="44.84707" lon="6.96871">
        <ele>2858.4</ele>
      </trkpt>
      <trkpt lat="44.84705" lon="6.96873">
        <ele>2858.2</ele>
      </trkpt>
      <trkpt lat="44.84705" lon="6.96874">
        <ele>2858.4</ele>
      </trkpt>
      <trkpt lat="44.84704" lon="6.96877">
        <ele>2858.9</ele>
      </trkpt>
      <trkpt lat="44.84704" lon="6.96878">
        <ele>2859.1</ele>
      </trkpt>
      <trkpt lat="44.84703" lon="6.96881">
        <ele>2859.7</ele>
      </trkpt>
      <trkpt lat="44.84702" lon="6.96885">
        <ele>2860.5</ele>
      </trkpt>
      <trkpt lat="44.847" lon="6.9689">
        <ele>2861.6</ele>
      </trkpt>
      <trkpt lat="44.84699" lon="6.96893">
        <ele>2862.1</ele>
      </trkpt>
      <trkpt lat="44.84698" lon="6.96895">
        <ele>2862.4</ele>
      </trkpt>
      <trkpt lat="44.84697" lon="6.96897">
        <ele>2862.8</ele>
      </trkpt>
      <trkpt lat="44.84697" lon="6.96897">
        <ele>2862.8</ele>
      </trkpt>
      <trkpt lat="44.84698" lon="6.969">
        <ele>2863.3</ele>
      </trkpt>
      <trkpt lat="44.84698" lon="6.96902">
        <ele>2863.7</ele>
      </trkpt>
      <trkpt lat="44.84698" lon="6.96902">
        <ele>2863.7</ele>
      </trkpt>
      <trkpt lat="44.84699" lon="6.96908">
        <ele>2864.8</ele>
      </trkpt>
      <trkpt lat="44.84699" lon="6.96914">
        <ele>2865.9</ele>
      </trkpt>
      <trkpt lat="44.84698" lon="6.96914">
        <ele>2866</ele>
      </trkpt>
      <trkpt lat="44.84697" lon="6.96916">
        <ele>2866.5</ele>
      </trkpt>
      <trkpt lat="44.84697" lon="6.96916">
        <ele>2866.5</ele>
      </trkpt>
      <trkpt lat="44.84697" lon="6.96921">
        <ele>2867.3</ele>
      </trkpt>
      <trkpt lat="44.84698" lon="6.96922">
        <ele>2867.3</ele>
      </trkpt>
      <trkpt lat="44.84698" lon="6.96924">
        <ele>2867.6</ele>
      </trkpt>
      <trkpt lat="44.84698" lon="6.96924">
        <ele>2867.6</ele>
      </trkpt>
      <trkpt lat="44.84696" lon="6.96925">
        <ele>2868.2</ele>
      </trkpt>
      <trkpt lat="44.84697" lon="6.96928">
        <ele>2868.4</ele>
      </trkpt>
      <trkpt lat="44.84697" lon="6.96931">
        <ele>2868.9</ele>
      </trkpt>
      <trkpt lat="44.84694" lon="6.9694">
        <ele>2871</ele>
      </trkpt>
      <trkpt lat="44.84693" lon="6.96943">
        <ele>2871.1</ele>
      </trkpt>
      <trkpt lat="44.84693" lon="6.96944">
        <ele>2871.3</ele>
      </trkpt>
      <trkpt lat="44.84694" lon="6.96943">
        <ele>2871.5</ele>
      </trkpt>
      <trkpt lat="44.84695" lon="6.96949">
        <ele>2871.8</ele>
      </trkpt>
      <trkpt lat="44.84693" lon="6.96952">
        <ele>2871.4</ele>
      </trkpt>
      <trkpt lat="44.84692" lon="6.96954">
        <ele>2870.9</ele>
      </trkpt>
      <trkpt lat="44.84692" lon="6.96954">
        <ele>2870.9</ele>
      </trkpt>
      <trkpt lat="44.84692" lon="6.96955">
        <ele>2870.9</ele>
      </trkpt>
      <trkpt lat="44.84692" lon="6.96956">
        <ele>2870.9</ele>
      </trkpt>
      <trkpt lat="44.84691" lon="6.96956">
        <ele>2870.5</ele>
      </trkpt>
      <trkpt lat="44.8469" lon="6.96958">
        <ele>2870</ele>
      </trkpt>
      <trkpt lat="44.8469" lon="6.9696">
        <ele>2870</ele>
      </trkpt>
      <trkpt lat="44.8469" lon="6.9696">
        <ele>2870</ele>
      </trkpt>
      <trkpt lat="44.8469" lon="6.9696">
        <ele>2870</ele>
      </trkpt>
      <trkpt lat="44.84689" lon="6.96962">
        <ele>2869.5</ele>
      </trkpt>
      <trkpt lat="44.84689" lon="6.96962">
        <ele>2869.5</ele>
      </trkpt>
      <trkpt lat="44.8469" lon="6.9696">
        <ele>2870</ele>
      </trkpt>
      <trkpt lat="44.8469" lon="6.9696">
        <ele>2870</ele>
      </trkpt>
      <trkpt lat="44.8469" lon="6.9696">
        <ele>2870</ele>
      </trkpt>
      <trkpt lat="44.84689" lon="6.96963">
        <ele>2869.5</ele>
      </trkpt>
      <trkpt lat="44.84687" lon="6.96964">
        <ele>2868.6</ele>
      </trkpt>
      <trkpt lat="44.84687" lon="6.96964">
        <ele>2868.6</ele>
      </trkpt>
      <trkpt lat="44.84688" lon="6.96965">
        <ele>2869</ele>
      </trkpt>
      <trkpt lat="44.84688" lon="6.96965">
        <ele>2869</ele>
      </trkpt>
      <trkpt lat="44.84688" lon="6.96965">
        <ele>2869</ele>
      </trkpt>
      <trkpt lat="44.84688" lon="6.96965">
        <ele>2869</ele>
      </trkpt>
      <trkpt lat="44.84688" lon="6.96964">
        <ele>2869.1</ele>
      </trkpt>
      <trkpt lat="44.84688" lon="6.96964">
        <ele>2869.1</ele>
      </trkpt>
      <trkpt lat="44.84688" lon="6.96963">
        <ele>2869.1</ele>
      </trkpt>
      <trkpt lat="44.84688" lon="6.96964">
        <ele>2869.1</ele>
      </trkpt>
      <trkpt lat="44.84688" lon="6.96963">
        <ele>2869.1</ele>
      </trkpt>
      <trkpt lat="44.84688" lon="6.96963">
        <ele>2869.1</ele>
      </trkpt>
      <trkpt lat="44.84688" lon="6.96964">
        <ele>2869.1</ele>
      </trkpt>
      <trkpt lat="44.84688" lon="6.96964">
        <ele>2869.1</ele>
      </trkpt>
      <trkpt lat="44.84688" lon="6.96964">
        <ele>2869.1</ele>
      </trkpt>
      <trkpt lat="44.84688" lon="6.96964">
        <ele>2869.1</ele>
      </trkpt>
      <trkpt lat="44.84688" lon="6.96965">
        <ele>2869</ele>
      </trkpt>
      <trkpt lat="44.84688" lon="6.96966">
        <ele>2869</ele>
      </trkpt>
      <trkpt lat="44.84687" lon="6.96965">
        <ele>2868.6</ele>
      </trkpt>
    </trkseg>
  </trk>
  <trk>
    <name><![CDATA[Tour de la Lauze par le col et sommet de Querlaye]]></name>
    <extensions>
      <line xmlns="http://www.topografix.com/GPX/gpx_style/0/2">
        <color>0000FF</color>
        <width>4</width>
          <extensions>
            <sens>1</sens>
          </extensions>
      </line>
    </extensions>
    <trkseg>
      <trkpt lat="44.79141" lon="6.92702">
        <ele>1540</ele>
        <time>2011-04-05T06:14:05Z</time>
      </trkpt>
      <trkpt lat="44.79133" lon="6.92558">
        <ele>1556</ele>
        <time>2011-04-05T06:21:19Z</time>
      </trkpt>
      <trkpt lat="44.79171" lon="6.92363">
        <ele>1556.1</ele>
        <time>2011-04-05T06:24:27Z</time>
      </trkpt>
      <trkpt lat="44.79152" lon="6.92293">
        <ele>1567</ele>
        <time>2011-04-05T06:27:40Z</time>
      </trkpt>
      <trkpt lat="44.79128" lon="6.92236">
        <ele>1578.5</ele>
        <time>2011-04-05T06:28:54Z</time>
      </trkpt>
      <trkpt lat="44.79123" lon="6.92167">
        <ele>1581.4</ele>
        <time>2011-04-05T06:30:16Z</time>
      </trkpt>
      <trkpt lat="44.7908" lon="6.92188">
        <ele>1620.9</ele>
        <time>2011-04-05T06:31:56Z</time>
      </trkpt>
      <trkpt lat="44.79063" lon="6.92255">
        <ele>1629.6</ele>
        <time>2011-04-05T06:33:36Z</time>
      </trkpt>
      <trkpt lat="44.79071" lon="6.92326">
        <ele>1637.2</ele>
        <time>2011-04-05T06:34:23Z</time>
      </trkpt>
      <trkpt lat="44.7903" lon="6.92296">
        <ele>1663.5</ele>
        <time>2011-04-05T06:43:44Z</time>
      </trkpt>
      <trkpt lat="44.78997" lon="6.92345">
        <ele>1691.2</ele>
        <time>2011-04-05T06:45:08Z</time>
      </trkpt>
      <trkpt lat="44.78996" lon="6.92408">
        <ele>1693</ele>
        <time>2011-04-05T06:46:34Z</time>
      </trkpt>
      <trkpt lat="44.78952" lon="6.92444">
        <ele>1703.8</ele>
        <time>2011-04-05T06:48:32Z</time>
      </trkpt>
      <trkpt lat="44.78908" lon="6.92483">
        <ele>1708.9</ele>
        <time>2011-04-05T06:50:04Z</time>
      </trkpt>
      <trkpt lat="44.78872" lon="6.92438">
        <ele>1732.3</ele>
        <time>2011-04-05T06:52:06Z</time>
      </trkpt>
      <trkpt lat="44.78831" lon="6.92467">
        <ele>1740.1</ele>
        <time>2011-04-05T06:56:54Z</time>
      </trkpt>
      <trkpt lat="44.78786" lon="6.92471">
        <ele>1760.4</ele>
        <time>2011-04-05T06:58:24Z</time>
      </trkpt>
      <trkpt lat="44.78743" lon="6.92493">
        <ele>1773.1</ele>
        <time>2011-04-05T07:00:33Z</time>
      </trkpt>
      <trkpt lat="44.78699" lon="6.92505">
        <ele>1785.5</ele>
        <time>2011-04-05T07:01:42Z</time>
      </trkpt>
      <trkpt lat="44.78732" lon="6.92409">
        <ele>1811.5</ele>
        <time>2011-04-05T07:05:29Z</time>
      </trkpt>
      <trkpt lat="44.78736" lon="6.92347">
        <ele>1826.6</ele>
        <time>2011-04-05T07:06:59Z</time>
      </trkpt>
      <trkpt lat="44.78746" lon="6.92281">
        <ele>1832.3</ele>
        <time>2011-04-05T07:08:48Z</time>
      </trkpt>
      <trkpt lat="44.78745" lon="6.92214">
        <ele>1838.5</ele>
        <time>2011-04-05T07:09:41Z</time>
      </trkpt>
      <trkpt lat="44.78723" lon="6.92154">
        <ele>1852.5</ele>
        <time>2011-04-05T07:11:08Z</time>
      </trkpt>
      <trkpt lat="44.78682" lon="6.92123">
        <ele>1875.3</ele>
        <time>2011-04-05T07:13:36Z</time>
      </trkpt>
      <trkpt lat="44.78672" lon="6.92051">
        <ele>1884.7</ele>
        <time>2011-04-05T07:14:57Z</time>
      </trkpt>
      <trkpt lat="44.7865" lon="6.91984">
        <ele>1897.9</ele>
        <time>2011-04-05T07:16:50Z</time>
      </trkpt>
      <trkpt lat="44.7864" lon="6.91921">
        <ele>1902.7</ele>
        <time>2011-04-05T07:18:26Z</time>
      </trkpt>
      <trkpt lat="44.78611" lon="6.9186">
        <ele>1914.2</ele>
        <time>2011-04-05T07:22:27Z</time>
      </trkpt>
      <trkpt lat="44.78592" lon="6.91797">
        <ele>1924.6</ele>
        <time>2011-04-05T07:23:32Z</time>
      </trkpt>
      <trkpt lat="44.78538" lon="6.91738">
        <ele>1944.3</ele>
        <time>2011-04-05T07:25:43Z</time>
      </trkpt>
      <trkpt lat="44.78495" lon="6.91694">
        <ele>1958</ele>
        <time>2011-04-05T07:27:37Z</time>
      </trkpt>
      <trkpt lat="44.78468" lon="6.91644">
        <ele>1968.1</ele>
        <time>2011-04-05T07:29:55Z</time>
      </trkpt>
      <trkpt lat="44.78441" lon="6.91584">
        <ele>1981</ele>
        <time>2011-04-05T07:31:30Z</time>
      </trkpt>
      <trkpt lat="44.78426" lon="6.91515">
        <ele>1993</ele>
        <time>2011-04-05T07:32:54Z</time>
      </trkpt>
      <trkpt lat="44.78412" lon="6.91447">
        <ele>2008.6</ele>
        <time>2011-04-05T07:34:50Z</time>
      </trkpt>
      <trkpt lat="44.78392" lon="6.91358">
        <ele>2030.5</ele>
        <time>2011-04-05T07:36:47Z</time>
      </trkpt>
      <trkpt lat="44.78387" lon="6.91296">
        <ele>2042.7</ele>
        <time>2011-04-05T07:39:15Z</time>
      </trkpt>
      <trkpt lat="44.78369" lon="6.91221">
        <ele>2050.5</ele>
        <time>2011-04-05T07:40:31Z</time>
      </trkpt>
      <trkpt lat="44.78312" lon="6.91223">
        <ele>2081.7</ele>
        <time>2011-04-05T07:43:07Z</time>
      </trkpt>
      <trkpt lat="44.78303" lon="6.91285">
        <ele>2090.4</ele>
        <time>2011-04-05T07:44:47Z</time>
      </trkpt>
      <trkpt lat="44.78279" lon="6.91222">
        <ele>2098.3</ele>
        <time>2011-04-05T07:49:35Z</time>
      </trkpt>
      <trkpt lat="44.78246" lon="6.91159">
        <ele>2116.3</ele>
        <time>2011-04-05T07:52:34Z</time>
      </trkpt>
      <trkpt lat="44.78225" lon="6.91103">
        <ele>2130.4</ele>
        <time>2011-04-05T07:55:47Z</time>
      </trkpt>
      <trkpt lat="44.78199" lon="6.91045">
        <ele>2146.5</ele>
        <time>2011-04-05T07:57:45Z</time>
      </trkpt>
      <trkpt lat="44.7816" lon="6.91013">
        <ele>2165.7</ele>
        <time>2011-04-05T08:00:57Z</time>
      </trkpt>
      <trkpt lat="44.78116" lon="6.90972">
        <ele>2180.9</ele>
        <time>2011-04-05T08:03:12Z</time>
      </trkpt>
      <trkpt lat="44.78074" lon="6.91035">
        <ele>2205.4</ele>
        <time>2011-04-05T08:05:08Z</time>
      </trkpt>
      <trkpt lat="44.78013" lon="6.91031">
        <ele>2226.1</ele>
        <time>2011-04-05T08:08:52Z</time>
      </trkpt>
      <trkpt lat="44.77938" lon="6.91064">
        <ele>2259.1</ele>
        <time>2011-04-05T08:11:07Z</time>
      </trkpt>
      <trkpt lat="44.77902" lon="6.91113">
        <ele>2282</ele>
        <time>2011-04-05T08:13:23Z</time>
      </trkpt>
      <trkpt lat="44.77885" lon="6.91174">
        <ele>2295.9</ele>
        <time>2011-04-05T08:14:47Z</time>
      </trkpt>
      <trkpt lat="44.77841" lon="6.91185">
        <ele>2311.4</ele>
        <time>2011-04-05T08:16:49Z</time>
      </trkpt>
      <trkpt lat="44.77815" lon="6.9123">
        <ele>2318.7</ele>
        <time>2011-04-05T08:20:09Z</time>
      </trkpt>
      <trkpt lat="44.77766" lon="6.91207">
        <ele>2339</ele>
        <time>2011-04-05T08:23:40Z</time>
      </trkpt>
      <trkpt lat="44.77734" lon="6.91158">
        <ele>2357.9</ele>
        <time>2011-04-05T08:25:32Z</time>
      </trkpt>
      <trkpt lat="44.77685" lon="6.91116">
        <ele>2374.3</ele>
        <time>2011-04-05T08:27:36Z</time>
      </trkpt>
      <trkpt lat="44.7764" lon="6.91093">
        <ele>2385.9</ele>
        <time>2011-04-05T08:29:50Z</time>
      </trkpt>
      <trkpt lat="44.77589" lon="6.91094">
        <ele>2398.2</ele>
        <time>2011-04-05T08:31:30Z</time>
      </trkpt>
      <trkpt lat="44.77541" lon="6.91086">
        <ele>2403.8</ele>
        <time>2011-04-05T08:34:05Z</time>
      </trkpt>
      <trkpt lat="44.77442" lon="6.9106">
        <ele>2416.9</ele>
        <time>2011-04-05T08:36:20Z</time>
      </trkpt>
      <trkpt lat="44.77399" lon="6.91037">
        <ele>2430.9</ele>
        <time>2011-04-05T08:38:07Z</time>
      </trkpt>
      <trkpt lat="44.7735" lon="6.91038">
        <ele>2445.6</ele>
        <time>2011-04-05T08:39:43Z</time>
      </trkpt>
      <trkpt lat="44.77304" lon="6.91031">
        <ele>2457.3</ele>
        <time>2011-04-05T08:41:18Z</time>
      </trkpt>
      <trkpt lat="44.77253" lon="6.91007">
        <ele>2467</ele>
        <time>2011-04-05T08:42:42Z</time>
      </trkpt>
      <trkpt lat="44.77206" lon="6.90991">
        <ele>2477.8</ele>
        <time>2011-04-05T08:44:39Z</time>
      </trkpt>
      <trkpt lat="44.77168" lon="6.9095">
        <ele>2492.3</ele>
        <time>2011-04-05T08:46:15Z</time>
      </trkpt>
      <trkpt lat="44.77128" lon="6.9089">
        <ele>2512.4</ele>
        <time>2011-04-05T08:48:21Z</time>
      </trkpt>
      <trkpt lat="44.77094" lon="6.90847">
        <ele>2531.9</ele>
        <time>2011-04-05T08:50:55Z</time>
      </trkpt>
      <trkpt lat="44.77041" lon="6.90812">
        <ele>2547.6</ele>
        <time>2011-04-05T08:52:51Z</time>
      </trkpt>
      <trkpt lat="44.76992" lon="6.908">
        <ele>2560.9</ele>
        <time>2011-04-05T08:54:12Z</time>
      </trkpt>
      <trkpt lat="44.76957" lon="6.90769">
        <ele>2580.7</ele>
        <time>2011-04-05T08:56:33Z</time>
      </trkpt>
      <trkpt lat="44.7691" lon="6.90771">
        <ele>2587.4</ele>
        <time>2011-04-05T08:58:10Z</time>
      </trkpt>
      <trkpt lat="44.7692" lon="6.90773">
        <ele>2586.4</ele>
        <time>2011-04-05T09:03:39Z</time>
      </trkpt>
      <trkpt lat="44.7687" lon="6.90759">
        <ele>2584.1</ele>
        <time>2011-04-05T09:17:47Z</time>
      </trkpt>
      <trkpt lat="44.7681" lon="6.9072">
        <ele>2571.4</ele>
        <time>2011-04-05T09:18:04Z</time>
      </trkpt>
      <trkpt lat="44.76714" lon="6.90642">
        <ele>2564.3</ele>
        <time>2011-04-05T09:18:46Z</time>
      </trkpt>
      <trkpt lat="44.76671" lon="6.90613">
        <ele>2560</ele>
        <time>2011-04-05T09:19:29Z</time>
      </trkpt>
      <trkpt lat="44.76598" lon="6.90568">
        <ele>2544.5</ele>
        <time>2011-04-05T09:19:56Z</time>
      </trkpt>
      <trkpt lat="44.76547" lon="6.90564">
        <ele>2541.5</ele>
        <time>2011-04-05T09:21:31Z</time>
      </trkpt>
      <trkpt lat="44.76502" lon="6.90564">
        <ele>2537.9</ele>
        <time>2011-04-05T09:24:59Z</time>
      </trkpt>
      <trkpt lat="44.76448" lon="6.90557">
        <ele>2535</ele>
        <time>2011-04-05T09:25:37Z</time>
      </trkpt>
      <trkpt lat="44.76389" lon="6.90573">
        <ele>2534.4</ele>
        <time>2011-04-05T09:27:25Z</time>
      </trkpt>
      <trkpt lat="44.76343" lon="6.90596">
        <ele>2530.8</ele>
        <time>2011-04-05T09:28:19Z</time>
      </trkpt>
      <trkpt lat="44.7629" lon="6.90659">
        <ele>2535.8</ele>
        <time>2011-04-05T09:32:38Z</time>
      </trkpt>
      <trkpt lat="44.76242" lon="6.90657">
        <ele>2531.7</ele>
        <time>2011-04-05T09:34:00Z</time>
      </trkpt>
      <trkpt lat="44.76126" lon="6.90682">
        <ele>2526.4</ele>
        <time>2011-04-05T09:35:06Z</time>
      </trkpt>
      <trkpt lat="44.7605" lon="6.90717">
        <ele>2523.6</ele>
        <time>2011-04-05T09:35:44Z</time>
      </trkpt>
      <trkpt lat="44.75995" lon="6.90778">
        <ele>2520.3</ele>
        <time>2011-04-05T09:38:22Z</time>
      </trkpt>
      <trkpt lat="44.75929" lon="6.9083">
        <ele>2513.4</ele>
        <time>2011-04-05T09:38:50Z</time>
      </trkpt>
      <trkpt lat="44.75901" lon="6.90908">
        <ele>2511.3</ele>
        <time>2011-04-05T09:40:50Z</time>
      </trkpt>
      <trkpt lat="44.75852" lon="6.90977">
        <ele>2506.9</ele>
        <time>2011-04-05T09:41:21Z</time>
      </trkpt>
      <trkpt lat="44.75837" lon="6.91014">
        <ele>2508.7</ele>
        <time>2011-04-05T09:52:44Z</time>
      </trkpt>
      <trkpt lat="44.75868" lon="6.9106">
        <ele>2523.9</ele>
        <time>2011-04-05T09:57:06Z</time>
      </trkpt>
      <trkpt lat="44.75899" lon="6.9112">
        <ele>2542.8</ele>
        <time>2011-04-05T09:59:56Z</time>
      </trkpt>
      <trkpt lat="44.75927" lon="6.91175">
        <ele>2557.3</ele>
        <time>2011-04-05T10:01:54Z</time>
      </trkpt>
      <trkpt lat="44.75964" lon="6.91127">
        <ele>2574.4</ele>
        <time>2011-04-05T10:03:41Z</time>
      </trkpt>
      <trkpt lat="44.76014" lon="6.91107">
        <ele>2598</ele>
        <time>2011-04-05T10:06:50Z</time>
      </trkpt>
      <trkpt lat="44.76031" lon="6.91168">
        <ele>2619</ele>
        <time>2011-04-05T10:09:43Z</time>
      </trkpt>
      <trkpt lat="44.76078" lon="6.91161">
        <ele>2647.3</ele>
        <time>2011-04-05T10:14:47Z</time>
      </trkpt>
      <trkpt lat="44.76115" lon="6.91206">
        <ele>2675.7</ele>
        <time>2011-04-05T10:19:09Z</time>
      </trkpt>
      <trkpt lat="44.76168" lon="6.91179">
        <ele>2697</ele>
        <time>2011-04-05T10:22:33Z</time>
      </trkpt>
      <trkpt lat="44.7622" lon="6.91189">
        <ele>2711.7</ele>
        <time>2011-04-05T10:29:58Z</time>
      </trkpt>
      <trkpt lat="44.76186" lon="6.91253">
        <ele>2723.1</ele>
        <time>2011-04-05T10:32:02Z</time>
      </trkpt>
      <trkpt lat="44.76238" lon="6.91247">
        <ele>2735.8</ele>
        <time>2011-04-05T10:33:38Z</time>
      </trkpt>
      <trkpt lat="44.76215" lon="6.91308">
        <ele>2750</ele>
        <time>2011-04-05T10:35:44Z</time>
      </trkpt>
      <trkpt lat="44.7627" lon="6.91312">
        <ele>2766.7</ele>
        <time>2011-04-05T10:38:29Z</time>
      </trkpt>
      <trkpt lat="44.76245" lon="6.91365">
        <ele>2779.4</ele>
        <time>2011-04-05T10:40:04Z</time>
      </trkpt>
      <trkpt lat="44.7629" lon="6.91373">
        <ele>2796.3</ele>
        <time>2011-04-05T10:43:37Z</time>
      </trkpt>
      <trkpt lat="44.76268" lon="6.91435">
        <ele>2814.9</ele>
        <time>2011-04-05T10:46:20Z</time>
      </trkpt>
      <trkpt lat="44.76316" lon="6.91455">
        <ele>2836.3</ele>
        <time>2011-04-05T10:49:48Z</time>
      </trkpt>
      <trkpt lat="44.76365" lon="6.91455">
        <ele>2848.2</ele>
        <time>2011-04-05T10:51:43Z</time>
      </trkpt>
      <trkpt lat="44.76409" lon="6.91467">
        <ele>2861.7</ele>
        <time>2011-04-05T10:53:32Z</time>
      </trkpt>
      <trkpt lat="44.76461" lon="6.91475">
        <ele>2869.7</ele>
        <time>2011-04-05T10:55:39Z</time>
      </trkpt>
      <trkpt lat="44.76482" lon="6.91465">
        <ele>2865</ele>
        <time>2011-04-05T10:57:33Z</time>
      </trkpt>
      <trkpt lat="44.76447" lon="6.91517">
        <ele>2876</ele>
        <time>2011-04-05T10:59:44Z</time>
      </trkpt>
      <trkpt lat="44.76408" lon="6.91566">
        <ele>2885.1</ele>
        <time>2011-04-05T11:01:45Z</time>
      </trkpt>
      <trkpt lat="44.76359" lon="6.91605">
        <ele>2892.3</ele>
        <time>2011-04-05T11:02:59Z</time>
      </trkpt>
      <trkpt lat="44.76319" lon="6.91634">
        <ele>2896.1</ele>
        <time>2011-04-05T11:09:00Z</time>
      </trkpt>
      <trkpt lat="44.763" lon="6.91704">
        <ele>2884.3</ele>
        <time>2011-04-05T11:10:09Z</time>
      </trkpt>
      <trkpt lat="44.76272" lon="6.91724">
        <ele>2885.7</ele>
        <time>2011-04-05T11:12:00Z</time>
      </trkpt>
      <trkpt lat="44.76245" lon="6.91785">
        <ele>2872.3</ele>
        <time>2011-04-05T11:13:20Z</time>
      </trkpt>
      <trkpt lat="44.76216" lon="6.91844">
        <ele>2860.4</ele>
        <time>2011-04-05T11:14:01Z</time>
      </trkpt>
      <trkpt lat="44.76168" lon="6.91905">
        <ele>2841.7</ele>
        <time>2011-04-05T11:16:49Z</time>
      </trkpt>
      <trkpt lat="44.76156" lon="6.91948">
        <ele>2830.4</ele>
        <time>2011-04-05T11:19:30Z</time>
      </trkpt>
      <trkpt lat="44.76143" lon="6.91927">
        <ele>2834</ele>
        <time>2011-04-05T11:21:37Z</time>
      </trkpt>
      <trkpt lat="44.76142" lon="6.91929">
        <ele>2833.7</ele>
        <time>2011-04-05T11:24:45Z</time>
      </trkpt>
      <trkpt lat="44.76132" lon="6.92004">
        <ele>2826.4</ele>
        <time>2011-04-05T11:34:04Z</time>
      </trkpt>
      <trkpt lat="44.76115" lon="6.92076">
        <ele>2820.3</ele>
        <time>2011-04-05T11:35:04Z</time>
      </trkpt>
      <trkpt lat="44.76082" lon="6.92148">
        <ele>2837.3</ele>
        <time>2011-04-05T11:37:37Z</time>
      </trkpt>
      <trkpt lat="44.76046" lon="6.922">
        <ele>2845.8</ele>
        <time>2011-04-05T11:39:10Z</time>
      </trkpt>
      <trkpt lat="44.76008" lon="6.92231">
        <ele>2856.8</ele>
        <time>2011-04-05T11:40:36Z</time>
      </trkpt>
      <trkpt lat="44.76001" lon="6.9226">
        <ele>2860.2</ele>
        <time>2011-04-05T11:48:43Z</time>
      </trkpt>
      <trkpt lat="44.76" lon="6.92268">
        <ele>2858.4</ele>
        <time>2011-04-05T11:58:48Z</time>
      </trkpt>
      <trkpt lat="44.76014" lon="6.92328">
        <ele>2834.4</ele>
        <time>2011-04-05T12:00:54Z</time>
      </trkpt>
      <trkpt lat="44.76038" lon="6.92397">
        <ele>2812.6</ele>
        <time>2011-04-05T12:04:46Z</time>
      </trkpt>
      <trkpt lat="44.76065" lon="6.92451">
        <ele>2800.8</ele>
        <time>2011-04-05T12:06:36Z</time>
      </trkpt>
      <trkpt lat="44.76109" lon="6.92409">
        <ele>2775.9</ele>
        <time>2011-04-05T12:08:46Z</time>
      </trkpt>
      <trkpt lat="44.76129" lon="6.92349">
        <ele>2763.2</ele>
        <time>2011-04-05T12:09:20Z</time>
      </trkpt>
      <trkpt lat="44.76172" lon="6.92329">
        <ele>2737</ele>
        <time>2011-04-05T12:10:52Z</time>
      </trkpt>
      <trkpt lat="44.76224" lon="6.92309">
        <ele>2705</ele>
        <time>2011-04-05T12:11:51Z</time>
      </trkpt>
      <trkpt lat="44.76286" lon="6.92314">
        <ele>2668.2</ele>
        <time>2011-04-05T12:12:41Z</time>
      </trkpt>
      <trkpt lat="44.76339" lon="6.92311">
        <ele>2641.6</ele>
        <time>2011-04-05T12:12:54Z</time>
      </trkpt>
      <trkpt lat="44.76392" lon="6.92338">
        <ele>2620.5</ele>
        <time>2011-04-05T12:14:24Z</time>
      </trkpt>
      <trkpt lat="44.76411" lon="6.92268">
        <ele>2600.9</ele>
        <time>2011-04-05T12:17:06Z</time>
      </trkpt>
      <trkpt lat="44.76527" lon="6.92155">
        <ele>2548.2</ele>
        <time>2011-04-05T12:17:25Z</time>
      </trkpt>
      <trkpt lat="44.76572" lon="6.92133">
        <ele>2536.9</ele>
        <time>2011-04-05T12:17:32Z</time>
      </trkpt>
      <trkpt lat="44.7665" lon="6.92097">
        <ele>2524.2</ele>
        <time>2011-04-05T12:17:45Z</time>
      </trkpt>
      <trkpt lat="44.76695" lon="6.92053">
        <ele>2511.8</ele>
        <time>2011-04-05T12:18:55Z</time>
      </trkpt>
      <trkpt lat="44.7674" lon="6.92022">
        <ele>2503.8</ele>
        <time>2011-04-05T12:19:02Z</time>
      </trkpt>
      <trkpt lat="44.76785" lon="6.91983">
        <ele>2494.6</ele>
        <time>2011-04-05T12:19:19Z</time>
      </trkpt>
      <trkpt lat="44.76827" lon="6.91953">
        <ele>2472.8</ele>
        <time>2011-04-05T12:20:22Z</time>
      </trkpt>
      <trkpt lat="44.76875" lon="6.91926">
        <ele>2448.7</ele>
        <time>2011-04-05T12:20:30Z</time>
      </trkpt>
      <trkpt lat="44.76923" lon="6.91897">
        <ele>2429.8</ele>
        <time>2011-04-05T12:20:37Z</time>
      </trkpt>
      <trkpt lat="44.76975" lon="6.91873">
        <ele>2411.8</ele>
        <time>2011-04-05T12:20:50Z</time>
      </trkpt>
      <trkpt lat="44.77013" lon="6.9192">
        <ele>2392.2</ele>
        <time>2011-04-05T12:21:19Z</time>
      </trkpt>
      <trkpt lat="44.77076" lon="6.91898">
        <ele>2370.1</ele>
        <time>2011-04-05T12:21:28Z</time>
      </trkpt>
      <trkpt lat="44.77141" lon="6.91838">
        <ele>2353.1</ele>
        <time>2011-04-05T12:21:38Z</time>
      </trkpt>
      <trkpt lat="44.77211" lon="6.91799">
        <ele>2339</ele>
        <time>2011-04-05T12:21:47Z</time>
      </trkpt>
      <trkpt lat="44.77262" lon="6.91767">
        <ele>2320.5</ele>
        <time>2011-04-05T12:25:28Z</time>
      </trkpt>
      <trkpt lat="44.7731" lon="6.91733">
        <ele>2301.7</ele>
        <time>2011-04-05T12:25:40Z</time>
      </trkpt>
      <trkpt lat="44.77362" lon="6.91744">
        <ele>2291.8</ele>
        <time>2011-04-05T12:26:41Z</time>
      </trkpt>
      <trkpt lat="44.77412" lon="6.91745">
        <ele>2280.2</ele>
        <time>2011-04-05T12:27:13Z</time>
      </trkpt>
      <trkpt lat="44.77469" lon="6.91733">
        <ele>2262.8</ele>
        <time>2011-04-05T12:27:58Z</time>
      </trkpt>
      <trkpt lat="44.77523" lon="6.91681">
        <ele>2240.6</ele>
        <time>2011-04-05T12:28:18Z</time>
      </trkpt>
      <trkpt lat="44.77545" lon="6.91607">
        <ele>2221</ele>
        <time>2011-04-05T12:28:38Z</time>
      </trkpt>
      <trkpt lat="44.77595" lon="6.9157">
        <ele>2203.5</ele>
        <time>2011-04-05T12:30:15Z</time>
      </trkpt>
      <trkpt lat="44.77641" lon="6.91545">
        <ele>2191.7</ele>
        <time>2011-04-05T12:30:27Z</time>
      </trkpt>
      <trkpt lat="44.77718" lon="6.91555">
        <ele>2180.1</ele>
        <time>2011-04-05T12:30:42Z</time>
      </trkpt>
      <trkpt lat="44.77775" lon="6.91584">
        <ele>2171.7</ele>
        <time>2011-04-05T12:34:20Z</time>
      </trkpt>
      <trkpt lat="44.77817" lon="6.91605">
        <ele>2171.2</ele>
        <time>2011-04-05T12:35:02Z</time>
      </trkpt>
      <trkpt lat="44.77872" lon="6.91628">
        <ele>2169.4</ele>
        <time>2011-04-05T12:36:19Z</time>
      </trkpt>
      <trkpt lat="44.7794" lon="6.91675">
        <ele>2155.5</ele>
        <time>2011-04-05T12:37:08Z</time>
      </trkpt>
      <trkpt lat="44.78005" lon="6.9173">
        <ele>2131.9</ele>
        <time>2011-04-05T12:37:22Z</time>
      </trkpt>
      <trkpt lat="44.7805" lon="6.91747">
        <ele>2123.4</ele>
        <time>2011-04-05T12:39:05Z</time>
      </trkpt>
      <trkpt lat="44.781" lon="6.91756">
        <ele>2112.3</ele>
        <time>2011-04-05T12:39:34Z</time>
      </trkpt>
      <trkpt lat="44.78158" lon="6.91766">
        <ele>2097.3</ele>
        <time>2011-04-05T12:40:45Z</time>
      </trkpt>
      <trkpt lat="44.78219" lon="6.91799">
        <ele>2073.5</ele>
        <time>2011-04-05T12:41:14Z</time>
      </trkpt>
      <trkpt lat="44.78282" lon="6.91829">
        <ele>2051.7</ele>
        <time>2011-04-05T12:41:44Z</time>
      </trkpt>
      <trkpt lat="44.78313" lon="6.91866">
        <ele>2041.6</ele>
        <time>2011-04-05T12:42:06Z</time>
      </trkpt>
      <trkpt lat="44.78349" lon="6.91919">
        <ele>2027.5</ele>
        <time>2011-04-05T12:42:57Z</time>
      </trkpt>
      <trkpt lat="44.78397" lon="6.91933">
        <ele>2008</ele>
        <time>2011-04-05T12:43:29Z</time>
      </trkpt>
      <trkpt lat="44.78447" lon="6.91952">
        <ele>1984.8</ele>
        <time>2011-04-05T12:44:23Z</time>
      </trkpt>
      <trkpt lat="44.78461" lon="6.92015">
        <ele>1976</ele>
        <time>2011-04-05T12:44:47Z</time>
      </trkpt>
      <trkpt lat="44.78504" lon="6.92039">
        <ele>1953.6</ele>
        <time>2011-04-05T12:45:17Z</time>
      </trkpt>
      <trkpt lat="44.78558" lon="6.92064">
        <ele>1933.2</ele>
        <time>2011-04-05T12:45:40Z</time>
      </trkpt>
      <trkpt lat="44.78608" lon="6.92054">
        <ele>1915.1</ele>
        <time>2011-04-05T12:46:31Z</time>
      </trkpt>
      <trkpt lat="44.78652" lon="6.92081">
        <ele>1893.6</ele>
        <time>2011-04-05T12:46:57Z</time>
      </trkpt>
      <trkpt lat="44.78685" lon="6.92125">
        <ele>1873.9</ele>
        <time>2011-04-05T12:50:18Z</time>
      </trkpt>
      <trkpt lat="44.78722" lon="6.92182">
        <ele>1850.5</ele>
        <time>2011-04-05T12:50:34Z</time>
      </trkpt>
      <trkpt lat="44.78725" lon="6.92267">
        <ele>1841.3</ele>
        <time>2011-04-05T12:52:15Z</time>
      </trkpt>
      <trkpt lat="44.78729" lon="6.92353">
        <ele>1827.6</ele>
        <time>2011-04-05T12:52:30Z</time>
      </trkpt>
      <trkpt lat="44.7871" lon="6.92406">
        <ele>1820.4</ele>
        <time>2011-04-05T12:53:54Z</time>
      </trkpt>
      <trkpt lat="44.78696" lon="6.9247">
        <ele>1800.4</ele>
        <time>2011-04-05T12:54:12Z</time>
      </trkpt>
      <trkpt lat="44.78721" lon="6.92522">
        <ele>1770.9</ele>
        <time>2011-04-05T12:55:16Z</time>
      </trkpt>
      <trkpt lat="44.78766" lon="6.92507">
        <ele>1755.1</ele>
        <time>2011-04-05T12:56:56Z</time>
      </trkpt>
      <trkpt lat="44.78854" lon="6.92499">
        <ele>1720.4</ele>
        <time>2011-04-05T12:57:49Z</time>
      </trkpt>
      <trkpt lat="44.78915" lon="6.92504">
        <ele>1701.6</ele>
        <time>2011-04-05T12:58:09Z</time>
      </trkpt>
      <trkpt lat="44.78975" lon="6.92477">
        <ele>1692</ele>
        <time>2011-04-05T12:58:38Z</time>
      </trkpt>
      <trkpt lat="44.79021" lon="6.92433">
        <ele>1682.7</ele>
        <time>2011-04-05T12:59:23Z</time>
      </trkpt>
      <trkpt lat="44.79028" lon="6.92349">
        <ele>1669.4</ele>
        <time>2011-04-05T12:59:45Z</time>
      </trkpt>
      <trkpt lat="44.79057" lon="6.92295">
        <ele>1640.5</ele>
        <time>2011-04-05T13:00:26Z</time>
      </trkpt>
      <trkpt lat="44.79099" lon="6.9224">
        <ele>1603.4</ele>
        <time>2011-04-05T13:01:16Z</time>
      </trkpt>
      <trkpt lat="44.7915" lon="6.9229">
        <ele>1568.2</ele>
        <time>2011-04-05T13:02:44Z</time>
      </trkpt>
      <trkpt lat="44.79147" lon="6.92354">
        <ele>1576.9</ele>
        <time>2011-04-05T13:05:34Z</time>
      </trkpt>
      <trkpt lat="44.79122" lon="6.92536">
        <ele>1568</ele>
        <time>2011-04-05T13:06:09Z</time>
      </trkpt>
      <trkpt lat="44.79115" lon="6.92609">
        <ele>1560.9</ele>
        <time>2011-04-05T13:06:19Z</time>
      </trkpt>
      <trkpt lat="44.79108" lon="6.92673">
        <ele>1548.8</ele>
        <time>2011-04-05T13:06:30Z</time>
      </trkpt>
      <trkpt lat="44.79137" lon="6.92723">
        <ele>1540.1</ele>
        <time>2011-04-05T13:08:10Z</time>
      </trkpt>
    </trkseg>
  </trk>
  <trk>
    <name><![CDATA[2417 - Pic de Clausis (Abriès)]]></name>
    <extensions>
      <line xmlns="http://www.topografix.com/GPX/gpx_style/0/2">
        <color>008800</color>
        <width>4</width>
          <extensions>
            <sens>1</sens>
          </extensions>
      </line>
    </extensions>
    <trkseg>
      <trkpt lat="44.79547" lon="6.9261">
        <ele>1567.8</ele>
      </trkpt>
      <trkpt lat="44.79555" lon="6.92603">
        <ele>1571.7</ele>
      </trkpt>
      <trkpt lat="44.79558" lon="6.92598">
        <ele>1573.7</ele>
      </trkpt>
      <trkpt lat="44.79561" lon="6.9259">
        <ele>1576.5</ele>
      </trkpt>
      <trkpt lat="44.79564" lon="6.92573">
        <ele>1581.3</ele>
      </trkpt>
      <trkpt lat="44.79567" lon="6.92542">
        <ele>1589</ele>
      </trkpt>
      <trkpt lat="44.79568" lon="6.92522">
        <ele>1594.3</ele>
      </trkpt>
      <trkpt lat="44.7957" lon="6.92486">
        <ele>1604.7</ele>
      </trkpt>
      <trkpt lat="44.79572" lon="6.92457">
        <ele>1614.2</ele>
      </trkpt>
      <trkpt lat="44.79577" lon="6.92421">
        <ele>1626.5</ele>
      </trkpt>
      <trkpt lat="44.7958" lon="6.92398">
        <ele>1632</ele>
      </trkpt>
      <trkpt lat="44.7958" lon="6.92377">
        <ele>1636.5</ele>
      </trkpt>
      <trkpt lat="44.79578" lon="6.92353">
        <ele>1641.3</ele>
      </trkpt>
      <trkpt lat="44.79571" lon="6.92268">
        <ele>1653.4</ele>
      </trkpt>
      <trkpt lat="44.7957" lon="6.92244">
        <ele>1654</ele>
      </trkpt>
      <trkpt lat="44.79572" lon="6.92217">
        <ele>1653.4</ele>
      </trkpt>
      <trkpt lat="44.79576" lon="6.92181">
        <ele>1653.6</ele>
      </trkpt>
      <trkpt lat="44.79585" lon="6.92118">
        <ele>1654.9</ele>
      </trkpt>
      <trkpt lat="44.79589" lon="6.92097">
        <ele>1655.4</ele>
      </trkpt>
      <trkpt lat="44.79598" lon="6.92061">
        <ele>1656.2</ele>
      </trkpt>
      <trkpt lat="44.79608" lon="6.92027">
        <ele>1658.2</ele>
      </trkpt>
      <trkpt lat="44.79626" lon="6.9198">
        <ele>1668</ele>
      </trkpt>
      <trkpt lat="44.79644" lon="6.91933">
        <ele>1678.6</ele>
      </trkpt>
      <trkpt lat="44.79661" lon="6.91902">
        <ele>1685.7</ele>
      </trkpt>
      <trkpt lat="44.79681" lon="6.91869">
        <ele>1695.5</ele>
      </trkpt>
      <trkpt lat="44.79703" lon="6.91837">
        <ele>1703.7</ele>
      </trkpt>
      <trkpt lat="44.79743" lon="6.91783">
        <ele>1716.1</ele>
      </trkpt>
      <trkpt lat="44.79764" lon="6.91761">
        <ele>1723.9</ele>
      </trkpt>
      <trkpt lat="44.79785" lon="6.91742">
        <ele>1730.9</ele>
      </trkpt>
      <trkpt lat="44.79812" lon="6.91719">
        <ele>1739.5</ele>
      </trkpt>
      <trkpt lat="44.79841" lon="6.91698">
        <ele>1752.7</ele>
      </trkpt>
      <trkpt lat="44.79905" lon="6.91656">
        <ele>1784.2</ele>
      </trkpt>
      <trkpt lat="44.79922" lon="6.91646">
        <ele>1794.7</ele>
      </trkpt>
      <trkpt lat="44.80096" lon="6.91548">
        <ele>1907.3</ele>
      </trkpt>
      <trkpt lat="44.80115" lon="6.91534">
        <ele>1920.3</ele>
      </trkpt>
      <trkpt lat="44.80139" lon="6.91513">
        <ele>1936.3</ele>
      </trkpt>
      <trkpt lat="44.80147" lon="6.91502">
        <ele>1943.3</ele>
      </trkpt>
      <trkpt lat="44.80155" lon="6.91489">
        <ele>1949.8</ele>
      </trkpt>
      <trkpt lat="44.80162" lon="6.9147">
        <ele>1956.5</ele>
      </trkpt>
      <trkpt lat="44.80162" lon="6.91462">
        <ele>1958</ele>
      </trkpt>
      <trkpt lat="44.80161" lon="6.91451">
        <ele>1958.9</ele>
      </trkpt>
      <trkpt lat="44.80157" lon="6.91436">
        <ele>1959.3</ele>
      </trkpt>
      <trkpt lat="44.80152" lon="6.91421">
        <ele>1960.4</ele>
      </trkpt>
      <trkpt lat="44.8015" lon="6.91405">
        <ele>1962.5</ele>
      </trkpt>
      <trkpt lat="44.80146" lon="6.91363">
        <ele>1968.5</ele>
      </trkpt>
      <trkpt lat="44.8014" lon="6.91293">
        <ele>1974.6</ele>
      </trkpt>
      <trkpt lat="44.8014" lon="6.91255">
        <ele>1977.1</ele>
      </trkpt>
      <trkpt lat="44.80141" lon="6.91219">
        <ele>1981.1</ele>
      </trkpt>
      <trkpt lat="44.80144" lon="6.91181">
        <ele>1985.1</ele>
      </trkpt>
      <trkpt lat="44.80153" lon="6.91087">
        <ele>1995.2</ele>
      </trkpt>
      <trkpt lat="44.80152" lon="6.9106">
        <ele>1997.2</ele>
      </trkpt>
      <trkpt lat="44.80152" lon="6.91031">
        <ele>1999.7</ele>
      </trkpt>
      <trkpt lat="44.80154" lon="6.90974">
        <ele>2003.9</ele>
      </trkpt>
      <trkpt lat="44.80156" lon="6.90948">
        <ele>2007.3</ele>
      </trkpt>
      <trkpt lat="44.8016" lon="6.90926">
        <ele>2010.9</ele>
      </trkpt>
      <trkpt lat="44.80171" lon="6.90857">
        <ele>2019.2</ele>
      </trkpt>
      <trkpt lat="44.80173" lon="6.9083">
        <ele>2021.1</ele>
      </trkpt>
      <trkpt lat="44.80174" lon="6.908">
        <ele>2022.6</ele>
      </trkpt>
      <trkpt lat="44.80173" lon="6.90773">
        <ele>2026.5</ele>
      </trkpt>
      <trkpt lat="44.8017" lon="6.90719">
        <ele>2032.2</ele>
      </trkpt>
      <trkpt lat="44.80167" lon="6.90699">
        <ele>2034.3</ele>
      </trkpt>
      <trkpt lat="44.80161" lon="6.90645">
        <ele>2038.5</ele>
      </trkpt>
      <trkpt lat="44.80158" lon="6.90608">
        <ele>2041.9</ele>
      </trkpt>
      <trkpt lat="44.80158" lon="6.90577">
        <ele>2044.6</ele>
      </trkpt>
      <trkpt lat="44.80161" lon="6.90524">
        <ele>2048.2</ele>
      </trkpt>
      <trkpt lat="44.80165" lon="6.90497">
        <ele>2049.9</ele>
      </trkpt>
      <trkpt lat="44.80173" lon="6.90455">
        <ele>2052</ele>
      </trkpt>
      <trkpt lat="44.80178" lon="6.90436">
        <ele>2052.8</ele>
      </trkpt>
      <trkpt lat="44.80187" lon="6.9041">
        <ele>2054.4</ele>
      </trkpt>
      <trkpt lat="44.80199" lon="6.90382">
        <ele>2055.8</ele>
      </trkpt>
      <trkpt lat="44.80207" lon="6.90367">
        <ele>2056.2</ele>
      </trkpt>
      <trkpt lat="44.80219" lon="6.90352">
        <ele>2055.7</ele>
      </trkpt>
      <trkpt lat="44.8023" lon="6.90344">
        <ele>2056</ele>
      </trkpt>
      <trkpt lat="44.80248" lon="6.90333">
        <ele>2056.4</ele>
      </trkpt>
      <trkpt lat="44.80261" lon="6.90328">
        <ele>2056.6</ele>
      </trkpt>
      <trkpt lat="44.8028" lon="6.90326">
        <ele>2058</ele>
      </trkpt>
      <trkpt lat="44.80296" lon="6.90327">
        <ele>2060</ele>
      </trkpt>
      <trkpt lat="44.80327" lon="6.90329">
        <ele>2065.6</ele>
      </trkpt>
      <trkpt lat="44.80333" lon="6.90326">
        <ele>2066.2</ele>
      </trkpt>
      <trkpt lat="44.80345" lon="6.90318">
        <ele>2067.6</ele>
      </trkpt>
      <trkpt lat="44.80361" lon="6.90306">
        <ele>2068.9</ele>
      </trkpt>
      <trkpt lat="44.80366" lon="6.90304">
        <ele>2069.5</ele>
      </trkpt>
      <trkpt lat="44.80376" lon="6.90303">
        <ele>2071.1</ele>
      </trkpt>
      <trkpt lat="44.80417" lon="6.90301">
        <ele>2076.8</ele>
      </trkpt>
      <trkpt lat="44.80438" lon="6.90299">
        <ele>2078.6</ele>
      </trkpt>
      <trkpt lat="44.8045" lon="6.90302">
        <ele>2081.2</ele>
      </trkpt>
      <trkpt lat="44.80461" lon="6.90303">
        <ele>2083.3</ele>
      </trkpt>
      <trkpt lat="44.80465" lon="6.903">
        <ele>2083.6</ele>
      </trkpt>
      <trkpt lat="44.80473" lon="6.90292">
        <ele>2084.1</ele>
      </trkpt>
      <trkpt lat="44.80483" lon="6.90281">
        <ele>2085.5</ele>
      </trkpt>
      <trkpt lat="44.80495" lon="6.9027">
        <ele>2086.3</ele>
      </trkpt>
      <trkpt lat="44.80505" lon="6.90262">
        <ele>2086.6</ele>
      </trkpt>
      <trkpt lat="44.80517" lon="6.90256">
        <ele>2087.2</ele>
      </trkpt>
      <trkpt lat="44.80532" lon="6.9025">
        <ele>2088.3</ele>
      </trkpt>
      <trkpt lat="44.80533" lon="6.9025">
        <ele>2088.4</ele>
      </trkpt>
      <trkpt lat="44.80533" lon="6.9025">
        <ele>2088.4</ele>
      </trkpt>
      <trkpt lat="44.80555" lon="6.9025">
        <ele>2093.9</ele>
      </trkpt>
      <trkpt lat="44.80577" lon="6.90253">
        <ele>2101.1</ele>
      </trkpt>
      <trkpt lat="44.80618" lon="6.9026">
        <ele>2114.8</ele>
      </trkpt>
      <trkpt lat="44.80715" lon="6.90277">
        <ele>2156.4</ele>
      </trkpt>
      <trkpt lat="44.80771" lon="6.90288">
        <ele>2184.3</ele>
      </trkpt>
      <trkpt lat="44.80847" lon="6.90305">
        <ele>2224.7</ele>
      </trkpt>
      <trkpt lat="44.80964" lon="6.90335">
        <ele>2278.2</ele>
      </trkpt>
      <trkpt lat="44.81016" lon="6.90352">
        <ele>2301.7</ele>
      </trkpt>
      <trkpt lat="44.81083" lon="6.90377">
        <ele>2333.2</ele>
      </trkpt>
      <trkpt lat="44.81163" lon="6.9041">
        <ele>2359.2</ele>
      </trkpt>
      <trkpt lat="44.81312" lon="6.90474">
        <ele>2415</ele>
      </trkpt>
      <trkpt lat="44.81445" lon="6.90532">
        <ele>2447.9</ele>
      </trkpt>
      <trkpt lat="44.81512" lon="6.90556">
        <ele>2476</ele>
      </trkpt>
      <trkpt lat="44.81569" lon="6.90575">
        <ele>2497.1</ele>
      </trkpt>
      <trkpt lat="44.81671" lon="6.90606">
        <ele>2538.4</ele>
      </trkpt>
      <trkpt lat="44.81718" lon="6.90618">
        <ele>2553.6</ele>
      </trkpt>
      <trkpt lat="44.81765" lon="6.90626">
        <ele>2560.4</ele>
      </trkpt>
      <trkpt lat="44.81806" lon="6.90631">
        <ele>2562.9</ele>
      </trkpt>
      <trkpt lat="44.81846" lon="6.90634">
        <ele>2572.6</ele>
      </trkpt>
      <trkpt lat="44.81902" lon="6.90632">
        <ele>2583.9</ele>
      </trkpt>
      <trkpt lat="44.81978" lon="6.90627">
        <ele>2604.8</ele>
      </trkpt>
      <trkpt lat="44.8202" lon="6.90622">
        <ele>2611.1</ele>
      </trkpt>
      <trkpt lat="44.82143" lon="6.90597">
        <ele>2645.7</ele>
      </trkpt>
      <trkpt lat="44.82143" lon="6.90597">
        <ele>2645.7</ele>
      </trkpt>
      <trkpt lat="44.82255" lon="6.90563">
        <ele>2671.7</ele>
      </trkpt>
      <trkpt lat="44.8236" lon="6.90534">
        <ele>2690.5</ele>
      </trkpt>
      <trkpt lat="44.8246" lon="6.9051">
        <ele>2705.6</ele>
      </trkpt>
      <trkpt lat="44.82625" lon="6.90472">
        <ele>2708.6</ele>
      </trkpt>
      <trkpt lat="44.82658" lon="6.90467">
        <ele>2704.1</ele>
      </trkpt>
      <trkpt lat="44.82714" lon="6.90459">
        <ele>2692.1</ele>
      </trkpt>
      <trkpt lat="44.82779" lon="6.90453">
        <ele>2677.8</ele>
      </trkpt>
      <trkpt lat="44.82819" lon="6.90452">
        <ele>2674.4</ele>
      </trkpt>
      <trkpt lat="44.82872" lon="6.90453">
        <ele>2670</ele>
      </trkpt>
      <trkpt lat="44.82975" lon="6.90457">
        <ele>2651.2</ele>
      </trkpt>
      <trkpt lat="44.83014" lon="6.9046">
        <ele>2643.4</ele>
      </trkpt>
      <trkpt lat="44.83058" lon="6.90469">
        <ele>2643.4</ele>
      </trkpt>
      <trkpt lat="44.83094" lon="6.90478">
        <ele>2646.8</ele>
      </trkpt>
      <trkpt lat="44.83129" lon="6.90489">
        <ele>2648.2</ele>
      </trkpt>
      <trkpt lat="44.83172" lon="6.90508">
        <ele>2653.4</ele>
      </trkpt>
      <trkpt lat="44.83219" lon="6.90532">
        <ele>2669.2</ele>
      </trkpt>
      <trkpt lat="44.83254" lon="6.90551">
        <ele>2680.5</ele>
      </trkpt>
      <trkpt lat="44.83286" lon="6.90578">
        <ele>2693</ele>
      </trkpt>
      <trkpt lat="44.83314" lon="6.90605">
        <ele>2705.7</ele>
      </trkpt>
      <trkpt lat="44.83335" lon="6.90629">
        <ele>2718.6</ele>
      </trkpt>
      <trkpt lat="44.83371" lon="6.90673">
        <ele>2740.2</ele>
      </trkpt>
      <trkpt lat="44.83382" lon="6.90688">
        <ele>2749.6</ele>
      </trkpt>
      <trkpt lat="44.83408" lon="6.9073">
        <ele>2776.9</ele>
      </trkpt>
      <trkpt lat="44.83436" lon="6.90781">
        <ele>2805.3</ele>
      </trkpt>
      <trkpt lat="44.83453" lon="6.90814">
        <ele>2821.8</ele>
      </trkpt>
      <trkpt lat="44.83469" lon="6.90852">
        <ele>2837.2</ele>
      </trkpt>
      <trkpt lat="44.83496" lon="6.9092">
        <ele>2860.8</ele>
      </trkpt>
      <trkpt lat="44.83511" lon="6.90962">
        <ele>2876.8</ele>
      </trkpt>
      <trkpt lat="44.83521" lon="6.90997">
        <ele>2892.2</ele>
      </trkpt>
      <trkpt lat="44.83533" lon="6.91043">
        <ele>2905.7</ele>
      </trkpt>
      <trkpt lat="44.83539" lon="6.91068">
        <ele>2904.3</ele>
      </trkpt>
    </trkseg>
  </trk>
  <trk>
    <name><![CDATA[2427 - Bric Froid (Le Roux)]]></name>
    <extensions>
      <line xmlns="http://www.topografix.com/GPX/gpx_style/0/2">
        <color>880000</color>
        <width>4</width>
          <extensions>
            <sens>1</sens>
          </extensions>
      </line>
    </extensions>
    <trkseg>
      <trkpt lat="44.82121" lon="6.9437">
        <ele>1760.6</ele>
      </trkpt>
      <trkpt lat="44.82133" lon="6.94355">
        <ele>1762.2</ele>
      </trkpt>
      <trkpt lat="44.82146" lon="6.94343">
        <ele>1764.1</ele>
      </trkpt>
      <trkpt lat="44.82175" lon="6.94321">
        <ele>1765.7</ele>
      </trkpt>
      <trkpt lat="44.82198" lon="6.94308">
        <ele>1765.5</ele>
      </trkpt>
      <trkpt lat="44.82231" lon="6.9429">
        <ele>1765.5</ele>
      </trkpt>
      <trkpt lat="44.8225" lon="6.94273">
        <ele>1765.5</ele>
      </trkpt>
      <trkpt lat="44.82272" lon="6.94252">
        <ele>1765.9</ele>
      </trkpt>
      <trkpt lat="44.8229" lon="6.94243">
        <ele>1767.6</ele>
      </trkpt>
      <trkpt lat="44.82315" lon="6.94229">
        <ele>1770.1</ele>
      </trkpt>
      <trkpt lat="44.82328" lon="6.94219">
        <ele>1771.7</ele>
      </trkpt>
      <trkpt lat="44.8236" lon="6.94192">
        <ele>1775.2</ele>
      </trkpt>
      <trkpt lat="44.82374" lon="6.94185">
        <ele>1775.8</ele>
      </trkpt>
      <trkpt lat="44.82384" lon="6.94184">
        <ele>1777.1</ele>
      </trkpt>
      <trkpt lat="44.82417" lon="6.9418">
        <ele>1779.1</ele>
      </trkpt>
      <trkpt lat="44.82424" lon="6.94175">
        <ele>1779.2</ele>
      </trkpt>
      <trkpt lat="44.82434" lon="6.94166">
        <ele>1778.9</ele>
      </trkpt>
      <trkpt lat="44.82446" lon="6.94154">
        <ele>1778.9</ele>
      </trkpt>
      <trkpt lat="44.82458" lon="6.94147">
        <ele>1779</ele>
      </trkpt>
      <trkpt lat="44.82466" lon="6.94144">
        <ele>1780.2</ele>
      </trkpt>
      <trkpt lat="44.82482" lon="6.94143">
        <ele>1781.5</ele>
      </trkpt>
      <trkpt lat="44.82491" lon="6.94144">
        <ele>1782.9</ele>
      </trkpt>
      <trkpt lat="44.82498" lon="6.94148">
        <ele>1785.2</ele>
      </trkpt>
      <trkpt lat="44.82511" lon="6.94159">
        <ele>1789.7</ele>
      </trkpt>
      <trkpt lat="44.82522" lon="6.94167">
        <ele>1791.6</ele>
      </trkpt>
      <trkpt lat="44.82529" lon="6.94167">
        <ele>1791.5</ele>
      </trkpt>
      <trkpt lat="44.82535" lon="6.94166">
        <ele>1792</ele>
      </trkpt>
      <trkpt lat="44.8255" lon="6.9416">
        <ele>1792.4</ele>
      </trkpt>
      <trkpt lat="44.82576" lon="6.9415">
        <ele>1793.9</ele>
      </trkpt>
      <trkpt lat="44.82588" lon="6.9415">
        <ele>1795.5</ele>
      </trkpt>
      <trkpt lat="44.82611" lon="6.94152">
        <ele>1797.1</ele>
      </trkpt>
      <trkpt lat="44.82649" lon="6.94158">
        <ele>1799.4</ele>
      </trkpt>
      <trkpt lat="44.82666" lon="6.94158">
        <ele>1800.8</ele>
      </trkpt>
      <trkpt lat="44.82678" lon="6.94155">
        <ele>1801.8</ele>
      </trkpt>
      <trkpt lat="44.82687" lon="6.94149">
        <ele>1801.8</ele>
      </trkpt>
      <trkpt lat="44.82694" lon="6.94141">
        <ele>1801.3</ele>
      </trkpt>
      <trkpt lat="44.82705" lon="6.94129">
        <ele>1801</ele>
      </trkpt>
      <trkpt lat="44.82705" lon="6.94129">
        <ele>1801</ele>
      </trkpt>
      <trkpt lat="44.82724" lon="6.94115">
        <ele>1802.5</ele>
      </trkpt>
      <trkpt lat="44.82743" lon="6.94104">
        <ele>1803.9</ele>
      </trkpt>
      <trkpt lat="44.82755" lon="6.94101">
        <ele>1805.6</ele>
      </trkpt>
      <trkpt lat="44.82779" lon="6.94098">
        <ele>1809</ele>
      </trkpt>
      <trkpt lat="44.82801" lon="6.94095">
        <ele>1811.6</ele>
      </trkpt>
      <trkpt lat="44.82843" lon="6.94089">
        <ele>1813.8</ele>
      </trkpt>
      <trkpt lat="44.82868" lon="6.9409">
        <ele>1813.4</ele>
      </trkpt>
      <trkpt lat="44.82888" lon="6.9409">
        <ele>1814</ele>
      </trkpt>
      <trkpt lat="44.82974" lon="6.94086">
        <ele>1819</ele>
      </trkpt>
      <trkpt lat="44.83023" lon="6.94088">
        <ele>1822.6</ele>
      </trkpt>
      <trkpt lat="44.83083" lon="6.9409">
        <ele>1828.1</ele>
      </trkpt>
      <trkpt lat="44.831" lon="6.94087">
        <ele>1829.2</ele>
      </trkpt>
      <trkpt lat="44.83122" lon="6.94081">
        <ele>1829.9</ele>
      </trkpt>
      <trkpt lat="44.83136" lon="6.94074">
        <ele>1830.1</ele>
      </trkpt>
      <trkpt lat="44.8315" lon="6.94068">
        <ele>1830.3</ele>
      </trkpt>
      <trkpt lat="44.83165" lon="6.94064">
        <ele>1831.5</ele>
      </trkpt>
      <trkpt lat="44.83197" lon="6.94058">
        <ele>1832.9</ele>
      </trkpt>
      <trkpt lat="44.83225" lon="6.94053">
        <ele>1833.4</ele>
      </trkpt>
      <trkpt lat="44.83247" lon="6.94045">
        <ele>1833.6</ele>
      </trkpt>
      <trkpt lat="44.83262" lon="6.94041">
        <ele>1832.4</ele>
      </trkpt>
      <trkpt lat="44.83284" lon="6.94039">
        <ele>1831</ele>
      </trkpt>
      <trkpt lat="44.83297" lon="6.9404">
        <ele>1830.9</ele>
      </trkpt>
      <trkpt lat="44.83302" lon="6.94042">
        <ele>1831.4</ele>
      </trkpt>
      <trkpt lat="44.8331" lon="6.94048">
        <ele>1832.6</ele>
      </trkpt>
      <trkpt lat="44.83348" lon="6.94076">
        <ele>1836.5</ele>
      </trkpt>
      <trkpt lat="44.83358" lon="6.9408">
        <ele>1836.3</ele>
      </trkpt>
      <trkpt lat="44.8337" lon="6.94082">
        <ele>1835.3</ele>
      </trkpt>
      <trkpt lat="44.83393" lon="6.94083">
        <ele>1832.8</ele>
      </trkpt>
      <trkpt lat="44.83472" lon="6.94088">
        <ele>1834.6</ele>
      </trkpt>
      <trkpt lat="44.83496" lon="6.94094">
        <ele>1836.5</ele>
      </trkpt>
      <trkpt lat="44.83513" lon="6.94101">
        <ele>1837.3</ele>
      </trkpt>
      <trkpt lat="44.83529" lon="6.94111">
        <ele>1836.9</ele>
      </trkpt>
      <trkpt lat="44.83572" lon="6.94136">
        <ele>1841.1</ele>
      </trkpt>
      <trkpt lat="44.83584" lon="6.94139">
        <ele>1842.2</ele>
      </trkpt>
      <trkpt lat="44.83585" lon="6.94139">
        <ele>1842.5</ele>
      </trkpt>
      <trkpt lat="44.83585" lon="6.94139">
        <ele>1842.5</ele>
      </trkpt>
      <trkpt lat="44.83612" lon="6.94149">
        <ele>1850.4</ele>
      </trkpt>
      <trkpt lat="44.8363" lon="6.94158">
        <ele>1855.9</ele>
      </trkpt>
      <trkpt lat="44.83641" lon="6.94166">
        <ele>1858.6</ele>
      </trkpt>
      <trkpt lat="44.83647" lon="6.94175">
        <ele>1861</ele>
      </trkpt>
      <trkpt lat="44.83655" lon="6.94188">
        <ele>1864.3</ele>
      </trkpt>
      <trkpt lat="44.83662" lon="6.94205">
        <ele>1870.2</ele>
      </trkpt>
      <trkpt lat="44.83668" lon="6.9422">
        <ele>1876.1</ele>
      </trkpt>
      <trkpt lat="44.83668" lon="6.9422">
        <ele>1876.1</ele>
      </trkpt>
      <trkpt lat="44.83681" lon="6.94258">
        <ele>1890.1</ele>
      </trkpt>
      <trkpt lat="44.8369" lon="6.94281">
        <ele>1898.8</ele>
      </trkpt>
      <trkpt lat="44.83697" lon="6.94293">
        <ele>1903.1</ele>
      </trkpt>
      <trkpt lat="44.83714" lon="6.94318">
        <ele>1914.8</ele>
      </trkpt>
      <trkpt lat="44.83728" lon="6.94335">
        <ele>1923.7</ele>
      </trkpt>
      <trkpt lat="44.83742" lon="6.94345">
        <ele>1931.1</ele>
      </trkpt>
      <trkpt lat="44.8376" lon="6.94353">
        <ele>1939.2</ele>
      </trkpt>
      <trkpt lat="44.83787" lon="6.94362">
        <ele>1950.9</ele>
      </trkpt>
      <trkpt lat="44.8382" lon="6.94371">
        <ele>1968</ele>
      </trkpt>
      <trkpt lat="44.83855" lon="6.94376">
        <ele>1984.1</ele>
      </trkpt>
      <trkpt lat="44.83904" lon="6.94381">
        <ele>2010.5</ele>
      </trkpt>
      <trkpt lat="44.84008" lon="6.9439">
        <ele>2075.8</ele>
      </trkpt>
      <trkpt lat="44.84033" lon="6.94397">
        <ele>2093.2</ele>
      </trkpt>
      <trkpt lat="44.84059" lon="6.94406">
        <ele>2109.8</ele>
      </trkpt>
      <trkpt lat="44.84097" lon="6.94427">
        <ele>2132.6</ele>
      </trkpt>
      <trkpt lat="44.84141" lon="6.94453">
        <ele>2157.5</ele>
      </trkpt>
      <trkpt lat="44.84175" lon="6.94476">
        <ele>2177.4</ele>
      </trkpt>
      <trkpt lat="44.84394" lon="6.94655">
        <ele>2279.1</ele>
      </trkpt>
      <trkpt lat="44.84557" lon="6.94788">
        <ele>2335</ele>
      </trkpt>
      <trkpt lat="44.84557" lon="6.94788">
        <ele>2335</ele>
      </trkpt>
      <trkpt lat="44.84614" lon="6.94829">
        <ele>2349.8</ele>
      </trkpt>
      <trkpt lat="44.84658" lon="6.94857">
        <ele>2362.5</ele>
      </trkpt>
      <trkpt lat="44.84689" lon="6.94873">
        <ele>2371.8</ele>
      </trkpt>
      <trkpt lat="44.84728" lon="6.9489">
        <ele>2383.4</ele>
      </trkpt>
      <trkpt lat="44.84745" lon="6.94895">
        <ele>2388.2</ele>
      </trkpt>
      <trkpt lat="44.8476" lon="6.94894">
        <ele>2390.8</ele>
      </trkpt>
      <trkpt lat="44.84776" lon="6.94889">
        <ele>2392.7</ele>
      </trkpt>
      <trkpt lat="44.84787" lon="6.94884">
        <ele>2393.1</ele>
      </trkpt>
      <trkpt lat="44.84813" lon="6.94868">
        <ele>2393.3</ele>
      </trkpt>
      <trkpt lat="44.84835" lon="6.94852">
        <ele>2394.5</ele>
      </trkpt>
      <trkpt lat="44.8485" lon="6.94835">
        <ele>2395.8</ele>
      </trkpt>
      <trkpt lat="44.84866" lon="6.94814">
        <ele>2399.6</ele>
      </trkpt>
      <trkpt lat="44.84877" lon="6.94797">
        <ele>2402.4</ele>
      </trkpt>
      <trkpt lat="44.84904" lon="6.94748">
        <ele>2413</ele>
      </trkpt>
      <trkpt lat="44.84922" lon="6.94712">
        <ele>2419.8</ele>
      </trkpt>
      <trkpt lat="44.84943" lon="6.94663">
        <ele>2427.6</ele>
      </trkpt>
      <trkpt lat="44.84959" lon="6.9462">
        <ele>2439.2</ele>
      </trkpt>
      <trkpt lat="44.84981" lon="6.94557">
        <ele>2462.9</ele>
      </trkpt>
      <trkpt lat="44.84995" lon="6.94515">
        <ele>2486.6</ele>
      </trkpt>
      <trkpt lat="44.85007" lon="6.94484">
        <ele>2503.3</ele>
      </trkpt>
      <trkpt lat="44.85023" lon="6.94448">
        <ele>2517.8</ele>
      </trkpt>
      <trkpt lat="44.85037" lon="6.94423">
        <ele>2526.6</ele>
      </trkpt>
      <trkpt lat="44.85052" lon="6.94402">
        <ele>2535.2</ele>
      </trkpt>
      <trkpt lat="44.85071" lon="6.94374">
        <ele>2544.9</ele>
      </trkpt>
      <trkpt lat="44.85104" lon="6.94335">
        <ele>2549.8</ele>
      </trkpt>
      <trkpt lat="44.85205" lon="6.94221">
        <ele>2555</ele>
      </trkpt>
      <trkpt lat="44.8529" lon="6.94126">
        <ele>2565.2</ele>
      </trkpt>
      <trkpt lat="44.8529" lon="6.94126">
        <ele>2565.2</ele>
      </trkpt>
      <trkpt lat="44.85328" lon="6.94076">
        <ele>2575.4</ele>
      </trkpt>
      <trkpt lat="44.8536" lon="6.94031">
        <ele>2580</ele>
      </trkpt>
      <trkpt lat="44.85388" lon="6.93985">
        <ele>2580.7</ele>
      </trkpt>
      <trkpt lat="44.85416" lon="6.93936">
        <ele>2587.7</ele>
      </trkpt>
      <trkpt lat="44.85432" lon="6.93901">
        <ele>2594.5</ele>
      </trkpt>
      <trkpt lat="44.85448" lon="6.93859">
        <ele>2602</ele>
      </trkpt>
      <trkpt lat="44.85469" lon="6.93801">
        <ele>2621.4</ele>
      </trkpt>
      <trkpt lat="44.85478" lon="6.93763">
        <ele>2633.4</ele>
      </trkpt>
      <trkpt lat="44.85488" lon="6.93715">
        <ele>2644.8</ele>
      </trkpt>
      <trkpt lat="44.85498" lon="6.9365">
        <ele>2667.3</ele>
      </trkpt>
      <trkpt lat="44.85503" lon="6.93603">
        <ele>2674.8</ele>
      </trkpt>
      <trkpt lat="44.85507" lon="6.9354">
        <ele>2666.8</ele>
      </trkpt>
      <trkpt lat="44.8551" lon="6.93443">
        <ele>2666.2</ele>
      </trkpt>
      <trkpt lat="44.85512" lon="6.93382">
        <ele>2673.8</ele>
      </trkpt>
      <trkpt lat="44.85515" lon="6.93345">
        <ele>2678.5</ele>
      </trkpt>
      <trkpt lat="44.85521" lon="6.93294">
        <ele>2686</ele>
      </trkpt>
      <trkpt lat="44.85526" lon="6.93274">
        <ele>2690.3</ele>
      </trkpt>
      <trkpt lat="44.85531" lon="6.93259">
        <ele>2695.6</ele>
      </trkpt>
      <trkpt lat="44.8554" lon="6.93243">
        <ele>2702.9</ele>
      </trkpt>
      <trkpt lat="44.85546" lon="6.93237">
        <ele>2707.5</ele>
      </trkpt>
      <trkpt lat="44.85556" lon="6.93232">
        <ele>2714.8</ele>
      </trkpt>
      <trkpt lat="44.8557" lon="6.93227">
        <ele>2725.6</ele>
      </trkpt>
      <trkpt lat="44.85593" lon="6.93222">
        <ele>2743.4</ele>
      </trkpt>
      <trkpt lat="44.85611" lon="6.93218">
        <ele>2758</ele>
      </trkpt>
      <trkpt lat="44.85611" lon="6.93218">
        <ele>2758</ele>
      </trkpt>
      <trkpt lat="44.85654" lon="6.9321">
        <ele>2794</ele>
      </trkpt>
      <trkpt lat="44.85682" lon="6.93202">
        <ele>2814.6</ele>
      </trkpt>
      <trkpt lat="44.85708" lon="6.93193">
        <ele>2830.5</ele>
      </trkpt>
      <trkpt lat="44.85734" lon="6.9318">
        <ele>2844.1</ele>
      </trkpt>
      <trkpt lat="44.85824" lon="6.93133">
        <ele>2894.2</ele>
      </trkpt>
      <trkpt lat="44.85858" lon="6.9312">
        <ele>2915.2</ele>
      </trkpt>
      <trkpt lat="44.85882" lon="6.93113">
        <ele>2931.6</ele>
      </trkpt>
      <trkpt lat="44.85916" lon="6.93108">
        <ele>2954.3</ele>
      </trkpt>
      <trkpt lat="44.85935" lon="6.93106">
        <ele>2967.2</ele>
      </trkpt>
      <trkpt lat="44.85955" lon="6.93108">
        <ele>2980.5</ele>
      </trkpt>
      <trkpt lat="44.85979" lon="6.93112">
        <ele>2996</ele>
      </trkpt>
      <trkpt lat="44.86008" lon="6.93119">
        <ele>3014.9</ele>
      </trkpt>
      <trkpt lat="44.86064" lon="6.93133">
        <ele>3053.5</ele>
      </trkpt>
      <trkpt lat="44.86111" lon="6.93143">
        <ele>3085.2</ele>
      </trkpt>
      <trkpt lat="44.86132" lon="6.93145">
        <ele>3100.1</ele>
      </trkpt>
      <trkpt lat="44.86154" lon="6.93145">
        <ele>3118.3</ele>
      </trkpt>
      <trkpt lat="44.86164" lon="6.93142">
        <ele>3126.9</ele>
      </trkpt>
      <trkpt lat="44.86173" lon="6.93137">
        <ele>3135.2</ele>
      </trkpt>
      <trkpt lat="44.86207" lon="6.93119">
        <ele>3168.7</ele>
      </trkpt>
      <trkpt lat="44.86217" lon="6.93119">
        <ele>3178</ele>
      </trkpt>
      <trkpt lat="44.86223" lon="6.93124">
        <ele>3183.3</ele>
      </trkpt>
      <trkpt lat="44.86227" lon="6.9313">
        <ele>3187.2</ele>
      </trkpt>
      <trkpt lat="44.86233" lon="6.93142">
        <ele>3191.7</ele>
      </trkpt>
      <trkpt lat="44.86246" lon="6.93172">
        <ele>3201.4</ele>
      </trkpt>
      <trkpt lat="44.86254" lon="6.93189">
        <ele>3208.2</ele>
      </trkpt>
      <trkpt lat="44.8626" lon="6.93198">
        <ele>3212.4</ele>
      </trkpt>
      <trkpt lat="44.8627" lon="6.93208">
        <ele>3218.8</ele>
      </trkpt>
      <trkpt lat="44.86276" lon="6.93211">
        <ele>3222.2</ele>
      </trkpt>
      <trkpt lat="44.86281" lon="6.9321">
        <ele>3225.6</ele>
      </trkpt>
      <trkpt lat="44.86286" lon="6.93207">
        <ele>3228.7</ele>
      </trkpt>
      <trkpt lat="44.86295" lon="6.93199">
        <ele>3237.3</ele>
      </trkpt>
      <trkpt lat="44.86303" lon="6.93189">
        <ele>3246.4</ele>
      </trkpt>
      <trkpt lat="44.86323" lon="6.93164">
        <ele>3264.3</ele>
      </trkpt>
      <trkpt lat="44.86331" lon="6.93157">
        <ele>3270.5</ele>
      </trkpt>
      <trkpt lat="44.86341" lon="6.93151">
        <ele>3278</ele>
      </trkpt>
      <trkpt lat="44.86357" lon="6.93146">
        <ele>3291.7</ele>
      </trkpt>
      <trkpt lat="44.86372" lon="6.93144">
        <ele>3295.9</ele>
      </trkpt>
      <trkpt lat="44.86412" lon="6.93141">
        <ele>3295.8</ele>
      </trkpt>
    </trkseg>
  </trk>
  <trk>
    <name><![CDATA[2440 - Col Vieux (Le Roux)]]></name>
    <extensions>
      <line xmlns="http://www.topografix.com/GPX/gpx_style/0/2">
        <color>008888</color>
        <width>4</width>
          <extensions>
            <sens>1</sens>
          </extensions>
      </line>
    </extensions>
    <trkseg>
      <trkpt lat="44.82121" lon="6.9437">
        <ele>1760.6</ele>
      </trkpt>
      <trkpt lat="44.82133" lon="6.94355">
        <ele>1762.2</ele>
      </trkpt>
      <trkpt lat="44.82146" lon="6.94343">
        <ele>1764.1</ele>
      </trkpt>
      <trkpt lat="44.82175" lon="6.94321">
        <ele>1765.7</ele>
      </trkpt>
      <trkpt lat="44.82198" lon="6.94308">
        <ele>1765.5</ele>
      </trkpt>
      <trkpt lat="44.82231" lon="6.9429">
        <ele>1765.5</ele>
      </trkpt>
      <trkpt lat="44.8225" lon="6.94273">
        <ele>1765.5</ele>
      </trkpt>
      <trkpt lat="44.82272" lon="6.94252">
        <ele>1765.9</ele>
      </trkpt>
      <trkpt lat="44.8229" lon="6.94243">
        <ele>1767.6</ele>
      </trkpt>
      <trkpt lat="44.82315" lon="6.94229">
        <ele>1770.1</ele>
      </trkpt>
      <trkpt lat="44.82328" lon="6.94219">
        <ele>1771.7</ele>
      </trkpt>
      <trkpt lat="44.8236" lon="6.94192">
        <ele>1775.2</ele>
      </trkpt>
      <trkpt lat="44.82374" lon="6.94185">
        <ele>1775.8</ele>
      </trkpt>
      <trkpt lat="44.82384" lon="6.94184">
        <ele>1777.1</ele>
      </trkpt>
      <trkpt lat="44.82417" lon="6.9418">
        <ele>1779.1</ele>
      </trkpt>
      <trkpt lat="44.82424" lon="6.94175">
        <ele>1779.2</ele>
      </trkpt>
      <trkpt lat="44.82434" lon="6.94166">
        <ele>1778.9</ele>
      </trkpt>
      <trkpt lat="44.82446" lon="6.94154">
        <ele>1778.9</ele>
      </trkpt>
      <trkpt lat="44.82458" lon="6.94147">
        <ele>1779</ele>
      </trkpt>
      <trkpt lat="44.82466" lon="6.94144">
        <ele>1780.2</ele>
      </trkpt>
      <trkpt lat="44.82482" lon="6.94143">
        <ele>1781.5</ele>
      </trkpt>
      <trkpt lat="44.82491" lon="6.94144">
        <ele>1782.9</ele>
      </trkpt>
      <trkpt lat="44.82498" lon="6.94148">
        <ele>1785.2</ele>
      </trkpt>
      <trkpt lat="44.82511" lon="6.94159">
        <ele>1789.7</ele>
      </trkpt>
      <trkpt lat="44.82522" lon="6.94167">
        <ele>1791.6</ele>
      </trkpt>
      <trkpt lat="44.82529" lon="6.94167">
        <ele>1791.5</ele>
      </trkpt>
      <trkpt lat="44.82535" lon="6.94166">
        <ele>1792</ele>
      </trkpt>
      <trkpt lat="44.8255" lon="6.9416">
        <ele>1792.4</ele>
      </trkpt>
      <trkpt lat="44.82576" lon="6.9415">
        <ele>1793.9</ele>
      </trkpt>
      <trkpt lat="44.82588" lon="6.9415">
        <ele>1795.5</ele>
      </trkpt>
      <trkpt lat="44.82611" lon="6.94152">
        <ele>1797.1</ele>
      </trkpt>
      <trkpt lat="44.82649" lon="6.94158">
        <ele>1799.4</ele>
      </trkpt>
      <trkpt lat="44.82666" lon="6.94158">
        <ele>1800.8</ele>
      </trkpt>
      <trkpt lat="44.82678" lon="6.94155">
        <ele>1801.8</ele>
      </trkpt>
      <trkpt lat="44.82687" lon="6.94149">
        <ele>1801.8</ele>
      </trkpt>
      <trkpt lat="44.82694" lon="6.94141">
        <ele>1801.3</ele>
      </trkpt>
      <trkpt lat="44.82705" lon="6.94129">
        <ele>1801</ele>
      </trkpt>
      <trkpt lat="44.82705" lon="6.94129">
        <ele>1801</ele>
      </trkpt>
      <trkpt lat="44.82719" lon="6.94124">
        <ele>1803.5</ele>
      </trkpt>
      <trkpt lat="44.82754" lon="6.94114">
        <ele>1809.4</ele>
      </trkpt>
      <trkpt lat="44.82761" lon="6.94112">
        <ele>1810.3</ele>
      </trkpt>
      <trkpt lat="44.82771" lon="6.94113">
        <ele>1812.3</ele>
      </trkpt>
      <trkpt lat="44.8278" lon="6.94117">
        <ele>1815</ele>
      </trkpt>
      <trkpt lat="44.82807" lon="6.94131">
        <ele>1821.4</ele>
      </trkpt>
      <trkpt lat="44.8285" lon="6.94152">
        <ele>1831.2</ele>
      </trkpt>
      <trkpt lat="44.82859" lon="6.94153">
        <ele>1832.5</ele>
      </trkpt>
      <trkpt lat="44.82864" lon="6.94152">
        <ele>1832.6</ele>
      </trkpt>
      <trkpt lat="44.82875" lon="6.94147">
        <ele>1832.4</ele>
      </trkpt>
      <trkpt lat="44.82913" lon="6.94131">
        <ele>1832.2</ele>
      </trkpt>
      <trkpt lat="44.82918" lon="6.94132">
        <ele>1833.2</ele>
      </trkpt>
      <trkpt lat="44.82927" lon="6.94135">
        <ele>1835.7</ele>
      </trkpt>
      <trkpt lat="44.82962" lon="6.9415">
        <ele>1845.2</ele>
      </trkpt>
      <trkpt lat="44.83003" lon="6.94161">
        <ele>1853.4</ele>
      </trkpt>
      <trkpt lat="44.83075" lon="6.94183">
        <ele>1869.1</ele>
      </trkpt>
      <trkpt lat="44.83108" lon="6.94189">
        <ele>1875.2</ele>
      </trkpt>
      <trkpt lat="44.83126" lon="6.94193">
        <ele>1878</ele>
      </trkpt>
      <trkpt lat="44.83147" lon="6.94198">
        <ele>1881.2</ele>
      </trkpt>
      <trkpt lat="44.83195" lon="6.94204">
        <ele>1885.6</ele>
      </trkpt>
      <trkpt lat="44.83209" lon="6.94209">
        <ele>1887.9</ele>
      </trkpt>
      <trkpt lat="44.83232" lon="6.9422">
        <ele>1892.3</ele>
      </trkpt>
      <trkpt lat="44.83254" lon="6.94231">
        <ele>1896.4</ele>
      </trkpt>
      <trkpt lat="44.83271" lon="6.94236">
        <ele>1897.9</ele>
      </trkpt>
      <trkpt lat="44.83309" lon="6.94247">
        <ele>1901.4</ele>
      </trkpt>
      <trkpt lat="44.83337" lon="6.94254">
        <ele>1903.5</ele>
      </trkpt>
      <trkpt lat="44.83359" lon="6.94264">
        <ele>1906.1</ele>
      </trkpt>
      <trkpt lat="44.8337" lon="6.94272">
        <ele>1908.7</ele>
      </trkpt>
      <trkpt lat="44.83395" lon="6.94294">
        <ele>1915.4</ele>
      </trkpt>
      <trkpt lat="44.83413" lon="6.94309">
        <ele>1917.9</ele>
      </trkpt>
      <trkpt lat="44.8343" lon="6.94324">
        <ele>1919.3</ele>
      </trkpt>
      <trkpt lat="44.83438" lon="6.94335">
        <ele>1921.1</ele>
      </trkpt>
      <trkpt lat="44.83456" lon="6.94363">
        <ele>1926.2</ele>
      </trkpt>
      <trkpt lat="44.8347" lon="6.94388">
        <ele>1930.6</ele>
      </trkpt>
      <trkpt lat="44.8348" lon="6.94412">
        <ele>1934.8</ele>
      </trkpt>
      <trkpt lat="44.83485" lon="6.9443">
        <ele>1937.5</ele>
      </trkpt>
      <trkpt lat="44.8349" lon="6.94457">
        <ele>1940.6</ele>
      </trkpt>
      <trkpt lat="44.83502" lon="6.9453">
        <ele>1942.9</ele>
      </trkpt>
      <trkpt lat="44.83506" lon="6.94565">
        <ele>1944.7</ele>
      </trkpt>
      <trkpt lat="44.83507" lon="6.94597">
        <ele>1948.6</ele>
      </trkpt>
      <trkpt lat="44.83506" lon="6.94606">
        <ele>1950.6</ele>
      </trkpt>
      <trkpt lat="44.835" lon="6.94658">
        <ele>1961.3</ele>
      </trkpt>
      <trkpt lat="44.83501" lon="6.94687">
        <ele>1963.5</ele>
      </trkpt>
      <trkpt lat="44.83505" lon="6.94746">
        <ele>1967.2</ele>
      </trkpt>
      <trkpt lat="44.83506" lon="6.94779">
        <ele>1970.5</ele>
      </trkpt>
      <trkpt lat="44.83504" lon="6.94829">
        <ele>1975.9</ele>
      </trkpt>
      <trkpt lat="44.8349" lon="6.95086">
        <ele>1990.6</ele>
      </trkpt>
      <trkpt lat="44.83486" lon="6.951">
        <ele>1993.1</ele>
      </trkpt>
      <trkpt lat="44.83484" lon="6.95112">
        <ele>1994.7</ele>
      </trkpt>
      <trkpt lat="44.83484" lon="6.95122">
        <ele>1995.7</ele>
      </trkpt>
      <trkpt lat="44.83485" lon="6.95137">
        <ele>1996.4</ele>
      </trkpt>
      <trkpt lat="44.83492" lon="6.95198">
        <ele>2000</ele>
      </trkpt>
      <trkpt lat="44.83496" lon="6.95346">
        <ele>2017.6</ele>
      </trkpt>
      <trkpt lat="44.83496" lon="6.95393">
        <ele>2022.7</ele>
      </trkpt>
      <trkpt lat="44.83493" lon="6.95548">
        <ele>2033.6</ele>
      </trkpt>
      <trkpt lat="44.83495" lon="6.95574">
        <ele>2035.6</ele>
      </trkpt>
      <trkpt lat="44.83503" lon="6.95648">
        <ele>2038.7</ele>
      </trkpt>
      <trkpt lat="44.83503" lon="6.95648">
        <ele>2038.7</ele>
      </trkpt>
      <trkpt lat="44.83502" lon="6.95673">
        <ele>2040.7</ele>
      </trkpt>
      <trkpt lat="44.83499" lon="6.95692">
        <ele>2042.3</ele>
      </trkpt>
      <trkpt lat="44.83492" lon="6.95731">
        <ele>2044.9</ele>
      </trkpt>
      <trkpt lat="44.83487" lon="6.95757">
        <ele>2045.8</ele>
      </trkpt>
      <trkpt lat="44.83478" lon="6.95813">
        <ele>2046.7</ele>
      </trkpt>
      <trkpt lat="44.83461" lon="6.95885">
        <ele>2052</ele>
      </trkpt>
      <trkpt lat="44.83455" lon="6.95926">
        <ele>2056.5</ele>
      </trkpt>
      <trkpt lat="44.83447" lon="6.95998">
        <ele>2059.9</ele>
      </trkpt>
      <trkpt lat="44.83447" lon="6.95998">
        <ele>2059.9</ele>
      </trkpt>
      <trkpt lat="44.83441" lon="6.96061">
        <ele>2060</ele>
      </trkpt>
      <trkpt lat="44.83435" lon="6.9612">
        <ele>2066.5</ele>
      </trkpt>
      <trkpt lat="44.83427" lon="6.96169">
        <ele>2068.8</ele>
      </trkpt>
      <trkpt lat="44.83409" lon="6.96276">
        <ele>2070.7</ele>
      </trkpt>
      <trkpt lat="44.83406" lon="6.9631">
        <ele>2073.2</ele>
      </trkpt>
      <trkpt lat="44.83405" lon="6.96344">
        <ele>2074.9</ele>
      </trkpt>
      <trkpt lat="44.83407" lon="6.9638">
        <ele>2075.3</ele>
      </trkpt>
      <trkpt lat="44.83412" lon="6.96433">
        <ele>2075.4</ele>
      </trkpt>
      <trkpt lat="44.83415" lon="6.96462">
        <ele>2075.9</ele>
      </trkpt>
      <trkpt lat="44.83415" lon="6.96462">
        <ele>2075.9</ele>
      </trkpt>
      <trkpt lat="44.83435" lon="6.96548">
        <ele>2079.3</ele>
      </trkpt>
      <trkpt lat="44.83476" lon="6.9672">
        <ele>2085.9</ele>
      </trkpt>
      <trkpt lat="44.83492" lon="6.96801">
        <ele>2091.3</ele>
      </trkpt>
      <trkpt lat="44.83519" lon="6.96946">
        <ele>2104.7</ele>
      </trkpt>
      <trkpt lat="44.83532" lon="6.97025">
        <ele>2114.3</ele>
      </trkpt>
      <trkpt lat="44.83541" lon="6.9709">
        <ele>2119</ele>
      </trkpt>
      <trkpt lat="44.83554" lon="6.9721">
        <ele>2128.1</ele>
      </trkpt>
      <trkpt lat="44.83557" lon="6.97244">
        <ele>2131.2</ele>
      </trkpt>
      <trkpt lat="44.83559" lon="6.97303">
        <ele>2131.4</ele>
      </trkpt>
      <trkpt lat="44.83559" lon="6.97358">
        <ele>2131.4</ele>
      </trkpt>
      <trkpt lat="44.83557" lon="6.97457">
        <ele>2138.2</ele>
      </trkpt>
      <trkpt lat="44.83554" lon="6.97533">
        <ele>2142.2</ele>
      </trkpt>
      <trkpt lat="44.83548" lon="6.97615">
        <ele>2150.7</ele>
      </trkpt>
      <trkpt lat="44.8354" lon="6.97708">
        <ele>2159</ele>
      </trkpt>
      <trkpt lat="44.83518" lon="6.97926">
        <ele>2170.6</ele>
      </trkpt>
      <trkpt lat="44.83485" lon="6.9821">
        <ele>2199.3</ele>
      </trkpt>
      <trkpt lat="44.83485" lon="6.9821">
        <ele>2199.3</ele>
      </trkpt>
      <trkpt lat="44.83456" lon="6.98468">
        <ele>2221.5</ele>
      </trkpt>
      <trkpt lat="44.83443" lon="6.98576">
        <ele>2235.9</ele>
      </trkpt>
      <trkpt lat="44.83439" lon="6.986">
        <ele>2238.8</ele>
      </trkpt>
      <trkpt lat="44.83439" lon="6.986">
        <ele>2238.8</ele>
      </trkpt>
      <trkpt lat="44.83384" lon="6.9895">
        <ele>2262.7</ele>
      </trkpt>
      <trkpt lat="44.83369" lon="6.99055">
        <ele>2279.9</ele>
      </trkpt>
      <trkpt lat="44.83361" lon="6.99121">
        <ele>2295.6</ele>
      </trkpt>
      <trkpt lat="44.83356" lon="6.99179">
        <ele>2309.3</ele>
      </trkpt>
      <trkpt lat="44.83354" lon="6.99213">
        <ele>2318.4</ele>
      </trkpt>
      <trkpt lat="44.83354" lon="6.99213">
        <ele>2318.4</ele>
      </trkpt>
      <trkpt lat="44.83346" lon="6.99329">
        <ele>2349.2</ele>
      </trkpt>
      <trkpt lat="44.83336" lon="6.99436">
        <ele>2376.3</ele>
      </trkpt>
      <trkpt lat="44.83322" lon="6.99568">
        <ele>2411</ele>
      </trkpt>
      <trkpt lat="44.83312" lon="6.99648">
        <ele>2430.6</ele>
      </trkpt>
      <trkpt lat="44.83302" lon="6.99705">
        <ele>2440.8</ele>
      </trkpt>
      <trkpt lat="44.83287" lon="6.99782">
        <ele>2452.4</ele>
      </trkpt>
      <trkpt lat="44.83269" lon="6.99859">
        <ele>2462.3</ele>
      </trkpt>
      <trkpt lat="44.83228" lon="7.00025">
        <ele>2488.7</ele>
      </trkpt>
      <trkpt lat="44.83193" lon="7.00161">
        <ele>2512.3</ele>
      </trkpt>
      <trkpt lat="44.83119" lon="7.00434">
        <ele>2535</ele>
      </trkpt>
      <trkpt lat="44.83119" lon="7.00434">
        <ele>2535</ele>
      </trkpt>
      <trkpt lat="44.83107" lon="7.00486">
        <ele>2547.2</ele>
      </trkpt>
      <trkpt lat="44.83102" lon="7.00514">
        <ele>2556</ele>
      </trkpt>
      <trkpt lat="44.83099" lon="7.00548">
        <ele>2567.3</ele>
      </trkpt>
      <trkpt lat="44.831" lon="7.00558">
        <ele>2570.3</ele>
      </trkpt>
      <trkpt lat="44.83104" lon="7.00572">
        <ele>2574.8</ele>
      </trkpt>
      <trkpt lat="44.83109" lon="7.00585">
        <ele>2579.9</ele>
      </trkpt>
      <trkpt lat="44.83118" lon="7.00603">
        <ele>2587</ele>
      </trkpt>
      <trkpt lat="44.83126" lon="7.00613">
        <ele>2592</ele>
      </trkpt>
      <trkpt lat="44.83141" lon="7.0063">
        <ele>2601.8</ele>
      </trkpt>
      <trkpt lat="44.83173" lon="7.0066">
        <ele>2615.7</ele>
      </trkpt>
      <trkpt lat="44.83191" lon="7.00675">
        <ele>2618.1</ele>
      </trkpt>
      <trkpt lat="44.83216" lon="7.00693">
        <ele>2623.5</ele>
      </trkpt>
      <trkpt lat="44.83255" lon="7.00718">
        <ele>2636.6</ele>
      </trkpt>
      <trkpt lat="44.83275" lon="7.00728">
        <ele>2644.6</ele>
      </trkpt>
      <trkpt lat="44.83309" lon="7.00743">
        <ele>2657.1</ele>
      </trkpt>
      <trkpt lat="44.83347" lon="7.00758">
        <ele>2677.4</ele>
      </trkpt>
      <trkpt lat="44.83353" lon="7.0076">
        <ele>2678.5</ele>
      </trkpt>
    </trkseg>
  </trk>
  <trk>
    <name><![CDATA[2439 - Pointe Raisin (Le Roux)]]></name>
    <extensions>
      <line xmlns="http://www.topografix.com/GPX/gpx_style/0/2">
        <color>888800</color>
        <width>4</width>
          <extensions>
            <sens>1</sens>
          </extensions>
      </line>
    </extensions>
    <trkseg>
      <trkpt lat="44.82121" lon="6.9437">
        <ele>1760.6</ele>
      </trkpt>
      <trkpt lat="44.82133" lon="6.94355">
        <ele>1762.2</ele>
      </trkpt>
      <trkpt lat="44.82146" lon="6.94343">
        <ele>1764.1</ele>
      </trkpt>
      <trkpt lat="44.82175" lon="6.94321">
        <ele>1765.7</ele>
      </trkpt>
      <trkpt lat="44.82198" lon="6.94308">
        <ele>1765.5</ele>
      </trkpt>
      <trkpt lat="44.82231" lon="6.9429">
        <ele>1765.5</ele>
      </trkpt>
      <trkpt lat="44.8225" lon="6.94273">
        <ele>1765.5</ele>
      </trkpt>
      <trkpt lat="44.82272" lon="6.94252">
        <ele>1765.9</ele>
      </trkpt>
      <trkpt lat="44.8229" lon="6.94243">
        <ele>1767.6</ele>
      </trkpt>
      <trkpt lat="44.82315" lon="6.94229">
        <ele>1770.1</ele>
      </trkpt>
      <trkpt lat="44.82328" lon="6.94219">
        <ele>1771.7</ele>
      </trkpt>
      <trkpt lat="44.8236" lon="6.94192">
        <ele>1775.2</ele>
      </trkpt>
      <trkpt lat="44.82374" lon="6.94185">
        <ele>1775.8</ele>
      </trkpt>
      <trkpt lat="44.82384" lon="6.94184">
        <ele>1777.1</ele>
      </trkpt>
      <trkpt lat="44.82417" lon="6.9418">
        <ele>1779.1</ele>
      </trkpt>
      <trkpt lat="44.82424" lon="6.94175">
        <ele>1779.2</ele>
      </trkpt>
      <trkpt lat="44.82434" lon="6.94166">
        <ele>1778.9</ele>
      </trkpt>
      <trkpt lat="44.82446" lon="6.94154">
        <ele>1778.9</ele>
      </trkpt>
      <trkpt lat="44.82458" lon="6.94147">
        <ele>1779</ele>
      </trkpt>
      <trkpt lat="44.82466" lon="6.94144">
        <ele>1780.2</ele>
      </trkpt>
      <trkpt lat="44.82482" lon="6.94143">
        <ele>1781.5</ele>
      </trkpt>
      <trkpt lat="44.82491" lon="6.94144">
        <ele>1782.9</ele>
      </trkpt>
      <trkpt lat="44.82498" lon="6.94148">
        <ele>1785.2</ele>
      </trkpt>
      <trkpt lat="44.82511" lon="6.94159">
        <ele>1789.7</ele>
      </trkpt>
      <trkpt lat="44.82522" lon="6.94167">
        <ele>1791.6</ele>
      </trkpt>
      <trkpt lat="44.82529" lon="6.94167">
        <ele>1791.5</ele>
      </trkpt>
      <trkpt lat="44.82535" lon="6.94166">
        <ele>1792</ele>
      </trkpt>
      <trkpt lat="44.8255" lon="6.9416">
        <ele>1792.4</ele>
      </trkpt>
      <trkpt lat="44.82576" lon="6.9415">
        <ele>1793.9</ele>
      </trkpt>
      <trkpt lat="44.82588" lon="6.9415">
        <ele>1795.5</ele>
      </trkpt>
      <trkpt lat="44.82611" lon="6.94152">
        <ele>1797.1</ele>
      </trkpt>
      <trkpt lat="44.82649" lon="6.94158">
        <ele>1799.4</ele>
      </trkpt>
      <trkpt lat="44.82666" lon="6.94158">
        <ele>1800.8</ele>
      </trkpt>
      <trkpt lat="44.82678" lon="6.94155">
        <ele>1801.8</ele>
      </trkpt>
      <trkpt lat="44.82687" lon="6.94149">
        <ele>1801.8</ele>
      </trkpt>
      <trkpt lat="44.82694" lon="6.94141">
        <ele>1801.3</ele>
      </trkpt>
      <trkpt lat="44.82705" lon="6.94129">
        <ele>1801</ele>
      </trkpt>
      <trkpt lat="44.82705" lon="6.94129">
        <ele>1801</ele>
      </trkpt>
      <trkpt lat="44.82719" lon="6.94124">
        <ele>1803.5</ele>
      </trkpt>
      <trkpt lat="44.82754" lon="6.94114">
        <ele>1809.4</ele>
      </trkpt>
      <trkpt lat="44.82761" lon="6.94112">
        <ele>1810.3</ele>
      </trkpt>
      <trkpt lat="44.82771" lon="6.94113">
        <ele>1812.3</ele>
      </trkpt>
      <trkpt lat="44.8278" lon="6.94117">
        <ele>1815</ele>
      </trkpt>
      <trkpt lat="44.82807" lon="6.94131">
        <ele>1821.4</ele>
      </trkpt>
      <trkpt lat="44.8285" lon="6.94152">
        <ele>1831.2</ele>
      </trkpt>
      <trkpt lat="44.82859" lon="6.94153">
        <ele>1832.5</ele>
      </trkpt>
      <trkpt lat="44.82864" lon="6.94152">
        <ele>1832.6</ele>
      </trkpt>
      <trkpt lat="44.82875" lon="6.94147">
        <ele>1832.4</ele>
      </trkpt>
      <trkpt lat="44.82913" lon="6.94131">
        <ele>1832.2</ele>
      </trkpt>
      <trkpt lat="44.82918" lon="6.94132">
        <ele>1833.2</ele>
      </trkpt>
      <trkpt lat="44.82927" lon="6.94135">
        <ele>1835.7</ele>
      </trkpt>
      <trkpt lat="44.82962" lon="6.9415">
        <ele>1845.2</ele>
      </trkpt>
      <trkpt lat="44.83003" lon="6.94161">
        <ele>1853.4</ele>
      </trkpt>
      <trkpt lat="44.83075" lon="6.94183">
        <ele>1869.1</ele>
      </trkpt>
      <trkpt lat="44.83108" lon="6.94189">
        <ele>1875.2</ele>
      </trkpt>
      <trkpt lat="44.83126" lon="6.94193">
        <ele>1878</ele>
      </trkpt>
      <trkpt lat="44.83147" lon="6.94198">
        <ele>1881.2</ele>
      </trkpt>
      <trkpt lat="44.83195" lon="6.94204">
        <ele>1885.6</ele>
      </trkpt>
      <trkpt lat="44.83209" lon="6.94209">
        <ele>1887.9</ele>
      </trkpt>
      <trkpt lat="44.83232" lon="6.9422">
        <ele>1892.3</ele>
      </trkpt>
      <trkpt lat="44.83254" lon="6.94231">
        <ele>1896.4</ele>
      </trkpt>
      <trkpt lat="44.83271" lon="6.94236">
        <ele>1897.9</ele>
      </trkpt>
      <trkpt lat="44.83309" lon="6.94247">
        <ele>1901.4</ele>
      </trkpt>
      <trkpt lat="44.83337" lon="6.94254">
        <ele>1903.5</ele>
      </trkpt>
      <trkpt lat="44.83359" lon="6.94264">
        <ele>1906.1</ele>
      </trkpt>
      <trkpt lat="44.8337" lon="6.94272">
        <ele>1908.7</ele>
      </trkpt>
      <trkpt lat="44.83395" lon="6.94294">
        <ele>1915.4</ele>
      </trkpt>
      <trkpt lat="44.83413" lon="6.94309">
        <ele>1917.9</ele>
      </trkpt>
      <trkpt lat="44.8343" lon="6.94324">
        <ele>1919.3</ele>
      </trkpt>
      <trkpt lat="44.83438" lon="6.94335">
        <ele>1921.1</ele>
      </trkpt>
      <trkpt lat="44.83456" lon="6.94363">
        <ele>1926.2</ele>
      </trkpt>
      <trkpt lat="44.8347" lon="6.94388">
        <ele>1930.6</ele>
      </trkpt>
      <trkpt lat="44.8348" lon="6.94412">
        <ele>1934.8</ele>
      </trkpt>
      <trkpt lat="44.83485" lon="6.9443">
        <ele>1937.5</ele>
      </trkpt>
      <trkpt lat="44.8349" lon="6.94457">
        <ele>1940.6</ele>
      </trkpt>
      <trkpt lat="44.83502" lon="6.9453">
        <ele>1942.9</ele>
      </trkpt>
      <trkpt lat="44.83506" lon="6.94565">
        <ele>1944.7</ele>
      </trkpt>
      <trkpt lat="44.83507" lon="6.94597">
        <ele>1948.6</ele>
      </trkpt>
      <trkpt lat="44.83506" lon="6.94606">
        <ele>1950.6</ele>
      </trkpt>
      <trkpt lat="44.835" lon="6.94658">
        <ele>1961.3</ele>
      </trkpt>
      <trkpt lat="44.83501" lon="6.94687">
        <ele>1963.5</ele>
      </trkpt>
      <trkpt lat="44.83505" lon="6.94746">
        <ele>1967.2</ele>
      </trkpt>
      <trkpt lat="44.83506" lon="6.94779">
        <ele>1970.5</ele>
      </trkpt>
      <trkpt lat="44.83504" lon="6.94829">
        <ele>1975.9</ele>
      </trkpt>
      <trkpt lat="44.8349" lon="6.95086">
        <ele>1990.6</ele>
      </trkpt>
      <trkpt lat="44.83486" lon="6.951">
        <ele>1993.1</ele>
      </trkpt>
      <trkpt lat="44.83484" lon="6.95112">
        <ele>1994.7</ele>
      </trkpt>
      <trkpt lat="44.83484" lon="6.95122">
        <ele>1995.7</ele>
      </trkpt>
      <trkpt lat="44.83485" lon="6.95137">
        <ele>1996.4</ele>
      </trkpt>
      <trkpt lat="44.83492" lon="6.95198">
        <ele>2000</ele>
      </trkpt>
      <trkpt lat="44.83496" lon="6.95346">
        <ele>2017.6</ele>
      </trkpt>
      <trkpt lat="44.83496" lon="6.95393">
        <ele>2022.7</ele>
      </trkpt>
      <trkpt lat="44.83493" lon="6.95548">
        <ele>2033.6</ele>
      </trkpt>
      <trkpt lat="44.83495" lon="6.95574">
        <ele>2035.6</ele>
      </trkpt>
      <trkpt lat="44.83503" lon="6.95648">
        <ele>2038.7</ele>
      </trkpt>
      <trkpt lat="44.83503" lon="6.95648">
        <ele>2038.7</ele>
      </trkpt>
      <trkpt lat="44.83502" lon="6.95673">
        <ele>2040.7</ele>
      </trkpt>
      <trkpt lat="44.83499" lon="6.95692">
        <ele>2042.3</ele>
      </trkpt>
      <trkpt lat="44.83492" lon="6.95731">
        <ele>2044.9</ele>
      </trkpt>
      <trkpt lat="44.83487" lon="6.95757">
        <ele>2045.8</ele>
      </trkpt>
      <trkpt lat="44.83478" lon="6.95813">
        <ele>2046.7</ele>
      </trkpt>
      <trkpt lat="44.83461" lon="6.95885">
        <ele>2052</ele>
      </trkpt>
      <trkpt lat="44.83455" lon="6.95926">
        <ele>2056.5</ele>
      </trkpt>
      <trkpt lat="44.83447" lon="6.95998">
        <ele>2059.9</ele>
      </trkpt>
      <trkpt lat="44.83447" lon="6.95998">
        <ele>2059.9</ele>
      </trkpt>
      <trkpt lat="44.83441" lon="6.96061">
        <ele>2060</ele>
      </trkpt>
      <trkpt lat="44.83435" lon="6.9612">
        <ele>2066.5</ele>
      </trkpt>
      <trkpt lat="44.83427" lon="6.96169">
        <ele>2068.8</ele>
      </trkpt>
      <trkpt lat="44.83409" lon="6.96276">
        <ele>2070.7</ele>
      </trkpt>
      <trkpt lat="44.83406" lon="6.9631">
        <ele>2073.2</ele>
      </trkpt>
      <trkpt lat="44.83405" lon="6.96344">
        <ele>2074.9</ele>
      </trkpt>
      <trkpt lat="44.83407" lon="6.9638">
        <ele>2075.3</ele>
      </trkpt>
      <trkpt lat="44.83412" lon="6.96433">
        <ele>2075.4</ele>
      </trkpt>
      <trkpt lat="44.83415" lon="6.96462">
        <ele>2075.9</ele>
      </trkpt>
      <trkpt lat="44.83415" lon="6.96462">
        <ele>2075.9</ele>
      </trkpt>
      <trkpt lat="44.83435" lon="6.96548">
        <ele>2079.3</ele>
      </trkpt>
      <trkpt lat="44.83476" lon="6.9672">
        <ele>2085.9</ele>
      </trkpt>
      <trkpt lat="44.83492" lon="6.96801">
        <ele>2091.3</ele>
      </trkpt>
      <trkpt lat="44.83519" lon="6.96946">
        <ele>2104.7</ele>
      </trkpt>
      <trkpt lat="44.83532" lon="6.97025">
        <ele>2114.3</ele>
      </trkpt>
      <trkpt lat="44.83541" lon="6.9709">
        <ele>2119</ele>
      </trkpt>
      <trkpt lat="44.83554" lon="6.9721">
        <ele>2128.1</ele>
      </trkpt>
      <trkpt lat="44.83557" lon="6.97244">
        <ele>2131.2</ele>
      </trkpt>
      <trkpt lat="44.83559" lon="6.97303">
        <ele>2131.4</ele>
      </trkpt>
      <trkpt lat="44.83559" lon="6.97358">
        <ele>2131.4</ele>
      </trkpt>
      <trkpt lat="44.83557" lon="6.97457">
        <ele>2138.2</ele>
      </trkpt>
      <trkpt lat="44.83554" lon="6.97533">
        <ele>2142.2</ele>
      </trkpt>
      <trkpt lat="44.83548" lon="6.97615">
        <ele>2150.7</ele>
      </trkpt>
      <trkpt lat="44.8354" lon="6.97708">
        <ele>2159</ele>
      </trkpt>
      <trkpt lat="44.83518" lon="6.97926">
        <ele>2170.6</ele>
      </trkpt>
      <trkpt lat="44.83485" lon="6.9821">
        <ele>2199.3</ele>
      </trkpt>
      <trkpt lat="44.83485" lon="6.9821">
        <ele>2199.3</ele>
      </trkpt>
      <trkpt lat="44.83456" lon="6.98468">
        <ele>2221.5</ele>
      </trkpt>
      <trkpt lat="44.83443" lon="6.98576">
        <ele>2235.9</ele>
      </trkpt>
      <trkpt lat="44.83439" lon="6.986">
        <ele>2238.8</ele>
      </trkpt>
      <trkpt lat="44.83439" lon="6.986">
        <ele>2238.8</ele>
      </trkpt>
      <trkpt lat="44.83384" lon="6.9895">
        <ele>2262.7</ele>
      </trkpt>
      <trkpt lat="44.83369" lon="6.99055">
        <ele>2279.9</ele>
      </trkpt>
      <trkpt lat="44.83361" lon="6.99121">
        <ele>2295.6</ele>
      </trkpt>
      <trkpt lat="44.83356" lon="6.99179">
        <ele>2309.3</ele>
      </trkpt>
      <trkpt lat="44.83354" lon="6.99213">
        <ele>2318.4</ele>
      </trkpt>
      <trkpt lat="44.83354" lon="6.99213">
        <ele>2318.4</ele>
      </trkpt>
      <trkpt lat="44.83352" lon="6.99302">
        <ele>2344.5</ele>
      </trkpt>
      <trkpt lat="44.83353" lon="6.99366">
        <ele>2363.5</ele>
      </trkpt>
      <trkpt lat="44.83355" lon="6.99397">
        <ele>2372.1</ele>
      </trkpt>
      <trkpt lat="44.83358" lon="6.99421">
        <ele>2378.2</ele>
      </trkpt>
      <trkpt lat="44.83363" lon="6.99445">
        <ele>2385.5</ele>
      </trkpt>
      <trkpt lat="44.83379" lon="6.99509">
        <ele>2402</ele>
      </trkpt>
      <trkpt lat="44.83386" lon="6.99531">
        <ele>2407.8</ele>
      </trkpt>
      <trkpt lat="44.83395" lon="6.99554">
        <ele>2413.8</ele>
      </trkpt>
      <trkpt lat="44.83406" lon="6.99577">
        <ele>2420.8</ele>
      </trkpt>
      <trkpt lat="44.8342" lon="6.99601">
        <ele>2428.4</ele>
      </trkpt>
      <trkpt lat="44.83448" lon="6.99645">
        <ele>2449.9</ele>
      </trkpt>
      <trkpt lat="44.83459" lon="6.9966">
        <ele>2458.3</ele>
      </trkpt>
      <trkpt lat="44.835" lon="6.99716">
        <ele>2490.4</ele>
      </trkpt>
      <trkpt lat="44.83533" lon="6.99765">
        <ele>2517.1</ele>
      </trkpt>
      <trkpt lat="44.83546" lon="6.99789">
        <ele>2528.5</ele>
      </trkpt>
      <trkpt lat="44.83555" lon="6.99812">
        <ele>2537.1</ele>
      </trkpt>
      <trkpt lat="44.83565" lon="6.99839">
        <ele>2548.9</ele>
      </trkpt>
      <trkpt lat="44.8357" lon="6.99864">
        <ele>2556.8</ele>
      </trkpt>
      <trkpt lat="44.83579" lon="6.99917">
        <ele>2575</ele>
      </trkpt>
      <trkpt lat="44.83596" lon="7.00035">
        <ele>2615.1</ele>
      </trkpt>
      <trkpt lat="44.83607" lon="7.00101">
        <ele>2634.4</ele>
      </trkpt>
      <trkpt lat="44.83617" lon="7.00151">
        <ele>2649</ele>
      </trkpt>
      <trkpt lat="44.83625" lon="7.00173">
        <ele>2656.2</ele>
      </trkpt>
      <trkpt lat="44.83633" lon="7.00187">
        <ele>2659.8</ele>
      </trkpt>
      <trkpt lat="44.83638" lon="7.00191">
        <ele>2661.4</ele>
      </trkpt>
      <trkpt lat="44.83646" lon="7.00197">
        <ele>2666.6</ele>
      </trkpt>
      <trkpt lat="44.83653" lon="7.00199">
        <ele>2670.9</ele>
      </trkpt>
      <trkpt lat="44.83653" lon="7.00199">
        <ele>2670.9</ele>
      </trkpt>
      <trkpt lat="44.83683" lon="7.00205">
        <ele>2688.8</ele>
      </trkpt>
      <trkpt lat="44.83703" lon="7.00213">
        <ele>2700.4</ele>
      </trkpt>
      <trkpt lat="44.83723" lon="7.00224">
        <ele>2713.3</ele>
      </trkpt>
      <trkpt lat="44.83746" lon="7.00239">
        <ele>2723.5</ele>
      </trkpt>
      <trkpt lat="44.83759" lon="7.0025">
        <ele>2729</ele>
      </trkpt>
      <trkpt lat="44.83777" lon="7.00269">
        <ele>2737.6</ele>
      </trkpt>
      <trkpt lat="44.83793" lon="7.0029">
        <ele>2747</ele>
      </trkpt>
      <trkpt lat="44.83806" lon="7.00309">
        <ele>2756.9</ele>
      </trkpt>
      <trkpt lat="44.83817" lon="7.0033">
        <ele>2766.4</ele>
      </trkpt>
      <trkpt lat="44.83833" lon="7.00366">
        <ele>2779.1</ele>
      </trkpt>
      <trkpt lat="44.8384" lon="7.0039">
        <ele>2788.8</ele>
      </trkpt>
      <trkpt lat="44.83845" lon="7.00408">
        <ele>2796.5</ele>
      </trkpt>
      <trkpt lat="44.83852" lon="7.00449">
        <ele>2814.6</ele>
      </trkpt>
      <trkpt lat="44.83855" lon="7.00472">
        <ele>2823.9</ele>
      </trkpt>
      <trkpt lat="44.83858" lon="7.00514">
        <ele>2842.3</ele>
      </trkpt>
      <trkpt lat="44.83866" lon="7.00629">
        <ele>2896.8</ele>
      </trkpt>
      <trkpt lat="44.83871" lon="7.0065">
        <ele>2908.5</ele>
      </trkpt>
      <trkpt lat="44.83875" lon="7.00657">
        <ele>2914.2</ele>
      </trkpt>
      <trkpt lat="44.83879" lon="7.00662">
        <ele>2918.4</ele>
      </trkpt>
      <trkpt lat="44.83888" lon="7.00668">
        <ele>2924.9</ele>
      </trkpt>
      <trkpt lat="44.83894" lon="7.00669">
        <ele>2926.1</ele>
      </trkpt>
      <trkpt lat="44.83908" lon="7.00668">
        <ele>2930</ele>
      </trkpt>
      <trkpt lat="44.83935" lon="7.00664">
        <ele>2942</ele>
      </trkpt>
      <trkpt lat="44.83962" lon="7.00662">
        <ele>2956.1</ele>
      </trkpt>
      <trkpt lat="44.83981" lon="7.00661">
        <ele>2962.8</ele>
      </trkpt>
    </trkseg>
  </trk>
  <trk>
    <name><![CDATA[2438 - Grand Queyron (Le Roux)]]></name>
    <extensions>
      <line xmlns="http://www.topografix.com/GPX/gpx_style/0/2">
        <color>880088</color>
        <width>4</width>
          <extensions>
            <sens>1</sens>
          </extensions>
      </line>
    </extensions>
    <trkseg>
      <trkpt lat="44.82121" lon="6.9437">
        <ele>1760.6</ele>
      </trkpt>
      <trkpt lat="44.82133" lon="6.94355">
        <ele>1762.2</ele>
      </trkpt>
      <trkpt lat="44.82146" lon="6.94343">
        <ele>1764.1</ele>
      </trkpt>
      <trkpt lat="44.82175" lon="6.94321">
        <ele>1765.7</ele>
      </trkpt>
      <trkpt lat="44.82198" lon="6.94308">
        <ele>1765.5</ele>
      </trkpt>
      <trkpt lat="44.82231" lon="6.9429">
        <ele>1765.5</ele>
      </trkpt>
      <trkpt lat="44.8225" lon="6.94273">
        <ele>1765.5</ele>
      </trkpt>
      <trkpt lat="44.82272" lon="6.94252">
        <ele>1765.9</ele>
      </trkpt>
      <trkpt lat="44.8229" lon="6.94243">
        <ele>1767.6</ele>
      </trkpt>
      <trkpt lat="44.82315" lon="6.94229">
        <ele>1770.1</ele>
      </trkpt>
      <trkpt lat="44.82328" lon="6.94219">
        <ele>1771.7</ele>
      </trkpt>
      <trkpt lat="44.8236" lon="6.94192">
        <ele>1775.2</ele>
      </trkpt>
      <trkpt lat="44.82374" lon="6.94185">
        <ele>1775.8</ele>
      </trkpt>
      <trkpt lat="44.82384" lon="6.94184">
        <ele>1777.1</ele>
      </trkpt>
      <trkpt lat="44.82417" lon="6.9418">
        <ele>1779.1</ele>
      </trkpt>
      <trkpt lat="44.82424" lon="6.94175">
        <ele>1779.2</ele>
      </trkpt>
      <trkpt lat="44.82434" lon="6.94166">
        <ele>1778.9</ele>
      </trkpt>
      <trkpt lat="44.82446" lon="6.94154">
        <ele>1778.9</ele>
      </trkpt>
      <trkpt lat="44.82458" lon="6.94147">
        <ele>1779</ele>
      </trkpt>
      <trkpt lat="44.82466" lon="6.94144">
        <ele>1780.2</ele>
      </trkpt>
      <trkpt lat="44.82482" lon="6.94143">
        <ele>1781.5</ele>
      </trkpt>
      <trkpt lat="44.82491" lon="6.94144">
        <ele>1782.9</ele>
      </trkpt>
      <trkpt lat="44.82498" lon="6.94148">
        <ele>1785.2</ele>
      </trkpt>
      <trkpt lat="44.82511" lon="6.94159">
        <ele>1789.7</ele>
      </trkpt>
      <trkpt lat="44.82522" lon="6.94167">
        <ele>1791.6</ele>
      </trkpt>
      <trkpt lat="44.82529" lon="6.94167">
        <ele>1791.5</ele>
      </trkpt>
      <trkpt lat="44.82535" lon="6.94166">
        <ele>1792</ele>
      </trkpt>
      <trkpt lat="44.8255" lon="6.9416">
        <ele>1792.4</ele>
      </trkpt>
      <trkpt lat="44.82576" lon="6.9415">
        <ele>1793.9</ele>
      </trkpt>
      <trkpt lat="44.82588" lon="6.9415">
        <ele>1795.5</ele>
      </trkpt>
      <trkpt lat="44.82611" lon="6.94152">
        <ele>1797.1</ele>
      </trkpt>
      <trkpt lat="44.82649" lon="6.94158">
        <ele>1799.4</ele>
      </trkpt>
      <trkpt lat="44.82666" lon="6.94158">
        <ele>1800.8</ele>
      </trkpt>
      <trkpt lat="44.82678" lon="6.94155">
        <ele>1801.8</ele>
      </trkpt>
      <trkpt lat="44.82687" lon="6.94149">
        <ele>1801.8</ele>
      </trkpt>
      <trkpt lat="44.82694" lon="6.94141">
        <ele>1801.3</ele>
      </trkpt>
      <trkpt lat="44.82705" lon="6.94129">
        <ele>1801</ele>
      </trkpt>
      <trkpt lat="44.82705" lon="6.94129">
        <ele>1801</ele>
      </trkpt>
      <trkpt lat="44.82719" lon="6.94124">
        <ele>1803.5</ele>
      </trkpt>
      <trkpt lat="44.82754" lon="6.94114">
        <ele>1809.4</ele>
      </trkpt>
      <trkpt lat="44.82761" lon="6.94112">
        <ele>1810.3</ele>
      </trkpt>
      <trkpt lat="44.82771" lon="6.94113">
        <ele>1812.3</ele>
      </trkpt>
      <trkpt lat="44.8278" lon="6.94117">
        <ele>1815</ele>
      </trkpt>
      <trkpt lat="44.82807" lon="6.94131">
        <ele>1821.4</ele>
      </trkpt>
      <trkpt lat="44.8285" lon="6.94152">
        <ele>1831.2</ele>
      </trkpt>
      <trkpt lat="44.82859" lon="6.94153">
        <ele>1832.5</ele>
      </trkpt>
      <trkpt lat="44.82864" lon="6.94152">
        <ele>1832.6</ele>
      </trkpt>
      <trkpt lat="44.82875" lon="6.94147">
        <ele>1832.4</ele>
      </trkpt>
      <trkpt lat="44.82913" lon="6.94131">
        <ele>1832.2</ele>
      </trkpt>
      <trkpt lat="44.82918" lon="6.94132">
        <ele>1833.2</ele>
      </trkpt>
      <trkpt lat="44.82927" lon="6.94135">
        <ele>1835.7</ele>
      </trkpt>
      <trkpt lat="44.82962" lon="6.9415">
        <ele>1845.2</ele>
      </trkpt>
      <trkpt lat="44.83003" lon="6.94161">
        <ele>1853.4</ele>
      </trkpt>
      <trkpt lat="44.83075" lon="6.94183">
        <ele>1869.1</ele>
      </trkpt>
      <trkpt lat="44.83108" lon="6.94189">
        <ele>1875.2</ele>
      </trkpt>
      <trkpt lat="44.83126" lon="6.94193">
        <ele>1878</ele>
      </trkpt>
      <trkpt lat="44.83147" lon="6.94198">
        <ele>1881.2</ele>
      </trkpt>
      <trkpt lat="44.83195" lon="6.94204">
        <ele>1885.6</ele>
      </trkpt>
      <trkpt lat="44.83209" lon="6.94209">
        <ele>1887.9</ele>
      </trkpt>
      <trkpt lat="44.83232" lon="6.9422">
        <ele>1892.3</ele>
      </trkpt>
      <trkpt lat="44.83254" lon="6.94231">
        <ele>1896.4</ele>
      </trkpt>
      <trkpt lat="44.83271" lon="6.94236">
        <ele>1897.9</ele>
      </trkpt>
      <trkpt lat="44.83309" lon="6.94247">
        <ele>1901.4</ele>
      </trkpt>
      <trkpt lat="44.83337" lon="6.94254">
        <ele>1903.5</ele>
      </trkpt>
      <trkpt lat="44.83359" lon="6.94264">
        <ele>1906.1</ele>
      </trkpt>
      <trkpt lat="44.8337" lon="6.94272">
        <ele>1908.7</ele>
      </trkpt>
      <trkpt lat="44.83395" lon="6.94294">
        <ele>1915.4</ele>
      </trkpt>
      <trkpt lat="44.83413" lon="6.94309">
        <ele>1917.9</ele>
      </trkpt>
      <trkpt lat="44.8343" lon="6.94324">
        <ele>1919.3</ele>
      </trkpt>
      <trkpt lat="44.83438" lon="6.94335">
        <ele>1921.1</ele>
      </trkpt>
      <trkpt lat="44.83456" lon="6.94363">
        <ele>1926.2</ele>
      </trkpt>
      <trkpt lat="44.8347" lon="6.94388">
        <ele>1930.6</ele>
      </trkpt>
      <trkpt lat="44.8348" lon="6.94412">
        <ele>1934.8</ele>
      </trkpt>
      <trkpt lat="44.83485" lon="6.9443">
        <ele>1937.5</ele>
      </trkpt>
      <trkpt lat="44.8349" lon="6.94457">
        <ele>1940.6</ele>
      </trkpt>
      <trkpt lat="44.83502" lon="6.9453">
        <ele>1942.9</ele>
      </trkpt>
      <trkpt lat="44.83506" lon="6.94565">
        <ele>1944.7</ele>
      </trkpt>
      <trkpt lat="44.83507" lon="6.94597">
        <ele>1948.6</ele>
      </trkpt>
      <trkpt lat="44.83506" lon="6.94606">
        <ele>1950.6</ele>
      </trkpt>
      <trkpt lat="44.835" lon="6.94658">
        <ele>1961.3</ele>
      </trkpt>
      <trkpt lat="44.83501" lon="6.94687">
        <ele>1963.5</ele>
      </trkpt>
      <trkpt lat="44.83505" lon="6.94746">
        <ele>1967.2</ele>
      </trkpt>
      <trkpt lat="44.83506" lon="6.94779">
        <ele>1970.5</ele>
      </trkpt>
      <trkpt lat="44.83504" lon="6.94829">
        <ele>1975.9</ele>
      </trkpt>
      <trkpt lat="44.8349" lon="6.95086">
        <ele>1990.6</ele>
      </trkpt>
      <trkpt lat="44.83486" lon="6.951">
        <ele>1993.1</ele>
      </trkpt>
      <trkpt lat="44.83484" lon="6.95112">
        <ele>1994.7</ele>
      </trkpt>
      <trkpt lat="44.83484" lon="6.95122">
        <ele>1995.7</ele>
      </trkpt>
      <trkpt lat="44.83485" lon="6.95137">
        <ele>1996.4</ele>
      </trkpt>
      <trkpt lat="44.83492" lon="6.95198">
        <ele>2000</ele>
      </trkpt>
      <trkpt lat="44.83496" lon="6.95346">
        <ele>2017.6</ele>
      </trkpt>
      <trkpt lat="44.83496" lon="6.95393">
        <ele>2022.7</ele>
      </trkpt>
      <trkpt lat="44.83493" lon="6.95548">
        <ele>2033.6</ele>
      </trkpt>
      <trkpt lat="44.83495" lon="6.95574">
        <ele>2035.6</ele>
      </trkpt>
      <trkpt lat="44.83503" lon="6.95648">
        <ele>2038.7</ele>
      </trkpt>
      <trkpt lat="44.83503" lon="6.95648">
        <ele>2038.7</ele>
      </trkpt>
      <trkpt lat="44.83502" lon="6.95673">
        <ele>2040.7</ele>
      </trkpt>
      <trkpt lat="44.83499" lon="6.95692">
        <ele>2042.3</ele>
      </trkpt>
      <trkpt lat="44.83492" lon="6.95731">
        <ele>2044.9</ele>
      </trkpt>
      <trkpt lat="44.83487" lon="6.95757">
        <ele>2045.8</ele>
      </trkpt>
      <trkpt lat="44.83478" lon="6.95813">
        <ele>2046.7</ele>
      </trkpt>
      <trkpt lat="44.83461" lon="6.95885">
        <ele>2052</ele>
      </trkpt>
      <trkpt lat="44.83455" lon="6.95926">
        <ele>2056.5</ele>
      </trkpt>
      <trkpt lat="44.83447" lon="6.95998">
        <ele>2059.9</ele>
      </trkpt>
      <trkpt lat="44.83447" lon="6.95998">
        <ele>2059.9</ele>
      </trkpt>
      <trkpt lat="44.83441" lon="6.96061">
        <ele>2060</ele>
      </trkpt>
      <trkpt lat="44.83435" lon="6.9612">
        <ele>2066.5</ele>
      </trkpt>
      <trkpt lat="44.83427" lon="6.96169">
        <ele>2068.8</ele>
      </trkpt>
      <trkpt lat="44.83409" lon="6.96276">
        <ele>2070.7</ele>
      </trkpt>
      <trkpt lat="44.83406" lon="6.9631">
        <ele>2073.2</ele>
      </trkpt>
      <trkpt lat="44.83405" lon="6.96344">
        <ele>2074.9</ele>
      </trkpt>
      <trkpt lat="44.83407" lon="6.9638">
        <ele>2075.3</ele>
      </trkpt>
      <trkpt lat="44.83412" lon="6.96433">
        <ele>2075.4</ele>
      </trkpt>
      <trkpt lat="44.83415" lon="6.96462">
        <ele>2075.9</ele>
      </trkpt>
      <trkpt lat="44.83415" lon="6.96462">
        <ele>2075.9</ele>
      </trkpt>
      <trkpt lat="44.83435" lon="6.96548">
        <ele>2079.3</ele>
      </trkpt>
      <trkpt lat="44.83476" lon="6.9672">
        <ele>2085.9</ele>
      </trkpt>
      <trkpt lat="44.83492" lon="6.96801">
        <ele>2091.3</ele>
      </trkpt>
      <trkpt lat="44.83519" lon="6.96946">
        <ele>2104.7</ele>
      </trkpt>
      <trkpt lat="44.83532" lon="6.97025">
        <ele>2114.3</ele>
      </trkpt>
      <trkpt lat="44.83541" lon="6.9709">
        <ele>2119</ele>
      </trkpt>
      <trkpt lat="44.83554" lon="6.9721">
        <ele>2128.1</ele>
      </trkpt>
      <trkpt lat="44.83557" lon="6.97244">
        <ele>2131.2</ele>
      </trkpt>
      <trkpt lat="44.83559" lon="6.97303">
        <ele>2131.4</ele>
      </trkpt>
      <trkpt lat="44.83559" lon="6.97358">
        <ele>2131.4</ele>
      </trkpt>
      <trkpt lat="44.83557" lon="6.97457">
        <ele>2138.2</ele>
      </trkpt>
      <trkpt lat="44.83554" lon="6.97533">
        <ele>2142.2</ele>
      </trkpt>
      <trkpt lat="44.83548" lon="6.97615">
        <ele>2150.7</ele>
      </trkpt>
      <trkpt lat="44.8354" lon="6.97708">
        <ele>2159</ele>
      </trkpt>
      <trkpt lat="44.83518" lon="6.97926">
        <ele>2170.6</ele>
      </trkpt>
      <trkpt lat="44.83485" lon="6.9821">
        <ele>2199.3</ele>
      </trkpt>
      <trkpt lat="44.83485" lon="6.9821">
        <ele>2199.3</ele>
      </trkpt>
      <trkpt lat="44.83456" lon="6.98468">
        <ele>2221.5</ele>
      </trkpt>
      <trkpt lat="44.83443" lon="6.98576">
        <ele>2235.9</ele>
      </trkpt>
      <trkpt lat="44.83439" lon="6.986">
        <ele>2238.8</ele>
      </trkpt>
      <trkpt lat="44.83439" lon="6.986">
        <ele>2238.8</ele>
      </trkpt>
      <trkpt lat="44.83384" lon="6.9895">
        <ele>2262.7</ele>
      </trkpt>
      <trkpt lat="44.83369" lon="6.99055">
        <ele>2279.9</ele>
      </trkpt>
      <trkpt lat="44.83361" lon="6.99121">
        <ele>2295.6</ele>
      </trkpt>
      <trkpt lat="44.83356" lon="6.99179">
        <ele>2309.3</ele>
      </trkpt>
      <trkpt lat="44.83354" lon="6.99213">
        <ele>2318.4</ele>
      </trkpt>
      <trkpt lat="44.83354" lon="6.99213">
        <ele>2318.4</ele>
      </trkpt>
      <trkpt lat="44.83352" lon="6.99302">
        <ele>2344.5</ele>
      </trkpt>
      <trkpt lat="44.83353" lon="6.99366">
        <ele>2363.5</ele>
      </trkpt>
      <trkpt lat="44.83355" lon="6.99397">
        <ele>2372.1</ele>
      </trkpt>
      <trkpt lat="44.83358" lon="6.99421">
        <ele>2378.2</ele>
      </trkpt>
      <trkpt lat="44.83363" lon="6.99445">
        <ele>2385.5</ele>
      </trkpt>
      <trkpt lat="44.83379" lon="6.99509">
        <ele>2402</ele>
      </trkpt>
      <trkpt lat="44.83386" lon="6.99531">
        <ele>2407.8</ele>
      </trkpt>
      <trkpt lat="44.83395" lon="6.99554">
        <ele>2413.8</ele>
      </trkpt>
      <trkpt lat="44.83406" lon="6.99577">
        <ele>2420.8</ele>
      </trkpt>
      <trkpt lat="44.8342" lon="6.99601">
        <ele>2428.4</ele>
      </trkpt>
      <trkpt lat="44.83448" lon="6.99645">
        <ele>2449.9</ele>
      </trkpt>
      <trkpt lat="44.83459" lon="6.9966">
        <ele>2458.3</ele>
      </trkpt>
      <trkpt lat="44.835" lon="6.99716">
        <ele>2490.4</ele>
      </trkpt>
      <trkpt lat="44.83533" lon="6.99765">
        <ele>2517.1</ele>
      </trkpt>
      <trkpt lat="44.83546" lon="6.99789">
        <ele>2528.5</ele>
      </trkpt>
      <trkpt lat="44.83555" lon="6.99812">
        <ele>2537.1</ele>
      </trkpt>
      <trkpt lat="44.83565" lon="6.99839">
        <ele>2548.9</ele>
      </trkpt>
      <trkpt lat="44.8357" lon="6.99864">
        <ele>2556.8</ele>
      </trkpt>
      <trkpt lat="44.83579" lon="6.99917">
        <ele>2575</ele>
      </trkpt>
      <trkpt lat="44.83596" lon="7.00035">
        <ele>2615.1</ele>
      </trkpt>
      <trkpt lat="44.83607" lon="7.00101">
        <ele>2634.4</ele>
      </trkpt>
      <trkpt lat="44.83617" lon="7.00151">
        <ele>2649</ele>
      </trkpt>
      <trkpt lat="44.83625" lon="7.00173">
        <ele>2656.2</ele>
      </trkpt>
      <trkpt lat="44.83633" lon="7.00187">
        <ele>2659.8</ele>
      </trkpt>
      <trkpt lat="44.83638" lon="7.00191">
        <ele>2661.4</ele>
      </trkpt>
      <trkpt lat="44.83646" lon="7.00197">
        <ele>2666.6</ele>
      </trkpt>
      <trkpt lat="44.83653" lon="7.00199">
        <ele>2670.9</ele>
      </trkpt>
      <trkpt lat="44.83653" lon="7.00199">
        <ele>2670.9</ele>
      </trkpt>
      <trkpt lat="44.83669" lon="7.00198">
        <ele>2680.1</ele>
      </trkpt>
      <trkpt lat="44.8368" lon="7.00195">
        <ele>2686.3</ele>
      </trkpt>
      <trkpt lat="44.83688" lon="7.0019">
        <ele>2690.9</ele>
      </trkpt>
      <trkpt lat="44.83698" lon="7.00181">
        <ele>2695.8</ele>
      </trkpt>
      <trkpt lat="44.83723" lon="7.00154">
        <ele>2701.5</ele>
      </trkpt>
      <trkpt lat="44.83748" lon="7.00125">
        <ele>2704</ele>
      </trkpt>
      <trkpt lat="44.83814" lon="7.0005">
        <ele>2733</ele>
      </trkpt>
      <trkpt lat="44.83836" lon="7.00031">
        <ele>2747</ele>
      </trkpt>
      <trkpt lat="44.83875" lon="7.00001">
        <ele>2762.6</ele>
      </trkpt>
      <trkpt lat="44.83901" lon="6.99986">
        <ele>2770.4</ele>
      </trkpt>
      <trkpt lat="44.83921" lon="6.99977">
        <ele>2777.3</ele>
      </trkpt>
      <trkpt lat="44.83954" lon="6.99966">
        <ele>2790.6</ele>
      </trkpt>
      <trkpt lat="44.83968" lon="6.99963">
        <ele>2796.4</ele>
      </trkpt>
      <trkpt lat="44.83993" lon="6.99962">
        <ele>2809.1</ele>
      </trkpt>
      <trkpt lat="44.84017" lon="6.99964">
        <ele>2822.4</ele>
      </trkpt>
      <trkpt lat="44.84033" lon="6.99967">
        <ele>2832.6</ele>
      </trkpt>
      <trkpt lat="44.84051" lon="6.99973">
        <ele>2845.4</ele>
      </trkpt>
      <trkpt lat="44.84072" lon="6.99984">
        <ele>2860.6</ele>
      </trkpt>
      <trkpt lat="44.84082" lon="6.9999">
        <ele>2868.8</ele>
      </trkpt>
      <trkpt lat="44.84082" lon="6.9999">
        <ele>2868.8</ele>
      </trkpt>
      <trkpt lat="44.84124" lon="7.00019">
        <ele>2902.6</ele>
      </trkpt>
      <trkpt lat="44.84151" lon="7.00041">
        <ele>2925.8</ele>
      </trkpt>
      <trkpt lat="44.84165" lon="7.00054">
        <ele>2942.2</ele>
      </trkpt>
      <trkpt lat="44.84179" lon="7.00074">
        <ele>2960.8</ele>
      </trkpt>
      <trkpt lat="44.84202" lon="7.00109">
        <ele>3002.2</ele>
      </trkpt>
      <trkpt lat="44.84228" lon="7.00149">
        <ele>3033.1</ele>
      </trkpt>
    </trkseg>
  </trk>
  <trk>
    <name><![CDATA[Crete de Gardiole en boucle]]></name>
    <extensions>
      <line xmlns="http://www.topografix.com/GPX/gpx_style/0/2">
        <color>0000FF</color>
        <width>4</width>
          <extensions>
            <sens>1</sens>
          </extensions>
      </line>
    </extensions>
    <trkseg>
      <trkpt lat="44.81818" lon="6.94453">
        <ele>1740.6</ele>
        <time>2018-03-27T06:58:41Z</time>
      </trkpt>
      <trkpt lat="44.81843" lon="6.94427">
        <ele>1740.1</ele>
        <time>2018-03-27T07:01:03Z</time>
      </trkpt>
      <trkpt lat="44.81879" lon="6.94409">
        <ele>1741.9</ele>
        <time>2018-03-27T07:01:39Z</time>
      </trkpt>
      <trkpt lat="44.81911" lon="6.94396">
        <ele>1744.1</ele>
        <time>2018-03-27T07:02:11Z</time>
      </trkpt>
      <trkpt lat="44.81941" lon="6.94387">
        <ele>1747.8</ele>
        <time>2018-03-27T07:02:39Z</time>
      </trkpt>
      <trkpt lat="44.81973" lon="6.94388">
        <ele>1751.7</ele>
        <time>2018-03-27T07:03:08Z</time>
      </trkpt>
      <trkpt lat="44.81997" lon="6.94373">
        <ele>1749.5</ele>
        <time>2018-03-27T07:03:33Z</time>
      </trkpt>
      <trkpt lat="44.8203" lon="6.94394">
        <ele>1754.9</ele>
        <time>2018-03-27T07:04:10Z</time>
      </trkpt>
      <trkpt lat="44.82048" lon="6.94414">
        <ele>1758.9</ele>
        <time>2018-03-27T07:04:33Z</time>
      </trkpt>
      <trkpt lat="44.82084" lon="6.94405">
        <ele>1760</ele>
        <time>2018-03-27T07:05:04Z</time>
      </trkpt>
      <trkpt lat="44.82108" lon="6.94397">
        <ele>1761.4</ele>
        <time>2018-03-27T07:05:27Z</time>
      </trkpt>
      <trkpt lat="44.82125" lon="6.94369">
        <ele>1761.9</ele>
        <time>2018-03-27T07:05:48Z</time>
      </trkpt>
      <trkpt lat="44.82143" lon="6.94345">
        <ele>1763.4</ele>
        <time>2018-03-27T07:06:18Z</time>
      </trkpt>
      <trkpt lat="44.82164" lon="6.94331">
        <ele>1766.5</ele>
        <time>2018-03-27T07:06:36Z</time>
      </trkpt>
      <trkpt lat="44.82197" lon="6.94307">
        <ele>1765.2</ele>
        <time>2018-03-27T07:07:08Z</time>
      </trkpt>
      <trkpt lat="44.8222" lon="6.94301">
        <ele>1767</ele>
        <time>2018-03-27T07:08:21Z</time>
      </trkpt>
      <trkpt lat="44.82217" lon="6.94304">
        <ele>1767.3</ele>
        <time>2018-03-27T07:12:49Z</time>
      </trkpt>
      <trkpt lat="44.82245" lon="6.94281">
        <ele>1766.5</ele>
        <time>2018-03-27T07:13:23Z</time>
      </trkpt>
      <trkpt lat="44.82254" lon="6.94297">
        <ele>1772.9</ele>
        <time>2018-03-27T07:14:13Z</time>
      </trkpt>
      <trkpt lat="44.82274" lon="6.94303">
        <ele>1780.1</ele>
        <time>2018-03-27T07:15:09Z</time>
      </trkpt>
      <trkpt lat="44.82298" lon="6.94311">
        <ele>1787</ele>
        <time>2018-03-27T07:15:59Z</time>
      </trkpt>
      <trkpt lat="44.82294" lon="6.94348">
        <ele>1794.6</ele>
        <time>2018-03-27T07:17:07Z</time>
      </trkpt>
      <trkpt lat="44.82311" lon="6.94374">
        <ele>1803.1</ele>
        <time>2018-03-27T07:18:04Z</time>
      </trkpt>
      <trkpt lat="44.82338" lon="6.94378">
        <ele>1809.6</ele>
        <time>2018-03-27T07:19:02Z</time>
      </trkpt>
      <trkpt lat="44.82336" lon="6.94411">
        <ele>1818.1</ele>
        <time>2018-03-27T07:19:54Z</time>
      </trkpt>
      <trkpt lat="44.82348" lon="6.94435">
        <ele>1828.9</ele>
        <time>2018-03-27T07:21:02Z</time>
      </trkpt>
      <trkpt lat="44.82353" lon="6.94459">
        <ele>1836</ele>
        <time>2018-03-27T07:22:09Z</time>
      </trkpt>
      <trkpt lat="44.82378" lon="6.94451">
        <ele>1841.6</ele>
        <time>2018-03-27T07:22:50Z</time>
      </trkpt>
      <trkpt lat="44.82405" lon="6.94441">
        <ele>1848.2</ele>
        <time>2018-03-27T07:23:48Z</time>
      </trkpt>
      <trkpt lat="44.82426" lon="6.94441">
        <ele>1855.5</ele>
        <time>2018-03-27T07:24:51Z</time>
      </trkpt>
      <trkpt lat="44.82419" lon="6.94471">
        <ele>1860.2</ele>
        <time>2018-03-27T07:25:31Z</time>
      </trkpt>
      <trkpt lat="44.82422" lon="6.94493">
        <ele>1866.5</ele>
        <time>2018-03-27T07:26:24Z</time>
      </trkpt>
      <trkpt lat="44.82438" lon="6.94507">
        <ele>1874.7</ele>
        <time>2018-03-27T07:27:23Z</time>
      </trkpt>
      <trkpt lat="44.82452" lon="6.94522">
        <ele>1881.9</ele>
        <time>2018-03-27T07:28:16Z</time>
      </trkpt>
      <trkpt lat="44.82475" lon="6.94518">
        <ele>1888.7</ele>
        <time>2018-03-27T07:29:01Z</time>
      </trkpt>
      <trkpt lat="44.82499" lon="6.94507">
        <ele>1897.2</ele>
        <time>2018-03-27T07:30:00Z</time>
      </trkpt>
      <trkpt lat="44.8252" lon="6.9449">
        <ele>1898.5</ele>
        <time>2018-03-27T07:30:59Z</time>
      </trkpt>
      <trkpt lat="44.82531" lon="6.94484">
        <ele>1899.3</ele>
        <time>2018-03-27T07:35:22Z</time>
      </trkpt>
      <trkpt lat="44.82546" lon="6.94504">
        <ele>1904.7</ele>
        <time>2018-03-27T07:38:34Z</time>
      </trkpt>
      <trkpt lat="44.8256" lon="6.94524">
        <ele>1910.7</ele>
        <time>2018-03-27T07:39:00Z</time>
      </trkpt>
      <trkpt lat="44.82584" lon="6.94501">
        <ele>1912.3</ele>
        <time>2018-03-27T07:40:15Z</time>
      </trkpt>
      <trkpt lat="44.82608" lon="6.94494">
        <ele>1919.6</ele>
        <time>2018-03-27T07:41:02Z</time>
      </trkpt>
      <trkpt lat="44.82625" lon="6.94524">
        <ele>1928.8</ele>
        <time>2018-03-27T07:42:00Z</time>
      </trkpt>
      <trkpt lat="44.82633" lon="6.9456">
        <ele>1936.5</ele>
        <time>2018-03-27T07:43:10Z</time>
      </trkpt>
      <trkpt lat="44.82636" lon="6.94596">
        <ele>1942.9</ele>
        <time>2018-03-27T07:43:53Z</time>
      </trkpt>
      <trkpt lat="44.8262" lon="6.94631">
        <ele>1939.8</ele>
        <time>2018-03-27T07:46:41Z</time>
      </trkpt>
      <trkpt lat="44.8261" lon="6.94659">
        <ele>1936.8</ele>
        <time>2018-03-27T07:46:50Z</time>
      </trkpt>
      <trkpt lat="44.826" lon="6.94699">
        <ele>1937.1</ele>
        <time>2018-03-27T07:47:16Z</time>
      </trkpt>
      <trkpt lat="44.82569" lon="6.94728">
        <ele>1940.2</ele>
        <time>2018-03-27T07:47:43Z</time>
      </trkpt>
      <trkpt lat="44.82544" lon="6.94713">
        <ele>1941.9</ele>
        <time>2018-03-27T07:48:33Z</time>
      </trkpt>
      <trkpt lat="44.82529" lon="6.94694">
        <ele>1942.5</ele>
        <time>2018-03-27T07:49:33Z</time>
      </trkpt>
      <trkpt lat="44.82511" lon="6.9471">
        <ele>1945.5</ele>
        <time>2018-03-27T07:50:09Z</time>
      </trkpt>
      <trkpt lat="44.8251" lon="6.94751">
        <ele>1958.3</ele>
        <time>2018-03-27T07:51:12Z</time>
      </trkpt>
      <trkpt lat="44.82513" lon="6.94783">
        <ele>1964.9</ele>
        <time>2018-03-27T07:51:58Z</time>
      </trkpt>
      <trkpt lat="44.82501" lon="6.94801">
        <ele>1971.1</ele>
        <time>2018-03-27T07:52:54Z</time>
      </trkpt>
      <trkpt lat="44.82486" lon="6.94825">
        <ele>1976.6</ele>
        <time>2018-03-27T07:53:44Z</time>
      </trkpt>
      <trkpt lat="44.82485" lon="6.9486">
        <ele>1983.9</ele>
        <time>2018-03-27T07:54:37Z</time>
      </trkpt>
      <trkpt lat="44.82493" lon="6.94901">
        <ele>1992.1</ele>
        <time>2018-03-27T07:55:37Z</time>
      </trkpt>
      <trkpt lat="44.82497" lon="6.94939">
        <ele>1999.2</ele>
        <time>2018-03-27T07:56:35Z</time>
      </trkpt>
      <trkpt lat="44.8248" lon="6.9497">
        <ele>2006</ele>
        <time>2018-03-27T07:57:34Z</time>
      </trkpt>
      <trkpt lat="44.82478" lon="6.95005">
        <ele>2011.8</ele>
        <time>2018-03-27T07:58:20Z</time>
      </trkpt>
      <trkpt lat="44.82469" lon="6.95038">
        <ele>2018.5</ele>
        <time>2018-03-27T07:59:16Z</time>
      </trkpt>
      <trkpt lat="44.82447" lon="6.95048">
        <ele>2023.2</ele>
        <time>2018-03-27T08:00:07Z</time>
      </trkpt>
      <trkpt lat="44.82425" lon="6.95067">
        <ele>2030.8</ele>
        <time>2018-03-27T08:01:03Z</time>
      </trkpt>
      <trkpt lat="44.82405" lon="6.95085">
        <ele>2036.9</ele>
        <time>2018-03-27T08:01:58Z</time>
      </trkpt>
      <trkpt lat="44.82407" lon="6.95109">
        <ele>2046.8</ele>
        <time>2018-03-27T08:03:01Z</time>
      </trkpt>
      <trkpt lat="44.82406" lon="6.95135">
        <ele>2057.4</ele>
        <time>2018-03-27T08:04:27Z</time>
      </trkpt>
      <trkpt lat="44.8242" lon="6.95164">
        <ele>2067.8</ele>
        <time>2018-03-27T08:05:35Z</time>
      </trkpt>
      <trkpt lat="44.82405" lon="6.95187">
        <ele>2073.9</ele>
        <time>2018-03-27T08:06:49Z</time>
      </trkpt>
      <trkpt lat="44.82406" lon="6.95207">
        <ele>2080.6</ele>
        <time>2018-03-27T08:08:06Z</time>
      </trkpt>
      <trkpt lat="44.82419" lon="6.95223">
        <ele>2087.2</ele>
        <time>2018-03-27T08:09:05Z</time>
      </trkpt>
      <trkpt lat="44.82421" lon="6.95259">
        <ele>2100</ele>
        <time>2018-03-27T08:10:08Z</time>
      </trkpt>
      <trkpt lat="44.82441" lon="6.95292">
        <ele>2111.5</ele>
        <time>2018-03-27T08:11:12Z</time>
      </trkpt>
      <trkpt lat="44.82469" lon="6.95294">
        <ele>2112</ele>
        <time>2018-03-27T08:12:29Z</time>
      </trkpt>
      <trkpt lat="44.82488" lon="6.95311">
        <ele>2116.9</ele>
        <time>2018-03-27T08:13:26Z</time>
      </trkpt>
      <trkpt lat="44.82509" lon="6.95321">
        <ele>2119.2</ele>
        <time>2018-03-27T08:14:13Z</time>
      </trkpt>
      <trkpt lat="44.82503" lon="6.95343">
        <ele>2125.7</ele>
        <time>2018-03-27T08:15:27Z</time>
      </trkpt>
      <trkpt lat="44.82486" lon="6.95372">
        <ele>2134.5</ele>
        <time>2018-03-27T08:16:20Z</time>
      </trkpt>
      <trkpt lat="44.82475" lon="6.95404">
        <ele>2142.2</ele>
        <time>2018-03-27T08:17:07Z</time>
      </trkpt>
      <trkpt lat="44.82469" lon="6.95441">
        <ele>2150.2</ele>
        <time>2018-03-27T08:18:09Z</time>
      </trkpt>
      <trkpt lat="44.82473" lon="6.95469">
        <ele>2155.5</ele>
        <time>2018-03-27T08:18:58Z</time>
      </trkpt>
      <trkpt lat="44.82474" lon="6.95496">
        <ele>2161.1</ele>
        <time>2018-03-27T08:19:58Z</time>
      </trkpt>
      <trkpt lat="44.82472" lon="6.95533">
        <ele>2167.9</ele>
        <time>2018-03-27T08:21:06Z</time>
      </trkpt>
      <trkpt lat="44.82473" lon="6.95566">
        <ele>2174</ele>
        <time>2018-03-27T08:21:58Z</time>
      </trkpt>
      <trkpt lat="44.82477" lon="6.95603">
        <ele>2181</ele>
        <time>2018-03-27T08:22:45Z</time>
      </trkpt>
      <trkpt lat="44.82472" lon="6.95635">
        <ele>2185.4</ele>
        <time>2018-03-27T08:23:29Z</time>
      </trkpt>
      <trkpt lat="44.82458" lon="6.95656">
        <ele>2187.7</ele>
        <time>2018-03-27T08:24:21Z</time>
      </trkpt>
      <trkpt lat="44.82474" lon="6.95656">
        <ele>2189.2</ele>
        <time>2018-03-27T08:26:06Z</time>
      </trkpt>
      <trkpt lat="44.82476" lon="6.95657">
        <ele>2189.8</ele>
        <time>2018-03-27T08:32:03Z</time>
      </trkpt>
      <trkpt lat="44.82474" lon="6.95659">
        <ele>2189.8</ele>
        <time>2018-03-27T08:35:20Z</time>
      </trkpt>
      <trkpt lat="44.82471" lon="6.95656">
        <ele>2189</ele>
        <time>2018-03-27T08:37:37Z</time>
      </trkpt>
      <trkpt lat="44.82457" lon="6.9568">
        <ele>2191.6</ele>
        <time>2018-03-27T08:38:28Z</time>
      </trkpt>
      <trkpt lat="44.82448" lon="6.95715">
        <ele>2196.4</ele>
        <time>2018-03-27T08:39:16Z</time>
      </trkpt>
      <trkpt lat="44.82433" lon="6.95753">
        <ele>2200.7</ele>
        <time>2018-03-27T08:40:07Z</time>
      </trkpt>
      <trkpt lat="44.82422" lon="6.95783">
        <ele>2204.2</ele>
        <time>2018-03-27T08:40:45Z</time>
      </trkpt>
      <trkpt lat="44.82403" lon="6.95808">
        <ele>2206.7</ele>
        <time>2018-03-27T08:41:39Z</time>
      </trkpt>
      <trkpt lat="44.82405" lon="6.95828">
        <ele>2212.9</ele>
        <time>2018-03-27T08:42:42Z</time>
      </trkpt>
      <trkpt lat="44.82404" lon="6.95858">
        <ele>2222.2</ele>
        <time>2018-03-27T08:43:42Z</time>
      </trkpt>
      <trkpt lat="44.824" lon="6.95886">
        <ele>2229.9</ele>
        <time>2018-03-27T08:44:44Z</time>
      </trkpt>
      <trkpt lat="44.82386" lon="6.95917">
        <ele>2235.3</ele>
        <time>2018-03-27T08:45:41Z</time>
      </trkpt>
      <trkpt lat="44.82377" lon="6.95947">
        <ele>2241.8</ele>
        <time>2018-03-27T08:46:30Z</time>
      </trkpt>
      <trkpt lat="44.82367" lon="6.95982">
        <ele>2249.5</ele>
        <time>2018-03-27T08:47:21Z</time>
      </trkpt>
      <trkpt lat="44.82354" lon="6.96015">
        <ele>2256.7</ele>
        <time>2018-03-27T08:48:29Z</time>
      </trkpt>
      <trkpt lat="44.82336" lon="6.96033">
        <ele>2263.5</ele>
        <time>2018-03-27T08:49:30Z</time>
      </trkpt>
      <trkpt lat="44.82337" lon="6.96068">
        <ele>2271.2</ele>
        <time>2018-03-27T08:50:29Z</time>
      </trkpt>
      <trkpt lat="44.82333" lon="6.96093">
        <ele>2277.1</ele>
        <time>2018-03-27T08:51:38Z</time>
      </trkpt>
      <trkpt lat="44.82324" lon="6.96119">
        <ele>2284</ele>
        <time>2018-03-27T08:52:35Z</time>
      </trkpt>
      <trkpt lat="44.82311" lon="6.96145">
        <ele>2291.9</ele>
        <time>2018-03-27T08:53:35Z</time>
      </trkpt>
      <trkpt lat="44.82297" lon="6.96177">
        <ele>2300.2</ele>
        <time>2018-03-27T08:54:33Z</time>
      </trkpt>
      <trkpt lat="44.82282" lon="6.96209">
        <ele>2307.8</ele>
        <time>2018-03-27T08:55:34Z</time>
      </trkpt>
      <trkpt lat="44.8226" lon="6.96224">
        <ele>2312</ele>
        <time>2018-03-27T08:56:30Z</time>
      </trkpt>
      <trkpt lat="44.82244" lon="6.96247">
        <ele>2318.1</ele>
        <time>2018-03-27T08:57:42Z</time>
      </trkpt>
      <trkpt lat="44.82263" lon="6.96267">
        <ele>2327.3</ele>
        <time>2018-03-27T08:59:06Z</time>
      </trkpt>
      <trkpt lat="44.82277" lon="6.96295">
        <ele>2335.4</ele>
        <time>2018-03-27T09:00:06Z</time>
      </trkpt>
      <trkpt lat="44.82285" lon="6.96326">
        <ele>2342.8</ele>
        <time>2018-03-27T09:00:53Z</time>
      </trkpt>
      <trkpt lat="44.82267" lon="6.96345">
        <ele>2349</ele>
        <time>2018-03-27T09:01:59Z</time>
      </trkpt>
      <trkpt lat="44.82246" lon="6.96357">
        <ele>2353.3</ele>
        <time>2018-03-27T09:02:56Z</time>
      </trkpt>
      <trkpt lat="44.82257" lon="6.96387">
        <ele>2362.7</ele>
        <time>2018-03-27T09:03:43Z</time>
      </trkpt>
      <trkpt lat="44.82263" lon="6.9642">
        <ele>2371.4</ele>
        <time>2018-03-27T09:04:49Z</time>
      </trkpt>
      <trkpt lat="44.82245" lon="6.9644">
        <ele>2378.2</ele>
        <time>2018-03-27T09:05:49Z</time>
      </trkpt>
      <trkpt lat="44.82232" lon="6.96466">
        <ele>2383.6</ele>
        <time>2018-03-27T09:06:37Z</time>
      </trkpt>
      <trkpt lat="44.82224" lon="6.96498">
        <ele>2388.6</ele>
        <time>2018-03-27T09:07:21Z</time>
      </trkpt>
      <trkpt lat="44.82235" lon="6.96538">
        <ele>2391.3</ele>
        <time>2018-03-27T09:07:59Z</time>
      </trkpt>
      <trkpt lat="44.8223" lon="6.96577">
        <ele>2395.7</ele>
        <time>2018-03-27T09:08:41Z</time>
      </trkpt>
      <trkpt lat="44.82214" lon="6.96603">
        <ele>2400.4</ele>
        <time>2018-03-27T09:09:22Z</time>
      </trkpt>
      <trkpt lat="44.82192" lon="6.9662">
        <ele>2404.4</ele>
        <time>2018-03-27T09:10:13Z</time>
      </trkpt>
      <trkpt lat="44.8217" lon="6.96648">
        <ele>2409.6</ele>
        <time>2018-03-27T09:11:05Z</time>
      </trkpt>
      <trkpt lat="44.82158" lon="6.96677">
        <ele>2417.1</ele>
        <time>2018-03-27T09:12:00Z</time>
      </trkpt>
      <trkpt lat="44.82143" lon="6.96707">
        <ele>2425.7</ele>
        <time>2018-03-27T09:13:12Z</time>
      </trkpt>
      <trkpt lat="44.82164" lon="6.96722">
        <ele>2432.6</ele>
        <time>2018-03-27T09:14:17Z</time>
      </trkpt>
      <trkpt lat="44.82186" lon="6.96727">
        <ele>2439.7</ele>
        <time>2018-03-27T09:15:17Z</time>
      </trkpt>
      <trkpt lat="44.82191" lon="6.96746">
        <ele>2448.4</ele>
        <time>2018-03-27T09:17:33Z</time>
      </trkpt>
      <trkpt lat="44.82202" lon="6.96753">
        <ele>2455</ele>
        <time>2018-03-27T09:19:03Z</time>
      </trkpt>
      <trkpt lat="44.82188" lon="6.96787">
        <ele>2461.4</ele>
        <time>2018-03-27T09:20:22Z</time>
      </trkpt>
      <trkpt lat="44.82184" lon="6.96823">
        <ele>2467</ele>
        <time>2018-03-27T09:21:24Z</time>
      </trkpt>
      <trkpt lat="44.82192" lon="6.96856">
        <ele>2471.2</ele>
        <time>2018-03-27T09:22:27Z</time>
      </trkpt>
      <trkpt lat="44.82219" lon="6.96863">
        <ele>2480.1</ele>
        <time>2018-03-27T09:23:26Z</time>
      </trkpt>
      <trkpt lat="44.82243" lon="6.96877">
        <ele>2487.3</ele>
        <time>2018-03-27T09:24:18Z</time>
      </trkpt>
      <trkpt lat="44.82266" lon="6.96873">
        <ele>2493.6</ele>
        <time>2018-03-27T09:25:23Z</time>
      </trkpt>
      <trkpt lat="44.82286" lon="6.96852">
        <ele>2499.5</ele>
        <time>2018-03-27T09:26:25Z</time>
      </trkpt>
      <trkpt lat="44.82307" lon="6.96839">
        <ele>2506.2</ele>
        <time>2018-03-27T09:27:22Z</time>
      </trkpt>
      <trkpt lat="44.82314" lon="6.9684">
        <ele>2509.1</ele>
        <time>2018-03-27T09:32:00Z</time>
      </trkpt>
      <trkpt lat="44.82325" lon="6.96857">
        <ele>2513.9</ele>
        <time>2018-03-27T09:37:07Z</time>
      </trkpt>
      <trkpt lat="44.82339" lon="6.96887">
        <ele>2519.4</ele>
        <time>2018-03-27T09:38:10Z</time>
      </trkpt>
      <trkpt lat="44.82363" lon="6.96891">
        <ele>2529</ele>
        <time>2018-03-27T09:39:07Z</time>
      </trkpt>
      <trkpt lat="44.82384" lon="6.96875">
        <ele>2535.9</ele>
        <time>2018-03-27T09:39:56Z</time>
      </trkpt>
      <trkpt lat="44.8241" lon="6.96855">
        <ele>2542.3</ele>
        <time>2018-03-27T09:40:49Z</time>
      </trkpt>
      <trkpt lat="44.82434" lon="6.96867">
        <ele>2548.6</ele>
        <time>2018-03-27T09:41:31Z</time>
      </trkpt>
      <trkpt lat="44.82449" lon="6.96897">
        <ele>2558.2</ele>
        <time>2018-03-27T09:42:23Z</time>
      </trkpt>
      <trkpt lat="44.82459" lon="6.96923">
        <ele>2565.5</ele>
        <time>2018-03-27T09:43:18Z</time>
      </trkpt>
      <trkpt lat="44.82476" lon="6.9695">
        <ele>2572.7</ele>
        <time>2018-03-27T09:44:11Z</time>
      </trkpt>
      <trkpt lat="44.8249" lon="6.96982">
        <ele>2578.7</ele>
        <time>2018-03-27T09:45:02Z</time>
      </trkpt>
      <trkpt lat="44.82505" lon="6.97013">
        <ele>2580.8</ele>
        <time>2018-03-27T09:45:36Z</time>
      </trkpt>
      <trkpt lat="44.82528" lon="6.97049">
        <ele>2581.6</ele>
        <time>2018-03-27T09:46:22Z</time>
      </trkpt>
      <trkpt lat="44.82551" lon="6.97041">
        <ele>2586.1</ele>
        <time>2018-03-27T09:47:28Z</time>
      </trkpt>
      <trkpt lat="44.8257" lon="6.97047">
        <ele>2587.4</ele>
        <time>2018-03-27T09:48:00Z</time>
      </trkpt>
      <trkpt lat="44.82583" lon="6.97081">
        <ele>2587.1</ele>
        <time>2018-03-27T09:48:20Z</time>
      </trkpt>
      <trkpt lat="44.82591" lon="6.97121">
        <ele>2582.9</ele>
        <time>2018-03-27T09:48:44Z</time>
      </trkpt>
      <trkpt lat="44.82589" lon="6.97154">
        <ele>2580.6</ele>
        <time>2018-03-27T09:49:24Z</time>
      </trkpt>
      <trkpt lat="44.82568" lon="6.97158">
        <ele>2582.8</ele>
        <time>2018-03-27T09:50:10Z</time>
      </trkpt>
      <trkpt lat="44.82536" lon="6.97163">
        <ele>2587.8</ele>
        <time>2018-03-27T09:50:51Z</time>
      </trkpt>
      <trkpt lat="44.8251" lon="6.97151">
        <ele>2596</ele>
        <time>2018-03-27T09:51:40Z</time>
      </trkpt>
      <trkpt lat="44.82492" lon="6.97124">
        <ele>2600</ele>
        <time>2018-03-27T09:52:31Z</time>
      </trkpt>
      <trkpt lat="44.82478" lon="6.97118">
        <ele>2604.6</ele>
        <time>2018-03-27T09:53:37Z</time>
      </trkpt>
      <trkpt lat="44.82478" lon="6.9715">
        <ele>2606.9</ele>
        <time>2018-03-27T09:54:23Z</time>
      </trkpt>
      <trkpt lat="44.82484" lon="6.97183">
        <ele>2605.5</ele>
        <time>2018-03-27T09:55:01Z</time>
      </trkpt>
      <trkpt lat="44.8249" lon="6.97219">
        <ele>2608.2</ele>
        <time>2018-03-27T09:55:39Z</time>
      </trkpt>
      <trkpt lat="44.82491" lon="6.97257">
        <ele>2609.3</ele>
        <time>2018-03-27T09:56:34Z</time>
      </trkpt>
      <trkpt lat="44.82492" lon="6.9728">
        <ele>2608</ele>
        <time>2018-03-27T10:01:15Z</time>
      </trkpt>
      <trkpt lat="44.82489" lon="6.97279">
        <ele>2607.2</ele>
        <time>2018-03-27T10:13:38Z</time>
      </trkpt>
      <trkpt lat="44.82491" lon="6.9726">
        <ele>2609.1</ele>
        <time>2018-03-27T10:16:20Z</time>
      </trkpt>
      <trkpt lat="44.82496" lon="6.97232">
        <ele>2609.8</ele>
        <time>2018-03-27T10:20:47Z</time>
      </trkpt>
      <trkpt lat="44.82508" lon="6.97189">
        <ele>2600.4</ele>
        <time>2018-03-27T10:21:02Z</time>
      </trkpt>
      <trkpt lat="44.82517" lon="6.97176">
        <ele>2595.1</ele>
        <time>2018-03-27T10:21:11Z</time>
      </trkpt>
      <trkpt lat="44.82545" lon="6.97169">
        <ele>2585.5</ele>
        <time>2018-03-27T10:21:21Z</time>
      </trkpt>
      <trkpt lat="44.82568" lon="6.97141">
        <ele>2584</ele>
        <time>2018-03-27T10:21:27Z</time>
      </trkpt>
      <trkpt lat="44.82586" lon="6.97162">
        <ele>2580.7</ele>
        <time>2018-03-27T10:22:05Z</time>
      </trkpt>
      <trkpt lat="44.82591" lon="6.97195">
        <ele>2575.6</ele>
        <time>2018-03-27T10:22:11Z</time>
      </trkpt>
      <trkpt lat="44.82595" lon="6.97228">
        <ele>2570.8</ele>
        <time>2018-03-27T10:22:16Z</time>
      </trkpt>
      <trkpt lat="44.82592" lon="6.9728">
        <ele>2565.8</ele>
        <time>2018-03-27T10:22:24Z</time>
      </trkpt>
      <trkpt lat="44.82592" lon="6.97312">
        <ele>2562.3</ele>
        <time>2018-03-27T10:22:29Z</time>
      </trkpt>
      <trkpt lat="44.82598" lon="6.97345">
        <ele>2560.3</ele>
        <time>2018-03-27T10:22:33Z</time>
      </trkpt>
      <trkpt lat="44.82608" lon="6.97343">
        <ele>2560.6</ele>
        <time>2018-03-27T10:22:54Z</time>
      </trkpt>
      <trkpt lat="44.8263" lon="6.97349">
        <ele>2556.5</ele>
        <time>2018-03-27T10:23:08Z</time>
      </trkpt>
      <trkpt lat="44.82648" lon="6.97379">
        <ele>2550.3</ele>
        <time>2018-03-27T10:23:28Z</time>
      </trkpt>
      <trkpt lat="44.82655" lon="6.97409">
        <ele>2546.5</ele>
        <time>2018-03-27T10:24:51Z</time>
      </trkpt>
      <trkpt lat="44.82678" lon="6.97412">
        <ele>2531.2</ele>
        <time>2018-03-27T10:25:01Z</time>
      </trkpt>
      <trkpt lat="44.82694" lon="6.97411">
        <ele>2520.4</ele>
        <time>2018-03-27T10:25:08Z</time>
      </trkpt>
      <trkpt lat="44.82702" lon="6.97444">
        <ele>2516.3</ele>
        <time>2018-03-27T10:25:20Z</time>
      </trkpt>
      <trkpt lat="44.82705" lon="6.97476">
        <ele>2513.3</ele>
        <time>2018-03-27T10:25:28Z</time>
      </trkpt>
      <trkpt lat="44.82718" lon="6.97452">
        <ele>2504.2</ele>
        <time>2018-03-27T10:25:46Z</time>
      </trkpt>
      <trkpt lat="44.82737" lon="6.97449">
        <ele>2491</ele>
        <time>2018-03-27T10:26:04Z</time>
      </trkpt>
      <trkpt lat="44.8276" lon="6.97456">
        <ele>2477.3</ele>
        <time>2018-03-27T10:26:13Z</time>
      </trkpt>
      <trkpt lat="44.82782" lon="6.97466">
        <ele>2466.3</ele>
        <time>2018-03-27T10:26:34Z</time>
      </trkpt>
      <trkpt lat="44.82812" lon="6.97479">
        <ele>2456.4</ele>
        <time>2018-03-27T10:26:42Z</time>
      </trkpt>
      <trkpt lat="44.82827" lon="6.9747">
        <ele>2450.6</ele>
        <time>2018-03-27T10:26:54Z</time>
      </trkpt>
      <trkpt lat="44.82843" lon="6.97481">
        <ele>2446.2</ele>
        <time>2018-03-27T10:29:55Z</time>
      </trkpt>
      <trkpt lat="44.82864" lon="6.97476">
        <ele>2436.7</ele>
        <time>2018-03-27T10:30:03Z</time>
      </trkpt>
      <trkpt lat="44.82883" lon="6.97468">
        <ele>2424.3</ele>
        <time>2018-03-27T10:30:16Z</time>
      </trkpt>
      <trkpt lat="44.82884" lon="6.97432">
        <ele>2422</ele>
        <time>2018-03-27T10:31:34Z</time>
      </trkpt>
      <trkpt lat="44.82896" lon="6.97458">
        <ele>2416.8</ele>
        <time>2018-03-27T10:31:44Z</time>
      </trkpt>
      <trkpt lat="44.82925" lon="6.97447">
        <ele>2402.4</ele>
        <time>2018-03-27T10:31:56Z</time>
      </trkpt>
      <trkpt lat="44.8294" lon="6.97463">
        <ele>2391.7</ele>
        <time>2018-03-27T10:32:14Z</time>
      </trkpt>
      <trkpt lat="44.82956" lon="6.97454">
        <ele>2385.1</ele>
        <time>2018-03-27T10:32:39Z</time>
      </trkpt>
      <trkpt lat="44.82964" lon="6.97492">
        <ele>2377.8</ele>
        <time>2018-03-27T10:32:49Z</time>
      </trkpt>
      <trkpt lat="44.82978" lon="6.97531">
        <ele>2372.9</ele>
        <time>2018-03-27T10:32:57Z</time>
      </trkpt>
      <trkpt lat="44.82976" lon="6.9749">
        <ele>2373.6</ele>
        <time>2018-03-27T10:34:31Z</time>
      </trkpt>
      <trkpt lat="44.82993" lon="6.97435">
        <ele>2369.4</ele>
        <time>2018-03-27T10:34:46Z</time>
      </trkpt>
      <trkpt lat="44.83" lon="6.97403">
        <ele>2365.4</ele>
        <time>2018-03-27T10:35:12Z</time>
      </trkpt>
      <trkpt lat="44.8302" lon="6.97399">
        <ele>2354.3</ele>
        <time>2018-03-27T10:35:23Z</time>
      </trkpt>
      <trkpt lat="44.83037" lon="6.97418">
        <ele>2347</ele>
        <time>2018-03-27T10:35:37Z</time>
      </trkpt>
      <trkpt lat="44.83059" lon="6.97435">
        <ele>2339.1</ele>
        <time>2018-03-27T10:35:57Z</time>
      </trkpt>
      <trkpt lat="44.83081" lon="6.97443">
        <ele>2330.1</ele>
        <time>2018-03-27T10:36:27Z</time>
      </trkpt>
      <trkpt lat="44.83094" lon="6.97428">
        <ele>2321.8</ele>
        <time>2018-03-27T10:37:00Z</time>
      </trkpt>
      <trkpt lat="44.83111" lon="6.9741">
        <ele>2311.7</ele>
        <time>2018-03-27T10:37:10Z</time>
      </trkpt>
      <trkpt lat="44.83121" lon="6.97385">
        <ele>2305.8</ele>
        <time>2018-03-27T10:37:34Z</time>
      </trkpt>
      <trkpt lat="44.83124" lon="6.97352">
        <ele>2302.5</ele>
        <time>2018-03-27T10:37:59Z</time>
      </trkpt>
      <trkpt lat="44.83121" lon="6.97351">
        <ele>2303.8</ele>
        <time>2018-03-27T10:41:15Z</time>
      </trkpt>
      <trkpt lat="44.83123" lon="6.97321">
        <ele>2302.2</ele>
        <time>2018-03-27T10:43:37Z</time>
      </trkpt>
      <trkpt lat="44.83136" lon="6.97298">
        <ele>2297</ele>
        <time>2018-03-27T10:44:03Z</time>
      </trkpt>
      <trkpt lat="44.83154" lon="6.97279">
        <ele>2288.4</ele>
        <time>2018-03-27T10:44:40Z</time>
      </trkpt>
      <trkpt lat="44.83172" lon="6.97274">
        <ele>2280.8</ele>
        <time>2018-03-27T10:45:29Z</time>
      </trkpt>
      <trkpt lat="44.83194" lon="6.97291">
        <ele>2271.8</ele>
        <time>2018-03-27T10:46:04Z</time>
      </trkpt>
      <trkpt lat="44.83212" lon="6.97312">
        <ele>2264.2</ele>
        <time>2018-03-27T10:46:23Z</time>
      </trkpt>
      <trkpt lat="44.83234" lon="6.97328">
        <ele>2254.6</ele>
        <time>2018-03-27T10:46:57Z</time>
      </trkpt>
      <trkpt lat="44.83266" lon="6.97348">
        <ele>2240.5</ele>
        <time>2018-03-27T10:47:10Z</time>
      </trkpt>
      <trkpt lat="44.83277" lon="6.97321">
        <ele>2233.9</ele>
        <time>2018-03-27T10:47:25Z</time>
      </trkpt>
      <trkpt lat="44.83274" lon="6.97312">
        <ele>2234.9</ele>
        <time>2018-03-27T10:50:50Z</time>
      </trkpt>
      <trkpt lat="44.83276" lon="6.97312">
        <ele>2233.8</ele>
        <time>2018-03-27T10:54:27Z</time>
      </trkpt>
      <trkpt lat="44.83276" lon="6.9732">
        <ele>2234.2</ele>
        <time>2018-03-27T10:58:05Z</time>
      </trkpt>
      <trkpt lat="44.83275" lon="6.97312">
        <ele>2234.3</ele>
        <time>2018-03-27T11:01:19Z</time>
      </trkpt>
      <trkpt lat="44.83281" lon="6.97317">
        <ele>2232.1</ele>
        <time>2018-03-27T11:04:19Z</time>
      </trkpt>
      <trkpt lat="44.83275" lon="6.97316">
        <ele>2234.5</ele>
        <time>2018-03-27T11:07:50Z</time>
      </trkpt>
      <trkpt lat="44.8328" lon="6.97317">
        <ele>2232.7</ele>
        <time>2018-03-27T11:10:52Z</time>
      </trkpt>
      <trkpt lat="44.83278" lon="6.97321">
        <ele>2233.5</ele>
        <time>2018-03-27T11:16:03Z</time>
      </trkpt>
      <trkpt lat="44.83281" lon="6.97321">
        <ele>2232.1</ele>
        <time>2018-03-27T11:19:39Z</time>
      </trkpt>
      <trkpt lat="44.83282" lon="6.97314">
        <ele>2231.7</ele>
        <time>2018-03-27T11:23:45Z</time>
      </trkpt>
      <trkpt lat="44.83278" lon="6.97317">
        <ele>2233.2</ele>
        <time>2018-03-27T11:27:38Z</time>
      </trkpt>
      <trkpt lat="44.83292" lon="6.97299">
        <ele>2226.9</ele>
        <time>2018-03-27T11:29:09Z</time>
      </trkpt>
      <trkpt lat="44.83315" lon="6.97299">
        <ele>2218</ele>
        <time>2018-03-27T11:29:28Z</time>
      </trkpt>
      <trkpt lat="44.8334" lon="6.97305">
        <ele>2208.4</ele>
        <time>2018-03-27T11:30:03Z</time>
      </trkpt>
      <trkpt lat="44.83368" lon="6.97309">
        <ele>2196.7</ele>
        <time>2018-03-27T11:30:27Z</time>
      </trkpt>
      <trkpt lat="44.83388" lon="6.97324">
        <ele>2188</ele>
        <time>2018-03-27T11:30:39Z</time>
      </trkpt>
      <trkpt lat="44.83402" lon="6.97305">
        <ele>2177.7</ele>
        <time>2018-03-27T11:31:16Z</time>
      </trkpt>
      <trkpt lat="44.83416" lon="6.97297">
        <ele>2168.3</ele>
        <time>2018-03-27T11:31:40Z</time>
      </trkpt>
      <trkpt lat="44.83431" lon="6.97315">
        <ele>2160.5</ele>
        <time>2018-03-27T11:32:27Z</time>
      </trkpt>
      <trkpt lat="44.83453" lon="6.97307">
        <ele>2145.8</ele>
        <time>2018-03-27T11:33:02Z</time>
      </trkpt>
      <trkpt lat="44.83471" lon="6.97319">
        <ele>2135.5</ele>
        <time>2018-03-27T11:33:20Z</time>
      </trkpt>
      <trkpt lat="44.83492" lon="6.97316">
        <ele>2124.5</ele>
        <time>2018-03-27T11:33:31Z</time>
      </trkpt>
      <trkpt lat="44.83515" lon="6.97329">
        <ele>2120.2</ele>
        <time>2018-03-27T11:33:42Z</time>
      </trkpt>
      <trkpt lat="44.83515" lon="6.97308">
        <ele>2119</ele>
        <time>2018-03-27T11:35:34Z</time>
      </trkpt>
      <trkpt lat="44.83518" lon="6.9727">
        <ele>2117.6</ele>
        <time>2018-03-27T11:35:45Z</time>
      </trkpt>
      <trkpt lat="44.8351" lon="6.97225">
        <ele>2113.6</ele>
        <time>2018-03-27T11:35:55Z</time>
      </trkpt>
      <trkpt lat="44.83496" lon="6.97198">
        <ele>2110.9</ele>
        <time>2018-03-27T11:36:19Z</time>
      </trkpt>
      <trkpt lat="44.83494" lon="6.97159">
        <ele>2109.7</ele>
        <time>2018-03-27T11:36:47Z</time>
      </trkpt>
      <trkpt lat="44.83511" lon="6.9712">
        <ele>2109.2</ele>
        <time>2018-03-27T11:36:58Z</time>
      </trkpt>
      <trkpt lat="44.83505" lon="6.97076">
        <ele>2105.9</ele>
        <time>2018-03-27T11:37:53Z</time>
      </trkpt>
      <trkpt lat="44.83506" lon="6.97038">
        <ele>2104.6</ele>
        <time>2018-03-27T11:38:03Z</time>
      </trkpt>
      <trkpt lat="44.8351" lon="6.96975">
        <ele>2103.6</ele>
        <time>2018-03-27T11:38:15Z</time>
      </trkpt>
      <trkpt lat="44.83511" lon="6.96933">
        <ele>2101.2</ele>
        <time>2018-03-27T11:38:22Z</time>
      </trkpt>
      <trkpt lat="44.83508" lon="6.96895">
        <ele>2097.9</ele>
        <time>2018-03-27T11:38:27Z</time>
      </trkpt>
      <trkpt lat="44.835" lon="6.96816">
        <ele>2092.4</ele>
        <time>2018-03-27T11:38:40Z</time>
      </trkpt>
      <trkpt lat="44.8349" lon="6.96766">
        <ele>2090</ele>
        <time>2018-03-27T11:38:47Z</time>
      </trkpt>
      <trkpt lat="44.83482" lon="6.96722">
        <ele>2087.5</ele>
        <time>2018-03-27T11:38:55Z</time>
      </trkpt>
      <trkpt lat="44.83471" lon="6.96685">
        <ele>2085.3</ele>
        <time>2018-03-27T11:39:06Z</time>
      </trkpt>
      <trkpt lat="44.83466" lon="6.96638">
        <ele>2085.3</ele>
        <time>2018-03-27T11:39:18Z</time>
      </trkpt>
      <trkpt lat="44.83472" lon="6.96585">
        <ele>2081.1</ele>
        <time>2018-03-27T11:39:30Z</time>
      </trkpt>
      <trkpt lat="44.8347" lon="6.96533">
        <ele>2079</ele>
        <time>2018-03-27T11:39:40Z</time>
      </trkpt>
      <trkpt lat="44.83456" lon="6.96475">
        <ele>2076.8</ele>
        <time>2018-03-27T11:39:52Z</time>
      </trkpt>
      <trkpt lat="44.83436" lon="6.96402">
        <ele>2073.2</ele>
        <time>2018-03-27T11:40:05Z</time>
      </trkpt>
      <trkpt lat="44.83423" lon="6.96349">
        <ele>2071.4</ele>
        <time>2018-03-27T11:40:17Z</time>
      </trkpt>
      <trkpt lat="44.8341" lon="6.9631">
        <ele>2071.8</ele>
        <time>2018-03-27T11:40:28Z</time>
      </trkpt>
      <trkpt lat="44.83408" lon="6.96268">
        <ele>2071.2</ele>
        <time>2018-03-27T11:40:55Z</time>
      </trkpt>
      <trkpt lat="44.83411" lon="6.96227">
        <ele>2071.4</ele>
        <time>2018-03-27T11:41:16Z</time>
      </trkpt>
      <trkpt lat="44.83416" lon="6.96191">
        <ele>2070.4</ele>
        <time>2018-03-27T11:41:27Z</time>
      </trkpt>
      <trkpt lat="44.83421" lon="6.96158">
        <ele>2070.2</ele>
        <time>2018-03-27T11:41:52Z</time>
      </trkpt>
      <trkpt lat="44.83432" lon="6.9612">
        <ele>2067.4</ele>
        <time>2018-03-27T11:42:27Z</time>
      </trkpt>
      <trkpt lat="44.83439" lon="6.96063">
        <ele>2061.3</ele>
        <time>2018-03-27T11:42:57Z</time>
      </trkpt>
      <trkpt lat="44.83441" lon="6.96028">
        <ele>2061.6</ele>
        <time>2018-03-27T11:43:17Z</time>
      </trkpt>
      <trkpt lat="44.83446" lon="6.95995">
        <ele>2059.9</ele>
        <time>2018-03-27T11:43:22Z</time>
      </trkpt>
      <trkpt lat="44.83453" lon="6.9596">
        <ele>2058.5</ele>
        <time>2018-03-27T11:43:28Z</time>
      </trkpt>
      <trkpt lat="44.83458" lon="6.9591">
        <ele>2054.6</ele>
        <time>2018-03-27T11:43:36Z</time>
      </trkpt>
      <trkpt lat="44.83462" lon="6.95875">
        <ele>2050.8</ele>
        <time>2018-03-27T11:43:40Z</time>
      </trkpt>
      <trkpt lat="44.83472" lon="6.95839">
        <ele>2044.6</ele>
        <time>2018-03-27T11:43:49Z</time>
      </trkpt>
      <trkpt lat="44.83481" lon="6.95809">
        <ele>2046.4</ele>
        <time>2018-03-27T11:44:14Z</time>
      </trkpt>
      <trkpt lat="44.83488" lon="6.95755">
        <ele>2045.7</ele>
        <time>2018-03-27T11:44:35Z</time>
      </trkpt>
      <trkpt lat="44.83499" lon="6.95704">
        <ele>2042.5</ele>
        <time>2018-03-27T11:44:46Z</time>
      </trkpt>
      <trkpt lat="44.83501" lon="6.95658">
        <ele>2040.1</ele>
        <time>2018-03-27T11:44:53Z</time>
      </trkpt>
      <trkpt lat="44.83505" lon="6.95621">
        <ele>2035.8</ele>
        <time>2018-03-27T11:45:13Z</time>
      </trkpt>
      <trkpt lat="44.83494" lon="6.95601">
        <ele>2038.8</ele>
        <time>2018-03-27T11:46:40Z</time>
      </trkpt>
      <trkpt lat="44.83491" lon="6.95556">
        <ele>2036</ele>
        <time>2018-03-27T11:46:50Z</time>
      </trkpt>
      <trkpt lat="44.83489" lon="6.95506">
        <ele>2031.3</ele>
        <time>2018-03-27T11:46:58Z</time>
      </trkpt>
      <trkpt lat="44.83492" lon="6.95453">
        <ele>2026.8</ele>
        <time>2018-03-27T11:47:05Z</time>
      </trkpt>
      <trkpt lat="44.83492" lon="6.95422">
        <ele>2025.9</ele>
        <time>2018-03-27T11:47:09Z</time>
      </trkpt>
      <trkpt lat="44.83496" lon="6.95386">
        <ele>2021.9</ele>
        <time>2018-03-27T11:47:14Z</time>
      </trkpt>
      <trkpt lat="44.83496" lon="6.9534">
        <ele>2017.1</ele>
        <time>2018-03-27T11:47:20Z</time>
      </trkpt>
      <trkpt lat="44.83495" lon="6.95291">
        <ele>2012</ele>
        <time>2018-03-27T11:47:25Z</time>
      </trkpt>
      <trkpt lat="44.83493" lon="6.95259">
        <ele>2008.5</ele>
        <time>2018-03-27T11:47:29Z</time>
      </trkpt>
      <trkpt lat="44.83491" lon="6.9522">
        <ele>2003.1</ele>
        <time>2018-03-27T11:47:40Z</time>
      </trkpt>
      <trkpt lat="44.83488" lon="6.9518">
        <ele>1999.6</ele>
        <time>2018-03-27T11:47:46Z</time>
      </trkpt>
      <trkpt lat="44.8348" lon="6.95144">
        <ele>1999.6</ele>
        <time>2018-03-27T11:47:51Z</time>
      </trkpt>
      <trkpt lat="44.83482" lon="6.95118">
        <ele>1996</ele>
        <time>2018-03-27T11:49:43Z</time>
      </trkpt>
      <trkpt lat="44.83492" lon="6.95086">
        <ele>1989.8</ele>
        <time>2018-03-27T11:49:49Z</time>
      </trkpt>
      <trkpt lat="44.83492" lon="6.95043">
        <ele>1988.6</ele>
        <time>2018-03-27T11:49:57Z</time>
      </trkpt>
      <trkpt lat="44.83493" lon="6.95009">
        <ele>1987.7</ele>
        <time>2018-03-27T11:50:02Z</time>
      </trkpt>
      <trkpt lat="44.83499" lon="6.94975">
        <ele>1983.5</ele>
        <time>2018-03-27T11:50:08Z</time>
      </trkpt>
      <trkpt lat="44.83498" lon="6.94939">
        <ele>1983.4</ele>
        <time>2018-03-27T11:50:13Z</time>
      </trkpt>
      <trkpt lat="44.83497" lon="6.94902">
        <ele>1983.6</ele>
        <time>2018-03-27T11:50:17Z</time>
      </trkpt>
      <trkpt lat="44.83499" lon="6.94866">
        <ele>1980.8</ele>
        <time>2018-03-27T11:50:21Z</time>
      </trkpt>
      <trkpt lat="44.83504" lon="6.94814">
        <ele>1975.2</ele>
        <time>2018-03-27T11:50:27Z</time>
      </trkpt>
      <trkpt lat="44.83505" lon="6.94781">
        <ele>1971.6</ele>
        <time>2018-03-27T11:50:32Z</time>
      </trkpt>
      <trkpt lat="44.83502" lon="6.94747">
        <ele>1969.5</ele>
        <time>2018-03-27T11:50:37Z</time>
      </trkpt>
      <trkpt lat="44.83493" lon="6.94678">
        <ele>1966.9</ele>
        <time>2018-03-27T11:50:47Z</time>
      </trkpt>
      <trkpt lat="44.83488" lon="6.94643">
        <ele>1966.2</ele>
        <time>2018-03-27T11:50:53Z</time>
      </trkpt>
      <trkpt lat="44.8349" lon="6.94606">
        <ele>1960.3</ele>
        <time>2018-03-27T11:51:00Z</time>
      </trkpt>
      <trkpt lat="44.83495" lon="6.94563">
        <ele>1951.4</ele>
        <time>2018-03-27T11:51:10Z</time>
      </trkpt>
      <trkpt lat="44.83493" lon="6.94531">
        <ele>1947.9</ele>
        <time>2018-03-27T11:51:23Z</time>
      </trkpt>
      <trkpt lat="44.83483" lon="6.94471">
        <ele>1945.6</ele>
        <time>2018-03-27T11:51:38Z</time>
      </trkpt>
      <trkpt lat="44.8346" lon="6.94407">
        <ele>1939.8</ele>
        <time>2018-03-27T11:51:52Z</time>
      </trkpt>
      <trkpt lat="44.83441" lon="6.94372">
        <ele>1933.7</ele>
        <time>2018-03-27T11:52:09Z</time>
      </trkpt>
      <trkpt lat="44.83426" lon="6.94347">
        <ele>1928.8</ele>
        <time>2018-03-27T11:52:14Z</time>
      </trkpt>
      <trkpt lat="44.83405" lon="6.94331">
        <ele>1927.5</ele>
        <time>2018-03-27T11:52:24Z</time>
      </trkpt>
      <trkpt lat="44.83384" lon="6.94308">
        <ele>1922.4</ele>
        <time>2018-03-27T11:52:43Z</time>
      </trkpt>
      <trkpt lat="44.8336" lon="6.94283">
        <ele>1914.4</ele>
        <time>2018-03-27T11:52:49Z</time>
      </trkpt>
      <trkpt lat="44.83325" lon="6.94269">
        <ele>1909.7</ele>
        <time>2018-03-27T11:52:58Z</time>
      </trkpt>
      <trkpt lat="44.83285" lon="6.94274">
        <ele>1913</ele>
        <time>2018-03-27T11:53:38Z</time>
      </trkpt>
      <trkpt lat="44.83267" lon="6.94252">
        <ele>1904.3</ele>
        <time>2018-03-27T11:54:02Z</time>
      </trkpt>
      <trkpt lat="44.83241" lon="6.94232">
        <ele>1896.8</ele>
        <time>2018-03-27T11:54:08Z</time>
      </trkpt>
      <trkpt lat="44.83222" lon="6.94212">
        <ele>1889.3</ele>
        <time>2018-03-27T11:54:27Z</time>
      </trkpt>
      <trkpt lat="44.83204" lon="6.9421">
        <ele>1888.4</ele>
        <time>2018-03-27T11:55:55Z</time>
      </trkpt>
      <trkpt lat="44.83171" lon="6.94204">
        <ele>1885.1</ele>
        <time>2018-03-27T11:56:03Z</time>
      </trkpt>
      <trkpt lat="44.83143" lon="6.94207">
        <ele>1884.8</ele>
        <time>2018-03-27T11:56:08Z</time>
      </trkpt>
      <trkpt lat="44.83118" lon="6.94198">
        <ele>1879.7</ele>
        <time>2018-03-27T11:56:12Z</time>
      </trkpt>
      <trkpt lat="44.83087" lon="6.94195">
        <ele>1875.7</ele>
        <time>2018-03-27T11:56:20Z</time>
      </trkpt>
      <trkpt lat="44.83063" lon="6.94191">
        <ele>1871.9</ele>
        <time>2018-03-27T11:56:26Z</time>
      </trkpt>
      <trkpt lat="44.8304" lon="6.94182">
        <ele>1866.1</ele>
        <time>2018-03-27T11:56:32Z</time>
      </trkpt>
      <trkpt lat="44.83014" lon="6.94169">
        <ele>1858.2</ele>
        <time>2018-03-27T11:56:39Z</time>
      </trkpt>
      <trkpt lat="44.82992" lon="6.9416">
        <ele>1852.2</ele>
        <time>2018-03-27T11:56:45Z</time>
      </trkpt>
      <trkpt lat="44.82969" lon="6.94158">
        <ele>1848.8</ele>
        <time>2018-03-27T11:56:49Z</time>
      </trkpt>
      <trkpt lat="44.8294" lon="6.94157">
        <ele>1846</ele>
        <time>2018-03-27T11:56:56Z</time>
      </trkpt>
      <trkpt lat="44.82915" lon="6.94151">
        <ele>1840.3</ele>
        <time>2018-03-27T11:57:02Z</time>
      </trkpt>
      <trkpt lat="44.82889" lon="6.94157">
        <ele>1838</ele>
        <time>2018-03-27T11:57:17Z</time>
      </trkpt>
      <trkpt lat="44.82863" lon="6.94168">
        <ele>1838</ele>
        <time>2018-03-27T11:57:22Z</time>
      </trkpt>
      <trkpt lat="44.82837" lon="6.94169">
        <ele>1835.1</ele>
        <time>2018-03-27T11:57:26Z</time>
      </trkpt>
      <trkpt lat="44.8281" lon="6.94164">
        <ele>1830.7</ele>
        <time>2018-03-27T11:57:32Z</time>
      </trkpt>
      <trkpt lat="44.82784" lon="6.94161">
        <ele>1828.3</ele>
        <time>2018-03-27T11:57:36Z</time>
      </trkpt>
      <trkpt lat="44.82765" lon="6.94159">
        <ele>1825.3</ele>
        <time>2018-03-27T11:58:01Z</time>
      </trkpt>
      <trkpt lat="44.82734" lon="6.94174">
        <ele>1822</ele>
        <time>2018-03-27T11:59:07Z</time>
      </trkpt>
      <trkpt lat="44.82687" lon="6.94203">
        <ele>1817.8</ele>
        <time>2018-03-27T11:59:17Z</time>
      </trkpt>
      <trkpt lat="44.82625" lon="6.94196">
        <ele>1813.6</ele>
        <time>2018-03-27T11:59:29Z</time>
      </trkpt>
      <trkpt lat="44.8258" lon="6.94178">
        <ele>1806.3</ele>
        <time>2018-03-27T11:59:42Z</time>
      </trkpt>
      <trkpt lat="44.82557" lon="6.94183">
        <ele>1803.6</ele>
        <time>2018-03-27T12:00:05Z</time>
      </trkpt>
      <trkpt lat="44.82541" lon="6.94176">
        <ele>1798</ele>
        <time>2018-03-27T12:00:39Z</time>
      </trkpt>
      <trkpt lat="44.82542" lon="6.94172">
        <ele>1795.9</ele>
        <time>2018-03-27T12:01:08Z</time>
      </trkpt>
      <trkpt lat="44.82504" lon="6.94149">
        <ele>1785.7</ele>
        <time>2018-03-27T12:03:23Z</time>
      </trkpt>
      <trkpt lat="44.82472" lon="6.94146">
        <ele>1782.7</ele>
        <time>2018-03-27T12:03:29Z</time>
      </trkpt>
      <trkpt lat="44.82449" lon="6.94152">
        <ele>1779.3</ele>
        <time>2018-03-27T12:03:33Z</time>
      </trkpt>
      <trkpt lat="44.82411" lon="6.94186">
        <ele>1781.3</ele>
        <time>2018-03-27T12:03:47Z</time>
      </trkpt>
      <trkpt lat="44.82372" lon="6.94188">
        <ele>1776.4</ele>
        <time>2018-03-27T12:04:01Z</time>
      </trkpt>
      <trkpt lat="44.82346" lon="6.94203">
        <ele>1773.6</ele>
        <time>2018-03-27T12:04:06Z</time>
      </trkpt>
      <trkpt lat="44.82318" lon="6.94231">
        <ele>1771.3</ele>
        <time>2018-03-27T12:04:12Z</time>
      </trkpt>
      <trkpt lat="44.82275" lon="6.94253">
        <ele>1767</ele>
        <time>2018-03-27T12:04:21Z</time>
      </trkpt>
      <trkpt lat="44.82246" lon="6.94284">
        <ele>1767.5</ele>
        <time>2018-03-27T12:04:32Z</time>
      </trkpt>
      <trkpt lat="44.82225" lon="6.94302">
        <ele>1768.1</ele>
        <time>2018-03-27T12:04:38Z</time>
      </trkpt>
      <trkpt lat="44.82201" lon="6.94305">
        <ele>1765</ele>
        <time>2018-03-27T12:04:52Z</time>
      </trkpt>
      <trkpt lat="44.82193" lon="6.94308">
        <ele>1764.8</ele>
        <time>2018-03-27T12:09:34Z</time>
      </trkpt>
      <trkpt lat="44.82165" lon="6.9433">
        <ele>1766.2</ele>
        <time>2018-03-27T12:10:05Z</time>
      </trkpt>
      <trkpt lat="44.82145" lon="6.94344">
        <ele>1763.7</ele>
        <time>2018-03-27T12:10:24Z</time>
      </trkpt>
      <trkpt lat="44.82124" lon="6.94364">
        <ele>1761</ele>
        <time>2018-03-27T12:10:49Z</time>
      </trkpt>
      <trkpt lat="44.82111" lon="6.94392">
        <ele>1760.7</ele>
        <time>2018-03-27T12:11:11Z</time>
      </trkpt>
      <trkpt lat="44.82084" lon="6.94403">
        <ele>1759.6</ele>
        <time>2018-03-27T12:11:38Z</time>
      </trkpt>
      <trkpt lat="44.82057" lon="6.94411">
        <ele>1759</ele>
        <time>2018-03-27T12:12:01Z</time>
      </trkpt>
      <trkpt lat="44.82034" lon="6.94393">
        <ele>1754.9</ele>
        <time>2018-03-27T12:12:26Z</time>
      </trkpt>
      <trkpt lat="44.82014" lon="6.94373">
        <ele>1750.3</ele>
        <time>2018-03-27T12:12:49Z</time>
      </trkpt>
      <trkpt lat="44.81992" lon="6.94381">
        <ele>1750.9</ele>
        <time>2018-03-27T12:13:16Z</time>
      </trkpt>
      <trkpt lat="44.81968" lon="6.94386">
        <ele>1751</ele>
        <time>2018-03-27T12:13:37Z</time>
      </trkpt>
      <trkpt lat="44.81936" lon="6.94391">
        <ele>1747.5</ele>
        <time>2018-03-27T12:14:08Z</time>
      </trkpt>
      <trkpt lat="44.8191" lon="6.944">
        <ele>1745.1</ele>
        <time>2018-03-27T12:14:31Z</time>
      </trkpt>
      <trkpt lat="44.81879" lon="6.9441">
        <ele>1742</ele>
        <time>2018-03-27T12:15:02Z</time>
      </trkpt>
      <trkpt lat="44.81846" lon="6.94427">
        <ele>1740.7</ele>
        <time>2018-03-27T12:15:35Z</time>
      </trkpt>
      <trkpt lat="44.81827" lon="6.94445">
        <ele>1740.4</ele>
        <time>2018-03-27T12:15:59Z</time>
      </trkpt>
      <trkpt lat="44.81827" lon="6.9445">
        <ele>1742</ele>
        <time>2018-03-27T12:17:17Z</time>
      </trkpt>
    </trkseg>
  </trk>
  <trk>
    <name><![CDATA[2415 - Col de Rasis (Abriès)]]></name>
    <extensions>
      <line xmlns="http://www.topografix.com/GPX/gpx_style/0/2">
        <color>00FFFF</color>
        <width>4</width>
          <extensions>
            <sens>1</sens>
          </extensions>
      </line>
    </extensions>
    <trkseg>
      <trkpt lat="44.79547" lon="6.9261">
        <ele>1567.8</ele>
      </trkpt>
      <trkpt lat="44.79555" lon="6.92603">
        <ele>1571.7</ele>
      </trkpt>
      <trkpt lat="44.79558" lon="6.92598">
        <ele>1573.7</ele>
      </trkpt>
      <trkpt lat="44.79561" lon="6.9259">
        <ele>1576.5</ele>
      </trkpt>
      <trkpt lat="44.79564" lon="6.92573">
        <ele>1581.3</ele>
      </trkpt>
      <trkpt lat="44.79567" lon="6.92542">
        <ele>1589</ele>
      </trkpt>
      <trkpt lat="44.79568" lon="6.92522">
        <ele>1594.3</ele>
      </trkpt>
      <trkpt lat="44.7957" lon="6.92486">
        <ele>1604.7</ele>
      </trkpt>
      <trkpt lat="44.79572" lon="6.92457">
        <ele>1614.2</ele>
      </trkpt>
      <trkpt lat="44.79577" lon="6.92421">
        <ele>1626.5</ele>
      </trkpt>
      <trkpt lat="44.7958" lon="6.92398">
        <ele>1632</ele>
      </trkpt>
      <trkpt lat="44.7958" lon="6.92377">
        <ele>1636.5</ele>
      </trkpt>
      <trkpt lat="44.79578" lon="6.92353">
        <ele>1641.3</ele>
      </trkpt>
      <trkpt lat="44.79571" lon="6.92268">
        <ele>1653.4</ele>
      </trkpt>
      <trkpt lat="44.7957" lon="6.92244">
        <ele>1654</ele>
      </trkpt>
      <trkpt lat="44.79572" lon="6.92217">
        <ele>1653.4</ele>
      </trkpt>
      <trkpt lat="44.79576" lon="6.92181">
        <ele>1653.6</ele>
      </trkpt>
      <trkpt lat="44.79585" lon="6.92118">
        <ele>1654.9</ele>
      </trkpt>
      <trkpt lat="44.79589" lon="6.92097">
        <ele>1655.4</ele>
      </trkpt>
      <trkpt lat="44.79598" lon="6.92061">
        <ele>1656.2</ele>
      </trkpt>
      <trkpt lat="44.79608" lon="6.92027">
        <ele>1658.2</ele>
      </trkpt>
      <trkpt lat="44.79626" lon="6.9198">
        <ele>1668</ele>
      </trkpt>
      <trkpt lat="44.79644" lon="6.91933">
        <ele>1678.6</ele>
      </trkpt>
      <trkpt lat="44.79661" lon="6.91902">
        <ele>1685.7</ele>
      </trkpt>
      <trkpt lat="44.79681" lon="6.91869">
        <ele>1695.5</ele>
      </trkpt>
      <trkpt lat="44.79703" lon="6.91837">
        <ele>1703.7</ele>
      </trkpt>
      <trkpt lat="44.79743" lon="6.91783">
        <ele>1716.1</ele>
      </trkpt>
      <trkpt lat="44.79764" lon="6.91761">
        <ele>1723.9</ele>
      </trkpt>
      <trkpt lat="44.79785" lon="6.91742">
        <ele>1730.9</ele>
      </trkpt>
      <trkpt lat="44.79812" lon="6.91719">
        <ele>1739.5</ele>
      </trkpt>
      <trkpt lat="44.79841" lon="6.91698">
        <ele>1752.7</ele>
      </trkpt>
      <trkpt lat="44.79905" lon="6.91656">
        <ele>1784.2</ele>
      </trkpt>
      <trkpt lat="44.79922" lon="6.91646">
        <ele>1794.7</ele>
      </trkpt>
      <trkpt lat="44.80096" lon="6.91548">
        <ele>1907.3</ele>
      </trkpt>
      <trkpt lat="44.80115" lon="6.91534">
        <ele>1920.3</ele>
      </trkpt>
      <trkpt lat="44.80139" lon="6.91513">
        <ele>1936.3</ele>
      </trkpt>
      <trkpt lat="44.80147" lon="6.91502">
        <ele>1943.3</ele>
      </trkpt>
      <trkpt lat="44.80155" lon="6.91489">
        <ele>1949.8</ele>
      </trkpt>
      <trkpt lat="44.80162" lon="6.9147">
        <ele>1956.5</ele>
      </trkpt>
      <trkpt lat="44.80162" lon="6.91462">
        <ele>1958</ele>
      </trkpt>
      <trkpt lat="44.80161" lon="6.91451">
        <ele>1958.9</ele>
      </trkpt>
      <trkpt lat="44.80157" lon="6.91436">
        <ele>1959.3</ele>
      </trkpt>
      <trkpt lat="44.80152" lon="6.91421">
        <ele>1960.4</ele>
      </trkpt>
      <trkpt lat="44.8015" lon="6.91405">
        <ele>1962.5</ele>
      </trkpt>
      <trkpt lat="44.80146" lon="6.91363">
        <ele>1968.5</ele>
      </trkpt>
      <trkpt lat="44.8014" lon="6.91293">
        <ele>1974.6</ele>
      </trkpt>
      <trkpt lat="44.8014" lon="6.91255">
        <ele>1977.1</ele>
      </trkpt>
      <trkpt lat="44.80141" lon="6.91219">
        <ele>1981.1</ele>
      </trkpt>
      <trkpt lat="44.80144" lon="6.91181">
        <ele>1985.1</ele>
      </trkpt>
      <trkpt lat="44.80153" lon="6.91087">
        <ele>1995.2</ele>
      </trkpt>
      <trkpt lat="44.80152" lon="6.9106">
        <ele>1997.2</ele>
      </trkpt>
      <trkpt lat="44.80152" lon="6.91031">
        <ele>1999.7</ele>
      </trkpt>
      <trkpt lat="44.80154" lon="6.90974">
        <ele>2003.9</ele>
      </trkpt>
      <trkpt lat="44.80156" lon="6.90948">
        <ele>2007.3</ele>
      </trkpt>
      <trkpt lat="44.8016" lon="6.90926">
        <ele>2010.9</ele>
      </trkpt>
      <trkpt lat="44.80171" lon="6.90857">
        <ele>2019.2</ele>
      </trkpt>
      <trkpt lat="44.80173" lon="6.9083">
        <ele>2021.1</ele>
      </trkpt>
      <trkpt lat="44.80174" lon="6.908">
        <ele>2022.6</ele>
      </trkpt>
      <trkpt lat="44.80173" lon="6.90773">
        <ele>2026.5</ele>
      </trkpt>
      <trkpt lat="44.8017" lon="6.90719">
        <ele>2032.2</ele>
      </trkpt>
      <trkpt lat="44.80167" lon="6.90699">
        <ele>2034.3</ele>
      </trkpt>
      <trkpt lat="44.80161" lon="6.90645">
        <ele>2038.5</ele>
      </trkpt>
      <trkpt lat="44.80158" lon="6.90608">
        <ele>2041.9</ele>
      </trkpt>
      <trkpt lat="44.80158" lon="6.90577">
        <ele>2044.6</ele>
      </trkpt>
      <trkpt lat="44.80161" lon="6.90524">
        <ele>2048.2</ele>
      </trkpt>
      <trkpt lat="44.80165" lon="6.90497">
        <ele>2049.9</ele>
      </trkpt>
      <trkpt lat="44.80173" lon="6.90455">
        <ele>2052</ele>
      </trkpt>
      <trkpt lat="44.80178" lon="6.90436">
        <ele>2052.8</ele>
      </trkpt>
      <trkpt lat="44.80187" lon="6.9041">
        <ele>2054.4</ele>
      </trkpt>
      <trkpt lat="44.80199" lon="6.90382">
        <ele>2055.8</ele>
      </trkpt>
      <trkpt lat="44.80207" lon="6.90367">
        <ele>2056.2</ele>
      </trkpt>
      <trkpt lat="44.80219" lon="6.90352">
        <ele>2055.7</ele>
      </trkpt>
      <trkpt lat="44.8023" lon="6.90344">
        <ele>2056</ele>
      </trkpt>
      <trkpt lat="44.80248" lon="6.90333">
        <ele>2056.4</ele>
      </trkpt>
      <trkpt lat="44.80261" lon="6.90328">
        <ele>2056.6</ele>
      </trkpt>
      <trkpt lat="44.8028" lon="6.90326">
        <ele>2058</ele>
      </trkpt>
      <trkpt lat="44.80296" lon="6.90327">
        <ele>2060</ele>
      </trkpt>
      <trkpt lat="44.80327" lon="6.90329">
        <ele>2065.6</ele>
      </trkpt>
      <trkpt lat="44.80333" lon="6.90326">
        <ele>2066.2</ele>
      </trkpt>
      <trkpt lat="44.80345" lon="6.90318">
        <ele>2067.6</ele>
      </trkpt>
      <trkpt lat="44.80361" lon="6.90306">
        <ele>2068.9</ele>
      </trkpt>
      <trkpt lat="44.80366" lon="6.90304">
        <ele>2069.5</ele>
      </trkpt>
      <trkpt lat="44.80376" lon="6.90303">
        <ele>2071.1</ele>
      </trkpt>
      <trkpt lat="44.80417" lon="6.90301">
        <ele>2076.8</ele>
      </trkpt>
      <trkpt lat="44.80438" lon="6.90299">
        <ele>2078.6</ele>
      </trkpt>
      <trkpt lat="44.8045" lon="6.90302">
        <ele>2081.2</ele>
      </trkpt>
      <trkpt lat="44.80461" lon="6.90303">
        <ele>2083.3</ele>
      </trkpt>
      <trkpt lat="44.80465" lon="6.903">
        <ele>2083.6</ele>
      </trkpt>
      <trkpt lat="44.80473" lon="6.90292">
        <ele>2084.1</ele>
      </trkpt>
      <trkpt lat="44.80483" lon="6.90281">
        <ele>2085.5</ele>
      </trkpt>
      <trkpt lat="44.80495" lon="6.9027">
        <ele>2086.3</ele>
      </trkpt>
      <trkpt lat="44.80505" lon="6.90262">
        <ele>2086.6</ele>
      </trkpt>
      <trkpt lat="44.80517" lon="6.90256">
        <ele>2087.2</ele>
      </trkpt>
      <trkpt lat="44.80532" lon="6.9025">
        <ele>2088.3</ele>
      </trkpt>
      <trkpt lat="44.80533" lon="6.9025">
        <ele>2088.4</ele>
      </trkpt>
      <trkpt lat="44.80533" lon="6.9025">
        <ele>2088.4</ele>
      </trkpt>
      <trkpt lat="44.80553" lon="6.90241">
        <ele>2091.1</ele>
      </trkpt>
      <trkpt lat="44.80576" lon="6.90227">
        <ele>2095.7</ele>
      </trkpt>
      <trkpt lat="44.80608" lon="6.90203">
        <ele>2107.6</ele>
      </trkpt>
      <trkpt lat="44.80654" lon="6.90164">
        <ele>2133.4</ele>
      </trkpt>
      <trkpt lat="44.80772" lon="6.9006">
        <ele>2193.1</ele>
      </trkpt>
      <trkpt lat="44.80803" lon="6.90037">
        <ele>2202.5</ele>
      </trkpt>
      <trkpt lat="44.80851" lon="6.90005">
        <ele>2218.3</ele>
      </trkpt>
      <trkpt lat="44.8091" lon="6.89969">
        <ele>2239</ele>
      </trkpt>
      <trkpt lat="44.81035" lon="6.89894">
        <ele>2264.6</ele>
      </trkpt>
      <trkpt lat="44.81119" lon="6.89847">
        <ele>2259.3</ele>
      </trkpt>
      <trkpt lat="44.81223" lon="6.89784">
        <ele>2277.6</ele>
      </trkpt>
      <trkpt lat="44.81336" lon="6.89712">
        <ele>2279</ele>
      </trkpt>
      <trkpt lat="44.8151" lon="6.896">
        <ele>2312.7</ele>
      </trkpt>
      <trkpt lat="44.81602" lon="6.89536">
        <ele>2319.5</ele>
      </trkpt>
      <trkpt lat="44.8168" lon="6.89479">
        <ele>2328.6</ele>
      </trkpt>
      <trkpt lat="44.81746" lon="6.89426">
        <ele>2343.5</ele>
      </trkpt>
      <trkpt lat="44.81835" lon="6.89352">
        <ele>2352.1</ele>
      </trkpt>
      <trkpt lat="44.81867" lon="6.89324">
        <ele>2357.2</ele>
      </trkpt>
      <trkpt lat="44.81976" lon="6.89214">
        <ele>2378.5</ele>
      </trkpt>
      <trkpt lat="44.82078" lon="6.89113">
        <ele>2377.4</ele>
      </trkpt>
      <trkpt lat="44.82101" lon="6.89093">
        <ele>2373.3</ele>
      </trkpt>
      <trkpt lat="44.82133" lon="6.89071">
        <ele>2369.3</ele>
      </trkpt>
      <trkpt lat="44.82163" lon="6.89051">
        <ele>2363.2</ele>
      </trkpt>
      <trkpt lat="44.8218" lon="6.89046">
        <ele>2361.6</ele>
      </trkpt>
      <trkpt lat="44.82196" lon="6.89044">
        <ele>2360.8</ele>
      </trkpt>
      <trkpt lat="44.82206" lon="6.89044">
        <ele>2360.1</ele>
      </trkpt>
      <trkpt lat="44.82223" lon="6.89047">
        <ele>2359.3</ele>
      </trkpt>
      <trkpt lat="44.82255" lon="6.89054">
        <ele>2356.6</ele>
      </trkpt>
      <trkpt lat="44.82271" lon="6.8906">
        <ele>2354.5</ele>
      </trkpt>
      <trkpt lat="44.82286" lon="6.89069">
        <ele>2352.8</ele>
      </trkpt>
      <trkpt lat="44.82304" lon="6.89083">
        <ele>2350.4</ele>
      </trkpt>
      <trkpt lat="44.82327" lon="6.89105">
        <ele>2348.8</ele>
      </trkpt>
      <trkpt lat="44.82349" lon="6.8913">
        <ele>2347.7</ele>
      </trkpt>
      <trkpt lat="44.82393" lon="6.89182">
        <ele>2345.9</ele>
      </trkpt>
      <trkpt lat="44.82415" lon="6.89211">
        <ele>2347.6</ele>
      </trkpt>
      <trkpt lat="44.82441" lon="6.89245">
        <ele>2349.7</ele>
      </trkpt>
      <trkpt lat="44.82473" lon="6.89281">
        <ele>2349.7</ele>
      </trkpt>
      <trkpt lat="44.82507" lon="6.89315">
        <ele>2349.3</ele>
      </trkpt>
      <trkpt lat="44.82563" lon="6.89367">
        <ele>2344.9</ele>
      </trkpt>
      <trkpt lat="44.82581" lon="6.89382">
        <ele>2349.5</ele>
      </trkpt>
      <trkpt lat="44.82605" lon="6.89397">
        <ele>2349.2</ele>
      </trkpt>
      <trkpt lat="44.8263" lon="6.89411">
        <ele>2354.2</ele>
      </trkpt>
      <trkpt lat="44.82646" lon="6.89416">
        <ele>2357.6</ele>
      </trkpt>
      <trkpt lat="44.82665" lon="6.8942">
        <ele>2360.8</ele>
      </trkpt>
      <trkpt lat="44.82693" lon="6.89424">
        <ele>2359.6</ele>
      </trkpt>
      <trkpt lat="44.8271" lon="6.89424">
        <ele>2366.2</ele>
      </trkpt>
      <trkpt lat="44.82725" lon="6.89417">
        <ele>2371.1</ele>
      </trkpt>
      <trkpt lat="44.82739" lon="6.89409">
        <ele>2375.6</ele>
      </trkpt>
      <trkpt lat="44.82753" lon="6.89398">
        <ele>2380.9</ele>
      </trkpt>
      <trkpt lat="44.82768" lon="6.89384">
        <ele>2386.7</ele>
      </trkpt>
      <trkpt lat="44.82797" lon="6.89353">
        <ele>2400.3</ele>
      </trkpt>
      <trkpt lat="44.82812" lon="6.89335">
        <ele>2406.1</ele>
      </trkpt>
      <trkpt lat="44.82834" lon="6.89309">
        <ele>2403.3</ele>
      </trkpt>
      <trkpt lat="44.82851" lon="6.89292">
        <ele>2400.6</ele>
      </trkpt>
      <trkpt lat="44.82878" lon="6.89269">
        <ele>2402.3</ele>
      </trkpt>
      <trkpt lat="44.82894" lon="6.89259">
        <ele>2404.2</ele>
      </trkpt>
      <trkpt lat="44.82904" lon="6.89256">
        <ele>2403.9</ele>
      </trkpt>
      <trkpt lat="44.82917" lon="6.89255">
        <ele>2404.1</ele>
      </trkpt>
      <trkpt lat="44.82926" lon="6.89256">
        <ele>2402.1</ele>
      </trkpt>
      <trkpt lat="44.82941" lon="6.8926">
        <ele>2399.3</ele>
      </trkpt>
      <trkpt lat="44.82972" lon="6.8927">
        <ele>2394.6</ele>
      </trkpt>
      <trkpt lat="44.82991" lon="6.89278">
        <ele>2396</ele>
      </trkpt>
      <trkpt lat="44.83037" lon="6.89301">
        <ele>2401.7</ele>
      </trkpt>
      <trkpt lat="44.83037" lon="6.89301">
        <ele>2401.7</ele>
      </trkpt>
      <trkpt lat="44.83113" lon="6.89344">
        <ele>2410.7</ele>
      </trkpt>
      <trkpt lat="44.83218" lon="6.89404">
        <ele>2424.4</ele>
      </trkpt>
      <trkpt lat="44.83375" lon="6.8949">
        <ele>2490.1</ele>
      </trkpt>
      <trkpt lat="44.83411" lon="6.89515">
        <ele>2498.9</ele>
      </trkpt>
      <trkpt lat="44.83448" lon="6.89546">
        <ele>2512.8</ele>
      </trkpt>
      <trkpt lat="44.83496" lon="6.89589">
        <ele>2531.8</ele>
      </trkpt>
      <trkpt lat="44.83518" lon="6.89611">
        <ele>2534.7</ele>
      </trkpt>
      <trkpt lat="44.83547" lon="6.89646">
        <ele>2537.1</ele>
      </trkpt>
      <trkpt lat="44.83578" lon="6.89688">
        <ele>2541.8</ele>
      </trkpt>
      <trkpt lat="44.83608" lon="6.89733">
        <ele>2555.6</ele>
      </trkpt>
      <trkpt lat="44.83646" lon="6.89793">
        <ele>2588.9</ele>
      </trkpt>
      <trkpt lat="44.83683" lon="6.89854">
        <ele>2617.8</ele>
      </trkpt>
      <trkpt lat="44.83719" lon="6.89911">
        <ele>2635.1</ele>
      </trkpt>
      <trkpt lat="44.83777" lon="6.89997">
        <ele>2660.6</ele>
      </trkpt>
      <trkpt lat="44.83803" lon="6.90031">
        <ele>2669.2</ele>
      </trkpt>
      <trkpt lat="44.83825" lon="6.90056">
        <ele>2676</ele>
      </trkpt>
      <trkpt lat="44.83855" lon="6.90086">
        <ele>2689.8</ele>
      </trkpt>
      <trkpt lat="44.83884" lon="6.90113">
        <ele>2706.1</ele>
      </trkpt>
      <trkpt lat="44.83926" lon="6.90142">
        <ele>2719.4</ele>
      </trkpt>
      <trkpt lat="44.8396" lon="6.90162">
        <ele>2723.4</ele>
      </trkpt>
      <trkpt lat="44.83967" lon="6.90166">
        <ele>2724.2</ele>
      </trkpt>
      <trkpt lat="44.83967" lon="6.90166">
        <ele>2724.2</ele>
      </trkpt>
      <trkpt lat="44.84131" lon="6.90238">
        <ele>2764.7</ele>
      </trkpt>
      <trkpt lat="44.84211" lon="6.90276">
        <ele>2796.9</ele>
      </trkpt>
      <trkpt lat="44.84252" lon="6.90298">
        <ele>2820.4</ele>
      </trkpt>
      <trkpt lat="44.8427" lon="6.90311">
        <ele>2829.7</ele>
      </trkpt>
      <trkpt lat="44.84287" lon="6.90326">
        <ele>2834.9</ele>
      </trkpt>
      <trkpt lat="44.84288" lon="6.90327">
        <ele>2835</ele>
      </trkpt>
      <trkpt lat="44.84288" lon="6.90327">
        <ele>2835</ele>
      </trkpt>
      <trkpt lat="44.84288" lon="6.90328">
        <ele>2835.2</ele>
      </trkpt>
      <trkpt lat="44.84303" lon="6.90348">
        <ele>2841.7</ele>
      </trkpt>
      <trkpt lat="44.84323" lon="6.90379">
        <ele>2850.6</ele>
      </trkpt>
      <trkpt lat="44.84367" lon="6.90454">
        <ele>2868.4</ele>
      </trkpt>
      <trkpt lat="44.8441" lon="6.9053">
        <ele>2896.2</ele>
      </trkpt>
      <trkpt lat="44.84474" lon="6.90635">
        <ele>2924.2</ele>
      </trkpt>
    </trkseg>
  </trk>
  <trk>
    <name><![CDATA[2455 - Col de Valpreveyre (Le Roux)]]></name>
    <extensions>
      <line xmlns="http://www.topografix.com/GPX/gpx_style/0/2">
        <color>FFFF00</color>
        <width>4</width>
          <extensions>
            <sens>1</sens>
          </extensions>
      </line>
    </extensions>
    <trkseg>
      <trkpt lat="44.81682" lon="6.94346">
        <ele>1678.9</ele>
      </trkpt>
      <trkpt lat="44.81677" lon="6.94372">
        <ele>1680.6</ele>
      </trkpt>
      <trkpt lat="44.81664" lon="6.94417">
        <ele>1686.3</ele>
      </trkpt>
      <trkpt lat="44.81633" lon="6.94516">
        <ele>1706.1</ele>
      </trkpt>
      <trkpt lat="44.816" lon="6.94615">
        <ele>1711.6</ele>
      </trkpt>
      <trkpt lat="44.81575" lon="6.94686">
        <ele>1713.7</ele>
      </trkpt>
      <trkpt lat="44.81557" lon="6.94731">
        <ele>1715.2</ele>
      </trkpt>
      <trkpt lat="44.81547" lon="6.94753">
        <ele>1718.4</ele>
      </trkpt>
      <trkpt lat="44.81532" lon="6.94776">
        <ele>1720.8</ele>
      </trkpt>
      <trkpt lat="44.81525" lon="6.94791">
        <ele>1721.9</ele>
      </trkpt>
      <trkpt lat="44.8152" lon="6.94805">
        <ele>1724.5</ele>
      </trkpt>
      <trkpt lat="44.81514" lon="6.94833">
        <ele>1725.8</ele>
      </trkpt>
      <trkpt lat="44.81499" lon="6.94891">
        <ele>1724.2</ele>
      </trkpt>
      <trkpt lat="44.81484" lon="6.94934">
        <ele>1729.7</ele>
      </trkpt>
      <trkpt lat="44.81458" lon="6.95001">
        <ele>1732.6</ele>
      </trkpt>
      <trkpt lat="44.81411" lon="6.95115">
        <ele>1741.5</ele>
      </trkpt>
      <trkpt lat="44.81382" lon="6.95177">
        <ele>1745.3</ele>
      </trkpt>
      <trkpt lat="44.81349" lon="6.95241">
        <ele>1749.9</ele>
      </trkpt>
      <trkpt lat="44.81317" lon="6.95302">
        <ele>1759.3</ele>
      </trkpt>
      <trkpt lat="44.8129" lon="6.95357">
        <ele>1766.1</ele>
      </trkpt>
      <trkpt lat="44.81282" lon="6.95379">
        <ele>1768.6</ele>
      </trkpt>
      <trkpt lat="44.81275" lon="6.95408">
        <ele>1772.6</ele>
      </trkpt>
      <trkpt lat="44.81268" lon="6.95443">
        <ele>1775.1</ele>
      </trkpt>
      <trkpt lat="44.81259" lon="6.9551">
        <ele>1782.1</ele>
      </trkpt>
      <trkpt lat="44.81256" lon="6.95537">
        <ele>1787.1</ele>
      </trkpt>
      <trkpt lat="44.81246" lon="6.95657">
        <ele>1801.5</ele>
      </trkpt>
      <trkpt lat="44.81248" lon="6.95676">
        <ele>1802.6</ele>
      </trkpt>
      <trkpt lat="44.81253" lon="6.95734">
        <ele>1807.6</ele>
      </trkpt>
      <trkpt lat="44.81254" lon="6.95769">
        <ele>1810.4</ele>
      </trkpt>
      <trkpt lat="44.81252" lon="6.95791">
        <ele>1811.4</ele>
      </trkpt>
      <trkpt lat="44.81247" lon="6.95823">
        <ele>1812.8</ele>
      </trkpt>
      <trkpt lat="44.81241" lon="6.95858">
        <ele>1813.9</ele>
      </trkpt>
      <trkpt lat="44.81229" lon="6.95935">
        <ele>1820.7</ele>
      </trkpt>
      <trkpt lat="44.81223" lon="6.95954">
        <ele>1822.2</ele>
      </trkpt>
      <trkpt lat="44.81208" lon="6.95997">
        <ele>1825.6</ele>
      </trkpt>
      <trkpt lat="44.81196" lon="6.96025">
        <ele>1827</ele>
      </trkpt>
      <trkpt lat="44.81187" lon="6.96048">
        <ele>1831.7</ele>
      </trkpt>
      <trkpt lat="44.81182" lon="6.96066">
        <ele>1833.2</ele>
      </trkpt>
      <trkpt lat="44.81179" lon="6.96082">
        <ele>1834.2</ele>
      </trkpt>
      <trkpt lat="44.8118" lon="6.9609">
        <ele>1834.7</ele>
      </trkpt>
      <trkpt lat="44.81183" lon="6.9611">
        <ele>1836.2</ele>
      </trkpt>
      <trkpt lat="44.81191" lon="6.96163">
        <ele>1837.2</ele>
      </trkpt>
      <trkpt lat="44.8119" lon="6.96179">
        <ele>1838.7</ele>
      </trkpt>
      <trkpt lat="44.81188" lon="6.96193">
        <ele>1839.9</ele>
      </trkpt>
      <trkpt lat="44.81184" lon="6.96206">
        <ele>1840.8</ele>
      </trkpt>
      <trkpt lat="44.81177" lon="6.96224">
        <ele>1839.7</ele>
      </trkpt>
      <trkpt lat="44.81159" lon="6.96268">
        <ele>1840.4</ele>
      </trkpt>
      <trkpt lat="44.81155" lon="6.96288">
        <ele>1842.5</ele>
      </trkpt>
      <trkpt lat="44.81154" lon="6.96305">
        <ele>1843.7</ele>
      </trkpt>
      <trkpt lat="44.81153" lon="6.96321">
        <ele>1843.9</ele>
      </trkpt>
      <trkpt lat="44.81153" lon="6.96321">
        <ele>1843.9</ele>
      </trkpt>
      <trkpt lat="44.81153" lon="6.96361">
        <ele>1845.2</ele>
      </trkpt>
      <trkpt lat="44.81155" lon="6.96406">
        <ele>1845.8</ele>
      </trkpt>
      <trkpt lat="44.81161" lon="6.96492">
        <ele>1847</ele>
      </trkpt>
      <trkpt lat="44.81166" lon="6.96544">
        <ele>1846.3</ele>
      </trkpt>
      <trkpt lat="44.81171" lon="6.96574">
        <ele>1847.5</ele>
      </trkpt>
      <trkpt lat="44.81176" lon="6.96595">
        <ele>1848.8</ele>
      </trkpt>
      <trkpt lat="44.81193" lon="6.96656">
        <ele>1850.1</ele>
      </trkpt>
      <trkpt lat="44.81193" lon="6.96656">
        <ele>1850.1</ele>
      </trkpt>
      <trkpt lat="44.81203" lon="6.9671">
        <ele>1851.5</ele>
      </trkpt>
      <trkpt lat="44.81204" lon="6.96726">
        <ele>1851.6</ele>
      </trkpt>
      <trkpt lat="44.81203" lon="6.96753">
        <ele>1851.4</ele>
      </trkpt>
      <trkpt lat="44.81201" lon="6.9682">
        <ele>1853.5</ele>
      </trkpt>
      <trkpt lat="44.81201" lon="6.96837">
        <ele>1854.1</ele>
      </trkpt>
      <trkpt lat="44.81201" lon="6.96837">
        <ele>1854.1</ele>
      </trkpt>
      <trkpt lat="44.81201" lon="6.96869">
        <ele>1856</ele>
      </trkpt>
      <trkpt lat="44.81203" lon="6.96906">
        <ele>1857.8</ele>
      </trkpt>
      <trkpt lat="44.81206" lon="6.96925">
        <ele>1858.6</ele>
      </trkpt>
      <trkpt lat="44.81215" lon="6.96963">
        <ele>1859.4</ele>
      </trkpt>
      <trkpt lat="44.8126" lon="6.97131">
        <ele>1866.4</ele>
      </trkpt>
      <trkpt lat="44.81301" lon="6.97274">
        <ele>1872.3</ele>
      </trkpt>
      <trkpt lat="44.81319" lon="6.9733">
        <ele>1876.2</ele>
      </trkpt>
      <trkpt lat="44.81343" lon="6.97397">
        <ele>1883</ele>
      </trkpt>
      <trkpt lat="44.81359" lon="6.97438">
        <ele>1884.9</ele>
      </trkpt>
      <trkpt lat="44.81372" lon="6.97478">
        <ele>1888.1</ele>
      </trkpt>
      <trkpt lat="44.81376" lon="6.975">
        <ele>1889.2</ele>
      </trkpt>
      <trkpt lat="44.81379" lon="6.97526">
        <ele>1891.2</ele>
      </trkpt>
      <trkpt lat="44.81381" lon="6.97546">
        <ele>1892.4</ele>
      </trkpt>
      <trkpt lat="44.81381" lon="6.97592">
        <ele>1892.2</ele>
      </trkpt>
      <trkpt lat="44.81379" lon="6.977">
        <ele>1896</ele>
      </trkpt>
      <trkpt lat="44.81378" lon="6.97828">
        <ele>1911.9</ele>
      </trkpt>
      <trkpt lat="44.8138" lon="6.97929">
        <ele>1922.4</ele>
      </trkpt>
      <trkpt lat="44.81383" lon="6.97987">
        <ele>1926.4</ele>
      </trkpt>
      <trkpt lat="44.8139" lon="6.98074">
        <ele>1931.9</ele>
      </trkpt>
      <trkpt lat="44.81394" lon="6.98117">
        <ele>1933</ele>
      </trkpt>
      <trkpt lat="44.81394" lon="6.98117">
        <ele>1933</ele>
      </trkpt>
      <trkpt lat="44.81401" lon="6.98227">
        <ele>1937.1</ele>
      </trkpt>
      <trkpt lat="44.81403" lon="6.98275">
        <ele>1943.3</ele>
      </trkpt>
      <trkpt lat="44.81402" lon="6.98319">
        <ele>1948.1</ele>
      </trkpt>
      <trkpt lat="44.814" lon="6.9833">
        <ele>1949.7</ele>
      </trkpt>
      <trkpt lat="44.81393" lon="6.98363">
        <ele>1951.9</ele>
      </trkpt>
      <trkpt lat="44.81393" lon="6.98384">
        <ele>1950.9</ele>
      </trkpt>
      <trkpt lat="44.81391" lon="6.9843">
        <ele>1952.6</ele>
      </trkpt>
      <trkpt lat="44.81388" lon="6.98464">
        <ele>1954.3</ele>
      </trkpt>
      <trkpt lat="44.81383" lon="6.98497">
        <ele>1956.4</ele>
      </trkpt>
      <trkpt lat="44.81375" lon="6.98537">
        <ele>1960.1</ele>
      </trkpt>
      <trkpt lat="44.81355" lon="6.98627">
        <ele>1969.5</ele>
      </trkpt>
      <trkpt lat="44.81344" lon="6.98674">
        <ele>1970.3</ele>
      </trkpt>
      <trkpt lat="44.81327" lon="6.98734">
        <ele>1968.5</ele>
      </trkpt>
      <trkpt lat="44.81326" lon="6.98736">
        <ele>1968.3</ele>
      </trkpt>
      <trkpt lat="44.81326" lon="6.98736">
        <ele>1968.3</ele>
      </trkpt>
      <trkpt lat="44.81315" lon="6.98781">
        <ele>1963.9</ele>
      </trkpt>
      <trkpt lat="44.81309" lon="6.9882">
        <ele>1963.7</ele>
      </trkpt>
      <trkpt lat="44.81302" lon="6.98871">
        <ele>1964.3</ele>
      </trkpt>
      <trkpt lat="44.81299" lon="6.98914">
        <ele>1967.7</ele>
      </trkpt>
      <trkpt lat="44.813" lon="6.98939">
        <ele>1973</ele>
      </trkpt>
      <trkpt lat="44.81303" lon="6.98973">
        <ele>1981.2</ele>
      </trkpt>
      <trkpt lat="44.81309" lon="6.99001">
        <ele>1987.8</ele>
      </trkpt>
      <trkpt lat="44.81321" lon="6.99058">
        <ele>1998.1</ele>
      </trkpt>
      <trkpt lat="44.81326" lon="6.99074">
        <ele>2002.2</ele>
      </trkpt>
      <trkpt lat="44.81335" lon="6.99099">
        <ele>2008.3</ele>
      </trkpt>
      <trkpt lat="44.81353" lon="6.99139">
        <ele>2019.9</ele>
      </trkpt>
      <trkpt lat="44.81369" lon="6.99169">
        <ele>2029.8</ele>
      </trkpt>
      <trkpt lat="44.81411" lon="6.99245">
        <ele>2058.3</ele>
      </trkpt>
      <trkpt lat="44.81466" lon="6.99341">
        <ele>2096.5</ele>
      </trkpt>
      <trkpt lat="44.81551" lon="6.9948">
        <ele>2144.8</ele>
      </trkpt>
      <trkpt lat="44.81652" lon="6.9964">
        <ele>2229.6</ele>
      </trkpt>
      <trkpt lat="44.81687" lon="6.99691">
        <ele>2253.1</ele>
      </trkpt>
      <trkpt lat="44.8174" lon="6.99762">
        <ele>2282.6</ele>
      </trkpt>
      <trkpt lat="44.81803" lon="6.99841">
        <ele>2303.1</ele>
      </trkpt>
      <trkpt lat="44.81899" lon="6.9996">
        <ele>2344</ele>
      </trkpt>
      <trkpt lat="44.81934" lon="7.00004">
        <ele>2356.3</ele>
      </trkpt>
      <trkpt lat="44.81964" lon="7.00047">
        <ele>2368.5</ele>
      </trkpt>
      <trkpt lat="44.8201" lon="7.00115">
        <ele>2391.5</ele>
      </trkpt>
      <trkpt lat="44.82044" lon="7.00174">
        <ele>2407.1</ele>
      </trkpt>
      <trkpt lat="44.82103" lon="7.00277">
        <ele>2416.3</ele>
      </trkpt>
      <trkpt lat="44.82146" lon="7.00356">
        <ele>2421.6</ele>
      </trkpt>
      <trkpt lat="44.82182" lon="7.00425">
        <ele>2432.5</ele>
      </trkpt>
      <trkpt lat="44.82226" lon="7.00514">
        <ele>2445.1</ele>
      </trkpt>
      <trkpt lat="44.82263" lon="7.00581">
        <ele>2460.1</ele>
      </trkpt>
      <trkpt lat="44.82283" lon="7.00614">
        <ele>2470.4</ele>
      </trkpt>
      <trkpt lat="44.8231" lon="7.00652">
        <ele>2484.9</ele>
      </trkpt>
      <trkpt lat="44.82326" lon="7.00673">
        <ele>2494.9</ele>
      </trkpt>
      <trkpt lat="44.82339" lon="7.00687">
        <ele>2504</ele>
      </trkpt>
      <trkpt lat="44.82345" lon="7.00688">
        <ele>2507.3</ele>
      </trkpt>
      <trkpt lat="44.82357" lon="7.00687">
        <ele>2513.6</ele>
      </trkpt>
      <trkpt lat="44.82366" lon="7.00685">
        <ele>2518.8</ele>
      </trkpt>
      <trkpt lat="44.82374" lon="7.0068">
        <ele>2523.4</ele>
      </trkpt>
      <trkpt lat="44.82392" lon="7.00668">
        <ele>2534.6</ele>
      </trkpt>
      <trkpt lat="44.824" lon="7.00659">
        <ele>2540.1</ele>
      </trkpt>
      <trkpt lat="44.82418" lon="7.00637">
        <ele>2550.8</ele>
      </trkpt>
      <trkpt lat="44.82446" lon="7.00595">
        <ele>2574.4</ele>
      </trkpt>
      <trkpt lat="44.8246" lon="7.00576">
        <ele>2586</ele>
      </trkpt>
      <trkpt lat="44.82468" lon="7.0057">
        <ele>2591.5</ele>
      </trkpt>
      <trkpt lat="44.82479" lon="7.00565">
        <ele>2597.2</ele>
      </trkpt>
      <trkpt lat="44.82489" lon="7.00565">
        <ele>2601.2</ele>
      </trkpt>
      <trkpt lat="44.82506" lon="7.00567">
        <ele>2608.5</ele>
      </trkpt>
      <trkpt lat="44.82517" lon="7.00572">
        <ele>2614.5</ele>
      </trkpt>
      <trkpt lat="44.82526" lon="7.00582">
        <ele>2620.6</ele>
      </trkpt>
      <trkpt lat="44.82533" lon="7.00592">
        <ele>2625</ele>
      </trkpt>
      <trkpt lat="44.82543" lon="7.00611">
        <ele>2630.9</ele>
      </trkpt>
      <trkpt lat="44.82551" lon="7.00632">
        <ele>2636.6</ele>
      </trkpt>
      <trkpt lat="44.82568" lon="7.00676">
        <ele>2647.6</ele>
      </trkpt>
      <trkpt lat="44.82575" lon="7.00699">
        <ele>2652.4</ele>
      </trkpt>
      <trkpt lat="44.82613" lon="7.00845">
        <ele>2688.3</ele>
      </trkpt>
      <trkpt lat="44.8262" lon="7.00869">
        <ele>2698.6</ele>
      </trkpt>
      <trkpt lat="44.82627" lon="7.00885">
        <ele>2706.5</ele>
      </trkpt>
      <trkpt lat="44.82633" lon="7.00894">
        <ele>2712.2</ele>
      </trkpt>
      <trkpt lat="44.8264" lon="7.00903">
        <ele>2718.5</ele>
      </trkpt>
      <trkpt lat="44.82653" lon="7.00915">
        <ele>2730.1</ele>
      </trkpt>
      <trkpt lat="44.82661" lon="7.0092">
        <ele>2735</ele>
      </trkpt>
      <trkpt lat="44.82669" lon="7.00922">
        <ele>2737.5</ele>
      </trkpt>
      <trkpt lat="44.82686" lon="7.00927">
        <ele>2736.2</ele>
      </trkpt>
      <trkpt lat="44.82686" lon="7.00927">
        <ele>2736.2</ele>
      </trkpt>
      <trkpt lat="44.82739" lon="7.00936">
        <ele>2730.4</ele>
      </trkpt>
      <trkpt lat="44.82798" lon="7.00943">
        <ele>2717.1</ele>
      </trkpt>
      <trkpt lat="44.82829" lon="7.00944">
        <ele>2710.8</ele>
      </trkpt>
      <trkpt lat="44.82856" lon="7.00943">
        <ele>2707.9</ele>
      </trkpt>
      <trkpt lat="44.82885" lon="7.00939">
        <ele>2700.8</ele>
      </trkpt>
      <trkpt lat="44.82904" lon="7.00935">
        <ele>2691.6</ele>
      </trkpt>
      <trkpt lat="44.82922" lon="7.00927">
        <ele>2682.1</ele>
      </trkpt>
      <trkpt lat="44.82941" lon="7.00917">
        <ele>2673.1</ele>
      </trkpt>
      <trkpt lat="44.82966" lon="7.009">
        <ele>2659.5</ele>
      </trkpt>
      <trkpt lat="44.82975" lon="7.0089">
        <ele>2658</ele>
      </trkpt>
      <trkpt lat="44.82978" lon="7.00886">
        <ele>2656.9</ele>
      </trkpt>
      <trkpt lat="44.82978" lon="7.00886">
        <ele>2656.9</ele>
      </trkpt>
      <trkpt lat="44.82978" lon="7.00887">
        <ele>2657.2</ele>
      </trkpt>
      <trkpt lat="44.82981" lon="7.00892">
        <ele>2657.7</ele>
      </trkpt>
      <trkpt lat="44.82984" lon="7.00914">
        <ele>2651.4</ele>
      </trkpt>
      <trkpt lat="44.82986" lon="7.0093">
        <ele>2645.1</ele>
      </trkpt>
      <trkpt lat="44.8299" lon="7.00947">
        <ele>2636.8</ele>
      </trkpt>
      <trkpt lat="44.82994" lon="7.00963">
        <ele>2629.9</ele>
      </trkpt>
      <trkpt lat="44.83001" lon="7.00978">
        <ele>2622.5</ele>
      </trkpt>
      <trkpt lat="44.83014" lon="7.00999">
        <ele>2612.1</ele>
      </trkpt>
      <trkpt lat="44.83037" lon="7.01031">
        <ele>2596.2</ele>
      </trkpt>
      <trkpt lat="44.83095" lon="7.011">
        <ele>2557.3</ele>
      </trkpt>
      <trkpt lat="44.83121" lon="7.01132">
        <ele>2533</ele>
      </trkpt>
      <trkpt lat="44.83141" lon="7.0116">
        <ele>2514.9</ele>
      </trkpt>
      <trkpt lat="44.83166" lon="7.01201">
        <ele>2495.2</ele>
      </trkpt>
      <trkpt lat="44.83179" lon="7.01224">
        <ele>2484.7</ele>
      </trkpt>
      <trkpt lat="44.83187" lon="7.01244">
        <ele>2474</ele>
      </trkpt>
      <trkpt lat="44.8319" lon="7.01253">
        <ele>2470.3</ele>
      </trkpt>
      <trkpt lat="44.83194" lon="7.01278">
        <ele>2461.8</ele>
      </trkpt>
      <trkpt lat="44.83195" lon="7.0129">
        <ele>2457.2</ele>
      </trkpt>
      <trkpt lat="44.83195" lon="7.01303">
        <ele>2452.1</ele>
      </trkpt>
      <trkpt lat="44.83192" lon="7.01319">
        <ele>2445.7</ele>
      </trkpt>
      <trkpt lat="44.8319" lon="7.01327">
        <ele>2443.1</ele>
      </trkpt>
      <trkpt lat="44.83176" lon="7.01355">
        <ele>2439</ele>
      </trkpt>
      <trkpt lat="44.83158" lon="7.01385">
        <ele>2438.5</ele>
      </trkpt>
      <trkpt lat="44.83139" lon="7.01412">
        <ele>2446</ele>
      </trkpt>
      <trkpt lat="44.83105" lon="7.01456">
        <ele>2468.9</ele>
      </trkpt>
      <trkpt lat="44.83033" lon="7.01539">
        <ele>2494.3</ele>
      </trkpt>
      <trkpt lat="44.82992" lon="7.01585">
        <ele>2507.9</ele>
      </trkpt>
      <trkpt lat="44.82942" lon="7.01636">
        <ele>2520.2</ele>
      </trkpt>
      <trkpt lat="44.82856" lon="7.01718">
        <ele>2533.2</ele>
      </trkpt>
      <trkpt lat="44.82805" lon="7.01765">
        <ele>2551.5</ele>
      </trkpt>
      <trkpt lat="44.82759" lon="7.01805">
        <ele>2575.8</ele>
      </trkpt>
      <trkpt lat="44.82698" lon="7.01852">
        <ele>2597.4</ele>
      </trkpt>
      <trkpt lat="44.82678" lon="7.01865">
        <ele>2606.4</ele>
      </trkpt>
      <trkpt lat="44.8266" lon="7.01876">
        <ele>2616.1</ele>
      </trkpt>
      <trkpt lat="44.82642" lon="7.01884">
        <ele>2625.5</ele>
      </trkpt>
      <trkpt lat="44.82618" lon="7.01891">
        <ele>2639.5</ele>
      </trkpt>
      <trkpt lat="44.82602" lon="7.01894">
        <ele>2649.7</ele>
      </trkpt>
      <trkpt lat="44.82588" lon="7.01893">
        <ele>2659.1</ele>
      </trkpt>
      <trkpt lat="44.82577" lon="7.01891">
        <ele>2666.6</ele>
      </trkpt>
      <trkpt lat="44.82569" lon="7.01886">
        <ele>2673.1</ele>
      </trkpt>
      <trkpt lat="44.8256" lon="7.01879">
        <ele>2680</ele>
      </trkpt>
      <trkpt lat="44.82552" lon="7.01869">
        <ele>2686.7</ele>
      </trkpt>
      <trkpt lat="44.82541" lon="7.01851">
        <ele>2698.3</ele>
      </trkpt>
      <trkpt lat="44.82529" lon="7.01829">
        <ele>2713.6</ele>
      </trkpt>
      <trkpt lat="44.82524" lon="7.01822">
        <ele>2718.3</ele>
      </trkpt>
      <trkpt lat="44.82519" lon="7.01818">
        <ele>2722.2</ele>
      </trkpt>
      <trkpt lat="44.82508" lon="7.01814">
        <ele>2731.3</ele>
      </trkpt>
      <trkpt lat="44.82493" lon="7.01815">
        <ele>2734.4</ele>
      </trkpt>
    </trkseg>
  </trk>
  <trk>
    <name><![CDATA[2547 - Pic Ségure (Ristolas)]]></name>
    <extensions>
      <line xmlns="http://www.topografix.com/GPX/gpx_style/0/2">
        <color>FF00FF</color>
        <width>4</width>
          <extensions>
            <sens>1</sens>
          </extensions>
      </line>
    </extensions>
    <trkseg>
      <trkpt lat="44.77128" lon="6.95618">
        <ele>1660.8</ele>
      </trkpt>
      <trkpt lat="44.77134" lon="6.95534">
        <ele>1661.4</ele>
      </trkpt>
      <trkpt lat="44.77136" lon="6.95488">
        <ele>1661.3</ele>
      </trkpt>
      <trkpt lat="44.77135" lon="6.95466">
        <ele>1660.6</ele>
      </trkpt>
      <trkpt lat="44.77133" lon="6.9545">
        <ele>1660.8</ele>
      </trkpt>
      <trkpt lat="44.77128" lon="6.95431">
        <ele>1661.3</ele>
      </trkpt>
      <trkpt lat="44.77118" lon="6.954">
        <ele>1661.3</ele>
      </trkpt>
      <trkpt lat="44.77109" lon="6.9538">
        <ele>1661.7</ele>
      </trkpt>
      <trkpt lat="44.77103" lon="6.95373">
        <ele>1662.9</ele>
      </trkpt>
      <trkpt lat="44.77101" lon="6.95374">
        <ele>1664.1</ele>
      </trkpt>
      <trkpt lat="44.771" lon="6.95377">
        <ele>1665.6</ele>
      </trkpt>
      <trkpt lat="44.77099" lon="6.95382">
        <ele>1667.2</ele>
      </trkpt>
      <trkpt lat="44.77099" lon="6.95398">
        <ele>1670.8</ele>
      </trkpt>
      <trkpt lat="44.77098" lon="6.95423">
        <ele>1675.4</ele>
      </trkpt>
      <trkpt lat="44.77095" lon="6.95459">
        <ele>1681.7</ele>
      </trkpt>
      <trkpt lat="44.77091" lon="6.95489">
        <ele>1686.4</ele>
      </trkpt>
      <trkpt lat="44.77087" lon="6.95505">
        <ele>1689.3</ele>
      </trkpt>
      <trkpt lat="44.77085" lon="6.95508">
        <ele>1690.6</ele>
      </trkpt>
      <trkpt lat="44.77081" lon="6.95508">
        <ele>1692.4</ele>
      </trkpt>
      <trkpt lat="44.77078" lon="6.95506">
        <ele>1694.3</ele>
      </trkpt>
      <trkpt lat="44.77076" lon="6.95502">
        <ele>1695.6</ele>
      </trkpt>
      <trkpt lat="44.77073" lon="6.95496">
        <ele>1696.4</ele>
      </trkpt>
      <trkpt lat="44.77073" lon="6.95495">
        <ele>1696.5</ele>
      </trkpt>
      <trkpt lat="44.77073" lon="6.95495">
        <ele>1696.5</ele>
      </trkpt>
      <trkpt lat="44.7707" lon="6.95473">
        <ele>1696.3</ele>
      </trkpt>
      <trkpt lat="44.77064" lon="6.95432">
        <ele>1694.5</ele>
      </trkpt>
      <trkpt lat="44.7706" lon="6.95419">
        <ele>1695.1</ele>
      </trkpt>
      <trkpt lat="44.77054" lon="6.95411">
        <ele>1697.1</ele>
      </trkpt>
      <trkpt lat="44.77042" lon="6.95399">
        <ele>1701.4</ele>
      </trkpt>
      <trkpt lat="44.77013" lon="6.95366">
        <ele>1710.7</ele>
      </trkpt>
      <trkpt lat="44.76992" lon="6.95337">
        <ele>1714.5</ele>
      </trkpt>
      <trkpt lat="44.76975" lon="6.95311">
        <ele>1716.5</ele>
      </trkpt>
      <trkpt lat="44.76951" lon="6.9528">
        <ele>1720</ele>
      </trkpt>
      <trkpt lat="44.76855" lon="6.95156">
        <ele>1739.7</ele>
      </trkpt>
      <trkpt lat="44.76846" lon="6.95138">
        <ele>1741.5</ele>
      </trkpt>
      <trkpt lat="44.76844" lon="6.95126">
        <ele>1740.3</ele>
      </trkpt>
      <trkpt lat="44.7684" lon="6.95096">
        <ele>1737.3</ele>
      </trkpt>
      <trkpt lat="44.76836" lon="6.95086">
        <ele>1738.2</ele>
      </trkpt>
      <trkpt lat="44.76826" lon="6.95069">
        <ele>1739.2</ele>
      </trkpt>
      <trkpt lat="44.76821" lon="6.95057">
        <ele>1738.8</ele>
      </trkpt>
      <trkpt lat="44.76816" lon="6.95041">
        <ele>1737.9</ele>
      </trkpt>
      <trkpt lat="44.76808" lon="6.95009">
        <ele>1734.8</ele>
      </trkpt>
      <trkpt lat="44.76803" lon="6.94996">
        <ele>1733.5</ele>
      </trkpt>
      <trkpt lat="44.76795" lon="6.94981">
        <ele>1732.9</ele>
      </trkpt>
      <trkpt lat="44.76789" lon="6.94975">
        <ele>1734.3</ele>
      </trkpt>
      <trkpt lat="44.76781" lon="6.94971">
        <ele>1737</ele>
      </trkpt>
      <trkpt lat="44.76762" lon="6.94956">
        <ele>1742</ele>
      </trkpt>
      <trkpt lat="44.76759" lon="6.94946">
        <ele>1741.3</ele>
      </trkpt>
      <trkpt lat="44.76754" lon="6.94925">
        <ele>1740.3</ele>
      </trkpt>
      <trkpt lat="44.7675" lon="6.94906">
        <ele>1740.3</ele>
      </trkpt>
      <trkpt lat="44.76744" lon="6.94894">
        <ele>1741.3</ele>
      </trkpt>
      <trkpt lat="44.76731" lon="6.94875">
        <ele>1744.9</ele>
      </trkpt>
      <trkpt lat="44.76677" lon="6.94797">
        <ele>1757.1</ele>
      </trkpt>
      <trkpt lat="44.76634" lon="6.9474">
        <ele>1758.7</ele>
      </trkpt>
      <trkpt lat="44.76612" lon="6.94713">
        <ele>1760.9</ele>
      </trkpt>
      <trkpt lat="44.76603" lon="6.94706">
        <ele>1762.6</ele>
      </trkpt>
      <trkpt lat="44.76601" lon="6.94706">
        <ele>1763.7</ele>
      </trkpt>
      <trkpt lat="44.76599" lon="6.94709">
        <ele>1765.4</ele>
      </trkpt>
      <trkpt lat="44.76598" lon="6.94713">
        <ele>1767</ele>
      </trkpt>
      <trkpt lat="44.76597" lon="6.94717">
        <ele>1768.1</ele>
      </trkpt>
      <trkpt lat="44.76598" lon="6.9472">
        <ele>1768.6</ele>
      </trkpt>
      <trkpt lat="44.76602" lon="6.94729">
        <ele>1768.8</ele>
      </trkpt>
      <trkpt lat="44.76619" lon="6.94764">
        <ele>1770.9</ele>
      </trkpt>
      <trkpt lat="44.7662" lon="6.94776">
        <ele>1773.7</ele>
      </trkpt>
      <trkpt lat="44.76618" lon="6.94779">
        <ele>1775.2</ele>
      </trkpt>
      <trkpt lat="44.76615" lon="6.9478">
        <ele>1776.1</ele>
      </trkpt>
      <trkpt lat="44.76613" lon="6.94778">
        <ele>1776.3</ele>
      </trkpt>
      <trkpt lat="44.76609" lon="6.94772">
        <ele>1776.3</ele>
      </trkpt>
      <trkpt lat="44.76598" lon="6.94752">
        <ele>1775.5</ele>
      </trkpt>
      <trkpt lat="44.76558" lon="6.94687">
        <ele>1778.1</ele>
      </trkpt>
      <trkpt lat="44.76537" lon="6.94668">
        <ele>1783.4</ele>
      </trkpt>
      <trkpt lat="44.76473" lon="6.94612">
        <ele>1798.1</ele>
      </trkpt>
      <trkpt lat="44.76448" lon="6.94586">
        <ele>1803.7</ele>
      </trkpt>
      <trkpt lat="44.76414" lon="6.94551">
        <ele>1811.3</ele>
      </trkpt>
      <trkpt lat="44.76388" lon="6.94532">
        <ele>1814</ele>
      </trkpt>
      <trkpt lat="44.76366" lon="6.94517">
        <ele>1815.3</ele>
      </trkpt>
      <trkpt lat="44.76347" lon="6.94504">
        <ele>1815.6</ele>
      </trkpt>
      <trkpt lat="44.76335" lon="6.94495">
        <ele>1816.5</ele>
      </trkpt>
      <trkpt lat="44.76317" lon="6.94484">
        <ele>1818.4</ele>
      </trkpt>
      <trkpt lat="44.76311" lon="6.94476">
        <ele>1817.3</ele>
      </trkpt>
      <trkpt lat="44.76302" lon="6.94459">
        <ele>1814.2</ele>
      </trkpt>
      <trkpt lat="44.76292" lon="6.94442">
        <ele>1811.5</ele>
      </trkpt>
      <trkpt lat="44.76284" lon="6.94433">
        <ele>1811.1</ele>
      </trkpt>
      <trkpt lat="44.76276" lon="6.94428">
        <ele>1812.4</ele>
      </trkpt>
      <trkpt lat="44.76262" lon="6.94421">
        <ele>1815.8</ele>
      </trkpt>
      <trkpt lat="44.76215" lon="6.944">
        <ele>1828.9</ele>
      </trkpt>
      <trkpt lat="44.76207" lon="6.94393">
        <ele>1830.3</ele>
      </trkpt>
      <trkpt lat="44.76191" lon="6.94375">
        <ele>1832.9</ele>
      </trkpt>
      <trkpt lat="44.76163" lon="6.94347">
        <ele>1837.8</ele>
      </trkpt>
      <trkpt lat="44.76149" lon="6.94337">
        <ele>1841.5</ele>
      </trkpt>
      <trkpt lat="44.76118" lon="6.94314">
        <ele>1849.3</ele>
      </trkpt>
      <trkpt lat="44.7608" lon="6.94278">
        <ele>1855.6</ele>
      </trkpt>
      <trkpt lat="44.76035" lon="6.94242">
        <ele>1864</ele>
      </trkpt>
      <trkpt lat="44.75966" lon="6.94179">
        <ele>1870.1</ele>
      </trkpt>
      <trkpt lat="44.75948" lon="6.94158">
        <ele>1869.5</ele>
      </trkpt>
      <trkpt lat="44.75931" lon="6.94142">
        <ele>1870.4</ele>
      </trkpt>
      <trkpt lat="44.75908" lon="6.94124">
        <ele>1872.3</ele>
      </trkpt>
      <trkpt lat="44.75899" lon="6.94119">
        <ele>1873.6</ele>
      </trkpt>
      <trkpt lat="44.75888" lon="6.94116">
        <ele>1876.4</ele>
      </trkpt>
      <trkpt lat="44.75877" lon="6.94116">
        <ele>1879.9</ele>
      </trkpt>
      <trkpt lat="44.75859" lon="6.94118">
        <ele>1886.5</ele>
      </trkpt>
      <trkpt lat="44.7584" lon="6.94119">
        <ele>1892.7</ele>
      </trkpt>
      <trkpt lat="44.75819" lon="6.94117">
        <ele>1897.2</ele>
      </trkpt>
      <trkpt lat="44.7581" lon="6.94114">
        <ele>1898.1</ele>
      </trkpt>
      <trkpt lat="44.75799" lon="6.94108">
        <ele>1898.5</ele>
      </trkpt>
      <trkpt lat="44.75772" lon="6.94092">
        <ele>1900.4</ele>
      </trkpt>
      <trkpt lat="44.75759" lon="6.94085">
        <ele>1902.3</ele>
      </trkpt>
      <trkpt lat="44.7575" lon="6.94076">
        <ele>1902.3</ele>
      </trkpt>
      <trkpt lat="44.75746" lon="6.94068">
        <ele>1901.6</ele>
      </trkpt>
      <trkpt lat="44.75733" lon="6.94046">
        <ele>1900.3</ele>
      </trkpt>
      <trkpt lat="44.75722" lon="6.94035">
        <ele>1902.2</ele>
      </trkpt>
      <trkpt lat="44.75711" lon="6.94026">
        <ele>1904</ele>
      </trkpt>
      <trkpt lat="44.75697" lon="6.94018">
        <ele>1906.9</ele>
      </trkpt>
      <trkpt lat="44.7566" lon="6.94">
        <ele>1912.8</ele>
      </trkpt>
      <trkpt lat="44.75638" lon="6.93988">
        <ele>1913.7</ele>
      </trkpt>
      <trkpt lat="44.75612" lon="6.93975">
        <ele>1914.9</ele>
      </trkpt>
      <trkpt lat="44.756" lon="6.93972">
        <ele>1916.1</ele>
      </trkpt>
      <trkpt lat="44.75571" lon="6.93968">
        <ele>1917.1</ele>
      </trkpt>
      <trkpt lat="44.75549" lon="6.93968">
        <ele>1917.6</ele>
      </trkpt>
      <trkpt lat="44.75532" lon="6.93971">
        <ele>1918.4</ele>
      </trkpt>
      <trkpt lat="44.75501" lon="6.93975">
        <ele>1921.3</ele>
      </trkpt>
      <trkpt lat="44.75486" lon="6.93971">
        <ele>1920.6</ele>
      </trkpt>
      <trkpt lat="44.75472" lon="6.93967">
        <ele>1920.3</ele>
      </trkpt>
      <trkpt lat="44.75446" lon="6.93962">
        <ele>1922.1</ele>
      </trkpt>
      <trkpt lat="44.75437" lon="6.93955">
        <ele>1920.7</ele>
      </trkpt>
      <trkpt lat="44.75426" lon="6.93947">
        <ele>1919.3</ele>
      </trkpt>
      <trkpt lat="44.75403" lon="6.93934">
        <ele>1917.8</ele>
      </trkpt>
      <trkpt lat="44.75387" lon="6.93924">
        <ele>1916.3</ele>
      </trkpt>
      <trkpt lat="44.75373" lon="6.93918">
        <ele>1915.6</ele>
      </trkpt>
      <trkpt lat="44.75369" lon="6.93918">
        <ele>1916.6</ele>
      </trkpt>
      <trkpt lat="44.75355" lon="6.93923">
        <ele>1920.5</ele>
      </trkpt>
      <trkpt lat="44.75344" lon="6.93925">
        <ele>1922.9</ele>
      </trkpt>
      <trkpt lat="44.75334" lon="6.93925">
        <ele>1924.2</ele>
      </trkpt>
      <trkpt lat="44.75311" lon="6.93923">
        <ele>1925.9</ele>
      </trkpt>
      <trkpt lat="44.75292" lon="6.9392">
        <ele>1927.1</ele>
      </trkpt>
      <trkpt lat="44.75283" lon="6.93922">
        <ele>1928.8</ele>
      </trkpt>
      <trkpt lat="44.75277" lon="6.93926">
        <ele>1931</ele>
      </trkpt>
      <trkpt lat="44.75242" lon="6.93949">
        <ele>1940.9</ele>
      </trkpt>
      <trkpt lat="44.75206" lon="6.93967">
        <ele>1943.5</ele>
      </trkpt>
      <trkpt lat="44.75201" lon="6.93972">
        <ele>1944.9</ele>
      </trkpt>
      <trkpt lat="44.752" lon="6.93979">
        <ele>1946.9</ele>
      </trkpt>
      <trkpt lat="44.752" lon="6.93994">
        <ele>1952.1</ele>
      </trkpt>
      <trkpt lat="44.75201" lon="6.94053">
        <ele>1967.8</ele>
      </trkpt>
      <trkpt lat="44.75199" lon="6.94065">
        <ele>1971.3</ele>
      </trkpt>
      <trkpt lat="44.75197" lon="6.94067">
        <ele>1971.8</ele>
      </trkpt>
      <trkpt lat="44.75195" lon="6.94068">
        <ele>1971.5</ele>
      </trkpt>
      <trkpt lat="44.75191" lon="6.94067">
        <ele>1971.1</ele>
      </trkpt>
      <trkpt lat="44.75184" lon="6.94062">
        <ele>1969.8</ele>
      </trkpt>
      <trkpt lat="44.7516" lon="6.94048">
        <ele>1966.2</ele>
      </trkpt>
      <trkpt lat="44.75149" lon="6.94049">
        <ele>1967.9</ele>
      </trkpt>
      <trkpt lat="44.75107" lon="6.94053">
        <ele>1974.3</ele>
      </trkpt>
      <trkpt lat="44.75079" lon="6.94058">
        <ele>1978.5</ele>
      </trkpt>
      <trkpt lat="44.75062" lon="6.94064">
        <ele>1981.4</ele>
      </trkpt>
      <trkpt lat="44.75039" lon="6.94073">
        <ele>1986.3</ele>
      </trkpt>
      <trkpt lat="44.75025" lon="6.94077">
        <ele>1988.6</ele>
      </trkpt>
      <trkpt lat="44.75002" lon="6.94079">
        <ele>1992.1</ele>
      </trkpt>
      <trkpt lat="44.74985" lon="6.94079">
        <ele>1994.7</ele>
      </trkpt>
      <trkpt lat="44.74948" lon="6.94075">
        <ele>2000.2</ele>
      </trkpt>
      <trkpt lat="44.74931" lon="6.94071">
        <ele>2001.9</ele>
      </trkpt>
      <trkpt lat="44.74916" lon="6.94065">
        <ele>2002.4</ele>
      </trkpt>
      <trkpt lat="44.74892" lon="6.94054">
        <ele>2004.8</ele>
      </trkpt>
      <trkpt lat="44.74869" lon="6.94049">
        <ele>2009.3</ele>
      </trkpt>
      <trkpt lat="44.74832" lon="6.94042">
        <ele>2015.4</ele>
      </trkpt>
      <trkpt lat="44.74802" lon="6.9404">
        <ele>2019.1</ele>
      </trkpt>
      <trkpt lat="44.74777" lon="6.94042">
        <ele>2022.1</ele>
      </trkpt>
      <trkpt lat="44.74765" lon="6.94046">
        <ele>2024.4</ele>
      </trkpt>
      <trkpt lat="44.74752" lon="6.94054">
        <ele>2027.5</ele>
      </trkpt>
      <trkpt lat="44.7473" lon="6.94064">
        <ele>2031.9</ele>
      </trkpt>
      <trkpt lat="44.74728" lon="6.94062">
        <ele>2031.6</ele>
      </trkpt>
      <trkpt lat="44.74722" lon="6.94052">
        <ele>2030.3</ele>
      </trkpt>
      <trkpt lat="44.74714" lon="6.94043">
        <ele>2028.8</ele>
      </trkpt>
      <trkpt lat="44.74707" lon="6.9404">
        <ele>2028.6</ele>
      </trkpt>
      <trkpt lat="44.74698" lon="6.94041">
        <ele>2029.5</ele>
      </trkpt>
      <trkpt lat="44.74554" lon="6.94072">
        <ele>2039.2</ele>
      </trkpt>
      <trkpt lat="44.74435" lon="6.94099">
        <ele>2041.9</ele>
      </trkpt>
      <trkpt lat="44.74364" lon="6.94118">
        <ele>2053.9</ele>
      </trkpt>
      <trkpt lat="44.74283" lon="6.94143">
        <ele>2092.1</ele>
      </trkpt>
      <trkpt lat="44.74195" lon="6.94174">
        <ele>2132.2</ele>
      </trkpt>
      <trkpt lat="44.73998" lon="6.94244">
        <ele>2156.5</ele>
      </trkpt>
      <trkpt lat="44.73841" lon="6.94307">
        <ele>2174.5</ele>
      </trkpt>
      <trkpt lat="44.73733" lon="6.94354">
        <ele>2186.7</ele>
      </trkpt>
      <trkpt lat="44.73638" lon="6.94398">
        <ele>2188.4</ele>
      </trkpt>
      <trkpt lat="44.73622" lon="6.94408">
        <ele>2187.1</ele>
      </trkpt>
      <trkpt lat="44.7358" lon="6.94435">
        <ele>2188.6</ele>
      </trkpt>
      <trkpt lat="44.73525" lon="6.94476">
        <ele>2195.2</ele>
      </trkpt>
      <trkpt lat="44.73481" lon="6.9451">
        <ele>2205.2</ele>
      </trkpt>
      <trkpt lat="44.73451" lon="6.94534">
        <ele>2211.6</ele>
      </trkpt>
      <trkpt lat="44.73451" lon="6.94534">
        <ele>2211.6</ele>
      </trkpt>
      <trkpt lat="44.73426" lon="6.94561">
        <ele>2217.2</ele>
      </trkpt>
      <trkpt lat="44.73405" lon="6.94589">
        <ele>2225</ele>
      </trkpt>
      <trkpt lat="44.7339" lon="6.94613">
        <ele>2229.9</ele>
      </trkpt>
      <trkpt lat="44.73372" lon="6.94649">
        <ele>2239.2</ele>
      </trkpt>
      <trkpt lat="44.73352" lon="6.94693">
        <ele>2249.1</ele>
      </trkpt>
      <trkpt lat="44.73337" lon="6.94731">
        <ele>2259.5</ele>
      </trkpt>
      <trkpt lat="44.7333" lon="6.94762">
        <ele>2265.8</ele>
      </trkpt>
      <trkpt lat="44.73325" lon="6.94791">
        <ele>2268.2</ele>
      </trkpt>
      <trkpt lat="44.73319" lon="6.94834">
        <ele>2272.5</ele>
      </trkpt>
      <trkpt lat="44.73316" lon="6.94876">
        <ele>2280.1</ele>
      </trkpt>
      <trkpt lat="44.73311" lon="6.9496">
        <ele>2307</ele>
      </trkpt>
      <trkpt lat="44.7331" lon="6.94997">
        <ele>2319.3</ele>
      </trkpt>
      <trkpt lat="44.73312" lon="6.95073">
        <ele>2345.4</ele>
      </trkpt>
      <trkpt lat="44.73316" lon="6.95172">
        <ele>2388.5</ele>
      </trkpt>
      <trkpt lat="44.73326" lon="6.95354">
        <ele>2446.2</ele>
      </trkpt>
      <trkpt lat="44.73333" lon="6.95446">
        <ele>2469.3</ele>
      </trkpt>
      <trkpt lat="44.7334" lon="6.95512">
        <ele>2496.4</ele>
      </trkpt>
      <trkpt lat="44.73349" lon="6.95582">
        <ele>2524.5</ele>
      </trkpt>
      <trkpt lat="44.73361" lon="6.95661">
        <ele>2538.4</ele>
      </trkpt>
      <trkpt lat="44.73384" lon="6.9578">
        <ele>2555.6</ele>
      </trkpt>
      <trkpt lat="44.73419" lon="6.95945">
        <ele>2584.5</ele>
      </trkpt>
      <trkpt lat="44.73439" lon="6.96037">
        <ele>2604.6</ele>
      </trkpt>
      <trkpt lat="44.73462" lon="6.96126">
        <ele>2641.3</ele>
      </trkpt>
      <trkpt lat="44.73484" lon="6.96202">
        <ele>2665</ele>
      </trkpt>
      <trkpt lat="44.73505" lon="6.96268">
        <ele>2682.2</ele>
      </trkpt>
      <trkpt lat="44.73534" lon="6.96343">
        <ele>2691.2</ele>
      </trkpt>
      <trkpt lat="44.73563" lon="6.96415">
        <ele>2712.6</ele>
      </trkpt>
      <trkpt lat="44.73591" lon="6.9648">
        <ele>2739.8</ele>
      </trkpt>
      <trkpt lat="44.73618" lon="6.96524">
        <ele>2765.6</ele>
      </trkpt>
      <trkpt lat="44.73646" lon="6.96564">
        <ele>2793.8</ele>
      </trkpt>
      <trkpt lat="44.73669" lon="6.96594">
        <ele>2816.1</ele>
      </trkpt>
      <trkpt lat="44.73715" lon="6.9665">
        <ele>2861.3</ele>
      </trkpt>
      <trkpt lat="44.73751" lon="6.96691">
        <ele>2886.9</ele>
      </trkpt>
      <trkpt lat="44.73793" lon="6.96731">
        <ele>2909.4</ele>
      </trkpt>
      <trkpt lat="44.73829" lon="6.96763">
        <ele>2927.1</ele>
      </trkpt>
      <trkpt lat="44.73878" lon="6.96803">
        <ele>2956.6</ele>
      </trkpt>
      <trkpt lat="44.73926" lon="6.96838">
        <ele>2970.4</ele>
      </trkpt>
    </trkseg>
  </trk>
  <trk>
    <name><![CDATA[2541 - Pic Ségure (Ristolas)]]></name>
    <extensions>
      <line xmlns="http://www.topografix.com/GPX/gpx_style/0/2">
        <color>000088</color>
        <width>4</width>
          <extensions>
            <sens>1</sens>
          </extensions>
      </line>
    </extensions>
    <trkseg>
      <trkpt lat="44.77128" lon="6.95618">
        <ele>1660.8</ele>
      </trkpt>
      <trkpt lat="44.77134" lon="6.95534">
        <ele>1661.4</ele>
      </trkpt>
      <trkpt lat="44.77136" lon="6.95488">
        <ele>1661.3</ele>
      </trkpt>
      <trkpt lat="44.77135" lon="6.95466">
        <ele>1660.6</ele>
      </trkpt>
      <trkpt lat="44.77133" lon="6.9545">
        <ele>1660.8</ele>
      </trkpt>
      <trkpt lat="44.77128" lon="6.95431">
        <ele>1661.3</ele>
      </trkpt>
      <trkpt lat="44.77118" lon="6.954">
        <ele>1661.3</ele>
      </trkpt>
      <trkpt lat="44.77109" lon="6.9538">
        <ele>1661.7</ele>
      </trkpt>
      <trkpt lat="44.77103" lon="6.95373">
        <ele>1662.9</ele>
      </trkpt>
      <trkpt lat="44.77101" lon="6.95374">
        <ele>1664.1</ele>
      </trkpt>
      <trkpt lat="44.771" lon="6.95377">
        <ele>1665.6</ele>
      </trkpt>
      <trkpt lat="44.77099" lon="6.95382">
        <ele>1667.2</ele>
      </trkpt>
      <trkpt lat="44.77099" lon="6.95398">
        <ele>1670.8</ele>
      </trkpt>
      <trkpt lat="44.77098" lon="6.95423">
        <ele>1675.4</ele>
      </trkpt>
      <trkpt lat="44.77095" lon="6.95459">
        <ele>1681.7</ele>
      </trkpt>
      <trkpt lat="44.77091" lon="6.95489">
        <ele>1686.4</ele>
      </trkpt>
      <trkpt lat="44.77087" lon="6.95505">
        <ele>1689.3</ele>
      </trkpt>
      <trkpt lat="44.77085" lon="6.95508">
        <ele>1690.6</ele>
      </trkpt>
      <trkpt lat="44.77081" lon="6.95508">
        <ele>1692.4</ele>
      </trkpt>
      <trkpt lat="44.77078" lon="6.95506">
        <ele>1694.3</ele>
      </trkpt>
      <trkpt lat="44.77076" lon="6.95502">
        <ele>1695.6</ele>
      </trkpt>
      <trkpt lat="44.77073" lon="6.95496">
        <ele>1696.4</ele>
      </trkpt>
      <trkpt lat="44.77073" lon="6.95495">
        <ele>1696.5</ele>
      </trkpt>
      <trkpt lat="44.77073" lon="6.95495">
        <ele>1696.5</ele>
      </trkpt>
      <trkpt lat="44.77051" lon="6.95436">
        <ele>1702.8</ele>
      </trkpt>
      <trkpt lat="44.77043" lon="6.95424">
        <ele>1706.2</ele>
      </trkpt>
      <trkpt lat="44.77027" lon="6.95407">
        <ele>1712.3</ele>
      </trkpt>
      <trkpt lat="44.77014" lon="6.95395">
        <ele>1717.3</ele>
      </trkpt>
      <trkpt lat="44.7699" lon="6.95374">
        <ele>1725.9</ele>
      </trkpt>
      <trkpt lat="44.76963" lon="6.95346">
        <ele>1732.6</ele>
      </trkpt>
      <trkpt lat="44.76926" lon="6.95309">
        <ele>1742</ele>
      </trkpt>
      <trkpt lat="44.76905" lon="6.95292">
        <ele>1748.7</ele>
      </trkpt>
      <trkpt lat="44.76836" lon="6.95241">
        <ele>1769.4</ele>
      </trkpt>
      <trkpt lat="44.7682" lon="6.95224">
        <ele>1773.3</ele>
      </trkpt>
      <trkpt lat="44.768" lon="6.952">
        <ele>1777.5</ele>
      </trkpt>
      <trkpt lat="44.76767" lon="6.95155">
        <ele>1782.6</ele>
      </trkpt>
      <trkpt lat="44.76739" lon="6.95114">
        <ele>1785.1</ele>
      </trkpt>
      <trkpt lat="44.76722" lon="6.95094">
        <ele>1787.2</ele>
      </trkpt>
      <trkpt lat="44.76703" lon="6.95072">
        <ele>1789.7</ele>
      </trkpt>
      <trkpt lat="44.76698" lon="6.9507">
        <ele>1790.9</ele>
      </trkpt>
      <trkpt lat="44.76692" lon="6.95068">
        <ele>1792.8</ele>
      </trkpt>
      <trkpt lat="44.76683" lon="6.95071">
        <ele>1796.5</ele>
      </trkpt>
      <trkpt lat="44.76679" lon="6.95075">
        <ele>1799.4</ele>
      </trkpt>
      <trkpt lat="44.76678" lon="6.9508">
        <ele>1800.8</ele>
      </trkpt>
      <trkpt lat="44.76677" lon="6.95089">
        <ele>1803.3</ele>
      </trkpt>
      <trkpt lat="44.76678" lon="6.95106">
        <ele>1807.2</ele>
      </trkpt>
      <trkpt lat="44.76683" lon="6.95161">
        <ele>1818.4</ele>
      </trkpt>
      <trkpt lat="44.76688" lon="6.9521">
        <ele>1827.5</ele>
      </trkpt>
      <trkpt lat="44.76687" lon="6.95219">
        <ele>1830</ele>
      </trkpt>
      <trkpt lat="44.76684" lon="6.95232">
        <ele>1834.3</ele>
      </trkpt>
      <trkpt lat="44.76681" lon="6.95238">
        <ele>1837.3</ele>
      </trkpt>
      <trkpt lat="44.76678" lon="6.95239">
        <ele>1838.9</ele>
      </trkpt>
      <trkpt lat="44.76675" lon="6.95239">
        <ele>1840.2</ele>
      </trkpt>
      <trkpt lat="44.7667" lon="6.95237">
        <ele>1842.5</ele>
      </trkpt>
      <trkpt lat="44.76663" lon="6.95231">
        <ele>1845.2</ele>
      </trkpt>
      <trkpt lat="44.76633" lon="6.95213">
        <ele>1856.7</ele>
      </trkpt>
      <trkpt lat="44.7663" lon="6.95216">
        <ele>1859.2</ele>
      </trkpt>
      <trkpt lat="44.76626" lon="6.9522">
        <ele>1862.5</ele>
      </trkpt>
      <trkpt lat="44.76624" lon="6.95227">
        <ele>1865.1</ele>
      </trkpt>
      <trkpt lat="44.76623" lon="6.9524">
        <ele>1868.8</ele>
      </trkpt>
      <trkpt lat="44.76623" lon="6.95262">
        <ele>1873.8</ele>
      </trkpt>
      <trkpt lat="44.76626" lon="6.95321">
        <ele>1885.3</ele>
      </trkpt>
      <trkpt lat="44.76629" lon="6.95405">
        <ele>1900.1</ele>
      </trkpt>
      <trkpt lat="44.76626" lon="6.95425">
        <ele>1905.1</ele>
      </trkpt>
      <trkpt lat="44.76622" lon="6.95446">
        <ele>1911</ele>
      </trkpt>
      <trkpt lat="44.76618" lon="6.95456">
        <ele>1914.7</ele>
      </trkpt>
      <trkpt lat="44.76616" lon="6.95457">
        <ele>1915.9</ele>
      </trkpt>
      <trkpt lat="44.76611" lon="6.95457">
        <ele>1918.1</ele>
      </trkpt>
      <trkpt lat="44.76603" lon="6.95453">
        <ele>1921.9</ele>
      </trkpt>
      <trkpt lat="44.76594" lon="6.95447">
        <ele>1925.1</ele>
      </trkpt>
      <trkpt lat="44.76569" lon="6.95425">
        <ele>1934.2</ele>
      </trkpt>
      <trkpt lat="44.76548" lon="6.95404">
        <ele>1941.4</ele>
      </trkpt>
      <trkpt lat="44.76513" lon="6.95369">
        <ele>1950.2</ele>
      </trkpt>
      <trkpt lat="44.76486" lon="6.95345">
        <ele>1955.8</ele>
      </trkpt>
      <trkpt lat="44.7648" lon="6.95342">
        <ele>1957.3</ele>
      </trkpt>
      <trkpt lat="44.7647" lon="6.9534">
        <ele>1960.2</ele>
      </trkpt>
      <trkpt lat="44.76461" lon="6.9534">
        <ele>1963.1</ele>
      </trkpt>
      <trkpt lat="44.76448" lon="6.95343">
        <ele>1967.5</ele>
      </trkpt>
      <trkpt lat="44.76442" lon="6.95346">
        <ele>1970.4</ele>
      </trkpt>
      <trkpt lat="44.76427" lon="6.95356">
        <ele>1977.5</ele>
      </trkpt>
      <trkpt lat="44.76397" lon="6.9538">
        <ele>1993.6</ele>
      </trkpt>
      <trkpt lat="44.76357" lon="6.95412">
        <ele>2014.3</ele>
      </trkpt>
      <trkpt lat="44.76335" lon="6.95424">
        <ele>2024.9</ele>
      </trkpt>
      <trkpt lat="44.76315" lon="6.95432">
        <ele>2033.9</ele>
      </trkpt>
      <trkpt lat="44.76279" lon="6.95444">
        <ele>2047.5</ele>
      </trkpt>
      <trkpt lat="44.76262" lon="6.95446">
        <ele>2052.6</ele>
      </trkpt>
      <trkpt lat="44.76226" lon="6.9545">
        <ele>2061.6</ele>
      </trkpt>
      <trkpt lat="44.76175" lon="6.95451">
        <ele>2072.9</ele>
      </trkpt>
      <trkpt lat="44.76142" lon="6.9545">
        <ele>2081.2</ele>
      </trkpt>
      <trkpt lat="44.76098" lon="6.95446">
        <ele>2094.8</ele>
      </trkpt>
      <trkpt lat="44.76039" lon="6.95438">
        <ele>2116.2</ele>
      </trkpt>
      <trkpt lat="44.75858" lon="6.95411">
        <ele>2180.2</ele>
      </trkpt>
      <trkpt lat="44.75819" lon="6.95409">
        <ele>2194.5</ele>
      </trkpt>
      <trkpt lat="44.75781" lon="6.95409">
        <ele>2208.6</ele>
      </trkpt>
      <trkpt lat="44.75706" lon="6.95413">
        <ele>2236.5</ele>
      </trkpt>
      <trkpt lat="44.7569" lon="6.95416">
        <ele>2242.4</ele>
      </trkpt>
      <trkpt lat="44.75661" lon="6.95423">
        <ele>2253.7</ele>
      </trkpt>
      <trkpt lat="44.7563" lon="6.95434">
        <ele>2265.8</ele>
      </trkpt>
      <trkpt lat="44.75603" lon="6.95445">
        <ele>2277.2</ele>
      </trkpt>
      <trkpt lat="44.7557" lon="6.95461">
        <ele>2293.1</ele>
      </trkpt>
      <trkpt lat="44.75505" lon="6.95496">
        <ele>2322.6</ele>
      </trkpt>
      <trkpt lat="44.75474" lon="6.95515">
        <ele>2335.8</ele>
      </trkpt>
      <trkpt lat="44.75402" lon="6.95564">
        <ele>2363.5</ele>
      </trkpt>
      <trkpt lat="44.75351" lon="6.95602">
        <ele>2384</ele>
      </trkpt>
      <trkpt lat="44.75327" lon="6.95621">
        <ele>2393</ele>
      </trkpt>
      <trkpt lat="44.75306" lon="6.95639">
        <ele>2401.1</ele>
      </trkpt>
      <trkpt lat="44.75306" lon="6.95639">
        <ele>2401.1</ele>
      </trkpt>
      <trkpt lat="44.75274" lon="6.95665">
        <ele>2412.7</ele>
      </trkpt>
      <trkpt lat="44.75248" lon="6.95682">
        <ele>2420.1</ele>
      </trkpt>
      <trkpt lat="44.75219" lon="6.95699">
        <ele>2426.6</ele>
      </trkpt>
      <trkpt lat="44.75209" lon="6.95702">
        <ele>2426.1</ele>
      </trkpt>
      <trkpt lat="44.75181" lon="6.95709">
        <ele>2420.1</ele>
      </trkpt>
      <trkpt lat="44.75137" lon="6.95718">
        <ele>2405.4</ele>
      </trkpt>
      <trkpt lat="44.75014" lon="6.95744">
        <ele>2377.9</ele>
      </trkpt>
      <trkpt lat="44.74979" lon="6.95755">
        <ele>2380.1</ele>
      </trkpt>
      <trkpt lat="44.74953" lon="6.95767">
        <ele>2382</ele>
      </trkpt>
      <trkpt lat="44.74909" lon="6.95792">
        <ele>2385.9</ele>
      </trkpt>
      <trkpt lat="44.74864" lon="6.9582">
        <ele>2396.5</ele>
      </trkpt>
      <trkpt lat="44.74823" lon="6.95855">
        <ele>2417.6</ele>
      </trkpt>
      <trkpt lat="44.74788" lon="6.95888">
        <ele>2432.6</ele>
      </trkpt>
      <trkpt lat="44.7472" lon="6.95957">
        <ele>2462.5</ele>
      </trkpt>
      <trkpt lat="44.74693" lon="6.95986">
        <ele>2476.9</ele>
      </trkpt>
      <trkpt lat="44.74628" lon="6.96056">
        <ele>2505.9</ele>
      </trkpt>
      <trkpt lat="44.74551" lon="6.96127">
        <ele>2552.3</ele>
      </trkpt>
      <trkpt lat="44.7452" lon="6.96152">
        <ele>2572.5</ele>
      </trkpt>
      <trkpt lat="44.74466" lon="6.9619">
        <ele>2602.1</ele>
      </trkpt>
      <trkpt lat="44.74439" lon="6.96205">
        <ele>2615.9</ele>
      </trkpt>
      <trkpt lat="44.744" lon="6.96226">
        <ele>2637.5</ele>
      </trkpt>
      <trkpt lat="44.74339" lon="6.96254">
        <ele>2665.9</ele>
      </trkpt>
      <trkpt lat="44.74307" lon="6.96272">
        <ele>2684.5</ele>
      </trkpt>
      <trkpt lat="44.74274" lon="6.96293">
        <ele>2706.7</ele>
      </trkpt>
      <trkpt lat="44.74254" lon="6.9631">
        <ele>2719.7</ele>
      </trkpt>
      <trkpt lat="44.7423" lon="6.96332">
        <ele>2736.8</ele>
      </trkpt>
      <trkpt lat="44.74158" lon="6.96401">
        <ele>2780.1</ele>
      </trkpt>
      <trkpt lat="44.74137" lon="6.96416">
        <ele>2791.4</ele>
      </trkpt>
      <trkpt lat="44.74115" lon="6.96428">
        <ele>2803.5</ele>
      </trkpt>
      <trkpt lat="44.74103" lon="6.9643">
        <ele>2809.7</ele>
      </trkpt>
      <trkpt lat="44.74089" lon="6.96429">
        <ele>2816.2</ele>
      </trkpt>
      <trkpt lat="44.74066" lon="6.96424">
        <ele>2826.1</ele>
      </trkpt>
      <trkpt lat="44.7405" lon="6.96419">
        <ele>2832</ele>
      </trkpt>
      <trkpt lat="44.74031" lon="6.96413">
        <ele>2838.5</ele>
      </trkpt>
      <trkpt lat="44.74014" lon="6.96411">
        <ele>2844</ele>
      </trkpt>
      <trkpt lat="44.74009" lon="6.96413">
        <ele>2846.5</ele>
      </trkpt>
      <trkpt lat="44.74004" lon="6.96416">
        <ele>2849.5</ele>
      </trkpt>
      <trkpt lat="44.73997" lon="6.96425">
        <ele>2854.9</ele>
      </trkpt>
      <trkpt lat="44.73992" lon="6.96434">
        <ele>2859.3</ele>
      </trkpt>
      <trkpt lat="44.7399" lon="6.96442">
        <ele>2862.2</ele>
      </trkpt>
      <trkpt lat="44.73987" lon="6.96458">
        <ele>2867.2</ele>
      </trkpt>
      <trkpt lat="44.73984" lon="6.96484">
        <ele>2873.5</ele>
      </trkpt>
      <trkpt lat="44.7398" lon="6.96549">
        <ele>2888.3</ele>
      </trkpt>
      <trkpt lat="44.73975" lon="6.96607">
        <ele>2905.2</ele>
      </trkpt>
      <trkpt lat="44.73968" lon="6.9668">
        <ele>2926.1</ele>
      </trkpt>
      <trkpt lat="44.73962" lon="6.96725">
        <ele>2940.6</ele>
      </trkpt>
      <trkpt lat="44.73955" lon="6.96758">
        <ele>2952.8</ele>
      </trkpt>
      <trkpt lat="44.73949" lon="6.96781">
        <ele>2959.4</ele>
      </trkpt>
      <trkpt lat="44.73939" lon="6.96811">
        <ele>2967.8</ele>
      </trkpt>
      <trkpt lat="44.73933" lon="6.96824">
        <ele>2970.3</ele>
      </trkpt>
      <trkpt lat="44.73926" lon="6.96838">
        <ele>2970.4</ele>
      </trkpt>
    </trkseg>
  </trk>
  <trk>
    <name><![CDATA[2551 - Pic de Foréant (Ristolas)]]></name>
    <extensions>
      <line xmlns="http://www.topografix.com/GPX/gpx_style/0/2">
        <color>008800</color>
        <width>4</width>
          <extensions>
            <sens>1</sens>
          </extensions>
      </line>
    </extensions>
    <trkseg>
      <trkpt lat="44.77128" lon="6.95618">
        <ele>1660.8</ele>
      </trkpt>
      <trkpt lat="44.77134" lon="6.95534">
        <ele>1661.4</ele>
      </trkpt>
      <trkpt lat="44.77136" lon="6.95488">
        <ele>1661.3</ele>
      </trkpt>
      <trkpt lat="44.77135" lon="6.95466">
        <ele>1660.6</ele>
      </trkpt>
      <trkpt lat="44.77133" lon="6.9545">
        <ele>1660.8</ele>
      </trkpt>
      <trkpt lat="44.77128" lon="6.95431">
        <ele>1661.3</ele>
      </trkpt>
      <trkpt lat="44.77118" lon="6.954">
        <ele>1661.3</ele>
      </trkpt>
      <trkpt lat="44.77109" lon="6.9538">
        <ele>1661.7</ele>
      </trkpt>
      <trkpt lat="44.77103" lon="6.95373">
        <ele>1662.9</ele>
      </trkpt>
      <trkpt lat="44.77101" lon="6.95374">
        <ele>1664.1</ele>
      </trkpt>
      <trkpt lat="44.771" lon="6.95377">
        <ele>1665.6</ele>
      </trkpt>
      <trkpt lat="44.77099" lon="6.95382">
        <ele>1667.2</ele>
      </trkpt>
      <trkpt lat="44.77099" lon="6.95398">
        <ele>1670.8</ele>
      </trkpt>
      <trkpt lat="44.77098" lon="6.95423">
        <ele>1675.4</ele>
      </trkpt>
      <trkpt lat="44.77095" lon="6.95459">
        <ele>1681.7</ele>
      </trkpt>
      <trkpt lat="44.77091" lon="6.95489">
        <ele>1686.4</ele>
      </trkpt>
      <trkpt lat="44.77087" lon="6.95505">
        <ele>1689.3</ele>
      </trkpt>
      <trkpt lat="44.77085" lon="6.95508">
        <ele>1690.6</ele>
      </trkpt>
      <trkpt lat="44.77081" lon="6.95508">
        <ele>1692.4</ele>
      </trkpt>
      <trkpt lat="44.77078" lon="6.95506">
        <ele>1694.3</ele>
      </trkpt>
      <trkpt lat="44.77076" lon="6.95502">
        <ele>1695.6</ele>
      </trkpt>
      <trkpt lat="44.77073" lon="6.95496">
        <ele>1696.4</ele>
      </trkpt>
      <trkpt lat="44.77073" lon="6.95495">
        <ele>1696.5</ele>
      </trkpt>
      <trkpt lat="44.77073" lon="6.95495">
        <ele>1696.5</ele>
      </trkpt>
      <trkpt lat="44.7707" lon="6.95473">
        <ele>1696.3</ele>
      </trkpt>
      <trkpt lat="44.77064" lon="6.95432">
        <ele>1694.5</ele>
      </trkpt>
      <trkpt lat="44.7706" lon="6.95419">
        <ele>1695.1</ele>
      </trkpt>
      <trkpt lat="44.77054" lon="6.95411">
        <ele>1697.1</ele>
      </trkpt>
      <trkpt lat="44.77042" lon="6.95399">
        <ele>1701.4</ele>
      </trkpt>
      <trkpt lat="44.77013" lon="6.95366">
        <ele>1710.7</ele>
      </trkpt>
      <trkpt lat="44.76992" lon="6.95337">
        <ele>1714.5</ele>
      </trkpt>
      <trkpt lat="44.76975" lon="6.95311">
        <ele>1716.5</ele>
      </trkpt>
      <trkpt lat="44.76951" lon="6.9528">
        <ele>1720</ele>
      </trkpt>
      <trkpt lat="44.76855" lon="6.95156">
        <ele>1739.7</ele>
      </trkpt>
      <trkpt lat="44.76846" lon="6.95138">
        <ele>1741.5</ele>
      </trkpt>
      <trkpt lat="44.76844" lon="6.95126">
        <ele>1740.3</ele>
      </trkpt>
      <trkpt lat="44.7684" lon="6.95096">
        <ele>1737.3</ele>
      </trkpt>
      <trkpt lat="44.76836" lon="6.95086">
        <ele>1738.2</ele>
      </trkpt>
      <trkpt lat="44.76826" lon="6.95069">
        <ele>1739.2</ele>
      </trkpt>
      <trkpt lat="44.76821" lon="6.95057">
        <ele>1738.8</ele>
      </trkpt>
      <trkpt lat="44.76816" lon="6.95041">
        <ele>1737.9</ele>
      </trkpt>
      <trkpt lat="44.76808" lon="6.95009">
        <ele>1734.8</ele>
      </trkpt>
      <trkpt lat="44.76803" lon="6.94996">
        <ele>1733.5</ele>
      </trkpt>
      <trkpt lat="44.76795" lon="6.94981">
        <ele>1732.9</ele>
      </trkpt>
      <trkpt lat="44.76789" lon="6.94975">
        <ele>1734.3</ele>
      </trkpt>
      <trkpt lat="44.76781" lon="6.94971">
        <ele>1737</ele>
      </trkpt>
      <trkpt lat="44.76762" lon="6.94956">
        <ele>1742</ele>
      </trkpt>
      <trkpt lat="44.76759" lon="6.94946">
        <ele>1741.3</ele>
      </trkpt>
      <trkpt lat="44.76754" lon="6.94925">
        <ele>1740.3</ele>
      </trkpt>
      <trkpt lat="44.7675" lon="6.94906">
        <ele>1740.3</ele>
      </trkpt>
      <trkpt lat="44.76744" lon="6.94894">
        <ele>1741.3</ele>
      </trkpt>
      <trkpt lat="44.76731" lon="6.94875">
        <ele>1744.9</ele>
      </trkpt>
      <trkpt lat="44.76677" lon="6.94797">
        <ele>1757.1</ele>
      </trkpt>
      <trkpt lat="44.76634" lon="6.9474">
        <ele>1758.7</ele>
      </trkpt>
      <trkpt lat="44.76612" lon="6.94713">
        <ele>1760.9</ele>
      </trkpt>
      <trkpt lat="44.76603" lon="6.94706">
        <ele>1762.6</ele>
      </trkpt>
      <trkpt lat="44.76601" lon="6.94706">
        <ele>1763.7</ele>
      </trkpt>
      <trkpt lat="44.76599" lon="6.94709">
        <ele>1765.4</ele>
      </trkpt>
      <trkpt lat="44.76598" lon="6.94713">
        <ele>1767</ele>
      </trkpt>
      <trkpt lat="44.76597" lon="6.94717">
        <ele>1768.1</ele>
      </trkpt>
      <trkpt lat="44.76598" lon="6.9472">
        <ele>1768.6</ele>
      </trkpt>
      <trkpt lat="44.76602" lon="6.94729">
        <ele>1768.8</ele>
      </trkpt>
      <trkpt lat="44.76619" lon="6.94764">
        <ele>1770.9</ele>
      </trkpt>
      <trkpt lat="44.7662" lon="6.94776">
        <ele>1773.7</ele>
      </trkpt>
      <trkpt lat="44.76618" lon="6.94779">
        <ele>1775.2</ele>
      </trkpt>
      <trkpt lat="44.76615" lon="6.9478">
        <ele>1776.1</ele>
      </trkpt>
      <trkpt lat="44.76613" lon="6.94778">
        <ele>1776.3</ele>
      </trkpt>
      <trkpt lat="44.76609" lon="6.94772">
        <ele>1776.3</ele>
      </trkpt>
      <trkpt lat="44.76598" lon="6.94752">
        <ele>1775.5</ele>
      </trkpt>
      <trkpt lat="44.76558" lon="6.94687">
        <ele>1778.1</ele>
      </trkpt>
      <trkpt lat="44.76537" lon="6.94668">
        <ele>1783.4</ele>
      </trkpt>
      <trkpt lat="44.76473" lon="6.94612">
        <ele>1798.1</ele>
      </trkpt>
      <trkpt lat="44.76448" lon="6.94586">
        <ele>1803.7</ele>
      </trkpt>
      <trkpt lat="44.76414" lon="6.94551">
        <ele>1811.3</ele>
      </trkpt>
      <trkpt lat="44.76388" lon="6.94532">
        <ele>1814</ele>
      </trkpt>
      <trkpt lat="44.76366" lon="6.94517">
        <ele>1815.3</ele>
      </trkpt>
      <trkpt lat="44.76347" lon="6.94504">
        <ele>1815.6</ele>
      </trkpt>
      <trkpt lat="44.76335" lon="6.94495">
        <ele>1816.5</ele>
      </trkpt>
      <trkpt lat="44.76317" lon="6.94484">
        <ele>1818.4</ele>
      </trkpt>
      <trkpt lat="44.76311" lon="6.94476">
        <ele>1817.3</ele>
      </trkpt>
      <trkpt lat="44.76302" lon="6.94459">
        <ele>1814.2</ele>
      </trkpt>
      <trkpt lat="44.76292" lon="6.94442">
        <ele>1811.5</ele>
      </trkpt>
      <trkpt lat="44.76284" lon="6.94433">
        <ele>1811.1</ele>
      </trkpt>
      <trkpt lat="44.76276" lon="6.94428">
        <ele>1812.4</ele>
      </trkpt>
      <trkpt lat="44.76262" lon="6.94421">
        <ele>1815.8</ele>
      </trkpt>
      <trkpt lat="44.76215" lon="6.944">
        <ele>1828.9</ele>
      </trkpt>
      <trkpt lat="44.76207" lon="6.94393">
        <ele>1830.3</ele>
      </trkpt>
      <trkpt lat="44.76191" lon="6.94375">
        <ele>1832.9</ele>
      </trkpt>
      <trkpt lat="44.76163" lon="6.94347">
        <ele>1837.8</ele>
      </trkpt>
      <trkpt lat="44.76149" lon="6.94337">
        <ele>1841.5</ele>
      </trkpt>
      <trkpt lat="44.76118" lon="6.94314">
        <ele>1849.3</ele>
      </trkpt>
      <trkpt lat="44.7608" lon="6.94278">
        <ele>1855.6</ele>
      </trkpt>
      <trkpt lat="44.76035" lon="6.94242">
        <ele>1864</ele>
      </trkpt>
      <trkpt lat="44.75966" lon="6.94179">
        <ele>1870.1</ele>
      </trkpt>
      <trkpt lat="44.75948" lon="6.94158">
        <ele>1869.5</ele>
      </trkpt>
      <trkpt lat="44.75931" lon="6.94142">
        <ele>1870.4</ele>
      </trkpt>
      <trkpt lat="44.75908" lon="6.94124">
        <ele>1872.3</ele>
      </trkpt>
      <trkpt lat="44.75899" lon="6.94119">
        <ele>1873.6</ele>
      </trkpt>
      <trkpt lat="44.75888" lon="6.94116">
        <ele>1876.4</ele>
      </trkpt>
      <trkpt lat="44.75877" lon="6.94116">
        <ele>1879.9</ele>
      </trkpt>
      <trkpt lat="44.75859" lon="6.94118">
        <ele>1886.5</ele>
      </trkpt>
      <trkpt lat="44.7584" lon="6.94119">
        <ele>1892.7</ele>
      </trkpt>
      <trkpt lat="44.75819" lon="6.94117">
        <ele>1897.2</ele>
      </trkpt>
      <trkpt lat="44.7581" lon="6.94114">
        <ele>1898.1</ele>
      </trkpt>
      <trkpt lat="44.75799" lon="6.94108">
        <ele>1898.5</ele>
      </trkpt>
      <trkpt lat="44.75772" lon="6.94092">
        <ele>1900.4</ele>
      </trkpt>
      <trkpt lat="44.75759" lon="6.94085">
        <ele>1902.3</ele>
      </trkpt>
      <trkpt lat="44.7575" lon="6.94076">
        <ele>1902.3</ele>
      </trkpt>
      <trkpt lat="44.75746" lon="6.94068">
        <ele>1901.6</ele>
      </trkpt>
      <trkpt lat="44.75733" lon="6.94046">
        <ele>1900.3</ele>
      </trkpt>
      <trkpt lat="44.75722" lon="6.94035">
        <ele>1902.2</ele>
      </trkpt>
      <trkpt lat="44.75711" lon="6.94026">
        <ele>1904</ele>
      </trkpt>
      <trkpt lat="44.75697" lon="6.94018">
        <ele>1906.9</ele>
      </trkpt>
      <trkpt lat="44.7566" lon="6.94">
        <ele>1912.8</ele>
      </trkpt>
      <trkpt lat="44.75638" lon="6.93988">
        <ele>1913.7</ele>
      </trkpt>
      <trkpt lat="44.75612" lon="6.93975">
        <ele>1914.9</ele>
      </trkpt>
      <trkpt lat="44.756" lon="6.93972">
        <ele>1916.1</ele>
      </trkpt>
      <trkpt lat="44.75571" lon="6.93968">
        <ele>1917.1</ele>
      </trkpt>
      <trkpt lat="44.75549" lon="6.93968">
        <ele>1917.6</ele>
      </trkpt>
      <trkpt lat="44.75532" lon="6.93971">
        <ele>1918.4</ele>
      </trkpt>
      <trkpt lat="44.75501" lon="6.93975">
        <ele>1921.3</ele>
      </trkpt>
      <trkpt lat="44.75486" lon="6.93971">
        <ele>1920.6</ele>
      </trkpt>
      <trkpt lat="44.75472" lon="6.93967">
        <ele>1920.3</ele>
      </trkpt>
      <trkpt lat="44.75446" lon="6.93962">
        <ele>1922.1</ele>
      </trkpt>
      <trkpt lat="44.75437" lon="6.93955">
        <ele>1920.7</ele>
      </trkpt>
      <trkpt lat="44.75426" lon="6.93947">
        <ele>1919.3</ele>
      </trkpt>
      <trkpt lat="44.75403" lon="6.93934">
        <ele>1917.8</ele>
      </trkpt>
      <trkpt lat="44.75387" lon="6.93924">
        <ele>1916.3</ele>
      </trkpt>
      <trkpt lat="44.75373" lon="6.93918">
        <ele>1915.6</ele>
      </trkpt>
      <trkpt lat="44.75369" lon="6.93918">
        <ele>1916.6</ele>
      </trkpt>
      <trkpt lat="44.75355" lon="6.93923">
        <ele>1920.5</ele>
      </trkpt>
      <trkpt lat="44.75344" lon="6.93925">
        <ele>1922.9</ele>
      </trkpt>
      <trkpt lat="44.75334" lon="6.93925">
        <ele>1924.2</ele>
      </trkpt>
      <trkpt lat="44.75311" lon="6.93923">
        <ele>1925.9</ele>
      </trkpt>
      <trkpt lat="44.75292" lon="6.9392">
        <ele>1927.1</ele>
      </trkpt>
      <trkpt lat="44.75283" lon="6.93922">
        <ele>1928.8</ele>
      </trkpt>
      <trkpt lat="44.75277" lon="6.93926">
        <ele>1931</ele>
      </trkpt>
      <trkpt lat="44.75242" lon="6.93949">
        <ele>1940.9</ele>
      </trkpt>
      <trkpt lat="44.75206" lon="6.93967">
        <ele>1943.5</ele>
      </trkpt>
      <trkpt lat="44.75201" lon="6.93972">
        <ele>1944.9</ele>
      </trkpt>
      <trkpt lat="44.752" lon="6.93979">
        <ele>1946.9</ele>
      </trkpt>
      <trkpt lat="44.752" lon="6.93994">
        <ele>1952.1</ele>
      </trkpt>
      <trkpt lat="44.75201" lon="6.94053">
        <ele>1967.8</ele>
      </trkpt>
      <trkpt lat="44.75199" lon="6.94065">
        <ele>1971.3</ele>
      </trkpt>
      <trkpt lat="44.75197" lon="6.94067">
        <ele>1971.8</ele>
      </trkpt>
      <trkpt lat="44.75195" lon="6.94068">
        <ele>1971.5</ele>
      </trkpt>
      <trkpt lat="44.75191" lon="6.94067">
        <ele>1971.1</ele>
      </trkpt>
      <trkpt lat="44.75184" lon="6.94062">
        <ele>1969.8</ele>
      </trkpt>
      <trkpt lat="44.7516" lon="6.94048">
        <ele>1966.2</ele>
      </trkpt>
      <trkpt lat="44.75149" lon="6.94049">
        <ele>1967.9</ele>
      </trkpt>
      <trkpt lat="44.75107" lon="6.94053">
        <ele>1974.3</ele>
      </trkpt>
      <trkpt lat="44.75079" lon="6.94058">
        <ele>1978.5</ele>
      </trkpt>
      <trkpt lat="44.75062" lon="6.94064">
        <ele>1981.4</ele>
      </trkpt>
      <trkpt lat="44.75039" lon="6.94073">
        <ele>1986.3</ele>
      </trkpt>
      <trkpt lat="44.75025" lon="6.94077">
        <ele>1988.6</ele>
      </trkpt>
      <trkpt lat="44.75002" lon="6.94079">
        <ele>1992.1</ele>
      </trkpt>
      <trkpt lat="44.74985" lon="6.94079">
        <ele>1994.7</ele>
      </trkpt>
      <trkpt lat="44.74948" lon="6.94075">
        <ele>2000.2</ele>
      </trkpt>
      <trkpt lat="44.74931" lon="6.94071">
        <ele>2001.9</ele>
      </trkpt>
      <trkpt lat="44.74916" lon="6.94065">
        <ele>2002.4</ele>
      </trkpt>
      <trkpt lat="44.74892" lon="6.94054">
        <ele>2004.8</ele>
      </trkpt>
      <trkpt lat="44.74869" lon="6.94049">
        <ele>2009.3</ele>
      </trkpt>
      <trkpt lat="44.74832" lon="6.94042">
        <ele>2015.4</ele>
      </trkpt>
      <trkpt lat="44.74802" lon="6.9404">
        <ele>2019.1</ele>
      </trkpt>
      <trkpt lat="44.74777" lon="6.94042">
        <ele>2022.1</ele>
      </trkpt>
      <trkpt lat="44.74765" lon="6.94046">
        <ele>2024.4</ele>
      </trkpt>
      <trkpt lat="44.74752" lon="6.94054">
        <ele>2027.5</ele>
      </trkpt>
      <trkpt lat="44.7473" lon="6.94064">
        <ele>2031.9</ele>
      </trkpt>
      <trkpt lat="44.74728" lon="6.94062">
        <ele>2031.6</ele>
      </trkpt>
      <trkpt lat="44.74722" lon="6.94052">
        <ele>2030.3</ele>
      </trkpt>
      <trkpt lat="44.74714" lon="6.94043">
        <ele>2028.8</ele>
      </trkpt>
      <trkpt lat="44.74707" lon="6.9404">
        <ele>2028.6</ele>
      </trkpt>
      <trkpt lat="44.74698" lon="6.94041">
        <ele>2029.5</ele>
      </trkpt>
      <trkpt lat="44.74554" lon="6.94072">
        <ele>2039.2</ele>
      </trkpt>
      <trkpt lat="44.74435" lon="6.94099">
        <ele>2041.9</ele>
      </trkpt>
      <trkpt lat="44.74364" lon="6.94118">
        <ele>2053.9</ele>
      </trkpt>
      <trkpt lat="44.74283" lon="6.94143">
        <ele>2092.1</ele>
      </trkpt>
      <trkpt lat="44.74195" lon="6.94174">
        <ele>2132.2</ele>
      </trkpt>
      <trkpt lat="44.73998" lon="6.94244">
        <ele>2156.5</ele>
      </trkpt>
      <trkpt lat="44.73841" lon="6.94307">
        <ele>2174.5</ele>
      </trkpt>
      <trkpt lat="44.73733" lon="6.94354">
        <ele>2186.7</ele>
      </trkpt>
      <trkpt lat="44.73638" lon="6.94398">
        <ele>2188.4</ele>
      </trkpt>
      <trkpt lat="44.73622" lon="6.94408">
        <ele>2187.1</ele>
      </trkpt>
      <trkpt lat="44.7358" lon="6.94435">
        <ele>2188.6</ele>
      </trkpt>
      <trkpt lat="44.73525" lon="6.94476">
        <ele>2195.2</ele>
      </trkpt>
      <trkpt lat="44.73481" lon="6.9451">
        <ele>2205.2</ele>
      </trkpt>
      <trkpt lat="44.73451" lon="6.94534">
        <ele>2211.6</ele>
      </trkpt>
      <trkpt lat="44.73451" lon="6.94534">
        <ele>2211.6</ele>
      </trkpt>
      <trkpt lat="44.73313" lon="6.94658">
        <ele>2228.8</ele>
      </trkpt>
      <trkpt lat="44.73246" lon="6.94721">
        <ele>2224.5</ele>
      </trkpt>
      <trkpt lat="44.73159" lon="6.94806">
        <ele>2224.3</ele>
      </trkpt>
      <trkpt lat="44.731" lon="6.94867">
        <ele>2233.2</ele>
      </trkpt>
      <trkpt lat="44.731" lon="6.94867">
        <ele>2233.2</ele>
      </trkpt>
      <trkpt lat="44.72954" lon="6.95016">
        <ele>2259.4</ele>
      </trkpt>
      <trkpt lat="44.7281" lon="6.9516">
        <ele>2286.7</ele>
      </trkpt>
      <trkpt lat="44.72693" lon="6.95277">
        <ele>2316.6</ele>
      </trkpt>
      <trkpt lat="44.72636" lon="6.95335">
        <ele>2337.9</ele>
      </trkpt>
      <trkpt lat="44.72636" lon="6.95335">
        <ele>2337.9</ele>
      </trkpt>
      <trkpt lat="44.72598" lon="6.95378">
        <ele>2353.6</ele>
      </trkpt>
      <trkpt lat="44.72565" lon="6.95419">
        <ele>2365.8</ele>
      </trkpt>
      <trkpt lat="44.7254" lon="6.95456">
        <ele>2374.3</ele>
      </trkpt>
      <trkpt lat="44.72509" lon="6.95503">
        <ele>2382.7</ele>
      </trkpt>
      <trkpt lat="44.72497" lon="6.95524">
        <ele>2384.6</ele>
      </trkpt>
      <trkpt lat="44.72477" lon="6.95567">
        <ele>2392.6</ele>
      </trkpt>
      <trkpt lat="44.72454" lon="6.95617">
        <ele>2400.1</ele>
      </trkpt>
      <trkpt lat="44.72437" lon="6.9566">
        <ele>2403.9</ele>
      </trkpt>
      <trkpt lat="44.72416" lon="6.95721">
        <ele>2408.2</ele>
      </trkpt>
      <trkpt lat="44.72388" lon="6.95808">
        <ele>2417.5</ele>
      </trkpt>
      <trkpt lat="44.72379" lon="6.95836">
        <ele>2421.4</ele>
      </trkpt>
      <trkpt lat="44.72379" lon="6.95836">
        <ele>2421.4</ele>
      </trkpt>
      <trkpt lat="44.72363" lon="6.95875">
        <ele>2427.4</ele>
      </trkpt>
      <trkpt lat="44.72348" lon="6.95904">
        <ele>2433.6</ele>
      </trkpt>
      <trkpt lat="44.72329" lon="6.95936">
        <ele>2441.7</ele>
      </trkpt>
      <trkpt lat="44.72311" lon="6.95961">
        <ele>2448.4</ele>
      </trkpt>
      <trkpt lat="44.72298" lon="6.95972">
        <ele>2453.3</ele>
      </trkpt>
      <trkpt lat="44.72278" lon="6.95986">
        <ele>2463.2</ele>
      </trkpt>
      <trkpt lat="44.72256" lon="6.95997">
        <ele>2470.1</ele>
      </trkpt>
      <trkpt lat="44.72217" lon="6.96015">
        <ele>2481.2</ele>
      </trkpt>
      <trkpt lat="44.72193" lon="6.96023">
        <ele>2488.3</ele>
      </trkpt>
      <trkpt lat="44.72153" lon="6.96034">
        <ele>2506.2</ele>
      </trkpt>
      <trkpt lat="44.72092" lon="6.96047">
        <ele>2534.3</ele>
      </trkpt>
      <trkpt lat="44.7205" lon="6.96054">
        <ele>2548.8</ele>
      </trkpt>
      <trkpt lat="44.7205" lon="6.96054">
        <ele>2548.8</ele>
      </trkpt>
      <trkpt lat="44.71977" lon="6.96064">
        <ele>2561.4</ele>
      </trkpt>
      <trkpt lat="44.71891" lon="6.96073">
        <ele>2588.3</ele>
      </trkpt>
      <trkpt lat="44.71868" lon="6.96074">
        <ele>2596.7</ele>
      </trkpt>
      <trkpt lat="44.71868" lon="6.96074">
        <ele>2596.7</ele>
      </trkpt>
      <trkpt lat="44.7183" lon="6.9608">
        <ele>2609.7</ele>
      </trkpt>
      <trkpt lat="44.71797" lon="6.96089">
        <ele>2619.7</ele>
      </trkpt>
      <trkpt lat="44.71773" lon="6.96098">
        <ele>2627.1</ele>
      </trkpt>
      <trkpt lat="44.71735" lon="6.96115">
        <ele>2642.2</ele>
      </trkpt>
      <trkpt lat="44.71723" lon="6.96123">
        <ele>2648.1</ele>
      </trkpt>
      <trkpt lat="44.71704" lon="6.96138">
        <ele>2657.2</ele>
      </trkpt>
      <trkpt lat="44.71688" lon="6.96154">
        <ele>2664.8</ele>
      </trkpt>
      <trkpt lat="44.71655" lon="6.96191">
        <ele>2685.7</ele>
      </trkpt>
      <trkpt lat="44.71641" lon="6.96209">
        <ele>2694.5</ele>
      </trkpt>
      <trkpt lat="44.7163" lon="6.96229">
        <ele>2701.9</ele>
      </trkpt>
      <trkpt lat="44.71615" lon="6.96258">
        <ele>2711</ele>
      </trkpt>
      <trkpt lat="44.71603" lon="6.96289">
        <ele>2718.4</ele>
      </trkpt>
      <trkpt lat="44.71583" lon="6.96345">
        <ele>2732.2</ele>
      </trkpt>
      <trkpt lat="44.71576" lon="6.96368">
        <ele>2737</ele>
      </trkpt>
      <trkpt lat="44.7157" lon="6.96397">
        <ele>2742.2</ele>
      </trkpt>
      <trkpt lat="44.71565" lon="6.96429">
        <ele>2747.8</ele>
      </trkpt>
      <trkpt lat="44.71562" lon="6.96464">
        <ele>2755.1</ele>
      </trkpt>
      <trkpt lat="44.71557" lon="6.96532">
        <ele>2766.6</ele>
      </trkpt>
      <trkpt lat="44.71556" lon="6.96553">
        <ele>2767.7</ele>
      </trkpt>
      <trkpt lat="44.71554" lon="6.96659">
        <ele>2798.6</ele>
      </trkpt>
      <trkpt lat="44.71552" lon="6.96689">
        <ele>2807.5</ele>
      </trkpt>
      <trkpt lat="44.7155" lon="6.96707">
        <ele>2811.8</ele>
      </trkpt>
      <trkpt lat="44.71546" lon="6.96724">
        <ele>2814.7</ele>
      </trkpt>
      <trkpt lat="44.7154" lon="6.96736">
        <ele>2814.4</ele>
      </trkpt>
      <trkpt lat="44.71536" lon="6.96742">
        <ele>2813.1</ele>
      </trkpt>
      <trkpt lat="44.71534" lon="6.96744">
        <ele>2812.7</ele>
      </trkpt>
      <trkpt lat="44.71534" lon="6.96744">
        <ele>2812.7</ele>
      </trkpt>
      <trkpt lat="44.71476" lon="6.96793">
        <ele>2770.6</ele>
      </trkpt>
      <trkpt lat="44.71447" lon="6.96815">
        <ele>2753.6</ele>
      </trkpt>
      <trkpt lat="44.71412" lon="6.96838">
        <ele>2741.4</ele>
      </trkpt>
      <trkpt lat="44.71396" lon="6.96844">
        <ele>2738.6</ele>
      </trkpt>
      <trkpt lat="44.71378" lon="6.96848">
        <ele>2736.1</ele>
      </trkpt>
      <trkpt lat="44.71349" lon="6.96852">
        <ele>2734.1</ele>
      </trkpt>
      <trkpt lat="44.71335" lon="6.9685">
        <ele>2735.3</ele>
      </trkpt>
      <trkpt lat="44.7132" lon="6.96845">
        <ele>2740.6</ele>
      </trkpt>
      <trkpt lat="44.71304" lon="6.96836">
        <ele>2746.7</ele>
      </trkpt>
      <trkpt lat="44.71294" lon="6.96828">
        <ele>2752.6</ele>
      </trkpt>
      <trkpt lat="44.71282" lon="6.96812">
        <ele>2761.4</ele>
      </trkpt>
      <trkpt lat="44.71269" lon="6.96791">
        <ele>2770.4</ele>
      </trkpt>
      <trkpt lat="44.71255" lon="6.96767">
        <ele>2781.1</ele>
      </trkpt>
      <trkpt lat="44.71249" lon="6.96758">
        <ele>2786.3</ele>
      </trkpt>
      <trkpt lat="44.71249" lon="6.96758">
        <ele>2786.3</ele>
      </trkpt>
      <trkpt lat="44.71229" lon="6.96728">
        <ele>2801.2</ele>
      </trkpt>
      <trkpt lat="44.71209" lon="6.96704">
        <ele>2817.9</ele>
      </trkpt>
      <trkpt lat="44.71192" lon="6.96688">
        <ele>2831.2</ele>
      </trkpt>
      <trkpt lat="44.7117" lon="6.96673">
        <ele>2842.6</ele>
      </trkpt>
      <trkpt lat="44.71144" lon="6.96658">
        <ele>2854.7</ele>
      </trkpt>
      <trkpt lat="44.71124" lon="6.9665">
        <ele>2865.5</ele>
      </trkpt>
      <trkpt lat="44.71119" lon="6.9665">
        <ele>2868.4</ele>
      </trkpt>
      <trkpt lat="44.71106" lon="6.96653">
        <ele>2874.6</ele>
      </trkpt>
      <trkpt lat="44.71096" lon="6.96657">
        <ele>2880.2</ele>
      </trkpt>
      <trkpt lat="44.7108" lon="6.96666">
        <ele>2890.3</ele>
      </trkpt>
      <trkpt lat="44.7107" lon="6.96674">
        <ele>2898.1</ele>
      </trkpt>
      <trkpt lat="44.71051" lon="6.96694">
        <ele>2915.1</ele>
      </trkpt>
      <trkpt lat="44.71023" lon="6.96726">
        <ele>2943.6</ele>
      </trkpt>
      <trkpt lat="44.71" lon="6.96755">
        <ele>2967.2</ele>
      </trkpt>
      <trkpt lat="44.70977" lon="6.96786">
        <ele>2989.8</ele>
      </trkpt>
      <trkpt lat="44.70956" lon="6.96813">
        <ele>3003.8</ele>
      </trkpt>
      <trkpt lat="44.70942" lon="6.96827">
        <ele>3009.4</ele>
      </trkpt>
      <trkpt lat="44.70923" lon="6.96845">
        <ele>3013.1</ele>
      </trkpt>
      <trkpt lat="44.70891" lon="6.96872">
        <ele>3020.2</ele>
      </trkpt>
      <trkpt lat="44.70872" lon="6.96887">
        <ele>3026.9</ele>
      </trkpt>
      <trkpt lat="44.70843" lon="6.96901">
        <ele>3036</ele>
      </trkpt>
      <trkpt lat="44.70821" lon="6.9691">
        <ele>3039.7</ele>
      </trkpt>
      <trkpt lat="44.70789" lon="6.96919">
        <ele>3044.3</ele>
      </trkpt>
      <trkpt lat="44.70773" lon="6.96921">
        <ele>3046.8</ele>
      </trkpt>
      <trkpt lat="44.70751" lon="6.96921">
        <ele>3053.6</ele>
      </trkpt>
      <trkpt lat="44.70723" lon="6.96916">
        <ele>3062.9</ele>
      </trkpt>
      <trkpt lat="44.70698" lon="6.96911">
        <ele>3063.2</ele>
      </trkpt>
      <trkpt lat="44.70681" lon="6.96907">
        <ele>3061.1</ele>
      </trkpt>
    </trkseg>
  </trk>
  <trk>
    <name><![CDATA[Collette de Gilly]]></name>
    <extensions>
      <line xmlns="http://www.topografix.com/GPX/gpx_style/0/2">
        <color>880000</color>
        <width>4</width>
          <extensions>
            <sens>1</sens>
          </extensions>
      </line>
    </extensions>
    <trkseg>
      <trkpt lat="44.81249" lon="6.95642">
        <ele>1802.6</ele>
        <time>2023-03-10T09:24:57Z</time>
      </trkpt>
      <trkpt lat="44.81268" lon="6.95738">
        <ele>1815.5</ele>
        <time>2023-03-10T09:26:08Z</time>
      </trkpt>
      <trkpt lat="44.8126" lon="6.95756">
        <ele>1812.5</ele>
        <time>2023-03-10T09:26:21Z</time>
      </trkpt>
      <trkpt lat="44.81258" lon="6.95767">
        <ele>1812.4</ele>
        <time>2023-03-10T09:26:29Z</time>
      </trkpt>
      <trkpt lat="44.81258" lon="6.958">
        <ele>1815.7</ele>
        <time>2023-03-10T09:26:56Z</time>
      </trkpt>
      <trkpt lat="44.81256" lon="6.95809">
        <ele>1815.6</ele>
        <time>2023-03-10T09:27:08Z</time>
      </trkpt>
      <trkpt lat="44.81263" lon="6.95815">
        <ele>1819.9</ele>
        <time>2023-03-10T09:31:05Z</time>
      </trkpt>
      <trkpt lat="44.81257" lon="6.95827">
        <ele>1817.9</ele>
        <time>2023-03-10T09:31:13Z</time>
      </trkpt>
      <trkpt lat="44.81245" lon="6.95887">
        <ele>1819.4</ele>
        <time>2023-03-10T09:32:03Z</time>
      </trkpt>
      <trkpt lat="44.8124" lon="6.95907">
        <ele>1820.2</ele>
        <time>2023-03-10T09:32:16Z</time>
      </trkpt>
      <trkpt lat="44.81183" lon="6.96086">
        <ele>1836.4</ele>
        <time>2023-03-10T09:35:13Z</time>
      </trkpt>
      <trkpt lat="44.81184" lon="6.96106">
        <ele>1836.8</ele>
        <time>2023-03-10T09:35:29Z</time>
      </trkpt>
      <trkpt lat="44.81199" lon="6.96176">
        <ele>1842.2</ele>
        <time>2023-03-10T09:36:31Z</time>
      </trkpt>
      <trkpt lat="44.81186" lon="6.9621">
        <ele>1841.8</ele>
        <time>2023-03-10T09:37:01Z</time>
      </trkpt>
      <trkpt lat="44.81161" lon="6.96292">
        <ele>1844</ele>
        <time>2023-03-10T09:38:11Z</time>
      </trkpt>
      <trkpt lat="44.81157" lon="6.96347">
        <ele>1846</ele>
        <time>2023-03-10T09:39:11Z</time>
      </trkpt>
      <trkpt lat="44.81174" lon="6.9656">
        <ele>1848.8</ele>
        <time>2023-03-10T09:41:46Z</time>
      </trkpt>
      <trkpt lat="44.81189" lon="6.96645">
        <ele>1850</ele>
        <time>2023-03-10T09:42:56Z</time>
      </trkpt>
      <trkpt lat="44.81202" lon="6.9671">
        <ele>1851.3</ele>
        <time>2023-03-10T09:44:07Z</time>
      </trkpt>
      <trkpt lat="44.81198" lon="6.9672">
        <ele>1850.6</ele>
        <time>2023-03-10T09:44:41Z</time>
      </trkpt>
      <trkpt lat="44.81177" lon="6.96726">
        <ele>1849.5</ele>
        <time>2023-03-10T09:45:00Z</time>
      </trkpt>
      <trkpt lat="44.81137" lon="6.96838">
        <ele>1856.3</ele>
        <time>2023-03-10T09:49:13Z</time>
      </trkpt>
      <trkpt lat="44.81088" lon="6.96836">
        <ele>1862.4</ele>
        <time>2023-03-10T09:50:35Z</time>
      </trkpt>
      <trkpt lat="44.81081" lon="6.96834">
        <ele>1863.1</ele>
        <time>2023-03-10T09:50:47Z</time>
      </trkpt>
      <trkpt lat="44.81048" lon="6.96862">
        <ele>1864.8</ele>
        <time>2023-03-10T09:51:52Z</time>
      </trkpt>
      <trkpt lat="44.81024" lon="6.96881">
        <ele>1867.4</ele>
        <time>2023-03-10T09:52:32Z</time>
      </trkpt>
      <trkpt lat="44.81004" lon="6.96899">
        <ele>1869.6</ele>
        <time>2023-03-10T09:53:12Z</time>
      </trkpt>
      <trkpt lat="44.80982" lon="6.96915">
        <ele>1873.2</ele>
        <time>2023-03-10T09:54:14Z</time>
      </trkpt>
      <trkpt lat="44.80948" lon="6.96883">
        <ele>1881.8</ele>
        <time>2023-03-10T09:56:17Z</time>
      </trkpt>
      <trkpt lat="44.80946" lon="6.96877">
        <ele>1882.4</ele>
        <time>2023-03-10T09:56:36Z</time>
      </trkpt>
      <trkpt lat="44.8092" lon="6.9686">
        <ele>1893.5</ele>
        <time>2023-03-10T09:57:53Z</time>
      </trkpt>
      <trkpt lat="44.80883" lon="6.96862">
        <ele>1908.7</ele>
        <time>2023-03-10T10:00:02Z</time>
      </trkpt>
      <trkpt lat="44.80872" lon="6.96873">
        <ele>1915</ele>
        <time>2023-03-10T10:00:30Z</time>
      </trkpt>
      <trkpt lat="44.80858" lon="6.96861">
        <ele>1919.3</ele>
        <time>2023-03-10T10:01:12Z</time>
      </trkpt>
      <trkpt lat="44.80856" lon="6.96876">
        <ele>1922.4</ele>
        <time>2023-03-10T10:01:50Z</time>
      </trkpt>
      <trkpt lat="44.80849" lon="6.96868">
        <ele>1924.2</ele>
        <time>2023-03-10T10:02:17Z</time>
      </trkpt>
      <trkpt lat="44.80844" lon="6.9687">
        <ele>1926.7</ele>
        <time>2023-03-10T10:02:40Z</time>
      </trkpt>
      <trkpt lat="44.80832" lon="6.96893">
        <ele>1935.1</ele>
        <time>2023-03-10T10:03:37Z</time>
      </trkpt>
      <trkpt lat="44.80824" lon="6.96889">
        <ele>1937.4</ele>
        <time>2023-03-10T10:03:50Z</time>
      </trkpt>
      <trkpt lat="44.80806" lon="6.96888">
        <ele>1943.7</ele>
        <time>2023-03-10T10:04:47Z</time>
      </trkpt>
      <trkpt lat="44.80724" lon="6.96925">
        <ele>1973.2</ele>
        <time>2023-03-10T10:09:21Z</time>
      </trkpt>
      <trkpt lat="44.80717" lon="6.96932">
        <ele>1974.8</ele>
        <time>2023-03-10T10:09:44Z</time>
      </trkpt>
      <trkpt lat="44.80703" lon="6.96937">
        <ele>1978.3</ele>
        <time>2023-03-10T10:10:10Z</time>
      </trkpt>
      <trkpt lat="44.8069" lon="6.9694">
        <ele>1981.5</ele>
        <time>2023-03-10T10:10:48Z</time>
      </trkpt>
      <trkpt lat="44.80673" lon="6.96945">
        <ele>1985.3</ele>
        <time>2023-03-10T10:15:15Z</time>
      </trkpt>
      <trkpt lat="44.80573" lon="6.96975">
        <ele>2009.1</ele>
        <time>2023-03-10T10:18:33Z</time>
      </trkpt>
      <trkpt lat="44.80519" lon="6.96923">
        <ele>2032.3</ele>
        <time>2023-03-10T10:21:28Z</time>
      </trkpt>
      <trkpt lat="44.80514" lon="6.96923">
        <ele>2033.2</ele>
        <time>2023-03-10T10:21:38Z</time>
      </trkpt>
      <trkpt lat="44.80473" lon="6.96861">
        <ele>2053.9</ele>
        <time>2023-03-10T10:23:49Z</time>
      </trkpt>
      <trkpt lat="44.8044" lon="6.96853">
        <ele>2063.7</ele>
        <time>2023-03-10T10:25:25Z</time>
      </trkpt>
      <trkpt lat="44.80431" lon="6.96831">
        <ele>2070.5</ele>
        <time>2023-03-10T10:25:56Z</time>
      </trkpt>
      <trkpt lat="44.80297" lon="6.96775">
        <ele>2106.3</ele>
        <time>2023-03-10T10:31:03Z</time>
      </trkpt>
      <trkpt lat="44.80274" lon="6.96749">
        <ele>2115.2</ele>
        <time>2023-03-10T10:32:10Z</time>
      </trkpt>
      <trkpt lat="44.80261" lon="6.96741">
        <ele>2120</ele>
        <time>2023-03-10T10:32:45Z</time>
      </trkpt>
      <trkpt lat="44.80251" lon="6.96727">
        <ele>2124.9</ele>
        <time>2023-03-10T10:33:13Z</time>
      </trkpt>
      <trkpt lat="44.80229" lon="6.9673">
        <ele>2129.6</ele>
        <time>2023-03-10T10:34:09Z</time>
      </trkpt>
      <trkpt lat="44.80194" lon="6.96724">
        <ele>2142</ele>
        <time>2023-03-10T10:35:46Z</time>
      </trkpt>
      <trkpt lat="44.80175" lon="6.9672">
        <ele>2148.3</ele>
        <time>2023-03-10T10:36:53Z</time>
      </trkpt>
      <trkpt lat="44.80149" lon="6.96689">
        <ele>2156</ele>
        <time>2023-03-10T10:37:52Z</time>
      </trkpt>
      <trkpt lat="44.80085" lon="6.96648">
        <ele>2169.4</ele>
        <time>2023-03-10T10:40:04Z</time>
      </trkpt>
      <trkpt lat="44.80021" lon="6.9668">
        <ele>2186.3</ele>
        <time>2023-03-10T10:42:33Z</time>
      </trkpt>
      <trkpt lat="44.79956" lon="6.96687">
        <ele>2207.5</ele>
        <time>2023-03-10T10:52:49Z</time>
      </trkpt>
      <trkpt lat="44.79908" lon="6.96675">
        <ele>2224.9</ele>
        <time>2023-03-10T10:54:53Z</time>
      </trkpt>
      <trkpt lat="44.79863" lon="6.96636">
        <ele>2237.5</ele>
        <time>2023-03-10T10:57:50Z</time>
      </trkpt>
      <trkpt lat="44.79846" lon="6.96621">
        <ele>2244.2</ele>
        <time>2023-03-10T10:58:56Z</time>
      </trkpt>
      <trkpt lat="44.79796" lon="6.96606">
        <ele>2253.8</ele>
        <time>2023-03-10T11:00:36Z</time>
      </trkpt>
      <trkpt lat="44.79789" lon="6.96598">
        <ele>2254.3</ele>
        <time>2023-03-10T11:00:54Z</time>
      </trkpt>
      <trkpt lat="44.79786" lon="6.96594">
        <ele>2254.5</ele>
        <time>2023-03-10T11:01:01Z</time>
      </trkpt>
      <trkpt lat="44.79783" lon="6.96589">
        <ele>2254.6</ele>
        <time>2023-03-10T11:01:11Z</time>
      </trkpt>
      <trkpt lat="44.79782" lon="6.96585">
        <ele>2254.6</ele>
        <time>2023-03-10T11:01:43Z</time>
      </trkpt>
      <trkpt lat="44.79759" lon="6.96502">
        <ele>2258.9</ele>
        <time>2023-03-10T11:03:32Z</time>
      </trkpt>
      <trkpt lat="44.7975" lon="6.96462">
        <ele>2264.5</ele>
        <time>2023-03-10T11:04:26Z</time>
      </trkpt>
      <trkpt lat="44.79749" lon="6.96313">
        <ele>2294.4</ele>
        <time>2023-03-10T11:09:08Z</time>
      </trkpt>
      <trkpt lat="44.79745" lon="6.96258">
        <ele>2306.5</ele>
        <time>2023-03-10T11:11:05Z</time>
      </trkpt>
      <trkpt lat="44.79746" lon="6.96245">
        <ele>2309.7</ele>
        <time>2023-03-10T11:11:29Z</time>
      </trkpt>
      <trkpt lat="44.79745" lon="6.96241">
        <ele>2310.9</ele>
        <time>2023-03-10T11:11:35Z</time>
      </trkpt>
      <trkpt lat="44.79753" lon="6.96229">
        <ele>2314.5</ele>
        <time>2023-03-10T11:12:13Z</time>
      </trkpt>
      <trkpt lat="44.79755" lon="6.96227">
        <ele>2314.9</ele>
        <time>2023-03-10T11:12:19Z</time>
      </trkpt>
      <trkpt lat="44.79761" lon="6.96205">
        <ele>2320.4</ele>
        <time>2023-03-10T11:13:05Z</time>
      </trkpt>
      <trkpt lat="44.79762" lon="6.96203">
        <ele>2320.8</ele>
        <time>2023-03-10T11:13:14Z</time>
      </trkpt>
      <trkpt lat="44.79752" lon="6.96157">
        <ele>2331.1</ele>
        <time>2023-03-10T11:15:41Z</time>
      </trkpt>
      <trkpt lat="44.7975" lon="6.96147">
        <ele>2333.2</ele>
        <time>2023-03-10T11:15:54Z</time>
      </trkpt>
      <trkpt lat="44.79727" lon="6.96112">
        <ele>2339.9</ele>
        <time>2023-03-10T11:18:06Z</time>
      </trkpt>
      <trkpt lat="44.79697" lon="6.96159">
        <ele>2337.5</ele>
        <time>2023-03-10T11:19:25Z</time>
      </trkpt>
      <trkpt lat="44.79679" lon="6.9617">
        <ele>2338.2</ele>
        <time>2023-03-10T11:36:18Z</time>
      </trkpt>
      <trkpt lat="44.79703" lon="6.96158">
        <ele>2336.3</ele>
        <time>2023-03-10T11:38:58Z</time>
      </trkpt>
      <trkpt lat="44.79707" lon="6.96153">
        <ele>2336.2</ele>
        <time>2023-03-10T11:39:37Z</time>
      </trkpt>
      <trkpt lat="44.79712" lon="6.96148">
        <ele>2336.1</ele>
        <time>2023-03-10T11:39:43Z</time>
      </trkpt>
      <trkpt lat="44.7973" lon="6.96133">
        <ele>2336.6</ele>
        <time>2023-03-10T11:40:41Z</time>
      </trkpt>
      <trkpt lat="44.79748" lon="6.96146">
        <ele>2333.5</ele>
        <time>2023-03-10T11:41:06Z</time>
      </trkpt>
      <trkpt lat="44.7975" lon="6.96155">
        <ele>2331.5</ele>
        <time>2023-03-10T11:41:11Z</time>
      </trkpt>
      <trkpt lat="44.79752" lon="6.96168">
        <ele>2328.7</ele>
        <time>2023-03-10T11:41:39Z</time>
      </trkpt>
      <trkpt lat="44.79754" lon="6.96175">
        <ele>2327.3</ele>
        <time>2023-03-10T11:41:44Z</time>
      </trkpt>
      <trkpt lat="44.79753" lon="6.96205">
        <ele>2321.1</ele>
        <time>2023-03-10T11:41:59Z</time>
      </trkpt>
      <trkpt lat="44.79752" lon="6.96224">
        <ele>2316.2</ele>
        <time>2023-03-10T11:42:07Z</time>
      </trkpt>
      <trkpt lat="44.79758" lon="6.96306">
        <ele>2295.9</ele>
        <time>2023-03-10T11:42:59Z</time>
      </trkpt>
      <trkpt lat="44.79756" lon="6.96335">
        <ele>2289.4</ele>
        <time>2023-03-10T11:43:09Z</time>
      </trkpt>
      <trkpt lat="44.7976" lon="6.96373">
        <ele>2279.4</ele>
        <time>2023-03-10T11:43:19Z</time>
      </trkpt>
      <trkpt lat="44.79749" lon="6.96446">
        <ele>2266.7</ele>
        <time>2023-03-10T11:44:24Z</time>
      </trkpt>
      <trkpt lat="44.79764" lon="6.96497">
        <ele>2258.9</ele>
        <time>2023-03-10T11:44:36Z</time>
      </trkpt>
      <trkpt lat="44.79756" lon="6.96553">
        <ele>2256.7</ele>
        <time>2023-03-10T11:44:38Z</time>
      </trkpt>
      <trkpt lat="44.79767" lon="6.96561">
        <ele>2255.9</ele>
        <time>2023-03-10T11:44:44Z</time>
      </trkpt>
      <trkpt lat="44.79831" lon="6.96586">
        <ele>2248.3</ele>
        <time>2023-03-10T11:45:33Z</time>
      </trkpt>
      <trkpt lat="44.79846" lon="6.96613">
        <ele>2244.3</ele>
        <time>2023-03-10T11:45:42Z</time>
      </trkpt>
      <trkpt lat="44.79857" lon="6.96621">
        <ele>2240.6</ele>
        <time>2023-03-10T11:46:07Z</time>
      </trkpt>
      <trkpt lat="44.7987" lon="6.96599">
        <ele>2236.8</ele>
        <time>2023-03-10T11:46:10Z</time>
      </trkpt>
      <trkpt lat="44.79873" lon="6.966">
        <ele>2235.6</ele>
        <time>2023-03-10T11:46:12Z</time>
      </trkpt>
      <trkpt lat="44.79879" lon="6.96633">
        <ele>2231.8</ele>
        <time>2023-03-10T11:46:14Z</time>
      </trkpt>
      <trkpt lat="44.79881" lon="6.96636">
        <ele>2231</ele>
        <time>2023-03-10T11:46:15Z</time>
      </trkpt>
      <trkpt lat="44.79906" lon="6.96655">
        <ele>2223</ele>
        <time>2023-03-10T11:46:24Z</time>
      </trkpt>
      <trkpt lat="44.80069" lon="6.96697">
        <ele>2176.3</ele>
        <time>2023-03-10T11:47:09Z</time>
      </trkpt>
      <trkpt lat="44.80074" lon="6.96635">
        <ele>2170.4</ele>
        <time>2023-03-10T11:47:11Z</time>
      </trkpt>
      <trkpt lat="44.80113" lon="6.9665">
        <ele>2164.5</ele>
        <time>2023-03-10T11:47:23Z</time>
      </trkpt>
      <trkpt lat="44.80128" lon="6.9666">
        <ele>2160.7</ele>
        <time>2023-03-10T11:47:52Z</time>
      </trkpt>
      <trkpt lat="44.80137" lon="6.96686">
        <ele>2159.2</ele>
        <time>2023-03-10T11:47:56Z</time>
      </trkpt>
      <trkpt lat="44.80141" lon="6.96692">
        <ele>2158.3</ele>
        <time>2023-03-10T11:47:59Z</time>
      </trkpt>
      <trkpt lat="44.80161" lon="6.96712">
        <ele>2152.6</ele>
        <time>2023-03-10T11:48:01Z</time>
      </trkpt>
      <trkpt lat="44.80193" lon="6.96713">
        <ele>2143.1</ele>
        <time>2023-03-10T11:48:12Z</time>
      </trkpt>
      <trkpt lat="44.80247" lon="6.9673">
        <ele>2125.3</ele>
        <time>2023-03-10T11:48:24Z</time>
      </trkpt>
      <trkpt lat="44.8025" lon="6.96732">
        <ele>2124.2</ele>
        <time>2023-03-10T11:48:25Z</time>
      </trkpt>
      <trkpt lat="44.80255" lon="6.96736">
        <ele>2122.4</ele>
        <time>2023-03-10T11:48:26Z</time>
      </trkpt>
      <trkpt lat="44.80264" lon="6.96737">
        <ele>2120</ele>
        <time>2023-03-10T11:48:28Z</time>
      </trkpt>
      <trkpt lat="44.80299" lon="6.9674">
        <ele>2112.3</ele>
        <time>2023-03-10T11:48:36Z</time>
      </trkpt>
      <trkpt lat="44.8032" lon="6.96748">
        <ele>2106.8</ele>
        <time>2023-03-10T11:48:40Z</time>
      </trkpt>
      <trkpt lat="44.8033" lon="6.96752">
        <ele>2104.2</ele>
        <time>2023-03-10T11:48:42Z</time>
      </trkpt>
      <trkpt lat="44.80355" lon="6.96763">
        <ele>2098.1</ele>
        <time>2023-03-10T11:48:47Z</time>
      </trkpt>
      <trkpt lat="44.80358" lon="6.96765">
        <ele>2097.2</ele>
        <time>2023-03-10T11:48:48Z</time>
      </trkpt>
      <trkpt lat="44.80384" lon="6.96766">
        <ele>2092.9</ele>
        <time>2023-03-10T11:50:51Z</time>
      </trkpt>
      <trkpt lat="44.804" lon="6.96792">
        <ele>2085.1</ele>
        <time>2023-03-10T11:50:57Z</time>
      </trkpt>
      <trkpt lat="44.80425" lon="6.96804">
        <ele>2078.2</ele>
        <time>2023-03-10T11:51:04Z</time>
      </trkpt>
      <trkpt lat="44.80427" lon="6.96832">
        <ele>2071.1</ele>
        <time>2023-03-10T11:51:06Z</time>
      </trkpt>
      <trkpt lat="44.80445" lon="6.96806">
        <ele>2074.7</ele>
        <time>2023-03-10T11:51:09Z</time>
      </trkpt>
      <trkpt lat="44.8045" lon="6.96808">
        <ele>2072.7</ele>
        <time>2023-03-10T11:51:11Z</time>
      </trkpt>
      <trkpt lat="44.80462" lon="6.96805">
        <ele>2070</ele>
        <time>2023-03-10T11:51:15Z</time>
      </trkpt>
      <trkpt lat="44.80464" lon="6.96864">
        <ele>2055.4</ele>
        <time>2023-03-10T11:51:16Z</time>
      </trkpt>
      <trkpt lat="44.80483" lon="6.96805">
        <ele>2064</ele>
        <time>2023-03-10T11:51:19Z</time>
      </trkpt>
      <trkpt lat="44.80489" lon="6.96889">
        <ele>2045</ele>
        <time>2023-03-10T11:51:22Z</time>
      </trkpt>
      <trkpt lat="44.80519" lon="6.96924">
        <ele>2032.1</ele>
        <time>2023-03-10T11:51:30Z</time>
      </trkpt>
      <trkpt lat="44.80608" lon="6.96959">
        <ele>2002.3</ele>
        <time>2023-03-10T11:51:52Z</time>
      </trkpt>
      <trkpt lat="44.80628" lon="6.96945">
        <ele>1998.4</ele>
        <time>2023-03-10T11:51:57Z</time>
      </trkpt>
      <trkpt lat="44.80658" lon="6.96939">
        <ele>1990.3</ele>
        <time>2023-03-10T11:52:04Z</time>
      </trkpt>
      <trkpt lat="44.80666" lon="6.96923">
        <ele>1990.3</ele>
        <time>2023-03-10T11:52:09Z</time>
      </trkpt>
      <trkpt lat="44.80741" lon="6.96915">
        <ele>1968.5</ele>
        <time>2023-03-10T11:54:08Z</time>
      </trkpt>
      <trkpt lat="44.80776" lon="6.96903">
        <ele>1956.1</ele>
        <time>2023-03-10T11:54:37Z</time>
      </trkpt>
      <trkpt lat="44.80785" lon="6.96898">
        <ele>1952.5</ele>
        <time>2023-03-10T11:54:39Z</time>
      </trkpt>
      <trkpt lat="44.80789" lon="6.96899">
        <ele>1951.2</ele>
        <time>2023-03-10T11:54:40Z</time>
      </trkpt>
      <trkpt lat="44.80792" lon="6.96897">
        <ele>1949.9</ele>
        <time>2023-03-10T11:54:41Z</time>
      </trkpt>
      <trkpt lat="44.80849" lon="6.96874">
        <ele>1925.1</ele>
        <time>2023-03-10T11:54:44Z</time>
      </trkpt>
      <trkpt lat="44.80856" lon="6.96876">
        <ele>1922.4</ele>
        <time>2023-03-10T11:55:11Z</time>
      </trkpt>
      <trkpt lat="44.80861" lon="6.96858">
        <ele>1917.7</ele>
        <time>2023-03-10T11:55:13Z</time>
      </trkpt>
      <trkpt lat="44.80864" lon="6.9685">
        <ele>1915.6</ele>
        <time>2023-03-10T11:55:16Z</time>
      </trkpt>
      <trkpt lat="44.80875" lon="6.96877">
        <ele>1914.3</ele>
        <time>2023-03-10T11:55:20Z</time>
      </trkpt>
      <trkpt lat="44.80883" lon="6.96879">
        <ele>1911.1</ele>
        <time>2023-03-10T11:55:44Z</time>
      </trkpt>
      <trkpt lat="44.80901" lon="6.96847">
        <ele>1899.9</ele>
        <time>2023-03-10T11:55:59Z</time>
      </trkpt>
      <trkpt lat="44.80903" lon="6.96889">
        <ele>1902.9</ele>
        <time>2023-03-10T11:56:19Z</time>
      </trkpt>
      <trkpt lat="44.80926" lon="6.96926">
        <ele>1894.1</ele>
        <time>2023-03-10T11:56:29Z</time>
      </trkpt>
      <trkpt lat="44.8098" lon="6.96941">
        <ele>1875.4</ele>
        <time>2023-03-10T11:56:37Z</time>
      </trkpt>
      <trkpt lat="44.80991" lon="6.96915">
        <ele>1871.6</ele>
        <time>2023-03-10T11:56:41Z</time>
      </trkpt>
      <trkpt lat="44.81002" lon="6.96897">
        <ele>1869.8</ele>
        <time>2023-03-10T11:56:46Z</time>
      </trkpt>
      <trkpt lat="44.81026" lon="6.96864">
        <ele>1867.1</ele>
        <time>2023-03-10T11:56:56Z</time>
      </trkpt>
      <trkpt lat="44.8106" lon="6.96839">
        <ele>1864.5</ele>
        <time>2023-03-10T11:57:10Z</time>
      </trkpt>
      <trkpt lat="44.81082" lon="6.96839">
        <ele>1862.9</ele>
        <time>2023-03-10T11:57:17Z</time>
      </trkpt>
      <trkpt lat="44.81106" lon="6.96842">
        <ele>1860.2</ele>
        <time>2023-03-10T11:57:22Z</time>
      </trkpt>
      <trkpt lat="44.81116" lon="6.96842">
        <ele>1859</ele>
        <time>2023-03-10T11:57:24Z</time>
      </trkpt>
      <trkpt lat="44.81155" lon="6.96803">
        <ele>1853.5</ele>
        <time>2023-03-10T11:57:35Z</time>
      </trkpt>
      <trkpt lat="44.81167" lon="6.96727">
        <ele>1849.2</ele>
        <time>2023-03-10T11:57:50Z</time>
      </trkpt>
      <trkpt lat="44.81191" lon="6.96722">
        <ele>1849.9</ele>
        <time>2023-03-10T11:58:03Z</time>
      </trkpt>
      <trkpt lat="44.81204" lon="6.96713">
        <ele>1851.7</ele>
        <time>2023-03-10T11:59:33Z</time>
      </trkpt>
      <trkpt lat="44.81202" lon="6.96692">
        <ele>1851.3</ele>
        <time>2023-03-10T11:59:50Z</time>
      </trkpt>
      <trkpt lat="44.812" lon="6.9668">
        <ele>1851.3</ele>
        <time>2023-03-10T11:59:58Z</time>
      </trkpt>
      <trkpt lat="44.81188" lon="6.9663">
        <ele>1850.5</ele>
        <time>2023-03-10T12:00:34Z</time>
      </trkpt>
      <trkpt lat="44.81159" lon="6.96468">
        <ele>1847</ele>
        <time>2023-03-10T12:02:18Z</time>
      </trkpt>
      <trkpt lat="44.81156" lon="6.96277">
        <ele>1841.5</ele>
        <time>2023-03-10T12:03:50Z</time>
      </trkpt>
      <trkpt lat="44.8119" lon="6.96184">
        <ele>1839.2</ele>
        <time>2023-03-10T12:04:48Z</time>
      </trkpt>
      <trkpt lat="44.81187" lon="6.9613">
        <ele>1836.7</ele>
        <time>2023-03-10T12:05:04Z</time>
      </trkpt>
      <trkpt lat="44.81178" lon="6.96066">
        <ele>1831.3</ele>
        <time>2023-03-10T12:05:20Z</time>
      </trkpt>
      <trkpt lat="44.81192" lon="6.96031">
        <ele>1827.8</ele>
        <time>2023-03-10T12:05:30Z</time>
      </trkpt>
      <trkpt lat="44.81208" lon="6.95997">
        <ele>1825.8</ele>
        <time>2023-03-10T12:05:37Z</time>
      </trkpt>
      <trkpt lat="44.81228" lon="6.95958">
        <ele>1824.8</ele>
        <time>2023-03-10T12:05:44Z</time>
      </trkpt>
      <trkpt lat="44.81256" lon="6.95767">
        <ele>1811.4</ele>
        <time>2023-03-10T12:06:12Z</time>
      </trkpt>
      <trkpt lat="44.81246" lon="6.95666">
        <ele>1801.6</ele>
        <time>2023-03-10T12:06:34Z</time>
      </trkpt>
      <trkpt lat="44.81248" lon="6.95631">
        <ele>1801.3</ele>
        <time>2023-03-10T12:06:57Z</time>
      </trkpt>
      <trkpt lat="44.81291" lon="6.95541">
        <ele>1803</ele>
        <time>2023-03-10T12:08:12Z</time>
      </trkpt>
      <trkpt lat="44.81316" lon="6.95447">
        <ele>1801.6</ele>
        <time>2023-03-10T12:09:14Z</time>
      </trkpt>
      <trkpt lat="44.81319" lon="6.95435">
        <ele>1800.6</ele>
        <time>2023-03-10T12:09:21Z</time>
      </trkpt>
      <trkpt lat="44.81379" lon="6.95353">
        <ele>1801.1</ele>
        <time>2023-03-10T12:10:53Z</time>
      </trkpt>
      <trkpt lat="44.81458" lon="6.95259">
        <ele>1799.3</ele>
        <time>2023-03-10T12:12:41Z</time>
      </trkpt>
      <trkpt lat="44.8147" lon="6.95214">
        <ele>1793.4</ele>
        <time>2023-03-10T12:13:08Z</time>
      </trkpt>
      <trkpt lat="44.81491" lon="6.9519">
        <ele>1792.9</ele>
        <time>2023-03-10T12:13:19Z</time>
      </trkpt>
      <trkpt lat="44.81521" lon="6.95162">
        <ele>1791.2</ele>
        <time>2023-03-10T12:13:27Z</time>
      </trkpt>
      <trkpt lat="44.8153" lon="6.95119">
        <ele>1785.6</ele>
        <time>2023-03-10T12:13:32Z</time>
      </trkpt>
      <trkpt lat="44.81551" lon="6.94994">
        <ele>1778.8</ele>
        <time>2023-03-10T12:13:52Z</time>
      </trkpt>
      <trkpt lat="44.81554" lon="6.94924">
        <ele>1771.1</ele>
        <time>2023-03-10T12:14:07Z</time>
      </trkpt>
      <trkpt lat="44.81583" lon="6.94819">
        <ele>1768.3</ele>
        <time>2023-03-10T12:14:32Z</time>
      </trkpt>
      <trkpt lat="44.81637" lon="6.94725">
        <ele>1761.5</ele>
        <time>2023-03-10T12:14:57Z</time>
      </trkpt>
      <trkpt lat="44.81658" lon="6.94681">
        <ele>1761.1</ele>
        <time>2023-03-10T12:15:33Z</time>
      </trkpt>
      <trkpt lat="44.81727" lon="6.94626">
        <ele>1758.7</ele>
        <time>2023-03-10T12:16:11Z</time>
      </trkpt>
      <trkpt lat="44.81742" lon="6.94615">
        <ele>1758.3</ele>
        <time>2023-03-10T12:16:15Z</time>
      </trkpt>
      <trkpt lat="44.81814" lon="6.94492">
        <ele>1751.9</ele>
        <time>2023-03-10T12:17:45Z</time>
      </trkpt>
      <trkpt lat="44.81934" lon="6.94421">
        <ele>1755.5</ele>
        <time>2023-03-10T12:25:39Z</time>
      </trkpt>
    </trkseg>
  </trk>
</gpx>